<?xml version="1.0" encoding="UTF-8" standalone="no" ?>
<gpx xmlns="http://www.topografix.com/GPX/1/1" xmlns:xsi="http://www.w3.org/2001/XMLSchema-instance" xsi:schemaLocation="http://www.topografix.com/GPX/1/1 http://www.topografix.com/GPX/1/1/gpx.xsd" version="1.1" creator="VisuGPX - https://www.visugpx.com">
  <metadata>
    <name>Bohal</name>
    <desc><![CDATA[Journée marche entre Bohal et Sérent, sur les traces du maquis et dans les landes]]></desc>
  </metadata>
  <trk>
    <name><![CDATA[Tracé 20250211-082141]]></name>
    <extensions>
      <line xmlns="http://www.topografix.com/GPX/gpx_style/0/2">
        <color>0000FF</color>
        <width>4</width>
      </line>
    </extensions>
    <trkseg>
      <trkpt lat="47.7812" lon="-2.43784">
        <ele>69.4</ele>
        <time>2025-02-11T07:21:41Z</time>
      </trkpt>
      <trkpt lat="47.7812" lon="-2.43784">
        <ele>69.4</ele>
        <time>2025-02-11T07:21:42Z</time>
      </trkpt>
      <trkpt lat="47.7812" lon="-2.43784">
        <ele>69.4</ele>
        <time>2025-02-11T07:21:43Z</time>
      </trkpt>
      <trkpt lat="47.78119" lon="-2.43784">
        <ele>69.4</ele>
        <time>2025-02-11T07:21:44Z</time>
      </trkpt>
      <trkpt lat="47.78119" lon="-2.43784">
        <ele>69.4</ele>
        <time>2025-02-11T07:21:45Z</time>
      </trkpt>
      <trkpt lat="47.78119" lon="-2.43784">
        <ele>69.4</ele>
        <time>2025-02-11T07:21:46Z</time>
      </trkpt>
      <trkpt lat="47.78119" lon="-2.43784">
        <ele>69.4</ele>
        <time>2025-02-11T07:21:47Z</time>
      </trkpt>
      <trkpt lat="47.78119" lon="-2.43783">
        <ele>69.3</ele>
        <time>2025-02-11T07:21:48Z</time>
      </trkpt>
      <trkpt lat="47.78119" lon="-2.43783">
        <ele>69.3</ele>
        <time>2025-02-11T07:21:49Z</time>
      </trkpt>
      <trkpt lat="47.78119" lon="-2.43784">
        <ele>69.4</ele>
        <time>2025-02-11T07:21:50Z</time>
      </trkpt>
      <trkpt lat="47.78119" lon="-2.43784">
        <ele>69.4</ele>
        <time>2025-02-11T07:21:51Z</time>
      </trkpt>
      <trkpt lat="47.78119" lon="-2.43784">
        <ele>69.4</ele>
        <time>2025-02-11T07:21:52Z</time>
      </trkpt>
      <trkpt lat="47.78119" lon="-2.43784">
        <ele>69.4</ele>
        <time>2025-02-11T07:21:53Z</time>
      </trkpt>
      <trkpt lat="47.78119" lon="-2.43784">
        <ele>69.4</ele>
        <time>2025-02-11T07:21:54Z</time>
      </trkpt>
      <trkpt lat="47.78119" lon="-2.43784">
        <ele>69.4</ele>
        <time>2025-02-11T07:21:55Z</time>
      </trkpt>
      <trkpt lat="47.78119" lon="-2.43784">
        <ele>69.4</ele>
        <time>2025-02-11T07:21:56Z</time>
      </trkpt>
      <trkpt lat="47.7812" lon="-2.43784">
        <ele>69.4</ele>
        <time>2025-02-11T07:21:57Z</time>
      </trkpt>
      <trkpt lat="47.7812" lon="-2.43784">
        <ele>69.4</ele>
        <time>2025-02-11T07:21:58Z</time>
      </trkpt>
      <trkpt lat="47.78119" lon="-2.43784">
        <ele>69.4</ele>
        <time>2025-02-11T07:21:59Z</time>
      </trkpt>
      <trkpt lat="47.7812" lon="-2.43784">
        <ele>69.4</ele>
        <time>2025-02-11T07:22:00Z</time>
      </trkpt>
      <trkpt lat="47.7812" lon="-2.43784">
        <ele>69.4</ele>
        <time>2025-02-11T07:22:01Z</time>
      </trkpt>
      <trkpt lat="47.7812" lon="-2.43784">
        <ele>69.4</ele>
        <time>2025-02-11T07:22:02Z</time>
      </trkpt>
      <trkpt lat="47.7812" lon="-2.43784">
        <ele>69.4</ele>
        <time>2025-02-11T07:22:03Z</time>
      </trkpt>
      <trkpt lat="47.7812" lon="-2.43784">
        <ele>69.4</ele>
        <time>2025-02-11T07:22:04Z</time>
      </trkpt>
      <trkpt lat="47.7812" lon="-2.43784">
        <ele>69.4</ele>
        <time>2025-02-11T07:22:05Z</time>
      </trkpt>
      <trkpt lat="47.7812" lon="-2.43784">
        <ele>69.4</ele>
        <time>2025-02-11T07:22:06Z</time>
      </trkpt>
      <trkpt lat="47.7812" lon="-2.43784">
        <ele>69.4</ele>
        <time>2025-02-11T07:22:07Z</time>
      </trkpt>
      <trkpt lat="47.78119" lon="-2.43784">
        <ele>69.4</ele>
        <time>2025-02-11T07:22:08Z</time>
      </trkpt>
      <trkpt lat="47.7812" lon="-2.43784">
        <ele>69.4</ele>
        <time>2025-02-11T07:22:09Z</time>
      </trkpt>
      <trkpt lat="47.7812" lon="-2.43784">
        <ele>69.4</ele>
        <time>2025-02-11T07:22:10Z</time>
      </trkpt>
      <trkpt lat="47.7812" lon="-2.43784">
        <ele>69.4</ele>
        <time>2025-02-11T07:22:11Z</time>
      </trkpt>
      <trkpt lat="47.7812" lon="-2.43784">
        <ele>69.4</ele>
        <time>2025-02-11T07:22:12Z</time>
      </trkpt>
      <trkpt lat="47.7812" lon="-2.43784">
        <ele>69.4</ele>
        <time>2025-02-11T07:22:13Z</time>
      </trkpt>
      <trkpt lat="47.7812" lon="-2.43784">
        <ele>69.4</ele>
        <time>2025-02-11T07:22:14Z</time>
      </trkpt>
      <trkpt lat="47.7812" lon="-2.43784">
        <ele>69.4</ele>
        <time>2025-02-11T07:22:15Z</time>
      </trkpt>
      <trkpt lat="47.7812" lon="-2.43784">
        <ele>69.4</ele>
        <time>2025-02-11T07:22:16Z</time>
      </trkpt>
      <trkpt lat="47.7812" lon="-2.43784">
        <ele>69.4</ele>
        <time>2025-02-11T07:22:17Z</time>
      </trkpt>
      <trkpt lat="47.78119" lon="-2.43784">
        <ele>69.4</ele>
        <time>2025-02-11T07:22:18Z</time>
      </trkpt>
      <trkpt lat="47.78119" lon="-2.43784">
        <ele>69.4</ele>
        <time>2025-02-11T07:22:19Z</time>
      </trkpt>
      <trkpt lat="47.78119" lon="-2.43783">
        <ele>69.3</ele>
        <time>2025-02-11T07:22:20Z</time>
      </trkpt>
      <trkpt lat="47.78119" lon="-2.43783">
        <ele>69.3</ele>
        <time>2025-02-11T07:22:21Z</time>
      </trkpt>
      <trkpt lat="47.78119" lon="-2.43783">
        <ele>69.3</ele>
        <time>2025-02-11T07:22:22Z</time>
      </trkpt>
      <trkpt lat="47.78119" lon="-2.43783">
        <ele>69.3</ele>
        <time>2025-02-11T07:22:23Z</time>
      </trkpt>
      <trkpt lat="47.78119" lon="-2.43783">
        <ele>69.3</ele>
        <time>2025-02-11T07:22:24Z</time>
      </trkpt>
      <trkpt lat="47.78118" lon="-2.43783">
        <ele>69.3</ele>
        <time>2025-02-11T07:22:25Z</time>
      </trkpt>
      <trkpt lat="47.78118" lon="-2.43782">
        <ele>69.3</ele>
        <time>2025-02-11T07:22:26Z</time>
      </trkpt>
      <trkpt lat="47.78118" lon="-2.43782">
        <ele>69.3</ele>
        <time>2025-02-11T07:22:27Z</time>
      </trkpt>
      <trkpt lat="47.78118" lon="-2.43782">
        <ele>69.2</ele>
        <time>2025-02-11T07:22:28Z</time>
      </trkpt>
      <trkpt lat="47.78118" lon="-2.43782">
        <ele>69.2</ele>
        <time>2025-02-11T07:22:29Z</time>
      </trkpt>
      <trkpt lat="47.78118" lon="-2.43782">
        <ele>69.2</ele>
        <time>2025-02-11T07:22:30Z</time>
      </trkpt>
      <trkpt lat="47.78118" lon="-2.43782">
        <ele>69.2</ele>
        <time>2025-02-11T07:22:31Z</time>
      </trkpt>
      <trkpt lat="47.78118" lon="-2.43782">
        <ele>69.2</ele>
        <time>2025-02-11T07:22:32Z</time>
      </trkpt>
      <trkpt lat="47.78118" lon="-2.43782">
        <ele>69.2</ele>
        <time>2025-02-11T07:22:33Z</time>
      </trkpt>
      <trkpt lat="47.78118" lon="-2.43782">
        <ele>69.2</ele>
        <time>2025-02-11T07:22:34Z</time>
      </trkpt>
      <trkpt lat="47.78118" lon="-2.43782">
        <ele>69.2</ele>
        <time>2025-02-11T07:22:35Z</time>
      </trkpt>
      <trkpt lat="47.78118" lon="-2.43782">
        <ele>69.3</ele>
        <time>2025-02-11T07:22:36Z</time>
      </trkpt>
      <trkpt lat="47.78118" lon="-2.43782">
        <ele>69.3</ele>
        <time>2025-02-11T07:22:37Z</time>
      </trkpt>
      <trkpt lat="47.78118" lon="-2.43782">
        <ele>69.3</ele>
        <time>2025-02-11T07:22:38Z</time>
      </trkpt>
      <trkpt lat="47.78118" lon="-2.43782">
        <ele>69.3</ele>
        <time>2025-02-11T07:22:39Z</time>
      </trkpt>
      <trkpt lat="47.78118" lon="-2.43782">
        <ele>69.3</ele>
        <time>2025-02-11T07:22:40Z</time>
      </trkpt>
      <trkpt lat="47.78118" lon="-2.43782">
        <ele>69.3</ele>
        <time>2025-02-11T07:22:41Z</time>
      </trkpt>
      <trkpt lat="47.78119" lon="-2.43782">
        <ele>69.2</ele>
        <time>2025-02-11T07:22:42Z</time>
      </trkpt>
      <trkpt lat="47.78119" lon="-2.43781">
        <ele>69.2</ele>
        <time>2025-02-11T07:22:43Z</time>
      </trkpt>
      <trkpt lat="47.78119" lon="-2.43781">
        <ele>69.2</ele>
        <time>2025-02-11T07:22:44Z</time>
      </trkpt>
      <trkpt lat="47.78119" lon="-2.43781">
        <ele>69.2</ele>
        <time>2025-02-11T07:22:45Z</time>
      </trkpt>
      <trkpt lat="47.78119" lon="-2.43781">
        <ele>69.2</ele>
        <time>2025-02-11T07:22:46Z</time>
      </trkpt>
      <trkpt lat="47.78119" lon="-2.43781">
        <ele>69.2</ele>
        <time>2025-02-11T07:22:47Z</time>
      </trkpt>
      <trkpt lat="47.78119" lon="-2.43781">
        <ele>69.2</ele>
        <time>2025-02-11T07:22:48Z</time>
      </trkpt>
      <trkpt lat="47.7812" lon="-2.43781">
        <ele>69.2</ele>
        <time>2025-02-11T07:22:49Z</time>
      </trkpt>
      <trkpt lat="47.7812" lon="-2.43781">
        <ele>69.2</ele>
        <time>2025-02-11T07:22:50Z</time>
      </trkpt>
      <trkpt lat="47.7812" lon="-2.43781">
        <ele>69.2</ele>
        <time>2025-02-11T07:22:51Z</time>
      </trkpt>
      <trkpt lat="47.7812" lon="-2.43781">
        <ele>69.2</ele>
        <time>2025-02-11T07:22:52Z</time>
      </trkpt>
      <trkpt lat="47.7812" lon="-2.43781">
        <ele>69.2</ele>
        <time>2025-02-11T07:22:53Z</time>
      </trkpt>
      <trkpt lat="47.7812" lon="-2.43781">
        <ele>69.2</ele>
        <time>2025-02-11T07:22:54Z</time>
      </trkpt>
      <trkpt lat="47.7812" lon="-2.43781">
        <ele>69.2</ele>
        <time>2025-02-11T07:22:55Z</time>
      </trkpt>
      <trkpt lat="47.7812" lon="-2.43781">
        <ele>69.2</ele>
        <time>2025-02-11T07:22:56Z</time>
      </trkpt>
      <trkpt lat="47.7812" lon="-2.43781">
        <ele>69.2</ele>
        <time>2025-02-11T07:22:57Z</time>
      </trkpt>
      <trkpt lat="47.7812" lon="-2.43781">
        <ele>69.2</ele>
        <time>2025-02-11T07:22:58Z</time>
      </trkpt>
      <trkpt lat="47.7812" lon="-2.43781">
        <ele>69.2</ele>
        <time>2025-02-11T07:22:59Z</time>
      </trkpt>
      <trkpt lat="47.7812" lon="-2.43781">
        <ele>69.2</ele>
        <time>2025-02-11T07:23:00Z</time>
      </trkpt>
      <trkpt lat="47.7812" lon="-2.43781">
        <ele>69.2</ele>
        <time>2025-02-11T07:23:01Z</time>
      </trkpt>
      <trkpt lat="47.7812" lon="-2.43781">
        <ele>69.2</ele>
        <time>2025-02-11T07:23:02Z</time>
      </trkpt>
      <trkpt lat="47.7812" lon="-2.43781">
        <ele>69.2</ele>
        <time>2025-02-11T07:23:03Z</time>
      </trkpt>
      <trkpt lat="47.7812" lon="-2.43781">
        <ele>69.2</ele>
        <time>2025-02-11T07:23:04Z</time>
      </trkpt>
      <trkpt lat="47.7812" lon="-2.43781">
        <ele>69.2</ele>
        <time>2025-02-11T07:23:05Z</time>
      </trkpt>
      <trkpt lat="47.7812" lon="-2.43781">
        <ele>69.2</ele>
        <time>2025-02-11T07:23:06Z</time>
      </trkpt>
      <trkpt lat="47.7812" lon="-2.43782">
        <ele>69.2</ele>
        <time>2025-02-11T07:23:07Z</time>
      </trkpt>
      <trkpt lat="47.7812" lon="-2.43782">
        <ele>69.2</ele>
        <time>2025-02-11T07:23:08Z</time>
      </trkpt>
      <trkpt lat="47.7812" lon="-2.43782">
        <ele>69.2</ele>
        <time>2025-02-11T07:23:09Z</time>
      </trkpt>
      <trkpt lat="47.7812" lon="-2.43782">
        <ele>69.2</ele>
        <time>2025-02-11T07:23:10Z</time>
      </trkpt>
      <trkpt lat="47.7812" lon="-2.43782">
        <ele>69.2</ele>
        <time>2025-02-11T07:23:11Z</time>
      </trkpt>
      <trkpt lat="47.7812" lon="-2.43782">
        <ele>69.2</ele>
        <time>2025-02-11T07:23:12Z</time>
      </trkpt>
      <trkpt lat="47.7812" lon="-2.43782">
        <ele>69.2</ele>
        <time>2025-02-11T07:23:13Z</time>
      </trkpt>
      <trkpt lat="47.7812" lon="-2.43782">
        <ele>69.2</ele>
        <time>2025-02-11T07:23:14Z</time>
      </trkpt>
      <trkpt lat="47.7812" lon="-2.43782">
        <ele>69.2</ele>
        <time>2025-02-11T07:23:15Z</time>
      </trkpt>
      <trkpt lat="47.7812" lon="-2.43782">
        <ele>69.2</ele>
        <time>2025-02-11T07:23:16Z</time>
      </trkpt>
      <trkpt lat="47.7812" lon="-2.43782">
        <ele>69.2</ele>
        <time>2025-02-11T07:23:17Z</time>
      </trkpt>
      <trkpt lat="47.7812" lon="-2.43782">
        <ele>69.2</ele>
        <time>2025-02-11T07:23:18Z</time>
      </trkpt>
      <trkpt lat="47.7812" lon="-2.43782">
        <ele>69.2</ele>
        <time>2025-02-11T07:23:19Z</time>
      </trkpt>
      <trkpt lat="47.7812" lon="-2.43782">
        <ele>69.2</ele>
        <time>2025-02-11T07:23:20Z</time>
      </trkpt>
      <trkpt lat="47.7812" lon="-2.43782">
        <ele>69.2</ele>
        <time>2025-02-11T07:23:21Z</time>
      </trkpt>
      <trkpt lat="47.7812" lon="-2.43782">
        <ele>69.2</ele>
        <time>2025-02-11T07:23:22Z</time>
      </trkpt>
      <trkpt lat="47.7812" lon="-2.43782">
        <ele>69.2</ele>
        <time>2025-02-11T07:23:23Z</time>
      </trkpt>
      <trkpt lat="47.7812" lon="-2.43782">
        <ele>69.2</ele>
        <time>2025-02-11T07:23:24Z</time>
      </trkpt>
      <trkpt lat="47.7812" lon="-2.43782">
        <ele>69.2</ele>
        <time>2025-02-11T07:23:25Z</time>
      </trkpt>
      <trkpt lat="47.7812" lon="-2.43782">
        <ele>69.2</ele>
        <time>2025-02-11T07:23:26Z</time>
      </trkpt>
      <trkpt lat="47.7812" lon="-2.43782">
        <ele>69.2</ele>
        <time>2025-02-11T07:23:27Z</time>
      </trkpt>
      <trkpt lat="47.7812" lon="-2.43782">
        <ele>69.2</ele>
        <time>2025-02-11T07:23:28Z</time>
      </trkpt>
      <trkpt lat="47.7812" lon="-2.43782">
        <ele>69.2</ele>
        <time>2025-02-11T07:23:29Z</time>
      </trkpt>
      <trkpt lat="47.7812" lon="-2.43782">
        <ele>69.2</ele>
        <time>2025-02-11T07:23:30Z</time>
      </trkpt>
      <trkpt lat="47.7812" lon="-2.43782">
        <ele>69.2</ele>
        <time>2025-02-11T07:23:31Z</time>
      </trkpt>
      <trkpt lat="47.7812" lon="-2.43782">
        <ele>69.2</ele>
        <time>2025-02-11T07:23:32Z</time>
      </trkpt>
      <trkpt lat="47.7812" lon="-2.43782">
        <ele>69.2</ele>
        <time>2025-02-11T07:23:33Z</time>
      </trkpt>
      <trkpt lat="47.7812" lon="-2.43782">
        <ele>69.2</ele>
        <time>2025-02-11T07:23:34Z</time>
      </trkpt>
      <trkpt lat="47.7812" lon="-2.43782">
        <ele>69.2</ele>
        <time>2025-02-11T07:23:35Z</time>
      </trkpt>
      <trkpt lat="47.7812" lon="-2.43782">
        <ele>69.2</ele>
        <time>2025-02-11T07:23:36Z</time>
      </trkpt>
      <trkpt lat="47.7812" lon="-2.43782">
        <ele>69.2</ele>
        <time>2025-02-11T07:23:37Z</time>
      </trkpt>
      <trkpt lat="47.7812" lon="-2.43782">
        <ele>69.2</ele>
        <time>2025-02-11T07:23:38Z</time>
      </trkpt>
      <trkpt lat="47.7812" lon="-2.43782">
        <ele>69.2</ele>
        <time>2025-02-11T07:23:39Z</time>
      </trkpt>
      <trkpt lat="47.7812" lon="-2.43782">
        <ele>69.2</ele>
        <time>2025-02-11T07:23:40Z</time>
      </trkpt>
      <trkpt lat="47.7812" lon="-2.43782">
        <ele>69.2</ele>
        <time>2025-02-11T07:23:41Z</time>
      </trkpt>
      <trkpt lat="47.7812" lon="-2.43782">
        <ele>69.2</ele>
        <time>2025-02-11T07:23:42Z</time>
      </trkpt>
      <trkpt lat="47.7812" lon="-2.43782">
        <ele>69.2</ele>
        <time>2025-02-11T07:23:43Z</time>
      </trkpt>
      <trkpt lat="47.7812" lon="-2.43782">
        <ele>69.2</ele>
        <time>2025-02-11T07:23:44Z</time>
      </trkpt>
      <trkpt lat="47.7812" lon="-2.43782">
        <ele>69.2</ele>
        <time>2025-02-11T07:23:45Z</time>
      </trkpt>
      <trkpt lat="47.7812" lon="-2.43782">
        <ele>69.2</ele>
        <time>2025-02-11T07:23:46Z</time>
      </trkpt>
      <trkpt lat="47.7812" lon="-2.43782">
        <ele>69.2</ele>
        <time>2025-02-11T07:23:47Z</time>
      </trkpt>
      <trkpt lat="47.7812" lon="-2.43782">
        <ele>69.2</ele>
        <time>2025-02-11T07:23:48Z</time>
      </trkpt>
      <trkpt lat="47.7812" lon="-2.43782">
        <ele>69.2</ele>
        <time>2025-02-11T07:23:49Z</time>
      </trkpt>
      <trkpt lat="47.7812" lon="-2.43782">
        <ele>69.2</ele>
        <time>2025-02-11T07:23:50Z</time>
      </trkpt>
      <trkpt lat="47.7812" lon="-2.43781">
        <ele>69.2</ele>
        <time>2025-02-11T07:23:51Z</time>
      </trkpt>
      <trkpt lat="47.7812" lon="-2.43781">
        <ele>69.2</ele>
        <time>2025-02-11T07:23:52Z</time>
      </trkpt>
      <trkpt lat="47.7812" lon="-2.43781">
        <ele>69.2</ele>
        <time>2025-02-11T07:23:53Z</time>
      </trkpt>
      <trkpt lat="47.7812" lon="-2.43781">
        <ele>69.2</ele>
        <time>2025-02-11T07:23:54Z</time>
      </trkpt>
      <trkpt lat="47.7812" lon="-2.43781">
        <ele>69.2</ele>
        <time>2025-02-11T07:23:55Z</time>
      </trkpt>
      <trkpt lat="47.7812" lon="-2.43781">
        <ele>69.2</ele>
        <time>2025-02-11T07:23:56Z</time>
      </trkpt>
      <trkpt lat="47.7812" lon="-2.43781">
        <ele>69.2</ele>
        <time>2025-02-11T07:23:57Z</time>
      </trkpt>
      <trkpt lat="47.7812" lon="-2.43781">
        <ele>69.2</ele>
        <time>2025-02-11T07:23:58Z</time>
      </trkpt>
      <trkpt lat="47.7812" lon="-2.43781">
        <ele>69.2</ele>
        <time>2025-02-11T07:23:59Z</time>
      </trkpt>
      <trkpt lat="47.7812" lon="-2.43781">
        <ele>69.2</ele>
        <time>2025-02-11T07:24:00Z</time>
      </trkpt>
      <trkpt lat="47.7812" lon="-2.43781">
        <ele>69.2</ele>
        <time>2025-02-11T07:24:01Z</time>
      </trkpt>
      <trkpt lat="47.7812" lon="-2.43781">
        <ele>69.2</ele>
        <time>2025-02-11T07:24:02Z</time>
      </trkpt>
      <trkpt lat="47.7812" lon="-2.43781">
        <ele>69.2</ele>
        <time>2025-02-11T07:24:03Z</time>
      </trkpt>
      <trkpt lat="47.7812" lon="-2.43781">
        <ele>69.2</ele>
        <time>2025-02-11T07:24:04Z</time>
      </trkpt>
      <trkpt lat="47.7812" lon="-2.43781">
        <ele>69.2</ele>
        <time>2025-02-11T07:24:05Z</time>
      </trkpt>
      <trkpt lat="47.7812" lon="-2.43781">
        <ele>69.2</ele>
        <time>2025-02-11T07:24:06Z</time>
      </trkpt>
      <trkpt lat="47.7812" lon="-2.43781">
        <ele>69.2</ele>
        <time>2025-02-11T07:24:07Z</time>
      </trkpt>
      <trkpt lat="47.7812" lon="-2.43781">
        <ele>69.2</ele>
        <time>2025-02-11T07:24:08Z</time>
      </trkpt>
      <trkpt lat="47.7812" lon="-2.43781">
        <ele>69.2</ele>
        <time>2025-02-11T07:24:09Z</time>
      </trkpt>
      <trkpt lat="47.7812" lon="-2.43781">
        <ele>69.2</ele>
        <time>2025-02-11T07:24:10Z</time>
      </trkpt>
      <trkpt lat="47.7812" lon="-2.43781">
        <ele>69.2</ele>
        <time>2025-02-11T07:24:11Z</time>
      </trkpt>
      <trkpt lat="47.7812" lon="-2.43781">
        <ele>69.2</ele>
        <time>2025-02-11T07:24:12Z</time>
      </trkpt>
      <trkpt lat="47.7812" lon="-2.43781">
        <ele>69.2</ele>
        <time>2025-02-11T07:24:13Z</time>
      </trkpt>
      <trkpt lat="47.7812" lon="-2.43781">
        <ele>69.2</ele>
        <time>2025-02-11T07:24:14Z</time>
      </trkpt>
      <trkpt lat="47.7812" lon="-2.43781">
        <ele>69.2</ele>
        <time>2025-02-11T07:24:15Z</time>
      </trkpt>
      <trkpt lat="47.7812" lon="-2.43781">
        <ele>69.2</ele>
        <time>2025-02-11T07:24:16Z</time>
      </trkpt>
      <trkpt lat="47.7812" lon="-2.43781">
        <ele>69.2</ele>
        <time>2025-02-11T07:24:17Z</time>
      </trkpt>
      <trkpt lat="47.7812" lon="-2.43781">
        <ele>69.2</ele>
        <time>2025-02-11T07:24:18Z</time>
      </trkpt>
      <trkpt lat="47.7812" lon="-2.43781">
        <ele>69.2</ele>
        <time>2025-02-11T07:24:19Z</time>
      </trkpt>
      <trkpt lat="47.7812" lon="-2.43781">
        <ele>69.2</ele>
        <time>2025-02-11T07:24:20Z</time>
      </trkpt>
      <trkpt lat="47.7812" lon="-2.43781">
        <ele>69.2</ele>
        <time>2025-02-11T07:24:21Z</time>
      </trkpt>
      <trkpt lat="47.7812" lon="-2.43781">
        <ele>69.2</ele>
        <time>2025-02-11T07:24:22Z</time>
      </trkpt>
      <trkpt lat="47.7812" lon="-2.43781">
        <ele>69.2</ele>
        <time>2025-02-11T07:24:23Z</time>
      </trkpt>
      <trkpt lat="47.7812" lon="-2.43781">
        <ele>69.2</ele>
        <time>2025-02-11T07:24:24Z</time>
      </trkpt>
      <trkpt lat="47.7812" lon="-2.43781">
        <ele>69.2</ele>
        <time>2025-02-11T07:24:25Z</time>
      </trkpt>
      <trkpt lat="47.7812" lon="-2.43781">
        <ele>69.2</ele>
        <time>2025-02-11T07:24:26Z</time>
      </trkpt>
      <trkpt lat="47.7812" lon="-2.43781">
        <ele>69.2</ele>
        <time>2025-02-11T07:24:27Z</time>
      </trkpt>
      <trkpt lat="47.7812" lon="-2.43781">
        <ele>69.2</ele>
        <time>2025-02-11T07:24:28Z</time>
      </trkpt>
      <trkpt lat="47.7812" lon="-2.43781">
        <ele>69.2</ele>
        <time>2025-02-11T07:24:29Z</time>
      </trkpt>
      <trkpt lat="47.7812" lon="-2.43781">
        <ele>69.2</ele>
        <time>2025-02-11T07:24:30Z</time>
      </trkpt>
      <trkpt lat="47.7812" lon="-2.43781">
        <ele>69.2</ele>
        <time>2025-02-11T07:24:31Z</time>
      </trkpt>
      <trkpt lat="47.7812" lon="-2.43781">
        <ele>69.2</ele>
        <time>2025-02-11T07:24:32Z</time>
      </trkpt>
      <trkpt lat="47.7812" lon="-2.43781">
        <ele>69.2</ele>
        <time>2025-02-11T07:24:33Z</time>
      </trkpt>
      <trkpt lat="47.7812" lon="-2.43781">
        <ele>69.2</ele>
        <time>2025-02-11T07:24:34Z</time>
      </trkpt>
      <trkpt lat="47.7812" lon="-2.43781">
        <ele>69.2</ele>
        <time>2025-02-11T07:24:35Z</time>
      </trkpt>
      <trkpt lat="47.7812" lon="-2.43781">
        <ele>69.2</ele>
        <time>2025-02-11T07:24:36Z</time>
      </trkpt>
      <trkpt lat="47.7812" lon="-2.43781">
        <ele>69.2</ele>
        <time>2025-02-11T07:24:37Z</time>
      </trkpt>
      <trkpt lat="47.7812" lon="-2.43781">
        <ele>69.2</ele>
        <time>2025-02-11T07:24:38Z</time>
      </trkpt>
      <trkpt lat="47.7812" lon="-2.43781">
        <ele>69.2</ele>
        <time>2025-02-11T07:24:39Z</time>
      </trkpt>
      <trkpt lat="47.7812" lon="-2.43781">
        <ele>69.2</ele>
        <time>2025-02-11T07:24:40Z</time>
      </trkpt>
      <trkpt lat="47.7812" lon="-2.43781">
        <ele>69.2</ele>
        <time>2025-02-11T07:24:41Z</time>
      </trkpt>
      <trkpt lat="47.7812" lon="-2.43781">
        <ele>69.2</ele>
        <time>2025-02-11T07:24:42Z</time>
      </trkpt>
      <trkpt lat="47.7812" lon="-2.43781">
        <ele>69.2</ele>
        <time>2025-02-11T07:24:43Z</time>
      </trkpt>
      <trkpt lat="47.7812" lon="-2.43781">
        <ele>69.2</ele>
        <time>2025-02-11T07:24:44Z</time>
      </trkpt>
      <trkpt lat="47.7812" lon="-2.43781">
        <ele>69.2</ele>
        <time>2025-02-11T07:24:45Z</time>
      </trkpt>
      <trkpt lat="47.7812" lon="-2.43781">
        <ele>69.2</ele>
        <time>2025-02-11T07:24:46Z</time>
      </trkpt>
      <trkpt lat="47.7812" lon="-2.43781">
        <ele>69.2</ele>
        <time>2025-02-11T07:24:47Z</time>
      </trkpt>
      <trkpt lat="47.7812" lon="-2.43781">
        <ele>69.2</ele>
        <time>2025-02-11T07:24:48Z</time>
      </trkpt>
      <trkpt lat="47.7812" lon="-2.43781">
        <ele>69.2</ele>
        <time>2025-02-11T07:24:49Z</time>
      </trkpt>
      <trkpt lat="47.7812" lon="-2.43781">
        <ele>69.2</ele>
        <time>2025-02-11T07:24:50Z</time>
      </trkpt>
      <trkpt lat="47.7812" lon="-2.43781">
        <ele>69.2</ele>
        <time>2025-02-11T07:24:51Z</time>
      </trkpt>
      <trkpt lat="47.7812" lon="-2.43781">
        <ele>69.2</ele>
        <time>2025-02-11T07:24:52Z</time>
      </trkpt>
      <trkpt lat="47.7812" lon="-2.43781">
        <ele>69.2</ele>
        <time>2025-02-11T07:24:53Z</time>
      </trkpt>
      <trkpt lat="47.7812" lon="-2.43781">
        <ele>69.2</ele>
        <time>2025-02-11T07:24:54Z</time>
      </trkpt>
      <trkpt lat="47.7812" lon="-2.43781">
        <ele>69.2</ele>
        <time>2025-02-11T07:24:55Z</time>
      </trkpt>
      <trkpt lat="47.7812" lon="-2.43781">
        <ele>69.2</ele>
        <time>2025-02-11T07:24:56Z</time>
      </trkpt>
      <trkpt lat="47.7812" lon="-2.43781">
        <ele>69.2</ele>
        <time>2025-02-11T07:24:57Z</time>
      </trkpt>
      <trkpt lat="47.7812" lon="-2.43781">
        <ele>69.2</ele>
        <time>2025-02-11T07:24:58Z</time>
      </trkpt>
      <trkpt lat="47.7812" lon="-2.43781">
        <ele>69.2</ele>
        <time>2025-02-11T07:24:59Z</time>
      </trkpt>
      <trkpt lat="47.7812" lon="-2.43781">
        <ele>69.2</ele>
        <time>2025-02-11T07:25:00Z</time>
      </trkpt>
      <trkpt lat="47.7812" lon="-2.43781">
        <ele>69.2</ele>
        <time>2025-02-11T07:25:01Z</time>
      </trkpt>
      <trkpt lat="47.7812" lon="-2.43781">
        <ele>69.2</ele>
        <time>2025-02-11T07:25:02Z</time>
      </trkpt>
      <trkpt lat="47.7812" lon="-2.43781">
        <ele>69.2</ele>
        <time>2025-02-11T07:25:03Z</time>
      </trkpt>
      <trkpt lat="47.7812" lon="-2.43781">
        <ele>69.2</ele>
        <time>2025-02-11T07:25:04Z</time>
      </trkpt>
      <trkpt lat="47.7812" lon="-2.43781">
        <ele>69.2</ele>
        <time>2025-02-11T07:25:05Z</time>
      </trkpt>
      <trkpt lat="47.7812" lon="-2.43781">
        <ele>69.2</ele>
        <time>2025-02-11T07:25:06Z</time>
      </trkpt>
      <trkpt lat="47.7812" lon="-2.43781">
        <ele>69.2</ele>
        <time>2025-02-11T07:25:07Z</time>
      </trkpt>
      <trkpt lat="47.7812" lon="-2.43781">
        <ele>69.2</ele>
        <time>2025-02-11T07:25:08Z</time>
      </trkpt>
      <trkpt lat="47.78119" lon="-2.43781">
        <ele>69.2</ele>
        <time>2025-02-11T07:25:09Z</time>
      </trkpt>
      <trkpt lat="47.78119" lon="-2.43781">
        <ele>69.2</ele>
        <time>2025-02-11T07:25:10Z</time>
      </trkpt>
      <trkpt lat="47.78119" lon="-2.43781">
        <ele>69.2</ele>
        <time>2025-02-11T07:25:11Z</time>
      </trkpt>
      <trkpt lat="47.78119" lon="-2.43781">
        <ele>69.2</ele>
        <time>2025-02-11T07:25:12Z</time>
      </trkpt>
      <trkpt lat="47.78119" lon="-2.43781">
        <ele>69.2</ele>
        <time>2025-02-11T07:25:13Z</time>
      </trkpt>
      <trkpt lat="47.78119" lon="-2.43781">
        <ele>69.2</ele>
        <time>2025-02-11T07:25:14Z</time>
      </trkpt>
      <trkpt lat="47.78119" lon="-2.43781">
        <ele>69.2</ele>
        <time>2025-02-11T07:25:15Z</time>
      </trkpt>
      <trkpt lat="47.78119" lon="-2.43781">
        <ele>69.2</ele>
        <time>2025-02-11T07:25:16Z</time>
      </trkpt>
      <trkpt lat="47.78119" lon="-2.43781">
        <ele>69.2</ele>
        <time>2025-02-11T07:25:17Z</time>
      </trkpt>
      <trkpt lat="47.78119" lon="-2.43781">
        <ele>69.2</ele>
        <time>2025-02-11T07:25:18Z</time>
      </trkpt>
      <trkpt lat="47.78119" lon="-2.43781">
        <ele>69.2</ele>
        <time>2025-02-11T07:25:19Z</time>
      </trkpt>
      <trkpt lat="47.78119" lon="-2.43781">
        <ele>69.2</ele>
        <time>2025-02-11T07:25:20Z</time>
      </trkpt>
      <trkpt lat="47.78119" lon="-2.43781">
        <ele>69.2</ele>
        <time>2025-02-11T07:25:21Z</time>
      </trkpt>
      <trkpt lat="47.78119" lon="-2.43781">
        <ele>69.2</ele>
        <time>2025-02-11T07:25:22Z</time>
      </trkpt>
      <trkpt lat="47.78119" lon="-2.43781">
        <ele>69.2</ele>
        <time>2025-02-11T07:25:23Z</time>
      </trkpt>
      <trkpt lat="47.78119" lon="-2.43781">
        <ele>69.2</ele>
        <time>2025-02-11T07:25:24Z</time>
      </trkpt>
      <trkpt lat="47.78119" lon="-2.43781">
        <ele>69.2</ele>
        <time>2025-02-11T07:25:25Z</time>
      </trkpt>
      <trkpt lat="47.78119" lon="-2.43781">
        <ele>69.2</ele>
        <time>2025-02-11T07:25:26Z</time>
      </trkpt>
      <trkpt lat="47.78119" lon="-2.43781">
        <ele>69.2</ele>
        <time>2025-02-11T07:25:27Z</time>
      </trkpt>
      <trkpt lat="47.78119" lon="-2.43781">
        <ele>69.2</ele>
        <time>2025-02-11T07:25:28Z</time>
      </trkpt>
      <trkpt lat="47.78119" lon="-2.43781">
        <ele>69.2</ele>
        <time>2025-02-11T07:25:29Z</time>
      </trkpt>
      <trkpt lat="47.78119" lon="-2.43781">
        <ele>69.2</ele>
        <time>2025-02-11T07:25:30Z</time>
      </trkpt>
      <trkpt lat="47.78118" lon="-2.43781">
        <ele>69.2</ele>
        <time>2025-02-11T07:25:31Z</time>
      </trkpt>
      <trkpt lat="47.78118" lon="-2.43781">
        <ele>69.2</ele>
        <time>2025-02-11T07:25:32Z</time>
      </trkpt>
      <trkpt lat="47.78118" lon="-2.43781">
        <ele>69.2</ele>
        <time>2025-02-11T07:25:33Z</time>
      </trkpt>
      <trkpt lat="47.78118" lon="-2.4378">
        <ele>69.2</ele>
        <time>2025-02-11T07:25:34Z</time>
      </trkpt>
      <trkpt lat="47.78118" lon="-2.4378">
        <ele>69.2</ele>
        <time>2025-02-11T07:25:35Z</time>
      </trkpt>
      <trkpt lat="47.78118" lon="-2.43781">
        <ele>69.2</ele>
        <time>2025-02-11T07:25:36Z</time>
      </trkpt>
      <trkpt lat="47.78118" lon="-2.43781">
        <ele>69.2</ele>
        <time>2025-02-11T07:25:37Z</time>
      </trkpt>
      <trkpt lat="47.78118" lon="-2.43781">
        <ele>69.2</ele>
        <time>2025-02-11T07:25:38Z</time>
      </trkpt>
      <trkpt lat="47.78119" lon="-2.43782">
        <ele>69.2</ele>
        <time>2025-02-11T07:25:39Z</time>
      </trkpt>
      <trkpt lat="47.78119" lon="-2.43782">
        <ele>69.3</ele>
        <time>2025-02-11T07:25:40Z</time>
      </trkpt>
      <trkpt lat="47.78121" lon="-2.43784">
        <ele>69.3</ele>
        <time>2025-02-11T07:25:41Z</time>
      </trkpt>
      <trkpt lat="47.78122" lon="-2.43784">
        <ele>69.4</ele>
        <time>2025-02-11T07:25:42Z</time>
      </trkpt>
      <trkpt lat="47.78123" lon="-2.43784">
        <ele>69.3</ele>
        <time>2025-02-11T07:25:43Z</time>
      </trkpt>
      <trkpt lat="47.78124" lon="-2.43785">
        <ele>69.4</ele>
        <time>2025-02-11T07:25:44Z</time>
      </trkpt>
      <trkpt lat="47.78126" lon="-2.43785">
        <ele>69.4</ele>
        <time>2025-02-11T07:25:45Z</time>
      </trkpt>
      <trkpt lat="47.78126" lon="-2.43786">
        <ele>69.4</ele>
        <time>2025-02-11T07:25:46Z</time>
      </trkpt>
      <trkpt lat="47.78127" lon="-2.43787">
        <ele>69.5</ele>
        <time>2025-02-11T07:25:47Z</time>
      </trkpt>
      <trkpt lat="47.78128" lon="-2.43787">
        <ele>69.4</ele>
        <time>2025-02-11T07:25:48Z</time>
      </trkpt>
      <trkpt lat="47.78129" lon="-2.43787">
        <ele>69.4</ele>
        <time>2025-02-11T07:25:49Z</time>
      </trkpt>
      <trkpt lat="47.7813" lon="-2.43787">
        <ele>69.4</ele>
        <time>2025-02-11T07:25:50Z</time>
      </trkpt>
      <trkpt lat="47.78131" lon="-2.43788">
        <ele>69.5</ele>
        <time>2025-02-11T07:25:51Z</time>
      </trkpt>
      <trkpt lat="47.78133" lon="-2.43788">
        <ele>69.5</ele>
        <time>2025-02-11T07:25:52Z</time>
      </trkpt>
      <trkpt lat="47.78134" lon="-2.43788">
        <ele>69.4</ele>
        <time>2025-02-11T07:25:53Z</time>
      </trkpt>
      <trkpt lat="47.78135" lon="-2.43788">
        <ele>69.4</ele>
        <time>2025-02-11T07:25:54Z</time>
      </trkpt>
      <trkpt lat="47.78136" lon="-2.43788">
        <ele>69.4</ele>
        <time>2025-02-11T07:25:55Z</time>
      </trkpt>
      <trkpt lat="47.78137" lon="-2.43788">
        <ele>69.4</ele>
        <time>2025-02-11T07:25:56Z</time>
      </trkpt>
      <trkpt lat="47.78138" lon="-2.43788">
        <ele>69.4</ele>
        <time>2025-02-11T07:25:57Z</time>
      </trkpt>
      <trkpt lat="47.7814" lon="-2.43788">
        <ele>69.3</ele>
        <time>2025-02-11T07:25:58Z</time>
      </trkpt>
      <trkpt lat="47.7814" lon="-2.43789">
        <ele>69.3</ele>
        <time>2025-02-11T07:25:59Z</time>
      </trkpt>
      <trkpt lat="47.7814" lon="-2.43789">
        <ele>69.3</ele>
        <time>2025-02-11T07:26:00Z</time>
      </trkpt>
      <trkpt lat="47.78141" lon="-2.43789">
        <ele>69.3</ele>
        <time>2025-02-11T07:26:01Z</time>
      </trkpt>
      <trkpt lat="47.78142" lon="-2.43789">
        <ele>69.3</ele>
        <time>2025-02-11T07:26:02Z</time>
      </trkpt>
      <trkpt lat="47.78143" lon="-2.43789">
        <ele>69.3</ele>
        <time>2025-02-11T07:26:03Z</time>
      </trkpt>
      <trkpt lat="47.78144" lon="-2.43789">
        <ele>69.2</ele>
        <time>2025-02-11T07:26:04Z</time>
      </trkpt>
      <trkpt lat="47.78145" lon="-2.43789">
        <ele>69.2</ele>
        <time>2025-02-11T07:26:05Z</time>
      </trkpt>
      <trkpt lat="47.78146" lon="-2.43788">
        <ele>69.1</ele>
        <time>2025-02-11T07:26:06Z</time>
      </trkpt>
      <trkpt lat="47.78147" lon="-2.43788">
        <ele>69.1</ele>
        <time>2025-02-11T07:26:07Z</time>
      </trkpt>
      <trkpt lat="47.78148" lon="-2.43787">
        <ele>69</ele>
        <time>2025-02-11T07:26:08Z</time>
      </trkpt>
      <trkpt lat="47.78149" lon="-2.43786">
        <ele>68.9</ele>
        <time>2025-02-11T07:26:09Z</time>
      </trkpt>
      <trkpt lat="47.7815" lon="-2.43785">
        <ele>68.9</ele>
        <time>2025-02-11T07:26:10Z</time>
      </trkpt>
      <trkpt lat="47.78151" lon="-2.43785">
        <ele>68.8</ele>
        <time>2025-02-11T07:26:11Z</time>
      </trkpt>
      <trkpt lat="47.78152" lon="-2.43785">
        <ele>68.8</ele>
        <time>2025-02-11T07:26:12Z</time>
      </trkpt>
      <trkpt lat="47.78153" lon="-2.43784">
        <ele>68.7</ele>
        <time>2025-02-11T07:26:13Z</time>
      </trkpt>
      <trkpt lat="47.78154" lon="-2.43784">
        <ele>68.7</ele>
        <time>2025-02-11T07:26:14Z</time>
      </trkpt>
      <trkpt lat="47.78155" lon="-2.43784">
        <ele>68.6</ele>
        <time>2025-02-11T07:26:15Z</time>
      </trkpt>
      <trkpt lat="47.78156" lon="-2.43784">
        <ele>68.6</ele>
        <time>2025-02-11T07:26:16Z</time>
      </trkpt>
      <trkpt lat="47.78156" lon="-2.43784">
        <ele>68.6</ele>
        <time>2025-02-11T07:26:17Z</time>
      </trkpt>
      <trkpt lat="47.78156" lon="-2.43783">
        <ele>68.6</ele>
        <time>2025-02-11T07:26:18Z</time>
      </trkpt>
      <trkpt lat="47.78154" lon="-2.43783">
        <ele>68.6</ele>
        <time>2025-02-11T07:26:19Z</time>
      </trkpt>
      <trkpt lat="47.78154" lon="-2.43783">
        <ele>68.7</ele>
        <time>2025-02-11T07:26:20Z</time>
      </trkpt>
      <trkpt lat="47.78154" lon="-2.43783">
        <ele>68.7</ele>
        <time>2025-02-11T07:26:21Z</time>
      </trkpt>
      <trkpt lat="47.78154" lon="-2.43783">
        <ele>68.7</ele>
        <time>2025-02-11T07:26:22Z</time>
      </trkpt>
      <trkpt lat="47.78154" lon="-2.43782">
        <ele>68.6</ele>
        <time>2025-02-11T07:26:23Z</time>
      </trkpt>
      <trkpt lat="47.78155" lon="-2.43781">
        <ele>68.5</ele>
        <time>2025-02-11T07:26:24Z</time>
      </trkpt>
      <trkpt lat="47.78155" lon="-2.4378">
        <ele>68.5</ele>
        <time>2025-02-11T07:26:25Z</time>
      </trkpt>
      <trkpt lat="47.78154" lon="-2.43779">
        <ele>68.5</ele>
        <time>2025-02-11T07:26:26Z</time>
      </trkpt>
      <trkpt lat="47.78154" lon="-2.43779">
        <ele>68.5</ele>
        <time>2025-02-11T07:26:27Z</time>
      </trkpt>
      <trkpt lat="47.78153" lon="-2.43778">
        <ele>68.5</ele>
        <time>2025-02-11T07:26:28Z</time>
      </trkpt>
      <trkpt lat="47.78152" lon="-2.43778">
        <ele>68.6</ele>
        <time>2025-02-11T07:26:29Z</time>
      </trkpt>
      <trkpt lat="47.78152" lon="-2.43777">
        <ele>68.5</ele>
        <time>2025-02-11T07:26:30Z</time>
      </trkpt>
      <trkpt lat="47.78151" lon="-2.43777">
        <ele>68.4</ele>
        <time>2025-02-11T07:26:31Z</time>
      </trkpt>
      <trkpt lat="47.78151" lon="-2.43776">
        <ele>68.4</ele>
        <time>2025-02-11T07:26:32Z</time>
      </trkpt>
      <trkpt lat="47.78151" lon="-2.43776">
        <ele>68.4</ele>
        <time>2025-02-11T07:26:33Z</time>
      </trkpt>
      <trkpt lat="47.78151" lon="-2.43776">
        <ele>68.4</ele>
        <time>2025-02-11T07:26:34Z</time>
      </trkpt>
      <trkpt lat="47.78151" lon="-2.43777">
        <ele>68.5</ele>
        <time>2025-02-11T07:26:35Z</time>
      </trkpt>
      <trkpt lat="47.78151" lon="-2.43777">
        <ele>68.5</ele>
        <time>2025-02-11T07:26:36Z</time>
      </trkpt>
      <trkpt lat="47.78151" lon="-2.43777">
        <ele>68.5</ele>
        <time>2025-02-11T07:26:37Z</time>
      </trkpt>
      <trkpt lat="47.78151" lon="-2.43777">
        <ele>68.5</ele>
        <time>2025-02-11T07:26:38Z</time>
      </trkpt>
      <trkpt lat="47.78151" lon="-2.43777">
        <ele>68.5</ele>
        <time>2025-02-11T07:26:39Z</time>
      </trkpt>
      <trkpt lat="47.78151" lon="-2.43777">
        <ele>68.5</ele>
        <time>2025-02-11T07:26:40Z</time>
      </trkpt>
      <trkpt lat="47.78151" lon="-2.43777">
        <ele>68.5</ele>
        <time>2025-02-11T07:26:41Z</time>
      </trkpt>
      <trkpt lat="47.78151" lon="-2.43777">
        <ele>68.5</ele>
        <time>2025-02-11T07:26:42Z</time>
      </trkpt>
      <trkpt lat="47.78151" lon="-2.43777">
        <ele>68.5</ele>
        <time>2025-02-11T07:26:43Z</time>
      </trkpt>
      <trkpt lat="47.78151" lon="-2.43777">
        <ele>68.5</ele>
        <time>2025-02-11T07:26:44Z</time>
      </trkpt>
      <trkpt lat="47.78151" lon="-2.43777">
        <ele>68.5</ele>
        <time>2025-02-11T07:26:45Z</time>
      </trkpt>
      <trkpt lat="47.78151" lon="-2.43777">
        <ele>68.5</ele>
        <time>2025-02-11T07:26:46Z</time>
      </trkpt>
      <trkpt lat="47.78151" lon="-2.43777">
        <ele>68.5</ele>
        <time>2025-02-11T07:26:47Z</time>
      </trkpt>
      <trkpt lat="47.78151" lon="-2.43777">
        <ele>68.5</ele>
        <time>2025-02-11T07:26:48Z</time>
      </trkpt>
      <trkpt lat="47.78151" lon="-2.43777">
        <ele>68.5</ele>
        <time>2025-02-11T07:26:49Z</time>
      </trkpt>
      <trkpt lat="47.78151" lon="-2.43777">
        <ele>68.5</ele>
        <time>2025-02-11T07:26:50Z</time>
      </trkpt>
      <trkpt lat="47.78151" lon="-2.43777">
        <ele>68.5</ele>
        <time>2025-02-11T07:26:51Z</time>
      </trkpt>
      <trkpt lat="47.78151" lon="-2.43777">
        <ele>68.5</ele>
        <time>2025-02-11T07:26:52Z</time>
      </trkpt>
      <trkpt lat="47.78151" lon="-2.43777">
        <ele>68.5</ele>
        <time>2025-02-11T07:26:53Z</time>
      </trkpt>
      <trkpt lat="47.78151" lon="-2.43777">
        <ele>68.5</ele>
        <time>2025-02-11T07:26:54Z</time>
      </trkpt>
      <trkpt lat="47.78151" lon="-2.43777">
        <ele>68.5</ele>
        <time>2025-02-11T07:26:55Z</time>
      </trkpt>
      <trkpt lat="47.78151" lon="-2.43777">
        <ele>68.5</ele>
        <time>2025-02-11T07:26:56Z</time>
      </trkpt>
      <trkpt lat="47.78151" lon="-2.43777">
        <ele>68.5</ele>
        <time>2025-02-11T07:26:57Z</time>
      </trkpt>
      <trkpt lat="47.78151" lon="-2.43777">
        <ele>68.5</ele>
        <time>2025-02-11T07:26:58Z</time>
      </trkpt>
      <trkpt lat="47.78151" lon="-2.43777">
        <ele>68.5</ele>
        <time>2025-02-11T07:26:59Z</time>
      </trkpt>
      <trkpt lat="47.78151" lon="-2.43777">
        <ele>68.5</ele>
        <time>2025-02-11T07:27:00Z</time>
      </trkpt>
      <trkpt lat="47.78151" lon="-2.43777">
        <ele>68.5</ele>
        <time>2025-02-11T07:27:01Z</time>
      </trkpt>
      <trkpt lat="47.78151" lon="-2.43777">
        <ele>68.5</ele>
        <time>2025-02-11T07:27:02Z</time>
      </trkpt>
      <trkpt lat="47.78151" lon="-2.43777">
        <ele>68.5</ele>
        <time>2025-02-11T07:27:03Z</time>
      </trkpt>
      <trkpt lat="47.78151" lon="-2.43777">
        <ele>68.5</ele>
        <time>2025-02-11T07:27:04Z</time>
      </trkpt>
      <trkpt lat="47.78151" lon="-2.43777">
        <ele>68.5</ele>
        <time>2025-02-11T07:27:05Z</time>
      </trkpt>
      <trkpt lat="47.78151" lon="-2.43777">
        <ele>68.5</ele>
        <time>2025-02-11T07:27:06Z</time>
      </trkpt>
      <trkpt lat="47.78151" lon="-2.43777">
        <ele>68.5</ele>
        <time>2025-02-11T07:27:07Z</time>
      </trkpt>
      <trkpt lat="47.78151" lon="-2.43777">
        <ele>68.5</ele>
        <time>2025-02-11T07:27:08Z</time>
      </trkpt>
      <trkpt lat="47.78151" lon="-2.43777">
        <ele>68.5</ele>
        <time>2025-02-11T07:27:09Z</time>
      </trkpt>
      <trkpt lat="47.78149" lon="-2.43774">
        <ele>68.3</ele>
        <time>2025-02-11T07:27:10Z</time>
      </trkpt>
      <trkpt lat="47.78149" lon="-2.43774">
        <ele>68.3</ele>
        <time>2025-02-11T07:27:11Z</time>
      </trkpt>
      <trkpt lat="47.78149" lon="-2.43774">
        <ele>68.3</ele>
        <time>2025-02-11T07:27:12Z</time>
      </trkpt>
      <trkpt lat="47.78149" lon="-2.43773">
        <ele>68.2</ele>
        <time>2025-02-11T07:27:13Z</time>
      </trkpt>
      <trkpt lat="47.7815" lon="-2.43773">
        <ele>68.2</ele>
        <time>2025-02-11T07:27:14Z</time>
      </trkpt>
      <trkpt lat="47.7815" lon="-2.43773">
        <ele>68.1</ele>
        <time>2025-02-11T07:27:15Z</time>
      </trkpt>
      <trkpt lat="47.78151" lon="-2.43772">
        <ele>68.1</ele>
        <time>2025-02-11T07:27:16Z</time>
      </trkpt>
      <trkpt lat="47.78151" lon="-2.43774">
        <ele>68.2</ele>
        <time>2025-02-11T07:27:17Z</time>
      </trkpt>
      <trkpt lat="47.78151" lon="-2.43776">
        <ele>68.4</ele>
        <time>2025-02-11T07:27:18Z</time>
      </trkpt>
      <trkpt lat="47.78151" lon="-2.43778">
        <ele>68.6</ele>
        <time>2025-02-11T07:27:19Z</time>
      </trkpt>
      <trkpt lat="47.78151" lon="-2.4378">
        <ele>68.6</ele>
        <time>2025-02-11T07:27:20Z</time>
      </trkpt>
      <trkpt lat="47.78151" lon="-2.43782">
        <ele>68.7</ele>
        <time>2025-02-11T07:27:21Z</time>
      </trkpt>
      <trkpt lat="47.78152" lon="-2.43784">
        <ele>68.8</ele>
        <time>2025-02-11T07:27:22Z</time>
      </trkpt>
      <trkpt lat="47.78153" lon="-2.43786">
        <ele>68.8</ele>
        <time>2025-02-11T07:27:23Z</time>
      </trkpt>
      <trkpt lat="47.78154" lon="-2.43786">
        <ele>68.8</ele>
        <time>2025-02-11T07:27:24Z</time>
      </trkpt>
      <trkpt lat="47.78154" lon="-2.43786">
        <ele>68.8</ele>
        <time>2025-02-11T07:27:25Z</time>
      </trkpt>
      <trkpt lat="47.78154" lon="-2.43787">
        <ele>68.8</ele>
        <time>2025-02-11T07:27:26Z</time>
      </trkpt>
      <trkpt lat="47.78154" lon="-2.43787">
        <ele>68.8</ele>
        <time>2025-02-11T07:27:27Z</time>
      </trkpt>
      <trkpt lat="47.78154" lon="-2.43787">
        <ele>68.8</ele>
        <time>2025-02-11T07:27:28Z</time>
      </trkpt>
      <trkpt lat="47.78154" lon="-2.43788">
        <ele>68.8</ele>
        <time>2025-02-11T07:27:29Z</time>
      </trkpt>
      <trkpt lat="47.78154" lon="-2.43788">
        <ele>68.8</ele>
        <time>2025-02-11T07:27:30Z</time>
      </trkpt>
      <trkpt lat="47.78154" lon="-2.43788">
        <ele>68.8</ele>
        <time>2025-02-11T07:27:31Z</time>
      </trkpt>
      <trkpt lat="47.78154" lon="-2.43788">
        <ele>68.8</ele>
        <time>2025-02-11T07:27:32Z</time>
      </trkpt>
      <trkpt lat="47.78154" lon="-2.43788">
        <ele>68.8</ele>
        <time>2025-02-11T07:27:33Z</time>
      </trkpt>
      <trkpt lat="47.78154" lon="-2.43788">
        <ele>68.8</ele>
        <time>2025-02-11T07:27:34Z</time>
      </trkpt>
      <trkpt lat="47.78154" lon="-2.43788">
        <ele>68.8</ele>
        <time>2025-02-11T07:27:35Z</time>
      </trkpt>
      <trkpt lat="47.78154" lon="-2.43788">
        <ele>68.8</ele>
        <time>2025-02-11T07:27:36Z</time>
      </trkpt>
      <trkpt lat="47.78154" lon="-2.43788">
        <ele>68.8</ele>
        <time>2025-02-11T07:27:37Z</time>
      </trkpt>
      <trkpt lat="47.78154" lon="-2.43788">
        <ele>68.8</ele>
        <time>2025-02-11T07:27:38Z</time>
      </trkpt>
      <trkpt lat="47.78154" lon="-2.43788">
        <ele>68.8</ele>
        <time>2025-02-11T07:27:39Z</time>
      </trkpt>
      <trkpt lat="47.78154" lon="-2.43788">
        <ele>68.8</ele>
        <time>2025-02-11T07:27:40Z</time>
      </trkpt>
      <trkpt lat="47.78154" lon="-2.43788">
        <ele>68.8</ele>
        <time>2025-02-11T07:27:41Z</time>
      </trkpt>
      <trkpt lat="47.78154" lon="-2.43788">
        <ele>68.8</ele>
        <time>2025-02-11T07:27:42Z</time>
      </trkpt>
      <trkpt lat="47.78154" lon="-2.43788">
        <ele>68.8</ele>
        <time>2025-02-11T07:27:43Z</time>
      </trkpt>
      <trkpt lat="47.78154" lon="-2.43788">
        <ele>68.8</ele>
        <time>2025-02-11T07:27:44Z</time>
      </trkpt>
      <trkpt lat="47.78155" lon="-2.43787">
        <ele>68.8</ele>
        <time>2025-02-11T07:27:45Z</time>
      </trkpt>
      <trkpt lat="47.78156" lon="-2.43787">
        <ele>68.7</ele>
        <time>2025-02-11T07:27:46Z</time>
      </trkpt>
      <trkpt lat="47.78156" lon="-2.43786">
        <ele>68.7</ele>
        <time>2025-02-11T07:27:47Z</time>
      </trkpt>
      <trkpt lat="47.78157" lon="-2.43786">
        <ele>68.6</ele>
        <time>2025-02-11T07:27:48Z</time>
      </trkpt>
      <trkpt lat="47.78157" lon="-2.43786">
        <ele>68.6</ele>
        <time>2025-02-11T07:27:49Z</time>
      </trkpt>
      <trkpt lat="47.78157" lon="-2.43786">
        <ele>68.7</ele>
        <time>2025-02-11T07:27:50Z</time>
      </trkpt>
      <trkpt lat="47.78157" lon="-2.43786">
        <ele>68.7</ele>
        <time>2025-02-11T07:27:51Z</time>
      </trkpt>
      <trkpt lat="47.78157" lon="-2.43786">
        <ele>68.7</ele>
        <time>2025-02-11T07:27:52Z</time>
      </trkpt>
      <trkpt lat="47.78157" lon="-2.43786">
        <ele>68.7</ele>
        <time>2025-02-11T07:27:53Z</time>
      </trkpt>
      <trkpt lat="47.78157" lon="-2.43786">
        <ele>68.7</ele>
        <time>2025-02-11T07:27:54Z</time>
      </trkpt>
      <trkpt lat="47.78157" lon="-2.43787">
        <ele>68.7</ele>
        <time>2025-02-11T07:27:55Z</time>
      </trkpt>
      <trkpt lat="47.78157" lon="-2.43787">
        <ele>68.7</ele>
        <time>2025-02-11T07:27:56Z</time>
      </trkpt>
      <trkpt lat="47.78157" lon="-2.43787">
        <ele>68.7</ele>
        <time>2025-02-11T07:27:57Z</time>
      </trkpt>
      <trkpt lat="47.78157" lon="-2.43787">
        <ele>68.7</ele>
        <time>2025-02-11T07:27:58Z</time>
      </trkpt>
      <trkpt lat="47.78157" lon="-2.43787">
        <ele>68.7</ele>
        <time>2025-02-11T07:27:59Z</time>
      </trkpt>
      <trkpt lat="47.78157" lon="-2.43787">
        <ele>68.7</ele>
        <time>2025-02-11T07:28:00Z</time>
      </trkpt>
      <trkpt lat="47.78157" lon="-2.43787">
        <ele>68.7</ele>
        <time>2025-02-11T07:28:01Z</time>
      </trkpt>
      <trkpt lat="47.78157" lon="-2.43787">
        <ele>68.7</ele>
        <time>2025-02-11T07:28:02Z</time>
      </trkpt>
      <trkpt lat="47.78157" lon="-2.43787">
        <ele>68.7</ele>
        <time>2025-02-11T07:28:03Z</time>
      </trkpt>
      <trkpt lat="47.78158" lon="-2.43787">
        <ele>68.7</ele>
        <time>2025-02-11T07:28:04Z</time>
      </trkpt>
      <trkpt lat="47.78158" lon="-2.43788">
        <ele>68.7</ele>
        <time>2025-02-11T07:28:05Z</time>
      </trkpt>
      <trkpt lat="47.78158" lon="-2.43788">
        <ele>68.7</ele>
        <time>2025-02-11T07:28:06Z</time>
      </trkpt>
      <trkpt lat="47.78159" lon="-2.43788">
        <ele>68.6</ele>
        <time>2025-02-11T07:28:07Z</time>
      </trkpt>
      <trkpt lat="47.7816" lon="-2.43788">
        <ele>68.6</ele>
        <time>2025-02-11T07:28:08Z</time>
      </trkpt>
      <trkpt lat="47.78161" lon="-2.43788">
        <ele>68.6</ele>
        <time>2025-02-11T07:28:09Z</time>
      </trkpt>
      <trkpt lat="47.78162" lon="-2.43787">
        <ele>68.5</ele>
        <time>2025-02-11T07:28:10Z</time>
      </trkpt>
      <trkpt lat="47.78162" lon="-2.43787">
        <ele>68.5</ele>
        <time>2025-02-11T07:28:11Z</time>
      </trkpt>
      <trkpt lat="47.78163" lon="-2.43787">
        <ele>68.5</ele>
        <time>2025-02-11T07:28:12Z</time>
      </trkpt>
      <trkpt lat="47.78164" lon="-2.43787">
        <ele>68.4</ele>
        <time>2025-02-11T07:28:13Z</time>
      </trkpt>
      <trkpt lat="47.78165" lon="-2.43787">
        <ele>68.4</ele>
        <time>2025-02-11T07:28:14Z</time>
      </trkpt>
      <trkpt lat="47.78166" lon="-2.43786">
        <ele>68.3</ele>
        <time>2025-02-11T07:28:15Z</time>
      </trkpt>
      <trkpt lat="47.78167" lon="-2.43786">
        <ele>68.2</ele>
        <time>2025-02-11T07:28:16Z</time>
      </trkpt>
      <trkpt lat="47.78168" lon="-2.43785">
        <ele>68.1</ele>
        <time>2025-02-11T07:28:17Z</time>
      </trkpt>
      <trkpt lat="47.78169" lon="-2.43784">
        <ele>68</ele>
        <time>2025-02-11T07:28:18Z</time>
      </trkpt>
      <trkpt lat="47.7817" lon="-2.43784">
        <ele>67.9</ele>
        <time>2025-02-11T07:28:19Z</time>
      </trkpt>
      <trkpt lat="47.78171" lon="-2.43784">
        <ele>67.8</ele>
        <time>2025-02-11T07:28:20Z</time>
      </trkpt>
      <trkpt lat="47.78171" lon="-2.43785">
        <ele>67.8</ele>
        <time>2025-02-11T07:28:21Z</time>
      </trkpt>
      <trkpt lat="47.78171" lon="-2.43786">
        <ele>67.8</ele>
        <time>2025-02-11T07:28:22Z</time>
      </trkpt>
      <trkpt lat="47.78171" lon="-2.43786">
        <ele>67.8</ele>
        <time>2025-02-11T07:28:23Z</time>
      </trkpt>
      <trkpt lat="47.78171" lon="-2.43786">
        <ele>67.8</ele>
        <time>2025-02-11T07:28:24Z</time>
      </trkpt>
      <trkpt lat="47.78171" lon="-2.43786">
        <ele>67.8</ele>
        <time>2025-02-11T07:28:25Z</time>
      </trkpt>
      <trkpt lat="47.78172" lon="-2.43785">
        <ele>67.8</ele>
        <time>2025-02-11T07:28:26Z</time>
      </trkpt>
      <trkpt lat="47.78172" lon="-2.43784">
        <ele>67.7</ele>
        <time>2025-02-11T07:28:27Z</time>
      </trkpt>
      <trkpt lat="47.78173" lon="-2.43783">
        <ele>67.6</ele>
        <time>2025-02-11T07:28:28Z</time>
      </trkpt>
      <trkpt lat="47.78174" lon="-2.43783">
        <ele>67.4</ele>
        <time>2025-02-11T07:28:29Z</time>
      </trkpt>
      <trkpt lat="47.78176" lon="-2.43782">
        <ele>67.3</ele>
        <time>2025-02-11T07:28:30Z</time>
      </trkpt>
      <trkpt lat="47.78176" lon="-2.43782">
        <ele>67.1</ele>
        <time>2025-02-11T07:28:31Z</time>
      </trkpt>
      <trkpt lat="47.78178" lon="-2.43782">
        <ele>67</ele>
        <time>2025-02-11T07:28:32Z</time>
      </trkpt>
      <trkpt lat="47.78179" lon="-2.43783">
        <ele>66.9</ele>
        <time>2025-02-11T07:28:33Z</time>
      </trkpt>
      <trkpt lat="47.7818" lon="-2.43782">
        <ele>66.8</ele>
        <time>2025-02-11T07:28:34Z</time>
      </trkpt>
      <trkpt lat="47.78181" lon="-2.43782">
        <ele>66.6</ele>
        <time>2025-02-11T07:28:35Z</time>
      </trkpt>
      <trkpt lat="47.78182" lon="-2.43781">
        <ele>66.5</ele>
        <time>2025-02-11T07:28:36Z</time>
      </trkpt>
      <trkpt lat="47.78183" lon="-2.43781">
        <ele>66.4</ele>
        <time>2025-02-11T07:28:37Z</time>
      </trkpt>
      <trkpt lat="47.78184" lon="-2.43781">
        <ele>66.3</ele>
        <time>2025-02-11T07:28:38Z</time>
      </trkpt>
      <trkpt lat="47.78185" lon="-2.43781">
        <ele>66.2</ele>
        <time>2025-02-11T07:28:39Z</time>
      </trkpt>
      <trkpt lat="47.78186" lon="-2.4378">
        <ele>66.1</ele>
        <time>2025-02-11T07:28:40Z</time>
      </trkpt>
      <trkpt lat="47.78187" lon="-2.4378">
        <ele>65.9</ele>
        <time>2025-02-11T07:28:41Z</time>
      </trkpt>
      <trkpt lat="47.78189" lon="-2.4378">
        <ele>65.7</ele>
        <time>2025-02-11T07:28:42Z</time>
      </trkpt>
      <trkpt lat="47.7819" lon="-2.43779">
        <ele>65.6</ele>
        <time>2025-02-11T07:28:43Z</time>
      </trkpt>
      <trkpt lat="47.78191" lon="-2.43778">
        <ele>65.4</ele>
        <time>2025-02-11T07:28:44Z</time>
      </trkpt>
      <trkpt lat="47.78192" lon="-2.43777">
        <ele>65.3</ele>
        <time>2025-02-11T07:28:45Z</time>
      </trkpt>
      <trkpt lat="47.78193" lon="-2.43777">
        <ele>65.1</ele>
        <time>2025-02-11T07:28:46Z</time>
      </trkpt>
      <trkpt lat="47.78194" lon="-2.43776">
        <ele>64.9</ele>
        <time>2025-02-11T07:28:47Z</time>
      </trkpt>
      <trkpt lat="47.78196" lon="-2.43775">
        <ele>64.8</ele>
        <time>2025-02-11T07:28:48Z</time>
      </trkpt>
      <trkpt lat="47.78197" lon="-2.43774">
        <ele>64.7</ele>
        <time>2025-02-11T07:28:49Z</time>
      </trkpt>
      <trkpt lat="47.78198" lon="-2.43774">
        <ele>64.6</ele>
        <time>2025-02-11T07:28:50Z</time>
      </trkpt>
      <trkpt lat="47.78199" lon="-2.43774">
        <ele>64.5</ele>
        <time>2025-02-11T07:28:51Z</time>
      </trkpt>
      <trkpt lat="47.782" lon="-2.43773">
        <ele>64.4</ele>
        <time>2025-02-11T07:28:52Z</time>
      </trkpt>
      <trkpt lat="47.78201" lon="-2.43772">
        <ele>64.3</ele>
        <time>2025-02-11T07:28:53Z</time>
      </trkpt>
      <trkpt lat="47.78202" lon="-2.4377">
        <ele>64.1</ele>
        <time>2025-02-11T07:28:54Z</time>
      </trkpt>
      <trkpt lat="47.78203" lon="-2.43769">
        <ele>64</ele>
        <time>2025-02-11T07:28:55Z</time>
      </trkpt>
      <trkpt lat="47.78204" lon="-2.43769">
        <ele>63.9</ele>
        <time>2025-02-11T07:28:56Z</time>
      </trkpt>
      <trkpt lat="47.78205" lon="-2.43772">
        <ele>64</ele>
        <time>2025-02-11T07:28:57Z</time>
      </trkpt>
      <trkpt lat="47.78206" lon="-2.43773">
        <ele>64</ele>
        <time>2025-02-11T07:28:58Z</time>
      </trkpt>
      <trkpt lat="47.78207" lon="-2.43772">
        <ele>63.8</ele>
        <time>2025-02-11T07:28:59Z</time>
      </trkpt>
      <trkpt lat="47.78208" lon="-2.4377">
        <ele>63.7</ele>
        <time>2025-02-11T07:29:00Z</time>
      </trkpt>
      <trkpt lat="47.78208" lon="-2.43769">
        <ele>63.5</ele>
        <time>2025-02-11T07:29:01Z</time>
      </trkpt>
      <trkpt lat="47.78209" lon="-2.43768">
        <ele>63.4</ele>
        <time>2025-02-11T07:29:02Z</time>
      </trkpt>
      <trkpt lat="47.7821" lon="-2.43767">
        <ele>63.3</ele>
        <time>2025-02-11T07:29:03Z</time>
      </trkpt>
      <trkpt lat="47.7821" lon="-2.43766">
        <ele>63.2</ele>
        <time>2025-02-11T07:29:04Z</time>
      </trkpt>
      <trkpt lat="47.78211" lon="-2.43764">
        <ele>63</ele>
        <time>2025-02-11T07:29:05Z</time>
      </trkpt>
      <trkpt lat="47.78212" lon="-2.43763">
        <ele>62.9</ele>
        <time>2025-02-11T07:29:06Z</time>
      </trkpt>
      <trkpt lat="47.78212" lon="-2.43761">
        <ele>62.8</ele>
        <time>2025-02-11T07:29:07Z</time>
      </trkpt>
      <trkpt lat="47.78213" lon="-2.4376">
        <ele>62.6</ele>
        <time>2025-02-11T07:29:08Z</time>
      </trkpt>
      <trkpt lat="47.78214" lon="-2.43759">
        <ele>62.5</ele>
        <time>2025-02-11T07:29:09Z</time>
      </trkpt>
      <trkpt lat="47.78214" lon="-2.43758">
        <ele>62.3</ele>
        <time>2025-02-11T07:29:10Z</time>
      </trkpt>
      <trkpt lat="47.78215" lon="-2.43757">
        <ele>62.2</ele>
        <time>2025-02-11T07:29:11Z</time>
      </trkpt>
      <trkpt lat="47.78216" lon="-2.43756">
        <ele>62.1</ele>
        <time>2025-02-11T07:29:12Z</time>
      </trkpt>
      <trkpt lat="47.78217" lon="-2.43755">
        <ele>61.9</ele>
        <time>2025-02-11T07:29:13Z</time>
      </trkpt>
      <trkpt lat="47.78218" lon="-2.43754">
        <ele>61.8</ele>
        <time>2025-02-11T07:29:14Z</time>
      </trkpt>
      <trkpt lat="47.78219" lon="-2.43753">
        <ele>61.6</ele>
        <time>2025-02-11T07:29:15Z</time>
      </trkpt>
      <trkpt lat="47.7822" lon="-2.43752">
        <ele>61.4</ele>
        <time>2025-02-11T07:29:16Z</time>
      </trkpt>
      <trkpt lat="47.78221" lon="-2.43752">
        <ele>61.3</ele>
        <time>2025-02-11T07:29:17Z</time>
      </trkpt>
      <trkpt lat="47.78222" lon="-2.4375">
        <ele>61.1</ele>
        <time>2025-02-11T07:29:18Z</time>
      </trkpt>
      <trkpt lat="47.78222" lon="-2.4375">
        <ele>60.9</ele>
        <time>2025-02-11T07:29:19Z</time>
      </trkpt>
      <trkpt lat="47.78223" lon="-2.43749">
        <ele>60.7</ele>
        <time>2025-02-11T07:29:20Z</time>
      </trkpt>
      <trkpt lat="47.78224" lon="-2.43749">
        <ele>60.6</ele>
        <time>2025-02-11T07:29:21Z</time>
      </trkpt>
      <trkpt lat="47.78225" lon="-2.43748">
        <ele>60.4</ele>
        <time>2025-02-11T07:29:22Z</time>
      </trkpt>
      <trkpt lat="47.78226" lon="-2.43748">
        <ele>60.2</ele>
        <time>2025-02-11T07:29:23Z</time>
      </trkpt>
      <trkpt lat="47.78227" lon="-2.43747">
        <ele>60</ele>
        <time>2025-02-11T07:29:24Z</time>
      </trkpt>
      <trkpt lat="47.78229" lon="-2.43746">
        <ele>59.7</ele>
        <time>2025-02-11T07:29:25Z</time>
      </trkpt>
      <trkpt lat="47.7823" lon="-2.43746">
        <ele>59.5</ele>
        <time>2025-02-11T07:29:26Z</time>
      </trkpt>
      <trkpt lat="47.78231" lon="-2.43744">
        <ele>59.2</ele>
        <time>2025-02-11T07:29:27Z</time>
      </trkpt>
      <trkpt lat="47.78232" lon="-2.43743">
        <ele>59</ele>
        <time>2025-02-11T07:29:28Z</time>
      </trkpt>
      <trkpt lat="47.78232" lon="-2.43742">
        <ele>58.8</ele>
        <time>2025-02-11T07:29:29Z</time>
      </trkpt>
      <trkpt lat="47.78234" lon="-2.43742">
        <ele>58.6</ele>
        <time>2025-02-11T07:29:30Z</time>
      </trkpt>
      <trkpt lat="47.78235" lon="-2.43741">
        <ele>58.4</ele>
        <time>2025-02-11T07:29:31Z</time>
      </trkpt>
      <trkpt lat="47.78235" lon="-2.4374">
        <ele>58.2</ele>
        <time>2025-02-11T07:29:32Z</time>
      </trkpt>
      <trkpt lat="47.78237" lon="-2.43739">
        <ele>57.9</ele>
        <time>2025-02-11T07:29:33Z</time>
      </trkpt>
      <trkpt lat="47.78237" lon="-2.43738">
        <ele>57.7</ele>
        <time>2025-02-11T07:29:34Z</time>
      </trkpt>
      <trkpt lat="47.78238" lon="-2.43737">
        <ele>57.6</ele>
        <time>2025-02-11T07:29:35Z</time>
      </trkpt>
      <trkpt lat="47.7824" lon="-2.43737">
        <ele>57.4</ele>
        <time>2025-02-11T07:29:36Z</time>
      </trkpt>
      <trkpt lat="47.78241" lon="-2.43736">
        <ele>57.2</ele>
        <time>2025-02-11T07:29:37Z</time>
      </trkpt>
      <trkpt lat="47.78242" lon="-2.43736">
        <ele>57</ele>
        <time>2025-02-11T07:29:38Z</time>
      </trkpt>
      <trkpt lat="47.78243" lon="-2.43735">
        <ele>56.8</ele>
        <time>2025-02-11T07:29:39Z</time>
      </trkpt>
      <trkpt lat="47.78244" lon="-2.43734">
        <ele>56.6</ele>
        <time>2025-02-11T07:29:40Z</time>
      </trkpt>
      <trkpt lat="47.78245" lon="-2.43734">
        <ele>56.5</ele>
        <time>2025-02-11T07:29:41Z</time>
      </trkpt>
      <trkpt lat="47.78246" lon="-2.43734">
        <ele>56.4</ele>
        <time>2025-02-11T07:29:42Z</time>
      </trkpt>
      <trkpt lat="47.78247" lon="-2.43734">
        <ele>56.2</ele>
        <time>2025-02-11T07:29:43Z</time>
      </trkpt>
      <trkpt lat="47.78248" lon="-2.43733">
        <ele>56</ele>
        <time>2025-02-11T07:29:44Z</time>
      </trkpt>
      <trkpt lat="47.78249" lon="-2.43733">
        <ele>55.9</ele>
        <time>2025-02-11T07:29:45Z</time>
      </trkpt>
      <trkpt lat="47.7825" lon="-2.43732">
        <ele>55.7</ele>
        <time>2025-02-11T07:29:46Z</time>
      </trkpt>
      <trkpt lat="47.78251" lon="-2.43731">
        <ele>55.5</ele>
        <time>2025-02-11T07:29:47Z</time>
      </trkpt>
      <trkpt lat="47.78252" lon="-2.4373">
        <ele>55.3</ele>
        <time>2025-02-11T07:29:48Z</time>
      </trkpt>
      <trkpt lat="47.78253" lon="-2.43729">
        <ele>55.1</ele>
        <time>2025-02-11T07:29:49Z</time>
      </trkpt>
      <trkpt lat="47.78254" lon="-2.43728">
        <ele>54.9</ele>
        <time>2025-02-11T07:29:50Z</time>
      </trkpt>
      <trkpt lat="47.78255" lon="-2.43727">
        <ele>54.8</ele>
        <time>2025-02-11T07:29:51Z</time>
      </trkpt>
      <trkpt lat="47.78256" lon="-2.43726">
        <ele>54.6</ele>
        <time>2025-02-11T07:29:52Z</time>
      </trkpt>
      <trkpt lat="47.78257" lon="-2.43726">
        <ele>54.5</ele>
        <time>2025-02-11T07:29:53Z</time>
      </trkpt>
      <trkpt lat="47.78258" lon="-2.43724">
        <ele>54.3</ele>
        <time>2025-02-11T07:29:54Z</time>
      </trkpt>
      <trkpt lat="47.78258" lon="-2.43723">
        <ele>54.1</ele>
        <time>2025-02-11T07:29:55Z</time>
      </trkpt>
      <trkpt lat="47.78259" lon="-2.43722">
        <ele>54</ele>
        <time>2025-02-11T07:29:56Z</time>
      </trkpt>
      <trkpt lat="47.7826" lon="-2.43721">
        <ele>53.9</ele>
        <time>2025-02-11T07:29:57Z</time>
      </trkpt>
      <trkpt lat="47.78261" lon="-2.4372">
        <ele>53.8</ele>
        <time>2025-02-11T07:29:58Z</time>
      </trkpt>
      <trkpt lat="47.78262" lon="-2.43719">
        <ele>53.7</ele>
        <time>2025-02-11T07:29:59Z</time>
      </trkpt>
      <trkpt lat="47.78263" lon="-2.43718">
        <ele>53.5</ele>
        <time>2025-02-11T07:30:00Z</time>
      </trkpt>
      <trkpt lat="47.78264" lon="-2.43718">
        <ele>53.4</ele>
        <time>2025-02-11T07:30:01Z</time>
      </trkpt>
      <trkpt lat="47.78265" lon="-2.43717">
        <ele>53.3</ele>
        <time>2025-02-11T07:30:02Z</time>
      </trkpt>
      <trkpt lat="47.78266" lon="-2.43717">
        <ele>53.2</ele>
        <time>2025-02-11T07:30:03Z</time>
      </trkpt>
      <trkpt lat="47.78267" lon="-2.43718">
        <ele>53.1</ele>
        <time>2025-02-11T07:30:04Z</time>
      </trkpt>
      <trkpt lat="47.78269" lon="-2.43718">
        <ele>53</ele>
        <time>2025-02-11T07:30:05Z</time>
      </trkpt>
      <trkpt lat="47.7827" lon="-2.43719">
        <ele>52.9</ele>
        <time>2025-02-11T07:30:06Z</time>
      </trkpt>
      <trkpt lat="47.78271" lon="-2.4372">
        <ele>52.8</ele>
        <time>2025-02-11T07:30:07Z</time>
      </trkpt>
      <trkpt lat="47.78272" lon="-2.43721">
        <ele>52.7</ele>
        <time>2025-02-11T07:30:08Z</time>
      </trkpt>
      <trkpt lat="47.78273" lon="-2.43722">
        <ele>52.6</ele>
        <time>2025-02-11T07:30:09Z</time>
      </trkpt>
      <trkpt lat="47.78274" lon="-2.43723">
        <ele>52.4</ele>
        <time>2025-02-11T07:30:10Z</time>
      </trkpt>
      <trkpt lat="47.78275" lon="-2.43724">
        <ele>52.4</ele>
        <time>2025-02-11T07:30:11Z</time>
      </trkpt>
      <trkpt lat="47.78276" lon="-2.43725">
        <ele>52.3</ele>
        <time>2025-02-11T07:30:12Z</time>
      </trkpt>
      <trkpt lat="47.78277" lon="-2.43726">
        <ele>52.1</ele>
        <time>2025-02-11T07:30:13Z</time>
      </trkpt>
      <trkpt lat="47.78278" lon="-2.43727">
        <ele>52</ele>
        <time>2025-02-11T07:30:14Z</time>
      </trkpt>
      <trkpt lat="47.78279" lon="-2.43728">
        <ele>51.9</ele>
        <time>2025-02-11T07:30:15Z</time>
      </trkpt>
      <trkpt lat="47.7828" lon="-2.43729">
        <ele>51.8</ele>
        <time>2025-02-11T07:30:16Z</time>
      </trkpt>
      <trkpt lat="47.78281" lon="-2.4373">
        <ele>51.7</ele>
        <time>2025-02-11T07:30:17Z</time>
      </trkpt>
      <trkpt lat="47.78281" lon="-2.4373">
        <ele>51.7</ele>
        <time>2025-02-11T07:30:18Z</time>
      </trkpt>
      <trkpt lat="47.78282" lon="-2.43731">
        <ele>51.6</ele>
        <time>2025-02-11T07:30:19Z</time>
      </trkpt>
      <trkpt lat="47.78283" lon="-2.43731">
        <ele>51.5</ele>
        <time>2025-02-11T07:30:20Z</time>
      </trkpt>
      <trkpt lat="47.78285" lon="-2.43732">
        <ele>51.4</ele>
        <time>2025-02-11T07:30:21Z</time>
      </trkpt>
      <trkpt lat="47.78286" lon="-2.43732">
        <ele>51.3</ele>
        <time>2025-02-11T07:30:22Z</time>
      </trkpt>
      <trkpt lat="47.78287" lon="-2.43733">
        <ele>51.2</ele>
        <time>2025-02-11T07:30:23Z</time>
      </trkpt>
      <trkpt lat="47.78287" lon="-2.43735">
        <ele>51.1</ele>
        <time>2025-02-11T07:30:24Z</time>
      </trkpt>
      <trkpt lat="47.78288" lon="-2.43735">
        <ele>51</ele>
        <time>2025-02-11T07:30:25Z</time>
      </trkpt>
      <trkpt lat="47.78289" lon="-2.43736">
        <ele>51</ele>
        <time>2025-02-11T07:30:26Z</time>
      </trkpt>
      <trkpt lat="47.7829" lon="-2.43737">
        <ele>50.9</ele>
        <time>2025-02-11T07:30:27Z</time>
      </trkpt>
      <trkpt lat="47.78292" lon="-2.43737">
        <ele>50.8</ele>
        <time>2025-02-11T07:30:28Z</time>
      </trkpt>
      <trkpt lat="47.78293" lon="-2.43738">
        <ele>50.7</ele>
        <time>2025-02-11T07:30:29Z</time>
      </trkpt>
      <trkpt lat="47.78294" lon="-2.43739">
        <ele>50.6</ele>
        <time>2025-02-11T07:30:30Z</time>
      </trkpt>
      <trkpt lat="47.78295" lon="-2.4374">
        <ele>50.5</ele>
        <time>2025-02-11T07:30:31Z</time>
      </trkpt>
      <trkpt lat="47.78296" lon="-2.43741">
        <ele>50.4</ele>
        <time>2025-02-11T07:30:32Z</time>
      </trkpt>
      <trkpt lat="47.78297" lon="-2.43741">
        <ele>50.4</ele>
        <time>2025-02-11T07:30:33Z</time>
      </trkpt>
      <trkpt lat="47.78299" lon="-2.43742">
        <ele>50.3</ele>
        <time>2025-02-11T07:30:34Z</time>
      </trkpt>
      <trkpt lat="47.783" lon="-2.43742">
        <ele>50.2</ele>
        <time>2025-02-11T07:30:35Z</time>
      </trkpt>
      <trkpt lat="47.78301" lon="-2.43743">
        <ele>50.1</ele>
        <time>2025-02-11T07:30:36Z</time>
      </trkpt>
      <trkpt lat="47.78302" lon="-2.43743">
        <ele>50</ele>
        <time>2025-02-11T07:30:37Z</time>
      </trkpt>
      <trkpt lat="47.78303" lon="-2.43744">
        <ele>50</ele>
        <time>2025-02-11T07:30:38Z</time>
      </trkpt>
      <trkpt lat="47.78304" lon="-2.43745">
        <ele>49.9</ele>
        <time>2025-02-11T07:30:39Z</time>
      </trkpt>
      <trkpt lat="47.78306" lon="-2.43745">
        <ele>49.8</ele>
        <time>2025-02-11T07:30:40Z</time>
      </trkpt>
      <trkpt lat="47.78307" lon="-2.43745">
        <ele>49.7</ele>
        <time>2025-02-11T07:30:41Z</time>
      </trkpt>
      <trkpt lat="47.78308" lon="-2.43746">
        <ele>49.7</ele>
        <time>2025-02-11T07:30:42Z</time>
      </trkpt>
      <trkpt lat="47.7831" lon="-2.43747">
        <ele>49.6</ele>
        <time>2025-02-11T07:30:43Z</time>
      </trkpt>
      <trkpt lat="47.78311" lon="-2.43747">
        <ele>49.5</ele>
        <time>2025-02-11T07:30:44Z</time>
      </trkpt>
      <trkpt lat="47.78312" lon="-2.43749">
        <ele>49.5</ele>
        <time>2025-02-11T07:30:45Z</time>
      </trkpt>
      <trkpt lat="47.78313" lon="-2.4375">
        <ele>49.5</ele>
        <time>2025-02-11T07:30:46Z</time>
      </trkpt>
      <trkpt lat="47.78314" lon="-2.4375">
        <ele>49.4</ele>
        <time>2025-02-11T07:30:47Z</time>
      </trkpt>
      <trkpt lat="47.78316" lon="-2.43751">
        <ele>49.3</ele>
        <time>2025-02-11T07:30:48Z</time>
      </trkpt>
      <trkpt lat="47.78317" lon="-2.43751">
        <ele>49.1</ele>
        <time>2025-02-11T07:30:49Z</time>
      </trkpt>
      <trkpt lat="47.78318" lon="-2.43752">
        <ele>49</ele>
        <time>2025-02-11T07:30:50Z</time>
      </trkpt>
      <trkpt lat="47.7832" lon="-2.43753">
        <ele>48.9</ele>
        <time>2025-02-11T07:30:51Z</time>
      </trkpt>
      <trkpt lat="47.78321" lon="-2.43754">
        <ele>48.8</ele>
        <time>2025-02-11T07:30:52Z</time>
      </trkpt>
      <trkpt lat="47.78322" lon="-2.43755">
        <ele>48.7</ele>
        <time>2025-02-11T07:30:53Z</time>
      </trkpt>
      <trkpt lat="47.78323" lon="-2.43756">
        <ele>48.6</ele>
        <time>2025-02-11T07:30:54Z</time>
      </trkpt>
      <trkpt lat="47.78324" lon="-2.43757">
        <ele>48.5</ele>
        <time>2025-02-11T07:30:55Z</time>
      </trkpt>
      <trkpt lat="47.78325" lon="-2.43758">
        <ele>48.4</ele>
        <time>2025-02-11T07:30:56Z</time>
      </trkpt>
      <trkpt lat="47.78326" lon="-2.43758">
        <ele>48.3</ele>
        <time>2025-02-11T07:30:57Z</time>
      </trkpt>
      <trkpt lat="47.78327" lon="-2.43759">
        <ele>48.2</ele>
        <time>2025-02-11T07:30:58Z</time>
      </trkpt>
      <trkpt lat="47.78328" lon="-2.4376">
        <ele>48.1</ele>
        <time>2025-02-11T07:30:59Z</time>
      </trkpt>
      <trkpt lat="47.78329" lon="-2.43761">
        <ele>48</ele>
        <time>2025-02-11T07:31:00Z</time>
      </trkpt>
      <trkpt lat="47.7833" lon="-2.43761">
        <ele>47.9</ele>
        <time>2025-02-11T07:31:01Z</time>
      </trkpt>
      <trkpt lat="47.78332" lon="-2.43761">
        <ele>47.7</ele>
        <time>2025-02-11T07:31:02Z</time>
      </trkpt>
      <trkpt lat="47.78333" lon="-2.43762">
        <ele>47.6</ele>
        <time>2025-02-11T07:31:03Z</time>
      </trkpt>
      <trkpt lat="47.78334" lon="-2.43762">
        <ele>47.5</ele>
        <time>2025-02-11T07:31:04Z</time>
      </trkpt>
      <trkpt lat="47.78335" lon="-2.43762">
        <ele>47.4</ele>
        <time>2025-02-11T07:31:05Z</time>
      </trkpt>
      <trkpt lat="47.78336" lon="-2.43763">
        <ele>47.3</ele>
        <time>2025-02-11T07:31:06Z</time>
      </trkpt>
      <trkpt lat="47.78337" lon="-2.43764">
        <ele>47.2</ele>
        <time>2025-02-11T07:31:07Z</time>
      </trkpt>
      <trkpt lat="47.78338" lon="-2.43764">
        <ele>47.1</ele>
        <time>2025-02-11T07:31:08Z</time>
      </trkpt>
      <trkpt lat="47.78339" lon="-2.43766">
        <ele>47</ele>
        <time>2025-02-11T07:31:09Z</time>
      </trkpt>
      <trkpt lat="47.7834" lon="-2.43767">
        <ele>46.9</ele>
        <time>2025-02-11T07:31:10Z</time>
      </trkpt>
      <trkpt lat="47.78342" lon="-2.43767">
        <ele>46.8</ele>
        <time>2025-02-11T07:31:11Z</time>
      </trkpt>
      <trkpt lat="47.78343" lon="-2.43768">
        <ele>46.7</ele>
        <time>2025-02-11T07:31:12Z</time>
      </trkpt>
      <trkpt lat="47.78344" lon="-2.43769">
        <ele>46.6</ele>
        <time>2025-02-11T07:31:13Z</time>
      </trkpt>
      <trkpt lat="47.78345" lon="-2.4377">
        <ele>46.5</ele>
        <time>2025-02-11T07:31:14Z</time>
      </trkpt>
      <trkpt lat="47.78346" lon="-2.4377">
        <ele>46.4</ele>
        <time>2025-02-11T07:31:15Z</time>
      </trkpt>
      <trkpt lat="47.78347" lon="-2.43771">
        <ele>46.3</ele>
        <time>2025-02-11T07:31:16Z</time>
      </trkpt>
      <trkpt lat="47.78348" lon="-2.43772">
        <ele>46.1</ele>
        <time>2025-02-11T07:31:17Z</time>
      </trkpt>
      <trkpt lat="47.7835" lon="-2.43773">
        <ele>46</ele>
        <time>2025-02-11T07:31:18Z</time>
      </trkpt>
      <trkpt lat="47.78351" lon="-2.43773">
        <ele>45.9</ele>
        <time>2025-02-11T07:31:19Z</time>
      </trkpt>
      <trkpt lat="47.78352" lon="-2.43774">
        <ele>45.8</ele>
        <time>2025-02-11T07:31:20Z</time>
      </trkpt>
      <trkpt lat="47.78353" lon="-2.43775">
        <ele>45.7</ele>
        <time>2025-02-11T07:31:21Z</time>
      </trkpt>
      <trkpt lat="47.78354" lon="-2.43776">
        <ele>45.5</ele>
        <time>2025-02-11T07:31:22Z</time>
      </trkpt>
      <trkpt lat="47.78356" lon="-2.43777">
        <ele>45.4</ele>
        <time>2025-02-11T07:31:23Z</time>
      </trkpt>
      <trkpt lat="47.78357" lon="-2.43777">
        <ele>45.3</ele>
        <time>2025-02-11T07:31:24Z</time>
      </trkpt>
      <trkpt lat="47.78358" lon="-2.43778">
        <ele>45.3</ele>
        <time>2025-02-11T07:31:25Z</time>
      </trkpt>
      <trkpt lat="47.78359" lon="-2.43778">
        <ele>45.2</ele>
        <time>2025-02-11T07:31:26Z</time>
      </trkpt>
      <trkpt lat="47.7836" lon="-2.43778">
        <ele>45.1</ele>
        <time>2025-02-11T07:31:27Z</time>
      </trkpt>
      <trkpt lat="47.78361" lon="-2.43779">
        <ele>45</ele>
        <time>2025-02-11T07:31:28Z</time>
      </trkpt>
      <trkpt lat="47.78363" lon="-2.4378">
        <ele>44.9</ele>
        <time>2025-02-11T07:31:29Z</time>
      </trkpt>
      <trkpt lat="47.78364" lon="-2.43781">
        <ele>44.9</ele>
        <time>2025-02-11T07:31:30Z</time>
      </trkpt>
      <trkpt lat="47.78365" lon="-2.43781">
        <ele>44.9</ele>
        <time>2025-02-11T07:31:31Z</time>
      </trkpt>
      <trkpt lat="47.78366" lon="-2.43782">
        <ele>44.8</ele>
        <time>2025-02-11T07:31:32Z</time>
      </trkpt>
      <trkpt lat="47.78367" lon="-2.43783">
        <ele>44.8</ele>
        <time>2025-02-11T07:31:33Z</time>
      </trkpt>
      <trkpt lat="47.78368" lon="-2.43784">
        <ele>44.8</ele>
        <time>2025-02-11T07:31:34Z</time>
      </trkpt>
      <trkpt lat="47.78369" lon="-2.43785">
        <ele>44.7</ele>
        <time>2025-02-11T07:31:35Z</time>
      </trkpt>
      <trkpt lat="47.78371" lon="-2.43785">
        <ele>44.7</ele>
        <time>2025-02-11T07:31:36Z</time>
      </trkpt>
      <trkpt lat="47.78372" lon="-2.43786">
        <ele>44.6</ele>
        <time>2025-02-11T07:31:37Z</time>
      </trkpt>
      <trkpt lat="47.78373" lon="-2.43787">
        <ele>44.6</ele>
        <time>2025-02-11T07:31:38Z</time>
      </trkpt>
      <trkpt lat="47.78374" lon="-2.43787">
        <ele>44.5</ele>
        <time>2025-02-11T07:31:39Z</time>
      </trkpt>
      <trkpt lat="47.78375" lon="-2.43788">
        <ele>44.5</ele>
        <time>2025-02-11T07:31:40Z</time>
      </trkpt>
      <trkpt lat="47.78377" lon="-2.43788">
        <ele>44.4</ele>
        <time>2025-02-11T07:31:41Z</time>
      </trkpt>
      <trkpt lat="47.78378" lon="-2.43789">
        <ele>44.4</ele>
        <time>2025-02-11T07:31:42Z</time>
      </trkpt>
      <trkpt lat="47.78379" lon="-2.4379">
        <ele>44.4</ele>
        <time>2025-02-11T07:31:43Z</time>
      </trkpt>
      <trkpt lat="47.7838" lon="-2.4379">
        <ele>44.3</ele>
        <time>2025-02-11T07:31:44Z</time>
      </trkpt>
      <trkpt lat="47.78381" lon="-2.43791">
        <ele>44.3</ele>
        <time>2025-02-11T07:31:45Z</time>
      </trkpt>
      <trkpt lat="47.78383" lon="-2.43792">
        <ele>44.2</ele>
        <time>2025-02-11T07:31:46Z</time>
      </trkpt>
      <trkpt lat="47.78384" lon="-2.43793">
        <ele>44.2</ele>
        <time>2025-02-11T07:31:47Z</time>
      </trkpt>
      <trkpt lat="47.78385" lon="-2.43793">
        <ele>44.1</ele>
        <time>2025-02-11T07:31:48Z</time>
      </trkpt>
      <trkpt lat="47.78386" lon="-2.43794">
        <ele>44.1</ele>
        <time>2025-02-11T07:31:49Z</time>
      </trkpt>
      <trkpt lat="47.78387" lon="-2.43795">
        <ele>44.1</ele>
        <time>2025-02-11T07:31:50Z</time>
      </trkpt>
      <trkpt lat="47.78388" lon="-2.43795">
        <ele>44</ele>
        <time>2025-02-11T07:31:51Z</time>
      </trkpt>
      <trkpt lat="47.7839" lon="-2.43796">
        <ele>44</ele>
        <time>2025-02-11T07:31:52Z</time>
      </trkpt>
      <trkpt lat="47.78391" lon="-2.43796">
        <ele>43.9</ele>
        <time>2025-02-11T07:31:53Z</time>
      </trkpt>
      <trkpt lat="47.78392" lon="-2.43797">
        <ele>43.8</ele>
        <time>2025-02-11T07:31:54Z</time>
      </trkpt>
      <trkpt lat="47.78393" lon="-2.43798">
        <ele>43.8</ele>
        <time>2025-02-11T07:31:55Z</time>
      </trkpt>
      <trkpt lat="47.78394" lon="-2.43798">
        <ele>43.7</ele>
        <time>2025-02-11T07:31:56Z</time>
      </trkpt>
      <trkpt lat="47.78395" lon="-2.43799">
        <ele>43.6</ele>
        <time>2025-02-11T07:31:57Z</time>
      </trkpt>
      <trkpt lat="47.78397" lon="-2.43799">
        <ele>43.5</ele>
        <time>2025-02-11T07:31:58Z</time>
      </trkpt>
      <trkpt lat="47.78398" lon="-2.43799">
        <ele>43.4</ele>
        <time>2025-02-11T07:31:59Z</time>
      </trkpt>
      <trkpt lat="47.78399" lon="-2.438">
        <ele>43.3</ele>
        <time>2025-02-11T07:32:00Z</time>
      </trkpt>
      <trkpt lat="47.784" lon="-2.438">
        <ele>43.2</ele>
        <time>2025-02-11T07:32:01Z</time>
      </trkpt>
      <trkpt lat="47.78402" lon="-2.43801">
        <ele>43.1</ele>
        <time>2025-02-11T07:32:02Z</time>
      </trkpt>
      <trkpt lat="47.78403" lon="-2.43802">
        <ele>43.1</ele>
        <time>2025-02-11T07:32:03Z</time>
      </trkpt>
      <trkpt lat="47.78404" lon="-2.43803">
        <ele>43</ele>
        <time>2025-02-11T07:32:04Z</time>
      </trkpt>
      <trkpt lat="47.78405" lon="-2.43804">
        <ele>42.9</ele>
        <time>2025-02-11T07:32:05Z</time>
      </trkpt>
      <trkpt lat="47.78406" lon="-2.43804">
        <ele>42.8</ele>
        <time>2025-02-11T07:32:06Z</time>
      </trkpt>
      <trkpt lat="47.78407" lon="-2.43805">
        <ele>42.7</ele>
        <time>2025-02-11T07:32:07Z</time>
      </trkpt>
      <trkpt lat="47.78408" lon="-2.43806">
        <ele>42.6</ele>
        <time>2025-02-11T07:32:08Z</time>
      </trkpt>
      <trkpt lat="47.78409" lon="-2.43807">
        <ele>42.5</ele>
        <time>2025-02-11T07:32:09Z</time>
      </trkpt>
      <trkpt lat="47.78411" lon="-2.43807">
        <ele>42.4</ele>
        <time>2025-02-11T07:32:10Z</time>
      </trkpt>
      <trkpt lat="47.78412" lon="-2.43808">
        <ele>42.3</ele>
        <time>2025-02-11T07:32:11Z</time>
      </trkpt>
      <trkpt lat="47.78413" lon="-2.43809">
        <ele>42.2</ele>
        <time>2025-02-11T07:32:12Z</time>
      </trkpt>
      <trkpt lat="47.78415" lon="-2.43809">
        <ele>42.1</ele>
        <time>2025-02-11T07:32:13Z</time>
      </trkpt>
      <trkpt lat="47.78416" lon="-2.43809">
        <ele>42.1</ele>
        <time>2025-02-11T07:32:14Z</time>
      </trkpt>
      <trkpt lat="47.78417" lon="-2.4381">
        <ele>42</ele>
        <time>2025-02-11T07:32:15Z</time>
      </trkpt>
      <trkpt lat="47.78418" lon="-2.4381">
        <ele>41.9</ele>
        <time>2025-02-11T07:32:16Z</time>
      </trkpt>
      <trkpt lat="47.7842" lon="-2.43811">
        <ele>41.9</ele>
        <time>2025-02-11T07:32:17Z</time>
      </trkpt>
      <trkpt lat="47.78421" lon="-2.43812">
        <ele>41.9</ele>
        <time>2025-02-11T07:32:18Z</time>
      </trkpt>
      <trkpt lat="47.78422" lon="-2.43813">
        <ele>41.8</ele>
        <time>2025-02-11T07:32:19Z</time>
      </trkpt>
      <trkpt lat="47.78423" lon="-2.43814">
        <ele>41.8</ele>
        <time>2025-02-11T07:32:20Z</time>
      </trkpt>
      <trkpt lat="47.78424" lon="-2.43814">
        <ele>41.7</ele>
        <time>2025-02-11T07:32:21Z</time>
      </trkpt>
      <trkpt lat="47.78425" lon="-2.43814">
        <ele>41.7</ele>
        <time>2025-02-11T07:32:22Z</time>
      </trkpt>
      <trkpt lat="47.78426" lon="-2.43814">
        <ele>41.7</ele>
        <time>2025-02-11T07:32:23Z</time>
      </trkpt>
      <trkpt lat="47.78427" lon="-2.43816">
        <ele>41.6</ele>
        <time>2025-02-11T07:32:24Z</time>
      </trkpt>
      <trkpt lat="47.78429" lon="-2.43816">
        <ele>41.6</ele>
        <time>2025-02-11T07:32:25Z</time>
      </trkpt>
      <trkpt lat="47.7843" lon="-2.43816">
        <ele>41.5</ele>
        <time>2025-02-11T07:32:26Z</time>
      </trkpt>
      <trkpt lat="47.78431" lon="-2.43816">
        <ele>41.5</ele>
        <time>2025-02-11T07:32:27Z</time>
      </trkpt>
      <trkpt lat="47.78432" lon="-2.43817">
        <ele>41.4</ele>
        <time>2025-02-11T07:32:28Z</time>
      </trkpt>
      <trkpt lat="47.78433" lon="-2.43817">
        <ele>41.4</ele>
        <time>2025-02-11T07:32:29Z</time>
      </trkpt>
      <trkpt lat="47.78434" lon="-2.43817">
        <ele>41.4</ele>
        <time>2025-02-11T07:32:30Z</time>
      </trkpt>
      <trkpt lat="47.78435" lon="-2.43818">
        <ele>41.3</ele>
        <time>2025-02-11T07:32:31Z</time>
      </trkpt>
      <trkpt lat="47.78437" lon="-2.43818">
        <ele>41.3</ele>
        <time>2025-02-11T07:32:32Z</time>
      </trkpt>
      <trkpt lat="47.78438" lon="-2.43818">
        <ele>41.2</ele>
        <time>2025-02-11T07:32:33Z</time>
      </trkpt>
      <trkpt lat="47.78439" lon="-2.43817">
        <ele>41.2</ele>
        <time>2025-02-11T07:32:34Z</time>
      </trkpt>
      <trkpt lat="47.7844" lon="-2.43817">
        <ele>41.1</ele>
        <time>2025-02-11T07:32:35Z</time>
      </trkpt>
      <trkpt lat="47.78442" lon="-2.43818">
        <ele>41.1</ele>
        <time>2025-02-11T07:32:36Z</time>
      </trkpt>
      <trkpt lat="47.78443" lon="-2.43817">
        <ele>41</ele>
        <time>2025-02-11T07:32:37Z</time>
      </trkpt>
      <trkpt lat="47.78445" lon="-2.43818">
        <ele>41</ele>
        <time>2025-02-11T07:32:38Z</time>
      </trkpt>
      <trkpt lat="47.78446" lon="-2.43818">
        <ele>41</ele>
        <time>2025-02-11T07:32:39Z</time>
      </trkpt>
      <trkpt lat="47.78447" lon="-2.43819">
        <ele>40.9</ele>
        <time>2025-02-11T07:32:40Z</time>
      </trkpt>
      <trkpt lat="47.78449" lon="-2.43819">
        <ele>40.9</ele>
        <time>2025-02-11T07:32:41Z</time>
      </trkpt>
      <trkpt lat="47.7845" lon="-2.4382">
        <ele>40.8</ele>
        <time>2025-02-11T07:32:42Z</time>
      </trkpt>
      <trkpt lat="47.78451" lon="-2.4382">
        <ele>40.8</ele>
        <time>2025-02-11T07:32:43Z</time>
      </trkpt>
      <trkpt lat="47.78453" lon="-2.4382">
        <ele>40.7</ele>
        <time>2025-02-11T07:32:44Z</time>
      </trkpt>
      <trkpt lat="47.78454" lon="-2.4382">
        <ele>40.7</ele>
        <time>2025-02-11T07:32:45Z</time>
      </trkpt>
      <trkpt lat="47.78455" lon="-2.4382">
        <ele>40.6</ele>
        <time>2025-02-11T07:32:46Z</time>
      </trkpt>
      <trkpt lat="47.78456" lon="-2.43821">
        <ele>40.6</ele>
        <time>2025-02-11T07:32:47Z</time>
      </trkpt>
      <trkpt lat="47.78457" lon="-2.43821">
        <ele>40.5</ele>
        <time>2025-02-11T07:32:48Z</time>
      </trkpt>
      <trkpt lat="47.78459" lon="-2.43821">
        <ele>40.5</ele>
        <time>2025-02-11T07:32:49Z</time>
      </trkpt>
      <trkpt lat="47.7846" lon="-2.43821">
        <ele>40.5</ele>
        <time>2025-02-11T07:32:50Z</time>
      </trkpt>
      <trkpt lat="47.78461" lon="-2.43821">
        <ele>40.4</ele>
        <time>2025-02-11T07:32:51Z</time>
      </trkpt>
      <trkpt lat="47.78462" lon="-2.43821">
        <ele>40.4</ele>
        <time>2025-02-11T07:32:52Z</time>
      </trkpt>
      <trkpt lat="47.78464" lon="-2.43821">
        <ele>40.3</ele>
        <time>2025-02-11T07:32:53Z</time>
      </trkpt>
      <trkpt lat="47.78465" lon="-2.43821">
        <ele>40.3</ele>
        <time>2025-02-11T07:32:54Z</time>
      </trkpt>
      <trkpt lat="47.78466" lon="-2.43821">
        <ele>40.2</ele>
        <time>2025-02-11T07:32:55Z</time>
      </trkpt>
      <trkpt lat="47.78467" lon="-2.43821">
        <ele>40.2</ele>
        <time>2025-02-11T07:32:56Z</time>
      </trkpt>
      <trkpt lat="47.78468" lon="-2.43822">
        <ele>40.2</ele>
        <time>2025-02-11T07:32:57Z</time>
      </trkpt>
      <trkpt lat="47.78469" lon="-2.43822">
        <ele>40.1</ele>
        <time>2025-02-11T07:32:58Z</time>
      </trkpt>
      <trkpt lat="47.7847" lon="-2.43823">
        <ele>40.1</ele>
        <time>2025-02-11T07:32:59Z</time>
      </trkpt>
      <trkpt lat="47.78472" lon="-2.43823">
        <ele>40</ele>
        <time>2025-02-11T07:33:00Z</time>
      </trkpt>
      <trkpt lat="47.78473" lon="-2.43823">
        <ele>40</ele>
        <time>2025-02-11T07:33:01Z</time>
      </trkpt>
      <trkpt lat="47.78474" lon="-2.43823">
        <ele>39.9</ele>
        <time>2025-02-11T07:33:02Z</time>
      </trkpt>
      <trkpt lat="47.78475" lon="-2.43823">
        <ele>39.9</ele>
        <time>2025-02-11T07:33:03Z</time>
      </trkpt>
      <trkpt lat="47.78476" lon="-2.43823">
        <ele>39.9</ele>
        <time>2025-02-11T07:33:04Z</time>
      </trkpt>
      <trkpt lat="47.78477" lon="-2.43823">
        <ele>39.8</ele>
        <time>2025-02-11T07:33:05Z</time>
      </trkpt>
      <trkpt lat="47.78478" lon="-2.43823">
        <ele>39.8</ele>
        <time>2025-02-11T07:33:06Z</time>
      </trkpt>
      <trkpt lat="47.7848" lon="-2.43823">
        <ele>39.7</ele>
        <time>2025-02-11T07:33:07Z</time>
      </trkpt>
      <trkpt lat="47.78481" lon="-2.43823">
        <ele>39.7</ele>
        <time>2025-02-11T07:33:08Z</time>
      </trkpt>
      <trkpt lat="47.78482" lon="-2.43823">
        <ele>39.7</ele>
        <time>2025-02-11T07:33:09Z</time>
      </trkpt>
      <trkpt lat="47.78483" lon="-2.43823">
        <ele>39.6</ele>
        <time>2025-02-11T07:33:10Z</time>
      </trkpt>
      <trkpt lat="47.78484" lon="-2.43823">
        <ele>39.6</ele>
        <time>2025-02-11T07:33:11Z</time>
      </trkpt>
      <trkpt lat="47.78485" lon="-2.43823">
        <ele>39.5</ele>
        <time>2025-02-11T07:33:12Z</time>
      </trkpt>
      <trkpt lat="47.78486" lon="-2.43823">
        <ele>39.5</ele>
        <time>2025-02-11T07:33:13Z</time>
      </trkpt>
      <trkpt lat="47.78488" lon="-2.43824">
        <ele>39.5</ele>
        <time>2025-02-11T07:33:14Z</time>
      </trkpt>
      <trkpt lat="47.78489" lon="-2.43824">
        <ele>39.4</ele>
        <time>2025-02-11T07:33:15Z</time>
      </trkpt>
      <trkpt lat="47.7849" lon="-2.43824">
        <ele>39.4</ele>
        <time>2025-02-11T07:33:16Z</time>
      </trkpt>
      <trkpt lat="47.78491" lon="-2.43823">
        <ele>39.3</ele>
        <time>2025-02-11T07:33:17Z</time>
      </trkpt>
      <trkpt lat="47.78492" lon="-2.43823">
        <ele>39.3</ele>
        <time>2025-02-11T07:33:18Z</time>
      </trkpt>
      <trkpt lat="47.78493" lon="-2.43823">
        <ele>39.2</ele>
        <time>2025-02-11T07:33:19Z</time>
      </trkpt>
      <trkpt lat="47.78495" lon="-2.43823">
        <ele>39.2</ele>
        <time>2025-02-11T07:33:20Z</time>
      </trkpt>
      <trkpt lat="47.78496" lon="-2.43823">
        <ele>39.2</ele>
        <time>2025-02-11T07:33:21Z</time>
      </trkpt>
      <trkpt lat="47.78497" lon="-2.43824">
        <ele>39.1</ele>
        <time>2025-02-11T07:33:22Z</time>
      </trkpt>
      <trkpt lat="47.78498" lon="-2.43824">
        <ele>39.1</ele>
        <time>2025-02-11T07:33:23Z</time>
      </trkpt>
      <trkpt lat="47.78499" lon="-2.43824">
        <ele>39</ele>
        <time>2025-02-11T07:33:24Z</time>
      </trkpt>
      <trkpt lat="47.785" lon="-2.43824">
        <ele>39</ele>
        <time>2025-02-11T07:33:25Z</time>
      </trkpt>
      <trkpt lat="47.78502" lon="-2.43825">
        <ele>39</ele>
        <time>2025-02-11T07:33:26Z</time>
      </trkpt>
      <trkpt lat="47.78503" lon="-2.43824">
        <ele>39</ele>
        <time>2025-02-11T07:33:27Z</time>
      </trkpt>
      <trkpt lat="47.78504" lon="-2.43824">
        <ele>39</ele>
        <time>2025-02-11T07:33:28Z</time>
      </trkpt>
      <trkpt lat="47.78505" lon="-2.43824">
        <ele>39</ele>
        <time>2025-02-11T07:33:29Z</time>
      </trkpt>
      <trkpt lat="47.78507" lon="-2.43824">
        <ele>39</ele>
        <time>2025-02-11T07:33:30Z</time>
      </trkpt>
      <trkpt lat="47.78508" lon="-2.43824">
        <ele>39</ele>
        <time>2025-02-11T07:33:31Z</time>
      </trkpt>
      <trkpt lat="47.7851" lon="-2.43825">
        <ele>39</ele>
        <time>2025-02-11T07:33:32Z</time>
      </trkpt>
      <trkpt lat="47.78511" lon="-2.43825">
        <ele>39</ele>
        <time>2025-02-11T07:33:33Z</time>
      </trkpt>
      <trkpt lat="47.78512" lon="-2.43825">
        <ele>39</ele>
        <time>2025-02-11T07:33:34Z</time>
      </trkpt>
      <trkpt lat="47.78513" lon="-2.43825">
        <ele>39</ele>
        <time>2025-02-11T07:33:35Z</time>
      </trkpt>
      <trkpt lat="47.78515" lon="-2.43825">
        <ele>39</ele>
        <time>2025-02-11T07:33:36Z</time>
      </trkpt>
      <trkpt lat="47.78516" lon="-2.43825">
        <ele>39</ele>
        <time>2025-02-11T07:33:37Z</time>
      </trkpt>
      <trkpt lat="47.78517" lon="-2.43825">
        <ele>39</ele>
        <time>2025-02-11T07:33:38Z</time>
      </trkpt>
      <trkpt lat="47.78518" lon="-2.43826">
        <ele>39</ele>
        <time>2025-02-11T07:33:39Z</time>
      </trkpt>
      <trkpt lat="47.7852" lon="-2.43826">
        <ele>39</ele>
        <time>2025-02-11T07:33:40Z</time>
      </trkpt>
      <trkpt lat="47.78521" lon="-2.43826">
        <ele>39</ele>
        <time>2025-02-11T07:33:41Z</time>
      </trkpt>
      <trkpt lat="47.78522" lon="-2.43826">
        <ele>39</ele>
        <time>2025-02-11T07:33:42Z</time>
      </trkpt>
      <trkpt lat="47.78524" lon="-2.43826">
        <ele>39</ele>
        <time>2025-02-11T07:33:43Z</time>
      </trkpt>
      <trkpt lat="47.78525" lon="-2.43826">
        <ele>39</ele>
        <time>2025-02-11T07:33:44Z</time>
      </trkpt>
      <trkpt lat="47.78527" lon="-2.43826">
        <ele>39</ele>
        <time>2025-02-11T07:33:45Z</time>
      </trkpt>
      <trkpt lat="47.78528" lon="-2.43826">
        <ele>39</ele>
        <time>2025-02-11T07:33:46Z</time>
      </trkpt>
      <trkpt lat="47.78529" lon="-2.43826">
        <ele>39</ele>
        <time>2025-02-11T07:33:47Z</time>
      </trkpt>
      <trkpt lat="47.7853" lon="-2.43827">
        <ele>38.9</ele>
        <time>2025-02-11T07:33:48Z</time>
      </trkpt>
      <trkpt lat="47.78532" lon="-2.43827">
        <ele>38.9</ele>
        <time>2025-02-11T07:33:49Z</time>
      </trkpt>
      <trkpt lat="47.78533" lon="-2.43828">
        <ele>38.8</ele>
        <time>2025-02-11T07:33:50Z</time>
      </trkpt>
      <trkpt lat="47.78534" lon="-2.43828">
        <ele>38.8</ele>
        <time>2025-02-11T07:33:51Z</time>
      </trkpt>
      <trkpt lat="47.78535" lon="-2.43828">
        <ele>38.7</ele>
        <time>2025-02-11T07:33:52Z</time>
      </trkpt>
      <trkpt lat="47.78537" lon="-2.43829">
        <ele>38.7</ele>
        <time>2025-02-11T07:33:53Z</time>
      </trkpt>
      <trkpt lat="47.78538" lon="-2.43829">
        <ele>38.6</ele>
        <time>2025-02-11T07:33:54Z</time>
      </trkpt>
      <trkpt lat="47.78539" lon="-2.43829">
        <ele>38.6</ele>
        <time>2025-02-11T07:33:55Z</time>
      </trkpt>
      <trkpt lat="47.7854" lon="-2.4383">
        <ele>38.5</ele>
        <time>2025-02-11T07:33:56Z</time>
      </trkpt>
      <trkpt lat="47.78542" lon="-2.4383">
        <ele>38.5</ele>
        <time>2025-02-11T07:33:57Z</time>
      </trkpt>
      <trkpt lat="47.78543" lon="-2.4383">
        <ele>38.5</ele>
        <time>2025-02-11T07:33:58Z</time>
      </trkpt>
      <trkpt lat="47.78544" lon="-2.4383">
        <ele>38.4</ele>
        <time>2025-02-11T07:33:59Z</time>
      </trkpt>
      <trkpt lat="47.78545" lon="-2.4383">
        <ele>38.4</ele>
        <time>2025-02-11T07:34:00Z</time>
      </trkpt>
      <trkpt lat="47.78546" lon="-2.4383">
        <ele>38.3</ele>
        <time>2025-02-11T07:34:01Z</time>
      </trkpt>
      <trkpt lat="47.78548" lon="-2.43831">
        <ele>38.3</ele>
        <time>2025-02-11T07:34:02Z</time>
      </trkpt>
      <trkpt lat="47.78549" lon="-2.43831">
        <ele>38.2</ele>
        <time>2025-02-11T07:34:03Z</time>
      </trkpt>
      <trkpt lat="47.7855" lon="-2.43831">
        <ele>38.2</ele>
        <time>2025-02-11T07:34:04Z</time>
      </trkpt>
      <trkpt lat="47.78552" lon="-2.43831">
        <ele>38.1</ele>
        <time>2025-02-11T07:34:05Z</time>
      </trkpt>
      <trkpt lat="47.78553" lon="-2.43831">
        <ele>38.1</ele>
        <time>2025-02-11T07:34:06Z</time>
      </trkpt>
      <trkpt lat="47.78554" lon="-2.43832">
        <ele>38</ele>
        <time>2025-02-11T07:34:07Z</time>
      </trkpt>
      <trkpt lat="47.78555" lon="-2.43832">
        <ele>38</ele>
        <time>2025-02-11T07:34:08Z</time>
      </trkpt>
      <trkpt lat="47.78557" lon="-2.43833">
        <ele>38</ele>
        <time>2025-02-11T07:34:09Z</time>
      </trkpt>
      <trkpt lat="47.78558" lon="-2.43833">
        <ele>38</ele>
        <time>2025-02-11T07:34:10Z</time>
      </trkpt>
      <trkpt lat="47.78559" lon="-2.43834">
        <ele>38</ele>
        <time>2025-02-11T07:34:11Z</time>
      </trkpt>
      <trkpt lat="47.7856" lon="-2.43834">
        <ele>38</ele>
        <time>2025-02-11T07:34:12Z</time>
      </trkpt>
      <trkpt lat="47.78561" lon="-2.43834">
        <ele>38</ele>
        <time>2025-02-11T07:34:13Z</time>
      </trkpt>
      <trkpt lat="47.78562" lon="-2.43834">
        <ele>38</ele>
        <time>2025-02-11T07:34:14Z</time>
      </trkpt>
      <trkpt lat="47.78563" lon="-2.43834">
        <ele>38</ele>
        <time>2025-02-11T07:34:15Z</time>
      </trkpt>
      <trkpt lat="47.78565" lon="-2.43834">
        <ele>38</ele>
        <time>2025-02-11T07:34:16Z</time>
      </trkpt>
      <trkpt lat="47.78566" lon="-2.43834">
        <ele>38</ele>
        <time>2025-02-11T07:34:17Z</time>
      </trkpt>
      <trkpt lat="47.78567" lon="-2.43834">
        <ele>38</ele>
        <time>2025-02-11T07:34:18Z</time>
      </trkpt>
      <trkpt lat="47.78568" lon="-2.43835">
        <ele>38</ele>
        <time>2025-02-11T07:34:19Z</time>
      </trkpt>
      <trkpt lat="47.78569" lon="-2.43835">
        <ele>38</ele>
        <time>2025-02-11T07:34:20Z</time>
      </trkpt>
      <trkpt lat="47.7857" lon="-2.43835">
        <ele>38</ele>
        <time>2025-02-11T07:34:21Z</time>
      </trkpt>
      <trkpt lat="47.78571" lon="-2.43836">
        <ele>38</ele>
        <time>2025-02-11T07:34:22Z</time>
      </trkpt>
      <trkpt lat="47.78573" lon="-2.43836">
        <ele>38</ele>
        <time>2025-02-11T07:34:23Z</time>
      </trkpt>
      <trkpt lat="47.78574" lon="-2.43836">
        <ele>38</ele>
        <time>2025-02-11T07:34:24Z</time>
      </trkpt>
      <trkpt lat="47.78575" lon="-2.43836">
        <ele>38</ele>
        <time>2025-02-11T07:34:25Z</time>
      </trkpt>
      <trkpt lat="47.78577" lon="-2.43836">
        <ele>38</ele>
        <time>2025-02-11T07:34:26Z</time>
      </trkpt>
      <trkpt lat="47.78578" lon="-2.43836">
        <ele>38</ele>
        <time>2025-02-11T07:34:27Z</time>
      </trkpt>
      <trkpt lat="47.78579" lon="-2.43837">
        <ele>38</ele>
        <time>2025-02-11T07:34:28Z</time>
      </trkpt>
      <trkpt lat="47.7858" lon="-2.43837">
        <ele>38</ele>
        <time>2025-02-11T07:34:29Z</time>
      </trkpt>
      <trkpt lat="47.78582" lon="-2.43837">
        <ele>38</ele>
        <time>2025-02-11T07:34:30Z</time>
      </trkpt>
      <trkpt lat="47.78583" lon="-2.43838">
        <ele>38</ele>
        <time>2025-02-11T07:34:31Z</time>
      </trkpt>
      <trkpt lat="47.78584" lon="-2.43839">
        <ele>38</ele>
        <time>2025-02-11T07:34:32Z</time>
      </trkpt>
      <trkpt lat="47.78585" lon="-2.43839">
        <ele>37.9</ele>
        <time>2025-02-11T07:34:33Z</time>
      </trkpt>
      <trkpt lat="47.78586" lon="-2.4384">
        <ele>37.9</ele>
        <time>2025-02-11T07:34:34Z</time>
      </trkpt>
      <trkpt lat="47.78588" lon="-2.43839">
        <ele>37.9</ele>
        <time>2025-02-11T07:34:35Z</time>
      </trkpt>
      <trkpt lat="47.78589" lon="-2.43839">
        <ele>37.8</ele>
        <time>2025-02-11T07:34:36Z</time>
      </trkpt>
      <trkpt lat="47.7859" lon="-2.4384">
        <ele>37.8</ele>
        <time>2025-02-11T07:34:37Z</time>
      </trkpt>
      <trkpt lat="47.78591" lon="-2.4384">
        <ele>37.7</ele>
        <time>2025-02-11T07:34:38Z</time>
      </trkpt>
      <trkpt lat="47.78592" lon="-2.43841">
        <ele>37.7</ele>
        <time>2025-02-11T07:34:39Z</time>
      </trkpt>
      <trkpt lat="47.78593" lon="-2.43841">
        <ele>37.6</ele>
        <time>2025-02-11T07:34:40Z</time>
      </trkpt>
      <trkpt lat="47.78594" lon="-2.43842">
        <ele>37.6</ele>
        <time>2025-02-11T07:34:41Z</time>
      </trkpt>
      <trkpt lat="47.78596" lon="-2.43842">
        <ele>37.6</ele>
        <time>2025-02-11T07:34:42Z</time>
      </trkpt>
      <trkpt lat="47.78597" lon="-2.43843">
        <ele>37.5</ele>
        <time>2025-02-11T07:34:43Z</time>
      </trkpt>
      <trkpt lat="47.78599" lon="-2.43843">
        <ele>37.5</ele>
        <time>2025-02-11T07:34:44Z</time>
      </trkpt>
      <trkpt lat="47.786" lon="-2.43843">
        <ele>37.4</ele>
        <time>2025-02-11T07:34:45Z</time>
      </trkpt>
      <trkpt lat="47.78601" lon="-2.43843">
        <ele>37.4</ele>
        <time>2025-02-11T07:34:46Z</time>
      </trkpt>
      <trkpt lat="47.78602" lon="-2.43844">
        <ele>37.3</ele>
        <time>2025-02-11T07:34:47Z</time>
      </trkpt>
      <trkpt lat="47.78604" lon="-2.43844">
        <ele>37.3</ele>
        <time>2025-02-11T07:34:48Z</time>
      </trkpt>
      <trkpt lat="47.78605" lon="-2.43844">
        <ele>37.2</ele>
        <time>2025-02-11T07:34:49Z</time>
      </trkpt>
      <trkpt lat="47.78607" lon="-2.43845">
        <ele>37.2</ele>
        <time>2025-02-11T07:34:50Z</time>
      </trkpt>
      <trkpt lat="47.78608" lon="-2.43845">
        <ele>37.1</ele>
        <time>2025-02-11T07:34:51Z</time>
      </trkpt>
      <trkpt lat="47.78609" lon="-2.43845">
        <ele>37.1</ele>
        <time>2025-02-11T07:34:52Z</time>
      </trkpt>
      <trkpt lat="47.78611" lon="-2.43845">
        <ele>37</ele>
        <time>2025-02-11T07:34:53Z</time>
      </trkpt>
      <trkpt lat="47.78612" lon="-2.43845">
        <ele>37</ele>
        <time>2025-02-11T07:34:54Z</time>
      </trkpt>
      <trkpt lat="47.78613" lon="-2.43845">
        <ele>36.9</ele>
        <time>2025-02-11T07:34:55Z</time>
      </trkpt>
      <trkpt lat="47.78614" lon="-2.43846">
        <ele>36.9</ele>
        <time>2025-02-11T07:34:56Z</time>
      </trkpt>
      <trkpt lat="47.78615" lon="-2.43846">
        <ele>36.8</ele>
        <time>2025-02-11T07:34:57Z</time>
      </trkpt>
      <trkpt lat="47.78616" lon="-2.43847">
        <ele>36.8</ele>
        <time>2025-02-11T07:34:58Z</time>
      </trkpt>
      <trkpt lat="47.78618" lon="-2.43848">
        <ele>36.8</ele>
        <time>2025-02-11T07:34:59Z</time>
      </trkpt>
      <trkpt lat="47.78619" lon="-2.43848">
        <ele>36.7</ele>
        <time>2025-02-11T07:35:00Z</time>
      </trkpt>
      <trkpt lat="47.7862" lon="-2.43848">
        <ele>36.7</ele>
        <time>2025-02-11T07:35:01Z</time>
      </trkpt>
      <trkpt lat="47.78621" lon="-2.43848">
        <ele>36.6</ele>
        <time>2025-02-11T07:35:02Z</time>
      </trkpt>
      <trkpt lat="47.78623" lon="-2.43848">
        <ele>36.6</ele>
        <time>2025-02-11T07:35:03Z</time>
      </trkpt>
      <trkpt lat="47.78624" lon="-2.43848">
        <ele>36.5</ele>
        <time>2025-02-11T07:35:04Z</time>
      </trkpt>
      <trkpt lat="47.78625" lon="-2.43848">
        <ele>36.5</ele>
        <time>2025-02-11T07:35:05Z</time>
      </trkpt>
      <trkpt lat="47.78626" lon="-2.43849">
        <ele>36.5</ele>
        <time>2025-02-11T07:35:06Z</time>
      </trkpt>
      <trkpt lat="47.78627" lon="-2.43849">
        <ele>36.4</ele>
        <time>2025-02-11T07:35:07Z</time>
      </trkpt>
      <trkpt lat="47.78628" lon="-2.43849">
        <ele>36.4</ele>
        <time>2025-02-11T07:35:08Z</time>
      </trkpt>
      <trkpt lat="47.7863" lon="-2.43849">
        <ele>36.3</ele>
        <time>2025-02-11T07:35:09Z</time>
      </trkpt>
      <trkpt lat="47.78631" lon="-2.43849">
        <ele>36.3</ele>
        <time>2025-02-11T07:35:10Z</time>
      </trkpt>
      <trkpt lat="47.78632" lon="-2.43849">
        <ele>36.3</ele>
        <time>2025-02-11T07:35:11Z</time>
      </trkpt>
      <trkpt lat="47.78633" lon="-2.4385">
        <ele>36.2</ele>
        <time>2025-02-11T07:35:12Z</time>
      </trkpt>
      <trkpt lat="47.78634" lon="-2.4385">
        <ele>36.2</ele>
        <time>2025-02-11T07:35:13Z</time>
      </trkpt>
      <trkpt lat="47.78635" lon="-2.43851">
        <ele>36.1</ele>
        <time>2025-02-11T07:35:14Z</time>
      </trkpt>
      <trkpt lat="47.78636" lon="-2.43851">
        <ele>36.1</ele>
        <time>2025-02-11T07:35:15Z</time>
      </trkpt>
      <trkpt lat="47.78638" lon="-2.43851">
        <ele>36</ele>
        <time>2025-02-11T07:35:16Z</time>
      </trkpt>
      <trkpt lat="47.78639" lon="-2.43851">
        <ele>36</ele>
        <time>2025-02-11T07:35:17Z</time>
      </trkpt>
      <trkpt lat="47.7864" lon="-2.43851">
        <ele>36</ele>
        <time>2025-02-11T07:35:18Z</time>
      </trkpt>
      <trkpt lat="47.78642" lon="-2.43851">
        <ele>35.9</ele>
        <time>2025-02-11T07:35:19Z</time>
      </trkpt>
      <trkpt lat="47.78643" lon="-2.43851">
        <ele>35.9</ele>
        <time>2025-02-11T07:35:20Z</time>
      </trkpt>
      <trkpt lat="47.78644" lon="-2.43851">
        <ele>35.9</ele>
        <time>2025-02-11T07:35:21Z</time>
      </trkpt>
      <trkpt lat="47.78645" lon="-2.43851">
        <ele>35.8</ele>
        <time>2025-02-11T07:35:22Z</time>
      </trkpt>
      <trkpt lat="47.78647" lon="-2.43852">
        <ele>35.8</ele>
        <time>2025-02-11T07:35:23Z</time>
      </trkpt>
      <trkpt lat="47.78648" lon="-2.43852">
        <ele>35.8</ele>
        <time>2025-02-11T07:35:24Z</time>
      </trkpt>
      <trkpt lat="47.78649" lon="-2.43853">
        <ele>35.7</ele>
        <time>2025-02-11T07:35:25Z</time>
      </trkpt>
      <trkpt lat="47.7865" lon="-2.43853">
        <ele>35.7</ele>
        <time>2025-02-11T07:35:26Z</time>
      </trkpt>
      <trkpt lat="47.78651" lon="-2.43854">
        <ele>35.7</ele>
        <time>2025-02-11T07:35:27Z</time>
      </trkpt>
      <trkpt lat="47.78653" lon="-2.43854">
        <ele>35.6</ele>
        <time>2025-02-11T07:35:28Z</time>
      </trkpt>
      <trkpt lat="47.78654" lon="-2.43853">
        <ele>35.6</ele>
        <time>2025-02-11T07:35:29Z</time>
      </trkpt>
      <trkpt lat="47.78655" lon="-2.43854">
        <ele>35.6</ele>
        <time>2025-02-11T07:35:30Z</time>
      </trkpt>
      <trkpt lat="47.78656" lon="-2.43854">
        <ele>35.5</ele>
        <time>2025-02-11T07:35:31Z</time>
      </trkpt>
      <trkpt lat="47.78657" lon="-2.43854">
        <ele>35.5</ele>
        <time>2025-02-11T07:35:32Z</time>
      </trkpt>
      <trkpt lat="47.78659" lon="-2.43854">
        <ele>35.5</ele>
        <time>2025-02-11T07:35:33Z</time>
      </trkpt>
      <trkpt lat="47.7866" lon="-2.43853">
        <ele>35.5</ele>
        <time>2025-02-11T07:35:34Z</time>
      </trkpt>
      <trkpt lat="47.78661" lon="-2.43854">
        <ele>35.4</ele>
        <time>2025-02-11T07:35:35Z</time>
      </trkpt>
      <trkpt lat="47.78662" lon="-2.43854">
        <ele>35.4</ele>
        <time>2025-02-11T07:35:36Z</time>
      </trkpt>
      <trkpt lat="47.78663" lon="-2.43855">
        <ele>35.3</ele>
        <time>2025-02-11T07:35:37Z</time>
      </trkpt>
      <trkpt lat="47.78664" lon="-2.43856">
        <ele>35.3</ele>
        <time>2025-02-11T07:35:38Z</time>
      </trkpt>
      <trkpt lat="47.78665" lon="-2.43857">
        <ele>35.2</ele>
        <time>2025-02-11T07:35:39Z</time>
      </trkpt>
      <trkpt lat="47.78666" lon="-2.43857">
        <ele>35.2</ele>
        <time>2025-02-11T07:35:40Z</time>
      </trkpt>
      <trkpt lat="47.78667" lon="-2.43857">
        <ele>35.1</ele>
        <time>2025-02-11T07:35:41Z</time>
      </trkpt>
      <trkpt lat="47.78668" lon="-2.43857">
        <ele>35.1</ele>
        <time>2025-02-11T07:35:42Z</time>
      </trkpt>
      <trkpt lat="47.78669" lon="-2.43857">
        <ele>35.1</ele>
        <time>2025-02-11T07:35:43Z</time>
      </trkpt>
      <trkpt lat="47.7867" lon="-2.43857">
        <ele>35</ele>
        <time>2025-02-11T07:35:44Z</time>
      </trkpt>
      <trkpt lat="47.78671" lon="-2.43857">
        <ele>35</ele>
        <time>2025-02-11T07:35:45Z</time>
      </trkpt>
      <trkpt lat="47.78672" lon="-2.43857">
        <ele>35</ele>
        <time>2025-02-11T07:35:46Z</time>
      </trkpt>
      <trkpt lat="47.78674" lon="-2.43857">
        <ele>34.9</ele>
        <time>2025-02-11T07:35:47Z</time>
      </trkpt>
      <trkpt lat="47.78675" lon="-2.43857">
        <ele>34.9</ele>
        <time>2025-02-11T07:35:48Z</time>
      </trkpt>
      <trkpt lat="47.78676" lon="-2.43858">
        <ele>34.8</ele>
        <time>2025-02-11T07:35:49Z</time>
      </trkpt>
      <trkpt lat="47.78677" lon="-2.43858">
        <ele>34.7</ele>
        <time>2025-02-11T07:35:50Z</time>
      </trkpt>
      <trkpt lat="47.78678" lon="-2.43859">
        <ele>34.7</ele>
        <time>2025-02-11T07:35:51Z</time>
      </trkpt>
      <trkpt lat="47.7868" lon="-2.43859">
        <ele>34.6</ele>
        <time>2025-02-11T07:35:52Z</time>
      </trkpt>
      <trkpt lat="47.78681" lon="-2.43859">
        <ele>34.6</ele>
        <time>2025-02-11T07:35:53Z</time>
      </trkpt>
      <trkpt lat="47.78682" lon="-2.43859">
        <ele>34.5</ele>
        <time>2025-02-11T07:35:54Z</time>
      </trkpt>
      <trkpt lat="47.78683" lon="-2.4386">
        <ele>34.5</ele>
        <time>2025-02-11T07:35:55Z</time>
      </trkpt>
      <trkpt lat="47.78684" lon="-2.4386">
        <ele>34.4</ele>
        <time>2025-02-11T07:35:56Z</time>
      </trkpt>
      <trkpt lat="47.78685" lon="-2.43861">
        <ele>34.3</ele>
        <time>2025-02-11T07:35:57Z</time>
      </trkpt>
      <trkpt lat="47.78687" lon="-2.43861">
        <ele>34.3</ele>
        <time>2025-02-11T07:35:58Z</time>
      </trkpt>
      <trkpt lat="47.78688" lon="-2.43861">
        <ele>34.2</ele>
        <time>2025-02-11T07:35:59Z</time>
      </trkpt>
      <trkpt lat="47.78689" lon="-2.43861">
        <ele>34.2</ele>
        <time>2025-02-11T07:36:00Z</time>
      </trkpt>
      <trkpt lat="47.78691" lon="-2.43861">
        <ele>34.1</ele>
        <time>2025-02-11T07:36:01Z</time>
      </trkpt>
      <trkpt lat="47.78692" lon="-2.43862">
        <ele>34.1</ele>
        <time>2025-02-11T07:36:02Z</time>
      </trkpt>
      <trkpt lat="47.78693" lon="-2.43863">
        <ele>34.1</ele>
        <time>2025-02-11T07:36:03Z</time>
      </trkpt>
      <trkpt lat="47.78694" lon="-2.43864">
        <ele>34</ele>
        <time>2025-02-11T07:36:04Z</time>
      </trkpt>
      <trkpt lat="47.78695" lon="-2.43865">
        <ele>34</ele>
        <time>2025-02-11T07:36:05Z</time>
      </trkpt>
      <trkpt lat="47.78697" lon="-2.43866">
        <ele>34</ele>
        <time>2025-02-11T07:36:06Z</time>
      </trkpt>
      <trkpt lat="47.78698" lon="-2.43867">
        <ele>34</ele>
        <time>2025-02-11T07:36:07Z</time>
      </trkpt>
      <trkpt lat="47.78699" lon="-2.43868">
        <ele>33.9</ele>
        <time>2025-02-11T07:36:08Z</time>
      </trkpt>
      <trkpt lat="47.787" lon="-2.43869">
        <ele>33.9</ele>
        <time>2025-02-11T07:36:09Z</time>
      </trkpt>
      <trkpt lat="47.78701" lon="-2.43869">
        <ele>33.9</ele>
        <time>2025-02-11T07:36:10Z</time>
      </trkpt>
      <trkpt lat="47.78702" lon="-2.4387">
        <ele>33.8</ele>
        <time>2025-02-11T07:36:11Z</time>
      </trkpt>
      <trkpt lat="47.78704" lon="-2.43871">
        <ele>33.8</ele>
        <time>2025-02-11T07:36:12Z</time>
      </trkpt>
      <trkpt lat="47.78705" lon="-2.43872">
        <ele>33.7</ele>
        <time>2025-02-11T07:36:13Z</time>
      </trkpt>
      <trkpt lat="47.78706" lon="-2.43872">
        <ele>33.7</ele>
        <time>2025-02-11T07:36:14Z</time>
      </trkpt>
      <trkpt lat="47.78707" lon="-2.43873">
        <ele>33.6</ele>
        <time>2025-02-11T07:36:15Z</time>
      </trkpt>
      <trkpt lat="47.78708" lon="-2.43873">
        <ele>33.6</ele>
        <time>2025-02-11T07:36:16Z</time>
      </trkpt>
      <trkpt lat="47.78709" lon="-2.43873">
        <ele>33.5</ele>
        <time>2025-02-11T07:36:17Z</time>
      </trkpt>
      <trkpt lat="47.78711" lon="-2.43874">
        <ele>33.4</ele>
        <time>2025-02-11T07:36:18Z</time>
      </trkpt>
      <trkpt lat="47.78711" lon="-2.43876">
        <ele>33.4</ele>
        <time>2025-02-11T07:36:19Z</time>
      </trkpt>
      <trkpt lat="47.78712" lon="-2.43876">
        <ele>33.3</ele>
        <time>2025-02-11T07:36:20Z</time>
      </trkpt>
      <trkpt lat="47.78713" lon="-2.43877">
        <ele>33.3</ele>
        <time>2025-02-11T07:36:21Z</time>
      </trkpt>
      <trkpt lat="47.78714" lon="-2.43878">
        <ele>33.2</ele>
        <time>2025-02-11T07:36:22Z</time>
      </trkpt>
      <trkpt lat="47.78715" lon="-2.43879">
        <ele>33.1</ele>
        <time>2025-02-11T07:36:23Z</time>
      </trkpt>
      <trkpt lat="47.78716" lon="-2.43878">
        <ele>33.1</ele>
        <time>2025-02-11T07:36:24Z</time>
      </trkpt>
      <trkpt lat="47.78717" lon="-2.43878">
        <ele>33</ele>
        <time>2025-02-11T07:36:25Z</time>
      </trkpt>
      <trkpt lat="47.78718" lon="-2.43879">
        <ele>32.9</ele>
        <time>2025-02-11T07:36:26Z</time>
      </trkpt>
      <trkpt lat="47.78719" lon="-2.4388">
        <ele>32.8</ele>
        <time>2025-02-11T07:36:27Z</time>
      </trkpt>
      <trkpt lat="47.7872" lon="-2.43881">
        <ele>32.7</ele>
        <time>2025-02-11T07:36:28Z</time>
      </trkpt>
      <trkpt lat="47.78721" lon="-2.43883">
        <ele>32.5</ele>
        <time>2025-02-11T07:36:29Z</time>
      </trkpt>
      <trkpt lat="47.78722" lon="-2.43884">
        <ele>32.3</ele>
        <time>2025-02-11T07:36:30Z</time>
      </trkpt>
      <trkpt lat="47.78724" lon="-2.43886">
        <ele>32.2</ele>
        <time>2025-02-11T07:36:31Z</time>
      </trkpt>
      <trkpt lat="47.78725" lon="-2.43887">
        <ele>32</ele>
        <time>2025-02-11T07:36:32Z</time>
      </trkpt>
      <trkpt lat="47.78726" lon="-2.43889">
        <ele>31.9</ele>
        <time>2025-02-11T07:36:33Z</time>
      </trkpt>
      <trkpt lat="47.78726" lon="-2.4389">
        <ele>31.9</ele>
        <time>2025-02-11T07:36:34Z</time>
      </trkpt>
      <trkpt lat="47.78727" lon="-2.43891">
        <ele>31.8</ele>
        <time>2025-02-11T07:36:35Z</time>
      </trkpt>
      <trkpt lat="47.78728" lon="-2.43892">
        <ele>31.8</ele>
        <time>2025-02-11T07:36:36Z</time>
      </trkpt>
      <trkpt lat="47.78728" lon="-2.43893">
        <ele>31.7</ele>
        <time>2025-02-11T07:36:37Z</time>
      </trkpt>
      <trkpt lat="47.7873" lon="-2.43894">
        <ele>31.7</ele>
        <time>2025-02-11T07:36:38Z</time>
      </trkpt>
      <trkpt lat="47.78731" lon="-2.43895">
        <ele>31.6</ele>
        <time>2025-02-11T07:36:39Z</time>
      </trkpt>
      <trkpt lat="47.78733" lon="-2.43896">
        <ele>31.5</ele>
        <time>2025-02-11T07:36:40Z</time>
      </trkpt>
      <trkpt lat="47.78734" lon="-2.43897">
        <ele>31.5</ele>
        <time>2025-02-11T07:36:41Z</time>
      </trkpt>
      <trkpt lat="47.78734" lon="-2.43899">
        <ele>31.4</ele>
        <time>2025-02-11T07:36:42Z</time>
      </trkpt>
      <trkpt lat="47.78735" lon="-2.439">
        <ele>31.4</ele>
        <time>2025-02-11T07:36:43Z</time>
      </trkpt>
      <trkpt lat="47.78736" lon="-2.43901">
        <ele>31.3</ele>
        <time>2025-02-11T07:36:44Z</time>
      </trkpt>
      <trkpt lat="47.78737" lon="-2.43902">
        <ele>31.2</ele>
        <time>2025-02-11T07:36:45Z</time>
      </trkpt>
      <trkpt lat="47.78738" lon="-2.43903">
        <ele>31.2</ele>
        <time>2025-02-11T07:36:46Z</time>
      </trkpt>
      <trkpt lat="47.78739" lon="-2.43904">
        <ele>31.1</ele>
        <time>2025-02-11T07:36:47Z</time>
      </trkpt>
      <trkpt lat="47.7874" lon="-2.43905">
        <ele>31</ele>
        <time>2025-02-11T07:36:48Z</time>
      </trkpt>
      <trkpt lat="47.78742" lon="-2.43905">
        <ele>30.9</ele>
        <time>2025-02-11T07:36:49Z</time>
      </trkpt>
      <trkpt lat="47.78743" lon="-2.43905">
        <ele>30.8</ele>
        <time>2025-02-11T07:36:50Z</time>
      </trkpt>
      <trkpt lat="47.78744" lon="-2.43906">
        <ele>30.7</ele>
        <time>2025-02-11T07:36:51Z</time>
      </trkpt>
      <trkpt lat="47.78746" lon="-2.43906">
        <ele>30.6</ele>
        <time>2025-02-11T07:36:52Z</time>
      </trkpt>
      <trkpt lat="47.78747" lon="-2.43906">
        <ele>30.6</ele>
        <time>2025-02-11T07:36:53Z</time>
      </trkpt>
      <trkpt lat="47.78748" lon="-2.43907">
        <ele>30.5</ele>
        <time>2025-02-11T07:36:54Z</time>
      </trkpt>
      <trkpt lat="47.78749" lon="-2.43908">
        <ele>30.4</ele>
        <time>2025-02-11T07:36:55Z</time>
      </trkpt>
      <trkpt lat="47.7875" lon="-2.43908">
        <ele>30.3</ele>
        <time>2025-02-11T07:36:56Z</time>
      </trkpt>
      <trkpt lat="47.78752" lon="-2.43909">
        <ele>30.2</ele>
        <time>2025-02-11T07:36:57Z</time>
      </trkpt>
      <trkpt lat="47.78753" lon="-2.43911">
        <ele>30.1</ele>
        <time>2025-02-11T07:36:58Z</time>
      </trkpt>
      <trkpt lat="47.78754" lon="-2.43912">
        <ele>30</ele>
        <time>2025-02-11T07:36:59Z</time>
      </trkpt>
      <trkpt lat="47.78756" lon="-2.43913">
        <ele>29.9</ele>
        <time>2025-02-11T07:37:00Z</time>
      </trkpt>
      <trkpt lat="47.78757" lon="-2.43914">
        <ele>29.8</ele>
        <time>2025-02-11T07:37:01Z</time>
      </trkpt>
      <trkpt lat="47.78759" lon="-2.43915">
        <ele>29.7</ele>
        <time>2025-02-11T07:37:02Z</time>
      </trkpt>
      <trkpt lat="47.7876" lon="-2.43916">
        <ele>29.7</ele>
        <time>2025-02-11T07:37:03Z</time>
      </trkpt>
      <trkpt lat="47.78762" lon="-2.43916">
        <ele>29.6</ele>
        <time>2025-02-11T07:37:04Z</time>
      </trkpt>
      <trkpt lat="47.78763" lon="-2.43917">
        <ele>29.5</ele>
        <time>2025-02-11T07:37:05Z</time>
      </trkpt>
      <trkpt lat="47.78763" lon="-2.43919">
        <ele>29.4</ele>
        <time>2025-02-11T07:37:06Z</time>
      </trkpt>
      <trkpt lat="47.78764" lon="-2.4392">
        <ele>29.4</ele>
        <time>2025-02-11T07:37:07Z</time>
      </trkpt>
      <trkpt lat="47.78765" lon="-2.43921">
        <ele>29.3</ele>
        <time>2025-02-11T07:37:08Z</time>
      </trkpt>
      <trkpt lat="47.78766" lon="-2.43923">
        <ele>29.2</ele>
        <time>2025-02-11T07:37:09Z</time>
      </trkpt>
      <trkpt lat="47.78767" lon="-2.43924">
        <ele>29.1</ele>
        <time>2025-02-11T07:37:10Z</time>
      </trkpt>
      <trkpt lat="47.78768" lon="-2.43925">
        <ele>29.1</ele>
        <time>2025-02-11T07:37:11Z</time>
      </trkpt>
      <trkpt lat="47.78768" lon="-2.43926">
        <ele>29</ele>
        <time>2025-02-11T07:37:12Z</time>
      </trkpt>
      <trkpt lat="47.78769" lon="-2.43928">
        <ele>28.9</ele>
        <time>2025-02-11T07:37:13Z</time>
      </trkpt>
      <trkpt lat="47.7877" lon="-2.43929">
        <ele>28.8</ele>
        <time>2025-02-11T07:37:14Z</time>
      </trkpt>
      <trkpt lat="47.78771" lon="-2.43931">
        <ele>28.7</ele>
        <time>2025-02-11T07:37:15Z</time>
      </trkpt>
      <trkpt lat="47.78772" lon="-2.43933">
        <ele>28.6</ele>
        <time>2025-02-11T07:37:16Z</time>
      </trkpt>
      <trkpt lat="47.78773" lon="-2.43935">
        <ele>28.5</ele>
        <time>2025-02-11T07:37:17Z</time>
      </trkpt>
      <trkpt lat="47.78774" lon="-2.43936">
        <ele>28.5</ele>
        <time>2025-02-11T07:37:18Z</time>
      </trkpt>
      <trkpt lat="47.78775" lon="-2.43938">
        <ele>28.4</ele>
        <time>2025-02-11T07:37:19Z</time>
      </trkpt>
      <trkpt lat="47.78775" lon="-2.43939">
        <ele>28.3</ele>
        <time>2025-02-11T07:37:20Z</time>
      </trkpt>
      <trkpt lat="47.78776" lon="-2.43941">
        <ele>28.2</ele>
        <time>2025-02-11T07:37:21Z</time>
      </trkpt>
      <trkpt lat="47.78777" lon="-2.43943">
        <ele>28.1</ele>
        <time>2025-02-11T07:37:22Z</time>
      </trkpt>
      <trkpt lat="47.78778" lon="-2.43944">
        <ele>28</ele>
        <time>2025-02-11T07:37:23Z</time>
      </trkpt>
      <trkpt lat="47.78779" lon="-2.43945">
        <ele>27.9</ele>
        <time>2025-02-11T07:37:24Z</time>
      </trkpt>
      <trkpt lat="47.7878" lon="-2.43946">
        <ele>27.8</ele>
        <time>2025-02-11T07:37:25Z</time>
      </trkpt>
      <trkpt lat="47.78781" lon="-2.43947">
        <ele>27.8</ele>
        <time>2025-02-11T07:37:26Z</time>
      </trkpt>
      <trkpt lat="47.78782" lon="-2.43948">
        <ele>27.7</ele>
        <time>2025-02-11T07:37:27Z</time>
      </trkpt>
      <trkpt lat="47.78783" lon="-2.43948">
        <ele>27.7</ele>
        <time>2025-02-11T07:37:28Z</time>
      </trkpt>
      <trkpt lat="47.78785" lon="-2.4395">
        <ele>27.6</ele>
        <time>2025-02-11T07:37:29Z</time>
      </trkpt>
      <trkpt lat="47.78785" lon="-2.43951">
        <ele>27.6</ele>
        <time>2025-02-11T07:37:30Z</time>
      </trkpt>
      <trkpt lat="47.78786" lon="-2.43952">
        <ele>27.6</ele>
        <time>2025-02-11T07:37:31Z</time>
      </trkpt>
      <trkpt lat="47.78787" lon="-2.43953">
        <ele>27.5</ele>
        <time>2025-02-11T07:37:32Z</time>
      </trkpt>
      <trkpt lat="47.78788" lon="-2.43954">
        <ele>27.5</ele>
        <time>2025-02-11T07:37:33Z</time>
      </trkpt>
      <trkpt lat="47.78788" lon="-2.43955">
        <ele>27.5</ele>
        <time>2025-02-11T07:37:34Z</time>
      </trkpt>
      <trkpt lat="47.78789" lon="-2.43956">
        <ele>27.5</ele>
        <time>2025-02-11T07:37:35Z</time>
      </trkpt>
      <trkpt lat="47.7879" lon="-2.43957">
        <ele>27.5</ele>
        <time>2025-02-11T07:37:36Z</time>
      </trkpt>
      <trkpt lat="47.78791" lon="-2.43959">
        <ele>27.5</ele>
        <time>2025-02-11T07:37:37Z</time>
      </trkpt>
      <trkpt lat="47.78792" lon="-2.4396">
        <ele>27.5</ele>
        <time>2025-02-11T07:37:38Z</time>
      </trkpt>
      <trkpt lat="47.78793" lon="-2.43961">
        <ele>27.5</ele>
        <time>2025-02-11T07:37:39Z</time>
      </trkpt>
      <trkpt lat="47.78794" lon="-2.43962">
        <ele>27.6</ele>
        <time>2025-02-11T07:37:40Z</time>
      </trkpt>
      <trkpt lat="47.78794" lon="-2.43964">
        <ele>27.6</ele>
        <time>2025-02-11T07:37:41Z</time>
      </trkpt>
      <trkpt lat="47.78795" lon="-2.43964">
        <ele>27.6</ele>
        <time>2025-02-11T07:37:42Z</time>
      </trkpt>
      <trkpt lat="47.78795" lon="-2.43965">
        <ele>27.7</ele>
        <time>2025-02-11T07:37:43Z</time>
      </trkpt>
      <trkpt lat="47.78796" lon="-2.43967">
        <ele>27.8</ele>
        <time>2025-02-11T07:37:44Z</time>
      </trkpt>
      <trkpt lat="47.78796" lon="-2.43969">
        <ele>27.8</ele>
        <time>2025-02-11T07:37:45Z</time>
      </trkpt>
      <trkpt lat="47.78797" lon="-2.43971">
        <ele>27.9</ele>
        <time>2025-02-11T07:37:46Z</time>
      </trkpt>
      <trkpt lat="47.78798" lon="-2.43972">
        <ele>28</ele>
        <time>2025-02-11T07:37:47Z</time>
      </trkpt>
      <trkpt lat="47.78799" lon="-2.43973">
        <ele>28</ele>
        <time>2025-02-11T07:37:48Z</time>
      </trkpt>
      <trkpt lat="47.788" lon="-2.43975">
        <ele>28</ele>
        <time>2025-02-11T07:37:49Z</time>
      </trkpt>
      <trkpt lat="47.78801" lon="-2.43976">
        <ele>28</ele>
        <time>2025-02-11T07:37:50Z</time>
      </trkpt>
      <trkpt lat="47.78802" lon="-2.43978">
        <ele>28</ele>
        <time>2025-02-11T07:37:51Z</time>
      </trkpt>
      <trkpt lat="47.78803" lon="-2.43978">
        <ele>28</ele>
        <time>2025-02-11T07:37:52Z</time>
      </trkpt>
      <trkpt lat="47.78804" lon="-2.43979">
        <ele>28</ele>
        <time>2025-02-11T07:37:53Z</time>
      </trkpt>
      <trkpt lat="47.78805" lon="-2.4398">
        <ele>28</ele>
        <time>2025-02-11T07:37:54Z</time>
      </trkpt>
      <trkpt lat="47.78806" lon="-2.43981">
        <ele>28</ele>
        <time>2025-02-11T07:37:55Z</time>
      </trkpt>
      <trkpt lat="47.78808" lon="-2.43981">
        <ele>28</ele>
        <time>2025-02-11T07:37:56Z</time>
      </trkpt>
      <trkpt lat="47.78808" lon="-2.43983">
        <ele>27.9</ele>
        <time>2025-02-11T07:37:57Z</time>
      </trkpt>
      <trkpt lat="47.7881" lon="-2.43984">
        <ele>27.9</ele>
        <time>2025-02-11T07:37:58Z</time>
      </trkpt>
      <trkpt lat="47.7881" lon="-2.43985">
        <ele>27.9</ele>
        <time>2025-02-11T07:37:59Z</time>
      </trkpt>
      <trkpt lat="47.78811" lon="-2.43987">
        <ele>27.9</ele>
        <time>2025-02-11T07:38:00Z</time>
      </trkpt>
      <trkpt lat="47.78812" lon="-2.43988">
        <ele>27.9</ele>
        <time>2025-02-11T07:38:01Z</time>
      </trkpt>
      <trkpt lat="47.78812" lon="-2.43989">
        <ele>27.9</ele>
        <time>2025-02-11T07:38:02Z</time>
      </trkpt>
      <trkpt lat="47.78813" lon="-2.43991">
        <ele>27.9</ele>
        <time>2025-02-11T07:38:03Z</time>
      </trkpt>
      <trkpt lat="47.78814" lon="-2.43992">
        <ele>27.9</ele>
        <time>2025-02-11T07:38:04Z</time>
      </trkpt>
      <trkpt lat="47.78815" lon="-2.43994">
        <ele>27.9</ele>
        <time>2025-02-11T07:38:05Z</time>
      </trkpt>
      <trkpt lat="47.78816" lon="-2.43995">
        <ele>27.9</ele>
        <time>2025-02-11T07:38:06Z</time>
      </trkpt>
      <trkpt lat="47.78817" lon="-2.43997">
        <ele>28</ele>
        <time>2025-02-11T07:38:07Z</time>
      </trkpt>
      <trkpt lat="47.78818" lon="-2.43999">
        <ele>28</ele>
        <time>2025-02-11T07:38:08Z</time>
      </trkpt>
      <trkpt lat="47.78818" lon="-2.44001">
        <ele>28</ele>
        <time>2025-02-11T07:38:09Z</time>
      </trkpt>
      <trkpt lat="47.78819" lon="-2.44002">
        <ele>28.1</ele>
        <time>2025-02-11T07:38:10Z</time>
      </trkpt>
      <trkpt lat="47.7882" lon="-2.44003">
        <ele>28.1</ele>
        <time>2025-02-11T07:38:11Z</time>
      </trkpt>
      <trkpt lat="47.78821" lon="-2.44005">
        <ele>28.2</ele>
        <time>2025-02-11T07:38:12Z</time>
      </trkpt>
      <trkpt lat="47.78821" lon="-2.44006">
        <ele>28.2</ele>
        <time>2025-02-11T07:38:13Z</time>
      </trkpt>
      <trkpt lat="47.78822" lon="-2.44008">
        <ele>28.3</ele>
        <time>2025-02-11T07:38:14Z</time>
      </trkpt>
      <trkpt lat="47.78822" lon="-2.4401">
        <ele>28.3</ele>
        <time>2025-02-11T07:38:15Z</time>
      </trkpt>
      <trkpt lat="47.78823" lon="-2.44011">
        <ele>28.4</ele>
        <time>2025-02-11T07:38:16Z</time>
      </trkpt>
      <trkpt lat="47.78823" lon="-2.44013">
        <ele>28.5</ele>
        <time>2025-02-11T07:38:17Z</time>
      </trkpt>
      <trkpt lat="47.78824" lon="-2.44015">
        <ele>28.6</ele>
        <time>2025-02-11T07:38:18Z</time>
      </trkpt>
      <trkpt lat="47.78824" lon="-2.44017">
        <ele>28.6</ele>
        <time>2025-02-11T07:38:19Z</time>
      </trkpt>
      <trkpt lat="47.78824" lon="-2.44019">
        <ele>28.7</ele>
        <time>2025-02-11T07:38:20Z</time>
      </trkpt>
      <trkpt lat="47.78825" lon="-2.44021">
        <ele>28.8</ele>
        <time>2025-02-11T07:38:21Z</time>
      </trkpt>
      <trkpt lat="47.78825" lon="-2.44023">
        <ele>28.8</ele>
        <time>2025-02-11T07:38:22Z</time>
      </trkpt>
      <trkpt lat="47.78825" lon="-2.44025">
        <ele>28.9</ele>
        <time>2025-02-11T07:38:23Z</time>
      </trkpt>
      <trkpt lat="47.78825" lon="-2.44028">
        <ele>29</ele>
        <time>2025-02-11T07:38:24Z</time>
      </trkpt>
      <trkpt lat="47.78826" lon="-2.4403">
        <ele>29.1</ele>
        <time>2025-02-11T07:38:25Z</time>
      </trkpt>
      <trkpt lat="47.78826" lon="-2.44032">
        <ele>29.1</ele>
        <time>2025-02-11T07:38:26Z</time>
      </trkpt>
      <trkpt lat="47.78826" lon="-2.44034">
        <ele>29.2</ele>
        <time>2025-02-11T07:38:27Z</time>
      </trkpt>
      <trkpt lat="47.78827" lon="-2.44036">
        <ele>29.3</ele>
        <time>2025-02-11T07:38:28Z</time>
      </trkpt>
      <trkpt lat="47.78827" lon="-2.44037">
        <ele>29.3</ele>
        <time>2025-02-11T07:38:29Z</time>
      </trkpt>
      <trkpt lat="47.78827" lon="-2.44039">
        <ele>29.4</ele>
        <time>2025-02-11T07:38:30Z</time>
      </trkpt>
      <trkpt lat="47.78827" lon="-2.44041">
        <ele>29.5</ele>
        <time>2025-02-11T07:38:31Z</time>
      </trkpt>
      <trkpt lat="47.78827" lon="-2.44043">
        <ele>29.6</ele>
        <time>2025-02-11T07:38:32Z</time>
      </trkpt>
      <trkpt lat="47.78827" lon="-2.44045">
        <ele>29.6</ele>
        <time>2025-02-11T07:38:33Z</time>
      </trkpt>
      <trkpt lat="47.78827" lon="-2.44047">
        <ele>29.7</ele>
        <time>2025-02-11T07:38:34Z</time>
      </trkpt>
      <trkpt lat="47.78827" lon="-2.44048">
        <ele>29.7</ele>
        <time>2025-02-11T07:38:35Z</time>
      </trkpt>
      <trkpt lat="47.78827" lon="-2.4405">
        <ele>29.8</ele>
        <time>2025-02-11T07:38:36Z</time>
      </trkpt>
      <trkpt lat="47.78828" lon="-2.44052">
        <ele>29.9</ele>
        <time>2025-02-11T07:38:37Z</time>
      </trkpt>
      <trkpt lat="47.78828" lon="-2.44054">
        <ele>29.9</ele>
        <time>2025-02-11T07:38:38Z</time>
      </trkpt>
      <trkpt lat="47.78828" lon="-2.44056">
        <ele>30</ele>
        <time>2025-02-11T07:38:39Z</time>
      </trkpt>
      <trkpt lat="47.78827" lon="-2.44057">
        <ele>29.9</ele>
        <time>2025-02-11T07:38:40Z</time>
      </trkpt>
      <trkpt lat="47.78827" lon="-2.44059">
        <ele>29.8</ele>
        <time>2025-02-11T07:38:41Z</time>
      </trkpt>
      <trkpt lat="47.78828" lon="-2.44061">
        <ele>29.7</ele>
        <time>2025-02-11T07:38:42Z</time>
      </trkpt>
      <trkpt lat="47.78828" lon="-2.44063">
        <ele>29.6</ele>
        <time>2025-02-11T07:38:43Z</time>
      </trkpt>
      <trkpt lat="47.78828" lon="-2.44065">
        <ele>29.5</ele>
        <time>2025-02-11T07:38:44Z</time>
      </trkpt>
      <trkpt lat="47.78829" lon="-2.44067">
        <ele>29.4</ele>
        <time>2025-02-11T07:38:45Z</time>
      </trkpt>
      <trkpt lat="47.78829" lon="-2.44069">
        <ele>29.3</ele>
        <time>2025-02-11T07:38:46Z</time>
      </trkpt>
      <trkpt lat="47.78829" lon="-2.44071">
        <ele>29.2</ele>
        <time>2025-02-11T07:38:47Z</time>
      </trkpt>
      <trkpt lat="47.78829" lon="-2.44073">
        <ele>29.1</ele>
        <time>2025-02-11T07:38:48Z</time>
      </trkpt>
      <trkpt lat="47.78829" lon="-2.44074">
        <ele>29</ele>
        <time>2025-02-11T07:38:49Z</time>
      </trkpt>
      <trkpt lat="47.7883" lon="-2.44076">
        <ele>28.8</ele>
        <time>2025-02-11T07:38:50Z</time>
      </trkpt>
      <trkpt lat="47.7883" lon="-2.44077">
        <ele>28.7</ele>
        <time>2025-02-11T07:38:51Z</time>
      </trkpt>
      <trkpt lat="47.78831" lon="-2.44079">
        <ele>28.6</ele>
        <time>2025-02-11T07:38:52Z</time>
      </trkpt>
      <trkpt lat="47.78831" lon="-2.44081">
        <ele>28.4</ele>
        <time>2025-02-11T07:38:53Z</time>
      </trkpt>
      <trkpt lat="47.78831" lon="-2.44083">
        <ele>28.3</ele>
        <time>2025-02-11T07:38:54Z</time>
      </trkpt>
      <trkpt lat="47.78831" lon="-2.44085">
        <ele>28.2</ele>
        <time>2025-02-11T07:38:55Z</time>
      </trkpt>
      <trkpt lat="47.78831" lon="-2.44087">
        <ele>28.2</ele>
        <time>2025-02-11T07:38:56Z</time>
      </trkpt>
      <trkpt lat="47.78831" lon="-2.44089">
        <ele>28.1</ele>
        <time>2025-02-11T07:38:57Z</time>
      </trkpt>
      <trkpt lat="47.78831" lon="-2.44091">
        <ele>28</ele>
        <time>2025-02-11T07:38:58Z</time>
      </trkpt>
      <trkpt lat="47.78831" lon="-2.44093">
        <ele>28</ele>
        <time>2025-02-11T07:38:59Z</time>
      </trkpt>
      <trkpt lat="47.78831" lon="-2.44094">
        <ele>27.9</ele>
        <time>2025-02-11T07:39:00Z</time>
      </trkpt>
      <trkpt lat="47.78831" lon="-2.44096">
        <ele>27.8</ele>
        <time>2025-02-11T07:39:01Z</time>
      </trkpt>
      <trkpt lat="47.78831" lon="-2.44098">
        <ele>27.8</ele>
        <time>2025-02-11T07:39:02Z</time>
      </trkpt>
      <trkpt lat="47.78831" lon="-2.44099">
        <ele>27.7</ele>
        <time>2025-02-11T07:39:03Z</time>
      </trkpt>
      <trkpt lat="47.78831" lon="-2.44101">
        <ele>27.6</ele>
        <time>2025-02-11T07:39:04Z</time>
      </trkpt>
      <trkpt lat="47.78831" lon="-2.44103">
        <ele>27.6</ele>
        <time>2025-02-11T07:39:05Z</time>
      </trkpt>
      <trkpt lat="47.78831" lon="-2.44105">
        <ele>27.5</ele>
        <time>2025-02-11T07:39:06Z</time>
      </trkpt>
      <trkpt lat="47.78831" lon="-2.44107">
        <ele>27.5</ele>
        <time>2025-02-11T07:39:07Z</time>
      </trkpt>
      <trkpt lat="47.78831" lon="-2.44108">
        <ele>27.4</ele>
        <time>2025-02-11T07:39:08Z</time>
      </trkpt>
      <trkpt lat="47.78831" lon="-2.4411">
        <ele>27.3</ele>
        <time>2025-02-11T07:39:09Z</time>
      </trkpt>
      <trkpt lat="47.78831" lon="-2.44112">
        <ele>27.3</ele>
        <time>2025-02-11T07:39:10Z</time>
      </trkpt>
      <trkpt lat="47.78831" lon="-2.44114">
        <ele>27.2</ele>
        <time>2025-02-11T07:39:11Z</time>
      </trkpt>
      <trkpt lat="47.78831" lon="-2.44116">
        <ele>27.1</ele>
        <time>2025-02-11T07:39:12Z</time>
      </trkpt>
      <trkpt lat="47.78831" lon="-2.44118">
        <ele>27</ele>
        <time>2025-02-11T07:39:13Z</time>
      </trkpt>
      <trkpt lat="47.78831" lon="-2.4412">
        <ele>27</ele>
        <time>2025-02-11T07:39:14Z</time>
      </trkpt>
      <trkpt lat="47.78831" lon="-2.44122">
        <ele>26.9</ele>
        <time>2025-02-11T07:39:15Z</time>
      </trkpt>
      <trkpt lat="47.78831" lon="-2.44124">
        <ele>26.9</ele>
        <time>2025-02-11T07:39:16Z</time>
      </trkpt>
      <trkpt lat="47.78831" lon="-2.44126">
        <ele>26.8</ele>
        <time>2025-02-11T07:39:17Z</time>
      </trkpt>
      <trkpt lat="47.78831" lon="-2.44127">
        <ele>26.7</ele>
        <time>2025-02-11T07:39:18Z</time>
      </trkpt>
      <trkpt lat="47.78831" lon="-2.44129">
        <ele>26.6</ele>
        <time>2025-02-11T07:39:19Z</time>
      </trkpt>
      <trkpt lat="47.78831" lon="-2.44131">
        <ele>26.5</ele>
        <time>2025-02-11T07:39:20Z</time>
      </trkpt>
      <trkpt lat="47.78831" lon="-2.44133">
        <ele>26.4</ele>
        <time>2025-02-11T07:39:21Z</time>
      </trkpt>
      <trkpt lat="47.78831" lon="-2.44135">
        <ele>26.4</ele>
        <time>2025-02-11T07:39:22Z</time>
      </trkpt>
      <trkpt lat="47.78832" lon="-2.44137">
        <ele>26.3</ele>
        <time>2025-02-11T07:39:23Z</time>
      </trkpt>
      <trkpt lat="47.78832" lon="-2.44139">
        <ele>26.2</ele>
        <time>2025-02-11T07:39:24Z</time>
      </trkpt>
      <trkpt lat="47.78832" lon="-2.44141">
        <ele>26</ele>
        <time>2025-02-11T07:39:25Z</time>
      </trkpt>
      <trkpt lat="47.78832" lon="-2.44142">
        <ele>25.9</ele>
        <time>2025-02-11T07:39:26Z</time>
      </trkpt>
      <trkpt lat="47.78833" lon="-2.44144">
        <ele>25.7</ele>
        <time>2025-02-11T07:39:27Z</time>
      </trkpt>
      <trkpt lat="47.78833" lon="-2.44146">
        <ele>25.5</ele>
        <time>2025-02-11T07:39:28Z</time>
      </trkpt>
      <trkpt lat="47.78833" lon="-2.44148">
        <ele>25.4</ele>
        <time>2025-02-11T07:39:29Z</time>
      </trkpt>
      <trkpt lat="47.78834" lon="-2.4415">
        <ele>25.2</ele>
        <time>2025-02-11T07:39:30Z</time>
      </trkpt>
      <trkpt lat="47.78834" lon="-2.44152">
        <ele>25.1</ele>
        <time>2025-02-11T07:39:31Z</time>
      </trkpt>
      <trkpt lat="47.78834" lon="-2.44154">
        <ele>24.9</ele>
        <time>2025-02-11T07:39:32Z</time>
      </trkpt>
      <trkpt lat="47.78834" lon="-2.44156">
        <ele>24.8</ele>
        <time>2025-02-11T07:39:33Z</time>
      </trkpt>
      <trkpt lat="47.78834" lon="-2.44158">
        <ele>24.6</ele>
        <time>2025-02-11T07:39:34Z</time>
      </trkpt>
      <trkpt lat="47.78833" lon="-2.4416">
        <ele>24.5</ele>
        <time>2025-02-11T07:39:35Z</time>
      </trkpt>
      <trkpt lat="47.78833" lon="-2.44162">
        <ele>24.3</ele>
        <time>2025-02-11T07:39:36Z</time>
      </trkpt>
      <trkpt lat="47.78833" lon="-2.44164">
        <ele>24.2</ele>
        <time>2025-02-11T07:39:37Z</time>
      </trkpt>
      <trkpt lat="47.78833" lon="-2.44166">
        <ele>24</ele>
        <time>2025-02-11T07:39:38Z</time>
      </trkpt>
      <trkpt lat="47.78833" lon="-2.44168">
        <ele>23.9</ele>
        <time>2025-02-11T07:39:39Z</time>
      </trkpt>
      <trkpt lat="47.78834" lon="-2.44171">
        <ele>23.8</ele>
        <time>2025-02-11T07:39:40Z</time>
      </trkpt>
      <trkpt lat="47.78834" lon="-2.44173">
        <ele>23.7</ele>
        <time>2025-02-11T07:39:41Z</time>
      </trkpt>
      <trkpt lat="47.78834" lon="-2.44175">
        <ele>23.7</ele>
        <time>2025-02-11T07:39:42Z</time>
      </trkpt>
      <trkpt lat="47.78834" lon="-2.44177">
        <ele>23.6</ele>
        <time>2025-02-11T07:39:43Z</time>
      </trkpt>
      <trkpt lat="47.78834" lon="-2.44179">
        <ele>23.5</ele>
        <time>2025-02-11T07:39:44Z</time>
      </trkpt>
      <trkpt lat="47.78835" lon="-2.44181">
        <ele>23.4</ele>
        <time>2025-02-11T07:39:45Z</time>
      </trkpt>
      <trkpt lat="47.78835" lon="-2.44182">
        <ele>23.3</ele>
        <time>2025-02-11T07:39:46Z</time>
      </trkpt>
      <trkpt lat="47.78835" lon="-2.44184">
        <ele>23.2</ele>
        <time>2025-02-11T07:39:47Z</time>
      </trkpt>
      <trkpt lat="47.78836" lon="-2.44185">
        <ele>23.1</ele>
        <time>2025-02-11T07:39:48Z</time>
      </trkpt>
      <trkpt lat="47.78836" lon="-2.44188">
        <ele>23</ele>
        <time>2025-02-11T07:39:49Z</time>
      </trkpt>
      <trkpt lat="47.78838" lon="-2.44188">
        <ele>22.9</ele>
        <time>2025-02-11T07:39:50Z</time>
      </trkpt>
      <trkpt lat="47.78839" lon="-2.44188">
        <ele>22.7</ele>
        <time>2025-02-11T07:39:51Z</time>
      </trkpt>
      <trkpt lat="47.78841" lon="-2.44188">
        <ele>22.5</ele>
        <time>2025-02-11T07:39:52Z</time>
      </trkpt>
      <trkpt lat="47.78842" lon="-2.44189">
        <ele>22.4</ele>
        <time>2025-02-11T07:39:53Z</time>
      </trkpt>
      <trkpt lat="47.78844" lon="-2.44188">
        <ele>22.3</ele>
        <time>2025-02-11T07:39:54Z</time>
      </trkpt>
      <trkpt lat="47.78845" lon="-2.44188">
        <ele>22.1</ele>
        <time>2025-02-11T07:39:55Z</time>
      </trkpt>
      <trkpt lat="47.78846" lon="-2.44188">
        <ele>22.1</ele>
        <time>2025-02-11T07:39:56Z</time>
      </trkpt>
      <trkpt lat="47.78848" lon="-2.44188">
        <ele>21.9</ele>
        <time>2025-02-11T07:39:57Z</time>
      </trkpt>
      <trkpt lat="47.78849" lon="-2.44188">
        <ele>21.8</ele>
        <time>2025-02-11T07:39:58Z</time>
      </trkpt>
      <trkpt lat="47.7885" lon="-2.44188">
        <ele>21.7</ele>
        <time>2025-02-11T07:39:59Z</time>
      </trkpt>
      <trkpt lat="47.78852" lon="-2.44188">
        <ele>21.6</ele>
        <time>2025-02-11T07:40:00Z</time>
      </trkpt>
      <trkpt lat="47.78853" lon="-2.44187">
        <ele>21.5</ele>
        <time>2025-02-11T07:40:01Z</time>
      </trkpt>
      <trkpt lat="47.78854" lon="-2.44186">
        <ele>21.5</ele>
        <time>2025-02-11T07:40:02Z</time>
      </trkpt>
      <trkpt lat="47.78855" lon="-2.44186">
        <ele>21.4</ele>
        <time>2025-02-11T07:40:03Z</time>
      </trkpt>
      <trkpt lat="47.78856" lon="-2.44185">
        <ele>21.4</ele>
        <time>2025-02-11T07:40:04Z</time>
      </trkpt>
      <trkpt lat="47.78858" lon="-2.44185">
        <ele>21.3</ele>
        <time>2025-02-11T07:40:05Z</time>
      </trkpt>
      <trkpt lat="47.78859" lon="-2.44185">
        <ele>21.2</ele>
        <time>2025-02-11T07:40:06Z</time>
      </trkpt>
      <trkpt lat="47.7886" lon="-2.44185">
        <ele>21.1</ele>
        <time>2025-02-11T07:40:07Z</time>
      </trkpt>
      <trkpt lat="47.78862" lon="-2.44184">
        <ele>21.1</ele>
        <time>2025-02-11T07:40:08Z</time>
      </trkpt>
      <trkpt lat="47.78863" lon="-2.44184">
        <ele>21.2</ele>
        <time>2025-02-11T07:40:09Z</time>
      </trkpt>
      <trkpt lat="47.78864" lon="-2.44183">
        <ele>21.3</ele>
        <time>2025-02-11T07:40:10Z</time>
      </trkpt>
      <trkpt lat="47.78865" lon="-2.44183">
        <ele>21.3</ele>
        <time>2025-02-11T07:40:11Z</time>
      </trkpt>
      <trkpt lat="47.78867" lon="-2.44183">
        <ele>21.3</ele>
        <time>2025-02-11T07:40:12Z</time>
      </trkpt>
      <trkpt lat="47.78868" lon="-2.44183">
        <ele>21.4</ele>
        <time>2025-02-11T07:40:13Z</time>
      </trkpt>
      <trkpt lat="47.78869" lon="-2.44183">
        <ele>21.4</ele>
        <time>2025-02-11T07:40:14Z</time>
      </trkpt>
      <trkpt lat="47.7887" lon="-2.44183">
        <ele>21.4</ele>
        <time>2025-02-11T07:40:15Z</time>
      </trkpt>
      <trkpt lat="47.78871" lon="-2.44184">
        <ele>21.3</ele>
        <time>2025-02-11T07:40:16Z</time>
      </trkpt>
      <trkpt lat="47.78873" lon="-2.44184">
        <ele>21.2</ele>
        <time>2025-02-11T07:40:17Z</time>
      </trkpt>
      <trkpt lat="47.78874" lon="-2.44185">
        <ele>21.1</ele>
        <time>2025-02-11T07:40:18Z</time>
      </trkpt>
      <trkpt lat="47.78875" lon="-2.44186">
        <ele>20.9</ele>
        <time>2025-02-11T07:40:19Z</time>
      </trkpt>
      <trkpt lat="47.78876" lon="-2.44186">
        <ele>20.8</ele>
        <time>2025-02-11T07:40:20Z</time>
      </trkpt>
      <trkpt lat="47.78878" lon="-2.44187">
        <ele>20.5</ele>
        <time>2025-02-11T07:40:21Z</time>
      </trkpt>
      <trkpt lat="47.78879" lon="-2.44189">
        <ele>20.2</ele>
        <time>2025-02-11T07:40:22Z</time>
      </trkpt>
      <trkpt lat="47.7888" lon="-2.4419">
        <ele>19.9</ele>
        <time>2025-02-11T07:40:23Z</time>
      </trkpt>
      <trkpt lat="47.78881" lon="-2.44191">
        <ele>19.5</ele>
        <time>2025-02-11T07:40:24Z</time>
      </trkpt>
      <trkpt lat="47.78882" lon="-2.44192">
        <ele>19.1</ele>
        <time>2025-02-11T07:40:25Z</time>
      </trkpt>
      <trkpt lat="47.78882" lon="-2.44194">
        <ele>18.6</ele>
        <time>2025-02-11T07:40:26Z</time>
      </trkpt>
      <trkpt lat="47.78882" lon="-2.44196">
        <ele>18.4</ele>
        <time>2025-02-11T07:40:27Z</time>
      </trkpt>
      <trkpt lat="47.78882" lon="-2.44198">
        <ele>18.4</ele>
        <time>2025-02-11T07:40:28Z</time>
      </trkpt>
      <trkpt lat="47.78882" lon="-2.442">
        <ele>18.3</ele>
        <time>2025-02-11T07:40:29Z</time>
      </trkpt>
      <trkpt lat="47.78882" lon="-2.44202">
        <ele>18.3</ele>
        <time>2025-02-11T07:40:30Z</time>
      </trkpt>
      <trkpt lat="47.78881" lon="-2.44203">
        <ele>18.2</ele>
        <time>2025-02-11T07:40:31Z</time>
      </trkpt>
      <trkpt lat="47.78882" lon="-2.44205">
        <ele>18.2</ele>
        <time>2025-02-11T07:40:32Z</time>
      </trkpt>
      <trkpt lat="47.78882" lon="-2.44206">
        <ele>18.1</ele>
        <time>2025-02-11T07:40:33Z</time>
      </trkpt>
      <trkpt lat="47.78881" lon="-2.44209">
        <ele>18.1</ele>
        <time>2025-02-11T07:40:34Z</time>
      </trkpt>
      <trkpt lat="47.7888" lon="-2.4421">
        <ele>18.1</ele>
        <time>2025-02-11T07:40:35Z</time>
      </trkpt>
      <trkpt lat="47.7888" lon="-2.44212">
        <ele>18</ele>
        <time>2025-02-11T07:40:36Z</time>
      </trkpt>
      <trkpt lat="47.78879" lon="-2.44214">
        <ele>18</ele>
        <time>2025-02-11T07:40:37Z</time>
      </trkpt>
      <trkpt lat="47.78879" lon="-2.44215">
        <ele>18</ele>
        <time>2025-02-11T07:40:38Z</time>
      </trkpt>
      <trkpt lat="47.78878" lon="-2.44216">
        <ele>18</ele>
        <time>2025-02-11T07:40:39Z</time>
      </trkpt>
      <trkpt lat="47.78878" lon="-2.44218">
        <ele>17.9</ele>
        <time>2025-02-11T07:40:40Z</time>
      </trkpt>
      <trkpt lat="47.78878" lon="-2.44219">
        <ele>17.9</ele>
        <time>2025-02-11T07:40:41Z</time>
      </trkpt>
      <trkpt lat="47.78878" lon="-2.44221">
        <ele>17.8</ele>
        <time>2025-02-11T07:40:42Z</time>
      </trkpt>
      <trkpt lat="47.78879" lon="-2.44222">
        <ele>17.7</ele>
        <time>2025-02-11T07:40:43Z</time>
      </trkpt>
      <trkpt lat="47.78879" lon="-2.44224">
        <ele>17.7</ele>
        <time>2025-02-11T07:40:44Z</time>
      </trkpt>
      <trkpt lat="47.78879" lon="-2.44225">
        <ele>17.7</ele>
        <time>2025-02-11T07:40:45Z</time>
      </trkpt>
      <trkpt lat="47.78879" lon="-2.44225">
        <ele>17.7</ele>
        <time>2025-02-11T07:40:46Z</time>
      </trkpt>
      <trkpt lat="47.78879" lon="-2.44225">
        <ele>17.7</ele>
        <time>2025-02-11T07:40:47Z</time>
      </trkpt>
      <trkpt lat="47.78879" lon="-2.44225">
        <ele>17.7</ele>
        <time>2025-02-11T07:40:48Z</time>
      </trkpt>
      <trkpt lat="47.78879" lon="-2.44226">
        <ele>17.7</ele>
        <time>2025-02-11T07:40:49Z</time>
      </trkpt>
      <trkpt lat="47.78879" lon="-2.44226">
        <ele>17.8</ele>
        <time>2025-02-11T07:40:50Z</time>
      </trkpt>
      <trkpt lat="47.78879" lon="-2.44227">
        <ele>17.8</ele>
        <time>2025-02-11T07:40:51Z</time>
      </trkpt>
      <trkpt lat="47.78879" lon="-2.44227">
        <ele>17.8</ele>
        <time>2025-02-11T07:40:52Z</time>
      </trkpt>
      <trkpt lat="47.78879" lon="-2.44226">
        <ele>17.8</ele>
        <time>2025-02-11T07:40:53Z</time>
      </trkpt>
      <trkpt lat="47.78879" lon="-2.44228">
        <ele>17.8</ele>
        <time>2025-02-11T07:40:54Z</time>
      </trkpt>
      <trkpt lat="47.78879" lon="-2.44229">
        <ele>17.8</ele>
        <time>2025-02-11T07:40:55Z</time>
      </trkpt>
      <trkpt lat="47.78878" lon="-2.44231">
        <ele>17.9</ele>
        <time>2025-02-11T07:40:56Z</time>
      </trkpt>
      <trkpt lat="47.78878" lon="-2.44232">
        <ele>17.9</ele>
        <time>2025-02-11T07:40:57Z</time>
      </trkpt>
      <trkpt lat="47.78878" lon="-2.44233">
        <ele>17.9</ele>
        <time>2025-02-11T07:40:58Z</time>
      </trkpt>
      <trkpt lat="47.78878" lon="-2.44234">
        <ele>18</ele>
        <time>2025-02-11T07:40:59Z</time>
      </trkpt>
      <trkpt lat="47.78877" lon="-2.44235">
        <ele>18.1</ele>
        <time>2025-02-11T07:41:00Z</time>
      </trkpt>
      <trkpt lat="47.78876" lon="-2.44236">
        <ele>18.1</ele>
        <time>2025-02-11T07:41:01Z</time>
      </trkpt>
      <trkpt lat="47.78875" lon="-2.44235">
        <ele>18.3</ele>
        <time>2025-02-11T07:41:02Z</time>
      </trkpt>
      <trkpt lat="47.78874" lon="-2.44235">
        <ele>18.4</ele>
        <time>2025-02-11T07:41:03Z</time>
      </trkpt>
      <trkpt lat="47.78872" lon="-2.44237">
        <ele>18.5</ele>
        <time>2025-02-11T07:41:04Z</time>
      </trkpt>
      <trkpt lat="47.78872" lon="-2.44238">
        <ele>18.6</ele>
        <time>2025-02-11T07:41:05Z</time>
      </trkpt>
      <trkpt lat="47.78871" lon="-2.44235">
        <ele>18.6</ele>
        <time>2025-02-11T07:41:06Z</time>
      </trkpt>
      <trkpt lat="47.78871" lon="-2.44235">
        <ele>18.6</ele>
        <time>2025-02-11T07:41:07Z</time>
      </trkpt>
      <trkpt lat="47.78872" lon="-2.44235">
        <ele>18.5</ele>
        <time>2025-02-11T07:41:08Z</time>
      </trkpt>
      <trkpt lat="47.78871" lon="-2.44236">
        <ele>18.7</ele>
        <time>2025-02-11T07:41:09Z</time>
      </trkpt>
      <trkpt lat="47.7887" lon="-2.44236">
        <ele>18.7</ele>
        <time>2025-02-11T07:41:10Z</time>
      </trkpt>
      <trkpt lat="47.78871" lon="-2.44236">
        <ele>18.6</ele>
        <time>2025-02-11T07:41:11Z</time>
      </trkpt>
      <trkpt lat="47.78871" lon="-2.44236">
        <ele>18.6</ele>
        <time>2025-02-11T07:41:12Z</time>
      </trkpt>
      <trkpt lat="47.78871" lon="-2.44236">
        <ele>18.6</ele>
        <time>2025-02-11T07:41:13Z</time>
      </trkpt>
      <trkpt lat="47.78871" lon="-2.44236">
        <ele>18.6</ele>
        <time>2025-02-11T07:41:14Z</time>
      </trkpt>
      <trkpt lat="47.78871" lon="-2.44236">
        <ele>18.6</ele>
        <time>2025-02-11T07:41:15Z</time>
      </trkpt>
      <trkpt lat="47.78871" lon="-2.44236">
        <ele>18.6</ele>
        <time>2025-02-11T07:41:16Z</time>
      </trkpt>
      <trkpt lat="47.78871" lon="-2.44236">
        <ele>18.6</ele>
        <time>2025-02-11T07:41:17Z</time>
      </trkpt>
      <trkpt lat="47.78871" lon="-2.44236">
        <ele>18.6</ele>
        <time>2025-02-11T07:41:18Z</time>
      </trkpt>
      <trkpt lat="47.78871" lon="-2.44236">
        <ele>18.6</ele>
        <time>2025-02-11T07:41:19Z</time>
      </trkpt>
      <trkpt lat="47.78871" lon="-2.44237">
        <ele>18.6</ele>
        <time>2025-02-11T07:41:20Z</time>
      </trkpt>
      <trkpt lat="47.78871" lon="-2.44237">
        <ele>18.6</ele>
        <time>2025-02-11T07:41:21Z</time>
      </trkpt>
      <trkpt lat="47.78871" lon="-2.44237">
        <ele>18.6</ele>
        <time>2025-02-11T07:41:22Z</time>
      </trkpt>
      <trkpt lat="47.78871" lon="-2.44236">
        <ele>18.6</ele>
        <time>2025-02-11T07:41:23Z</time>
      </trkpt>
      <trkpt lat="47.78871" lon="-2.44236">
        <ele>18.6</ele>
        <time>2025-02-11T07:41:24Z</time>
      </trkpt>
      <trkpt lat="47.78871" lon="-2.44236">
        <ele>18.6</ele>
        <time>2025-02-11T07:41:25Z</time>
      </trkpt>
      <trkpt lat="47.78871" lon="-2.44236">
        <ele>18.6</ele>
        <time>2025-02-11T07:41:26Z</time>
      </trkpt>
      <trkpt lat="47.78871" lon="-2.44236">
        <ele>18.6</ele>
        <time>2025-02-11T07:41:27Z</time>
      </trkpt>
      <trkpt lat="47.78871" lon="-2.44236">
        <ele>18.6</ele>
        <time>2025-02-11T07:41:28Z</time>
      </trkpt>
      <trkpt lat="47.78871" lon="-2.44236">
        <ele>18.6</ele>
        <time>2025-02-11T07:41:29Z</time>
      </trkpt>
      <trkpt lat="47.78871" lon="-2.44236">
        <ele>18.6</ele>
        <time>2025-02-11T07:41:30Z</time>
      </trkpt>
      <trkpt lat="47.78871" lon="-2.44236">
        <ele>18.6</ele>
        <time>2025-02-11T07:41:31Z</time>
      </trkpt>
      <trkpt lat="47.78871" lon="-2.44236">
        <ele>18.6</ele>
        <time>2025-02-11T07:41:32Z</time>
      </trkpt>
      <trkpt lat="47.78871" lon="-2.44236">
        <ele>18.6</ele>
        <time>2025-02-11T07:41:33Z</time>
      </trkpt>
      <trkpt lat="47.78871" lon="-2.44235">
        <ele>18.6</ele>
        <time>2025-02-11T07:41:34Z</time>
      </trkpt>
      <trkpt lat="47.78871" lon="-2.44235">
        <ele>18.6</ele>
        <time>2025-02-11T07:41:35Z</time>
      </trkpt>
      <trkpt lat="47.78872" lon="-2.44235">
        <ele>18.5</ele>
        <time>2025-02-11T07:41:36Z</time>
      </trkpt>
      <trkpt lat="47.78872" lon="-2.44235">
        <ele>18.5</ele>
        <time>2025-02-11T07:41:37Z</time>
      </trkpt>
      <trkpt lat="47.78872" lon="-2.44235">
        <ele>18.5</ele>
        <time>2025-02-11T07:41:38Z</time>
      </trkpt>
      <trkpt lat="47.78872" lon="-2.44235">
        <ele>18.5</ele>
        <time>2025-02-11T07:41:39Z</time>
      </trkpt>
      <trkpt lat="47.78872" lon="-2.44235">
        <ele>18.5</ele>
        <time>2025-02-11T07:41:40Z</time>
      </trkpt>
      <trkpt lat="47.78872" lon="-2.44235">
        <ele>18.5</ele>
        <time>2025-02-11T07:41:41Z</time>
      </trkpt>
      <trkpt lat="47.78872" lon="-2.44235">
        <ele>18.5</ele>
        <time>2025-02-11T07:41:42Z</time>
      </trkpt>
      <trkpt lat="47.78872" lon="-2.44235">
        <ele>18.5</ele>
        <time>2025-02-11T07:41:43Z</time>
      </trkpt>
      <trkpt lat="47.78872" lon="-2.44235">
        <ele>18.5</ele>
        <time>2025-02-11T07:41:44Z</time>
      </trkpt>
      <trkpt lat="47.78872" lon="-2.44235">
        <ele>18.5</ele>
        <time>2025-02-11T07:41:45Z</time>
      </trkpt>
      <trkpt lat="47.78872" lon="-2.44235">
        <ele>18.5</ele>
        <time>2025-02-11T07:41:46Z</time>
      </trkpt>
      <trkpt lat="47.78872" lon="-2.44235">
        <ele>18.5</ele>
        <time>2025-02-11T07:41:47Z</time>
      </trkpt>
      <trkpt lat="47.78873" lon="-2.44235">
        <ele>18.5</ele>
        <time>2025-02-11T07:41:48Z</time>
      </trkpt>
      <trkpt lat="47.78873" lon="-2.44235">
        <ele>18.4</ele>
        <time>2025-02-11T07:41:49Z</time>
      </trkpt>
      <trkpt lat="47.78873" lon="-2.44235">
        <ele>18.4</ele>
        <time>2025-02-11T07:41:50Z</time>
      </trkpt>
      <trkpt lat="47.78873" lon="-2.44235">
        <ele>18.4</ele>
        <time>2025-02-11T07:41:51Z</time>
      </trkpt>
      <trkpt lat="47.78873" lon="-2.44236">
        <ele>18.4</ele>
        <time>2025-02-11T07:41:52Z</time>
      </trkpt>
      <trkpt lat="47.78874" lon="-2.44238">
        <ele>18.4</ele>
        <time>2025-02-11T07:41:53Z</time>
      </trkpt>
      <trkpt lat="47.78874" lon="-2.4424">
        <ele>18.4</ele>
        <time>2025-02-11T07:41:54Z</time>
      </trkpt>
      <trkpt lat="47.78875" lon="-2.44242">
        <ele>18.4</ele>
        <time>2025-02-11T07:41:55Z</time>
      </trkpt>
      <trkpt lat="47.78875" lon="-2.44243">
        <ele>18.4</ele>
        <time>2025-02-11T07:41:56Z</time>
      </trkpt>
      <trkpt lat="47.78875" lon="-2.44245">
        <ele>18.4</ele>
        <time>2025-02-11T07:41:57Z</time>
      </trkpt>
      <trkpt lat="47.78875" lon="-2.44247">
        <ele>18.4</ele>
        <time>2025-02-11T07:41:58Z</time>
      </trkpt>
      <trkpt lat="47.78875" lon="-2.44248">
        <ele>18.5</ele>
        <time>2025-02-11T07:41:59Z</time>
      </trkpt>
      <trkpt lat="47.78875" lon="-2.4425">
        <ele>18.5</ele>
        <time>2025-02-11T07:42:00Z</time>
      </trkpt>
      <trkpt lat="47.78875" lon="-2.44253">
        <ele>18.5</ele>
        <time>2025-02-11T07:42:01Z</time>
      </trkpt>
      <trkpt lat="47.78876" lon="-2.44255">
        <ele>18.4</ele>
        <time>2025-02-11T07:42:02Z</time>
      </trkpt>
      <trkpt lat="47.78877" lon="-2.44256">
        <ele>18.4</ele>
        <time>2025-02-11T07:42:03Z</time>
      </trkpt>
      <trkpt lat="47.78877" lon="-2.44258">
        <ele>18.3</ele>
        <time>2025-02-11T07:42:04Z</time>
      </trkpt>
      <trkpt lat="47.78877" lon="-2.4426">
        <ele>18.3</ele>
        <time>2025-02-11T07:42:05Z</time>
      </trkpt>
      <trkpt lat="47.78878" lon="-2.44262">
        <ele>18.3</ele>
        <time>2025-02-11T07:42:06Z</time>
      </trkpt>
      <trkpt lat="47.78878" lon="-2.44263">
        <ele>18.3</ele>
        <time>2025-02-11T07:42:07Z</time>
      </trkpt>
      <trkpt lat="47.78877" lon="-2.44264">
        <ele>18.3</ele>
        <time>2025-02-11T07:42:08Z</time>
      </trkpt>
      <trkpt lat="47.78877" lon="-2.44265">
        <ele>18.4</ele>
        <time>2025-02-11T07:42:09Z</time>
      </trkpt>
      <trkpt lat="47.78876" lon="-2.44267">
        <ele>18.4</ele>
        <time>2025-02-11T07:42:10Z</time>
      </trkpt>
      <trkpt lat="47.78876" lon="-2.44268">
        <ele>18.4</ele>
        <time>2025-02-11T07:42:11Z</time>
      </trkpt>
      <trkpt lat="47.78876" lon="-2.4427">
        <ele>18.4</ele>
        <time>2025-02-11T07:42:12Z</time>
      </trkpt>
      <trkpt lat="47.78876" lon="-2.44271">
        <ele>18.4</ele>
        <time>2025-02-11T07:42:13Z</time>
      </trkpt>
      <trkpt lat="47.78876" lon="-2.44273">
        <ele>18.5</ele>
        <time>2025-02-11T07:42:14Z</time>
      </trkpt>
      <trkpt lat="47.78876" lon="-2.44275">
        <ele>18.4</ele>
        <time>2025-02-11T07:42:15Z</time>
      </trkpt>
      <trkpt lat="47.78877" lon="-2.44277">
        <ele>18.4</ele>
        <time>2025-02-11T07:42:16Z</time>
      </trkpt>
      <trkpt lat="47.78876" lon="-2.44279">
        <ele>18.5</ele>
        <time>2025-02-11T07:42:17Z</time>
      </trkpt>
      <trkpt lat="47.78877" lon="-2.44281">
        <ele>18.5</ele>
        <time>2025-02-11T07:42:18Z</time>
      </trkpt>
      <trkpt lat="47.78878" lon="-2.44283">
        <ele>18.5</ele>
        <time>2025-02-11T07:42:19Z</time>
      </trkpt>
      <trkpt lat="47.78879" lon="-2.44284">
        <ele>18.5</ele>
        <time>2025-02-11T07:42:20Z</time>
      </trkpt>
      <trkpt lat="47.7888" lon="-2.44285">
        <ele>18.5</ele>
        <time>2025-02-11T07:42:21Z</time>
      </trkpt>
      <trkpt lat="47.7888" lon="-2.44287">
        <ele>18.5</ele>
        <time>2025-02-11T07:42:22Z</time>
      </trkpt>
      <trkpt lat="47.78881" lon="-2.44288">
        <ele>18.6</ele>
        <time>2025-02-11T07:42:23Z</time>
      </trkpt>
      <trkpt lat="47.78881" lon="-2.44289">
        <ele>18.6</ele>
        <time>2025-02-11T07:42:24Z</time>
      </trkpt>
      <trkpt lat="47.78882" lon="-2.44291">
        <ele>18.6</ele>
        <time>2025-02-11T07:42:25Z</time>
      </trkpt>
      <trkpt lat="47.78882" lon="-2.44292">
        <ele>18.6</ele>
        <time>2025-02-11T07:42:26Z</time>
      </trkpt>
      <trkpt lat="47.78882" lon="-2.44294">
        <ele>18.7</ele>
        <time>2025-02-11T07:42:27Z</time>
      </trkpt>
      <trkpt lat="47.78882" lon="-2.44295">
        <ele>18.7</ele>
        <time>2025-02-11T07:42:28Z</time>
      </trkpt>
      <trkpt lat="47.78883" lon="-2.44297">
        <ele>18.8</ele>
        <time>2025-02-11T07:42:29Z</time>
      </trkpt>
      <trkpt lat="47.78883" lon="-2.44298">
        <ele>18.8</ele>
        <time>2025-02-11T07:42:30Z</time>
      </trkpt>
      <trkpt lat="47.78883" lon="-2.443">
        <ele>18.8</ele>
        <time>2025-02-11T07:42:31Z</time>
      </trkpt>
      <trkpt lat="47.78883" lon="-2.44301">
        <ele>18.9</ele>
        <time>2025-02-11T07:42:32Z</time>
      </trkpt>
      <trkpt lat="47.78884" lon="-2.44302">
        <ele>18.9</ele>
        <time>2025-02-11T07:42:33Z</time>
      </trkpt>
      <trkpt lat="47.78884" lon="-2.44304">
        <ele>18.9</ele>
        <time>2025-02-11T07:42:34Z</time>
      </trkpt>
      <trkpt lat="47.78885" lon="-2.44305">
        <ele>19</ele>
        <time>2025-02-11T07:42:35Z</time>
      </trkpt>
      <trkpt lat="47.78885" lon="-2.44307">
        <ele>19</ele>
        <time>2025-02-11T07:42:36Z</time>
      </trkpt>
      <trkpt lat="47.78886" lon="-2.44309">
        <ele>19</ele>
        <time>2025-02-11T07:42:37Z</time>
      </trkpt>
      <trkpt lat="47.78887" lon="-2.4431">
        <ele>19</ele>
        <time>2025-02-11T07:42:38Z</time>
      </trkpt>
      <trkpt lat="47.78887" lon="-2.44312">
        <ele>19</ele>
        <time>2025-02-11T07:42:39Z</time>
      </trkpt>
      <trkpt lat="47.78888" lon="-2.44313">
        <ele>19</ele>
        <time>2025-02-11T07:42:40Z</time>
      </trkpt>
      <trkpt lat="47.78889" lon="-2.44314">
        <ele>19</ele>
        <time>2025-02-11T07:42:41Z</time>
      </trkpt>
      <trkpt lat="47.7889" lon="-2.44314">
        <ele>19</ele>
        <time>2025-02-11T07:42:42Z</time>
      </trkpt>
      <trkpt lat="47.78891" lon="-2.44315">
        <ele>18.9</ele>
        <time>2025-02-11T07:42:43Z</time>
      </trkpt>
      <trkpt lat="47.78892" lon="-2.44316">
        <ele>18.9</ele>
        <time>2025-02-11T07:42:44Z</time>
      </trkpt>
      <trkpt lat="47.78893" lon="-2.44317">
        <ele>18.8</ele>
        <time>2025-02-11T07:42:45Z</time>
      </trkpt>
      <trkpt lat="47.78895" lon="-2.44317">
        <ele>18.8</ele>
        <time>2025-02-11T07:42:46Z</time>
      </trkpt>
      <trkpt lat="47.78896" lon="-2.44317">
        <ele>18.7</ele>
        <time>2025-02-11T07:42:47Z</time>
      </trkpt>
      <trkpt lat="47.78898" lon="-2.44317">
        <ele>18.7</ele>
        <time>2025-02-11T07:42:48Z</time>
      </trkpt>
      <trkpt lat="47.78899" lon="-2.44318">
        <ele>18.6</ele>
        <time>2025-02-11T07:42:49Z</time>
      </trkpt>
      <trkpt lat="47.789" lon="-2.44319">
        <ele>18.6</ele>
        <time>2025-02-11T07:42:50Z</time>
      </trkpt>
      <trkpt lat="47.78901" lon="-2.4432">
        <ele>18.6</ele>
        <time>2025-02-11T07:42:51Z</time>
      </trkpt>
      <trkpt lat="47.78903" lon="-2.4432">
        <ele>18.5</ele>
        <time>2025-02-11T07:42:52Z</time>
      </trkpt>
      <trkpt lat="47.78904" lon="-2.44321">
        <ele>18.5</ele>
        <time>2025-02-11T07:42:53Z</time>
      </trkpt>
      <trkpt lat="47.78905" lon="-2.4432">
        <ele>18.4</ele>
        <time>2025-02-11T07:42:54Z</time>
      </trkpt>
      <trkpt lat="47.78907" lon="-2.44321">
        <ele>18.4</ele>
        <time>2025-02-11T07:42:55Z</time>
      </trkpt>
      <trkpt lat="47.78908" lon="-2.44321">
        <ele>18.3</ele>
        <time>2025-02-11T07:42:56Z</time>
      </trkpt>
      <trkpt lat="47.78909" lon="-2.44321">
        <ele>18.3</ele>
        <time>2025-02-11T07:42:57Z</time>
      </trkpt>
      <trkpt lat="47.78911" lon="-2.44321">
        <ele>18.2</ele>
        <time>2025-02-11T07:42:58Z</time>
      </trkpt>
      <trkpt lat="47.78912" lon="-2.44321">
        <ele>18.2</ele>
        <time>2025-02-11T07:42:59Z</time>
      </trkpt>
      <trkpt lat="47.78913" lon="-2.44321">
        <ele>18.1</ele>
        <time>2025-02-11T07:43:00Z</time>
      </trkpt>
      <trkpt lat="47.78914" lon="-2.44321">
        <ele>18.1</ele>
        <time>2025-02-11T07:43:01Z</time>
      </trkpt>
      <trkpt lat="47.78916" lon="-2.44322">
        <ele>18</ele>
        <time>2025-02-11T07:43:02Z</time>
      </trkpt>
      <trkpt lat="47.78917" lon="-2.44322">
        <ele>18</ele>
        <time>2025-02-11T07:43:03Z</time>
      </trkpt>
      <trkpt lat="47.78918" lon="-2.44323">
        <ele>18</ele>
        <time>2025-02-11T07:43:04Z</time>
      </trkpt>
      <trkpt lat="47.78919" lon="-2.44324">
        <ele>18.1</ele>
        <time>2025-02-11T07:43:05Z</time>
      </trkpt>
      <trkpt lat="47.7892" lon="-2.44324">
        <ele>18.1</ele>
        <time>2025-02-11T07:43:06Z</time>
      </trkpt>
      <trkpt lat="47.78921" lon="-2.44325">
        <ele>18.2</ele>
        <time>2025-02-11T07:43:07Z</time>
      </trkpt>
      <trkpt lat="47.78922" lon="-2.44326">
        <ele>18.2</ele>
        <time>2025-02-11T07:43:08Z</time>
      </trkpt>
      <trkpt lat="47.78924" lon="-2.44327">
        <ele>18.2</ele>
        <time>2025-02-11T07:43:09Z</time>
      </trkpt>
      <trkpt lat="47.78925" lon="-2.44328">
        <ele>18.3</ele>
        <time>2025-02-11T07:43:10Z</time>
      </trkpt>
      <trkpt lat="47.78926" lon="-2.44329">
        <ele>18.3</ele>
        <time>2025-02-11T07:43:11Z</time>
      </trkpt>
      <trkpt lat="47.78927" lon="-2.4433">
        <ele>18.4</ele>
        <time>2025-02-11T07:43:12Z</time>
      </trkpt>
      <trkpt lat="47.78928" lon="-2.44331">
        <ele>18.4</ele>
        <time>2025-02-11T07:43:13Z</time>
      </trkpt>
      <trkpt lat="47.78929" lon="-2.44331">
        <ele>18.4</ele>
        <time>2025-02-11T07:43:14Z</time>
      </trkpt>
      <trkpt lat="47.7893" lon="-2.44332">
        <ele>18.5</ele>
        <time>2025-02-11T07:43:15Z</time>
      </trkpt>
      <trkpt lat="47.78931" lon="-2.44332">
        <ele>18.5</ele>
        <time>2025-02-11T07:43:16Z</time>
      </trkpt>
      <trkpt lat="47.78932" lon="-2.44333">
        <ele>18.6</ele>
        <time>2025-02-11T07:43:17Z</time>
      </trkpt>
      <trkpt lat="47.78933" lon="-2.44334">
        <ele>18.6</ele>
        <time>2025-02-11T07:43:18Z</time>
      </trkpt>
      <trkpt lat="47.78934" lon="-2.44335">
        <ele>18.6</ele>
        <time>2025-02-11T07:43:19Z</time>
      </trkpt>
      <trkpt lat="47.78935" lon="-2.44336">
        <ele>18.7</ele>
        <time>2025-02-11T07:43:20Z</time>
      </trkpt>
      <trkpt lat="47.78936" lon="-2.44336">
        <ele>18.7</ele>
        <time>2025-02-11T07:43:21Z</time>
      </trkpt>
      <trkpt lat="47.78937" lon="-2.44338">
        <ele>18.7</ele>
        <time>2025-02-11T07:43:22Z</time>
      </trkpt>
      <trkpt lat="47.78938" lon="-2.44339">
        <ele>18.8</ele>
        <time>2025-02-11T07:43:23Z</time>
      </trkpt>
      <trkpt lat="47.78938" lon="-2.4434">
        <ele>18.8</ele>
        <time>2025-02-11T07:43:24Z</time>
      </trkpt>
      <trkpt lat="47.78939" lon="-2.44341">
        <ele>18.8</ele>
        <time>2025-02-11T07:43:25Z</time>
      </trkpt>
      <trkpt lat="47.78939" lon="-2.44343">
        <ele>18.8</ele>
        <time>2025-02-11T07:43:26Z</time>
      </trkpt>
      <trkpt lat="47.7894" lon="-2.44344">
        <ele>18.8</ele>
        <time>2025-02-11T07:43:27Z</time>
      </trkpt>
      <trkpt lat="47.7894" lon="-2.44345">
        <ele>18.8</ele>
        <time>2025-02-11T07:43:28Z</time>
      </trkpt>
      <trkpt lat="47.78941" lon="-2.44346">
        <ele>18.9</ele>
        <time>2025-02-11T07:43:29Z</time>
      </trkpt>
      <trkpt lat="47.78941" lon="-2.44347">
        <ele>18.9</ele>
        <time>2025-02-11T07:43:30Z</time>
      </trkpt>
      <trkpt lat="47.78942" lon="-2.44348">
        <ele>18.9</ele>
        <time>2025-02-11T07:43:31Z</time>
      </trkpt>
      <trkpt lat="47.78942" lon="-2.4435">
        <ele>18.9</ele>
        <time>2025-02-11T07:43:32Z</time>
      </trkpt>
      <trkpt lat="47.78942" lon="-2.44351">
        <ele>18.9</ele>
        <time>2025-02-11T07:43:33Z</time>
      </trkpt>
      <trkpt lat="47.78943" lon="-2.44353">
        <ele>18.9</ele>
        <time>2025-02-11T07:43:34Z</time>
      </trkpt>
      <trkpt lat="47.78943" lon="-2.44355">
        <ele>18.9</ele>
        <time>2025-02-11T07:43:35Z</time>
      </trkpt>
      <trkpt lat="47.78943" lon="-2.44356">
        <ele>18.9</ele>
        <time>2025-02-11T07:43:36Z</time>
      </trkpt>
      <trkpt lat="47.78944" lon="-2.44357">
        <ele>19</ele>
        <time>2025-02-11T07:43:37Z</time>
      </trkpt>
      <trkpt lat="47.78944" lon="-2.44358">
        <ele>19</ele>
        <time>2025-02-11T07:43:38Z</time>
      </trkpt>
      <trkpt lat="47.78945" lon="-2.44359">
        <ele>19</ele>
        <time>2025-02-11T07:43:39Z</time>
      </trkpt>
      <trkpt lat="47.78945" lon="-2.4436">
        <ele>19</ele>
        <time>2025-02-11T07:43:40Z</time>
      </trkpt>
      <trkpt lat="47.78945" lon="-2.44362">
        <ele>19</ele>
        <time>2025-02-11T07:43:41Z</time>
      </trkpt>
      <trkpt lat="47.78946" lon="-2.44363">
        <ele>19</ele>
        <time>2025-02-11T07:43:42Z</time>
      </trkpt>
      <trkpt lat="47.78947" lon="-2.44364">
        <ele>19</ele>
        <time>2025-02-11T07:43:43Z</time>
      </trkpt>
      <trkpt lat="47.78947" lon="-2.44365">
        <ele>19</ele>
        <time>2025-02-11T07:43:44Z</time>
      </trkpt>
      <trkpt lat="47.78947" lon="-2.44367">
        <ele>19</ele>
        <time>2025-02-11T07:43:45Z</time>
      </trkpt>
      <trkpt lat="47.78948" lon="-2.44368">
        <ele>19</ele>
        <time>2025-02-11T07:43:46Z</time>
      </trkpt>
      <trkpt lat="47.78948" lon="-2.4437">
        <ele>19</ele>
        <time>2025-02-11T07:43:47Z</time>
      </trkpt>
      <trkpt lat="47.78949" lon="-2.44371">
        <ele>19.1</ele>
        <time>2025-02-11T07:43:48Z</time>
      </trkpt>
      <trkpt lat="47.7895" lon="-2.44373">
        <ele>19.1</ele>
        <time>2025-02-11T07:43:49Z</time>
      </trkpt>
      <trkpt lat="47.7895" lon="-2.44374">
        <ele>19.1</ele>
        <time>2025-02-11T07:43:50Z</time>
      </trkpt>
      <trkpt lat="47.7895" lon="-2.44376">
        <ele>19.1</ele>
        <time>2025-02-11T07:43:51Z</time>
      </trkpt>
      <trkpt lat="47.78951" lon="-2.44377">
        <ele>19.1</ele>
        <time>2025-02-11T07:43:52Z</time>
      </trkpt>
      <trkpt lat="47.78952" lon="-2.44379">
        <ele>19.2</ele>
        <time>2025-02-11T07:43:53Z</time>
      </trkpt>
      <trkpt lat="47.78953" lon="-2.4438">
        <ele>19.2</ele>
        <time>2025-02-11T07:43:54Z</time>
      </trkpt>
      <trkpt lat="47.78953" lon="-2.44381">
        <ele>19.2</ele>
        <time>2025-02-11T07:43:55Z</time>
      </trkpt>
      <trkpt lat="47.78954" lon="-2.44383">
        <ele>19.3</ele>
        <time>2025-02-11T07:43:56Z</time>
      </trkpt>
      <trkpt lat="47.78954" lon="-2.44384">
        <ele>19.3</ele>
        <time>2025-02-11T07:43:57Z</time>
      </trkpt>
      <trkpt lat="47.78955" lon="-2.44385">
        <ele>19.3</ele>
        <time>2025-02-11T07:43:58Z</time>
      </trkpt>
      <trkpt lat="47.78955" lon="-2.44387">
        <ele>19.4</ele>
        <time>2025-02-11T07:43:59Z</time>
      </trkpt>
      <trkpt lat="47.78956" lon="-2.44388">
        <ele>19.4</ele>
        <time>2025-02-11T07:44:00Z</time>
      </trkpt>
      <trkpt lat="47.78957" lon="-2.4439">
        <ele>19.4</ele>
        <time>2025-02-11T07:44:01Z</time>
      </trkpt>
      <trkpt lat="47.78957" lon="-2.44391">
        <ele>19.5</ele>
        <time>2025-02-11T07:44:02Z</time>
      </trkpt>
      <trkpt lat="47.78958" lon="-2.44392">
        <ele>19.5</ele>
        <time>2025-02-11T07:44:03Z</time>
      </trkpt>
      <trkpt lat="47.78958" lon="-2.44393">
        <ele>19.6</ele>
        <time>2025-02-11T07:44:04Z</time>
      </trkpt>
      <trkpt lat="47.78959" lon="-2.44395">
        <ele>19.6</ele>
        <time>2025-02-11T07:44:05Z</time>
      </trkpt>
      <trkpt lat="47.7896" lon="-2.44396">
        <ele>19.7</ele>
        <time>2025-02-11T07:44:06Z</time>
      </trkpt>
      <trkpt lat="47.7896" lon="-2.44397">
        <ele>19.7</ele>
        <time>2025-02-11T07:44:07Z</time>
      </trkpt>
      <trkpt lat="47.78961" lon="-2.44398">
        <ele>19.7</ele>
        <time>2025-02-11T07:44:08Z</time>
      </trkpt>
      <trkpt lat="47.78962" lon="-2.444">
        <ele>19.8</ele>
        <time>2025-02-11T07:44:09Z</time>
      </trkpt>
      <trkpt lat="47.78963" lon="-2.44401">
        <ele>19.8</ele>
        <time>2025-02-11T07:44:10Z</time>
      </trkpt>
      <trkpt lat="47.78964" lon="-2.44402">
        <ele>19.8</ele>
        <time>2025-02-11T07:44:11Z</time>
      </trkpt>
      <trkpt lat="47.78965" lon="-2.44403">
        <ele>19.9</ele>
        <time>2025-02-11T07:44:12Z</time>
      </trkpt>
      <trkpt lat="47.78965" lon="-2.44404">
        <ele>19.9</ele>
        <time>2025-02-11T07:44:13Z</time>
      </trkpt>
      <trkpt lat="47.78966" lon="-2.44406">
        <ele>19.9</ele>
        <time>2025-02-11T07:44:14Z</time>
      </trkpt>
      <trkpt lat="47.78966" lon="-2.44407">
        <ele>19.9</ele>
        <time>2025-02-11T07:44:15Z</time>
      </trkpt>
      <trkpt lat="47.78967" lon="-2.44409">
        <ele>19.9</ele>
        <time>2025-02-11T07:44:16Z</time>
      </trkpt>
      <trkpt lat="47.78968" lon="-2.4441">
        <ele>20</ele>
        <time>2025-02-11T07:44:17Z</time>
      </trkpt>
      <trkpt lat="47.78969" lon="-2.4441">
        <ele>20</ele>
        <time>2025-02-11T07:44:18Z</time>
      </trkpt>
      <trkpt lat="47.7897" lon="-2.4441">
        <ele>20</ele>
        <time>2025-02-11T07:44:19Z</time>
      </trkpt>
      <trkpt lat="47.78971" lon="-2.44411">
        <ele>20</ele>
        <time>2025-02-11T07:44:20Z</time>
      </trkpt>
      <trkpt lat="47.78972" lon="-2.44411">
        <ele>20</ele>
        <time>2025-02-11T07:44:21Z</time>
      </trkpt>
      <trkpt lat="47.78973" lon="-2.4441">
        <ele>20</ele>
        <time>2025-02-11T07:44:22Z</time>
      </trkpt>
      <trkpt lat="47.78974" lon="-2.44409">
        <ele>20.1</ele>
        <time>2025-02-11T07:44:23Z</time>
      </trkpt>
      <trkpt lat="47.78975" lon="-2.44408">
        <ele>20.1</ele>
        <time>2025-02-11T07:44:24Z</time>
      </trkpt>
      <trkpt lat="47.78976" lon="-2.44408">
        <ele>20.1</ele>
        <time>2025-02-11T07:44:25Z</time>
      </trkpt>
      <trkpt lat="47.78977" lon="-2.44407">
        <ele>20.2</ele>
        <time>2025-02-11T07:44:26Z</time>
      </trkpt>
      <trkpt lat="47.78978" lon="-2.44406">
        <ele>20.2</ele>
        <time>2025-02-11T07:44:27Z</time>
      </trkpt>
      <trkpt lat="47.78979" lon="-2.44406">
        <ele>20.2</ele>
        <time>2025-02-11T07:44:28Z</time>
      </trkpt>
      <trkpt lat="47.7898" lon="-2.44405">
        <ele>20.3</ele>
        <time>2025-02-11T07:44:29Z</time>
      </trkpt>
      <trkpt lat="47.78981" lon="-2.44404">
        <ele>20.3</ele>
        <time>2025-02-11T07:44:30Z</time>
      </trkpt>
      <trkpt lat="47.78982" lon="-2.44404">
        <ele>20.4</ele>
        <time>2025-02-11T07:44:31Z</time>
      </trkpt>
      <trkpt lat="47.78984" lon="-2.44403">
        <ele>20.4</ele>
        <time>2025-02-11T07:44:32Z</time>
      </trkpt>
      <trkpt lat="47.78985" lon="-2.44403">
        <ele>20.4</ele>
        <time>2025-02-11T07:44:33Z</time>
      </trkpt>
      <trkpt lat="47.78986" lon="-2.44402">
        <ele>20.5</ele>
        <time>2025-02-11T07:44:34Z</time>
      </trkpt>
      <trkpt lat="47.78987" lon="-2.44402">
        <ele>20.5</ele>
        <time>2025-02-11T07:44:35Z</time>
      </trkpt>
      <trkpt lat="47.78988" lon="-2.44402">
        <ele>20.6</ele>
        <time>2025-02-11T07:44:36Z</time>
      </trkpt>
      <trkpt lat="47.78989" lon="-2.44402">
        <ele>20.6</ele>
        <time>2025-02-11T07:44:37Z</time>
      </trkpt>
      <trkpt lat="47.7899" lon="-2.44401">
        <ele>20.6</ele>
        <time>2025-02-11T07:44:38Z</time>
      </trkpt>
      <trkpt lat="47.78991" lon="-2.44401">
        <ele>20.7</ele>
        <time>2025-02-11T07:44:39Z</time>
      </trkpt>
      <trkpt lat="47.78992" lon="-2.444">
        <ele>20.7</ele>
        <time>2025-02-11T07:44:40Z</time>
      </trkpt>
      <trkpt lat="47.78993" lon="-2.444">
        <ele>20.8</ele>
        <time>2025-02-11T07:44:41Z</time>
      </trkpt>
      <trkpt lat="47.78994" lon="-2.44399">
        <ele>20.8</ele>
        <time>2025-02-11T07:44:42Z</time>
      </trkpt>
      <trkpt lat="47.78995" lon="-2.44398">
        <ele>20.8</ele>
        <time>2025-02-11T07:44:43Z</time>
      </trkpt>
      <trkpt lat="47.78996" lon="-2.44397">
        <ele>20.9</ele>
        <time>2025-02-11T07:44:44Z</time>
      </trkpt>
      <trkpt lat="47.78997" lon="-2.44396">
        <ele>20.9</ele>
        <time>2025-02-11T07:44:45Z</time>
      </trkpt>
      <trkpt lat="47.78998" lon="-2.44395">
        <ele>20.9</ele>
        <time>2025-02-11T07:44:46Z</time>
      </trkpt>
      <trkpt lat="47.78999" lon="-2.44394">
        <ele>20.9</ele>
        <time>2025-02-11T07:44:47Z</time>
      </trkpt>
      <trkpt lat="47.78999" lon="-2.44393">
        <ele>21</ele>
        <time>2025-02-11T07:44:48Z</time>
      </trkpt>
      <trkpt lat="47.79" lon="-2.44392">
        <ele>21</ele>
        <time>2025-02-11T07:44:49Z</time>
      </trkpt>
      <trkpt lat="47.79001" lon="-2.44391">
        <ele>21</ele>
        <time>2025-02-11T07:44:50Z</time>
      </trkpt>
      <trkpt lat="47.79002" lon="-2.44391">
        <ele>21</ele>
        <time>2025-02-11T07:44:51Z</time>
      </trkpt>
      <trkpt lat="47.79003" lon="-2.4439">
        <ele>21</ele>
        <time>2025-02-11T07:44:52Z</time>
      </trkpt>
      <trkpt lat="47.79004" lon="-2.44389">
        <ele>21</ele>
        <time>2025-02-11T07:44:53Z</time>
      </trkpt>
      <trkpt lat="47.79005" lon="-2.44389">
        <ele>21</ele>
        <time>2025-02-11T07:44:54Z</time>
      </trkpt>
      <trkpt lat="47.79006" lon="-2.44388">
        <ele>21</ele>
        <time>2025-02-11T07:44:55Z</time>
      </trkpt>
      <trkpt lat="47.79007" lon="-2.44387">
        <ele>20.9</ele>
        <time>2025-02-11T07:44:56Z</time>
      </trkpt>
      <trkpt lat="47.79008" lon="-2.44386">
        <ele>20.9</ele>
        <time>2025-02-11T07:44:57Z</time>
      </trkpt>
      <trkpt lat="47.79009" lon="-2.44385">
        <ele>20.9</ele>
        <time>2025-02-11T07:44:58Z</time>
      </trkpt>
      <trkpt lat="47.79009" lon="-2.44384">
        <ele>20.9</ele>
        <time>2025-02-11T07:44:59Z</time>
      </trkpt>
      <trkpt lat="47.7901" lon="-2.44383">
        <ele>20.9</ele>
        <time>2025-02-11T07:45:00Z</time>
      </trkpt>
      <trkpt lat="47.79011" lon="-2.44382">
        <ele>20.8</ele>
        <time>2025-02-11T07:45:01Z</time>
      </trkpt>
      <trkpt lat="47.79012" lon="-2.4438">
        <ele>20.8</ele>
        <time>2025-02-11T07:45:02Z</time>
      </trkpt>
      <trkpt lat="47.79013" lon="-2.44379">
        <ele>20.8</ele>
        <time>2025-02-11T07:45:03Z</time>
      </trkpt>
      <trkpt lat="47.79014" lon="-2.44378">
        <ele>20.8</ele>
        <time>2025-02-11T07:45:04Z</time>
      </trkpt>
      <trkpt lat="47.79015" lon="-2.44376">
        <ele>20.8</ele>
        <time>2025-02-11T07:45:05Z</time>
      </trkpt>
      <trkpt lat="47.79016" lon="-2.44375">
        <ele>20.8</ele>
        <time>2025-02-11T07:45:06Z</time>
      </trkpt>
      <trkpt lat="47.79017" lon="-2.44373">
        <ele>20.8</ele>
        <time>2025-02-11T07:45:07Z</time>
      </trkpt>
      <trkpt lat="47.79017" lon="-2.44372">
        <ele>20.8</ele>
        <time>2025-02-11T07:45:08Z</time>
      </trkpt>
      <trkpt lat="47.79018" lon="-2.4437">
        <ele>20.8</ele>
        <time>2025-02-11T07:45:09Z</time>
      </trkpt>
      <trkpt lat="47.79019" lon="-2.44369">
        <ele>20.8</ele>
        <time>2025-02-11T07:45:10Z</time>
      </trkpt>
      <trkpt lat="47.7902" lon="-2.44367">
        <ele>20.8</ele>
        <time>2025-02-11T07:45:11Z</time>
      </trkpt>
      <trkpt lat="47.7902" lon="-2.44365">
        <ele>20.8</ele>
        <time>2025-02-11T07:45:12Z</time>
      </trkpt>
      <trkpt lat="47.79021" lon="-2.44364">
        <ele>20.8</ele>
        <time>2025-02-11T07:45:13Z</time>
      </trkpt>
      <trkpt lat="47.79022" lon="-2.44362">
        <ele>20.8</ele>
        <time>2025-02-11T07:45:14Z</time>
      </trkpt>
      <trkpt lat="47.79022" lon="-2.44361">
        <ele>20.8</ele>
        <time>2025-02-11T07:45:15Z</time>
      </trkpt>
      <trkpt lat="47.79023" lon="-2.4436">
        <ele>20.8</ele>
        <time>2025-02-11T07:45:16Z</time>
      </trkpt>
      <trkpt lat="47.79024" lon="-2.44359">
        <ele>20.9</ele>
        <time>2025-02-11T07:45:17Z</time>
      </trkpt>
      <trkpt lat="47.79026" lon="-2.44363">
        <ele>20.9</ele>
        <time>2025-02-11T07:45:18Z</time>
      </trkpt>
      <trkpt lat="47.79024" lon="-2.44358">
        <ele>20.9</ele>
        <time>2025-02-11T07:45:19Z</time>
      </trkpt>
      <trkpt lat="47.79026" lon="-2.44356">
        <ele>20.9</ele>
        <time>2025-02-11T07:45:20Z</time>
      </trkpt>
      <trkpt lat="47.79025" lon="-2.44358">
        <ele>20.9</ele>
        <time>2025-02-11T07:45:21Z</time>
      </trkpt>
      <trkpt lat="47.79025" lon="-2.44358">
        <ele>20.9</ele>
        <time>2025-02-11T07:45:22Z</time>
      </trkpt>
      <trkpt lat="47.79025" lon="-2.44358">
        <ele>20.9</ele>
        <time>2025-02-11T07:45:23Z</time>
      </trkpt>
      <trkpt lat="47.79025" lon="-2.44358">
        <ele>20.9</ele>
        <time>2025-02-11T07:45:24Z</time>
      </trkpt>
      <trkpt lat="47.79025" lon="-2.44358">
        <ele>20.9</ele>
        <time>2025-02-11T07:45:25Z</time>
      </trkpt>
      <trkpt lat="47.79025" lon="-2.44358">
        <ele>20.9</ele>
        <time>2025-02-11T07:45:26Z</time>
      </trkpt>
      <trkpt lat="47.79025" lon="-2.44358">
        <ele>20.9</ele>
        <time>2025-02-11T07:45:27Z</time>
      </trkpt>
      <trkpt lat="47.79026" lon="-2.44357">
        <ele>20.9</ele>
        <time>2025-02-11T07:45:28Z</time>
      </trkpt>
      <trkpt lat="47.79026" lon="-2.44357">
        <ele>20.9</ele>
        <time>2025-02-11T07:45:29Z</time>
      </trkpt>
      <trkpt lat="47.79026" lon="-2.44356">
        <ele>20.9</ele>
        <time>2025-02-11T07:45:30Z</time>
      </trkpt>
      <trkpt lat="47.79026" lon="-2.44354">
        <ele>21</ele>
        <time>2025-02-11T07:45:31Z</time>
      </trkpt>
      <trkpt lat="47.79028" lon="-2.44353">
        <ele>21</ele>
        <time>2025-02-11T07:45:32Z</time>
      </trkpt>
      <trkpt lat="47.7903" lon="-2.44351">
        <ele>21</ele>
        <time>2025-02-11T07:45:33Z</time>
      </trkpt>
      <trkpt lat="47.79031" lon="-2.44349">
        <ele>21.1</ele>
        <time>2025-02-11T07:45:34Z</time>
      </trkpt>
      <trkpt lat="47.79031" lon="-2.44347">
        <ele>21.1</ele>
        <time>2025-02-11T07:45:35Z</time>
      </trkpt>
      <trkpt lat="47.79032" lon="-2.44346">
        <ele>21.1</ele>
        <time>2025-02-11T07:45:36Z</time>
      </trkpt>
      <trkpt lat="47.79033" lon="-2.44345">
        <ele>21.1</ele>
        <time>2025-02-11T07:45:37Z</time>
      </trkpt>
      <trkpt lat="47.79034" lon="-2.44344">
        <ele>21.1</ele>
        <time>2025-02-11T07:45:38Z</time>
      </trkpt>
      <trkpt lat="47.79035" lon="-2.44342">
        <ele>21.1</ele>
        <time>2025-02-11T07:45:39Z</time>
      </trkpt>
      <trkpt lat="47.79036" lon="-2.4434">
        <ele>21.1</ele>
        <time>2025-02-11T07:45:40Z</time>
      </trkpt>
      <trkpt lat="47.79037" lon="-2.44339">
        <ele>21.1</ele>
        <time>2025-02-11T07:45:41Z</time>
      </trkpt>
      <trkpt lat="47.79038" lon="-2.44337">
        <ele>21</ele>
        <time>2025-02-11T07:45:42Z</time>
      </trkpt>
      <trkpt lat="47.79039" lon="-2.44335">
        <ele>21</ele>
        <time>2025-02-11T07:45:43Z</time>
      </trkpt>
      <trkpt lat="47.7904" lon="-2.44334">
        <ele>21</ele>
        <time>2025-02-11T07:45:44Z</time>
      </trkpt>
      <trkpt lat="47.79041" lon="-2.44333">
        <ele>21</ele>
        <time>2025-02-11T07:45:45Z</time>
      </trkpt>
      <trkpt lat="47.79042" lon="-2.44332">
        <ele>21</ele>
        <time>2025-02-11T07:45:46Z</time>
      </trkpt>
      <trkpt lat="47.79043" lon="-2.4433">
        <ele>20.9</ele>
        <time>2025-02-11T07:45:47Z</time>
      </trkpt>
      <trkpt lat="47.79044" lon="-2.44328">
        <ele>20.9</ele>
        <time>2025-02-11T07:45:48Z</time>
      </trkpt>
      <trkpt lat="47.79045" lon="-2.44327">
        <ele>20.9</ele>
        <time>2025-02-11T07:45:49Z</time>
      </trkpt>
      <trkpt lat="47.79046" lon="-2.44325">
        <ele>20.9</ele>
        <time>2025-02-11T07:45:50Z</time>
      </trkpt>
      <trkpt lat="47.79047" lon="-2.44324">
        <ele>20.9</ele>
        <time>2025-02-11T07:45:51Z</time>
      </trkpt>
      <trkpt lat="47.79048" lon="-2.44323">
        <ele>20.9</ele>
        <time>2025-02-11T07:45:52Z</time>
      </trkpt>
      <trkpt lat="47.79049" lon="-2.44321">
        <ele>20.9</ele>
        <time>2025-02-11T07:45:53Z</time>
      </trkpt>
      <trkpt lat="47.79051" lon="-2.4432">
        <ele>20.9</ele>
        <time>2025-02-11T07:45:54Z</time>
      </trkpt>
      <trkpt lat="47.79052" lon="-2.44319">
        <ele>20.9</ele>
        <time>2025-02-11T07:45:55Z</time>
      </trkpt>
      <trkpt lat="47.79053" lon="-2.44318">
        <ele>20.9</ele>
        <time>2025-02-11T07:45:56Z</time>
      </trkpt>
      <trkpt lat="47.79053" lon="-2.44316">
        <ele>20.9</ele>
        <time>2025-02-11T07:45:57Z</time>
      </trkpt>
      <trkpt lat="47.79053" lon="-2.44314">
        <ele>20.9</ele>
        <time>2025-02-11T07:45:58Z</time>
      </trkpt>
      <trkpt lat="47.79053" lon="-2.44311">
        <ele>20.9</ele>
        <time>2025-02-11T07:45:59Z</time>
      </trkpt>
      <trkpt lat="47.79054" lon="-2.44308">
        <ele>20.9</ele>
        <time>2025-02-11T07:46:00Z</time>
      </trkpt>
      <trkpt lat="47.79055" lon="-2.44307">
        <ele>21</ele>
        <time>2025-02-11T07:46:01Z</time>
      </trkpt>
      <trkpt lat="47.79056" lon="-2.44306">
        <ele>21</ele>
        <time>2025-02-11T07:46:02Z</time>
      </trkpt>
      <trkpt lat="47.79057" lon="-2.44305">
        <ele>21</ele>
        <time>2025-02-11T07:46:03Z</time>
      </trkpt>
      <trkpt lat="47.79058" lon="-2.44304">
        <ele>21.1</ele>
        <time>2025-02-11T07:46:04Z</time>
      </trkpt>
      <trkpt lat="47.79058" lon="-2.44303">
        <ele>21.1</ele>
        <time>2025-02-11T07:46:05Z</time>
      </trkpt>
      <trkpt lat="47.79059" lon="-2.44303">
        <ele>21.1</ele>
        <time>2025-02-11T07:46:06Z</time>
      </trkpt>
      <trkpt lat="47.7906" lon="-2.44302">
        <ele>21.1</ele>
        <time>2025-02-11T07:46:07Z</time>
      </trkpt>
      <trkpt lat="47.7906" lon="-2.443">
        <ele>21.1</ele>
        <time>2025-02-11T07:46:08Z</time>
      </trkpt>
      <trkpt lat="47.79061" lon="-2.44299">
        <ele>21.1</ele>
        <time>2025-02-11T07:46:09Z</time>
      </trkpt>
      <trkpt lat="47.79062" lon="-2.44298">
        <ele>21.2</ele>
        <time>2025-02-11T07:46:10Z</time>
      </trkpt>
      <trkpt lat="47.79063" lon="-2.44297">
        <ele>21.2</ele>
        <time>2025-02-11T07:46:11Z</time>
      </trkpt>
      <trkpt lat="47.79064" lon="-2.44296">
        <ele>21.2</ele>
        <time>2025-02-11T07:46:12Z</time>
      </trkpt>
      <trkpt lat="47.79065" lon="-2.44295">
        <ele>21.2</ele>
        <time>2025-02-11T07:46:13Z</time>
      </trkpt>
      <trkpt lat="47.79066" lon="-2.44294">
        <ele>21.2</ele>
        <time>2025-02-11T07:46:14Z</time>
      </trkpt>
      <trkpt lat="47.79067" lon="-2.44292">
        <ele>21.2</ele>
        <time>2025-02-11T07:46:15Z</time>
      </trkpt>
      <trkpt lat="47.79068" lon="-2.4429">
        <ele>21.2</ele>
        <time>2025-02-11T07:46:16Z</time>
      </trkpt>
      <trkpt lat="47.79068" lon="-2.44289">
        <ele>21.2</ele>
        <time>2025-02-11T07:46:17Z</time>
      </trkpt>
      <trkpt lat="47.79069" lon="-2.44288">
        <ele>21.2</ele>
        <time>2025-02-11T07:46:18Z</time>
      </trkpt>
      <trkpt lat="47.7907" lon="-2.44287">
        <ele>21.2</ele>
        <time>2025-02-11T07:46:19Z</time>
      </trkpt>
      <trkpt lat="47.79071" lon="-2.44285">
        <ele>21.2</ele>
        <time>2025-02-11T07:46:20Z</time>
      </trkpt>
      <trkpt lat="47.79072" lon="-2.44284">
        <ele>21.1</ele>
        <time>2025-02-11T07:46:21Z</time>
      </trkpt>
      <trkpt lat="47.79073" lon="-2.44283">
        <ele>21.1</ele>
        <time>2025-02-11T07:46:22Z</time>
      </trkpt>
      <trkpt lat="47.79074" lon="-2.44282">
        <ele>21.1</ele>
        <time>2025-02-11T07:46:23Z</time>
      </trkpt>
      <trkpt lat="47.79074" lon="-2.4428">
        <ele>21.1</ele>
        <time>2025-02-11T07:46:24Z</time>
      </trkpt>
      <trkpt lat="47.79075" lon="-2.44279">
        <ele>21</ele>
        <time>2025-02-11T07:46:25Z</time>
      </trkpt>
      <trkpt lat="47.79076" lon="-2.44278">
        <ele>21</ele>
        <time>2025-02-11T07:46:26Z</time>
      </trkpt>
      <trkpt lat="47.79077" lon="-2.44276">
        <ele>21</ele>
        <time>2025-02-11T07:46:27Z</time>
      </trkpt>
      <trkpt lat="47.79078" lon="-2.44275">
        <ele>21</ele>
        <time>2025-02-11T07:46:28Z</time>
      </trkpt>
      <trkpt lat="47.79078" lon="-2.44273">
        <ele>21</ele>
        <time>2025-02-11T07:46:29Z</time>
      </trkpt>
      <trkpt lat="47.79079" lon="-2.44272">
        <ele>21</ele>
        <time>2025-02-11T07:46:30Z</time>
      </trkpt>
      <trkpt lat="47.7908" lon="-2.44271">
        <ele>21</ele>
        <time>2025-02-11T07:46:31Z</time>
      </trkpt>
      <trkpt lat="47.79081" lon="-2.44271">
        <ele>21</ele>
        <time>2025-02-11T07:46:32Z</time>
      </trkpt>
      <trkpt lat="47.79082" lon="-2.4427">
        <ele>21</ele>
        <time>2025-02-11T07:46:33Z</time>
      </trkpt>
      <trkpt lat="47.79083" lon="-2.44268">
        <ele>21</ele>
        <time>2025-02-11T07:46:34Z</time>
      </trkpt>
      <trkpt lat="47.79084" lon="-2.44267">
        <ele>21</ele>
        <time>2025-02-11T07:46:35Z</time>
      </trkpt>
      <trkpt lat="47.79085" lon="-2.44266">
        <ele>21</ele>
        <time>2025-02-11T07:46:36Z</time>
      </trkpt>
      <trkpt lat="47.79086" lon="-2.44265">
        <ele>21.1</ele>
        <time>2025-02-11T07:46:37Z</time>
      </trkpt>
      <trkpt lat="47.79087" lon="-2.44264">
        <ele>21.1</ele>
        <time>2025-02-11T07:46:38Z</time>
      </trkpt>
      <trkpt lat="47.79088" lon="-2.44262">
        <ele>21.2</ele>
        <time>2025-02-11T07:46:39Z</time>
      </trkpt>
      <trkpt lat="47.79089" lon="-2.44261">
        <ele>21.2</ele>
        <time>2025-02-11T07:46:40Z</time>
      </trkpt>
      <trkpt lat="47.7909" lon="-2.4426">
        <ele>21.2</ele>
        <time>2025-02-11T07:46:41Z</time>
      </trkpt>
      <trkpt lat="47.79091" lon="-2.44258">
        <ele>21.3</ele>
        <time>2025-02-11T07:46:42Z</time>
      </trkpt>
      <trkpt lat="47.79092" lon="-2.44257">
        <ele>21.3</ele>
        <time>2025-02-11T07:46:43Z</time>
      </trkpt>
      <trkpt lat="47.79093" lon="-2.44255">
        <ele>21.3</ele>
        <time>2025-02-11T07:46:44Z</time>
      </trkpt>
      <trkpt lat="47.79094" lon="-2.44253">
        <ele>21.4</ele>
        <time>2025-02-11T07:46:45Z</time>
      </trkpt>
      <trkpt lat="47.79095" lon="-2.44252">
        <ele>21.4</ele>
        <time>2025-02-11T07:46:46Z</time>
      </trkpt>
      <trkpt lat="47.79095" lon="-2.4425">
        <ele>21.4</ele>
        <time>2025-02-11T07:46:47Z</time>
      </trkpt>
      <trkpt lat="47.79096" lon="-2.44249">
        <ele>21.5</ele>
        <time>2025-02-11T07:46:48Z</time>
      </trkpt>
      <trkpt lat="47.79097" lon="-2.44248">
        <ele>21.5</ele>
        <time>2025-02-11T07:46:49Z</time>
      </trkpt>
      <trkpt lat="47.79098" lon="-2.44247">
        <ele>21.5</ele>
        <time>2025-02-11T07:46:50Z</time>
      </trkpt>
      <trkpt lat="47.79099" lon="-2.44246">
        <ele>21.5</ele>
        <time>2025-02-11T07:46:51Z</time>
      </trkpt>
      <trkpt lat="47.791" lon="-2.44244">
        <ele>21.5</ele>
        <time>2025-02-11T07:46:52Z</time>
      </trkpt>
      <trkpt lat="47.79101" lon="-2.44243">
        <ele>21.5</ele>
        <time>2025-02-11T07:46:53Z</time>
      </trkpt>
      <trkpt lat="47.79102" lon="-2.44242">
        <ele>21.5</ele>
        <time>2025-02-11T07:46:54Z</time>
      </trkpt>
      <trkpt lat="47.79103" lon="-2.44241">
        <ele>21.5</ele>
        <time>2025-02-11T07:46:55Z</time>
      </trkpt>
      <trkpt lat="47.79104" lon="-2.4424">
        <ele>21.5</ele>
        <time>2025-02-11T07:46:56Z</time>
      </trkpt>
      <trkpt lat="47.79105" lon="-2.44238">
        <ele>21.4</ele>
        <time>2025-02-11T07:46:57Z</time>
      </trkpt>
      <trkpt lat="47.79106" lon="-2.44236">
        <ele>21.4</ele>
        <time>2025-02-11T07:46:58Z</time>
      </trkpt>
      <trkpt lat="47.79107" lon="-2.44235">
        <ele>21.4</ele>
        <time>2025-02-11T07:46:59Z</time>
      </trkpt>
      <trkpt lat="47.79107" lon="-2.44234">
        <ele>21.3</ele>
        <time>2025-02-11T07:47:00Z</time>
      </trkpt>
      <trkpt lat="47.79108" lon="-2.44232">
        <ele>21.3</ele>
        <time>2025-02-11T07:47:01Z</time>
      </trkpt>
      <trkpt lat="47.79109" lon="-2.44231">
        <ele>21.3</ele>
        <time>2025-02-11T07:47:02Z</time>
      </trkpt>
      <trkpt lat="47.7911" lon="-2.44229">
        <ele>21.2</ele>
        <time>2025-02-11T07:47:03Z</time>
      </trkpt>
      <trkpt lat="47.7911" lon="-2.44228">
        <ele>21.2</ele>
        <time>2025-02-11T07:47:04Z</time>
      </trkpt>
      <trkpt lat="47.79111" lon="-2.44226">
        <ele>21.2</ele>
        <time>2025-02-11T07:47:05Z</time>
      </trkpt>
      <trkpt lat="47.79112" lon="-2.44225">
        <ele>21.1</ele>
        <time>2025-02-11T07:47:06Z</time>
      </trkpt>
      <trkpt lat="47.79113" lon="-2.44223">
        <ele>21.1</ele>
        <time>2025-02-11T07:47:07Z</time>
      </trkpt>
      <trkpt lat="47.79114" lon="-2.44222">
        <ele>21.1</ele>
        <time>2025-02-11T07:47:08Z</time>
      </trkpt>
      <trkpt lat="47.79115" lon="-2.4422">
        <ele>21.1</ele>
        <time>2025-02-11T07:47:09Z</time>
      </trkpt>
      <trkpt lat="47.79115" lon="-2.44218">
        <ele>21.1</ele>
        <time>2025-02-11T07:47:10Z</time>
      </trkpt>
      <trkpt lat="47.79116" lon="-2.44217">
        <ele>21.2</ele>
        <time>2025-02-11T07:47:11Z</time>
      </trkpt>
      <trkpt lat="47.79116" lon="-2.44215">
        <ele>21.2</ele>
        <time>2025-02-11T07:47:12Z</time>
      </trkpt>
      <trkpt lat="47.79117" lon="-2.44214">
        <ele>21.2</ele>
        <time>2025-02-11T07:47:13Z</time>
      </trkpt>
      <trkpt lat="47.79118" lon="-2.44213">
        <ele>21.2</ele>
        <time>2025-02-11T07:47:14Z</time>
      </trkpt>
      <trkpt lat="47.79118" lon="-2.44211">
        <ele>21.3</ele>
        <time>2025-02-11T07:47:15Z</time>
      </trkpt>
      <trkpt lat="47.79119" lon="-2.4421">
        <ele>21.3</ele>
        <time>2025-02-11T07:47:16Z</time>
      </trkpt>
      <trkpt lat="47.7912" lon="-2.44208">
        <ele>21.3</ele>
        <time>2025-02-11T07:47:17Z</time>
      </trkpt>
      <trkpt lat="47.7912" lon="-2.44206">
        <ele>21.3</ele>
        <time>2025-02-11T07:47:18Z</time>
      </trkpt>
      <trkpt lat="47.79121" lon="-2.44205">
        <ele>21.3</ele>
        <time>2025-02-11T07:47:19Z</time>
      </trkpt>
      <trkpt lat="47.79121" lon="-2.44203">
        <ele>21.4</ele>
        <time>2025-02-11T07:47:20Z</time>
      </trkpt>
      <trkpt lat="47.79122" lon="-2.44201">
        <ele>21.4</ele>
        <time>2025-02-11T07:47:21Z</time>
      </trkpt>
      <trkpt lat="47.79123" lon="-2.44199">
        <ele>21.4</ele>
        <time>2025-02-11T07:47:22Z</time>
      </trkpt>
      <trkpt lat="47.79123" lon="-2.44198">
        <ele>21.4</ele>
        <time>2025-02-11T07:47:23Z</time>
      </trkpt>
      <trkpt lat="47.79124" lon="-2.44196">
        <ele>21.5</ele>
        <time>2025-02-11T07:47:24Z</time>
      </trkpt>
      <trkpt lat="47.79125" lon="-2.44194">
        <ele>21.5</ele>
        <time>2025-02-11T07:47:25Z</time>
      </trkpt>
      <trkpt lat="47.79125" lon="-2.44192">
        <ele>21.5</ele>
        <time>2025-02-11T07:47:26Z</time>
      </trkpt>
      <trkpt lat="47.79126" lon="-2.4419">
        <ele>21.4</ele>
        <time>2025-02-11T07:47:27Z</time>
      </trkpt>
      <trkpt lat="47.79126" lon="-2.44189">
        <ele>21.4</ele>
        <time>2025-02-11T07:47:28Z</time>
      </trkpt>
      <trkpt lat="47.79126" lon="-2.44187">
        <ele>21.4</ele>
        <time>2025-02-11T07:47:29Z</time>
      </trkpt>
      <trkpt lat="47.79127" lon="-2.44185">
        <ele>21.4</ele>
        <time>2025-02-11T07:47:30Z</time>
      </trkpt>
      <trkpt lat="47.79127" lon="-2.44183">
        <ele>21.3</ele>
        <time>2025-02-11T07:47:31Z</time>
      </trkpt>
      <trkpt lat="47.79128" lon="-2.44181">
        <ele>21.3</ele>
        <time>2025-02-11T07:47:32Z</time>
      </trkpt>
      <trkpt lat="47.79128" lon="-2.44179">
        <ele>21.3</ele>
        <time>2025-02-11T07:47:33Z</time>
      </trkpt>
      <trkpt lat="47.79128" lon="-2.44177">
        <ele>21.2</ele>
        <time>2025-02-11T07:47:34Z</time>
      </trkpt>
      <trkpt lat="47.79129" lon="-2.44176">
        <ele>21.2</ele>
        <time>2025-02-11T07:47:35Z</time>
      </trkpt>
      <trkpt lat="47.7913" lon="-2.44174">
        <ele>21.2</ele>
        <time>2025-02-11T07:47:36Z</time>
      </trkpt>
      <trkpt lat="47.79131" lon="-2.44172">
        <ele>21.1</ele>
        <time>2025-02-11T07:47:37Z</time>
      </trkpt>
      <trkpt lat="47.79132" lon="-2.44171">
        <ele>21.1</ele>
        <time>2025-02-11T07:47:38Z</time>
      </trkpt>
      <trkpt lat="47.79133" lon="-2.44169">
        <ele>21.1</ele>
        <time>2025-02-11T07:47:39Z</time>
      </trkpt>
      <trkpt lat="47.79133" lon="-2.44167">
        <ele>21</ele>
        <time>2025-02-11T07:47:40Z</time>
      </trkpt>
      <trkpt lat="47.79134" lon="-2.44166">
        <ele>21</ele>
        <time>2025-02-11T07:47:41Z</time>
      </trkpt>
      <trkpt lat="47.79134" lon="-2.44164">
        <ele>21</ele>
        <time>2025-02-11T07:47:42Z</time>
      </trkpt>
      <trkpt lat="47.79135" lon="-2.44162">
        <ele>21</ele>
        <time>2025-02-11T07:47:43Z</time>
      </trkpt>
      <trkpt lat="47.79135" lon="-2.4416">
        <ele>21</ele>
        <time>2025-02-11T07:47:44Z</time>
      </trkpt>
      <trkpt lat="47.79136" lon="-2.44159">
        <ele>21</ele>
        <time>2025-02-11T07:47:45Z</time>
      </trkpt>
      <trkpt lat="47.79136" lon="-2.44157">
        <ele>21</ele>
        <time>2025-02-11T07:47:46Z</time>
      </trkpt>
      <trkpt lat="47.79137" lon="-2.44155">
        <ele>21</ele>
        <time>2025-02-11T07:47:47Z</time>
      </trkpt>
      <trkpt lat="47.79137" lon="-2.44153">
        <ele>21</ele>
        <time>2025-02-11T07:47:48Z</time>
      </trkpt>
      <trkpt lat="47.79138" lon="-2.44151">
        <ele>21</ele>
        <time>2025-02-11T07:47:49Z</time>
      </trkpt>
      <trkpt lat="47.79138" lon="-2.4415">
        <ele>21</ele>
        <time>2025-02-11T07:47:50Z</time>
      </trkpt>
      <trkpt lat="47.79139" lon="-2.44148">
        <ele>21</ele>
        <time>2025-02-11T07:47:51Z</time>
      </trkpt>
      <trkpt lat="47.79139" lon="-2.44147">
        <ele>21</ele>
        <time>2025-02-11T07:47:52Z</time>
      </trkpt>
      <trkpt lat="47.7914" lon="-2.44145">
        <ele>21</ele>
        <time>2025-02-11T07:47:53Z</time>
      </trkpt>
      <trkpt lat="47.79141" lon="-2.44144">
        <ele>21</ele>
        <time>2025-02-11T07:47:54Z</time>
      </trkpt>
      <trkpt lat="47.79141" lon="-2.44143">
        <ele>21</ele>
        <time>2025-02-11T07:47:55Z</time>
      </trkpt>
      <trkpt lat="47.79142" lon="-2.44142">
        <ele>21</ele>
        <time>2025-02-11T07:47:56Z</time>
      </trkpt>
      <trkpt lat="47.79143" lon="-2.44141">
        <ele>21</ele>
        <time>2025-02-11T07:47:57Z</time>
      </trkpt>
      <trkpt lat="47.79144" lon="-2.4414">
        <ele>21</ele>
        <time>2025-02-11T07:47:58Z</time>
      </trkpt>
      <trkpt lat="47.79145" lon="-2.44138">
        <ele>21</ele>
        <time>2025-02-11T07:47:59Z</time>
      </trkpt>
      <trkpt lat="47.79146" lon="-2.44137">
        <ele>21</ele>
        <time>2025-02-11T07:48:00Z</time>
      </trkpt>
      <trkpt lat="47.79146" lon="-2.44135">
        <ele>21</ele>
        <time>2025-02-11T07:48:01Z</time>
      </trkpt>
      <trkpt lat="47.79147" lon="-2.44133">
        <ele>21</ele>
        <time>2025-02-11T07:48:02Z</time>
      </trkpt>
      <trkpt lat="47.79148" lon="-2.44131">
        <ele>21</ele>
        <time>2025-02-11T07:48:03Z</time>
      </trkpt>
      <trkpt lat="47.79149" lon="-2.4413">
        <ele>21</ele>
        <time>2025-02-11T07:48:04Z</time>
      </trkpt>
      <trkpt lat="47.7915" lon="-2.44129">
        <ele>21</ele>
        <time>2025-02-11T07:48:05Z</time>
      </trkpt>
      <trkpt lat="47.79152" lon="-2.44129">
        <ele>21</ele>
        <time>2025-02-11T07:48:06Z</time>
      </trkpt>
      <trkpt lat="47.79153" lon="-2.44128">
        <ele>21</ele>
        <time>2025-02-11T07:48:07Z</time>
      </trkpt>
      <trkpt lat="47.79155" lon="-2.44128">
        <ele>21</ele>
        <time>2025-02-11T07:48:08Z</time>
      </trkpt>
      <trkpt lat="47.79156" lon="-2.44127">
        <ele>21</ele>
        <time>2025-02-11T07:48:09Z</time>
      </trkpt>
      <trkpt lat="47.79157" lon="-2.44126">
        <ele>21</ele>
        <time>2025-02-11T07:48:10Z</time>
      </trkpt>
      <trkpt lat="47.79158" lon="-2.44125">
        <ele>21</ele>
        <time>2025-02-11T07:48:11Z</time>
      </trkpt>
      <trkpt lat="47.79159" lon="-2.44124">
        <ele>21</ele>
        <time>2025-02-11T07:48:12Z</time>
      </trkpt>
      <trkpt lat="47.7916" lon="-2.44123">
        <ele>21</ele>
        <time>2025-02-11T07:48:13Z</time>
      </trkpt>
      <trkpt lat="47.79161" lon="-2.44122">
        <ele>21</ele>
        <time>2025-02-11T07:48:14Z</time>
      </trkpt>
      <trkpt lat="47.79162" lon="-2.44121">
        <ele>21</ele>
        <time>2025-02-11T07:48:15Z</time>
      </trkpt>
      <trkpt lat="47.79163" lon="-2.4412">
        <ele>21</ele>
        <time>2025-02-11T07:48:16Z</time>
      </trkpt>
      <trkpt lat="47.79164" lon="-2.44118">
        <ele>21</ele>
        <time>2025-02-11T07:48:17Z</time>
      </trkpt>
      <trkpt lat="47.79165" lon="-2.44117">
        <ele>21</ele>
        <time>2025-02-11T07:48:18Z</time>
      </trkpt>
      <trkpt lat="47.79166" lon="-2.44116">
        <ele>21</ele>
        <time>2025-02-11T07:48:19Z</time>
      </trkpt>
      <trkpt lat="47.79167" lon="-2.44115">
        <ele>21</ele>
        <time>2025-02-11T07:48:20Z</time>
      </trkpt>
      <trkpt lat="47.79168" lon="-2.44113">
        <ele>21</ele>
        <time>2025-02-11T07:48:21Z</time>
      </trkpt>
      <trkpt lat="47.79169" lon="-2.44112">
        <ele>21.1</ele>
        <time>2025-02-11T07:48:22Z</time>
      </trkpt>
      <trkpt lat="47.7917" lon="-2.4411">
        <ele>21.1</ele>
        <time>2025-02-11T07:48:23Z</time>
      </trkpt>
      <trkpt lat="47.79171" lon="-2.44109">
        <ele>21.2</ele>
        <time>2025-02-11T07:48:24Z</time>
      </trkpt>
      <trkpt lat="47.79172" lon="-2.44108">
        <ele>21.2</ele>
        <time>2025-02-11T07:48:25Z</time>
      </trkpt>
      <trkpt lat="47.79173" lon="-2.44107">
        <ele>21.2</ele>
        <time>2025-02-11T07:48:26Z</time>
      </trkpt>
      <trkpt lat="47.79174" lon="-2.44106">
        <ele>21.2</ele>
        <time>2025-02-11T07:48:27Z</time>
      </trkpt>
      <trkpt lat="47.79175" lon="-2.44105">
        <ele>21.3</ele>
        <time>2025-02-11T07:48:28Z</time>
      </trkpt>
      <trkpt lat="47.79175" lon="-2.44103">
        <ele>21.3</ele>
        <time>2025-02-11T07:48:29Z</time>
      </trkpt>
      <trkpt lat="47.79176" lon="-2.44102">
        <ele>21.3</ele>
        <time>2025-02-11T07:48:30Z</time>
      </trkpt>
      <trkpt lat="47.79177" lon="-2.44101">
        <ele>21.4</ele>
        <time>2025-02-11T07:48:31Z</time>
      </trkpt>
      <trkpt lat="47.79179" lon="-2.44101">
        <ele>21.4</ele>
        <time>2025-02-11T07:48:32Z</time>
      </trkpt>
      <trkpt lat="47.7918" lon="-2.441">
        <ele>21.5</ele>
        <time>2025-02-11T07:48:33Z</time>
      </trkpt>
      <trkpt lat="47.79181" lon="-2.44098">
        <ele>21.5</ele>
        <time>2025-02-11T07:48:34Z</time>
      </trkpt>
      <trkpt lat="47.79181" lon="-2.44096">
        <ele>21.5</ele>
        <time>2025-02-11T07:48:35Z</time>
      </trkpt>
      <trkpt lat="47.79182" lon="-2.44095">
        <ele>21.6</ele>
        <time>2025-02-11T07:48:36Z</time>
      </trkpt>
      <trkpt lat="47.79183" lon="-2.44094">
        <ele>21.6</ele>
        <time>2025-02-11T07:48:37Z</time>
      </trkpt>
      <trkpt lat="47.79185" lon="-2.44093">
        <ele>21.6</ele>
        <time>2025-02-11T07:48:38Z</time>
      </trkpt>
      <trkpt lat="47.79186" lon="-2.44092">
        <ele>21.7</ele>
        <time>2025-02-11T07:48:39Z</time>
      </trkpt>
      <trkpt lat="47.79187" lon="-2.44091">
        <ele>21.7</ele>
        <time>2025-02-11T07:48:40Z</time>
      </trkpt>
      <trkpt lat="47.79188" lon="-2.4409">
        <ele>21.8</ele>
        <time>2025-02-11T07:48:41Z</time>
      </trkpt>
      <trkpt lat="47.79189" lon="-2.44089">
        <ele>21.8</ele>
        <time>2025-02-11T07:48:42Z</time>
      </trkpt>
      <trkpt lat="47.7919" lon="-2.44087">
        <ele>21.9</ele>
        <time>2025-02-11T07:48:43Z</time>
      </trkpt>
      <trkpt lat="47.79191" lon="-2.44086">
        <ele>21.9</ele>
        <time>2025-02-11T07:48:44Z</time>
      </trkpt>
      <trkpt lat="47.79193" lon="-2.44085">
        <ele>21.9</ele>
        <time>2025-02-11T07:48:45Z</time>
      </trkpt>
      <trkpt lat="47.79193" lon="-2.44083">
        <ele>22</ele>
        <time>2025-02-11T07:48:46Z</time>
      </trkpt>
      <trkpt lat="47.79194" lon="-2.44082">
        <ele>21.9</ele>
        <time>2025-02-11T07:48:47Z</time>
      </trkpt>
      <trkpt lat="47.79195" lon="-2.4408">
        <ele>21.9</ele>
        <time>2025-02-11T07:48:48Z</time>
      </trkpt>
      <trkpt lat="47.79196" lon="-2.44079">
        <ele>21.9</ele>
        <time>2025-02-11T07:48:49Z</time>
      </trkpt>
      <trkpt lat="47.79196" lon="-2.44079">
        <ele>21.9</ele>
        <time>2025-02-11T07:48:50Z</time>
      </trkpt>
      <trkpt lat="47.79197" lon="-2.44078">
        <ele>21.9</ele>
        <time>2025-02-11T07:48:51Z</time>
      </trkpt>
      <trkpt lat="47.79198" lon="-2.44076">
        <ele>21.9</ele>
        <time>2025-02-11T07:48:52Z</time>
      </trkpt>
      <trkpt lat="47.79199" lon="-2.44075">
        <ele>21.8</ele>
        <time>2025-02-11T07:48:53Z</time>
      </trkpt>
      <trkpt lat="47.792" lon="-2.44074">
        <ele>21.8</ele>
        <time>2025-02-11T07:48:54Z</time>
      </trkpt>
      <trkpt lat="47.79201" lon="-2.44073">
        <ele>21.8</ele>
        <time>2025-02-11T07:48:55Z</time>
      </trkpt>
      <trkpt lat="47.79202" lon="-2.44072">
        <ele>21.8</ele>
        <time>2025-02-11T07:48:56Z</time>
      </trkpt>
      <trkpt lat="47.79203" lon="-2.4407">
        <ele>21.8</ele>
        <time>2025-02-11T07:48:57Z</time>
      </trkpt>
      <trkpt lat="47.79203" lon="-2.44068">
        <ele>21.8</ele>
        <time>2025-02-11T07:48:58Z</time>
      </trkpt>
      <trkpt lat="47.79204" lon="-2.44067">
        <ele>21.8</ele>
        <time>2025-02-11T07:48:59Z</time>
      </trkpt>
      <trkpt lat="47.79205" lon="-2.44066">
        <ele>21.7</ele>
        <time>2025-02-11T07:49:00Z</time>
      </trkpt>
      <trkpt lat="47.79206" lon="-2.44064">
        <ele>21.7</ele>
        <time>2025-02-11T07:49:01Z</time>
      </trkpt>
      <trkpt lat="47.79207" lon="-2.44063">
        <ele>21.7</ele>
        <time>2025-02-11T07:49:02Z</time>
      </trkpt>
      <trkpt lat="47.79208" lon="-2.44062">
        <ele>21.7</ele>
        <time>2025-02-11T07:49:03Z</time>
      </trkpt>
      <trkpt lat="47.79208" lon="-2.4406">
        <ele>21.7</ele>
        <time>2025-02-11T07:49:04Z</time>
      </trkpt>
      <trkpt lat="47.79209" lon="-2.44059">
        <ele>21.6</ele>
        <time>2025-02-11T07:49:05Z</time>
      </trkpt>
      <trkpt lat="47.7921" lon="-2.44057">
        <ele>21.6</ele>
        <time>2025-02-11T07:49:06Z</time>
      </trkpt>
      <trkpt lat="47.79211" lon="-2.44056">
        <ele>21.6</ele>
        <time>2025-02-11T07:49:07Z</time>
      </trkpt>
      <trkpt lat="47.79212" lon="-2.44055">
        <ele>21.6</ele>
        <time>2025-02-11T07:49:08Z</time>
      </trkpt>
      <trkpt lat="47.79213" lon="-2.44053">
        <ele>21.6</ele>
        <time>2025-02-11T07:49:09Z</time>
      </trkpt>
      <trkpt lat="47.79213" lon="-2.44052">
        <ele>21.5</ele>
        <time>2025-02-11T07:49:10Z</time>
      </trkpt>
      <trkpt lat="47.79214" lon="-2.4405">
        <ele>21.5</ele>
        <time>2025-02-11T07:49:11Z</time>
      </trkpt>
      <trkpt lat="47.79215" lon="-2.44049">
        <ele>21.5</ele>
        <time>2025-02-11T07:49:12Z</time>
      </trkpt>
      <trkpt lat="47.79216" lon="-2.44048">
        <ele>21.5</ele>
        <time>2025-02-11T07:49:13Z</time>
      </trkpt>
      <trkpt lat="47.79217" lon="-2.44047">
        <ele>21.5</ele>
        <time>2025-02-11T07:49:14Z</time>
      </trkpt>
      <trkpt lat="47.79219" lon="-2.44047">
        <ele>21.6</ele>
        <time>2025-02-11T07:49:15Z</time>
      </trkpt>
      <trkpt lat="47.7922" lon="-2.44046">
        <ele>21.6</ele>
        <time>2025-02-11T07:49:16Z</time>
      </trkpt>
      <trkpt lat="47.79221" lon="-2.44045">
        <ele>21.6</ele>
        <time>2025-02-11T07:49:17Z</time>
      </trkpt>
      <trkpt lat="47.79222" lon="-2.44044">
        <ele>21.6</ele>
        <time>2025-02-11T07:49:18Z</time>
      </trkpt>
      <trkpt lat="47.79223" lon="-2.44043">
        <ele>21.6</ele>
        <time>2025-02-11T07:49:19Z</time>
      </trkpt>
      <trkpt lat="47.79224" lon="-2.44042">
        <ele>21.6</ele>
        <time>2025-02-11T07:49:20Z</time>
      </trkpt>
      <trkpt lat="47.79225" lon="-2.44041">
        <ele>21.6</ele>
        <time>2025-02-11T07:49:21Z</time>
      </trkpt>
      <trkpt lat="47.79226" lon="-2.44041">
        <ele>21.7</ele>
        <time>2025-02-11T07:49:22Z</time>
      </trkpt>
      <trkpt lat="47.79227" lon="-2.4404">
        <ele>21.7</ele>
        <time>2025-02-11T07:49:23Z</time>
      </trkpt>
      <trkpt lat="47.79228" lon="-2.44039">
        <ele>21.7</ele>
        <time>2025-02-11T07:49:24Z</time>
      </trkpt>
      <trkpt lat="47.79229" lon="-2.44037">
        <ele>21.7</ele>
        <time>2025-02-11T07:49:25Z</time>
      </trkpt>
      <trkpt lat="47.7923" lon="-2.44036">
        <ele>21.8</ele>
        <time>2025-02-11T07:49:26Z</time>
      </trkpt>
      <trkpt lat="47.7923" lon="-2.44035">
        <ele>21.8</ele>
        <time>2025-02-11T07:49:27Z</time>
      </trkpt>
      <trkpt lat="47.79231" lon="-2.44034">
        <ele>21.8</ele>
        <time>2025-02-11T07:49:28Z</time>
      </trkpt>
      <trkpt lat="47.79232" lon="-2.44033">
        <ele>21.8</ele>
        <time>2025-02-11T07:49:29Z</time>
      </trkpt>
      <trkpt lat="47.79233" lon="-2.44031">
        <ele>21.9</ele>
        <time>2025-02-11T07:49:30Z</time>
      </trkpt>
      <trkpt lat="47.79234" lon="-2.4403">
        <ele>21.9</ele>
        <time>2025-02-11T07:49:31Z</time>
      </trkpt>
      <trkpt lat="47.79235" lon="-2.44029">
        <ele>21.9</ele>
        <time>2025-02-11T07:49:32Z</time>
      </trkpt>
      <trkpt lat="47.79236" lon="-2.44028">
        <ele>22</ele>
        <time>2025-02-11T07:49:33Z</time>
      </trkpt>
      <trkpt lat="47.79237" lon="-2.44027">
        <ele>22</ele>
        <time>2025-02-11T07:49:34Z</time>
      </trkpt>
      <trkpt lat="47.79238" lon="-2.44026">
        <ele>22.1</ele>
        <time>2025-02-11T07:49:35Z</time>
      </trkpt>
      <trkpt lat="47.79239" lon="-2.44025">
        <ele>22.2</ele>
        <time>2025-02-11T07:49:36Z</time>
      </trkpt>
      <trkpt lat="47.7924" lon="-2.44024">
        <ele>22.2</ele>
        <time>2025-02-11T07:49:37Z</time>
      </trkpt>
      <trkpt lat="47.79242" lon="-2.44023">
        <ele>22.3</ele>
        <time>2025-02-11T07:49:38Z</time>
      </trkpt>
      <trkpt lat="47.79243" lon="-2.44022">
        <ele>22.3</ele>
        <time>2025-02-11T07:49:39Z</time>
      </trkpt>
      <trkpt lat="47.79244" lon="-2.44021">
        <ele>22.3</ele>
        <time>2025-02-11T07:49:40Z</time>
      </trkpt>
      <trkpt lat="47.79245" lon="-2.4402">
        <ele>22.4</ele>
        <time>2025-02-11T07:49:41Z</time>
      </trkpt>
      <trkpt lat="47.79246" lon="-2.44019">
        <ele>22.4</ele>
        <time>2025-02-11T07:49:42Z</time>
      </trkpt>
      <trkpt lat="47.79247" lon="-2.44018">
        <ele>22.5</ele>
        <time>2025-02-11T07:49:43Z</time>
      </trkpt>
      <trkpt lat="47.79248" lon="-2.44017">
        <ele>22.5</ele>
        <time>2025-02-11T07:49:44Z</time>
      </trkpt>
      <trkpt lat="47.79249" lon="-2.44016">
        <ele>22.5</ele>
        <time>2025-02-11T07:49:45Z</time>
      </trkpt>
      <trkpt lat="47.7925" lon="-2.44015">
        <ele>22.5</ele>
        <time>2025-02-11T07:49:46Z</time>
      </trkpt>
      <trkpt lat="47.79251" lon="-2.44014">
        <ele>22.5</ele>
        <time>2025-02-11T07:49:47Z</time>
      </trkpt>
      <trkpt lat="47.79252" lon="-2.44012">
        <ele>22.6</ele>
        <time>2025-02-11T07:49:48Z</time>
      </trkpt>
      <trkpt lat="47.79253" lon="-2.44011">
        <ele>22.6</ele>
        <time>2025-02-11T07:49:49Z</time>
      </trkpt>
      <trkpt lat="47.79254" lon="-2.4401">
        <ele>22.6</ele>
        <time>2025-02-11T07:49:50Z</time>
      </trkpt>
      <trkpt lat="47.79255" lon="-2.4401">
        <ele>22.6</ele>
        <time>2025-02-11T07:49:51Z</time>
      </trkpt>
      <trkpt lat="47.79256" lon="-2.44008">
        <ele>22.6</ele>
        <time>2025-02-11T07:49:52Z</time>
      </trkpt>
      <trkpt lat="47.79257" lon="-2.44007">
        <ele>22.7</ele>
        <time>2025-02-11T07:49:53Z</time>
      </trkpt>
      <trkpt lat="47.79257" lon="-2.44006">
        <ele>22.7</ele>
        <time>2025-02-11T07:49:54Z</time>
      </trkpt>
      <trkpt lat="47.79258" lon="-2.44004">
        <ele>22.7</ele>
        <time>2025-02-11T07:49:55Z</time>
      </trkpt>
      <trkpt lat="47.79259" lon="-2.44003">
        <ele>22.7</ele>
        <time>2025-02-11T07:49:56Z</time>
      </trkpt>
      <trkpt lat="47.7926" lon="-2.44003">
        <ele>22.8</ele>
        <time>2025-02-11T07:49:57Z</time>
      </trkpt>
      <trkpt lat="47.79261" lon="-2.44001">
        <ele>22.8</ele>
        <time>2025-02-11T07:49:58Z</time>
      </trkpt>
      <trkpt lat="47.79262" lon="-2.44">
        <ele>22.8</ele>
        <time>2025-02-11T07:49:59Z</time>
      </trkpt>
      <trkpt lat="47.79263" lon="-2.43999">
        <ele>22.9</ele>
        <time>2025-02-11T07:50:00Z</time>
      </trkpt>
      <trkpt lat="47.79264" lon="-2.43998">
        <ele>22.9</ele>
        <time>2025-02-11T07:50:01Z</time>
      </trkpt>
      <trkpt lat="47.79265" lon="-2.43998">
        <ele>23</ele>
        <time>2025-02-11T07:50:02Z</time>
      </trkpt>
      <trkpt lat="47.79266" lon="-2.43996">
        <ele>23</ele>
        <time>2025-02-11T07:50:03Z</time>
      </trkpt>
      <trkpt lat="47.79266" lon="-2.43995">
        <ele>23.1</ele>
        <time>2025-02-11T07:50:04Z</time>
      </trkpt>
      <trkpt lat="47.79267" lon="-2.43993">
        <ele>23.1</ele>
        <time>2025-02-11T07:50:05Z</time>
      </trkpt>
      <trkpt lat="47.79268" lon="-2.43991">
        <ele>23.1</ele>
        <time>2025-02-11T07:50:06Z</time>
      </trkpt>
      <trkpt lat="47.79269" lon="-2.4399">
        <ele>23.1</ele>
        <time>2025-02-11T07:50:07Z</time>
      </trkpt>
      <trkpt lat="47.7927" lon="-2.43989">
        <ele>23.1</ele>
        <time>2025-02-11T07:50:08Z</time>
      </trkpt>
      <trkpt lat="47.7927" lon="-2.43988">
        <ele>23.1</ele>
        <time>2025-02-11T07:50:09Z</time>
      </trkpt>
      <trkpt lat="47.79271" lon="-2.43986">
        <ele>23.1</ele>
        <time>2025-02-11T07:50:10Z</time>
      </trkpt>
      <trkpt lat="47.79272" lon="-2.43985">
        <ele>23.1</ele>
        <time>2025-02-11T07:50:11Z</time>
      </trkpt>
      <trkpt lat="47.79272" lon="-2.43984">
        <ele>23.1</ele>
        <time>2025-02-11T07:50:12Z</time>
      </trkpt>
      <trkpt lat="47.79273" lon="-2.43982">
        <ele>23.1</ele>
        <time>2025-02-11T07:50:13Z</time>
      </trkpt>
      <trkpt lat="47.79274" lon="-2.43981">
        <ele>23.1</ele>
        <time>2025-02-11T07:50:14Z</time>
      </trkpt>
      <trkpt lat="47.79275" lon="-2.43979">
        <ele>23.1</ele>
        <time>2025-02-11T07:50:15Z</time>
      </trkpt>
      <trkpt lat="47.79275" lon="-2.43978">
        <ele>23.1</ele>
        <time>2025-02-11T07:50:16Z</time>
      </trkpt>
      <trkpt lat="47.79277" lon="-2.43977">
        <ele>23.1</ele>
        <time>2025-02-11T07:50:17Z</time>
      </trkpt>
      <trkpt lat="47.79278" lon="-2.43977">
        <ele>23.1</ele>
        <time>2025-02-11T07:50:18Z</time>
      </trkpt>
      <trkpt lat="47.79279" lon="-2.43975">
        <ele>23.2</ele>
        <time>2025-02-11T07:50:19Z</time>
      </trkpt>
      <trkpt lat="47.79279" lon="-2.43974">
        <ele>23.2</ele>
        <time>2025-02-11T07:50:20Z</time>
      </trkpt>
      <trkpt lat="47.7928" lon="-2.43973">
        <ele>23.2</ele>
        <time>2025-02-11T07:50:21Z</time>
      </trkpt>
      <trkpt lat="47.79282" lon="-2.43972">
        <ele>23.3</ele>
        <time>2025-02-11T07:50:22Z</time>
      </trkpt>
      <trkpt lat="47.79283" lon="-2.43972">
        <ele>23.3</ele>
        <time>2025-02-11T07:50:23Z</time>
      </trkpt>
      <trkpt lat="47.79284" lon="-2.43971">
        <ele>23.4</ele>
        <time>2025-02-11T07:50:24Z</time>
      </trkpt>
      <trkpt lat="47.79285" lon="-2.4397">
        <ele>23.5</ele>
        <time>2025-02-11T07:50:25Z</time>
      </trkpt>
      <trkpt lat="47.79286" lon="-2.43969">
        <ele>23.5</ele>
        <time>2025-02-11T07:50:26Z</time>
      </trkpt>
      <trkpt lat="47.79288" lon="-2.43969">
        <ele>23.6</ele>
        <time>2025-02-11T07:50:27Z</time>
      </trkpt>
      <trkpt lat="47.79289" lon="-2.43969">
        <ele>23.7</ele>
        <time>2025-02-11T07:50:28Z</time>
      </trkpt>
      <trkpt lat="47.7929" lon="-2.43969">
        <ele>23.8</ele>
        <time>2025-02-11T07:50:29Z</time>
      </trkpt>
      <trkpt lat="47.79292" lon="-2.43968">
        <ele>23.9</ele>
        <time>2025-02-11T07:50:30Z</time>
      </trkpt>
      <trkpt lat="47.79293" lon="-2.43968">
        <ele>23.9</ele>
        <time>2025-02-11T07:50:31Z</time>
      </trkpt>
      <trkpt lat="47.79294" lon="-2.43968">
        <ele>24</ele>
        <time>2025-02-11T07:50:32Z</time>
      </trkpt>
      <trkpt lat="47.79295" lon="-2.43967">
        <ele>24.1</ele>
        <time>2025-02-11T07:50:33Z</time>
      </trkpt>
      <trkpt lat="47.79297" lon="-2.43967">
        <ele>24.2</ele>
        <time>2025-02-11T07:50:34Z</time>
      </trkpt>
      <trkpt lat="47.79298" lon="-2.43966">
        <ele>24.2</ele>
        <time>2025-02-11T07:50:35Z</time>
      </trkpt>
      <trkpt lat="47.79299" lon="-2.43966">
        <ele>24.3</ele>
        <time>2025-02-11T07:50:36Z</time>
      </trkpt>
      <trkpt lat="47.793" lon="-2.43966">
        <ele>24.4</ele>
        <time>2025-02-11T07:50:37Z</time>
      </trkpt>
      <trkpt lat="47.79301" lon="-2.43967">
        <ele>24.5</ele>
        <time>2025-02-11T07:50:38Z</time>
      </trkpt>
      <trkpt lat="47.79303" lon="-2.43967">
        <ele>24.6</ele>
        <time>2025-02-11T07:50:39Z</time>
      </trkpt>
      <trkpt lat="47.79304" lon="-2.43967">
        <ele>24.7</ele>
        <time>2025-02-11T07:50:40Z</time>
      </trkpt>
      <trkpt lat="47.79305" lon="-2.43967">
        <ele>24.8</ele>
        <time>2025-02-11T07:50:41Z</time>
      </trkpt>
      <trkpt lat="47.79306" lon="-2.43967">
        <ele>24.8</ele>
        <time>2025-02-11T07:50:42Z</time>
      </trkpt>
      <trkpt lat="47.79307" lon="-2.43966">
        <ele>24.9</ele>
        <time>2025-02-11T07:50:43Z</time>
      </trkpt>
      <trkpt lat="47.79309" lon="-2.43966">
        <ele>24.9</ele>
        <time>2025-02-11T07:50:44Z</time>
      </trkpt>
      <trkpt lat="47.7931" lon="-2.43966">
        <ele>25</ele>
        <time>2025-02-11T07:50:45Z</time>
      </trkpt>
      <trkpt lat="47.79311" lon="-2.43966">
        <ele>25</ele>
        <time>2025-02-11T07:50:46Z</time>
      </trkpt>
      <trkpt lat="47.79312" lon="-2.43966">
        <ele>25.1</ele>
        <time>2025-02-11T07:50:47Z</time>
      </trkpt>
      <trkpt lat="47.79313" lon="-2.43966">
        <ele>25.1</ele>
        <time>2025-02-11T07:50:48Z</time>
      </trkpt>
      <trkpt lat="47.79315" lon="-2.43967">
        <ele>25.2</ele>
        <time>2025-02-11T07:50:49Z</time>
      </trkpt>
      <trkpt lat="47.79316" lon="-2.43967">
        <ele>25.3</ele>
        <time>2025-02-11T07:50:50Z</time>
      </trkpt>
      <trkpt lat="47.79317" lon="-2.43967">
        <ele>25.3</ele>
        <time>2025-02-11T07:50:51Z</time>
      </trkpt>
      <trkpt lat="47.79318" lon="-2.43967">
        <ele>25.4</ele>
        <time>2025-02-11T07:50:52Z</time>
      </trkpt>
      <trkpt lat="47.7932" lon="-2.43967">
        <ele>25.4</ele>
        <time>2025-02-11T07:50:53Z</time>
      </trkpt>
      <trkpt lat="47.79321" lon="-2.43967">
        <ele>25.5</ele>
        <time>2025-02-11T07:50:54Z</time>
      </trkpt>
      <trkpt lat="47.79322" lon="-2.43967">
        <ele>25.5</ele>
        <time>2025-02-11T07:50:55Z</time>
      </trkpt>
      <trkpt lat="47.79323" lon="-2.43967">
        <ele>25.6</ele>
        <time>2025-02-11T07:50:56Z</time>
      </trkpt>
      <trkpt lat="47.79324" lon="-2.43967">
        <ele>25.6</ele>
        <time>2025-02-11T07:50:57Z</time>
      </trkpt>
      <trkpt lat="47.79326" lon="-2.43967">
        <ele>25.7</ele>
        <time>2025-02-11T07:50:58Z</time>
      </trkpt>
      <trkpt lat="47.79327" lon="-2.43967">
        <ele>25.7</ele>
        <time>2025-02-11T07:50:59Z</time>
      </trkpt>
      <trkpt lat="47.79328" lon="-2.43967">
        <ele>25.8</ele>
        <time>2025-02-11T07:51:00Z</time>
      </trkpt>
      <trkpt lat="47.79329" lon="-2.43967">
        <ele>25.8</ele>
        <time>2025-02-11T07:51:01Z</time>
      </trkpt>
      <trkpt lat="47.7933" lon="-2.43967">
        <ele>25.9</ele>
        <time>2025-02-11T07:51:02Z</time>
      </trkpt>
      <trkpt lat="47.79331" lon="-2.43966">
        <ele>25.9</ele>
        <time>2025-02-11T07:51:03Z</time>
      </trkpt>
      <trkpt lat="47.79333" lon="-2.43965">
        <ele>26</ele>
        <time>2025-02-11T07:51:04Z</time>
      </trkpt>
      <trkpt lat="47.79334" lon="-2.43965">
        <ele>26</ele>
        <time>2025-02-11T07:51:05Z</time>
      </trkpt>
      <trkpt lat="47.79335" lon="-2.43965">
        <ele>26.1</ele>
        <time>2025-02-11T07:51:06Z</time>
      </trkpt>
      <trkpt lat="47.79336" lon="-2.43965">
        <ele>26.2</ele>
        <time>2025-02-11T07:51:07Z</time>
      </trkpt>
      <trkpt lat="47.79338" lon="-2.43965">
        <ele>26.3</ele>
        <time>2025-02-11T07:51:08Z</time>
      </trkpt>
      <trkpt lat="47.79339" lon="-2.43965">
        <ele>26.3</ele>
        <time>2025-02-11T07:51:09Z</time>
      </trkpt>
      <trkpt lat="47.7934" lon="-2.43964">
        <ele>26.4</ele>
        <time>2025-02-11T07:51:10Z</time>
      </trkpt>
      <trkpt lat="47.79342" lon="-2.43965">
        <ele>26.5</ele>
        <time>2025-02-11T07:51:11Z</time>
      </trkpt>
      <trkpt lat="47.79343" lon="-2.43964">
        <ele>26.6</ele>
        <time>2025-02-11T07:51:12Z</time>
      </trkpt>
      <trkpt lat="47.79344" lon="-2.43964">
        <ele>26.7</ele>
        <time>2025-02-11T07:51:13Z</time>
      </trkpt>
      <trkpt lat="47.79345" lon="-2.43964">
        <ele>26.7</ele>
        <time>2025-02-11T07:51:14Z</time>
      </trkpt>
      <trkpt lat="47.79347" lon="-2.43964">
        <ele>26.8</ele>
        <time>2025-02-11T07:51:15Z</time>
      </trkpt>
      <trkpt lat="47.79348" lon="-2.43964">
        <ele>26.9</ele>
        <time>2025-02-11T07:51:16Z</time>
      </trkpt>
      <trkpt lat="47.79349" lon="-2.43963">
        <ele>26.9</ele>
        <time>2025-02-11T07:51:17Z</time>
      </trkpt>
      <trkpt lat="47.7935" lon="-2.43963">
        <ele>27</ele>
        <time>2025-02-11T07:51:18Z</time>
      </trkpt>
      <trkpt lat="47.79351" lon="-2.43963">
        <ele>27.1</ele>
        <time>2025-02-11T07:51:19Z</time>
      </trkpt>
      <trkpt lat="47.79352" lon="-2.43962">
        <ele>27.1</ele>
        <time>2025-02-11T07:51:20Z</time>
      </trkpt>
      <trkpt lat="47.79353" lon="-2.43961">
        <ele>27.2</ele>
        <time>2025-02-11T07:51:21Z</time>
      </trkpt>
      <trkpt lat="47.79354" lon="-2.43962">
        <ele>27.2</ele>
        <time>2025-02-11T07:51:22Z</time>
      </trkpt>
      <trkpt lat="47.79355" lon="-2.43961">
        <ele>27.2</ele>
        <time>2025-02-11T07:51:23Z</time>
      </trkpt>
      <trkpt lat="47.79356" lon="-2.43959">
        <ele>27.2</ele>
        <time>2025-02-11T07:51:24Z</time>
      </trkpt>
      <trkpt lat="47.79356" lon="-2.43959">
        <ele>27.3</ele>
        <time>2025-02-11T07:51:25Z</time>
      </trkpt>
      <trkpt lat="47.79356" lon="-2.43957">
        <ele>27.2</ele>
        <time>2025-02-11T07:51:26Z</time>
      </trkpt>
      <trkpt lat="47.79357" lon="-2.43956">
        <ele>27.2</ele>
        <time>2025-02-11T07:51:27Z</time>
      </trkpt>
      <trkpt lat="47.79357" lon="-2.43954">
        <ele>27.1</ele>
        <time>2025-02-11T07:51:28Z</time>
      </trkpt>
      <trkpt lat="47.79357" lon="-2.43953">
        <ele>27.1</ele>
        <time>2025-02-11T07:51:29Z</time>
      </trkpt>
      <trkpt lat="47.79358" lon="-2.43952">
        <ele>27.1</ele>
        <time>2025-02-11T07:51:30Z</time>
      </trkpt>
      <trkpt lat="47.79358" lon="-2.43953">
        <ele>27.2</ele>
        <time>2025-02-11T07:51:31Z</time>
      </trkpt>
      <trkpt lat="47.79358" lon="-2.43955">
        <ele>27.2</ele>
        <time>2025-02-11T07:51:32Z</time>
      </trkpt>
      <trkpt lat="47.79358" lon="-2.43957">
        <ele>27.3</ele>
        <time>2025-02-11T07:51:33Z</time>
      </trkpt>
      <trkpt lat="47.79358" lon="-2.43958">
        <ele>27.3</ele>
        <time>2025-02-11T07:51:34Z</time>
      </trkpt>
      <trkpt lat="47.79358" lon="-2.4396">
        <ele>27.4</ele>
        <time>2025-02-11T07:51:35Z</time>
      </trkpt>
      <trkpt lat="47.79358" lon="-2.43962">
        <ele>27.4</ele>
        <time>2025-02-11T07:51:36Z</time>
      </trkpt>
      <trkpt lat="47.79358" lon="-2.43963">
        <ele>27.5</ele>
        <time>2025-02-11T07:51:37Z</time>
      </trkpt>
      <trkpt lat="47.79358" lon="-2.43965">
        <ele>27.5</ele>
        <time>2025-02-11T07:51:38Z</time>
      </trkpt>
      <trkpt lat="47.79357" lon="-2.43967">
        <ele>27.6</ele>
        <time>2025-02-11T07:51:39Z</time>
      </trkpt>
      <trkpt lat="47.79358" lon="-2.43969">
        <ele>27.6</ele>
        <time>2025-02-11T07:51:40Z</time>
      </trkpt>
      <trkpt lat="47.79357" lon="-2.43971">
        <ele>27.7</ele>
        <time>2025-02-11T07:51:41Z</time>
      </trkpt>
      <trkpt lat="47.79357" lon="-2.43973">
        <ele>27.7</ele>
        <time>2025-02-11T07:51:42Z</time>
      </trkpt>
      <trkpt lat="47.79357" lon="-2.43975">
        <ele>27.8</ele>
        <time>2025-02-11T07:51:43Z</time>
      </trkpt>
      <trkpt lat="47.79356" lon="-2.43976">
        <ele>27.8</ele>
        <time>2025-02-11T07:51:44Z</time>
      </trkpt>
      <trkpt lat="47.79356" lon="-2.43978">
        <ele>27.9</ele>
        <time>2025-02-11T07:51:45Z</time>
      </trkpt>
      <trkpt lat="47.79356" lon="-2.4398">
        <ele>27.9</ele>
        <time>2025-02-11T07:51:46Z</time>
      </trkpt>
      <trkpt lat="47.79356" lon="-2.43982">
        <ele>28</ele>
        <time>2025-02-11T07:51:47Z</time>
      </trkpt>
      <trkpt lat="47.79356" lon="-2.43984">
        <ele>28</ele>
        <time>2025-02-11T07:51:48Z</time>
      </trkpt>
      <trkpt lat="47.79355" lon="-2.43985">
        <ele>28.1</ele>
        <time>2025-02-11T07:51:49Z</time>
      </trkpt>
      <trkpt lat="47.79355" lon="-2.43987">
        <ele>28.1</ele>
        <time>2025-02-11T07:51:50Z</time>
      </trkpt>
      <trkpt lat="47.79355" lon="-2.43989">
        <ele>28.1</ele>
        <time>2025-02-11T07:51:51Z</time>
      </trkpt>
      <trkpt lat="47.79355" lon="-2.43991">
        <ele>28.2</ele>
        <time>2025-02-11T07:51:52Z</time>
      </trkpt>
      <trkpt lat="47.79354" lon="-2.43992">
        <ele>28.2</ele>
        <time>2025-02-11T07:51:53Z</time>
      </trkpt>
      <trkpt lat="47.79354" lon="-2.43994">
        <ele>28.3</ele>
        <time>2025-02-11T07:51:54Z</time>
      </trkpt>
      <trkpt lat="47.79354" lon="-2.43995">
        <ele>28.3</ele>
        <time>2025-02-11T07:51:55Z</time>
      </trkpt>
      <trkpt lat="47.79354" lon="-2.43997">
        <ele>28.3</ele>
        <time>2025-02-11T07:51:56Z</time>
      </trkpt>
      <trkpt lat="47.79354" lon="-2.43999">
        <ele>28.4</ele>
        <time>2025-02-11T07:51:57Z</time>
      </trkpt>
      <trkpt lat="47.79354" lon="-2.44001">
        <ele>28.5</ele>
        <time>2025-02-11T07:51:58Z</time>
      </trkpt>
      <trkpt lat="47.79353" lon="-2.44003">
        <ele>28.4</ele>
        <time>2025-02-11T07:51:59Z</time>
      </trkpt>
      <trkpt lat="47.79353" lon="-2.44004">
        <ele>28.5</ele>
        <time>2025-02-11T07:52:00Z</time>
      </trkpt>
      <trkpt lat="47.79354" lon="-2.44006">
        <ele>28.5</ele>
        <time>2025-02-11T07:52:01Z</time>
      </trkpt>
      <trkpt lat="47.79354" lon="-2.44007">
        <ele>28.5</ele>
        <time>2025-02-11T07:52:02Z</time>
      </trkpt>
      <trkpt lat="47.79354" lon="-2.44009">
        <ele>28.6</ele>
        <time>2025-02-11T07:52:03Z</time>
      </trkpt>
      <trkpt lat="47.79354" lon="-2.44011">
        <ele>28.6</ele>
        <time>2025-02-11T07:52:04Z</time>
      </trkpt>
      <trkpt lat="47.79354" lon="-2.44013">
        <ele>28.6</ele>
        <time>2025-02-11T07:52:05Z</time>
      </trkpt>
      <trkpt lat="47.79354" lon="-2.44014">
        <ele>28.6</ele>
        <time>2025-02-11T07:52:06Z</time>
      </trkpt>
      <trkpt lat="47.79354" lon="-2.44016">
        <ele>28.7</ele>
        <time>2025-02-11T07:52:07Z</time>
      </trkpt>
      <trkpt lat="47.79354" lon="-2.44018">
        <ele>28.7</ele>
        <time>2025-02-11T07:52:08Z</time>
      </trkpt>
      <trkpt lat="47.79354" lon="-2.44019">
        <ele>28.7</ele>
        <time>2025-02-11T07:52:09Z</time>
      </trkpt>
      <trkpt lat="47.79354" lon="-2.44021">
        <ele>28.7</ele>
        <time>2025-02-11T07:52:10Z</time>
      </trkpt>
      <trkpt lat="47.79354" lon="-2.44023">
        <ele>28.7</ele>
        <time>2025-02-11T07:52:11Z</time>
      </trkpt>
      <trkpt lat="47.79354" lon="-2.44025">
        <ele>28.7</ele>
        <time>2025-02-11T07:52:12Z</time>
      </trkpt>
      <trkpt lat="47.79354" lon="-2.44026">
        <ele>28.7</ele>
        <time>2025-02-11T07:52:13Z</time>
      </trkpt>
      <trkpt lat="47.79354" lon="-2.44028">
        <ele>28.8</ele>
        <time>2025-02-11T07:52:14Z</time>
      </trkpt>
      <trkpt lat="47.79354" lon="-2.4403">
        <ele>28.8</ele>
        <time>2025-02-11T07:52:15Z</time>
      </trkpt>
      <trkpt lat="47.79354" lon="-2.44031">
        <ele>28.9</ele>
        <time>2025-02-11T07:52:16Z</time>
      </trkpt>
      <trkpt lat="47.79354" lon="-2.44033">
        <ele>28.9</ele>
        <time>2025-02-11T07:52:17Z</time>
      </trkpt>
      <trkpt lat="47.79354" lon="-2.44035">
        <ele>29</ele>
        <time>2025-02-11T07:52:18Z</time>
      </trkpt>
      <trkpt lat="47.79354" lon="-2.44037">
        <ele>29.1</ele>
        <time>2025-02-11T07:52:19Z</time>
      </trkpt>
      <trkpt lat="47.79353" lon="-2.44039">
        <ele>29.1</ele>
        <time>2025-02-11T07:52:20Z</time>
      </trkpt>
      <trkpt lat="47.79353" lon="-2.44041">
        <ele>29.2</ele>
        <time>2025-02-11T07:52:21Z</time>
      </trkpt>
      <trkpt lat="47.79353" lon="-2.44042">
        <ele>29.2</ele>
        <time>2025-02-11T07:52:22Z</time>
      </trkpt>
      <trkpt lat="47.79353" lon="-2.44044">
        <ele>29.3</ele>
        <time>2025-02-11T07:52:23Z</time>
      </trkpt>
      <trkpt lat="47.79352" lon="-2.44046">
        <ele>29.3</ele>
        <time>2025-02-11T07:52:24Z</time>
      </trkpt>
      <trkpt lat="47.79352" lon="-2.44048">
        <ele>29.4</ele>
        <time>2025-02-11T07:52:25Z</time>
      </trkpt>
      <trkpt lat="47.79352" lon="-2.4405">
        <ele>29.5</ele>
        <time>2025-02-11T07:52:26Z</time>
      </trkpt>
      <trkpt lat="47.79352" lon="-2.44051">
        <ele>29.5</ele>
        <time>2025-02-11T07:52:27Z</time>
      </trkpt>
      <trkpt lat="47.79352" lon="-2.44053">
        <ele>29.6</ele>
        <time>2025-02-11T07:52:28Z</time>
      </trkpt>
      <trkpt lat="47.79352" lon="-2.44055">
        <ele>29.6</ele>
        <time>2025-02-11T07:52:29Z</time>
      </trkpt>
      <trkpt lat="47.79352" lon="-2.44057">
        <ele>29.7</ele>
        <time>2025-02-11T07:52:30Z</time>
      </trkpt>
      <trkpt lat="47.79351" lon="-2.44058">
        <ele>29.7</ele>
        <time>2025-02-11T07:52:31Z</time>
      </trkpt>
      <trkpt lat="47.79351" lon="-2.4406">
        <ele>29.7</ele>
        <time>2025-02-11T07:52:32Z</time>
      </trkpt>
      <trkpt lat="47.79351" lon="-2.44062">
        <ele>29.8</ele>
        <time>2025-02-11T07:52:33Z</time>
      </trkpt>
      <trkpt lat="47.7935" lon="-2.44064">
        <ele>29.8</ele>
        <time>2025-02-11T07:52:34Z</time>
      </trkpt>
      <trkpt lat="47.79349" lon="-2.44065">
        <ele>29.8</ele>
        <time>2025-02-11T07:52:35Z</time>
      </trkpt>
      <trkpt lat="47.79349" lon="-2.44067">
        <ele>29.8</ele>
        <time>2025-02-11T07:52:36Z</time>
      </trkpt>
      <trkpt lat="47.79349" lon="-2.44069">
        <ele>29.8</ele>
        <time>2025-02-11T07:52:37Z</time>
      </trkpt>
      <trkpt lat="47.79348" lon="-2.44071">
        <ele>29.8</ele>
        <time>2025-02-11T07:52:38Z</time>
      </trkpt>
      <trkpt lat="47.79348" lon="-2.44073">
        <ele>29.9</ele>
        <time>2025-02-11T07:52:39Z</time>
      </trkpt>
      <trkpt lat="47.79348" lon="-2.44075">
        <ele>29.9</ele>
        <time>2025-02-11T07:52:40Z</time>
      </trkpt>
      <trkpt lat="47.79347" lon="-2.44077">
        <ele>29.9</ele>
        <time>2025-02-11T07:52:41Z</time>
      </trkpt>
      <trkpt lat="47.79347" lon="-2.44078">
        <ele>29.9</ele>
        <time>2025-02-11T07:52:42Z</time>
      </trkpt>
      <trkpt lat="47.79347" lon="-2.4408">
        <ele>29.9</ele>
        <time>2025-02-11T07:52:43Z</time>
      </trkpt>
      <trkpt lat="47.79347" lon="-2.44082">
        <ele>29.9</ele>
        <time>2025-02-11T07:52:44Z</time>
      </trkpt>
      <trkpt lat="47.79346" lon="-2.44084">
        <ele>29.9</ele>
        <time>2025-02-11T07:52:45Z</time>
      </trkpt>
      <trkpt lat="47.79346" lon="-2.44085">
        <ele>29.9</ele>
        <time>2025-02-11T07:52:46Z</time>
      </trkpt>
      <trkpt lat="47.79345" lon="-2.44087">
        <ele>29.8</ele>
        <time>2025-02-11T07:52:47Z</time>
      </trkpt>
      <trkpt lat="47.79345" lon="-2.44089">
        <ele>29.8</ele>
        <time>2025-02-11T07:52:48Z</time>
      </trkpt>
      <trkpt lat="47.79344" lon="-2.4409">
        <ele>29.8</ele>
        <time>2025-02-11T07:52:49Z</time>
      </trkpt>
      <trkpt lat="47.79344" lon="-2.44092">
        <ele>29.7</ele>
        <time>2025-02-11T07:52:50Z</time>
      </trkpt>
      <trkpt lat="47.79343" lon="-2.44094">
        <ele>29.7</ele>
        <time>2025-02-11T07:52:51Z</time>
      </trkpt>
      <trkpt lat="47.79343" lon="-2.44096">
        <ele>29.7</ele>
        <time>2025-02-11T07:52:52Z</time>
      </trkpt>
      <trkpt lat="47.79343" lon="-2.44098">
        <ele>29.7</ele>
        <time>2025-02-11T07:52:53Z</time>
      </trkpt>
      <trkpt lat="47.79343" lon="-2.441">
        <ele>29.7</ele>
        <time>2025-02-11T07:52:54Z</time>
      </trkpt>
      <trkpt lat="47.79344" lon="-2.44101">
        <ele>29.7</ele>
        <time>2025-02-11T07:52:55Z</time>
      </trkpt>
      <trkpt lat="47.79344" lon="-2.44103">
        <ele>29.7</ele>
        <time>2025-02-11T07:52:56Z</time>
      </trkpt>
      <trkpt lat="47.79344" lon="-2.44105">
        <ele>29.8</ele>
        <time>2025-02-11T07:52:57Z</time>
      </trkpt>
      <trkpt lat="47.79345" lon="-2.44106">
        <ele>29.8</ele>
        <time>2025-02-11T07:52:58Z</time>
      </trkpt>
      <trkpt lat="47.79346" lon="-2.44107">
        <ele>29.9</ele>
        <time>2025-02-11T07:52:59Z</time>
      </trkpt>
      <trkpt lat="47.79347" lon="-2.44108">
        <ele>29.9</ele>
        <time>2025-02-11T07:53:00Z</time>
      </trkpt>
      <trkpt lat="47.79348" lon="-2.44109">
        <ele>30</ele>
        <time>2025-02-11T07:53:01Z</time>
      </trkpt>
      <trkpt lat="47.79349" lon="-2.44109">
        <ele>30.1</ele>
        <time>2025-02-11T07:53:02Z</time>
      </trkpt>
      <trkpt lat="47.7935" lon="-2.44109">
        <ele>30.2</ele>
        <time>2025-02-11T07:53:03Z</time>
      </trkpt>
      <trkpt lat="47.79352" lon="-2.44109">
        <ele>30.3</ele>
        <time>2025-02-11T07:53:04Z</time>
      </trkpt>
      <trkpt lat="47.79353" lon="-2.44109">
        <ele>30.4</ele>
        <time>2025-02-11T07:53:05Z</time>
      </trkpt>
      <trkpt lat="47.79354" lon="-2.4411">
        <ele>30.5</ele>
        <time>2025-02-11T07:53:06Z</time>
      </trkpt>
      <trkpt lat="47.79355" lon="-2.4411">
        <ele>30.6</ele>
        <time>2025-02-11T07:53:07Z</time>
      </trkpt>
      <trkpt lat="47.79357" lon="-2.4411">
        <ele>30.7</ele>
        <time>2025-02-11T07:53:08Z</time>
      </trkpt>
      <trkpt lat="47.79358" lon="-2.4411">
        <ele>30.8</ele>
        <time>2025-02-11T07:53:09Z</time>
      </trkpt>
      <trkpt lat="47.79359" lon="-2.4411">
        <ele>30.8</ele>
        <time>2025-02-11T07:53:10Z</time>
      </trkpt>
      <trkpt lat="47.7936" lon="-2.4411">
        <ele>30.9</ele>
        <time>2025-02-11T07:53:11Z</time>
      </trkpt>
      <trkpt lat="47.79362" lon="-2.4411">
        <ele>31.1</ele>
        <time>2025-02-11T07:53:12Z</time>
      </trkpt>
      <trkpt lat="47.79363" lon="-2.4411">
        <ele>31.2</ele>
        <time>2025-02-11T07:53:13Z</time>
      </trkpt>
      <trkpt lat="47.79364" lon="-2.44109">
        <ele>31.3</ele>
        <time>2025-02-11T07:53:14Z</time>
      </trkpt>
      <trkpt lat="47.79365" lon="-2.44108">
        <ele>31.4</ele>
        <time>2025-02-11T07:53:15Z</time>
      </trkpt>
      <trkpt lat="47.79366" lon="-2.44107">
        <ele>31.5</ele>
        <time>2025-02-11T07:53:16Z</time>
      </trkpt>
      <trkpt lat="47.79367" lon="-2.44105">
        <ele>31.6</ele>
        <time>2025-02-11T07:53:17Z</time>
      </trkpt>
      <trkpt lat="47.79367" lon="-2.44103">
        <ele>31.6</ele>
        <time>2025-02-11T07:53:18Z</time>
      </trkpt>
      <trkpt lat="47.79367" lon="-2.44101">
        <ele>31.6</ele>
        <time>2025-02-11T07:53:19Z</time>
      </trkpt>
      <trkpt lat="47.79367" lon="-2.44099">
        <ele>31.5</ele>
        <time>2025-02-11T07:53:20Z</time>
      </trkpt>
      <trkpt lat="47.79367" lon="-2.44097">
        <ele>31.5</ele>
        <time>2025-02-11T07:53:21Z</time>
      </trkpt>
      <trkpt lat="47.79367" lon="-2.44096">
        <ele>31.5</ele>
        <time>2025-02-11T07:53:22Z</time>
      </trkpt>
      <trkpt lat="47.79368" lon="-2.44094">
        <ele>31.6</ele>
        <time>2025-02-11T07:53:23Z</time>
      </trkpt>
      <trkpt lat="47.79369" lon="-2.44092">
        <ele>31.6</ele>
        <time>2025-02-11T07:53:24Z</time>
      </trkpt>
      <trkpt lat="47.79369" lon="-2.44091">
        <ele>31.6</ele>
        <time>2025-02-11T07:53:25Z</time>
      </trkpt>
      <trkpt lat="47.79369" lon="-2.44089">
        <ele>31.6</ele>
        <time>2025-02-11T07:53:26Z</time>
      </trkpt>
      <trkpt lat="47.79369" lon="-2.44087">
        <ele>31.6</ele>
        <time>2025-02-11T07:53:27Z</time>
      </trkpt>
      <trkpt lat="47.79369" lon="-2.44085">
        <ele>31.6</ele>
        <time>2025-02-11T07:53:28Z</time>
      </trkpt>
      <trkpt lat="47.7937" lon="-2.44083">
        <ele>31.6</ele>
        <time>2025-02-11T07:53:29Z</time>
      </trkpt>
      <trkpt lat="47.7937" lon="-2.44082">
        <ele>31.6</ele>
        <time>2025-02-11T07:53:30Z</time>
      </trkpt>
      <trkpt lat="47.7937" lon="-2.4408">
        <ele>31.6</ele>
        <time>2025-02-11T07:53:31Z</time>
      </trkpt>
      <trkpt lat="47.79371" lon="-2.44078">
        <ele>31.6</ele>
        <time>2025-02-11T07:53:32Z</time>
      </trkpt>
      <trkpt lat="47.79371" lon="-2.44076">
        <ele>31.5</ele>
        <time>2025-02-11T07:53:33Z</time>
      </trkpt>
      <trkpt lat="47.79371" lon="-2.44075">
        <ele>31.5</ele>
        <time>2025-02-11T07:53:34Z</time>
      </trkpt>
      <trkpt lat="47.79371" lon="-2.44073">
        <ele>31.5</ele>
        <time>2025-02-11T07:53:35Z</time>
      </trkpt>
      <trkpt lat="47.79371" lon="-2.44072">
        <ele>31.4</ele>
        <time>2025-02-11T07:53:36Z</time>
      </trkpt>
      <trkpt lat="47.79371" lon="-2.4407">
        <ele>31.4</ele>
        <time>2025-02-11T07:53:37Z</time>
      </trkpt>
      <trkpt lat="47.79372" lon="-2.44068">
        <ele>31.4</ele>
        <time>2025-02-11T07:53:38Z</time>
      </trkpt>
      <trkpt lat="47.79373" lon="-2.44067">
        <ele>31.5</ele>
        <time>2025-02-11T07:53:39Z</time>
      </trkpt>
      <trkpt lat="47.79373" lon="-2.44066">
        <ele>31.5</ele>
        <time>2025-02-11T07:53:40Z</time>
      </trkpt>
      <trkpt lat="47.79373" lon="-2.44064">
        <ele>31.5</ele>
        <time>2025-02-11T07:53:41Z</time>
      </trkpt>
      <trkpt lat="47.79373" lon="-2.44062">
        <ele>31.4</ele>
        <time>2025-02-11T07:53:42Z</time>
      </trkpt>
      <trkpt lat="47.79373" lon="-2.4406">
        <ele>31.4</ele>
        <time>2025-02-11T07:53:43Z</time>
      </trkpt>
      <trkpt lat="47.79373" lon="-2.44059">
        <ele>31.4</ele>
        <time>2025-02-11T07:53:44Z</time>
      </trkpt>
      <trkpt lat="47.79373" lon="-2.44057">
        <ele>31.3</ele>
        <time>2025-02-11T07:53:45Z</time>
      </trkpt>
      <trkpt lat="47.79374" lon="-2.44055">
        <ele>31.3</ele>
        <time>2025-02-11T07:53:46Z</time>
      </trkpt>
      <trkpt lat="47.79374" lon="-2.44053">
        <ele>31.3</ele>
        <time>2025-02-11T07:53:47Z</time>
      </trkpt>
      <trkpt lat="47.79374" lon="-2.44051">
        <ele>31.2</ele>
        <time>2025-02-11T07:53:48Z</time>
      </trkpt>
      <trkpt lat="47.79374" lon="-2.4405">
        <ele>31.2</ele>
        <time>2025-02-11T07:53:49Z</time>
      </trkpt>
      <trkpt lat="47.79375" lon="-2.44048">
        <ele>31.2</ele>
        <time>2025-02-11T07:53:50Z</time>
      </trkpt>
      <trkpt lat="47.79376" lon="-2.44047">
        <ele>31.3</ele>
        <time>2025-02-11T07:53:51Z</time>
      </trkpt>
      <trkpt lat="47.79376" lon="-2.44046">
        <ele>31.2</ele>
        <time>2025-02-11T07:53:52Z</time>
      </trkpt>
      <trkpt lat="47.79376" lon="-2.44044">
        <ele>31.2</ele>
        <time>2025-02-11T07:53:53Z</time>
      </trkpt>
      <trkpt lat="47.79377" lon="-2.44042">
        <ele>31.2</ele>
        <time>2025-02-11T07:53:54Z</time>
      </trkpt>
      <trkpt lat="47.79378" lon="-2.44041">
        <ele>31.3</ele>
        <time>2025-02-11T07:53:55Z</time>
      </trkpt>
      <trkpt lat="47.79379" lon="-2.44039">
        <ele>31.3</ele>
        <time>2025-02-11T07:53:56Z</time>
      </trkpt>
      <trkpt lat="47.7938" lon="-2.44037">
        <ele>31.4</ele>
        <time>2025-02-11T07:53:57Z</time>
      </trkpt>
      <trkpt lat="47.79382" lon="-2.44037">
        <ele>31.6</ele>
        <time>2025-02-11T07:53:58Z</time>
      </trkpt>
      <trkpt lat="47.79383" lon="-2.44037">
        <ele>31.7</ele>
        <time>2025-02-11T07:53:59Z</time>
      </trkpt>
      <trkpt lat="47.79385" lon="-2.44037">
        <ele>31.9</ele>
        <time>2025-02-11T07:54:00Z</time>
      </trkpt>
      <trkpt lat="47.79386" lon="-2.44037">
        <ele>32.1</ele>
        <time>2025-02-11T07:54:01Z</time>
      </trkpt>
      <trkpt lat="47.79388" lon="-2.44037">
        <ele>32.2</ele>
        <time>2025-02-11T07:54:02Z</time>
      </trkpt>
      <trkpt lat="47.79389" lon="-2.44037">
        <ele>32.3</ele>
        <time>2025-02-11T07:54:03Z</time>
      </trkpt>
      <trkpt lat="47.7939" lon="-2.44038">
        <ele>32.5</ele>
        <time>2025-02-11T07:54:04Z</time>
      </trkpt>
      <trkpt lat="47.79391" lon="-2.44038">
        <ele>32.6</ele>
        <time>2025-02-11T07:54:05Z</time>
      </trkpt>
      <trkpt lat="47.79392" lon="-2.44038">
        <ele>32.7</ele>
        <time>2025-02-11T07:54:06Z</time>
      </trkpt>
      <trkpt lat="47.79393" lon="-2.44039">
        <ele>32.8</ele>
        <time>2025-02-11T07:54:07Z</time>
      </trkpt>
      <trkpt lat="47.79394" lon="-2.4404">
        <ele>32.9</ele>
        <time>2025-02-11T07:54:08Z</time>
      </trkpt>
      <trkpt lat="47.79396" lon="-2.4404">
        <ele>33.1</ele>
        <time>2025-02-11T07:54:09Z</time>
      </trkpt>
      <trkpt lat="47.79397" lon="-2.4404">
        <ele>33.2</ele>
        <time>2025-02-11T07:54:10Z</time>
      </trkpt>
      <trkpt lat="47.79398" lon="-2.4404">
        <ele>33.3</ele>
        <time>2025-02-11T07:54:11Z</time>
      </trkpt>
      <trkpt lat="47.79399" lon="-2.4404">
        <ele>33.4</ele>
        <time>2025-02-11T07:54:12Z</time>
      </trkpt>
      <trkpt lat="47.794" lon="-2.44039">
        <ele>33.5</ele>
        <time>2025-02-11T07:54:13Z</time>
      </trkpt>
      <trkpt lat="47.79401" lon="-2.4404">
        <ele>33.6</ele>
        <time>2025-02-11T07:54:14Z</time>
      </trkpt>
      <trkpt lat="47.79403" lon="-2.4404">
        <ele>33.7</ele>
        <time>2025-02-11T07:54:15Z</time>
      </trkpt>
      <trkpt lat="47.79403" lon="-2.4404">
        <ele>33.8</ele>
        <time>2025-02-11T07:54:16Z</time>
      </trkpt>
      <trkpt lat="47.79404" lon="-2.4404">
        <ele>33.9</ele>
        <time>2025-02-11T07:54:17Z</time>
      </trkpt>
      <trkpt lat="47.79405" lon="-2.4404">
        <ele>33.9</ele>
        <time>2025-02-11T07:54:18Z</time>
      </trkpt>
      <trkpt lat="47.79406" lon="-2.4404">
        <ele>34</ele>
        <time>2025-02-11T07:54:19Z</time>
      </trkpt>
      <trkpt lat="47.79407" lon="-2.4404">
        <ele>34.1</ele>
        <time>2025-02-11T07:54:20Z</time>
      </trkpt>
      <trkpt lat="47.79408" lon="-2.44039">
        <ele>34.2</ele>
        <time>2025-02-11T07:54:21Z</time>
      </trkpt>
      <trkpt lat="47.7941" lon="-2.44039">
        <ele>34.3</ele>
        <time>2025-02-11T07:54:22Z</time>
      </trkpt>
      <trkpt lat="47.79411" lon="-2.44039">
        <ele>34.4</ele>
        <time>2025-02-11T07:54:23Z</time>
      </trkpt>
      <trkpt lat="47.79412" lon="-2.44038">
        <ele>34.5</ele>
        <time>2025-02-11T07:54:24Z</time>
      </trkpt>
      <trkpt lat="47.79413" lon="-2.44038">
        <ele>34.6</ele>
        <time>2025-02-11T07:54:25Z</time>
      </trkpt>
      <trkpt lat="47.79414" lon="-2.44038">
        <ele>34.7</ele>
        <time>2025-02-11T07:54:26Z</time>
      </trkpt>
      <trkpt lat="47.79415" lon="-2.44038">
        <ele>34.8</ele>
        <time>2025-02-11T07:54:27Z</time>
      </trkpt>
      <trkpt lat="47.79416" lon="-2.44038">
        <ele>34.9</ele>
        <time>2025-02-11T07:54:28Z</time>
      </trkpt>
      <trkpt lat="47.79417" lon="-2.44038">
        <ele>35</ele>
        <time>2025-02-11T07:54:29Z</time>
      </trkpt>
      <trkpt lat="47.79418" lon="-2.44038">
        <ele>35.1</ele>
        <time>2025-02-11T07:54:30Z</time>
      </trkpt>
      <trkpt lat="47.79419" lon="-2.44037">
        <ele>35.2</ele>
        <time>2025-02-11T07:54:31Z</time>
      </trkpt>
      <trkpt lat="47.7942" lon="-2.44037">
        <ele>35.3</ele>
        <time>2025-02-11T07:54:32Z</time>
      </trkpt>
      <trkpt lat="47.79421" lon="-2.44037">
        <ele>35.4</ele>
        <time>2025-02-11T07:54:33Z</time>
      </trkpt>
      <trkpt lat="47.79423" lon="-2.44037">
        <ele>35.5</ele>
        <time>2025-02-11T07:54:34Z</time>
      </trkpt>
      <trkpt lat="47.79424" lon="-2.44038">
        <ele>35.6</ele>
        <time>2025-02-11T07:54:35Z</time>
      </trkpt>
      <trkpt lat="47.79425" lon="-2.44038">
        <ele>35.7</ele>
        <time>2025-02-11T07:54:36Z</time>
      </trkpt>
      <trkpt lat="47.79426" lon="-2.44038">
        <ele>35.8</ele>
        <time>2025-02-11T07:54:37Z</time>
      </trkpt>
      <trkpt lat="47.79427" lon="-2.44038">
        <ele>35.8</ele>
        <time>2025-02-11T07:54:38Z</time>
      </trkpt>
      <trkpt lat="47.79428" lon="-2.44039">
        <ele>36</ele>
        <time>2025-02-11T07:54:39Z</time>
      </trkpt>
      <trkpt lat="47.79429" lon="-2.44039">
        <ele>36</ele>
        <time>2025-02-11T07:54:40Z</time>
      </trkpt>
      <trkpt lat="47.7943" lon="-2.44039">
        <ele>36.1</ele>
        <time>2025-02-11T07:54:41Z</time>
      </trkpt>
      <trkpt lat="47.79431" lon="-2.44039">
        <ele>36.3</ele>
        <time>2025-02-11T07:54:42Z</time>
      </trkpt>
      <trkpt lat="47.79432" lon="-2.44039">
        <ele>36.3</ele>
        <time>2025-02-11T07:54:43Z</time>
      </trkpt>
      <trkpt lat="47.79433" lon="-2.44039">
        <ele>36.4</ele>
        <time>2025-02-11T07:54:44Z</time>
      </trkpt>
      <trkpt lat="47.79435" lon="-2.44038">
        <ele>36.5</ele>
        <time>2025-02-11T07:54:45Z</time>
      </trkpt>
      <trkpt lat="47.79436" lon="-2.44038">
        <ele>36.6</ele>
        <time>2025-02-11T07:54:46Z</time>
      </trkpt>
      <trkpt lat="47.79437" lon="-2.44038">
        <ele>36.7</ele>
        <time>2025-02-11T07:54:47Z</time>
      </trkpt>
      <trkpt lat="47.79438" lon="-2.44038">
        <ele>36.8</ele>
        <time>2025-02-11T07:54:48Z</time>
      </trkpt>
      <trkpt lat="47.79439" lon="-2.44038">
        <ele>36.9</ele>
        <time>2025-02-11T07:54:49Z</time>
      </trkpt>
      <trkpt lat="47.7944" lon="-2.44038">
        <ele>37</ele>
        <time>2025-02-11T07:54:50Z</time>
      </trkpt>
      <trkpt lat="47.79441" lon="-2.44037">
        <ele>37</ele>
        <time>2025-02-11T07:54:51Z</time>
      </trkpt>
      <trkpt lat="47.79442" lon="-2.44038">
        <ele>37.1</ele>
        <time>2025-02-11T07:54:52Z</time>
      </trkpt>
      <trkpt lat="47.79443" lon="-2.44038">
        <ele>37.2</ele>
        <time>2025-02-11T07:54:53Z</time>
      </trkpt>
      <trkpt lat="47.79444" lon="-2.44038">
        <ele>37.4</ele>
        <time>2025-02-11T07:54:54Z</time>
      </trkpt>
      <trkpt lat="47.79445" lon="-2.44038">
        <ele>37.4</ele>
        <time>2025-02-11T07:54:55Z</time>
      </trkpt>
      <trkpt lat="47.79446" lon="-2.44039">
        <ele>37.5</ele>
        <time>2025-02-11T07:54:56Z</time>
      </trkpt>
      <trkpt lat="47.79447" lon="-2.44039">
        <ele>37.6</ele>
        <time>2025-02-11T07:54:57Z</time>
      </trkpt>
      <trkpt lat="47.79448" lon="-2.44039">
        <ele>37.7</ele>
        <time>2025-02-11T07:54:58Z</time>
      </trkpt>
      <trkpt lat="47.79449" lon="-2.4404">
        <ele>37.8</ele>
        <time>2025-02-11T07:54:59Z</time>
      </trkpt>
      <trkpt lat="47.79451" lon="-2.4404">
        <ele>37.9</ele>
        <time>2025-02-11T07:55:00Z</time>
      </trkpt>
      <trkpt lat="47.79452" lon="-2.4404">
        <ele>38</ele>
        <time>2025-02-11T07:55:01Z</time>
      </trkpt>
      <trkpt lat="47.79453" lon="-2.44039">
        <ele>38</ele>
        <time>2025-02-11T07:55:02Z</time>
      </trkpt>
      <trkpt lat="47.79454" lon="-2.44039">
        <ele>38.1</ele>
        <time>2025-02-11T07:55:03Z</time>
      </trkpt>
      <trkpt lat="47.79455" lon="-2.4404">
        <ele>38.2</ele>
        <time>2025-02-11T07:55:04Z</time>
      </trkpt>
      <trkpt lat="47.79456" lon="-2.44039">
        <ele>38.3</ele>
        <time>2025-02-11T07:55:05Z</time>
      </trkpt>
      <trkpt lat="47.79458" lon="-2.44039">
        <ele>38.3</ele>
        <time>2025-02-11T07:55:06Z</time>
      </trkpt>
      <trkpt lat="47.79459" lon="-2.44039">
        <ele>38.4</ele>
        <time>2025-02-11T07:55:07Z</time>
      </trkpt>
      <trkpt lat="47.7946" lon="-2.44039">
        <ele>38.5</ele>
        <time>2025-02-11T07:55:08Z</time>
      </trkpt>
      <trkpt lat="47.79461" lon="-2.44039">
        <ele>38.6</ele>
        <time>2025-02-11T07:55:09Z</time>
      </trkpt>
      <trkpt lat="47.79462" lon="-2.44039">
        <ele>38.7</ele>
        <time>2025-02-11T07:55:10Z</time>
      </trkpt>
      <trkpt lat="47.79463" lon="-2.44039">
        <ele>38.7</ele>
        <time>2025-02-11T07:55:11Z</time>
      </trkpt>
      <trkpt lat="47.79464" lon="-2.44039">
        <ele>38.8</ele>
        <time>2025-02-11T07:55:12Z</time>
      </trkpt>
      <trkpt lat="47.79465" lon="-2.44039">
        <ele>38.9</ele>
        <time>2025-02-11T07:55:13Z</time>
      </trkpt>
      <trkpt lat="47.79466" lon="-2.44039">
        <ele>39</ele>
        <time>2025-02-11T07:55:14Z</time>
      </trkpt>
      <trkpt lat="47.79467" lon="-2.44038">
        <ele>39</ele>
        <time>2025-02-11T07:55:15Z</time>
      </trkpt>
      <trkpt lat="47.79468" lon="-2.44038">
        <ele>39.1</ele>
        <time>2025-02-11T07:55:16Z</time>
      </trkpt>
      <trkpt lat="47.7947" lon="-2.44038">
        <ele>39.2</ele>
        <time>2025-02-11T07:55:17Z</time>
      </trkpt>
      <trkpt lat="47.79471" lon="-2.44038">
        <ele>39.3</ele>
        <time>2025-02-11T07:55:18Z</time>
      </trkpt>
      <trkpt lat="47.79472" lon="-2.44038">
        <ele>39.3</ele>
        <time>2025-02-11T07:55:19Z</time>
      </trkpt>
      <trkpt lat="47.79473" lon="-2.44037">
        <ele>39.4</ele>
        <time>2025-02-11T07:55:20Z</time>
      </trkpt>
      <trkpt lat="47.79474" lon="-2.44037">
        <ele>39.5</ele>
        <time>2025-02-11T07:55:21Z</time>
      </trkpt>
      <trkpt lat="47.79475" lon="-2.44037">
        <ele>39.6</ele>
        <time>2025-02-11T07:55:22Z</time>
      </trkpt>
      <trkpt lat="47.79476" lon="-2.44037">
        <ele>39.7</ele>
        <time>2025-02-11T07:55:23Z</time>
      </trkpt>
      <trkpt lat="47.79477" lon="-2.44036">
        <ele>39.8</ele>
        <time>2025-02-11T07:55:24Z</time>
      </trkpt>
      <trkpt lat="47.79478" lon="-2.44036">
        <ele>40</ele>
        <time>2025-02-11T07:55:25Z</time>
      </trkpt>
      <trkpt lat="47.79479" lon="-2.44037">
        <ele>40.1</ele>
        <time>2025-02-11T07:55:26Z</time>
      </trkpt>
      <trkpt lat="47.79481" lon="-2.44037">
        <ele>40.2</ele>
        <time>2025-02-11T07:55:27Z</time>
      </trkpt>
      <trkpt lat="47.79482" lon="-2.44037">
        <ele>40.3</ele>
        <time>2025-02-11T07:55:28Z</time>
      </trkpt>
      <trkpt lat="47.79483" lon="-2.44037">
        <ele>40.5</ele>
        <time>2025-02-11T07:55:29Z</time>
      </trkpt>
      <trkpt lat="47.79484" lon="-2.44037">
        <ele>40.5</ele>
        <time>2025-02-11T07:55:30Z</time>
      </trkpt>
      <trkpt lat="47.79485" lon="-2.44036">
        <ele>40.6</ele>
        <time>2025-02-11T07:55:31Z</time>
      </trkpt>
      <trkpt lat="47.79486" lon="-2.44036">
        <ele>40.7</ele>
        <time>2025-02-11T07:55:32Z</time>
      </trkpt>
      <trkpt lat="47.79487" lon="-2.44036">
        <ele>40.9</ele>
        <time>2025-02-11T07:55:33Z</time>
      </trkpt>
      <trkpt lat="47.79488" lon="-2.44036">
        <ele>41</ele>
        <time>2025-02-11T07:55:34Z</time>
      </trkpt>
      <trkpt lat="47.79489" lon="-2.44036">
        <ele>41.1</ele>
        <time>2025-02-11T07:55:35Z</time>
      </trkpt>
      <trkpt lat="47.7949" lon="-2.44036">
        <ele>41.2</ele>
        <time>2025-02-11T07:55:36Z</time>
      </trkpt>
      <trkpt lat="47.79491" lon="-2.44036">
        <ele>41.3</ele>
        <time>2025-02-11T07:55:37Z</time>
      </trkpt>
      <trkpt lat="47.79492" lon="-2.44035">
        <ele>41.4</ele>
        <time>2025-02-11T07:55:38Z</time>
      </trkpt>
      <trkpt lat="47.79493" lon="-2.44035">
        <ele>41.5</ele>
        <time>2025-02-11T07:55:39Z</time>
      </trkpt>
      <trkpt lat="47.79494" lon="-2.44035">
        <ele>41.6</ele>
        <time>2025-02-11T07:55:40Z</time>
      </trkpt>
      <trkpt lat="47.79495" lon="-2.44035">
        <ele>41.8</ele>
        <time>2025-02-11T07:55:41Z</time>
      </trkpt>
      <trkpt lat="47.79497" lon="-2.44034">
        <ele>41.9</ele>
        <time>2025-02-11T07:55:42Z</time>
      </trkpt>
      <trkpt lat="47.79497" lon="-2.44033">
        <ele>41.9</ele>
        <time>2025-02-11T07:55:43Z</time>
      </trkpt>
      <trkpt lat="47.79499" lon="-2.44033">
        <ele>42</ele>
        <time>2025-02-11T07:55:44Z</time>
      </trkpt>
      <trkpt lat="47.795" lon="-2.44032">
        <ele>42.1</ele>
        <time>2025-02-11T07:55:45Z</time>
      </trkpt>
      <trkpt lat="47.79501" lon="-2.44032">
        <ele>42.2</ele>
        <time>2025-02-11T07:55:46Z</time>
      </trkpt>
      <trkpt lat="47.79502" lon="-2.44032">
        <ele>42.3</ele>
        <time>2025-02-11T07:55:47Z</time>
      </trkpt>
      <trkpt lat="47.79503" lon="-2.44032">
        <ele>42.3</ele>
        <time>2025-02-11T07:55:48Z</time>
      </trkpt>
      <trkpt lat="47.79504" lon="-2.44031">
        <ele>42.4</ele>
        <time>2025-02-11T07:55:49Z</time>
      </trkpt>
      <trkpt lat="47.79505" lon="-2.44031">
        <ele>42.4</ele>
        <time>2025-02-11T07:55:50Z</time>
      </trkpt>
      <trkpt lat="47.79506" lon="-2.4403">
        <ele>42.5</ele>
        <time>2025-02-11T07:55:51Z</time>
      </trkpt>
      <trkpt lat="47.79507" lon="-2.44031">
        <ele>42.6</ele>
        <time>2025-02-11T07:55:52Z</time>
      </trkpt>
      <trkpt lat="47.79508" lon="-2.4403">
        <ele>42.7</ele>
        <time>2025-02-11T07:55:53Z</time>
      </trkpt>
      <trkpt lat="47.79509" lon="-2.44032">
        <ele>42.8</ele>
        <time>2025-02-11T07:55:54Z</time>
      </trkpt>
      <trkpt lat="47.79511" lon="-2.44032">
        <ele>42.9</ele>
        <time>2025-02-11T07:55:55Z</time>
      </trkpt>
      <trkpt lat="47.79512" lon="-2.44031">
        <ele>43</ele>
        <time>2025-02-11T07:55:56Z</time>
      </trkpt>
      <trkpt lat="47.79513" lon="-2.44031">
        <ele>43</ele>
        <time>2025-02-11T07:55:57Z</time>
      </trkpt>
      <trkpt lat="47.79514" lon="-2.4403">
        <ele>43.1</ele>
        <time>2025-02-11T07:55:58Z</time>
      </trkpt>
      <trkpt lat="47.79515" lon="-2.4403">
        <ele>43.2</ele>
        <time>2025-02-11T07:55:59Z</time>
      </trkpt>
      <trkpt lat="47.79516" lon="-2.4403">
        <ele>43.2</ele>
        <time>2025-02-11T07:56:00Z</time>
      </trkpt>
      <trkpt lat="47.79517" lon="-2.44029">
        <ele>43.3</ele>
        <time>2025-02-11T07:56:01Z</time>
      </trkpt>
      <trkpt lat="47.79518" lon="-2.44029">
        <ele>43.3</ele>
        <time>2025-02-11T07:56:02Z</time>
      </trkpt>
      <trkpt lat="47.79519" lon="-2.44028">
        <ele>43.4</ele>
        <time>2025-02-11T07:56:03Z</time>
      </trkpt>
      <trkpt lat="47.7952" lon="-2.44027">
        <ele>43.4</ele>
        <time>2025-02-11T07:56:04Z</time>
      </trkpt>
      <trkpt lat="47.79521" lon="-2.44027">
        <ele>43.5</ele>
        <time>2025-02-11T07:56:05Z</time>
      </trkpt>
      <trkpt lat="47.79522" lon="-2.44027">
        <ele>43.6</ele>
        <time>2025-02-11T07:56:06Z</time>
      </trkpt>
      <trkpt lat="47.79523" lon="-2.44027">
        <ele>43.7</ele>
        <time>2025-02-11T07:56:07Z</time>
      </trkpt>
      <trkpt lat="47.79524" lon="-2.44027">
        <ele>43.8</ele>
        <time>2025-02-11T07:56:08Z</time>
      </trkpt>
      <trkpt lat="47.79526" lon="-2.44026">
        <ele>43.9</ele>
        <time>2025-02-11T07:56:09Z</time>
      </trkpt>
      <trkpt lat="47.79527" lon="-2.44026">
        <ele>44</ele>
        <time>2025-02-11T07:56:10Z</time>
      </trkpt>
      <trkpt lat="47.79528" lon="-2.44026">
        <ele>44.1</ele>
        <time>2025-02-11T07:56:11Z</time>
      </trkpt>
      <trkpt lat="47.79529" lon="-2.44026">
        <ele>44.2</ele>
        <time>2025-02-11T07:56:12Z</time>
      </trkpt>
      <trkpt lat="47.7953" lon="-2.44026">
        <ele>44.3</ele>
        <time>2025-02-11T07:56:13Z</time>
      </trkpt>
      <trkpt lat="47.79531" lon="-2.44026">
        <ele>44.5</ele>
        <time>2025-02-11T07:56:14Z</time>
      </trkpt>
      <trkpt lat="47.79532" lon="-2.44026">
        <ele>44.6</ele>
        <time>2025-02-11T07:56:15Z</time>
      </trkpt>
      <trkpt lat="47.79533" lon="-2.44026">
        <ele>44.8</ele>
        <time>2025-02-11T07:56:16Z</time>
      </trkpt>
      <trkpt lat="47.79534" lon="-2.44024">
        <ele>45</ele>
        <time>2025-02-11T07:56:17Z</time>
      </trkpt>
      <trkpt lat="47.79535" lon="-2.44024">
        <ele>45.1</ele>
        <time>2025-02-11T07:56:18Z</time>
      </trkpt>
      <trkpt lat="47.79536" lon="-2.44024">
        <ele>45.3</ele>
        <time>2025-02-11T07:56:19Z</time>
      </trkpt>
      <trkpt lat="47.79537" lon="-2.44024">
        <ele>45.4</ele>
        <time>2025-02-11T07:56:20Z</time>
      </trkpt>
      <trkpt lat="47.79538" lon="-2.44025">
        <ele>45.5</ele>
        <time>2025-02-11T07:56:21Z</time>
      </trkpt>
      <trkpt lat="47.79539" lon="-2.44025">
        <ele>45.7</ele>
        <time>2025-02-11T07:56:22Z</time>
      </trkpt>
      <trkpt lat="47.79541" lon="-2.44026">
        <ele>45.9</ele>
        <time>2025-02-11T07:56:23Z</time>
      </trkpt>
      <trkpt lat="47.79541" lon="-2.44026">
        <ele>46</ele>
        <time>2025-02-11T07:56:24Z</time>
      </trkpt>
      <trkpt lat="47.79542" lon="-2.44025">
        <ele>46.1</ele>
        <time>2025-02-11T07:56:25Z</time>
      </trkpt>
      <trkpt lat="47.79543" lon="-2.44025">
        <ele>46.3</ele>
        <time>2025-02-11T07:56:26Z</time>
      </trkpt>
      <trkpt lat="47.79544" lon="-2.44026">
        <ele>46.4</ele>
        <time>2025-02-11T07:56:27Z</time>
      </trkpt>
      <trkpt lat="47.79546" lon="-2.44025">
        <ele>46.6</ele>
        <time>2025-02-11T07:56:28Z</time>
      </trkpt>
      <trkpt lat="47.79546" lon="-2.44025">
        <ele>46.7</ele>
        <time>2025-02-11T07:56:29Z</time>
      </trkpt>
      <trkpt lat="47.79548" lon="-2.44025">
        <ele>46.9</ele>
        <time>2025-02-11T07:56:30Z</time>
      </trkpt>
      <trkpt lat="47.79549" lon="-2.44025">
        <ele>47</ele>
        <time>2025-02-11T07:56:31Z</time>
      </trkpt>
      <trkpt lat="47.7955" lon="-2.44025">
        <ele>47.2</ele>
        <time>2025-02-11T07:56:32Z</time>
      </trkpt>
      <trkpt lat="47.79551" lon="-2.44025">
        <ele>47.4</ele>
        <time>2025-02-11T07:56:33Z</time>
      </trkpt>
      <trkpt lat="47.79552" lon="-2.44025">
        <ele>47.5</ele>
        <time>2025-02-11T07:56:34Z</time>
      </trkpt>
      <trkpt lat="47.79553" lon="-2.44026">
        <ele>47.6</ele>
        <time>2025-02-11T07:56:35Z</time>
      </trkpt>
      <trkpt lat="47.79554" lon="-2.44026">
        <ele>47.8</ele>
        <time>2025-02-11T07:56:36Z</time>
      </trkpt>
      <trkpt lat="47.79555" lon="-2.44026">
        <ele>47.9</ele>
        <time>2025-02-11T07:56:37Z</time>
      </trkpt>
      <trkpt lat="47.79556" lon="-2.44025">
        <ele>48.1</ele>
        <time>2025-02-11T07:56:38Z</time>
      </trkpt>
      <trkpt lat="47.79557" lon="-2.44024">
        <ele>48.3</ele>
        <time>2025-02-11T07:56:39Z</time>
      </trkpt>
      <trkpt lat="47.79558" lon="-2.44023">
        <ele>48.6</ele>
        <time>2025-02-11T07:56:40Z</time>
      </trkpt>
      <trkpt lat="47.79559" lon="-2.44022">
        <ele>48.8</ele>
        <time>2025-02-11T07:56:41Z</time>
      </trkpt>
      <trkpt lat="47.7956" lon="-2.44021">
        <ele>49</ele>
        <time>2025-02-11T07:56:42Z</time>
      </trkpt>
      <trkpt lat="47.7956" lon="-2.4402">
        <ele>49.2</ele>
        <time>2025-02-11T07:56:43Z</time>
      </trkpt>
      <trkpt lat="47.79562" lon="-2.44019">
        <ele>49.5</ele>
        <time>2025-02-11T07:56:44Z</time>
      </trkpt>
      <trkpt lat="47.79562" lon="-2.44019">
        <ele>49.7</ele>
        <time>2025-02-11T07:56:45Z</time>
      </trkpt>
      <trkpt lat="47.79563" lon="-2.44018">
        <ele>50</ele>
        <time>2025-02-11T07:56:46Z</time>
      </trkpt>
      <trkpt lat="47.79564" lon="-2.44016">
        <ele>50.1</ele>
        <time>2025-02-11T07:56:47Z</time>
      </trkpt>
      <trkpt lat="47.79565" lon="-2.44016">
        <ele>50.4</ele>
        <time>2025-02-11T07:56:48Z</time>
      </trkpt>
      <trkpt lat="47.79566" lon="-2.44015">
        <ele>50.6</ele>
        <time>2025-02-11T07:56:49Z</time>
      </trkpt>
      <trkpt lat="47.79567" lon="-2.44014">
        <ele>50.8</ele>
        <time>2025-02-11T07:56:50Z</time>
      </trkpt>
      <trkpt lat="47.79567" lon="-2.44013">
        <ele>51</ele>
        <time>2025-02-11T07:56:51Z</time>
      </trkpt>
      <trkpt lat="47.79568" lon="-2.44012">
        <ele>51.1</ele>
        <time>2025-02-11T07:56:52Z</time>
      </trkpt>
      <trkpt lat="47.79569" lon="-2.44011">
        <ele>51.3</ele>
        <time>2025-02-11T07:56:53Z</time>
      </trkpt>
      <trkpt lat="47.79569" lon="-2.44009">
        <ele>51.4</ele>
        <time>2025-02-11T07:56:54Z</time>
      </trkpt>
      <trkpt lat="47.79569" lon="-2.44008">
        <ele>51.5</ele>
        <time>2025-02-11T07:56:55Z</time>
      </trkpt>
      <trkpt lat="47.7957" lon="-2.44007">
        <ele>51.6</ele>
        <time>2025-02-11T07:56:56Z</time>
      </trkpt>
      <trkpt lat="47.7957" lon="-2.44006">
        <ele>51.7</ele>
        <time>2025-02-11T07:56:57Z</time>
      </trkpt>
      <trkpt lat="47.79571" lon="-2.44005">
        <ele>51.9</ele>
        <time>2025-02-11T07:56:58Z</time>
      </trkpt>
      <trkpt lat="47.79572" lon="-2.44004">
        <ele>52</ele>
        <time>2025-02-11T07:56:59Z</time>
      </trkpt>
      <trkpt lat="47.79572" lon="-2.44002">
        <ele>52.1</ele>
        <time>2025-02-11T07:57:00Z</time>
      </trkpt>
      <trkpt lat="47.79572" lon="-2.44">
        <ele>52.2</ele>
        <time>2025-02-11T07:57:01Z</time>
      </trkpt>
      <trkpt lat="47.79573" lon="-2.43999">
        <ele>52.4</ele>
        <time>2025-02-11T07:57:02Z</time>
      </trkpt>
      <trkpt lat="47.79574" lon="-2.43998">
        <ele>52.5</ele>
        <time>2025-02-11T07:57:03Z</time>
      </trkpt>
      <trkpt lat="47.79574" lon="-2.43996">
        <ele>52.5</ele>
        <time>2025-02-11T07:57:04Z</time>
      </trkpt>
      <trkpt lat="47.79574" lon="-2.43995">
        <ele>52.6</ele>
        <time>2025-02-11T07:57:05Z</time>
      </trkpt>
      <trkpt lat="47.79574" lon="-2.43993">
        <ele>52.7</ele>
        <time>2025-02-11T07:57:06Z</time>
      </trkpt>
      <trkpt lat="47.79575" lon="-2.43991">
        <ele>52.7</ele>
        <time>2025-02-11T07:57:07Z</time>
      </trkpt>
      <trkpt lat="47.79575" lon="-2.4399">
        <ele>52.8</ele>
        <time>2025-02-11T07:57:08Z</time>
      </trkpt>
      <trkpt lat="47.79575" lon="-2.43989">
        <ele>52.8</ele>
        <time>2025-02-11T07:57:09Z</time>
      </trkpt>
      <trkpt lat="47.79575" lon="-2.43986">
        <ele>52.7</ele>
        <time>2025-02-11T07:57:10Z</time>
      </trkpt>
      <trkpt lat="47.79575" lon="-2.43985">
        <ele>52.7</ele>
        <time>2025-02-11T07:57:11Z</time>
      </trkpt>
      <trkpt lat="47.79575" lon="-2.43983">
        <ele>52.7</ele>
        <time>2025-02-11T07:57:12Z</time>
      </trkpt>
      <trkpt lat="47.79576" lon="-2.43982">
        <ele>52.8</ele>
        <time>2025-02-11T07:57:13Z</time>
      </trkpt>
      <trkpt lat="47.79576" lon="-2.43981">
        <ele>52.9</ele>
        <time>2025-02-11T07:57:14Z</time>
      </trkpt>
      <trkpt lat="47.79577" lon="-2.43979">
        <ele>53</ele>
        <time>2025-02-11T07:57:15Z</time>
      </trkpt>
      <trkpt lat="47.79578" lon="-2.43978">
        <ele>53.1</ele>
        <time>2025-02-11T07:57:16Z</time>
      </trkpt>
      <trkpt lat="47.79578" lon="-2.43977">
        <ele>53.2</ele>
        <time>2025-02-11T07:57:17Z</time>
      </trkpt>
      <trkpt lat="47.79579" lon="-2.43976">
        <ele>53.3</ele>
        <time>2025-02-11T07:57:18Z</time>
      </trkpt>
      <trkpt lat="47.79579" lon="-2.43974">
        <ele>53.3</ele>
        <time>2025-02-11T07:57:19Z</time>
      </trkpt>
      <trkpt lat="47.7958" lon="-2.43973">
        <ele>53.4</ele>
        <time>2025-02-11T07:57:20Z</time>
      </trkpt>
      <trkpt lat="47.7958" lon="-2.43972">
        <ele>53.4</ele>
        <time>2025-02-11T07:57:21Z</time>
      </trkpt>
      <trkpt lat="47.79581" lon="-2.4397">
        <ele>53.5</ele>
        <time>2025-02-11T07:57:22Z</time>
      </trkpt>
      <trkpt lat="47.79581" lon="-2.43969">
        <ele>53.6</ele>
        <time>2025-02-11T07:57:23Z</time>
      </trkpt>
      <trkpt lat="47.79581" lon="-2.43969">
        <ele>53.7</ele>
        <time>2025-02-11T07:57:24Z</time>
      </trkpt>
      <trkpt lat="47.79582" lon="-2.43968">
        <ele>53.8</ele>
        <time>2025-02-11T07:57:25Z</time>
      </trkpt>
      <trkpt lat="47.79582" lon="-2.43966">
        <ele>53.8</ele>
        <time>2025-02-11T07:57:26Z</time>
      </trkpt>
      <trkpt lat="47.79583" lon="-2.43965">
        <ele>54</ele>
        <time>2025-02-11T07:57:27Z</time>
      </trkpt>
      <trkpt lat="47.79584" lon="-2.43965">
        <ele>54.1</ele>
        <time>2025-02-11T07:57:28Z</time>
      </trkpt>
      <trkpt lat="47.79584" lon="-2.43963">
        <ele>54.2</ele>
        <time>2025-02-11T07:57:29Z</time>
      </trkpt>
      <trkpt lat="47.79584" lon="-2.43961">
        <ele>54.3</ele>
        <time>2025-02-11T07:57:30Z</time>
      </trkpt>
      <trkpt lat="47.79585" lon="-2.43959">
        <ele>54.4</ele>
        <time>2025-02-11T07:57:31Z</time>
      </trkpt>
      <trkpt lat="47.79585" lon="-2.43958">
        <ele>54.4</ele>
        <time>2025-02-11T07:57:32Z</time>
      </trkpt>
      <trkpt lat="47.79585" lon="-2.43957">
        <ele>54.4</ele>
        <time>2025-02-11T07:57:33Z</time>
      </trkpt>
      <trkpt lat="47.79585" lon="-2.43955">
        <ele>54.4</ele>
        <time>2025-02-11T07:57:34Z</time>
      </trkpt>
      <trkpt lat="47.79585" lon="-2.43954">
        <ele>54.4</ele>
        <time>2025-02-11T07:57:35Z</time>
      </trkpt>
      <trkpt lat="47.79585" lon="-2.43953">
        <ele>54.4</ele>
        <time>2025-02-11T07:57:36Z</time>
      </trkpt>
      <trkpt lat="47.79585" lon="-2.43951">
        <ele>54.4</ele>
        <time>2025-02-11T07:57:37Z</time>
      </trkpt>
      <trkpt lat="47.79586" lon="-2.4395">
        <ele>54.6</ele>
        <time>2025-02-11T07:57:38Z</time>
      </trkpt>
      <trkpt lat="47.79586" lon="-2.43948">
        <ele>54.7</ele>
        <time>2025-02-11T07:57:39Z</time>
      </trkpt>
      <trkpt lat="47.79586" lon="-2.43947">
        <ele>54.7</ele>
        <time>2025-02-11T07:57:40Z</time>
      </trkpt>
      <trkpt lat="47.79587" lon="-2.43945">
        <ele>54.8</ele>
        <time>2025-02-11T07:57:41Z</time>
      </trkpt>
      <trkpt lat="47.79587" lon="-2.43945">
        <ele>54.9</ele>
        <time>2025-02-11T07:57:42Z</time>
      </trkpt>
      <trkpt lat="47.79587" lon="-2.43944">
        <ele>55</ele>
        <time>2025-02-11T07:57:43Z</time>
      </trkpt>
      <trkpt lat="47.79588" lon="-2.43942">
        <ele>55.1</ele>
        <time>2025-02-11T07:57:44Z</time>
      </trkpt>
      <trkpt lat="47.79587" lon="-2.43941">
        <ele>55.1</ele>
        <time>2025-02-11T07:57:45Z</time>
      </trkpt>
      <trkpt lat="47.79588" lon="-2.4394">
        <ele>55.3</ele>
        <time>2025-02-11T07:57:46Z</time>
      </trkpt>
      <trkpt lat="47.79588" lon="-2.43938">
        <ele>55.3</ele>
        <time>2025-02-11T07:57:47Z</time>
      </trkpt>
      <trkpt lat="47.79588" lon="-2.43937">
        <ele>55.3</ele>
        <time>2025-02-11T07:57:48Z</time>
      </trkpt>
      <trkpt lat="47.79588" lon="-2.43935">
        <ele>55.4</ele>
        <time>2025-02-11T07:57:49Z</time>
      </trkpt>
      <trkpt lat="47.79588" lon="-2.43934">
        <ele>55.4</ele>
        <time>2025-02-11T07:57:50Z</time>
      </trkpt>
      <trkpt lat="47.79588" lon="-2.43932">
        <ele>55.4</ele>
        <time>2025-02-11T07:57:51Z</time>
      </trkpt>
      <trkpt lat="47.79588" lon="-2.43931">
        <ele>55.5</ele>
        <time>2025-02-11T07:57:52Z</time>
      </trkpt>
      <trkpt lat="47.79588" lon="-2.43929">
        <ele>55.6</ele>
        <time>2025-02-11T07:57:53Z</time>
      </trkpt>
      <trkpt lat="47.79588" lon="-2.43928">
        <ele>55.7</ele>
        <time>2025-02-11T07:57:54Z</time>
      </trkpt>
      <trkpt lat="47.79588" lon="-2.43926">
        <ele>55.8</ele>
        <time>2025-02-11T07:57:55Z</time>
      </trkpt>
      <trkpt lat="47.79588" lon="-2.43924">
        <ele>55.8</ele>
        <time>2025-02-11T07:57:56Z</time>
      </trkpt>
      <trkpt lat="47.79588" lon="-2.43922">
        <ele>55.9</ele>
        <time>2025-02-11T07:57:57Z</time>
      </trkpt>
      <trkpt lat="47.79588" lon="-2.43921">
        <ele>55.9</ele>
        <time>2025-02-11T07:57:58Z</time>
      </trkpt>
      <trkpt lat="47.79588" lon="-2.43919">
        <ele>55.9</ele>
        <time>2025-02-11T07:57:59Z</time>
      </trkpt>
      <trkpt lat="47.79589" lon="-2.43917">
        <ele>56.1</ele>
        <time>2025-02-11T07:58:00Z</time>
      </trkpt>
      <trkpt lat="47.79589" lon="-2.43915">
        <ele>56.1</ele>
        <time>2025-02-11T07:58:01Z</time>
      </trkpt>
      <trkpt lat="47.79588" lon="-2.43914">
        <ele>56.1</ele>
        <time>2025-02-11T07:58:02Z</time>
      </trkpt>
      <trkpt lat="47.79588" lon="-2.43912">
        <ele>56.1</ele>
        <time>2025-02-11T07:58:03Z</time>
      </trkpt>
      <trkpt lat="47.79589" lon="-2.43911">
        <ele>56.1</ele>
        <time>2025-02-11T07:58:04Z</time>
      </trkpt>
      <trkpt lat="47.79589" lon="-2.43909">
        <ele>56.2</ele>
        <time>2025-02-11T07:58:05Z</time>
      </trkpt>
      <trkpt lat="47.79589" lon="-2.43907">
        <ele>56.3</ele>
        <time>2025-02-11T07:58:06Z</time>
      </trkpt>
      <trkpt lat="47.7959" lon="-2.43905">
        <ele>56.4</ele>
        <time>2025-02-11T07:58:07Z</time>
      </trkpt>
      <trkpt lat="47.7959" lon="-2.43904">
        <ele>56.5</ele>
        <time>2025-02-11T07:58:08Z</time>
      </trkpt>
      <trkpt lat="47.7959" lon="-2.43902">
        <ele>56.4</ele>
        <time>2025-02-11T07:58:09Z</time>
      </trkpt>
      <trkpt lat="47.7959" lon="-2.43901">
        <ele>56.4</ele>
        <time>2025-02-11T07:58:10Z</time>
      </trkpt>
      <trkpt lat="47.7959" lon="-2.43899">
        <ele>56.5</ele>
        <time>2025-02-11T07:58:11Z</time>
      </trkpt>
      <trkpt lat="47.7959" lon="-2.43898">
        <ele>56.5</ele>
        <time>2025-02-11T07:58:12Z</time>
      </trkpt>
      <trkpt lat="47.79591" lon="-2.43897">
        <ele>56.7</ele>
        <time>2025-02-11T07:58:13Z</time>
      </trkpt>
      <trkpt lat="47.79591" lon="-2.43895">
        <ele>56.7</ele>
        <time>2025-02-11T07:58:14Z</time>
      </trkpt>
      <trkpt lat="47.79592" lon="-2.43894">
        <ele>56.8</ele>
        <time>2025-02-11T07:58:15Z</time>
      </trkpt>
      <trkpt lat="47.79592" lon="-2.43892">
        <ele>56.9</ele>
        <time>2025-02-11T07:58:16Z</time>
      </trkpt>
      <trkpt lat="47.79593" lon="-2.43891">
        <ele>57</ele>
        <time>2025-02-11T07:58:17Z</time>
      </trkpt>
      <trkpt lat="47.79593" lon="-2.4389">
        <ele>57.1</ele>
        <time>2025-02-11T07:58:18Z</time>
      </trkpt>
      <trkpt lat="47.79593" lon="-2.43888">
        <ele>57.1</ele>
        <time>2025-02-11T07:58:19Z</time>
      </trkpt>
      <trkpt lat="47.79594" lon="-2.43887">
        <ele>57.1</ele>
        <time>2025-02-11T07:58:20Z</time>
      </trkpt>
      <trkpt lat="47.79594" lon="-2.43885">
        <ele>57.2</ele>
        <time>2025-02-11T07:58:21Z</time>
      </trkpt>
      <trkpt lat="47.79596" lon="-2.43885">
        <ele>57.4</ele>
        <time>2025-02-11T07:58:22Z</time>
      </trkpt>
      <trkpt lat="47.79597" lon="-2.43884">
        <ele>57.6</ele>
        <time>2025-02-11T07:58:23Z</time>
      </trkpt>
      <trkpt lat="47.79598" lon="-2.43883">
        <ele>57.8</ele>
        <time>2025-02-11T07:58:24Z</time>
      </trkpt>
      <trkpt lat="47.79599" lon="-2.43882">
        <ele>57.9</ele>
        <time>2025-02-11T07:58:25Z</time>
      </trkpt>
      <trkpt lat="47.796" lon="-2.43882">
        <ele>58.1</ele>
        <time>2025-02-11T07:58:26Z</time>
      </trkpt>
      <trkpt lat="47.79602" lon="-2.43881">
        <ele>58.3</ele>
        <time>2025-02-11T07:58:27Z</time>
      </trkpt>
      <trkpt lat="47.79603" lon="-2.43881">
        <ele>58.4</ele>
        <time>2025-02-11T07:58:28Z</time>
      </trkpt>
      <trkpt lat="47.79604" lon="-2.4388">
        <ele>58.6</ele>
        <time>2025-02-11T07:58:29Z</time>
      </trkpt>
      <trkpt lat="47.79604" lon="-2.43879">
        <ele>58.6</ele>
        <time>2025-02-11T07:58:30Z</time>
      </trkpt>
      <trkpt lat="47.79605" lon="-2.43878">
        <ele>58.7</ele>
        <time>2025-02-11T07:58:31Z</time>
      </trkpt>
      <trkpt lat="47.79606" lon="-2.43877">
        <ele>58.9</ele>
        <time>2025-02-11T07:58:32Z</time>
      </trkpt>
      <trkpt lat="47.79607" lon="-2.43876">
        <ele>58.9</ele>
        <time>2025-02-11T07:58:33Z</time>
      </trkpt>
      <trkpt lat="47.79608" lon="-2.43876">
        <ele>59</ele>
        <time>2025-02-11T07:58:34Z</time>
      </trkpt>
      <trkpt lat="47.79609" lon="-2.43875">
        <ele>59.1</ele>
        <time>2025-02-11T07:58:35Z</time>
      </trkpt>
      <trkpt lat="47.7961" lon="-2.43875">
        <ele>59.2</ele>
        <time>2025-02-11T07:58:36Z</time>
      </trkpt>
      <trkpt lat="47.79611" lon="-2.43875">
        <ele>59.5</ele>
        <time>2025-02-11T07:58:37Z</time>
      </trkpt>
      <trkpt lat="47.79612" lon="-2.43875">
        <ele>59.5</ele>
        <time>2025-02-11T07:58:38Z</time>
      </trkpt>
      <trkpt lat="47.79613" lon="-2.43875">
        <ele>59.6</ele>
        <time>2025-02-11T07:58:39Z</time>
      </trkpt>
      <trkpt lat="47.79614" lon="-2.43875">
        <ele>59.7</ele>
        <time>2025-02-11T07:58:40Z</time>
      </trkpt>
      <trkpt lat="47.79615" lon="-2.43875">
        <ele>59.7</ele>
        <time>2025-02-11T07:58:41Z</time>
      </trkpt>
      <trkpt lat="47.79616" lon="-2.43875">
        <ele>59.8</ele>
        <time>2025-02-11T07:58:42Z</time>
      </trkpt>
      <trkpt lat="47.79617" lon="-2.43876">
        <ele>59.9</ele>
        <time>2025-02-11T07:58:43Z</time>
      </trkpt>
      <trkpt lat="47.79618" lon="-2.43876">
        <ele>60</ele>
        <time>2025-02-11T07:58:44Z</time>
      </trkpt>
      <trkpt lat="47.7962" lon="-2.43876">
        <ele>60.1</ele>
        <time>2025-02-11T07:58:45Z</time>
      </trkpt>
      <trkpt lat="47.79621" lon="-2.43876">
        <ele>60.2</ele>
        <time>2025-02-11T07:58:46Z</time>
      </trkpt>
      <trkpt lat="47.79622" lon="-2.43877">
        <ele>60.4</ele>
        <time>2025-02-11T07:58:47Z</time>
      </trkpt>
      <trkpt lat="47.79623" lon="-2.43878">
        <ele>60.5</ele>
        <time>2025-02-11T07:58:48Z</time>
      </trkpt>
      <trkpt lat="47.79624" lon="-2.43879">
        <ele>60.6</ele>
        <time>2025-02-11T07:58:49Z</time>
      </trkpt>
      <trkpt lat="47.79624" lon="-2.43879">
        <ele>60.8</ele>
        <time>2025-02-11T07:58:50Z</time>
      </trkpt>
      <trkpt lat="47.79625" lon="-2.4388">
        <ele>60.9</ele>
        <time>2025-02-11T07:58:51Z</time>
      </trkpt>
      <trkpt lat="47.79626" lon="-2.43881">
        <ele>61</ele>
        <time>2025-02-11T07:58:52Z</time>
      </trkpt>
      <trkpt lat="47.79627" lon="-2.43881">
        <ele>61.1</ele>
        <time>2025-02-11T07:58:53Z</time>
      </trkpt>
      <trkpt lat="47.79628" lon="-2.43882">
        <ele>61.3</ele>
        <time>2025-02-11T07:58:54Z</time>
      </trkpt>
      <trkpt lat="47.79629" lon="-2.43882">
        <ele>61.4</ele>
        <time>2025-02-11T07:58:55Z</time>
      </trkpt>
      <trkpt lat="47.7963" lon="-2.43883">
        <ele>61.5</ele>
        <time>2025-02-11T07:58:56Z</time>
      </trkpt>
      <trkpt lat="47.79631" lon="-2.43883">
        <ele>61.7</ele>
        <time>2025-02-11T07:58:57Z</time>
      </trkpt>
      <trkpt lat="47.79632" lon="-2.43883">
        <ele>61.7</ele>
        <time>2025-02-11T07:58:58Z</time>
      </trkpt>
      <trkpt lat="47.79633" lon="-2.43883">
        <ele>61.8</ele>
        <time>2025-02-11T07:58:59Z</time>
      </trkpt>
      <trkpt lat="47.79634" lon="-2.43883">
        <ele>61.9</ele>
        <time>2025-02-11T07:59:00Z</time>
      </trkpt>
      <trkpt lat="47.79635" lon="-2.43884">
        <ele>62</ele>
        <time>2025-02-11T07:59:01Z</time>
      </trkpt>
      <trkpt lat="47.79636" lon="-2.43883">
        <ele>62</ele>
        <time>2025-02-11T07:59:02Z</time>
      </trkpt>
      <trkpt lat="47.79637" lon="-2.43883">
        <ele>62.1</ele>
        <time>2025-02-11T07:59:03Z</time>
      </trkpt>
      <trkpt lat="47.79638" lon="-2.43883">
        <ele>62.1</ele>
        <time>2025-02-11T07:59:04Z</time>
      </trkpt>
      <trkpt lat="47.79639" lon="-2.43883">
        <ele>62.2</ele>
        <time>2025-02-11T07:59:05Z</time>
      </trkpt>
      <trkpt lat="47.7964" lon="-2.43884">
        <ele>62.3</ele>
        <time>2025-02-11T07:59:06Z</time>
      </trkpt>
      <trkpt lat="47.79641" lon="-2.43885">
        <ele>62.5</ele>
        <time>2025-02-11T07:59:07Z</time>
      </trkpt>
      <trkpt lat="47.79642" lon="-2.43885">
        <ele>62.6</ele>
        <time>2025-02-11T07:59:08Z</time>
      </trkpt>
      <trkpt lat="47.79643" lon="-2.43885">
        <ele>62.7</ele>
        <time>2025-02-11T07:59:09Z</time>
      </trkpt>
      <trkpt lat="47.79644" lon="-2.43885">
        <ele>62.7</ele>
        <time>2025-02-11T07:59:10Z</time>
      </trkpt>
      <trkpt lat="47.79645" lon="-2.43885">
        <ele>62.7</ele>
        <time>2025-02-11T07:59:11Z</time>
      </trkpt>
      <trkpt lat="47.79646" lon="-2.43885">
        <ele>62.7</ele>
        <time>2025-02-11T07:59:12Z</time>
      </trkpt>
      <trkpt lat="47.79647" lon="-2.43885">
        <ele>62.8</ele>
        <time>2025-02-11T07:59:13Z</time>
      </trkpt>
      <trkpt lat="47.79648" lon="-2.43885">
        <ele>62.9</ele>
        <time>2025-02-11T07:59:14Z</time>
      </trkpt>
      <trkpt lat="47.79649" lon="-2.43886">
        <ele>63</ele>
        <time>2025-02-11T07:59:15Z</time>
      </trkpt>
      <trkpt lat="47.79651" lon="-2.43886">
        <ele>63.1</ele>
        <time>2025-02-11T07:59:16Z</time>
      </trkpt>
      <trkpt lat="47.79652" lon="-2.43887">
        <ele>63.2</ele>
        <time>2025-02-11T07:59:17Z</time>
      </trkpt>
      <trkpt lat="47.79653" lon="-2.43887">
        <ele>63.3</ele>
        <time>2025-02-11T07:59:18Z</time>
      </trkpt>
      <trkpt lat="47.79654" lon="-2.43887">
        <ele>63.3</ele>
        <time>2025-02-11T07:59:19Z</time>
      </trkpt>
      <trkpt lat="47.79656" lon="-2.43887">
        <ele>63.4</ele>
        <time>2025-02-11T07:59:20Z</time>
      </trkpt>
      <trkpt lat="47.79657" lon="-2.43887">
        <ele>63.4</ele>
        <time>2025-02-11T07:59:21Z</time>
      </trkpt>
      <trkpt lat="47.79658" lon="-2.43887">
        <ele>63.5</ele>
        <time>2025-02-11T07:59:22Z</time>
      </trkpt>
      <trkpt lat="47.79659" lon="-2.43887">
        <ele>63.5</ele>
        <time>2025-02-11T07:59:23Z</time>
      </trkpt>
      <trkpt lat="47.7966" lon="-2.43888">
        <ele>63.6</ele>
        <time>2025-02-11T07:59:24Z</time>
      </trkpt>
      <trkpt lat="47.79661" lon="-2.43888">
        <ele>63.7</ele>
        <time>2025-02-11T07:59:25Z</time>
      </trkpt>
      <trkpt lat="47.79662" lon="-2.43888">
        <ele>63.8</ele>
        <time>2025-02-11T07:59:26Z</time>
      </trkpt>
      <trkpt lat="47.79663" lon="-2.43888">
        <ele>63.8</ele>
        <time>2025-02-11T07:59:27Z</time>
      </trkpt>
      <trkpt lat="47.79664" lon="-2.43888">
        <ele>63.8</ele>
        <time>2025-02-11T07:59:28Z</time>
      </trkpt>
      <trkpt lat="47.79666" lon="-2.43887">
        <ele>63.8</ele>
        <time>2025-02-11T07:59:29Z</time>
      </trkpt>
      <trkpt lat="47.79667" lon="-2.43887">
        <ele>63.9</ele>
        <time>2025-02-11T07:59:30Z</time>
      </trkpt>
      <trkpt lat="47.79668" lon="-2.43886">
        <ele>64</ele>
        <time>2025-02-11T07:59:31Z</time>
      </trkpt>
      <trkpt lat="47.79669" lon="-2.43885">
        <ele>64.1</ele>
        <time>2025-02-11T07:59:32Z</time>
      </trkpt>
      <trkpt lat="47.7967" lon="-2.43884">
        <ele>64.2</ele>
        <time>2025-02-11T07:59:33Z</time>
      </trkpt>
      <trkpt lat="47.79671" lon="-2.43883">
        <ele>64.3</ele>
        <time>2025-02-11T07:59:34Z</time>
      </trkpt>
      <trkpt lat="47.79672" lon="-2.43882">
        <ele>64.4</ele>
        <time>2025-02-11T07:59:35Z</time>
      </trkpt>
      <trkpt lat="47.79674" lon="-2.43882">
        <ele>64.5</ele>
        <time>2025-02-11T07:59:36Z</time>
      </trkpt>
      <trkpt lat="47.79675" lon="-2.43881">
        <ele>64.6</ele>
        <time>2025-02-11T07:59:37Z</time>
      </trkpt>
      <trkpt lat="47.79676" lon="-2.4388">
        <ele>64.7</ele>
        <time>2025-02-11T07:59:38Z</time>
      </trkpt>
      <trkpt lat="47.79677" lon="-2.43879">
        <ele>64.9</ele>
        <time>2025-02-11T07:59:39Z</time>
      </trkpt>
      <trkpt lat="47.79678" lon="-2.43879">
        <ele>65.1</ele>
        <time>2025-02-11T07:59:40Z</time>
      </trkpt>
      <trkpt lat="47.79679" lon="-2.43878">
        <ele>65.2</ele>
        <time>2025-02-11T07:59:41Z</time>
      </trkpt>
      <trkpt lat="47.7968" lon="-2.43878">
        <ele>65.3</ele>
        <time>2025-02-11T07:59:42Z</time>
      </trkpt>
      <trkpt lat="47.7968" lon="-2.43877">
        <ele>65.3</ele>
        <time>2025-02-11T07:59:43Z</time>
      </trkpt>
      <trkpt lat="47.79681" lon="-2.43876">
        <ele>65.3</ele>
        <time>2025-02-11T07:59:44Z</time>
      </trkpt>
      <trkpt lat="47.79681" lon="-2.43874">
        <ele>65.3</ele>
        <time>2025-02-11T07:59:45Z</time>
      </trkpt>
      <trkpt lat="47.79682" lon="-2.43874">
        <ele>65.4</ele>
        <time>2025-02-11T07:59:46Z</time>
      </trkpt>
      <trkpt lat="47.79683" lon="-2.43874">
        <ele>65.5</ele>
        <time>2025-02-11T07:59:47Z</time>
      </trkpt>
      <trkpt lat="47.79683" lon="-2.43873">
        <ele>65.5</ele>
        <time>2025-02-11T07:59:48Z</time>
      </trkpt>
      <trkpt lat="47.79683" lon="-2.43871">
        <ele>65.5</ele>
        <time>2025-02-11T07:59:49Z</time>
      </trkpt>
      <trkpt lat="47.79684" lon="-2.43871">
        <ele>65.6</ele>
        <time>2025-02-11T07:59:50Z</time>
      </trkpt>
      <trkpt lat="47.79684" lon="-2.43871">
        <ele>65.7</ele>
        <time>2025-02-11T07:59:51Z</time>
      </trkpt>
      <trkpt lat="47.79685" lon="-2.43871">
        <ele>65.7</ele>
        <time>2025-02-11T07:59:52Z</time>
      </trkpt>
      <trkpt lat="47.79685" lon="-2.4387">
        <ele>65.7</ele>
        <time>2025-02-11T07:59:53Z</time>
      </trkpt>
      <trkpt lat="47.79685" lon="-2.43868">
        <ele>65.6</ele>
        <time>2025-02-11T07:59:54Z</time>
      </trkpt>
      <trkpt lat="47.79684" lon="-2.43866">
        <ele>65.3</ele>
        <time>2025-02-11T07:59:55Z</time>
      </trkpt>
      <trkpt lat="47.79683" lon="-2.43865">
        <ele>65</ele>
        <time>2025-02-11T07:59:56Z</time>
      </trkpt>
      <trkpt lat="47.79682" lon="-2.43863">
        <ele>64.8</ele>
        <time>2025-02-11T07:59:57Z</time>
      </trkpt>
      <trkpt lat="47.79681" lon="-2.43861">
        <ele>64.6</ele>
        <time>2025-02-11T07:59:58Z</time>
      </trkpt>
      <trkpt lat="47.79681" lon="-2.4386">
        <ele>64.7</ele>
        <time>2025-02-11T07:59:59Z</time>
      </trkpt>
      <trkpt lat="47.79682" lon="-2.43859">
        <ele>64.8</ele>
        <time>2025-02-11T08:00:00Z</time>
      </trkpt>
      <trkpt lat="47.79683" lon="-2.43859">
        <ele>64.9</ele>
        <time>2025-02-11T08:00:01Z</time>
      </trkpt>
      <trkpt lat="47.79684" lon="-2.43859">
        <ele>65.1</ele>
        <time>2025-02-11T08:00:02Z</time>
      </trkpt>
      <trkpt lat="47.79685" lon="-2.43858">
        <ele>65.2</ele>
        <time>2025-02-11T08:00:03Z</time>
      </trkpt>
      <trkpt lat="47.79685" lon="-2.43858">
        <ele>65.4</ele>
        <time>2025-02-11T08:00:04Z</time>
      </trkpt>
      <trkpt lat="47.79686" lon="-2.43857">
        <ele>65.5</ele>
        <time>2025-02-11T08:00:05Z</time>
      </trkpt>
      <trkpt lat="47.79687" lon="-2.43856">
        <ele>65.6</ele>
        <time>2025-02-11T08:00:06Z</time>
      </trkpt>
      <trkpt lat="47.79687" lon="-2.43855">
        <ele>65.7</ele>
        <time>2025-02-11T08:00:07Z</time>
      </trkpt>
      <trkpt lat="47.79688" lon="-2.43855">
        <ele>65.8</ele>
        <time>2025-02-11T08:00:08Z</time>
      </trkpt>
      <trkpt lat="47.79689" lon="-2.43855">
        <ele>65.9</ele>
        <time>2025-02-11T08:00:09Z</time>
      </trkpt>
      <trkpt lat="47.7969" lon="-2.43854">
        <ele>66.1</ele>
        <time>2025-02-11T08:00:10Z</time>
      </trkpt>
      <trkpt lat="47.7969" lon="-2.43853">
        <ele>66.2</ele>
        <time>2025-02-11T08:00:11Z</time>
      </trkpt>
      <trkpt lat="47.7969" lon="-2.43852">
        <ele>66.3</ele>
        <time>2025-02-11T08:00:12Z</time>
      </trkpt>
      <trkpt lat="47.7969" lon="-2.43853">
        <ele>66.2</ele>
        <time>2025-02-11T08:00:13Z</time>
      </trkpt>
      <trkpt lat="47.7969" lon="-2.43853">
        <ele>66.2</ele>
        <time>2025-02-11T08:00:14Z</time>
      </trkpt>
      <trkpt lat="47.79691" lon="-2.43852">
        <ele>66.3</ele>
        <time>2025-02-11T08:00:15Z</time>
      </trkpt>
      <trkpt lat="47.79691" lon="-2.43851">
        <ele>66.4</ele>
        <time>2025-02-11T08:00:16Z</time>
      </trkpt>
      <trkpt lat="47.79692" lon="-2.43851">
        <ele>66.5</ele>
        <time>2025-02-11T08:00:17Z</time>
      </trkpt>
      <trkpt lat="47.79693" lon="-2.4385">
        <ele>66.7</ele>
        <time>2025-02-11T08:00:18Z</time>
      </trkpt>
      <trkpt lat="47.79693" lon="-2.43849">
        <ele>66.7</ele>
        <time>2025-02-11T08:00:19Z</time>
      </trkpt>
      <trkpt lat="47.79694" lon="-2.43848">
        <ele>66.8</ele>
        <time>2025-02-11T08:00:20Z</time>
      </trkpt>
      <trkpt lat="47.79694" lon="-2.43848">
        <ele>67</ele>
        <time>2025-02-11T08:00:21Z</time>
      </trkpt>
      <trkpt lat="47.79695" lon="-2.43848">
        <ele>67.1</ele>
        <time>2025-02-11T08:00:22Z</time>
      </trkpt>
      <trkpt lat="47.79696" lon="-2.43848">
        <ele>67.2</ele>
        <time>2025-02-11T08:00:23Z</time>
      </trkpt>
      <trkpt lat="47.79696" lon="-2.43847">
        <ele>67.3</ele>
        <time>2025-02-11T08:00:24Z</time>
      </trkpt>
      <trkpt lat="47.79697" lon="-2.43847">
        <ele>67.4</ele>
        <time>2025-02-11T08:00:25Z</time>
      </trkpt>
      <trkpt lat="47.79698" lon="-2.43846">
        <ele>67.5</ele>
        <time>2025-02-11T08:00:26Z</time>
      </trkpt>
      <trkpt lat="47.79698" lon="-2.43847">
        <ele>67.4</ele>
        <time>2025-02-11T08:00:27Z</time>
      </trkpt>
      <trkpt lat="47.79697" lon="-2.43847">
        <ele>67.4</ele>
        <time>2025-02-11T08:00:28Z</time>
      </trkpt>
      <trkpt lat="47.79698" lon="-2.43845">
        <ele>67.5</ele>
        <time>2025-02-11T08:00:29Z</time>
      </trkpt>
      <trkpt lat="47.79698" lon="-2.43844">
        <ele>67.6</ele>
        <time>2025-02-11T08:00:30Z</time>
      </trkpt>
      <trkpt lat="47.79699" lon="-2.43843">
        <ele>67.6</ele>
        <time>2025-02-11T08:00:31Z</time>
      </trkpt>
      <trkpt lat="47.797" lon="-2.43842">
        <ele>67.7</ele>
        <time>2025-02-11T08:00:32Z</time>
      </trkpt>
      <trkpt lat="47.797" lon="-2.43842">
        <ele>67.8</ele>
        <time>2025-02-11T08:00:33Z</time>
      </trkpt>
      <trkpt lat="47.79701" lon="-2.43842">
        <ele>67.9</ele>
        <time>2025-02-11T08:00:34Z</time>
      </trkpt>
      <trkpt lat="47.79701" lon="-2.43841">
        <ele>68</ele>
        <time>2025-02-11T08:00:35Z</time>
      </trkpt>
      <trkpt lat="47.79702" lon="-2.43841">
        <ele>68.1</ele>
        <time>2025-02-11T08:00:36Z</time>
      </trkpt>
      <trkpt lat="47.79702" lon="-2.43841">
        <ele>68.1</ele>
        <time>2025-02-11T08:00:37Z</time>
      </trkpt>
      <trkpt lat="47.79703" lon="-2.4384">
        <ele>68.2</ele>
        <time>2025-02-11T08:00:38Z</time>
      </trkpt>
      <trkpt lat="47.79703" lon="-2.43839">
        <ele>68.2</ele>
        <time>2025-02-11T08:00:39Z</time>
      </trkpt>
      <trkpt lat="47.79703" lon="-2.43839">
        <ele>68.3</ele>
        <time>2025-02-11T08:00:40Z</time>
      </trkpt>
      <trkpt lat="47.79704" lon="-2.43839">
        <ele>68.3</ele>
        <time>2025-02-11T08:00:41Z</time>
      </trkpt>
      <trkpt lat="47.79704" lon="-2.43839">
        <ele>68.4</ele>
        <time>2025-02-11T08:00:42Z</time>
      </trkpt>
      <trkpt lat="47.79705" lon="-2.43838">
        <ele>68.5</ele>
        <time>2025-02-11T08:00:43Z</time>
      </trkpt>
      <trkpt lat="47.79705" lon="-2.43838">
        <ele>68.6</ele>
        <time>2025-02-11T08:00:44Z</time>
      </trkpt>
      <trkpt lat="47.79704" lon="-2.43838">
        <ele>68.4</ele>
        <time>2025-02-11T08:00:45Z</time>
      </trkpt>
      <trkpt lat="47.79704" lon="-2.43838">
        <ele>68.4</ele>
        <time>2025-02-11T08:00:46Z</time>
      </trkpt>
      <trkpt lat="47.79704" lon="-2.43838">
        <ele>68.4</ele>
        <time>2025-02-11T08:00:47Z</time>
      </trkpt>
      <trkpt lat="47.79705" lon="-2.43838">
        <ele>68.6</ele>
        <time>2025-02-11T08:00:48Z</time>
      </trkpt>
      <trkpt lat="47.79706" lon="-2.43838">
        <ele>68.7</ele>
        <time>2025-02-11T08:00:49Z</time>
      </trkpt>
      <trkpt lat="47.79707" lon="-2.43838">
        <ele>68.8</ele>
        <time>2025-02-11T08:00:50Z</time>
      </trkpt>
      <trkpt lat="47.79708" lon="-2.43837">
        <ele>68.9</ele>
        <time>2025-02-11T08:00:51Z</time>
      </trkpt>
      <trkpt lat="47.79709" lon="-2.43837">
        <ele>69.1</ele>
        <time>2025-02-11T08:00:52Z</time>
      </trkpt>
      <trkpt lat="47.7971" lon="-2.43836">
        <ele>69.2</ele>
        <time>2025-02-11T08:00:53Z</time>
      </trkpt>
      <trkpt lat="47.7971" lon="-2.43836">
        <ele>69.3</ele>
        <time>2025-02-11T08:00:54Z</time>
      </trkpt>
      <trkpt lat="47.79711" lon="-2.43835">
        <ele>69.4</ele>
        <time>2025-02-11T08:00:55Z</time>
      </trkpt>
      <trkpt lat="47.79711" lon="-2.43835">
        <ele>69.4</ele>
        <time>2025-02-11T08:00:56Z</time>
      </trkpt>
      <trkpt lat="47.79712" lon="-2.43834">
        <ele>69.5</ele>
        <time>2025-02-11T08:00:57Z</time>
      </trkpt>
      <trkpt lat="47.79712" lon="-2.43833">
        <ele>69.6</ele>
        <time>2025-02-11T08:00:58Z</time>
      </trkpt>
      <trkpt lat="47.79712" lon="-2.43833">
        <ele>69.6</ele>
        <time>2025-02-11T08:00:59Z</time>
      </trkpt>
      <trkpt lat="47.79712" lon="-2.43833">
        <ele>69.6</ele>
        <time>2025-02-11T08:01:00Z</time>
      </trkpt>
      <trkpt lat="47.79714" lon="-2.43832">
        <ele>69.8</ele>
        <time>2025-02-11T08:01:01Z</time>
      </trkpt>
      <trkpt lat="47.79715" lon="-2.43831">
        <ele>69.9</ele>
        <time>2025-02-11T08:01:02Z</time>
      </trkpt>
      <trkpt lat="47.79715" lon="-2.43831">
        <ele>69.9</ele>
        <time>2025-02-11T08:01:03Z</time>
      </trkpt>
      <trkpt lat="47.79715" lon="-2.4383">
        <ele>70</ele>
        <time>2025-02-11T08:01:04Z</time>
      </trkpt>
      <trkpt lat="47.79716" lon="-2.4383">
        <ele>70.1</ele>
        <time>2025-02-11T08:01:05Z</time>
      </trkpt>
      <trkpt lat="47.79717" lon="-2.43829">
        <ele>70.2</ele>
        <time>2025-02-11T08:01:06Z</time>
      </trkpt>
      <trkpt lat="47.79718" lon="-2.43829">
        <ele>70.4</ele>
        <time>2025-02-11T08:01:07Z</time>
      </trkpt>
      <trkpt lat="47.79717" lon="-2.43828">
        <ele>70.2</ele>
        <time>2025-02-11T08:01:08Z</time>
      </trkpt>
      <trkpt lat="47.79717" lon="-2.43825">
        <ele>70.4</ele>
        <time>2025-02-11T08:01:09Z</time>
      </trkpt>
      <trkpt lat="47.79718" lon="-2.43825">
        <ele>70.4</ele>
        <time>2025-02-11T08:01:10Z</time>
      </trkpt>
      <trkpt lat="47.79719" lon="-2.43823">
        <ele>70.5</ele>
        <time>2025-02-11T08:01:11Z</time>
      </trkpt>
      <trkpt lat="47.79719" lon="-2.43822">
        <ele>70.6</ele>
        <time>2025-02-11T08:01:12Z</time>
      </trkpt>
      <trkpt lat="47.7972" lon="-2.43821">
        <ele>70.8</ele>
        <time>2025-02-11T08:01:13Z</time>
      </trkpt>
      <trkpt lat="47.79721" lon="-2.43821">
        <ele>70.9</ele>
        <time>2025-02-11T08:01:14Z</time>
      </trkpt>
      <trkpt lat="47.79722" lon="-2.4382">
        <ele>70.9</ele>
        <time>2025-02-11T08:01:15Z</time>
      </trkpt>
      <trkpt lat="47.79722" lon="-2.43819">
        <ele>71</ele>
        <time>2025-02-11T08:01:16Z</time>
      </trkpt>
      <trkpt lat="47.79723" lon="-2.43818">
        <ele>71.1</ele>
        <time>2025-02-11T08:01:17Z</time>
      </trkpt>
      <trkpt lat="47.79724" lon="-2.43817">
        <ele>71.2</ele>
        <time>2025-02-11T08:01:18Z</time>
      </trkpt>
      <trkpt lat="47.79725" lon="-2.43816">
        <ele>71.3</ele>
        <time>2025-02-11T08:01:19Z</time>
      </trkpt>
      <trkpt lat="47.79726" lon="-2.43815">
        <ele>71.4</ele>
        <time>2025-02-11T08:01:20Z</time>
      </trkpt>
      <trkpt lat="47.79727" lon="-2.43814">
        <ele>71.5</ele>
        <time>2025-02-11T08:01:21Z</time>
      </trkpt>
      <trkpt lat="47.79728" lon="-2.43813">
        <ele>71.6</ele>
        <time>2025-02-11T08:01:22Z</time>
      </trkpt>
      <trkpt lat="47.79729" lon="-2.43811">
        <ele>71.7</ele>
        <time>2025-02-11T08:01:23Z</time>
      </trkpt>
      <trkpt lat="47.7973" lon="-2.4381">
        <ele>71.8</ele>
        <time>2025-02-11T08:01:24Z</time>
      </trkpt>
      <trkpt lat="47.79731" lon="-2.43809">
        <ele>71.9</ele>
        <time>2025-02-11T08:01:25Z</time>
      </trkpt>
      <trkpt lat="47.79732" lon="-2.43808">
        <ele>72</ele>
        <time>2025-02-11T08:01:26Z</time>
      </trkpt>
      <trkpt lat="47.79733" lon="-2.43807">
        <ele>72.1</ele>
        <time>2025-02-11T08:01:27Z</time>
      </trkpt>
      <trkpt lat="47.79734" lon="-2.43807">
        <ele>72.2</ele>
        <time>2025-02-11T08:01:28Z</time>
      </trkpt>
      <trkpt lat="47.79735" lon="-2.43805">
        <ele>72.3</ele>
        <time>2025-02-11T08:01:29Z</time>
      </trkpt>
      <trkpt lat="47.79735" lon="-2.43804">
        <ele>72.4</ele>
        <time>2025-02-11T08:01:30Z</time>
      </trkpt>
      <trkpt lat="47.79736" lon="-2.43803">
        <ele>72.5</ele>
        <time>2025-02-11T08:01:31Z</time>
      </trkpt>
      <trkpt lat="47.79736" lon="-2.43802">
        <ele>72.7</ele>
        <time>2025-02-11T08:01:32Z</time>
      </trkpt>
      <trkpt lat="47.79737" lon="-2.43801">
        <ele>72.7</ele>
        <time>2025-02-11T08:01:33Z</time>
      </trkpt>
      <trkpt lat="47.79737" lon="-2.438">
        <ele>72.8</ele>
        <time>2025-02-11T08:01:34Z</time>
      </trkpt>
      <trkpt lat="47.79738" lon="-2.438">
        <ele>72.9</ele>
        <time>2025-02-11T08:01:35Z</time>
      </trkpt>
      <trkpt lat="47.79739" lon="-2.43799">
        <ele>73</ele>
        <time>2025-02-11T08:01:36Z</time>
      </trkpt>
      <trkpt lat="47.7974" lon="-2.43798">
        <ele>73.2</ele>
        <time>2025-02-11T08:01:37Z</time>
      </trkpt>
      <trkpt lat="47.79741" lon="-2.43797">
        <ele>73.3</ele>
        <time>2025-02-11T08:01:38Z</time>
      </trkpt>
      <trkpt lat="47.79741" lon="-2.43796">
        <ele>73.4</ele>
        <time>2025-02-11T08:01:39Z</time>
      </trkpt>
      <trkpt lat="47.79742" lon="-2.43795">
        <ele>73.5</ele>
        <time>2025-02-11T08:01:40Z</time>
      </trkpt>
      <trkpt lat="47.79742" lon="-2.43794">
        <ele>73.5</ele>
        <time>2025-02-11T08:01:41Z</time>
      </trkpt>
      <trkpt lat="47.79743" lon="-2.43793">
        <ele>73.7</ele>
        <time>2025-02-11T08:01:42Z</time>
      </trkpt>
      <trkpt lat="47.79743" lon="-2.43793">
        <ele>73.7</ele>
        <time>2025-02-11T08:01:43Z</time>
      </trkpt>
      <trkpt lat="47.79744" lon="-2.43792">
        <ele>73.8</ele>
        <time>2025-02-11T08:01:44Z</time>
      </trkpt>
      <trkpt lat="47.79745" lon="-2.43791">
        <ele>74</ele>
        <time>2025-02-11T08:01:45Z</time>
      </trkpt>
      <trkpt lat="47.79746" lon="-2.4379">
        <ele>74.1</ele>
        <time>2025-02-11T08:01:46Z</time>
      </trkpt>
      <trkpt lat="47.79747" lon="-2.4379">
        <ele>74.2</ele>
        <time>2025-02-11T08:01:47Z</time>
      </trkpt>
      <trkpt lat="47.79748" lon="-2.43789">
        <ele>74.3</ele>
        <time>2025-02-11T08:01:48Z</time>
      </trkpt>
      <trkpt lat="47.79748" lon="-2.43788">
        <ele>74.4</ele>
        <time>2025-02-11T08:01:49Z</time>
      </trkpt>
      <trkpt lat="47.79749" lon="-2.43787">
        <ele>74.5</ele>
        <time>2025-02-11T08:01:50Z</time>
      </trkpt>
      <trkpt lat="47.7975" lon="-2.43787">
        <ele>74.7</ele>
        <time>2025-02-11T08:01:51Z</time>
      </trkpt>
      <trkpt lat="47.79751" lon="-2.43786">
        <ele>74.8</ele>
        <time>2025-02-11T08:01:52Z</time>
      </trkpt>
      <trkpt lat="47.79751" lon="-2.43785">
        <ele>74.8</ele>
        <time>2025-02-11T08:01:53Z</time>
      </trkpt>
      <trkpt lat="47.79752" lon="-2.43784">
        <ele>74.9</ele>
        <time>2025-02-11T08:01:54Z</time>
      </trkpt>
      <trkpt lat="47.79752" lon="-2.43782">
        <ele>75</ele>
        <time>2025-02-11T08:01:55Z</time>
      </trkpt>
      <trkpt lat="47.79753" lon="-2.43782">
        <ele>75.1</ele>
        <time>2025-02-11T08:01:56Z</time>
      </trkpt>
      <trkpt lat="47.79753" lon="-2.43781">
        <ele>75.1</ele>
        <time>2025-02-11T08:01:57Z</time>
      </trkpt>
      <trkpt lat="47.79753" lon="-2.43781">
        <ele>75.1</ele>
        <time>2025-02-11T08:01:58Z</time>
      </trkpt>
      <trkpt lat="47.79753" lon="-2.43781">
        <ele>75.1</ele>
        <time>2025-02-11T08:01:59Z</time>
      </trkpt>
      <trkpt lat="47.79753" lon="-2.43781">
        <ele>75.1</ele>
        <time>2025-02-11T08:02:00Z</time>
      </trkpt>
      <trkpt lat="47.79753" lon="-2.43781">
        <ele>75.1</ele>
        <time>2025-02-11T08:02:01Z</time>
      </trkpt>
      <trkpt lat="47.79753" lon="-2.43781">
        <ele>75.1</ele>
        <time>2025-02-11T08:02:02Z</time>
      </trkpt>
      <trkpt lat="47.79753" lon="-2.43781">
        <ele>75.1</ele>
        <time>2025-02-11T08:02:03Z</time>
      </trkpt>
      <trkpt lat="47.79753" lon="-2.43781">
        <ele>75.1</ele>
        <time>2025-02-11T08:02:04Z</time>
      </trkpt>
      <trkpt lat="47.79753" lon="-2.43781">
        <ele>75.1</ele>
        <time>2025-02-11T08:02:05Z</time>
      </trkpt>
      <trkpt lat="47.79753" lon="-2.43781">
        <ele>75.1</ele>
        <time>2025-02-11T08:02:06Z</time>
      </trkpt>
      <trkpt lat="47.79754" lon="-2.43781">
        <ele>75.2</ele>
        <time>2025-02-11T08:02:07Z</time>
      </trkpt>
      <trkpt lat="47.79754" lon="-2.4378">
        <ele>75.2</ele>
        <time>2025-02-11T08:02:08Z</time>
      </trkpt>
      <trkpt lat="47.79754" lon="-2.43779">
        <ele>75.3</ele>
        <time>2025-02-11T08:02:09Z</time>
      </trkpt>
      <trkpt lat="47.79755" lon="-2.43777">
        <ele>75.4</ele>
        <time>2025-02-11T08:02:10Z</time>
      </trkpt>
      <trkpt lat="47.79756" lon="-2.43776">
        <ele>75.5</ele>
        <time>2025-02-11T08:02:11Z</time>
      </trkpt>
      <trkpt lat="47.79757" lon="-2.43775">
        <ele>75.6</ele>
        <time>2025-02-11T08:02:12Z</time>
      </trkpt>
      <trkpt lat="47.79758" lon="-2.43774">
        <ele>75.7</ele>
        <time>2025-02-11T08:02:13Z</time>
      </trkpt>
      <trkpt lat="47.79759" lon="-2.43773">
        <ele>75.8</ele>
        <time>2025-02-11T08:02:14Z</time>
      </trkpt>
      <trkpt lat="47.7976" lon="-2.43772">
        <ele>75.9</ele>
        <time>2025-02-11T08:02:15Z</time>
      </trkpt>
      <trkpt lat="47.79761" lon="-2.43771">
        <ele>76</ele>
        <time>2025-02-11T08:02:16Z</time>
      </trkpt>
      <trkpt lat="47.79762" lon="-2.43771">
        <ele>76.1</ele>
        <time>2025-02-11T08:02:17Z</time>
      </trkpt>
      <trkpt lat="47.79762" lon="-2.43769">
        <ele>76.1</ele>
        <time>2025-02-11T08:02:18Z</time>
      </trkpt>
      <trkpt lat="47.79762" lon="-2.43769">
        <ele>76.2</ele>
        <time>2025-02-11T08:02:19Z</time>
      </trkpt>
      <trkpt lat="47.79762" lon="-2.43768">
        <ele>76.2</ele>
        <time>2025-02-11T08:02:20Z</time>
      </trkpt>
      <trkpt lat="47.79762" lon="-2.43766">
        <ele>76.3</ele>
        <time>2025-02-11T08:02:21Z</time>
      </trkpt>
      <trkpt lat="47.79762" lon="-2.43765">
        <ele>76.3</ele>
        <time>2025-02-11T08:02:22Z</time>
      </trkpt>
      <trkpt lat="47.79763" lon="-2.43764">
        <ele>76.4</ele>
        <time>2025-02-11T08:02:23Z</time>
      </trkpt>
      <trkpt lat="47.79764" lon="-2.43763">
        <ele>76.5</ele>
        <time>2025-02-11T08:02:24Z</time>
      </trkpt>
      <trkpt lat="47.79765" lon="-2.43762">
        <ele>76.6</ele>
        <time>2025-02-11T08:02:25Z</time>
      </trkpt>
      <trkpt lat="47.79766" lon="-2.43762">
        <ele>76.7</ele>
        <time>2025-02-11T08:02:26Z</time>
      </trkpt>
      <trkpt lat="47.79766" lon="-2.43761">
        <ele>76.8</ele>
        <time>2025-02-11T08:02:27Z</time>
      </trkpt>
      <trkpt lat="47.79767" lon="-2.4376">
        <ele>76.9</ele>
        <time>2025-02-11T08:02:28Z</time>
      </trkpt>
      <trkpt lat="47.79767" lon="-2.43759">
        <ele>76.9</ele>
        <time>2025-02-11T08:02:29Z</time>
      </trkpt>
      <trkpt lat="47.79768" lon="-2.43758">
        <ele>77</ele>
        <time>2025-02-11T08:02:30Z</time>
      </trkpt>
      <trkpt lat="47.79769" lon="-2.43757">
        <ele>77.1</ele>
        <time>2025-02-11T08:02:31Z</time>
      </trkpt>
      <trkpt lat="47.79769" lon="-2.43756">
        <ele>77.1</ele>
        <time>2025-02-11T08:02:32Z</time>
      </trkpt>
      <trkpt lat="47.79769" lon="-2.43755">
        <ele>77.2</ele>
        <time>2025-02-11T08:02:33Z</time>
      </trkpt>
      <trkpt lat="47.7977" lon="-2.43755">
        <ele>77.3</ele>
        <time>2025-02-11T08:02:34Z</time>
      </trkpt>
      <trkpt lat="47.7977" lon="-2.43755">
        <ele>77.3</ele>
        <time>2025-02-11T08:02:35Z</time>
      </trkpt>
      <trkpt lat="47.7977" lon="-2.43755">
        <ele>77.3</ele>
        <time>2025-02-11T08:02:36Z</time>
      </trkpt>
      <trkpt lat="47.7977" lon="-2.43756">
        <ele>77.2</ele>
        <time>2025-02-11T08:02:37Z</time>
      </trkpt>
      <trkpt lat="47.79771" lon="-2.43756">
        <ele>77.3</ele>
        <time>2025-02-11T08:02:38Z</time>
      </trkpt>
      <trkpt lat="47.79771" lon="-2.43756">
        <ele>77.3</ele>
        <time>2025-02-11T08:02:39Z</time>
      </trkpt>
      <trkpt lat="47.79771" lon="-2.43756">
        <ele>77.3</ele>
        <time>2025-02-11T08:02:40Z</time>
      </trkpt>
      <trkpt lat="47.79771" lon="-2.43756">
        <ele>77.3</ele>
        <time>2025-02-11T08:02:41Z</time>
      </trkpt>
      <trkpt lat="47.79771" lon="-2.43756">
        <ele>77.3</ele>
        <time>2025-02-11T08:02:42Z</time>
      </trkpt>
      <trkpt lat="47.79771" lon="-2.43756">
        <ele>77.3</ele>
        <time>2025-02-11T08:02:43Z</time>
      </trkpt>
      <trkpt lat="47.79771" lon="-2.43756">
        <ele>77.3</ele>
        <time>2025-02-11T08:02:44Z</time>
      </trkpt>
      <trkpt lat="47.79772" lon="-2.43754">
        <ele>77.4</ele>
        <time>2025-02-11T08:02:45Z</time>
      </trkpt>
      <trkpt lat="47.79771" lon="-2.43753">
        <ele>77.4</ele>
        <time>2025-02-11T08:02:46Z</time>
      </trkpt>
      <trkpt lat="47.79771" lon="-2.43751">
        <ele>77.5</ele>
        <time>2025-02-11T08:02:47Z</time>
      </trkpt>
      <trkpt lat="47.79771" lon="-2.4375">
        <ele>77.5</ele>
        <time>2025-02-11T08:02:48Z</time>
      </trkpt>
      <trkpt lat="47.79771" lon="-2.43749">
        <ele>77.5</ele>
        <time>2025-02-11T08:02:49Z</time>
      </trkpt>
      <trkpt lat="47.79771" lon="-2.43748">
        <ele>77.6</ele>
        <time>2025-02-11T08:02:50Z</time>
      </trkpt>
      <trkpt lat="47.79771" lon="-2.43746">
        <ele>77.7</ele>
        <time>2025-02-11T08:02:51Z</time>
      </trkpt>
      <trkpt lat="47.79772" lon="-2.43745">
        <ele>77.7</ele>
        <time>2025-02-11T08:02:52Z</time>
      </trkpt>
      <trkpt lat="47.79772" lon="-2.43744">
        <ele>77.8</ele>
        <time>2025-02-11T08:02:53Z</time>
      </trkpt>
      <trkpt lat="47.79771" lon="-2.43742">
        <ele>77.8</ele>
        <time>2025-02-11T08:02:54Z</time>
      </trkpt>
      <trkpt lat="47.79771" lon="-2.4374">
        <ele>77.8</ele>
        <time>2025-02-11T08:02:55Z</time>
      </trkpt>
      <trkpt lat="47.7977" lon="-2.43738">
        <ele>77.9</ele>
        <time>2025-02-11T08:02:56Z</time>
      </trkpt>
      <trkpt lat="47.79771" lon="-2.43737">
        <ele>78</ele>
        <time>2025-02-11T08:02:57Z</time>
      </trkpt>
      <trkpt lat="47.79771" lon="-2.43735">
        <ele>78.1</ele>
        <time>2025-02-11T08:02:58Z</time>
      </trkpt>
      <trkpt lat="47.79771" lon="-2.43734">
        <ele>78.1</ele>
        <time>2025-02-11T08:02:59Z</time>
      </trkpt>
      <trkpt lat="47.79771" lon="-2.43732">
        <ele>78.1</ele>
        <time>2025-02-11T08:03:00Z</time>
      </trkpt>
      <trkpt lat="47.79771" lon="-2.43731">
        <ele>78.2</ele>
        <time>2025-02-11T08:03:01Z</time>
      </trkpt>
      <trkpt lat="47.79771" lon="-2.43729">
        <ele>78.3</ele>
        <time>2025-02-11T08:03:02Z</time>
      </trkpt>
      <trkpt lat="47.79771" lon="-2.43728">
        <ele>78.3</ele>
        <time>2025-02-11T08:03:03Z</time>
      </trkpt>
      <trkpt lat="47.79773" lon="-2.43725">
        <ele>78.6</ele>
        <time>2025-02-11T08:03:04Z</time>
      </trkpt>
      <trkpt lat="47.79775" lon="-2.43726">
        <ele>78.7</ele>
        <time>2025-02-11T08:03:05Z</time>
      </trkpt>
      <trkpt lat="47.79774" lon="-2.43726">
        <ele>78.6</ele>
        <time>2025-02-11T08:03:06Z</time>
      </trkpt>
      <trkpt lat="47.79774" lon="-2.43725">
        <ele>78.6</ele>
        <time>2025-02-11T08:03:07Z</time>
      </trkpt>
      <trkpt lat="47.79773" lon="-2.43724">
        <ele>78.6</ele>
        <time>2025-02-11T08:03:08Z</time>
      </trkpt>
      <trkpt lat="47.79773" lon="-2.43721">
        <ele>78.7</ele>
        <time>2025-02-11T08:03:09Z</time>
      </trkpt>
      <trkpt lat="47.79772" lon="-2.43719">
        <ele>78.7</ele>
        <time>2025-02-11T08:03:10Z</time>
      </trkpt>
      <trkpt lat="47.79772" lon="-2.43718">
        <ele>78.8</ele>
        <time>2025-02-11T08:03:11Z</time>
      </trkpt>
      <trkpt lat="47.79771" lon="-2.43716">
        <ele>78.8</ele>
        <time>2025-02-11T08:03:12Z</time>
      </trkpt>
      <trkpt lat="47.7977" lon="-2.43715">
        <ele>78.8</ele>
        <time>2025-02-11T08:03:13Z</time>
      </trkpt>
      <trkpt lat="47.7977" lon="-2.43713">
        <ele>78.8</ele>
        <time>2025-02-11T08:03:14Z</time>
      </trkpt>
      <trkpt lat="47.79769" lon="-2.43711">
        <ele>78.9</ele>
        <time>2025-02-11T08:03:15Z</time>
      </trkpt>
      <trkpt lat="47.79769" lon="-2.43709">
        <ele>79</ele>
        <time>2025-02-11T08:03:16Z</time>
      </trkpt>
      <trkpt lat="47.7977" lon="-2.43708">
        <ele>79.1</ele>
        <time>2025-02-11T08:03:17Z</time>
      </trkpt>
      <trkpt lat="47.7977" lon="-2.43706">
        <ele>79.2</ele>
        <time>2025-02-11T08:03:18Z</time>
      </trkpt>
      <trkpt lat="47.79769" lon="-2.43705">
        <ele>79.2</ele>
        <time>2025-02-11T08:03:19Z</time>
      </trkpt>
      <trkpt lat="47.79769" lon="-2.43703">
        <ele>79.3</ele>
        <time>2025-02-11T08:03:20Z</time>
      </trkpt>
      <trkpt lat="47.79768" lon="-2.43701">
        <ele>79.3</ele>
        <time>2025-02-11T08:03:21Z</time>
      </trkpt>
      <trkpt lat="47.79768" lon="-2.437">
        <ele>79.4</ele>
        <time>2025-02-11T08:03:22Z</time>
      </trkpt>
      <trkpt lat="47.79768" lon="-2.43698">
        <ele>79.5</ele>
        <time>2025-02-11T08:03:23Z</time>
      </trkpt>
      <trkpt lat="47.79768" lon="-2.43697">
        <ele>79.5</ele>
        <time>2025-02-11T08:03:24Z</time>
      </trkpt>
      <trkpt lat="47.79768" lon="-2.43695">
        <ele>79.6</ele>
        <time>2025-02-11T08:03:25Z</time>
      </trkpt>
      <trkpt lat="47.79768" lon="-2.43693">
        <ele>79.7</ele>
        <time>2025-02-11T08:03:26Z</time>
      </trkpt>
      <trkpt lat="47.79768" lon="-2.43692">
        <ele>79.8</ele>
        <time>2025-02-11T08:03:27Z</time>
      </trkpt>
      <trkpt lat="47.79768" lon="-2.4369">
        <ele>79.8</ele>
        <time>2025-02-11T08:03:28Z</time>
      </trkpt>
      <trkpt lat="47.79768" lon="-2.43688">
        <ele>79.9</ele>
        <time>2025-02-11T08:03:29Z</time>
      </trkpt>
      <trkpt lat="47.79768" lon="-2.43687">
        <ele>79.9</ele>
        <time>2025-02-11T08:03:30Z</time>
      </trkpt>
      <trkpt lat="47.79768" lon="-2.43685">
        <ele>80</ele>
        <time>2025-02-11T08:03:31Z</time>
      </trkpt>
      <trkpt lat="47.79769" lon="-2.43683">
        <ele>80.1</ele>
        <time>2025-02-11T08:03:32Z</time>
      </trkpt>
      <trkpt lat="47.79769" lon="-2.43682">
        <ele>80.1</ele>
        <time>2025-02-11T08:03:33Z</time>
      </trkpt>
      <trkpt lat="47.79769" lon="-2.43681">
        <ele>80.2</ele>
        <time>2025-02-11T08:03:34Z</time>
      </trkpt>
      <trkpt lat="47.79769" lon="-2.43679">
        <ele>80.2</ele>
        <time>2025-02-11T08:03:35Z</time>
      </trkpt>
      <trkpt lat="47.79769" lon="-2.43678">
        <ele>80.3</ele>
        <time>2025-02-11T08:03:36Z</time>
      </trkpt>
      <trkpt lat="47.79769" lon="-2.43676">
        <ele>80.3</ele>
        <time>2025-02-11T08:03:37Z</time>
      </trkpt>
      <trkpt lat="47.79769" lon="-2.43675">
        <ele>80.4</ele>
        <time>2025-02-11T08:03:38Z</time>
      </trkpt>
      <trkpt lat="47.7977" lon="-2.43674">
        <ele>80.5</ele>
        <time>2025-02-11T08:03:39Z</time>
      </trkpt>
      <trkpt lat="47.7977" lon="-2.43672">
        <ele>80.5</ele>
        <time>2025-02-11T08:03:40Z</time>
      </trkpt>
      <trkpt lat="47.7977" lon="-2.4367">
        <ele>80.6</ele>
        <time>2025-02-11T08:03:41Z</time>
      </trkpt>
      <trkpt lat="47.7977" lon="-2.43668">
        <ele>80.7</ele>
        <time>2025-02-11T08:03:42Z</time>
      </trkpt>
      <trkpt lat="47.7977" lon="-2.43666">
        <ele>80.7</ele>
        <time>2025-02-11T08:03:43Z</time>
      </trkpt>
      <trkpt lat="47.79769" lon="-2.43664">
        <ele>80.8</ele>
        <time>2025-02-11T08:03:44Z</time>
      </trkpt>
      <trkpt lat="47.79769" lon="-2.43662">
        <ele>80.9</ele>
        <time>2025-02-11T08:03:45Z</time>
      </trkpt>
      <trkpt lat="47.79769" lon="-2.4366">
        <ele>80.9</ele>
        <time>2025-02-11T08:03:46Z</time>
      </trkpt>
      <trkpt lat="47.79769" lon="-2.43658">
        <ele>81</ele>
        <time>2025-02-11T08:03:47Z</time>
      </trkpt>
      <trkpt lat="47.79769" lon="-2.43657">
        <ele>81</ele>
        <time>2025-02-11T08:03:48Z</time>
      </trkpt>
      <trkpt lat="47.79769" lon="-2.43655">
        <ele>81.1</ele>
        <time>2025-02-11T08:03:49Z</time>
      </trkpt>
      <trkpt lat="47.79769" lon="-2.43654">
        <ele>81.2</ele>
        <time>2025-02-11T08:03:50Z</time>
      </trkpt>
      <trkpt lat="47.79769" lon="-2.43652">
        <ele>81.2</ele>
        <time>2025-02-11T08:03:51Z</time>
      </trkpt>
      <trkpt lat="47.79769" lon="-2.4365">
        <ele>81.3</ele>
        <time>2025-02-11T08:03:52Z</time>
      </trkpt>
      <trkpt lat="47.7977" lon="-2.43648">
        <ele>81.4</ele>
        <time>2025-02-11T08:03:53Z</time>
      </trkpt>
      <trkpt lat="47.7977" lon="-2.43646">
        <ele>81.4</ele>
        <time>2025-02-11T08:03:54Z</time>
      </trkpt>
      <trkpt lat="47.79769" lon="-2.43645">
        <ele>81.5</ele>
        <time>2025-02-11T08:03:55Z</time>
      </trkpt>
      <trkpt lat="47.79769" lon="-2.43643">
        <ele>81.6</ele>
        <time>2025-02-11T08:03:56Z</time>
      </trkpt>
      <trkpt lat="47.79769" lon="-2.43641">
        <ele>81.6</ele>
        <time>2025-02-11T08:03:57Z</time>
      </trkpt>
      <trkpt lat="47.7977" lon="-2.4364">
        <ele>81.7</ele>
        <time>2025-02-11T08:03:58Z</time>
      </trkpt>
      <trkpt lat="47.79769" lon="-2.43638">
        <ele>81.7</ele>
        <time>2025-02-11T08:03:59Z</time>
      </trkpt>
      <trkpt lat="47.79769" lon="-2.43637">
        <ele>81.7</ele>
        <time>2025-02-11T08:04:00Z</time>
      </trkpt>
      <trkpt lat="47.7977" lon="-2.43635">
        <ele>81.7</ele>
        <time>2025-02-11T08:04:01Z</time>
      </trkpt>
      <trkpt lat="47.7977" lon="-2.43634">
        <ele>81.8</ele>
        <time>2025-02-11T08:04:02Z</time>
      </trkpt>
      <trkpt lat="47.7977" lon="-2.43632">
        <ele>81.8</ele>
        <time>2025-02-11T08:04:03Z</time>
      </trkpt>
      <trkpt lat="47.7977" lon="-2.4363">
        <ele>81.8</ele>
        <time>2025-02-11T08:04:04Z</time>
      </trkpt>
      <trkpt lat="47.79769" lon="-2.43628">
        <ele>81.8</ele>
        <time>2025-02-11T08:04:05Z</time>
      </trkpt>
      <trkpt lat="47.79769" lon="-2.43626">
        <ele>81.8</ele>
        <time>2025-02-11T08:04:06Z</time>
      </trkpt>
      <trkpt lat="47.79769" lon="-2.43625">
        <ele>81.8</ele>
        <time>2025-02-11T08:04:07Z</time>
      </trkpt>
      <trkpt lat="47.79769" lon="-2.43623">
        <ele>81.9</ele>
        <time>2025-02-11T08:04:08Z</time>
      </trkpt>
      <trkpt lat="47.79769" lon="-2.43622">
        <ele>81.9</ele>
        <time>2025-02-11T08:04:09Z</time>
      </trkpt>
      <trkpt lat="47.7977" lon="-2.43621">
        <ele>81.9</ele>
        <time>2025-02-11T08:04:10Z</time>
      </trkpt>
      <trkpt lat="47.79771" lon="-2.43619">
        <ele>81.9</ele>
        <time>2025-02-11T08:04:11Z</time>
      </trkpt>
      <trkpt lat="47.79772" lon="-2.43618">
        <ele>81.9</ele>
        <time>2025-02-11T08:04:12Z</time>
      </trkpt>
      <trkpt lat="47.79772" lon="-2.43616">
        <ele>82</ele>
        <time>2025-02-11T08:04:13Z</time>
      </trkpt>
      <trkpt lat="47.79773" lon="-2.43614">
        <ele>82</ele>
        <time>2025-02-11T08:04:14Z</time>
      </trkpt>
      <trkpt lat="47.79773" lon="-2.43612">
        <ele>82</ele>
        <time>2025-02-11T08:04:15Z</time>
      </trkpt>
      <trkpt lat="47.79773" lon="-2.4361">
        <ele>82</ele>
        <time>2025-02-11T08:04:16Z</time>
      </trkpt>
      <trkpt lat="47.79774" lon="-2.43609">
        <ele>82.1</ele>
        <time>2025-02-11T08:04:17Z</time>
      </trkpt>
      <trkpt lat="47.79774" lon="-2.43608">
        <ele>82.1</ele>
        <time>2025-02-11T08:04:18Z</time>
      </trkpt>
      <trkpt lat="47.79775" lon="-2.43606">
        <ele>82.2</ele>
        <time>2025-02-11T08:04:19Z</time>
      </trkpt>
      <trkpt lat="47.79775" lon="-2.43605">
        <ele>82.2</ele>
        <time>2025-02-11T08:04:20Z</time>
      </trkpt>
      <trkpt lat="47.79775" lon="-2.43603">
        <ele>82.3</ele>
        <time>2025-02-11T08:04:21Z</time>
      </trkpt>
      <trkpt lat="47.79776" lon="-2.43602">
        <ele>82.3</ele>
        <time>2025-02-11T08:04:22Z</time>
      </trkpt>
      <trkpt lat="47.79776" lon="-2.436">
        <ele>82.4</ele>
        <time>2025-02-11T08:04:23Z</time>
      </trkpt>
      <trkpt lat="47.79776" lon="-2.43599">
        <ele>82.4</ele>
        <time>2025-02-11T08:04:24Z</time>
      </trkpt>
      <trkpt lat="47.79776" lon="-2.43597">
        <ele>82.5</ele>
        <time>2025-02-11T08:04:25Z</time>
      </trkpt>
      <trkpt lat="47.79776" lon="-2.43595">
        <ele>82.6</ele>
        <time>2025-02-11T08:04:26Z</time>
      </trkpt>
      <trkpt lat="47.79776" lon="-2.43593">
        <ele>82.6</ele>
        <time>2025-02-11T08:04:27Z</time>
      </trkpt>
      <trkpt lat="47.79777" lon="-2.43591">
        <ele>82.7</ele>
        <time>2025-02-11T08:04:28Z</time>
      </trkpt>
      <trkpt lat="47.79777" lon="-2.4359">
        <ele>82.7</ele>
        <time>2025-02-11T08:04:29Z</time>
      </trkpt>
      <trkpt lat="47.79777" lon="-2.43589">
        <ele>82.8</ele>
        <time>2025-02-11T08:04:30Z</time>
      </trkpt>
      <trkpt lat="47.79777" lon="-2.43587">
        <ele>82.9</ele>
        <time>2025-02-11T08:04:31Z</time>
      </trkpt>
      <trkpt lat="47.79777" lon="-2.43585">
        <ele>82.9</ele>
        <time>2025-02-11T08:04:32Z</time>
      </trkpt>
      <trkpt lat="47.79777" lon="-2.43584">
        <ele>83</ele>
        <time>2025-02-11T08:04:33Z</time>
      </trkpt>
      <trkpt lat="47.79777" lon="-2.43582">
        <ele>83</ele>
        <time>2025-02-11T08:04:34Z</time>
      </trkpt>
      <trkpt lat="47.79777" lon="-2.4358">
        <ele>83</ele>
        <time>2025-02-11T08:04:35Z</time>
      </trkpt>
      <trkpt lat="47.79778" lon="-2.43579">
        <ele>83</ele>
        <time>2025-02-11T08:04:36Z</time>
      </trkpt>
      <trkpt lat="47.79778" lon="-2.43577">
        <ele>83</ele>
        <time>2025-02-11T08:04:37Z</time>
      </trkpt>
      <trkpt lat="47.79778" lon="-2.43575">
        <ele>83</ele>
        <time>2025-02-11T08:04:38Z</time>
      </trkpt>
      <trkpt lat="47.79778" lon="-2.43574">
        <ele>83</ele>
        <time>2025-02-11T08:04:39Z</time>
      </trkpt>
      <trkpt lat="47.79778" lon="-2.43572">
        <ele>83</ele>
        <time>2025-02-11T08:04:40Z</time>
      </trkpt>
      <trkpt lat="47.79778" lon="-2.4357">
        <ele>83</ele>
        <time>2025-02-11T08:04:41Z</time>
      </trkpt>
      <trkpt lat="47.79778" lon="-2.43569">
        <ele>83</ele>
        <time>2025-02-11T08:04:42Z</time>
      </trkpt>
      <trkpt lat="47.79778" lon="-2.43567">
        <ele>83</ele>
        <time>2025-02-11T08:04:43Z</time>
      </trkpt>
      <trkpt lat="47.79778" lon="-2.43565">
        <ele>83</ele>
        <time>2025-02-11T08:04:44Z</time>
      </trkpt>
      <trkpt lat="47.79778" lon="-2.43564">
        <ele>83</ele>
        <time>2025-02-11T08:04:45Z</time>
      </trkpt>
      <trkpt lat="47.79779" lon="-2.43562">
        <ele>83</ele>
        <time>2025-02-11T08:04:46Z</time>
      </trkpt>
      <trkpt lat="47.79779" lon="-2.43561">
        <ele>83</ele>
        <time>2025-02-11T08:04:47Z</time>
      </trkpt>
      <trkpt lat="47.79779" lon="-2.43559">
        <ele>83.1</ele>
        <time>2025-02-11T08:04:48Z</time>
      </trkpt>
      <trkpt lat="47.79779" lon="-2.43557">
        <ele>83.1</ele>
        <time>2025-02-11T08:04:49Z</time>
      </trkpt>
      <trkpt lat="47.79779" lon="-2.43556">
        <ele>83.1</ele>
        <time>2025-02-11T08:04:50Z</time>
      </trkpt>
      <trkpt lat="47.7978" lon="-2.43554">
        <ele>83.1</ele>
        <time>2025-02-11T08:04:51Z</time>
      </trkpt>
      <trkpt lat="47.7978" lon="-2.43552">
        <ele>83.2</ele>
        <time>2025-02-11T08:04:52Z</time>
      </trkpt>
      <trkpt lat="47.7978" lon="-2.4355">
        <ele>83.3</ele>
        <time>2025-02-11T08:04:53Z</time>
      </trkpt>
      <trkpt lat="47.7978" lon="-2.43548">
        <ele>83.3</ele>
        <time>2025-02-11T08:04:54Z</time>
      </trkpt>
      <trkpt lat="47.7978" lon="-2.43546">
        <ele>83.4</ele>
        <time>2025-02-11T08:04:55Z</time>
      </trkpt>
      <trkpt lat="47.79781" lon="-2.43544">
        <ele>83.5</ele>
        <time>2025-02-11T08:04:56Z</time>
      </trkpt>
      <trkpt lat="47.79781" lon="-2.43543">
        <ele>83.5</ele>
        <time>2025-02-11T08:04:57Z</time>
      </trkpt>
      <trkpt lat="47.79782" lon="-2.43541">
        <ele>83.6</ele>
        <time>2025-02-11T08:04:58Z</time>
      </trkpt>
      <trkpt lat="47.79782" lon="-2.43539">
        <ele>83.7</ele>
        <time>2025-02-11T08:04:59Z</time>
      </trkpt>
      <trkpt lat="47.79782" lon="-2.43537">
        <ele>83.7</ele>
        <time>2025-02-11T08:05:00Z</time>
      </trkpt>
      <trkpt lat="47.79782" lon="-2.43536">
        <ele>83.8</ele>
        <time>2025-02-11T08:05:01Z</time>
      </trkpt>
      <trkpt lat="47.79783" lon="-2.43534">
        <ele>83.8</ele>
        <time>2025-02-11T08:05:02Z</time>
      </trkpt>
      <trkpt lat="47.79782" lon="-2.43533">
        <ele>83.9</ele>
        <time>2025-02-11T08:05:03Z</time>
      </trkpt>
      <trkpt lat="47.79782" lon="-2.43531">
        <ele>83.9</ele>
        <time>2025-02-11T08:05:04Z</time>
      </trkpt>
      <trkpt lat="47.79782" lon="-2.43529">
        <ele>84</ele>
        <time>2025-02-11T08:05:05Z</time>
      </trkpt>
      <trkpt lat="47.79783" lon="-2.43528">
        <ele>84</ele>
        <time>2025-02-11T08:05:06Z</time>
      </trkpt>
      <trkpt lat="47.79783" lon="-2.43526">
        <ele>84</ele>
        <time>2025-02-11T08:05:07Z</time>
      </trkpt>
      <trkpt lat="47.79783" lon="-2.43524">
        <ele>84</ele>
        <time>2025-02-11T08:05:08Z</time>
      </trkpt>
      <trkpt lat="47.79783" lon="-2.43522">
        <ele>84</ele>
        <time>2025-02-11T08:05:09Z</time>
      </trkpt>
      <trkpt lat="47.79783" lon="-2.43521">
        <ele>84</ele>
        <time>2025-02-11T08:05:10Z</time>
      </trkpt>
      <trkpt lat="47.79784" lon="-2.43519">
        <ele>84</ele>
        <time>2025-02-11T08:05:11Z</time>
      </trkpt>
      <trkpt lat="47.79784" lon="-2.43518">
        <ele>84</ele>
        <time>2025-02-11T08:05:12Z</time>
      </trkpt>
      <trkpt lat="47.79784" lon="-2.43516">
        <ele>84</ele>
        <time>2025-02-11T08:05:13Z</time>
      </trkpt>
      <trkpt lat="47.79785" lon="-2.43514">
        <ele>84</ele>
        <time>2025-02-11T08:05:14Z</time>
      </trkpt>
      <trkpt lat="47.79785" lon="-2.43512">
        <ele>84</ele>
        <time>2025-02-11T08:05:15Z</time>
      </trkpt>
      <trkpt lat="47.79786" lon="-2.4351">
        <ele>84</ele>
        <time>2025-02-11T08:05:16Z</time>
      </trkpt>
      <trkpt lat="47.79786" lon="-2.43508">
        <ele>84</ele>
        <time>2025-02-11T08:05:17Z</time>
      </trkpt>
      <trkpt lat="47.79785" lon="-2.43506">
        <ele>84</ele>
        <time>2025-02-11T08:05:18Z</time>
      </trkpt>
      <trkpt lat="47.79785" lon="-2.43504">
        <ele>84</ele>
        <time>2025-02-11T08:05:19Z</time>
      </trkpt>
      <trkpt lat="47.79785" lon="-2.43502">
        <ele>84</ele>
        <time>2025-02-11T08:05:20Z</time>
      </trkpt>
      <trkpt lat="47.79786" lon="-2.435">
        <ele>84</ele>
        <time>2025-02-11T08:05:21Z</time>
      </trkpt>
      <trkpt lat="47.79786" lon="-2.43499">
        <ele>84</ele>
        <time>2025-02-11T08:05:22Z</time>
      </trkpt>
      <trkpt lat="47.79786" lon="-2.43497">
        <ele>84</ele>
        <time>2025-02-11T08:05:23Z</time>
      </trkpt>
      <trkpt lat="47.79786" lon="-2.43495">
        <ele>84.1</ele>
        <time>2025-02-11T08:05:24Z</time>
      </trkpt>
      <trkpt lat="47.79787" lon="-2.43493">
        <ele>84.1</ele>
        <time>2025-02-11T08:05:25Z</time>
      </trkpt>
      <trkpt lat="47.79787" lon="-2.43491">
        <ele>84.1</ele>
        <time>2025-02-11T08:05:26Z</time>
      </trkpt>
      <trkpt lat="47.79787" lon="-2.43489">
        <ele>84.1</ele>
        <time>2025-02-11T08:05:27Z</time>
      </trkpt>
      <trkpt lat="47.79787" lon="-2.43487">
        <ele>84.1</ele>
        <time>2025-02-11T08:05:28Z</time>
      </trkpt>
      <trkpt lat="47.79787" lon="-2.43486">
        <ele>84.2</ele>
        <time>2025-02-11T08:05:29Z</time>
      </trkpt>
      <trkpt lat="47.79787" lon="-2.43484">
        <ele>84.2</ele>
        <time>2025-02-11T08:05:30Z</time>
      </trkpt>
      <trkpt lat="47.79787" lon="-2.43482">
        <ele>84.2</ele>
        <time>2025-02-11T08:05:31Z</time>
      </trkpt>
      <trkpt lat="47.79788" lon="-2.4348">
        <ele>84.2</ele>
        <time>2025-02-11T08:05:32Z</time>
      </trkpt>
      <trkpt lat="47.79788" lon="-2.43479">
        <ele>84.3</ele>
        <time>2025-02-11T08:05:33Z</time>
      </trkpt>
      <trkpt lat="47.79788" lon="-2.43477">
        <ele>84.3</ele>
        <time>2025-02-11T08:05:34Z</time>
      </trkpt>
      <trkpt lat="47.79788" lon="-2.43475">
        <ele>84.3</ele>
        <time>2025-02-11T08:05:35Z</time>
      </trkpt>
      <trkpt lat="47.79788" lon="-2.43473">
        <ele>84.4</ele>
        <time>2025-02-11T08:05:36Z</time>
      </trkpt>
      <trkpt lat="47.79788" lon="-2.43471">
        <ele>84.4</ele>
        <time>2025-02-11T08:05:37Z</time>
      </trkpt>
      <trkpt lat="47.79789" lon="-2.43469">
        <ele>84.4</ele>
        <time>2025-02-11T08:05:38Z</time>
      </trkpt>
      <trkpt lat="47.79789" lon="-2.43468">
        <ele>84.4</ele>
        <time>2025-02-11T08:05:39Z</time>
      </trkpt>
      <trkpt lat="47.79789" lon="-2.43466">
        <ele>84.4</ele>
        <time>2025-02-11T08:05:40Z</time>
      </trkpt>
      <trkpt lat="47.79789" lon="-2.43464">
        <ele>84.4</ele>
        <time>2025-02-11T08:05:41Z</time>
      </trkpt>
      <trkpt lat="47.79789" lon="-2.43462">
        <ele>84.4</ele>
        <time>2025-02-11T08:05:42Z</time>
      </trkpt>
      <trkpt lat="47.7979" lon="-2.4346">
        <ele>84.4</ele>
        <time>2025-02-11T08:05:43Z</time>
      </trkpt>
      <trkpt lat="47.7979" lon="-2.43458">
        <ele>84.4</ele>
        <time>2025-02-11T08:05:44Z</time>
      </trkpt>
      <trkpt lat="47.79791" lon="-2.43457">
        <ele>84.5</ele>
        <time>2025-02-11T08:05:45Z</time>
      </trkpt>
      <trkpt lat="47.79791" lon="-2.43455">
        <ele>84.5</ele>
        <time>2025-02-11T08:05:46Z</time>
      </trkpt>
      <trkpt lat="47.79791" lon="-2.43453">
        <ele>84.5</ele>
        <time>2025-02-11T08:05:47Z</time>
      </trkpt>
      <trkpt lat="47.79791" lon="-2.43451">
        <ele>84.5</ele>
        <time>2025-02-11T08:05:48Z</time>
      </trkpt>
      <trkpt lat="47.79791" lon="-2.43449">
        <ele>84.5</ele>
        <time>2025-02-11T08:05:49Z</time>
      </trkpt>
      <trkpt lat="47.79791" lon="-2.43448">
        <ele>84.5</ele>
        <time>2025-02-11T08:05:50Z</time>
      </trkpt>
      <trkpt lat="47.79791" lon="-2.43446">
        <ele>84.5</ele>
        <time>2025-02-11T08:05:51Z</time>
      </trkpt>
      <trkpt lat="47.79791" lon="-2.43444">
        <ele>84.5</ele>
        <time>2025-02-11T08:05:52Z</time>
      </trkpt>
      <trkpt lat="47.79791" lon="-2.43442">
        <ele>84.5</ele>
        <time>2025-02-11T08:05:53Z</time>
      </trkpt>
      <trkpt lat="47.79791" lon="-2.4344">
        <ele>84.5</ele>
        <time>2025-02-11T08:05:54Z</time>
      </trkpt>
      <trkpt lat="47.79792" lon="-2.43439">
        <ele>84.5</ele>
        <time>2025-02-11T08:05:55Z</time>
      </trkpt>
      <trkpt lat="47.79791" lon="-2.43437">
        <ele>84.5</ele>
        <time>2025-02-11T08:05:56Z</time>
      </trkpt>
      <trkpt lat="47.79792" lon="-2.43435">
        <ele>84.5</ele>
        <time>2025-02-11T08:05:57Z</time>
      </trkpt>
      <trkpt lat="47.79792" lon="-2.43433">
        <ele>84.5</ele>
        <time>2025-02-11T08:05:58Z</time>
      </trkpt>
      <trkpt lat="47.79792" lon="-2.43431">
        <ele>84.5</ele>
        <time>2025-02-11T08:05:59Z</time>
      </trkpt>
      <trkpt lat="47.79792" lon="-2.4343">
        <ele>84.5</ele>
        <time>2025-02-11T08:06:00Z</time>
      </trkpt>
      <trkpt lat="47.79792" lon="-2.43428">
        <ele>84.5</ele>
        <time>2025-02-11T08:06:01Z</time>
      </trkpt>
      <trkpt lat="47.79793" lon="-2.43426">
        <ele>84.5</ele>
        <time>2025-02-11T08:06:02Z</time>
      </trkpt>
      <trkpt lat="47.79793" lon="-2.43425">
        <ele>84.6</ele>
        <time>2025-02-11T08:06:03Z</time>
      </trkpt>
      <trkpt lat="47.79794" lon="-2.43423">
        <ele>84.6</ele>
        <time>2025-02-11T08:06:04Z</time>
      </trkpt>
      <trkpt lat="47.79794" lon="-2.43421">
        <ele>84.6</ele>
        <time>2025-02-11T08:06:05Z</time>
      </trkpt>
      <trkpt lat="47.79795" lon="-2.4342">
        <ele>84.6</ele>
        <time>2025-02-11T08:06:06Z</time>
      </trkpt>
      <trkpt lat="47.79795" lon="-2.43418">
        <ele>84.6</ele>
        <time>2025-02-11T08:06:07Z</time>
      </trkpt>
      <trkpt lat="47.79796" lon="-2.43416">
        <ele>84.6</ele>
        <time>2025-02-11T08:06:08Z</time>
      </trkpt>
      <trkpt lat="47.79796" lon="-2.43414">
        <ele>84.7</ele>
        <time>2025-02-11T08:06:09Z</time>
      </trkpt>
      <trkpt lat="47.79796" lon="-2.43412">
        <ele>84.7</ele>
        <time>2025-02-11T08:06:10Z</time>
      </trkpt>
      <trkpt lat="47.79797" lon="-2.4341">
        <ele>84.7</ele>
        <time>2025-02-11T08:06:11Z</time>
      </trkpt>
      <trkpt lat="47.79796" lon="-2.43408">
        <ele>84.7</ele>
        <time>2025-02-11T08:06:12Z</time>
      </trkpt>
      <trkpt lat="47.79796" lon="-2.43406">
        <ele>84.7</ele>
        <time>2025-02-11T08:06:13Z</time>
      </trkpt>
      <trkpt lat="47.79797" lon="-2.43404">
        <ele>84.7</ele>
        <time>2025-02-11T08:06:14Z</time>
      </trkpt>
      <trkpt lat="47.79797" lon="-2.43402">
        <ele>84.7</ele>
        <time>2025-02-11T08:06:15Z</time>
      </trkpt>
      <trkpt lat="47.79798" lon="-2.434">
        <ele>84.7</ele>
        <time>2025-02-11T08:06:16Z</time>
      </trkpt>
      <trkpt lat="47.79798" lon="-2.43398">
        <ele>84.7</ele>
        <time>2025-02-11T08:06:17Z</time>
      </trkpt>
      <trkpt lat="47.79799" lon="-2.43397">
        <ele>84.8</ele>
        <time>2025-02-11T08:06:18Z</time>
      </trkpt>
      <trkpt lat="47.79799" lon="-2.43395">
        <ele>84.8</ele>
        <time>2025-02-11T08:06:19Z</time>
      </trkpt>
      <trkpt lat="47.798" lon="-2.43393">
        <ele>84.8</ele>
        <time>2025-02-11T08:06:20Z</time>
      </trkpt>
      <trkpt lat="47.798" lon="-2.43392">
        <ele>84.8</ele>
        <time>2025-02-11T08:06:21Z</time>
      </trkpt>
      <trkpt lat="47.798" lon="-2.4339">
        <ele>84.8</ele>
        <time>2025-02-11T08:06:22Z</time>
      </trkpt>
      <trkpt lat="47.798" lon="-2.43388">
        <ele>84.8</ele>
        <time>2025-02-11T08:06:23Z</time>
      </trkpt>
      <trkpt lat="47.79801" lon="-2.43386">
        <ele>84.8</ele>
        <time>2025-02-11T08:06:24Z</time>
      </trkpt>
      <trkpt lat="47.79802" lon="-2.43385">
        <ele>84.8</ele>
        <time>2025-02-11T08:06:25Z</time>
      </trkpt>
      <trkpt lat="47.79802" lon="-2.43383">
        <ele>84.8</ele>
        <time>2025-02-11T08:06:26Z</time>
      </trkpt>
      <trkpt lat="47.79802" lon="-2.43381">
        <ele>84.9</ele>
        <time>2025-02-11T08:06:27Z</time>
      </trkpt>
      <trkpt lat="47.79803" lon="-2.4338">
        <ele>84.9</ele>
        <time>2025-02-11T08:06:28Z</time>
      </trkpt>
      <trkpt lat="47.79803" lon="-2.43378">
        <ele>84.9</ele>
        <time>2025-02-11T08:06:29Z</time>
      </trkpt>
      <trkpt lat="47.79804" lon="-2.43376">
        <ele>84.9</ele>
        <time>2025-02-11T08:06:30Z</time>
      </trkpt>
      <trkpt lat="47.79804" lon="-2.43374">
        <ele>84.9</ele>
        <time>2025-02-11T08:06:31Z</time>
      </trkpt>
      <trkpt lat="47.79804" lon="-2.43372">
        <ele>84.9</ele>
        <time>2025-02-11T08:06:32Z</time>
      </trkpt>
      <trkpt lat="47.79804" lon="-2.4337">
        <ele>84.9</ele>
        <time>2025-02-11T08:06:33Z</time>
      </trkpt>
      <trkpt lat="47.79804" lon="-2.43368">
        <ele>84.9</ele>
        <time>2025-02-11T08:06:34Z</time>
      </trkpt>
      <trkpt lat="47.79804" lon="-2.43366">
        <ele>84.9</ele>
        <time>2025-02-11T08:06:35Z</time>
      </trkpt>
      <trkpt lat="47.79804" lon="-2.43365">
        <ele>84.9</ele>
        <time>2025-02-11T08:06:36Z</time>
      </trkpt>
      <trkpt lat="47.79805" lon="-2.43363">
        <ele>85</ele>
        <time>2025-02-11T08:06:37Z</time>
      </trkpt>
      <trkpt lat="47.79806" lon="-2.43361">
        <ele>85</ele>
        <time>2025-02-11T08:06:38Z</time>
      </trkpt>
      <trkpt lat="47.79806" lon="-2.4336">
        <ele>85</ele>
        <time>2025-02-11T08:06:39Z</time>
      </trkpt>
      <trkpt lat="47.79806" lon="-2.43359">
        <ele>84.9</ele>
        <time>2025-02-11T08:06:40Z</time>
      </trkpt>
      <trkpt lat="47.79807" lon="-2.43357">
        <ele>84.9</ele>
        <time>2025-02-11T08:06:41Z</time>
      </trkpt>
      <trkpt lat="47.79807" lon="-2.43355">
        <ele>84.8</ele>
        <time>2025-02-11T08:06:42Z</time>
      </trkpt>
      <trkpt lat="47.79807" lon="-2.43354">
        <ele>84.7</ele>
        <time>2025-02-11T08:06:43Z</time>
      </trkpt>
      <trkpt lat="47.79807" lon="-2.43352">
        <ele>84.7</ele>
        <time>2025-02-11T08:06:44Z</time>
      </trkpt>
      <trkpt lat="47.79807" lon="-2.4335">
        <ele>84.6</ele>
        <time>2025-02-11T08:06:45Z</time>
      </trkpt>
      <trkpt lat="47.79807" lon="-2.43348">
        <ele>84.6</ele>
        <time>2025-02-11T08:06:46Z</time>
      </trkpt>
      <trkpt lat="47.79808" lon="-2.43347">
        <ele>84.5</ele>
        <time>2025-02-11T08:06:47Z</time>
      </trkpt>
      <trkpt lat="47.79809" lon="-2.43345">
        <ele>84.5</ele>
        <time>2025-02-11T08:06:48Z</time>
      </trkpt>
      <trkpt lat="47.7981" lon="-2.43343">
        <ele>84.4</ele>
        <time>2025-02-11T08:06:49Z</time>
      </trkpt>
      <trkpt lat="47.7981" lon="-2.43342">
        <ele>84.4</ele>
        <time>2025-02-11T08:06:50Z</time>
      </trkpt>
      <trkpt lat="47.7981" lon="-2.4334">
        <ele>84.4</ele>
        <time>2025-02-11T08:06:51Z</time>
      </trkpt>
      <trkpt lat="47.7981" lon="-2.43339">
        <ele>84.3</ele>
        <time>2025-02-11T08:06:52Z</time>
      </trkpt>
      <trkpt lat="47.7981" lon="-2.43337">
        <ele>84.3</ele>
        <time>2025-02-11T08:06:53Z</time>
      </trkpt>
      <trkpt lat="47.7981" lon="-2.43335">
        <ele>84.2</ele>
        <time>2025-02-11T08:06:54Z</time>
      </trkpt>
      <trkpt lat="47.7981" lon="-2.43334">
        <ele>84.2</ele>
        <time>2025-02-11T08:06:55Z</time>
      </trkpt>
      <trkpt lat="47.7981" lon="-2.43333">
        <ele>84.2</ele>
        <time>2025-02-11T08:06:56Z</time>
      </trkpt>
      <trkpt lat="47.79811" lon="-2.43332">
        <ele>84.2</ele>
        <time>2025-02-11T08:06:57Z</time>
      </trkpt>
      <trkpt lat="47.79811" lon="-2.43331">
        <ele>84.2</ele>
        <time>2025-02-11T08:06:58Z</time>
      </trkpt>
      <trkpt lat="47.79811" lon="-2.4333">
        <ele>84.2</ele>
        <time>2025-02-11T08:06:59Z</time>
      </trkpt>
      <trkpt lat="47.79811" lon="-2.43328">
        <ele>84.2</ele>
        <time>2025-02-11T08:07:00Z</time>
      </trkpt>
      <trkpt lat="47.79811" lon="-2.43327">
        <ele>84.2</ele>
        <time>2025-02-11T08:07:01Z</time>
      </trkpt>
      <trkpt lat="47.79812" lon="-2.43326">
        <ele>84.2</ele>
        <time>2025-02-11T08:07:02Z</time>
      </trkpt>
      <trkpt lat="47.79812" lon="-2.43325">
        <ele>84.2</ele>
        <time>2025-02-11T08:07:03Z</time>
      </trkpt>
      <trkpt lat="47.79812" lon="-2.43323">
        <ele>84.2</ele>
        <time>2025-02-11T08:07:04Z</time>
      </trkpt>
      <trkpt lat="47.79812" lon="-2.43322">
        <ele>84.2</ele>
        <time>2025-02-11T08:07:05Z</time>
      </trkpt>
      <trkpt lat="47.79812" lon="-2.4332">
        <ele>84.2</ele>
        <time>2025-02-11T08:07:06Z</time>
      </trkpt>
      <trkpt lat="47.79811" lon="-2.43319">
        <ele>84.2</ele>
        <time>2025-02-11T08:07:07Z</time>
      </trkpt>
      <trkpt lat="47.79811" lon="-2.43318">
        <ele>84.2</ele>
        <time>2025-02-11T08:07:08Z</time>
      </trkpt>
      <trkpt lat="47.79811" lon="-2.43316">
        <ele>84.2</ele>
        <time>2025-02-11T08:07:09Z</time>
      </trkpt>
      <trkpt lat="47.79812" lon="-2.43315">
        <ele>84.2</ele>
        <time>2025-02-11T08:07:10Z</time>
      </trkpt>
      <trkpt lat="47.79812" lon="-2.43314">
        <ele>84.2</ele>
        <time>2025-02-11T08:07:11Z</time>
      </trkpt>
      <trkpt lat="47.79812" lon="-2.43312">
        <ele>84.2</ele>
        <time>2025-02-11T08:07:12Z</time>
      </trkpt>
      <trkpt lat="47.79812" lon="-2.43311">
        <ele>84.2</ele>
        <time>2025-02-11T08:07:13Z</time>
      </trkpt>
      <trkpt lat="47.79812" lon="-2.43311">
        <ele>84.2</ele>
        <time>2025-02-11T08:07:14Z</time>
      </trkpt>
      <trkpt lat="47.79812" lon="-2.43311">
        <ele>84.2</ele>
        <time>2025-02-11T08:07:15Z</time>
      </trkpt>
      <trkpt lat="47.79813" lon="-2.4331">
        <ele>84.3</ele>
        <time>2025-02-11T08:07:16Z</time>
      </trkpt>
      <trkpt lat="47.79813" lon="-2.43311">
        <ele>84.3</ele>
        <time>2025-02-11T08:07:17Z</time>
      </trkpt>
      <trkpt lat="47.79814" lon="-2.4331">
        <ele>84.3</ele>
        <time>2025-02-11T08:07:18Z</time>
      </trkpt>
      <trkpt lat="47.79815" lon="-2.43309">
        <ele>84.3</ele>
        <time>2025-02-11T08:07:19Z</time>
      </trkpt>
      <trkpt lat="47.79816" lon="-2.4331">
        <ele>84.4</ele>
        <time>2025-02-11T08:07:20Z</time>
      </trkpt>
      <trkpt lat="47.79816" lon="-2.43312">
        <ele>84.4</ele>
        <time>2025-02-11T08:07:21Z</time>
      </trkpt>
      <trkpt lat="47.79816" lon="-2.43315">
        <ele>84.4</ele>
        <time>2025-02-11T08:07:22Z</time>
      </trkpt>
      <trkpt lat="47.79816" lon="-2.43318">
        <ele>84.4</ele>
        <time>2025-02-11T08:07:23Z</time>
      </trkpt>
      <trkpt lat="47.79814" lon="-2.43321">
        <ele>84.3</ele>
        <time>2025-02-11T08:07:24Z</time>
      </trkpt>
      <trkpt lat="47.79813" lon="-2.43323">
        <ele>84.3</ele>
        <time>2025-02-11T08:07:25Z</time>
      </trkpt>
      <trkpt lat="47.79811" lon="-2.43327">
        <ele>84.2</ele>
        <time>2025-02-11T08:07:26Z</time>
      </trkpt>
      <trkpt lat="47.7981" lon="-2.4333">
        <ele>84.2</ele>
        <time>2025-02-11T08:07:27Z</time>
      </trkpt>
      <trkpt lat="47.79809" lon="-2.43333">
        <ele>84.1</ele>
        <time>2025-02-11T08:07:28Z</time>
      </trkpt>
      <trkpt lat="47.79809" lon="-2.43336">
        <ele>84.2</ele>
        <time>2025-02-11T08:07:29Z</time>
      </trkpt>
      <trkpt lat="47.79809" lon="-2.43339">
        <ele>84.3</ele>
        <time>2025-02-11T08:07:30Z</time>
      </trkpt>
      <trkpt lat="47.7981" lon="-2.4334">
        <ele>84.4</ele>
        <time>2025-02-11T08:07:31Z</time>
      </trkpt>
      <trkpt lat="47.79811" lon="-2.43342">
        <ele>84.4</ele>
        <time>2025-02-11T08:07:32Z</time>
      </trkpt>
      <trkpt lat="47.79811" lon="-2.43342">
        <ele>84.4</ele>
        <time>2025-02-11T08:07:33Z</time>
      </trkpt>
      <trkpt lat="47.79811" lon="-2.43342">
        <ele>84.4</ele>
        <time>2025-02-11T08:07:34Z</time>
      </trkpt>
      <trkpt lat="47.79811" lon="-2.43342">
        <ele>84.4</ele>
        <time>2025-02-11T08:07:35Z</time>
      </trkpt>
      <trkpt lat="47.79811" lon="-2.43342">
        <ele>84.4</ele>
        <time>2025-02-11T08:07:36Z</time>
      </trkpt>
      <trkpt lat="47.79811" lon="-2.43342">
        <ele>84.4</ele>
        <time>2025-02-11T08:07:37Z</time>
      </trkpt>
      <trkpt lat="47.79811" lon="-2.43342">
        <ele>84.5</ele>
        <time>2025-02-11T08:07:38Z</time>
      </trkpt>
      <trkpt lat="47.7981" lon="-2.43342">
        <ele>84.4</ele>
        <time>2025-02-11T08:07:39Z</time>
      </trkpt>
      <trkpt lat="47.7981" lon="-2.43342">
        <ele>84.4</ele>
        <time>2025-02-11T08:07:40Z</time>
      </trkpt>
      <trkpt lat="47.79812" lon="-2.43341">
        <ele>84.4</ele>
        <time>2025-02-11T08:07:41Z</time>
      </trkpt>
      <trkpt lat="47.79813" lon="-2.43341">
        <ele>84.5</ele>
        <time>2025-02-11T08:07:42Z</time>
      </trkpt>
      <trkpt lat="47.79815" lon="-2.4334">
        <ele>84.5</ele>
        <time>2025-02-11T08:07:43Z</time>
      </trkpt>
      <trkpt lat="47.79816" lon="-2.4334">
        <ele>84.5</ele>
        <time>2025-02-11T08:07:44Z</time>
      </trkpt>
      <trkpt lat="47.79818" lon="-2.4334">
        <ele>84.6</ele>
        <time>2025-02-11T08:07:45Z</time>
      </trkpt>
      <trkpt lat="47.79819" lon="-2.4334">
        <ele>84.6</ele>
        <time>2025-02-11T08:07:46Z</time>
      </trkpt>
      <trkpt lat="47.7982" lon="-2.4334">
        <ele>84.6</ele>
        <time>2025-02-11T08:07:47Z</time>
      </trkpt>
      <trkpt lat="47.79822" lon="-2.4334">
        <ele>84.7</ele>
        <time>2025-02-11T08:07:48Z</time>
      </trkpt>
      <trkpt lat="47.79823" lon="-2.43339">
        <ele>84.7</ele>
        <time>2025-02-11T08:07:49Z</time>
      </trkpt>
      <trkpt lat="47.79824" lon="-2.4334">
        <ele>84.8</ele>
        <time>2025-02-11T08:07:50Z</time>
      </trkpt>
      <trkpt lat="47.79826" lon="-2.4334">
        <ele>84.8</ele>
        <time>2025-02-11T08:07:51Z</time>
      </trkpt>
      <trkpt lat="47.79827" lon="-2.43339">
        <ele>84.8</ele>
        <time>2025-02-11T08:07:52Z</time>
      </trkpt>
      <trkpt lat="47.79828" lon="-2.43339">
        <ele>84.8</ele>
        <time>2025-02-11T08:07:53Z</time>
      </trkpt>
      <trkpt lat="47.79829" lon="-2.43339">
        <ele>84.9</ele>
        <time>2025-02-11T08:07:54Z</time>
      </trkpt>
      <trkpt lat="47.79831" lon="-2.43338">
        <ele>84.9</ele>
        <time>2025-02-11T08:07:55Z</time>
      </trkpt>
      <trkpt lat="47.79832" lon="-2.43337">
        <ele>85</ele>
        <time>2025-02-11T08:07:56Z</time>
      </trkpt>
      <trkpt lat="47.79834" lon="-2.43337">
        <ele>85</ele>
        <time>2025-02-11T08:07:57Z</time>
      </trkpt>
      <trkpt lat="47.79835" lon="-2.43337">
        <ele>85.1</ele>
        <time>2025-02-11T08:07:58Z</time>
      </trkpt>
      <trkpt lat="47.79836" lon="-2.43337">
        <ele>85.1</ele>
        <time>2025-02-11T08:07:59Z</time>
      </trkpt>
      <trkpt lat="47.79838" lon="-2.43338">
        <ele>85.2</ele>
        <time>2025-02-11T08:08:00Z</time>
      </trkpt>
      <trkpt lat="47.7984" lon="-2.43338">
        <ele>85.2</ele>
        <time>2025-02-11T08:08:01Z</time>
      </trkpt>
      <trkpt lat="47.79841" lon="-2.43338">
        <ele>85.3</ele>
        <time>2025-02-11T08:08:02Z</time>
      </trkpt>
      <trkpt lat="47.79843" lon="-2.43337">
        <ele>85.3</ele>
        <time>2025-02-11T08:08:03Z</time>
      </trkpt>
      <trkpt lat="47.79844" lon="-2.43336">
        <ele>85.4</ele>
        <time>2025-02-11T08:08:04Z</time>
      </trkpt>
      <trkpt lat="47.79846" lon="-2.43335">
        <ele>85.4</ele>
        <time>2025-02-11T08:08:05Z</time>
      </trkpt>
      <trkpt lat="47.79847" lon="-2.43335">
        <ele>85.5</ele>
        <time>2025-02-11T08:08:06Z</time>
      </trkpt>
      <trkpt lat="47.79848" lon="-2.43335">
        <ele>85.5</ele>
        <time>2025-02-11T08:08:07Z</time>
      </trkpt>
      <trkpt lat="47.79849" lon="-2.43334">
        <ele>85.6</ele>
        <time>2025-02-11T08:08:08Z</time>
      </trkpt>
      <trkpt lat="47.7985" lon="-2.43334">
        <ele>85.6</ele>
        <time>2025-02-11T08:08:09Z</time>
      </trkpt>
      <trkpt lat="47.79852" lon="-2.43334">
        <ele>85.7</ele>
        <time>2025-02-11T08:08:10Z</time>
      </trkpt>
      <trkpt lat="47.79853" lon="-2.43334">
        <ele>85.7</ele>
        <time>2025-02-11T08:08:11Z</time>
      </trkpt>
      <trkpt lat="47.79854" lon="-2.43334">
        <ele>85.7</ele>
        <time>2025-02-11T08:08:12Z</time>
      </trkpt>
      <trkpt lat="47.79855" lon="-2.43335">
        <ele>85.8</ele>
        <time>2025-02-11T08:08:13Z</time>
      </trkpt>
      <trkpt lat="47.79857" lon="-2.43335">
        <ele>85.8</ele>
        <time>2025-02-11T08:08:14Z</time>
      </trkpt>
      <trkpt lat="47.79858" lon="-2.43335">
        <ele>85.9</ele>
        <time>2025-02-11T08:08:15Z</time>
      </trkpt>
      <trkpt lat="47.79859" lon="-2.43336">
        <ele>85.9</ele>
        <time>2025-02-11T08:08:16Z</time>
      </trkpt>
      <trkpt lat="47.7986" lon="-2.43336">
        <ele>86</ele>
        <time>2025-02-11T08:08:17Z</time>
      </trkpt>
      <trkpt lat="47.79861" lon="-2.43336">
        <ele>86</ele>
        <time>2025-02-11T08:08:18Z</time>
      </trkpt>
      <trkpt lat="47.79862" lon="-2.43336">
        <ele>86</ele>
        <time>2025-02-11T08:08:19Z</time>
      </trkpt>
      <trkpt lat="47.79864" lon="-2.43337">
        <ele>86</ele>
        <time>2025-02-11T08:08:20Z</time>
      </trkpt>
      <trkpt lat="47.79865" lon="-2.43337">
        <ele>86</ele>
        <time>2025-02-11T08:08:21Z</time>
      </trkpt>
      <trkpt lat="47.79866" lon="-2.43338">
        <ele>86</ele>
        <time>2025-02-11T08:08:22Z</time>
      </trkpt>
      <trkpt lat="47.79867" lon="-2.43338">
        <ele>86</ele>
        <time>2025-02-11T08:08:23Z</time>
      </trkpt>
      <trkpt lat="47.79868" lon="-2.43337">
        <ele>86</ele>
        <time>2025-02-11T08:08:24Z</time>
      </trkpt>
      <trkpt lat="47.7987" lon="-2.43336">
        <ele>86</ele>
        <time>2025-02-11T08:08:25Z</time>
      </trkpt>
      <trkpt lat="47.79871" lon="-2.43336">
        <ele>86</ele>
        <time>2025-02-11T08:08:26Z</time>
      </trkpt>
      <trkpt lat="47.79873" lon="-2.43335">
        <ele>86</ele>
        <time>2025-02-11T08:08:27Z</time>
      </trkpt>
      <trkpt lat="47.79874" lon="-2.43335">
        <ele>86</ele>
        <time>2025-02-11T08:08:28Z</time>
      </trkpt>
      <trkpt lat="47.79875" lon="-2.43334">
        <ele>86</ele>
        <time>2025-02-11T08:08:29Z</time>
      </trkpt>
      <trkpt lat="47.79876" lon="-2.43333">
        <ele>86</ele>
        <time>2025-02-11T08:08:30Z</time>
      </trkpt>
      <trkpt lat="47.79877" lon="-2.43332">
        <ele>86</ele>
        <time>2025-02-11T08:08:31Z</time>
      </trkpt>
      <trkpt lat="47.79879" lon="-2.43332">
        <ele>86</ele>
        <time>2025-02-11T08:08:32Z</time>
      </trkpt>
      <trkpt lat="47.7988" lon="-2.43332">
        <ele>86</ele>
        <time>2025-02-11T08:08:33Z</time>
      </trkpt>
      <trkpt lat="47.79881" lon="-2.43332">
        <ele>86</ele>
        <time>2025-02-11T08:08:34Z</time>
      </trkpt>
      <trkpt lat="47.79883" lon="-2.43331">
        <ele>86</ele>
        <time>2025-02-11T08:08:35Z</time>
      </trkpt>
      <trkpt lat="47.79884" lon="-2.43332">
        <ele>86</ele>
        <time>2025-02-11T08:08:36Z</time>
      </trkpt>
      <trkpt lat="47.79885" lon="-2.43332">
        <ele>86</ele>
        <time>2025-02-11T08:08:37Z</time>
      </trkpt>
      <trkpt lat="47.79886" lon="-2.43332">
        <ele>86</ele>
        <time>2025-02-11T08:08:38Z</time>
      </trkpt>
      <trkpt lat="47.79887" lon="-2.43332">
        <ele>86</ele>
        <time>2025-02-11T08:08:39Z</time>
      </trkpt>
      <trkpt lat="47.79889" lon="-2.43331">
        <ele>86</ele>
        <time>2025-02-11T08:08:40Z</time>
      </trkpt>
      <trkpt lat="47.7989" lon="-2.43331">
        <ele>86</ele>
        <time>2025-02-11T08:08:41Z</time>
      </trkpt>
      <trkpt lat="47.79891" lon="-2.43331">
        <ele>86.1</ele>
        <time>2025-02-11T08:08:42Z</time>
      </trkpt>
      <trkpt lat="47.79892" lon="-2.43331">
        <ele>86.1</ele>
        <time>2025-02-11T08:08:43Z</time>
      </trkpt>
      <trkpt lat="47.79894" lon="-2.43331">
        <ele>86.2</ele>
        <time>2025-02-11T08:08:44Z</time>
      </trkpt>
      <trkpt lat="47.79895" lon="-2.4333">
        <ele>86.2</ele>
        <time>2025-02-11T08:08:45Z</time>
      </trkpt>
      <trkpt lat="47.79896" lon="-2.43331">
        <ele>86.2</ele>
        <time>2025-02-11T08:08:46Z</time>
      </trkpt>
      <trkpt lat="47.79897" lon="-2.4333">
        <ele>86.3</ele>
        <time>2025-02-11T08:08:47Z</time>
      </trkpt>
      <trkpt lat="47.79898" lon="-2.4333">
        <ele>86.3</ele>
        <time>2025-02-11T08:08:48Z</time>
      </trkpt>
      <trkpt lat="47.799" lon="-2.4333">
        <ele>86.4</ele>
        <time>2025-02-11T08:08:49Z</time>
      </trkpt>
      <trkpt lat="47.79901" lon="-2.43331">
        <ele>86.4</ele>
        <time>2025-02-11T08:08:50Z</time>
      </trkpt>
      <trkpt lat="47.79902" lon="-2.43331">
        <ele>86.5</ele>
        <time>2025-02-11T08:08:51Z</time>
      </trkpt>
      <trkpt lat="47.79903" lon="-2.43331">
        <ele>86.5</ele>
        <time>2025-02-11T08:08:52Z</time>
      </trkpt>
      <trkpt lat="47.79905" lon="-2.43331">
        <ele>86.6</ele>
        <time>2025-02-11T08:08:53Z</time>
      </trkpt>
      <trkpt lat="47.79906" lon="-2.43332">
        <ele>86.6</ele>
        <time>2025-02-11T08:08:54Z</time>
      </trkpt>
      <trkpt lat="47.79907" lon="-2.43332">
        <ele>86.6</ele>
        <time>2025-02-11T08:08:55Z</time>
      </trkpt>
      <trkpt lat="47.79908" lon="-2.43331">
        <ele>86.7</ele>
        <time>2025-02-11T08:08:56Z</time>
      </trkpt>
      <trkpt lat="47.79909" lon="-2.43331">
        <ele>86.7</ele>
        <time>2025-02-11T08:08:57Z</time>
      </trkpt>
      <trkpt lat="47.7991" lon="-2.43331">
        <ele>86.8</ele>
        <time>2025-02-11T08:08:58Z</time>
      </trkpt>
      <trkpt lat="47.79911" lon="-2.43332">
        <ele>86.8</ele>
        <time>2025-02-11T08:08:59Z</time>
      </trkpt>
      <trkpt lat="47.79912" lon="-2.43332">
        <ele>86.8</ele>
        <time>2025-02-11T08:09:00Z</time>
      </trkpt>
      <trkpt lat="47.79913" lon="-2.43332">
        <ele>86.9</ele>
        <time>2025-02-11T08:09:01Z</time>
      </trkpt>
      <trkpt lat="47.79914" lon="-2.43331">
        <ele>86.9</ele>
        <time>2025-02-11T08:09:02Z</time>
      </trkpt>
      <trkpt lat="47.79916" lon="-2.43331">
        <ele>87</ele>
        <time>2025-02-11T08:09:03Z</time>
      </trkpt>
      <trkpt lat="47.79917" lon="-2.43331">
        <ele>87</ele>
        <time>2025-02-11T08:09:04Z</time>
      </trkpt>
      <trkpt lat="47.79918" lon="-2.4333">
        <ele>87</ele>
        <time>2025-02-11T08:09:05Z</time>
      </trkpt>
      <trkpt lat="47.79919" lon="-2.43331">
        <ele>87</ele>
        <time>2025-02-11T08:09:06Z</time>
      </trkpt>
      <trkpt lat="47.79921" lon="-2.43331">
        <ele>87</ele>
        <time>2025-02-11T08:09:07Z</time>
      </trkpt>
      <trkpt lat="47.79922" lon="-2.43331">
        <ele>87</ele>
        <time>2025-02-11T08:09:08Z</time>
      </trkpt>
      <trkpt lat="47.79923" lon="-2.43331">
        <ele>87</ele>
        <time>2025-02-11T08:09:09Z</time>
      </trkpt>
      <trkpt lat="47.79924" lon="-2.43331">
        <ele>87</ele>
        <time>2025-02-11T08:09:10Z</time>
      </trkpt>
      <trkpt lat="47.79925" lon="-2.43331">
        <ele>87</ele>
        <time>2025-02-11T08:09:11Z</time>
      </trkpt>
      <trkpt lat="47.79926" lon="-2.4333">
        <ele>87</ele>
        <time>2025-02-11T08:09:12Z</time>
      </trkpt>
      <trkpt lat="47.79927" lon="-2.4333">
        <ele>87</ele>
        <time>2025-02-11T08:09:13Z</time>
      </trkpt>
      <trkpt lat="47.79929" lon="-2.43329">
        <ele>87</ele>
        <time>2025-02-11T08:09:14Z</time>
      </trkpt>
      <trkpt lat="47.7993" lon="-2.43329">
        <ele>87</ele>
        <time>2025-02-11T08:09:15Z</time>
      </trkpt>
      <trkpt lat="47.79931" lon="-2.43329">
        <ele>87</ele>
        <time>2025-02-11T08:09:16Z</time>
      </trkpt>
      <trkpt lat="47.79932" lon="-2.43329">
        <ele>87</ele>
        <time>2025-02-11T08:09:17Z</time>
      </trkpt>
      <trkpt lat="47.79934" lon="-2.43329">
        <ele>87</ele>
        <time>2025-02-11T08:09:18Z</time>
      </trkpt>
      <trkpt lat="47.79935" lon="-2.43328">
        <ele>87</ele>
        <time>2025-02-11T08:09:19Z</time>
      </trkpt>
      <trkpt lat="47.79936" lon="-2.43328">
        <ele>87</ele>
        <time>2025-02-11T08:09:20Z</time>
      </trkpt>
      <trkpt lat="47.79937" lon="-2.43328">
        <ele>87</ele>
        <time>2025-02-11T08:09:21Z</time>
      </trkpt>
      <trkpt lat="47.79938" lon="-2.43329">
        <ele>87</ele>
        <time>2025-02-11T08:09:22Z</time>
      </trkpt>
      <trkpt lat="47.79939" lon="-2.43328">
        <ele>87</ele>
        <time>2025-02-11T08:09:23Z</time>
      </trkpt>
      <trkpt lat="47.79941" lon="-2.43329">
        <ele>87</ele>
        <time>2025-02-11T08:09:24Z</time>
      </trkpt>
      <trkpt lat="47.79942" lon="-2.43329">
        <ele>87</ele>
        <time>2025-02-11T08:09:25Z</time>
      </trkpt>
      <trkpt lat="47.79943" lon="-2.43328">
        <ele>87</ele>
        <time>2025-02-11T08:09:26Z</time>
      </trkpt>
      <trkpt lat="47.79944" lon="-2.43328">
        <ele>87</ele>
        <time>2025-02-11T08:09:27Z</time>
      </trkpt>
      <trkpt lat="47.79945" lon="-2.43328">
        <ele>87</ele>
        <time>2025-02-11T08:09:28Z</time>
      </trkpt>
      <trkpt lat="47.79947" lon="-2.43328">
        <ele>87.1</ele>
        <time>2025-02-11T08:09:29Z</time>
      </trkpt>
      <trkpt lat="47.79948" lon="-2.43328">
        <ele>87.1</ele>
        <time>2025-02-11T08:09:30Z</time>
      </trkpt>
      <trkpt lat="47.79949" lon="-2.43328">
        <ele>87.2</ele>
        <time>2025-02-11T08:09:31Z</time>
      </trkpt>
      <trkpt lat="47.7995" lon="-2.43328">
        <ele>87.2</ele>
        <time>2025-02-11T08:09:32Z</time>
      </trkpt>
      <trkpt lat="47.79951" lon="-2.43328">
        <ele>87.2</ele>
        <time>2025-02-11T08:09:33Z</time>
      </trkpt>
      <trkpt lat="47.79952" lon="-2.43327">
        <ele>87.3</ele>
        <time>2025-02-11T08:09:34Z</time>
      </trkpt>
      <trkpt lat="47.79953" lon="-2.43327">
        <ele>87.3</ele>
        <time>2025-02-11T08:09:35Z</time>
      </trkpt>
      <trkpt lat="47.79954" lon="-2.43327">
        <ele>87.4</ele>
        <time>2025-02-11T08:09:36Z</time>
      </trkpt>
      <trkpt lat="47.79955" lon="-2.43326">
        <ele>87.4</ele>
        <time>2025-02-11T08:09:37Z</time>
      </trkpt>
      <trkpt lat="47.79956" lon="-2.43325">
        <ele>87.4</ele>
        <time>2025-02-11T08:09:38Z</time>
      </trkpt>
      <trkpt lat="47.79956" lon="-2.43322">
        <ele>87.4</ele>
        <time>2025-02-11T08:09:39Z</time>
      </trkpt>
      <trkpt lat="47.79956" lon="-2.4332">
        <ele>87.4</ele>
        <time>2025-02-11T08:09:40Z</time>
      </trkpt>
      <trkpt lat="47.79955" lon="-2.43318">
        <ele>87.4</ele>
        <time>2025-02-11T08:09:41Z</time>
      </trkpt>
      <trkpt lat="47.79955" lon="-2.43317">
        <ele>87.4</ele>
        <time>2025-02-11T08:09:42Z</time>
      </trkpt>
      <trkpt lat="47.79955" lon="-2.43315">
        <ele>87.4</ele>
        <time>2025-02-11T08:09:43Z</time>
      </trkpt>
      <trkpt lat="47.79955" lon="-2.43313">
        <ele>87.4</ele>
        <time>2025-02-11T08:09:44Z</time>
      </trkpt>
      <trkpt lat="47.79955" lon="-2.43312">
        <ele>87.4</ele>
        <time>2025-02-11T08:09:45Z</time>
      </trkpt>
      <trkpt lat="47.79955" lon="-2.4331">
        <ele>87.4</ele>
        <time>2025-02-11T08:09:46Z</time>
      </trkpt>
      <trkpt lat="47.79955" lon="-2.43308">
        <ele>87.4</ele>
        <time>2025-02-11T08:09:47Z</time>
      </trkpt>
      <trkpt lat="47.79956" lon="-2.43306">
        <ele>87.4</ele>
        <time>2025-02-11T08:09:48Z</time>
      </trkpt>
      <trkpt lat="47.79956" lon="-2.43304">
        <ele>87.4</ele>
        <time>2025-02-11T08:09:49Z</time>
      </trkpt>
      <trkpt lat="47.79955" lon="-2.43302">
        <ele>87.5</ele>
        <time>2025-02-11T08:09:50Z</time>
      </trkpt>
      <trkpt lat="47.79956" lon="-2.43301">
        <ele>87.5</ele>
        <time>2025-02-11T08:09:51Z</time>
      </trkpt>
      <trkpt lat="47.79956" lon="-2.43299">
        <ele>87.6</ele>
        <time>2025-02-11T08:09:52Z</time>
      </trkpt>
      <trkpt lat="47.79957" lon="-2.43297">
        <ele>87.6</ele>
        <time>2025-02-11T08:09:53Z</time>
      </trkpt>
      <trkpt lat="47.79957" lon="-2.43295">
        <ele>87.7</ele>
        <time>2025-02-11T08:09:54Z</time>
      </trkpt>
      <trkpt lat="47.79957" lon="-2.43293">
        <ele>87.7</ele>
        <time>2025-02-11T08:09:55Z</time>
      </trkpt>
      <trkpt lat="47.79956" lon="-2.43291">
        <ele>87.7</ele>
        <time>2025-02-11T08:09:56Z</time>
      </trkpt>
      <trkpt lat="47.79956" lon="-2.43289">
        <ele>87.8</ele>
        <time>2025-02-11T08:09:57Z</time>
      </trkpt>
      <trkpt lat="47.79956" lon="-2.43287">
        <ele>87.8</ele>
        <time>2025-02-11T08:09:58Z</time>
      </trkpt>
      <trkpt lat="47.79955" lon="-2.43285">
        <ele>87.8</ele>
        <time>2025-02-11T08:09:59Z</time>
      </trkpt>
      <trkpt lat="47.79954" lon="-2.43284">
        <ele>87.9</ele>
        <time>2025-02-11T08:10:00Z</time>
      </trkpt>
      <trkpt lat="47.79954" lon="-2.43282">
        <ele>87.9</ele>
        <time>2025-02-11T08:10:01Z</time>
      </trkpt>
      <trkpt lat="47.79953" lon="-2.4328">
        <ele>87.9</ele>
        <time>2025-02-11T08:10:02Z</time>
      </trkpt>
      <trkpt lat="47.79953" lon="-2.43278">
        <ele>88</ele>
        <time>2025-02-11T08:10:03Z</time>
      </trkpt>
      <trkpt lat="47.79953" lon="-2.43277">
        <ele>88</ele>
        <time>2025-02-11T08:10:04Z</time>
      </trkpt>
      <trkpt lat="47.79953" lon="-2.43276">
        <ele>88.1</ele>
        <time>2025-02-11T08:10:05Z</time>
      </trkpt>
      <trkpt lat="47.79954" lon="-2.43274">
        <ele>88.1</ele>
        <time>2025-02-11T08:10:06Z</time>
      </trkpt>
      <trkpt lat="47.79954" lon="-2.43272">
        <ele>88.1</ele>
        <time>2025-02-11T08:10:07Z</time>
      </trkpt>
      <trkpt lat="47.79954" lon="-2.43271">
        <ele>88.2</ele>
        <time>2025-02-11T08:10:08Z</time>
      </trkpt>
      <trkpt lat="47.79954" lon="-2.43269">
        <ele>88.2</ele>
        <time>2025-02-11T08:10:09Z</time>
      </trkpt>
      <trkpt lat="47.79954" lon="-2.43268">
        <ele>88.2</ele>
        <time>2025-02-11T08:10:10Z</time>
      </trkpt>
      <trkpt lat="47.79954" lon="-2.43266">
        <ele>88.3</ele>
        <time>2025-02-11T08:10:11Z</time>
      </trkpt>
      <trkpt lat="47.79954" lon="-2.43264">
        <ele>88.3</ele>
        <time>2025-02-11T08:10:12Z</time>
      </trkpt>
      <trkpt lat="47.79955" lon="-2.43263">
        <ele>88.3</ele>
        <time>2025-02-11T08:10:13Z</time>
      </trkpt>
      <trkpt lat="47.79957" lon="-2.43262">
        <ele>88.3</ele>
        <time>2025-02-11T08:10:14Z</time>
      </trkpt>
      <trkpt lat="47.79958" lon="-2.43263">
        <ele>88.3</ele>
        <time>2025-02-11T08:10:15Z</time>
      </trkpt>
      <trkpt lat="47.79959" lon="-2.43264">
        <ele>88.2</ele>
        <time>2025-02-11T08:10:16Z</time>
      </trkpt>
      <trkpt lat="47.7996" lon="-2.43265">
        <ele>88.2</ele>
        <time>2025-02-11T08:10:17Z</time>
      </trkpt>
      <trkpt lat="47.79962" lon="-2.43265">
        <ele>88.2</ele>
        <time>2025-02-11T08:10:18Z</time>
      </trkpt>
      <trkpt lat="47.79963" lon="-2.43265">
        <ele>88.2</ele>
        <time>2025-02-11T08:10:19Z</time>
      </trkpt>
      <trkpt lat="47.79964" lon="-2.43265">
        <ele>88.1</ele>
        <time>2025-02-11T08:10:20Z</time>
      </trkpt>
      <trkpt lat="47.79964" lon="-2.43265">
        <ele>88.1</ele>
        <time>2025-02-11T08:10:21Z</time>
      </trkpt>
      <trkpt lat="47.79964" lon="-2.43265">
        <ele>88.1</ele>
        <time>2025-02-11T08:10:22Z</time>
      </trkpt>
      <trkpt lat="47.79964" lon="-2.43265">
        <ele>88.1</ele>
        <time>2025-02-11T08:10:23Z</time>
      </trkpt>
      <trkpt lat="47.79964" lon="-2.43265">
        <ele>88.1</ele>
        <time>2025-02-11T08:10:24Z</time>
      </trkpt>
      <trkpt lat="47.79964" lon="-2.43265">
        <ele>88.1</ele>
        <time>2025-02-11T08:10:25Z</time>
      </trkpt>
      <trkpt lat="47.79964" lon="-2.43265">
        <ele>88.1</ele>
        <time>2025-02-11T08:10:26Z</time>
      </trkpt>
      <trkpt lat="47.79964" lon="-2.43265">
        <ele>88.1</ele>
        <time>2025-02-11T08:10:27Z</time>
      </trkpt>
      <trkpt lat="47.79964" lon="-2.43265">
        <ele>88.1</ele>
        <time>2025-02-11T08:10:28Z</time>
      </trkpt>
      <trkpt lat="47.79964" lon="-2.43265">
        <ele>88.1</ele>
        <time>2025-02-11T08:10:29Z</time>
      </trkpt>
      <trkpt lat="47.79964" lon="-2.43265">
        <ele>88.1</ele>
        <time>2025-02-11T08:10:30Z</time>
      </trkpt>
      <trkpt lat="47.79964" lon="-2.43265">
        <ele>88.1</ele>
        <time>2025-02-11T08:10:31Z</time>
      </trkpt>
      <trkpt lat="47.79964" lon="-2.43265">
        <ele>88.1</ele>
        <time>2025-02-11T08:10:32Z</time>
      </trkpt>
      <trkpt lat="47.79964" lon="-2.43265">
        <ele>88.1</ele>
        <time>2025-02-11T08:10:33Z</time>
      </trkpt>
      <trkpt lat="47.79964" lon="-2.43265">
        <ele>88.1</ele>
        <time>2025-02-11T08:10:34Z</time>
      </trkpt>
      <trkpt lat="47.79965" lon="-2.43263">
        <ele>88.1</ele>
        <time>2025-02-11T08:10:35Z</time>
      </trkpt>
      <trkpt lat="47.79965" lon="-2.43264">
        <ele>88.1</ele>
        <time>2025-02-11T08:10:36Z</time>
      </trkpt>
      <trkpt lat="47.79965" lon="-2.43264">
        <ele>88.1</ele>
        <time>2025-02-11T08:10:37Z</time>
      </trkpt>
      <trkpt lat="47.79965" lon="-2.43264">
        <ele>88.1</ele>
        <time>2025-02-11T08:10:38Z</time>
      </trkpt>
      <trkpt lat="47.79965" lon="-2.43264">
        <ele>88.1</ele>
        <time>2025-02-11T08:10:39Z</time>
      </trkpt>
      <trkpt lat="47.79965" lon="-2.43264">
        <ele>88.1</ele>
        <time>2025-02-11T08:10:40Z</time>
      </trkpt>
      <trkpt lat="47.79965" lon="-2.43264">
        <ele>88.1</ele>
        <time>2025-02-11T08:10:41Z</time>
      </trkpt>
      <trkpt lat="47.79965" lon="-2.43265">
        <ele>88.1</ele>
        <time>2025-02-11T08:10:42Z</time>
      </trkpt>
      <trkpt lat="47.79964" lon="-2.43265">
        <ele>88.1</ele>
        <time>2025-02-11T08:10:43Z</time>
      </trkpt>
      <trkpt lat="47.79964" lon="-2.43265">
        <ele>88.1</ele>
        <time>2025-02-11T08:10:44Z</time>
      </trkpt>
      <trkpt lat="47.79964" lon="-2.43265">
        <ele>88.1</ele>
        <time>2025-02-11T08:10:45Z</time>
      </trkpt>
      <trkpt lat="47.79964" lon="-2.43265">
        <ele>88.1</ele>
        <time>2025-02-11T08:10:46Z</time>
      </trkpt>
      <trkpt lat="47.79964" lon="-2.43265">
        <ele>88.1</ele>
        <time>2025-02-11T08:10:47Z</time>
      </trkpt>
      <trkpt lat="47.79964" lon="-2.43265">
        <ele>88.1</ele>
        <time>2025-02-11T08:10:48Z</time>
      </trkpt>
      <trkpt lat="47.79964" lon="-2.43265">
        <ele>88.1</ele>
        <time>2025-02-11T08:10:49Z</time>
      </trkpt>
      <trkpt lat="47.79964" lon="-2.43265">
        <ele>88.1</ele>
        <time>2025-02-11T08:10:50Z</time>
      </trkpt>
      <trkpt lat="47.79965" lon="-2.43264">
        <ele>88.1</ele>
        <time>2025-02-11T08:10:51Z</time>
      </trkpt>
      <trkpt lat="47.79966" lon="-2.43265">
        <ele>88.1</ele>
        <time>2025-02-11T08:10:52Z</time>
      </trkpt>
      <trkpt lat="47.79965" lon="-2.43265">
        <ele>88.1</ele>
        <time>2025-02-11T08:10:53Z</time>
      </trkpt>
      <trkpt lat="47.79965" lon="-2.43265">
        <ele>88.1</ele>
        <time>2025-02-11T08:10:54Z</time>
      </trkpt>
      <trkpt lat="47.79964" lon="-2.43266">
        <ele>88.1</ele>
        <time>2025-02-11T08:10:55Z</time>
      </trkpt>
      <trkpt lat="47.79963" lon="-2.43266">
        <ele>88.1</ele>
        <time>2025-02-11T08:10:56Z</time>
      </trkpt>
      <trkpt lat="47.79963" lon="-2.43266">
        <ele>88.1</ele>
        <time>2025-02-11T08:10:57Z</time>
      </trkpt>
      <trkpt lat="47.79963" lon="-2.43266">
        <ele>88.1</ele>
        <time>2025-02-11T08:10:58Z</time>
      </trkpt>
      <trkpt lat="47.79963" lon="-2.43266">
        <ele>88.1</ele>
        <time>2025-02-11T08:10:59Z</time>
      </trkpt>
      <trkpt lat="47.79963" lon="-2.43266">
        <ele>88.1</ele>
        <time>2025-02-11T08:11:00Z</time>
      </trkpt>
      <trkpt lat="47.79962" lon="-2.43266">
        <ele>88.2</ele>
        <time>2025-02-11T08:11:01Z</time>
      </trkpt>
      <trkpt lat="47.79961" lon="-2.43265">
        <ele>88.2</ele>
        <time>2025-02-11T08:11:02Z</time>
      </trkpt>
      <trkpt lat="47.79961" lon="-2.43266">
        <ele>88.2</ele>
        <time>2025-02-11T08:11:03Z</time>
      </trkpt>
      <trkpt lat="47.79961" lon="-2.43265">
        <ele>88.2</ele>
        <time>2025-02-11T08:11:04Z</time>
      </trkpt>
      <trkpt lat="47.79961" lon="-2.43265">
        <ele>88.2</ele>
        <time>2025-02-11T08:11:05Z</time>
      </trkpt>
      <trkpt lat="47.79962" lon="-2.43264">
        <ele>88.2</ele>
        <time>2025-02-11T08:11:06Z</time>
      </trkpt>
      <trkpt lat="47.79963" lon="-2.43264">
        <ele>88.2</ele>
        <time>2025-02-11T08:11:07Z</time>
      </trkpt>
      <trkpt lat="47.79965" lon="-2.43265">
        <ele>88.1</ele>
        <time>2025-02-11T08:11:08Z</time>
      </trkpt>
      <trkpt lat="47.79966" lon="-2.43266">
        <ele>88.1</ele>
        <time>2025-02-11T08:11:09Z</time>
      </trkpt>
      <trkpt lat="47.79967" lon="-2.43268">
        <ele>88.1</ele>
        <time>2025-02-11T08:11:10Z</time>
      </trkpt>
      <trkpt lat="47.79969" lon="-2.43269">
        <ele>88</ele>
        <time>2025-02-11T08:11:11Z</time>
      </trkpt>
      <trkpt lat="47.7997" lon="-2.4327">
        <ele>88</ele>
        <time>2025-02-11T08:11:12Z</time>
      </trkpt>
      <trkpt lat="47.79971" lon="-2.43272">
        <ele>88</ele>
        <time>2025-02-11T08:11:13Z</time>
      </trkpt>
      <trkpt lat="47.79971" lon="-2.43273">
        <ele>88</ele>
        <time>2025-02-11T08:11:14Z</time>
      </trkpt>
      <trkpt lat="47.79972" lon="-2.43274">
        <ele>88</ele>
        <time>2025-02-11T08:11:15Z</time>
      </trkpt>
      <trkpt lat="47.79974" lon="-2.43276">
        <ele>88</ele>
        <time>2025-02-11T08:11:16Z</time>
      </trkpt>
      <trkpt lat="47.79975" lon="-2.43277">
        <ele>88</ele>
        <time>2025-02-11T08:11:17Z</time>
      </trkpt>
      <trkpt lat="47.79976" lon="-2.43279">
        <ele>88</ele>
        <time>2025-02-11T08:11:18Z</time>
      </trkpt>
      <trkpt lat="47.79977" lon="-2.4328">
        <ele>88</ele>
        <time>2025-02-11T08:11:19Z</time>
      </trkpt>
      <trkpt lat="47.79979" lon="-2.43281">
        <ele>88</ele>
        <time>2025-02-11T08:11:20Z</time>
      </trkpt>
      <trkpt lat="47.7998" lon="-2.43281">
        <ele>88</ele>
        <time>2025-02-11T08:11:21Z</time>
      </trkpt>
      <trkpt lat="47.79982" lon="-2.43283">
        <ele>88</ele>
        <time>2025-02-11T08:11:22Z</time>
      </trkpt>
      <trkpt lat="47.79983" lon="-2.43285">
        <ele>88</ele>
        <time>2025-02-11T08:11:23Z</time>
      </trkpt>
      <trkpt lat="47.79984" lon="-2.43286">
        <ele>88</ele>
        <time>2025-02-11T08:11:24Z</time>
      </trkpt>
      <trkpt lat="47.79986" lon="-2.43286">
        <ele>88</ele>
        <time>2025-02-11T08:11:25Z</time>
      </trkpt>
      <trkpt lat="47.79986" lon="-2.43288">
        <ele>88</ele>
        <time>2025-02-11T08:11:26Z</time>
      </trkpt>
      <trkpt lat="47.79986" lon="-2.4329">
        <ele>88</ele>
        <time>2025-02-11T08:11:27Z</time>
      </trkpt>
      <trkpt lat="47.79988" lon="-2.43291">
        <ele>88</ele>
        <time>2025-02-11T08:11:28Z</time>
      </trkpt>
      <trkpt lat="47.79989" lon="-2.43292">
        <ele>88</ele>
        <time>2025-02-11T08:11:29Z</time>
      </trkpt>
      <trkpt lat="47.7999" lon="-2.43294">
        <ele>88</ele>
        <time>2025-02-11T08:11:30Z</time>
      </trkpt>
      <trkpt lat="47.79991" lon="-2.43295">
        <ele>88</ele>
        <time>2025-02-11T08:11:31Z</time>
      </trkpt>
      <trkpt lat="47.79991" lon="-2.43297">
        <ele>88</ele>
        <time>2025-02-11T08:11:32Z</time>
      </trkpt>
      <trkpt lat="47.79992" lon="-2.43297">
        <ele>88</ele>
        <time>2025-02-11T08:11:33Z</time>
      </trkpt>
      <trkpt lat="47.79993" lon="-2.43298">
        <ele>88</ele>
        <time>2025-02-11T08:11:34Z</time>
      </trkpt>
      <trkpt lat="47.79994" lon="-2.43299">
        <ele>88</ele>
        <time>2025-02-11T08:11:35Z</time>
      </trkpt>
      <trkpt lat="47.79995" lon="-2.433">
        <ele>88</ele>
        <time>2025-02-11T08:11:36Z</time>
      </trkpt>
      <trkpt lat="47.79995" lon="-2.43301">
        <ele>88</ele>
        <time>2025-02-11T08:11:37Z</time>
      </trkpt>
      <trkpt lat="47.79996" lon="-2.43302">
        <ele>88</ele>
        <time>2025-02-11T08:11:38Z</time>
      </trkpt>
      <trkpt lat="47.79997" lon="-2.43303">
        <ele>88</ele>
        <time>2025-02-11T08:11:39Z</time>
      </trkpt>
      <trkpt lat="47.79996" lon="-2.43304">
        <ele>88</ele>
        <time>2025-02-11T08:11:40Z</time>
      </trkpt>
      <trkpt lat="47.79997" lon="-2.43305">
        <ele>88</ele>
        <time>2025-02-11T08:11:41Z</time>
      </trkpt>
      <trkpt lat="47.79997" lon="-2.43305">
        <ele>88</ele>
        <time>2025-02-11T08:11:42Z</time>
      </trkpt>
      <trkpt lat="47.79997" lon="-2.43305">
        <ele>88</ele>
        <time>2025-02-11T08:11:43Z</time>
      </trkpt>
      <trkpt lat="47.79997" lon="-2.43305">
        <ele>88</ele>
        <time>2025-02-11T08:11:44Z</time>
      </trkpt>
      <trkpt lat="47.79997" lon="-2.43304">
        <ele>88</ele>
        <time>2025-02-11T08:11:45Z</time>
      </trkpt>
      <trkpt lat="47.79998" lon="-2.43303">
        <ele>88</ele>
        <time>2025-02-11T08:11:46Z</time>
      </trkpt>
      <trkpt lat="47.79998" lon="-2.43302">
        <ele>88</ele>
        <time>2025-02-11T08:11:47Z</time>
      </trkpt>
      <trkpt lat="47.79999" lon="-2.43302">
        <ele>88</ele>
        <time>2025-02-11T08:11:48Z</time>
      </trkpt>
      <trkpt lat="47.79999" lon="-2.43301">
        <ele>88</ele>
        <time>2025-02-11T08:11:49Z</time>
      </trkpt>
      <trkpt lat="47.79999" lon="-2.433">
        <ele>88</ele>
        <time>2025-02-11T08:11:50Z</time>
      </trkpt>
      <trkpt lat="47.8" lon="-2.43301">
        <ele>88</ele>
        <time>2025-02-11T08:11:51Z</time>
      </trkpt>
      <trkpt lat="47.8" lon="-2.43301">
        <ele>88</ele>
        <time>2025-02-11T08:11:52Z</time>
      </trkpt>
      <trkpt lat="47.8" lon="-2.43301">
        <ele>88</ele>
        <time>2025-02-11T08:11:53Z</time>
      </trkpt>
      <trkpt lat="47.8" lon="-2.43301">
        <ele>88</ele>
        <time>2025-02-11T08:11:54Z</time>
      </trkpt>
      <trkpt lat="47.8" lon="-2.43301">
        <ele>88</ele>
        <time>2025-02-11T08:11:55Z</time>
      </trkpt>
      <trkpt lat="47.8" lon="-2.43301">
        <ele>88</ele>
        <time>2025-02-11T08:11:56Z</time>
      </trkpt>
      <trkpt lat="47.8" lon="-2.43301">
        <ele>88</ele>
        <time>2025-02-11T08:11:57Z</time>
      </trkpt>
      <trkpt lat="47.8" lon="-2.43301">
        <ele>88</ele>
        <time>2025-02-11T08:11:58Z</time>
      </trkpt>
      <trkpt lat="47.8" lon="-2.43301">
        <ele>88</ele>
        <time>2025-02-11T08:11:59Z</time>
      </trkpt>
      <trkpt lat="47.8" lon="-2.43301">
        <ele>88</ele>
        <time>2025-02-11T08:12:00Z</time>
      </trkpt>
      <trkpt lat="47.8" lon="-2.43301">
        <ele>88</ele>
        <time>2025-02-11T08:12:01Z</time>
      </trkpt>
      <trkpt lat="47.80002" lon="-2.43302">
        <ele>87.9</ele>
        <time>2025-02-11T08:12:02Z</time>
      </trkpt>
      <trkpt lat="47.80003" lon="-2.43301">
        <ele>87.9</ele>
        <time>2025-02-11T08:12:03Z</time>
      </trkpt>
      <trkpt lat="47.80004" lon="-2.43301">
        <ele>87.9</ele>
        <time>2025-02-11T08:12:04Z</time>
      </trkpt>
      <trkpt lat="47.80004" lon="-2.43301">
        <ele>87.8</ele>
        <time>2025-02-11T08:12:05Z</time>
      </trkpt>
      <trkpt lat="47.80005" lon="-2.43302">
        <ele>87.8</ele>
        <time>2025-02-11T08:12:06Z</time>
      </trkpt>
      <trkpt lat="47.80006" lon="-2.43302">
        <ele>87.8</ele>
        <time>2025-02-11T08:12:07Z</time>
      </trkpt>
      <trkpt lat="47.80007" lon="-2.43301">
        <ele>87.8</ele>
        <time>2025-02-11T08:12:08Z</time>
      </trkpt>
      <trkpt lat="47.80008" lon="-2.433">
        <ele>87.7</ele>
        <time>2025-02-11T08:12:09Z</time>
      </trkpt>
      <trkpt lat="47.80009" lon="-2.43299">
        <ele>87.7</ele>
        <time>2025-02-11T08:12:10Z</time>
      </trkpt>
      <trkpt lat="47.8001" lon="-2.43298">
        <ele>87.6</ele>
        <time>2025-02-11T08:12:11Z</time>
      </trkpt>
      <trkpt lat="47.80012" lon="-2.43298">
        <ele>87.6</ele>
        <time>2025-02-11T08:12:12Z</time>
      </trkpt>
      <trkpt lat="47.80013" lon="-2.43297">
        <ele>87.5</ele>
        <time>2025-02-11T08:12:13Z</time>
      </trkpt>
      <trkpt lat="47.80014" lon="-2.43296">
        <ele>87.5</ele>
        <time>2025-02-11T08:12:14Z</time>
      </trkpt>
      <trkpt lat="47.80015" lon="-2.43295">
        <ele>87.4</ele>
        <time>2025-02-11T08:12:15Z</time>
      </trkpt>
      <trkpt lat="47.80017" lon="-2.43294">
        <ele>87.4</ele>
        <time>2025-02-11T08:12:16Z</time>
      </trkpt>
      <trkpt lat="47.80018" lon="-2.43293">
        <ele>87.3</ele>
        <time>2025-02-11T08:12:17Z</time>
      </trkpt>
      <trkpt lat="47.8002" lon="-2.43292">
        <ele>87.3</ele>
        <time>2025-02-11T08:12:18Z</time>
      </trkpt>
      <trkpt lat="47.80021" lon="-2.43292">
        <ele>87.2</ele>
        <time>2025-02-11T08:12:19Z</time>
      </trkpt>
      <trkpt lat="47.80022" lon="-2.43291">
        <ele>87.2</ele>
        <time>2025-02-11T08:12:20Z</time>
      </trkpt>
      <trkpt lat="47.80023" lon="-2.4329">
        <ele>87.2</ele>
        <time>2025-02-11T08:12:21Z</time>
      </trkpt>
      <trkpt lat="47.80024" lon="-2.4329">
        <ele>87.1</ele>
        <time>2025-02-11T08:12:22Z</time>
      </trkpt>
      <trkpt lat="47.80022" lon="-2.4329">
        <ele>87.2</ele>
        <time>2025-02-11T08:12:23Z</time>
      </trkpt>
      <trkpt lat="47.80021" lon="-2.4329">
        <ele>87.2</ele>
        <time>2025-02-11T08:12:24Z</time>
      </trkpt>
      <trkpt lat="47.80021" lon="-2.4329">
        <ele>87.3</ele>
        <time>2025-02-11T08:12:25Z</time>
      </trkpt>
      <trkpt lat="47.80021" lon="-2.4329">
        <ele>87.3</ele>
        <time>2025-02-11T08:12:26Z</time>
      </trkpt>
      <trkpt lat="47.80021" lon="-2.4329">
        <ele>87.3</ele>
        <time>2025-02-11T08:12:27Z</time>
      </trkpt>
      <trkpt lat="47.80021" lon="-2.4329">
        <ele>87.3</ele>
        <time>2025-02-11T08:12:28Z</time>
      </trkpt>
      <trkpt lat="47.80021" lon="-2.4329">
        <ele>87.3</ele>
        <time>2025-02-11T08:12:29Z</time>
      </trkpt>
      <trkpt lat="47.80021" lon="-2.4329">
        <ele>87.3</ele>
        <time>2025-02-11T08:12:30Z</time>
      </trkpt>
      <trkpt lat="47.80021" lon="-2.4329">
        <ele>87.3</ele>
        <time>2025-02-11T08:12:31Z</time>
      </trkpt>
      <trkpt lat="47.80021" lon="-2.43289">
        <ele>87.2</ele>
        <time>2025-02-11T08:12:32Z</time>
      </trkpt>
      <trkpt lat="47.80022" lon="-2.43289">
        <ele>87.2</ele>
        <time>2025-02-11T08:12:33Z</time>
      </trkpt>
      <trkpt lat="47.80022" lon="-2.43289">
        <ele>87.2</ele>
        <time>2025-02-11T08:12:34Z</time>
      </trkpt>
      <trkpt lat="47.80023" lon="-2.43289">
        <ele>87.2</ele>
        <time>2025-02-11T08:12:35Z</time>
      </trkpt>
      <trkpt lat="47.80023" lon="-2.43289">
        <ele>87.2</ele>
        <time>2025-02-11T08:12:36Z</time>
      </trkpt>
      <trkpt lat="47.80023" lon="-2.43289">
        <ele>87.2</ele>
        <time>2025-02-11T08:12:37Z</time>
      </trkpt>
      <trkpt lat="47.80023" lon="-2.43288">
        <ele>87.2</ele>
        <time>2025-02-11T08:12:38Z</time>
      </trkpt>
      <trkpt lat="47.80023" lon="-2.43288">
        <ele>87.2</ele>
        <time>2025-02-11T08:12:39Z</time>
      </trkpt>
      <trkpt lat="47.80023" lon="-2.43288">
        <ele>87.2</ele>
        <time>2025-02-11T08:12:40Z</time>
      </trkpt>
      <trkpt lat="47.80023" lon="-2.43288">
        <ele>87.2</ele>
        <time>2025-02-11T08:12:41Z</time>
      </trkpt>
      <trkpt lat="47.80023" lon="-2.43288">
        <ele>87.2</ele>
        <time>2025-02-11T08:12:42Z</time>
      </trkpt>
      <trkpt lat="47.80023" lon="-2.43288">
        <ele>87.2</ele>
        <time>2025-02-11T08:12:43Z</time>
      </trkpt>
      <trkpt lat="47.80023" lon="-2.43288">
        <ele>87.2</ele>
        <time>2025-02-11T08:12:44Z</time>
      </trkpt>
      <trkpt lat="47.80023" lon="-2.43288">
        <ele>87.2</ele>
        <time>2025-02-11T08:12:45Z</time>
      </trkpt>
      <trkpt lat="47.80023" lon="-2.43288">
        <ele>87.2</ele>
        <time>2025-02-11T08:12:46Z</time>
      </trkpt>
      <trkpt lat="47.80023" lon="-2.43288">
        <ele>87.2</ele>
        <time>2025-02-11T08:12:47Z</time>
      </trkpt>
      <trkpt lat="47.80023" lon="-2.43288">
        <ele>87.2</ele>
        <time>2025-02-11T08:12:48Z</time>
      </trkpt>
      <trkpt lat="47.80023" lon="-2.43288">
        <ele>87.2</ele>
        <time>2025-02-11T08:12:49Z</time>
      </trkpt>
      <trkpt lat="47.80023" lon="-2.43288">
        <ele>87.2</ele>
        <time>2025-02-11T08:12:50Z</time>
      </trkpt>
      <trkpt lat="47.80023" lon="-2.43288">
        <ele>87.2</ele>
        <time>2025-02-11T08:12:51Z</time>
      </trkpt>
      <trkpt lat="47.80023" lon="-2.43288">
        <ele>87.2</ele>
        <time>2025-02-11T08:12:52Z</time>
      </trkpt>
      <trkpt lat="47.80023" lon="-2.43288">
        <ele>87.2</ele>
        <time>2025-02-11T08:12:53Z</time>
      </trkpt>
      <trkpt lat="47.80023" lon="-2.43288">
        <ele>87.2</ele>
        <time>2025-02-11T08:12:54Z</time>
      </trkpt>
      <trkpt lat="47.80023" lon="-2.43288">
        <ele>87.2</ele>
        <time>2025-02-11T08:12:55Z</time>
      </trkpt>
      <trkpt lat="47.80023" lon="-2.43288">
        <ele>87.2</ele>
        <time>2025-02-11T08:12:56Z</time>
      </trkpt>
      <trkpt lat="47.80023" lon="-2.43288">
        <ele>87.2</ele>
        <time>2025-02-11T08:12:57Z</time>
      </trkpt>
      <trkpt lat="47.80023" lon="-2.43288">
        <ele>87.2</ele>
        <time>2025-02-11T08:12:58Z</time>
      </trkpt>
      <trkpt lat="47.80024" lon="-2.43289">
        <ele>87.2</ele>
        <time>2025-02-11T08:12:59Z</time>
      </trkpt>
      <trkpt lat="47.80023" lon="-2.4329">
        <ele>87.2</ele>
        <time>2025-02-11T08:13:00Z</time>
      </trkpt>
      <trkpt lat="47.80023" lon="-2.43291">
        <ele>87.2</ele>
        <time>2025-02-11T08:13:01Z</time>
      </trkpt>
      <trkpt lat="47.80024" lon="-2.43291">
        <ele>87.2</ele>
        <time>2025-02-11T08:13:02Z</time>
      </trkpt>
      <trkpt lat="47.80024" lon="-2.43291">
        <ele>87.2</ele>
        <time>2025-02-11T08:13:03Z</time>
      </trkpt>
      <trkpt lat="47.80024" lon="-2.43291">
        <ele>87.2</ele>
        <time>2025-02-11T08:13:04Z</time>
      </trkpt>
      <trkpt lat="47.80023" lon="-2.43291">
        <ele>87.2</ele>
        <time>2025-02-11T08:13:05Z</time>
      </trkpt>
      <trkpt lat="47.80023" lon="-2.43292">
        <ele>87.2</ele>
        <time>2025-02-11T08:13:06Z</time>
      </trkpt>
      <trkpt lat="47.80024" lon="-2.43292">
        <ele>87.1</ele>
        <time>2025-02-11T08:13:07Z</time>
      </trkpt>
      <trkpt lat="47.80023" lon="-2.43291">
        <ele>87.2</ele>
        <time>2025-02-11T08:13:08Z</time>
      </trkpt>
      <trkpt lat="47.80022" lon="-2.4329">
        <ele>87.2</ele>
        <time>2025-02-11T08:13:09Z</time>
      </trkpt>
      <trkpt lat="47.80021" lon="-2.43289">
        <ele>87.2</ele>
        <time>2025-02-11T08:13:10Z</time>
      </trkpt>
      <trkpt lat="47.80021" lon="-2.43289">
        <ele>87.3</ele>
        <time>2025-02-11T08:13:11Z</time>
      </trkpt>
      <trkpt lat="47.8002" lon="-2.43288">
        <ele>87.3</ele>
        <time>2025-02-11T08:13:12Z</time>
      </trkpt>
      <trkpt lat="47.80019" lon="-2.43288">
        <ele>87.3</ele>
        <time>2025-02-11T08:13:13Z</time>
      </trkpt>
      <trkpt lat="47.80018" lon="-2.43288">
        <ele>87.3</ele>
        <time>2025-02-11T08:13:14Z</time>
      </trkpt>
      <trkpt lat="47.80018" lon="-2.43288">
        <ele>87.4</ele>
        <time>2025-02-11T08:13:15Z</time>
      </trkpt>
      <trkpt lat="47.80018" lon="-2.43288">
        <ele>87.4</ele>
        <time>2025-02-11T08:13:16Z</time>
      </trkpt>
      <trkpt lat="47.80018" lon="-2.43288">
        <ele>87.4</ele>
        <time>2025-02-11T08:13:17Z</time>
      </trkpt>
      <trkpt lat="47.80018" lon="-2.43288">
        <ele>87.4</ele>
        <time>2025-02-11T08:13:18Z</time>
      </trkpt>
      <trkpt lat="47.80018" lon="-2.43288">
        <ele>87.4</ele>
        <time>2025-02-11T08:13:19Z</time>
      </trkpt>
      <trkpt lat="47.80018" lon="-2.43288">
        <ele>87.4</ele>
        <time>2025-02-11T08:13:20Z</time>
      </trkpt>
      <trkpt lat="47.80018" lon="-2.43288">
        <ele>87.4</ele>
        <time>2025-02-11T08:13:21Z</time>
      </trkpt>
      <trkpt lat="47.80018" lon="-2.43288">
        <ele>87.4</ele>
        <time>2025-02-11T08:13:22Z</time>
      </trkpt>
      <trkpt lat="47.80018" lon="-2.43288">
        <ele>87.4</ele>
        <time>2025-02-11T08:13:23Z</time>
      </trkpt>
      <trkpt lat="47.80018" lon="-2.43288">
        <ele>87.4</ele>
        <time>2025-02-11T08:13:24Z</time>
      </trkpt>
      <trkpt lat="47.80018" lon="-2.43288">
        <ele>87.4</ele>
        <time>2025-02-11T08:13:25Z</time>
      </trkpt>
      <trkpt lat="47.80018" lon="-2.43288">
        <ele>87.4</ele>
        <time>2025-02-11T08:13:26Z</time>
      </trkpt>
      <trkpt lat="47.80018" lon="-2.43288">
        <ele>87.4</ele>
        <time>2025-02-11T08:13:27Z</time>
      </trkpt>
      <trkpt lat="47.80018" lon="-2.43288">
        <ele>87.4</ele>
        <time>2025-02-11T08:13:28Z</time>
      </trkpt>
      <trkpt lat="47.80018" lon="-2.43288">
        <ele>87.4</ele>
        <time>2025-02-11T08:13:29Z</time>
      </trkpt>
      <trkpt lat="47.80018" lon="-2.43288">
        <ele>87.4</ele>
        <time>2025-02-11T08:13:30Z</time>
      </trkpt>
      <trkpt lat="47.80018" lon="-2.43288">
        <ele>87.4</ele>
        <time>2025-02-11T08:13:31Z</time>
      </trkpt>
      <trkpt lat="47.80018" lon="-2.43288">
        <ele>87.4</ele>
        <time>2025-02-11T08:13:32Z</time>
      </trkpt>
      <trkpt lat="47.80018" lon="-2.43288">
        <ele>87.4</ele>
        <time>2025-02-11T08:13:33Z</time>
      </trkpt>
      <trkpt lat="47.80018" lon="-2.43288">
        <ele>87.4</ele>
        <time>2025-02-11T08:13:34Z</time>
      </trkpt>
      <trkpt lat="47.80018" lon="-2.43288">
        <ele>87.4</ele>
        <time>2025-02-11T08:13:35Z</time>
      </trkpt>
      <trkpt lat="47.80018" lon="-2.43288">
        <ele>87.4</ele>
        <time>2025-02-11T08:13:36Z</time>
      </trkpt>
      <trkpt lat="47.80018" lon="-2.43288">
        <ele>87.4</ele>
        <time>2025-02-11T08:13:37Z</time>
      </trkpt>
      <trkpt lat="47.80018" lon="-2.43288">
        <ele>87.4</ele>
        <time>2025-02-11T08:13:38Z</time>
      </trkpt>
      <trkpt lat="47.80018" lon="-2.43288">
        <ele>87.4</ele>
        <time>2025-02-11T08:13:39Z</time>
      </trkpt>
      <trkpt lat="47.80018" lon="-2.43288">
        <ele>87.4</ele>
        <time>2025-02-11T08:13:40Z</time>
      </trkpt>
      <trkpt lat="47.80018" lon="-2.43288">
        <ele>87.4</ele>
        <time>2025-02-11T08:13:41Z</time>
      </trkpt>
      <trkpt lat="47.80018" lon="-2.43288">
        <ele>87.4</ele>
        <time>2025-02-11T08:13:42Z</time>
      </trkpt>
      <trkpt lat="47.80018" lon="-2.43288">
        <ele>87.4</ele>
        <time>2025-02-11T08:13:43Z</time>
      </trkpt>
      <trkpt lat="47.80018" lon="-2.43288">
        <ele>87.4</ele>
        <time>2025-02-11T08:13:44Z</time>
      </trkpt>
      <trkpt lat="47.80017" lon="-2.43287">
        <ele>87.4</ele>
        <time>2025-02-11T08:13:45Z</time>
      </trkpt>
      <trkpt lat="47.80017" lon="-2.43287">
        <ele>87.4</ele>
        <time>2025-02-11T08:13:46Z</time>
      </trkpt>
      <trkpt lat="47.80017" lon="-2.43287">
        <ele>87.4</ele>
        <time>2025-02-11T08:13:47Z</time>
      </trkpt>
      <trkpt lat="47.80017" lon="-2.43288">
        <ele>87.4</ele>
        <time>2025-02-11T08:13:48Z</time>
      </trkpt>
      <trkpt lat="47.80017" lon="-2.43288">
        <ele>87.4</ele>
        <time>2025-02-11T08:13:49Z</time>
      </trkpt>
      <trkpt lat="47.80017" lon="-2.43288">
        <ele>87.4</ele>
        <time>2025-02-11T08:13:50Z</time>
      </trkpt>
      <trkpt lat="47.80017" lon="-2.43288">
        <ele>87.4</ele>
        <time>2025-02-11T08:13:51Z</time>
      </trkpt>
      <trkpt lat="47.80017" lon="-2.43288">
        <ele>87.4</ele>
        <time>2025-02-11T08:13:52Z</time>
      </trkpt>
      <trkpt lat="47.80017" lon="-2.43289">
        <ele>87.4</ele>
        <time>2025-02-11T08:13:53Z</time>
      </trkpt>
      <trkpt lat="47.80017" lon="-2.4329">
        <ele>87.4</ele>
        <time>2025-02-11T08:13:54Z</time>
      </trkpt>
      <trkpt lat="47.80017" lon="-2.4329">
        <ele>87.4</ele>
        <time>2025-02-11T08:13:55Z</time>
      </trkpt>
      <trkpt lat="47.80017" lon="-2.4329">
        <ele>87.4</ele>
        <time>2025-02-11T08:13:56Z</time>
      </trkpt>
      <trkpt lat="47.80017" lon="-2.4329">
        <ele>87.4</ele>
        <time>2025-02-11T08:13:57Z</time>
      </trkpt>
      <trkpt lat="47.80017" lon="-2.4329">
        <ele>87.4</ele>
        <time>2025-02-11T08:13:58Z</time>
      </trkpt>
      <trkpt lat="47.80017" lon="-2.4329">
        <ele>87.4</ele>
        <time>2025-02-11T08:13:59Z</time>
      </trkpt>
      <trkpt lat="47.80017" lon="-2.4329">
        <ele>87.4</ele>
        <time>2025-02-11T08:14:00Z</time>
      </trkpt>
      <trkpt lat="47.80017" lon="-2.4329">
        <ele>87.4</ele>
        <time>2025-02-11T08:14:01Z</time>
      </trkpt>
      <trkpt lat="47.80018" lon="-2.43291">
        <ele>87.4</ele>
        <time>2025-02-11T08:14:02Z</time>
      </trkpt>
      <trkpt lat="47.80018" lon="-2.43292">
        <ele>87.3</ele>
        <time>2025-02-11T08:14:03Z</time>
      </trkpt>
      <trkpt lat="47.80019" lon="-2.43292">
        <ele>87.3</ele>
        <time>2025-02-11T08:14:04Z</time>
      </trkpt>
      <trkpt lat="47.8002" lon="-2.43293">
        <ele>87.3</ele>
        <time>2025-02-11T08:14:05Z</time>
      </trkpt>
      <trkpt lat="47.80021" lon="-2.43293">
        <ele>87.2</ele>
        <time>2025-02-11T08:14:06Z</time>
      </trkpt>
      <trkpt lat="47.80022" lon="-2.43293">
        <ele>87.2</ele>
        <time>2025-02-11T08:14:07Z</time>
      </trkpt>
      <trkpt lat="47.80022" lon="-2.43293">
        <ele>87.2</ele>
        <time>2025-02-11T08:14:08Z</time>
      </trkpt>
      <trkpt lat="47.80022" lon="-2.43293">
        <ele>87.2</ele>
        <time>2025-02-11T08:14:09Z</time>
      </trkpt>
      <trkpt lat="47.80022" lon="-2.43293">
        <ele>87.2</ele>
        <time>2025-02-11T08:14:10Z</time>
      </trkpt>
      <trkpt lat="47.80023" lon="-2.43294">
        <ele>87.2</ele>
        <time>2025-02-11T08:14:11Z</time>
      </trkpt>
      <trkpt lat="47.80023" lon="-2.43294">
        <ele>87.2</ele>
        <time>2025-02-11T08:14:12Z</time>
      </trkpt>
      <trkpt lat="47.80025" lon="-2.43294">
        <ele>87.1</ele>
        <time>2025-02-11T08:14:13Z</time>
      </trkpt>
      <trkpt lat="47.80026" lon="-2.43296">
        <ele>87.1</ele>
        <time>2025-02-11T08:14:14Z</time>
      </trkpt>
      <trkpt lat="47.80026" lon="-2.43297">
        <ele>87.1</ele>
        <time>2025-02-11T08:14:15Z</time>
      </trkpt>
      <trkpt lat="47.80027" lon="-2.43299">
        <ele>87</ele>
        <time>2025-02-11T08:14:16Z</time>
      </trkpt>
      <trkpt lat="47.80027" lon="-2.433">
        <ele>87</ele>
        <time>2025-02-11T08:14:17Z</time>
      </trkpt>
      <trkpt lat="47.80028" lon="-2.43301">
        <ele>87</ele>
        <time>2025-02-11T08:14:18Z</time>
      </trkpt>
      <trkpt lat="47.80028" lon="-2.43302">
        <ele>87</ele>
        <time>2025-02-11T08:14:19Z</time>
      </trkpt>
      <trkpt lat="47.80028" lon="-2.43303">
        <ele>87</ele>
        <time>2025-02-11T08:14:20Z</time>
      </trkpt>
      <trkpt lat="47.80029" lon="-2.43305">
        <ele>86.9</ele>
        <time>2025-02-11T08:14:21Z</time>
      </trkpt>
      <trkpt lat="47.80029" lon="-2.43306">
        <ele>86.9</ele>
        <time>2025-02-11T08:14:22Z</time>
      </trkpt>
      <trkpt lat="47.8003" lon="-2.43308">
        <ele>86.9</ele>
        <time>2025-02-11T08:14:23Z</time>
      </trkpt>
      <trkpt lat="47.80031" lon="-2.4331">
        <ele>86.9</ele>
        <time>2025-02-11T08:14:24Z</time>
      </trkpt>
      <trkpt lat="47.80031" lon="-2.43311">
        <ele>87</ele>
        <time>2025-02-11T08:14:25Z</time>
      </trkpt>
      <trkpt lat="47.80032" lon="-2.43313">
        <ele>86.9</ele>
        <time>2025-02-11T08:14:26Z</time>
      </trkpt>
      <trkpt lat="47.80033" lon="-2.43314">
        <ele>86.9</ele>
        <time>2025-02-11T08:14:27Z</time>
      </trkpt>
      <trkpt lat="47.80033" lon="-2.43315">
        <ele>86.9</ele>
        <time>2025-02-11T08:14:28Z</time>
      </trkpt>
      <trkpt lat="47.80034" lon="-2.43316">
        <ele>86.9</ele>
        <time>2025-02-11T08:14:29Z</time>
      </trkpt>
      <trkpt lat="47.80035" lon="-2.43317">
        <ele>86.8</ele>
        <time>2025-02-11T08:14:30Z</time>
      </trkpt>
      <trkpt lat="47.80035" lon="-2.43317">
        <ele>86.8</ele>
        <time>2025-02-11T08:14:31Z</time>
      </trkpt>
      <trkpt lat="47.80036" lon="-2.43318">
        <ele>86.7</ele>
        <time>2025-02-11T08:14:32Z</time>
      </trkpt>
      <trkpt lat="47.80037" lon="-2.43318">
        <ele>86.7</ele>
        <time>2025-02-11T08:14:33Z</time>
      </trkpt>
      <trkpt lat="47.80038" lon="-2.43319">
        <ele>86.6</ele>
        <time>2025-02-11T08:14:34Z</time>
      </trkpt>
      <trkpt lat="47.80039" lon="-2.43319">
        <ele>86.5</ele>
        <time>2025-02-11T08:14:35Z</time>
      </trkpt>
      <trkpt lat="47.8004" lon="-2.43319">
        <ele>86.4</ele>
        <time>2025-02-11T08:14:36Z</time>
      </trkpt>
      <trkpt lat="47.80041" lon="-2.43319">
        <ele>86.3</ele>
        <time>2025-02-11T08:14:37Z</time>
      </trkpt>
      <trkpt lat="47.80042" lon="-2.43319">
        <ele>86.2</ele>
        <time>2025-02-11T08:14:38Z</time>
      </trkpt>
      <trkpt lat="47.80043" lon="-2.43319">
        <ele>86.1</ele>
        <time>2025-02-11T08:14:39Z</time>
      </trkpt>
      <trkpt lat="47.80044" lon="-2.43319">
        <ele>86</ele>
        <time>2025-02-11T08:14:40Z</time>
      </trkpt>
      <trkpt lat="47.80045" lon="-2.43319">
        <ele>85.9</ele>
        <time>2025-02-11T08:14:41Z</time>
      </trkpt>
      <trkpt lat="47.80046" lon="-2.43319">
        <ele>85.8</ele>
        <time>2025-02-11T08:14:42Z</time>
      </trkpt>
      <trkpt lat="47.80048" lon="-2.43319">
        <ele>85.7</ele>
        <time>2025-02-11T08:14:43Z</time>
      </trkpt>
      <trkpt lat="47.80049" lon="-2.43318">
        <ele>85.6</ele>
        <time>2025-02-11T08:14:44Z</time>
      </trkpt>
      <trkpt lat="47.8005" lon="-2.43318">
        <ele>85.5</ele>
        <time>2025-02-11T08:14:45Z</time>
      </trkpt>
      <trkpt lat="47.80051" lon="-2.43317">
        <ele>85.4</ele>
        <time>2025-02-11T08:14:46Z</time>
      </trkpt>
      <trkpt lat="47.80052" lon="-2.43317">
        <ele>85.3</ele>
        <time>2025-02-11T08:14:47Z</time>
      </trkpt>
      <trkpt lat="47.80054" lon="-2.43317">
        <ele>85.2</ele>
        <time>2025-02-11T08:14:48Z</time>
      </trkpt>
      <trkpt lat="47.80055" lon="-2.43318">
        <ele>85.1</ele>
        <time>2025-02-11T08:14:49Z</time>
      </trkpt>
      <trkpt lat="47.80057" lon="-2.43318">
        <ele>84.9</ele>
        <time>2025-02-11T08:14:50Z</time>
      </trkpt>
      <trkpt lat="47.80058" lon="-2.43318">
        <ele>84.8</ele>
        <time>2025-02-11T08:14:51Z</time>
      </trkpt>
      <trkpt lat="47.80059" lon="-2.43317">
        <ele>84.8</ele>
        <time>2025-02-11T08:14:52Z</time>
      </trkpt>
      <trkpt lat="47.8006" lon="-2.43318">
        <ele>84.7</ele>
        <time>2025-02-11T08:14:53Z</time>
      </trkpt>
      <trkpt lat="47.80061" lon="-2.43318">
        <ele>84.6</ele>
        <time>2025-02-11T08:14:54Z</time>
      </trkpt>
      <trkpt lat="47.80062" lon="-2.43319">
        <ele>84.5</ele>
        <time>2025-02-11T08:14:55Z</time>
      </trkpt>
      <trkpt lat="47.80063" lon="-2.43319">
        <ele>84.5</ele>
        <time>2025-02-11T08:14:56Z</time>
      </trkpt>
      <trkpt lat="47.80064" lon="-2.43318">
        <ele>84.4</ele>
        <time>2025-02-11T08:14:57Z</time>
      </trkpt>
      <trkpt lat="47.80066" lon="-2.43319">
        <ele>84.3</ele>
        <time>2025-02-11T08:14:58Z</time>
      </trkpt>
      <trkpt lat="47.80067" lon="-2.43318">
        <ele>84.2</ele>
        <time>2025-02-11T08:14:59Z</time>
      </trkpt>
      <trkpt lat="47.80068" lon="-2.43317">
        <ele>84.1</ele>
        <time>2025-02-11T08:15:00Z</time>
      </trkpt>
      <trkpt lat="47.80069" lon="-2.43317">
        <ele>84</ele>
        <time>2025-02-11T08:15:01Z</time>
      </trkpt>
      <trkpt lat="47.8007" lon="-2.43317">
        <ele>84</ele>
        <time>2025-02-11T08:15:02Z</time>
      </trkpt>
      <trkpt lat="47.80071" lon="-2.43317">
        <ele>83.9</ele>
        <time>2025-02-11T08:15:03Z</time>
      </trkpt>
      <trkpt lat="47.80072" lon="-2.43317">
        <ele>83.8</ele>
        <time>2025-02-11T08:15:04Z</time>
      </trkpt>
      <trkpt lat="47.80073" lon="-2.43317">
        <ele>83.7</ele>
        <time>2025-02-11T08:15:05Z</time>
      </trkpt>
      <trkpt lat="47.80074" lon="-2.43315">
        <ele>83.7</ele>
        <time>2025-02-11T08:15:06Z</time>
      </trkpt>
      <trkpt lat="47.80074" lon="-2.43313">
        <ele>83.6</ele>
        <time>2025-02-11T08:15:07Z</time>
      </trkpt>
      <trkpt lat="47.80076" lon="-2.43313">
        <ele>83.5</ele>
        <time>2025-02-11T08:15:08Z</time>
      </trkpt>
      <trkpt lat="47.80077" lon="-2.43312">
        <ele>83.5</ele>
        <time>2025-02-11T08:15:09Z</time>
      </trkpt>
      <trkpt lat="47.80077" lon="-2.43312">
        <ele>83.5</ele>
        <time>2025-02-11T08:15:10Z</time>
      </trkpt>
      <trkpt lat="47.80076" lon="-2.43311">
        <ele>83.5</ele>
        <time>2025-02-11T08:15:11Z</time>
      </trkpt>
      <trkpt lat="47.80076" lon="-2.43313">
        <ele>83.6</ele>
        <time>2025-02-11T08:15:12Z</time>
      </trkpt>
      <trkpt lat="47.80075" lon="-2.43315">
        <ele>83.6</ele>
        <time>2025-02-11T08:15:13Z</time>
      </trkpt>
      <trkpt lat="47.80074" lon="-2.43317">
        <ele>83.7</ele>
        <time>2025-02-11T08:15:14Z</time>
      </trkpt>
      <trkpt lat="47.80074" lon="-2.43319">
        <ele>83.7</ele>
        <time>2025-02-11T08:15:15Z</time>
      </trkpt>
      <trkpt lat="47.80074" lon="-2.43321">
        <ele>83.7</ele>
        <time>2025-02-11T08:15:16Z</time>
      </trkpt>
      <trkpt lat="47.80074" lon="-2.43322">
        <ele>83.7</ele>
        <time>2025-02-11T08:15:17Z</time>
      </trkpt>
      <trkpt lat="47.80074" lon="-2.43324">
        <ele>83.7</ele>
        <time>2025-02-11T08:15:18Z</time>
      </trkpt>
      <trkpt lat="47.80074" lon="-2.43325">
        <ele>83.7</ele>
        <time>2025-02-11T08:15:19Z</time>
      </trkpt>
      <trkpt lat="47.80074" lon="-2.43327">
        <ele>83.7</ele>
        <time>2025-02-11T08:15:20Z</time>
      </trkpt>
      <trkpt lat="47.80074" lon="-2.43329">
        <ele>83.7</ele>
        <time>2025-02-11T08:15:21Z</time>
      </trkpt>
      <trkpt lat="47.80073" lon="-2.43329">
        <ele>83.7</ele>
        <time>2025-02-11T08:15:22Z</time>
      </trkpt>
      <trkpt lat="47.80073" lon="-2.4333">
        <ele>83.8</ele>
        <time>2025-02-11T08:15:23Z</time>
      </trkpt>
      <trkpt lat="47.80073" lon="-2.43331">
        <ele>83.8</ele>
        <time>2025-02-11T08:15:24Z</time>
      </trkpt>
      <trkpt lat="47.80073" lon="-2.43332">
        <ele>83.8</ele>
        <time>2025-02-11T08:15:25Z</time>
      </trkpt>
      <trkpt lat="47.80073" lon="-2.43334">
        <ele>83.8</ele>
        <time>2025-02-11T08:15:26Z</time>
      </trkpt>
      <trkpt lat="47.80074" lon="-2.43336">
        <ele>83.8</ele>
        <time>2025-02-11T08:15:27Z</time>
      </trkpt>
      <trkpt lat="47.80074" lon="-2.43337">
        <ele>83.8</ele>
        <time>2025-02-11T08:15:28Z</time>
      </trkpt>
      <trkpt lat="47.80074" lon="-2.43339">
        <ele>83.9</ele>
        <time>2025-02-11T08:15:29Z</time>
      </trkpt>
      <trkpt lat="47.80074" lon="-2.43341">
        <ele>84</ele>
        <time>2025-02-11T08:15:30Z</time>
      </trkpt>
      <trkpt lat="47.80074" lon="-2.43342">
        <ele>84</ele>
        <time>2025-02-11T08:15:31Z</time>
      </trkpt>
      <trkpt lat="47.80074" lon="-2.43344">
        <ele>84.1</ele>
        <time>2025-02-11T08:15:32Z</time>
      </trkpt>
      <trkpt lat="47.80074" lon="-2.43346">
        <ele>84.1</ele>
        <time>2025-02-11T08:15:33Z</time>
      </trkpt>
      <trkpt lat="47.80074" lon="-2.43347">
        <ele>84.2</ele>
        <time>2025-02-11T08:15:34Z</time>
      </trkpt>
      <trkpt lat="47.80073" lon="-2.43349">
        <ele>84.3</ele>
        <time>2025-02-11T08:15:35Z</time>
      </trkpt>
      <trkpt lat="47.80073" lon="-2.4335">
        <ele>84.3</ele>
        <time>2025-02-11T08:15:36Z</time>
      </trkpt>
      <trkpt lat="47.80074" lon="-2.43351">
        <ele>84.3</ele>
        <time>2025-02-11T08:15:37Z</time>
      </trkpt>
      <trkpt lat="47.80074" lon="-2.43353">
        <ele>84.4</ele>
        <time>2025-02-11T08:15:38Z</time>
      </trkpt>
      <trkpt lat="47.80074" lon="-2.43354">
        <ele>84.4</ele>
        <time>2025-02-11T08:15:39Z</time>
      </trkpt>
      <trkpt lat="47.80073" lon="-2.43356">
        <ele>84.5</ele>
        <time>2025-02-11T08:15:40Z</time>
      </trkpt>
      <trkpt lat="47.80073" lon="-2.43358">
        <ele>84.6</ele>
        <time>2025-02-11T08:15:41Z</time>
      </trkpt>
      <trkpt lat="47.80073" lon="-2.43359">
        <ele>84.7</ele>
        <time>2025-02-11T08:15:42Z</time>
      </trkpt>
      <trkpt lat="47.80074" lon="-2.43361">
        <ele>84.7</ele>
        <time>2025-02-11T08:15:43Z</time>
      </trkpt>
      <trkpt lat="47.80074" lon="-2.43362">
        <ele>84.7</ele>
        <time>2025-02-11T08:15:44Z</time>
      </trkpt>
      <trkpt lat="47.80074" lon="-2.43364">
        <ele>84.7</ele>
        <time>2025-02-11T08:15:45Z</time>
      </trkpt>
      <trkpt lat="47.80074" lon="-2.43365">
        <ele>84.7</ele>
        <time>2025-02-11T08:15:46Z</time>
      </trkpt>
      <trkpt lat="47.80074" lon="-2.43367">
        <ele>84.7</ele>
        <time>2025-02-11T08:15:47Z</time>
      </trkpt>
      <trkpt lat="47.80074" lon="-2.43369">
        <ele>84.7</ele>
        <time>2025-02-11T08:15:48Z</time>
      </trkpt>
      <trkpt lat="47.80073" lon="-2.4337">
        <ele>84.7</ele>
        <time>2025-02-11T08:15:49Z</time>
      </trkpt>
      <trkpt lat="47.80073" lon="-2.43371">
        <ele>84.7</ele>
        <time>2025-02-11T08:15:50Z</time>
      </trkpt>
      <trkpt lat="47.80073" lon="-2.43374">
        <ele>84.7</ele>
        <time>2025-02-11T08:15:51Z</time>
      </trkpt>
      <trkpt lat="47.80074" lon="-2.43376">
        <ele>84.7</ele>
        <time>2025-02-11T08:15:52Z</time>
      </trkpt>
      <trkpt lat="47.80075" lon="-2.43378">
        <ele>84.6</ele>
        <time>2025-02-11T08:15:53Z</time>
      </trkpt>
      <trkpt lat="47.80076" lon="-2.4338">
        <ele>84.5</ele>
        <time>2025-02-11T08:15:54Z</time>
      </trkpt>
      <trkpt lat="47.80076" lon="-2.43381">
        <ele>84.5</ele>
        <time>2025-02-11T08:15:55Z</time>
      </trkpt>
      <trkpt lat="47.80076" lon="-2.43383">
        <ele>84.5</ele>
        <time>2025-02-11T08:15:56Z</time>
      </trkpt>
      <trkpt lat="47.80076" lon="-2.43384">
        <ele>84.5</ele>
        <time>2025-02-11T08:15:57Z</time>
      </trkpt>
      <trkpt lat="47.80076" lon="-2.43386">
        <ele>84.5</ele>
        <time>2025-02-11T08:15:58Z</time>
      </trkpt>
      <trkpt lat="47.80076" lon="-2.43387">
        <ele>84.5</ele>
        <time>2025-02-11T08:15:59Z</time>
      </trkpt>
      <trkpt lat="47.80076" lon="-2.43388">
        <ele>84.5</ele>
        <time>2025-02-11T08:16:00Z</time>
      </trkpt>
      <trkpt lat="47.80076" lon="-2.43389">
        <ele>84.6</ele>
        <time>2025-02-11T08:16:01Z</time>
      </trkpt>
      <trkpt lat="47.80076" lon="-2.43389">
        <ele>84.6</ele>
        <time>2025-02-11T08:16:02Z</time>
      </trkpt>
      <trkpt lat="47.80076" lon="-2.43387">
        <ele>84.5</ele>
        <time>2025-02-11T08:16:03Z</time>
      </trkpt>
      <trkpt lat="47.80076" lon="-2.43387">
        <ele>84.5</ele>
        <time>2025-02-11T08:16:04Z</time>
      </trkpt>
      <trkpt lat="47.80076" lon="-2.43387">
        <ele>84.5</ele>
        <time>2025-02-11T08:16:05Z</time>
      </trkpt>
      <trkpt lat="47.80076" lon="-2.43387">
        <ele>84.5</ele>
        <time>2025-02-11T08:16:06Z</time>
      </trkpt>
      <trkpt lat="47.80076" lon="-2.43387">
        <ele>84.5</ele>
        <time>2025-02-11T08:16:07Z</time>
      </trkpt>
      <trkpt lat="47.80076" lon="-2.43387">
        <ele>84.5</ele>
        <time>2025-02-11T08:16:08Z</time>
      </trkpt>
      <trkpt lat="47.80076" lon="-2.43387">
        <ele>84.5</ele>
        <time>2025-02-11T08:16:09Z</time>
      </trkpt>
      <trkpt lat="47.80076" lon="-2.43387">
        <ele>84.5</ele>
        <time>2025-02-11T08:16:10Z</time>
      </trkpt>
      <trkpt lat="47.80076" lon="-2.43387">
        <ele>84.5</ele>
        <time>2025-02-11T08:16:11Z</time>
      </trkpt>
      <trkpt lat="47.80076" lon="-2.43387">
        <ele>84.5</ele>
        <time>2025-02-11T08:16:12Z</time>
      </trkpt>
      <trkpt lat="47.80076" lon="-2.43387">
        <ele>84.5</ele>
        <time>2025-02-11T08:16:13Z</time>
      </trkpt>
      <trkpt lat="47.80076" lon="-2.43387">
        <ele>84.5</ele>
        <time>2025-02-11T08:16:14Z</time>
      </trkpt>
      <trkpt lat="47.80076" lon="-2.43387">
        <ele>84.5</ele>
        <time>2025-02-11T08:16:15Z</time>
      </trkpt>
      <trkpt lat="47.80076" lon="-2.43387">
        <ele>84.5</ele>
        <time>2025-02-11T08:16:16Z</time>
      </trkpt>
      <trkpt lat="47.80076" lon="-2.43387">
        <ele>84.5</ele>
        <time>2025-02-11T08:16:17Z</time>
      </trkpt>
      <trkpt lat="47.80076" lon="-2.43387">
        <ele>84.5</ele>
        <time>2025-02-11T08:16:18Z</time>
      </trkpt>
      <trkpt lat="47.80076" lon="-2.43387">
        <ele>84.5</ele>
        <time>2025-02-11T08:16:19Z</time>
      </trkpt>
      <trkpt lat="47.80076" lon="-2.43387">
        <ele>84.5</ele>
        <time>2025-02-11T08:16:20Z</time>
      </trkpt>
      <trkpt lat="47.80075" lon="-2.43388">
        <ele>84.6</ele>
        <time>2025-02-11T08:16:21Z</time>
      </trkpt>
      <trkpt lat="47.80075" lon="-2.43388">
        <ele>84.6</ele>
        <time>2025-02-11T08:16:22Z</time>
      </trkpt>
      <trkpt lat="47.80075" lon="-2.43388">
        <ele>84.6</ele>
        <time>2025-02-11T08:16:23Z</time>
      </trkpt>
      <trkpt lat="47.80075" lon="-2.43388">
        <ele>84.6</ele>
        <time>2025-02-11T08:16:24Z</time>
      </trkpt>
      <trkpt lat="47.80074" lon="-2.43389">
        <ele>84.7</ele>
        <time>2025-02-11T08:16:25Z</time>
      </trkpt>
      <trkpt lat="47.80074" lon="-2.4339">
        <ele>84.7</ele>
        <time>2025-02-11T08:16:26Z</time>
      </trkpt>
      <trkpt lat="47.80073" lon="-2.43391">
        <ele>84.8</ele>
        <time>2025-02-11T08:16:27Z</time>
      </trkpt>
      <trkpt lat="47.80073" lon="-2.43391">
        <ele>84.7</ele>
        <time>2025-02-11T08:16:28Z</time>
      </trkpt>
      <trkpt lat="47.80074" lon="-2.4339">
        <ele>84.7</ele>
        <time>2025-02-11T08:16:29Z</time>
      </trkpt>
      <trkpt lat="47.80075" lon="-2.43389">
        <ele>84.6</ele>
        <time>2025-02-11T08:16:30Z</time>
      </trkpt>
      <trkpt lat="47.80075" lon="-2.43387">
        <ele>84.6</ele>
        <time>2025-02-11T08:16:31Z</time>
      </trkpt>
      <trkpt lat="47.80075" lon="-2.43384">
        <ele>84.6</ele>
        <time>2025-02-11T08:16:32Z</time>
      </trkpt>
      <trkpt lat="47.80074" lon="-2.43383">
        <ele>84.7</ele>
        <time>2025-02-11T08:16:33Z</time>
      </trkpt>
      <trkpt lat="47.80074" lon="-2.43382">
        <ele>84.7</ele>
        <time>2025-02-11T08:16:34Z</time>
      </trkpt>
      <trkpt lat="47.80074" lon="-2.43381">
        <ele>84.7</ele>
        <time>2025-02-11T08:16:35Z</time>
      </trkpt>
      <trkpt lat="47.80074" lon="-2.43381">
        <ele>84.7</ele>
        <time>2025-02-11T08:16:36Z</time>
      </trkpt>
      <trkpt lat="47.80074" lon="-2.43381">
        <ele>84.7</ele>
        <time>2025-02-11T08:16:37Z</time>
      </trkpt>
      <trkpt lat="47.80074" lon="-2.43381">
        <ele>84.7</ele>
        <time>2025-02-11T08:16:38Z</time>
      </trkpt>
      <trkpt lat="47.80075" lon="-2.43381">
        <ele>84.6</ele>
        <time>2025-02-11T08:16:39Z</time>
      </trkpt>
      <trkpt lat="47.80076" lon="-2.43382">
        <ele>84.5</ele>
        <time>2025-02-11T08:16:40Z</time>
      </trkpt>
      <trkpt lat="47.80077" lon="-2.43383">
        <ele>84.4</ele>
        <time>2025-02-11T08:16:41Z</time>
      </trkpt>
      <trkpt lat="47.80078" lon="-2.43384">
        <ele>84.4</ele>
        <time>2025-02-11T08:16:42Z</time>
      </trkpt>
      <trkpt lat="47.80079" lon="-2.43384">
        <ele>84.3</ele>
        <time>2025-02-11T08:16:43Z</time>
      </trkpt>
      <trkpt lat="47.80078" lon="-2.43383">
        <ele>84.4</ele>
        <time>2025-02-11T08:16:44Z</time>
      </trkpt>
      <trkpt lat="47.80078" lon="-2.43383">
        <ele>84.4</ele>
        <time>2025-02-11T08:16:45Z</time>
      </trkpt>
      <trkpt lat="47.80079" lon="-2.43383">
        <ele>84.3</ele>
        <time>2025-02-11T08:16:46Z</time>
      </trkpt>
      <trkpt lat="47.80079" lon="-2.43383">
        <ele>84.3</ele>
        <time>2025-02-11T08:16:47Z</time>
      </trkpt>
      <trkpt lat="47.80079" lon="-2.43383">
        <ele>84.3</ele>
        <time>2025-02-11T08:16:48Z</time>
      </trkpt>
      <trkpt lat="47.80079" lon="-2.43383">
        <ele>84.3</ele>
        <time>2025-02-11T08:16:49Z</time>
      </trkpt>
      <trkpt lat="47.8008" lon="-2.43382">
        <ele>84.3</ele>
        <time>2025-02-11T08:16:50Z</time>
      </trkpt>
      <trkpt lat="47.8008" lon="-2.43381">
        <ele>84.3</ele>
        <time>2025-02-11T08:16:51Z</time>
      </trkpt>
      <trkpt lat="47.8008" lon="-2.43379">
        <ele>84.3</ele>
        <time>2025-02-11T08:16:52Z</time>
      </trkpt>
      <trkpt lat="47.8008" lon="-2.43378">
        <ele>84.3</ele>
        <time>2025-02-11T08:16:53Z</time>
      </trkpt>
      <trkpt lat="47.8008" lon="-2.43376">
        <ele>84.3</ele>
        <time>2025-02-11T08:16:54Z</time>
      </trkpt>
      <trkpt lat="47.8008" lon="-2.43375">
        <ele>84.3</ele>
        <time>2025-02-11T08:16:55Z</time>
      </trkpt>
      <trkpt lat="47.80079" lon="-2.43374">
        <ele>84.3</ele>
        <time>2025-02-11T08:16:56Z</time>
      </trkpt>
      <trkpt lat="47.80079" lon="-2.43372">
        <ele>84.3</ele>
        <time>2025-02-11T08:16:57Z</time>
      </trkpt>
      <trkpt lat="47.8008" lon="-2.43372">
        <ele>84.2</ele>
        <time>2025-02-11T08:16:58Z</time>
      </trkpt>
      <trkpt lat="47.80079" lon="-2.4337">
        <ele>84.3</ele>
        <time>2025-02-11T08:16:59Z</time>
      </trkpt>
      <trkpt lat="47.80079" lon="-2.43368">
        <ele>84.3</ele>
        <time>2025-02-11T08:17:00Z</time>
      </trkpt>
      <trkpt lat="47.80079" lon="-2.43367">
        <ele>84.3</ele>
        <time>2025-02-11T08:17:01Z</time>
      </trkpt>
      <trkpt lat="47.80078" lon="-2.43365">
        <ele>84.4</ele>
        <time>2025-02-11T08:17:02Z</time>
      </trkpt>
      <trkpt lat="47.80078" lon="-2.43363">
        <ele>84.4</ele>
        <time>2025-02-11T08:17:03Z</time>
      </trkpt>
      <trkpt lat="47.80078" lon="-2.43362">
        <ele>84.4</ele>
        <time>2025-02-11T08:17:04Z</time>
      </trkpt>
      <trkpt lat="47.80078" lon="-2.43361">
        <ele>84.4</ele>
        <time>2025-02-11T08:17:05Z</time>
      </trkpt>
      <trkpt lat="47.80077" lon="-2.43359">
        <ele>84.4</ele>
        <time>2025-02-11T08:17:06Z</time>
      </trkpt>
      <trkpt lat="47.80078" lon="-2.43357">
        <ele>84.3</ele>
        <time>2025-02-11T08:17:07Z</time>
      </trkpt>
      <trkpt lat="47.80078" lon="-2.43355">
        <ele>84.2</ele>
        <time>2025-02-11T08:17:08Z</time>
      </trkpt>
      <trkpt lat="47.80081" lon="-2.43355">
        <ele>84</ele>
        <time>2025-02-11T08:17:09Z</time>
      </trkpt>
      <trkpt lat="47.80082" lon="-2.43358">
        <ele>84</ele>
        <time>2025-02-11T08:17:10Z</time>
      </trkpt>
      <trkpt lat="47.80083" lon="-2.43359">
        <ele>84</ele>
        <time>2025-02-11T08:17:11Z</time>
      </trkpt>
      <trkpt lat="47.80083" lon="-2.43358">
        <ele>83.9</ele>
        <time>2025-02-11T08:17:12Z</time>
      </trkpt>
      <trkpt lat="47.80082" lon="-2.43356">
        <ele>83.9</ele>
        <time>2025-02-11T08:17:13Z</time>
      </trkpt>
      <trkpt lat="47.80082" lon="-2.43356">
        <ele>84</ele>
        <time>2025-02-11T08:17:14Z</time>
      </trkpt>
      <trkpt lat="47.80081" lon="-2.43355">
        <ele>83.9</ele>
        <time>2025-02-11T08:17:15Z</time>
      </trkpt>
      <trkpt lat="47.80081" lon="-2.43352">
        <ele>83.8</ele>
        <time>2025-02-11T08:17:16Z</time>
      </trkpt>
      <trkpt lat="47.80081" lon="-2.43349">
        <ele>83.8</ele>
        <time>2025-02-11T08:17:17Z</time>
      </trkpt>
      <trkpt lat="47.80079" lon="-2.43346">
        <ele>83.8</ele>
        <time>2025-02-11T08:17:18Z</time>
      </trkpt>
      <trkpt lat="47.80078" lon="-2.43344">
        <ele>83.8</ele>
        <time>2025-02-11T08:17:19Z</time>
      </trkpt>
      <trkpt lat="47.80077" lon="-2.43342">
        <ele>83.8</ele>
        <time>2025-02-11T08:17:20Z</time>
      </trkpt>
      <trkpt lat="47.80077" lon="-2.4334">
        <ele>83.7</ele>
        <time>2025-02-11T08:17:21Z</time>
      </trkpt>
      <trkpt lat="47.80077" lon="-2.43338">
        <ele>83.7</ele>
        <time>2025-02-11T08:17:22Z</time>
      </trkpt>
      <trkpt lat="47.80076" lon="-2.43336">
        <ele>83.6</ele>
        <time>2025-02-11T08:17:23Z</time>
      </trkpt>
      <trkpt lat="47.80075" lon="-2.43334">
        <ele>83.6</ele>
        <time>2025-02-11T08:17:24Z</time>
      </trkpt>
      <trkpt lat="47.80075" lon="-2.43333">
        <ele>83.6</ele>
        <time>2025-02-11T08:17:25Z</time>
      </trkpt>
      <trkpt lat="47.80075" lon="-2.43331">
        <ele>83.6</ele>
        <time>2025-02-11T08:17:26Z</time>
      </trkpt>
      <trkpt lat="47.80076" lon="-2.43329">
        <ele>83.5</ele>
        <time>2025-02-11T08:17:27Z</time>
      </trkpt>
      <trkpt lat="47.80076" lon="-2.43326">
        <ele>83.5</ele>
        <time>2025-02-11T08:17:28Z</time>
      </trkpt>
      <trkpt lat="47.80076" lon="-2.43323">
        <ele>83.5</ele>
        <time>2025-02-11T08:17:29Z</time>
      </trkpt>
      <trkpt lat="47.80076" lon="-2.4332">
        <ele>83.5</ele>
        <time>2025-02-11T08:17:30Z</time>
      </trkpt>
      <trkpt lat="47.80076" lon="-2.43318">
        <ele>83.6</ele>
        <time>2025-02-11T08:17:31Z</time>
      </trkpt>
      <trkpt lat="47.80075" lon="-2.43315">
        <ele>83.6</ele>
        <time>2025-02-11T08:17:32Z</time>
      </trkpt>
      <trkpt lat="47.80074" lon="-2.43313">
        <ele>83.7</ele>
        <time>2025-02-11T08:17:33Z</time>
      </trkpt>
      <trkpt lat="47.80074" lon="-2.43311">
        <ele>83.7</ele>
        <time>2025-02-11T08:17:34Z</time>
      </trkpt>
      <trkpt lat="47.80074" lon="-2.43309">
        <ele>83.7</ele>
        <time>2025-02-11T08:17:35Z</time>
      </trkpt>
      <trkpt lat="47.80073" lon="-2.43311">
        <ele>83.7</ele>
        <time>2025-02-11T08:17:36Z</time>
      </trkpt>
      <trkpt lat="47.80074" lon="-2.43314">
        <ele>83.7</ele>
        <time>2025-02-11T08:17:37Z</time>
      </trkpt>
      <trkpt lat="47.80074" lon="-2.43316">
        <ele>83.7</ele>
        <time>2025-02-11T08:17:38Z</time>
      </trkpt>
      <trkpt lat="47.80074" lon="-2.43316">
        <ele>83.7</ele>
        <time>2025-02-11T08:17:39Z</time>
      </trkpt>
      <trkpt lat="47.80074" lon="-2.43317">
        <ele>83.7</ele>
        <time>2025-02-11T08:17:40Z</time>
      </trkpt>
      <trkpt lat="47.80074" lon="-2.43316">
        <ele>83.7</ele>
        <time>2025-02-11T08:17:41Z</time>
      </trkpt>
      <trkpt lat="47.80075" lon="-2.43316">
        <ele>83.6</ele>
        <time>2025-02-11T08:17:42Z</time>
      </trkpt>
      <trkpt lat="47.80075" lon="-2.43315">
        <ele>83.6</ele>
        <time>2025-02-11T08:17:43Z</time>
      </trkpt>
      <trkpt lat="47.80076" lon="-2.43315">
        <ele>83.5</ele>
        <time>2025-02-11T08:17:44Z</time>
      </trkpt>
      <trkpt lat="47.80077" lon="-2.43314">
        <ele>83.5</ele>
        <time>2025-02-11T08:17:45Z</time>
      </trkpt>
      <trkpt lat="47.80077" lon="-2.43314">
        <ele>83.5</ele>
        <time>2025-02-11T08:17:46Z</time>
      </trkpt>
      <trkpt lat="47.80077" lon="-2.43314">
        <ele>83.5</ele>
        <time>2025-02-11T08:17:47Z</time>
      </trkpt>
      <trkpt lat="47.80077" lon="-2.43314">
        <ele>83.5</ele>
        <time>2025-02-11T08:17:48Z</time>
      </trkpt>
      <trkpt lat="47.80077" lon="-2.43314">
        <ele>83.5</ele>
        <time>2025-02-11T08:17:49Z</time>
      </trkpt>
      <trkpt lat="47.80077" lon="-2.43313">
        <ele>83.5</ele>
        <time>2025-02-11T08:17:50Z</time>
      </trkpt>
      <trkpt lat="47.80078" lon="-2.43313">
        <ele>83.4</ele>
        <time>2025-02-11T08:17:51Z</time>
      </trkpt>
      <trkpt lat="47.80079" lon="-2.43311">
        <ele>83.3</ele>
        <time>2025-02-11T08:17:52Z</time>
      </trkpt>
      <trkpt lat="47.8008" lon="-2.43309">
        <ele>83.2</ele>
        <time>2025-02-11T08:17:53Z</time>
      </trkpt>
      <trkpt lat="47.80081" lon="-2.43308">
        <ele>83.1</ele>
        <time>2025-02-11T08:17:54Z</time>
      </trkpt>
      <trkpt lat="47.80082" lon="-2.43307">
        <ele>83.1</ele>
        <time>2025-02-11T08:17:55Z</time>
      </trkpt>
      <trkpt lat="47.80084" lon="-2.43306">
        <ele>82.9</ele>
        <time>2025-02-11T08:17:56Z</time>
      </trkpt>
      <trkpt lat="47.80085" lon="-2.43307">
        <ele>82.8</ele>
        <time>2025-02-11T08:17:57Z</time>
      </trkpt>
      <trkpt lat="47.80087" lon="-2.43307">
        <ele>82.6</ele>
        <time>2025-02-11T08:17:58Z</time>
      </trkpt>
      <trkpt lat="47.80088" lon="-2.43308">
        <ele>82.5</ele>
        <time>2025-02-11T08:17:59Z</time>
      </trkpt>
      <trkpt lat="47.8009" lon="-2.43308">
        <ele>82.4</ele>
        <time>2025-02-11T08:18:00Z</time>
      </trkpt>
      <trkpt lat="47.80091" lon="-2.43309">
        <ele>82.2</ele>
        <time>2025-02-11T08:18:01Z</time>
      </trkpt>
      <trkpt lat="47.80093" lon="-2.43309">
        <ele>82</ele>
        <time>2025-02-11T08:18:02Z</time>
      </trkpt>
      <trkpt lat="47.80094" lon="-2.4331">
        <ele>82</ele>
        <time>2025-02-11T08:18:03Z</time>
      </trkpt>
      <trkpt lat="47.80095" lon="-2.43311">
        <ele>81.9</ele>
        <time>2025-02-11T08:18:04Z</time>
      </trkpt>
      <trkpt lat="47.80096" lon="-2.43312">
        <ele>81.8</ele>
        <time>2025-02-11T08:18:05Z</time>
      </trkpt>
      <trkpt lat="47.80097" lon="-2.43313">
        <ele>81.7</ele>
        <time>2025-02-11T08:18:06Z</time>
      </trkpt>
      <trkpt lat="47.80098" lon="-2.43314">
        <ele>81.6</ele>
        <time>2025-02-11T08:18:07Z</time>
      </trkpt>
      <trkpt lat="47.80099" lon="-2.43315">
        <ele>81.5</ele>
        <time>2025-02-11T08:18:08Z</time>
      </trkpt>
      <trkpt lat="47.801" lon="-2.43316">
        <ele>81.4</ele>
        <time>2025-02-11T08:18:09Z</time>
      </trkpt>
      <trkpt lat="47.80102" lon="-2.43316">
        <ele>81.3</ele>
        <time>2025-02-11T08:18:10Z</time>
      </trkpt>
      <trkpt lat="47.80103" lon="-2.43316">
        <ele>81.1</ele>
        <time>2025-02-11T08:18:11Z</time>
      </trkpt>
      <trkpt lat="47.80104" lon="-2.43315">
        <ele>81</ele>
        <time>2025-02-11T08:18:12Z</time>
      </trkpt>
      <trkpt lat="47.80105" lon="-2.43314">
        <ele>80.9</ele>
        <time>2025-02-11T08:18:13Z</time>
      </trkpt>
      <trkpt lat="47.80106" lon="-2.43314">
        <ele>80.8</ele>
        <time>2025-02-11T08:18:14Z</time>
      </trkpt>
      <trkpt lat="47.80107" lon="-2.43313">
        <ele>80.7</ele>
        <time>2025-02-11T08:18:15Z</time>
      </trkpt>
      <trkpt lat="47.80107" lon="-2.43312">
        <ele>80.6</ele>
        <time>2025-02-11T08:18:16Z</time>
      </trkpt>
      <trkpt lat="47.80108" lon="-2.4331">
        <ele>80.5</ele>
        <time>2025-02-11T08:18:17Z</time>
      </trkpt>
      <trkpt lat="47.80108" lon="-2.43308">
        <ele>80.4</ele>
        <time>2025-02-11T08:18:18Z</time>
      </trkpt>
      <trkpt lat="47.80109" lon="-2.43307">
        <ele>80.2</ele>
        <time>2025-02-11T08:18:19Z</time>
      </trkpt>
      <trkpt lat="47.8011" lon="-2.43306">
        <ele>80.1</ele>
        <time>2025-02-11T08:18:20Z</time>
      </trkpt>
      <trkpt lat="47.80111" lon="-2.43305">
        <ele>80</ele>
        <time>2025-02-11T08:18:21Z</time>
      </trkpt>
      <trkpt lat="47.80112" lon="-2.43304">
        <ele>80</ele>
        <time>2025-02-11T08:18:22Z</time>
      </trkpt>
      <trkpt lat="47.80114" lon="-2.43303">
        <ele>79.9</ele>
        <time>2025-02-11T08:18:23Z</time>
      </trkpt>
      <trkpt lat="47.80114" lon="-2.43302">
        <ele>79.9</ele>
        <time>2025-02-11T08:18:24Z</time>
      </trkpt>
      <trkpt lat="47.80115" lon="-2.433">
        <ele>79.9</ele>
        <time>2025-02-11T08:18:25Z</time>
      </trkpt>
      <trkpt lat="47.80116" lon="-2.43299">
        <ele>79.8</ele>
        <time>2025-02-11T08:18:26Z</time>
      </trkpt>
      <trkpt lat="47.80117" lon="-2.43298">
        <ele>79.8</ele>
        <time>2025-02-11T08:18:27Z</time>
      </trkpt>
      <trkpt lat="47.80118" lon="-2.43297">
        <ele>79.7</ele>
        <time>2025-02-11T08:18:28Z</time>
      </trkpt>
      <trkpt lat="47.80119" lon="-2.43296">
        <ele>79.7</ele>
        <time>2025-02-11T08:18:29Z</time>
      </trkpt>
      <trkpt lat="47.8012" lon="-2.43295">
        <ele>79.7</ele>
        <time>2025-02-11T08:18:30Z</time>
      </trkpt>
      <trkpt lat="47.80122" lon="-2.43294">
        <ele>79.6</ele>
        <time>2025-02-11T08:18:31Z</time>
      </trkpt>
      <trkpt lat="47.80123" lon="-2.43293">
        <ele>79.6</ele>
        <time>2025-02-11T08:18:32Z</time>
      </trkpt>
      <trkpt lat="47.80124" lon="-2.43292">
        <ele>79.5</ele>
        <time>2025-02-11T08:18:33Z</time>
      </trkpt>
      <trkpt lat="47.80125" lon="-2.43291">
        <ele>79.5</ele>
        <time>2025-02-11T08:18:34Z</time>
      </trkpt>
      <trkpt lat="47.80126" lon="-2.4329">
        <ele>79.5</ele>
        <time>2025-02-11T08:18:35Z</time>
      </trkpt>
      <trkpt lat="47.80127" lon="-2.43289">
        <ele>79.4</ele>
        <time>2025-02-11T08:18:36Z</time>
      </trkpt>
      <trkpt lat="47.80129" lon="-2.43288">
        <ele>79.4</ele>
        <time>2025-02-11T08:18:37Z</time>
      </trkpt>
      <trkpt lat="47.8013" lon="-2.43288">
        <ele>79.3</ele>
        <time>2025-02-11T08:18:38Z</time>
      </trkpt>
      <trkpt lat="47.80131" lon="-2.43287">
        <ele>79.3</ele>
        <time>2025-02-11T08:18:39Z</time>
      </trkpt>
      <trkpt lat="47.80133" lon="-2.43286">
        <ele>79.2</ele>
        <time>2025-02-11T08:18:40Z</time>
      </trkpt>
      <trkpt lat="47.80134" lon="-2.43286">
        <ele>79.2</ele>
        <time>2025-02-11T08:18:41Z</time>
      </trkpt>
      <trkpt lat="47.80135" lon="-2.43286">
        <ele>79.1</ele>
        <time>2025-02-11T08:18:42Z</time>
      </trkpt>
      <trkpt lat="47.80136" lon="-2.43285">
        <ele>79.1</ele>
        <time>2025-02-11T08:18:43Z</time>
      </trkpt>
      <trkpt lat="47.80137" lon="-2.43285">
        <ele>79.1</ele>
        <time>2025-02-11T08:18:44Z</time>
      </trkpt>
      <trkpt lat="47.80139" lon="-2.43285">
        <ele>79</ele>
        <time>2025-02-11T08:18:45Z</time>
      </trkpt>
      <trkpt lat="47.8014" lon="-2.43284">
        <ele>79</ele>
        <time>2025-02-11T08:18:46Z</time>
      </trkpt>
      <trkpt lat="47.80141" lon="-2.43282">
        <ele>78.9</ele>
        <time>2025-02-11T08:18:47Z</time>
      </trkpt>
      <trkpt lat="47.80142" lon="-2.4328">
        <ele>78.9</ele>
        <time>2025-02-11T08:18:48Z</time>
      </trkpt>
      <trkpt lat="47.80143" lon="-2.43279">
        <ele>78.9</ele>
        <time>2025-02-11T08:18:49Z</time>
      </trkpt>
      <trkpt lat="47.80144" lon="-2.43278">
        <ele>78.8</ele>
        <time>2025-02-11T08:18:50Z</time>
      </trkpt>
      <trkpt lat="47.80145" lon="-2.43277">
        <ele>78.8</ele>
        <time>2025-02-11T08:18:51Z</time>
      </trkpt>
      <trkpt lat="47.80145" lon="-2.43276">
        <ele>78.7</ele>
        <time>2025-02-11T08:18:52Z</time>
      </trkpt>
      <trkpt lat="47.80146" lon="-2.43274">
        <ele>78.6</ele>
        <time>2025-02-11T08:18:53Z</time>
      </trkpt>
      <trkpt lat="47.80147" lon="-2.43272">
        <ele>78.6</ele>
        <time>2025-02-11T08:18:54Z</time>
      </trkpt>
      <trkpt lat="47.80148" lon="-2.43271">
        <ele>78.5</ele>
        <time>2025-02-11T08:18:55Z</time>
      </trkpt>
      <trkpt lat="47.80148" lon="-2.4327">
        <ele>78.5</ele>
        <time>2025-02-11T08:18:56Z</time>
      </trkpt>
      <trkpt lat="47.80149" lon="-2.43268">
        <ele>78.4</ele>
        <time>2025-02-11T08:18:57Z</time>
      </trkpt>
      <trkpt lat="47.80149" lon="-2.43266">
        <ele>78.4</ele>
        <time>2025-02-11T08:18:58Z</time>
      </trkpt>
      <trkpt lat="47.8015" lon="-2.43265">
        <ele>78.3</ele>
        <time>2025-02-11T08:18:59Z</time>
      </trkpt>
      <trkpt lat="47.8015" lon="-2.43264">
        <ele>78.3</ele>
        <time>2025-02-11T08:19:00Z</time>
      </trkpt>
      <trkpt lat="47.80151" lon="-2.43262">
        <ele>78.2</ele>
        <time>2025-02-11T08:19:01Z</time>
      </trkpt>
      <trkpt lat="47.80153" lon="-2.43261">
        <ele>78.2</ele>
        <time>2025-02-11T08:19:02Z</time>
      </trkpt>
      <trkpt lat="47.80154" lon="-2.4326">
        <ele>78.2</ele>
        <time>2025-02-11T08:19:03Z</time>
      </trkpt>
      <trkpt lat="47.80155" lon="-2.43259">
        <ele>78.1</ele>
        <time>2025-02-11T08:19:04Z</time>
      </trkpt>
      <trkpt lat="47.80156" lon="-2.43258">
        <ele>78.1</ele>
        <time>2025-02-11T08:19:05Z</time>
      </trkpt>
      <trkpt lat="47.80157" lon="-2.43257">
        <ele>78.1</ele>
        <time>2025-02-11T08:19:06Z</time>
      </trkpt>
      <trkpt lat="47.80158" lon="-2.43255">
        <ele>78.1</ele>
        <time>2025-02-11T08:19:07Z</time>
      </trkpt>
      <trkpt lat="47.80159" lon="-2.43254">
        <ele>78</ele>
        <time>2025-02-11T08:19:08Z</time>
      </trkpt>
      <trkpt lat="47.8016" lon="-2.43253">
        <ele>78</ele>
        <time>2025-02-11T08:19:09Z</time>
      </trkpt>
      <trkpt lat="47.80161" lon="-2.43251">
        <ele>78</ele>
        <time>2025-02-11T08:19:10Z</time>
      </trkpt>
      <trkpt lat="47.80162" lon="-2.4325">
        <ele>78</ele>
        <time>2025-02-11T08:19:11Z</time>
      </trkpt>
      <trkpt lat="47.80163" lon="-2.43249">
        <ele>78</ele>
        <time>2025-02-11T08:19:12Z</time>
      </trkpt>
      <trkpt lat="47.80163" lon="-2.43248">
        <ele>77.9</ele>
        <time>2025-02-11T08:19:13Z</time>
      </trkpt>
      <trkpt lat="47.80164" lon="-2.43247">
        <ele>77.9</ele>
        <time>2025-02-11T08:19:14Z</time>
      </trkpt>
      <trkpt lat="47.80165" lon="-2.43247">
        <ele>77.9</ele>
        <time>2025-02-11T08:19:15Z</time>
      </trkpt>
      <trkpt lat="47.80167" lon="-2.43247">
        <ele>77.9</ele>
        <time>2025-02-11T08:19:16Z</time>
      </trkpt>
      <trkpt lat="47.80168" lon="-2.43247">
        <ele>77.8</ele>
        <time>2025-02-11T08:19:17Z</time>
      </trkpt>
      <trkpt lat="47.80169" lon="-2.43246">
        <ele>77.7</ele>
        <time>2025-02-11T08:19:18Z</time>
      </trkpt>
      <trkpt lat="47.8017" lon="-2.43245">
        <ele>77.6</ele>
        <time>2025-02-11T08:19:19Z</time>
      </trkpt>
      <trkpt lat="47.80171" lon="-2.43245">
        <ele>77.5</ele>
        <time>2025-02-11T08:19:20Z</time>
      </trkpt>
      <trkpt lat="47.80171" lon="-2.43244">
        <ele>77.4</ele>
        <time>2025-02-11T08:19:21Z</time>
      </trkpt>
      <trkpt lat="47.80172" lon="-2.43243">
        <ele>77.3</ele>
        <time>2025-02-11T08:19:22Z</time>
      </trkpt>
      <trkpt lat="47.80173" lon="-2.43241">
        <ele>77.2</ele>
        <time>2025-02-11T08:19:23Z</time>
      </trkpt>
      <trkpt lat="47.80173" lon="-2.4324">
        <ele>77.2</ele>
        <time>2025-02-11T08:19:24Z</time>
      </trkpt>
      <trkpt lat="47.80173" lon="-2.43238">
        <ele>77.1</ele>
        <time>2025-02-11T08:19:25Z</time>
      </trkpt>
      <trkpt lat="47.80173" lon="-2.43236">
        <ele>77.1</ele>
        <time>2025-02-11T08:19:26Z</time>
      </trkpt>
      <trkpt lat="47.80173" lon="-2.43235">
        <ele>77</ele>
        <time>2025-02-11T08:19:27Z</time>
      </trkpt>
      <trkpt lat="47.80173" lon="-2.43234">
        <ele>77</ele>
        <time>2025-02-11T08:19:28Z</time>
      </trkpt>
      <trkpt lat="47.80173" lon="-2.43232">
        <ele>76.9</ele>
        <time>2025-02-11T08:19:29Z</time>
      </trkpt>
      <trkpt lat="47.80173" lon="-2.4323">
        <ele>76.9</ele>
        <time>2025-02-11T08:19:30Z</time>
      </trkpt>
      <trkpt lat="47.80173" lon="-2.43229">
        <ele>76.8</ele>
        <time>2025-02-11T08:19:31Z</time>
      </trkpt>
      <trkpt lat="47.80173" lon="-2.43227">
        <ele>76.7</ele>
        <time>2025-02-11T08:19:32Z</time>
      </trkpt>
      <trkpt lat="47.80173" lon="-2.43225">
        <ele>76.6</ele>
        <time>2025-02-11T08:19:33Z</time>
      </trkpt>
      <trkpt lat="47.80173" lon="-2.43223">
        <ele>76.6</ele>
        <time>2025-02-11T08:19:34Z</time>
      </trkpt>
      <trkpt lat="47.80174" lon="-2.43222">
        <ele>76.5</ele>
        <time>2025-02-11T08:19:35Z</time>
      </trkpt>
      <trkpt lat="47.80174" lon="-2.4322">
        <ele>76.4</ele>
        <time>2025-02-11T08:19:36Z</time>
      </trkpt>
      <trkpt lat="47.80175" lon="-2.43219">
        <ele>76.4</ele>
        <time>2025-02-11T08:19:37Z</time>
      </trkpt>
      <trkpt lat="47.80176" lon="-2.43218">
        <ele>76.3</ele>
        <time>2025-02-11T08:19:38Z</time>
      </trkpt>
      <trkpt lat="47.80177" lon="-2.43216">
        <ele>76.3</ele>
        <time>2025-02-11T08:19:39Z</time>
      </trkpt>
      <trkpt lat="47.80178" lon="-2.43215">
        <ele>76.2</ele>
        <time>2025-02-11T08:19:40Z</time>
      </trkpt>
      <trkpt lat="47.80178" lon="-2.43214">
        <ele>76.2</ele>
        <time>2025-02-11T08:19:41Z</time>
      </trkpt>
      <trkpt lat="47.80179" lon="-2.43212">
        <ele>76.1</ele>
        <time>2025-02-11T08:19:42Z</time>
      </trkpt>
      <trkpt lat="47.80179" lon="-2.43211">
        <ele>76.1</ele>
        <time>2025-02-11T08:19:43Z</time>
      </trkpt>
      <trkpt lat="47.8018" lon="-2.43209">
        <ele>76</ele>
        <time>2025-02-11T08:19:44Z</time>
      </trkpt>
      <trkpt lat="47.80182" lon="-2.43208">
        <ele>75.9</ele>
        <time>2025-02-11T08:19:45Z</time>
      </trkpt>
      <trkpt lat="47.80183" lon="-2.43208">
        <ele>75.8</ele>
        <time>2025-02-11T08:19:46Z</time>
      </trkpt>
      <trkpt lat="47.80184" lon="-2.43207">
        <ele>75.8</ele>
        <time>2025-02-11T08:19:47Z</time>
      </trkpt>
      <trkpt lat="47.80185" lon="-2.43206">
        <ele>75.7</ele>
        <time>2025-02-11T08:19:48Z</time>
      </trkpt>
      <trkpt lat="47.80187" lon="-2.43206">
        <ele>75.6</ele>
        <time>2025-02-11T08:19:49Z</time>
      </trkpt>
      <trkpt lat="47.80188" lon="-2.43206">
        <ele>75.5</ele>
        <time>2025-02-11T08:19:50Z</time>
      </trkpt>
      <trkpt lat="47.80189" lon="-2.43205">
        <ele>75.4</ele>
        <time>2025-02-11T08:19:51Z</time>
      </trkpt>
      <trkpt lat="47.8019" lon="-2.43205">
        <ele>75.3</ele>
        <time>2025-02-11T08:19:52Z</time>
      </trkpt>
      <trkpt lat="47.80192" lon="-2.43206">
        <ele>75.2</ele>
        <time>2025-02-11T08:19:53Z</time>
      </trkpt>
      <trkpt lat="47.80193" lon="-2.43207">
        <ele>75.1</ele>
        <time>2025-02-11T08:19:54Z</time>
      </trkpt>
      <trkpt lat="47.80194" lon="-2.43209">
        <ele>75</ele>
        <time>2025-02-11T08:19:55Z</time>
      </trkpt>
      <trkpt lat="47.80195" lon="-2.4321">
        <ele>75</ele>
        <time>2025-02-11T08:19:56Z</time>
      </trkpt>
      <trkpt lat="47.80196" lon="-2.43211">
        <ele>74.9</ele>
        <time>2025-02-11T08:19:57Z</time>
      </trkpt>
      <trkpt lat="47.80197" lon="-2.43212">
        <ele>74.9</ele>
        <time>2025-02-11T08:19:58Z</time>
      </trkpt>
      <trkpt lat="47.80198" lon="-2.43212">
        <ele>74.9</ele>
        <time>2025-02-11T08:19:59Z</time>
      </trkpt>
      <trkpt lat="47.80199" lon="-2.43213">
        <ele>74.8</ele>
        <time>2025-02-11T08:20:00Z</time>
      </trkpt>
      <trkpt lat="47.802" lon="-2.43213">
        <ele>74.8</ele>
        <time>2025-02-11T08:20:01Z</time>
      </trkpt>
      <trkpt lat="47.80201" lon="-2.43214">
        <ele>74.8</ele>
        <time>2025-02-11T08:20:02Z</time>
      </trkpt>
      <trkpt lat="47.80202" lon="-2.43214">
        <ele>74.7</ele>
        <time>2025-02-11T08:20:03Z</time>
      </trkpt>
      <trkpt lat="47.80203" lon="-2.43215">
        <ele>74.7</ele>
        <time>2025-02-11T08:20:04Z</time>
      </trkpt>
      <trkpt lat="47.80205" lon="-2.43216">
        <ele>74.6</ele>
        <time>2025-02-11T08:20:05Z</time>
      </trkpt>
      <trkpt lat="47.80206" lon="-2.43217">
        <ele>74.6</ele>
        <time>2025-02-11T08:20:06Z</time>
      </trkpt>
      <trkpt lat="47.80207" lon="-2.43218">
        <ele>74.6</ele>
        <time>2025-02-11T08:20:07Z</time>
      </trkpt>
      <trkpt lat="47.80208" lon="-2.43219">
        <ele>74.5</ele>
        <time>2025-02-11T08:20:08Z</time>
      </trkpt>
      <trkpt lat="47.80209" lon="-2.43221">
        <ele>74.5</ele>
        <time>2025-02-11T08:20:09Z</time>
      </trkpt>
      <trkpt lat="47.8021" lon="-2.43221">
        <ele>74.4</ele>
        <time>2025-02-11T08:20:10Z</time>
      </trkpt>
      <trkpt lat="47.80211" lon="-2.43222">
        <ele>74.4</ele>
        <time>2025-02-11T08:20:11Z</time>
      </trkpt>
      <trkpt lat="47.80213" lon="-2.43223">
        <ele>74.4</ele>
        <time>2025-02-11T08:20:12Z</time>
      </trkpt>
      <trkpt lat="47.80214" lon="-2.43224">
        <ele>74.4</ele>
        <time>2025-02-11T08:20:13Z</time>
      </trkpt>
      <trkpt lat="47.80215" lon="-2.43224">
        <ele>74.3</ele>
        <time>2025-02-11T08:20:14Z</time>
      </trkpt>
      <trkpt lat="47.80216" lon="-2.43224">
        <ele>74.3</ele>
        <time>2025-02-11T08:20:15Z</time>
      </trkpt>
      <trkpt lat="47.80218" lon="-2.43224">
        <ele>74.2</ele>
        <time>2025-02-11T08:20:16Z</time>
      </trkpt>
      <trkpt lat="47.80219" lon="-2.43224">
        <ele>74.2</ele>
        <time>2025-02-11T08:20:17Z</time>
      </trkpt>
      <trkpt lat="47.8022" lon="-2.43224">
        <ele>74.2</ele>
        <time>2025-02-11T08:20:18Z</time>
      </trkpt>
      <trkpt lat="47.80221" lon="-2.43224">
        <ele>74.1</ele>
        <time>2025-02-11T08:20:19Z</time>
      </trkpt>
      <trkpt lat="47.80223" lon="-2.43223">
        <ele>74</ele>
        <time>2025-02-11T08:20:20Z</time>
      </trkpt>
      <trkpt lat="47.80224" lon="-2.43222">
        <ele>73.9</ele>
        <time>2025-02-11T08:20:21Z</time>
      </trkpt>
      <trkpt lat="47.80225" lon="-2.43221">
        <ele>73.8</ele>
        <time>2025-02-11T08:20:22Z</time>
      </trkpt>
      <trkpt lat="47.80226" lon="-2.4322">
        <ele>73.7</ele>
        <time>2025-02-11T08:20:23Z</time>
      </trkpt>
      <trkpt lat="47.80227" lon="-2.43218">
        <ele>73.7</ele>
        <time>2025-02-11T08:20:24Z</time>
      </trkpt>
      <trkpt lat="47.80228" lon="-2.43216">
        <ele>73.6</ele>
        <time>2025-02-11T08:20:25Z</time>
      </trkpt>
      <trkpt lat="47.80228" lon="-2.43215">
        <ele>73.6</ele>
        <time>2025-02-11T08:20:26Z</time>
      </trkpt>
      <trkpt lat="47.80228" lon="-2.43213">
        <ele>73.6</ele>
        <time>2025-02-11T08:20:27Z</time>
      </trkpt>
      <trkpt lat="47.80229" lon="-2.43211">
        <ele>73.5</ele>
        <time>2025-02-11T08:20:28Z</time>
      </trkpt>
      <trkpt lat="47.80229" lon="-2.4321">
        <ele>73.5</ele>
        <time>2025-02-11T08:20:29Z</time>
      </trkpt>
      <trkpt lat="47.80229" lon="-2.43208">
        <ele>73.5</ele>
        <time>2025-02-11T08:20:30Z</time>
      </trkpt>
      <trkpt lat="47.80229" lon="-2.43209">
        <ele>73.5</ele>
        <time>2025-02-11T08:20:31Z</time>
      </trkpt>
      <trkpt lat="47.80228" lon="-2.43209">
        <ele>73.6</ele>
        <time>2025-02-11T08:20:32Z</time>
      </trkpt>
      <trkpt lat="47.80228" lon="-2.43209">
        <ele>73.6</ele>
        <time>2025-02-11T08:20:33Z</time>
      </trkpt>
      <trkpt lat="47.80228" lon="-2.43209">
        <ele>73.6</ele>
        <time>2025-02-11T08:20:34Z</time>
      </trkpt>
      <trkpt lat="47.80228" lon="-2.43209">
        <ele>73.6</ele>
        <time>2025-02-11T08:20:35Z</time>
      </trkpt>
      <trkpt lat="47.80228" lon="-2.43209">
        <ele>73.6</ele>
        <time>2025-02-11T08:20:36Z</time>
      </trkpt>
      <trkpt lat="47.80228" lon="-2.43209">
        <ele>73.6</ele>
        <time>2025-02-11T08:20:37Z</time>
      </trkpt>
      <trkpt lat="47.80228" lon="-2.43209">
        <ele>73.6</ele>
        <time>2025-02-11T08:20:38Z</time>
      </trkpt>
      <trkpt lat="47.80228" lon="-2.43209">
        <ele>73.6</ele>
        <time>2025-02-11T08:20:39Z</time>
      </trkpt>
      <trkpt lat="47.80228" lon="-2.43209">
        <ele>73.6</ele>
        <time>2025-02-11T08:20:40Z</time>
      </trkpt>
      <trkpt lat="47.80228" lon="-2.43209">
        <ele>73.6</ele>
        <time>2025-02-11T08:20:41Z</time>
      </trkpt>
      <trkpt lat="47.80228" lon="-2.43209">
        <ele>73.6</ele>
        <time>2025-02-11T08:20:42Z</time>
      </trkpt>
      <trkpt lat="47.80229" lon="-2.43209">
        <ele>73.5</ele>
        <time>2025-02-11T08:20:43Z</time>
      </trkpt>
      <trkpt lat="47.80229" lon="-2.43209">
        <ele>73.5</ele>
        <time>2025-02-11T08:20:44Z</time>
      </trkpt>
      <trkpt lat="47.80229" lon="-2.4321">
        <ele>73.5</ele>
        <time>2025-02-11T08:20:45Z</time>
      </trkpt>
      <trkpt lat="47.80229" lon="-2.4321">
        <ele>73.5</ele>
        <time>2025-02-11T08:20:46Z</time>
      </trkpt>
      <trkpt lat="47.80229" lon="-2.4321">
        <ele>73.5</ele>
        <time>2025-02-11T08:20:47Z</time>
      </trkpt>
      <trkpt lat="47.80229" lon="-2.4321">
        <ele>73.5</ele>
        <time>2025-02-11T08:20:48Z</time>
      </trkpt>
      <trkpt lat="47.80229" lon="-2.4321">
        <ele>73.5</ele>
        <time>2025-02-11T08:20:49Z</time>
      </trkpt>
      <trkpt lat="47.80229" lon="-2.4321">
        <ele>73.5</ele>
        <time>2025-02-11T08:20:50Z</time>
      </trkpt>
      <trkpt lat="47.80229" lon="-2.4321">
        <ele>73.5</ele>
        <time>2025-02-11T08:20:51Z</time>
      </trkpt>
      <trkpt lat="47.80228" lon="-2.43211">
        <ele>73.6</ele>
        <time>2025-02-11T08:20:52Z</time>
      </trkpt>
      <trkpt lat="47.80228" lon="-2.43211">
        <ele>73.6</ele>
        <time>2025-02-11T08:20:53Z</time>
      </trkpt>
      <trkpt lat="47.80228" lon="-2.43211">
        <ele>73.6</ele>
        <time>2025-02-11T08:20:54Z</time>
      </trkpt>
      <trkpt lat="47.80228" lon="-2.43211">
        <ele>73.6</ele>
        <time>2025-02-11T08:20:55Z</time>
      </trkpt>
      <trkpt lat="47.80228" lon="-2.43211">
        <ele>73.6</ele>
        <time>2025-02-11T08:20:56Z</time>
      </trkpt>
      <trkpt lat="47.80228" lon="-2.43211">
        <ele>73.6</ele>
        <time>2025-02-11T08:20:57Z</time>
      </trkpt>
      <trkpt lat="47.80228" lon="-2.43211">
        <ele>73.6</ele>
        <time>2025-02-11T08:20:58Z</time>
      </trkpt>
      <trkpt lat="47.80228" lon="-2.43211">
        <ele>73.6</ele>
        <time>2025-02-11T08:20:59Z</time>
      </trkpt>
      <trkpt lat="47.80228" lon="-2.43211">
        <ele>73.6</ele>
        <time>2025-02-11T08:21:00Z</time>
      </trkpt>
      <trkpt lat="47.80228" lon="-2.43211">
        <ele>73.6</ele>
        <time>2025-02-11T08:21:01Z</time>
      </trkpt>
      <trkpt lat="47.80228" lon="-2.43211">
        <ele>73.6</ele>
        <time>2025-02-11T08:21:02Z</time>
      </trkpt>
      <trkpt lat="47.80228" lon="-2.43211">
        <ele>73.6</ele>
        <time>2025-02-11T08:21:03Z</time>
      </trkpt>
      <trkpt lat="47.80228" lon="-2.43211">
        <ele>73.6</ele>
        <time>2025-02-11T08:21:04Z</time>
      </trkpt>
      <trkpt lat="47.80228" lon="-2.43211">
        <ele>73.6</ele>
        <time>2025-02-11T08:21:05Z</time>
      </trkpt>
      <trkpt lat="47.80228" lon="-2.43212">
        <ele>73.6</ele>
        <time>2025-02-11T08:21:06Z</time>
      </trkpt>
      <trkpt lat="47.80228" lon="-2.43212">
        <ele>73.6</ele>
        <time>2025-02-11T08:21:07Z</time>
      </trkpt>
      <trkpt lat="47.80229" lon="-2.43212">
        <ele>73.5</ele>
        <time>2025-02-11T08:21:08Z</time>
      </trkpt>
      <trkpt lat="47.80229" lon="-2.43212">
        <ele>73.5</ele>
        <time>2025-02-11T08:21:09Z</time>
      </trkpt>
      <trkpt lat="47.80228" lon="-2.43212">
        <ele>73.6</ele>
        <time>2025-02-11T08:21:10Z</time>
      </trkpt>
      <trkpt lat="47.80228" lon="-2.43212">
        <ele>73.6</ele>
        <time>2025-02-11T08:21:11Z</time>
      </trkpt>
      <trkpt lat="47.80228" lon="-2.43212">
        <ele>73.6</ele>
        <time>2025-02-11T08:21:12Z</time>
      </trkpt>
      <trkpt lat="47.80228" lon="-2.43212">
        <ele>73.6</ele>
        <time>2025-02-11T08:21:13Z</time>
      </trkpt>
      <trkpt lat="47.80228" lon="-2.43212">
        <ele>73.6</ele>
        <time>2025-02-11T08:21:14Z</time>
      </trkpt>
      <trkpt lat="47.80228" lon="-2.43212">
        <ele>73.6</ele>
        <time>2025-02-11T08:21:15Z</time>
      </trkpt>
      <trkpt lat="47.80228" lon="-2.43212">
        <ele>73.6</ele>
        <time>2025-02-11T08:21:16Z</time>
      </trkpt>
      <trkpt lat="47.80228" lon="-2.43212">
        <ele>73.6</ele>
        <time>2025-02-11T08:21:17Z</time>
      </trkpt>
      <trkpt lat="47.80228" lon="-2.43212">
        <ele>73.6</ele>
        <time>2025-02-11T08:21:18Z</time>
      </trkpt>
      <trkpt lat="47.80228" lon="-2.43212">
        <ele>73.6</ele>
        <time>2025-02-11T08:21:19Z</time>
      </trkpt>
      <trkpt lat="47.80228" lon="-2.43212">
        <ele>73.6</ele>
        <time>2025-02-11T08:21:20Z</time>
      </trkpt>
      <trkpt lat="47.80228" lon="-2.43212">
        <ele>73.6</ele>
        <time>2025-02-11T08:21:21Z</time>
      </trkpt>
      <trkpt lat="47.80228" lon="-2.43212">
        <ele>73.6</ele>
        <time>2025-02-11T08:21:22Z</time>
      </trkpt>
      <trkpt lat="47.80228" lon="-2.43212">
        <ele>73.6</ele>
        <time>2025-02-11T08:21:23Z</time>
      </trkpt>
      <trkpt lat="47.80228" lon="-2.43212">
        <ele>73.6</ele>
        <time>2025-02-11T08:21:24Z</time>
      </trkpt>
      <trkpt lat="47.80228" lon="-2.43212">
        <ele>73.6</ele>
        <time>2025-02-11T08:21:25Z</time>
      </trkpt>
      <trkpt lat="47.80228" lon="-2.43213">
        <ele>73.6</ele>
        <time>2025-02-11T08:21:26Z</time>
      </trkpt>
      <trkpt lat="47.80229" lon="-2.43213">
        <ele>73.5</ele>
        <time>2025-02-11T08:21:27Z</time>
      </trkpt>
      <trkpt lat="47.80229" lon="-2.43213">
        <ele>73.5</ele>
        <time>2025-02-11T08:21:28Z</time>
      </trkpt>
      <trkpt lat="47.80228" lon="-2.43212">
        <ele>73.6</ele>
        <time>2025-02-11T08:21:29Z</time>
      </trkpt>
      <trkpt lat="47.80228" lon="-2.43212">
        <ele>73.6</ele>
        <time>2025-02-11T08:21:30Z</time>
      </trkpt>
      <trkpt lat="47.80228" lon="-2.43213">
        <ele>73.6</ele>
        <time>2025-02-11T08:21:31Z</time>
      </trkpt>
      <trkpt lat="47.80228" lon="-2.43213">
        <ele>73.6</ele>
        <time>2025-02-11T08:21:32Z</time>
      </trkpt>
      <trkpt lat="47.80229" lon="-2.43213">
        <ele>73.5</ele>
        <time>2025-02-11T08:21:33Z</time>
      </trkpt>
      <trkpt lat="47.80229" lon="-2.43213">
        <ele>73.5</ele>
        <time>2025-02-11T08:21:34Z</time>
      </trkpt>
      <trkpt lat="47.80229" lon="-2.43213">
        <ele>73.5</ele>
        <time>2025-02-11T08:21:35Z</time>
      </trkpt>
      <trkpt lat="47.80229" lon="-2.43212">
        <ele>73.5</ele>
        <time>2025-02-11T08:21:36Z</time>
      </trkpt>
      <trkpt lat="47.80229" lon="-2.43212">
        <ele>73.5</ele>
        <time>2025-02-11T08:21:37Z</time>
      </trkpt>
      <trkpt lat="47.80229" lon="-2.43212">
        <ele>73.5</ele>
        <time>2025-02-11T08:21:38Z</time>
      </trkpt>
      <trkpt lat="47.80229" lon="-2.43212">
        <ele>73.5</ele>
        <time>2025-02-11T08:21:39Z</time>
      </trkpt>
      <trkpt lat="47.80229" lon="-2.43212">
        <ele>73.5</ele>
        <time>2025-02-11T08:21:40Z</time>
      </trkpt>
      <trkpt lat="47.80229" lon="-2.43212">
        <ele>73.5</ele>
        <time>2025-02-11T08:21:41Z</time>
      </trkpt>
      <trkpt lat="47.80229" lon="-2.43212">
        <ele>73.5</ele>
        <time>2025-02-11T08:21:42Z</time>
      </trkpt>
      <trkpt lat="47.80229" lon="-2.43212">
        <ele>73.5</ele>
        <time>2025-02-11T08:21:43Z</time>
      </trkpt>
      <trkpt lat="47.8023" lon="-2.43213">
        <ele>73.5</ele>
        <time>2025-02-11T08:21:44Z</time>
      </trkpt>
      <trkpt lat="47.8023" lon="-2.43215">
        <ele>73.4</ele>
        <time>2025-02-11T08:21:45Z</time>
      </trkpt>
      <trkpt lat="47.80227" lon="-2.43216">
        <ele>73.6</ele>
        <time>2025-02-11T08:21:46Z</time>
      </trkpt>
      <trkpt lat="47.80227" lon="-2.43213">
        <ele>73.7</ele>
        <time>2025-02-11T08:21:47Z</time>
      </trkpt>
      <trkpt lat="47.80226" lon="-2.43211">
        <ele>73.7</ele>
        <time>2025-02-11T08:21:48Z</time>
      </trkpt>
      <trkpt lat="47.80227" lon="-2.43211">
        <ele>73.7</ele>
        <time>2025-02-11T08:21:49Z</time>
      </trkpt>
      <trkpt lat="47.80227" lon="-2.43211">
        <ele>73.6</ele>
        <time>2025-02-11T08:21:50Z</time>
      </trkpt>
      <trkpt lat="47.80228" lon="-2.43211">
        <ele>73.6</ele>
        <time>2025-02-11T08:21:51Z</time>
      </trkpt>
      <trkpt lat="47.80228" lon="-2.4321">
        <ele>73.6</ele>
        <time>2025-02-11T08:21:52Z</time>
      </trkpt>
      <trkpt lat="47.80229" lon="-2.43209">
        <ele>73.5</ele>
        <time>2025-02-11T08:21:53Z</time>
      </trkpt>
      <trkpt lat="47.8023" lon="-2.43209">
        <ele>73.5</ele>
        <time>2025-02-11T08:21:54Z</time>
      </trkpt>
      <trkpt lat="47.80232" lon="-2.43207">
        <ele>73.3</ele>
        <time>2025-02-11T08:21:55Z</time>
      </trkpt>
      <trkpt lat="47.80231" lon="-2.43204">
        <ele>73.4</ele>
        <time>2025-02-11T08:21:56Z</time>
      </trkpt>
      <trkpt lat="47.8023" lon="-2.43205">
        <ele>73.5</ele>
        <time>2025-02-11T08:21:57Z</time>
      </trkpt>
      <trkpt lat="47.8023" lon="-2.43206">
        <ele>73.4</ele>
        <time>2025-02-11T08:21:58Z</time>
      </trkpt>
      <trkpt lat="47.80231" lon="-2.43207">
        <ele>73.4</ele>
        <time>2025-02-11T08:21:59Z</time>
      </trkpt>
      <trkpt lat="47.80231" lon="-2.43208">
        <ele>73.4</ele>
        <time>2025-02-11T08:22:00Z</time>
      </trkpt>
      <trkpt lat="47.80231" lon="-2.43208">
        <ele>73.4</ele>
        <time>2025-02-11T08:22:01Z</time>
      </trkpt>
      <trkpt lat="47.80231" lon="-2.43209">
        <ele>73.4</ele>
        <time>2025-02-11T08:22:02Z</time>
      </trkpt>
      <trkpt lat="47.80231" lon="-2.43211">
        <ele>73.4</ele>
        <time>2025-02-11T08:22:03Z</time>
      </trkpt>
      <trkpt lat="47.80232" lon="-2.43212">
        <ele>73.3</ele>
        <time>2025-02-11T08:22:04Z</time>
      </trkpt>
      <trkpt lat="47.80233" lon="-2.43213">
        <ele>73.2</ele>
        <time>2025-02-11T08:22:05Z</time>
      </trkpt>
      <trkpt lat="47.80235" lon="-2.43213">
        <ele>73.1</ele>
        <time>2025-02-11T08:22:06Z</time>
      </trkpt>
      <trkpt lat="47.80236" lon="-2.43215">
        <ele>73</ele>
        <time>2025-02-11T08:22:07Z</time>
      </trkpt>
      <trkpt lat="47.80236" lon="-2.43216">
        <ele>73</ele>
        <time>2025-02-11T08:22:08Z</time>
      </trkpt>
      <trkpt lat="47.80238" lon="-2.43217">
        <ele>72.9</ele>
        <time>2025-02-11T08:22:09Z</time>
      </trkpt>
      <trkpt lat="47.80239" lon="-2.43216">
        <ele>72.8</ele>
        <time>2025-02-11T08:22:10Z</time>
      </trkpt>
      <trkpt lat="47.80241" lon="-2.43217">
        <ele>72.7</ele>
        <time>2025-02-11T08:22:11Z</time>
      </trkpt>
      <trkpt lat="47.80242" lon="-2.43218">
        <ele>72.6</ele>
        <time>2025-02-11T08:22:12Z</time>
      </trkpt>
      <trkpt lat="47.80243" lon="-2.43218">
        <ele>72.5</ele>
        <time>2025-02-11T08:22:13Z</time>
      </trkpt>
      <trkpt lat="47.80244" lon="-2.43219">
        <ele>72.4</ele>
        <time>2025-02-11T08:22:14Z</time>
      </trkpt>
      <trkpt lat="47.80245" lon="-2.43219">
        <ele>72.3</ele>
        <time>2025-02-11T08:22:15Z</time>
      </trkpt>
      <trkpt lat="47.80247" lon="-2.4322">
        <ele>72.2</ele>
        <time>2025-02-11T08:22:16Z</time>
      </trkpt>
      <trkpt lat="47.80248" lon="-2.4322">
        <ele>72.1</ele>
        <time>2025-02-11T08:22:17Z</time>
      </trkpt>
      <trkpt lat="47.80249" lon="-2.4322">
        <ele>72.1</ele>
        <time>2025-02-11T08:22:18Z</time>
      </trkpt>
      <trkpt lat="47.80251" lon="-2.43221">
        <ele>72</ele>
        <time>2025-02-11T08:22:19Z</time>
      </trkpt>
      <trkpt lat="47.80252" lon="-2.43221">
        <ele>71.9</ele>
        <time>2025-02-11T08:22:20Z</time>
      </trkpt>
      <trkpt lat="47.80253" lon="-2.4322">
        <ele>71.8</ele>
        <time>2025-02-11T08:22:21Z</time>
      </trkpt>
      <trkpt lat="47.80255" lon="-2.43221">
        <ele>71.7</ele>
        <time>2025-02-11T08:22:22Z</time>
      </trkpt>
      <trkpt lat="47.80256" lon="-2.43221">
        <ele>71.6</ele>
        <time>2025-02-11T08:22:23Z</time>
      </trkpt>
      <trkpt lat="47.80258" lon="-2.4322">
        <ele>71.4</ele>
        <time>2025-02-11T08:22:24Z</time>
      </trkpt>
      <trkpt lat="47.80259" lon="-2.4322">
        <ele>71.3</ele>
        <time>2025-02-11T08:22:25Z</time>
      </trkpt>
      <trkpt lat="47.80261" lon="-2.4322">
        <ele>71.2</ele>
        <time>2025-02-11T08:22:26Z</time>
      </trkpt>
      <trkpt lat="47.80262" lon="-2.43219">
        <ele>71.1</ele>
        <time>2025-02-11T08:22:27Z</time>
      </trkpt>
      <trkpt lat="47.80264" lon="-2.43219">
        <ele>71</ele>
        <time>2025-02-11T08:22:28Z</time>
      </trkpt>
      <trkpt lat="47.80265" lon="-2.43218">
        <ele>70.9</ele>
        <time>2025-02-11T08:22:29Z</time>
      </trkpt>
      <trkpt lat="47.80267" lon="-2.43217">
        <ele>70.8</ele>
        <time>2025-02-11T08:22:30Z</time>
      </trkpt>
      <trkpt lat="47.80268" lon="-2.43215">
        <ele>70.7</ele>
        <time>2025-02-11T08:22:31Z</time>
      </trkpt>
      <trkpt lat="47.8027" lon="-2.43214">
        <ele>70.6</ele>
        <time>2025-02-11T08:22:32Z</time>
      </trkpt>
      <trkpt lat="47.80271" lon="-2.43213">
        <ele>70.5</ele>
        <time>2025-02-11T08:22:33Z</time>
      </trkpt>
      <trkpt lat="47.80272" lon="-2.43211">
        <ele>70.4</ele>
        <time>2025-02-11T08:22:34Z</time>
      </trkpt>
      <trkpt lat="47.80273" lon="-2.43211">
        <ele>70.3</ele>
        <time>2025-02-11T08:22:35Z</time>
      </trkpt>
      <trkpt lat="47.80275" lon="-2.4321">
        <ele>70.2</ele>
        <time>2025-02-11T08:22:36Z</time>
      </trkpt>
      <trkpt lat="47.80276" lon="-2.43209">
        <ele>70.1</ele>
        <time>2025-02-11T08:22:37Z</time>
      </trkpt>
      <trkpt lat="47.80277" lon="-2.43208">
        <ele>70</ele>
        <time>2025-02-11T08:22:38Z</time>
      </trkpt>
      <trkpt lat="47.80279" lon="-2.43207">
        <ele>70</ele>
        <time>2025-02-11T08:22:39Z</time>
      </trkpt>
      <trkpt lat="47.8028" lon="-2.43206">
        <ele>70</ele>
        <time>2025-02-11T08:22:40Z</time>
      </trkpt>
      <trkpt lat="47.80281" lon="-2.43204">
        <ele>69.9</ele>
        <time>2025-02-11T08:22:41Z</time>
      </trkpt>
      <trkpt lat="47.80283" lon="-2.43203">
        <ele>69.9</ele>
        <time>2025-02-11T08:22:42Z</time>
      </trkpt>
      <trkpt lat="47.80285" lon="-2.43202">
        <ele>69.8</ele>
        <time>2025-02-11T08:22:43Z</time>
      </trkpt>
      <trkpt lat="47.80286" lon="-2.43201">
        <ele>69.8</ele>
        <time>2025-02-11T08:22:44Z</time>
      </trkpt>
      <trkpt lat="47.80288" lon="-2.432">
        <ele>69.7</ele>
        <time>2025-02-11T08:22:45Z</time>
      </trkpt>
      <trkpt lat="47.80289" lon="-2.432">
        <ele>69.7</ele>
        <time>2025-02-11T08:22:46Z</time>
      </trkpt>
      <trkpt lat="47.8029" lon="-2.43201">
        <ele>69.7</ele>
        <time>2025-02-11T08:22:47Z</time>
      </trkpt>
      <trkpt lat="47.8029" lon="-2.43201">
        <ele>69.7</ele>
        <time>2025-02-11T08:22:48Z</time>
      </trkpt>
      <trkpt lat="47.8029" lon="-2.43201">
        <ele>69.7</ele>
        <time>2025-02-11T08:22:49Z</time>
      </trkpt>
      <trkpt lat="47.8029" lon="-2.43201">
        <ele>69.7</ele>
        <time>2025-02-11T08:22:50Z</time>
      </trkpt>
      <trkpt lat="47.8029" lon="-2.43201">
        <ele>69.7</ele>
        <time>2025-02-11T08:22:51Z</time>
      </trkpt>
      <trkpt lat="47.8029" lon="-2.43201">
        <ele>69.7</ele>
        <time>2025-02-11T08:22:52Z</time>
      </trkpt>
      <trkpt lat="47.8029" lon="-2.43201">
        <ele>69.7</ele>
        <time>2025-02-11T08:22:53Z</time>
      </trkpt>
      <trkpt lat="47.8029" lon="-2.43201">
        <ele>69.7</ele>
        <time>2025-02-11T08:22:54Z</time>
      </trkpt>
      <trkpt lat="47.8029" lon="-2.43201">
        <ele>69.7</ele>
        <time>2025-02-11T08:22:55Z</time>
      </trkpt>
      <trkpt lat="47.8029" lon="-2.43201">
        <ele>69.7</ele>
        <time>2025-02-11T08:22:56Z</time>
      </trkpt>
      <trkpt lat="47.8029" lon="-2.43201">
        <ele>69.7</ele>
        <time>2025-02-11T08:22:57Z</time>
      </trkpt>
      <trkpt lat="47.8029" lon="-2.43201">
        <ele>69.7</ele>
        <time>2025-02-11T08:22:58Z</time>
      </trkpt>
      <trkpt lat="47.8029" lon="-2.43201">
        <ele>69.7</ele>
        <time>2025-02-11T08:22:59Z</time>
      </trkpt>
      <trkpt lat="47.8029" lon="-2.43201">
        <ele>69.7</ele>
        <time>2025-02-11T08:23:00Z</time>
      </trkpt>
      <trkpt lat="47.8029" lon="-2.43201">
        <ele>69.7</ele>
        <time>2025-02-11T08:23:01Z</time>
      </trkpt>
      <trkpt lat="47.8029" lon="-2.43201">
        <ele>69.7</ele>
        <time>2025-02-11T08:23:02Z</time>
      </trkpt>
      <trkpt lat="47.8029" lon="-2.43201">
        <ele>69.7</ele>
        <time>2025-02-11T08:23:03Z</time>
      </trkpt>
      <trkpt lat="47.8029" lon="-2.43201">
        <ele>69.7</ele>
        <time>2025-02-11T08:23:04Z</time>
      </trkpt>
      <trkpt lat="47.8029" lon="-2.43201">
        <ele>69.7</ele>
        <time>2025-02-11T08:23:05Z</time>
      </trkpt>
      <trkpt lat="47.8029" lon="-2.43201">
        <ele>69.7</ele>
        <time>2025-02-11T08:23:06Z</time>
      </trkpt>
      <trkpt lat="47.8029" lon="-2.43201">
        <ele>69.7</ele>
        <time>2025-02-11T08:23:07Z</time>
      </trkpt>
      <trkpt lat="47.8029" lon="-2.43201">
        <ele>69.7</ele>
        <time>2025-02-11T08:23:08Z</time>
      </trkpt>
      <trkpt lat="47.8029" lon="-2.43201">
        <ele>69.7</ele>
        <time>2025-02-11T08:23:09Z</time>
      </trkpt>
      <trkpt lat="47.8029" lon="-2.43201">
        <ele>69.7</ele>
        <time>2025-02-11T08:23:10Z</time>
      </trkpt>
      <trkpt lat="47.8029" lon="-2.43201">
        <ele>69.7</ele>
        <time>2025-02-11T08:23:11Z</time>
      </trkpt>
      <trkpt lat="47.8029" lon="-2.43199">
        <ele>69.6</ele>
        <time>2025-02-11T08:23:12Z</time>
      </trkpt>
      <trkpt lat="47.80291" lon="-2.43199">
        <ele>69.6</ele>
        <time>2025-02-11T08:23:13Z</time>
      </trkpt>
      <trkpt lat="47.80292" lon="-2.43198">
        <ele>69.6</ele>
        <time>2025-02-11T08:23:14Z</time>
      </trkpt>
      <trkpt lat="47.80293" lon="-2.43197">
        <ele>69.5</ele>
        <time>2025-02-11T08:23:15Z</time>
      </trkpt>
      <trkpt lat="47.80294" lon="-2.43196">
        <ele>69.4</ele>
        <time>2025-02-11T08:23:16Z</time>
      </trkpt>
      <trkpt lat="47.80295" lon="-2.43195">
        <ele>69.4</ele>
        <time>2025-02-11T08:23:17Z</time>
      </trkpt>
      <trkpt lat="47.80297" lon="-2.43195">
        <ele>69.3</ele>
        <time>2025-02-11T08:23:18Z</time>
      </trkpt>
      <trkpt lat="47.80298" lon="-2.43194">
        <ele>69.3</ele>
        <time>2025-02-11T08:23:19Z</time>
      </trkpt>
      <trkpt lat="47.80299" lon="-2.43194">
        <ele>69.2</ele>
        <time>2025-02-11T08:23:20Z</time>
      </trkpt>
      <trkpt lat="47.803" lon="-2.43194">
        <ele>69.2</ele>
        <time>2025-02-11T08:23:21Z</time>
      </trkpt>
      <trkpt lat="47.80301" lon="-2.43193">
        <ele>69.1</ele>
        <time>2025-02-11T08:23:22Z</time>
      </trkpt>
      <trkpt lat="47.80302" lon="-2.43192">
        <ele>69</ele>
        <time>2025-02-11T08:23:23Z</time>
      </trkpt>
      <trkpt lat="47.80303" lon="-2.43192">
        <ele>69</ele>
        <time>2025-02-11T08:23:24Z</time>
      </trkpt>
      <trkpt lat="47.80305" lon="-2.43191">
        <ele>68.9</ele>
        <time>2025-02-11T08:23:25Z</time>
      </trkpt>
      <trkpt lat="47.80306" lon="-2.43189">
        <ele>68.8</ele>
        <time>2025-02-11T08:23:26Z</time>
      </trkpt>
      <trkpt lat="47.80307" lon="-2.43189">
        <ele>68.8</ele>
        <time>2025-02-11T08:23:27Z</time>
      </trkpt>
      <trkpt lat="47.80308" lon="-2.43188">
        <ele>68.7</ele>
        <time>2025-02-11T08:23:28Z</time>
      </trkpt>
      <trkpt lat="47.80309" lon="-2.43187">
        <ele>68.6</ele>
        <time>2025-02-11T08:23:29Z</time>
      </trkpt>
      <trkpt lat="47.80309" lon="-2.43186">
        <ele>68.6</ele>
        <time>2025-02-11T08:23:30Z</time>
      </trkpt>
      <trkpt lat="47.80311" lon="-2.43186">
        <ele>68.5</ele>
        <time>2025-02-11T08:23:31Z</time>
      </trkpt>
      <trkpt lat="47.80312" lon="-2.43186">
        <ele>68.5</ele>
        <time>2025-02-11T08:23:32Z</time>
      </trkpt>
      <trkpt lat="47.80313" lon="-2.43185">
        <ele>68.4</ele>
        <time>2025-02-11T08:23:33Z</time>
      </trkpt>
      <trkpt lat="47.80314" lon="-2.43185">
        <ele>68.3</ele>
        <time>2025-02-11T08:23:34Z</time>
      </trkpt>
      <trkpt lat="47.80315" lon="-2.43184">
        <ele>68.3</ele>
        <time>2025-02-11T08:23:35Z</time>
      </trkpt>
      <trkpt lat="47.80316" lon="-2.43184">
        <ele>68.2</ele>
        <time>2025-02-11T08:23:36Z</time>
      </trkpt>
      <trkpt lat="47.80317" lon="-2.43182">
        <ele>68.1</ele>
        <time>2025-02-11T08:23:37Z</time>
      </trkpt>
      <trkpt lat="47.80319" lon="-2.43181">
        <ele>68.1</ele>
        <time>2025-02-11T08:23:38Z</time>
      </trkpt>
      <trkpt lat="47.8032" lon="-2.43181">
        <ele>68</ele>
        <time>2025-02-11T08:23:39Z</time>
      </trkpt>
      <trkpt lat="47.80321" lon="-2.4318">
        <ele>67.9</ele>
        <time>2025-02-11T08:23:40Z</time>
      </trkpt>
      <trkpt lat="47.80322" lon="-2.4318">
        <ele>67.9</ele>
        <time>2025-02-11T08:23:41Z</time>
      </trkpt>
      <trkpt lat="47.80323" lon="-2.43179">
        <ele>67.8</ele>
        <time>2025-02-11T08:23:42Z</time>
      </trkpt>
      <trkpt lat="47.80324" lon="-2.43179">
        <ele>67.8</ele>
        <time>2025-02-11T08:23:43Z</time>
      </trkpt>
      <trkpt lat="47.80325" lon="-2.43178">
        <ele>67.7</ele>
        <time>2025-02-11T08:23:44Z</time>
      </trkpt>
      <trkpt lat="47.80326" lon="-2.43177">
        <ele>67.6</ele>
        <time>2025-02-11T08:23:45Z</time>
      </trkpt>
      <trkpt lat="47.80327" lon="-2.43176">
        <ele>67.6</ele>
        <time>2025-02-11T08:23:46Z</time>
      </trkpt>
      <trkpt lat="47.80328" lon="-2.43175">
        <ele>67.5</ele>
        <time>2025-02-11T08:23:47Z</time>
      </trkpt>
      <trkpt lat="47.8033" lon="-2.43175">
        <ele>67.4</ele>
        <time>2025-02-11T08:23:48Z</time>
      </trkpt>
      <trkpt lat="47.80331" lon="-2.43173">
        <ele>67.3</ele>
        <time>2025-02-11T08:23:49Z</time>
      </trkpt>
      <trkpt lat="47.80332" lon="-2.43172">
        <ele>67.3</ele>
        <time>2025-02-11T08:23:50Z</time>
      </trkpt>
      <trkpt lat="47.80333" lon="-2.43172">
        <ele>67.2</ele>
        <time>2025-02-11T08:23:51Z</time>
      </trkpt>
      <trkpt lat="47.80334" lon="-2.43172">
        <ele>67.2</ele>
        <time>2025-02-11T08:23:52Z</time>
      </trkpt>
      <trkpt lat="47.80335" lon="-2.43171">
        <ele>67.1</ele>
        <time>2025-02-11T08:23:53Z</time>
      </trkpt>
      <trkpt lat="47.80336" lon="-2.4317">
        <ele>67</ele>
        <time>2025-02-11T08:23:54Z</time>
      </trkpt>
      <trkpt lat="47.80337" lon="-2.4317">
        <ele>67</ele>
        <time>2025-02-11T08:23:55Z</time>
      </trkpt>
      <trkpt lat="47.80338" lon="-2.43169">
        <ele>66.9</ele>
        <time>2025-02-11T08:23:56Z</time>
      </trkpt>
      <trkpt lat="47.80339" lon="-2.43168">
        <ele>66.8</ele>
        <time>2025-02-11T08:23:57Z</time>
      </trkpt>
      <trkpt lat="47.8034" lon="-2.43167">
        <ele>66.8</ele>
        <time>2025-02-11T08:23:58Z</time>
      </trkpt>
      <trkpt lat="47.80341" lon="-2.43166">
        <ele>66.7</ele>
        <time>2025-02-11T08:23:59Z</time>
      </trkpt>
      <trkpt lat="47.80342" lon="-2.43165">
        <ele>66.6</ele>
        <time>2025-02-11T08:24:00Z</time>
      </trkpt>
      <trkpt lat="47.80343" lon="-2.43164">
        <ele>66.6</ele>
        <time>2025-02-11T08:24:01Z</time>
      </trkpt>
      <trkpt lat="47.80344" lon="-2.43164">
        <ele>66.5</ele>
        <time>2025-02-11T08:24:02Z</time>
      </trkpt>
      <trkpt lat="47.80345" lon="-2.43164">
        <ele>66.5</ele>
        <time>2025-02-11T08:24:03Z</time>
      </trkpt>
      <trkpt lat="47.80346" lon="-2.43166">
        <ele>66.5</ele>
        <time>2025-02-11T08:24:04Z</time>
      </trkpt>
      <trkpt lat="47.80347" lon="-2.43167">
        <ele>66.5</ele>
        <time>2025-02-11T08:24:05Z</time>
      </trkpt>
      <trkpt lat="47.80347" lon="-2.43168">
        <ele>66.6</ele>
        <time>2025-02-11T08:24:06Z</time>
      </trkpt>
      <trkpt lat="47.80347" lon="-2.4317">
        <ele>66.6</ele>
        <time>2025-02-11T08:24:07Z</time>
      </trkpt>
      <trkpt lat="47.80347" lon="-2.43172">
        <ele>66.7</ele>
        <time>2025-02-11T08:24:08Z</time>
      </trkpt>
      <trkpt lat="47.80348" lon="-2.43173">
        <ele>66.7</ele>
        <time>2025-02-11T08:24:09Z</time>
      </trkpt>
      <trkpt lat="47.80348" lon="-2.43175">
        <ele>66.8</ele>
        <time>2025-02-11T08:24:10Z</time>
      </trkpt>
      <trkpt lat="47.80347" lon="-2.43177">
        <ele>66.8</ele>
        <time>2025-02-11T08:24:11Z</time>
      </trkpt>
      <trkpt lat="47.80347" lon="-2.43178">
        <ele>66.9</ele>
        <time>2025-02-11T08:24:12Z</time>
      </trkpt>
      <trkpt lat="47.80348" lon="-2.4318">
        <ele>67</ele>
        <time>2025-02-11T08:24:13Z</time>
      </trkpt>
      <trkpt lat="47.80347" lon="-2.43181">
        <ele>67</ele>
        <time>2025-02-11T08:24:14Z</time>
      </trkpt>
      <trkpt lat="47.80347" lon="-2.43183">
        <ele>67.1</ele>
        <time>2025-02-11T08:24:15Z</time>
      </trkpt>
      <trkpt lat="47.80347" lon="-2.43185">
        <ele>67.2</ele>
        <time>2025-02-11T08:24:16Z</time>
      </trkpt>
      <trkpt lat="47.80348" lon="-2.43187">
        <ele>67.2</ele>
        <time>2025-02-11T08:24:17Z</time>
      </trkpt>
      <trkpt lat="47.80348" lon="-2.43188">
        <ele>67.3</ele>
        <time>2025-02-11T08:24:18Z</time>
      </trkpt>
      <trkpt lat="47.80348" lon="-2.4319">
        <ele>67.3</ele>
        <time>2025-02-11T08:24:19Z</time>
      </trkpt>
      <trkpt lat="47.80348" lon="-2.43192">
        <ele>67.4</ele>
        <time>2025-02-11T08:24:20Z</time>
      </trkpt>
      <trkpt lat="47.80348" lon="-2.43193">
        <ele>67.4</ele>
        <time>2025-02-11T08:24:21Z</time>
      </trkpt>
      <trkpt lat="47.80348" lon="-2.43195">
        <ele>67.5</ele>
        <time>2025-02-11T08:24:22Z</time>
      </trkpt>
      <trkpt lat="47.80348" lon="-2.43197">
        <ele>67.5</ele>
        <time>2025-02-11T08:24:23Z</time>
      </trkpt>
      <trkpt lat="47.80349" lon="-2.43198">
        <ele>67.4</ele>
        <time>2025-02-11T08:24:24Z</time>
      </trkpt>
      <trkpt lat="47.80349" lon="-2.432">
        <ele>67.4</ele>
        <time>2025-02-11T08:24:25Z</time>
      </trkpt>
      <trkpt lat="47.8035" lon="-2.43201">
        <ele>67.4</ele>
        <time>2025-02-11T08:24:26Z</time>
      </trkpt>
      <trkpt lat="47.8035" lon="-2.43203">
        <ele>67.4</ele>
        <time>2025-02-11T08:24:27Z</time>
      </trkpt>
      <trkpt lat="47.8035" lon="-2.43205">
        <ele>67.4</ele>
        <time>2025-02-11T08:24:28Z</time>
      </trkpt>
      <trkpt lat="47.80351" lon="-2.43206">
        <ele>67.4</ele>
        <time>2025-02-11T08:24:29Z</time>
      </trkpt>
      <trkpt lat="47.80351" lon="-2.43208">
        <ele>67.4</ele>
        <time>2025-02-11T08:24:30Z</time>
      </trkpt>
      <trkpt lat="47.80351" lon="-2.4321">
        <ele>67.3</ele>
        <time>2025-02-11T08:24:31Z</time>
      </trkpt>
      <trkpt lat="47.80351" lon="-2.43211">
        <ele>67.3</ele>
        <time>2025-02-11T08:24:32Z</time>
      </trkpt>
      <trkpt lat="47.80352" lon="-2.43213">
        <ele>67.3</ele>
        <time>2025-02-11T08:24:33Z</time>
      </trkpt>
      <trkpt lat="47.80352" lon="-2.43214">
        <ele>67.3</ele>
        <time>2025-02-11T08:24:34Z</time>
      </trkpt>
      <trkpt lat="47.80352" lon="-2.43216">
        <ele>67.3</ele>
        <time>2025-02-11T08:24:35Z</time>
      </trkpt>
      <trkpt lat="47.80352" lon="-2.43218">
        <ele>67.3</ele>
        <time>2025-02-11T08:24:36Z</time>
      </trkpt>
      <trkpt lat="47.80351" lon="-2.4322">
        <ele>67.3</ele>
        <time>2025-02-11T08:24:37Z</time>
      </trkpt>
      <trkpt lat="47.80351" lon="-2.43222">
        <ele>67.4</ele>
        <time>2025-02-11T08:24:38Z</time>
      </trkpt>
      <trkpt lat="47.80352" lon="-2.43223">
        <ele>67.4</ele>
        <time>2025-02-11T08:24:39Z</time>
      </trkpt>
      <trkpt lat="47.80352" lon="-2.43225">
        <ele>67.4</ele>
        <time>2025-02-11T08:24:40Z</time>
      </trkpt>
      <trkpt lat="47.80353" lon="-2.43226">
        <ele>67.4</ele>
        <time>2025-02-11T08:24:41Z</time>
      </trkpt>
      <trkpt lat="47.80354" lon="-2.43227">
        <ele>67.4</ele>
        <time>2025-02-11T08:24:42Z</time>
      </trkpt>
      <trkpt lat="47.80355" lon="-2.43227">
        <ele>67.4</ele>
        <time>2025-02-11T08:24:43Z</time>
      </trkpt>
      <trkpt lat="47.80357" lon="-2.43228">
        <ele>67.4</ele>
        <time>2025-02-11T08:24:44Z</time>
      </trkpt>
      <trkpt lat="47.80358" lon="-2.43229">
        <ele>67.4</ele>
        <time>2025-02-11T08:24:45Z</time>
      </trkpt>
      <trkpt lat="47.80358" lon="-2.4323">
        <ele>67.4</ele>
        <time>2025-02-11T08:24:46Z</time>
      </trkpt>
      <trkpt lat="47.80359" lon="-2.43231">
        <ele>67.4</ele>
        <time>2025-02-11T08:24:47Z</time>
      </trkpt>
      <trkpt lat="47.8036" lon="-2.43233">
        <ele>67.4</ele>
        <time>2025-02-11T08:24:48Z</time>
      </trkpt>
      <trkpt lat="47.8036" lon="-2.43234">
        <ele>67.5</ele>
        <time>2025-02-11T08:24:49Z</time>
      </trkpt>
      <trkpt lat="47.8036" lon="-2.43236">
        <ele>67.5</ele>
        <time>2025-02-11T08:24:50Z</time>
      </trkpt>
      <trkpt lat="47.80361" lon="-2.43237">
        <ele>67.5</ele>
        <time>2025-02-11T08:24:51Z</time>
      </trkpt>
      <trkpt lat="47.80362" lon="-2.43238">
        <ele>67.5</ele>
        <time>2025-02-11T08:24:52Z</time>
      </trkpt>
      <trkpt lat="47.80363" lon="-2.43239">
        <ele>67.6</ele>
        <time>2025-02-11T08:24:53Z</time>
      </trkpt>
      <trkpt lat="47.80364" lon="-2.4324">
        <ele>67.6</ele>
        <time>2025-02-11T08:24:54Z</time>
      </trkpt>
      <trkpt lat="47.80365" lon="-2.43241">
        <ele>67.6</ele>
        <time>2025-02-11T08:24:55Z</time>
      </trkpt>
      <trkpt lat="47.80365" lon="-2.43242">
        <ele>67.6</ele>
        <time>2025-02-11T08:24:56Z</time>
      </trkpt>
      <trkpt lat="47.80366" lon="-2.43244">
        <ele>67.6</ele>
        <time>2025-02-11T08:24:57Z</time>
      </trkpt>
      <trkpt lat="47.80366" lon="-2.43245">
        <ele>67.7</ele>
        <time>2025-02-11T08:24:58Z</time>
      </trkpt>
      <trkpt lat="47.80367" lon="-2.43246">
        <ele>67.7</ele>
        <time>2025-02-11T08:24:59Z</time>
      </trkpt>
      <trkpt lat="47.80369" lon="-2.43245">
        <ele>67.6</ele>
        <time>2025-02-11T08:25:00Z</time>
      </trkpt>
      <trkpt lat="47.80369" lon="-2.43244">
        <ele>67.6</ele>
        <time>2025-02-11T08:25:01Z</time>
      </trkpt>
      <trkpt lat="47.80369" lon="-2.43244">
        <ele>67.6</ele>
        <time>2025-02-11T08:25:02Z</time>
      </trkpt>
      <trkpt lat="47.80369" lon="-2.43244">
        <ele>67.6</ele>
        <time>2025-02-11T08:25:03Z</time>
      </trkpt>
      <trkpt lat="47.80369" lon="-2.43244">
        <ele>67.6</ele>
        <time>2025-02-11T08:25:04Z</time>
      </trkpt>
      <trkpt lat="47.8037" lon="-2.43243">
        <ele>67.5</ele>
        <time>2025-02-11T08:25:05Z</time>
      </trkpt>
      <trkpt lat="47.8037" lon="-2.43243">
        <ele>67.5</ele>
        <time>2025-02-11T08:25:06Z</time>
      </trkpt>
      <trkpt lat="47.80372" lon="-2.43243">
        <ele>67.4</ele>
        <time>2025-02-11T08:25:07Z</time>
      </trkpt>
      <trkpt lat="47.80373" lon="-2.43243">
        <ele>67.4</ele>
        <time>2025-02-11T08:25:08Z</time>
      </trkpt>
      <trkpt lat="47.80374" lon="-2.43244">
        <ele>67.4</ele>
        <time>2025-02-11T08:25:09Z</time>
      </trkpt>
      <trkpt lat="47.80375" lon="-2.43243">
        <ele>67.4</ele>
        <time>2025-02-11T08:25:10Z</time>
      </trkpt>
      <trkpt lat="47.80376" lon="-2.43242">
        <ele>67.3</ele>
        <time>2025-02-11T08:25:11Z</time>
      </trkpt>
      <trkpt lat="47.80376" lon="-2.43242">
        <ele>67.3</ele>
        <time>2025-02-11T08:25:12Z</time>
      </trkpt>
      <trkpt lat="47.80376" lon="-2.43241">
        <ele>67.3</ele>
        <time>2025-02-11T08:25:13Z</time>
      </trkpt>
      <trkpt lat="47.80377" lon="-2.4324">
        <ele>67.3</ele>
        <time>2025-02-11T08:25:14Z</time>
      </trkpt>
      <trkpt lat="47.80377" lon="-2.43239">
        <ele>67.2</ele>
        <time>2025-02-11T08:25:15Z</time>
      </trkpt>
      <trkpt lat="47.80378" lon="-2.43238">
        <ele>67.2</ele>
        <time>2025-02-11T08:25:16Z</time>
      </trkpt>
      <trkpt lat="47.80379" lon="-2.43237">
        <ele>67.2</ele>
        <time>2025-02-11T08:25:17Z</time>
      </trkpt>
      <trkpt lat="47.80379" lon="-2.43236">
        <ele>67.2</ele>
        <time>2025-02-11T08:25:18Z</time>
      </trkpt>
      <trkpt lat="47.80378" lon="-2.43238">
        <ele>67.2</ele>
        <time>2025-02-11T08:25:19Z</time>
      </trkpt>
      <trkpt lat="47.80378" lon="-2.43239">
        <ele>67.2</ele>
        <time>2025-02-11T08:25:20Z</time>
      </trkpt>
      <trkpt lat="47.80378" lon="-2.43239">
        <ele>67.2</ele>
        <time>2025-02-11T08:25:21Z</time>
      </trkpt>
      <trkpt lat="47.80378" lon="-2.43239">
        <ele>67.2</ele>
        <time>2025-02-11T08:25:22Z</time>
      </trkpt>
      <trkpt lat="47.80378" lon="-2.43239">
        <ele>67.2</ele>
        <time>2025-02-11T08:25:23Z</time>
      </trkpt>
      <trkpt lat="47.80378" lon="-2.43239">
        <ele>67.2</ele>
        <time>2025-02-11T08:25:24Z</time>
      </trkpt>
      <trkpt lat="47.80378" lon="-2.43239">
        <ele>67.2</ele>
        <time>2025-02-11T08:25:25Z</time>
      </trkpt>
      <trkpt lat="47.80378" lon="-2.43239">
        <ele>67.2</ele>
        <time>2025-02-11T08:25:26Z</time>
      </trkpt>
      <trkpt lat="47.80378" lon="-2.43238">
        <ele>67.2</ele>
        <time>2025-02-11T08:25:27Z</time>
      </trkpt>
      <trkpt lat="47.80378" lon="-2.43237">
        <ele>67.2</ele>
        <time>2025-02-11T08:25:28Z</time>
      </trkpt>
      <trkpt lat="47.80379" lon="-2.43235">
        <ele>67.2</ele>
        <time>2025-02-11T08:25:29Z</time>
      </trkpt>
      <trkpt lat="47.8038" lon="-2.43233">
        <ele>67.1</ele>
        <time>2025-02-11T08:25:30Z</time>
      </trkpt>
      <trkpt lat="47.80381" lon="-2.43232">
        <ele>67.1</ele>
        <time>2025-02-11T08:25:31Z</time>
      </trkpt>
      <trkpt lat="47.80382" lon="-2.4323">
        <ele>67.1</ele>
        <time>2025-02-11T08:25:32Z</time>
      </trkpt>
      <trkpt lat="47.80383" lon="-2.43228">
        <ele>67</ele>
        <time>2025-02-11T08:25:33Z</time>
      </trkpt>
      <trkpt lat="47.80383" lon="-2.43226">
        <ele>67</ele>
        <time>2025-02-11T08:25:34Z</time>
      </trkpt>
      <trkpt lat="47.80384" lon="-2.43225">
        <ele>67</ele>
        <time>2025-02-11T08:25:35Z</time>
      </trkpt>
      <trkpt lat="47.80384" lon="-2.43223">
        <ele>67</ele>
        <time>2025-02-11T08:25:36Z</time>
      </trkpt>
      <trkpt lat="47.80383" lon="-2.43222">
        <ele>67</ele>
        <time>2025-02-11T08:25:37Z</time>
      </trkpt>
      <trkpt lat="47.80383" lon="-2.43219">
        <ele>66.9</ele>
        <time>2025-02-11T08:25:38Z</time>
      </trkpt>
      <trkpt lat="47.80385" lon="-2.4322">
        <ele>66.9</ele>
        <time>2025-02-11T08:25:39Z</time>
      </trkpt>
      <trkpt lat="47.80386" lon="-2.43219">
        <ele>66.9</ele>
        <time>2025-02-11T08:25:40Z</time>
      </trkpt>
      <trkpt lat="47.80387" lon="-2.43219">
        <ele>66.9</ele>
        <time>2025-02-11T08:25:41Z</time>
      </trkpt>
      <trkpt lat="47.80389" lon="-2.43219">
        <ele>66.9</ele>
        <time>2025-02-11T08:25:42Z</time>
      </trkpt>
      <trkpt lat="47.8039" lon="-2.43218">
        <ele>66.8</ele>
        <time>2025-02-11T08:25:43Z</time>
      </trkpt>
      <trkpt lat="47.80391" lon="-2.43217">
        <ele>66.8</ele>
        <time>2025-02-11T08:25:44Z</time>
      </trkpt>
      <trkpt lat="47.80393" lon="-2.43217">
        <ele>66.7</ele>
        <time>2025-02-11T08:25:45Z</time>
      </trkpt>
      <trkpt lat="47.80394" lon="-2.43216">
        <ele>66.6</ele>
        <time>2025-02-11T08:25:46Z</time>
      </trkpt>
      <trkpt lat="47.80395" lon="-2.43216">
        <ele>66.6</ele>
        <time>2025-02-11T08:25:47Z</time>
      </trkpt>
      <trkpt lat="47.80396" lon="-2.43215">
        <ele>66.6</ele>
        <time>2025-02-11T08:25:48Z</time>
      </trkpt>
      <trkpt lat="47.80397" lon="-2.43214">
        <ele>66.5</ele>
        <time>2025-02-11T08:25:49Z</time>
      </trkpt>
      <trkpt lat="47.80398" lon="-2.43213">
        <ele>66.4</ele>
        <time>2025-02-11T08:25:50Z</time>
      </trkpt>
      <trkpt lat="47.80399" lon="-2.43211">
        <ele>66.4</ele>
        <time>2025-02-11T08:25:51Z</time>
      </trkpt>
      <trkpt lat="47.804" lon="-2.43211">
        <ele>66.3</ele>
        <time>2025-02-11T08:25:52Z</time>
      </trkpt>
      <trkpt lat="47.80401" lon="-2.4321">
        <ele>66.3</ele>
        <time>2025-02-11T08:25:53Z</time>
      </trkpt>
      <trkpt lat="47.80403" lon="-2.4321">
        <ele>66.3</ele>
        <time>2025-02-11T08:25:54Z</time>
      </trkpt>
      <trkpt lat="47.80404" lon="-2.43209">
        <ele>66.2</ele>
        <time>2025-02-11T08:25:55Z</time>
      </trkpt>
      <trkpt lat="47.80405" lon="-2.43208">
        <ele>66.2</ele>
        <time>2025-02-11T08:25:56Z</time>
      </trkpt>
      <trkpt lat="47.80406" lon="-2.43207">
        <ele>66.2</ele>
        <time>2025-02-11T08:25:57Z</time>
      </trkpt>
      <trkpt lat="47.80407" lon="-2.43207">
        <ele>66.2</ele>
        <time>2025-02-11T08:25:58Z</time>
      </trkpt>
      <trkpt lat="47.80408" lon="-2.43206">
        <ele>66.1</ele>
        <time>2025-02-11T08:25:59Z</time>
      </trkpt>
      <trkpt lat="47.80409" lon="-2.43205">
        <ele>66.1</ele>
        <time>2025-02-11T08:26:00Z</time>
      </trkpt>
      <trkpt lat="47.8041" lon="-2.43204">
        <ele>66.1</ele>
        <time>2025-02-11T08:26:01Z</time>
      </trkpt>
      <trkpt lat="47.80411" lon="-2.43203">
        <ele>66.1</ele>
        <time>2025-02-11T08:26:02Z</time>
      </trkpt>
      <trkpt lat="47.80412" lon="-2.43202">
        <ele>66</ele>
        <time>2025-02-11T08:26:03Z</time>
      </trkpt>
      <trkpt lat="47.80413" lon="-2.43201">
        <ele>66</ele>
        <time>2025-02-11T08:26:04Z</time>
      </trkpt>
      <trkpt lat="47.80414" lon="-2.43199">
        <ele>66</ele>
        <time>2025-02-11T08:26:05Z</time>
      </trkpt>
      <trkpt lat="47.80414" lon="-2.43198">
        <ele>66</ele>
        <time>2025-02-11T08:26:06Z</time>
      </trkpt>
      <trkpt lat="47.80415" lon="-2.43197">
        <ele>66</ele>
        <time>2025-02-11T08:26:07Z</time>
      </trkpt>
      <trkpt lat="47.80416" lon="-2.43196">
        <ele>66</ele>
        <time>2025-02-11T08:26:08Z</time>
      </trkpt>
      <trkpt lat="47.80416" lon="-2.43195">
        <ele>66</ele>
        <time>2025-02-11T08:26:09Z</time>
      </trkpt>
      <trkpt lat="47.80417" lon="-2.43194">
        <ele>66</ele>
        <time>2025-02-11T08:26:10Z</time>
      </trkpt>
      <trkpt lat="47.80418" lon="-2.43194">
        <ele>66</ele>
        <time>2025-02-11T08:26:11Z</time>
      </trkpt>
      <trkpt lat="47.80418" lon="-2.43192">
        <ele>66.1</ele>
        <time>2025-02-11T08:26:12Z</time>
      </trkpt>
      <trkpt lat="47.80419" lon="-2.43191">
        <ele>66.1</ele>
        <time>2025-02-11T08:26:13Z</time>
      </trkpt>
      <trkpt lat="47.8042" lon="-2.43189">
        <ele>66.1</ele>
        <time>2025-02-11T08:26:14Z</time>
      </trkpt>
      <trkpt lat="47.8042" lon="-2.43188">
        <ele>66.1</ele>
        <time>2025-02-11T08:26:15Z</time>
      </trkpt>
      <trkpt lat="47.80421" lon="-2.43187">
        <ele>66.1</ele>
        <time>2025-02-11T08:26:16Z</time>
      </trkpt>
      <trkpt lat="47.80422" lon="-2.43186">
        <ele>66.1</ele>
        <time>2025-02-11T08:26:17Z</time>
      </trkpt>
      <trkpt lat="47.80422" lon="-2.43185">
        <ele>66.1</ele>
        <time>2025-02-11T08:26:18Z</time>
      </trkpt>
      <trkpt lat="47.80423" lon="-2.43183">
        <ele>66.1</ele>
        <time>2025-02-11T08:26:19Z</time>
      </trkpt>
      <trkpt lat="47.80423" lon="-2.43182">
        <ele>66.1</ele>
        <time>2025-02-11T08:26:20Z</time>
      </trkpt>
      <trkpt lat="47.80424" lon="-2.43181">
        <ele>66.1</ele>
        <time>2025-02-11T08:26:21Z</time>
      </trkpt>
      <trkpt lat="47.80425" lon="-2.43179">
        <ele>66.1</ele>
        <time>2025-02-11T08:26:22Z</time>
      </trkpt>
      <trkpt lat="47.80426" lon="-2.43178">
        <ele>66.1</ele>
        <time>2025-02-11T08:26:23Z</time>
      </trkpt>
      <trkpt lat="47.80427" lon="-2.43176">
        <ele>66.1</ele>
        <time>2025-02-11T08:26:24Z</time>
      </trkpt>
      <trkpt lat="47.80427" lon="-2.43174">
        <ele>66.1</ele>
        <time>2025-02-11T08:26:25Z</time>
      </trkpt>
      <trkpt lat="47.80428" lon="-2.43172">
        <ele>66.1</ele>
        <time>2025-02-11T08:26:26Z</time>
      </trkpt>
      <trkpt lat="47.80429" lon="-2.43169">
        <ele>66</ele>
        <time>2025-02-11T08:26:27Z</time>
      </trkpt>
      <trkpt lat="47.8043" lon="-2.43167">
        <ele>66</ele>
        <time>2025-02-11T08:26:28Z</time>
      </trkpt>
      <trkpt lat="47.8043" lon="-2.43165">
        <ele>66</ele>
        <time>2025-02-11T08:26:29Z</time>
      </trkpt>
      <trkpt lat="47.8043" lon="-2.43163">
        <ele>65.9</ele>
        <time>2025-02-11T08:26:30Z</time>
      </trkpt>
      <trkpt lat="47.8043" lon="-2.43162">
        <ele>65.9</ele>
        <time>2025-02-11T08:26:31Z</time>
      </trkpt>
      <trkpt lat="47.80431" lon="-2.4316">
        <ele>65.9</ele>
        <time>2025-02-11T08:26:32Z</time>
      </trkpt>
      <trkpt lat="47.80431" lon="-2.43158">
        <ele>65.8</ele>
        <time>2025-02-11T08:26:33Z</time>
      </trkpt>
      <trkpt lat="47.80431" lon="-2.43156">
        <ele>65.8</ele>
        <time>2025-02-11T08:26:34Z</time>
      </trkpt>
      <trkpt lat="47.80431" lon="-2.43155">
        <ele>65.8</ele>
        <time>2025-02-11T08:26:35Z</time>
      </trkpt>
      <trkpt lat="47.80431" lon="-2.43153">
        <ele>65.8</ele>
        <time>2025-02-11T08:26:36Z</time>
      </trkpt>
      <trkpt lat="47.80432" lon="-2.43151">
        <ele>65.7</ele>
        <time>2025-02-11T08:26:37Z</time>
      </trkpt>
      <trkpt lat="47.80432" lon="-2.43149">
        <ele>65.7</ele>
        <time>2025-02-11T08:26:38Z</time>
      </trkpt>
      <trkpt lat="47.80433" lon="-2.43148">
        <ele>65.7</ele>
        <time>2025-02-11T08:26:39Z</time>
      </trkpt>
      <trkpt lat="47.80433" lon="-2.43146">
        <ele>65.7</ele>
        <time>2025-02-11T08:26:40Z</time>
      </trkpt>
      <trkpt lat="47.80433" lon="-2.43144">
        <ele>65.7</ele>
        <time>2025-02-11T08:26:41Z</time>
      </trkpt>
      <trkpt lat="47.80433" lon="-2.43143">
        <ele>65.7</ele>
        <time>2025-02-11T08:26:42Z</time>
      </trkpt>
      <trkpt lat="47.80433" lon="-2.43141">
        <ele>65.6</ele>
        <time>2025-02-11T08:26:43Z</time>
      </trkpt>
      <trkpt lat="47.80434" lon="-2.43139">
        <ele>65.6</ele>
        <time>2025-02-11T08:26:44Z</time>
      </trkpt>
      <trkpt lat="47.80433" lon="-2.43137">
        <ele>65.6</ele>
        <time>2025-02-11T08:26:45Z</time>
      </trkpt>
      <trkpt lat="47.80433" lon="-2.43135">
        <ele>65.5</ele>
        <time>2025-02-11T08:26:46Z</time>
      </trkpt>
      <trkpt lat="47.80433" lon="-2.43133">
        <ele>65.5</ele>
        <time>2025-02-11T08:26:47Z</time>
      </trkpt>
      <trkpt lat="47.80433" lon="-2.43131">
        <ele>65.4</ele>
        <time>2025-02-11T08:26:48Z</time>
      </trkpt>
      <trkpt lat="47.80432" lon="-2.43129">
        <ele>65.4</ele>
        <time>2025-02-11T08:26:49Z</time>
      </trkpt>
      <trkpt lat="47.80432" lon="-2.43128">
        <ele>65.3</ele>
        <time>2025-02-11T08:26:50Z</time>
      </trkpt>
      <trkpt lat="47.80432" lon="-2.43126">
        <ele>65.3</ele>
        <time>2025-02-11T08:26:51Z</time>
      </trkpt>
      <trkpt lat="47.80432" lon="-2.43124">
        <ele>65.3</ele>
        <time>2025-02-11T08:26:52Z</time>
      </trkpt>
      <trkpt lat="47.80433" lon="-2.43122">
        <ele>65.2</ele>
        <time>2025-02-11T08:26:53Z</time>
      </trkpt>
      <trkpt lat="47.80433" lon="-2.4312">
        <ele>65.2</ele>
        <time>2025-02-11T08:26:54Z</time>
      </trkpt>
      <trkpt lat="47.80434" lon="-2.43118">
        <ele>65.2</ele>
        <time>2025-02-11T08:26:55Z</time>
      </trkpt>
      <trkpt lat="47.80435" lon="-2.43117">
        <ele>65.1</ele>
        <time>2025-02-11T08:26:56Z</time>
      </trkpt>
      <trkpt lat="47.80436" lon="-2.43115">
        <ele>65.1</ele>
        <time>2025-02-11T08:26:57Z</time>
      </trkpt>
      <trkpt lat="47.80437" lon="-2.43114">
        <ele>65.1</ele>
        <time>2025-02-11T08:26:58Z</time>
      </trkpt>
      <trkpt lat="47.80437" lon="-2.43112">
        <ele>65</ele>
        <time>2025-02-11T08:26:59Z</time>
      </trkpt>
      <trkpt lat="47.80438" lon="-2.43111">
        <ele>65</ele>
        <time>2025-02-11T08:27:00Z</time>
      </trkpt>
      <trkpt lat="47.8044" lon="-2.4311">
        <ele>65</ele>
        <time>2025-02-11T08:27:01Z</time>
      </trkpt>
      <trkpt lat="47.80441" lon="-2.43108">
        <ele>65</ele>
        <time>2025-02-11T08:27:02Z</time>
      </trkpt>
      <trkpt lat="47.80441" lon="-2.43106">
        <ele>65</ele>
        <time>2025-02-11T08:27:03Z</time>
      </trkpt>
      <trkpt lat="47.80441" lon="-2.43104">
        <ele>65</ele>
        <time>2025-02-11T08:27:04Z</time>
      </trkpt>
      <trkpt lat="47.80441" lon="-2.43102">
        <ele>65</ele>
        <time>2025-02-11T08:27:05Z</time>
      </trkpt>
      <trkpt lat="47.80441" lon="-2.431">
        <ele>65</ele>
        <time>2025-02-11T08:27:06Z</time>
      </trkpt>
      <trkpt lat="47.80441" lon="-2.43098">
        <ele>65</ele>
        <time>2025-02-11T08:27:07Z</time>
      </trkpt>
      <trkpt lat="47.80441" lon="-2.43097">
        <ele>65</ele>
        <time>2025-02-11T08:27:08Z</time>
      </trkpt>
      <trkpt lat="47.80441" lon="-2.43095">
        <ele>65</ele>
        <time>2025-02-11T08:27:09Z</time>
      </trkpt>
      <trkpt lat="47.80441" lon="-2.43093">
        <ele>65</ele>
        <time>2025-02-11T08:27:10Z</time>
      </trkpt>
      <trkpt lat="47.80441" lon="-2.43091">
        <ele>65</ele>
        <time>2025-02-11T08:27:11Z</time>
      </trkpt>
      <trkpt lat="47.8044" lon="-2.4309">
        <ele>65</ele>
        <time>2025-02-11T08:27:12Z</time>
      </trkpt>
      <trkpt lat="47.8044" lon="-2.43088">
        <ele>65</ele>
        <time>2025-02-11T08:27:13Z</time>
      </trkpt>
      <trkpt lat="47.8044" lon="-2.43086">
        <ele>65</ele>
        <time>2025-02-11T08:27:14Z</time>
      </trkpt>
      <trkpt lat="47.8044" lon="-2.43084">
        <ele>65</ele>
        <time>2025-02-11T08:27:15Z</time>
      </trkpt>
      <trkpt lat="47.80439" lon="-2.43082">
        <ele>65</ele>
        <time>2025-02-11T08:27:16Z</time>
      </trkpt>
      <trkpt lat="47.8044" lon="-2.4308">
        <ele>65</ele>
        <time>2025-02-11T08:27:17Z</time>
      </trkpt>
      <trkpt lat="47.8044" lon="-2.43078">
        <ele>65</ele>
        <time>2025-02-11T08:27:18Z</time>
      </trkpt>
      <trkpt lat="47.8044" lon="-2.43076">
        <ele>65</ele>
        <time>2025-02-11T08:27:19Z</time>
      </trkpt>
      <trkpt lat="47.80439" lon="-2.43074">
        <ele>64.9</ele>
        <time>2025-02-11T08:27:20Z</time>
      </trkpt>
      <trkpt lat="47.80439" lon="-2.43072">
        <ele>64.9</ele>
        <time>2025-02-11T08:27:21Z</time>
      </trkpt>
      <trkpt lat="47.80439" lon="-2.43071">
        <ele>64.9</ele>
        <time>2025-02-11T08:27:22Z</time>
      </trkpt>
      <trkpt lat="47.80439" lon="-2.43068">
        <ele>64.9</ele>
        <time>2025-02-11T08:27:23Z</time>
      </trkpt>
      <trkpt lat="47.80439" lon="-2.43066">
        <ele>64.9</ele>
        <time>2025-02-11T08:27:24Z</time>
      </trkpt>
      <trkpt lat="47.80439" lon="-2.43064">
        <ele>64.9</ele>
        <time>2025-02-11T08:27:25Z</time>
      </trkpt>
      <trkpt lat="47.80439" lon="-2.43062">
        <ele>64.8</ele>
        <time>2025-02-11T08:27:26Z</time>
      </trkpt>
      <trkpt lat="47.80439" lon="-2.4306">
        <ele>64.8</ele>
        <time>2025-02-11T08:27:27Z</time>
      </trkpt>
      <trkpt lat="47.80438" lon="-2.43058">
        <ele>64.8</ele>
        <time>2025-02-11T08:27:28Z</time>
      </trkpt>
      <trkpt lat="47.80437" lon="-2.43056">
        <ele>64.7</ele>
        <time>2025-02-11T08:27:29Z</time>
      </trkpt>
      <trkpt lat="47.80437" lon="-2.43054">
        <ele>64.7</ele>
        <time>2025-02-11T08:27:30Z</time>
      </trkpt>
      <trkpt lat="47.80436" lon="-2.43053">
        <ele>64.6</ele>
        <time>2025-02-11T08:27:31Z</time>
      </trkpt>
      <trkpt lat="47.80435" lon="-2.43051">
        <ele>64.6</ele>
        <time>2025-02-11T08:27:32Z</time>
      </trkpt>
      <trkpt lat="47.80434" lon="-2.4305">
        <ele>64.5</ele>
        <time>2025-02-11T08:27:33Z</time>
      </trkpt>
      <trkpt lat="47.80433" lon="-2.43049">
        <ele>64.4</ele>
        <time>2025-02-11T08:27:34Z</time>
      </trkpt>
      <trkpt lat="47.80432" lon="-2.43046">
        <ele>64.4</ele>
        <time>2025-02-11T08:27:35Z</time>
      </trkpt>
      <trkpt lat="47.80431" lon="-2.43044">
        <ele>64.3</ele>
        <time>2025-02-11T08:27:36Z</time>
      </trkpt>
      <trkpt lat="47.80432" lon="-2.43042">
        <ele>64.3</ele>
        <time>2025-02-11T08:27:37Z</time>
      </trkpt>
      <trkpt lat="47.80432" lon="-2.4304">
        <ele>64.2</ele>
        <time>2025-02-11T08:27:38Z</time>
      </trkpt>
      <trkpt lat="47.80433" lon="-2.43038">
        <ele>64.2</ele>
        <time>2025-02-11T08:27:39Z</time>
      </trkpt>
      <trkpt lat="47.80433" lon="-2.43036">
        <ele>64.2</ele>
        <time>2025-02-11T08:27:40Z</time>
      </trkpt>
      <trkpt lat="47.80433" lon="-2.43035">
        <ele>64.1</ele>
        <time>2025-02-11T08:27:41Z</time>
      </trkpt>
      <trkpt lat="47.80433" lon="-2.43033">
        <ele>64.1</ele>
        <time>2025-02-11T08:27:42Z</time>
      </trkpt>
      <trkpt lat="47.80433" lon="-2.43031">
        <ele>64.1</ele>
        <time>2025-02-11T08:27:43Z</time>
      </trkpt>
      <trkpt lat="47.80433" lon="-2.43029">
        <ele>64</ele>
        <time>2025-02-11T08:27:44Z</time>
      </trkpt>
      <trkpt lat="47.80433" lon="-2.43027">
        <ele>64</ele>
        <time>2025-02-11T08:27:45Z</time>
      </trkpt>
      <trkpt lat="47.80433" lon="-2.43025">
        <ele>64</ele>
        <time>2025-02-11T08:27:46Z</time>
      </trkpt>
      <trkpt lat="47.80433" lon="-2.43023">
        <ele>63.9</ele>
        <time>2025-02-11T08:27:47Z</time>
      </trkpt>
      <trkpt lat="47.80433" lon="-2.43021">
        <ele>63.9</ele>
        <time>2025-02-11T08:27:48Z</time>
      </trkpt>
      <trkpt lat="47.80433" lon="-2.4302">
        <ele>63.9</ele>
        <time>2025-02-11T08:27:49Z</time>
      </trkpt>
      <trkpt lat="47.80433" lon="-2.43018">
        <ele>63.8</ele>
        <time>2025-02-11T08:27:50Z</time>
      </trkpt>
      <trkpt lat="47.80433" lon="-2.43016">
        <ele>63.8</ele>
        <time>2025-02-11T08:27:51Z</time>
      </trkpt>
      <trkpt lat="47.80433" lon="-2.43014">
        <ele>63.8</ele>
        <time>2025-02-11T08:27:52Z</time>
      </trkpt>
      <trkpt lat="47.80433" lon="-2.43012">
        <ele>63.8</ele>
        <time>2025-02-11T08:27:53Z</time>
      </trkpt>
      <trkpt lat="47.80433" lon="-2.4301">
        <ele>63.7</ele>
        <time>2025-02-11T08:27:54Z</time>
      </trkpt>
      <trkpt lat="47.80433" lon="-2.43008">
        <ele>63.7</ele>
        <time>2025-02-11T08:27:55Z</time>
      </trkpt>
      <trkpt lat="47.80433" lon="-2.43006">
        <ele>63.7</ele>
        <time>2025-02-11T08:27:56Z</time>
      </trkpt>
      <trkpt lat="47.80433" lon="-2.43005">
        <ele>63.7</ele>
        <time>2025-02-11T08:27:57Z</time>
      </trkpt>
      <trkpt lat="47.80433" lon="-2.43003">
        <ele>63.6</ele>
        <time>2025-02-11T08:27:58Z</time>
      </trkpt>
      <trkpt lat="47.80433" lon="-2.43001">
        <ele>63.6</ele>
        <time>2025-02-11T08:27:59Z</time>
      </trkpt>
      <trkpt lat="47.80433" lon="-2.42999">
        <ele>63.6</ele>
        <time>2025-02-11T08:28:00Z</time>
      </trkpt>
      <trkpt lat="47.80433" lon="-2.42998">
        <ele>63.6</ele>
        <time>2025-02-11T08:28:01Z</time>
      </trkpt>
      <trkpt lat="47.80433" lon="-2.42996">
        <ele>63.6</ele>
        <time>2025-02-11T08:28:02Z</time>
      </trkpt>
      <trkpt lat="47.80433" lon="-2.42994">
        <ele>63.6</ele>
        <time>2025-02-11T08:28:03Z</time>
      </trkpt>
      <trkpt lat="47.80433" lon="-2.42992">
        <ele>63.6</ele>
        <time>2025-02-11T08:28:04Z</time>
      </trkpt>
      <trkpt lat="47.80433" lon="-2.42991">
        <ele>63.6</ele>
        <time>2025-02-11T08:28:05Z</time>
      </trkpt>
      <trkpt lat="47.80433" lon="-2.42989">
        <ele>63.6</ele>
        <time>2025-02-11T08:28:06Z</time>
      </trkpt>
      <trkpt lat="47.80433" lon="-2.42987">
        <ele>63.6</ele>
        <time>2025-02-11T08:28:07Z</time>
      </trkpt>
      <trkpt lat="47.80433" lon="-2.42985">
        <ele>63.6</ele>
        <time>2025-02-11T08:28:08Z</time>
      </trkpt>
      <trkpt lat="47.80433" lon="-2.42983">
        <ele>63.6</ele>
        <time>2025-02-11T08:28:09Z</time>
      </trkpt>
      <trkpt lat="47.80433" lon="-2.42982">
        <ele>63.6</ele>
        <time>2025-02-11T08:28:10Z</time>
      </trkpt>
      <trkpt lat="47.80432" lon="-2.4298">
        <ele>63.6</ele>
        <time>2025-02-11T08:28:11Z</time>
      </trkpt>
      <trkpt lat="47.80432" lon="-2.42978">
        <ele>63.6</ele>
        <time>2025-02-11T08:28:12Z</time>
      </trkpt>
      <trkpt lat="47.80432" lon="-2.42977">
        <ele>63.6</ele>
        <time>2025-02-11T08:28:13Z</time>
      </trkpt>
      <trkpt lat="47.80432" lon="-2.42975">
        <ele>63.6</ele>
        <time>2025-02-11T08:28:14Z</time>
      </trkpt>
      <trkpt lat="47.80432" lon="-2.42973">
        <ele>63.6</ele>
        <time>2025-02-11T08:28:15Z</time>
      </trkpt>
      <trkpt lat="47.80432" lon="-2.42971">
        <ele>63.5</ele>
        <time>2025-02-11T08:28:16Z</time>
      </trkpt>
      <trkpt lat="47.80432" lon="-2.4297">
        <ele>63.5</ele>
        <time>2025-02-11T08:28:17Z</time>
      </trkpt>
      <trkpt lat="47.80432" lon="-2.42968">
        <ele>63.5</ele>
        <time>2025-02-11T08:28:18Z</time>
      </trkpt>
      <trkpt lat="47.80432" lon="-2.42966">
        <ele>63.4</ele>
        <time>2025-02-11T08:28:19Z</time>
      </trkpt>
      <trkpt lat="47.80432" lon="-2.42964">
        <ele>63.4</ele>
        <time>2025-02-11T08:28:20Z</time>
      </trkpt>
      <trkpt lat="47.80432" lon="-2.42962">
        <ele>63.3</ele>
        <time>2025-02-11T08:28:21Z</time>
      </trkpt>
      <trkpt lat="47.80432" lon="-2.4296">
        <ele>63.3</ele>
        <time>2025-02-11T08:28:22Z</time>
      </trkpt>
      <trkpt lat="47.80431" lon="-2.42959">
        <ele>63.3</ele>
        <time>2025-02-11T08:28:23Z</time>
      </trkpt>
      <trkpt lat="47.80431" lon="-2.42957">
        <ele>63.2</ele>
        <time>2025-02-11T08:28:24Z</time>
      </trkpt>
      <trkpt lat="47.80431" lon="-2.42955">
        <ele>63.2</ele>
        <time>2025-02-11T08:28:25Z</time>
      </trkpt>
      <trkpt lat="47.80431" lon="-2.42953">
        <ele>63.2</ele>
        <time>2025-02-11T08:28:26Z</time>
      </trkpt>
      <trkpt lat="47.80431" lon="-2.42951">
        <ele>63.1</ele>
        <time>2025-02-11T08:28:27Z</time>
      </trkpt>
      <trkpt lat="47.80431" lon="-2.42949">
        <ele>63.1</ele>
        <time>2025-02-11T08:28:28Z</time>
      </trkpt>
      <trkpt lat="47.80432" lon="-2.42947">
        <ele>63.1</ele>
        <time>2025-02-11T08:28:29Z</time>
      </trkpt>
      <trkpt lat="47.80432" lon="-2.42946">
        <ele>63</ele>
        <time>2025-02-11T08:28:30Z</time>
      </trkpt>
      <trkpt lat="47.80432" lon="-2.42944">
        <ele>63</ele>
        <time>2025-02-11T08:28:31Z</time>
      </trkpt>
      <trkpt lat="47.80432" lon="-2.42942">
        <ele>63</ele>
        <time>2025-02-11T08:28:32Z</time>
      </trkpt>
      <trkpt lat="47.80432" lon="-2.42941">
        <ele>63</ele>
        <time>2025-02-11T08:28:33Z</time>
      </trkpt>
      <trkpt lat="47.80432" lon="-2.42939">
        <ele>63</ele>
        <time>2025-02-11T08:28:34Z</time>
      </trkpt>
      <trkpt lat="47.80431" lon="-2.42937">
        <ele>63</ele>
        <time>2025-02-11T08:28:35Z</time>
      </trkpt>
      <trkpt lat="47.80431" lon="-2.42936">
        <ele>63</ele>
        <time>2025-02-11T08:28:36Z</time>
      </trkpt>
      <trkpt lat="47.80432" lon="-2.42934">
        <ele>63</ele>
        <time>2025-02-11T08:28:37Z</time>
      </trkpt>
      <trkpt lat="47.80432" lon="-2.42932">
        <ele>63</ele>
        <time>2025-02-11T08:28:38Z</time>
      </trkpt>
      <trkpt lat="47.80432" lon="-2.4293">
        <ele>63</ele>
        <time>2025-02-11T08:28:39Z</time>
      </trkpt>
      <trkpt lat="47.80432" lon="-2.42928">
        <ele>63</ele>
        <time>2025-02-11T08:28:40Z</time>
      </trkpt>
      <trkpt lat="47.80432" lon="-2.42927">
        <ele>63</ele>
        <time>2025-02-11T08:28:41Z</time>
      </trkpt>
      <trkpt lat="47.80432" lon="-2.42925">
        <ele>63</ele>
        <time>2025-02-11T08:28:42Z</time>
      </trkpt>
      <trkpt lat="47.80431" lon="-2.42923">
        <ele>63</ele>
        <time>2025-02-11T08:28:43Z</time>
      </trkpt>
      <trkpt lat="47.80431" lon="-2.42922">
        <ele>63</ele>
        <time>2025-02-11T08:28:44Z</time>
      </trkpt>
      <trkpt lat="47.80431" lon="-2.4292">
        <ele>63</ele>
        <time>2025-02-11T08:28:45Z</time>
      </trkpt>
      <trkpt lat="47.80431" lon="-2.42918">
        <ele>63</ele>
        <time>2025-02-11T08:28:46Z</time>
      </trkpt>
      <trkpt lat="47.80431" lon="-2.42917">
        <ele>63</ele>
        <time>2025-02-11T08:28:47Z</time>
      </trkpt>
      <trkpt lat="47.80431" lon="-2.42915">
        <ele>63</ele>
        <time>2025-02-11T08:28:48Z</time>
      </trkpt>
      <trkpt lat="47.80431" lon="-2.42913">
        <ele>62.9</ele>
        <time>2025-02-11T08:28:49Z</time>
      </trkpt>
      <trkpt lat="47.80431" lon="-2.42911">
        <ele>62.9</ele>
        <time>2025-02-11T08:28:50Z</time>
      </trkpt>
      <trkpt lat="47.80431" lon="-2.42909">
        <ele>62.9</ele>
        <time>2025-02-11T08:28:51Z</time>
      </trkpt>
      <trkpt lat="47.80431" lon="-2.42907">
        <ele>62.8</ele>
        <time>2025-02-11T08:28:52Z</time>
      </trkpt>
      <trkpt lat="47.80431" lon="-2.42906">
        <ele>62.8</ele>
        <time>2025-02-11T08:28:53Z</time>
      </trkpt>
      <trkpt lat="47.80431" lon="-2.42904">
        <ele>62.8</ele>
        <time>2025-02-11T08:28:54Z</time>
      </trkpt>
      <trkpt lat="47.80431" lon="-2.42903">
        <ele>62.7</ele>
        <time>2025-02-11T08:28:55Z</time>
      </trkpt>
      <trkpt lat="47.80431" lon="-2.42901">
        <ele>62.7</ele>
        <time>2025-02-11T08:28:56Z</time>
      </trkpt>
      <trkpt lat="47.80431" lon="-2.42899">
        <ele>62.7</ele>
        <time>2025-02-11T08:28:57Z</time>
      </trkpt>
      <trkpt lat="47.80431" lon="-2.42897">
        <ele>62.6</ele>
        <time>2025-02-11T08:28:58Z</time>
      </trkpt>
      <trkpt lat="47.80431" lon="-2.42895">
        <ele>62.6</ele>
        <time>2025-02-11T08:28:59Z</time>
      </trkpt>
      <trkpt lat="47.80431" lon="-2.42893">
        <ele>62.6</ele>
        <time>2025-02-11T08:29:00Z</time>
      </trkpt>
      <trkpt lat="47.8043" lon="-2.42892">
        <ele>62.5</ele>
        <time>2025-02-11T08:29:01Z</time>
      </trkpt>
      <trkpt lat="47.8043" lon="-2.4289">
        <ele>62.5</ele>
        <time>2025-02-11T08:29:02Z</time>
      </trkpt>
      <trkpt lat="47.8043" lon="-2.42888">
        <ele>62.5</ele>
        <time>2025-02-11T08:29:03Z</time>
      </trkpt>
      <trkpt lat="47.8043" lon="-2.42886">
        <ele>62.4</ele>
        <time>2025-02-11T08:29:04Z</time>
      </trkpt>
      <trkpt lat="47.80429" lon="-2.42884">
        <ele>62.4</ele>
        <time>2025-02-11T08:29:05Z</time>
      </trkpt>
      <trkpt lat="47.8043" lon="-2.42882">
        <ele>62.4</ele>
        <time>2025-02-11T08:29:06Z</time>
      </trkpt>
      <trkpt lat="47.8043" lon="-2.4288">
        <ele>62.3</ele>
        <time>2025-02-11T08:29:07Z</time>
      </trkpt>
      <trkpt lat="47.8043" lon="-2.42879">
        <ele>62.3</ele>
        <time>2025-02-11T08:29:08Z</time>
      </trkpt>
      <trkpt lat="47.8043" lon="-2.42877">
        <ele>62.3</ele>
        <time>2025-02-11T08:29:09Z</time>
      </trkpt>
      <trkpt lat="47.8043" lon="-2.42875">
        <ele>62.2</ele>
        <time>2025-02-11T08:29:10Z</time>
      </trkpt>
      <trkpt lat="47.8043" lon="-2.42873">
        <ele>62.2</ele>
        <time>2025-02-11T08:29:11Z</time>
      </trkpt>
      <trkpt lat="47.8043" lon="-2.42872">
        <ele>62.2</ele>
        <time>2025-02-11T08:29:12Z</time>
      </trkpt>
      <trkpt lat="47.8043" lon="-2.4287">
        <ele>62.1</ele>
        <time>2025-02-11T08:29:13Z</time>
      </trkpt>
      <trkpt lat="47.80429" lon="-2.42869">
        <ele>62.1</ele>
        <time>2025-02-11T08:29:14Z</time>
      </trkpt>
      <trkpt lat="47.80429" lon="-2.42867">
        <ele>62.1</ele>
        <time>2025-02-11T08:29:15Z</time>
      </trkpt>
      <trkpt lat="47.80429" lon="-2.42865">
        <ele>62.1</ele>
        <time>2025-02-11T08:29:16Z</time>
      </trkpt>
      <trkpt lat="47.80429" lon="-2.42863">
        <ele>62</ele>
        <time>2025-02-11T08:29:17Z</time>
      </trkpt>
      <trkpt lat="47.80429" lon="-2.42861">
        <ele>62</ele>
        <time>2025-02-11T08:29:18Z</time>
      </trkpt>
      <trkpt lat="47.80429" lon="-2.42859">
        <ele>62</ele>
        <time>2025-02-11T08:29:19Z</time>
      </trkpt>
      <trkpt lat="47.80429" lon="-2.42857">
        <ele>62</ele>
        <time>2025-02-11T08:29:20Z</time>
      </trkpt>
      <trkpt lat="47.80429" lon="-2.42855">
        <ele>62</ele>
        <time>2025-02-11T08:29:21Z</time>
      </trkpt>
      <trkpt lat="47.80429" lon="-2.42853">
        <ele>62</ele>
        <time>2025-02-11T08:29:22Z</time>
      </trkpt>
      <trkpt lat="47.80429" lon="-2.42851">
        <ele>62</ele>
        <time>2025-02-11T08:29:23Z</time>
      </trkpt>
      <trkpt lat="47.80428" lon="-2.42849">
        <ele>62</ele>
        <time>2025-02-11T08:29:24Z</time>
      </trkpt>
      <trkpt lat="47.80428" lon="-2.42847">
        <ele>62</ele>
        <time>2025-02-11T08:29:25Z</time>
      </trkpt>
      <trkpt lat="47.80428" lon="-2.42846">
        <ele>62</ele>
        <time>2025-02-11T08:29:26Z</time>
      </trkpt>
      <trkpt lat="47.80428" lon="-2.42844">
        <ele>62</ele>
        <time>2025-02-11T08:29:27Z</time>
      </trkpt>
      <trkpt lat="47.80428" lon="-2.42842">
        <ele>62</ele>
        <time>2025-02-11T08:29:28Z</time>
      </trkpt>
      <trkpt lat="47.80428" lon="-2.4284">
        <ele>62</ele>
        <time>2025-02-11T08:29:29Z</time>
      </trkpt>
      <trkpt lat="47.80428" lon="-2.42839">
        <ele>62</ele>
        <time>2025-02-11T08:29:30Z</time>
      </trkpt>
      <trkpt lat="47.80428" lon="-2.42837">
        <ele>62</ele>
        <time>2025-02-11T08:29:31Z</time>
      </trkpt>
      <trkpt lat="47.80428" lon="-2.42835">
        <ele>62</ele>
        <time>2025-02-11T08:29:32Z</time>
      </trkpt>
      <trkpt lat="47.80428" lon="-2.42833">
        <ele>62</ele>
        <time>2025-02-11T08:29:33Z</time>
      </trkpt>
      <trkpt lat="47.80428" lon="-2.42831">
        <ele>62</ele>
        <time>2025-02-11T08:29:34Z</time>
      </trkpt>
      <trkpt lat="47.80428" lon="-2.42829">
        <ele>62</ele>
        <time>2025-02-11T08:29:35Z</time>
      </trkpt>
      <trkpt lat="47.80428" lon="-2.42827">
        <ele>62</ele>
        <time>2025-02-11T08:29:36Z</time>
      </trkpt>
      <trkpt lat="47.80428" lon="-2.42825">
        <ele>62</ele>
        <time>2025-02-11T08:29:37Z</time>
      </trkpt>
      <trkpt lat="47.80428" lon="-2.42823">
        <ele>62</ele>
        <time>2025-02-11T08:29:38Z</time>
      </trkpt>
      <trkpt lat="47.80428" lon="-2.42822">
        <ele>62</ele>
        <time>2025-02-11T08:29:39Z</time>
      </trkpt>
      <trkpt lat="47.80428" lon="-2.4282">
        <ele>62</ele>
        <time>2025-02-11T08:29:40Z</time>
      </trkpt>
      <trkpt lat="47.80428" lon="-2.42818">
        <ele>62</ele>
        <time>2025-02-11T08:29:41Z</time>
      </trkpt>
      <trkpt lat="47.80428" lon="-2.42816">
        <ele>62</ele>
        <time>2025-02-11T08:29:42Z</time>
      </trkpt>
      <trkpt lat="47.80427" lon="-2.42815">
        <ele>62</ele>
        <time>2025-02-11T08:29:43Z</time>
      </trkpt>
      <trkpt lat="47.80427" lon="-2.42813">
        <ele>62</ele>
        <time>2025-02-11T08:29:44Z</time>
      </trkpt>
      <trkpt lat="47.80427" lon="-2.42811">
        <ele>62</ele>
        <time>2025-02-11T08:29:45Z</time>
      </trkpt>
      <trkpt lat="47.80427" lon="-2.4281">
        <ele>62</ele>
        <time>2025-02-11T08:29:46Z</time>
      </trkpt>
      <trkpt lat="47.80427" lon="-2.42808">
        <ele>62</ele>
        <time>2025-02-11T08:29:47Z</time>
      </trkpt>
      <trkpt lat="47.80427" lon="-2.42806">
        <ele>62</ele>
        <time>2025-02-11T08:29:48Z</time>
      </trkpt>
      <trkpt lat="47.80427" lon="-2.42804">
        <ele>62</ele>
        <time>2025-02-11T08:29:49Z</time>
      </trkpt>
      <trkpt lat="47.80427" lon="-2.42803">
        <ele>61.9</ele>
        <time>2025-02-11T08:29:50Z</time>
      </trkpt>
      <trkpt lat="47.80427" lon="-2.42801">
        <ele>61.8</ele>
        <time>2025-02-11T08:29:51Z</time>
      </trkpt>
      <trkpt lat="47.80427" lon="-2.42799">
        <ele>61.8</ele>
        <time>2025-02-11T08:29:52Z</time>
      </trkpt>
      <trkpt lat="47.80427" lon="-2.42797">
        <ele>61.7</ele>
        <time>2025-02-11T08:29:53Z</time>
      </trkpt>
      <trkpt lat="47.80426" lon="-2.42795">
        <ele>61.6</ele>
        <time>2025-02-11T08:29:54Z</time>
      </trkpt>
      <trkpt lat="47.80426" lon="-2.42793">
        <ele>61.6</ele>
        <time>2025-02-11T08:29:55Z</time>
      </trkpt>
      <trkpt lat="47.80426" lon="-2.42791">
        <ele>61.5</ele>
        <time>2025-02-11T08:29:56Z</time>
      </trkpt>
      <trkpt lat="47.80426" lon="-2.42789">
        <ele>61.4</ele>
        <time>2025-02-11T08:29:57Z</time>
      </trkpt>
      <trkpt lat="47.80426" lon="-2.42787">
        <ele>61.3</ele>
        <time>2025-02-11T08:29:58Z</time>
      </trkpt>
      <trkpt lat="47.80426" lon="-2.42785">
        <ele>61.3</ele>
        <time>2025-02-11T08:29:59Z</time>
      </trkpt>
      <trkpt lat="47.80425" lon="-2.42783">
        <ele>61.2</ele>
        <time>2025-02-11T08:30:00Z</time>
      </trkpt>
      <trkpt lat="47.80425" lon="-2.42781">
        <ele>61.1</ele>
        <time>2025-02-11T08:30:01Z</time>
      </trkpt>
      <trkpt lat="47.80425" lon="-2.42779">
        <ele>61.1</ele>
        <time>2025-02-11T08:30:02Z</time>
      </trkpt>
      <trkpt lat="47.80425" lon="-2.42777">
        <ele>61</ele>
        <time>2025-02-11T08:30:03Z</time>
      </trkpt>
      <trkpt lat="47.80425" lon="-2.42775">
        <ele>61</ele>
        <time>2025-02-11T08:30:04Z</time>
      </trkpt>
      <trkpt lat="47.80425" lon="-2.42774">
        <ele>61</ele>
        <time>2025-02-11T08:30:05Z</time>
      </trkpt>
      <trkpt lat="47.80425" lon="-2.42772">
        <ele>61</ele>
        <time>2025-02-11T08:30:06Z</time>
      </trkpt>
      <trkpt lat="47.80425" lon="-2.4277">
        <ele>61</ele>
        <time>2025-02-11T08:30:07Z</time>
      </trkpt>
      <trkpt lat="47.80425" lon="-2.42768">
        <ele>61</ele>
        <time>2025-02-11T08:30:08Z</time>
      </trkpt>
      <trkpt lat="47.80425" lon="-2.42766">
        <ele>61</ele>
        <time>2025-02-11T08:30:09Z</time>
      </trkpt>
      <trkpt lat="47.80425" lon="-2.42764">
        <ele>61</ele>
        <time>2025-02-11T08:30:10Z</time>
      </trkpt>
      <trkpt lat="47.80425" lon="-2.42762">
        <ele>61</ele>
        <time>2025-02-11T08:30:11Z</time>
      </trkpt>
      <trkpt lat="47.80425" lon="-2.4276">
        <ele>61</ele>
        <time>2025-02-11T08:30:12Z</time>
      </trkpt>
      <trkpt lat="47.80425" lon="-2.42758">
        <ele>61</ele>
        <time>2025-02-11T08:30:13Z</time>
      </trkpt>
      <trkpt lat="47.80425" lon="-2.42757">
        <ele>61</ele>
        <time>2025-02-11T08:30:14Z</time>
      </trkpt>
      <trkpt lat="47.80425" lon="-2.42755">
        <ele>61</ele>
        <time>2025-02-11T08:30:15Z</time>
      </trkpt>
      <trkpt lat="47.80425" lon="-2.42753">
        <ele>61</ele>
        <time>2025-02-11T08:30:16Z</time>
      </trkpt>
      <trkpt lat="47.80425" lon="-2.42751">
        <ele>61</ele>
        <time>2025-02-11T08:30:17Z</time>
      </trkpt>
      <trkpt lat="47.80426" lon="-2.42749">
        <ele>61</ele>
        <time>2025-02-11T08:30:18Z</time>
      </trkpt>
      <trkpt lat="47.80426" lon="-2.42747">
        <ele>61</ele>
        <time>2025-02-11T08:30:19Z</time>
      </trkpt>
      <trkpt lat="47.80426" lon="-2.42746">
        <ele>61</ele>
        <time>2025-02-11T08:30:20Z</time>
      </trkpt>
      <trkpt lat="47.80426" lon="-2.42744">
        <ele>61</ele>
        <time>2025-02-11T08:30:21Z</time>
      </trkpt>
      <trkpt lat="47.80426" lon="-2.42742">
        <ele>61</ele>
        <time>2025-02-11T08:30:22Z</time>
      </trkpt>
      <trkpt lat="47.80425" lon="-2.4274">
        <ele>61</ele>
        <time>2025-02-11T08:30:23Z</time>
      </trkpt>
      <trkpt lat="47.80425" lon="-2.42739">
        <ele>61</ele>
        <time>2025-02-11T08:30:24Z</time>
      </trkpt>
      <trkpt lat="47.80425" lon="-2.42737">
        <ele>61</ele>
        <time>2025-02-11T08:30:25Z</time>
      </trkpt>
      <trkpt lat="47.80425" lon="-2.42735">
        <ele>61</ele>
        <time>2025-02-11T08:30:26Z</time>
      </trkpt>
      <trkpt lat="47.80426" lon="-2.42734">
        <ele>61</ele>
        <time>2025-02-11T08:30:27Z</time>
      </trkpt>
      <trkpt lat="47.80425" lon="-2.42732">
        <ele>61</ele>
        <time>2025-02-11T08:30:28Z</time>
      </trkpt>
      <trkpt lat="47.80426" lon="-2.4273">
        <ele>61</ele>
        <time>2025-02-11T08:30:29Z</time>
      </trkpt>
      <trkpt lat="47.80426" lon="-2.42729">
        <ele>61</ele>
        <time>2025-02-11T08:30:30Z</time>
      </trkpt>
      <trkpt lat="47.80426" lon="-2.42727">
        <ele>61</ele>
        <time>2025-02-11T08:30:31Z</time>
      </trkpt>
      <trkpt lat="47.80426" lon="-2.42725">
        <ele>61</ele>
        <time>2025-02-11T08:30:32Z</time>
      </trkpt>
      <trkpt lat="47.80425" lon="-2.42724">
        <ele>61</ele>
        <time>2025-02-11T08:30:33Z</time>
      </trkpt>
      <trkpt lat="47.80425" lon="-2.42722">
        <ele>61</ele>
        <time>2025-02-11T08:30:34Z</time>
      </trkpt>
      <trkpt lat="47.80425" lon="-2.4272">
        <ele>60.9</ele>
        <time>2025-02-11T08:30:35Z</time>
      </trkpt>
      <trkpt lat="47.80425" lon="-2.42718">
        <ele>60.9</ele>
        <time>2025-02-11T08:30:36Z</time>
      </trkpt>
      <trkpt lat="47.80425" lon="-2.42716">
        <ele>60.9</ele>
        <time>2025-02-11T08:30:37Z</time>
      </trkpt>
      <trkpt lat="47.80425" lon="-2.42715">
        <ele>60.8</ele>
        <time>2025-02-11T08:30:38Z</time>
      </trkpt>
      <trkpt lat="47.80425" lon="-2.42713">
        <ele>60.8</ele>
        <time>2025-02-11T08:30:39Z</time>
      </trkpt>
      <trkpt lat="47.80426" lon="-2.42711">
        <ele>60.7</ele>
        <time>2025-02-11T08:30:40Z</time>
      </trkpt>
      <trkpt lat="47.80426" lon="-2.42709">
        <ele>60.7</ele>
        <time>2025-02-11T08:30:41Z</time>
      </trkpt>
      <trkpt lat="47.80426" lon="-2.42707">
        <ele>60.6</ele>
        <time>2025-02-11T08:30:42Z</time>
      </trkpt>
      <trkpt lat="47.80425" lon="-2.42706">
        <ele>60.6</ele>
        <time>2025-02-11T08:30:43Z</time>
      </trkpt>
      <trkpt lat="47.80425" lon="-2.42704">
        <ele>60.5</ele>
        <time>2025-02-11T08:30:44Z</time>
      </trkpt>
      <trkpt lat="47.80425" lon="-2.42702">
        <ele>60.5</ele>
        <time>2025-02-11T08:30:45Z</time>
      </trkpt>
      <trkpt lat="47.80424" lon="-2.42701">
        <ele>60.4</ele>
        <time>2025-02-11T08:30:46Z</time>
      </trkpt>
      <trkpt lat="47.80424" lon="-2.42699">
        <ele>60.4</ele>
        <time>2025-02-11T08:30:47Z</time>
      </trkpt>
      <trkpt lat="47.80424" lon="-2.42697">
        <ele>60.3</ele>
        <time>2025-02-11T08:30:48Z</time>
      </trkpt>
      <trkpt lat="47.80425" lon="-2.42695">
        <ele>60.3</ele>
        <time>2025-02-11T08:30:49Z</time>
      </trkpt>
      <trkpt lat="47.80425" lon="-2.42694">
        <ele>60.3</ele>
        <time>2025-02-11T08:30:50Z</time>
      </trkpt>
      <trkpt lat="47.80425" lon="-2.42692">
        <ele>60.3</ele>
        <time>2025-02-11T08:30:51Z</time>
      </trkpt>
      <trkpt lat="47.80425" lon="-2.42691">
        <ele>60.3</ele>
        <time>2025-02-11T08:30:52Z</time>
      </trkpt>
      <trkpt lat="47.80425" lon="-2.42689">
        <ele>60.3</ele>
        <time>2025-02-11T08:30:53Z</time>
      </trkpt>
      <trkpt lat="47.80425" lon="-2.42687">
        <ele>60.3</ele>
        <time>2025-02-11T08:30:54Z</time>
      </trkpt>
      <trkpt lat="47.80425" lon="-2.42686">
        <ele>60.3</ele>
        <time>2025-02-11T08:30:55Z</time>
      </trkpt>
      <trkpt lat="47.80425" lon="-2.42684">
        <ele>60.3</ele>
        <time>2025-02-11T08:30:56Z</time>
      </trkpt>
      <trkpt lat="47.80425" lon="-2.42683">
        <ele>60.3</ele>
        <time>2025-02-11T08:30:57Z</time>
      </trkpt>
      <trkpt lat="47.80424" lon="-2.42681">
        <ele>60.3</ele>
        <time>2025-02-11T08:30:58Z</time>
      </trkpt>
      <trkpt lat="47.80425" lon="-2.42679">
        <ele>60.3</ele>
        <time>2025-02-11T08:30:59Z</time>
      </trkpt>
      <trkpt lat="47.80425" lon="-2.42677">
        <ele>60.3</ele>
        <time>2025-02-11T08:31:00Z</time>
      </trkpt>
      <trkpt lat="47.80425" lon="-2.42675">
        <ele>60.3</ele>
        <time>2025-02-11T08:31:01Z</time>
      </trkpt>
      <trkpt lat="47.80425" lon="-2.42673">
        <ele>60.3</ele>
        <time>2025-02-11T08:31:02Z</time>
      </trkpt>
      <trkpt lat="47.80425" lon="-2.42671">
        <ele>60.3</ele>
        <time>2025-02-11T08:31:03Z</time>
      </trkpt>
      <trkpt lat="47.80425" lon="-2.42669">
        <ele>60.3</ele>
        <time>2025-02-11T08:31:04Z</time>
      </trkpt>
      <trkpt lat="47.80425" lon="-2.42668">
        <ele>60.3</ele>
        <time>2025-02-11T08:31:05Z</time>
      </trkpt>
      <trkpt lat="47.80425" lon="-2.42666">
        <ele>60.3</ele>
        <time>2025-02-11T08:31:06Z</time>
      </trkpt>
      <trkpt lat="47.80424" lon="-2.42664">
        <ele>60.2</ele>
        <time>2025-02-11T08:31:07Z</time>
      </trkpt>
      <trkpt lat="47.80424" lon="-2.42663">
        <ele>60.2</ele>
        <time>2025-02-11T08:31:08Z</time>
      </trkpt>
      <trkpt lat="47.80424" lon="-2.42661">
        <ele>60.2</ele>
        <time>2025-02-11T08:31:09Z</time>
      </trkpt>
      <trkpt lat="47.80424" lon="-2.42659">
        <ele>60.2</ele>
        <time>2025-02-11T08:31:10Z</time>
      </trkpt>
      <trkpt lat="47.80424" lon="-2.42657">
        <ele>60.2</ele>
        <time>2025-02-11T08:31:11Z</time>
      </trkpt>
      <trkpt lat="47.80423" lon="-2.42655">
        <ele>60.1</ele>
        <time>2025-02-11T08:31:12Z</time>
      </trkpt>
      <trkpt lat="47.80423" lon="-2.42654">
        <ele>60.1</ele>
        <time>2025-02-11T08:31:13Z</time>
      </trkpt>
      <trkpt lat="47.80424" lon="-2.42652">
        <ele>60.1</ele>
        <time>2025-02-11T08:31:14Z</time>
      </trkpt>
      <trkpt lat="47.80424" lon="-2.4265">
        <ele>60.1</ele>
        <time>2025-02-11T08:31:15Z</time>
      </trkpt>
      <trkpt lat="47.80423" lon="-2.42648">
        <ele>60.1</ele>
        <time>2025-02-11T08:31:16Z</time>
      </trkpt>
      <trkpt lat="47.80423" lon="-2.42646">
        <ele>60.1</ele>
        <time>2025-02-11T08:31:17Z</time>
      </trkpt>
      <trkpt lat="47.80423" lon="-2.42644">
        <ele>60</ele>
        <time>2025-02-11T08:31:18Z</time>
      </trkpt>
      <trkpt lat="47.80423" lon="-2.42642">
        <ele>60</ele>
        <time>2025-02-11T08:31:19Z</time>
      </trkpt>
      <trkpt lat="47.80424" lon="-2.4264">
        <ele>60</ele>
        <time>2025-02-11T08:31:20Z</time>
      </trkpt>
      <trkpt lat="47.80424" lon="-2.42638">
        <ele>60</ele>
        <time>2025-02-11T08:31:21Z</time>
      </trkpt>
      <trkpt lat="47.80424" lon="-2.42636">
        <ele>60</ele>
        <time>2025-02-11T08:31:22Z</time>
      </trkpt>
      <trkpt lat="47.80424" lon="-2.42634">
        <ele>60</ele>
        <time>2025-02-11T08:31:23Z</time>
      </trkpt>
      <trkpt lat="47.80424" lon="-2.42632">
        <ele>60</ele>
        <time>2025-02-11T08:31:24Z</time>
      </trkpt>
      <trkpt lat="47.80424" lon="-2.42631">
        <ele>60</ele>
        <time>2025-02-11T08:31:25Z</time>
      </trkpt>
      <trkpt lat="47.80424" lon="-2.42629">
        <ele>60</ele>
        <time>2025-02-11T08:31:26Z</time>
      </trkpt>
      <trkpt lat="47.80424" lon="-2.42627">
        <ele>60</ele>
        <time>2025-02-11T08:31:27Z</time>
      </trkpt>
      <trkpt lat="47.80424" lon="-2.42626">
        <ele>60</ele>
        <time>2025-02-11T08:31:28Z</time>
      </trkpt>
      <trkpt lat="47.80423" lon="-2.42624">
        <ele>60</ele>
        <time>2025-02-11T08:31:29Z</time>
      </trkpt>
      <trkpt lat="47.80424" lon="-2.42622">
        <ele>60</ele>
        <time>2025-02-11T08:31:30Z</time>
      </trkpt>
      <trkpt lat="47.80424" lon="-2.4262">
        <ele>60</ele>
        <time>2025-02-11T08:31:31Z</time>
      </trkpt>
      <trkpt lat="47.80424" lon="-2.42618">
        <ele>60</ele>
        <time>2025-02-11T08:31:32Z</time>
      </trkpt>
      <trkpt lat="47.80424" lon="-2.42616">
        <ele>60</ele>
        <time>2025-02-11T08:31:33Z</time>
      </trkpt>
      <trkpt lat="47.80424" lon="-2.42615">
        <ele>60</ele>
        <time>2025-02-11T08:31:34Z</time>
      </trkpt>
      <trkpt lat="47.80423" lon="-2.42613">
        <ele>60</ele>
        <time>2025-02-11T08:31:35Z</time>
      </trkpt>
      <trkpt lat="47.80423" lon="-2.42611">
        <ele>60</ele>
        <time>2025-02-11T08:31:36Z</time>
      </trkpt>
      <trkpt lat="47.80423" lon="-2.42609">
        <ele>60</ele>
        <time>2025-02-11T08:31:37Z</time>
      </trkpt>
      <trkpt lat="47.80423" lon="-2.42607">
        <ele>60</ele>
        <time>2025-02-11T08:31:38Z</time>
      </trkpt>
      <trkpt lat="47.80423" lon="-2.42605">
        <ele>60</ele>
        <time>2025-02-11T08:31:39Z</time>
      </trkpt>
      <trkpt lat="47.80423" lon="-2.42603">
        <ele>60</ele>
        <time>2025-02-11T08:31:40Z</time>
      </trkpt>
      <trkpt lat="47.80423" lon="-2.42602">
        <ele>60</ele>
        <time>2025-02-11T08:31:41Z</time>
      </trkpt>
      <trkpt lat="47.80423" lon="-2.426">
        <ele>60</ele>
        <time>2025-02-11T08:31:42Z</time>
      </trkpt>
      <trkpt lat="47.80422" lon="-2.42598">
        <ele>60</ele>
        <time>2025-02-11T08:31:43Z</time>
      </trkpt>
      <trkpt lat="47.80422" lon="-2.42596">
        <ele>60</ele>
        <time>2025-02-11T08:31:44Z</time>
      </trkpt>
      <trkpt lat="47.80422" lon="-2.42594">
        <ele>60</ele>
        <time>2025-02-11T08:31:45Z</time>
      </trkpt>
      <trkpt lat="47.80422" lon="-2.42593">
        <ele>60</ele>
        <time>2025-02-11T08:31:46Z</time>
      </trkpt>
      <trkpt lat="47.80422" lon="-2.42591">
        <ele>60</ele>
        <time>2025-02-11T08:31:47Z</time>
      </trkpt>
      <trkpt lat="47.80422" lon="-2.42589">
        <ele>60</ele>
        <time>2025-02-11T08:31:48Z</time>
      </trkpt>
      <trkpt lat="47.80422" lon="-2.42587">
        <ele>60</ele>
        <time>2025-02-11T08:31:49Z</time>
      </trkpt>
      <trkpt lat="47.80422" lon="-2.42585">
        <ele>60</ele>
        <time>2025-02-11T08:31:50Z</time>
      </trkpt>
      <trkpt lat="47.80422" lon="-2.42583">
        <ele>60</ele>
        <time>2025-02-11T08:31:51Z</time>
      </trkpt>
      <trkpt lat="47.80422" lon="-2.42581">
        <ele>59.9</ele>
        <time>2025-02-11T08:31:52Z</time>
      </trkpt>
      <trkpt lat="47.80422" lon="-2.42579">
        <ele>59.9</ele>
        <time>2025-02-11T08:31:53Z</time>
      </trkpt>
      <trkpt lat="47.80422" lon="-2.42578">
        <ele>59.8</ele>
        <time>2025-02-11T08:31:54Z</time>
      </trkpt>
      <trkpt lat="47.80422" lon="-2.42576">
        <ele>59.8</ele>
        <time>2025-02-11T08:31:55Z</time>
      </trkpt>
      <trkpt lat="47.80422" lon="-2.42574">
        <ele>59.7</ele>
        <time>2025-02-11T08:31:56Z</time>
      </trkpt>
      <trkpt lat="47.80422" lon="-2.42573">
        <ele>59.7</ele>
        <time>2025-02-11T08:31:57Z</time>
      </trkpt>
      <trkpt lat="47.80422" lon="-2.42571">
        <ele>59.6</ele>
        <time>2025-02-11T08:31:58Z</time>
      </trkpt>
      <trkpt lat="47.80421" lon="-2.42569">
        <ele>59.6</ele>
        <time>2025-02-11T08:31:59Z</time>
      </trkpt>
      <trkpt lat="47.80422" lon="-2.42567">
        <ele>59.5</ele>
        <time>2025-02-11T08:32:00Z</time>
      </trkpt>
      <trkpt lat="47.80422" lon="-2.42565">
        <ele>59.5</ele>
        <time>2025-02-11T08:32:01Z</time>
      </trkpt>
      <trkpt lat="47.80422" lon="-2.42563">
        <ele>59.4</ele>
        <time>2025-02-11T08:32:02Z</time>
      </trkpt>
      <trkpt lat="47.80422" lon="-2.42562">
        <ele>59.4</ele>
        <time>2025-02-11T08:32:03Z</time>
      </trkpt>
      <trkpt lat="47.80421" lon="-2.4256">
        <ele>59.3</ele>
        <time>2025-02-11T08:32:04Z</time>
      </trkpt>
      <trkpt lat="47.80421" lon="-2.42558">
        <ele>59.2</ele>
        <time>2025-02-11T08:32:05Z</time>
      </trkpt>
      <trkpt lat="47.80421" lon="-2.42556">
        <ele>59.1</ele>
        <time>2025-02-11T08:32:06Z</time>
      </trkpt>
      <trkpt lat="47.8042" lon="-2.42554">
        <ele>59.1</ele>
        <time>2025-02-11T08:32:07Z</time>
      </trkpt>
      <trkpt lat="47.80421" lon="-2.42552">
        <ele>59.1</ele>
        <time>2025-02-11T08:32:08Z</time>
      </trkpt>
      <trkpt lat="47.80421" lon="-2.4255">
        <ele>59.1</ele>
        <time>2025-02-11T08:32:09Z</time>
      </trkpt>
      <trkpt lat="47.80421" lon="-2.42548">
        <ele>59.1</ele>
        <time>2025-02-11T08:32:10Z</time>
      </trkpt>
      <trkpt lat="47.8042" lon="-2.42547">
        <ele>59.1</ele>
        <time>2025-02-11T08:32:11Z</time>
      </trkpt>
      <trkpt lat="47.80421" lon="-2.42545">
        <ele>59.1</ele>
        <time>2025-02-11T08:32:12Z</time>
      </trkpt>
      <trkpt lat="47.8042" lon="-2.42543">
        <ele>59.1</ele>
        <time>2025-02-11T08:32:13Z</time>
      </trkpt>
      <trkpt lat="47.8042" lon="-2.42541">
        <ele>59.1</ele>
        <time>2025-02-11T08:32:14Z</time>
      </trkpt>
      <trkpt lat="47.8042" lon="-2.42539">
        <ele>59.1</ele>
        <time>2025-02-11T08:32:15Z</time>
      </trkpt>
      <trkpt lat="47.8042" lon="-2.42538">
        <ele>59.1</ele>
        <time>2025-02-11T08:32:16Z</time>
      </trkpt>
      <trkpt lat="47.8042" lon="-2.42536">
        <ele>59.1</ele>
        <time>2025-02-11T08:32:17Z</time>
      </trkpt>
      <trkpt lat="47.8042" lon="-2.42534">
        <ele>59.1</ele>
        <time>2025-02-11T08:32:18Z</time>
      </trkpt>
      <trkpt lat="47.8042" lon="-2.42532">
        <ele>59.1</ele>
        <time>2025-02-11T08:32:19Z</time>
      </trkpt>
      <trkpt lat="47.8042" lon="-2.4253">
        <ele>59.1</ele>
        <time>2025-02-11T08:32:20Z</time>
      </trkpt>
      <trkpt lat="47.8042" lon="-2.42528">
        <ele>59.1</ele>
        <time>2025-02-11T08:32:21Z</time>
      </trkpt>
      <trkpt lat="47.8042" lon="-2.42526">
        <ele>59.1</ele>
        <time>2025-02-11T08:32:22Z</time>
      </trkpt>
      <trkpt lat="47.8042" lon="-2.42524">
        <ele>59.1</ele>
        <time>2025-02-11T08:32:23Z</time>
      </trkpt>
      <trkpt lat="47.8042" lon="-2.42522">
        <ele>59.1</ele>
        <time>2025-02-11T08:32:24Z</time>
      </trkpt>
      <trkpt lat="47.8042" lon="-2.4252">
        <ele>59.1</ele>
        <time>2025-02-11T08:32:25Z</time>
      </trkpt>
      <trkpt lat="47.8042" lon="-2.42519">
        <ele>59.1</ele>
        <time>2025-02-11T08:32:26Z</time>
      </trkpt>
      <trkpt lat="47.80419" lon="-2.42517">
        <ele>59.1</ele>
        <time>2025-02-11T08:32:27Z</time>
      </trkpt>
      <trkpt lat="47.80419" lon="-2.42515">
        <ele>59</ele>
        <time>2025-02-11T08:32:28Z</time>
      </trkpt>
      <trkpt lat="47.80419" lon="-2.42513">
        <ele>59</ele>
        <time>2025-02-11T08:32:29Z</time>
      </trkpt>
      <trkpt lat="47.80419" lon="-2.42511">
        <ele>59</ele>
        <time>2025-02-11T08:32:30Z</time>
      </trkpt>
      <trkpt lat="47.80419" lon="-2.42509">
        <ele>59</ele>
        <time>2025-02-11T08:32:31Z</time>
      </trkpt>
      <trkpt lat="47.80419" lon="-2.42508">
        <ele>59</ele>
        <time>2025-02-11T08:32:32Z</time>
      </trkpt>
      <trkpt lat="47.80419" lon="-2.42506">
        <ele>59</ele>
        <time>2025-02-11T08:32:33Z</time>
      </trkpt>
      <trkpt lat="47.8042" lon="-2.42504">
        <ele>59</ele>
        <time>2025-02-11T08:32:34Z</time>
      </trkpt>
      <trkpt lat="47.8042" lon="-2.42502">
        <ele>59</ele>
        <time>2025-02-11T08:32:35Z</time>
      </trkpt>
      <trkpt lat="47.80419" lon="-2.425">
        <ele>59</ele>
        <time>2025-02-11T08:32:36Z</time>
      </trkpt>
      <trkpt lat="47.80419" lon="-2.42498">
        <ele>58.9</ele>
        <time>2025-02-11T08:32:37Z</time>
      </trkpt>
      <trkpt lat="47.80419" lon="-2.42496">
        <ele>58.8</ele>
        <time>2025-02-11T08:32:38Z</time>
      </trkpt>
      <trkpt lat="47.80419" lon="-2.42493">
        <ele>58.8</ele>
        <time>2025-02-11T08:32:39Z</time>
      </trkpt>
      <trkpt lat="47.80419" lon="-2.42492">
        <ele>58.7</ele>
        <time>2025-02-11T08:32:40Z</time>
      </trkpt>
      <trkpt lat="47.80419" lon="-2.4249">
        <ele>58.7</ele>
        <time>2025-02-11T08:32:41Z</time>
      </trkpt>
      <trkpt lat="47.80419" lon="-2.42488">
        <ele>58.6</ele>
        <time>2025-02-11T08:32:42Z</time>
      </trkpt>
      <trkpt lat="47.80419" lon="-2.42486">
        <ele>58.5</ele>
        <time>2025-02-11T08:32:43Z</time>
      </trkpt>
      <trkpt lat="47.80419" lon="-2.42484">
        <ele>58.5</ele>
        <time>2025-02-11T08:32:44Z</time>
      </trkpt>
      <trkpt lat="47.80419" lon="-2.42482">
        <ele>58.4</ele>
        <time>2025-02-11T08:32:45Z</time>
      </trkpt>
      <trkpt lat="47.80419" lon="-2.4248">
        <ele>58.3</ele>
        <time>2025-02-11T08:32:46Z</time>
      </trkpt>
      <trkpt lat="47.80419" lon="-2.42478">
        <ele>58.3</ele>
        <time>2025-02-11T08:32:47Z</time>
      </trkpt>
      <trkpt lat="47.80419" lon="-2.42476">
        <ele>58.2</ele>
        <time>2025-02-11T08:32:48Z</time>
      </trkpt>
      <trkpt lat="47.80418" lon="-2.42475">
        <ele>58.1</ele>
        <time>2025-02-11T08:32:49Z</time>
      </trkpt>
      <trkpt lat="47.80418" lon="-2.42473">
        <ele>58.1</ele>
        <time>2025-02-11T08:32:50Z</time>
      </trkpt>
      <trkpt lat="47.80418" lon="-2.42472">
        <ele>58.1</ele>
        <time>2025-02-11T08:32:51Z</time>
      </trkpt>
      <trkpt lat="47.80418" lon="-2.4247">
        <ele>58.1</ele>
        <time>2025-02-11T08:32:52Z</time>
      </trkpt>
      <trkpt lat="47.80418" lon="-2.42469">
        <ele>58</ele>
        <time>2025-02-11T08:32:53Z</time>
      </trkpt>
      <trkpt lat="47.80418" lon="-2.42467">
        <ele>58</ele>
        <time>2025-02-11T08:32:54Z</time>
      </trkpt>
      <trkpt lat="47.80418" lon="-2.42465">
        <ele>58</ele>
        <time>2025-02-11T08:32:55Z</time>
      </trkpt>
      <trkpt lat="47.80418" lon="-2.42464">
        <ele>58</ele>
        <time>2025-02-11T08:32:56Z</time>
      </trkpt>
      <trkpt lat="47.80418" lon="-2.42462">
        <ele>58</ele>
        <time>2025-02-11T08:32:57Z</time>
      </trkpt>
      <trkpt lat="47.80418" lon="-2.4246">
        <ele>58</ele>
        <time>2025-02-11T08:32:58Z</time>
      </trkpt>
      <trkpt lat="47.80418" lon="-2.42459">
        <ele>58</ele>
        <time>2025-02-11T08:32:59Z</time>
      </trkpt>
      <trkpt lat="47.80418" lon="-2.42457">
        <ele>58.1</ele>
        <time>2025-02-11T08:33:00Z</time>
      </trkpt>
      <trkpt lat="47.80418" lon="-2.42455">
        <ele>58.1</ele>
        <time>2025-02-11T08:33:01Z</time>
      </trkpt>
      <trkpt lat="47.80418" lon="-2.42453">
        <ele>58.1</ele>
        <time>2025-02-11T08:33:02Z</time>
      </trkpt>
      <trkpt lat="47.80418" lon="-2.42451">
        <ele>58.1</ele>
        <time>2025-02-11T08:33:03Z</time>
      </trkpt>
      <trkpt lat="47.80418" lon="-2.4245">
        <ele>58.1</ele>
        <time>2025-02-11T08:33:04Z</time>
      </trkpt>
      <trkpt lat="47.80418" lon="-2.42448">
        <ele>58</ele>
        <time>2025-02-11T08:33:05Z</time>
      </trkpt>
      <trkpt lat="47.80418" lon="-2.42446">
        <ele>58.1</ele>
        <time>2025-02-11T08:33:06Z</time>
      </trkpt>
      <trkpt lat="47.80418" lon="-2.42444">
        <ele>58</ele>
        <time>2025-02-11T08:33:07Z</time>
      </trkpt>
      <trkpt lat="47.80418" lon="-2.42442">
        <ele>58</ele>
        <time>2025-02-11T08:33:08Z</time>
      </trkpt>
      <trkpt lat="47.80418" lon="-2.4244">
        <ele>58</ele>
        <time>2025-02-11T08:33:09Z</time>
      </trkpt>
      <trkpt lat="47.80418" lon="-2.42438">
        <ele>58</ele>
        <time>2025-02-11T08:33:10Z</time>
      </trkpt>
      <trkpt lat="47.80418" lon="-2.42436">
        <ele>58</ele>
        <time>2025-02-11T08:33:11Z</time>
      </trkpt>
      <trkpt lat="47.80418" lon="-2.42434">
        <ele>58</ele>
        <time>2025-02-11T08:33:12Z</time>
      </trkpt>
      <trkpt lat="47.80418" lon="-2.42433">
        <ele>58</ele>
        <time>2025-02-11T08:33:13Z</time>
      </trkpt>
      <trkpt lat="47.80418" lon="-2.42431">
        <ele>58</ele>
        <time>2025-02-11T08:33:14Z</time>
      </trkpt>
      <trkpt lat="47.80417" lon="-2.42429">
        <ele>58</ele>
        <time>2025-02-11T08:33:15Z</time>
      </trkpt>
      <trkpt lat="47.80417" lon="-2.42427">
        <ele>58</ele>
        <time>2025-02-11T08:33:16Z</time>
      </trkpt>
      <trkpt lat="47.80417" lon="-2.42425">
        <ele>58</ele>
        <time>2025-02-11T08:33:17Z</time>
      </trkpt>
      <trkpt lat="47.80417" lon="-2.42424">
        <ele>58</ele>
        <time>2025-02-11T08:33:18Z</time>
      </trkpt>
      <trkpt lat="47.80417" lon="-2.42422">
        <ele>58</ele>
        <time>2025-02-11T08:33:19Z</time>
      </trkpt>
      <trkpt lat="47.80417" lon="-2.4242">
        <ele>58</ele>
        <time>2025-02-11T08:33:20Z</time>
      </trkpt>
      <trkpt lat="47.80417" lon="-2.42419">
        <ele>58</ele>
        <time>2025-02-11T08:33:21Z</time>
      </trkpt>
      <trkpt lat="47.80417" lon="-2.42417">
        <ele>58</ele>
        <time>2025-02-11T08:33:22Z</time>
      </trkpt>
      <trkpt lat="47.80416" lon="-2.42415">
        <ele>58</ele>
        <time>2025-02-11T08:33:23Z</time>
      </trkpt>
      <trkpt lat="47.80417" lon="-2.42413">
        <ele>58</ele>
        <time>2025-02-11T08:33:24Z</time>
      </trkpt>
      <trkpt lat="47.80417" lon="-2.42411">
        <ele>58</ele>
        <time>2025-02-11T08:33:25Z</time>
      </trkpt>
      <trkpt lat="47.80417" lon="-2.42409">
        <ele>58</ele>
        <time>2025-02-11T08:33:26Z</time>
      </trkpt>
      <trkpt lat="47.80417" lon="-2.42407">
        <ele>58</ele>
        <time>2025-02-11T08:33:27Z</time>
      </trkpt>
      <trkpt lat="47.80417" lon="-2.42405">
        <ele>58</ele>
        <time>2025-02-11T08:33:28Z</time>
      </trkpt>
      <trkpt lat="47.80417" lon="-2.42403">
        <ele>58</ele>
        <time>2025-02-11T08:33:29Z</time>
      </trkpt>
      <trkpt lat="47.80417" lon="-2.42401">
        <ele>58</ele>
        <time>2025-02-11T08:33:30Z</time>
      </trkpt>
      <trkpt lat="47.80417" lon="-2.42399">
        <ele>58</ele>
        <time>2025-02-11T08:33:31Z</time>
      </trkpt>
      <trkpt lat="47.80416" lon="-2.42397">
        <ele>58</ele>
        <time>2025-02-11T08:33:32Z</time>
      </trkpt>
      <trkpt lat="47.80416" lon="-2.42396">
        <ele>58</ele>
        <time>2025-02-11T08:33:33Z</time>
      </trkpt>
      <trkpt lat="47.80415" lon="-2.42394">
        <ele>58</ele>
        <time>2025-02-11T08:33:34Z</time>
      </trkpt>
      <trkpt lat="47.80415" lon="-2.42392">
        <ele>58</ele>
        <time>2025-02-11T08:33:35Z</time>
      </trkpt>
      <trkpt lat="47.80415" lon="-2.4239">
        <ele>58</ele>
        <time>2025-02-11T08:33:36Z</time>
      </trkpt>
      <trkpt lat="47.80415" lon="-2.42388">
        <ele>58</ele>
        <time>2025-02-11T08:33:37Z</time>
      </trkpt>
      <trkpt lat="47.80415" lon="-2.42386">
        <ele>58</ele>
        <time>2025-02-11T08:33:38Z</time>
      </trkpt>
      <trkpt lat="47.80415" lon="-2.42384">
        <ele>58</ele>
        <time>2025-02-11T08:33:39Z</time>
      </trkpt>
      <trkpt lat="47.80415" lon="-2.42382">
        <ele>58</ele>
        <time>2025-02-11T08:33:40Z</time>
      </trkpt>
      <trkpt lat="47.80415" lon="-2.4238">
        <ele>58</ele>
        <time>2025-02-11T08:33:41Z</time>
      </trkpt>
      <trkpt lat="47.80415" lon="-2.42378">
        <ele>58</ele>
        <time>2025-02-11T08:33:42Z</time>
      </trkpt>
      <trkpt lat="47.80415" lon="-2.42376">
        <ele>58</ele>
        <time>2025-02-11T08:33:43Z</time>
      </trkpt>
      <trkpt lat="47.80415" lon="-2.42374">
        <ele>58</ele>
        <time>2025-02-11T08:33:44Z</time>
      </trkpt>
      <trkpt lat="47.80415" lon="-2.42372">
        <ele>58</ele>
        <time>2025-02-11T08:33:45Z</time>
      </trkpt>
      <trkpt lat="47.80415" lon="-2.4237">
        <ele>58</ele>
        <time>2025-02-11T08:33:46Z</time>
      </trkpt>
      <trkpt lat="47.80414" lon="-2.42368">
        <ele>58</ele>
        <time>2025-02-11T08:33:47Z</time>
      </trkpt>
      <trkpt lat="47.80414" lon="-2.42366">
        <ele>58</ele>
        <time>2025-02-11T08:33:48Z</time>
      </trkpt>
      <trkpt lat="47.80414" lon="-2.42364">
        <ele>58</ele>
        <time>2025-02-11T08:33:49Z</time>
      </trkpt>
      <trkpt lat="47.80414" lon="-2.42362">
        <ele>58</ele>
        <time>2025-02-11T08:33:50Z</time>
      </trkpt>
      <trkpt lat="47.80414" lon="-2.4236">
        <ele>58</ele>
        <time>2025-02-11T08:33:51Z</time>
      </trkpt>
      <trkpt lat="47.80415" lon="-2.42358">
        <ele>58</ele>
        <time>2025-02-11T08:33:52Z</time>
      </trkpt>
      <trkpt lat="47.80414" lon="-2.42356">
        <ele>58</ele>
        <time>2025-02-11T08:33:53Z</time>
      </trkpt>
      <trkpt lat="47.80414" lon="-2.42354">
        <ele>58</ele>
        <time>2025-02-11T08:33:54Z</time>
      </trkpt>
      <trkpt lat="47.80415" lon="-2.42353">
        <ele>58</ele>
        <time>2025-02-11T08:33:55Z</time>
      </trkpt>
      <trkpt lat="47.80415" lon="-2.42351">
        <ele>58</ele>
        <time>2025-02-11T08:33:56Z</time>
      </trkpt>
      <trkpt lat="47.80415" lon="-2.42349">
        <ele>58</ele>
        <time>2025-02-11T08:33:57Z</time>
      </trkpt>
      <trkpt lat="47.80414" lon="-2.42347">
        <ele>58</ele>
        <time>2025-02-11T08:33:58Z</time>
      </trkpt>
      <trkpt lat="47.80414" lon="-2.42345">
        <ele>58</ele>
        <time>2025-02-11T08:33:59Z</time>
      </trkpt>
      <trkpt lat="47.80414" lon="-2.42344">
        <ele>58</ele>
        <time>2025-02-11T08:34:00Z</time>
      </trkpt>
      <trkpt lat="47.80414" lon="-2.42342">
        <ele>58</ele>
        <time>2025-02-11T08:34:01Z</time>
      </trkpt>
      <trkpt lat="47.80414" lon="-2.4234">
        <ele>58</ele>
        <time>2025-02-11T08:34:02Z</time>
      </trkpt>
      <trkpt lat="47.80414" lon="-2.42339">
        <ele>58</ele>
        <time>2025-02-11T08:34:03Z</time>
      </trkpt>
      <trkpt lat="47.80414" lon="-2.42337">
        <ele>58</ele>
        <time>2025-02-11T08:34:04Z</time>
      </trkpt>
      <trkpt lat="47.80414" lon="-2.42335">
        <ele>58</ele>
        <time>2025-02-11T08:34:05Z</time>
      </trkpt>
      <trkpt lat="47.80413" lon="-2.42333">
        <ele>58</ele>
        <time>2025-02-11T08:34:06Z</time>
      </trkpt>
      <trkpt lat="47.80413" lon="-2.42331">
        <ele>58</ele>
        <time>2025-02-11T08:34:07Z</time>
      </trkpt>
      <trkpt lat="47.80413" lon="-2.42329">
        <ele>58</ele>
        <time>2025-02-11T08:34:08Z</time>
      </trkpt>
      <trkpt lat="47.80413" lon="-2.42327">
        <ele>58</ele>
        <time>2025-02-11T08:34:09Z</time>
      </trkpt>
      <trkpt lat="47.80413" lon="-2.42325">
        <ele>58</ele>
        <time>2025-02-11T08:34:10Z</time>
      </trkpt>
      <trkpt lat="47.80413" lon="-2.42324">
        <ele>58</ele>
        <time>2025-02-11T08:34:11Z</time>
      </trkpt>
      <trkpt lat="47.80413" lon="-2.42322">
        <ele>58</ele>
        <time>2025-02-11T08:34:12Z</time>
      </trkpt>
      <trkpt lat="47.80413" lon="-2.4232">
        <ele>58</ele>
        <time>2025-02-11T08:34:13Z</time>
      </trkpt>
      <trkpt lat="47.80413" lon="-2.42319">
        <ele>58</ele>
        <time>2025-02-11T08:34:14Z</time>
      </trkpt>
      <trkpt lat="47.80413" lon="-2.42317">
        <ele>58</ele>
        <time>2025-02-11T08:34:15Z</time>
      </trkpt>
      <trkpt lat="47.80412" lon="-2.42315">
        <ele>58</ele>
        <time>2025-02-11T08:34:16Z</time>
      </trkpt>
      <trkpt lat="47.80412" lon="-2.42313">
        <ele>58</ele>
        <time>2025-02-11T08:34:17Z</time>
      </trkpt>
      <trkpt lat="47.80412" lon="-2.42311">
        <ele>58</ele>
        <time>2025-02-11T08:34:18Z</time>
      </trkpt>
      <trkpt lat="47.80412" lon="-2.42309">
        <ele>58</ele>
        <time>2025-02-11T08:34:19Z</time>
      </trkpt>
      <trkpt lat="47.80413" lon="-2.42308">
        <ele>58</ele>
        <time>2025-02-11T08:34:20Z</time>
      </trkpt>
      <trkpt lat="47.80413" lon="-2.42306">
        <ele>58</ele>
        <time>2025-02-11T08:34:21Z</time>
      </trkpt>
      <trkpt lat="47.80413" lon="-2.42304">
        <ele>58</ele>
        <time>2025-02-11T08:34:22Z</time>
      </trkpt>
      <trkpt lat="47.80414" lon="-2.42302">
        <ele>58</ele>
        <time>2025-02-11T08:34:23Z</time>
      </trkpt>
      <trkpt lat="47.80415" lon="-2.42302">
        <ele>58</ele>
        <time>2025-02-11T08:34:24Z</time>
      </trkpt>
      <trkpt lat="47.80416" lon="-2.42301">
        <ele>58</ele>
        <time>2025-02-11T08:34:25Z</time>
      </trkpt>
      <trkpt lat="47.80418" lon="-2.42302">
        <ele>58</ele>
        <time>2025-02-11T08:34:26Z</time>
      </trkpt>
      <trkpt lat="47.80419" lon="-2.42302">
        <ele>58.1</ele>
        <time>2025-02-11T08:34:27Z</time>
      </trkpt>
      <trkpt lat="47.80421" lon="-2.42302">
        <ele>58.1</ele>
        <time>2025-02-11T08:34:28Z</time>
      </trkpt>
      <trkpt lat="47.80422" lon="-2.42302">
        <ele>58.2</ele>
        <time>2025-02-11T08:34:29Z</time>
      </trkpt>
      <trkpt lat="47.80424" lon="-2.42302">
        <ele>58.2</ele>
        <time>2025-02-11T08:34:30Z</time>
      </trkpt>
      <trkpt lat="47.80425" lon="-2.42303">
        <ele>58.3</ele>
        <time>2025-02-11T08:34:31Z</time>
      </trkpt>
      <trkpt lat="47.80426" lon="-2.42304">
        <ele>58.3</ele>
        <time>2025-02-11T08:34:32Z</time>
      </trkpt>
      <trkpt lat="47.80428" lon="-2.42305">
        <ele>58.4</ele>
        <time>2025-02-11T08:34:33Z</time>
      </trkpt>
      <trkpt lat="47.80429" lon="-2.42305">
        <ele>58.4</ele>
        <time>2025-02-11T08:34:34Z</time>
      </trkpt>
      <trkpt lat="47.8043" lon="-2.42306">
        <ele>58.5</ele>
        <time>2025-02-11T08:34:35Z</time>
      </trkpt>
      <trkpt lat="47.80432" lon="-2.42306">
        <ele>58.5</ele>
        <time>2025-02-11T08:34:36Z</time>
      </trkpt>
      <trkpt lat="47.80433" lon="-2.42306">
        <ele>58.6</ele>
        <time>2025-02-11T08:34:37Z</time>
      </trkpt>
      <trkpt lat="47.80434" lon="-2.42306">
        <ele>58.6</ele>
        <time>2025-02-11T08:34:38Z</time>
      </trkpt>
      <trkpt lat="47.80436" lon="-2.42307">
        <ele>58.7</ele>
        <time>2025-02-11T08:34:39Z</time>
      </trkpt>
      <trkpt lat="47.80437" lon="-2.42307">
        <ele>58.7</ele>
        <time>2025-02-11T08:34:40Z</time>
      </trkpt>
      <trkpt lat="47.80438" lon="-2.42308">
        <ele>58.8</ele>
        <time>2025-02-11T08:34:41Z</time>
      </trkpt>
      <trkpt lat="47.80439" lon="-2.42309">
        <ele>58.8</ele>
        <time>2025-02-11T08:34:42Z</time>
      </trkpt>
      <trkpt lat="47.80441" lon="-2.42309">
        <ele>58.9</ele>
        <time>2025-02-11T08:34:43Z</time>
      </trkpt>
      <trkpt lat="47.80442" lon="-2.4231">
        <ele>58.9</ele>
        <time>2025-02-11T08:34:44Z</time>
      </trkpt>
      <trkpt lat="47.80443" lon="-2.42311">
        <ele>59</ele>
        <time>2025-02-11T08:34:45Z</time>
      </trkpt>
      <trkpt lat="47.80444" lon="-2.42312">
        <ele>59</ele>
        <time>2025-02-11T08:34:46Z</time>
      </trkpt>
      <trkpt lat="47.80445" lon="-2.42313">
        <ele>59</ele>
        <time>2025-02-11T08:34:47Z</time>
      </trkpt>
      <trkpt lat="47.80447" lon="-2.42313">
        <ele>59</ele>
        <time>2025-02-11T08:34:48Z</time>
      </trkpt>
      <trkpt lat="47.80448" lon="-2.42313">
        <ele>59</ele>
        <time>2025-02-11T08:34:49Z</time>
      </trkpt>
      <trkpt lat="47.80449" lon="-2.42313">
        <ele>59</ele>
        <time>2025-02-11T08:34:50Z</time>
      </trkpt>
      <trkpt lat="47.8045" lon="-2.42314">
        <ele>59</ele>
        <time>2025-02-11T08:34:51Z</time>
      </trkpt>
      <trkpt lat="47.80451" lon="-2.42315">
        <ele>59</ele>
        <time>2025-02-11T08:34:52Z</time>
      </trkpt>
      <trkpt lat="47.80452" lon="-2.42316">
        <ele>59</ele>
        <time>2025-02-11T08:34:53Z</time>
      </trkpt>
      <trkpt lat="47.80453" lon="-2.42316">
        <ele>59</ele>
        <time>2025-02-11T08:34:54Z</time>
      </trkpt>
      <trkpt lat="47.80454" lon="-2.42317">
        <ele>59</ele>
        <time>2025-02-11T08:34:55Z</time>
      </trkpt>
      <trkpt lat="47.80455" lon="-2.42318">
        <ele>59</ele>
        <time>2025-02-11T08:34:56Z</time>
      </trkpt>
      <trkpt lat="47.80457" lon="-2.42318">
        <ele>59</ele>
        <time>2025-02-11T08:34:57Z</time>
      </trkpt>
      <trkpt lat="47.80458" lon="-2.42319">
        <ele>59</ele>
        <time>2025-02-11T08:34:58Z</time>
      </trkpt>
      <trkpt lat="47.80459" lon="-2.42319">
        <ele>59</ele>
        <time>2025-02-11T08:34:59Z</time>
      </trkpt>
      <trkpt lat="47.80461" lon="-2.42319">
        <ele>59</ele>
        <time>2025-02-11T08:35:00Z</time>
      </trkpt>
      <trkpt lat="47.80462" lon="-2.42319">
        <ele>59</ele>
        <time>2025-02-11T08:35:01Z</time>
      </trkpt>
      <trkpt lat="47.80463" lon="-2.4232">
        <ele>59</ele>
        <time>2025-02-11T08:35:02Z</time>
      </trkpt>
      <trkpt lat="47.80465" lon="-2.4232">
        <ele>59</ele>
        <time>2025-02-11T08:35:03Z</time>
      </trkpt>
      <trkpt lat="47.80466" lon="-2.4232">
        <ele>59</ele>
        <time>2025-02-11T08:35:04Z</time>
      </trkpt>
      <trkpt lat="47.80467" lon="-2.42321">
        <ele>59</ele>
        <time>2025-02-11T08:35:05Z</time>
      </trkpt>
      <trkpt lat="47.80468" lon="-2.42321">
        <ele>59</ele>
        <time>2025-02-11T08:35:06Z</time>
      </trkpt>
      <trkpt lat="47.80469" lon="-2.42321">
        <ele>59</ele>
        <time>2025-02-11T08:35:07Z</time>
      </trkpt>
      <trkpt lat="47.80471" lon="-2.42322">
        <ele>59</ele>
        <time>2025-02-11T08:35:08Z</time>
      </trkpt>
      <trkpt lat="47.80472" lon="-2.42322">
        <ele>59</ele>
        <time>2025-02-11T08:35:09Z</time>
      </trkpt>
      <trkpt lat="47.80473" lon="-2.42322">
        <ele>59</ele>
        <time>2025-02-11T08:35:10Z</time>
      </trkpt>
      <trkpt lat="47.80475" lon="-2.42323">
        <ele>59.1</ele>
        <time>2025-02-11T08:35:11Z</time>
      </trkpt>
      <trkpt lat="47.80476" lon="-2.42324">
        <ele>59.1</ele>
        <time>2025-02-11T08:35:12Z</time>
      </trkpt>
      <trkpt lat="47.80477" lon="-2.42325">
        <ele>59.2</ele>
        <time>2025-02-11T08:35:13Z</time>
      </trkpt>
      <trkpt lat="47.80478" lon="-2.42325">
        <ele>59.2</ele>
        <time>2025-02-11T08:35:14Z</time>
      </trkpt>
      <trkpt lat="47.80479" lon="-2.42326">
        <ele>59.3</ele>
        <time>2025-02-11T08:35:15Z</time>
      </trkpt>
      <trkpt lat="47.80481" lon="-2.42326">
        <ele>59.3</ele>
        <time>2025-02-11T08:35:16Z</time>
      </trkpt>
      <trkpt lat="47.80482" lon="-2.42327">
        <ele>59.4</ele>
        <time>2025-02-11T08:35:17Z</time>
      </trkpt>
      <trkpt lat="47.80483" lon="-2.42327">
        <ele>59.4</ele>
        <time>2025-02-11T08:35:18Z</time>
      </trkpt>
      <trkpt lat="47.80485" lon="-2.42327">
        <ele>59.4</ele>
        <time>2025-02-11T08:35:19Z</time>
      </trkpt>
      <trkpt lat="47.80486" lon="-2.42328">
        <ele>59.5</ele>
        <time>2025-02-11T08:35:20Z</time>
      </trkpt>
      <trkpt lat="47.80487" lon="-2.42329">
        <ele>59.5</ele>
        <time>2025-02-11T08:35:21Z</time>
      </trkpt>
      <trkpt lat="47.80488" lon="-2.4233">
        <ele>59.6</ele>
        <time>2025-02-11T08:35:22Z</time>
      </trkpt>
      <trkpt lat="47.80489" lon="-2.4233">
        <ele>59.6</ele>
        <time>2025-02-11T08:35:23Z</time>
      </trkpt>
      <trkpt lat="47.8049" lon="-2.42331">
        <ele>59.7</ele>
        <time>2025-02-11T08:35:24Z</time>
      </trkpt>
      <trkpt lat="47.80492" lon="-2.42331">
        <ele>59.7</ele>
        <time>2025-02-11T08:35:25Z</time>
      </trkpt>
      <trkpt lat="47.80493" lon="-2.42331">
        <ele>59.7</ele>
        <time>2025-02-11T08:35:26Z</time>
      </trkpt>
      <trkpt lat="47.80494" lon="-2.42332">
        <ele>59.8</ele>
        <time>2025-02-11T08:35:27Z</time>
      </trkpt>
      <trkpt lat="47.80496" lon="-2.42332">
        <ele>59.8</ele>
        <time>2025-02-11T08:35:28Z</time>
      </trkpt>
      <trkpt lat="47.80497" lon="-2.42333">
        <ele>59.9</ele>
        <time>2025-02-11T08:35:29Z</time>
      </trkpt>
      <trkpt lat="47.80498" lon="-2.42333">
        <ele>59.9</ele>
        <time>2025-02-11T08:35:30Z</time>
      </trkpt>
      <trkpt lat="47.80499" lon="-2.42334">
        <ele>60</ele>
        <time>2025-02-11T08:35:31Z</time>
      </trkpt>
      <trkpt lat="47.805" lon="-2.42335">
        <ele>60</ele>
        <time>2025-02-11T08:35:32Z</time>
      </trkpt>
      <trkpt lat="47.80501" lon="-2.42335">
        <ele>60</ele>
        <time>2025-02-11T08:35:33Z</time>
      </trkpt>
      <trkpt lat="47.80503" lon="-2.42336">
        <ele>60.1</ele>
        <time>2025-02-11T08:35:34Z</time>
      </trkpt>
      <trkpt lat="47.80504" lon="-2.42336">
        <ele>60.1</ele>
        <time>2025-02-11T08:35:35Z</time>
      </trkpt>
      <trkpt lat="47.80505" lon="-2.42336">
        <ele>60.2</ele>
        <time>2025-02-11T08:35:36Z</time>
      </trkpt>
      <trkpt lat="47.80506" lon="-2.42336">
        <ele>60.2</ele>
        <time>2025-02-11T08:35:37Z</time>
      </trkpt>
      <trkpt lat="47.80507" lon="-2.42337">
        <ele>60.3</ele>
        <time>2025-02-11T08:35:38Z</time>
      </trkpt>
      <trkpt lat="47.80509" lon="-2.42337">
        <ele>60.3</ele>
        <time>2025-02-11T08:35:39Z</time>
      </trkpt>
      <trkpt lat="47.8051" lon="-2.42337">
        <ele>60.3</ele>
        <time>2025-02-11T08:35:40Z</time>
      </trkpt>
      <trkpt lat="47.80511" lon="-2.42338">
        <ele>60.4</ele>
        <time>2025-02-11T08:35:41Z</time>
      </trkpt>
      <trkpt lat="47.80512" lon="-2.42338">
        <ele>60.4</ele>
        <time>2025-02-11T08:35:42Z</time>
      </trkpt>
      <trkpt lat="47.80514" lon="-2.42339">
        <ele>60.5</ele>
        <time>2025-02-11T08:35:43Z</time>
      </trkpt>
      <trkpt lat="47.80515" lon="-2.42339">
        <ele>60.5</ele>
        <time>2025-02-11T08:35:44Z</time>
      </trkpt>
      <trkpt lat="47.80516" lon="-2.42339">
        <ele>60.6</ele>
        <time>2025-02-11T08:35:45Z</time>
      </trkpt>
      <trkpt lat="47.80517" lon="-2.4234">
        <ele>60.6</ele>
        <time>2025-02-11T08:35:46Z</time>
      </trkpt>
      <trkpt lat="47.80518" lon="-2.4234">
        <ele>60.7</ele>
        <time>2025-02-11T08:35:47Z</time>
      </trkpt>
      <trkpt lat="47.8052" lon="-2.42341">
        <ele>60.7</ele>
        <time>2025-02-11T08:35:48Z</time>
      </trkpt>
      <trkpt lat="47.80521" lon="-2.42341">
        <ele>60.7</ele>
        <time>2025-02-11T08:35:49Z</time>
      </trkpt>
      <trkpt lat="47.80522" lon="-2.42342">
        <ele>60.8</ele>
        <time>2025-02-11T08:35:50Z</time>
      </trkpt>
      <trkpt lat="47.80523" lon="-2.42342">
        <ele>60.8</ele>
        <time>2025-02-11T08:35:51Z</time>
      </trkpt>
      <trkpt lat="47.80525" lon="-2.42343">
        <ele>60.9</ele>
        <time>2025-02-11T08:35:52Z</time>
      </trkpt>
      <trkpt lat="47.80526" lon="-2.42343">
        <ele>60.9</ele>
        <time>2025-02-11T08:35:53Z</time>
      </trkpt>
      <trkpt lat="47.80527" lon="-2.42343">
        <ele>61</ele>
        <time>2025-02-11T08:35:54Z</time>
      </trkpt>
      <trkpt lat="47.80528" lon="-2.42344">
        <ele>61</ele>
        <time>2025-02-11T08:35:55Z</time>
      </trkpt>
      <trkpt lat="47.80529" lon="-2.42345">
        <ele>61</ele>
        <time>2025-02-11T08:35:56Z</time>
      </trkpt>
      <trkpt lat="47.8053" lon="-2.42346">
        <ele>61.1</ele>
        <time>2025-02-11T08:35:57Z</time>
      </trkpt>
      <trkpt lat="47.80531" lon="-2.42346">
        <ele>61.1</ele>
        <time>2025-02-11T08:35:58Z</time>
      </trkpt>
      <trkpt lat="47.80532" lon="-2.42347">
        <ele>61.2</ele>
        <time>2025-02-11T08:35:59Z</time>
      </trkpt>
      <trkpt lat="47.80534" lon="-2.42346">
        <ele>61.2</ele>
        <time>2025-02-11T08:36:00Z</time>
      </trkpt>
      <trkpt lat="47.80535" lon="-2.42346">
        <ele>61.3</ele>
        <time>2025-02-11T08:36:01Z</time>
      </trkpt>
      <trkpt lat="47.80536" lon="-2.42347">
        <ele>61.3</ele>
        <time>2025-02-11T08:36:02Z</time>
      </trkpt>
      <trkpt lat="47.80538" lon="-2.42347">
        <ele>61.4</ele>
        <time>2025-02-11T08:36:03Z</time>
      </trkpt>
      <trkpt lat="47.80539" lon="-2.42348">
        <ele>61.4</ele>
        <time>2025-02-11T08:36:04Z</time>
      </trkpt>
      <trkpt lat="47.8054" lon="-2.42349">
        <ele>61.4</ele>
        <time>2025-02-11T08:36:05Z</time>
      </trkpt>
      <trkpt lat="47.80541" lon="-2.42349">
        <ele>61.5</ele>
        <time>2025-02-11T08:36:06Z</time>
      </trkpt>
      <trkpt lat="47.80542" lon="-2.42349">
        <ele>61.5</ele>
        <time>2025-02-11T08:36:07Z</time>
      </trkpt>
      <trkpt lat="47.80543" lon="-2.4235">
        <ele>61.5</ele>
        <time>2025-02-11T08:36:08Z</time>
      </trkpt>
      <trkpt lat="47.80544" lon="-2.4235">
        <ele>61.6</ele>
        <time>2025-02-11T08:36:09Z</time>
      </trkpt>
      <trkpt lat="47.80545" lon="-2.42352">
        <ele>61.6</ele>
        <time>2025-02-11T08:36:10Z</time>
      </trkpt>
      <trkpt lat="47.80546" lon="-2.42352">
        <ele>61.7</ele>
        <time>2025-02-11T08:36:11Z</time>
      </trkpt>
      <trkpt lat="47.80547" lon="-2.42352">
        <ele>61.7</ele>
        <time>2025-02-11T08:36:12Z</time>
      </trkpt>
      <trkpt lat="47.80548" lon="-2.42352">
        <ele>61.7</ele>
        <time>2025-02-11T08:36:13Z</time>
      </trkpt>
      <trkpt lat="47.8055" lon="-2.42352">
        <ele>61.8</ele>
        <time>2025-02-11T08:36:14Z</time>
      </trkpt>
      <trkpt lat="47.80551" lon="-2.42352">
        <ele>61.8</ele>
        <time>2025-02-11T08:36:15Z</time>
      </trkpt>
      <trkpt lat="47.80552" lon="-2.42353">
        <ele>61.9</ele>
        <time>2025-02-11T08:36:16Z</time>
      </trkpt>
      <trkpt lat="47.80553" lon="-2.42353">
        <ele>61.9</ele>
        <time>2025-02-11T08:36:17Z</time>
      </trkpt>
      <trkpt lat="47.80554" lon="-2.42355">
        <ele>61.9</ele>
        <time>2025-02-11T08:36:18Z</time>
      </trkpt>
      <trkpt lat="47.80555" lon="-2.42355">
        <ele>62</ele>
        <time>2025-02-11T08:36:19Z</time>
      </trkpt>
      <trkpt lat="47.80556" lon="-2.42356">
        <ele>62.1</ele>
        <time>2025-02-11T08:36:20Z</time>
      </trkpt>
      <trkpt lat="47.80557" lon="-2.42356">
        <ele>62.1</ele>
        <time>2025-02-11T08:36:21Z</time>
      </trkpt>
      <trkpt lat="47.80559" lon="-2.42357">
        <ele>62.2</ele>
        <time>2025-02-11T08:36:22Z</time>
      </trkpt>
      <trkpt lat="47.8056" lon="-2.42357">
        <ele>62.3</ele>
        <time>2025-02-11T08:36:23Z</time>
      </trkpt>
      <trkpt lat="47.80561" lon="-2.42357">
        <ele>62.4</ele>
        <time>2025-02-11T08:36:24Z</time>
      </trkpt>
      <trkpt lat="47.80562" lon="-2.42357">
        <ele>62.5</ele>
        <time>2025-02-11T08:36:25Z</time>
      </trkpt>
      <trkpt lat="47.80563" lon="-2.42357">
        <ele>62.6</ele>
        <time>2025-02-11T08:36:26Z</time>
      </trkpt>
      <trkpt lat="47.80565" lon="-2.42358">
        <ele>62.7</ele>
        <time>2025-02-11T08:36:27Z</time>
      </trkpt>
      <trkpt lat="47.80566" lon="-2.4236">
        <ele>62.7</ele>
        <time>2025-02-11T08:36:28Z</time>
      </trkpt>
      <trkpt lat="47.80567" lon="-2.42361">
        <ele>62.8</ele>
        <time>2025-02-11T08:36:29Z</time>
      </trkpt>
      <trkpt lat="47.80568" lon="-2.42362">
        <ele>62.8</ele>
        <time>2025-02-11T08:36:30Z</time>
      </trkpt>
      <trkpt lat="47.80569" lon="-2.42363">
        <ele>62.9</ele>
        <time>2025-02-11T08:36:31Z</time>
      </trkpt>
      <trkpt lat="47.8057" lon="-2.42364">
        <ele>62.9</ele>
        <time>2025-02-11T08:36:32Z</time>
      </trkpt>
      <trkpt lat="47.80571" lon="-2.42364">
        <ele>63</ele>
        <time>2025-02-11T08:36:33Z</time>
      </trkpt>
      <trkpt lat="47.80572" lon="-2.42365">
        <ele>63</ele>
        <time>2025-02-11T08:36:34Z</time>
      </trkpt>
      <trkpt lat="47.80573" lon="-2.42365">
        <ele>63.1</ele>
        <time>2025-02-11T08:36:35Z</time>
      </trkpt>
      <trkpt lat="47.80574" lon="-2.42365">
        <ele>63.2</ele>
        <time>2025-02-11T08:36:36Z</time>
      </trkpt>
      <trkpt lat="47.80575" lon="-2.42366">
        <ele>63.2</ele>
        <time>2025-02-11T08:36:37Z</time>
      </trkpt>
      <trkpt lat="47.80576" lon="-2.42366">
        <ele>63.3</ele>
        <time>2025-02-11T08:36:38Z</time>
      </trkpt>
      <trkpt lat="47.80577" lon="-2.42366">
        <ele>63.4</ele>
        <time>2025-02-11T08:36:39Z</time>
      </trkpt>
      <trkpt lat="47.80578" lon="-2.42366">
        <ele>63.5</ele>
        <time>2025-02-11T08:36:40Z</time>
      </trkpt>
      <trkpt lat="47.8058" lon="-2.42366">
        <ele>63.5</ele>
        <time>2025-02-11T08:36:41Z</time>
      </trkpt>
      <trkpt lat="47.8058" lon="-2.42367">
        <ele>63.6</ele>
        <time>2025-02-11T08:36:42Z</time>
      </trkpt>
      <trkpt lat="47.80581" lon="-2.42368">
        <ele>63.6</ele>
        <time>2025-02-11T08:36:43Z</time>
      </trkpt>
      <trkpt lat="47.80583" lon="-2.42368">
        <ele>63.7</ele>
        <time>2025-02-11T08:36:44Z</time>
      </trkpt>
      <trkpt lat="47.80584" lon="-2.42369">
        <ele>63.7</ele>
        <time>2025-02-11T08:36:45Z</time>
      </trkpt>
      <trkpt lat="47.80585" lon="-2.42369">
        <ele>63.8</ele>
        <time>2025-02-11T08:36:46Z</time>
      </trkpt>
      <trkpt lat="47.80586" lon="-2.4237">
        <ele>63.8</ele>
        <time>2025-02-11T08:36:47Z</time>
      </trkpt>
      <trkpt lat="47.80587" lon="-2.42371">
        <ele>63.8</ele>
        <time>2025-02-11T08:36:48Z</time>
      </trkpt>
      <trkpt lat="47.80588" lon="-2.42371">
        <ele>63.9</ele>
        <time>2025-02-11T08:36:49Z</time>
      </trkpt>
      <trkpt lat="47.80589" lon="-2.42372">
        <ele>63.9</ele>
        <time>2025-02-11T08:36:50Z</time>
      </trkpt>
      <trkpt lat="47.8059" lon="-2.42372">
        <ele>63.9</ele>
        <time>2025-02-11T08:36:51Z</time>
      </trkpt>
      <trkpt lat="47.80591" lon="-2.42372">
        <ele>64</ele>
        <time>2025-02-11T08:36:52Z</time>
      </trkpt>
      <trkpt lat="47.80592" lon="-2.42373">
        <ele>64</ele>
        <time>2025-02-11T08:36:53Z</time>
      </trkpt>
      <trkpt lat="47.80593" lon="-2.42374">
        <ele>64</ele>
        <time>2025-02-11T08:36:54Z</time>
      </trkpt>
      <trkpt lat="47.80593" lon="-2.42375">
        <ele>64.1</ele>
        <time>2025-02-11T08:36:55Z</time>
      </trkpt>
      <trkpt lat="47.80594" lon="-2.42376">
        <ele>64</ele>
        <time>2025-02-11T08:36:56Z</time>
      </trkpt>
      <trkpt lat="47.80595" lon="-2.42377">
        <ele>64.1</ele>
        <time>2025-02-11T08:36:57Z</time>
      </trkpt>
      <trkpt lat="47.80596" lon="-2.42377">
        <ele>64.1</ele>
        <time>2025-02-11T08:36:58Z</time>
      </trkpt>
      <trkpt lat="47.80597" lon="-2.42377">
        <ele>64.2</ele>
        <time>2025-02-11T08:36:59Z</time>
      </trkpt>
      <trkpt lat="47.80598" lon="-2.42376">
        <ele>64.3</ele>
        <time>2025-02-11T08:37:00Z</time>
      </trkpt>
      <trkpt lat="47.80599" lon="-2.42376">
        <ele>64.3</ele>
        <time>2025-02-11T08:37:01Z</time>
      </trkpt>
      <trkpt lat="47.806" lon="-2.42375">
        <ele>64.4</ele>
        <time>2025-02-11T08:37:02Z</time>
      </trkpt>
      <trkpt lat="47.806" lon="-2.42375">
        <ele>64.4</ele>
        <time>2025-02-11T08:37:03Z</time>
      </trkpt>
      <trkpt lat="47.80601" lon="-2.42374">
        <ele>64.5</ele>
        <time>2025-02-11T08:37:04Z</time>
      </trkpt>
      <trkpt lat="47.80602" lon="-2.42372">
        <ele>64.5</ele>
        <time>2025-02-11T08:37:05Z</time>
      </trkpt>
      <trkpt lat="47.80602" lon="-2.42371">
        <ele>64.6</ele>
        <time>2025-02-11T08:37:06Z</time>
      </trkpt>
      <trkpt lat="47.80603" lon="-2.42369">
        <ele>64.6</ele>
        <time>2025-02-11T08:37:07Z</time>
      </trkpt>
      <trkpt lat="47.80603" lon="-2.42368">
        <ele>64.6</ele>
        <time>2025-02-11T08:37:08Z</time>
      </trkpt>
      <trkpt lat="47.80603" lon="-2.42366">
        <ele>64.6</ele>
        <time>2025-02-11T08:37:09Z</time>
      </trkpt>
      <trkpt lat="47.80602" lon="-2.42364">
        <ele>64.6</ele>
        <time>2025-02-11T08:37:10Z</time>
      </trkpt>
      <trkpt lat="47.80602" lon="-2.42363">
        <ele>64.7</ele>
        <time>2025-02-11T08:37:11Z</time>
      </trkpt>
      <trkpt lat="47.80602" lon="-2.42361">
        <ele>64.7</ele>
        <time>2025-02-11T08:37:12Z</time>
      </trkpt>
      <trkpt lat="47.80602" lon="-2.42359">
        <ele>64.7</ele>
        <time>2025-02-11T08:37:13Z</time>
      </trkpt>
      <trkpt lat="47.80602" lon="-2.42357">
        <ele>64.7</ele>
        <time>2025-02-11T08:37:14Z</time>
      </trkpt>
      <trkpt lat="47.80602" lon="-2.42355">
        <ele>64.7</ele>
        <time>2025-02-11T08:37:15Z</time>
      </trkpt>
      <trkpt lat="47.80602" lon="-2.42353">
        <ele>64.7</ele>
        <time>2025-02-11T08:37:16Z</time>
      </trkpt>
      <trkpt lat="47.80602" lon="-2.42351">
        <ele>64.7</ele>
        <time>2025-02-11T08:37:17Z</time>
      </trkpt>
      <trkpt lat="47.80601" lon="-2.4235">
        <ele>64.6</ele>
        <time>2025-02-11T08:37:18Z</time>
      </trkpt>
      <trkpt lat="47.80601" lon="-2.42348">
        <ele>64.6</ele>
        <time>2025-02-11T08:37:19Z</time>
      </trkpt>
      <trkpt lat="47.806" lon="-2.42346">
        <ele>64.6</ele>
        <time>2025-02-11T08:37:20Z</time>
      </trkpt>
      <trkpt lat="47.806" lon="-2.42345">
        <ele>64.6</ele>
        <time>2025-02-11T08:37:21Z</time>
      </trkpt>
      <trkpt lat="47.806" lon="-2.42343">
        <ele>64.6</ele>
        <time>2025-02-11T08:37:22Z</time>
      </trkpt>
      <trkpt lat="47.806" lon="-2.42341">
        <ele>64.6</ele>
        <time>2025-02-11T08:37:23Z</time>
      </trkpt>
      <trkpt lat="47.806" lon="-2.42339">
        <ele>64.6</ele>
        <time>2025-02-11T08:37:24Z</time>
      </trkpt>
      <trkpt lat="47.806" lon="-2.42338">
        <ele>64.6</ele>
        <time>2025-02-11T08:37:25Z</time>
      </trkpt>
      <trkpt lat="47.806" lon="-2.42336">
        <ele>64.6</ele>
        <time>2025-02-11T08:37:26Z</time>
      </trkpt>
      <trkpt lat="47.806" lon="-2.42334">
        <ele>64.6</ele>
        <time>2025-02-11T08:37:27Z</time>
      </trkpt>
      <trkpt lat="47.806" lon="-2.42332">
        <ele>64.5</ele>
        <time>2025-02-11T08:37:28Z</time>
      </trkpt>
      <trkpt lat="47.806" lon="-2.4233">
        <ele>64.4</ele>
        <time>2025-02-11T08:37:29Z</time>
      </trkpt>
      <trkpt lat="47.806" lon="-2.42329">
        <ele>64.4</ele>
        <time>2025-02-11T08:37:30Z</time>
      </trkpt>
      <trkpt lat="47.80601" lon="-2.42327">
        <ele>64.3</ele>
        <time>2025-02-11T08:37:31Z</time>
      </trkpt>
      <trkpt lat="47.80602" lon="-2.42325">
        <ele>64.3</ele>
        <time>2025-02-11T08:37:32Z</time>
      </trkpt>
      <trkpt lat="47.80602" lon="-2.42323">
        <ele>64.2</ele>
        <time>2025-02-11T08:37:33Z</time>
      </trkpt>
      <trkpt lat="47.80602" lon="-2.42321">
        <ele>64.1</ele>
        <time>2025-02-11T08:37:34Z</time>
      </trkpt>
      <trkpt lat="47.80602" lon="-2.42319">
        <ele>64</ele>
        <time>2025-02-11T08:37:35Z</time>
      </trkpt>
      <trkpt lat="47.80602" lon="-2.42317">
        <ele>63.9</ele>
        <time>2025-02-11T08:37:36Z</time>
      </trkpt>
      <trkpt lat="47.80602" lon="-2.42316">
        <ele>63.8</ele>
        <time>2025-02-11T08:37:37Z</time>
      </trkpt>
      <trkpt lat="47.80603" lon="-2.42314">
        <ele>63.8</ele>
        <time>2025-02-11T08:37:38Z</time>
      </trkpt>
      <trkpt lat="47.80603" lon="-2.42312">
        <ele>63.7</ele>
        <time>2025-02-11T08:37:39Z</time>
      </trkpt>
      <trkpt lat="47.80603" lon="-2.42311">
        <ele>63.7</ele>
        <time>2025-02-11T08:37:40Z</time>
      </trkpt>
      <trkpt lat="47.80603" lon="-2.42309">
        <ele>63.6</ele>
        <time>2025-02-11T08:37:41Z</time>
      </trkpt>
      <trkpt lat="47.80603" lon="-2.42307">
        <ele>63.5</ele>
        <time>2025-02-11T08:37:42Z</time>
      </trkpt>
      <trkpt lat="47.80603" lon="-2.42305">
        <ele>63.4</ele>
        <time>2025-02-11T08:37:43Z</time>
      </trkpt>
      <trkpt lat="47.80603" lon="-2.42304">
        <ele>63.4</ele>
        <time>2025-02-11T08:37:44Z</time>
      </trkpt>
      <trkpt lat="47.80603" lon="-2.42302">
        <ele>63.3</ele>
        <time>2025-02-11T08:37:45Z</time>
      </trkpt>
      <trkpt lat="47.80603" lon="-2.423">
        <ele>63.3</ele>
        <time>2025-02-11T08:37:46Z</time>
      </trkpt>
      <trkpt lat="47.80603" lon="-2.42299">
        <ele>63.2</ele>
        <time>2025-02-11T08:37:47Z</time>
      </trkpt>
      <trkpt lat="47.80603" lon="-2.42297">
        <ele>63.2</ele>
        <time>2025-02-11T08:37:48Z</time>
      </trkpt>
      <trkpt lat="47.80603" lon="-2.42295">
        <ele>63.1</ele>
        <time>2025-02-11T08:37:49Z</time>
      </trkpt>
      <trkpt lat="47.80603" lon="-2.42293">
        <ele>63.1</ele>
        <time>2025-02-11T08:37:50Z</time>
      </trkpt>
      <trkpt lat="47.80603" lon="-2.42291">
        <ele>63.1</ele>
        <time>2025-02-11T08:37:51Z</time>
      </trkpt>
      <trkpt lat="47.80603" lon="-2.42289">
        <ele>63</ele>
        <time>2025-02-11T08:37:52Z</time>
      </trkpt>
      <trkpt lat="47.80603" lon="-2.42287">
        <ele>62.9</ele>
        <time>2025-02-11T08:37:53Z</time>
      </trkpt>
      <trkpt lat="47.80603" lon="-2.42285">
        <ele>62.9</ele>
        <time>2025-02-11T08:37:54Z</time>
      </trkpt>
      <trkpt lat="47.80603" lon="-2.42284">
        <ele>62.9</ele>
        <time>2025-02-11T08:37:55Z</time>
      </trkpt>
      <trkpt lat="47.80604" lon="-2.42282">
        <ele>62.8</ele>
        <time>2025-02-11T08:37:56Z</time>
      </trkpt>
      <trkpt lat="47.80604" lon="-2.4228">
        <ele>62.8</ele>
        <time>2025-02-11T08:37:57Z</time>
      </trkpt>
      <trkpt lat="47.80604" lon="-2.42278">
        <ele>62.8</ele>
        <time>2025-02-11T08:37:58Z</time>
      </trkpt>
      <trkpt lat="47.80605" lon="-2.42277">
        <ele>62.8</ele>
        <time>2025-02-11T08:37:59Z</time>
      </trkpt>
      <trkpt lat="47.80605" lon="-2.42275">
        <ele>62.9</ele>
        <time>2025-02-11T08:38:00Z</time>
      </trkpt>
      <trkpt lat="47.80605" lon="-2.42273">
        <ele>62.9</ele>
        <time>2025-02-11T08:38:01Z</time>
      </trkpt>
      <trkpt lat="47.80605" lon="-2.42271">
        <ele>63</ele>
        <time>2025-02-11T08:38:02Z</time>
      </trkpt>
      <trkpt lat="47.80606" lon="-2.4227">
        <ele>63</ele>
        <time>2025-02-11T08:38:03Z</time>
      </trkpt>
      <trkpt lat="47.80606" lon="-2.42268">
        <ele>63.1</ele>
        <time>2025-02-11T08:38:04Z</time>
      </trkpt>
      <trkpt lat="47.80606" lon="-2.42267">
        <ele>63.2</ele>
        <time>2025-02-11T08:38:05Z</time>
      </trkpt>
      <trkpt lat="47.80606" lon="-2.42265">
        <ele>63.2</ele>
        <time>2025-02-11T08:38:06Z</time>
      </trkpt>
      <trkpt lat="47.80607" lon="-2.42263">
        <ele>63.3</ele>
        <time>2025-02-11T08:38:07Z</time>
      </trkpt>
      <trkpt lat="47.80606" lon="-2.42261">
        <ele>63.3</ele>
        <time>2025-02-11T08:38:08Z</time>
      </trkpt>
      <trkpt lat="47.80606" lon="-2.4226">
        <ele>63.4</ele>
        <time>2025-02-11T08:38:09Z</time>
      </trkpt>
      <trkpt lat="47.80606" lon="-2.42258">
        <ele>63.4</ele>
        <time>2025-02-11T08:38:10Z</time>
      </trkpt>
      <trkpt lat="47.80607" lon="-2.42256">
        <ele>63.5</ele>
        <time>2025-02-11T08:38:11Z</time>
      </trkpt>
      <trkpt lat="47.80607" lon="-2.42254">
        <ele>63.6</ele>
        <time>2025-02-11T08:38:12Z</time>
      </trkpt>
      <trkpt lat="47.80607" lon="-2.42252">
        <ele>63.6</ele>
        <time>2025-02-11T08:38:13Z</time>
      </trkpt>
      <trkpt lat="47.80607" lon="-2.4225">
        <ele>63.7</ele>
        <time>2025-02-11T08:38:14Z</time>
      </trkpt>
      <trkpt lat="47.80607" lon="-2.42248">
        <ele>63.7</ele>
        <time>2025-02-11T08:38:15Z</time>
      </trkpt>
      <trkpt lat="47.80607" lon="-2.42246">
        <ele>63.7</ele>
        <time>2025-02-11T08:38:16Z</time>
      </trkpt>
      <trkpt lat="47.80607" lon="-2.42244">
        <ele>63.7</ele>
        <time>2025-02-11T08:38:17Z</time>
      </trkpt>
      <trkpt lat="47.80607" lon="-2.42243">
        <ele>63.7</ele>
        <time>2025-02-11T08:38:18Z</time>
      </trkpt>
      <trkpt lat="47.80607" lon="-2.42241">
        <ele>63.7</ele>
        <time>2025-02-11T08:38:19Z</time>
      </trkpt>
      <trkpt lat="47.80607" lon="-2.4224">
        <ele>63.7</ele>
        <time>2025-02-11T08:38:20Z</time>
      </trkpt>
      <trkpt lat="47.80607" lon="-2.42239">
        <ele>63.7</ele>
        <time>2025-02-11T08:38:21Z</time>
      </trkpt>
      <trkpt lat="47.80607" lon="-2.42237">
        <ele>63.7</ele>
        <time>2025-02-11T08:38:22Z</time>
      </trkpt>
      <trkpt lat="47.80607" lon="-2.42235">
        <ele>63.6</ele>
        <time>2025-02-11T08:38:23Z</time>
      </trkpt>
      <trkpt lat="47.80607" lon="-2.42233">
        <ele>63.6</ele>
        <time>2025-02-11T08:38:24Z</time>
      </trkpt>
      <trkpt lat="47.80607" lon="-2.42231">
        <ele>63.6</ele>
        <time>2025-02-11T08:38:25Z</time>
      </trkpt>
      <trkpt lat="47.80607" lon="-2.4223">
        <ele>63.6</ele>
        <time>2025-02-11T08:38:26Z</time>
      </trkpt>
      <trkpt lat="47.80608" lon="-2.42228">
        <ele>63.6</ele>
        <time>2025-02-11T08:38:27Z</time>
      </trkpt>
      <trkpt lat="47.80607" lon="-2.42226">
        <ele>63.6</ele>
        <time>2025-02-11T08:38:28Z</time>
      </trkpt>
      <trkpt lat="47.80607" lon="-2.42224">
        <ele>63.6</ele>
        <time>2025-02-11T08:38:29Z</time>
      </trkpt>
      <trkpt lat="47.80607" lon="-2.42223">
        <ele>63.6</ele>
        <time>2025-02-11T08:38:30Z</time>
      </trkpt>
      <trkpt lat="47.80607" lon="-2.42221">
        <ele>63.6</ele>
        <time>2025-02-11T08:38:31Z</time>
      </trkpt>
      <trkpt lat="47.80607" lon="-2.42219">
        <ele>63.6</ele>
        <time>2025-02-11T08:38:32Z</time>
      </trkpt>
      <trkpt lat="47.80608" lon="-2.42217">
        <ele>63.7</ele>
        <time>2025-02-11T08:38:33Z</time>
      </trkpt>
      <trkpt lat="47.80608" lon="-2.42215">
        <ele>63.7</ele>
        <time>2025-02-11T08:38:34Z</time>
      </trkpt>
      <trkpt lat="47.80609" lon="-2.42214">
        <ele>63.7</ele>
        <time>2025-02-11T08:38:35Z</time>
      </trkpt>
      <trkpt lat="47.80609" lon="-2.42212">
        <ele>63.8</ele>
        <time>2025-02-11T08:38:36Z</time>
      </trkpt>
      <trkpt lat="47.80609" lon="-2.4221">
        <ele>63.8</ele>
        <time>2025-02-11T08:38:37Z</time>
      </trkpt>
      <trkpt lat="47.80609" lon="-2.42209">
        <ele>63.8</ele>
        <time>2025-02-11T08:38:38Z</time>
      </trkpt>
      <trkpt lat="47.80608" lon="-2.42207">
        <ele>63.7</ele>
        <time>2025-02-11T08:38:39Z</time>
      </trkpt>
      <trkpt lat="47.80607" lon="-2.42205">
        <ele>63.7</ele>
        <time>2025-02-11T08:38:40Z</time>
      </trkpt>
      <trkpt lat="47.80607" lon="-2.42204">
        <ele>63.7</ele>
        <time>2025-02-11T08:38:41Z</time>
      </trkpt>
      <trkpt lat="47.80608" lon="-2.42202">
        <ele>63.7</ele>
        <time>2025-02-11T08:38:42Z</time>
      </trkpt>
      <trkpt lat="47.80608" lon="-2.422">
        <ele>63.8</ele>
        <time>2025-02-11T08:38:43Z</time>
      </trkpt>
      <trkpt lat="47.80609" lon="-2.42198">
        <ele>63.8</ele>
        <time>2025-02-11T08:38:44Z</time>
      </trkpt>
      <trkpt lat="47.80609" lon="-2.42196">
        <ele>63.8</ele>
        <time>2025-02-11T08:38:45Z</time>
      </trkpt>
      <trkpt lat="47.80609" lon="-2.42194">
        <ele>63.9</ele>
        <time>2025-02-11T08:38:46Z</time>
      </trkpt>
      <trkpt lat="47.8061" lon="-2.42193">
        <ele>64</ele>
        <time>2025-02-11T08:38:47Z</time>
      </trkpt>
      <trkpt lat="47.8061" lon="-2.42191">
        <ele>64</ele>
        <time>2025-02-11T08:38:48Z</time>
      </trkpt>
      <trkpt lat="47.80609" lon="-2.4219">
        <ele>64.1</ele>
        <time>2025-02-11T08:38:49Z</time>
      </trkpt>
      <trkpt lat="47.8061" lon="-2.42188">
        <ele>64.1</ele>
        <time>2025-02-11T08:38:50Z</time>
      </trkpt>
      <trkpt lat="47.8061" lon="-2.42186">
        <ele>64.2</ele>
        <time>2025-02-11T08:38:51Z</time>
      </trkpt>
      <trkpt lat="47.8061" lon="-2.42185">
        <ele>64.3</ele>
        <time>2025-02-11T08:38:52Z</time>
      </trkpt>
      <trkpt lat="47.8061" lon="-2.42183">
        <ele>64.4</ele>
        <time>2025-02-11T08:38:53Z</time>
      </trkpt>
      <trkpt lat="47.80611" lon="-2.42182">
        <ele>64.4</ele>
        <time>2025-02-11T08:38:54Z</time>
      </trkpt>
      <trkpt lat="47.80611" lon="-2.4218">
        <ele>64.5</ele>
        <time>2025-02-11T08:38:55Z</time>
      </trkpt>
      <trkpt lat="47.80611" lon="-2.42179">
        <ele>64.6</ele>
        <time>2025-02-11T08:38:56Z</time>
      </trkpt>
      <trkpt lat="47.80611" lon="-2.42177">
        <ele>64.6</ele>
        <time>2025-02-11T08:38:57Z</time>
      </trkpt>
      <trkpt lat="47.80611" lon="-2.42176">
        <ele>64.7</ele>
        <time>2025-02-11T08:38:58Z</time>
      </trkpt>
      <trkpt lat="47.80611" lon="-2.42174">
        <ele>64.7</ele>
        <time>2025-02-11T08:38:59Z</time>
      </trkpt>
      <trkpt lat="47.80611" lon="-2.42172">
        <ele>64.8</ele>
        <time>2025-02-11T08:39:00Z</time>
      </trkpt>
      <trkpt lat="47.80612" lon="-2.42171">
        <ele>64.9</ele>
        <time>2025-02-11T08:39:01Z</time>
      </trkpt>
      <trkpt lat="47.80612" lon="-2.4217">
        <ele>64.9</ele>
        <time>2025-02-11T08:39:02Z</time>
      </trkpt>
      <trkpt lat="47.80612" lon="-2.42168">
        <ele>65</ele>
        <time>2025-02-11T08:39:03Z</time>
      </trkpt>
      <trkpt lat="47.80612" lon="-2.42167">
        <ele>65.1</ele>
        <time>2025-02-11T08:39:04Z</time>
      </trkpt>
      <trkpt lat="47.80612" lon="-2.42165">
        <ele>65.1</ele>
        <time>2025-02-11T08:39:05Z</time>
      </trkpt>
      <trkpt lat="47.80612" lon="-2.42163">
        <ele>65.2</ele>
        <time>2025-02-11T08:39:06Z</time>
      </trkpt>
      <trkpt lat="47.80612" lon="-2.42161">
        <ele>65.2</ele>
        <time>2025-02-11T08:39:07Z</time>
      </trkpt>
      <trkpt lat="47.80612" lon="-2.4216">
        <ele>65.3</ele>
        <time>2025-02-11T08:39:08Z</time>
      </trkpt>
      <trkpt lat="47.80613" lon="-2.42158">
        <ele>65.4</ele>
        <time>2025-02-11T08:39:09Z</time>
      </trkpt>
      <trkpt lat="47.80613" lon="-2.42157">
        <ele>65.5</ele>
        <time>2025-02-11T08:39:10Z</time>
      </trkpt>
      <trkpt lat="47.80613" lon="-2.42155">
        <ele>65.5</ele>
        <time>2025-02-11T08:39:11Z</time>
      </trkpt>
      <trkpt lat="47.80612" lon="-2.42153">
        <ele>65.6</ele>
        <time>2025-02-11T08:39:12Z</time>
      </trkpt>
      <trkpt lat="47.80612" lon="-2.42152">
        <ele>65.6</ele>
        <time>2025-02-11T08:39:13Z</time>
      </trkpt>
      <trkpt lat="47.80612" lon="-2.4215">
        <ele>65.7</ele>
        <time>2025-02-11T08:39:14Z</time>
      </trkpt>
      <trkpt lat="47.80612" lon="-2.42148">
        <ele>65.7</ele>
        <time>2025-02-11T08:39:15Z</time>
      </trkpt>
      <trkpt lat="47.80613" lon="-2.42147">
        <ele>65.8</ele>
        <time>2025-02-11T08:39:16Z</time>
      </trkpt>
      <trkpt lat="47.80613" lon="-2.42145">
        <ele>65.9</ele>
        <time>2025-02-11T08:39:17Z</time>
      </trkpt>
      <trkpt lat="47.80613" lon="-2.42143">
        <ele>65.9</ele>
        <time>2025-02-11T08:39:18Z</time>
      </trkpt>
      <trkpt lat="47.80613" lon="-2.42141">
        <ele>66</ele>
        <time>2025-02-11T08:39:19Z</time>
      </trkpt>
      <trkpt lat="47.80613" lon="-2.42139">
        <ele>66.1</ele>
        <time>2025-02-11T08:39:20Z</time>
      </trkpt>
      <trkpt lat="47.80613" lon="-2.42137">
        <ele>66.1</ele>
        <time>2025-02-11T08:39:21Z</time>
      </trkpt>
      <trkpt lat="47.80613" lon="-2.42135">
        <ele>66.2</ele>
        <time>2025-02-11T08:39:22Z</time>
      </trkpt>
      <trkpt lat="47.80613" lon="-2.42134">
        <ele>66.3</ele>
        <time>2025-02-11T08:39:23Z</time>
      </trkpt>
      <trkpt lat="47.80613" lon="-2.42132">
        <ele>66.3</ele>
        <time>2025-02-11T08:39:24Z</time>
      </trkpt>
      <trkpt lat="47.80614" lon="-2.4213">
        <ele>66.4</ele>
        <time>2025-02-11T08:39:25Z</time>
      </trkpt>
      <trkpt lat="47.80614" lon="-2.42129">
        <ele>66.5</ele>
        <time>2025-02-11T08:39:26Z</time>
      </trkpt>
      <trkpt lat="47.80614" lon="-2.42127">
        <ele>66.6</ele>
        <time>2025-02-11T08:39:27Z</time>
      </trkpt>
      <trkpt lat="47.80614" lon="-2.42125">
        <ele>66.6</ele>
        <time>2025-02-11T08:39:28Z</time>
      </trkpt>
      <trkpt lat="47.80614" lon="-2.42123">
        <ele>66.7</ele>
        <time>2025-02-11T08:39:29Z</time>
      </trkpt>
      <trkpt lat="47.80614" lon="-2.42121">
        <ele>66.8</ele>
        <time>2025-02-11T08:39:30Z</time>
      </trkpt>
      <trkpt lat="47.80613" lon="-2.4212">
        <ele>66.8</ele>
        <time>2025-02-11T08:39:31Z</time>
      </trkpt>
      <trkpt lat="47.80613" lon="-2.42118">
        <ele>66.9</ele>
        <time>2025-02-11T08:39:32Z</time>
      </trkpt>
      <trkpt lat="47.80613" lon="-2.42116">
        <ele>67</ele>
        <time>2025-02-11T08:39:33Z</time>
      </trkpt>
      <trkpt lat="47.80613" lon="-2.42114">
        <ele>67</ele>
        <time>2025-02-11T08:39:34Z</time>
      </trkpt>
      <trkpt lat="47.80613" lon="-2.42112">
        <ele>67.1</ele>
        <time>2025-02-11T08:39:35Z</time>
      </trkpt>
      <trkpt lat="47.80613" lon="-2.42111">
        <ele>67.2</ele>
        <time>2025-02-11T08:39:36Z</time>
      </trkpt>
      <trkpt lat="47.80613" lon="-2.42109">
        <ele>67.2</ele>
        <time>2025-02-11T08:39:37Z</time>
      </trkpt>
      <trkpt lat="47.80613" lon="-2.42107">
        <ele>67.3</ele>
        <time>2025-02-11T08:39:38Z</time>
      </trkpt>
      <trkpt lat="47.80614" lon="-2.42105">
        <ele>67.4</ele>
        <time>2025-02-11T08:39:39Z</time>
      </trkpt>
      <trkpt lat="47.80614" lon="-2.42104">
        <ele>67.5</ele>
        <time>2025-02-11T08:39:40Z</time>
      </trkpt>
      <trkpt lat="47.80614" lon="-2.42102">
        <ele>67.5</ele>
        <time>2025-02-11T08:39:41Z</time>
      </trkpt>
      <trkpt lat="47.80614" lon="-2.421">
        <ele>67.6</ele>
        <time>2025-02-11T08:39:42Z</time>
      </trkpt>
      <trkpt lat="47.80614" lon="-2.42098">
        <ele>67.7</ele>
        <time>2025-02-11T08:39:43Z</time>
      </trkpt>
      <trkpt lat="47.80614" lon="-2.42097">
        <ele>67.8</ele>
        <time>2025-02-11T08:39:44Z</time>
      </trkpt>
      <trkpt lat="47.80614" lon="-2.42095">
        <ele>67.8</ele>
        <time>2025-02-11T08:39:45Z</time>
      </trkpt>
      <trkpt lat="47.80614" lon="-2.42094">
        <ele>67.8</ele>
        <time>2025-02-11T08:39:46Z</time>
      </trkpt>
      <trkpt lat="47.80614" lon="-2.42092">
        <ele>67.9</ele>
        <time>2025-02-11T08:39:47Z</time>
      </trkpt>
      <trkpt lat="47.80614" lon="-2.4209">
        <ele>67.9</ele>
        <time>2025-02-11T08:39:48Z</time>
      </trkpt>
      <trkpt lat="47.80614" lon="-2.42088">
        <ele>68</ele>
        <time>2025-02-11T08:39:49Z</time>
      </trkpt>
      <trkpt lat="47.80614" lon="-2.42087">
        <ele>68.1</ele>
        <time>2025-02-11T08:39:50Z</time>
      </trkpt>
      <trkpt lat="47.80614" lon="-2.42085">
        <ele>68.2</ele>
        <time>2025-02-11T08:39:51Z</time>
      </trkpt>
      <trkpt lat="47.80614" lon="-2.42083">
        <ele>68.2</ele>
        <time>2025-02-11T08:39:52Z</time>
      </trkpt>
      <trkpt lat="47.80614" lon="-2.42082">
        <ele>68.2</ele>
        <time>2025-02-11T08:39:53Z</time>
      </trkpt>
      <trkpt lat="47.80613" lon="-2.4208">
        <ele>68.3</ele>
        <time>2025-02-11T08:39:54Z</time>
      </trkpt>
      <trkpt lat="47.80613" lon="-2.42079">
        <ele>68.3</ele>
        <time>2025-02-11T08:39:55Z</time>
      </trkpt>
      <trkpt lat="47.80612" lon="-2.42077">
        <ele>68.3</ele>
        <time>2025-02-11T08:39:56Z</time>
      </trkpt>
      <trkpt lat="47.80612" lon="-2.42075">
        <ele>68.3</ele>
        <time>2025-02-11T08:39:57Z</time>
      </trkpt>
      <trkpt lat="47.80611" lon="-2.42073">
        <ele>68.4</ele>
        <time>2025-02-11T08:39:58Z</time>
      </trkpt>
      <trkpt lat="47.80611" lon="-2.42071">
        <ele>68.4</ele>
        <time>2025-02-11T08:39:59Z</time>
      </trkpt>
      <trkpt lat="47.8061" lon="-2.42069">
        <ele>68.5</ele>
        <time>2025-02-11T08:40:00Z</time>
      </trkpt>
      <trkpt lat="47.8061" lon="-2.42068">
        <ele>68.5</ele>
        <time>2025-02-11T08:40:01Z</time>
      </trkpt>
      <trkpt lat="47.8061" lon="-2.42066">
        <ele>68.5</ele>
        <time>2025-02-11T08:40:02Z</time>
      </trkpt>
      <trkpt lat="47.8061" lon="-2.42064">
        <ele>68.6</ele>
        <time>2025-02-11T08:40:03Z</time>
      </trkpt>
      <trkpt lat="47.80609" lon="-2.42062">
        <ele>68.6</ele>
        <time>2025-02-11T08:40:04Z</time>
      </trkpt>
      <trkpt lat="47.80609" lon="-2.4206">
        <ele>68.7</ele>
        <time>2025-02-11T08:40:05Z</time>
      </trkpt>
      <trkpt lat="47.80608" lon="-2.42058">
        <ele>68.7</ele>
        <time>2025-02-11T08:40:06Z</time>
      </trkpt>
      <trkpt lat="47.80608" lon="-2.42056">
        <ele>68.8</ele>
        <time>2025-02-11T08:40:07Z</time>
      </trkpt>
      <trkpt lat="47.80608" lon="-2.42054">
        <ele>68.8</ele>
        <time>2025-02-11T08:40:08Z</time>
      </trkpt>
      <trkpt lat="47.80608" lon="-2.42052">
        <ele>68.9</ele>
        <time>2025-02-11T08:40:09Z</time>
      </trkpt>
      <trkpt lat="47.80608" lon="-2.4205">
        <ele>68.9</ele>
        <time>2025-02-11T08:40:10Z</time>
      </trkpt>
      <trkpt lat="47.80607" lon="-2.42048">
        <ele>69</ele>
        <time>2025-02-11T08:40:11Z</time>
      </trkpt>
      <trkpt lat="47.80607" lon="-2.42046">
        <ele>69.1</ele>
        <time>2025-02-11T08:40:12Z</time>
      </trkpt>
      <trkpt lat="47.80607" lon="-2.42044">
        <ele>69.1</ele>
        <time>2025-02-11T08:40:13Z</time>
      </trkpt>
      <trkpt lat="47.80607" lon="-2.42042">
        <ele>69.2</ele>
        <time>2025-02-11T08:40:14Z</time>
      </trkpt>
      <trkpt lat="47.80607" lon="-2.4204">
        <ele>69.2</ele>
        <time>2025-02-11T08:40:15Z</time>
      </trkpt>
      <trkpt lat="47.80606" lon="-2.42039">
        <ele>69.3</ele>
        <time>2025-02-11T08:40:16Z</time>
      </trkpt>
      <trkpt lat="47.80606" lon="-2.42037">
        <ele>69.3</ele>
        <time>2025-02-11T08:40:17Z</time>
      </trkpt>
      <trkpt lat="47.80605" lon="-2.42035">
        <ele>69.3</ele>
        <time>2025-02-11T08:40:18Z</time>
      </trkpt>
      <trkpt lat="47.80604" lon="-2.42033">
        <ele>69.3</ele>
        <time>2025-02-11T08:40:19Z</time>
      </trkpt>
      <trkpt lat="47.80604" lon="-2.42031">
        <ele>69.4</ele>
        <time>2025-02-11T08:40:20Z</time>
      </trkpt>
      <trkpt lat="47.80603" lon="-2.42029">
        <ele>69.4</ele>
        <time>2025-02-11T08:40:21Z</time>
      </trkpt>
      <trkpt lat="47.80603" lon="-2.42027">
        <ele>69.4</ele>
        <time>2025-02-11T08:40:22Z</time>
      </trkpt>
      <trkpt lat="47.80603" lon="-2.42025">
        <ele>69.5</ele>
        <time>2025-02-11T08:40:23Z</time>
      </trkpt>
      <trkpt lat="47.80603" lon="-2.42023">
        <ele>69.5</ele>
        <time>2025-02-11T08:40:24Z</time>
      </trkpt>
      <trkpt lat="47.80603" lon="-2.4202">
        <ele>69.6</ele>
        <time>2025-02-11T08:40:25Z</time>
      </trkpt>
      <trkpt lat="47.80602" lon="-2.42019">
        <ele>69.6</ele>
        <time>2025-02-11T08:40:26Z</time>
      </trkpt>
      <trkpt lat="47.80602" lon="-2.42017">
        <ele>69.6</ele>
        <time>2025-02-11T08:40:27Z</time>
      </trkpt>
      <trkpt lat="47.80601" lon="-2.42015">
        <ele>69.6</ele>
        <time>2025-02-11T08:40:28Z</time>
      </trkpt>
      <trkpt lat="47.80601" lon="-2.42013">
        <ele>69.6</ele>
        <time>2025-02-11T08:40:29Z</time>
      </trkpt>
      <trkpt lat="47.80601" lon="-2.42012">
        <ele>69.6</ele>
        <time>2025-02-11T08:40:30Z</time>
      </trkpt>
      <trkpt lat="47.80601" lon="-2.4201">
        <ele>69.6</ele>
        <time>2025-02-11T08:40:31Z</time>
      </trkpt>
      <trkpt lat="47.806" lon="-2.42008">
        <ele>69.6</ele>
        <time>2025-02-11T08:40:32Z</time>
      </trkpt>
      <trkpt lat="47.806" lon="-2.42007">
        <ele>69.7</ele>
        <time>2025-02-11T08:40:33Z</time>
      </trkpt>
      <trkpt lat="47.806" lon="-2.42005">
        <ele>69.7</ele>
        <time>2025-02-11T08:40:34Z</time>
      </trkpt>
      <trkpt lat="47.806" lon="-2.42003">
        <ele>69.7</ele>
        <time>2025-02-11T08:40:35Z</time>
      </trkpt>
      <trkpt lat="47.806" lon="-2.42001">
        <ele>69.8</ele>
        <time>2025-02-11T08:40:36Z</time>
      </trkpt>
      <trkpt lat="47.806" lon="-2.41999">
        <ele>69.8</ele>
        <time>2025-02-11T08:40:37Z</time>
      </trkpt>
      <trkpt lat="47.80599" lon="-2.41998">
        <ele>69.8</ele>
        <time>2025-02-11T08:40:38Z</time>
      </trkpt>
      <trkpt lat="47.80599" lon="-2.41996">
        <ele>69.8</ele>
        <time>2025-02-11T08:40:39Z</time>
      </trkpt>
      <trkpt lat="47.80598" lon="-2.41995">
        <ele>69.8</ele>
        <time>2025-02-11T08:40:40Z</time>
      </trkpt>
      <trkpt lat="47.80598" lon="-2.41993">
        <ele>69.9</ele>
        <time>2025-02-11T08:40:41Z</time>
      </trkpt>
      <trkpt lat="47.80598" lon="-2.41991">
        <ele>69.9</ele>
        <time>2025-02-11T08:40:42Z</time>
      </trkpt>
      <trkpt lat="47.80597" lon="-2.41989">
        <ele>69.9</ele>
        <time>2025-02-11T08:40:43Z</time>
      </trkpt>
      <trkpt lat="47.80597" lon="-2.41987">
        <ele>69.9</ele>
        <time>2025-02-11T08:40:44Z</time>
      </trkpt>
      <trkpt lat="47.80596" lon="-2.41985">
        <ele>69.9</ele>
        <time>2025-02-11T08:40:45Z</time>
      </trkpt>
      <trkpt lat="47.80596" lon="-2.41984">
        <ele>70</ele>
        <time>2025-02-11T08:40:46Z</time>
      </trkpt>
      <trkpt lat="47.80596" lon="-2.41982">
        <ele>70</ele>
        <time>2025-02-11T08:40:47Z</time>
      </trkpt>
      <trkpt lat="47.80596" lon="-2.4198">
        <ele>70</ele>
        <time>2025-02-11T08:40:48Z</time>
      </trkpt>
      <trkpt lat="47.80595" lon="-2.41978">
        <ele>70.1</ele>
        <time>2025-02-11T08:40:49Z</time>
      </trkpt>
      <trkpt lat="47.80595" lon="-2.41978">
        <ele>70</ele>
        <time>2025-02-11T08:40:50Z</time>
      </trkpt>
      <trkpt lat="47.80595" lon="-2.41978">
        <ele>70.1</ele>
        <time>2025-02-11T08:40:51Z</time>
      </trkpt>
      <trkpt lat="47.80595" lon="-2.41978">
        <ele>70.1</ele>
        <time>2025-02-11T08:40:52Z</time>
      </trkpt>
      <trkpt lat="47.80595" lon="-2.41978">
        <ele>70.1</ele>
        <time>2025-02-11T08:40:53Z</time>
      </trkpt>
      <trkpt lat="47.80595" lon="-2.41978">
        <ele>70.1</ele>
        <time>2025-02-11T08:40:54Z</time>
      </trkpt>
      <trkpt lat="47.80595" lon="-2.41978">
        <ele>70.1</ele>
        <time>2025-02-11T08:40:55Z</time>
      </trkpt>
      <trkpt lat="47.80595" lon="-2.41978">
        <ele>70.1</ele>
        <time>2025-02-11T08:40:56Z</time>
      </trkpt>
      <trkpt lat="47.80595" lon="-2.41978">
        <ele>70.1</ele>
        <time>2025-02-11T08:40:57Z</time>
      </trkpt>
      <trkpt lat="47.80595" lon="-2.41978">
        <ele>70.1</ele>
        <time>2025-02-11T08:40:58Z</time>
      </trkpt>
      <trkpt lat="47.80595" lon="-2.41978">
        <ele>70.1</ele>
        <time>2025-02-11T08:40:59Z</time>
      </trkpt>
      <trkpt lat="47.80595" lon="-2.41978">
        <ele>70.1</ele>
        <time>2025-02-11T08:41:00Z</time>
      </trkpt>
      <trkpt lat="47.80595" lon="-2.41978">
        <ele>70.1</ele>
        <time>2025-02-11T08:41:01Z</time>
      </trkpt>
      <trkpt lat="47.80595" lon="-2.41978">
        <ele>70.1</ele>
        <time>2025-02-11T08:41:02Z</time>
      </trkpt>
      <trkpt lat="47.80595" lon="-2.41978">
        <ele>70.1</ele>
        <time>2025-02-11T08:41:03Z</time>
      </trkpt>
      <trkpt lat="47.80595" lon="-2.41978">
        <ele>70.1</ele>
        <time>2025-02-11T08:41:04Z</time>
      </trkpt>
      <trkpt lat="47.80595" lon="-2.41978">
        <ele>70.1</ele>
        <time>2025-02-11T08:41:05Z</time>
      </trkpt>
      <trkpt lat="47.80595" lon="-2.41978">
        <ele>70.1</ele>
        <time>2025-02-11T08:41:06Z</time>
      </trkpt>
      <trkpt lat="47.80595" lon="-2.41978">
        <ele>70.1</ele>
        <time>2025-02-11T08:41:07Z</time>
      </trkpt>
      <trkpt lat="47.80595" lon="-2.41978">
        <ele>70.1</ele>
        <time>2025-02-11T08:41:08Z</time>
      </trkpt>
      <trkpt lat="47.80595" lon="-2.41978">
        <ele>70.1</ele>
        <time>2025-02-11T08:41:09Z</time>
      </trkpt>
      <trkpt lat="47.80595" lon="-2.41978">
        <ele>70.1</ele>
        <time>2025-02-11T08:41:10Z</time>
      </trkpt>
      <trkpt lat="47.80595" lon="-2.41978">
        <ele>70.1</ele>
        <time>2025-02-11T08:41:11Z</time>
      </trkpt>
      <trkpt lat="47.80595" lon="-2.41978">
        <ele>70.1</ele>
        <time>2025-02-11T08:41:12Z</time>
      </trkpt>
      <trkpt lat="47.80595" lon="-2.41977">
        <ele>70.1</ele>
        <time>2025-02-11T08:41:13Z</time>
      </trkpt>
      <trkpt lat="47.80595" lon="-2.41975">
        <ele>70.1</ele>
        <time>2025-02-11T08:41:14Z</time>
      </trkpt>
      <trkpt lat="47.80594" lon="-2.41974">
        <ele>70</ele>
        <time>2025-02-11T08:41:15Z</time>
      </trkpt>
      <trkpt lat="47.80594" lon="-2.41972">
        <ele>70.1</ele>
        <time>2025-02-11T08:41:16Z</time>
      </trkpt>
      <trkpt lat="47.80594" lon="-2.41971">
        <ele>70.2</ele>
        <time>2025-02-11T08:41:17Z</time>
      </trkpt>
      <trkpt lat="47.80594" lon="-2.41969">
        <ele>70.2</ele>
        <time>2025-02-11T08:41:18Z</time>
      </trkpt>
      <trkpt lat="47.80594" lon="-2.41968">
        <ele>70.2</ele>
        <time>2025-02-11T08:41:19Z</time>
      </trkpt>
      <trkpt lat="47.80594" lon="-2.41966">
        <ele>70.1</ele>
        <time>2025-02-11T08:41:20Z</time>
      </trkpt>
      <trkpt lat="47.80594" lon="-2.41964">
        <ele>70.2</ele>
        <time>2025-02-11T08:41:21Z</time>
      </trkpt>
      <trkpt lat="47.80594" lon="-2.41962">
        <ele>70.1</ele>
        <time>2025-02-11T08:41:22Z</time>
      </trkpt>
      <trkpt lat="47.80594" lon="-2.41961">
        <ele>70.1</ele>
        <time>2025-02-11T08:41:23Z</time>
      </trkpt>
      <trkpt lat="47.80593" lon="-2.41959">
        <ele>70</ele>
        <time>2025-02-11T08:41:24Z</time>
      </trkpt>
      <trkpt lat="47.80593" lon="-2.41957">
        <ele>70</ele>
        <time>2025-02-11T08:41:25Z</time>
      </trkpt>
      <trkpt lat="47.80593" lon="-2.41955">
        <ele>70</ele>
        <time>2025-02-11T08:41:26Z</time>
      </trkpt>
      <trkpt lat="47.80593" lon="-2.41953">
        <ele>70</ele>
        <time>2025-02-11T08:41:27Z</time>
      </trkpt>
      <trkpt lat="47.80593" lon="-2.41951">
        <ele>70</ele>
        <time>2025-02-11T08:41:28Z</time>
      </trkpt>
      <trkpt lat="47.80592" lon="-2.4195">
        <ele>70</ele>
        <time>2025-02-11T08:41:29Z</time>
      </trkpt>
      <trkpt lat="47.80592" lon="-2.41948">
        <ele>69.9</ele>
        <time>2025-02-11T08:41:30Z</time>
      </trkpt>
      <trkpt lat="47.80592" lon="-2.41946">
        <ele>69.9</ele>
        <time>2025-02-11T08:41:31Z</time>
      </trkpt>
      <trkpt lat="47.80592" lon="-2.41944">
        <ele>69.9</ele>
        <time>2025-02-11T08:41:32Z</time>
      </trkpt>
      <trkpt lat="47.80591" lon="-2.41942">
        <ele>69.9</ele>
        <time>2025-02-11T08:41:33Z</time>
      </trkpt>
      <trkpt lat="47.80591" lon="-2.4194">
        <ele>69.8</ele>
        <time>2025-02-11T08:41:34Z</time>
      </trkpt>
      <trkpt lat="47.8059" lon="-2.41938">
        <ele>69.7</ele>
        <time>2025-02-11T08:41:35Z</time>
      </trkpt>
      <trkpt lat="47.8059" lon="-2.41936">
        <ele>69.7</ele>
        <time>2025-02-11T08:41:36Z</time>
      </trkpt>
      <trkpt lat="47.80589" lon="-2.41934">
        <ele>69.6</ele>
        <time>2025-02-11T08:41:37Z</time>
      </trkpt>
      <trkpt lat="47.80588" lon="-2.41932">
        <ele>69.5</ele>
        <time>2025-02-11T08:41:38Z</time>
      </trkpt>
      <trkpt lat="47.80588" lon="-2.4193">
        <ele>69.5</ele>
        <time>2025-02-11T08:41:39Z</time>
      </trkpt>
      <trkpt lat="47.80587" lon="-2.41928">
        <ele>69.4</ele>
        <time>2025-02-11T08:41:40Z</time>
      </trkpt>
      <trkpt lat="47.80587" lon="-2.41926">
        <ele>69.4</ele>
        <time>2025-02-11T08:41:41Z</time>
      </trkpt>
      <trkpt lat="47.80586" lon="-2.41924">
        <ele>69.3</ele>
        <time>2025-02-11T08:41:42Z</time>
      </trkpt>
      <trkpt lat="47.80586" lon="-2.41922">
        <ele>69.3</ele>
        <time>2025-02-11T08:41:43Z</time>
      </trkpt>
      <trkpt lat="47.80586" lon="-2.4192">
        <ele>69.3</ele>
        <time>2025-02-11T08:41:44Z</time>
      </trkpt>
      <trkpt lat="47.80586" lon="-2.41918">
        <ele>69.3</ele>
        <time>2025-02-11T08:41:45Z</time>
      </trkpt>
      <trkpt lat="47.80586" lon="-2.41916">
        <ele>69.3</ele>
        <time>2025-02-11T08:41:46Z</time>
      </trkpt>
      <trkpt lat="47.80586" lon="-2.41915">
        <ele>69.3</ele>
        <time>2025-02-11T08:41:47Z</time>
      </trkpt>
      <trkpt lat="47.80586" lon="-2.41913">
        <ele>69.2</ele>
        <time>2025-02-11T08:41:48Z</time>
      </trkpt>
      <trkpt lat="47.80585" lon="-2.41911">
        <ele>69.2</ele>
        <time>2025-02-11T08:41:49Z</time>
      </trkpt>
      <trkpt lat="47.80585" lon="-2.4191">
        <ele>69.2</ele>
        <time>2025-02-11T08:41:50Z</time>
      </trkpt>
      <trkpt lat="47.80585" lon="-2.41908">
        <ele>69.2</ele>
        <time>2025-02-11T08:41:51Z</time>
      </trkpt>
      <trkpt lat="47.80585" lon="-2.41906">
        <ele>69.1</ele>
        <time>2025-02-11T08:41:52Z</time>
      </trkpt>
      <trkpt lat="47.80585" lon="-2.41904">
        <ele>69.1</ele>
        <time>2025-02-11T08:41:53Z</time>
      </trkpt>
      <trkpt lat="47.80585" lon="-2.41903">
        <ele>69.1</ele>
        <time>2025-02-11T08:41:54Z</time>
      </trkpt>
      <trkpt lat="47.80584" lon="-2.41901">
        <ele>69.1</ele>
        <time>2025-02-11T08:41:55Z</time>
      </trkpt>
      <trkpt lat="47.80584" lon="-2.41899">
        <ele>69.1</ele>
        <time>2025-02-11T08:41:56Z</time>
      </trkpt>
      <trkpt lat="47.80584" lon="-2.41898">
        <ele>69.1</ele>
        <time>2025-02-11T08:41:57Z</time>
      </trkpt>
      <trkpt lat="47.80584" lon="-2.41896">
        <ele>69.1</ele>
        <time>2025-02-11T08:41:58Z</time>
      </trkpt>
      <trkpt lat="47.80584" lon="-2.41895">
        <ele>69.1</ele>
        <time>2025-02-11T08:41:59Z</time>
      </trkpt>
      <trkpt lat="47.80583" lon="-2.41893">
        <ele>69</ele>
        <time>2025-02-11T08:42:00Z</time>
      </trkpt>
      <trkpt lat="47.80582" lon="-2.41892">
        <ele>68.9</ele>
        <time>2025-02-11T08:42:01Z</time>
      </trkpt>
      <trkpt lat="47.80581" lon="-2.41892">
        <ele>68.9</ele>
        <time>2025-02-11T08:42:02Z</time>
      </trkpt>
      <trkpt lat="47.80581" lon="-2.41891">
        <ele>68.8</ele>
        <time>2025-02-11T08:42:03Z</time>
      </trkpt>
      <trkpt lat="47.80581" lon="-2.41889">
        <ele>68.8</ele>
        <time>2025-02-11T08:42:04Z</time>
      </trkpt>
      <trkpt lat="47.8058" lon="-2.41889">
        <ele>68.8</ele>
        <time>2025-02-11T08:42:05Z</time>
      </trkpt>
      <trkpt lat="47.80579" lon="-2.41889">
        <ele>68.7</ele>
        <time>2025-02-11T08:42:06Z</time>
      </trkpt>
      <trkpt lat="47.80578" lon="-2.4189">
        <ele>68.6</ele>
        <time>2025-02-11T08:42:07Z</time>
      </trkpt>
      <trkpt lat="47.80577" lon="-2.4189">
        <ele>68.6</ele>
        <time>2025-02-11T08:42:08Z</time>
      </trkpt>
      <trkpt lat="47.80578" lon="-2.41888">
        <ele>68.6</ele>
        <time>2025-02-11T08:42:09Z</time>
      </trkpt>
      <trkpt lat="47.80579" lon="-2.41887">
        <ele>68.8</ele>
        <time>2025-02-11T08:42:10Z</time>
      </trkpt>
      <trkpt lat="47.8058" lon="-2.41886">
        <ele>68.9</ele>
        <time>2025-02-11T08:42:11Z</time>
      </trkpt>
      <trkpt lat="47.80581" lon="-2.41886">
        <ele>69</ele>
        <time>2025-02-11T08:42:12Z</time>
      </trkpt>
      <trkpt lat="47.80582" lon="-2.41886">
        <ele>69.1</ele>
        <time>2025-02-11T08:42:13Z</time>
      </trkpt>
      <trkpt lat="47.80583" lon="-2.41886">
        <ele>69.2</ele>
        <time>2025-02-11T08:42:14Z</time>
      </trkpt>
      <trkpt lat="47.80584" lon="-2.41886">
        <ele>69.3</ele>
        <time>2025-02-11T08:42:15Z</time>
      </trkpt>
      <trkpt lat="47.80585" lon="-2.41886">
        <ele>69.4</ele>
        <time>2025-02-11T08:42:16Z</time>
      </trkpt>
      <trkpt lat="47.80586" lon="-2.41885">
        <ele>69.5</ele>
        <time>2025-02-11T08:42:17Z</time>
      </trkpt>
      <trkpt lat="47.80587" lon="-2.41885">
        <ele>69.7</ele>
        <time>2025-02-11T08:42:18Z</time>
      </trkpt>
      <trkpt lat="47.80588" lon="-2.41884">
        <ele>69.8</ele>
        <time>2025-02-11T08:42:19Z</time>
      </trkpt>
      <trkpt lat="47.80589" lon="-2.41884">
        <ele>70</ele>
        <time>2025-02-11T08:42:20Z</time>
      </trkpt>
      <trkpt lat="47.8059" lon="-2.41883">
        <ele>70.2</ele>
        <time>2025-02-11T08:42:21Z</time>
      </trkpt>
      <trkpt lat="47.80591" lon="-2.41882">
        <ele>70.3</ele>
        <time>2025-02-11T08:42:22Z</time>
      </trkpt>
      <trkpt lat="47.80592" lon="-2.41882">
        <ele>70.4</ele>
        <time>2025-02-11T08:42:23Z</time>
      </trkpt>
      <trkpt lat="47.80593" lon="-2.41882">
        <ele>70.6</ele>
        <time>2025-02-11T08:42:24Z</time>
      </trkpt>
      <trkpt lat="47.80594" lon="-2.41882">
        <ele>70.7</ele>
        <time>2025-02-11T08:42:25Z</time>
      </trkpt>
      <trkpt lat="47.80596" lon="-2.41882">
        <ele>70.8</ele>
        <time>2025-02-11T08:42:26Z</time>
      </trkpt>
      <trkpt lat="47.80597" lon="-2.41882">
        <ele>71</ele>
        <time>2025-02-11T08:42:27Z</time>
      </trkpt>
      <trkpt lat="47.80598" lon="-2.41881">
        <ele>71.1</ele>
        <time>2025-02-11T08:42:28Z</time>
      </trkpt>
      <trkpt lat="47.80599" lon="-2.41881">
        <ele>71.3</ele>
        <time>2025-02-11T08:42:29Z</time>
      </trkpt>
      <trkpt lat="47.806" lon="-2.4188">
        <ele>71.4</ele>
        <time>2025-02-11T08:42:30Z</time>
      </trkpt>
      <trkpt lat="47.80601" lon="-2.4188">
        <ele>71.6</ele>
        <time>2025-02-11T08:42:31Z</time>
      </trkpt>
      <trkpt lat="47.80603" lon="-2.41879">
        <ele>71.8</ele>
        <time>2025-02-11T08:42:32Z</time>
      </trkpt>
      <trkpt lat="47.80604" lon="-2.41879">
        <ele>71.9</ele>
        <time>2025-02-11T08:42:33Z</time>
      </trkpt>
      <trkpt lat="47.80605" lon="-2.41879">
        <ele>72</ele>
        <time>2025-02-11T08:42:34Z</time>
      </trkpt>
      <trkpt lat="47.80606" lon="-2.41879">
        <ele>72.2</ele>
        <time>2025-02-11T08:42:35Z</time>
      </trkpt>
      <trkpt lat="47.80607" lon="-2.41879">
        <ele>72.3</ele>
        <time>2025-02-11T08:42:36Z</time>
      </trkpt>
      <trkpt lat="47.80609" lon="-2.41878">
        <ele>72.5</ele>
        <time>2025-02-11T08:42:37Z</time>
      </trkpt>
      <trkpt lat="47.8061" lon="-2.41878">
        <ele>72.6</ele>
        <time>2025-02-11T08:42:38Z</time>
      </trkpt>
      <trkpt lat="47.80611" lon="-2.41878">
        <ele>72.8</ele>
        <time>2025-02-11T08:42:39Z</time>
      </trkpt>
      <trkpt lat="47.80612" lon="-2.41879">
        <ele>72.8</ele>
        <time>2025-02-11T08:42:40Z</time>
      </trkpt>
      <trkpt lat="47.80614" lon="-2.41878">
        <ele>72.9</ele>
        <time>2025-02-11T08:42:41Z</time>
      </trkpt>
      <trkpt lat="47.80615" lon="-2.41879">
        <ele>72.9</ele>
        <time>2025-02-11T08:42:42Z</time>
      </trkpt>
      <trkpt lat="47.80616" lon="-2.41878">
        <ele>73</ele>
        <time>2025-02-11T08:42:43Z</time>
      </trkpt>
      <trkpt lat="47.80617" lon="-2.41877">
        <ele>73.1</ele>
        <time>2025-02-11T08:42:44Z</time>
      </trkpt>
      <trkpt lat="47.80619" lon="-2.41877">
        <ele>73.2</ele>
        <time>2025-02-11T08:42:45Z</time>
      </trkpt>
      <trkpt lat="47.8062" lon="-2.41876">
        <ele>73.3</ele>
        <time>2025-02-11T08:42:46Z</time>
      </trkpt>
      <trkpt lat="47.80621" lon="-2.41875">
        <ele>73.4</ele>
        <time>2025-02-11T08:42:47Z</time>
      </trkpt>
      <trkpt lat="47.80622" lon="-2.41875">
        <ele>73.4</ele>
        <time>2025-02-11T08:42:48Z</time>
      </trkpt>
      <trkpt lat="47.80624" lon="-2.41875">
        <ele>73.5</ele>
        <time>2025-02-11T08:42:49Z</time>
      </trkpt>
      <trkpt lat="47.80625" lon="-2.41875">
        <ele>73.5</ele>
        <time>2025-02-11T08:42:50Z</time>
      </trkpt>
      <trkpt lat="47.80627" lon="-2.41875">
        <ele>73.6</ele>
        <time>2025-02-11T08:42:51Z</time>
      </trkpt>
      <trkpt lat="47.80628" lon="-2.41875">
        <ele>73.6</ele>
        <time>2025-02-11T08:42:52Z</time>
      </trkpt>
      <trkpt lat="47.8063" lon="-2.41875">
        <ele>73.7</ele>
        <time>2025-02-11T08:42:53Z</time>
      </trkpt>
      <trkpt lat="47.80631" lon="-2.41875">
        <ele>73.7</ele>
        <time>2025-02-11T08:42:54Z</time>
      </trkpt>
      <trkpt lat="47.80632" lon="-2.41875">
        <ele>73.7</ele>
        <time>2025-02-11T08:42:55Z</time>
      </trkpt>
      <trkpt lat="47.80633" lon="-2.41875">
        <ele>73.8</ele>
        <time>2025-02-11T08:42:56Z</time>
      </trkpt>
      <trkpt lat="47.80635" lon="-2.41874">
        <ele>73.9</ele>
        <time>2025-02-11T08:42:57Z</time>
      </trkpt>
      <trkpt lat="47.80636" lon="-2.41874">
        <ele>73.9</ele>
        <time>2025-02-11T08:42:58Z</time>
      </trkpt>
      <trkpt lat="47.80637" lon="-2.41874">
        <ele>73.9</ele>
        <time>2025-02-11T08:42:59Z</time>
      </trkpt>
      <trkpt lat="47.80638" lon="-2.41875">
        <ele>74</ele>
        <time>2025-02-11T08:43:00Z</time>
      </trkpt>
      <trkpt lat="47.8064" lon="-2.41875">
        <ele>74</ele>
        <time>2025-02-11T08:43:01Z</time>
      </trkpt>
      <trkpt lat="47.80641" lon="-2.41874">
        <ele>74.1</ele>
        <time>2025-02-11T08:43:02Z</time>
      </trkpt>
      <trkpt lat="47.80643" lon="-2.41875">
        <ele>74.2</ele>
        <time>2025-02-11T08:43:03Z</time>
      </trkpt>
      <trkpt lat="47.80644" lon="-2.41874">
        <ele>74.3</ele>
        <time>2025-02-11T08:43:04Z</time>
      </trkpt>
      <trkpt lat="47.80645" lon="-2.41874">
        <ele>74.3</ele>
        <time>2025-02-11T08:43:05Z</time>
      </trkpt>
      <trkpt lat="47.80646" lon="-2.41873">
        <ele>74.4</ele>
        <time>2025-02-11T08:43:06Z</time>
      </trkpt>
      <trkpt lat="47.80646" lon="-2.41873">
        <ele>74.4</ele>
        <time>2025-02-11T08:43:07Z</time>
      </trkpt>
      <trkpt lat="47.80647" lon="-2.41872">
        <ele>74.5</ele>
        <time>2025-02-11T08:43:08Z</time>
      </trkpt>
      <trkpt lat="47.80645" lon="-2.41872">
        <ele>74.4</ele>
        <time>2025-02-11T08:43:09Z</time>
      </trkpt>
      <trkpt lat="47.80645" lon="-2.41872">
        <ele>74.3</ele>
        <time>2025-02-11T08:43:10Z</time>
      </trkpt>
      <trkpt lat="47.80645" lon="-2.41872">
        <ele>74.3</ele>
        <time>2025-02-11T08:43:11Z</time>
      </trkpt>
      <trkpt lat="47.80645" lon="-2.41872">
        <ele>74.3</ele>
        <time>2025-02-11T08:43:12Z</time>
      </trkpt>
      <trkpt lat="47.80645" lon="-2.41872">
        <ele>74.3</ele>
        <time>2025-02-11T08:43:13Z</time>
      </trkpt>
      <trkpt lat="47.80645" lon="-2.41872">
        <ele>74.3</ele>
        <time>2025-02-11T08:43:14Z</time>
      </trkpt>
      <trkpt lat="47.80644" lon="-2.4187">
        <ele>74.3</ele>
        <time>2025-02-11T08:43:15Z</time>
      </trkpt>
      <trkpt lat="47.80643" lon="-2.41869">
        <ele>74.3</ele>
        <time>2025-02-11T08:43:16Z</time>
      </trkpt>
      <trkpt lat="47.80643" lon="-2.41868">
        <ele>74.3</ele>
        <time>2025-02-11T08:43:17Z</time>
      </trkpt>
      <trkpt lat="47.80643" lon="-2.41866">
        <ele>74.3</ele>
        <time>2025-02-11T08:43:18Z</time>
      </trkpt>
      <trkpt lat="47.80643" lon="-2.41865">
        <ele>74.3</ele>
        <time>2025-02-11T08:43:19Z</time>
      </trkpt>
      <trkpt lat="47.80644" lon="-2.41865">
        <ele>74.3</ele>
        <time>2025-02-11T08:43:20Z</time>
      </trkpt>
      <trkpt lat="47.80644" lon="-2.41864">
        <ele>74.3</ele>
        <time>2025-02-11T08:43:21Z</time>
      </trkpt>
      <trkpt lat="47.80643" lon="-2.41862">
        <ele>74.3</ele>
        <time>2025-02-11T08:43:22Z</time>
      </trkpt>
      <trkpt lat="47.80643" lon="-2.41861">
        <ele>74.3</ele>
        <time>2025-02-11T08:43:23Z</time>
      </trkpt>
      <trkpt lat="47.80644" lon="-2.4186">
        <ele>74.3</ele>
        <time>2025-02-11T08:43:24Z</time>
      </trkpt>
      <trkpt lat="47.80644" lon="-2.41859">
        <ele>74.4</ele>
        <time>2025-02-11T08:43:25Z</time>
      </trkpt>
      <trkpt lat="47.80645" lon="-2.41858">
        <ele>74.4</ele>
        <time>2025-02-11T08:43:26Z</time>
      </trkpt>
      <trkpt lat="47.80645" lon="-2.41857">
        <ele>74.4</ele>
        <time>2025-02-11T08:43:27Z</time>
      </trkpt>
      <trkpt lat="47.80645" lon="-2.41856">
        <ele>74.5</ele>
        <time>2025-02-11T08:43:28Z</time>
      </trkpt>
      <trkpt lat="47.80645" lon="-2.41856">
        <ele>74.5</ele>
        <time>2025-02-11T08:43:29Z</time>
      </trkpt>
      <trkpt lat="47.80646" lon="-2.41855">
        <ele>74.5</ele>
        <time>2025-02-11T08:43:30Z</time>
      </trkpt>
      <trkpt lat="47.80645" lon="-2.41853">
        <ele>74.5</ele>
        <time>2025-02-11T08:43:31Z</time>
      </trkpt>
      <trkpt lat="47.80645" lon="-2.41852">
        <ele>74.4</ele>
        <time>2025-02-11T08:43:32Z</time>
      </trkpt>
      <trkpt lat="47.80645" lon="-2.41851">
        <ele>74.4</ele>
        <time>2025-02-11T08:43:33Z</time>
      </trkpt>
      <trkpt lat="47.80645" lon="-2.41849">
        <ele>74.4</ele>
        <time>2025-02-11T08:43:34Z</time>
      </trkpt>
      <trkpt lat="47.80645" lon="-2.41847">
        <ele>74.4</ele>
        <time>2025-02-11T08:43:35Z</time>
      </trkpt>
      <trkpt lat="47.80645" lon="-2.41846">
        <ele>74.4</ele>
        <time>2025-02-11T08:43:36Z</time>
      </trkpt>
      <trkpt lat="47.80645" lon="-2.41844">
        <ele>74.4</ele>
        <time>2025-02-11T08:43:37Z</time>
      </trkpt>
      <trkpt lat="47.80645" lon="-2.41843">
        <ele>74.4</ele>
        <time>2025-02-11T08:43:38Z</time>
      </trkpt>
      <trkpt lat="47.80644" lon="-2.41841">
        <ele>74.4</ele>
        <time>2025-02-11T08:43:39Z</time>
      </trkpt>
      <trkpt lat="47.80644" lon="-2.41839">
        <ele>74.4</ele>
        <time>2025-02-11T08:43:40Z</time>
      </trkpt>
      <trkpt lat="47.80644" lon="-2.41837">
        <ele>74.4</ele>
        <time>2025-02-11T08:43:41Z</time>
      </trkpt>
      <trkpt lat="47.80644" lon="-2.41835">
        <ele>74.3</ele>
        <time>2025-02-11T08:43:42Z</time>
      </trkpt>
      <trkpt lat="47.80644" lon="-2.41833">
        <ele>74.4</ele>
        <time>2025-02-11T08:43:43Z</time>
      </trkpt>
      <trkpt lat="47.80644" lon="-2.41831">
        <ele>74.4</ele>
        <time>2025-02-11T08:43:44Z</time>
      </trkpt>
      <trkpt lat="47.80644" lon="-2.4183">
        <ele>74.3</ele>
        <time>2025-02-11T08:43:45Z</time>
      </trkpt>
      <trkpt lat="47.80644" lon="-2.41828">
        <ele>74.3</ele>
        <time>2025-02-11T08:43:46Z</time>
      </trkpt>
      <trkpt lat="47.80644" lon="-2.41826">
        <ele>74.3</ele>
        <time>2025-02-11T08:43:47Z</time>
      </trkpt>
      <trkpt lat="47.80644" lon="-2.41824">
        <ele>74.3</ele>
        <time>2025-02-11T08:43:48Z</time>
      </trkpt>
      <trkpt lat="47.80643" lon="-2.41822">
        <ele>74.3</ele>
        <time>2025-02-11T08:43:49Z</time>
      </trkpt>
      <trkpt lat="47.80643" lon="-2.4182">
        <ele>74.3</ele>
        <time>2025-02-11T08:43:50Z</time>
      </trkpt>
      <trkpt lat="47.80643" lon="-2.41818">
        <ele>74.3</ele>
        <time>2025-02-11T08:43:51Z</time>
      </trkpt>
      <trkpt lat="47.80644" lon="-2.41817">
        <ele>74.3</ele>
        <time>2025-02-11T08:43:52Z</time>
      </trkpt>
      <trkpt lat="47.80644" lon="-2.41815">
        <ele>74.4</ele>
        <time>2025-02-11T08:43:53Z</time>
      </trkpt>
      <trkpt lat="47.80645" lon="-2.41814">
        <ele>74.4</ele>
        <time>2025-02-11T08:43:54Z</time>
      </trkpt>
      <trkpt lat="47.80646" lon="-2.41813">
        <ele>74.5</ele>
        <time>2025-02-11T08:43:55Z</time>
      </trkpt>
      <trkpt lat="47.80648" lon="-2.41813">
        <ele>74.6</ele>
        <time>2025-02-11T08:43:56Z</time>
      </trkpt>
      <trkpt lat="47.80648" lon="-2.41818">
        <ele>74.7</ele>
        <time>2025-02-11T08:43:57Z</time>
      </trkpt>
      <trkpt lat="47.80648" lon="-2.4182">
        <ele>74.6</ele>
        <time>2025-02-11T08:43:58Z</time>
      </trkpt>
      <trkpt lat="47.80648" lon="-2.41817">
        <ele>74.7</ele>
        <time>2025-02-11T08:43:59Z</time>
      </trkpt>
      <trkpt lat="47.80648" lon="-2.41817">
        <ele>74.7</ele>
        <time>2025-02-11T08:44:00Z</time>
      </trkpt>
      <trkpt lat="47.80648" lon="-2.41817">
        <ele>74.7</ele>
        <time>2025-02-11T08:44:01Z</time>
      </trkpt>
      <trkpt lat="47.80648" lon="-2.41816">
        <ele>74.7</ele>
        <time>2025-02-11T08:44:02Z</time>
      </trkpt>
      <trkpt lat="47.80648" lon="-2.41816">
        <ele>74.7</ele>
        <time>2025-02-11T08:44:03Z</time>
      </trkpt>
      <trkpt lat="47.80648" lon="-2.41816">
        <ele>74.7</ele>
        <time>2025-02-11T08:44:04Z</time>
      </trkpt>
      <trkpt lat="47.80648" lon="-2.41815">
        <ele>74.7</ele>
        <time>2025-02-11T08:44:05Z</time>
      </trkpt>
      <trkpt lat="47.80648" lon="-2.41815">
        <ele>74.6</ele>
        <time>2025-02-11T08:44:06Z</time>
      </trkpt>
      <trkpt lat="47.80648" lon="-2.41815">
        <ele>74.6</ele>
        <time>2025-02-11T08:44:07Z</time>
      </trkpt>
      <trkpt lat="47.80648" lon="-2.41815">
        <ele>74.6</ele>
        <time>2025-02-11T08:44:08Z</time>
      </trkpt>
      <trkpt lat="47.80648" lon="-2.41815">
        <ele>74.6</ele>
        <time>2025-02-11T08:44:09Z</time>
      </trkpt>
      <trkpt lat="47.80648" lon="-2.41815">
        <ele>74.6</ele>
        <time>2025-02-11T08:44:10Z</time>
      </trkpt>
      <trkpt lat="47.80648" lon="-2.41815">
        <ele>74.6</ele>
        <time>2025-02-11T08:44:11Z</time>
      </trkpt>
      <trkpt lat="47.80648" lon="-2.41815">
        <ele>74.6</ele>
        <time>2025-02-11T08:44:12Z</time>
      </trkpt>
      <trkpt lat="47.80648" lon="-2.41815">
        <ele>74.6</ele>
        <time>2025-02-11T08:44:13Z</time>
      </trkpt>
      <trkpt lat="47.80648" lon="-2.41815">
        <ele>74.6</ele>
        <time>2025-02-11T08:44:14Z</time>
      </trkpt>
      <trkpt lat="47.80647" lon="-2.41816">
        <ele>74.6</ele>
        <time>2025-02-11T08:44:15Z</time>
      </trkpt>
      <trkpt lat="47.80647" lon="-2.41816">
        <ele>74.6</ele>
        <time>2025-02-11T08:44:16Z</time>
      </trkpt>
      <trkpt lat="47.80647" lon="-2.41816">
        <ele>74.6</ele>
        <time>2025-02-11T08:44:17Z</time>
      </trkpt>
      <trkpt lat="47.80647" lon="-2.41816">
        <ele>74.6</ele>
        <time>2025-02-11T08:44:18Z</time>
      </trkpt>
      <trkpt lat="47.80647" lon="-2.41816">
        <ele>74.6</ele>
        <time>2025-02-11T08:44:19Z</time>
      </trkpt>
      <trkpt lat="47.80647" lon="-2.41816">
        <ele>74.6</ele>
        <time>2025-02-11T08:44:20Z</time>
      </trkpt>
      <trkpt lat="47.80647" lon="-2.41816">
        <ele>74.6</ele>
        <time>2025-02-11T08:44:21Z</time>
      </trkpt>
      <trkpt lat="47.80647" lon="-2.41816">
        <ele>74.6</ele>
        <time>2025-02-11T08:44:22Z</time>
      </trkpt>
      <trkpt lat="47.80647" lon="-2.41816">
        <ele>74.6</ele>
        <time>2025-02-11T08:44:23Z</time>
      </trkpt>
      <trkpt lat="47.80647" lon="-2.41816">
        <ele>74.6</ele>
        <time>2025-02-11T08:44:24Z</time>
      </trkpt>
      <trkpt lat="47.80647" lon="-2.41816">
        <ele>74.6</ele>
        <time>2025-02-11T08:44:25Z</time>
      </trkpt>
      <trkpt lat="47.80647" lon="-2.41816">
        <ele>74.6</ele>
        <time>2025-02-11T08:44:26Z</time>
      </trkpt>
      <trkpt lat="47.80647" lon="-2.41816">
        <ele>74.6</ele>
        <time>2025-02-11T08:44:27Z</time>
      </trkpt>
      <trkpt lat="47.80647" lon="-2.41816">
        <ele>74.6</ele>
        <time>2025-02-11T08:44:28Z</time>
      </trkpt>
      <trkpt lat="47.80647" lon="-2.41816">
        <ele>74.6</ele>
        <time>2025-02-11T08:44:29Z</time>
      </trkpt>
      <trkpt lat="47.80647" lon="-2.41816">
        <ele>74.6</ele>
        <time>2025-02-11T08:44:30Z</time>
      </trkpt>
      <trkpt lat="47.80647" lon="-2.41816">
        <ele>74.6</ele>
        <time>2025-02-11T08:44:31Z</time>
      </trkpt>
      <trkpt lat="47.80647" lon="-2.41816">
        <ele>74.6</ele>
        <time>2025-02-11T08:44:32Z</time>
      </trkpt>
      <trkpt lat="47.80647" lon="-2.41816">
        <ele>74.6</ele>
        <time>2025-02-11T08:44:33Z</time>
      </trkpt>
      <trkpt lat="47.80647" lon="-2.41816">
        <ele>74.6</ele>
        <time>2025-02-11T08:44:34Z</time>
      </trkpt>
      <trkpt lat="47.80647" lon="-2.41816">
        <ele>74.6</ele>
        <time>2025-02-11T08:44:35Z</time>
      </trkpt>
      <trkpt lat="47.80647" lon="-2.41816">
        <ele>74.6</ele>
        <time>2025-02-11T08:44:36Z</time>
      </trkpt>
      <trkpt lat="47.80647" lon="-2.41816">
        <ele>74.6</ele>
        <time>2025-02-11T08:44:37Z</time>
      </trkpt>
      <trkpt lat="47.80647" lon="-2.41817">
        <ele>74.6</ele>
        <time>2025-02-11T08:44:38Z</time>
      </trkpt>
      <trkpt lat="47.80647" lon="-2.41817">
        <ele>74.6</ele>
        <time>2025-02-11T08:44:39Z</time>
      </trkpt>
      <trkpt lat="47.80647" lon="-2.41816">
        <ele>74.6</ele>
        <time>2025-02-11T08:44:40Z</time>
      </trkpt>
      <trkpt lat="47.80647" lon="-2.41816">
        <ele>74.6</ele>
        <time>2025-02-11T08:44:41Z</time>
      </trkpt>
      <trkpt lat="47.80647" lon="-2.41816">
        <ele>74.6</ele>
        <time>2025-02-11T08:44:42Z</time>
      </trkpt>
      <trkpt lat="47.80647" lon="-2.41816">
        <ele>74.6</ele>
        <time>2025-02-11T08:44:43Z</time>
      </trkpt>
      <trkpt lat="47.80647" lon="-2.41816">
        <ele>74.6</ele>
        <time>2025-02-11T08:44:44Z</time>
      </trkpt>
      <trkpt lat="47.80647" lon="-2.41816">
        <ele>74.6</ele>
        <time>2025-02-11T08:44:45Z</time>
      </trkpt>
      <trkpt lat="47.80647" lon="-2.41816">
        <ele>74.6</ele>
        <time>2025-02-11T08:44:46Z</time>
      </trkpt>
      <trkpt lat="47.80647" lon="-2.41816">
        <ele>74.6</ele>
        <time>2025-02-11T08:44:47Z</time>
      </trkpt>
      <trkpt lat="47.80647" lon="-2.41816">
        <ele>74.6</ele>
        <time>2025-02-11T08:44:48Z</time>
      </trkpt>
      <trkpt lat="47.80647" lon="-2.41816">
        <ele>74.6</ele>
        <time>2025-02-11T08:44:49Z</time>
      </trkpt>
      <trkpt lat="47.80647" lon="-2.41816">
        <ele>74.6</ele>
        <time>2025-02-11T08:44:50Z</time>
      </trkpt>
      <trkpt lat="47.80647" lon="-2.41816">
        <ele>74.6</ele>
        <time>2025-02-11T08:44:51Z</time>
      </trkpt>
      <trkpt lat="47.80647" lon="-2.41816">
        <ele>74.6</ele>
        <time>2025-02-11T08:44:52Z</time>
      </trkpt>
      <trkpt lat="47.80647" lon="-2.41816">
        <ele>74.6</ele>
        <time>2025-02-11T08:44:53Z</time>
      </trkpt>
      <trkpt lat="47.80647" lon="-2.41816">
        <ele>74.6</ele>
        <time>2025-02-11T08:44:54Z</time>
      </trkpt>
      <trkpt lat="47.80647" lon="-2.41816">
        <ele>74.6</ele>
        <time>2025-02-11T08:44:55Z</time>
      </trkpt>
      <trkpt lat="47.80647" lon="-2.41816">
        <ele>74.6</ele>
        <time>2025-02-11T08:44:56Z</time>
      </trkpt>
      <trkpt lat="47.80647" lon="-2.41816">
        <ele>74.6</ele>
        <time>2025-02-11T08:44:57Z</time>
      </trkpt>
      <trkpt lat="47.80647" lon="-2.41816">
        <ele>74.6</ele>
        <time>2025-02-11T08:44:58Z</time>
      </trkpt>
      <trkpt lat="47.80647" lon="-2.41816">
        <ele>74.6</ele>
        <time>2025-02-11T08:44:59Z</time>
      </trkpt>
      <trkpt lat="47.80647" lon="-2.41816">
        <ele>74.6</ele>
        <time>2025-02-11T08:45:00Z</time>
      </trkpt>
      <trkpt lat="47.80647" lon="-2.41816">
        <ele>74.6</ele>
        <time>2025-02-11T08:45:01Z</time>
      </trkpt>
      <trkpt lat="47.80647" lon="-2.41816">
        <ele>74.6</ele>
        <time>2025-02-11T08:45:02Z</time>
      </trkpt>
      <trkpt lat="47.80647" lon="-2.41816">
        <ele>74.6</ele>
        <time>2025-02-11T08:45:03Z</time>
      </trkpt>
      <trkpt lat="47.80647" lon="-2.41816">
        <ele>74.6</ele>
        <time>2025-02-11T08:45:04Z</time>
      </trkpt>
      <trkpt lat="47.80647" lon="-2.41816">
        <ele>74.6</ele>
        <time>2025-02-11T08:45:05Z</time>
      </trkpt>
      <trkpt lat="47.80647" lon="-2.41816">
        <ele>74.6</ele>
        <time>2025-02-11T08:45:06Z</time>
      </trkpt>
      <trkpt lat="47.80647" lon="-2.41816">
        <ele>74.6</ele>
        <time>2025-02-11T08:45:07Z</time>
      </trkpt>
      <trkpt lat="47.80647" lon="-2.41816">
        <ele>74.6</ele>
        <time>2025-02-11T08:45:08Z</time>
      </trkpt>
      <trkpt lat="47.80647" lon="-2.41816">
        <ele>74.6</ele>
        <time>2025-02-11T08:45:09Z</time>
      </trkpt>
      <trkpt lat="47.80647" lon="-2.41816">
        <ele>74.6</ele>
        <time>2025-02-11T08:45:10Z</time>
      </trkpt>
      <trkpt lat="47.80647" lon="-2.41816">
        <ele>74.6</ele>
        <time>2025-02-11T08:45:11Z</time>
      </trkpt>
      <trkpt lat="47.80647" lon="-2.41816">
        <ele>74.6</ele>
        <time>2025-02-11T08:45:12Z</time>
      </trkpt>
      <trkpt lat="47.80647" lon="-2.41816">
        <ele>74.6</ele>
        <time>2025-02-11T08:45:13Z</time>
      </trkpt>
      <trkpt lat="47.80647" lon="-2.41816">
        <ele>74.6</ele>
        <time>2025-02-11T08:45:14Z</time>
      </trkpt>
      <trkpt lat="47.80647" lon="-2.41816">
        <ele>74.6</ele>
        <time>2025-02-11T08:45:15Z</time>
      </trkpt>
      <trkpt lat="47.80647" lon="-2.41816">
        <ele>74.6</ele>
        <time>2025-02-11T08:45:16Z</time>
      </trkpt>
      <trkpt lat="47.80647" lon="-2.41816">
        <ele>74.6</ele>
        <time>2025-02-11T08:45:17Z</time>
      </trkpt>
      <trkpt lat="47.80647" lon="-2.41816">
        <ele>74.6</ele>
        <time>2025-02-11T08:45:18Z</time>
      </trkpt>
      <trkpt lat="47.80647" lon="-2.41816">
        <ele>74.6</ele>
        <time>2025-02-11T08:45:19Z</time>
      </trkpt>
      <trkpt lat="47.80647" lon="-2.41816">
        <ele>74.6</ele>
        <time>2025-02-11T08:45:20Z</time>
      </trkpt>
      <trkpt lat="47.80647" lon="-2.41816">
        <ele>74.6</ele>
        <time>2025-02-11T08:45:21Z</time>
      </trkpt>
      <trkpt lat="47.80647" lon="-2.41815">
        <ele>74.6</ele>
        <time>2025-02-11T08:45:22Z</time>
      </trkpt>
      <trkpt lat="47.80647" lon="-2.41815">
        <ele>74.6</ele>
        <time>2025-02-11T08:45:23Z</time>
      </trkpt>
      <trkpt lat="47.80647" lon="-2.41815">
        <ele>74.6</ele>
        <time>2025-02-11T08:45:24Z</time>
      </trkpt>
      <trkpt lat="47.80647" lon="-2.41815">
        <ele>74.6</ele>
        <time>2025-02-11T08:45:25Z</time>
      </trkpt>
      <trkpt lat="47.80647" lon="-2.41815">
        <ele>74.6</ele>
        <time>2025-02-11T08:45:26Z</time>
      </trkpt>
      <trkpt lat="47.80647" lon="-2.41815">
        <ele>74.6</ele>
        <time>2025-02-11T08:45:27Z</time>
      </trkpt>
      <trkpt lat="47.80647" lon="-2.41815">
        <ele>74.6</ele>
        <time>2025-02-11T08:45:28Z</time>
      </trkpt>
      <trkpt lat="47.80647" lon="-2.41815">
        <ele>74.6</ele>
        <time>2025-02-11T08:45:29Z</time>
      </trkpt>
      <trkpt lat="47.80647" lon="-2.41815">
        <ele>74.6</ele>
        <time>2025-02-11T08:45:30Z</time>
      </trkpt>
      <trkpt lat="47.80647" lon="-2.41815">
        <ele>74.6</ele>
        <time>2025-02-11T08:45:31Z</time>
      </trkpt>
      <trkpt lat="47.80647" lon="-2.41814">
        <ele>74.6</ele>
        <time>2025-02-11T08:45:32Z</time>
      </trkpt>
      <trkpt lat="47.80647" lon="-2.41814">
        <ele>74.6</ele>
        <time>2025-02-11T08:45:33Z</time>
      </trkpt>
      <trkpt lat="47.80647" lon="-2.41814">
        <ele>74.6</ele>
        <time>2025-02-11T08:45:34Z</time>
      </trkpt>
      <trkpt lat="47.80647" lon="-2.41814">
        <ele>74.6</ele>
        <time>2025-02-11T08:45:35Z</time>
      </trkpt>
      <trkpt lat="47.80647" lon="-2.41814">
        <ele>74.6</ele>
        <time>2025-02-11T08:45:36Z</time>
      </trkpt>
      <trkpt lat="47.80647" lon="-2.41814">
        <ele>74.6</ele>
        <time>2025-02-11T08:45:37Z</time>
      </trkpt>
      <trkpt lat="47.80647" lon="-2.41814">
        <ele>74.6</ele>
        <time>2025-02-11T08:45:38Z</time>
      </trkpt>
      <trkpt lat="47.80647" lon="-2.41814">
        <ele>74.6</ele>
        <time>2025-02-11T08:45:39Z</time>
      </trkpt>
      <trkpt lat="47.80647" lon="-2.41814">
        <ele>74.6</ele>
        <time>2025-02-11T08:45:40Z</time>
      </trkpt>
      <trkpt lat="47.80647" lon="-2.41814">
        <ele>74.6</ele>
        <time>2025-02-11T08:45:41Z</time>
      </trkpt>
      <trkpt lat="47.80647" lon="-2.41814">
        <ele>74.6</ele>
        <time>2025-02-11T08:45:42Z</time>
      </trkpt>
      <trkpt lat="47.80647" lon="-2.41814">
        <ele>74.6</ele>
        <time>2025-02-11T08:45:43Z</time>
      </trkpt>
      <trkpt lat="47.80647" lon="-2.41814">
        <ele>74.6</ele>
        <time>2025-02-11T08:45:44Z</time>
      </trkpt>
      <trkpt lat="47.80647" lon="-2.41814">
        <ele>74.6</ele>
        <time>2025-02-11T08:45:45Z</time>
      </trkpt>
      <trkpt lat="47.80647" lon="-2.41814">
        <ele>74.6</ele>
        <time>2025-02-11T08:45:46Z</time>
      </trkpt>
      <trkpt lat="47.80647" lon="-2.41814">
        <ele>74.6</ele>
        <time>2025-02-11T08:45:47Z</time>
      </trkpt>
      <trkpt lat="47.80647" lon="-2.41815">
        <ele>74.6</ele>
        <time>2025-02-11T08:45:48Z</time>
      </trkpt>
      <trkpt lat="47.80647" lon="-2.41815">
        <ele>74.6</ele>
        <time>2025-02-11T08:45:49Z</time>
      </trkpt>
      <trkpt lat="47.80647" lon="-2.41815">
        <ele>74.6</ele>
        <time>2025-02-11T08:45:50Z</time>
      </trkpt>
      <trkpt lat="47.80647" lon="-2.41815">
        <ele>74.6</ele>
        <time>2025-02-11T08:45:51Z</time>
      </trkpt>
      <trkpt lat="47.80647" lon="-2.41815">
        <ele>74.6</ele>
        <time>2025-02-11T08:45:52Z</time>
      </trkpt>
      <trkpt lat="47.80647" lon="-2.41815">
        <ele>74.6</ele>
        <time>2025-02-11T08:45:53Z</time>
      </trkpt>
      <trkpt lat="47.80647" lon="-2.41815">
        <ele>74.6</ele>
        <time>2025-02-11T08:45:54Z</time>
      </trkpt>
      <trkpt lat="47.80647" lon="-2.41815">
        <ele>74.6</ele>
        <time>2025-02-11T08:45:55Z</time>
      </trkpt>
      <trkpt lat="47.80647" lon="-2.41815">
        <ele>74.6</ele>
        <time>2025-02-11T08:45:56Z</time>
      </trkpt>
      <trkpt lat="47.80647" lon="-2.41815">
        <ele>74.6</ele>
        <time>2025-02-11T08:45:57Z</time>
      </trkpt>
      <trkpt lat="47.80647" lon="-2.41815">
        <ele>74.6</ele>
        <time>2025-02-11T08:45:58Z</time>
      </trkpt>
      <trkpt lat="47.80647" lon="-2.41815">
        <ele>74.6</ele>
        <time>2025-02-11T08:45:59Z</time>
      </trkpt>
      <trkpt lat="47.80647" lon="-2.41815">
        <ele>74.6</ele>
        <time>2025-02-11T08:46:00Z</time>
      </trkpt>
      <trkpt lat="47.80647" lon="-2.41815">
        <ele>74.6</ele>
        <time>2025-02-11T08:46:01Z</time>
      </trkpt>
      <trkpt lat="47.80647" lon="-2.41815">
        <ele>74.6</ele>
        <time>2025-02-11T08:46:02Z</time>
      </trkpt>
      <trkpt lat="47.80647" lon="-2.41815">
        <ele>74.6</ele>
        <time>2025-02-11T08:46:03Z</time>
      </trkpt>
      <trkpt lat="47.80647" lon="-2.41815">
        <ele>74.6</ele>
        <time>2025-02-11T08:46:04Z</time>
      </trkpt>
      <trkpt lat="47.80647" lon="-2.41815">
        <ele>74.6</ele>
        <time>2025-02-11T08:46:05Z</time>
      </trkpt>
      <trkpt lat="47.80647" lon="-2.41815">
        <ele>74.6</ele>
        <time>2025-02-11T08:46:06Z</time>
      </trkpt>
      <trkpt lat="47.80647" lon="-2.41815">
        <ele>74.6</ele>
        <time>2025-02-11T08:46:07Z</time>
      </trkpt>
      <trkpt lat="47.80647" lon="-2.41815">
        <ele>74.6</ele>
        <time>2025-02-11T08:46:08Z</time>
      </trkpt>
      <trkpt lat="47.80647" lon="-2.41815">
        <ele>74.6</ele>
        <time>2025-02-11T08:46:09Z</time>
      </trkpt>
      <trkpt lat="47.80647" lon="-2.41815">
        <ele>74.6</ele>
        <time>2025-02-11T08:46:10Z</time>
      </trkpt>
      <trkpt lat="47.80647" lon="-2.41815">
        <ele>74.6</ele>
        <time>2025-02-11T08:46:11Z</time>
      </trkpt>
      <trkpt lat="47.80647" lon="-2.41815">
        <ele>74.6</ele>
        <time>2025-02-11T08:46:12Z</time>
      </trkpt>
      <trkpt lat="47.80647" lon="-2.41815">
        <ele>74.6</ele>
        <time>2025-02-11T08:46:13Z</time>
      </trkpt>
      <trkpt lat="47.80647" lon="-2.41815">
        <ele>74.6</ele>
        <time>2025-02-11T08:46:14Z</time>
      </trkpt>
      <trkpt lat="47.80647" lon="-2.41815">
        <ele>74.6</ele>
        <time>2025-02-11T08:46:15Z</time>
      </trkpt>
      <trkpt lat="47.80647" lon="-2.41815">
        <ele>74.6</ele>
        <time>2025-02-11T08:46:16Z</time>
      </trkpt>
      <trkpt lat="47.80647" lon="-2.41815">
        <ele>74.6</ele>
        <time>2025-02-11T08:46:17Z</time>
      </trkpt>
      <trkpt lat="47.80647" lon="-2.41815">
        <ele>74.6</ele>
        <time>2025-02-11T08:46:18Z</time>
      </trkpt>
      <trkpt lat="47.80647" lon="-2.41815">
        <ele>74.6</ele>
        <time>2025-02-11T08:46:19Z</time>
      </trkpt>
      <trkpt lat="47.80647" lon="-2.41815">
        <ele>74.6</ele>
        <time>2025-02-11T08:46:20Z</time>
      </trkpt>
      <trkpt lat="47.80647" lon="-2.41815">
        <ele>74.6</ele>
        <time>2025-02-11T08:46:21Z</time>
      </trkpt>
      <trkpt lat="47.80647" lon="-2.41815">
        <ele>74.6</ele>
        <time>2025-02-11T08:46:22Z</time>
      </trkpt>
      <trkpt lat="47.80647" lon="-2.41815">
        <ele>74.6</ele>
        <time>2025-02-11T08:46:23Z</time>
      </trkpt>
      <trkpt lat="47.80647" lon="-2.41815">
        <ele>74.6</ele>
        <time>2025-02-11T08:46:24Z</time>
      </trkpt>
      <trkpt lat="47.80647" lon="-2.41815">
        <ele>74.6</ele>
        <time>2025-02-11T08:46:25Z</time>
      </trkpt>
      <trkpt lat="47.80647" lon="-2.41815">
        <ele>74.6</ele>
        <time>2025-02-11T08:46:26Z</time>
      </trkpt>
      <trkpt lat="47.80647" lon="-2.41815">
        <ele>74.6</ele>
        <time>2025-02-11T08:46:27Z</time>
      </trkpt>
      <trkpt lat="47.80647" lon="-2.41815">
        <ele>74.6</ele>
        <time>2025-02-11T08:46:28Z</time>
      </trkpt>
      <trkpt lat="47.80647" lon="-2.41815">
        <ele>74.6</ele>
        <time>2025-02-11T08:46:29Z</time>
      </trkpt>
      <trkpt lat="47.80647" lon="-2.41815">
        <ele>74.6</ele>
        <time>2025-02-11T08:46:30Z</time>
      </trkpt>
      <trkpt lat="47.80647" lon="-2.41815">
        <ele>74.6</ele>
        <time>2025-02-11T08:46:31Z</time>
      </trkpt>
      <trkpt lat="47.80647" lon="-2.41815">
        <ele>74.6</ele>
        <time>2025-02-11T08:46:32Z</time>
      </trkpt>
      <trkpt lat="47.80647" lon="-2.41815">
        <ele>74.6</ele>
        <time>2025-02-11T08:46:33Z</time>
      </trkpt>
      <trkpt lat="47.80647" lon="-2.41815">
        <ele>74.6</ele>
        <time>2025-02-11T08:46:34Z</time>
      </trkpt>
      <trkpt lat="47.80647" lon="-2.41815">
        <ele>74.6</ele>
        <time>2025-02-11T08:46:35Z</time>
      </trkpt>
      <trkpt lat="47.80647" lon="-2.41815">
        <ele>74.6</ele>
        <time>2025-02-11T08:46:36Z</time>
      </trkpt>
      <trkpt lat="47.80647" lon="-2.41815">
        <ele>74.6</ele>
        <time>2025-02-11T08:46:37Z</time>
      </trkpt>
      <trkpt lat="47.80647" lon="-2.41815">
        <ele>74.6</ele>
        <time>2025-02-11T08:46:38Z</time>
      </trkpt>
      <trkpt lat="47.80647" lon="-2.41815">
        <ele>74.6</ele>
        <time>2025-02-11T08:46:39Z</time>
      </trkpt>
      <trkpt lat="47.80647" lon="-2.41815">
        <ele>74.6</ele>
        <time>2025-02-11T08:46:40Z</time>
      </trkpt>
      <trkpt lat="47.80647" lon="-2.41815">
        <ele>74.6</ele>
        <time>2025-02-11T08:46:41Z</time>
      </trkpt>
      <trkpt lat="47.80647" lon="-2.41815">
        <ele>74.6</ele>
        <time>2025-02-11T08:46:42Z</time>
      </trkpt>
      <trkpt lat="47.80647" lon="-2.41815">
        <ele>74.6</ele>
        <time>2025-02-11T08:46:43Z</time>
      </trkpt>
      <trkpt lat="47.80647" lon="-2.41815">
        <ele>74.6</ele>
        <time>2025-02-11T08:46:44Z</time>
      </trkpt>
      <trkpt lat="47.80647" lon="-2.41815">
        <ele>74.6</ele>
        <time>2025-02-11T08:46:45Z</time>
      </trkpt>
      <trkpt lat="47.80647" lon="-2.41815">
        <ele>74.6</ele>
        <time>2025-02-11T08:46:46Z</time>
      </trkpt>
      <trkpt lat="47.80647" lon="-2.41815">
        <ele>74.6</ele>
        <time>2025-02-11T08:46:47Z</time>
      </trkpt>
      <trkpt lat="47.80647" lon="-2.41815">
        <ele>74.6</ele>
        <time>2025-02-11T08:46:48Z</time>
      </trkpt>
      <trkpt lat="47.80647" lon="-2.41815">
        <ele>74.6</ele>
        <time>2025-02-11T08:46:49Z</time>
      </trkpt>
      <trkpt lat="47.80647" lon="-2.41815">
        <ele>74.6</ele>
        <time>2025-02-11T08:46:50Z</time>
      </trkpt>
      <trkpt lat="47.80647" lon="-2.41816">
        <ele>74.6</ele>
        <time>2025-02-11T08:46:51Z</time>
      </trkpt>
      <trkpt lat="47.80647" lon="-2.41816">
        <ele>74.6</ele>
        <time>2025-02-11T08:46:52Z</time>
      </trkpt>
      <trkpt lat="47.80647" lon="-2.41816">
        <ele>74.6</ele>
        <time>2025-02-11T08:46:53Z</time>
      </trkpt>
      <trkpt lat="47.80647" lon="-2.41816">
        <ele>74.6</ele>
        <time>2025-02-11T08:46:54Z</time>
      </trkpt>
      <trkpt lat="47.80647" lon="-2.41816">
        <ele>74.6</ele>
        <time>2025-02-11T08:46:55Z</time>
      </trkpt>
      <trkpt lat="47.80647" lon="-2.41816">
        <ele>74.6</ele>
        <time>2025-02-11T08:46:56Z</time>
      </trkpt>
      <trkpt lat="47.80647" lon="-2.41816">
        <ele>74.6</ele>
        <time>2025-02-11T08:46:57Z</time>
      </trkpt>
      <trkpt lat="47.80647" lon="-2.41816">
        <ele>74.6</ele>
        <time>2025-02-11T08:46:58Z</time>
      </trkpt>
      <trkpt lat="47.80647" lon="-2.41816">
        <ele>74.6</ele>
        <time>2025-02-11T08:46:59Z</time>
      </trkpt>
      <trkpt lat="47.80647" lon="-2.41816">
        <ele>74.6</ele>
        <time>2025-02-11T08:47:00Z</time>
      </trkpt>
      <trkpt lat="47.80647" lon="-2.41816">
        <ele>74.6</ele>
        <time>2025-02-11T08:47:01Z</time>
      </trkpt>
      <trkpt lat="47.80647" lon="-2.41816">
        <ele>74.6</ele>
        <time>2025-02-11T08:47:02Z</time>
      </trkpt>
      <trkpt lat="47.80647" lon="-2.41816">
        <ele>74.6</ele>
        <time>2025-02-11T08:47:03Z</time>
      </trkpt>
      <trkpt lat="47.80647" lon="-2.41816">
        <ele>74.6</ele>
        <time>2025-02-11T08:47:04Z</time>
      </trkpt>
      <trkpt lat="47.80647" lon="-2.41816">
        <ele>74.6</ele>
        <time>2025-02-11T08:47:05Z</time>
      </trkpt>
      <trkpt lat="47.80647" lon="-2.41816">
        <ele>74.6</ele>
        <time>2025-02-11T08:47:06Z</time>
      </trkpt>
      <trkpt lat="47.80647" lon="-2.41816">
        <ele>74.6</ele>
        <time>2025-02-11T08:47:07Z</time>
      </trkpt>
      <trkpt lat="47.80647" lon="-2.41816">
        <ele>74.6</ele>
        <time>2025-02-11T08:47:08Z</time>
      </trkpt>
      <trkpt lat="47.80647" lon="-2.41816">
        <ele>74.6</ele>
        <time>2025-02-11T08:47:09Z</time>
      </trkpt>
      <trkpt lat="47.80647" lon="-2.41816">
        <ele>74.6</ele>
        <time>2025-02-11T08:47:10Z</time>
      </trkpt>
      <trkpt lat="47.80647" lon="-2.41816">
        <ele>74.6</ele>
        <time>2025-02-11T08:47:11Z</time>
      </trkpt>
      <trkpt lat="47.80647" lon="-2.41816">
        <ele>74.6</ele>
        <time>2025-02-11T08:47:12Z</time>
      </trkpt>
      <trkpt lat="47.80647" lon="-2.41816">
        <ele>74.6</ele>
        <time>2025-02-11T08:47:13Z</time>
      </trkpt>
      <trkpt lat="47.80647" lon="-2.41816">
        <ele>74.6</ele>
        <time>2025-02-11T08:47:14Z</time>
      </trkpt>
      <trkpt lat="47.80647" lon="-2.41816">
        <ele>74.6</ele>
        <time>2025-02-11T08:47:15Z</time>
      </trkpt>
      <trkpt lat="47.80647" lon="-2.41815">
        <ele>74.6</ele>
        <time>2025-02-11T08:47:16Z</time>
      </trkpt>
      <trkpt lat="47.80647" lon="-2.41815">
        <ele>74.6</ele>
        <time>2025-02-11T08:47:17Z</time>
      </trkpt>
      <trkpt lat="47.80647" lon="-2.41815">
        <ele>74.6</ele>
        <time>2025-02-11T08:47:18Z</time>
      </trkpt>
      <trkpt lat="47.80647" lon="-2.41815">
        <ele>74.6</ele>
        <time>2025-02-11T08:47:19Z</time>
      </trkpt>
      <trkpt lat="47.80647" lon="-2.41816">
        <ele>74.6</ele>
        <time>2025-02-11T08:47:20Z</time>
      </trkpt>
      <trkpt lat="47.80647" lon="-2.41816">
        <ele>74.6</ele>
        <time>2025-02-11T08:47:21Z</time>
      </trkpt>
      <trkpt lat="47.80647" lon="-2.41816">
        <ele>74.6</ele>
        <time>2025-02-11T08:47:22Z</time>
      </trkpt>
      <trkpt lat="47.80647" lon="-2.41816">
        <ele>74.6</ele>
        <time>2025-02-11T08:47:23Z</time>
      </trkpt>
      <trkpt lat="47.80647" lon="-2.41816">
        <ele>74.6</ele>
        <time>2025-02-11T08:47:24Z</time>
      </trkpt>
      <trkpt lat="47.80647" lon="-2.41816">
        <ele>74.6</ele>
        <time>2025-02-11T08:47:25Z</time>
      </trkpt>
      <trkpt lat="47.80647" lon="-2.41816">
        <ele>74.6</ele>
        <time>2025-02-11T08:47:26Z</time>
      </trkpt>
      <trkpt lat="47.80647" lon="-2.41816">
        <ele>74.6</ele>
        <time>2025-02-11T08:47:27Z</time>
      </trkpt>
      <trkpt lat="47.80647" lon="-2.41816">
        <ele>74.6</ele>
        <time>2025-02-11T08:47:28Z</time>
      </trkpt>
      <trkpt lat="47.80647" lon="-2.41816">
        <ele>74.6</ele>
        <time>2025-02-11T08:47:29Z</time>
      </trkpt>
      <trkpt lat="47.80647" lon="-2.41816">
        <ele>74.6</ele>
        <time>2025-02-11T08:47:30Z</time>
      </trkpt>
      <trkpt lat="47.80647" lon="-2.41816">
        <ele>74.6</ele>
        <time>2025-02-11T08:47:31Z</time>
      </trkpt>
      <trkpt lat="47.80647" lon="-2.41816">
        <ele>74.6</ele>
        <time>2025-02-11T08:47:32Z</time>
      </trkpt>
      <trkpt lat="47.80647" lon="-2.41816">
        <ele>74.6</ele>
        <time>2025-02-11T08:47:33Z</time>
      </trkpt>
      <trkpt lat="47.80647" lon="-2.41816">
        <ele>74.6</ele>
        <time>2025-02-11T08:47:34Z</time>
      </trkpt>
      <trkpt lat="47.80647" lon="-2.41816">
        <ele>74.6</ele>
        <time>2025-02-11T08:47:35Z</time>
      </trkpt>
      <trkpt lat="47.80647" lon="-2.41816">
        <ele>74.6</ele>
        <time>2025-02-11T08:47:36Z</time>
      </trkpt>
      <trkpt lat="47.80647" lon="-2.41816">
        <ele>74.6</ele>
        <time>2025-02-11T08:47:37Z</time>
      </trkpt>
      <trkpt lat="47.80647" lon="-2.41816">
        <ele>74.6</ele>
        <time>2025-02-11T08:47:38Z</time>
      </trkpt>
      <trkpt lat="47.80647" lon="-2.41816">
        <ele>74.6</ele>
        <time>2025-02-11T08:47:39Z</time>
      </trkpt>
      <trkpt lat="47.80647" lon="-2.41816">
        <ele>74.6</ele>
        <time>2025-02-11T08:47:40Z</time>
      </trkpt>
      <trkpt lat="47.80647" lon="-2.41816">
        <ele>74.6</ele>
        <time>2025-02-11T08:47:41Z</time>
      </trkpt>
      <trkpt lat="47.80647" lon="-2.41816">
        <ele>74.6</ele>
        <time>2025-02-11T08:47:42Z</time>
      </trkpt>
      <trkpt lat="47.80647" lon="-2.41816">
        <ele>74.6</ele>
        <time>2025-02-11T08:47:43Z</time>
      </trkpt>
      <trkpt lat="47.80647" lon="-2.41816">
        <ele>74.6</ele>
        <time>2025-02-11T08:47:44Z</time>
      </trkpt>
      <trkpt lat="47.80647" lon="-2.41816">
        <ele>74.6</ele>
        <time>2025-02-11T08:47:45Z</time>
      </trkpt>
      <trkpt lat="47.80647" lon="-2.41816">
        <ele>74.6</ele>
        <time>2025-02-11T08:47:46Z</time>
      </trkpt>
      <trkpt lat="47.80647" lon="-2.41816">
        <ele>74.6</ele>
        <time>2025-02-11T08:47:47Z</time>
      </trkpt>
      <trkpt lat="47.80647" lon="-2.41816">
        <ele>74.6</ele>
        <time>2025-02-11T08:47:48Z</time>
      </trkpt>
      <trkpt lat="47.80647" lon="-2.41816">
        <ele>74.6</ele>
        <time>2025-02-11T08:47:49Z</time>
      </trkpt>
      <trkpt lat="47.80647" lon="-2.41816">
        <ele>74.6</ele>
        <time>2025-02-11T08:47:50Z</time>
      </trkpt>
      <trkpt lat="47.80647" lon="-2.41816">
        <ele>74.6</ele>
        <time>2025-02-11T08:47:51Z</time>
      </trkpt>
      <trkpt lat="47.80647" lon="-2.41816">
        <ele>74.6</ele>
        <time>2025-02-11T08:47:52Z</time>
      </trkpt>
      <trkpt lat="47.80647" lon="-2.41816">
        <ele>74.6</ele>
        <time>2025-02-11T08:47:53Z</time>
      </trkpt>
      <trkpt lat="47.80647" lon="-2.41816">
        <ele>74.6</ele>
        <time>2025-02-11T08:47:54Z</time>
      </trkpt>
      <trkpt lat="47.80647" lon="-2.41816">
        <ele>74.6</ele>
        <time>2025-02-11T08:47:55Z</time>
      </trkpt>
      <trkpt lat="47.80647" lon="-2.41816">
        <ele>74.6</ele>
        <time>2025-02-11T08:47:56Z</time>
      </trkpt>
      <trkpt lat="47.80647" lon="-2.41816">
        <ele>74.6</ele>
        <time>2025-02-11T08:47:57Z</time>
      </trkpt>
      <trkpt lat="47.80647" lon="-2.41816">
        <ele>74.6</ele>
        <time>2025-02-11T08:47:58Z</time>
      </trkpt>
      <trkpt lat="47.80647" lon="-2.41816">
        <ele>74.6</ele>
        <time>2025-02-11T08:47:59Z</time>
      </trkpt>
      <trkpt lat="47.80647" lon="-2.41816">
        <ele>74.6</ele>
        <time>2025-02-11T08:48:00Z</time>
      </trkpt>
      <trkpt lat="47.80647" lon="-2.41816">
        <ele>74.6</ele>
        <time>2025-02-11T08:48:01Z</time>
      </trkpt>
      <trkpt lat="47.80647" lon="-2.41816">
        <ele>74.6</ele>
        <time>2025-02-11T08:48:02Z</time>
      </trkpt>
      <trkpt lat="47.80647" lon="-2.41816">
        <ele>74.6</ele>
        <time>2025-02-11T08:48:03Z</time>
      </trkpt>
      <trkpt lat="47.80647" lon="-2.41816">
        <ele>74.6</ele>
        <time>2025-02-11T08:48:04Z</time>
      </trkpt>
      <trkpt lat="47.80647" lon="-2.41816">
        <ele>74.6</ele>
        <time>2025-02-11T08:48:05Z</time>
      </trkpt>
      <trkpt lat="47.80647" lon="-2.41816">
        <ele>74.6</ele>
        <time>2025-02-11T08:48:06Z</time>
      </trkpt>
      <trkpt lat="47.80647" lon="-2.41816">
        <ele>74.6</ele>
        <time>2025-02-11T08:48:07Z</time>
      </trkpt>
      <trkpt lat="47.80647" lon="-2.41816">
        <ele>74.6</ele>
        <time>2025-02-11T08:48:08Z</time>
      </trkpt>
      <trkpt lat="47.80647" lon="-2.41816">
        <ele>74.6</ele>
        <time>2025-02-11T08:48:09Z</time>
      </trkpt>
      <trkpt lat="47.80647" lon="-2.41816">
        <ele>74.6</ele>
        <time>2025-02-11T08:48:10Z</time>
      </trkpt>
      <trkpt lat="47.80647" lon="-2.41816">
        <ele>74.6</ele>
        <time>2025-02-11T08:48:11Z</time>
      </trkpt>
      <trkpt lat="47.80647" lon="-2.41816">
        <ele>74.6</ele>
        <time>2025-02-11T08:48:12Z</time>
      </trkpt>
      <trkpt lat="47.80647" lon="-2.41816">
        <ele>74.6</ele>
        <time>2025-02-11T08:48:13Z</time>
      </trkpt>
      <trkpt lat="47.80647" lon="-2.41816">
        <ele>74.6</ele>
        <time>2025-02-11T08:48:14Z</time>
      </trkpt>
      <trkpt lat="47.80647" lon="-2.41816">
        <ele>74.6</ele>
        <time>2025-02-11T08:48:15Z</time>
      </trkpt>
      <trkpt lat="47.80647" lon="-2.41816">
        <ele>74.6</ele>
        <time>2025-02-11T08:48:16Z</time>
      </trkpt>
      <trkpt lat="47.80647" lon="-2.41816">
        <ele>74.6</ele>
        <time>2025-02-11T08:48:17Z</time>
      </trkpt>
      <trkpt lat="47.80647" lon="-2.41816">
        <ele>74.6</ele>
        <time>2025-02-11T08:48:18Z</time>
      </trkpt>
      <trkpt lat="47.80647" lon="-2.41816">
        <ele>74.6</ele>
        <time>2025-02-11T08:48:19Z</time>
      </trkpt>
      <trkpt lat="47.80647" lon="-2.41816">
        <ele>74.6</ele>
        <time>2025-02-11T08:48:20Z</time>
      </trkpt>
      <trkpt lat="47.80647" lon="-2.41816">
        <ele>74.6</ele>
        <time>2025-02-11T08:48:21Z</time>
      </trkpt>
      <trkpt lat="47.80647" lon="-2.41816">
        <ele>74.6</ele>
        <time>2025-02-11T08:48:22Z</time>
      </trkpt>
      <trkpt lat="47.80647" lon="-2.41816">
        <ele>74.6</ele>
        <time>2025-02-11T08:48:23Z</time>
      </trkpt>
      <trkpt lat="47.80647" lon="-2.41816">
        <ele>74.6</ele>
        <time>2025-02-11T08:48:24Z</time>
      </trkpt>
      <trkpt lat="47.80647" lon="-2.41816">
        <ele>74.6</ele>
        <time>2025-02-11T08:48:25Z</time>
      </trkpt>
      <trkpt lat="47.80647" lon="-2.41816">
        <ele>74.6</ele>
        <time>2025-02-11T08:48:26Z</time>
      </trkpt>
      <trkpt lat="47.80647" lon="-2.41816">
        <ele>74.6</ele>
        <time>2025-02-11T08:48:27Z</time>
      </trkpt>
      <trkpt lat="47.80647" lon="-2.41816">
        <ele>74.6</ele>
        <time>2025-02-11T08:48:28Z</time>
      </trkpt>
      <trkpt lat="47.80647" lon="-2.41816">
        <ele>74.6</ele>
        <time>2025-02-11T08:48:29Z</time>
      </trkpt>
      <trkpt lat="47.80647" lon="-2.41816">
        <ele>74.6</ele>
        <time>2025-02-11T08:48:30Z</time>
      </trkpt>
      <trkpt lat="47.80647" lon="-2.41816">
        <ele>74.6</ele>
        <time>2025-02-11T08:48:31Z</time>
      </trkpt>
      <trkpt lat="47.80647" lon="-2.41816">
        <ele>74.6</ele>
        <time>2025-02-11T08:48:32Z</time>
      </trkpt>
      <trkpt lat="47.80647" lon="-2.41816">
        <ele>74.6</ele>
        <time>2025-02-11T08:48:33Z</time>
      </trkpt>
      <trkpt lat="47.80647" lon="-2.41816">
        <ele>74.6</ele>
        <time>2025-02-11T08:48:34Z</time>
      </trkpt>
      <trkpt lat="47.80647" lon="-2.41816">
        <ele>74.6</ele>
        <time>2025-02-11T08:48:35Z</time>
      </trkpt>
      <trkpt lat="47.80647" lon="-2.41816">
        <ele>74.6</ele>
        <time>2025-02-11T08:48:36Z</time>
      </trkpt>
      <trkpt lat="47.80647" lon="-2.41816">
        <ele>74.6</ele>
        <time>2025-02-11T08:48:37Z</time>
      </trkpt>
      <trkpt lat="47.80647" lon="-2.41816">
        <ele>74.6</ele>
        <time>2025-02-11T08:48:38Z</time>
      </trkpt>
      <trkpt lat="47.80647" lon="-2.41816">
        <ele>74.6</ele>
        <time>2025-02-11T08:48:39Z</time>
      </trkpt>
      <trkpt lat="47.80647" lon="-2.41816">
        <ele>74.6</ele>
        <time>2025-02-11T08:48:40Z</time>
      </trkpt>
      <trkpt lat="47.80647" lon="-2.41816">
        <ele>74.6</ele>
        <time>2025-02-11T08:48:41Z</time>
      </trkpt>
      <trkpt lat="47.80647" lon="-2.41816">
        <ele>74.6</ele>
        <time>2025-02-11T08:48:42Z</time>
      </trkpt>
      <trkpt lat="47.80647" lon="-2.41816">
        <ele>74.6</ele>
        <time>2025-02-11T08:48:43Z</time>
      </trkpt>
      <trkpt lat="47.80647" lon="-2.41816">
        <ele>74.6</ele>
        <time>2025-02-11T08:48:44Z</time>
      </trkpt>
      <trkpt lat="47.80646" lon="-2.41815">
        <ele>74.5</ele>
        <time>2025-02-11T08:48:45Z</time>
      </trkpt>
      <trkpt lat="47.80646" lon="-2.41816">
        <ele>74.5</ele>
        <time>2025-02-11T08:48:46Z</time>
      </trkpt>
      <trkpt lat="47.80646" lon="-2.41816">
        <ele>74.5</ele>
        <time>2025-02-11T08:48:47Z</time>
      </trkpt>
      <trkpt lat="47.80646" lon="-2.41816">
        <ele>74.5</ele>
        <time>2025-02-11T08:48:48Z</time>
      </trkpt>
      <trkpt lat="47.80646" lon="-2.41816">
        <ele>74.5</ele>
        <time>2025-02-11T08:48:49Z</time>
      </trkpt>
      <trkpt lat="47.80646" lon="-2.41816">
        <ele>74.5</ele>
        <time>2025-02-11T08:48:50Z</time>
      </trkpt>
      <trkpt lat="47.80646" lon="-2.41816">
        <ele>74.5</ele>
        <time>2025-02-11T08:48:51Z</time>
      </trkpt>
      <trkpt lat="47.80646" lon="-2.41816">
        <ele>74.5</ele>
        <time>2025-02-11T08:48:52Z</time>
      </trkpt>
      <trkpt lat="47.80646" lon="-2.41816">
        <ele>74.5</ele>
        <time>2025-02-11T08:48:53Z</time>
      </trkpt>
      <trkpt lat="47.80646" lon="-2.41816">
        <ele>74.5</ele>
        <time>2025-02-11T08:48:54Z</time>
      </trkpt>
      <trkpt lat="47.80646" lon="-2.41816">
        <ele>74.5</ele>
        <time>2025-02-11T08:48:55Z</time>
      </trkpt>
      <trkpt lat="47.80646" lon="-2.41816">
        <ele>74.5</ele>
        <time>2025-02-11T08:48:56Z</time>
      </trkpt>
      <trkpt lat="47.80646" lon="-2.41816">
        <ele>74.5</ele>
        <time>2025-02-11T08:48:57Z</time>
      </trkpt>
      <trkpt lat="47.80646" lon="-2.41816">
        <ele>74.5</ele>
        <time>2025-02-11T08:48:58Z</time>
      </trkpt>
      <trkpt lat="47.80646" lon="-2.41816">
        <ele>74.5</ele>
        <time>2025-02-11T08:48:59Z</time>
      </trkpt>
      <trkpt lat="47.80646" lon="-2.41816">
        <ele>74.5</ele>
        <time>2025-02-11T08:49:00Z</time>
      </trkpt>
      <trkpt lat="47.80646" lon="-2.41816">
        <ele>74.5</ele>
        <time>2025-02-11T08:49:01Z</time>
      </trkpt>
      <trkpt lat="47.80646" lon="-2.41816">
        <ele>74.5</ele>
        <time>2025-02-11T08:49:02Z</time>
      </trkpt>
      <trkpt lat="47.80646" lon="-2.41816">
        <ele>74.5</ele>
        <time>2025-02-11T08:49:03Z</time>
      </trkpt>
      <trkpt lat="47.80646" lon="-2.41816">
        <ele>74.5</ele>
        <time>2025-02-11T08:49:04Z</time>
      </trkpt>
      <trkpt lat="47.80646" lon="-2.41816">
        <ele>74.5</ele>
        <time>2025-02-11T08:49:05Z</time>
      </trkpt>
      <trkpt lat="47.80646" lon="-2.41816">
        <ele>74.5</ele>
        <time>2025-02-11T08:49:06Z</time>
      </trkpt>
      <trkpt lat="47.80646" lon="-2.41816">
        <ele>74.5</ele>
        <time>2025-02-11T08:49:07Z</time>
      </trkpt>
      <trkpt lat="47.80646" lon="-2.41816">
        <ele>74.5</ele>
        <time>2025-02-11T08:49:08Z</time>
      </trkpt>
      <trkpt lat="47.80646" lon="-2.41816">
        <ele>74.5</ele>
        <time>2025-02-11T08:49:09Z</time>
      </trkpt>
      <trkpt lat="47.80646" lon="-2.41816">
        <ele>74.5</ele>
        <time>2025-02-11T08:49:10Z</time>
      </trkpt>
      <trkpt lat="47.80646" lon="-2.41816">
        <ele>74.5</ele>
        <time>2025-02-11T08:49:11Z</time>
      </trkpt>
      <trkpt lat="47.80646" lon="-2.41816">
        <ele>74.5</ele>
        <time>2025-02-11T08:49:12Z</time>
      </trkpt>
      <trkpt lat="47.80646" lon="-2.41816">
        <ele>74.5</ele>
        <time>2025-02-11T08:49:13Z</time>
      </trkpt>
      <trkpt lat="47.80646" lon="-2.41816">
        <ele>74.5</ele>
        <time>2025-02-11T08:49:14Z</time>
      </trkpt>
      <trkpt lat="47.80646" lon="-2.41816">
        <ele>74.5</ele>
        <time>2025-02-11T08:49:15Z</time>
      </trkpt>
      <trkpt lat="47.80646" lon="-2.41816">
        <ele>74.5</ele>
        <time>2025-02-11T08:49:16Z</time>
      </trkpt>
      <trkpt lat="47.80646" lon="-2.41816">
        <ele>74.5</ele>
        <time>2025-02-11T08:49:17Z</time>
      </trkpt>
      <trkpt lat="47.80646" lon="-2.41816">
        <ele>74.5</ele>
        <time>2025-02-11T08:49:18Z</time>
      </trkpt>
      <trkpt lat="47.80646" lon="-2.41816">
        <ele>74.5</ele>
        <time>2025-02-11T08:49:19Z</time>
      </trkpt>
      <trkpt lat="47.80646" lon="-2.41816">
        <ele>74.5</ele>
        <time>2025-02-11T08:49:20Z</time>
      </trkpt>
      <trkpt lat="47.80646" lon="-2.41816">
        <ele>74.5</ele>
        <time>2025-02-11T08:49:21Z</time>
      </trkpt>
      <trkpt lat="47.80646" lon="-2.41816">
        <ele>74.5</ele>
        <time>2025-02-11T08:49:22Z</time>
      </trkpt>
      <trkpt lat="47.80646" lon="-2.41816">
        <ele>74.5</ele>
        <time>2025-02-11T08:49:23Z</time>
      </trkpt>
      <trkpt lat="47.80646" lon="-2.41816">
        <ele>74.5</ele>
        <time>2025-02-11T08:49:24Z</time>
      </trkpt>
      <trkpt lat="47.80646" lon="-2.41816">
        <ele>74.5</ele>
        <time>2025-02-11T08:49:25Z</time>
      </trkpt>
      <trkpt lat="47.80646" lon="-2.41816">
        <ele>74.5</ele>
        <time>2025-02-11T08:49:26Z</time>
      </trkpt>
      <trkpt lat="47.80646" lon="-2.41816">
        <ele>74.5</ele>
        <time>2025-02-11T08:49:27Z</time>
      </trkpt>
      <trkpt lat="47.80646" lon="-2.41816">
        <ele>74.5</ele>
        <time>2025-02-11T08:49:28Z</time>
      </trkpt>
      <trkpt lat="47.80646" lon="-2.41816">
        <ele>74.5</ele>
        <time>2025-02-11T08:49:29Z</time>
      </trkpt>
      <trkpt lat="47.80646" lon="-2.41816">
        <ele>74.5</ele>
        <time>2025-02-11T08:49:30Z</time>
      </trkpt>
      <trkpt lat="47.80646" lon="-2.41816">
        <ele>74.5</ele>
        <time>2025-02-11T08:49:31Z</time>
      </trkpt>
      <trkpt lat="47.80646" lon="-2.41816">
        <ele>74.5</ele>
        <time>2025-02-11T08:49:32Z</time>
      </trkpt>
      <trkpt lat="47.80646" lon="-2.41816">
        <ele>74.5</ele>
        <time>2025-02-11T08:49:33Z</time>
      </trkpt>
      <trkpt lat="47.80646" lon="-2.41816">
        <ele>74.5</ele>
        <time>2025-02-11T08:49:34Z</time>
      </trkpt>
      <trkpt lat="47.80646" lon="-2.41816">
        <ele>74.5</ele>
        <time>2025-02-11T08:49:35Z</time>
      </trkpt>
      <trkpt lat="47.80646" lon="-2.41816">
        <ele>74.5</ele>
        <time>2025-02-11T08:49:36Z</time>
      </trkpt>
      <trkpt lat="47.80646" lon="-2.41816">
        <ele>74.5</ele>
        <time>2025-02-11T08:49:37Z</time>
      </trkpt>
      <trkpt lat="47.80646" lon="-2.41816">
        <ele>74.5</ele>
        <time>2025-02-11T08:49:38Z</time>
      </trkpt>
      <trkpt lat="47.80646" lon="-2.41816">
        <ele>74.5</ele>
        <time>2025-02-11T08:49:39Z</time>
      </trkpt>
      <trkpt lat="47.80646" lon="-2.41816">
        <ele>74.5</ele>
        <time>2025-02-11T08:49:40Z</time>
      </trkpt>
      <trkpt lat="47.80646" lon="-2.41816">
        <ele>74.5</ele>
        <time>2025-02-11T08:49:41Z</time>
      </trkpt>
      <trkpt lat="47.80646" lon="-2.41816">
        <ele>74.5</ele>
        <time>2025-02-11T08:49:42Z</time>
      </trkpt>
      <trkpt lat="47.80646" lon="-2.41816">
        <ele>74.5</ele>
        <time>2025-02-11T08:49:43Z</time>
      </trkpt>
      <trkpt lat="47.80646" lon="-2.41816">
        <ele>74.5</ele>
        <time>2025-02-11T08:49:44Z</time>
      </trkpt>
      <trkpt lat="47.80646" lon="-2.41816">
        <ele>74.5</ele>
        <time>2025-02-11T08:49:45Z</time>
      </trkpt>
      <trkpt lat="47.80646" lon="-2.41816">
        <ele>74.5</ele>
        <time>2025-02-11T08:49:46Z</time>
      </trkpt>
      <trkpt lat="47.80646" lon="-2.41816">
        <ele>74.5</ele>
        <time>2025-02-11T08:49:47Z</time>
      </trkpt>
      <trkpt lat="47.80646" lon="-2.41816">
        <ele>74.5</ele>
        <time>2025-02-11T08:49:48Z</time>
      </trkpt>
      <trkpt lat="47.80646" lon="-2.41816">
        <ele>74.5</ele>
        <time>2025-02-11T08:49:49Z</time>
      </trkpt>
      <trkpt lat="47.80646" lon="-2.41816">
        <ele>74.5</ele>
        <time>2025-02-11T08:49:50Z</time>
      </trkpt>
      <trkpt lat="47.80646" lon="-2.41816">
        <ele>74.5</ele>
        <time>2025-02-11T08:49:51Z</time>
      </trkpt>
      <trkpt lat="47.80646" lon="-2.41816">
        <ele>74.5</ele>
        <time>2025-02-11T08:49:52Z</time>
      </trkpt>
      <trkpt lat="47.80646" lon="-2.41816">
        <ele>74.5</ele>
        <time>2025-02-11T08:49:53Z</time>
      </trkpt>
      <trkpt lat="47.80646" lon="-2.41816">
        <ele>74.5</ele>
        <time>2025-02-11T08:49:54Z</time>
      </trkpt>
      <trkpt lat="47.80646" lon="-2.41816">
        <ele>74.5</ele>
        <time>2025-02-11T08:49:55Z</time>
      </trkpt>
      <trkpt lat="47.80646" lon="-2.41816">
        <ele>74.5</ele>
        <time>2025-02-11T08:49:56Z</time>
      </trkpt>
      <trkpt lat="47.80646" lon="-2.41816">
        <ele>74.5</ele>
        <time>2025-02-11T08:49:57Z</time>
      </trkpt>
      <trkpt lat="47.80646" lon="-2.41816">
        <ele>74.5</ele>
        <time>2025-02-11T08:49:58Z</time>
      </trkpt>
      <trkpt lat="47.80646" lon="-2.41816">
        <ele>74.5</ele>
        <time>2025-02-11T08:49:59Z</time>
      </trkpt>
      <trkpt lat="47.80646" lon="-2.41816">
        <ele>74.5</ele>
        <time>2025-02-11T08:50:00Z</time>
      </trkpt>
      <trkpt lat="47.80646" lon="-2.41816">
        <ele>74.5</ele>
        <time>2025-02-11T08:50:01Z</time>
      </trkpt>
      <trkpt lat="47.80646" lon="-2.41816">
        <ele>74.5</ele>
        <time>2025-02-11T08:50:02Z</time>
      </trkpt>
      <trkpt lat="47.80646" lon="-2.41816">
        <ele>74.5</ele>
        <time>2025-02-11T08:50:03Z</time>
      </trkpt>
      <trkpt lat="47.80646" lon="-2.41816">
        <ele>74.5</ele>
        <time>2025-02-11T08:50:04Z</time>
      </trkpt>
      <trkpt lat="47.80646" lon="-2.41816">
        <ele>74.5</ele>
        <time>2025-02-11T08:50:05Z</time>
      </trkpt>
      <trkpt lat="47.80646" lon="-2.41816">
        <ele>74.5</ele>
        <time>2025-02-11T08:50:06Z</time>
      </trkpt>
      <trkpt lat="47.80646" lon="-2.41816">
        <ele>74.5</ele>
        <time>2025-02-11T08:50:07Z</time>
      </trkpt>
      <trkpt lat="47.80646" lon="-2.41816">
        <ele>74.5</ele>
        <time>2025-02-11T08:50:08Z</time>
      </trkpt>
      <trkpt lat="47.80646" lon="-2.41816">
        <ele>74.5</ele>
        <time>2025-02-11T08:50:09Z</time>
      </trkpt>
      <trkpt lat="47.80646" lon="-2.41816">
        <ele>74.5</ele>
        <time>2025-02-11T08:50:10Z</time>
      </trkpt>
      <trkpt lat="47.80646" lon="-2.41816">
        <ele>74.5</ele>
        <time>2025-02-11T08:50:11Z</time>
      </trkpt>
      <trkpt lat="47.80646" lon="-2.41816">
        <ele>74.5</ele>
        <time>2025-02-11T08:50:12Z</time>
      </trkpt>
      <trkpt lat="47.80646" lon="-2.41816">
        <ele>74.5</ele>
        <time>2025-02-11T08:50:13Z</time>
      </trkpt>
      <trkpt lat="47.80646" lon="-2.41816">
        <ele>74.5</ele>
        <time>2025-02-11T08:50:14Z</time>
      </trkpt>
      <trkpt lat="47.80646" lon="-2.41816">
        <ele>74.5</ele>
        <time>2025-02-11T08:50:15Z</time>
      </trkpt>
      <trkpt lat="47.80646" lon="-2.41816">
        <ele>74.5</ele>
        <time>2025-02-11T08:50:16Z</time>
      </trkpt>
      <trkpt lat="47.80646" lon="-2.41816">
        <ele>74.5</ele>
        <time>2025-02-11T08:50:17Z</time>
      </trkpt>
      <trkpt lat="47.80646" lon="-2.41816">
        <ele>74.5</ele>
        <time>2025-02-11T08:50:18Z</time>
      </trkpt>
      <trkpt lat="47.80646" lon="-2.41816">
        <ele>74.5</ele>
        <time>2025-02-11T08:50:19Z</time>
      </trkpt>
      <trkpt lat="47.80646" lon="-2.41816">
        <ele>74.5</ele>
        <time>2025-02-11T08:50:20Z</time>
      </trkpt>
      <trkpt lat="47.80646" lon="-2.41816">
        <ele>74.5</ele>
        <time>2025-02-11T08:50:21Z</time>
      </trkpt>
      <trkpt lat="47.80646" lon="-2.41816">
        <ele>74.5</ele>
        <time>2025-02-11T08:50:22Z</time>
      </trkpt>
      <trkpt lat="47.80646" lon="-2.41816">
        <ele>74.5</ele>
        <time>2025-02-11T08:50:23Z</time>
      </trkpt>
      <trkpt lat="47.80646" lon="-2.41816">
        <ele>74.5</ele>
        <time>2025-02-11T08:50:24Z</time>
      </trkpt>
      <trkpt lat="47.80646" lon="-2.41816">
        <ele>74.5</ele>
        <time>2025-02-11T08:50:25Z</time>
      </trkpt>
      <trkpt lat="47.80646" lon="-2.41816">
        <ele>74.5</ele>
        <time>2025-02-11T08:50:26Z</time>
      </trkpt>
      <trkpt lat="47.80646" lon="-2.41816">
        <ele>74.5</ele>
        <time>2025-02-11T08:50:27Z</time>
      </trkpt>
      <trkpt lat="47.80646" lon="-2.41816">
        <ele>74.5</ele>
        <time>2025-02-11T08:50:28Z</time>
      </trkpt>
      <trkpt lat="47.80646" lon="-2.41816">
        <ele>74.5</ele>
        <time>2025-02-11T08:50:29Z</time>
      </trkpt>
      <trkpt lat="47.80646" lon="-2.41816">
        <ele>74.5</ele>
        <time>2025-02-11T08:50:30Z</time>
      </trkpt>
      <trkpt lat="47.80646" lon="-2.41816">
        <ele>74.5</ele>
        <time>2025-02-11T08:50:31Z</time>
      </trkpt>
      <trkpt lat="47.80646" lon="-2.41816">
        <ele>74.5</ele>
        <time>2025-02-11T08:50:32Z</time>
      </trkpt>
      <trkpt lat="47.80646" lon="-2.41816">
        <ele>74.5</ele>
        <time>2025-02-11T08:50:33Z</time>
      </trkpt>
      <trkpt lat="47.80646" lon="-2.41816">
        <ele>74.5</ele>
        <time>2025-02-11T08:50:34Z</time>
      </trkpt>
      <trkpt lat="47.80646" lon="-2.41816">
        <ele>74.5</ele>
        <time>2025-02-11T08:50:35Z</time>
      </trkpt>
      <trkpt lat="47.80646" lon="-2.41816">
        <ele>74.5</ele>
        <time>2025-02-11T08:50:36Z</time>
      </trkpt>
      <trkpt lat="47.80646" lon="-2.41816">
        <ele>74.5</ele>
        <time>2025-02-11T08:50:37Z</time>
      </trkpt>
      <trkpt lat="47.80646" lon="-2.41816">
        <ele>74.5</ele>
        <time>2025-02-11T08:50:38Z</time>
      </trkpt>
      <trkpt lat="47.80646" lon="-2.41816">
        <ele>74.5</ele>
        <time>2025-02-11T08:50:39Z</time>
      </trkpt>
      <trkpt lat="47.80646" lon="-2.41816">
        <ele>74.5</ele>
        <time>2025-02-11T08:50:40Z</time>
      </trkpt>
      <trkpt lat="47.80646" lon="-2.41816">
        <ele>74.5</ele>
        <time>2025-02-11T08:50:41Z</time>
      </trkpt>
      <trkpt lat="47.80646" lon="-2.41816">
        <ele>74.5</ele>
        <time>2025-02-11T08:50:42Z</time>
      </trkpt>
      <trkpt lat="47.80646" lon="-2.41816">
        <ele>74.5</ele>
        <time>2025-02-11T08:50:43Z</time>
      </trkpt>
      <trkpt lat="47.80646" lon="-2.41816">
        <ele>74.5</ele>
        <time>2025-02-11T08:50:44Z</time>
      </trkpt>
      <trkpt lat="47.80646" lon="-2.41816">
        <ele>74.5</ele>
        <time>2025-02-11T08:50:45Z</time>
      </trkpt>
      <trkpt lat="47.80646" lon="-2.41816">
        <ele>74.5</ele>
        <time>2025-02-11T08:50:46Z</time>
      </trkpt>
      <trkpt lat="47.80646" lon="-2.41816">
        <ele>74.5</ele>
        <time>2025-02-11T08:50:47Z</time>
      </trkpt>
      <trkpt lat="47.80646" lon="-2.41816">
        <ele>74.5</ele>
        <time>2025-02-11T08:50:48Z</time>
      </trkpt>
      <trkpt lat="47.80646" lon="-2.41816">
        <ele>74.5</ele>
        <time>2025-02-11T08:50:49Z</time>
      </trkpt>
      <trkpt lat="47.80646" lon="-2.41816">
        <ele>74.5</ele>
        <time>2025-02-11T08:50:50Z</time>
      </trkpt>
      <trkpt lat="47.80646" lon="-2.41816">
        <ele>74.5</ele>
        <time>2025-02-11T08:50:51Z</time>
      </trkpt>
      <trkpt lat="47.80646" lon="-2.41816">
        <ele>74.5</ele>
        <time>2025-02-11T08:50:52Z</time>
      </trkpt>
      <trkpt lat="47.80646" lon="-2.41816">
        <ele>74.5</ele>
        <time>2025-02-11T08:50:53Z</time>
      </trkpt>
      <trkpt lat="47.80646" lon="-2.41816">
        <ele>74.5</ele>
        <time>2025-02-11T08:50:54Z</time>
      </trkpt>
      <trkpt lat="47.80646" lon="-2.41816">
        <ele>74.5</ele>
        <time>2025-02-11T08:50:55Z</time>
      </trkpt>
      <trkpt lat="47.80646" lon="-2.41816">
        <ele>74.5</ele>
        <time>2025-02-11T08:50:56Z</time>
      </trkpt>
      <trkpt lat="47.80646" lon="-2.41816">
        <ele>74.5</ele>
        <time>2025-02-11T08:50:57Z</time>
      </trkpt>
      <trkpt lat="47.80646" lon="-2.41816">
        <ele>74.5</ele>
        <time>2025-02-11T08:50:58Z</time>
      </trkpt>
      <trkpt lat="47.80646" lon="-2.41816">
        <ele>74.5</ele>
        <time>2025-02-11T08:50:59Z</time>
      </trkpt>
      <trkpt lat="47.80646" lon="-2.41816">
        <ele>74.5</ele>
        <time>2025-02-11T08:51:00Z</time>
      </trkpt>
      <trkpt lat="47.80646" lon="-2.41816">
        <ele>74.5</ele>
        <time>2025-02-11T08:51:01Z</time>
      </trkpt>
      <trkpt lat="47.80646" lon="-2.41816">
        <ele>74.5</ele>
        <time>2025-02-11T08:51:02Z</time>
      </trkpt>
      <trkpt lat="47.80646" lon="-2.41816">
        <ele>74.5</ele>
        <time>2025-02-11T08:51:03Z</time>
      </trkpt>
      <trkpt lat="47.80646" lon="-2.41816">
        <ele>74.5</ele>
        <time>2025-02-11T08:51:04Z</time>
      </trkpt>
      <trkpt lat="47.80646" lon="-2.41816">
        <ele>74.5</ele>
        <time>2025-02-11T08:51:05Z</time>
      </trkpt>
      <trkpt lat="47.80646" lon="-2.41816">
        <ele>74.5</ele>
        <time>2025-02-11T08:51:06Z</time>
      </trkpt>
      <trkpt lat="47.80646" lon="-2.41816">
        <ele>74.5</ele>
        <time>2025-02-11T08:51:07Z</time>
      </trkpt>
      <trkpt lat="47.80646" lon="-2.41816">
        <ele>74.5</ele>
        <time>2025-02-11T08:51:08Z</time>
      </trkpt>
      <trkpt lat="47.80646" lon="-2.41816">
        <ele>74.5</ele>
        <time>2025-02-11T08:51:09Z</time>
      </trkpt>
      <trkpt lat="47.80646" lon="-2.41816">
        <ele>74.5</ele>
        <time>2025-02-11T08:51:10Z</time>
      </trkpt>
      <trkpt lat="47.80646" lon="-2.41816">
        <ele>74.5</ele>
        <time>2025-02-11T08:51:11Z</time>
      </trkpt>
      <trkpt lat="47.80646" lon="-2.41816">
        <ele>74.5</ele>
        <time>2025-02-11T08:51:12Z</time>
      </trkpt>
      <trkpt lat="47.80646" lon="-2.41816">
        <ele>74.5</ele>
        <time>2025-02-11T08:51:13Z</time>
      </trkpt>
      <trkpt lat="47.80646" lon="-2.41816">
        <ele>74.5</ele>
        <time>2025-02-11T08:51:14Z</time>
      </trkpt>
      <trkpt lat="47.80646" lon="-2.41816">
        <ele>74.5</ele>
        <time>2025-02-11T08:51:15Z</time>
      </trkpt>
      <trkpt lat="47.80646" lon="-2.41816">
        <ele>74.5</ele>
        <time>2025-02-11T08:51:16Z</time>
      </trkpt>
      <trkpt lat="47.80646" lon="-2.41816">
        <ele>74.5</ele>
        <time>2025-02-11T08:51:17Z</time>
      </trkpt>
      <trkpt lat="47.80646" lon="-2.41816">
        <ele>74.5</ele>
        <time>2025-02-11T08:51:18Z</time>
      </trkpt>
      <trkpt lat="47.80646" lon="-2.41816">
        <ele>74.5</ele>
        <time>2025-02-11T08:51:19Z</time>
      </trkpt>
      <trkpt lat="47.80646" lon="-2.41816">
        <ele>74.5</ele>
        <time>2025-02-11T08:51:20Z</time>
      </trkpt>
      <trkpt lat="47.80646" lon="-2.41816">
        <ele>74.5</ele>
        <time>2025-02-11T08:51:21Z</time>
      </trkpt>
      <trkpt lat="47.80646" lon="-2.41816">
        <ele>74.5</ele>
        <time>2025-02-11T08:51:22Z</time>
      </trkpt>
      <trkpt lat="47.80646" lon="-2.41816">
        <ele>74.5</ele>
        <time>2025-02-11T08:51:23Z</time>
      </trkpt>
      <trkpt lat="47.80646" lon="-2.41816">
        <ele>74.5</ele>
        <time>2025-02-11T08:51:24Z</time>
      </trkpt>
      <trkpt lat="47.80646" lon="-2.41816">
        <ele>74.5</ele>
        <time>2025-02-11T08:51:25Z</time>
      </trkpt>
      <trkpt lat="47.80646" lon="-2.41816">
        <ele>74.5</ele>
        <time>2025-02-11T08:51:26Z</time>
      </trkpt>
      <trkpt lat="47.80646" lon="-2.41816">
        <ele>74.5</ele>
        <time>2025-02-11T08:51:27Z</time>
      </trkpt>
      <trkpt lat="47.80646" lon="-2.41816">
        <ele>74.5</ele>
        <time>2025-02-11T08:51:28Z</time>
      </trkpt>
      <trkpt lat="47.80646" lon="-2.41816">
        <ele>74.5</ele>
        <time>2025-02-11T08:51:29Z</time>
      </trkpt>
      <trkpt lat="47.80646" lon="-2.41816">
        <ele>74.5</ele>
        <time>2025-02-11T08:51:30Z</time>
      </trkpt>
      <trkpt lat="47.80646" lon="-2.41816">
        <ele>74.5</ele>
        <time>2025-02-11T08:51:31Z</time>
      </trkpt>
      <trkpt lat="47.80646" lon="-2.41816">
        <ele>74.5</ele>
        <time>2025-02-11T08:51:32Z</time>
      </trkpt>
      <trkpt lat="47.80646" lon="-2.41816">
        <ele>74.5</ele>
        <time>2025-02-11T08:51:33Z</time>
      </trkpt>
      <trkpt lat="47.80646" lon="-2.41816">
        <ele>74.5</ele>
        <time>2025-02-11T08:51:34Z</time>
      </trkpt>
      <trkpt lat="47.80646" lon="-2.41816">
        <ele>74.5</ele>
        <time>2025-02-11T08:51:35Z</time>
      </trkpt>
      <trkpt lat="47.80646" lon="-2.41816">
        <ele>74.5</ele>
        <time>2025-02-11T08:51:36Z</time>
      </trkpt>
      <trkpt lat="47.80646" lon="-2.41816">
        <ele>74.5</ele>
        <time>2025-02-11T08:51:37Z</time>
      </trkpt>
      <trkpt lat="47.80646" lon="-2.41816">
        <ele>74.5</ele>
        <time>2025-02-11T08:51:38Z</time>
      </trkpt>
      <trkpt lat="47.80646" lon="-2.41816">
        <ele>74.5</ele>
        <time>2025-02-11T08:51:39Z</time>
      </trkpt>
      <trkpt lat="47.80646" lon="-2.41816">
        <ele>74.5</ele>
        <time>2025-02-11T08:51:40Z</time>
      </trkpt>
      <trkpt lat="47.80646" lon="-2.41816">
        <ele>74.5</ele>
        <time>2025-02-11T08:51:41Z</time>
      </trkpt>
      <trkpt lat="47.80646" lon="-2.41816">
        <ele>74.5</ele>
        <time>2025-02-11T08:51:42Z</time>
      </trkpt>
      <trkpt lat="47.80646" lon="-2.41816">
        <ele>74.5</ele>
        <time>2025-02-11T08:51:43Z</time>
      </trkpt>
      <trkpt lat="47.80646" lon="-2.41816">
        <ele>74.5</ele>
        <time>2025-02-11T08:51:44Z</time>
      </trkpt>
      <trkpt lat="47.80646" lon="-2.41816">
        <ele>74.5</ele>
        <time>2025-02-11T08:51:45Z</time>
      </trkpt>
      <trkpt lat="47.80646" lon="-2.41816">
        <ele>74.5</ele>
        <time>2025-02-11T08:51:46Z</time>
      </trkpt>
      <trkpt lat="47.80646" lon="-2.41816">
        <ele>74.5</ele>
        <time>2025-02-11T08:51:47Z</time>
      </trkpt>
      <trkpt lat="47.80646" lon="-2.41816">
        <ele>74.5</ele>
        <time>2025-02-11T08:51:48Z</time>
      </trkpt>
      <trkpt lat="47.80646" lon="-2.41816">
        <ele>74.5</ele>
        <time>2025-02-11T08:51:49Z</time>
      </trkpt>
      <trkpt lat="47.80646" lon="-2.41816">
        <ele>74.5</ele>
        <time>2025-02-11T08:51:50Z</time>
      </trkpt>
      <trkpt lat="47.80646" lon="-2.41816">
        <ele>74.5</ele>
        <time>2025-02-11T08:51:51Z</time>
      </trkpt>
      <trkpt lat="47.80646" lon="-2.41816">
        <ele>74.5</ele>
        <time>2025-02-11T08:51:52Z</time>
      </trkpt>
      <trkpt lat="47.80646" lon="-2.41816">
        <ele>74.5</ele>
        <time>2025-02-11T08:51:53Z</time>
      </trkpt>
      <trkpt lat="47.80646" lon="-2.41816">
        <ele>74.5</ele>
        <time>2025-02-11T08:51:54Z</time>
      </trkpt>
      <trkpt lat="47.80646" lon="-2.41816">
        <ele>74.5</ele>
        <time>2025-02-11T08:51:55Z</time>
      </trkpt>
      <trkpt lat="47.80646" lon="-2.41816">
        <ele>74.5</ele>
        <time>2025-02-11T08:51:56Z</time>
      </trkpt>
      <trkpt lat="47.80646" lon="-2.41816">
        <ele>74.5</ele>
        <time>2025-02-11T08:51:57Z</time>
      </trkpt>
      <trkpt lat="47.80646" lon="-2.41816">
        <ele>74.5</ele>
        <time>2025-02-11T08:51:58Z</time>
      </trkpt>
      <trkpt lat="47.80646" lon="-2.41816">
        <ele>74.5</ele>
        <time>2025-02-11T08:51:59Z</time>
      </trkpt>
      <trkpt lat="47.80646" lon="-2.41816">
        <ele>74.5</ele>
        <time>2025-02-11T08:52:00Z</time>
      </trkpt>
      <trkpt lat="47.80646" lon="-2.41816">
        <ele>74.5</ele>
        <time>2025-02-11T08:52:01Z</time>
      </trkpt>
      <trkpt lat="47.80646" lon="-2.41816">
        <ele>74.5</ele>
        <time>2025-02-11T08:52:02Z</time>
      </trkpt>
      <trkpt lat="47.80646" lon="-2.41816">
        <ele>74.5</ele>
        <time>2025-02-11T08:52:03Z</time>
      </trkpt>
      <trkpt lat="47.80646" lon="-2.41816">
        <ele>74.5</ele>
        <time>2025-02-11T08:52:04Z</time>
      </trkpt>
      <trkpt lat="47.80646" lon="-2.41816">
        <ele>74.5</ele>
        <time>2025-02-11T08:52:05Z</time>
      </trkpt>
      <trkpt lat="47.80646" lon="-2.41816">
        <ele>74.5</ele>
        <time>2025-02-11T08:52:06Z</time>
      </trkpt>
      <trkpt lat="47.80646" lon="-2.41816">
        <ele>74.5</ele>
        <time>2025-02-11T08:52:07Z</time>
      </trkpt>
      <trkpt lat="47.80646" lon="-2.41816">
        <ele>74.5</ele>
        <time>2025-02-11T08:52:08Z</time>
      </trkpt>
      <trkpt lat="47.80646" lon="-2.41816">
        <ele>74.5</ele>
        <time>2025-02-11T08:52:09Z</time>
      </trkpt>
      <trkpt lat="47.80646" lon="-2.41816">
        <ele>74.5</ele>
        <time>2025-02-11T08:52:10Z</time>
      </trkpt>
      <trkpt lat="47.80646" lon="-2.41816">
        <ele>74.5</ele>
        <time>2025-02-11T08:52:11Z</time>
      </trkpt>
      <trkpt lat="47.80646" lon="-2.41816">
        <ele>74.5</ele>
        <time>2025-02-11T08:52:12Z</time>
      </trkpt>
      <trkpt lat="47.80646" lon="-2.41816">
        <ele>74.5</ele>
        <time>2025-02-11T08:52:13Z</time>
      </trkpt>
      <trkpt lat="47.80646" lon="-2.41816">
        <ele>74.5</ele>
        <time>2025-02-11T08:52:14Z</time>
      </trkpt>
      <trkpt lat="47.80646" lon="-2.41816">
        <ele>74.5</ele>
        <time>2025-02-11T08:52:15Z</time>
      </trkpt>
      <trkpt lat="47.80646" lon="-2.41816">
        <ele>74.5</ele>
        <time>2025-02-11T08:52:16Z</time>
      </trkpt>
      <trkpt lat="47.80646" lon="-2.41816">
        <ele>74.5</ele>
        <time>2025-02-11T08:52:17Z</time>
      </trkpt>
      <trkpt lat="47.80646" lon="-2.41816">
        <ele>74.5</ele>
        <time>2025-02-11T08:52:18Z</time>
      </trkpt>
      <trkpt lat="47.80646" lon="-2.41816">
        <ele>74.5</ele>
        <time>2025-02-11T08:52:19Z</time>
      </trkpt>
      <trkpt lat="47.80646" lon="-2.41816">
        <ele>74.5</ele>
        <time>2025-02-11T08:52:20Z</time>
      </trkpt>
      <trkpt lat="47.80646" lon="-2.41816">
        <ele>74.5</ele>
        <time>2025-02-11T08:52:21Z</time>
      </trkpt>
      <trkpt lat="47.80646" lon="-2.41816">
        <ele>74.5</ele>
        <time>2025-02-11T08:52:22Z</time>
      </trkpt>
      <trkpt lat="47.80646" lon="-2.41816">
        <ele>74.5</ele>
        <time>2025-02-11T08:52:23Z</time>
      </trkpt>
      <trkpt lat="47.80646" lon="-2.41816">
        <ele>74.5</ele>
        <time>2025-02-11T08:52:24Z</time>
      </trkpt>
      <trkpt lat="47.80646" lon="-2.41816">
        <ele>74.5</ele>
        <time>2025-02-11T08:52:25Z</time>
      </trkpt>
      <trkpt lat="47.80646" lon="-2.41816">
        <ele>74.5</ele>
        <time>2025-02-11T08:52:26Z</time>
      </trkpt>
      <trkpt lat="47.80646" lon="-2.41816">
        <ele>74.5</ele>
        <time>2025-02-11T08:52:27Z</time>
      </trkpt>
      <trkpt lat="47.80646" lon="-2.41816">
        <ele>74.5</ele>
        <time>2025-02-11T08:52:28Z</time>
      </trkpt>
      <trkpt lat="47.80646" lon="-2.41816">
        <ele>74.5</ele>
        <time>2025-02-11T08:52:29Z</time>
      </trkpt>
      <trkpt lat="47.80646" lon="-2.41816">
        <ele>74.5</ele>
        <time>2025-02-11T08:52:30Z</time>
      </trkpt>
      <trkpt lat="47.80646" lon="-2.41816">
        <ele>74.5</ele>
        <time>2025-02-11T08:52:31Z</time>
      </trkpt>
      <trkpt lat="47.80646" lon="-2.41816">
        <ele>74.5</ele>
        <time>2025-02-11T08:52:32Z</time>
      </trkpt>
      <trkpt lat="47.80646" lon="-2.41816">
        <ele>74.5</ele>
        <time>2025-02-11T08:52:33Z</time>
      </trkpt>
      <trkpt lat="47.80646" lon="-2.41816">
        <ele>74.5</ele>
        <time>2025-02-11T08:52:34Z</time>
      </trkpt>
      <trkpt lat="47.80646" lon="-2.41816">
        <ele>74.5</ele>
        <time>2025-02-11T08:52:35Z</time>
      </trkpt>
      <trkpt lat="47.80646" lon="-2.41816">
        <ele>74.5</ele>
        <time>2025-02-11T08:52:36Z</time>
      </trkpt>
      <trkpt lat="47.80646" lon="-2.41816">
        <ele>74.5</ele>
        <time>2025-02-11T08:52:37Z</time>
      </trkpt>
      <trkpt lat="47.80646" lon="-2.41816">
        <ele>74.5</ele>
        <time>2025-02-11T08:52:38Z</time>
      </trkpt>
      <trkpt lat="47.80646" lon="-2.41816">
        <ele>74.5</ele>
        <time>2025-02-11T08:52:39Z</time>
      </trkpt>
      <trkpt lat="47.80646" lon="-2.41816">
        <ele>74.5</ele>
        <time>2025-02-11T08:52:40Z</time>
      </trkpt>
      <trkpt lat="47.80646" lon="-2.41816">
        <ele>74.5</ele>
        <time>2025-02-11T08:52:41Z</time>
      </trkpt>
      <trkpt lat="47.80646" lon="-2.41816">
        <ele>74.5</ele>
        <time>2025-02-11T08:52:42Z</time>
      </trkpt>
      <trkpt lat="47.80646" lon="-2.41816">
        <ele>74.5</ele>
        <time>2025-02-11T08:52:43Z</time>
      </trkpt>
      <trkpt lat="47.80646" lon="-2.41816">
        <ele>74.5</ele>
        <time>2025-02-11T08:52:44Z</time>
      </trkpt>
      <trkpt lat="47.80646" lon="-2.41816">
        <ele>74.5</ele>
        <time>2025-02-11T08:52:45Z</time>
      </trkpt>
      <trkpt lat="47.80646" lon="-2.41816">
        <ele>74.5</ele>
        <time>2025-02-11T08:52:46Z</time>
      </trkpt>
      <trkpt lat="47.80646" lon="-2.41816">
        <ele>74.5</ele>
        <time>2025-02-11T08:52:47Z</time>
      </trkpt>
      <trkpt lat="47.80646" lon="-2.41816">
        <ele>74.5</ele>
        <time>2025-02-11T08:52:48Z</time>
      </trkpt>
      <trkpt lat="47.80646" lon="-2.41816">
        <ele>74.5</ele>
        <time>2025-02-11T08:52:49Z</time>
      </trkpt>
      <trkpt lat="47.80646" lon="-2.41816">
        <ele>74.5</ele>
        <time>2025-02-11T08:52:50Z</time>
      </trkpt>
      <trkpt lat="47.80646" lon="-2.41816">
        <ele>74.5</ele>
        <time>2025-02-11T08:52:51Z</time>
      </trkpt>
      <trkpt lat="47.80646" lon="-2.41816">
        <ele>74.5</ele>
        <time>2025-02-11T08:52:52Z</time>
      </trkpt>
      <trkpt lat="47.80646" lon="-2.41816">
        <ele>74.5</ele>
        <time>2025-02-11T08:52:53Z</time>
      </trkpt>
      <trkpt lat="47.80646" lon="-2.41816">
        <ele>74.5</ele>
        <time>2025-02-11T08:52:54Z</time>
      </trkpt>
      <trkpt lat="47.80646" lon="-2.41816">
        <ele>74.5</ele>
        <time>2025-02-11T08:52:55Z</time>
      </trkpt>
      <trkpt lat="47.80646" lon="-2.41816">
        <ele>74.5</ele>
        <time>2025-02-11T08:52:56Z</time>
      </trkpt>
      <trkpt lat="47.80646" lon="-2.41816">
        <ele>74.5</ele>
        <time>2025-02-11T08:52:57Z</time>
      </trkpt>
      <trkpt lat="47.80646" lon="-2.41816">
        <ele>74.5</ele>
        <time>2025-02-11T08:52:58Z</time>
      </trkpt>
      <trkpt lat="47.80646" lon="-2.41816">
        <ele>74.5</ele>
        <time>2025-02-11T08:52:59Z</time>
      </trkpt>
      <trkpt lat="47.80646" lon="-2.41816">
        <ele>74.5</ele>
        <time>2025-02-11T08:53:00Z</time>
      </trkpt>
      <trkpt lat="47.80646" lon="-2.41816">
        <ele>74.5</ele>
        <time>2025-02-11T08:53:01Z</time>
      </trkpt>
      <trkpt lat="47.80646" lon="-2.41816">
        <ele>74.5</ele>
        <time>2025-02-11T08:53:02Z</time>
      </trkpt>
      <trkpt lat="47.80646" lon="-2.41816">
        <ele>74.5</ele>
        <time>2025-02-11T08:53:03Z</time>
      </trkpt>
      <trkpt lat="47.80646" lon="-2.41816">
        <ele>74.5</ele>
        <time>2025-02-11T08:53:04Z</time>
      </trkpt>
      <trkpt lat="47.80646" lon="-2.41816">
        <ele>74.5</ele>
        <time>2025-02-11T08:53:05Z</time>
      </trkpt>
      <trkpt lat="47.80646" lon="-2.41816">
        <ele>74.5</ele>
        <time>2025-02-11T08:53:06Z</time>
      </trkpt>
      <trkpt lat="47.80646" lon="-2.41816">
        <ele>74.5</ele>
        <time>2025-02-11T08:53:07Z</time>
      </trkpt>
      <trkpt lat="47.80646" lon="-2.41816">
        <ele>74.5</ele>
        <time>2025-02-11T08:53:08Z</time>
      </trkpt>
      <trkpt lat="47.80646" lon="-2.41816">
        <ele>74.5</ele>
        <time>2025-02-11T08:53:09Z</time>
      </trkpt>
      <trkpt lat="47.80646" lon="-2.41816">
        <ele>74.5</ele>
        <time>2025-02-11T08:53:10Z</time>
      </trkpt>
      <trkpt lat="47.80646" lon="-2.41815">
        <ele>74.5</ele>
        <time>2025-02-11T08:53:11Z</time>
      </trkpt>
      <trkpt lat="47.80646" lon="-2.41815">
        <ele>74.5</ele>
        <time>2025-02-11T08:53:12Z</time>
      </trkpt>
      <trkpt lat="47.80646" lon="-2.41815">
        <ele>74.5</ele>
        <time>2025-02-11T08:53:13Z</time>
      </trkpt>
      <trkpt lat="47.80646" lon="-2.41815">
        <ele>74.5</ele>
        <time>2025-02-11T08:53:14Z</time>
      </trkpt>
      <trkpt lat="47.80646" lon="-2.41815">
        <ele>74.5</ele>
        <time>2025-02-11T08:53:15Z</time>
      </trkpt>
      <trkpt lat="47.80646" lon="-2.41815">
        <ele>74.5</ele>
        <time>2025-02-11T08:53:16Z</time>
      </trkpt>
      <trkpt lat="47.80646" lon="-2.41815">
        <ele>74.5</ele>
        <time>2025-02-11T08:53:17Z</time>
      </trkpt>
      <trkpt lat="47.80646" lon="-2.41815">
        <ele>74.5</ele>
        <time>2025-02-11T08:53:18Z</time>
      </trkpt>
      <trkpt lat="47.80646" lon="-2.41815">
        <ele>74.5</ele>
        <time>2025-02-11T08:53:19Z</time>
      </trkpt>
      <trkpt lat="47.80646" lon="-2.41815">
        <ele>74.5</ele>
        <time>2025-02-11T08:53:20Z</time>
      </trkpt>
      <trkpt lat="47.80646" lon="-2.41815">
        <ele>74.5</ele>
        <time>2025-02-11T08:53:21Z</time>
      </trkpt>
      <trkpt lat="47.80646" lon="-2.41815">
        <ele>74.5</ele>
        <time>2025-02-11T08:53:22Z</time>
      </trkpt>
      <trkpt lat="47.80646" lon="-2.41815">
        <ele>74.5</ele>
        <time>2025-02-11T08:53:23Z</time>
      </trkpt>
      <trkpt lat="47.80646" lon="-2.41815">
        <ele>74.5</ele>
        <time>2025-02-11T08:53:24Z</time>
      </trkpt>
      <trkpt lat="47.80646" lon="-2.41815">
        <ele>74.5</ele>
        <time>2025-02-11T08:53:25Z</time>
      </trkpt>
      <trkpt lat="47.80646" lon="-2.41815">
        <ele>74.5</ele>
        <time>2025-02-11T08:53:26Z</time>
      </trkpt>
      <trkpt lat="47.80646" lon="-2.41815">
        <ele>74.5</ele>
        <time>2025-02-11T08:53:27Z</time>
      </trkpt>
      <trkpt lat="47.80646" lon="-2.41815">
        <ele>74.5</ele>
        <time>2025-02-11T08:53:28Z</time>
      </trkpt>
      <trkpt lat="47.80646" lon="-2.41815">
        <ele>74.5</ele>
        <time>2025-02-11T08:53:29Z</time>
      </trkpt>
      <trkpt lat="47.80646" lon="-2.41815">
        <ele>74.5</ele>
        <time>2025-02-11T08:53:30Z</time>
      </trkpt>
      <trkpt lat="47.80646" lon="-2.41815">
        <ele>74.5</ele>
        <time>2025-02-11T08:53:31Z</time>
      </trkpt>
      <trkpt lat="47.80646" lon="-2.41815">
        <ele>74.5</ele>
        <time>2025-02-11T08:53:32Z</time>
      </trkpt>
      <trkpt lat="47.80646" lon="-2.41815">
        <ele>74.5</ele>
        <time>2025-02-11T08:53:33Z</time>
      </trkpt>
      <trkpt lat="47.80646" lon="-2.41815">
        <ele>74.5</ele>
        <time>2025-02-11T08:53:34Z</time>
      </trkpt>
      <trkpt lat="47.80646" lon="-2.41815">
        <ele>74.5</ele>
        <time>2025-02-11T08:53:35Z</time>
      </trkpt>
      <trkpt lat="47.80646" lon="-2.41815">
        <ele>74.5</ele>
        <time>2025-02-11T08:53:36Z</time>
      </trkpt>
      <trkpt lat="47.80646" lon="-2.41815">
        <ele>74.5</ele>
        <time>2025-02-11T08:53:37Z</time>
      </trkpt>
      <trkpt lat="47.80646" lon="-2.41815">
        <ele>74.5</ele>
        <time>2025-02-11T08:53:38Z</time>
      </trkpt>
      <trkpt lat="47.80646" lon="-2.41815">
        <ele>74.5</ele>
        <time>2025-02-11T08:53:39Z</time>
      </trkpt>
      <trkpt lat="47.80646" lon="-2.41815">
        <ele>74.5</ele>
        <time>2025-02-11T08:53:40Z</time>
      </trkpt>
      <trkpt lat="47.80646" lon="-2.41815">
        <ele>74.5</ele>
        <time>2025-02-11T08:53:41Z</time>
      </trkpt>
      <trkpt lat="47.80646" lon="-2.41815">
        <ele>74.5</ele>
        <time>2025-02-11T08:53:42Z</time>
      </trkpt>
      <trkpt lat="47.80646" lon="-2.41815">
        <ele>74.5</ele>
        <time>2025-02-11T08:53:43Z</time>
      </trkpt>
      <trkpt lat="47.80646" lon="-2.41815">
        <ele>74.5</ele>
        <time>2025-02-11T08:53:44Z</time>
      </trkpt>
      <trkpt lat="47.80646" lon="-2.41815">
        <ele>74.5</ele>
        <time>2025-02-11T08:53:45Z</time>
      </trkpt>
      <trkpt lat="47.80646" lon="-2.41815">
        <ele>74.5</ele>
        <time>2025-02-11T08:53:46Z</time>
      </trkpt>
      <trkpt lat="47.80646" lon="-2.41815">
        <ele>74.5</ele>
        <time>2025-02-11T08:53:47Z</time>
      </trkpt>
      <trkpt lat="47.80646" lon="-2.41815">
        <ele>74.5</ele>
        <time>2025-02-11T08:53:48Z</time>
      </trkpt>
      <trkpt lat="47.80646" lon="-2.41815">
        <ele>74.5</ele>
        <time>2025-02-11T08:53:49Z</time>
      </trkpt>
      <trkpt lat="47.80646" lon="-2.41815">
        <ele>74.5</ele>
        <time>2025-02-11T08:53:50Z</time>
      </trkpt>
      <trkpt lat="47.80646" lon="-2.41815">
        <ele>74.5</ele>
        <time>2025-02-11T08:53:51Z</time>
      </trkpt>
      <trkpt lat="47.80646" lon="-2.41814">
        <ele>74.5</ele>
        <time>2025-02-11T08:53:52Z</time>
      </trkpt>
      <trkpt lat="47.80646" lon="-2.41814">
        <ele>74.5</ele>
        <time>2025-02-11T08:53:53Z</time>
      </trkpt>
      <trkpt lat="47.80646" lon="-2.41814">
        <ele>74.5</ele>
        <time>2025-02-11T08:53:54Z</time>
      </trkpt>
      <trkpt lat="47.80646" lon="-2.41814">
        <ele>74.5</ele>
        <time>2025-02-11T08:53:55Z</time>
      </trkpt>
      <trkpt lat="47.80646" lon="-2.41814">
        <ele>74.5</ele>
        <time>2025-02-11T08:53:56Z</time>
      </trkpt>
      <trkpt lat="47.80646" lon="-2.41814">
        <ele>74.5</ele>
        <time>2025-02-11T08:53:57Z</time>
      </trkpt>
      <trkpt lat="47.80646" lon="-2.41814">
        <ele>74.5</ele>
        <time>2025-02-11T08:53:58Z</time>
      </trkpt>
      <trkpt lat="47.80646" lon="-2.41814">
        <ele>74.5</ele>
        <time>2025-02-11T08:53:59Z</time>
      </trkpt>
      <trkpt lat="47.80646" lon="-2.41814">
        <ele>74.5</ele>
        <time>2025-02-11T08:54:00Z</time>
      </trkpt>
      <trkpt lat="47.80646" lon="-2.41814">
        <ele>74.5</ele>
        <time>2025-02-11T08:54:01Z</time>
      </trkpt>
      <trkpt lat="47.80646" lon="-2.41814">
        <ele>74.5</ele>
        <time>2025-02-11T08:54:02Z</time>
      </trkpt>
      <trkpt lat="47.80646" lon="-2.41814">
        <ele>74.5</ele>
        <time>2025-02-11T08:54:03Z</time>
      </trkpt>
      <trkpt lat="47.80646" lon="-2.41814">
        <ele>74.5</ele>
        <time>2025-02-11T08:54:04Z</time>
      </trkpt>
      <trkpt lat="47.80646" lon="-2.41814">
        <ele>74.5</ele>
        <time>2025-02-11T08:54:05Z</time>
      </trkpt>
      <trkpt lat="47.80646" lon="-2.41814">
        <ele>74.5</ele>
        <time>2025-02-11T08:54:06Z</time>
      </trkpt>
      <trkpt lat="47.80646" lon="-2.41814">
        <ele>74.5</ele>
        <time>2025-02-11T08:54:07Z</time>
      </trkpt>
      <trkpt lat="47.80646" lon="-2.41814">
        <ele>74.5</ele>
        <time>2025-02-11T08:54:08Z</time>
      </trkpt>
      <trkpt lat="47.80646" lon="-2.41814">
        <ele>74.5</ele>
        <time>2025-02-11T08:54:09Z</time>
      </trkpt>
      <trkpt lat="47.80646" lon="-2.41814">
        <ele>74.5</ele>
        <time>2025-02-11T08:54:10Z</time>
      </trkpt>
      <trkpt lat="47.80646" lon="-2.41814">
        <ele>74.5</ele>
        <time>2025-02-11T08:54:11Z</time>
      </trkpt>
      <trkpt lat="47.80646" lon="-2.41814">
        <ele>74.5</ele>
        <time>2025-02-11T08:54:12Z</time>
      </trkpt>
      <trkpt lat="47.80646" lon="-2.41814">
        <ele>74.5</ele>
        <time>2025-02-11T08:54:13Z</time>
      </trkpt>
      <trkpt lat="47.80646" lon="-2.41814">
        <ele>74.5</ele>
        <time>2025-02-11T08:54:14Z</time>
      </trkpt>
      <trkpt lat="47.80646" lon="-2.41814">
        <ele>74.5</ele>
        <time>2025-02-11T08:54:15Z</time>
      </trkpt>
      <trkpt lat="47.80646" lon="-2.41814">
        <ele>74.5</ele>
        <time>2025-02-11T08:54:16Z</time>
      </trkpt>
      <trkpt lat="47.80646" lon="-2.41814">
        <ele>74.5</ele>
        <time>2025-02-11T08:54:17Z</time>
      </trkpt>
      <trkpt lat="47.80647" lon="-2.41815">
        <ele>74.5</ele>
        <time>2025-02-11T08:54:18Z</time>
      </trkpt>
      <trkpt lat="47.80647" lon="-2.41815">
        <ele>74.5</ele>
        <time>2025-02-11T08:54:19Z</time>
      </trkpt>
      <trkpt lat="47.80647" lon="-2.41815">
        <ele>74.5</ele>
        <time>2025-02-11T08:54:20Z</time>
      </trkpt>
      <trkpt lat="47.80647" lon="-2.41815">
        <ele>74.5</ele>
        <time>2025-02-11T08:54:21Z</time>
      </trkpt>
      <trkpt lat="47.80647" lon="-2.41815">
        <ele>74.5</ele>
        <time>2025-02-11T08:54:22Z</time>
      </trkpt>
      <trkpt lat="47.80647" lon="-2.41815">
        <ele>74.5</ele>
        <time>2025-02-11T08:54:23Z</time>
      </trkpt>
      <trkpt lat="47.80647" lon="-2.41815">
        <ele>74.5</ele>
        <time>2025-02-11T08:54:24Z</time>
      </trkpt>
      <trkpt lat="47.80647" lon="-2.41815">
        <ele>74.5</ele>
        <time>2025-02-11T08:54:25Z</time>
      </trkpt>
      <trkpt lat="47.80647" lon="-2.41815">
        <ele>74.5</ele>
        <time>2025-02-11T08:54:26Z</time>
      </trkpt>
      <trkpt lat="47.80647" lon="-2.41815">
        <ele>74.5</ele>
        <time>2025-02-11T08:54:27Z</time>
      </trkpt>
      <trkpt lat="47.80647" lon="-2.41815">
        <ele>74.5</ele>
        <time>2025-02-11T08:54:28Z</time>
      </trkpt>
      <trkpt lat="47.80647" lon="-2.41815">
        <ele>74.5</ele>
        <time>2025-02-11T08:54:29Z</time>
      </trkpt>
      <trkpt lat="47.80647" lon="-2.41815">
        <ele>74.5</ele>
        <time>2025-02-11T08:54:30Z</time>
      </trkpt>
      <trkpt lat="47.80647" lon="-2.41815">
        <ele>74.5</ele>
        <time>2025-02-11T08:54:31Z</time>
      </trkpt>
      <trkpt lat="47.80647" lon="-2.41815">
        <ele>74.5</ele>
        <time>2025-02-11T08:54:32Z</time>
      </trkpt>
      <trkpt lat="47.80647" lon="-2.41815">
        <ele>74.5</ele>
        <time>2025-02-11T08:54:33Z</time>
      </trkpt>
      <trkpt lat="47.80647" lon="-2.41815">
        <ele>74.5</ele>
        <time>2025-02-11T08:54:34Z</time>
      </trkpt>
      <trkpt lat="47.80647" lon="-2.41815">
        <ele>74.5</ele>
        <time>2025-02-11T08:54:35Z</time>
      </trkpt>
      <trkpt lat="47.80647" lon="-2.41815">
        <ele>74.5</ele>
        <time>2025-02-11T08:54:36Z</time>
      </trkpt>
      <trkpt lat="47.80647" lon="-2.41815">
        <ele>74.5</ele>
        <time>2025-02-11T08:54:37Z</time>
      </trkpt>
      <trkpt lat="47.80647" lon="-2.41815">
        <ele>74.5</ele>
        <time>2025-02-11T08:54:38Z</time>
      </trkpt>
      <trkpt lat="47.80647" lon="-2.41815">
        <ele>74.5</ele>
        <time>2025-02-11T08:54:39Z</time>
      </trkpt>
      <trkpt lat="47.80647" lon="-2.41815">
        <ele>74.5</ele>
        <time>2025-02-11T08:54:40Z</time>
      </trkpt>
      <trkpt lat="47.80647" lon="-2.41815">
        <ele>74.5</ele>
        <time>2025-02-11T08:54:41Z</time>
      </trkpt>
      <trkpt lat="47.80647" lon="-2.41816">
        <ele>74.6</ele>
        <time>2025-02-11T08:54:42Z</time>
      </trkpt>
      <trkpt lat="47.80647" lon="-2.41816">
        <ele>74.6</ele>
        <time>2025-02-11T08:54:43Z</time>
      </trkpt>
      <trkpt lat="47.80647" lon="-2.41816">
        <ele>74.6</ele>
        <time>2025-02-11T08:54:44Z</time>
      </trkpt>
      <trkpt lat="47.80647" lon="-2.41816">
        <ele>74.6</ele>
        <time>2025-02-11T08:54:45Z</time>
      </trkpt>
      <trkpt lat="47.80647" lon="-2.41816">
        <ele>74.6</ele>
        <time>2025-02-11T08:54:46Z</time>
      </trkpt>
      <trkpt lat="47.80647" lon="-2.41816">
        <ele>74.6</ele>
        <time>2025-02-11T08:54:47Z</time>
      </trkpt>
      <trkpt lat="47.80647" lon="-2.41816">
        <ele>74.5</ele>
        <time>2025-02-11T08:54:48Z</time>
      </trkpt>
      <trkpt lat="47.80646" lon="-2.41816">
        <ele>74.5</ele>
        <time>2025-02-11T08:54:49Z</time>
      </trkpt>
      <trkpt lat="47.80647" lon="-2.41816">
        <ele>74.5</ele>
        <time>2025-02-11T08:54:50Z</time>
      </trkpt>
      <trkpt lat="47.80646" lon="-2.41816">
        <ele>74.5</ele>
        <time>2025-02-11T08:54:51Z</time>
      </trkpt>
      <trkpt lat="47.80647" lon="-2.41815">
        <ele>74.6</ele>
        <time>2025-02-11T08:54:52Z</time>
      </trkpt>
      <trkpt lat="47.80647" lon="-2.41815">
        <ele>74.6</ele>
        <time>2025-02-11T08:54:53Z</time>
      </trkpt>
      <trkpt lat="47.80646" lon="-2.41815">
        <ele>74.5</ele>
        <time>2025-02-11T08:54:54Z</time>
      </trkpt>
      <trkpt lat="47.80646" lon="-2.41815">
        <ele>74.5</ele>
        <time>2025-02-11T08:54:55Z</time>
      </trkpt>
      <trkpt lat="47.80646" lon="-2.41815">
        <ele>74.5</ele>
        <time>2025-02-11T08:54:56Z</time>
      </trkpt>
      <trkpt lat="47.80646" lon="-2.41815">
        <ele>74.5</ele>
        <time>2025-02-11T08:54:57Z</time>
      </trkpt>
      <trkpt lat="47.80646" lon="-2.41815">
        <ele>74.5</ele>
        <time>2025-02-11T08:54:58Z</time>
      </trkpt>
      <trkpt lat="47.80646" lon="-2.41815">
        <ele>74.5</ele>
        <time>2025-02-11T08:54:59Z</time>
      </trkpt>
      <trkpt lat="47.80646" lon="-2.41815">
        <ele>74.5</ele>
        <time>2025-02-11T08:55:00Z</time>
      </trkpt>
      <trkpt lat="47.80646" lon="-2.41815">
        <ele>74.5</ele>
        <time>2025-02-11T08:55:01Z</time>
      </trkpt>
      <trkpt lat="47.80646" lon="-2.41815">
        <ele>74.5</ele>
        <time>2025-02-11T08:55:02Z</time>
      </trkpt>
      <trkpt lat="47.80646" lon="-2.41816">
        <ele>74.5</ele>
        <time>2025-02-11T08:55:03Z</time>
      </trkpt>
      <trkpt lat="47.80646" lon="-2.41816">
        <ele>74.5</ele>
        <time>2025-02-11T08:55:04Z</time>
      </trkpt>
      <trkpt lat="47.80646" lon="-2.41816">
        <ele>74.5</ele>
        <time>2025-02-11T08:55:05Z</time>
      </trkpt>
      <trkpt lat="47.80646" lon="-2.41816">
        <ele>74.5</ele>
        <time>2025-02-11T08:55:06Z</time>
      </trkpt>
      <trkpt lat="47.80646" lon="-2.41816">
        <ele>74.5</ele>
        <time>2025-02-11T08:55:07Z</time>
      </trkpt>
      <trkpt lat="47.80646" lon="-2.41816">
        <ele>74.5</ele>
        <time>2025-02-11T08:55:08Z</time>
      </trkpt>
      <trkpt lat="47.80646" lon="-2.41816">
        <ele>74.5</ele>
        <time>2025-02-11T08:55:09Z</time>
      </trkpt>
      <trkpt lat="47.80646" lon="-2.41816">
        <ele>74.5</ele>
        <time>2025-02-11T08:55:10Z</time>
      </trkpt>
      <trkpt lat="47.80646" lon="-2.41816">
        <ele>74.5</ele>
        <time>2025-02-11T08:55:11Z</time>
      </trkpt>
      <trkpt lat="47.80646" lon="-2.41816">
        <ele>74.5</ele>
        <time>2025-02-11T08:55:12Z</time>
      </trkpt>
      <trkpt lat="47.80646" lon="-2.41816">
        <ele>74.5</ele>
        <time>2025-02-11T08:55:13Z</time>
      </trkpt>
      <trkpt lat="47.80646" lon="-2.41816">
        <ele>74.5</ele>
        <time>2025-02-11T08:55:14Z</time>
      </trkpt>
      <trkpt lat="47.80646" lon="-2.41816">
        <ele>74.5</ele>
        <time>2025-02-11T08:55:15Z</time>
      </trkpt>
      <trkpt lat="47.80646" lon="-2.41816">
        <ele>74.5</ele>
        <time>2025-02-11T08:55:16Z</time>
      </trkpt>
      <trkpt lat="47.80646" lon="-2.41816">
        <ele>74.5</ele>
        <time>2025-02-11T08:55:17Z</time>
      </trkpt>
      <trkpt lat="47.80646" lon="-2.41816">
        <ele>74.5</ele>
        <time>2025-02-11T08:55:18Z</time>
      </trkpt>
      <trkpt lat="47.80646" lon="-2.41816">
        <ele>74.5</ele>
        <time>2025-02-11T08:55:19Z</time>
      </trkpt>
      <trkpt lat="47.80646" lon="-2.41816">
        <ele>74.5</ele>
        <time>2025-02-11T08:55:20Z</time>
      </trkpt>
      <trkpt lat="47.80646" lon="-2.41816">
        <ele>74.5</ele>
        <time>2025-02-11T08:55:21Z</time>
      </trkpt>
      <trkpt lat="47.80646" lon="-2.41816">
        <ele>74.5</ele>
        <time>2025-02-11T08:55:22Z</time>
      </trkpt>
      <trkpt lat="47.80646" lon="-2.41816">
        <ele>74.5</ele>
        <time>2025-02-11T08:55:23Z</time>
      </trkpt>
      <trkpt lat="47.80646" lon="-2.41816">
        <ele>74.5</ele>
        <time>2025-02-11T08:55:24Z</time>
      </trkpt>
      <trkpt lat="47.80646" lon="-2.41815">
        <ele>74.5</ele>
        <time>2025-02-11T08:55:25Z</time>
      </trkpt>
      <trkpt lat="47.80646" lon="-2.41814">
        <ele>74.5</ele>
        <time>2025-02-11T08:55:26Z</time>
      </trkpt>
      <trkpt lat="47.80647" lon="-2.41814">
        <ele>74.6</ele>
        <time>2025-02-11T08:55:27Z</time>
      </trkpt>
      <trkpt lat="47.80647" lon="-2.41815">
        <ele>74.6</ele>
        <time>2025-02-11T08:55:28Z</time>
      </trkpt>
      <trkpt lat="47.80647" lon="-2.41814">
        <ele>74.6</ele>
        <time>2025-02-11T08:55:29Z</time>
      </trkpt>
      <trkpt lat="47.80646" lon="-2.41814">
        <ele>74.5</ele>
        <time>2025-02-11T08:55:30Z</time>
      </trkpt>
      <trkpt lat="47.80646" lon="-2.41813">
        <ele>74.5</ele>
        <time>2025-02-11T08:55:31Z</time>
      </trkpt>
      <trkpt lat="47.80646" lon="-2.41812">
        <ele>74.5</ele>
        <time>2025-02-11T08:55:32Z</time>
      </trkpt>
      <trkpt lat="47.80646" lon="-2.41812">
        <ele>74.5</ele>
        <time>2025-02-11T08:55:33Z</time>
      </trkpt>
      <trkpt lat="47.80646" lon="-2.41812">
        <ele>74.5</ele>
        <time>2025-02-11T08:55:34Z</time>
      </trkpt>
      <trkpt lat="47.80646" lon="-2.41811">
        <ele>74.5</ele>
        <time>2025-02-11T08:55:35Z</time>
      </trkpt>
      <trkpt lat="47.80646" lon="-2.4181">
        <ele>74.5</ele>
        <time>2025-02-11T08:55:36Z</time>
      </trkpt>
      <trkpt lat="47.80646" lon="-2.4181">
        <ele>74.5</ele>
        <time>2025-02-11T08:55:37Z</time>
      </trkpt>
      <trkpt lat="47.80646" lon="-2.4181">
        <ele>74.5</ele>
        <time>2025-02-11T08:55:38Z</time>
      </trkpt>
      <trkpt lat="47.80646" lon="-2.4181">
        <ele>74.5</ele>
        <time>2025-02-11T08:55:39Z</time>
      </trkpt>
      <trkpt lat="47.80646" lon="-2.4181">
        <ele>74.5</ele>
        <time>2025-02-11T08:55:40Z</time>
      </trkpt>
      <trkpt lat="47.80646" lon="-2.4181">
        <ele>74.5</ele>
        <time>2025-02-11T08:55:41Z</time>
      </trkpt>
      <trkpt lat="47.80646" lon="-2.4181">
        <ele>74.5</ele>
        <time>2025-02-11T08:55:42Z</time>
      </trkpt>
      <trkpt lat="47.80646" lon="-2.4181">
        <ele>74.5</ele>
        <time>2025-02-11T08:55:43Z</time>
      </trkpt>
      <trkpt lat="47.80646" lon="-2.41809">
        <ele>74.5</ele>
        <time>2025-02-11T08:55:44Z</time>
      </trkpt>
      <trkpt lat="47.80646" lon="-2.41807">
        <ele>74.5</ele>
        <time>2025-02-11T08:55:45Z</time>
      </trkpt>
      <trkpt lat="47.80646" lon="-2.41805">
        <ele>74.5</ele>
        <time>2025-02-11T08:55:46Z</time>
      </trkpt>
      <trkpt lat="47.80646" lon="-2.41803">
        <ele>74.5</ele>
        <time>2025-02-11T08:55:47Z</time>
      </trkpt>
      <trkpt lat="47.80646" lon="-2.41801">
        <ele>74.5</ele>
        <time>2025-02-11T08:55:48Z</time>
      </trkpt>
      <trkpt lat="47.80646" lon="-2.418">
        <ele>74.5</ele>
        <time>2025-02-11T08:55:49Z</time>
      </trkpt>
      <trkpt lat="47.80646" lon="-2.41798">
        <ele>74.5</ele>
        <time>2025-02-11T08:55:50Z</time>
      </trkpt>
      <trkpt lat="47.80646" lon="-2.41796">
        <ele>74.5</ele>
        <time>2025-02-11T08:55:51Z</time>
      </trkpt>
      <trkpt lat="47.80646" lon="-2.41795">
        <ele>74.5</ele>
        <time>2025-02-11T08:55:52Z</time>
      </trkpt>
      <trkpt lat="47.80646" lon="-2.41794">
        <ele>74.5</ele>
        <time>2025-02-11T08:55:53Z</time>
      </trkpt>
      <trkpt lat="47.80645" lon="-2.41792">
        <ele>74.4</ele>
        <time>2025-02-11T08:55:54Z</time>
      </trkpt>
      <trkpt lat="47.80644" lon="-2.41791">
        <ele>74.4</ele>
        <time>2025-02-11T08:55:55Z</time>
      </trkpt>
      <trkpt lat="47.80645" lon="-2.41789">
        <ele>74.4</ele>
        <time>2025-02-11T08:55:56Z</time>
      </trkpt>
      <trkpt lat="47.80645" lon="-2.41788">
        <ele>74.4</ele>
        <time>2025-02-11T08:55:57Z</time>
      </trkpt>
      <trkpt lat="47.80645" lon="-2.41786">
        <ele>74.4</ele>
        <time>2025-02-11T08:55:58Z</time>
      </trkpt>
      <trkpt lat="47.80645" lon="-2.41785">
        <ele>74.4</ele>
        <time>2025-02-11T08:55:59Z</time>
      </trkpt>
      <trkpt lat="47.80645" lon="-2.41783">
        <ele>74.4</ele>
        <time>2025-02-11T08:56:00Z</time>
      </trkpt>
      <trkpt lat="47.80645" lon="-2.41782">
        <ele>74.4</ele>
        <time>2025-02-11T08:56:01Z</time>
      </trkpt>
      <trkpt lat="47.80645" lon="-2.41781">
        <ele>74.5</ele>
        <time>2025-02-11T08:56:02Z</time>
      </trkpt>
      <trkpt lat="47.80645" lon="-2.41779">
        <ele>74.5</ele>
        <time>2025-02-11T08:56:03Z</time>
      </trkpt>
      <trkpt lat="47.80646" lon="-2.41778">
        <ele>74.5</ele>
        <time>2025-02-11T08:56:04Z</time>
      </trkpt>
      <trkpt lat="47.80646" lon="-2.41777">
        <ele>74.5</ele>
        <time>2025-02-11T08:56:05Z</time>
      </trkpt>
      <trkpt lat="47.80645" lon="-2.41776">
        <ele>74.5</ele>
        <time>2025-02-11T08:56:06Z</time>
      </trkpt>
      <trkpt lat="47.80645" lon="-2.41775">
        <ele>74.5</ele>
        <time>2025-02-11T08:56:07Z</time>
      </trkpt>
      <trkpt lat="47.80645" lon="-2.41774">
        <ele>74.6</ele>
        <time>2025-02-11T08:56:08Z</time>
      </trkpt>
      <trkpt lat="47.80645" lon="-2.41772">
        <ele>74.6</ele>
        <time>2025-02-11T08:56:09Z</time>
      </trkpt>
      <trkpt lat="47.80645" lon="-2.41771">
        <ele>74.6</ele>
        <time>2025-02-11T08:56:10Z</time>
      </trkpt>
      <trkpt lat="47.80644" lon="-2.41769">
        <ele>74.6</ele>
        <time>2025-02-11T08:56:11Z</time>
      </trkpt>
      <trkpt lat="47.80644" lon="-2.41767">
        <ele>74.7</ele>
        <time>2025-02-11T08:56:12Z</time>
      </trkpt>
      <trkpt lat="47.80644" lon="-2.41766">
        <ele>74.7</ele>
        <time>2025-02-11T08:56:13Z</time>
      </trkpt>
      <trkpt lat="47.80644" lon="-2.41764">
        <ele>74.8</ele>
        <time>2025-02-11T08:56:14Z</time>
      </trkpt>
      <trkpt lat="47.80644" lon="-2.41763">
        <ele>74.8</ele>
        <time>2025-02-11T08:56:15Z</time>
      </trkpt>
      <trkpt lat="47.80644" lon="-2.41761">
        <ele>74.9</ele>
        <time>2025-02-11T08:56:16Z</time>
      </trkpt>
      <trkpt lat="47.80644" lon="-2.4176">
        <ele>74.9</ele>
        <time>2025-02-11T08:56:17Z</time>
      </trkpt>
      <trkpt lat="47.80644" lon="-2.41758">
        <ele>74.9</ele>
        <time>2025-02-11T08:56:18Z</time>
      </trkpt>
      <trkpt lat="47.80644" lon="-2.41756">
        <ele>75</ele>
        <time>2025-02-11T08:56:19Z</time>
      </trkpt>
      <trkpt lat="47.80644" lon="-2.41755">
        <ele>75</ele>
        <time>2025-02-11T08:56:20Z</time>
      </trkpt>
      <trkpt lat="47.80644" lon="-2.41753">
        <ele>75.1</ele>
        <time>2025-02-11T08:56:21Z</time>
      </trkpt>
      <trkpt lat="47.80644" lon="-2.41751">
        <ele>75.1</ele>
        <time>2025-02-11T08:56:22Z</time>
      </trkpt>
      <trkpt lat="47.80644" lon="-2.4175">
        <ele>75.2</ele>
        <time>2025-02-11T08:56:23Z</time>
      </trkpt>
      <trkpt lat="47.80644" lon="-2.41748">
        <ele>75.2</ele>
        <time>2025-02-11T08:56:24Z</time>
      </trkpt>
      <trkpt lat="47.80645" lon="-2.41746">
        <ele>75.2</ele>
        <time>2025-02-11T08:56:25Z</time>
      </trkpt>
      <trkpt lat="47.80646" lon="-2.41745">
        <ele>75.2</ele>
        <time>2025-02-11T08:56:26Z</time>
      </trkpt>
      <trkpt lat="47.80647" lon="-2.41743">
        <ele>75.3</ele>
        <time>2025-02-11T08:56:27Z</time>
      </trkpt>
      <trkpt lat="47.80647" lon="-2.41742">
        <ele>75.3</ele>
        <time>2025-02-11T08:56:28Z</time>
      </trkpt>
      <trkpt lat="47.80648" lon="-2.41741">
        <ele>75.3</ele>
        <time>2025-02-11T08:56:29Z</time>
      </trkpt>
      <trkpt lat="47.80648" lon="-2.41739">
        <ele>75.3</ele>
        <time>2025-02-11T08:56:30Z</time>
      </trkpt>
      <trkpt lat="47.80648" lon="-2.41738">
        <ele>75.3</ele>
        <time>2025-02-11T08:56:31Z</time>
      </trkpt>
      <trkpt lat="47.80647" lon="-2.41737">
        <ele>75.3</ele>
        <time>2025-02-11T08:56:32Z</time>
      </trkpt>
      <trkpt lat="47.80646" lon="-2.41737">
        <ele>75.2</ele>
        <time>2025-02-11T08:56:33Z</time>
      </trkpt>
      <trkpt lat="47.80644" lon="-2.41737">
        <ele>75.2</ele>
        <time>2025-02-11T08:56:34Z</time>
      </trkpt>
      <trkpt lat="47.80643" lon="-2.41738">
        <ele>75.1</ele>
        <time>2025-02-11T08:56:35Z</time>
      </trkpt>
      <trkpt lat="47.80642" lon="-2.41739">
        <ele>75.1</ele>
        <time>2025-02-11T08:56:36Z</time>
      </trkpt>
      <trkpt lat="47.80641" lon="-2.4174">
        <ele>75.1</ele>
        <time>2025-02-11T08:56:37Z</time>
      </trkpt>
      <trkpt lat="47.8064" lon="-2.4174">
        <ele>75</ele>
        <time>2025-02-11T08:56:38Z</time>
      </trkpt>
      <trkpt lat="47.80639" lon="-2.4174">
        <ele>75</ele>
        <time>2025-02-11T08:56:39Z</time>
      </trkpt>
      <trkpt lat="47.80638" lon="-2.4174">
        <ele>75</ele>
        <time>2025-02-11T08:56:40Z</time>
      </trkpt>
      <trkpt lat="47.80636" lon="-2.4174">
        <ele>74.9</ele>
        <time>2025-02-11T08:56:41Z</time>
      </trkpt>
      <trkpt lat="47.80635" lon="-2.4174">
        <ele>74.9</ele>
        <time>2025-02-11T08:56:42Z</time>
      </trkpt>
      <trkpt lat="47.80634" lon="-2.4174">
        <ele>74.8</ele>
        <time>2025-02-11T08:56:43Z</time>
      </trkpt>
      <trkpt lat="47.80633" lon="-2.4174">
        <ele>74.8</ele>
        <time>2025-02-11T08:56:44Z</time>
      </trkpt>
      <trkpt lat="47.80632" lon="-2.4174">
        <ele>74.7</ele>
        <time>2025-02-11T08:56:45Z</time>
      </trkpt>
      <trkpt lat="47.80631" lon="-2.4174">
        <ele>74.7</ele>
        <time>2025-02-11T08:56:46Z</time>
      </trkpt>
      <trkpt lat="47.8063" lon="-2.4174">
        <ele>74.7</ele>
        <time>2025-02-11T08:56:47Z</time>
      </trkpt>
      <trkpt lat="47.80628" lon="-2.4174">
        <ele>74.6</ele>
        <time>2025-02-11T08:56:48Z</time>
      </trkpt>
      <trkpt lat="47.80627" lon="-2.41739">
        <ele>74.6</ele>
        <time>2025-02-11T08:56:49Z</time>
      </trkpt>
      <trkpt lat="47.80627" lon="-2.41739">
        <ele>74.6</ele>
        <time>2025-02-11T08:56:50Z</time>
      </trkpt>
      <trkpt lat="47.80626" lon="-2.41739">
        <ele>74.5</ele>
        <time>2025-02-11T08:56:51Z</time>
      </trkpt>
      <trkpt lat="47.80625" lon="-2.41739">
        <ele>74.5</ele>
        <time>2025-02-11T08:56:52Z</time>
      </trkpt>
      <trkpt lat="47.80624" lon="-2.41739">
        <ele>74.5</ele>
        <time>2025-02-11T08:56:53Z</time>
      </trkpt>
      <trkpt lat="47.80623" lon="-2.41738">
        <ele>74.4</ele>
        <time>2025-02-11T08:56:54Z</time>
      </trkpt>
      <trkpt lat="47.80622" lon="-2.41738">
        <ele>74.4</ele>
        <time>2025-02-11T08:56:55Z</time>
      </trkpt>
      <trkpt lat="47.80621" lon="-2.41738">
        <ele>74.4</ele>
        <time>2025-02-11T08:56:56Z</time>
      </trkpt>
      <trkpt lat="47.8062" lon="-2.41737">
        <ele>74.3</ele>
        <time>2025-02-11T08:56:57Z</time>
      </trkpt>
      <trkpt lat="47.80619" lon="-2.41737">
        <ele>74.3</ele>
        <time>2025-02-11T08:56:58Z</time>
      </trkpt>
      <trkpt lat="47.80618" lon="-2.41737">
        <ele>74.2</ele>
        <time>2025-02-11T08:56:59Z</time>
      </trkpt>
      <trkpt lat="47.80617" lon="-2.41736">
        <ele>74.2</ele>
        <time>2025-02-11T08:57:00Z</time>
      </trkpt>
      <trkpt lat="47.80616" lon="-2.41736">
        <ele>74.2</ele>
        <time>2025-02-11T08:57:01Z</time>
      </trkpt>
      <trkpt lat="47.80615" lon="-2.41735">
        <ele>74.1</ele>
        <time>2025-02-11T08:57:02Z</time>
      </trkpt>
      <trkpt lat="47.80614" lon="-2.41734">
        <ele>74.1</ele>
        <time>2025-02-11T08:57:03Z</time>
      </trkpt>
      <trkpt lat="47.80614" lon="-2.41733">
        <ele>74.1</ele>
        <time>2025-02-11T08:57:04Z</time>
      </trkpt>
      <trkpt lat="47.80613" lon="-2.41731">
        <ele>74.1</ele>
        <time>2025-02-11T08:57:05Z</time>
      </trkpt>
      <trkpt lat="47.80613" lon="-2.4173">
        <ele>74.1</ele>
        <time>2025-02-11T08:57:06Z</time>
      </trkpt>
      <trkpt lat="47.80613" lon="-2.41729">
        <ele>74.1</ele>
        <time>2025-02-11T08:57:07Z</time>
      </trkpt>
      <trkpt lat="47.80613" lon="-2.41728">
        <ele>74.1</ele>
        <time>2025-02-11T08:57:08Z</time>
      </trkpt>
      <trkpt lat="47.80613" lon="-2.41726">
        <ele>74.1</ele>
        <time>2025-02-11T08:57:09Z</time>
      </trkpt>
      <trkpt lat="47.80613" lon="-2.41725">
        <ele>74.1</ele>
        <time>2025-02-11T08:57:10Z</time>
      </trkpt>
      <trkpt lat="47.80613" lon="-2.41723">
        <ele>74.1</ele>
        <time>2025-02-11T08:57:11Z</time>
      </trkpt>
      <trkpt lat="47.80612" lon="-2.41722">
        <ele>74</ele>
        <time>2025-02-11T08:57:12Z</time>
      </trkpt>
      <trkpt lat="47.8061" lon="-2.41723">
        <ele>73.9</ele>
        <time>2025-02-11T08:57:13Z</time>
      </trkpt>
      <trkpt lat="47.80609" lon="-2.41725">
        <ele>73.9</ele>
        <time>2025-02-11T08:57:14Z</time>
      </trkpt>
      <trkpt lat="47.80608" lon="-2.41726">
        <ele>73.8</ele>
        <time>2025-02-11T08:57:15Z</time>
      </trkpt>
      <trkpt lat="47.80607" lon="-2.41727">
        <ele>73.7</ele>
        <time>2025-02-11T08:57:16Z</time>
      </trkpt>
      <trkpt lat="47.80607" lon="-2.41729">
        <ele>73.7</ele>
        <time>2025-02-11T08:57:17Z</time>
      </trkpt>
      <trkpt lat="47.80606" lon="-2.4173">
        <ele>73.6</ele>
        <time>2025-02-11T08:57:18Z</time>
      </trkpt>
      <trkpt lat="47.80605" lon="-2.41731">
        <ele>73.6</ele>
        <time>2025-02-11T08:57:19Z</time>
      </trkpt>
      <trkpt lat="47.80604" lon="-2.41732">
        <ele>73.5</ele>
        <time>2025-02-11T08:57:20Z</time>
      </trkpt>
      <trkpt lat="47.80603" lon="-2.41733">
        <ele>73.4</ele>
        <time>2025-02-11T08:57:21Z</time>
      </trkpt>
      <trkpt lat="47.80602" lon="-2.41734">
        <ele>73.3</ele>
        <time>2025-02-11T08:57:22Z</time>
      </trkpt>
      <trkpt lat="47.80601" lon="-2.41735">
        <ele>73.3</ele>
        <time>2025-02-11T08:57:23Z</time>
      </trkpt>
      <trkpt lat="47.806" lon="-2.41735">
        <ele>73.2</ele>
        <time>2025-02-11T08:57:24Z</time>
      </trkpt>
      <trkpt lat="47.806" lon="-2.41735">
        <ele>73.2</ele>
        <time>2025-02-11T08:57:25Z</time>
      </trkpt>
      <trkpt lat="47.806" lon="-2.41735">
        <ele>73.2</ele>
        <time>2025-02-11T08:57:26Z</time>
      </trkpt>
      <trkpt lat="47.80599" lon="-2.41732">
        <ele>73.1</ele>
        <time>2025-02-11T08:57:27Z</time>
      </trkpt>
      <trkpt lat="47.80599" lon="-2.41732">
        <ele>73.1</ele>
        <time>2025-02-11T08:57:28Z</time>
      </trkpt>
      <trkpt lat="47.80598" lon="-2.4173">
        <ele>73</ele>
        <time>2025-02-11T08:57:29Z</time>
      </trkpt>
      <trkpt lat="47.80597" lon="-2.4173">
        <ele>73</ele>
        <time>2025-02-11T08:57:30Z</time>
      </trkpt>
      <trkpt lat="47.80597" lon="-2.4173">
        <ele>72.9</ele>
        <time>2025-02-11T08:57:31Z</time>
      </trkpt>
      <trkpt lat="47.80596" lon="-2.4173">
        <ele>72.9</ele>
        <time>2025-02-11T08:57:32Z</time>
      </trkpt>
      <trkpt lat="47.80595" lon="-2.4173">
        <ele>72.9</ele>
        <time>2025-02-11T08:57:33Z</time>
      </trkpt>
      <trkpt lat="47.80594" lon="-2.4173">
        <ele>72.8</ele>
        <time>2025-02-11T08:57:34Z</time>
      </trkpt>
      <trkpt lat="47.80594" lon="-2.4173">
        <ele>72.7</ele>
        <time>2025-02-11T08:57:35Z</time>
      </trkpt>
      <trkpt lat="47.80593" lon="-2.4173">
        <ele>72.7</ele>
        <time>2025-02-11T08:57:36Z</time>
      </trkpt>
      <trkpt lat="47.80592" lon="-2.41729">
        <ele>72.6</ele>
        <time>2025-02-11T08:57:37Z</time>
      </trkpt>
      <trkpt lat="47.80591" lon="-2.41729">
        <ele>72.5</ele>
        <time>2025-02-11T08:57:38Z</time>
      </trkpt>
      <trkpt lat="47.8059" lon="-2.41729">
        <ele>72.4</ele>
        <time>2025-02-11T08:57:39Z</time>
      </trkpt>
      <trkpt lat="47.80588" lon="-2.41729">
        <ele>72.4</ele>
        <time>2025-02-11T08:57:40Z</time>
      </trkpt>
      <trkpt lat="47.80587" lon="-2.4173">
        <ele>72.3</ele>
        <time>2025-02-11T08:57:41Z</time>
      </trkpt>
      <trkpt lat="47.80586" lon="-2.4173">
        <ele>72.2</ele>
        <time>2025-02-11T08:57:42Z</time>
      </trkpt>
      <trkpt lat="47.80585" lon="-2.4173">
        <ele>72.1</ele>
        <time>2025-02-11T08:57:43Z</time>
      </trkpt>
      <trkpt lat="47.80584" lon="-2.41731">
        <ele>72</ele>
        <time>2025-02-11T08:57:44Z</time>
      </trkpt>
      <trkpt lat="47.80583" lon="-2.41731">
        <ele>71.9</ele>
        <time>2025-02-11T08:57:45Z</time>
      </trkpt>
      <trkpt lat="47.80582" lon="-2.41731">
        <ele>71.8</ele>
        <time>2025-02-11T08:57:46Z</time>
      </trkpt>
      <trkpt lat="47.80581" lon="-2.41731">
        <ele>71.7</ele>
        <time>2025-02-11T08:57:47Z</time>
      </trkpt>
      <trkpt lat="47.8058" lon="-2.41731">
        <ele>71.6</ele>
        <time>2025-02-11T08:57:48Z</time>
      </trkpt>
      <trkpt lat="47.80578" lon="-2.41732">
        <ele>71.5</ele>
        <time>2025-02-11T08:57:49Z</time>
      </trkpt>
      <trkpt lat="47.80577" lon="-2.41733">
        <ele>71.4</ele>
        <time>2025-02-11T08:57:50Z</time>
      </trkpt>
      <trkpt lat="47.80576" lon="-2.41733">
        <ele>71.3</ele>
        <time>2025-02-11T08:57:51Z</time>
      </trkpt>
      <trkpt lat="47.80575" lon="-2.41734">
        <ele>71.2</ele>
        <time>2025-02-11T08:57:52Z</time>
      </trkpt>
      <trkpt lat="47.80574" lon="-2.41734">
        <ele>71.1</ele>
        <time>2025-02-11T08:57:53Z</time>
      </trkpt>
      <trkpt lat="47.80573" lon="-2.41734">
        <ele>71</ele>
        <time>2025-02-11T08:57:54Z</time>
      </trkpt>
      <trkpt lat="47.80571" lon="-2.41735">
        <ele>70.9</ele>
        <time>2025-02-11T08:57:55Z</time>
      </trkpt>
      <trkpt lat="47.8057" lon="-2.41736">
        <ele>70.8</ele>
        <time>2025-02-11T08:57:56Z</time>
      </trkpt>
      <trkpt lat="47.80568" lon="-2.41737">
        <ele>70.7</ele>
        <time>2025-02-11T08:57:57Z</time>
      </trkpt>
      <trkpt lat="47.80567" lon="-2.41737">
        <ele>70.5</ele>
        <time>2025-02-11T08:57:58Z</time>
      </trkpt>
      <trkpt lat="47.80566" lon="-2.41737">
        <ele>70.4</ele>
        <time>2025-02-11T08:57:59Z</time>
      </trkpt>
      <trkpt lat="47.80564" lon="-2.41737">
        <ele>70.3</ele>
        <time>2025-02-11T08:58:00Z</time>
      </trkpt>
      <trkpt lat="47.80563" lon="-2.41737">
        <ele>70.2</ele>
        <time>2025-02-11T08:58:01Z</time>
      </trkpt>
      <trkpt lat="47.80561" lon="-2.41738">
        <ele>70.1</ele>
        <time>2025-02-11T08:58:02Z</time>
      </trkpt>
      <trkpt lat="47.8056" lon="-2.41738">
        <ele>70</ele>
        <time>2025-02-11T08:58:03Z</time>
      </trkpt>
      <trkpt lat="47.80559" lon="-2.41738">
        <ele>69.8</ele>
        <time>2025-02-11T08:58:04Z</time>
      </trkpt>
      <trkpt lat="47.80558" lon="-2.41738">
        <ele>69.8</ele>
        <time>2025-02-11T08:58:05Z</time>
      </trkpt>
      <trkpt lat="47.80557" lon="-2.41738">
        <ele>69.7</ele>
        <time>2025-02-11T08:58:06Z</time>
      </trkpt>
      <trkpt lat="47.80556" lon="-2.41738">
        <ele>69.6</ele>
        <time>2025-02-11T08:58:07Z</time>
      </trkpt>
      <trkpt lat="47.80555" lon="-2.41738">
        <ele>69.5</ele>
        <time>2025-02-11T08:58:08Z</time>
      </trkpt>
      <trkpt lat="47.80554" lon="-2.41737">
        <ele>69.4</ele>
        <time>2025-02-11T08:58:09Z</time>
      </trkpt>
      <trkpt lat="47.80552" lon="-2.41737">
        <ele>69.2</ele>
        <time>2025-02-11T08:58:10Z</time>
      </trkpt>
      <trkpt lat="47.80551" lon="-2.41738">
        <ele>69.1</ele>
        <time>2025-02-11T08:58:11Z</time>
      </trkpt>
      <trkpt lat="47.8055" lon="-2.41738">
        <ele>69</ele>
        <time>2025-02-11T08:58:12Z</time>
      </trkpt>
      <trkpt lat="47.80549" lon="-2.41738">
        <ele>68.9</ele>
        <time>2025-02-11T08:58:13Z</time>
      </trkpt>
      <trkpt lat="47.80548" lon="-2.41738">
        <ele>68.8</ele>
        <time>2025-02-11T08:58:14Z</time>
      </trkpt>
      <trkpt lat="47.80546" lon="-2.41739">
        <ele>68.7</ele>
        <time>2025-02-11T08:58:15Z</time>
      </trkpt>
      <trkpt lat="47.80545" lon="-2.41739">
        <ele>68.6</ele>
        <time>2025-02-11T08:58:16Z</time>
      </trkpt>
      <trkpt lat="47.80544" lon="-2.41739">
        <ele>68.5</ele>
        <time>2025-02-11T08:58:17Z</time>
      </trkpt>
      <trkpt lat="47.80543" lon="-2.4174">
        <ele>68.4</ele>
        <time>2025-02-11T08:58:18Z</time>
      </trkpt>
      <trkpt lat="47.80541" lon="-2.4174">
        <ele>68.3</ele>
        <time>2025-02-11T08:58:19Z</time>
      </trkpt>
      <trkpt lat="47.8054" lon="-2.4174">
        <ele>68.1</ele>
        <time>2025-02-11T08:58:20Z</time>
      </trkpt>
      <trkpt lat="47.80539" lon="-2.41739">
        <ele>68</ele>
        <time>2025-02-11T08:58:21Z</time>
      </trkpt>
      <trkpt lat="47.80538" lon="-2.41738">
        <ele>67.9</ele>
        <time>2025-02-11T08:58:22Z</time>
      </trkpt>
      <trkpt lat="47.80537" lon="-2.41738">
        <ele>67.8</ele>
        <time>2025-02-11T08:58:23Z</time>
      </trkpt>
      <trkpt lat="47.80536" lon="-2.41737">
        <ele>67.8</ele>
        <time>2025-02-11T08:58:24Z</time>
      </trkpt>
      <trkpt lat="47.80536" lon="-2.41735">
        <ele>67.7</ele>
        <time>2025-02-11T08:58:25Z</time>
      </trkpt>
      <trkpt lat="47.80536" lon="-2.41733">
        <ele>67.7</ele>
        <time>2025-02-11T08:58:26Z</time>
      </trkpt>
      <trkpt lat="47.80536" lon="-2.41731">
        <ele>67.7</ele>
        <time>2025-02-11T08:58:27Z</time>
      </trkpt>
      <trkpt lat="47.80536" lon="-2.4173">
        <ele>67.6</ele>
        <time>2025-02-11T08:58:28Z</time>
      </trkpt>
      <trkpt lat="47.80536" lon="-2.41728">
        <ele>67.6</ele>
        <time>2025-02-11T08:58:29Z</time>
      </trkpt>
      <trkpt lat="47.80535" lon="-2.41726">
        <ele>67.6</ele>
        <time>2025-02-11T08:58:30Z</time>
      </trkpt>
      <trkpt lat="47.80535" lon="-2.41725">
        <ele>67.5</ele>
        <time>2025-02-11T08:58:31Z</time>
      </trkpt>
      <trkpt lat="47.80535" lon="-2.41723">
        <ele>67.5</ele>
        <time>2025-02-11T08:58:32Z</time>
      </trkpt>
      <trkpt lat="47.80535" lon="-2.41721">
        <ele>67.5</ele>
        <time>2025-02-11T08:58:33Z</time>
      </trkpt>
      <trkpt lat="47.80534" lon="-2.41719">
        <ele>67.5</ele>
        <time>2025-02-11T08:58:34Z</time>
      </trkpt>
      <trkpt lat="47.80534" lon="-2.41718">
        <ele>67.6</ele>
        <time>2025-02-11T08:58:35Z</time>
      </trkpt>
      <trkpt lat="47.80534" lon="-2.41716">
        <ele>67.6</ele>
        <time>2025-02-11T08:58:36Z</time>
      </trkpt>
      <trkpt lat="47.80534" lon="-2.41714">
        <ele>67.7</ele>
        <time>2025-02-11T08:58:37Z</time>
      </trkpt>
      <trkpt lat="47.80533" lon="-2.41712">
        <ele>67.7</ele>
        <time>2025-02-11T08:58:38Z</time>
      </trkpt>
      <trkpt lat="47.80533" lon="-2.4171">
        <ele>67.7</ele>
        <time>2025-02-11T08:58:39Z</time>
      </trkpt>
      <trkpt lat="47.80533" lon="-2.41709">
        <ele>67.8</ele>
        <time>2025-02-11T08:58:40Z</time>
      </trkpt>
      <trkpt lat="47.80532" lon="-2.41707">
        <ele>67.8</ele>
        <time>2025-02-11T08:58:41Z</time>
      </trkpt>
      <trkpt lat="47.80532" lon="-2.41705">
        <ele>67.9</ele>
        <time>2025-02-11T08:58:42Z</time>
      </trkpt>
      <trkpt lat="47.80532" lon="-2.41703">
        <ele>67.9</ele>
        <time>2025-02-11T08:58:43Z</time>
      </trkpt>
      <trkpt lat="47.80532" lon="-2.41701">
        <ele>68</ele>
        <time>2025-02-11T08:58:44Z</time>
      </trkpt>
      <trkpt lat="47.80532" lon="-2.41699">
        <ele>68</ele>
        <time>2025-02-11T08:58:45Z</time>
      </trkpt>
      <trkpt lat="47.80532" lon="-2.41698">
        <ele>68.1</ele>
        <time>2025-02-11T08:58:46Z</time>
      </trkpt>
      <trkpt lat="47.80532" lon="-2.41696">
        <ele>68.1</ele>
        <time>2025-02-11T08:58:47Z</time>
      </trkpt>
      <trkpt lat="47.80532" lon="-2.41694">
        <ele>68.1</ele>
        <time>2025-02-11T08:58:48Z</time>
      </trkpt>
      <trkpt lat="47.80531" lon="-2.41693">
        <ele>68.1</ele>
        <time>2025-02-11T08:58:49Z</time>
      </trkpt>
      <trkpt lat="47.8053" lon="-2.41691">
        <ele>68.1</ele>
        <time>2025-02-11T08:58:50Z</time>
      </trkpt>
      <trkpt lat="47.8053" lon="-2.4169">
        <ele>68.1</ele>
        <time>2025-02-11T08:58:51Z</time>
      </trkpt>
      <trkpt lat="47.8053" lon="-2.41688">
        <ele>68.1</ele>
        <time>2025-02-11T08:58:52Z</time>
      </trkpt>
      <trkpt lat="47.80529" lon="-2.41686">
        <ele>68.1</ele>
        <time>2025-02-11T08:58:53Z</time>
      </trkpt>
      <trkpt lat="47.80529" lon="-2.41685">
        <ele>68.1</ele>
        <time>2025-02-11T08:58:54Z</time>
      </trkpt>
      <trkpt lat="47.80529" lon="-2.41683">
        <ele>68.1</ele>
        <time>2025-02-11T08:58:55Z</time>
      </trkpt>
      <trkpt lat="47.80529" lon="-2.41681">
        <ele>68</ele>
        <time>2025-02-11T08:58:56Z</time>
      </trkpt>
      <trkpt lat="47.80529" lon="-2.4168">
        <ele>68</ele>
        <time>2025-02-11T08:58:57Z</time>
      </trkpt>
      <trkpt lat="47.80528" lon="-2.41678">
        <ele>68</ele>
        <time>2025-02-11T08:58:58Z</time>
      </trkpt>
      <trkpt lat="47.80528" lon="-2.41676">
        <ele>68</ele>
        <time>2025-02-11T08:58:59Z</time>
      </trkpt>
      <trkpt lat="47.80528" lon="-2.41675">
        <ele>68</ele>
        <time>2025-02-11T08:59:00Z</time>
      </trkpt>
      <trkpt lat="47.80528" lon="-2.41673">
        <ele>68</ele>
        <time>2025-02-11T08:59:01Z</time>
      </trkpt>
      <trkpt lat="47.80528" lon="-2.41671">
        <ele>68</ele>
        <time>2025-02-11T08:59:02Z</time>
      </trkpt>
      <trkpt lat="47.80528" lon="-2.41669">
        <ele>68</ele>
        <time>2025-02-11T08:59:03Z</time>
      </trkpt>
      <trkpt lat="47.80527" lon="-2.41667">
        <ele>68</ele>
        <time>2025-02-11T08:59:04Z</time>
      </trkpt>
      <trkpt lat="47.80527" lon="-2.41665">
        <ele>68</ele>
        <time>2025-02-11T08:59:05Z</time>
      </trkpt>
      <trkpt lat="47.80527" lon="-2.41664">
        <ele>68.1</ele>
        <time>2025-02-11T08:59:06Z</time>
      </trkpt>
      <trkpt lat="47.80526" lon="-2.41662">
        <ele>68.1</ele>
        <time>2025-02-11T08:59:07Z</time>
      </trkpt>
      <trkpt lat="47.80526" lon="-2.4166">
        <ele>68.2</ele>
        <time>2025-02-11T08:59:08Z</time>
      </trkpt>
      <trkpt lat="47.80526" lon="-2.41658">
        <ele>68.2</ele>
        <time>2025-02-11T08:59:09Z</time>
      </trkpt>
      <trkpt lat="47.80525" lon="-2.41657">
        <ele>68.2</ele>
        <time>2025-02-11T08:59:10Z</time>
      </trkpt>
      <trkpt lat="47.80525" lon="-2.41655">
        <ele>68.3</ele>
        <time>2025-02-11T08:59:11Z</time>
      </trkpt>
      <trkpt lat="47.80525" lon="-2.41653">
        <ele>68.3</ele>
        <time>2025-02-11T08:59:12Z</time>
      </trkpt>
      <trkpt lat="47.80525" lon="-2.41652">
        <ele>68.4</ele>
        <time>2025-02-11T08:59:13Z</time>
      </trkpt>
      <trkpt lat="47.80525" lon="-2.4165">
        <ele>68.4</ele>
        <time>2025-02-11T08:59:14Z</time>
      </trkpt>
      <trkpt lat="47.80524" lon="-2.41648">
        <ele>68.5</ele>
        <time>2025-02-11T08:59:15Z</time>
      </trkpt>
      <trkpt lat="47.80524" lon="-2.41646">
        <ele>68.5</ele>
        <time>2025-02-11T08:59:16Z</time>
      </trkpt>
      <trkpt lat="47.80524" lon="-2.41644">
        <ele>68.5</ele>
        <time>2025-02-11T08:59:17Z</time>
      </trkpt>
      <trkpt lat="47.80523" lon="-2.41643">
        <ele>68.5</ele>
        <time>2025-02-11T08:59:18Z</time>
      </trkpt>
      <trkpt lat="47.80523" lon="-2.41641">
        <ele>68.6</ele>
        <time>2025-02-11T08:59:19Z</time>
      </trkpt>
      <trkpt lat="47.80523" lon="-2.41639">
        <ele>68.6</ele>
        <time>2025-02-11T08:59:20Z</time>
      </trkpt>
      <trkpt lat="47.80523" lon="-2.41637">
        <ele>68.7</ele>
        <time>2025-02-11T08:59:21Z</time>
      </trkpt>
      <trkpt lat="47.80522" lon="-2.41636">
        <ele>68.7</ele>
        <time>2025-02-11T08:59:22Z</time>
      </trkpt>
      <trkpt lat="47.80522" lon="-2.41634">
        <ele>68.8</ele>
        <time>2025-02-11T08:59:23Z</time>
      </trkpt>
      <trkpt lat="47.80521" lon="-2.41633">
        <ele>68.8</ele>
        <time>2025-02-11T08:59:24Z</time>
      </trkpt>
      <trkpt lat="47.80521" lon="-2.41631">
        <ele>68.8</ele>
        <time>2025-02-11T08:59:25Z</time>
      </trkpt>
      <trkpt lat="47.8052" lon="-2.4163">
        <ele>68.9</ele>
        <time>2025-02-11T08:59:26Z</time>
      </trkpt>
      <trkpt lat="47.8052" lon="-2.41629">
        <ele>68.9</ele>
        <time>2025-02-11T08:59:27Z</time>
      </trkpt>
      <trkpt lat="47.80519" lon="-2.41628">
        <ele>68.9</ele>
        <time>2025-02-11T08:59:28Z</time>
      </trkpt>
      <trkpt lat="47.80518" lon="-2.41627">
        <ele>68.9</ele>
        <time>2025-02-11T08:59:29Z</time>
      </trkpt>
      <trkpt lat="47.80517" lon="-2.41626">
        <ele>68.9</ele>
        <time>2025-02-11T08:59:30Z</time>
      </trkpt>
      <trkpt lat="47.80516" lon="-2.41626">
        <ele>68.8</ele>
        <time>2025-02-11T08:59:31Z</time>
      </trkpt>
      <trkpt lat="47.80515" lon="-2.41625">
        <ele>68.8</ele>
        <time>2025-02-11T08:59:32Z</time>
      </trkpt>
      <trkpt lat="47.80513" lon="-2.41625">
        <ele>68.7</ele>
        <time>2025-02-11T08:59:33Z</time>
      </trkpt>
      <trkpt lat="47.80512" lon="-2.41625">
        <ele>68.7</ele>
        <time>2025-02-11T08:59:34Z</time>
      </trkpt>
      <trkpt lat="47.80511" lon="-2.41624">
        <ele>68.7</ele>
        <time>2025-02-11T08:59:35Z</time>
      </trkpt>
      <trkpt lat="47.8051" lon="-2.41624">
        <ele>68.6</ele>
        <time>2025-02-11T08:59:36Z</time>
      </trkpt>
      <trkpt lat="47.80509" lon="-2.41625">
        <ele>68.5</ele>
        <time>2025-02-11T08:59:37Z</time>
      </trkpt>
      <trkpt lat="47.80508" lon="-2.41625">
        <ele>68.4</ele>
        <time>2025-02-11T08:59:38Z</time>
      </trkpt>
      <trkpt lat="47.80507" lon="-2.41626">
        <ele>68.3</ele>
        <time>2025-02-11T08:59:39Z</time>
      </trkpt>
      <trkpt lat="47.80506" lon="-2.41627">
        <ele>68.2</ele>
        <time>2025-02-11T08:59:40Z</time>
      </trkpt>
      <trkpt lat="47.80505" lon="-2.41628">
        <ele>68.1</ele>
        <time>2025-02-11T08:59:41Z</time>
      </trkpt>
      <trkpt lat="47.80504" lon="-2.41629">
        <ele>68</ele>
        <time>2025-02-11T08:59:42Z</time>
      </trkpt>
      <trkpt lat="47.80503" lon="-2.41629">
        <ele>67.8</ele>
        <time>2025-02-11T08:59:43Z</time>
      </trkpt>
      <trkpt lat="47.80501" lon="-2.4163">
        <ele>67.7</ele>
        <time>2025-02-11T08:59:44Z</time>
      </trkpt>
      <trkpt lat="47.805" lon="-2.4163">
        <ele>67.6</ele>
        <time>2025-02-11T08:59:45Z</time>
      </trkpt>
      <trkpt lat="47.80499" lon="-2.41631">
        <ele>67.5</ele>
        <time>2025-02-11T08:59:46Z</time>
      </trkpt>
      <trkpt lat="47.80498" lon="-2.41632">
        <ele>67.5</ele>
        <time>2025-02-11T08:59:47Z</time>
      </trkpt>
      <trkpt lat="47.80497" lon="-2.41632">
        <ele>67.4</ele>
        <time>2025-02-11T08:59:48Z</time>
      </trkpt>
      <trkpt lat="47.80496" lon="-2.41634">
        <ele>67.4</ele>
        <time>2025-02-11T08:59:49Z</time>
      </trkpt>
      <trkpt lat="47.80495" lon="-2.41635">
        <ele>67.3</ele>
        <time>2025-02-11T08:59:50Z</time>
      </trkpt>
      <trkpt lat="47.80494" lon="-2.41636">
        <ele>67.2</ele>
        <time>2025-02-11T08:59:51Z</time>
      </trkpt>
      <trkpt lat="47.80492" lon="-2.41637">
        <ele>67.1</ele>
        <time>2025-02-11T08:59:52Z</time>
      </trkpt>
      <trkpt lat="47.80491" lon="-2.41637">
        <ele>67.1</ele>
        <time>2025-02-11T08:59:53Z</time>
      </trkpt>
      <trkpt lat="47.8049" lon="-2.41638">
        <ele>67</ele>
        <time>2025-02-11T08:59:54Z</time>
      </trkpt>
      <trkpt lat="47.80489" lon="-2.41639">
        <ele>67</ele>
        <time>2025-02-11T08:59:55Z</time>
      </trkpt>
      <trkpt lat="47.80488" lon="-2.4164">
        <ele>67</ele>
        <time>2025-02-11T08:59:56Z</time>
      </trkpt>
      <trkpt lat="47.80487" lon="-2.4164">
        <ele>67</ele>
        <time>2025-02-11T08:59:57Z</time>
      </trkpt>
      <trkpt lat="47.80485" lon="-2.41641">
        <ele>67</ele>
        <time>2025-02-11T08:59:58Z</time>
      </trkpt>
      <trkpt lat="47.80484" lon="-2.41641">
        <ele>67</ele>
        <time>2025-02-11T08:59:59Z</time>
      </trkpt>
      <trkpt lat="47.80483" lon="-2.41642">
        <ele>66.9</ele>
        <time>2025-02-11T09:00:00Z</time>
      </trkpt>
      <trkpt lat="47.80482" lon="-2.41642">
        <ele>66.9</ele>
        <time>2025-02-11T09:00:01Z</time>
      </trkpt>
      <trkpt lat="47.8048" lon="-2.41638">
        <ele>67</ele>
        <time>2025-02-11T09:00:02Z</time>
      </trkpt>
      <trkpt lat="47.80483" lon="-2.41639">
        <ele>67</ele>
        <time>2025-02-11T09:00:03Z</time>
      </trkpt>
      <trkpt lat="47.80481" lon="-2.41639">
        <ele>67</ele>
        <time>2025-02-11T09:00:04Z</time>
      </trkpt>
      <trkpt lat="47.8048" lon="-2.41639">
        <ele>67</ele>
        <time>2025-02-11T09:00:05Z</time>
      </trkpt>
      <trkpt lat="47.80479" lon="-2.41639">
        <ele>67</ele>
        <time>2025-02-11T09:00:06Z</time>
      </trkpt>
      <trkpt lat="47.80479" lon="-2.41639">
        <ele>67</ele>
        <time>2025-02-11T09:00:07Z</time>
      </trkpt>
      <trkpt lat="47.80478" lon="-2.41639">
        <ele>67</ele>
        <time>2025-02-11T09:00:08Z</time>
      </trkpt>
      <trkpt lat="47.80478" lon="-2.41639">
        <ele>67</ele>
        <time>2025-02-11T09:00:09Z</time>
      </trkpt>
      <trkpt lat="47.80477" lon="-2.41638">
        <ele>67.1</ele>
        <time>2025-02-11T09:00:10Z</time>
      </trkpt>
      <trkpt lat="47.80476" lon="-2.41637">
        <ele>67.1</ele>
        <time>2025-02-11T09:00:11Z</time>
      </trkpt>
      <trkpt lat="47.80475" lon="-2.41635">
        <ele>67.1</ele>
        <time>2025-02-11T09:00:12Z</time>
      </trkpt>
      <trkpt lat="47.80475" lon="-2.41633">
        <ele>67.2</ele>
        <time>2025-02-11T09:00:13Z</time>
      </trkpt>
      <trkpt lat="47.80474" lon="-2.41631">
        <ele>67.3</ele>
        <time>2025-02-11T09:00:14Z</time>
      </trkpt>
      <trkpt lat="47.80474" lon="-2.4163">
        <ele>67.3</ele>
        <time>2025-02-11T09:00:15Z</time>
      </trkpt>
      <trkpt lat="47.80475" lon="-2.41629">
        <ele>67.4</ele>
        <time>2025-02-11T09:00:16Z</time>
      </trkpt>
      <trkpt lat="47.80475" lon="-2.41627">
        <ele>67.5</ele>
        <time>2025-02-11T09:00:17Z</time>
      </trkpt>
      <trkpt lat="47.80476" lon="-2.41625">
        <ele>67.6</ele>
        <time>2025-02-11T09:00:18Z</time>
      </trkpt>
      <trkpt lat="47.80476" lon="-2.41624">
        <ele>67.6</ele>
        <time>2025-02-11T09:00:19Z</time>
      </trkpt>
      <trkpt lat="47.80477" lon="-2.41623">
        <ele>67.7</ele>
        <time>2025-02-11T09:00:20Z</time>
      </trkpt>
      <trkpt lat="47.80477" lon="-2.41622">
        <ele>67.7</ele>
        <time>2025-02-11T09:00:21Z</time>
      </trkpt>
      <trkpt lat="47.80477" lon="-2.41624">
        <ele>67.6</ele>
        <time>2025-02-11T09:00:22Z</time>
      </trkpt>
      <trkpt lat="47.80477" lon="-2.41625">
        <ele>67.6</ele>
        <time>2025-02-11T09:00:23Z</time>
      </trkpt>
      <trkpt lat="47.80477" lon="-2.41625">
        <ele>67.6</ele>
        <time>2025-02-11T09:00:24Z</time>
      </trkpt>
      <trkpt lat="47.80477" lon="-2.41625">
        <ele>67.6</ele>
        <time>2025-02-11T09:00:25Z</time>
      </trkpt>
      <trkpt lat="47.80477" lon="-2.41625">
        <ele>67.6</ele>
        <time>2025-02-11T09:00:26Z</time>
      </trkpt>
      <trkpt lat="47.80477" lon="-2.41625">
        <ele>67.6</ele>
        <time>2025-02-11T09:00:27Z</time>
      </trkpt>
      <trkpt lat="47.80477" lon="-2.41625">
        <ele>67.6</ele>
        <time>2025-02-11T09:00:28Z</time>
      </trkpt>
      <trkpt lat="47.80477" lon="-2.41625">
        <ele>67.6</ele>
        <time>2025-02-11T09:00:29Z</time>
      </trkpt>
      <trkpt lat="47.80477" lon="-2.41625">
        <ele>67.6</ele>
        <time>2025-02-11T09:00:30Z</time>
      </trkpt>
      <trkpt lat="47.80477" lon="-2.41625">
        <ele>67.6</ele>
        <time>2025-02-11T09:00:31Z</time>
      </trkpt>
      <trkpt lat="47.80477" lon="-2.41625">
        <ele>67.6</ele>
        <time>2025-02-11T09:00:32Z</time>
      </trkpt>
      <trkpt lat="47.80477" lon="-2.41625">
        <ele>67.6</ele>
        <time>2025-02-11T09:00:33Z</time>
      </trkpt>
      <trkpt lat="47.80477" lon="-2.41625">
        <ele>67.6</ele>
        <time>2025-02-11T09:00:34Z</time>
      </trkpt>
      <trkpt lat="47.80477" lon="-2.41625">
        <ele>67.6</ele>
        <time>2025-02-11T09:00:35Z</time>
      </trkpt>
      <trkpt lat="47.80477" lon="-2.41625">
        <ele>67.6</ele>
        <time>2025-02-11T09:00:36Z</time>
      </trkpt>
      <trkpt lat="47.80477" lon="-2.41625">
        <ele>67.6</ele>
        <time>2025-02-11T09:00:37Z</time>
      </trkpt>
      <trkpt lat="47.80477" lon="-2.41625">
        <ele>67.6</ele>
        <time>2025-02-11T09:00:38Z</time>
      </trkpt>
      <trkpt lat="47.80477" lon="-2.41625">
        <ele>67.6</ele>
        <time>2025-02-11T09:00:39Z</time>
      </trkpt>
      <trkpt lat="47.80477" lon="-2.41625">
        <ele>67.6</ele>
        <time>2025-02-11T09:00:40Z</time>
      </trkpt>
      <trkpt lat="47.80477" lon="-2.41625">
        <ele>67.6</ele>
        <time>2025-02-11T09:00:41Z</time>
      </trkpt>
      <trkpt lat="47.80477" lon="-2.41625">
        <ele>67.6</ele>
        <time>2025-02-11T09:00:42Z</time>
      </trkpt>
      <trkpt lat="47.80477" lon="-2.41625">
        <ele>67.6</ele>
        <time>2025-02-11T09:00:43Z</time>
      </trkpt>
      <trkpt lat="47.80477" lon="-2.41624">
        <ele>67.6</ele>
        <time>2025-02-11T09:00:44Z</time>
      </trkpt>
      <trkpt lat="47.80477" lon="-2.41623">
        <ele>67.7</ele>
        <time>2025-02-11T09:00:45Z</time>
      </trkpt>
      <trkpt lat="47.80477" lon="-2.41622">
        <ele>67.7</ele>
        <time>2025-02-11T09:00:46Z</time>
      </trkpt>
      <trkpt lat="47.80477" lon="-2.4162">
        <ele>67.8</ele>
        <time>2025-02-11T09:00:47Z</time>
      </trkpt>
      <trkpt lat="47.80478" lon="-2.41619">
        <ele>67.9</ele>
        <time>2025-02-11T09:00:48Z</time>
      </trkpt>
      <trkpt lat="47.80478" lon="-2.41617">
        <ele>67.9</ele>
        <time>2025-02-11T09:00:49Z</time>
      </trkpt>
      <trkpt lat="47.80479" lon="-2.41616">
        <ele>68</ele>
        <time>2025-02-11T09:00:50Z</time>
      </trkpt>
      <trkpt lat="47.80479" lon="-2.41614">
        <ele>68.1</ele>
        <time>2025-02-11T09:00:51Z</time>
      </trkpt>
      <trkpt lat="47.80479" lon="-2.41612">
        <ele>68.2</ele>
        <time>2025-02-11T09:00:52Z</time>
      </trkpt>
      <trkpt lat="47.80479" lon="-2.41609">
        <ele>68.3</ele>
        <time>2025-02-11T09:00:53Z</time>
      </trkpt>
      <trkpt lat="47.80479" lon="-2.41608">
        <ele>68.4</ele>
        <time>2025-02-11T09:00:54Z</time>
      </trkpt>
      <trkpt lat="47.8048" lon="-2.41606">
        <ele>68.4</ele>
        <time>2025-02-11T09:00:55Z</time>
      </trkpt>
      <trkpt lat="47.8048" lon="-2.41604">
        <ele>68.5</ele>
        <time>2025-02-11T09:00:56Z</time>
      </trkpt>
      <trkpt lat="47.8048" lon="-2.41602">
        <ele>68.6</ele>
        <time>2025-02-11T09:00:57Z</time>
      </trkpt>
      <trkpt lat="47.80481" lon="-2.416">
        <ele>68.7</ele>
        <time>2025-02-11T09:00:58Z</time>
      </trkpt>
      <trkpt lat="47.80481" lon="-2.41598">
        <ele>68.8</ele>
        <time>2025-02-11T09:00:59Z</time>
      </trkpt>
      <trkpt lat="47.80481" lon="-2.41597">
        <ele>68.8</ele>
        <time>2025-02-11T09:01:00Z</time>
      </trkpt>
      <trkpt lat="47.80481" lon="-2.41595">
        <ele>68.9</ele>
        <time>2025-02-11T09:01:01Z</time>
      </trkpt>
      <trkpt lat="47.80481" lon="-2.41594">
        <ele>68.9</ele>
        <time>2025-02-11T09:01:02Z</time>
      </trkpt>
      <trkpt lat="47.80481" lon="-2.41592">
        <ele>69</ele>
        <time>2025-02-11T09:01:03Z</time>
      </trkpt>
      <trkpt lat="47.80481" lon="-2.4159">
        <ele>69.1</ele>
        <time>2025-02-11T09:01:04Z</time>
      </trkpt>
      <trkpt lat="47.80481" lon="-2.41588">
        <ele>69.2</ele>
        <time>2025-02-11T09:01:05Z</time>
      </trkpt>
      <trkpt lat="47.80481" lon="-2.41586">
        <ele>69.2</ele>
        <time>2025-02-11T09:01:06Z</time>
      </trkpt>
      <trkpt lat="47.80481" lon="-2.41585">
        <ele>69.3</ele>
        <time>2025-02-11T09:01:07Z</time>
      </trkpt>
      <trkpt lat="47.80482" lon="-2.41583">
        <ele>69.3</ele>
        <time>2025-02-11T09:01:08Z</time>
      </trkpt>
      <trkpt lat="47.80482" lon="-2.41582">
        <ele>69.4</ele>
        <time>2025-02-11T09:01:09Z</time>
      </trkpt>
      <trkpt lat="47.80482" lon="-2.4158">
        <ele>69.5</ele>
        <time>2025-02-11T09:01:10Z</time>
      </trkpt>
      <trkpt lat="47.80483" lon="-2.41579">
        <ele>69.6</ele>
        <time>2025-02-11T09:01:11Z</time>
      </trkpt>
      <trkpt lat="47.80483" lon="-2.41577">
        <ele>69.6</ele>
        <time>2025-02-11T09:01:12Z</time>
      </trkpt>
      <trkpt lat="47.80483" lon="-2.41575">
        <ele>69.7</ele>
        <time>2025-02-11T09:01:13Z</time>
      </trkpt>
      <trkpt lat="47.80484" lon="-2.41574">
        <ele>69.8</ele>
        <time>2025-02-11T09:01:14Z</time>
      </trkpt>
      <trkpt lat="47.80484" lon="-2.41572">
        <ele>69.8</ele>
        <time>2025-02-11T09:01:15Z</time>
      </trkpt>
      <trkpt lat="47.80484" lon="-2.4157">
        <ele>69.9</ele>
        <time>2025-02-11T09:01:16Z</time>
      </trkpt>
      <trkpt lat="47.80485" lon="-2.41569">
        <ele>70</ele>
        <time>2025-02-11T09:01:17Z</time>
      </trkpt>
      <trkpt lat="47.80485" lon="-2.41567">
        <ele>70</ele>
        <time>2025-02-11T09:01:18Z</time>
      </trkpt>
      <trkpt lat="47.80484" lon="-2.41565">
        <ele>70.1</ele>
        <time>2025-02-11T09:01:19Z</time>
      </trkpt>
      <trkpt lat="47.80485" lon="-2.41563">
        <ele>70.2</ele>
        <time>2025-02-11T09:01:20Z</time>
      </trkpt>
      <trkpt lat="47.80485" lon="-2.41562">
        <ele>70.3</ele>
        <time>2025-02-11T09:01:21Z</time>
      </trkpt>
      <trkpt lat="47.80486" lon="-2.4156">
        <ele>70.3</ele>
        <time>2025-02-11T09:01:22Z</time>
      </trkpt>
      <trkpt lat="47.80486" lon="-2.41558">
        <ele>70.4</ele>
        <time>2025-02-11T09:01:23Z</time>
      </trkpt>
      <trkpt lat="47.80486" lon="-2.41557">
        <ele>70.5</ele>
        <time>2025-02-11T09:01:24Z</time>
      </trkpt>
      <trkpt lat="47.80486" lon="-2.41555">
        <ele>70.5</ele>
        <time>2025-02-11T09:01:25Z</time>
      </trkpt>
      <trkpt lat="47.80486" lon="-2.41554">
        <ele>70.6</ele>
        <time>2025-02-11T09:01:26Z</time>
      </trkpt>
      <trkpt lat="47.80486" lon="-2.41552">
        <ele>70.6</ele>
        <time>2025-02-11T09:01:27Z</time>
      </trkpt>
      <trkpt lat="47.80487" lon="-2.4155">
        <ele>70.7</ele>
        <time>2025-02-11T09:01:28Z</time>
      </trkpt>
      <trkpt lat="47.80487" lon="-2.41548">
        <ele>70.8</ele>
        <time>2025-02-11T09:01:29Z</time>
      </trkpt>
      <trkpt lat="47.80487" lon="-2.41547">
        <ele>70.9</ele>
        <time>2025-02-11T09:01:30Z</time>
      </trkpt>
      <trkpt lat="47.80487" lon="-2.41545">
        <ele>70.9</ele>
        <time>2025-02-11T09:01:31Z</time>
      </trkpt>
      <trkpt lat="47.80487" lon="-2.41543">
        <ele>71</ele>
        <time>2025-02-11T09:01:32Z</time>
      </trkpt>
      <trkpt lat="47.80488" lon="-2.41542">
        <ele>71.1</ele>
        <time>2025-02-11T09:01:33Z</time>
      </trkpt>
      <trkpt lat="47.80488" lon="-2.4154">
        <ele>71.1</ele>
        <time>2025-02-11T09:01:34Z</time>
      </trkpt>
      <trkpt lat="47.80489" lon="-2.41539">
        <ele>71.2</ele>
        <time>2025-02-11T09:01:35Z</time>
      </trkpt>
      <trkpt lat="47.80489" lon="-2.41537">
        <ele>71.3</ele>
        <time>2025-02-11T09:01:36Z</time>
      </trkpt>
      <trkpt lat="47.80489" lon="-2.41536">
        <ele>71.3</ele>
        <time>2025-02-11T09:01:37Z</time>
      </trkpt>
      <trkpt lat="47.8049" lon="-2.41534">
        <ele>71.4</ele>
        <time>2025-02-11T09:01:38Z</time>
      </trkpt>
      <trkpt lat="47.8049" lon="-2.41533">
        <ele>71.5</ele>
        <time>2025-02-11T09:01:39Z</time>
      </trkpt>
      <trkpt lat="47.80491" lon="-2.41531">
        <ele>71.5</ele>
        <time>2025-02-11T09:01:40Z</time>
      </trkpt>
      <trkpt lat="47.80491" lon="-2.4153">
        <ele>71.6</ele>
        <time>2025-02-11T09:01:41Z</time>
      </trkpt>
      <trkpt lat="47.80491" lon="-2.41528">
        <ele>71.7</ele>
        <time>2025-02-11T09:01:42Z</time>
      </trkpt>
      <trkpt lat="47.80491" lon="-2.41527">
        <ele>71.8</ele>
        <time>2025-02-11T09:01:43Z</time>
      </trkpt>
      <trkpt lat="47.80491" lon="-2.41525">
        <ele>71.9</ele>
        <time>2025-02-11T09:01:44Z</time>
      </trkpt>
      <trkpt lat="47.80491" lon="-2.41523">
        <ele>72</ele>
        <time>2025-02-11T09:01:45Z</time>
      </trkpt>
      <trkpt lat="47.80492" lon="-2.41521">
        <ele>72.1</ele>
        <time>2025-02-11T09:01:46Z</time>
      </trkpt>
      <trkpt lat="47.80492" lon="-2.4152">
        <ele>72.2</ele>
        <time>2025-02-11T09:01:47Z</time>
      </trkpt>
      <trkpt lat="47.80493" lon="-2.41518">
        <ele>72.3</ele>
        <time>2025-02-11T09:01:48Z</time>
      </trkpt>
      <trkpt lat="47.80493" lon="-2.41516">
        <ele>72.5</ele>
        <time>2025-02-11T09:01:49Z</time>
      </trkpt>
      <trkpt lat="47.80493" lon="-2.41515">
        <ele>72.6</ele>
        <time>2025-02-11T09:01:50Z</time>
      </trkpt>
      <trkpt lat="47.80493" lon="-2.41513">
        <ele>72.7</ele>
        <time>2025-02-11T09:01:51Z</time>
      </trkpt>
      <trkpt lat="47.80493" lon="-2.41512">
        <ele>72.8</ele>
        <time>2025-02-11T09:01:52Z</time>
      </trkpt>
      <trkpt lat="47.80494" lon="-2.4151">
        <ele>72.9</ele>
        <time>2025-02-11T09:01:53Z</time>
      </trkpt>
      <trkpt lat="47.80494" lon="-2.41509">
        <ele>73</ele>
        <time>2025-02-11T09:01:54Z</time>
      </trkpt>
      <trkpt lat="47.80494" lon="-2.41507">
        <ele>73.1</ele>
        <time>2025-02-11T09:01:55Z</time>
      </trkpt>
      <trkpt lat="47.80495" lon="-2.41505">
        <ele>73.3</ele>
        <time>2025-02-11T09:01:56Z</time>
      </trkpt>
      <trkpt lat="47.80495" lon="-2.41504">
        <ele>73.4</ele>
        <time>2025-02-11T09:01:57Z</time>
      </trkpt>
      <trkpt lat="47.80495" lon="-2.41502">
        <ele>73.5</ele>
        <time>2025-02-11T09:01:58Z</time>
      </trkpt>
      <trkpt lat="47.80495" lon="-2.41501">
        <ele>73.6</ele>
        <time>2025-02-11T09:01:59Z</time>
      </trkpt>
      <trkpt lat="47.80495" lon="-2.41499">
        <ele>73.7</ele>
        <time>2025-02-11T09:02:00Z</time>
      </trkpt>
      <trkpt lat="47.80496" lon="-2.41497">
        <ele>73.8</ele>
        <time>2025-02-11T09:02:01Z</time>
      </trkpt>
      <trkpt lat="47.80496" lon="-2.41495">
        <ele>73.9</ele>
        <time>2025-02-11T09:02:02Z</time>
      </trkpt>
      <trkpt lat="47.80497" lon="-2.41494">
        <ele>74</ele>
        <time>2025-02-11T09:02:03Z</time>
      </trkpt>
      <trkpt lat="47.80497" lon="-2.41492">
        <ele>74.1</ele>
        <time>2025-02-11T09:02:04Z</time>
      </trkpt>
      <trkpt lat="47.80497" lon="-2.4149">
        <ele>74.1</ele>
        <time>2025-02-11T09:02:05Z</time>
      </trkpt>
      <trkpt lat="47.80497" lon="-2.41489">
        <ele>74.2</ele>
        <time>2025-02-11T09:02:06Z</time>
      </trkpt>
      <trkpt lat="47.80497" lon="-2.41487">
        <ele>74.3</ele>
        <time>2025-02-11T09:02:07Z</time>
      </trkpt>
      <trkpt lat="47.80497" lon="-2.41486">
        <ele>74.3</ele>
        <time>2025-02-11T09:02:08Z</time>
      </trkpt>
      <trkpt lat="47.80498" lon="-2.41484">
        <ele>74.4</ele>
        <time>2025-02-11T09:02:09Z</time>
      </trkpt>
      <trkpt lat="47.80498" lon="-2.41482">
        <ele>74.5</ele>
        <time>2025-02-11T09:02:10Z</time>
      </trkpt>
      <trkpt lat="47.80498" lon="-2.41481">
        <ele>74.6</ele>
        <time>2025-02-11T09:02:11Z</time>
      </trkpt>
      <trkpt lat="47.80498" lon="-2.41479">
        <ele>74.6</ele>
        <time>2025-02-11T09:02:12Z</time>
      </trkpt>
      <trkpt lat="47.80499" lon="-2.41477">
        <ele>74.7</ele>
        <time>2025-02-11T09:02:13Z</time>
      </trkpt>
      <trkpt lat="47.80499" lon="-2.41476">
        <ele>74.8</ele>
        <time>2025-02-11T09:02:14Z</time>
      </trkpt>
      <trkpt lat="47.80499" lon="-2.41474">
        <ele>74.9</ele>
        <time>2025-02-11T09:02:15Z</time>
      </trkpt>
      <trkpt lat="47.805" lon="-2.41473">
        <ele>75</ele>
        <time>2025-02-11T09:02:16Z</time>
      </trkpt>
      <trkpt lat="47.805" lon="-2.41471">
        <ele>75.1</ele>
        <time>2025-02-11T09:02:17Z</time>
      </trkpt>
      <trkpt lat="47.805" lon="-2.41469">
        <ele>75.1</ele>
        <time>2025-02-11T09:02:18Z</time>
      </trkpt>
      <trkpt lat="47.805" lon="-2.41467">
        <ele>75.2</ele>
        <time>2025-02-11T09:02:19Z</time>
      </trkpt>
      <trkpt lat="47.805" lon="-2.41466">
        <ele>75.2</ele>
        <time>2025-02-11T09:02:20Z</time>
      </trkpt>
      <trkpt lat="47.80501" lon="-2.41464">
        <ele>75.3</ele>
        <time>2025-02-11T09:02:21Z</time>
      </trkpt>
      <trkpt lat="47.80501" lon="-2.41462">
        <ele>75.4</ele>
        <time>2025-02-11T09:02:22Z</time>
      </trkpt>
      <trkpt lat="47.80501" lon="-2.4146">
        <ele>75.4</ele>
        <time>2025-02-11T09:02:23Z</time>
      </trkpt>
      <trkpt lat="47.80502" lon="-2.41459">
        <ele>75.5</ele>
        <time>2025-02-11T09:02:24Z</time>
      </trkpt>
      <trkpt lat="47.80502" lon="-2.41457">
        <ele>75.6</ele>
        <time>2025-02-11T09:02:25Z</time>
      </trkpt>
      <trkpt lat="47.80502" lon="-2.41455">
        <ele>75.6</ele>
        <time>2025-02-11T09:02:26Z</time>
      </trkpt>
      <trkpt lat="47.80502" lon="-2.41453">
        <ele>75.7</ele>
        <time>2025-02-11T09:02:27Z</time>
      </trkpt>
      <trkpt lat="47.80502" lon="-2.41452">
        <ele>75.7</ele>
        <time>2025-02-11T09:02:28Z</time>
      </trkpt>
      <trkpt lat="47.80503" lon="-2.4145">
        <ele>75.8</ele>
        <time>2025-02-11T09:02:29Z</time>
      </trkpt>
      <trkpt lat="47.80503" lon="-2.41448">
        <ele>75.9</ele>
        <time>2025-02-11T09:02:30Z</time>
      </trkpt>
      <trkpt lat="47.80503" lon="-2.41446">
        <ele>75.9</ele>
        <time>2025-02-11T09:02:31Z</time>
      </trkpt>
      <trkpt lat="47.80504" lon="-2.41445">
        <ele>76</ele>
        <time>2025-02-11T09:02:32Z</time>
      </trkpt>
      <trkpt lat="47.80504" lon="-2.41443">
        <ele>76</ele>
        <time>2025-02-11T09:02:33Z</time>
      </trkpt>
      <trkpt lat="47.80504" lon="-2.41441">
        <ele>76</ele>
        <time>2025-02-11T09:02:34Z</time>
      </trkpt>
      <trkpt lat="47.80504" lon="-2.41439">
        <ele>76</ele>
        <time>2025-02-11T09:02:35Z</time>
      </trkpt>
      <trkpt lat="47.80504" lon="-2.41438">
        <ele>76</ele>
        <time>2025-02-11T09:02:36Z</time>
      </trkpt>
      <trkpt lat="47.80505" lon="-2.41436">
        <ele>76.1</ele>
        <time>2025-02-11T09:02:37Z</time>
      </trkpt>
      <trkpt lat="47.80505" lon="-2.41434">
        <ele>76.1</ele>
        <time>2025-02-11T09:02:38Z</time>
      </trkpt>
      <trkpt lat="47.80505" lon="-2.41433">
        <ele>76.1</ele>
        <time>2025-02-11T09:02:39Z</time>
      </trkpt>
      <trkpt lat="47.80506" lon="-2.41431">
        <ele>76.1</ele>
        <time>2025-02-11T09:02:40Z</time>
      </trkpt>
      <trkpt lat="47.80506" lon="-2.41429">
        <ele>76.1</ele>
        <time>2025-02-11T09:02:41Z</time>
      </trkpt>
      <trkpt lat="47.80506" lon="-2.41427">
        <ele>76.1</ele>
        <time>2025-02-11T09:02:42Z</time>
      </trkpt>
      <trkpt lat="47.80506" lon="-2.41425">
        <ele>76.2</ele>
        <time>2025-02-11T09:02:43Z</time>
      </trkpt>
      <trkpt lat="47.80507" lon="-2.41424">
        <ele>76.2</ele>
        <time>2025-02-11T09:02:44Z</time>
      </trkpt>
      <trkpt lat="47.80507" lon="-2.41422">
        <ele>76.2</ele>
        <time>2025-02-11T09:02:45Z</time>
      </trkpt>
      <trkpt lat="47.80507" lon="-2.4142">
        <ele>76.2</ele>
        <time>2025-02-11T09:02:46Z</time>
      </trkpt>
      <trkpt lat="47.80507" lon="-2.41419">
        <ele>76.2</ele>
        <time>2025-02-11T09:02:47Z</time>
      </trkpt>
      <trkpt lat="47.80507" lon="-2.41417">
        <ele>76.3</ele>
        <time>2025-02-11T09:02:48Z</time>
      </trkpt>
      <trkpt lat="47.80508" lon="-2.41415">
        <ele>76.3</ele>
        <time>2025-02-11T09:02:49Z</time>
      </trkpt>
      <trkpt lat="47.80508" lon="-2.41413">
        <ele>76.4</ele>
        <time>2025-02-11T09:02:50Z</time>
      </trkpt>
      <trkpt lat="47.80508" lon="-2.41412">
        <ele>76.5</ele>
        <time>2025-02-11T09:02:51Z</time>
      </trkpt>
      <trkpt lat="47.80508" lon="-2.4141">
        <ele>76.5</ele>
        <time>2025-02-11T09:02:52Z</time>
      </trkpt>
      <trkpt lat="47.80508" lon="-2.41408">
        <ele>76.6</ele>
        <time>2025-02-11T09:02:53Z</time>
      </trkpt>
      <trkpt lat="47.80509" lon="-2.41406">
        <ele>76.7</ele>
        <time>2025-02-11T09:02:54Z</time>
      </trkpt>
      <trkpt lat="47.80509" lon="-2.41404">
        <ele>76.8</ele>
        <time>2025-02-11T09:02:55Z</time>
      </trkpt>
      <trkpt lat="47.8051" lon="-2.41403">
        <ele>76.8</ele>
        <time>2025-02-11T09:02:56Z</time>
      </trkpt>
      <trkpt lat="47.8051" lon="-2.41401">
        <ele>76.9</ele>
        <time>2025-02-11T09:02:57Z</time>
      </trkpt>
      <trkpt lat="47.8051" lon="-2.41399">
        <ele>77</ele>
        <time>2025-02-11T09:02:58Z</time>
      </trkpt>
      <trkpt lat="47.80511" lon="-2.41398">
        <ele>77</ele>
        <time>2025-02-11T09:02:59Z</time>
      </trkpt>
      <trkpt lat="47.80511" lon="-2.41397">
        <ele>77.1</ele>
        <time>2025-02-11T09:03:00Z</time>
      </trkpt>
      <trkpt lat="47.80512" lon="-2.41395">
        <ele>77.2</ele>
        <time>2025-02-11T09:03:01Z</time>
      </trkpt>
      <trkpt lat="47.80512" lon="-2.41393">
        <ele>77.3</ele>
        <time>2025-02-11T09:03:02Z</time>
      </trkpt>
      <trkpt lat="47.80513" lon="-2.41392">
        <ele>77.4</ele>
        <time>2025-02-11T09:03:03Z</time>
      </trkpt>
      <trkpt lat="47.80513" lon="-2.4139">
        <ele>77.4</ele>
        <time>2025-02-11T09:03:04Z</time>
      </trkpt>
      <trkpt lat="47.80513" lon="-2.41388">
        <ele>77.5</ele>
        <time>2025-02-11T09:03:05Z</time>
      </trkpt>
      <trkpt lat="47.80513" lon="-2.41386">
        <ele>77.5</ele>
        <time>2025-02-11T09:03:06Z</time>
      </trkpt>
      <trkpt lat="47.80513" lon="-2.41384">
        <ele>77.5</ele>
        <time>2025-02-11T09:03:07Z</time>
      </trkpt>
      <trkpt lat="47.80513" lon="-2.41382">
        <ele>77.6</ele>
        <time>2025-02-11T09:03:08Z</time>
      </trkpt>
      <trkpt lat="47.80513" lon="-2.4138">
        <ele>77.6</ele>
        <time>2025-02-11T09:03:09Z</time>
      </trkpt>
      <trkpt lat="47.80514" lon="-2.41379">
        <ele>77.7</ele>
        <time>2025-02-11T09:03:10Z</time>
      </trkpt>
      <trkpt lat="47.80514" lon="-2.41377">
        <ele>77.7</ele>
        <time>2025-02-11T09:03:11Z</time>
      </trkpt>
      <trkpt lat="47.80515" lon="-2.41375">
        <ele>77.8</ele>
        <time>2025-02-11T09:03:12Z</time>
      </trkpt>
      <trkpt lat="47.80515" lon="-2.41374">
        <ele>77.8</ele>
        <time>2025-02-11T09:03:13Z</time>
      </trkpt>
      <trkpt lat="47.80516" lon="-2.41372">
        <ele>77.8</ele>
        <time>2025-02-11T09:03:14Z</time>
      </trkpt>
      <trkpt lat="47.80516" lon="-2.4137">
        <ele>77.9</ele>
        <time>2025-02-11T09:03:15Z</time>
      </trkpt>
      <trkpt lat="47.80516" lon="-2.41368">
        <ele>77.9</ele>
        <time>2025-02-11T09:03:16Z</time>
      </trkpt>
      <trkpt lat="47.80516" lon="-2.41367">
        <ele>77.9</ele>
        <time>2025-02-11T09:03:17Z</time>
      </trkpt>
      <trkpt lat="47.80517" lon="-2.41365">
        <ele>77.9</ele>
        <time>2025-02-11T09:03:18Z</time>
      </trkpt>
      <trkpt lat="47.80517" lon="-2.41363">
        <ele>78</ele>
        <time>2025-02-11T09:03:19Z</time>
      </trkpt>
      <trkpt lat="47.80517" lon="-2.41361">
        <ele>78</ele>
        <time>2025-02-11T09:03:20Z</time>
      </trkpt>
      <trkpt lat="47.80517" lon="-2.4136">
        <ele>78</ele>
        <time>2025-02-11T09:03:21Z</time>
      </trkpt>
      <trkpt lat="47.80518" lon="-2.41358">
        <ele>78</ele>
        <time>2025-02-11T09:03:22Z</time>
      </trkpt>
      <trkpt lat="47.80518" lon="-2.41356">
        <ele>78</ele>
        <time>2025-02-11T09:03:23Z</time>
      </trkpt>
      <trkpt lat="47.80518" lon="-2.41354">
        <ele>78</ele>
        <time>2025-02-11T09:03:24Z</time>
      </trkpt>
      <trkpt lat="47.80518" lon="-2.41353">
        <ele>78</ele>
        <time>2025-02-11T09:03:25Z</time>
      </trkpt>
      <trkpt lat="47.80518" lon="-2.41351">
        <ele>78</ele>
        <time>2025-02-11T09:03:26Z</time>
      </trkpt>
      <trkpt lat="47.80519" lon="-2.41349">
        <ele>78</ele>
        <time>2025-02-11T09:03:27Z</time>
      </trkpt>
      <trkpt lat="47.80519" lon="-2.41347">
        <ele>78</ele>
        <time>2025-02-11T09:03:28Z</time>
      </trkpt>
      <trkpt lat="47.80519" lon="-2.41345">
        <ele>78</ele>
        <time>2025-02-11T09:03:29Z</time>
      </trkpt>
      <trkpt lat="47.8052" lon="-2.41344">
        <ele>78</ele>
        <time>2025-02-11T09:03:30Z</time>
      </trkpt>
      <trkpt lat="47.8052" lon="-2.41342">
        <ele>78</ele>
        <time>2025-02-11T09:03:31Z</time>
      </trkpt>
      <trkpt lat="47.8052" lon="-2.4134">
        <ele>78</ele>
        <time>2025-02-11T09:03:32Z</time>
      </trkpt>
      <trkpt lat="47.8052" lon="-2.41339">
        <ele>78</ele>
        <time>2025-02-11T09:03:33Z</time>
      </trkpt>
      <trkpt lat="47.8052" lon="-2.41337">
        <ele>78</ele>
        <time>2025-02-11T09:03:34Z</time>
      </trkpt>
      <trkpt lat="47.80521" lon="-2.41335">
        <ele>78</ele>
        <time>2025-02-11T09:03:35Z</time>
      </trkpt>
      <trkpt lat="47.80521" lon="-2.41333">
        <ele>78</ele>
        <time>2025-02-11T09:03:36Z</time>
      </trkpt>
      <trkpt lat="47.80522" lon="-2.41332">
        <ele>78</ele>
        <time>2025-02-11T09:03:37Z</time>
      </trkpt>
      <trkpt lat="47.80522" lon="-2.4133">
        <ele>78.1</ele>
        <time>2025-02-11T09:03:38Z</time>
      </trkpt>
      <trkpt lat="47.80522" lon="-2.41328">
        <ele>78.2</ele>
        <time>2025-02-11T09:03:39Z</time>
      </trkpt>
      <trkpt lat="47.80523" lon="-2.41326">
        <ele>78.2</ele>
        <time>2025-02-11T09:03:40Z</time>
      </trkpt>
      <trkpt lat="47.80523" lon="-2.41324">
        <ele>78.3</ele>
        <time>2025-02-11T09:03:41Z</time>
      </trkpt>
      <trkpt lat="47.80523" lon="-2.41323">
        <ele>78.3</ele>
        <time>2025-02-11T09:03:42Z</time>
      </trkpt>
      <trkpt lat="47.80523" lon="-2.41321">
        <ele>78.4</ele>
        <time>2025-02-11T09:03:43Z</time>
      </trkpt>
      <trkpt lat="47.80524" lon="-2.41319">
        <ele>78.4</ele>
        <time>2025-02-11T09:03:44Z</time>
      </trkpt>
      <trkpt lat="47.80524" lon="-2.41317">
        <ele>78.5</ele>
        <time>2025-02-11T09:03:45Z</time>
      </trkpt>
      <trkpt lat="47.80525" lon="-2.41316">
        <ele>78.6</ele>
        <time>2025-02-11T09:03:46Z</time>
      </trkpt>
      <trkpt lat="47.80525" lon="-2.41314">
        <ele>78.6</ele>
        <time>2025-02-11T09:03:47Z</time>
      </trkpt>
      <trkpt lat="47.80526" lon="-2.41312">
        <ele>78.7</ele>
        <time>2025-02-11T09:03:48Z</time>
      </trkpt>
      <trkpt lat="47.80526" lon="-2.41311">
        <ele>78.8</ele>
        <time>2025-02-11T09:03:49Z</time>
      </trkpt>
      <trkpt lat="47.80526" lon="-2.41309">
        <ele>78.8</ele>
        <time>2025-02-11T09:03:50Z</time>
      </trkpt>
      <trkpt lat="47.80526" lon="-2.41307">
        <ele>78.9</ele>
        <time>2025-02-11T09:03:51Z</time>
      </trkpt>
      <trkpt lat="47.80526" lon="-2.41305">
        <ele>78.9</ele>
        <time>2025-02-11T09:03:52Z</time>
      </trkpt>
      <trkpt lat="47.80527" lon="-2.41303">
        <ele>79</ele>
        <time>2025-02-11T09:03:53Z</time>
      </trkpt>
      <trkpt lat="47.80527" lon="-2.41302">
        <ele>79</ele>
        <time>2025-02-11T09:03:54Z</time>
      </trkpt>
      <trkpt lat="47.80527" lon="-2.413">
        <ele>79</ele>
        <time>2025-02-11T09:03:55Z</time>
      </trkpt>
      <trkpt lat="47.80527" lon="-2.41298">
        <ele>79</ele>
        <time>2025-02-11T09:03:56Z</time>
      </trkpt>
      <trkpt lat="47.80528" lon="-2.41296">
        <ele>79</ele>
        <time>2025-02-11T09:03:57Z</time>
      </trkpt>
      <trkpt lat="47.80528" lon="-2.41294">
        <ele>79</ele>
        <time>2025-02-11T09:03:58Z</time>
      </trkpt>
      <trkpt lat="47.80528" lon="-2.41293">
        <ele>79</ele>
        <time>2025-02-11T09:03:59Z</time>
      </trkpt>
      <trkpt lat="47.80528" lon="-2.41291">
        <ele>79</ele>
        <time>2025-02-11T09:04:00Z</time>
      </trkpt>
      <trkpt lat="47.80528" lon="-2.41289">
        <ele>79</ele>
        <time>2025-02-11T09:04:01Z</time>
      </trkpt>
      <trkpt lat="47.80529" lon="-2.41287">
        <ele>79</ele>
        <time>2025-02-11T09:04:02Z</time>
      </trkpt>
      <trkpt lat="47.80529" lon="-2.41286">
        <ele>79</ele>
        <time>2025-02-11T09:04:03Z</time>
      </trkpt>
      <trkpt lat="47.8053" lon="-2.41284">
        <ele>79</ele>
        <time>2025-02-11T09:04:04Z</time>
      </trkpt>
      <trkpt lat="47.8053" lon="-2.41282">
        <ele>79</ele>
        <time>2025-02-11T09:04:05Z</time>
      </trkpt>
      <trkpt lat="47.8053" lon="-2.4128">
        <ele>79</ele>
        <time>2025-02-11T09:04:06Z</time>
      </trkpt>
      <trkpt lat="47.80531" lon="-2.41279">
        <ele>79</ele>
        <time>2025-02-11T09:04:07Z</time>
      </trkpt>
      <trkpt lat="47.80531" lon="-2.41277">
        <ele>79</ele>
        <time>2025-02-11T09:04:08Z</time>
      </trkpt>
      <trkpt lat="47.80532" lon="-2.41275">
        <ele>79.1</ele>
        <time>2025-02-11T09:04:09Z</time>
      </trkpt>
      <trkpt lat="47.80532" lon="-2.41273">
        <ele>79.1</ele>
        <time>2025-02-11T09:04:10Z</time>
      </trkpt>
      <trkpt lat="47.80532" lon="-2.41271">
        <ele>79.2</ele>
        <time>2025-02-11T09:04:11Z</time>
      </trkpt>
      <trkpt lat="47.80532" lon="-2.41269">
        <ele>79.3</ele>
        <time>2025-02-11T09:04:12Z</time>
      </trkpt>
      <trkpt lat="47.80532" lon="-2.41267">
        <ele>79.3</ele>
        <time>2025-02-11T09:04:13Z</time>
      </trkpt>
      <trkpt lat="47.80532" lon="-2.41266">
        <ele>79.4</ele>
        <time>2025-02-11T09:04:14Z</time>
      </trkpt>
      <trkpt lat="47.80533" lon="-2.41264">
        <ele>79.4</ele>
        <time>2025-02-11T09:04:15Z</time>
      </trkpt>
      <trkpt lat="47.80533" lon="-2.41262">
        <ele>79.5</ele>
        <time>2025-02-11T09:04:16Z</time>
      </trkpt>
      <trkpt lat="47.80533" lon="-2.4126">
        <ele>79.5</ele>
        <time>2025-02-11T09:04:17Z</time>
      </trkpt>
      <trkpt lat="47.80533" lon="-2.41258">
        <ele>79.6</ele>
        <time>2025-02-11T09:04:18Z</time>
      </trkpt>
      <trkpt lat="47.80533" lon="-2.41256">
        <ele>79.6</ele>
        <time>2025-02-11T09:04:19Z</time>
      </trkpt>
      <trkpt lat="47.80534" lon="-2.41255">
        <ele>79.7</ele>
        <time>2025-02-11T09:04:20Z</time>
      </trkpt>
      <trkpt lat="47.80534" lon="-2.41253">
        <ele>79.7</ele>
        <time>2025-02-11T09:04:21Z</time>
      </trkpt>
      <trkpt lat="47.80534" lon="-2.41251">
        <ele>79.7</ele>
        <time>2025-02-11T09:04:22Z</time>
      </trkpt>
      <trkpt lat="47.80534" lon="-2.41249">
        <ele>79.8</ele>
        <time>2025-02-11T09:04:23Z</time>
      </trkpt>
      <trkpt lat="47.80535" lon="-2.41248">
        <ele>79.8</ele>
        <time>2025-02-11T09:04:24Z</time>
      </trkpt>
      <trkpt lat="47.80536" lon="-2.41246">
        <ele>79.8</ele>
        <time>2025-02-11T09:04:25Z</time>
      </trkpt>
      <trkpt lat="47.80536" lon="-2.41244">
        <ele>79.8</ele>
        <time>2025-02-11T09:04:26Z</time>
      </trkpt>
      <trkpt lat="47.80536" lon="-2.41242">
        <ele>79.8</ele>
        <time>2025-02-11T09:04:27Z</time>
      </trkpt>
      <trkpt lat="47.80537" lon="-2.4124">
        <ele>79.8</ele>
        <time>2025-02-11T09:04:28Z</time>
      </trkpt>
      <trkpt lat="47.80537" lon="-2.41238">
        <ele>79.8</ele>
        <time>2025-02-11T09:04:29Z</time>
      </trkpt>
      <trkpt lat="47.80537" lon="-2.41236">
        <ele>79.8</ele>
        <time>2025-02-11T09:04:30Z</time>
      </trkpt>
      <trkpt lat="47.80537" lon="-2.41234">
        <ele>79.9</ele>
        <time>2025-02-11T09:04:31Z</time>
      </trkpt>
      <trkpt lat="47.80537" lon="-2.41233">
        <ele>79.9</ele>
        <time>2025-02-11T09:04:32Z</time>
      </trkpt>
      <trkpt lat="47.80538" lon="-2.41231">
        <ele>79.9</ele>
        <time>2025-02-11T09:04:33Z</time>
      </trkpt>
      <trkpt lat="47.80538" lon="-2.41229">
        <ele>79.9</ele>
        <time>2025-02-11T09:04:34Z</time>
      </trkpt>
      <trkpt lat="47.80539" lon="-2.41227">
        <ele>79.9</ele>
        <time>2025-02-11T09:04:35Z</time>
      </trkpt>
      <trkpt lat="47.80539" lon="-2.41226">
        <ele>80</ele>
        <time>2025-02-11T09:04:36Z</time>
      </trkpt>
      <trkpt lat="47.80539" lon="-2.41224">
        <ele>80</ele>
        <time>2025-02-11T09:04:37Z</time>
      </trkpt>
      <trkpt lat="47.80539" lon="-2.41222">
        <ele>80</ele>
        <time>2025-02-11T09:04:38Z</time>
      </trkpt>
      <trkpt lat="47.80539" lon="-2.4122">
        <ele>80</ele>
        <time>2025-02-11T09:04:39Z</time>
      </trkpt>
      <trkpt lat="47.80539" lon="-2.41218">
        <ele>80</ele>
        <time>2025-02-11T09:04:40Z</time>
      </trkpt>
      <trkpt lat="47.80539" lon="-2.41216">
        <ele>80</ele>
        <time>2025-02-11T09:04:41Z</time>
      </trkpt>
      <trkpt lat="47.8054" lon="-2.41214">
        <ele>80</ele>
        <time>2025-02-11T09:04:42Z</time>
      </trkpt>
      <trkpt lat="47.8054" lon="-2.41213">
        <ele>80</ele>
        <time>2025-02-11T09:04:43Z</time>
      </trkpt>
      <trkpt lat="47.8054" lon="-2.41211">
        <ele>80</ele>
        <time>2025-02-11T09:04:44Z</time>
      </trkpt>
      <trkpt lat="47.80541" lon="-2.41209">
        <ele>80</ele>
        <time>2025-02-11T09:04:45Z</time>
      </trkpt>
      <trkpt lat="47.80541" lon="-2.41207">
        <ele>80</ele>
        <time>2025-02-11T09:04:46Z</time>
      </trkpt>
      <trkpt lat="47.80541" lon="-2.41205">
        <ele>80</ele>
        <time>2025-02-11T09:04:47Z</time>
      </trkpt>
      <trkpt lat="47.80541" lon="-2.41203">
        <ele>80</ele>
        <time>2025-02-11T09:04:48Z</time>
      </trkpt>
      <trkpt lat="47.80541" lon="-2.41202">
        <ele>80</ele>
        <time>2025-02-11T09:04:49Z</time>
      </trkpt>
      <trkpt lat="47.80542" lon="-2.412">
        <ele>80</ele>
        <time>2025-02-11T09:04:50Z</time>
      </trkpt>
      <trkpt lat="47.80542" lon="-2.41198">
        <ele>80</ele>
        <time>2025-02-11T09:04:51Z</time>
      </trkpt>
      <trkpt lat="47.80542" lon="-2.41197">
        <ele>80</ele>
        <time>2025-02-11T09:04:52Z</time>
      </trkpt>
      <trkpt lat="47.80543" lon="-2.41195">
        <ele>80</ele>
        <time>2025-02-11T09:04:53Z</time>
      </trkpt>
      <trkpt lat="47.80543" lon="-2.41193">
        <ele>80</ele>
        <time>2025-02-11T09:04:54Z</time>
      </trkpt>
      <trkpt lat="47.80544" lon="-2.41191">
        <ele>80</ele>
        <time>2025-02-11T09:04:55Z</time>
      </trkpt>
      <trkpt lat="47.80545" lon="-2.4119">
        <ele>80</ele>
        <time>2025-02-11T09:04:56Z</time>
      </trkpt>
      <trkpt lat="47.80545" lon="-2.41188">
        <ele>80</ele>
        <time>2025-02-11T09:04:57Z</time>
      </trkpt>
      <trkpt lat="47.80545" lon="-2.41186">
        <ele>80</ele>
        <time>2025-02-11T09:04:58Z</time>
      </trkpt>
      <trkpt lat="47.80545" lon="-2.41184">
        <ele>80</ele>
        <time>2025-02-11T09:04:59Z</time>
      </trkpt>
      <trkpt lat="47.80546" lon="-2.41182">
        <ele>80</ele>
        <time>2025-02-11T09:05:00Z</time>
      </trkpt>
      <trkpt lat="47.80546" lon="-2.4118">
        <ele>80</ele>
        <time>2025-02-11T09:05:01Z</time>
      </trkpt>
      <trkpt lat="47.80546" lon="-2.41178">
        <ele>80</ele>
        <time>2025-02-11T09:05:02Z</time>
      </trkpt>
      <trkpt lat="47.80546" lon="-2.41176">
        <ele>80</ele>
        <time>2025-02-11T09:05:03Z</time>
      </trkpt>
      <trkpt lat="47.80547" lon="-2.41174">
        <ele>80</ele>
        <time>2025-02-11T09:05:04Z</time>
      </trkpt>
      <trkpt lat="47.80547" lon="-2.41172">
        <ele>80</ele>
        <time>2025-02-11T09:05:05Z</time>
      </trkpt>
      <trkpt lat="47.80548" lon="-2.4117">
        <ele>80</ele>
        <time>2025-02-11T09:05:06Z</time>
      </trkpt>
      <trkpt lat="47.80548" lon="-2.41168">
        <ele>80</ele>
        <time>2025-02-11T09:05:07Z</time>
      </trkpt>
      <trkpt lat="47.80547" lon="-2.41166">
        <ele>80</ele>
        <time>2025-02-11T09:05:08Z</time>
      </trkpt>
      <trkpt lat="47.80547" lon="-2.41165">
        <ele>80</ele>
        <time>2025-02-11T09:05:09Z</time>
      </trkpt>
      <trkpt lat="47.80547" lon="-2.41163">
        <ele>80</ele>
        <time>2025-02-11T09:05:10Z</time>
      </trkpt>
      <trkpt lat="47.80547" lon="-2.41161">
        <ele>80</ele>
        <time>2025-02-11T09:05:11Z</time>
      </trkpt>
      <trkpt lat="47.80547" lon="-2.41159">
        <ele>80</ele>
        <time>2025-02-11T09:05:12Z</time>
      </trkpt>
      <trkpt lat="47.80547" lon="-2.41157">
        <ele>80</ele>
        <time>2025-02-11T09:05:13Z</time>
      </trkpt>
      <trkpt lat="47.80548" lon="-2.41156">
        <ele>80</ele>
        <time>2025-02-11T09:05:14Z</time>
      </trkpt>
      <trkpt lat="47.80548" lon="-2.41154">
        <ele>80</ele>
        <time>2025-02-11T09:05:15Z</time>
      </trkpt>
      <trkpt lat="47.80547" lon="-2.41152">
        <ele>80</ele>
        <time>2025-02-11T09:05:16Z</time>
      </trkpt>
      <trkpt lat="47.80546" lon="-2.41151">
        <ele>80</ele>
        <time>2025-02-11T09:05:17Z</time>
      </trkpt>
      <trkpt lat="47.80547" lon="-2.4115">
        <ele>80</ele>
        <time>2025-02-11T09:05:18Z</time>
      </trkpt>
      <trkpt lat="47.80548" lon="-2.41148">
        <ele>80</ele>
        <time>2025-02-11T09:05:19Z</time>
      </trkpt>
      <trkpt lat="47.80548" lon="-2.41146">
        <ele>80</ele>
        <time>2025-02-11T09:05:20Z</time>
      </trkpt>
      <trkpt lat="47.80548" lon="-2.41144">
        <ele>80</ele>
        <time>2025-02-11T09:05:21Z</time>
      </trkpt>
      <trkpt lat="47.80548" lon="-2.41142">
        <ele>80</ele>
        <time>2025-02-11T09:05:22Z</time>
      </trkpt>
      <trkpt lat="47.80548" lon="-2.41141">
        <ele>80</ele>
        <time>2025-02-11T09:05:23Z</time>
      </trkpt>
      <trkpt lat="47.80547" lon="-2.41139">
        <ele>80</ele>
        <time>2025-02-11T09:05:24Z</time>
      </trkpt>
      <trkpt lat="47.80547" lon="-2.41137">
        <ele>80</ele>
        <time>2025-02-11T09:05:25Z</time>
      </trkpt>
      <trkpt lat="47.80547" lon="-2.41136">
        <ele>79.9</ele>
        <time>2025-02-11T09:05:26Z</time>
      </trkpt>
      <trkpt lat="47.80546" lon="-2.41134">
        <ele>79.9</ele>
        <time>2025-02-11T09:05:27Z</time>
      </trkpt>
      <trkpt lat="47.80546" lon="-2.41132">
        <ele>79.8</ele>
        <time>2025-02-11T09:05:28Z</time>
      </trkpt>
      <trkpt lat="47.80547" lon="-2.4113">
        <ele>79.8</ele>
        <time>2025-02-11T09:05:29Z</time>
      </trkpt>
      <trkpt lat="47.80547" lon="-2.41128">
        <ele>79.7</ele>
        <time>2025-02-11T09:05:30Z</time>
      </trkpt>
      <trkpt lat="47.80547" lon="-2.41127">
        <ele>79.7</ele>
        <time>2025-02-11T09:05:31Z</time>
      </trkpt>
      <trkpt lat="47.80547" lon="-2.41125">
        <ele>79.6</ele>
        <time>2025-02-11T09:05:32Z</time>
      </trkpt>
      <trkpt lat="47.80548" lon="-2.41123">
        <ele>79.6</ele>
        <time>2025-02-11T09:05:33Z</time>
      </trkpt>
      <trkpt lat="47.80548" lon="-2.41121">
        <ele>79.5</ele>
        <time>2025-02-11T09:05:34Z</time>
      </trkpt>
      <trkpt lat="47.80549" lon="-2.4112">
        <ele>79.5</ele>
        <time>2025-02-11T09:05:35Z</time>
      </trkpt>
      <trkpt lat="47.80549" lon="-2.41118">
        <ele>79.4</ele>
        <time>2025-02-11T09:05:36Z</time>
      </trkpt>
      <trkpt lat="47.8055" lon="-2.41116">
        <ele>79.4</ele>
        <time>2025-02-11T09:05:37Z</time>
      </trkpt>
      <trkpt lat="47.8055" lon="-2.41114">
        <ele>79.3</ele>
        <time>2025-02-11T09:05:38Z</time>
      </trkpt>
      <trkpt lat="47.8055" lon="-2.41112">
        <ele>79.2</ele>
        <time>2025-02-11T09:05:39Z</time>
      </trkpt>
      <trkpt lat="47.80551" lon="-2.41111">
        <ele>79.2</ele>
        <time>2025-02-11T09:05:40Z</time>
      </trkpt>
      <trkpt lat="47.80551" lon="-2.41109">
        <ele>79.2</ele>
        <time>2025-02-11T09:05:41Z</time>
      </trkpt>
      <trkpt lat="47.80551" lon="-2.41107">
        <ele>79.2</ele>
        <time>2025-02-11T09:05:42Z</time>
      </trkpt>
      <trkpt lat="47.80552" lon="-2.41105">
        <ele>79.2</ele>
        <time>2025-02-11T09:05:43Z</time>
      </trkpt>
      <trkpt lat="47.80552" lon="-2.41103">
        <ele>79.2</ele>
        <time>2025-02-11T09:05:44Z</time>
      </trkpt>
      <trkpt lat="47.80552" lon="-2.41101">
        <ele>79.2</ele>
        <time>2025-02-11T09:05:45Z</time>
      </trkpt>
      <trkpt lat="47.80552" lon="-2.41099">
        <ele>79.2</ele>
        <time>2025-02-11T09:05:46Z</time>
      </trkpt>
      <trkpt lat="47.80553" lon="-2.41098">
        <ele>79.1</ele>
        <time>2025-02-11T09:05:47Z</time>
      </trkpt>
      <trkpt lat="47.80553" lon="-2.41096">
        <ele>79.1</ele>
        <time>2025-02-11T09:05:48Z</time>
      </trkpt>
      <trkpt lat="47.80553" lon="-2.41094">
        <ele>79.1</ele>
        <time>2025-02-11T09:05:49Z</time>
      </trkpt>
      <trkpt lat="47.80554" lon="-2.41092">
        <ele>79.1</ele>
        <time>2025-02-11T09:05:50Z</time>
      </trkpt>
      <trkpt lat="47.80554" lon="-2.41091">
        <ele>79.1</ele>
        <time>2025-02-11T09:05:51Z</time>
      </trkpt>
      <trkpt lat="47.80554" lon="-2.41089">
        <ele>79.1</ele>
        <time>2025-02-11T09:05:52Z</time>
      </trkpt>
      <trkpt lat="47.80555" lon="-2.41088">
        <ele>79.1</ele>
        <time>2025-02-11T09:05:53Z</time>
      </trkpt>
      <trkpt lat="47.80555" lon="-2.41086">
        <ele>79</ele>
        <time>2025-02-11T09:05:54Z</time>
      </trkpt>
      <trkpt lat="47.80556" lon="-2.41084">
        <ele>79</ele>
        <time>2025-02-11T09:05:55Z</time>
      </trkpt>
      <trkpt lat="47.80556" lon="-2.41082">
        <ele>79</ele>
        <time>2025-02-11T09:05:56Z</time>
      </trkpt>
      <trkpt lat="47.80556" lon="-2.41081">
        <ele>79.1</ele>
        <time>2025-02-11T09:05:57Z</time>
      </trkpt>
      <trkpt lat="47.80556" lon="-2.41079">
        <ele>79.1</ele>
        <time>2025-02-11T09:05:58Z</time>
      </trkpt>
      <trkpt lat="47.80556" lon="-2.41077">
        <ele>79.2</ele>
        <time>2025-02-11T09:05:59Z</time>
      </trkpt>
      <trkpt lat="47.80557" lon="-2.41076">
        <ele>79.2</ele>
        <time>2025-02-11T09:06:00Z</time>
      </trkpt>
      <trkpt lat="47.80557" lon="-2.41074">
        <ele>79.3</ele>
        <time>2025-02-11T09:06:01Z</time>
      </trkpt>
      <trkpt lat="47.80559" lon="-2.41072">
        <ele>79.2</ele>
        <time>2025-02-11T09:06:02Z</time>
      </trkpt>
      <trkpt lat="47.8056" lon="-2.41071">
        <ele>79.2</ele>
        <time>2025-02-11T09:06:03Z</time>
      </trkpt>
      <trkpt lat="47.80559" lon="-2.41068">
        <ele>79.3</ele>
        <time>2025-02-11T09:06:04Z</time>
      </trkpt>
      <trkpt lat="47.80559" lon="-2.41066">
        <ele>79.4</ele>
        <time>2025-02-11T09:06:05Z</time>
      </trkpt>
      <trkpt lat="47.80559" lon="-2.41064">
        <ele>79.5</ele>
        <time>2025-02-11T09:06:06Z</time>
      </trkpt>
      <trkpt lat="47.8056" lon="-2.41062">
        <ele>79.5</ele>
        <time>2025-02-11T09:06:07Z</time>
      </trkpt>
      <trkpt lat="47.8056" lon="-2.4106">
        <ele>79.6</ele>
        <time>2025-02-11T09:06:08Z</time>
      </trkpt>
      <trkpt lat="47.8056" lon="-2.41057">
        <ele>79.6</ele>
        <time>2025-02-11T09:06:09Z</time>
      </trkpt>
      <trkpt lat="47.8056" lon="-2.41055">
        <ele>79.7</ele>
        <time>2025-02-11T09:06:10Z</time>
      </trkpt>
      <trkpt lat="47.8056" lon="-2.41053">
        <ele>79.7</ele>
        <time>2025-02-11T09:06:11Z</time>
      </trkpt>
      <trkpt lat="47.80561" lon="-2.41051">
        <ele>79.6</ele>
        <time>2025-02-11T09:06:12Z</time>
      </trkpt>
      <trkpt lat="47.80561" lon="-2.41048">
        <ele>79.6</ele>
        <time>2025-02-11T09:06:13Z</time>
      </trkpt>
      <trkpt lat="47.80562" lon="-2.41046">
        <ele>79.5</ele>
        <time>2025-02-11T09:06:14Z</time>
      </trkpt>
      <trkpt lat="47.80562" lon="-2.41044">
        <ele>79.5</ele>
        <time>2025-02-11T09:06:15Z</time>
      </trkpt>
      <trkpt lat="47.80563" lon="-2.41043">
        <ele>79.5</ele>
        <time>2025-02-11T09:06:16Z</time>
      </trkpt>
      <trkpt lat="47.80563" lon="-2.4104">
        <ele>79.5</ele>
        <time>2025-02-11T09:06:17Z</time>
      </trkpt>
      <trkpt lat="47.80563" lon="-2.41038">
        <ele>79.5</ele>
        <time>2025-02-11T09:06:18Z</time>
      </trkpt>
      <trkpt lat="47.80564" lon="-2.41036">
        <ele>79.4</ele>
        <time>2025-02-11T09:06:19Z</time>
      </trkpt>
      <trkpt lat="47.80564" lon="-2.41034">
        <ele>79.4</ele>
        <time>2025-02-11T09:06:20Z</time>
      </trkpt>
      <trkpt lat="47.80564" lon="-2.41032">
        <ele>79.4</ele>
        <time>2025-02-11T09:06:21Z</time>
      </trkpt>
      <trkpt lat="47.80565" lon="-2.4103">
        <ele>79.3</ele>
        <time>2025-02-11T09:06:22Z</time>
      </trkpt>
      <trkpt lat="47.80565" lon="-2.41029">
        <ele>79.3</ele>
        <time>2025-02-11T09:06:23Z</time>
      </trkpt>
      <trkpt lat="47.80566" lon="-2.41027">
        <ele>79.3</ele>
        <time>2025-02-11T09:06:24Z</time>
      </trkpt>
      <trkpt lat="47.80566" lon="-2.41025">
        <ele>79.3</ele>
        <time>2025-02-11T09:06:25Z</time>
      </trkpt>
      <trkpt lat="47.80565" lon="-2.41023">
        <ele>79.3</ele>
        <time>2025-02-11T09:06:26Z</time>
      </trkpt>
      <trkpt lat="47.80566" lon="-2.41021">
        <ele>79.3</ele>
        <time>2025-02-11T09:06:27Z</time>
      </trkpt>
      <trkpt lat="47.80566" lon="-2.4102">
        <ele>79.2</ele>
        <time>2025-02-11T09:06:28Z</time>
      </trkpt>
      <trkpt lat="47.80566" lon="-2.41018">
        <ele>79.2</ele>
        <time>2025-02-11T09:06:29Z</time>
      </trkpt>
      <trkpt lat="47.80566" lon="-2.41016">
        <ele>79.2</ele>
        <time>2025-02-11T09:06:30Z</time>
      </trkpt>
      <trkpt lat="47.80566" lon="-2.41014">
        <ele>79.2</ele>
        <time>2025-02-11T09:06:31Z</time>
      </trkpt>
      <trkpt lat="47.80566" lon="-2.41013">
        <ele>79.2</ele>
        <time>2025-02-11T09:06:32Z</time>
      </trkpt>
      <trkpt lat="47.80567" lon="-2.41011">
        <ele>79.2</ele>
        <time>2025-02-11T09:06:33Z</time>
      </trkpt>
      <trkpt lat="47.80567" lon="-2.41009">
        <ele>79.2</ele>
        <time>2025-02-11T09:06:34Z</time>
      </trkpt>
      <trkpt lat="47.80568" lon="-2.41007">
        <ele>79.1</ele>
        <time>2025-02-11T09:06:35Z</time>
      </trkpt>
      <trkpt lat="47.80569" lon="-2.41005">
        <ele>79.1</ele>
        <time>2025-02-11T09:06:36Z</time>
      </trkpt>
      <trkpt lat="47.80569" lon="-2.41004">
        <ele>79</ele>
        <time>2025-02-11T09:06:37Z</time>
      </trkpt>
      <trkpt lat="47.80569" lon="-2.41002">
        <ele>79</ele>
        <time>2025-02-11T09:06:38Z</time>
      </trkpt>
      <trkpt lat="47.8057" lon="-2.41">
        <ele>79</ele>
        <time>2025-02-11T09:06:39Z</time>
      </trkpt>
      <trkpt lat="47.8057" lon="-2.40998">
        <ele>79</ele>
        <time>2025-02-11T09:06:40Z</time>
      </trkpt>
      <trkpt lat="47.80571" lon="-2.40996">
        <ele>79</ele>
        <time>2025-02-11T09:06:41Z</time>
      </trkpt>
      <trkpt lat="47.80571" lon="-2.40994">
        <ele>79</ele>
        <time>2025-02-11T09:06:42Z</time>
      </trkpt>
      <trkpt lat="47.8057" lon="-2.40992">
        <ele>79.1</ele>
        <time>2025-02-11T09:06:43Z</time>
      </trkpt>
      <trkpt lat="47.80571" lon="-2.4099">
        <ele>79.1</ele>
        <time>2025-02-11T09:06:44Z</time>
      </trkpt>
      <trkpt lat="47.80571" lon="-2.40988">
        <ele>79.1</ele>
        <time>2025-02-11T09:06:45Z</time>
      </trkpt>
      <trkpt lat="47.80572" lon="-2.40987">
        <ele>79.1</ele>
        <time>2025-02-11T09:06:46Z</time>
      </trkpt>
      <trkpt lat="47.80573" lon="-2.40985">
        <ele>79.1</ele>
        <time>2025-02-11T09:06:47Z</time>
      </trkpt>
      <trkpt lat="47.80573" lon="-2.40983">
        <ele>79.1</ele>
        <time>2025-02-11T09:06:48Z</time>
      </trkpt>
      <trkpt lat="47.80574" lon="-2.40982">
        <ele>79.1</ele>
        <time>2025-02-11T09:06:49Z</time>
      </trkpt>
      <trkpt lat="47.80574" lon="-2.4098">
        <ele>79.2</ele>
        <time>2025-02-11T09:06:50Z</time>
      </trkpt>
      <trkpt lat="47.80574" lon="-2.40978">
        <ele>79.2</ele>
        <time>2025-02-11T09:06:51Z</time>
      </trkpt>
      <trkpt lat="47.80575" lon="-2.40976">
        <ele>79.2</ele>
        <time>2025-02-11T09:06:52Z</time>
      </trkpt>
      <trkpt lat="47.80575" lon="-2.40974">
        <ele>79.3</ele>
        <time>2025-02-11T09:06:53Z</time>
      </trkpt>
      <trkpt lat="47.80575" lon="-2.40973">
        <ele>79.3</ele>
        <time>2025-02-11T09:06:54Z</time>
      </trkpt>
      <trkpt lat="47.80575" lon="-2.40971">
        <ele>79.3</ele>
        <time>2025-02-11T09:06:55Z</time>
      </trkpt>
      <trkpt lat="47.80575" lon="-2.40969">
        <ele>79.3</ele>
        <time>2025-02-11T09:06:56Z</time>
      </trkpt>
      <trkpt lat="47.80576" lon="-2.40967">
        <ele>79.3</ele>
        <time>2025-02-11T09:06:57Z</time>
      </trkpt>
      <trkpt lat="47.80576" lon="-2.40966">
        <ele>79.3</ele>
        <time>2025-02-11T09:06:58Z</time>
      </trkpt>
      <trkpt lat="47.80577" lon="-2.40964">
        <ele>79.2</ele>
        <time>2025-02-11T09:06:59Z</time>
      </trkpt>
      <trkpt lat="47.80577" lon="-2.40962">
        <ele>79.2</ele>
        <time>2025-02-11T09:07:00Z</time>
      </trkpt>
      <trkpt lat="47.80577" lon="-2.4096">
        <ele>79.2</ele>
        <time>2025-02-11T09:07:01Z</time>
      </trkpt>
      <trkpt lat="47.80577" lon="-2.40958">
        <ele>79.2</ele>
        <time>2025-02-11T09:07:02Z</time>
      </trkpt>
      <trkpt lat="47.80577" lon="-2.40956">
        <ele>79.2</ele>
        <time>2025-02-11T09:07:03Z</time>
      </trkpt>
      <trkpt lat="47.80578" lon="-2.40954">
        <ele>79.2</ele>
        <time>2025-02-11T09:07:04Z</time>
      </trkpt>
      <trkpt lat="47.80578" lon="-2.40952">
        <ele>79.2</ele>
        <time>2025-02-11T09:07:05Z</time>
      </trkpt>
      <trkpt lat="47.80578" lon="-2.4095">
        <ele>79.2</ele>
        <time>2025-02-11T09:07:06Z</time>
      </trkpt>
      <trkpt lat="47.80579" lon="-2.40948">
        <ele>79.2</ele>
        <time>2025-02-11T09:07:07Z</time>
      </trkpt>
      <trkpt lat="47.80579" lon="-2.40946">
        <ele>79.2</ele>
        <time>2025-02-11T09:07:08Z</time>
      </trkpt>
      <trkpt lat="47.80579" lon="-2.40944">
        <ele>79.2</ele>
        <time>2025-02-11T09:07:09Z</time>
      </trkpt>
      <trkpt lat="47.80579" lon="-2.40942">
        <ele>79.2</ele>
        <time>2025-02-11T09:07:10Z</time>
      </trkpt>
      <trkpt lat="47.80579" lon="-2.4094">
        <ele>79.2</ele>
        <time>2025-02-11T09:07:11Z</time>
      </trkpt>
      <trkpt lat="47.8058" lon="-2.40938">
        <ele>79.1</ele>
        <time>2025-02-11T09:07:12Z</time>
      </trkpt>
      <trkpt lat="47.8058" lon="-2.40936">
        <ele>79.1</ele>
        <time>2025-02-11T09:07:13Z</time>
      </trkpt>
      <trkpt lat="47.80581" lon="-2.40935">
        <ele>79.1</ele>
        <time>2025-02-11T09:07:14Z</time>
      </trkpt>
      <trkpt lat="47.80581" lon="-2.40933">
        <ele>79.1</ele>
        <time>2025-02-11T09:07:15Z</time>
      </trkpt>
      <trkpt lat="47.80582" lon="-2.40931">
        <ele>79</ele>
        <time>2025-02-11T09:07:16Z</time>
      </trkpt>
      <trkpt lat="47.80583" lon="-2.4093">
        <ele>79</ele>
        <time>2025-02-11T09:07:17Z</time>
      </trkpt>
      <trkpt lat="47.80583" lon="-2.40928">
        <ele>79</ele>
        <time>2025-02-11T09:07:18Z</time>
      </trkpt>
      <trkpt lat="47.80584" lon="-2.40926">
        <ele>79</ele>
        <time>2025-02-11T09:07:19Z</time>
      </trkpt>
      <trkpt lat="47.80583" lon="-2.40925">
        <ele>79</ele>
        <time>2025-02-11T09:07:20Z</time>
      </trkpt>
      <trkpt lat="47.80583" lon="-2.40923">
        <ele>79</ele>
        <time>2025-02-11T09:07:21Z</time>
      </trkpt>
      <trkpt lat="47.80583" lon="-2.40921">
        <ele>79</ele>
        <time>2025-02-11T09:07:22Z</time>
      </trkpt>
      <trkpt lat="47.80584" lon="-2.4092">
        <ele>79</ele>
        <time>2025-02-11T09:07:23Z</time>
      </trkpt>
      <trkpt lat="47.80584" lon="-2.40918">
        <ele>78.9</ele>
        <time>2025-02-11T09:07:24Z</time>
      </trkpt>
      <trkpt lat="47.80585" lon="-2.40917">
        <ele>78.9</ele>
        <time>2025-02-11T09:07:25Z</time>
      </trkpt>
      <trkpt lat="47.80585" lon="-2.40916">
        <ele>78.9</ele>
        <time>2025-02-11T09:07:26Z</time>
      </trkpt>
      <trkpt lat="47.80586" lon="-2.40914">
        <ele>78.8</ele>
        <time>2025-02-11T09:07:27Z</time>
      </trkpt>
      <trkpt lat="47.80586" lon="-2.40912">
        <ele>78.8</ele>
        <time>2025-02-11T09:07:28Z</time>
      </trkpt>
      <trkpt lat="47.80586" lon="-2.4091">
        <ele>78.8</ele>
        <time>2025-02-11T09:07:29Z</time>
      </trkpt>
      <trkpt lat="47.80587" lon="-2.40908">
        <ele>78.8</ele>
        <time>2025-02-11T09:07:30Z</time>
      </trkpt>
      <trkpt lat="47.80587" lon="-2.40906">
        <ele>78.8</ele>
        <time>2025-02-11T09:07:31Z</time>
      </trkpt>
      <trkpt lat="47.80587" lon="-2.40904">
        <ele>78.8</ele>
        <time>2025-02-11T09:07:32Z</time>
      </trkpt>
      <trkpt lat="47.80587" lon="-2.40902">
        <ele>78.8</ele>
        <time>2025-02-11T09:07:33Z</time>
      </trkpt>
      <trkpt lat="47.80588" lon="-2.40901">
        <ele>78.8</ele>
        <time>2025-02-11T09:07:34Z</time>
      </trkpt>
      <trkpt lat="47.80588" lon="-2.40899">
        <ele>78.8</ele>
        <time>2025-02-11T09:07:35Z</time>
      </trkpt>
      <trkpt lat="47.80589" lon="-2.40897">
        <ele>78.7</ele>
        <time>2025-02-11T09:07:36Z</time>
      </trkpt>
      <trkpt lat="47.80589" lon="-2.40895">
        <ele>78.7</ele>
        <time>2025-02-11T09:07:37Z</time>
      </trkpt>
      <trkpt lat="47.8059" lon="-2.40894">
        <ele>78.7</ele>
        <time>2025-02-11T09:07:38Z</time>
      </trkpt>
      <trkpt lat="47.80591" lon="-2.40892">
        <ele>78.7</ele>
        <time>2025-02-11T09:07:39Z</time>
      </trkpt>
      <trkpt lat="47.80592" lon="-2.40891">
        <ele>78.7</ele>
        <time>2025-02-11T09:07:40Z</time>
      </trkpt>
      <trkpt lat="47.80593" lon="-2.4089">
        <ele>78.7</ele>
        <time>2025-02-11T09:07:41Z</time>
      </trkpt>
      <trkpt lat="47.80592" lon="-2.40887">
        <ele>78.7</ele>
        <time>2025-02-11T09:07:42Z</time>
      </trkpt>
      <trkpt lat="47.80592" lon="-2.40885">
        <ele>78.7</ele>
        <time>2025-02-11T09:07:43Z</time>
      </trkpt>
      <trkpt lat="47.80592" lon="-2.40884">
        <ele>78.7</ele>
        <time>2025-02-11T09:07:44Z</time>
      </trkpt>
      <trkpt lat="47.80593" lon="-2.40882">
        <ele>78.7</ele>
        <time>2025-02-11T09:07:45Z</time>
      </trkpt>
      <trkpt lat="47.80593" lon="-2.4088">
        <ele>78.6</ele>
        <time>2025-02-11T09:07:46Z</time>
      </trkpt>
      <trkpt lat="47.80594" lon="-2.40878">
        <ele>78.6</ele>
        <time>2025-02-11T09:07:47Z</time>
      </trkpt>
      <trkpt lat="47.80594" lon="-2.40877">
        <ele>78.6</ele>
        <time>2025-02-11T09:07:48Z</time>
      </trkpt>
      <trkpt lat="47.80594" lon="-2.40875">
        <ele>78.6</ele>
        <time>2025-02-11T09:07:49Z</time>
      </trkpt>
      <trkpt lat="47.80595" lon="-2.40873">
        <ele>78.6</ele>
        <time>2025-02-11T09:07:50Z</time>
      </trkpt>
      <trkpt lat="47.80595" lon="-2.40872">
        <ele>78.6</ele>
        <time>2025-02-11T09:07:51Z</time>
      </trkpt>
      <trkpt lat="47.80595" lon="-2.4087">
        <ele>78.6</ele>
        <time>2025-02-11T09:07:52Z</time>
      </trkpt>
      <trkpt lat="47.80596" lon="-2.40868">
        <ele>78.6</ele>
        <time>2025-02-11T09:07:53Z</time>
      </trkpt>
      <trkpt lat="47.80596" lon="-2.40867">
        <ele>78.6</ele>
        <time>2025-02-11T09:07:54Z</time>
      </trkpt>
      <trkpt lat="47.80596" lon="-2.40865">
        <ele>78.6</ele>
        <time>2025-02-11T09:07:55Z</time>
      </trkpt>
      <trkpt lat="47.80596" lon="-2.40863">
        <ele>78.5</ele>
        <time>2025-02-11T09:07:56Z</time>
      </trkpt>
      <trkpt lat="47.80597" lon="-2.40861">
        <ele>78.5</ele>
        <time>2025-02-11T09:07:57Z</time>
      </trkpt>
      <trkpt lat="47.80597" lon="-2.40859">
        <ele>78.5</ele>
        <time>2025-02-11T09:07:58Z</time>
      </trkpt>
      <trkpt lat="47.80598" lon="-2.40857">
        <ele>78.5</ele>
        <time>2025-02-11T09:07:59Z</time>
      </trkpt>
      <trkpt lat="47.80598" lon="-2.40855">
        <ele>78.5</ele>
        <time>2025-02-11T09:08:00Z</time>
      </trkpt>
      <trkpt lat="47.80598" lon="-2.40853">
        <ele>78.5</ele>
        <time>2025-02-11T09:08:01Z</time>
      </trkpt>
      <trkpt lat="47.80598" lon="-2.40851">
        <ele>78.5</ele>
        <time>2025-02-11T09:08:02Z</time>
      </trkpt>
      <trkpt lat="47.80599" lon="-2.40849">
        <ele>78.4</ele>
        <time>2025-02-11T09:08:03Z</time>
      </trkpt>
      <trkpt lat="47.80599" lon="-2.40847">
        <ele>78.4</ele>
        <time>2025-02-11T09:08:04Z</time>
      </trkpt>
      <trkpt lat="47.806" lon="-2.40846">
        <ele>78.4</ele>
        <time>2025-02-11T09:08:05Z</time>
      </trkpt>
      <trkpt lat="47.806" lon="-2.40844">
        <ele>78.4</ele>
        <time>2025-02-11T09:08:06Z</time>
      </trkpt>
      <trkpt lat="47.806" lon="-2.40842">
        <ele>78.4</ele>
        <time>2025-02-11T09:08:07Z</time>
      </trkpt>
      <trkpt lat="47.806" lon="-2.4084">
        <ele>78.4</ele>
        <time>2025-02-11T09:08:08Z</time>
      </trkpt>
      <trkpt lat="47.80601" lon="-2.40839">
        <ele>78.4</ele>
        <time>2025-02-11T09:08:09Z</time>
      </trkpt>
      <trkpt lat="47.80601" lon="-2.40837">
        <ele>78.4</ele>
        <time>2025-02-11T09:08:10Z</time>
      </trkpt>
      <trkpt lat="47.80601" lon="-2.40835">
        <ele>78.3</ele>
        <time>2025-02-11T09:08:11Z</time>
      </trkpt>
      <trkpt lat="47.80602" lon="-2.40833">
        <ele>78.3</ele>
        <time>2025-02-11T09:08:12Z</time>
      </trkpt>
      <trkpt lat="47.80602" lon="-2.40831">
        <ele>78.2</ele>
        <time>2025-02-11T09:08:13Z</time>
      </trkpt>
      <trkpt lat="47.80602" lon="-2.40829">
        <ele>78.2</ele>
        <time>2025-02-11T09:08:14Z</time>
      </trkpt>
      <trkpt lat="47.80603" lon="-2.40827">
        <ele>78.1</ele>
        <time>2025-02-11T09:08:15Z</time>
      </trkpt>
      <trkpt lat="47.80603" lon="-2.40825">
        <ele>78</ele>
        <time>2025-02-11T09:08:16Z</time>
      </trkpt>
      <trkpt lat="47.80603" lon="-2.40823">
        <ele>77.9</ele>
        <time>2025-02-11T09:08:17Z</time>
      </trkpt>
      <trkpt lat="47.80604" lon="-2.40822">
        <ele>77.8</ele>
        <time>2025-02-11T09:08:18Z</time>
      </trkpt>
      <trkpt lat="47.80604" lon="-2.4082">
        <ele>77.8</ele>
        <time>2025-02-11T09:08:19Z</time>
      </trkpt>
      <trkpt lat="47.80604" lon="-2.40818">
        <ele>77.7</ele>
        <time>2025-02-11T09:08:20Z</time>
      </trkpt>
      <trkpt lat="47.80604" lon="-2.40816">
        <ele>77.6</ele>
        <time>2025-02-11T09:08:21Z</time>
      </trkpt>
      <trkpt lat="47.80604" lon="-2.40814">
        <ele>77.6</ele>
        <time>2025-02-11T09:08:22Z</time>
      </trkpt>
      <trkpt lat="47.80605" lon="-2.40812">
        <ele>77.5</ele>
        <time>2025-02-11T09:08:23Z</time>
      </trkpt>
      <trkpt lat="47.80605" lon="-2.4081">
        <ele>77.4</ele>
        <time>2025-02-11T09:08:24Z</time>
      </trkpt>
      <trkpt lat="47.80606" lon="-2.40809">
        <ele>77.3</ele>
        <time>2025-02-11T09:08:25Z</time>
      </trkpt>
      <trkpt lat="47.80606" lon="-2.40807">
        <ele>77.2</ele>
        <time>2025-02-11T09:08:26Z</time>
      </trkpt>
      <trkpt lat="47.80606" lon="-2.40805">
        <ele>77.2</ele>
        <time>2025-02-11T09:08:27Z</time>
      </trkpt>
      <trkpt lat="47.80607" lon="-2.40804">
        <ele>77.1</ele>
        <time>2025-02-11T09:08:28Z</time>
      </trkpt>
      <trkpt lat="47.80608" lon="-2.40802">
        <ele>77</ele>
        <time>2025-02-11T09:08:29Z</time>
      </trkpt>
      <trkpt lat="47.80607" lon="-2.408">
        <ele>76.9</ele>
        <time>2025-02-11T09:08:30Z</time>
      </trkpt>
      <trkpt lat="47.80607" lon="-2.40798">
        <ele>76.9</ele>
        <time>2025-02-11T09:08:31Z</time>
      </trkpt>
      <trkpt lat="47.80607" lon="-2.40797">
        <ele>76.8</ele>
        <time>2025-02-11T09:08:32Z</time>
      </trkpt>
      <trkpt lat="47.80606" lon="-2.40795">
        <ele>76.8</ele>
        <time>2025-02-11T09:08:33Z</time>
      </trkpt>
      <trkpt lat="47.80607" lon="-2.40792">
        <ele>76.7</ele>
        <time>2025-02-11T09:08:34Z</time>
      </trkpt>
      <trkpt lat="47.80607" lon="-2.4079">
        <ele>76.6</ele>
        <time>2025-02-11T09:08:35Z</time>
      </trkpt>
      <trkpt lat="47.80607" lon="-2.40788">
        <ele>76.5</ele>
        <time>2025-02-11T09:08:36Z</time>
      </trkpt>
      <trkpt lat="47.80608" lon="-2.40787">
        <ele>76.4</ele>
        <time>2025-02-11T09:08:37Z</time>
      </trkpt>
      <trkpt lat="47.80608" lon="-2.40785">
        <ele>76.4</ele>
        <time>2025-02-11T09:08:38Z</time>
      </trkpt>
      <trkpt lat="47.80609" lon="-2.40784">
        <ele>76.3</ele>
        <time>2025-02-11T09:08:39Z</time>
      </trkpt>
      <trkpt lat="47.80609" lon="-2.40782">
        <ele>76.2</ele>
        <time>2025-02-11T09:08:40Z</time>
      </trkpt>
      <trkpt lat="47.8061" lon="-2.40781">
        <ele>76.2</ele>
        <time>2025-02-11T09:08:41Z</time>
      </trkpt>
      <trkpt lat="47.80611" lon="-2.40779">
        <ele>76.1</ele>
        <time>2025-02-11T09:08:42Z</time>
      </trkpt>
      <trkpt lat="47.8061" lon="-2.40777">
        <ele>76</ele>
        <time>2025-02-11T09:08:43Z</time>
      </trkpt>
      <trkpt lat="47.80611" lon="-2.40775">
        <ele>75.9</ele>
        <time>2025-02-11T09:08:44Z</time>
      </trkpt>
      <trkpt lat="47.80611" lon="-2.40773">
        <ele>75.8</ele>
        <time>2025-02-11T09:08:45Z</time>
      </trkpt>
      <trkpt lat="47.80611" lon="-2.40771">
        <ele>75.8</ele>
        <time>2025-02-11T09:08:46Z</time>
      </trkpt>
      <trkpt lat="47.80612" lon="-2.40769">
        <ele>75.7</ele>
        <time>2025-02-11T09:08:47Z</time>
      </trkpt>
      <trkpt lat="47.80612" lon="-2.40767">
        <ele>75.6</ele>
        <time>2025-02-11T09:08:48Z</time>
      </trkpt>
      <trkpt lat="47.80612" lon="-2.40765">
        <ele>75.5</ele>
        <time>2025-02-11T09:08:49Z</time>
      </trkpt>
      <trkpt lat="47.80613" lon="-2.40764">
        <ele>75.4</ele>
        <time>2025-02-11T09:08:50Z</time>
      </trkpt>
      <trkpt lat="47.80613" lon="-2.40761">
        <ele>75.3</ele>
        <time>2025-02-11T09:08:51Z</time>
      </trkpt>
      <trkpt lat="47.80613" lon="-2.40759">
        <ele>75.3</ele>
        <time>2025-02-11T09:08:52Z</time>
      </trkpt>
      <trkpt lat="47.80613" lon="-2.40757">
        <ele>75.2</ele>
        <time>2025-02-11T09:08:53Z</time>
      </trkpt>
      <trkpt lat="47.80613" lon="-2.40755">
        <ele>75.1</ele>
        <time>2025-02-11T09:08:54Z</time>
      </trkpt>
      <trkpt lat="47.80613" lon="-2.40753">
        <ele>75</ele>
        <time>2025-02-11T09:08:55Z</time>
      </trkpt>
      <trkpt lat="47.80614" lon="-2.40751">
        <ele>75</ele>
        <time>2025-02-11T09:08:56Z</time>
      </trkpt>
      <trkpt lat="47.80614" lon="-2.40749">
        <ele>74.9</ele>
        <time>2025-02-11T09:08:57Z</time>
      </trkpt>
      <trkpt lat="47.80614" lon="-2.40747">
        <ele>74.9</ele>
        <time>2025-02-11T09:08:58Z</time>
      </trkpt>
      <trkpt lat="47.80615" lon="-2.40746">
        <ele>74.8</ele>
        <time>2025-02-11T09:08:59Z</time>
      </trkpt>
      <trkpt lat="47.80615" lon="-2.40744">
        <ele>74.8</ele>
        <time>2025-02-11T09:09:00Z</time>
      </trkpt>
      <trkpt lat="47.80615" lon="-2.40742">
        <ele>74.8</ele>
        <time>2025-02-11T09:09:01Z</time>
      </trkpt>
      <trkpt lat="47.80615" lon="-2.4074">
        <ele>74.8</ele>
        <time>2025-02-11T09:09:02Z</time>
      </trkpt>
      <trkpt lat="47.80616" lon="-2.40738">
        <ele>74.8</ele>
        <time>2025-02-11T09:09:03Z</time>
      </trkpt>
      <trkpt lat="47.80616" lon="-2.40737">
        <ele>74.7</ele>
        <time>2025-02-11T09:09:04Z</time>
      </trkpt>
      <trkpt lat="47.80616" lon="-2.40735">
        <ele>74.7</ele>
        <time>2025-02-11T09:09:05Z</time>
      </trkpt>
      <trkpt lat="47.80617" lon="-2.40733">
        <ele>74.7</ele>
        <time>2025-02-11T09:09:06Z</time>
      </trkpt>
      <trkpt lat="47.80617" lon="-2.40731">
        <ele>74.6</ele>
        <time>2025-02-11T09:09:07Z</time>
      </trkpt>
      <trkpt lat="47.80617" lon="-2.40729">
        <ele>74.6</ele>
        <time>2025-02-11T09:09:08Z</time>
      </trkpt>
      <trkpt lat="47.80617" lon="-2.40727">
        <ele>74.6</ele>
        <time>2025-02-11T09:09:09Z</time>
      </trkpt>
      <trkpt lat="47.80618" lon="-2.40725">
        <ele>74.5</ele>
        <time>2025-02-11T09:09:10Z</time>
      </trkpt>
      <trkpt lat="47.80618" lon="-2.40723">
        <ele>74.5</ele>
        <time>2025-02-11T09:09:11Z</time>
      </trkpt>
      <trkpt lat="47.80619" lon="-2.40721">
        <ele>74.4</ele>
        <time>2025-02-11T09:09:12Z</time>
      </trkpt>
      <trkpt lat="47.80619" lon="-2.40719">
        <ele>74.4</ele>
        <time>2025-02-11T09:09:13Z</time>
      </trkpt>
      <trkpt lat="47.80619" lon="-2.40718">
        <ele>74.4</ele>
        <time>2025-02-11T09:09:14Z</time>
      </trkpt>
      <trkpt lat="47.80619" lon="-2.40716">
        <ele>74.4</ele>
        <time>2025-02-11T09:09:15Z</time>
      </trkpt>
      <trkpt lat="47.8062" lon="-2.40714">
        <ele>74.3</ele>
        <time>2025-02-11T09:09:16Z</time>
      </trkpt>
      <trkpt lat="47.8062" lon="-2.40713">
        <ele>74.2</ele>
        <time>2025-02-11T09:09:17Z</time>
      </trkpt>
      <trkpt lat="47.80621" lon="-2.40711">
        <ele>74.2</ele>
        <time>2025-02-11T09:09:18Z</time>
      </trkpt>
      <trkpt lat="47.80621" lon="-2.4071">
        <ele>74.1</ele>
        <time>2025-02-11T09:09:19Z</time>
      </trkpt>
      <trkpt lat="47.80621" lon="-2.40708">
        <ele>74.1</ele>
        <time>2025-02-11T09:09:20Z</time>
      </trkpt>
      <trkpt lat="47.80622" lon="-2.40706">
        <ele>74</ele>
        <time>2025-02-11T09:09:21Z</time>
      </trkpt>
      <trkpt lat="47.80622" lon="-2.40705">
        <ele>74</ele>
        <time>2025-02-11T09:09:22Z</time>
      </trkpt>
      <trkpt lat="47.80622" lon="-2.40703">
        <ele>73.9</ele>
        <time>2025-02-11T09:09:23Z</time>
      </trkpt>
      <trkpt lat="47.80622" lon="-2.40701">
        <ele>73.9</ele>
        <time>2025-02-11T09:09:24Z</time>
      </trkpt>
      <trkpt lat="47.80622" lon="-2.40699">
        <ele>73.9</ele>
        <time>2025-02-11T09:09:25Z</time>
      </trkpt>
      <trkpt lat="47.80623" lon="-2.40697">
        <ele>73.8</ele>
        <time>2025-02-11T09:09:26Z</time>
      </trkpt>
      <trkpt lat="47.80623" lon="-2.40695">
        <ele>73.7</ele>
        <time>2025-02-11T09:09:27Z</time>
      </trkpt>
      <trkpt lat="47.80623" lon="-2.40693">
        <ele>73.7</ele>
        <time>2025-02-11T09:09:28Z</time>
      </trkpt>
      <trkpt lat="47.80624" lon="-2.40691">
        <ele>73.6</ele>
        <time>2025-02-11T09:09:29Z</time>
      </trkpt>
      <trkpt lat="47.80624" lon="-2.40689">
        <ele>73.6</ele>
        <time>2025-02-11T09:09:30Z</time>
      </trkpt>
      <trkpt lat="47.80624" lon="-2.40687">
        <ele>73.5</ele>
        <time>2025-02-11T09:09:31Z</time>
      </trkpt>
      <trkpt lat="47.80624" lon="-2.40685">
        <ele>73.4</ele>
        <time>2025-02-11T09:09:32Z</time>
      </trkpt>
      <trkpt lat="47.80625" lon="-2.40683">
        <ele>73.3</ele>
        <time>2025-02-11T09:09:33Z</time>
      </trkpt>
      <trkpt lat="47.80625" lon="-2.40681">
        <ele>73.2</ele>
        <time>2025-02-11T09:09:34Z</time>
      </trkpt>
      <trkpt lat="47.80626" lon="-2.4068">
        <ele>73.2</ele>
        <time>2025-02-11T09:09:35Z</time>
      </trkpt>
      <trkpt lat="47.80625" lon="-2.40678">
        <ele>73.1</ele>
        <time>2025-02-11T09:09:36Z</time>
      </trkpt>
      <trkpt lat="47.80625" lon="-2.40676">
        <ele>73.1</ele>
        <time>2025-02-11T09:09:37Z</time>
      </trkpt>
      <trkpt lat="47.80626" lon="-2.40674">
        <ele>73.1</ele>
        <time>2025-02-11T09:09:38Z</time>
      </trkpt>
      <trkpt lat="47.80626" lon="-2.40672">
        <ele>73</ele>
        <time>2025-02-11T09:09:39Z</time>
      </trkpt>
      <trkpt lat="47.80626" lon="-2.40671">
        <ele>72.9</ele>
        <time>2025-02-11T09:09:40Z</time>
      </trkpt>
      <trkpt lat="47.80627" lon="-2.40669">
        <ele>72.8</ele>
        <time>2025-02-11T09:09:41Z</time>
      </trkpt>
      <trkpt lat="47.80627" lon="-2.40667">
        <ele>72.7</ele>
        <time>2025-02-11T09:09:42Z</time>
      </trkpt>
      <trkpt lat="47.80627" lon="-2.40665">
        <ele>72.7</ele>
        <time>2025-02-11T09:09:43Z</time>
      </trkpt>
      <trkpt lat="47.80628" lon="-2.40663">
        <ele>72.6</ele>
        <time>2025-02-11T09:09:44Z</time>
      </trkpt>
      <trkpt lat="47.80628" lon="-2.40661">
        <ele>72.6</ele>
        <time>2025-02-11T09:09:45Z</time>
      </trkpt>
      <trkpt lat="47.80628" lon="-2.40659">
        <ele>72.5</ele>
        <time>2025-02-11T09:09:46Z</time>
      </trkpt>
      <trkpt lat="47.80629" lon="-2.40657">
        <ele>72.5</ele>
        <time>2025-02-11T09:09:47Z</time>
      </trkpt>
      <trkpt lat="47.80629" lon="-2.40655">
        <ele>72.5</ele>
        <time>2025-02-11T09:09:48Z</time>
      </trkpt>
      <trkpt lat="47.80629" lon="-2.40653">
        <ele>72.4</ele>
        <time>2025-02-11T09:09:49Z</time>
      </trkpt>
      <trkpt lat="47.80629" lon="-2.40652">
        <ele>72.4</ele>
        <time>2025-02-11T09:09:50Z</time>
      </trkpt>
      <trkpt lat="47.8063" lon="-2.4065">
        <ele>72.3</ele>
        <time>2025-02-11T09:09:51Z</time>
      </trkpt>
      <trkpt lat="47.80632" lon="-2.40649">
        <ele>71.9</ele>
        <time>2025-02-11T09:09:52Z</time>
      </trkpt>
      <trkpt lat="47.80634" lon="-2.40651">
        <ele>71.7</ele>
        <time>2025-02-11T09:09:53Z</time>
      </trkpt>
      <trkpt lat="47.80635" lon="-2.40652">
        <ele>71.6</ele>
        <time>2025-02-11T09:09:54Z</time>
      </trkpt>
      <trkpt lat="47.80636" lon="-2.40652">
        <ele>71.4</ele>
        <time>2025-02-11T09:09:55Z</time>
      </trkpt>
      <trkpt lat="47.80637" lon="-2.4065">
        <ele>71.3</ele>
        <time>2025-02-11T09:09:56Z</time>
      </trkpt>
      <trkpt lat="47.80637" lon="-2.40648">
        <ele>71.3</ele>
        <time>2025-02-11T09:09:57Z</time>
      </trkpt>
      <trkpt lat="47.80637" lon="-2.40646">
        <ele>71.3</ele>
        <time>2025-02-11T09:09:58Z</time>
      </trkpt>
      <trkpt lat="47.80637" lon="-2.40644">
        <ele>71.3</ele>
        <time>2025-02-11T09:09:59Z</time>
      </trkpt>
      <trkpt lat="47.80637" lon="-2.40642">
        <ele>71.3</ele>
        <time>2025-02-11T09:10:00Z</time>
      </trkpt>
      <trkpt lat="47.80638" lon="-2.4064">
        <ele>71.2</ele>
        <time>2025-02-11T09:10:01Z</time>
      </trkpt>
      <trkpt lat="47.80638" lon="-2.40638">
        <ele>71.1</ele>
        <time>2025-02-11T09:10:02Z</time>
      </trkpt>
      <trkpt lat="47.80639" lon="-2.40637">
        <ele>71.1</ele>
        <time>2025-02-11T09:10:03Z</time>
      </trkpt>
      <trkpt lat="47.80639" lon="-2.40635">
        <ele>71</ele>
        <time>2025-02-11T09:10:04Z</time>
      </trkpt>
      <trkpt lat="47.80639" lon="-2.40632">
        <ele>71</ele>
        <time>2025-02-11T09:10:05Z</time>
      </trkpt>
      <trkpt lat="47.80639" lon="-2.4063">
        <ele>71.1</ele>
        <time>2025-02-11T09:10:06Z</time>
      </trkpt>
      <trkpt lat="47.80638" lon="-2.40627">
        <ele>71.1</ele>
        <time>2025-02-11T09:10:07Z</time>
      </trkpt>
      <trkpt lat="47.80638" lon="-2.40625">
        <ele>71.2</ele>
        <time>2025-02-11T09:10:08Z</time>
      </trkpt>
      <trkpt lat="47.80638" lon="-2.40622">
        <ele>71.1</ele>
        <time>2025-02-11T09:10:09Z</time>
      </trkpt>
      <trkpt lat="47.80638" lon="-2.40621">
        <ele>71.1</ele>
        <time>2025-02-11T09:10:10Z</time>
      </trkpt>
      <trkpt lat="47.80638" lon="-2.40619">
        <ele>71.1</ele>
        <time>2025-02-11T09:10:11Z</time>
      </trkpt>
      <trkpt lat="47.80638" lon="-2.40617">
        <ele>71.1</ele>
        <time>2025-02-11T09:10:12Z</time>
      </trkpt>
      <trkpt lat="47.80638" lon="-2.40615">
        <ele>71.1</ele>
        <time>2025-02-11T09:10:13Z</time>
      </trkpt>
      <trkpt lat="47.80639" lon="-2.40613">
        <ele>71</ele>
        <time>2025-02-11T09:10:14Z</time>
      </trkpt>
      <trkpt lat="47.80639" lon="-2.40611">
        <ele>71</ele>
        <time>2025-02-11T09:10:15Z</time>
      </trkpt>
      <trkpt lat="47.8064" lon="-2.40609">
        <ele>70.9</ele>
        <time>2025-02-11T09:10:16Z</time>
      </trkpt>
      <trkpt lat="47.8064" lon="-2.40608">
        <ele>70.8</ele>
        <time>2025-02-11T09:10:17Z</time>
      </trkpt>
      <trkpt lat="47.80641" lon="-2.40606">
        <ele>70.7</ele>
        <time>2025-02-11T09:10:18Z</time>
      </trkpt>
      <trkpt lat="47.80641" lon="-2.40604">
        <ele>70.6</ele>
        <time>2025-02-11T09:10:19Z</time>
      </trkpt>
      <trkpt lat="47.80642" lon="-2.40603">
        <ele>70.5</ele>
        <time>2025-02-11T09:10:20Z</time>
      </trkpt>
      <trkpt lat="47.80642" lon="-2.40601">
        <ele>70.5</ele>
        <time>2025-02-11T09:10:21Z</time>
      </trkpt>
      <trkpt lat="47.80642" lon="-2.40599">
        <ele>70.4</ele>
        <time>2025-02-11T09:10:22Z</time>
      </trkpt>
      <trkpt lat="47.80643" lon="-2.40598">
        <ele>70.3</ele>
        <time>2025-02-11T09:10:23Z</time>
      </trkpt>
      <trkpt lat="47.80644" lon="-2.40596">
        <ele>70.2</ele>
        <time>2025-02-11T09:10:24Z</time>
      </trkpt>
      <trkpt lat="47.80645" lon="-2.40595">
        <ele>70.1</ele>
        <time>2025-02-11T09:10:25Z</time>
      </trkpt>
      <trkpt lat="47.80646" lon="-2.40594">
        <ele>70</ele>
        <time>2025-02-11T09:10:26Z</time>
      </trkpt>
      <trkpt lat="47.80648" lon="-2.40594">
        <ele>70</ele>
        <time>2025-02-11T09:10:27Z</time>
      </trkpt>
      <trkpt lat="47.80649" lon="-2.40594">
        <ele>69.9</ele>
        <time>2025-02-11T09:10:28Z</time>
      </trkpt>
      <trkpt lat="47.80651" lon="-2.40595">
        <ele>69.8</ele>
        <time>2025-02-11T09:10:29Z</time>
      </trkpt>
      <trkpt lat="47.80652" lon="-2.40596">
        <ele>69.8</ele>
        <time>2025-02-11T09:10:30Z</time>
      </trkpt>
      <trkpt lat="47.80653" lon="-2.40597">
        <ele>69.7</ele>
        <time>2025-02-11T09:10:31Z</time>
      </trkpt>
      <trkpt lat="47.80655" lon="-2.40598">
        <ele>69.7</ele>
        <time>2025-02-11T09:10:32Z</time>
      </trkpt>
      <trkpt lat="47.80656" lon="-2.40599">
        <ele>69.6</ele>
        <time>2025-02-11T09:10:33Z</time>
      </trkpt>
      <trkpt lat="47.80657" lon="-2.40599">
        <ele>69.5</ele>
        <time>2025-02-11T09:10:34Z</time>
      </trkpt>
      <trkpt lat="47.80659" lon="-2.406">
        <ele>69.5</ele>
        <time>2025-02-11T09:10:35Z</time>
      </trkpt>
      <trkpt lat="47.8066" lon="-2.40601">
        <ele>69.4</ele>
        <time>2025-02-11T09:10:36Z</time>
      </trkpt>
      <trkpt lat="47.80661" lon="-2.40601">
        <ele>69.3</ele>
        <time>2025-02-11T09:10:37Z</time>
      </trkpt>
      <trkpt lat="47.80663" lon="-2.40601">
        <ele>69.2</ele>
        <time>2025-02-11T09:10:38Z</time>
      </trkpt>
      <trkpt lat="47.80664" lon="-2.406">
        <ele>69.1</ele>
        <time>2025-02-11T09:10:39Z</time>
      </trkpt>
      <trkpt lat="47.80666" lon="-2.406">
        <ele>69.1</ele>
        <time>2025-02-11T09:10:40Z</time>
      </trkpt>
      <trkpt lat="47.80667" lon="-2.406">
        <ele>69</ele>
        <time>2025-02-11T09:10:41Z</time>
      </trkpt>
      <trkpt lat="47.80668" lon="-2.406">
        <ele>68.9</ele>
        <time>2025-02-11T09:10:42Z</time>
      </trkpt>
      <trkpt lat="47.8067" lon="-2.40599">
        <ele>68.9</ele>
        <time>2025-02-11T09:10:43Z</time>
      </trkpt>
      <trkpt lat="47.80671" lon="-2.40599">
        <ele>68.8</ele>
        <time>2025-02-11T09:10:44Z</time>
      </trkpt>
      <trkpt lat="47.80672" lon="-2.40599">
        <ele>68.7</ele>
        <time>2025-02-11T09:10:45Z</time>
      </trkpt>
      <trkpt lat="47.80674" lon="-2.406">
        <ele>68.7</ele>
        <time>2025-02-11T09:10:46Z</time>
      </trkpt>
      <trkpt lat="47.80675" lon="-2.40601">
        <ele>68.6</ele>
        <time>2025-02-11T09:10:47Z</time>
      </trkpt>
      <trkpt lat="47.80676" lon="-2.40601">
        <ele>68.5</ele>
        <time>2025-02-11T09:10:48Z</time>
      </trkpt>
      <trkpt lat="47.80677" lon="-2.40601">
        <ele>68.5</ele>
        <time>2025-02-11T09:10:49Z</time>
      </trkpt>
      <trkpt lat="47.80678" lon="-2.40602">
        <ele>68.4</ele>
        <time>2025-02-11T09:10:50Z</time>
      </trkpt>
      <trkpt lat="47.80679" lon="-2.40602">
        <ele>68.4</ele>
        <time>2025-02-11T09:10:51Z</time>
      </trkpt>
      <trkpt lat="47.8068" lon="-2.40603">
        <ele>68.4</ele>
        <time>2025-02-11T09:10:52Z</time>
      </trkpt>
      <trkpt lat="47.80681" lon="-2.40604">
        <ele>68.3</ele>
        <time>2025-02-11T09:10:53Z</time>
      </trkpt>
      <trkpt lat="47.80682" lon="-2.40604">
        <ele>68.3</ele>
        <time>2025-02-11T09:10:54Z</time>
      </trkpt>
      <trkpt lat="47.80683" lon="-2.40605">
        <ele>68.3</ele>
        <time>2025-02-11T09:10:55Z</time>
      </trkpt>
      <trkpt lat="47.80684" lon="-2.40605">
        <ele>68.2</ele>
        <time>2025-02-11T09:10:56Z</time>
      </trkpt>
      <trkpt lat="47.80685" lon="-2.40606">
        <ele>68.2</ele>
        <time>2025-02-11T09:10:57Z</time>
      </trkpt>
      <trkpt lat="47.80686" lon="-2.40606">
        <ele>68.2</ele>
        <time>2025-02-11T09:10:58Z</time>
      </trkpt>
      <trkpt lat="47.80688" lon="-2.40606">
        <ele>68.1</ele>
        <time>2025-02-11T09:10:59Z</time>
      </trkpt>
      <trkpt lat="47.80689" lon="-2.40607">
        <ele>68.1</ele>
        <time>2025-02-11T09:11:00Z</time>
      </trkpt>
      <trkpt lat="47.8069" lon="-2.40607">
        <ele>68</ele>
        <time>2025-02-11T09:11:01Z</time>
      </trkpt>
      <trkpt lat="47.80691" lon="-2.40608">
        <ele>68</ele>
        <time>2025-02-11T09:11:02Z</time>
      </trkpt>
      <trkpt lat="47.80692" lon="-2.40609">
        <ele>68</ele>
        <time>2025-02-11T09:11:03Z</time>
      </trkpt>
      <trkpt lat="47.80693" lon="-2.40609">
        <ele>68</ele>
        <time>2025-02-11T09:11:04Z</time>
      </trkpt>
      <trkpt lat="47.80694" lon="-2.4061">
        <ele>68</ele>
        <time>2025-02-11T09:11:05Z</time>
      </trkpt>
      <trkpt lat="47.80695" lon="-2.40611">
        <ele>67.9</ele>
        <time>2025-02-11T09:11:06Z</time>
      </trkpt>
      <trkpt lat="47.80697" lon="-2.40611">
        <ele>67.9</ele>
        <time>2025-02-11T09:11:07Z</time>
      </trkpt>
      <trkpt lat="47.80698" lon="-2.40612">
        <ele>67.8</ele>
        <time>2025-02-11T09:11:08Z</time>
      </trkpt>
      <trkpt lat="47.80699" lon="-2.40612">
        <ele>67.7</ele>
        <time>2025-02-11T09:11:09Z</time>
      </trkpt>
      <trkpt lat="47.807" lon="-2.40612">
        <ele>67.6</ele>
        <time>2025-02-11T09:11:10Z</time>
      </trkpt>
      <trkpt lat="47.80701" lon="-2.40613">
        <ele>67.6</ele>
        <time>2025-02-11T09:11:11Z</time>
      </trkpt>
      <trkpt lat="47.80703" lon="-2.40613">
        <ele>67.5</ele>
        <time>2025-02-11T09:11:12Z</time>
      </trkpt>
      <trkpt lat="47.80704" lon="-2.40614">
        <ele>67.5</ele>
        <time>2025-02-11T09:11:13Z</time>
      </trkpt>
      <trkpt lat="47.80705" lon="-2.40614">
        <ele>67.4</ele>
        <time>2025-02-11T09:11:14Z</time>
      </trkpt>
      <trkpt lat="47.80706" lon="-2.40615">
        <ele>67.4</ele>
        <time>2025-02-11T09:11:15Z</time>
      </trkpt>
      <trkpt lat="47.80707" lon="-2.40616">
        <ele>67.3</ele>
        <time>2025-02-11T09:11:16Z</time>
      </trkpt>
      <trkpt lat="47.80708" lon="-2.40616">
        <ele>67.3</ele>
        <time>2025-02-11T09:11:17Z</time>
      </trkpt>
      <trkpt lat="47.80709" lon="-2.40617">
        <ele>67.2</ele>
        <time>2025-02-11T09:11:18Z</time>
      </trkpt>
      <trkpt lat="47.80711" lon="-2.40617">
        <ele>67.2</ele>
        <time>2025-02-11T09:11:19Z</time>
      </trkpt>
      <trkpt lat="47.80712" lon="-2.40617">
        <ele>67.1</ele>
        <time>2025-02-11T09:11:20Z</time>
      </trkpt>
      <trkpt lat="47.80713" lon="-2.40618">
        <ele>67.1</ele>
        <time>2025-02-11T09:11:21Z</time>
      </trkpt>
      <trkpt lat="47.80715" lon="-2.40619">
        <ele>67.1</ele>
        <time>2025-02-11T09:11:22Z</time>
      </trkpt>
      <trkpt lat="47.80716" lon="-2.4062">
        <ele>67</ele>
        <time>2025-02-11T09:11:23Z</time>
      </trkpt>
      <trkpt lat="47.80717" lon="-2.4062">
        <ele>67</ele>
        <time>2025-02-11T09:11:24Z</time>
      </trkpt>
      <trkpt lat="47.80718" lon="-2.40621">
        <ele>66.9</ele>
        <time>2025-02-11T09:11:25Z</time>
      </trkpt>
      <trkpt lat="47.80719" lon="-2.40622">
        <ele>66.9</ele>
        <time>2025-02-11T09:11:26Z</time>
      </trkpt>
      <trkpt lat="47.80721" lon="-2.40622">
        <ele>66.9</ele>
        <time>2025-02-11T09:11:27Z</time>
      </trkpt>
      <trkpt lat="47.80722" lon="-2.40622">
        <ele>66.8</ele>
        <time>2025-02-11T09:11:28Z</time>
      </trkpt>
      <trkpt lat="47.80723" lon="-2.40622">
        <ele>66.7</ele>
        <time>2025-02-11T09:11:29Z</time>
      </trkpt>
      <trkpt lat="47.80724" lon="-2.40622">
        <ele>66.7</ele>
        <time>2025-02-11T09:11:30Z</time>
      </trkpt>
      <trkpt lat="47.80725" lon="-2.40622">
        <ele>66.7</ele>
        <time>2025-02-11T09:11:31Z</time>
      </trkpt>
      <trkpt lat="47.80727" lon="-2.40623">
        <ele>66.7</ele>
        <time>2025-02-11T09:11:32Z</time>
      </trkpt>
      <trkpt lat="47.80728" lon="-2.40624">
        <ele>66.7</ele>
        <time>2025-02-11T09:11:33Z</time>
      </trkpt>
      <trkpt lat="47.80729" lon="-2.40624">
        <ele>66.7</ele>
        <time>2025-02-11T09:11:34Z</time>
      </trkpt>
      <trkpt lat="47.8073" lon="-2.40624">
        <ele>66.7</ele>
        <time>2025-02-11T09:11:35Z</time>
      </trkpt>
      <trkpt lat="47.80732" lon="-2.40625">
        <ele>66.6</ele>
        <time>2025-02-11T09:11:36Z</time>
      </trkpt>
      <trkpt lat="47.80733" lon="-2.40625">
        <ele>66.6</ele>
        <time>2025-02-11T09:11:37Z</time>
      </trkpt>
      <trkpt lat="47.80734" lon="-2.40626">
        <ele>66.6</ele>
        <time>2025-02-11T09:11:38Z</time>
      </trkpt>
      <trkpt lat="47.80736" lon="-2.40627">
        <ele>66.6</ele>
        <time>2025-02-11T09:11:39Z</time>
      </trkpt>
      <trkpt lat="47.80737" lon="-2.40627">
        <ele>66.6</ele>
        <time>2025-02-11T09:11:40Z</time>
      </trkpt>
      <trkpt lat="47.80738" lon="-2.40627">
        <ele>66.5</ele>
        <time>2025-02-11T09:11:41Z</time>
      </trkpt>
      <trkpt lat="47.8074" lon="-2.40627">
        <ele>66.5</ele>
        <time>2025-02-11T09:11:42Z</time>
      </trkpt>
      <trkpt lat="47.80741" lon="-2.40628">
        <ele>66.5</ele>
        <time>2025-02-11T09:11:43Z</time>
      </trkpt>
      <trkpt lat="47.80742" lon="-2.40628">
        <ele>66.5</ele>
        <time>2025-02-11T09:11:44Z</time>
      </trkpt>
      <trkpt lat="47.80743" lon="-2.40629">
        <ele>66.5</ele>
        <time>2025-02-11T09:11:45Z</time>
      </trkpt>
      <trkpt lat="47.80745" lon="-2.40629">
        <ele>66.5</ele>
        <time>2025-02-11T09:11:46Z</time>
      </trkpt>
      <trkpt lat="47.80746" lon="-2.4063">
        <ele>66.5</ele>
        <time>2025-02-11T09:11:47Z</time>
      </trkpt>
      <trkpt lat="47.80746" lon="-2.40631">
        <ele>66.6</ele>
        <time>2025-02-11T09:11:48Z</time>
      </trkpt>
      <trkpt lat="47.80748" lon="-2.40632">
        <ele>66.6</ele>
        <time>2025-02-11T09:11:49Z</time>
      </trkpt>
      <trkpt lat="47.80749" lon="-2.40632">
        <ele>66.6</ele>
        <time>2025-02-11T09:11:50Z</time>
      </trkpt>
      <trkpt lat="47.8075" lon="-2.40633">
        <ele>66.6</ele>
        <time>2025-02-11T09:11:51Z</time>
      </trkpt>
      <trkpt lat="47.80751" lon="-2.40633">
        <ele>66.5</ele>
        <time>2025-02-11T09:11:52Z</time>
      </trkpt>
      <trkpt lat="47.80752" lon="-2.40634">
        <ele>66.6</ele>
        <time>2025-02-11T09:11:53Z</time>
      </trkpt>
      <trkpt lat="47.80753" lon="-2.40635">
        <ele>66.6</ele>
        <time>2025-02-11T09:11:54Z</time>
      </trkpt>
      <trkpt lat="47.80754" lon="-2.40635">
        <ele>66.6</ele>
        <time>2025-02-11T09:11:55Z</time>
      </trkpt>
      <trkpt lat="47.80755" lon="-2.40636">
        <ele>66.6</ele>
        <time>2025-02-11T09:11:56Z</time>
      </trkpt>
      <trkpt lat="47.80756" lon="-2.40636">
        <ele>66.6</ele>
        <time>2025-02-11T09:11:57Z</time>
      </trkpt>
      <trkpt lat="47.80758" lon="-2.40637">
        <ele>66.6</ele>
        <time>2025-02-11T09:11:58Z</time>
      </trkpt>
      <trkpt lat="47.80759" lon="-2.40638">
        <ele>66.6</ele>
        <time>2025-02-11T09:11:59Z</time>
      </trkpt>
      <trkpt lat="47.80759" lon="-2.40639">
        <ele>66.6</ele>
        <time>2025-02-11T09:12:00Z</time>
      </trkpt>
      <trkpt lat="47.80761" lon="-2.40639">
        <ele>66.6</ele>
        <time>2025-02-11T09:12:01Z</time>
      </trkpt>
      <trkpt lat="47.80762" lon="-2.40639">
        <ele>66.6</ele>
        <time>2025-02-11T09:12:02Z</time>
      </trkpt>
      <trkpt lat="47.80763" lon="-2.40639">
        <ele>66.5</ele>
        <time>2025-02-11T09:12:03Z</time>
      </trkpt>
      <trkpt lat="47.80764" lon="-2.4064">
        <ele>66.5</ele>
        <time>2025-02-11T09:12:04Z</time>
      </trkpt>
      <trkpt lat="47.80766" lon="-2.4064">
        <ele>66.5</ele>
        <time>2025-02-11T09:12:05Z</time>
      </trkpt>
      <trkpt lat="47.80767" lon="-2.40641">
        <ele>66.4</ele>
        <time>2025-02-11T09:12:06Z</time>
      </trkpt>
      <trkpt lat="47.80768" lon="-2.40641">
        <ele>66.4</ele>
        <time>2025-02-11T09:12:07Z</time>
      </trkpt>
      <trkpt lat="47.80769" lon="-2.40642">
        <ele>66.4</ele>
        <time>2025-02-11T09:12:08Z</time>
      </trkpt>
      <trkpt lat="47.8077" lon="-2.40643">
        <ele>66.4</ele>
        <time>2025-02-11T09:12:09Z</time>
      </trkpt>
      <trkpt lat="47.80771" lon="-2.40643">
        <ele>66.4</ele>
        <time>2025-02-11T09:12:10Z</time>
      </trkpt>
      <trkpt lat="47.80772" lon="-2.40643">
        <ele>66.3</ele>
        <time>2025-02-11T09:12:11Z</time>
      </trkpt>
      <trkpt lat="47.80773" lon="-2.40643">
        <ele>66.3</ele>
        <time>2025-02-11T09:12:12Z</time>
      </trkpt>
      <trkpt lat="47.80774" lon="-2.40645">
        <ele>66.3</ele>
        <time>2025-02-11T09:12:13Z</time>
      </trkpt>
      <trkpt lat="47.80775" lon="-2.40646">
        <ele>66.3</ele>
        <time>2025-02-11T09:12:14Z</time>
      </trkpt>
      <trkpt lat="47.80776" lon="-2.40647">
        <ele>66.3</ele>
        <time>2025-02-11T09:12:15Z</time>
      </trkpt>
      <trkpt lat="47.80777" lon="-2.40647">
        <ele>66.3</ele>
        <time>2025-02-11T09:12:16Z</time>
      </trkpt>
      <trkpt lat="47.80778" lon="-2.40648">
        <ele>66.3</ele>
        <time>2025-02-11T09:12:17Z</time>
      </trkpt>
      <trkpt lat="47.80779" lon="-2.40648">
        <ele>66.3</ele>
        <time>2025-02-11T09:12:18Z</time>
      </trkpt>
      <trkpt lat="47.80781" lon="-2.40649">
        <ele>66.3</ele>
        <time>2025-02-11T09:12:19Z</time>
      </trkpt>
      <trkpt lat="47.80782" lon="-2.4065">
        <ele>66.3</ele>
        <time>2025-02-11T09:12:20Z</time>
      </trkpt>
      <trkpt lat="47.80783" lon="-2.4065">
        <ele>66.3</ele>
        <time>2025-02-11T09:12:21Z</time>
      </trkpt>
      <trkpt lat="47.80784" lon="-2.4065">
        <ele>66.3</ele>
        <time>2025-02-11T09:12:22Z</time>
      </trkpt>
      <trkpt lat="47.80785" lon="-2.40651">
        <ele>66.3</ele>
        <time>2025-02-11T09:12:23Z</time>
      </trkpt>
      <trkpt lat="47.80787" lon="-2.40651">
        <ele>66.3</ele>
        <time>2025-02-11T09:12:24Z</time>
      </trkpt>
      <trkpt lat="47.80788" lon="-2.40652">
        <ele>66.3</ele>
        <time>2025-02-11T09:12:25Z</time>
      </trkpt>
      <trkpt lat="47.80789" lon="-2.40653">
        <ele>66.3</ele>
        <time>2025-02-11T09:12:26Z</time>
      </trkpt>
      <trkpt lat="47.8079" lon="-2.40653">
        <ele>66.3</ele>
        <time>2025-02-11T09:12:27Z</time>
      </trkpt>
      <trkpt lat="47.80791" lon="-2.40654">
        <ele>66.3</ele>
        <time>2025-02-11T09:12:28Z</time>
      </trkpt>
      <trkpt lat="47.80792" lon="-2.40655">
        <ele>66.3</ele>
        <time>2025-02-11T09:12:29Z</time>
      </trkpt>
      <trkpt lat="47.80794" lon="-2.40655">
        <ele>66.2</ele>
        <time>2025-02-11T09:12:30Z</time>
      </trkpt>
      <trkpt lat="47.80795" lon="-2.40656">
        <ele>66.2</ele>
        <time>2025-02-11T09:12:31Z</time>
      </trkpt>
      <trkpt lat="47.80795" lon="-2.40657">
        <ele>66.2</ele>
        <time>2025-02-11T09:12:32Z</time>
      </trkpt>
      <trkpt lat="47.80796" lon="-2.40657">
        <ele>66.2</ele>
        <time>2025-02-11T09:12:33Z</time>
      </trkpt>
      <trkpt lat="47.80797" lon="-2.40658">
        <ele>66.2</ele>
        <time>2025-02-11T09:12:34Z</time>
      </trkpt>
      <trkpt lat="47.80798" lon="-2.40658">
        <ele>66.2</ele>
        <time>2025-02-11T09:12:35Z</time>
      </trkpt>
      <trkpt lat="47.80799" lon="-2.40659">
        <ele>66.2</ele>
        <time>2025-02-11T09:12:36Z</time>
      </trkpt>
      <trkpt lat="47.808" lon="-2.4066">
        <ele>66.2</ele>
        <time>2025-02-11T09:12:37Z</time>
      </trkpt>
      <trkpt lat="47.80801" lon="-2.40661">
        <ele>66.1</ele>
        <time>2025-02-11T09:12:38Z</time>
      </trkpt>
      <trkpt lat="47.80802" lon="-2.40661">
        <ele>66.1</ele>
        <time>2025-02-11T09:12:39Z</time>
      </trkpt>
      <trkpt lat="47.80802" lon="-2.40661">
        <ele>66.1</ele>
        <time>2025-02-11T09:12:40Z</time>
      </trkpt>
      <trkpt lat="47.80803" lon="-2.40661">
        <ele>66.1</ele>
        <time>2025-02-11T09:12:41Z</time>
      </trkpt>
      <trkpt lat="47.80804" lon="-2.40661">
        <ele>66</ele>
        <time>2025-02-11T09:12:42Z</time>
      </trkpt>
      <trkpt lat="47.80805" lon="-2.40662">
        <ele>66</ele>
        <time>2025-02-11T09:12:43Z</time>
      </trkpt>
      <trkpt lat="47.80806" lon="-2.40662">
        <ele>66</ele>
        <time>2025-02-11T09:12:44Z</time>
      </trkpt>
      <trkpt lat="47.80807" lon="-2.40662">
        <ele>66</ele>
        <time>2025-02-11T09:12:45Z</time>
      </trkpt>
      <trkpt lat="47.80808" lon="-2.40662">
        <ele>65.9</ele>
        <time>2025-02-11T09:12:46Z</time>
      </trkpt>
      <trkpt lat="47.80809" lon="-2.40662">
        <ele>65.9</ele>
        <time>2025-02-11T09:12:47Z</time>
      </trkpt>
      <trkpt lat="47.8081" lon="-2.40662">
        <ele>65.9</ele>
        <time>2025-02-11T09:12:48Z</time>
      </trkpt>
      <trkpt lat="47.80811" lon="-2.40663">
        <ele>65.8</ele>
        <time>2025-02-11T09:12:49Z</time>
      </trkpt>
      <trkpt lat="47.80812" lon="-2.40663">
        <ele>65.8</ele>
        <time>2025-02-11T09:12:50Z</time>
      </trkpt>
      <trkpt lat="47.80813" lon="-2.40663">
        <ele>65.8</ele>
        <time>2025-02-11T09:12:51Z</time>
      </trkpt>
      <trkpt lat="47.80814" lon="-2.40664">
        <ele>65.7</ele>
        <time>2025-02-11T09:12:52Z</time>
      </trkpt>
      <trkpt lat="47.80815" lon="-2.40665">
        <ele>65.7</ele>
        <time>2025-02-11T09:12:53Z</time>
      </trkpt>
      <trkpt lat="47.80816" lon="-2.40666">
        <ele>65.6</ele>
        <time>2025-02-11T09:12:54Z</time>
      </trkpt>
      <trkpt lat="47.80817" lon="-2.40667">
        <ele>65.6</ele>
        <time>2025-02-11T09:12:55Z</time>
      </trkpt>
      <trkpt lat="47.80818" lon="-2.40667">
        <ele>65.6</ele>
        <time>2025-02-11T09:12:56Z</time>
      </trkpt>
      <trkpt lat="47.80819" lon="-2.40667">
        <ele>65.5</ele>
        <time>2025-02-11T09:12:57Z</time>
      </trkpt>
      <trkpt lat="47.8082" lon="-2.40668">
        <ele>65.5</ele>
        <time>2025-02-11T09:12:58Z</time>
      </trkpt>
      <trkpt lat="47.80821" lon="-2.40668">
        <ele>65.5</ele>
        <time>2025-02-11T09:12:59Z</time>
      </trkpt>
      <trkpt lat="47.80822" lon="-2.40669">
        <ele>65.5</ele>
        <time>2025-02-11T09:13:00Z</time>
      </trkpt>
      <trkpt lat="47.80823" lon="-2.4067">
        <ele>65.5</ele>
        <time>2025-02-11T09:13:01Z</time>
      </trkpt>
      <trkpt lat="47.80824" lon="-2.4067">
        <ele>65.5</ele>
        <time>2025-02-11T09:13:02Z</time>
      </trkpt>
      <trkpt lat="47.80825" lon="-2.40671">
        <ele>65.4</ele>
        <time>2025-02-11T09:13:03Z</time>
      </trkpt>
      <trkpt lat="47.80826" lon="-2.40671">
        <ele>65.4</ele>
        <time>2025-02-11T09:13:04Z</time>
      </trkpt>
      <trkpt lat="47.80827" lon="-2.40672">
        <ele>65.4</ele>
        <time>2025-02-11T09:13:05Z</time>
      </trkpt>
      <trkpt lat="47.80829" lon="-2.40672">
        <ele>65.4</ele>
        <time>2025-02-11T09:13:06Z</time>
      </trkpt>
      <trkpt lat="47.8083" lon="-2.40672">
        <ele>65.3</ele>
        <time>2025-02-11T09:13:07Z</time>
      </trkpt>
      <trkpt lat="47.80831" lon="-2.40673">
        <ele>65.3</ele>
        <time>2025-02-11T09:13:08Z</time>
      </trkpt>
      <trkpt lat="47.80832" lon="-2.40674">
        <ele>65.3</ele>
        <time>2025-02-11T09:13:09Z</time>
      </trkpt>
      <trkpt lat="47.80833" lon="-2.40674">
        <ele>65.3</ele>
        <time>2025-02-11T09:13:10Z</time>
      </trkpt>
      <trkpt lat="47.80834" lon="-2.40676">
        <ele>65.3</ele>
        <time>2025-02-11T09:13:11Z</time>
      </trkpt>
      <trkpt lat="47.80835" lon="-2.40675">
        <ele>65.2</ele>
        <time>2025-02-11T09:13:12Z</time>
      </trkpt>
      <trkpt lat="47.80837" lon="-2.40676">
        <ele>65.1</ele>
        <time>2025-02-11T09:13:13Z</time>
      </trkpt>
      <trkpt lat="47.80838" lon="-2.40676">
        <ele>65.1</ele>
        <time>2025-02-11T09:13:14Z</time>
      </trkpt>
      <trkpt lat="47.80839" lon="-2.40676">
        <ele>65</ele>
        <time>2025-02-11T09:13:15Z</time>
      </trkpt>
      <trkpt lat="47.8084" lon="-2.40676">
        <ele>64.9</ele>
        <time>2025-02-11T09:13:16Z</time>
      </trkpt>
      <trkpt lat="47.80841" lon="-2.40676">
        <ele>64.9</ele>
        <time>2025-02-11T09:13:17Z</time>
      </trkpt>
      <trkpt lat="47.80842" lon="-2.40677">
        <ele>64.8</ele>
        <time>2025-02-11T09:13:18Z</time>
      </trkpt>
      <trkpt lat="47.80844" lon="-2.40677">
        <ele>64.7</ele>
        <time>2025-02-11T09:13:19Z</time>
      </trkpt>
      <trkpt lat="47.80844" lon="-2.40678">
        <ele>64.7</ele>
        <time>2025-02-11T09:13:20Z</time>
      </trkpt>
      <trkpt lat="47.80845" lon="-2.40678">
        <ele>64.6</ele>
        <time>2025-02-11T09:13:21Z</time>
      </trkpt>
      <trkpt lat="47.80847" lon="-2.40679">
        <ele>64.5</ele>
        <time>2025-02-11T09:13:22Z</time>
      </trkpt>
      <trkpt lat="47.80848" lon="-2.4068">
        <ele>64.5</ele>
        <time>2025-02-11T09:13:23Z</time>
      </trkpt>
      <trkpt lat="47.80849" lon="-2.4068">
        <ele>64.4</ele>
        <time>2025-02-11T09:13:24Z</time>
      </trkpt>
      <trkpt lat="47.8085" lon="-2.4068">
        <ele>64.3</ele>
        <time>2025-02-11T09:13:25Z</time>
      </trkpt>
      <trkpt lat="47.80851" lon="-2.40681">
        <ele>64.2</ele>
        <time>2025-02-11T09:13:26Z</time>
      </trkpt>
      <trkpt lat="47.80852" lon="-2.40682">
        <ele>64.2</ele>
        <time>2025-02-11T09:13:27Z</time>
      </trkpt>
      <trkpt lat="47.80853" lon="-2.40682">
        <ele>64.1</ele>
        <time>2025-02-11T09:13:28Z</time>
      </trkpt>
      <trkpt lat="47.80854" lon="-2.40683">
        <ele>64</ele>
        <time>2025-02-11T09:13:29Z</time>
      </trkpt>
      <trkpt lat="47.80855" lon="-2.40684">
        <ele>63.9</ele>
        <time>2025-02-11T09:13:30Z</time>
      </trkpt>
      <trkpt lat="47.80855" lon="-2.40684">
        <ele>63.8</ele>
        <time>2025-02-11T09:13:31Z</time>
      </trkpt>
      <trkpt lat="47.80856" lon="-2.40684">
        <ele>63.7</ele>
        <time>2025-02-11T09:13:32Z</time>
      </trkpt>
      <trkpt lat="47.80857" lon="-2.40685">
        <ele>63.7</ele>
        <time>2025-02-11T09:13:33Z</time>
      </trkpt>
      <trkpt lat="47.80858" lon="-2.40686">
        <ele>63.5</ele>
        <time>2025-02-11T09:13:34Z</time>
      </trkpt>
      <trkpt lat="47.8086" lon="-2.40687">
        <ele>63.4</ele>
        <time>2025-02-11T09:13:35Z</time>
      </trkpt>
      <trkpt lat="47.80861" lon="-2.40687">
        <ele>63.3</ele>
        <time>2025-02-11T09:13:36Z</time>
      </trkpt>
      <trkpt lat="47.80863" lon="-2.40687">
        <ele>63.1</ele>
        <time>2025-02-11T09:13:37Z</time>
      </trkpt>
      <trkpt lat="47.80865" lon="-2.40687">
        <ele>63</ele>
        <time>2025-02-11T09:13:38Z</time>
      </trkpt>
      <trkpt lat="47.80866" lon="-2.40688">
        <ele>62.9</ele>
        <time>2025-02-11T09:13:39Z</time>
      </trkpt>
      <trkpt lat="47.80868" lon="-2.40689">
        <ele>62.7</ele>
        <time>2025-02-11T09:13:40Z</time>
      </trkpt>
      <trkpt lat="47.80869" lon="-2.40689">
        <ele>62.6</ele>
        <time>2025-02-11T09:13:41Z</time>
      </trkpt>
      <trkpt lat="47.80871" lon="-2.4069">
        <ele>62.5</ele>
        <time>2025-02-11T09:13:42Z</time>
      </trkpt>
      <trkpt lat="47.80872" lon="-2.40689">
        <ele>62.4</ele>
        <time>2025-02-11T09:13:43Z</time>
      </trkpt>
      <trkpt lat="47.80874" lon="-2.4069">
        <ele>62.3</ele>
        <time>2025-02-11T09:13:44Z</time>
      </trkpt>
      <trkpt lat="47.80875" lon="-2.40691">
        <ele>62.1</ele>
        <time>2025-02-11T09:13:45Z</time>
      </trkpt>
      <trkpt lat="47.80877" lon="-2.40691">
        <ele>62</ele>
        <time>2025-02-11T09:13:46Z</time>
      </trkpt>
      <trkpt lat="47.80878" lon="-2.40691">
        <ele>61.9</ele>
        <time>2025-02-11T09:13:47Z</time>
      </trkpt>
      <trkpt lat="47.8088" lon="-2.40691">
        <ele>61.8</ele>
        <time>2025-02-11T09:13:48Z</time>
      </trkpt>
      <trkpt lat="47.80882" lon="-2.40691">
        <ele>61.6</ele>
        <time>2025-02-11T09:13:49Z</time>
      </trkpt>
      <trkpt lat="47.80883" lon="-2.40692">
        <ele>61.5</ele>
        <time>2025-02-11T09:13:50Z</time>
      </trkpt>
      <trkpt lat="47.80885" lon="-2.40692">
        <ele>61.4</ele>
        <time>2025-02-11T09:13:51Z</time>
      </trkpt>
      <trkpt lat="47.80886" lon="-2.40692">
        <ele>61.3</ele>
        <time>2025-02-11T09:13:52Z</time>
      </trkpt>
      <trkpt lat="47.80887" lon="-2.40693">
        <ele>61.2</ele>
        <time>2025-02-11T09:13:53Z</time>
      </trkpt>
      <trkpt lat="47.80888" lon="-2.40692">
        <ele>61.2</ele>
        <time>2025-02-11T09:13:54Z</time>
      </trkpt>
      <trkpt lat="47.80889" lon="-2.40691">
        <ele>61.1</ele>
        <time>2025-02-11T09:13:55Z</time>
      </trkpt>
      <trkpt lat="47.80889" lon="-2.40691">
        <ele>61.1</ele>
        <time>2025-02-11T09:13:56Z</time>
      </trkpt>
      <trkpt lat="47.8089" lon="-2.4069">
        <ele>61.1</ele>
        <time>2025-02-11T09:13:57Z</time>
      </trkpt>
      <trkpt lat="47.8089" lon="-2.40689">
        <ele>61.1</ele>
        <time>2025-02-11T09:13:58Z</time>
      </trkpt>
      <trkpt lat="47.8089" lon="-2.40688">
        <ele>61.2</ele>
        <time>2025-02-11T09:13:59Z</time>
      </trkpt>
      <trkpt lat="47.80889" lon="-2.40687">
        <ele>61.2</ele>
        <time>2025-02-11T09:14:00Z</time>
      </trkpt>
      <trkpt lat="47.80889" lon="-2.40686">
        <ele>61.3</ele>
        <time>2025-02-11T09:14:01Z</time>
      </trkpt>
      <trkpt lat="47.8089" lon="-2.40684">
        <ele>61.3</ele>
        <time>2025-02-11T09:14:02Z</time>
      </trkpt>
      <trkpt lat="47.8089" lon="-2.40683">
        <ele>61.3</ele>
        <time>2025-02-11T09:14:03Z</time>
      </trkpt>
      <trkpt lat="47.8089" lon="-2.40681">
        <ele>61.3</ele>
        <time>2025-02-11T09:14:04Z</time>
      </trkpt>
      <trkpt lat="47.80891" lon="-2.4068">
        <ele>61.3</ele>
        <time>2025-02-11T09:14:05Z</time>
      </trkpt>
      <trkpt lat="47.80891" lon="-2.40679">
        <ele>61.3</ele>
        <time>2025-02-11T09:14:06Z</time>
      </trkpt>
      <trkpt lat="47.80892" lon="-2.40678">
        <ele>61.3</ele>
        <time>2025-02-11T09:14:07Z</time>
      </trkpt>
      <trkpt lat="47.80892" lon="-2.40677">
        <ele>61.3</ele>
        <time>2025-02-11T09:14:08Z</time>
      </trkpt>
      <trkpt lat="47.80893" lon="-2.40676">
        <ele>61.2</ele>
        <time>2025-02-11T09:14:09Z</time>
      </trkpt>
      <trkpt lat="47.80894" lon="-2.40676">
        <ele>61.1</ele>
        <time>2025-02-11T09:14:10Z</time>
      </trkpt>
      <trkpt lat="47.80895" lon="-2.40675">
        <ele>61.1</ele>
        <time>2025-02-11T09:14:11Z</time>
      </trkpt>
      <trkpt lat="47.80896" lon="-2.40675">
        <ele>61</ele>
        <time>2025-02-11T09:14:12Z</time>
      </trkpt>
      <trkpt lat="47.80897" lon="-2.40675">
        <ele>60.9</ele>
        <time>2025-02-11T09:14:13Z</time>
      </trkpt>
      <trkpt lat="47.80898" lon="-2.40675">
        <ele>60.7</ele>
        <time>2025-02-11T09:14:14Z</time>
      </trkpt>
      <trkpt lat="47.80899" lon="-2.40674">
        <ele>60.7</ele>
        <time>2025-02-11T09:14:15Z</time>
      </trkpt>
      <trkpt lat="47.80899" lon="-2.40674">
        <ele>60.6</ele>
        <time>2025-02-11T09:14:16Z</time>
      </trkpt>
      <trkpt lat="47.809" lon="-2.40674">
        <ele>60.6</ele>
        <time>2025-02-11T09:14:17Z</time>
      </trkpt>
      <trkpt lat="47.80901" lon="-2.40674">
        <ele>60.5</ele>
        <time>2025-02-11T09:14:18Z</time>
      </trkpt>
      <trkpt lat="47.80902" lon="-2.40674">
        <ele>60.4</ele>
        <time>2025-02-11T09:14:19Z</time>
      </trkpt>
      <trkpt lat="47.80902" lon="-2.40674">
        <ele>60.3</ele>
        <time>2025-02-11T09:14:20Z</time>
      </trkpt>
      <trkpt lat="47.80903" lon="-2.40674">
        <ele>60.2</ele>
        <time>2025-02-11T09:14:21Z</time>
      </trkpt>
      <trkpt lat="47.80904" lon="-2.40674">
        <ele>60.1</ele>
        <time>2025-02-11T09:14:22Z</time>
      </trkpt>
      <trkpt lat="47.80905" lon="-2.40674">
        <ele>60</ele>
        <time>2025-02-11T09:14:23Z</time>
      </trkpt>
      <trkpt lat="47.80906" lon="-2.40674">
        <ele>59.9</ele>
        <time>2025-02-11T09:14:24Z</time>
      </trkpt>
      <trkpt lat="47.80907" lon="-2.40675">
        <ele>59.8</ele>
        <time>2025-02-11T09:14:25Z</time>
      </trkpt>
      <trkpt lat="47.80907" lon="-2.40675">
        <ele>59.7</ele>
        <time>2025-02-11T09:14:26Z</time>
      </trkpt>
      <trkpt lat="47.80908" lon="-2.40675">
        <ele>59.7</ele>
        <time>2025-02-11T09:14:27Z</time>
      </trkpt>
      <trkpt lat="47.80908" lon="-2.40676">
        <ele>59.6</ele>
        <time>2025-02-11T09:14:28Z</time>
      </trkpt>
      <trkpt lat="47.80909" lon="-2.40676">
        <ele>59.5</ele>
        <time>2025-02-11T09:14:29Z</time>
      </trkpt>
      <trkpt lat="47.8091" lon="-2.40676">
        <ele>59.4</ele>
        <time>2025-02-11T09:14:30Z</time>
      </trkpt>
      <trkpt lat="47.80911" lon="-2.40676">
        <ele>59.3</ele>
        <time>2025-02-11T09:14:31Z</time>
      </trkpt>
      <trkpt lat="47.80912" lon="-2.40676">
        <ele>59.2</ele>
        <time>2025-02-11T09:14:32Z</time>
      </trkpt>
      <trkpt lat="47.80913" lon="-2.40677">
        <ele>59</ele>
        <time>2025-02-11T09:14:33Z</time>
      </trkpt>
      <trkpt lat="47.80914" lon="-2.40676">
        <ele>58.9</ele>
        <time>2025-02-11T09:14:34Z</time>
      </trkpt>
      <trkpt lat="47.80915" lon="-2.40675">
        <ele>58.9</ele>
        <time>2025-02-11T09:14:35Z</time>
      </trkpt>
      <trkpt lat="47.80916" lon="-2.40674">
        <ele>58.8</ele>
        <time>2025-02-11T09:14:36Z</time>
      </trkpt>
      <trkpt lat="47.80917" lon="-2.40673">
        <ele>58.8</ele>
        <time>2025-02-11T09:14:37Z</time>
      </trkpt>
      <trkpt lat="47.80917" lon="-2.40672">
        <ele>58.7</ele>
        <time>2025-02-11T09:14:38Z</time>
      </trkpt>
      <trkpt lat="47.80918" lon="-2.40672">
        <ele>58.7</ele>
        <time>2025-02-11T09:14:39Z</time>
      </trkpt>
      <trkpt lat="47.80919" lon="-2.40669">
        <ele>58.7</ele>
        <time>2025-02-11T09:14:40Z</time>
      </trkpt>
      <trkpt lat="47.80918" lon="-2.40667">
        <ele>58.8</ele>
        <time>2025-02-11T09:14:41Z</time>
      </trkpt>
      <trkpt lat="47.80919" lon="-2.40666">
        <ele>58.8</ele>
        <time>2025-02-11T09:14:42Z</time>
      </trkpt>
      <trkpt lat="47.8092" lon="-2.40664">
        <ele>58.7</ele>
        <time>2025-02-11T09:14:43Z</time>
      </trkpt>
      <trkpt lat="47.80921" lon="-2.40664">
        <ele>58.6</ele>
        <time>2025-02-11T09:14:44Z</time>
      </trkpt>
      <trkpt lat="47.80922" lon="-2.40662">
        <ele>58.6</ele>
        <time>2025-02-11T09:14:45Z</time>
      </trkpt>
      <trkpt lat="47.80923" lon="-2.40661">
        <ele>58.6</ele>
        <time>2025-02-11T09:14:46Z</time>
      </trkpt>
      <trkpt lat="47.80923" lon="-2.4066">
        <ele>58.6</ele>
        <time>2025-02-11T09:14:47Z</time>
      </trkpt>
      <trkpt lat="47.80924" lon="-2.40658">
        <ele>58.5</ele>
        <time>2025-02-11T09:14:48Z</time>
      </trkpt>
      <trkpt lat="47.80925" lon="-2.40657">
        <ele>58.4</ele>
        <time>2025-02-11T09:14:49Z</time>
      </trkpt>
      <trkpt lat="47.80926" lon="-2.40656">
        <ele>58.4</ele>
        <time>2025-02-11T09:14:50Z</time>
      </trkpt>
      <trkpt lat="47.80927" lon="-2.40655">
        <ele>58.3</ele>
        <time>2025-02-11T09:14:51Z</time>
      </trkpt>
      <trkpt lat="47.80927" lon="-2.40654">
        <ele>58.3</ele>
        <time>2025-02-11T09:14:52Z</time>
      </trkpt>
      <trkpt lat="47.80928" lon="-2.40652">
        <ele>58.3</ele>
        <time>2025-02-11T09:14:53Z</time>
      </trkpt>
      <trkpt lat="47.80929" lon="-2.40651">
        <ele>58.2</ele>
        <time>2025-02-11T09:14:54Z</time>
      </trkpt>
      <trkpt lat="47.8093" lon="-2.4065">
        <ele>58.2</ele>
        <time>2025-02-11T09:14:55Z</time>
      </trkpt>
      <trkpt lat="47.8093" lon="-2.40649">
        <ele>58.1</ele>
        <time>2025-02-11T09:14:56Z</time>
      </trkpt>
      <trkpt lat="47.80931" lon="-2.40648">
        <ele>58.1</ele>
        <time>2025-02-11T09:14:57Z</time>
      </trkpt>
      <trkpt lat="47.80932" lon="-2.40647">
        <ele>58</ele>
        <time>2025-02-11T09:14:58Z</time>
      </trkpt>
      <trkpt lat="47.80933" lon="-2.40647">
        <ele>57.9</ele>
        <time>2025-02-11T09:14:59Z</time>
      </trkpt>
      <trkpt lat="47.80934" lon="-2.40647">
        <ele>57.8</ele>
        <time>2025-02-11T09:15:00Z</time>
      </trkpt>
      <trkpt lat="47.80935" lon="-2.40647">
        <ele>57.7</ele>
        <time>2025-02-11T09:15:01Z</time>
      </trkpt>
      <trkpt lat="47.80936" lon="-2.40646">
        <ele>57.7</ele>
        <time>2025-02-11T09:15:02Z</time>
      </trkpt>
      <trkpt lat="47.80937" lon="-2.40645">
        <ele>57.6</ele>
        <time>2025-02-11T09:15:03Z</time>
      </trkpt>
      <trkpt lat="47.80938" lon="-2.40645">
        <ele>57.5</ele>
        <time>2025-02-11T09:15:04Z</time>
      </trkpt>
      <trkpt lat="47.8094" lon="-2.40644">
        <ele>57.3</ele>
        <time>2025-02-11T09:15:05Z</time>
      </trkpt>
      <trkpt lat="47.80941" lon="-2.40643">
        <ele>57.2</ele>
        <time>2025-02-11T09:15:06Z</time>
      </trkpt>
      <trkpt lat="47.80942" lon="-2.40644">
        <ele>57.1</ele>
        <time>2025-02-11T09:15:07Z</time>
      </trkpt>
      <trkpt lat="47.80942" lon="-2.40644">
        <ele>57.1</ele>
        <time>2025-02-11T09:15:08Z</time>
      </trkpt>
      <trkpt lat="47.80944" lon="-2.40643">
        <ele>56.9</ele>
        <time>2025-02-11T09:15:09Z</time>
      </trkpt>
      <trkpt lat="47.80945" lon="-2.40643">
        <ele>56.8</ele>
        <time>2025-02-11T09:15:10Z</time>
      </trkpt>
      <trkpt lat="47.80946" lon="-2.40642">
        <ele>56.7</ele>
        <time>2025-02-11T09:15:11Z</time>
      </trkpt>
      <trkpt lat="47.80947" lon="-2.40642">
        <ele>56.5</ele>
        <time>2025-02-11T09:15:12Z</time>
      </trkpt>
      <trkpt lat="47.80948" lon="-2.40641">
        <ele>56.4</ele>
        <time>2025-02-11T09:15:13Z</time>
      </trkpt>
      <trkpt lat="47.80949" lon="-2.40641">
        <ele>56.3</ele>
        <time>2025-02-11T09:15:14Z</time>
      </trkpt>
      <trkpt lat="47.8095" lon="-2.40639">
        <ele>56.2</ele>
        <time>2025-02-11T09:15:15Z</time>
      </trkpt>
      <trkpt lat="47.80951" lon="-2.40638">
        <ele>56.1</ele>
        <time>2025-02-11T09:15:16Z</time>
      </trkpt>
      <trkpt lat="47.80951" lon="-2.40637">
        <ele>56.1</ele>
        <time>2025-02-11T09:15:17Z</time>
      </trkpt>
      <trkpt lat="47.80951" lon="-2.40635">
        <ele>56.1</ele>
        <time>2025-02-11T09:15:18Z</time>
      </trkpt>
      <trkpt lat="47.80951" lon="-2.40635">
        <ele>56.2</ele>
        <time>2025-02-11T09:15:19Z</time>
      </trkpt>
      <trkpt lat="47.8095" lon="-2.40633">
        <ele>56.3</ele>
        <time>2025-02-11T09:15:20Z</time>
      </trkpt>
      <trkpt lat="47.8095" lon="-2.40632">
        <ele>56.5</ele>
        <time>2025-02-11T09:15:21Z</time>
      </trkpt>
      <trkpt lat="47.80949" lon="-2.40631">
        <ele>56.5</ele>
        <time>2025-02-11T09:15:22Z</time>
      </trkpt>
      <trkpt lat="47.8095" lon="-2.40629">
        <ele>56.5</ele>
        <time>2025-02-11T09:15:23Z</time>
      </trkpt>
      <trkpt lat="47.80951" lon="-2.40629">
        <ele>56.4</ele>
        <time>2025-02-11T09:15:24Z</time>
      </trkpt>
      <trkpt lat="47.80951" lon="-2.40628">
        <ele>56.3</ele>
        <time>2025-02-11T09:15:25Z</time>
      </trkpt>
      <trkpt lat="47.80952" lon="-2.40628">
        <ele>56.2</ele>
        <time>2025-02-11T09:15:26Z</time>
      </trkpt>
      <trkpt lat="47.80953" lon="-2.40629">
        <ele>56</ele>
        <time>2025-02-11T09:15:27Z</time>
      </trkpt>
      <trkpt lat="47.80954" lon="-2.40629">
        <ele>55.8</ele>
        <time>2025-02-11T09:15:28Z</time>
      </trkpt>
      <trkpt lat="47.80955" lon="-2.40629">
        <ele>55.7</ele>
        <time>2025-02-11T09:15:29Z</time>
      </trkpt>
      <trkpt lat="47.80956" lon="-2.40627">
        <ele>55.6</ele>
        <time>2025-02-11T09:15:30Z</time>
      </trkpt>
      <trkpt lat="47.80957" lon="-2.40626">
        <ele>55.5</ele>
        <time>2025-02-11T09:15:31Z</time>
      </trkpt>
      <trkpt lat="47.80957" lon="-2.40625">
        <ele>55.4</ele>
        <time>2025-02-11T09:15:32Z</time>
      </trkpt>
      <trkpt lat="47.80958" lon="-2.40624">
        <ele>55.4</ele>
        <time>2025-02-11T09:15:33Z</time>
      </trkpt>
      <trkpt lat="47.80958" lon="-2.40624">
        <ele>55.3</ele>
        <time>2025-02-11T09:15:34Z</time>
      </trkpt>
      <trkpt lat="47.80959" lon="-2.40623">
        <ele>55.2</ele>
        <time>2025-02-11T09:15:35Z</time>
      </trkpt>
      <trkpt lat="47.80959" lon="-2.40621">
        <ele>55.2</ele>
        <time>2025-02-11T09:15:36Z</time>
      </trkpt>
      <trkpt lat="47.80959" lon="-2.4062">
        <ele>55.2</ele>
        <time>2025-02-11T09:15:37Z</time>
      </trkpt>
      <trkpt lat="47.8096" lon="-2.40618">
        <ele>55.1</ele>
        <time>2025-02-11T09:15:38Z</time>
      </trkpt>
      <trkpt lat="47.8096" lon="-2.40617">
        <ele>55.1</ele>
        <time>2025-02-11T09:15:39Z</time>
      </trkpt>
      <trkpt lat="47.8096" lon="-2.40615">
        <ele>55.1</ele>
        <time>2025-02-11T09:15:40Z</time>
      </trkpt>
      <trkpt lat="47.80961" lon="-2.40614">
        <ele>54.9</ele>
        <time>2025-02-11T09:15:41Z</time>
      </trkpt>
      <trkpt lat="47.80962" lon="-2.40613">
        <ele>54.8</ele>
        <time>2025-02-11T09:15:42Z</time>
      </trkpt>
      <trkpt lat="47.80963" lon="-2.40612">
        <ele>54.7</ele>
        <time>2025-02-11T09:15:43Z</time>
      </trkpt>
      <trkpt lat="47.80963" lon="-2.40611">
        <ele>54.6</ele>
        <time>2025-02-11T09:15:44Z</time>
      </trkpt>
      <trkpt lat="47.80964" lon="-2.4061">
        <ele>54.5</ele>
        <time>2025-02-11T09:15:45Z</time>
      </trkpt>
      <trkpt lat="47.80964" lon="-2.40608">
        <ele>54.6</ele>
        <time>2025-02-11T09:15:46Z</time>
      </trkpt>
      <trkpt lat="47.80964" lon="-2.40606">
        <ele>54.6</ele>
        <time>2025-02-11T09:15:47Z</time>
      </trkpt>
      <trkpt lat="47.80965" lon="-2.40605">
        <ele>54.5</ele>
        <time>2025-02-11T09:15:48Z</time>
      </trkpt>
      <trkpt lat="47.80966" lon="-2.40604">
        <ele>54.4</ele>
        <time>2025-02-11T09:15:49Z</time>
      </trkpt>
      <trkpt lat="47.80966" lon="-2.40602">
        <ele>54.4</ele>
        <time>2025-02-11T09:15:50Z</time>
      </trkpt>
      <trkpt lat="47.80967" lon="-2.40601">
        <ele>54.4</ele>
        <time>2025-02-11T09:15:51Z</time>
      </trkpt>
      <trkpt lat="47.80967" lon="-2.406">
        <ele>54.3</ele>
        <time>2025-02-11T09:15:52Z</time>
      </trkpt>
      <trkpt lat="47.80968" lon="-2.40598">
        <ele>54.2</ele>
        <time>2025-02-11T09:15:53Z</time>
      </trkpt>
      <trkpt lat="47.80969" lon="-2.40597">
        <ele>54.2</ele>
        <time>2025-02-11T09:15:54Z</time>
      </trkpt>
      <trkpt lat="47.80969" lon="-2.40596">
        <ele>54</ele>
        <time>2025-02-11T09:15:55Z</time>
      </trkpt>
      <trkpt lat="47.8097" lon="-2.40595">
        <ele>53.9</ele>
        <time>2025-02-11T09:15:56Z</time>
      </trkpt>
      <trkpt lat="47.80971" lon="-2.40595">
        <ele>53.8</ele>
        <time>2025-02-11T09:15:57Z</time>
      </trkpt>
      <trkpt lat="47.80972" lon="-2.40594">
        <ele>53.6</ele>
        <time>2025-02-11T09:15:58Z</time>
      </trkpt>
      <trkpt lat="47.80973" lon="-2.40593">
        <ele>53.6</ele>
        <time>2025-02-11T09:15:59Z</time>
      </trkpt>
      <trkpt lat="47.80975" lon="-2.40592">
        <ele>53.5</ele>
        <time>2025-02-11T09:16:00Z</time>
      </trkpt>
      <trkpt lat="47.80976" lon="-2.40591">
        <ele>53.5</ele>
        <time>2025-02-11T09:16:01Z</time>
      </trkpt>
      <trkpt lat="47.80977" lon="-2.40589">
        <ele>53.4</ele>
        <time>2025-02-11T09:16:02Z</time>
      </trkpt>
      <trkpt lat="47.80977" lon="-2.40588">
        <ele>53.4</ele>
        <time>2025-02-11T09:16:03Z</time>
      </trkpt>
      <trkpt lat="47.80978" lon="-2.40585">
        <ele>53.4</ele>
        <time>2025-02-11T09:16:04Z</time>
      </trkpt>
      <trkpt lat="47.80978" lon="-2.40584">
        <ele>53.4</ele>
        <time>2025-02-11T09:16:05Z</time>
      </trkpt>
      <trkpt lat="47.80978" lon="-2.40582">
        <ele>53.3</ele>
        <time>2025-02-11T09:16:06Z</time>
      </trkpt>
      <trkpt lat="47.80979" lon="-2.40581">
        <ele>53.3</ele>
        <time>2025-02-11T09:16:07Z</time>
      </trkpt>
      <trkpt lat="47.80979" lon="-2.40579">
        <ele>53.3</ele>
        <time>2025-02-11T09:16:08Z</time>
      </trkpt>
      <trkpt lat="47.80979" lon="-2.40578">
        <ele>53.3</ele>
        <time>2025-02-11T09:16:09Z</time>
      </trkpt>
      <trkpt lat="47.80979" lon="-2.40576">
        <ele>53.3</ele>
        <time>2025-02-11T09:16:10Z</time>
      </trkpt>
      <trkpt lat="47.80979" lon="-2.40575">
        <ele>53.2</ele>
        <time>2025-02-11T09:16:11Z</time>
      </trkpt>
      <trkpt lat="47.8098" lon="-2.40574">
        <ele>53.1</ele>
        <time>2025-02-11T09:16:12Z</time>
      </trkpt>
      <trkpt lat="47.80981" lon="-2.40573">
        <ele>53.1</ele>
        <time>2025-02-11T09:16:13Z</time>
      </trkpt>
      <trkpt lat="47.80982" lon="-2.40572">
        <ele>53</ele>
        <time>2025-02-11T09:16:14Z</time>
      </trkpt>
      <trkpt lat="47.80982" lon="-2.40571">
        <ele>52.9</ele>
        <time>2025-02-11T09:16:15Z</time>
      </trkpt>
      <trkpt lat="47.80983" lon="-2.4057">
        <ele>52.8</ele>
        <time>2025-02-11T09:16:16Z</time>
      </trkpt>
      <trkpt lat="47.80984" lon="-2.4057">
        <ele>52.7</ele>
        <time>2025-02-11T09:16:17Z</time>
      </trkpt>
      <trkpt lat="47.80985" lon="-2.4057">
        <ele>52.6</ele>
        <time>2025-02-11T09:16:18Z</time>
      </trkpt>
      <trkpt lat="47.80986" lon="-2.4057">
        <ele>52.5</ele>
        <time>2025-02-11T09:16:19Z</time>
      </trkpt>
      <trkpt lat="47.80987" lon="-2.40571">
        <ele>52.4</ele>
        <time>2025-02-11T09:16:20Z</time>
      </trkpt>
      <trkpt lat="47.80988" lon="-2.40571">
        <ele>52.3</ele>
        <time>2025-02-11T09:16:21Z</time>
      </trkpt>
      <trkpt lat="47.80989" lon="-2.4057">
        <ele>52.2</ele>
        <time>2025-02-11T09:16:22Z</time>
      </trkpt>
      <trkpt lat="47.8099" lon="-2.40568">
        <ele>52.1</ele>
        <time>2025-02-11T09:16:23Z</time>
      </trkpt>
      <trkpt lat="47.80991" lon="-2.40566">
        <ele>52</ele>
        <time>2025-02-11T09:16:24Z</time>
      </trkpt>
      <trkpt lat="47.80991" lon="-2.40565">
        <ele>52</ele>
        <time>2025-02-11T09:16:25Z</time>
      </trkpt>
      <trkpt lat="47.80991" lon="-2.40563">
        <ele>51.9</ele>
        <time>2025-02-11T09:16:26Z</time>
      </trkpt>
      <trkpt lat="47.80991" lon="-2.40561">
        <ele>52</ele>
        <time>2025-02-11T09:16:27Z</time>
      </trkpt>
      <trkpt lat="47.80991" lon="-2.40559">
        <ele>52</ele>
        <time>2025-02-11T09:16:28Z</time>
      </trkpt>
      <trkpt lat="47.80991" lon="-2.40558">
        <ele>52</ele>
        <time>2025-02-11T09:16:29Z</time>
      </trkpt>
      <trkpt lat="47.80992" lon="-2.40556">
        <ele>51.9</ele>
        <time>2025-02-11T09:16:30Z</time>
      </trkpt>
      <trkpt lat="47.80993" lon="-2.40555">
        <ele>51.8</ele>
        <time>2025-02-11T09:16:31Z</time>
      </trkpt>
      <trkpt lat="47.80994" lon="-2.40555">
        <ele>51.7</ele>
        <time>2025-02-11T09:16:32Z</time>
      </trkpt>
      <trkpt lat="47.80995" lon="-2.40554">
        <ele>51.7</ele>
        <time>2025-02-11T09:16:33Z</time>
      </trkpt>
      <trkpt lat="47.80995" lon="-2.40553">
        <ele>51.7</ele>
        <time>2025-02-11T09:16:34Z</time>
      </trkpt>
      <trkpt lat="47.80996" lon="-2.40552">
        <ele>51.6</ele>
        <time>2025-02-11T09:16:35Z</time>
      </trkpt>
      <trkpt lat="47.80996" lon="-2.40551">
        <ele>51.7</ele>
        <time>2025-02-11T09:16:36Z</time>
      </trkpt>
      <trkpt lat="47.80996" lon="-2.40549">
        <ele>51.8</ele>
        <time>2025-02-11T09:16:37Z</time>
      </trkpt>
      <trkpt lat="47.80997" lon="-2.40548">
        <ele>51.9</ele>
        <time>2025-02-11T09:16:38Z</time>
      </trkpt>
      <trkpt lat="47.80997" lon="-2.40546">
        <ele>52</ele>
        <time>2025-02-11T09:16:39Z</time>
      </trkpt>
      <trkpt lat="47.80996" lon="-2.40545">
        <ele>52.1</ele>
        <time>2025-02-11T09:16:40Z</time>
      </trkpt>
      <trkpt lat="47.80997" lon="-2.40543">
        <ele>52.1</ele>
        <time>2025-02-11T09:16:41Z</time>
      </trkpt>
      <trkpt lat="47.80997" lon="-2.40542">
        <ele>52.2</ele>
        <time>2025-02-11T09:16:42Z</time>
      </trkpt>
      <trkpt lat="47.80997" lon="-2.40541">
        <ele>52.2</ele>
        <time>2025-02-11T09:16:43Z</time>
      </trkpt>
      <trkpt lat="47.80998" lon="-2.4054">
        <ele>52.2</ele>
        <time>2025-02-11T09:16:44Z</time>
      </trkpt>
      <trkpt lat="47.80998" lon="-2.40539">
        <ele>52.3</ele>
        <time>2025-02-11T09:16:45Z</time>
      </trkpt>
      <trkpt lat="47.80998" lon="-2.40538">
        <ele>52.4</ele>
        <time>2025-02-11T09:16:46Z</time>
      </trkpt>
      <trkpt lat="47.80999" lon="-2.40537">
        <ele>52.4</ele>
        <time>2025-02-11T09:16:47Z</time>
      </trkpt>
      <trkpt lat="47.80999" lon="-2.40536">
        <ele>52.5</ele>
        <time>2025-02-11T09:16:48Z</time>
      </trkpt>
      <trkpt lat="47.80999" lon="-2.40534">
        <ele>52.6</ele>
        <time>2025-02-11T09:16:49Z</time>
      </trkpt>
      <trkpt lat="47.80999" lon="-2.40533">
        <ele>52.7</ele>
        <time>2025-02-11T09:16:50Z</time>
      </trkpt>
      <trkpt lat="47.80999" lon="-2.40532">
        <ele>52.8</ele>
        <time>2025-02-11T09:16:51Z</time>
      </trkpt>
      <trkpt lat="47.80999" lon="-2.4053">
        <ele>52.9</ele>
        <time>2025-02-11T09:16:52Z</time>
      </trkpt>
      <trkpt lat="47.80998" lon="-2.40528">
        <ele>53</ele>
        <time>2025-02-11T09:16:53Z</time>
      </trkpt>
      <trkpt lat="47.80998" lon="-2.40527">
        <ele>53.4</ele>
        <time>2025-02-11T09:16:54Z</time>
      </trkpt>
      <trkpt lat="47.80998" lon="-2.40526">
        <ele>53.8</ele>
        <time>2025-02-11T09:16:55Z</time>
      </trkpt>
      <trkpt lat="47.80998" lon="-2.40524">
        <ele>54.4</ele>
        <time>2025-02-11T09:16:56Z</time>
      </trkpt>
      <trkpt lat="47.80999" lon="-2.40523">
        <ele>54.7</ele>
        <time>2025-02-11T09:16:57Z</time>
      </trkpt>
      <trkpt lat="47.80999" lon="-2.40522">
        <ele>55.1</ele>
        <time>2025-02-11T09:16:58Z</time>
      </trkpt>
      <trkpt lat="47.80999" lon="-2.40521">
        <ele>55.3</ele>
        <time>2025-02-11T09:16:59Z</time>
      </trkpt>
      <trkpt lat="47.81" lon="-2.40519">
        <ele>56.2</ele>
        <time>2025-02-11T09:17:00Z</time>
      </trkpt>
      <trkpt lat="47.80999" lon="-2.40518">
        <ele>56.5</ele>
        <time>2025-02-11T09:17:01Z</time>
      </trkpt>
      <trkpt lat="47.80998" lon="-2.40517">
        <ele>56.6</ele>
        <time>2025-02-11T09:17:02Z</time>
      </trkpt>
      <trkpt lat="47.80997" lon="-2.40516">
        <ele>56.9</ele>
        <time>2025-02-11T09:17:03Z</time>
      </trkpt>
      <trkpt lat="47.80997" lon="-2.40515">
        <ele>57.2</ele>
        <time>2025-02-11T09:17:04Z</time>
      </trkpt>
      <trkpt lat="47.80996" lon="-2.40514">
        <ele>57.5</ele>
        <time>2025-02-11T09:17:05Z</time>
      </trkpt>
      <trkpt lat="47.80995" lon="-2.40514">
        <ele>57.5</ele>
        <time>2025-02-11T09:17:06Z</time>
      </trkpt>
      <trkpt lat="47.80994" lon="-2.40513">
        <ele>57.6</ele>
        <time>2025-02-11T09:17:07Z</time>
      </trkpt>
      <trkpt lat="47.80993" lon="-2.40512">
        <ele>57.7</ele>
        <time>2025-02-11T09:17:08Z</time>
      </trkpt>
      <trkpt lat="47.80992" lon="-2.40511">
        <ele>57.9</ele>
        <time>2025-02-11T09:17:09Z</time>
      </trkpt>
      <trkpt lat="47.80991" lon="-2.4051">
        <ele>58</ele>
        <time>2025-02-11T09:17:10Z</time>
      </trkpt>
      <trkpt lat="47.8099" lon="-2.4051">
        <ele>58</ele>
        <time>2025-02-11T09:17:11Z</time>
      </trkpt>
      <trkpt lat="47.80989" lon="-2.40509">
        <ele>58</ele>
        <time>2025-02-11T09:17:12Z</time>
      </trkpt>
      <trkpt lat="47.80989" lon="-2.40508">
        <ele>58.1</ele>
        <time>2025-02-11T09:17:13Z</time>
      </trkpt>
      <trkpt lat="47.80988" lon="-2.40508">
        <ele>58.2</ele>
        <time>2025-02-11T09:17:14Z</time>
      </trkpt>
      <trkpt lat="47.80988" lon="-2.40506">
        <ele>58.4</ele>
        <time>2025-02-11T09:17:15Z</time>
      </trkpt>
      <trkpt lat="47.80987" lon="-2.40506">
        <ele>58.5</ele>
        <time>2025-02-11T09:17:16Z</time>
      </trkpt>
      <trkpt lat="47.80987" lon="-2.40505">
        <ele>58.6</ele>
        <time>2025-02-11T09:17:17Z</time>
      </trkpt>
      <trkpt lat="47.80986" lon="-2.40504">
        <ele>58.6</ele>
        <time>2025-02-11T09:17:18Z</time>
      </trkpt>
      <trkpt lat="47.80986" lon="-2.40503">
        <ele>58.8</ele>
        <time>2025-02-11T09:17:19Z</time>
      </trkpt>
      <trkpt lat="47.80984" lon="-2.40502">
        <ele>58.6</ele>
        <time>2025-02-11T09:17:20Z</time>
      </trkpt>
      <trkpt lat="47.80983" lon="-2.40501">
        <ele>58.5</ele>
        <time>2025-02-11T09:17:21Z</time>
      </trkpt>
      <trkpt lat="47.80982" lon="-2.405">
        <ele>58.5</ele>
        <time>2025-02-11T09:17:22Z</time>
      </trkpt>
      <trkpt lat="47.80982" lon="-2.40499">
        <ele>58.5</ele>
        <time>2025-02-11T09:17:23Z</time>
      </trkpt>
      <trkpt lat="47.8098" lon="-2.40498">
        <ele>58.4</ele>
        <time>2025-02-11T09:17:24Z</time>
      </trkpt>
      <trkpt lat="47.80979" lon="-2.40498">
        <ele>58.3</ele>
        <time>2025-02-11T09:17:25Z</time>
      </trkpt>
      <trkpt lat="47.80979" lon="-2.40497">
        <ele>58.2</ele>
        <time>2025-02-11T09:17:26Z</time>
      </trkpt>
      <trkpt lat="47.80977" lon="-2.40497">
        <ele>57.9</ele>
        <time>2025-02-11T09:17:27Z</time>
      </trkpt>
      <trkpt lat="47.80976" lon="-2.40496">
        <ele>58</ele>
        <time>2025-02-11T09:17:28Z</time>
      </trkpt>
      <trkpt lat="47.80975" lon="-2.40495">
        <ele>58</ele>
        <time>2025-02-11T09:17:29Z</time>
      </trkpt>
      <trkpt lat="47.80974" lon="-2.40495">
        <ele>57.9</ele>
        <time>2025-02-11T09:17:30Z</time>
      </trkpt>
      <trkpt lat="47.80973" lon="-2.40493">
        <ele>58.1</ele>
        <time>2025-02-11T09:17:31Z</time>
      </trkpt>
      <trkpt lat="47.80972" lon="-2.40493">
        <ele>58.2</ele>
        <time>2025-02-11T09:17:32Z</time>
      </trkpt>
      <trkpt lat="47.80971" lon="-2.40492">
        <ele>58.4</ele>
        <time>2025-02-11T09:17:33Z</time>
      </trkpt>
      <trkpt lat="47.8097" lon="-2.40492">
        <ele>58.3</ele>
        <time>2025-02-11T09:17:34Z</time>
      </trkpt>
      <trkpt lat="47.80969" lon="-2.40492">
        <ele>58.4</ele>
        <time>2025-02-11T09:17:35Z</time>
      </trkpt>
      <trkpt lat="47.80967" lon="-2.40492">
        <ele>58.5</ele>
        <time>2025-02-11T09:17:36Z</time>
      </trkpt>
      <trkpt lat="47.80966" lon="-2.40491">
        <ele>58.6</ele>
        <time>2025-02-11T09:17:37Z</time>
      </trkpt>
      <trkpt lat="47.80965" lon="-2.40491">
        <ele>58.8</ele>
        <time>2025-02-11T09:17:38Z</time>
      </trkpt>
      <trkpt lat="47.80965" lon="-2.40491">
        <ele>58.8</ele>
        <time>2025-02-11T09:17:39Z</time>
      </trkpt>
      <trkpt lat="47.80964" lon="-2.4049">
        <ele>58.9</ele>
        <time>2025-02-11T09:17:40Z</time>
      </trkpt>
      <trkpt lat="47.80963" lon="-2.4049">
        <ele>58.9</ele>
        <time>2025-02-11T09:17:41Z</time>
      </trkpt>
      <trkpt lat="47.80963" lon="-2.40489">
        <ele>59.2</ele>
        <time>2025-02-11T09:17:42Z</time>
      </trkpt>
      <trkpt lat="47.80962" lon="-2.40489">
        <ele>59.3</ele>
        <time>2025-02-11T09:17:43Z</time>
      </trkpt>
      <trkpt lat="47.80961" lon="-2.40488">
        <ele>59.4</ele>
        <time>2025-02-11T09:17:44Z</time>
      </trkpt>
      <trkpt lat="47.80961" lon="-2.40487">
        <ele>59.6</ele>
        <time>2025-02-11T09:17:45Z</time>
      </trkpt>
      <trkpt lat="47.8096" lon="-2.40486">
        <ele>59.8</ele>
        <time>2025-02-11T09:17:46Z</time>
      </trkpt>
      <trkpt lat="47.80959" lon="-2.40485">
        <ele>60</ele>
        <time>2025-02-11T09:17:47Z</time>
      </trkpt>
      <trkpt lat="47.80959" lon="-2.40485">
        <ele>60</ele>
        <time>2025-02-11T09:17:48Z</time>
      </trkpt>
      <trkpt lat="47.80958" lon="-2.40484">
        <ele>60.1</ele>
        <time>2025-02-11T09:17:49Z</time>
      </trkpt>
      <trkpt lat="47.80957" lon="-2.40483">
        <ele>60.3</ele>
        <time>2025-02-11T09:17:50Z</time>
      </trkpt>
      <trkpt lat="47.80957" lon="-2.40482">
        <ele>60.5</ele>
        <time>2025-02-11T09:17:51Z</time>
      </trkpt>
      <trkpt lat="47.80956" lon="-2.40481">
        <ele>60.6</ele>
        <time>2025-02-11T09:17:52Z</time>
      </trkpt>
      <trkpt lat="47.80955" lon="-2.4048">
        <ele>60.7</ele>
        <time>2025-02-11T09:17:53Z</time>
      </trkpt>
      <trkpt lat="47.80954" lon="-2.4048">
        <ele>60.7</ele>
        <time>2025-02-11T09:17:54Z</time>
      </trkpt>
      <trkpt lat="47.80953" lon="-2.40479">
        <ele>60.9</ele>
        <time>2025-02-11T09:17:55Z</time>
      </trkpt>
      <trkpt lat="47.80952" lon="-2.40477">
        <ele>61</ele>
        <time>2025-02-11T09:17:56Z</time>
      </trkpt>
      <trkpt lat="47.80951" lon="-2.40477">
        <ele>61.1</ele>
        <time>2025-02-11T09:17:57Z</time>
      </trkpt>
      <trkpt lat="47.8095" lon="-2.40476">
        <ele>61.1</ele>
        <time>2025-02-11T09:17:58Z</time>
      </trkpt>
      <trkpt lat="47.8095" lon="-2.40476">
        <ele>61.1</ele>
        <time>2025-02-11T09:17:59Z</time>
      </trkpt>
      <trkpt lat="47.80949" lon="-2.40475">
        <ele>61.1</ele>
        <time>2025-02-11T09:18:00Z</time>
      </trkpt>
      <trkpt lat="47.80948" lon="-2.40475">
        <ele>61.1</ele>
        <time>2025-02-11T09:18:01Z</time>
      </trkpt>
      <trkpt lat="47.80947" lon="-2.40475">
        <ele>61</ele>
        <time>2025-02-11T09:18:02Z</time>
      </trkpt>
      <trkpt lat="47.80947" lon="-2.40474">
        <ele>61</ele>
        <time>2025-02-11T09:18:03Z</time>
      </trkpt>
      <trkpt lat="47.80946" lon="-2.40473">
        <ele>61.1</ele>
        <time>2025-02-11T09:18:04Z</time>
      </trkpt>
      <trkpt lat="47.80945" lon="-2.40473">
        <ele>61</ele>
        <time>2025-02-11T09:18:05Z</time>
      </trkpt>
      <trkpt lat="47.80944" lon="-2.40472">
        <ele>61</ele>
        <time>2025-02-11T09:18:06Z</time>
      </trkpt>
      <trkpt lat="47.80943" lon="-2.40472">
        <ele>61.1</ele>
        <time>2025-02-11T09:18:07Z</time>
      </trkpt>
      <trkpt lat="47.80942" lon="-2.40471">
        <ele>61.2</ele>
        <time>2025-02-11T09:18:08Z</time>
      </trkpt>
      <trkpt lat="47.80941" lon="-2.40471">
        <ele>61.4</ele>
        <time>2025-02-11T09:18:09Z</time>
      </trkpt>
      <trkpt lat="47.8094" lon="-2.4047">
        <ele>61.4</ele>
        <time>2025-02-11T09:18:10Z</time>
      </trkpt>
      <trkpt lat="47.80939" lon="-2.4047">
        <ele>61.5</ele>
        <time>2025-02-11T09:18:11Z</time>
      </trkpt>
      <trkpt lat="47.80938" lon="-2.40469">
        <ele>61.6</ele>
        <time>2025-02-11T09:18:12Z</time>
      </trkpt>
      <trkpt lat="47.80937" lon="-2.40468">
        <ele>61.8</ele>
        <time>2025-02-11T09:18:13Z</time>
      </trkpt>
      <trkpt lat="47.80936" lon="-2.40467">
        <ele>61.9</ele>
        <time>2025-02-11T09:18:14Z</time>
      </trkpt>
      <trkpt lat="47.80936" lon="-2.40466">
        <ele>62.1</ele>
        <time>2025-02-11T09:18:15Z</time>
      </trkpt>
      <trkpt lat="47.80935" lon="-2.40465">
        <ele>62.2</ele>
        <time>2025-02-11T09:18:16Z</time>
      </trkpt>
      <trkpt lat="47.80934" lon="-2.40465">
        <ele>62.2</ele>
        <time>2025-02-11T09:18:17Z</time>
      </trkpt>
      <trkpt lat="47.80934" lon="-2.40465">
        <ele>62.2</ele>
        <time>2025-02-11T09:18:18Z</time>
      </trkpt>
      <trkpt lat="47.80933" lon="-2.40466">
        <ele>62.2</ele>
        <time>2025-02-11T09:18:19Z</time>
      </trkpt>
      <trkpt lat="47.80933" lon="-2.40466">
        <ele>62.2</ele>
        <time>2025-02-11T09:18:20Z</time>
      </trkpt>
      <trkpt lat="47.80932" lon="-2.40466">
        <ele>62.1</ele>
        <time>2025-02-11T09:18:21Z</time>
      </trkpt>
      <trkpt lat="47.80932" lon="-2.40466">
        <ele>62.1</ele>
        <time>2025-02-11T09:18:22Z</time>
      </trkpt>
      <trkpt lat="47.80931" lon="-2.40466">
        <ele>62.2</ele>
        <time>2025-02-11T09:18:23Z</time>
      </trkpt>
      <trkpt lat="47.8093" lon="-2.40465">
        <ele>62.3</ele>
        <time>2025-02-11T09:18:24Z</time>
      </trkpt>
      <trkpt lat="47.80929" lon="-2.40465">
        <ele>62.3</ele>
        <time>2025-02-11T09:18:25Z</time>
      </trkpt>
      <trkpt lat="47.80929" lon="-2.40464">
        <ele>62.4</ele>
        <time>2025-02-11T09:18:26Z</time>
      </trkpt>
      <trkpt lat="47.80928" lon="-2.40464">
        <ele>62.5</ele>
        <time>2025-02-11T09:18:27Z</time>
      </trkpt>
      <trkpt lat="47.80927" lon="-2.40463">
        <ele>62.6</ele>
        <time>2025-02-11T09:18:28Z</time>
      </trkpt>
      <trkpt lat="47.80927" lon="-2.40462">
        <ele>62.6</ele>
        <time>2025-02-11T09:18:29Z</time>
      </trkpt>
      <trkpt lat="47.80926" lon="-2.40462">
        <ele>62.7</ele>
        <time>2025-02-11T09:18:30Z</time>
      </trkpt>
      <trkpt lat="47.80925" lon="-2.40462">
        <ele>62.7</ele>
        <time>2025-02-11T09:18:31Z</time>
      </trkpt>
      <trkpt lat="47.80924" lon="-2.40462">
        <ele>62.6</ele>
        <time>2025-02-11T09:18:32Z</time>
      </trkpt>
      <trkpt lat="47.80923" lon="-2.40463">
        <ele>62.6</ele>
        <time>2025-02-11T09:18:33Z</time>
      </trkpt>
      <trkpt lat="47.80922" lon="-2.40463">
        <ele>62.6</ele>
        <time>2025-02-11T09:18:34Z</time>
      </trkpt>
      <trkpt lat="47.80921" lon="-2.40463">
        <ele>62.6</ele>
        <time>2025-02-11T09:18:35Z</time>
      </trkpt>
      <trkpt lat="47.8092" lon="-2.40464">
        <ele>62.6</ele>
        <time>2025-02-11T09:18:36Z</time>
      </trkpt>
      <trkpt lat="47.80918" lon="-2.40464">
        <ele>62.6</ele>
        <time>2025-02-11T09:18:37Z</time>
      </trkpt>
      <trkpt lat="47.80917" lon="-2.40464">
        <ele>62.6</ele>
        <time>2025-02-11T09:18:38Z</time>
      </trkpt>
      <trkpt lat="47.80916" lon="-2.40463">
        <ele>62.6</ele>
        <time>2025-02-11T09:18:39Z</time>
      </trkpt>
      <trkpt lat="47.80915" lon="-2.40463">
        <ele>62.7</ele>
        <time>2025-02-11T09:18:40Z</time>
      </trkpt>
      <trkpt lat="47.80914" lon="-2.40462">
        <ele>62.8</ele>
        <time>2025-02-11T09:18:41Z</time>
      </trkpt>
      <trkpt lat="47.80914" lon="-2.40462">
        <ele>62.8</ele>
        <time>2025-02-11T09:18:42Z</time>
      </trkpt>
      <trkpt lat="47.80913" lon="-2.40462">
        <ele>62.8</ele>
        <time>2025-02-11T09:18:43Z</time>
      </trkpt>
      <trkpt lat="47.80912" lon="-2.40462">
        <ele>62.8</ele>
        <time>2025-02-11T09:18:44Z</time>
      </trkpt>
      <trkpt lat="47.80911" lon="-2.40462">
        <ele>62.9</ele>
        <time>2025-02-11T09:18:45Z</time>
      </trkpt>
      <trkpt lat="47.8091" lon="-2.40461">
        <ele>62.9</ele>
        <time>2025-02-11T09:18:46Z</time>
      </trkpt>
      <trkpt lat="47.80909" lon="-2.40461">
        <ele>63</ele>
        <time>2025-02-11T09:18:47Z</time>
      </trkpt>
      <trkpt lat="47.80908" lon="-2.40461">
        <ele>63</ele>
        <time>2025-02-11T09:18:48Z</time>
      </trkpt>
      <trkpt lat="47.80907" lon="-2.40461">
        <ele>63</ele>
        <time>2025-02-11T09:18:49Z</time>
      </trkpt>
      <trkpt lat="47.80906" lon="-2.40461">
        <ele>63.1</ele>
        <time>2025-02-11T09:18:50Z</time>
      </trkpt>
      <trkpt lat="47.80905" lon="-2.40461">
        <ele>63.1</ele>
        <time>2025-02-11T09:18:51Z</time>
      </trkpt>
      <trkpt lat="47.80904" lon="-2.40461">
        <ele>63.1</ele>
        <time>2025-02-11T09:18:52Z</time>
      </trkpt>
      <trkpt lat="47.80904" lon="-2.40461">
        <ele>63.1</ele>
        <time>2025-02-11T09:18:53Z</time>
      </trkpt>
      <trkpt lat="47.80903" lon="-2.40461">
        <ele>63.1</ele>
        <time>2025-02-11T09:18:54Z</time>
      </trkpt>
      <trkpt lat="47.80902" lon="-2.40462">
        <ele>63.1</ele>
        <time>2025-02-11T09:18:55Z</time>
      </trkpt>
      <trkpt lat="47.809" lon="-2.40463">
        <ele>63</ele>
        <time>2025-02-11T09:18:56Z</time>
      </trkpt>
      <trkpt lat="47.80899" lon="-2.40463">
        <ele>63.1</ele>
        <time>2025-02-11T09:18:57Z</time>
      </trkpt>
      <trkpt lat="47.80898" lon="-2.40464">
        <ele>63</ele>
        <time>2025-02-11T09:18:58Z</time>
      </trkpt>
      <trkpt lat="47.80897" lon="-2.40466">
        <ele>63</ele>
        <time>2025-02-11T09:18:59Z</time>
      </trkpt>
      <trkpt lat="47.80896" lon="-2.40465">
        <ele>63.1</ele>
        <time>2025-02-11T09:19:00Z</time>
      </trkpt>
      <trkpt lat="47.80895" lon="-2.40465">
        <ele>63.1</ele>
        <time>2025-02-11T09:19:01Z</time>
      </trkpt>
      <trkpt lat="47.80894" lon="-2.40465">
        <ele>63.1</ele>
        <time>2025-02-11T09:19:02Z</time>
      </trkpt>
      <trkpt lat="47.80892" lon="-2.40466">
        <ele>63.2</ele>
        <time>2025-02-11T09:19:03Z</time>
      </trkpt>
      <trkpt lat="47.80891" lon="-2.40465">
        <ele>63.2</ele>
        <time>2025-02-11T09:19:04Z</time>
      </trkpt>
      <trkpt lat="47.8089" lon="-2.40464">
        <ele>63.3</ele>
        <time>2025-02-11T09:19:05Z</time>
      </trkpt>
      <trkpt lat="47.80889" lon="-2.40463">
        <ele>63.3</ele>
        <time>2025-02-11T09:19:06Z</time>
      </trkpt>
      <trkpt lat="47.80889" lon="-2.40462">
        <ele>63.4</ele>
        <time>2025-02-11T09:19:07Z</time>
      </trkpt>
      <trkpt lat="47.80889" lon="-2.4046">
        <ele>63.5</ele>
        <time>2025-02-11T09:19:08Z</time>
      </trkpt>
      <trkpt lat="47.80889" lon="-2.40458">
        <ele>63.5</ele>
        <time>2025-02-11T09:19:09Z</time>
      </trkpt>
      <trkpt lat="47.8089" lon="-2.40456">
        <ele>63.6</ele>
        <time>2025-02-11T09:19:10Z</time>
      </trkpt>
      <trkpt lat="47.8089" lon="-2.40455">
        <ele>63.6</ele>
        <time>2025-02-11T09:19:11Z</time>
      </trkpt>
      <trkpt lat="47.80891" lon="-2.40453">
        <ele>63.7</ele>
        <time>2025-02-11T09:19:12Z</time>
      </trkpt>
      <trkpt lat="47.80891" lon="-2.40452">
        <ele>63.7</ele>
        <time>2025-02-11T09:19:13Z</time>
      </trkpt>
      <trkpt lat="47.80892" lon="-2.40451">
        <ele>63.7</ele>
        <time>2025-02-11T09:19:14Z</time>
      </trkpt>
      <trkpt lat="47.80893" lon="-2.4045">
        <ele>63.8</ele>
        <time>2025-02-11T09:19:15Z</time>
      </trkpt>
      <trkpt lat="47.80895" lon="-2.4045">
        <ele>63.8</ele>
        <time>2025-02-11T09:19:16Z</time>
      </trkpt>
      <trkpt lat="47.80896" lon="-2.4045">
        <ele>63.7</ele>
        <time>2025-02-11T09:19:17Z</time>
      </trkpt>
      <trkpt lat="47.80897" lon="-2.4045">
        <ele>63.8</ele>
        <time>2025-02-11T09:19:18Z</time>
      </trkpt>
      <trkpt lat="47.80899" lon="-2.40449">
        <ele>63.8</ele>
        <time>2025-02-11T09:19:19Z</time>
      </trkpt>
      <trkpt lat="47.80899" lon="-2.40448">
        <ele>63.8</ele>
        <time>2025-02-11T09:19:20Z</time>
      </trkpt>
      <trkpt lat="47.809" lon="-2.40447">
        <ele>63.9</ele>
        <time>2025-02-11T09:19:21Z</time>
      </trkpt>
      <trkpt lat="47.80901" lon="-2.40447">
        <ele>63.9</ele>
        <time>2025-02-11T09:19:22Z</time>
      </trkpt>
      <trkpt lat="47.80902" lon="-2.40447">
        <ele>63.8</ele>
        <time>2025-02-11T09:19:23Z</time>
      </trkpt>
      <trkpt lat="47.80903" lon="-2.40448">
        <ele>63.8</ele>
        <time>2025-02-11T09:19:24Z</time>
      </trkpt>
      <trkpt lat="47.80904" lon="-2.40448">
        <ele>63.8</ele>
        <time>2025-02-11T09:19:25Z</time>
      </trkpt>
      <trkpt lat="47.80905" lon="-2.40447">
        <ele>63.8</ele>
        <time>2025-02-11T09:19:26Z</time>
      </trkpt>
      <trkpt lat="47.80906" lon="-2.40446">
        <ele>63.9</ele>
        <time>2025-02-11T09:19:27Z</time>
      </trkpt>
      <trkpt lat="47.80907" lon="-2.40446">
        <ele>63.9</ele>
        <time>2025-02-11T09:19:28Z</time>
      </trkpt>
      <trkpt lat="47.80908" lon="-2.40445">
        <ele>64</ele>
        <time>2025-02-11T09:19:29Z</time>
      </trkpt>
      <trkpt lat="47.80909" lon="-2.40444">
        <ele>64</ele>
        <time>2025-02-11T09:19:30Z</time>
      </trkpt>
      <trkpt lat="47.8091" lon="-2.40442">
        <ele>64.1</ele>
        <time>2025-02-11T09:19:31Z</time>
      </trkpt>
      <trkpt lat="47.80911" lon="-2.40442">
        <ele>64.1</ele>
        <time>2025-02-11T09:19:32Z</time>
      </trkpt>
      <trkpt lat="47.80911" lon="-2.40442">
        <ele>64.1</ele>
        <time>2025-02-11T09:19:33Z</time>
      </trkpt>
      <trkpt lat="47.80912" lon="-2.40441">
        <ele>64.1</ele>
        <time>2025-02-11T09:19:34Z</time>
      </trkpt>
      <trkpt lat="47.80913" lon="-2.4044">
        <ele>64.1</ele>
        <time>2025-02-11T09:19:35Z</time>
      </trkpt>
      <trkpt lat="47.80914" lon="-2.4044">
        <ele>64.1</ele>
        <time>2025-02-11T09:19:36Z</time>
      </trkpt>
      <trkpt lat="47.80915" lon="-2.40441">
        <ele>64.1</ele>
        <time>2025-02-11T09:19:37Z</time>
      </trkpt>
      <trkpt lat="47.80916" lon="-2.40441">
        <ele>64.1</ele>
        <time>2025-02-11T09:19:38Z</time>
      </trkpt>
      <trkpt lat="47.80916" lon="-2.40442">
        <ele>64.1</ele>
        <time>2025-02-11T09:19:39Z</time>
      </trkpt>
      <trkpt lat="47.80917" lon="-2.40442">
        <ele>64.1</ele>
        <time>2025-02-11T09:19:40Z</time>
      </trkpt>
      <trkpt lat="47.80919" lon="-2.40443">
        <ele>64.1</ele>
        <time>2025-02-11T09:19:41Z</time>
      </trkpt>
      <trkpt lat="47.8092" lon="-2.40443">
        <ele>64.1</ele>
        <time>2025-02-11T09:19:42Z</time>
      </trkpt>
      <trkpt lat="47.8092" lon="-2.40443">
        <ele>64.2</ele>
        <time>2025-02-11T09:19:43Z</time>
      </trkpt>
      <trkpt lat="47.80922" lon="-2.40443">
        <ele>64.2</ele>
        <time>2025-02-11T09:19:44Z</time>
      </trkpt>
      <trkpt lat="47.80922" lon="-2.40443">
        <ele>64.2</ele>
        <time>2025-02-11T09:19:45Z</time>
      </trkpt>
      <trkpt lat="47.80923" lon="-2.40443">
        <ele>64.3</ele>
        <time>2025-02-11T09:19:46Z</time>
      </trkpt>
      <trkpt lat="47.80924" lon="-2.40443">
        <ele>64.3</ele>
        <time>2025-02-11T09:19:47Z</time>
      </trkpt>
      <trkpt lat="47.80925" lon="-2.40443">
        <ele>64.3</ele>
        <time>2025-02-11T09:19:48Z</time>
      </trkpt>
      <trkpt lat="47.80926" lon="-2.40443">
        <ele>64.3</ele>
        <time>2025-02-11T09:19:49Z</time>
      </trkpt>
      <trkpt lat="47.80927" lon="-2.40444">
        <ele>64.4</ele>
        <time>2025-02-11T09:19:50Z</time>
      </trkpt>
      <trkpt lat="47.80928" lon="-2.40445">
        <ele>64.3</ele>
        <time>2025-02-11T09:19:51Z</time>
      </trkpt>
      <trkpt lat="47.80929" lon="-2.40447">
        <ele>64.2</ele>
        <time>2025-02-11T09:19:52Z</time>
      </trkpt>
      <trkpt lat="47.8093" lon="-2.40448">
        <ele>64.2</ele>
        <time>2025-02-11T09:19:53Z</time>
      </trkpt>
      <trkpt lat="47.80931" lon="-2.40448">
        <ele>64.1</ele>
        <time>2025-02-11T09:19:54Z</time>
      </trkpt>
      <trkpt lat="47.80932" lon="-2.40448">
        <ele>64.1</ele>
        <time>2025-02-11T09:19:55Z</time>
      </trkpt>
      <trkpt lat="47.80933" lon="-2.40449">
        <ele>64.1</ele>
        <time>2025-02-11T09:19:56Z</time>
      </trkpt>
      <trkpt lat="47.80934" lon="-2.40449">
        <ele>64.1</ele>
        <time>2025-02-11T09:19:57Z</time>
      </trkpt>
      <trkpt lat="47.80936" lon="-2.40448">
        <ele>64.2</ele>
        <time>2025-02-11T09:19:58Z</time>
      </trkpt>
      <trkpt lat="47.80938" lon="-2.40448">
        <ele>64.3</ele>
        <time>2025-02-11T09:19:59Z</time>
      </trkpt>
      <trkpt lat="47.80939" lon="-2.40448">
        <ele>64.3</ele>
        <time>2025-02-11T09:20:00Z</time>
      </trkpt>
      <trkpt lat="47.80941" lon="-2.40449">
        <ele>64.3</ele>
        <time>2025-02-11T09:20:01Z</time>
      </trkpt>
      <trkpt lat="47.80941" lon="-2.4045">
        <ele>64.2</ele>
        <time>2025-02-11T09:20:02Z</time>
      </trkpt>
      <trkpt lat="47.80942" lon="-2.4045">
        <ele>64.1</ele>
        <time>2025-02-11T09:20:03Z</time>
      </trkpt>
      <trkpt lat="47.80943" lon="-2.4045">
        <ele>64.1</ele>
        <time>2025-02-11T09:20:04Z</time>
      </trkpt>
      <trkpt lat="47.80944" lon="-2.40451">
        <ele>64.1</ele>
        <time>2025-02-11T09:20:05Z</time>
      </trkpt>
      <trkpt lat="47.80945" lon="-2.40451">
        <ele>64</ele>
        <time>2025-02-11T09:20:06Z</time>
      </trkpt>
      <trkpt lat="47.80946" lon="-2.4045">
        <ele>64.1</ele>
        <time>2025-02-11T09:20:07Z</time>
      </trkpt>
      <trkpt lat="47.80947" lon="-2.40449">
        <ele>64.2</ele>
        <time>2025-02-11T09:20:08Z</time>
      </trkpt>
      <trkpt lat="47.80947" lon="-2.40447">
        <ele>64.4</ele>
        <time>2025-02-11T09:20:09Z</time>
      </trkpt>
      <trkpt lat="47.80948" lon="-2.40445">
        <ele>64.5</ele>
        <time>2025-02-11T09:20:10Z</time>
      </trkpt>
      <trkpt lat="47.80949" lon="-2.40444">
        <ele>64.5</ele>
        <time>2025-02-11T09:20:11Z</time>
      </trkpt>
      <trkpt lat="47.8095" lon="-2.40444">
        <ele>64.4</ele>
        <time>2025-02-11T09:20:12Z</time>
      </trkpt>
      <trkpt lat="47.80951" lon="-2.40442">
        <ele>64.3</ele>
        <time>2025-02-11T09:20:13Z</time>
      </trkpt>
      <trkpt lat="47.80952" lon="-2.40443">
        <ele>64.1</ele>
        <time>2025-02-11T09:20:14Z</time>
      </trkpt>
      <trkpt lat="47.80953" lon="-2.40444">
        <ele>64</ele>
        <time>2025-02-11T09:20:15Z</time>
      </trkpt>
      <trkpt lat="47.80954" lon="-2.40444">
        <ele>63.9</ele>
        <time>2025-02-11T09:20:16Z</time>
      </trkpt>
      <trkpt lat="47.80955" lon="-2.40445">
        <ele>63.8</ele>
        <time>2025-02-11T09:20:17Z</time>
      </trkpt>
      <trkpt lat="47.80956" lon="-2.40446">
        <ele>63.7</ele>
        <time>2025-02-11T09:20:18Z</time>
      </trkpt>
      <trkpt lat="47.80957" lon="-2.40447">
        <ele>63.6</ele>
        <time>2025-02-11T09:20:19Z</time>
      </trkpt>
      <trkpt lat="47.80957" lon="-2.40448">
        <ele>63.4</ele>
        <time>2025-02-11T09:20:20Z</time>
      </trkpt>
      <trkpt lat="47.80958" lon="-2.40449">
        <ele>63.3</ele>
        <time>2025-02-11T09:20:21Z</time>
      </trkpt>
      <trkpt lat="47.80959" lon="-2.4045">
        <ele>63.2</ele>
        <time>2025-02-11T09:20:22Z</time>
      </trkpt>
      <trkpt lat="47.8096" lon="-2.40452">
        <ele>63.2</ele>
        <time>2025-02-11T09:20:23Z</time>
      </trkpt>
      <trkpt lat="47.80961" lon="-2.40453">
        <ele>63.1</ele>
        <time>2025-02-11T09:20:24Z</time>
      </trkpt>
      <trkpt lat="47.80962" lon="-2.40454">
        <ele>63</ele>
        <time>2025-02-11T09:20:25Z</time>
      </trkpt>
      <trkpt lat="47.80963" lon="-2.40455">
        <ele>63</ele>
        <time>2025-02-11T09:20:26Z</time>
      </trkpt>
      <trkpt lat="47.80964" lon="-2.40456">
        <ele>63</ele>
        <time>2025-02-11T09:20:27Z</time>
      </trkpt>
      <trkpt lat="47.80965" lon="-2.40456">
        <ele>63</ele>
        <time>2025-02-11T09:20:28Z</time>
      </trkpt>
      <trkpt lat="47.80965" lon="-2.40457">
        <ele>63</ele>
        <time>2025-02-11T09:20:29Z</time>
      </trkpt>
      <trkpt lat="47.80966" lon="-2.40458">
        <ele>63</ele>
        <time>2025-02-11T09:20:30Z</time>
      </trkpt>
      <trkpt lat="47.80967" lon="-2.40459">
        <ele>63</ele>
        <time>2025-02-11T09:20:31Z</time>
      </trkpt>
      <trkpt lat="47.80968" lon="-2.4046">
        <ele>63.1</ele>
        <time>2025-02-11T09:20:32Z</time>
      </trkpt>
      <trkpt lat="47.80969" lon="-2.40461">
        <ele>63.1</ele>
        <time>2025-02-11T09:20:33Z</time>
      </trkpt>
      <trkpt lat="47.8097" lon="-2.40461">
        <ele>63.2</ele>
        <time>2025-02-11T09:20:34Z</time>
      </trkpt>
      <trkpt lat="47.80971" lon="-2.40462">
        <ele>63.2</ele>
        <time>2025-02-11T09:20:35Z</time>
      </trkpt>
      <trkpt lat="47.80972" lon="-2.40463">
        <ele>63.3</ele>
        <time>2025-02-11T09:20:36Z</time>
      </trkpt>
      <trkpt lat="47.80974" lon="-2.40464">
        <ele>63.3</ele>
        <time>2025-02-11T09:20:37Z</time>
      </trkpt>
      <trkpt lat="47.80975" lon="-2.40465">
        <ele>63.3</ele>
        <time>2025-02-11T09:20:38Z</time>
      </trkpt>
      <trkpt lat="47.80975" lon="-2.40466">
        <ele>63.3</ele>
        <time>2025-02-11T09:20:39Z</time>
      </trkpt>
      <trkpt lat="47.80976" lon="-2.40467">
        <ele>63.3</ele>
        <time>2025-02-11T09:20:40Z</time>
      </trkpt>
      <trkpt lat="47.80978" lon="-2.40468">
        <ele>63.2</ele>
        <time>2025-02-11T09:20:41Z</time>
      </trkpt>
      <trkpt lat="47.80979" lon="-2.40469">
        <ele>63.1</ele>
        <time>2025-02-11T09:20:42Z</time>
      </trkpt>
      <trkpt lat="47.8098" lon="-2.4047">
        <ele>63</ele>
        <time>2025-02-11T09:20:43Z</time>
      </trkpt>
      <trkpt lat="47.80981" lon="-2.40471">
        <ele>63.1</ele>
        <time>2025-02-11T09:20:44Z</time>
      </trkpt>
      <trkpt lat="47.80981" lon="-2.40472">
        <ele>63</ele>
        <time>2025-02-11T09:20:45Z</time>
      </trkpt>
      <trkpt lat="47.80982" lon="-2.40473">
        <ele>62.8</ele>
        <time>2025-02-11T09:20:46Z</time>
      </trkpt>
      <trkpt lat="47.80983" lon="-2.40474">
        <ele>62.6</ele>
        <time>2025-02-11T09:20:47Z</time>
      </trkpt>
      <trkpt lat="47.80984" lon="-2.40475">
        <ele>62.4</ele>
        <time>2025-02-11T09:20:48Z</time>
      </trkpt>
      <trkpt lat="47.80985" lon="-2.40476">
        <ele>62.2</ele>
        <time>2025-02-11T09:20:49Z</time>
      </trkpt>
      <trkpt lat="47.80986" lon="-2.40477">
        <ele>62</ele>
        <time>2025-02-11T09:20:50Z</time>
      </trkpt>
      <trkpt lat="47.80987" lon="-2.40477">
        <ele>61.9</ele>
        <time>2025-02-11T09:20:51Z</time>
      </trkpt>
      <trkpt lat="47.80988" lon="-2.40478">
        <ele>61.8</ele>
        <time>2025-02-11T09:20:52Z</time>
      </trkpt>
      <trkpt lat="47.8099" lon="-2.40479">
        <ele>61.7</ele>
        <time>2025-02-11T09:20:53Z</time>
      </trkpt>
      <trkpt lat="47.80991" lon="-2.4048">
        <ele>61.6</ele>
        <time>2025-02-11T09:20:54Z</time>
      </trkpt>
      <trkpt lat="47.80992" lon="-2.40481">
        <ele>61.6</ele>
        <time>2025-02-11T09:20:55Z</time>
      </trkpt>
      <trkpt lat="47.80993" lon="-2.40482">
        <ele>61.6</ele>
        <time>2025-02-11T09:20:56Z</time>
      </trkpt>
      <trkpt lat="47.80994" lon="-2.40483">
        <ele>61.6</ele>
        <time>2025-02-11T09:20:57Z</time>
      </trkpt>
      <trkpt lat="47.80996" lon="-2.40483">
        <ele>61.6</ele>
        <time>2025-02-11T09:20:58Z</time>
      </trkpt>
      <trkpt lat="47.80997" lon="-2.40484">
        <ele>61.7</ele>
        <time>2025-02-11T09:20:59Z</time>
      </trkpt>
      <trkpt lat="47.80998" lon="-2.40485">
        <ele>61.8</ele>
        <time>2025-02-11T09:21:00Z</time>
      </trkpt>
      <trkpt lat="47.80999" lon="-2.40486">
        <ele>61.9</ele>
        <time>2025-02-11T09:21:01Z</time>
      </trkpt>
      <trkpt lat="47.81" lon="-2.40487">
        <ele>62</ele>
        <time>2025-02-11T09:21:02Z</time>
      </trkpt>
      <trkpt lat="47.81001" lon="-2.40488">
        <ele>62</ele>
        <time>2025-02-11T09:21:03Z</time>
      </trkpt>
      <trkpt lat="47.81002" lon="-2.40489">
        <ele>62</ele>
        <time>2025-02-11T09:21:04Z</time>
      </trkpt>
      <trkpt lat="47.81003" lon="-2.4049">
        <ele>62</ele>
        <time>2025-02-11T09:21:05Z</time>
      </trkpt>
      <trkpt lat="47.81004" lon="-2.40491">
        <ele>62</ele>
        <time>2025-02-11T09:21:06Z</time>
      </trkpt>
      <trkpt lat="47.81005" lon="-2.40492">
        <ele>62</ele>
        <time>2025-02-11T09:21:07Z</time>
      </trkpt>
      <trkpt lat="47.81006" lon="-2.40493">
        <ele>62</ele>
        <time>2025-02-11T09:21:08Z</time>
      </trkpt>
      <trkpt lat="47.81007" lon="-2.40494">
        <ele>62</ele>
        <time>2025-02-11T09:21:09Z</time>
      </trkpt>
      <trkpt lat="47.81008" lon="-2.40494">
        <ele>62</ele>
        <time>2025-02-11T09:21:10Z</time>
      </trkpt>
      <trkpt lat="47.81009" lon="-2.40495">
        <ele>62.1</ele>
        <time>2025-02-11T09:21:11Z</time>
      </trkpt>
      <trkpt lat="47.81011" lon="-2.40496">
        <ele>62.2</ele>
        <time>2025-02-11T09:21:12Z</time>
      </trkpt>
      <trkpt lat="47.81012" lon="-2.40497">
        <ele>62.2</ele>
        <time>2025-02-11T09:21:13Z</time>
      </trkpt>
      <trkpt lat="47.81013" lon="-2.40498">
        <ele>62.2</ele>
        <time>2025-02-11T09:21:14Z</time>
      </trkpt>
      <trkpt lat="47.81014" lon="-2.40498">
        <ele>62.3</ele>
        <time>2025-02-11T09:21:15Z</time>
      </trkpt>
      <trkpt lat="47.81015" lon="-2.40499">
        <ele>62.4</ele>
        <time>2025-02-11T09:21:16Z</time>
      </trkpt>
      <trkpt lat="47.81016" lon="-2.405">
        <ele>62.4</ele>
        <time>2025-02-11T09:21:17Z</time>
      </trkpt>
      <trkpt lat="47.81017" lon="-2.40501">
        <ele>62.2</ele>
        <time>2025-02-11T09:21:18Z</time>
      </trkpt>
      <trkpt lat="47.81018" lon="-2.40502">
        <ele>62</ele>
        <time>2025-02-11T09:21:19Z</time>
      </trkpt>
      <trkpt lat="47.81019" lon="-2.40503">
        <ele>61.8</ele>
        <time>2025-02-11T09:21:20Z</time>
      </trkpt>
      <trkpt lat="47.8102" lon="-2.40504">
        <ele>61.7</ele>
        <time>2025-02-11T09:21:21Z</time>
      </trkpt>
      <trkpt lat="47.81021" lon="-2.40505">
        <ele>61.5</ele>
        <time>2025-02-11T09:21:22Z</time>
      </trkpt>
      <trkpt lat="47.81022" lon="-2.40506">
        <ele>61.4</ele>
        <time>2025-02-11T09:21:23Z</time>
      </trkpt>
      <trkpt lat="47.81023" lon="-2.40507">
        <ele>61.3</ele>
        <time>2025-02-11T09:21:24Z</time>
      </trkpt>
      <trkpt lat="47.81024" lon="-2.40508">
        <ele>61.3</ele>
        <time>2025-02-11T09:21:25Z</time>
      </trkpt>
      <trkpt lat="47.81026" lon="-2.40509">
        <ele>61.3</ele>
        <time>2025-02-11T09:21:26Z</time>
      </trkpt>
      <trkpt lat="47.81027" lon="-2.4051">
        <ele>61.2</ele>
        <time>2025-02-11T09:21:27Z</time>
      </trkpt>
      <trkpt lat="47.81028" lon="-2.4051">
        <ele>61.2</ele>
        <time>2025-02-11T09:21:28Z</time>
      </trkpt>
      <trkpt lat="47.81029" lon="-2.40512">
        <ele>60.8</ele>
        <time>2025-02-11T09:21:29Z</time>
      </trkpt>
      <trkpt lat="47.8103" lon="-2.40514">
        <ele>60.5</ele>
        <time>2025-02-11T09:21:30Z</time>
      </trkpt>
      <trkpt lat="47.81032" lon="-2.40515">
        <ele>60.3</ele>
        <time>2025-02-11T09:21:31Z</time>
      </trkpt>
      <trkpt lat="47.81032" lon="-2.40516">
        <ele>60.1</ele>
        <time>2025-02-11T09:21:32Z</time>
      </trkpt>
      <trkpt lat="47.81033" lon="-2.40517">
        <ele>60</ele>
        <time>2025-02-11T09:21:33Z</time>
      </trkpt>
      <trkpt lat="47.81035" lon="-2.40518">
        <ele>59.8</ele>
        <time>2025-02-11T09:21:34Z</time>
      </trkpt>
      <trkpt lat="47.81035" lon="-2.4052">
        <ele>59.8</ele>
        <time>2025-02-11T09:21:35Z</time>
      </trkpt>
      <trkpt lat="47.81037" lon="-2.4052">
        <ele>59.8</ele>
        <time>2025-02-11T09:21:36Z</time>
      </trkpt>
      <trkpt lat="47.81038" lon="-2.40521">
        <ele>59.7</ele>
        <time>2025-02-11T09:21:37Z</time>
      </trkpt>
      <trkpt lat="47.81039" lon="-2.40521">
        <ele>59.6</ele>
        <time>2025-02-11T09:21:38Z</time>
      </trkpt>
      <trkpt lat="47.8104" lon="-2.40522">
        <ele>59.7</ele>
        <time>2025-02-11T09:21:39Z</time>
      </trkpt>
      <trkpt lat="47.81041" lon="-2.40524">
        <ele>59.8</ele>
        <time>2025-02-11T09:21:40Z</time>
      </trkpt>
      <trkpt lat="47.81042" lon="-2.40525">
        <ele>60</ele>
        <time>2025-02-11T09:21:41Z</time>
      </trkpt>
      <trkpt lat="47.81044" lon="-2.40526">
        <ele>60.2</ele>
        <time>2025-02-11T09:21:42Z</time>
      </trkpt>
      <trkpt lat="47.81045" lon="-2.40527">
        <ele>60.3</ele>
        <time>2025-02-11T09:21:43Z</time>
      </trkpt>
      <trkpt lat="47.81046" lon="-2.40527">
        <ele>60.5</ele>
        <time>2025-02-11T09:21:44Z</time>
      </trkpt>
      <trkpt lat="47.81047" lon="-2.40528">
        <ele>60.7</ele>
        <time>2025-02-11T09:21:45Z</time>
      </trkpt>
      <trkpt lat="47.81048" lon="-2.40529">
        <ele>60.6</ele>
        <time>2025-02-11T09:21:46Z</time>
      </trkpt>
      <trkpt lat="47.81049" lon="-2.40529">
        <ele>60.6</ele>
        <time>2025-02-11T09:21:47Z</time>
      </trkpt>
      <trkpt lat="47.81051" lon="-2.4053">
        <ele>60.6</ele>
        <time>2025-02-11T09:21:48Z</time>
      </trkpt>
      <trkpt lat="47.81052" lon="-2.4053">
        <ele>60.5</ele>
        <time>2025-02-11T09:21:49Z</time>
      </trkpt>
      <trkpt lat="47.81053" lon="-2.40531">
        <ele>60.5</ele>
        <time>2025-02-11T09:21:50Z</time>
      </trkpt>
      <trkpt lat="47.81054" lon="-2.40532">
        <ele>60.4</ele>
        <time>2025-02-11T09:21:51Z</time>
      </trkpt>
      <trkpt lat="47.81055" lon="-2.40534">
        <ele>60.3</ele>
        <time>2025-02-11T09:21:52Z</time>
      </trkpt>
      <trkpt lat="47.81056" lon="-2.40535">
        <ele>60.2</ele>
        <time>2025-02-11T09:21:53Z</time>
      </trkpt>
      <trkpt lat="47.81057" lon="-2.40536">
        <ele>59.9</ele>
        <time>2025-02-11T09:21:54Z</time>
      </trkpt>
      <trkpt lat="47.81058" lon="-2.40537">
        <ele>59.7</ele>
        <time>2025-02-11T09:21:55Z</time>
      </trkpt>
      <trkpt lat="47.81059" lon="-2.40538">
        <ele>59.5</ele>
        <time>2025-02-11T09:21:56Z</time>
      </trkpt>
      <trkpt lat="47.8106" lon="-2.40538">
        <ele>59.3</ele>
        <time>2025-02-11T09:21:57Z</time>
      </trkpt>
      <trkpt lat="47.81061" lon="-2.40539">
        <ele>59.1</ele>
        <time>2025-02-11T09:21:58Z</time>
      </trkpt>
      <trkpt lat="47.81062" lon="-2.40539">
        <ele>58.9</ele>
        <time>2025-02-11T09:21:59Z</time>
      </trkpt>
      <trkpt lat="47.81063" lon="-2.40541">
        <ele>58.8</ele>
        <time>2025-02-11T09:22:00Z</time>
      </trkpt>
      <trkpt lat="47.81065" lon="-2.40542">
        <ele>58.7</ele>
        <time>2025-02-11T09:22:01Z</time>
      </trkpt>
      <trkpt lat="47.81066" lon="-2.40543">
        <ele>58.6</ele>
        <time>2025-02-11T09:22:02Z</time>
      </trkpt>
      <trkpt lat="47.81067" lon="-2.40544">
        <ele>58.6</ele>
        <time>2025-02-11T09:22:03Z</time>
      </trkpt>
      <trkpt lat="47.81068" lon="-2.40545">
        <ele>58.6</ele>
        <time>2025-02-11T09:22:04Z</time>
      </trkpt>
      <trkpt lat="47.81069" lon="-2.40546">
        <ele>58.7</ele>
        <time>2025-02-11T09:22:05Z</time>
      </trkpt>
      <trkpt lat="47.8107" lon="-2.40547">
        <ele>58.7</ele>
        <time>2025-02-11T09:22:06Z</time>
      </trkpt>
      <trkpt lat="47.81071" lon="-2.40548">
        <ele>58.8</ele>
        <time>2025-02-11T09:22:07Z</time>
      </trkpt>
      <trkpt lat="47.81072" lon="-2.40549">
        <ele>58.9</ele>
        <time>2025-02-11T09:22:08Z</time>
      </trkpt>
      <trkpt lat="47.81073" lon="-2.4055">
        <ele>59.1</ele>
        <time>2025-02-11T09:22:09Z</time>
      </trkpt>
      <trkpt lat="47.81074" lon="-2.40551">
        <ele>59.3</ele>
        <time>2025-02-11T09:22:10Z</time>
      </trkpt>
      <trkpt lat="47.81075" lon="-2.40552">
        <ele>59.5</ele>
        <time>2025-02-11T09:22:11Z</time>
      </trkpt>
      <trkpt lat="47.81076" lon="-2.40553">
        <ele>59.7</ele>
        <time>2025-02-11T09:22:12Z</time>
      </trkpt>
      <trkpt lat="47.81077" lon="-2.40554">
        <ele>60</ele>
        <time>2025-02-11T09:22:13Z</time>
      </trkpt>
      <trkpt lat="47.81078" lon="-2.40555">
        <ele>60.3</ele>
        <time>2025-02-11T09:22:14Z</time>
      </trkpt>
      <trkpt lat="47.81079" lon="-2.40556">
        <ele>60.5</ele>
        <time>2025-02-11T09:22:15Z</time>
      </trkpt>
      <trkpt lat="47.8108" lon="-2.40558">
        <ele>60.4</ele>
        <time>2025-02-11T09:22:16Z</time>
      </trkpt>
      <trkpt lat="47.81081" lon="-2.40559">
        <ele>60.5</ele>
        <time>2025-02-11T09:22:17Z</time>
      </trkpt>
      <trkpt lat="47.81083" lon="-2.40559">
        <ele>60.6</ele>
        <time>2025-02-11T09:22:18Z</time>
      </trkpt>
      <trkpt lat="47.81084" lon="-2.4056">
        <ele>60.5</ele>
        <time>2025-02-11T09:22:19Z</time>
      </trkpt>
      <trkpt lat="47.81085" lon="-2.40561">
        <ele>60.2</ele>
        <time>2025-02-11T09:22:20Z</time>
      </trkpt>
      <trkpt lat="47.81086" lon="-2.40562">
        <ele>59.9</ele>
        <time>2025-02-11T09:22:21Z</time>
      </trkpt>
      <trkpt lat="47.81087" lon="-2.40563">
        <ele>59.7</ele>
        <time>2025-02-11T09:22:22Z</time>
      </trkpt>
      <trkpt lat="47.81088" lon="-2.40564">
        <ele>59.5</ele>
        <time>2025-02-11T09:22:23Z</time>
      </trkpt>
      <trkpt lat="47.81089" lon="-2.40565">
        <ele>59.4</ele>
        <time>2025-02-11T09:22:24Z</time>
      </trkpt>
      <trkpt lat="47.8109" lon="-2.40566">
        <ele>59.2</ele>
        <time>2025-02-11T09:22:25Z</time>
      </trkpt>
      <trkpt lat="47.81091" lon="-2.40567">
        <ele>59.1</ele>
        <time>2025-02-11T09:22:26Z</time>
      </trkpt>
      <trkpt lat="47.81092" lon="-2.40568">
        <ele>59</ele>
        <time>2025-02-11T09:22:27Z</time>
      </trkpt>
      <trkpt lat="47.81094" lon="-2.40569">
        <ele>58.9</ele>
        <time>2025-02-11T09:22:28Z</time>
      </trkpt>
      <trkpt lat="47.81095" lon="-2.40569">
        <ele>58.9</ele>
        <time>2025-02-11T09:22:29Z</time>
      </trkpt>
      <trkpt lat="47.81096" lon="-2.40571">
        <ele>58.9</ele>
        <time>2025-02-11T09:22:30Z</time>
      </trkpt>
      <trkpt lat="47.81097" lon="-2.40571">
        <ele>58.9</ele>
        <time>2025-02-11T09:22:31Z</time>
      </trkpt>
      <trkpt lat="47.81098" lon="-2.40572">
        <ele>58.9</ele>
        <time>2025-02-11T09:22:32Z</time>
      </trkpt>
      <trkpt lat="47.81099" lon="-2.40573">
        <ele>58.9</ele>
        <time>2025-02-11T09:22:33Z</time>
      </trkpt>
      <trkpt lat="47.811" lon="-2.40574">
        <ele>59</ele>
        <time>2025-02-11T09:22:34Z</time>
      </trkpt>
      <trkpt lat="47.81101" lon="-2.40575">
        <ele>59.1</ele>
        <time>2025-02-11T09:22:35Z</time>
      </trkpt>
      <trkpt lat="47.81102" lon="-2.40576">
        <ele>59.2</ele>
        <time>2025-02-11T09:22:36Z</time>
      </trkpt>
      <trkpt lat="47.81103" lon="-2.40577">
        <ele>59.4</ele>
        <time>2025-02-11T09:22:37Z</time>
      </trkpt>
      <trkpt lat="47.81104" lon="-2.40578">
        <ele>59.5</ele>
        <time>2025-02-11T09:22:38Z</time>
      </trkpt>
      <trkpt lat="47.81105" lon="-2.40579">
        <ele>59.7</ele>
        <time>2025-02-11T09:22:39Z</time>
      </trkpt>
      <trkpt lat="47.81106" lon="-2.4058">
        <ele>59.9</ele>
        <time>2025-02-11T09:22:40Z</time>
      </trkpt>
      <trkpt lat="47.81108" lon="-2.40581">
        <ele>60.1</ele>
        <time>2025-02-11T09:22:41Z</time>
      </trkpt>
      <trkpt lat="47.81108" lon="-2.40582">
        <ele>60.4</ele>
        <time>2025-02-11T09:22:42Z</time>
      </trkpt>
      <trkpt lat="47.81109" lon="-2.40583">
        <ele>60.8</ele>
        <time>2025-02-11T09:22:43Z</time>
      </trkpt>
      <trkpt lat="47.81111" lon="-2.40584">
        <ele>60.9</ele>
        <time>2025-02-11T09:22:44Z</time>
      </trkpt>
      <trkpt lat="47.81112" lon="-2.40585">
        <ele>60.8</ele>
        <time>2025-02-11T09:22:45Z</time>
      </trkpt>
      <trkpt lat="47.81113" lon="-2.40586">
        <ele>60.5</ele>
        <time>2025-02-11T09:22:46Z</time>
      </trkpt>
      <trkpt lat="47.81114" lon="-2.40587">
        <ele>60.3</ele>
        <time>2025-02-11T09:22:47Z</time>
      </trkpt>
      <trkpt lat="47.81115" lon="-2.40587">
        <ele>60</ele>
        <time>2025-02-11T09:22:48Z</time>
      </trkpt>
      <trkpt lat="47.81116" lon="-2.40588">
        <ele>59.8</ele>
        <time>2025-02-11T09:22:49Z</time>
      </trkpt>
      <trkpt lat="47.81117" lon="-2.40589">
        <ele>59.6</ele>
        <time>2025-02-11T09:22:50Z</time>
      </trkpt>
      <trkpt lat="47.81118" lon="-2.4059">
        <ele>59.5</ele>
        <time>2025-02-11T09:22:51Z</time>
      </trkpt>
      <trkpt lat="47.8112" lon="-2.40591">
        <ele>59.3</ele>
        <time>2025-02-11T09:22:52Z</time>
      </trkpt>
      <trkpt lat="47.81121" lon="-2.40592">
        <ele>59.2</ele>
        <time>2025-02-11T09:22:53Z</time>
      </trkpt>
      <trkpt lat="47.81122" lon="-2.40593">
        <ele>59.1</ele>
        <time>2025-02-11T09:22:54Z</time>
      </trkpt>
      <trkpt lat="47.81123" lon="-2.40594">
        <ele>59</ele>
        <time>2025-02-11T09:22:55Z</time>
      </trkpt>
      <trkpt lat="47.81124" lon="-2.40595">
        <ele>59</ele>
        <time>2025-02-11T09:22:56Z</time>
      </trkpt>
      <trkpt lat="47.81125" lon="-2.40596">
        <ele>59</ele>
        <time>2025-02-11T09:22:57Z</time>
      </trkpt>
      <trkpt lat="47.81126" lon="-2.40597">
        <ele>59</ele>
        <time>2025-02-11T09:22:58Z</time>
      </trkpt>
      <trkpt lat="47.81127" lon="-2.40598">
        <ele>59</ele>
        <time>2025-02-11T09:22:59Z</time>
      </trkpt>
      <trkpt lat="47.81128" lon="-2.40599">
        <ele>59</ele>
        <time>2025-02-11T09:23:00Z</time>
      </trkpt>
      <trkpt lat="47.81129" lon="-2.406">
        <ele>59.1</ele>
        <time>2025-02-11T09:23:01Z</time>
      </trkpt>
      <trkpt lat="47.8113" lon="-2.40601">
        <ele>59.2</ele>
        <time>2025-02-11T09:23:02Z</time>
      </trkpt>
      <trkpt lat="47.81131" lon="-2.40602">
        <ele>59.2</ele>
        <time>2025-02-11T09:23:03Z</time>
      </trkpt>
      <trkpt lat="47.81132" lon="-2.40603">
        <ele>59.3</ele>
        <time>2025-02-11T09:23:04Z</time>
      </trkpt>
      <trkpt lat="47.81133" lon="-2.40604">
        <ele>59.5</ele>
        <time>2025-02-11T09:23:05Z</time>
      </trkpt>
      <trkpt lat="47.81134" lon="-2.40604">
        <ele>59.6</ele>
        <time>2025-02-11T09:23:06Z</time>
      </trkpt>
      <trkpt lat="47.81135" lon="-2.40605">
        <ele>59.7</ele>
        <time>2025-02-11T09:23:07Z</time>
      </trkpt>
      <trkpt lat="47.81136" lon="-2.40606">
        <ele>59.9</ele>
        <time>2025-02-11T09:23:08Z</time>
      </trkpt>
      <trkpt lat="47.81137" lon="-2.40607">
        <ele>60.1</ele>
        <time>2025-02-11T09:23:09Z</time>
      </trkpt>
      <trkpt lat="47.81138" lon="-2.40608">
        <ele>60.4</ele>
        <time>2025-02-11T09:23:10Z</time>
      </trkpt>
      <trkpt lat="47.81139" lon="-2.40609">
        <ele>60.5</ele>
        <time>2025-02-11T09:23:11Z</time>
      </trkpt>
      <trkpt lat="47.81141" lon="-2.40609">
        <ele>60.5</ele>
        <time>2025-02-11T09:23:12Z</time>
      </trkpt>
      <trkpt lat="47.81142" lon="-2.4061">
        <ele>60.5</ele>
        <time>2025-02-11T09:23:13Z</time>
      </trkpt>
      <trkpt lat="47.81143" lon="-2.4061">
        <ele>60.4</ele>
        <time>2025-02-11T09:23:14Z</time>
      </trkpt>
      <trkpt lat="47.81144" lon="-2.40612">
        <ele>60.5</ele>
        <time>2025-02-11T09:23:15Z</time>
      </trkpt>
      <trkpt lat="47.81145" lon="-2.40613">
        <ele>60.4</ele>
        <time>2025-02-11T09:23:16Z</time>
      </trkpt>
      <trkpt lat="47.81145" lon="-2.40614">
        <ele>60.3</ele>
        <time>2025-02-11T09:23:17Z</time>
      </trkpt>
      <trkpt lat="47.81147" lon="-2.40615">
        <ele>60.2</ele>
        <time>2025-02-11T09:23:18Z</time>
      </trkpt>
      <trkpt lat="47.81147" lon="-2.40616">
        <ele>60.1</ele>
        <time>2025-02-11T09:23:19Z</time>
      </trkpt>
      <trkpt lat="47.81148" lon="-2.40617">
        <ele>60</ele>
        <time>2025-02-11T09:23:20Z</time>
      </trkpt>
      <trkpt lat="47.81149" lon="-2.40617">
        <ele>59.9</ele>
        <time>2025-02-11T09:23:21Z</time>
      </trkpt>
      <trkpt lat="47.81151" lon="-2.40618">
        <ele>59.8</ele>
        <time>2025-02-11T09:23:22Z</time>
      </trkpt>
      <trkpt lat="47.81152" lon="-2.40619">
        <ele>59.7</ele>
        <time>2025-02-11T09:23:23Z</time>
      </trkpt>
      <trkpt lat="47.81153" lon="-2.40619">
        <ele>59.6</ele>
        <time>2025-02-11T09:23:24Z</time>
      </trkpt>
      <trkpt lat="47.81154" lon="-2.4062">
        <ele>59.6</ele>
        <time>2025-02-11T09:23:25Z</time>
      </trkpt>
      <trkpt lat="47.81155" lon="-2.40621">
        <ele>59.5</ele>
        <time>2025-02-11T09:23:26Z</time>
      </trkpt>
      <trkpt lat="47.81156" lon="-2.40622">
        <ele>59.5</ele>
        <time>2025-02-11T09:23:27Z</time>
      </trkpt>
      <trkpt lat="47.81157" lon="-2.40623">
        <ele>59.5</ele>
        <time>2025-02-11T09:23:28Z</time>
      </trkpt>
      <trkpt lat="47.81158" lon="-2.40624">
        <ele>59.4</ele>
        <time>2025-02-11T09:23:29Z</time>
      </trkpt>
      <trkpt lat="47.81159" lon="-2.40625">
        <ele>59.4</ele>
        <time>2025-02-11T09:23:30Z</time>
      </trkpt>
      <trkpt lat="47.8116" lon="-2.40626">
        <ele>59.4</ele>
        <time>2025-02-11T09:23:31Z</time>
      </trkpt>
      <trkpt lat="47.81161" lon="-2.40627">
        <ele>59.4</ele>
        <time>2025-02-11T09:23:32Z</time>
      </trkpt>
      <trkpt lat="47.81162" lon="-2.40628">
        <ele>59.4</ele>
        <time>2025-02-11T09:23:33Z</time>
      </trkpt>
      <trkpt lat="47.81164" lon="-2.40629">
        <ele>59.4</ele>
        <time>2025-02-11T09:23:34Z</time>
      </trkpt>
      <trkpt lat="47.81165" lon="-2.4063">
        <ele>59.4</ele>
        <time>2025-02-11T09:23:35Z</time>
      </trkpt>
      <trkpt lat="47.81166" lon="-2.40631">
        <ele>59.5</ele>
        <time>2025-02-11T09:23:36Z</time>
      </trkpt>
      <trkpt lat="47.81167" lon="-2.40632">
        <ele>59.5</ele>
        <time>2025-02-11T09:23:37Z</time>
      </trkpt>
      <trkpt lat="47.81168" lon="-2.40633">
        <ele>59.5</ele>
        <time>2025-02-11T09:23:38Z</time>
      </trkpt>
      <trkpt lat="47.81169" lon="-2.40634">
        <ele>59.6</ele>
        <time>2025-02-11T09:23:39Z</time>
      </trkpt>
      <trkpt lat="47.81169" lon="-2.40636">
        <ele>59.7</ele>
        <time>2025-02-11T09:23:40Z</time>
      </trkpt>
      <trkpt lat="47.8117" lon="-2.40637">
        <ele>59.7</ele>
        <time>2025-02-11T09:23:41Z</time>
      </trkpt>
      <trkpt lat="47.81171" lon="-2.40638">
        <ele>59.8</ele>
        <time>2025-02-11T09:23:42Z</time>
      </trkpt>
      <trkpt lat="47.81172" lon="-2.40638">
        <ele>59.8</ele>
        <time>2025-02-11T09:23:43Z</time>
      </trkpt>
      <trkpt lat="47.81174" lon="-2.40639">
        <ele>59.8</ele>
        <time>2025-02-11T09:23:44Z</time>
      </trkpt>
      <trkpt lat="47.81175" lon="-2.4064">
        <ele>59.7</ele>
        <time>2025-02-11T09:23:45Z</time>
      </trkpt>
      <trkpt lat="47.81176" lon="-2.40641">
        <ele>59.7</ele>
        <time>2025-02-11T09:23:46Z</time>
      </trkpt>
      <trkpt lat="47.81177" lon="-2.40642">
        <ele>59.7</ele>
        <time>2025-02-11T09:23:47Z</time>
      </trkpt>
      <trkpt lat="47.81178" lon="-2.40643">
        <ele>59.7</ele>
        <time>2025-02-11T09:23:48Z</time>
      </trkpt>
      <trkpt lat="47.81179" lon="-2.40644">
        <ele>59.6</ele>
        <time>2025-02-11T09:23:49Z</time>
      </trkpt>
      <trkpt lat="47.81179" lon="-2.40645">
        <ele>59.6</ele>
        <time>2025-02-11T09:23:50Z</time>
      </trkpt>
      <trkpt lat="47.8118" lon="-2.40646">
        <ele>59.6</ele>
        <time>2025-02-11T09:23:51Z</time>
      </trkpt>
      <trkpt lat="47.81182" lon="-2.40646">
        <ele>59.6</ele>
        <time>2025-02-11T09:23:52Z</time>
      </trkpt>
      <trkpt lat="47.81183" lon="-2.40647">
        <ele>59.6</ele>
        <time>2025-02-11T09:23:53Z</time>
      </trkpt>
      <trkpt lat="47.81184" lon="-2.40648">
        <ele>59.6</ele>
        <time>2025-02-11T09:23:54Z</time>
      </trkpt>
      <trkpt lat="47.81185" lon="-2.40649">
        <ele>59.6</ele>
        <time>2025-02-11T09:23:55Z</time>
      </trkpt>
      <trkpt lat="47.81186" lon="-2.4065">
        <ele>59.6</ele>
        <time>2025-02-11T09:23:56Z</time>
      </trkpt>
      <trkpt lat="47.81187" lon="-2.40651">
        <ele>59.6</ele>
        <time>2025-02-11T09:23:57Z</time>
      </trkpt>
      <trkpt lat="47.81188" lon="-2.40652">
        <ele>59.6</ele>
        <time>2025-02-11T09:23:58Z</time>
      </trkpt>
      <trkpt lat="47.8119" lon="-2.40653">
        <ele>59.6</ele>
        <time>2025-02-11T09:23:59Z</time>
      </trkpt>
      <trkpt lat="47.81191" lon="-2.40654">
        <ele>59.6</ele>
        <time>2025-02-11T09:24:00Z</time>
      </trkpt>
      <trkpt lat="47.81192" lon="-2.40655">
        <ele>59.6</ele>
        <time>2025-02-11T09:24:01Z</time>
      </trkpt>
      <trkpt lat="47.81193" lon="-2.40656">
        <ele>59.6</ele>
        <time>2025-02-11T09:24:02Z</time>
      </trkpt>
      <trkpt lat="47.81194" lon="-2.40657">
        <ele>59.6</ele>
        <time>2025-02-11T09:24:03Z</time>
      </trkpt>
      <trkpt lat="47.81195" lon="-2.40657">
        <ele>59.7</ele>
        <time>2025-02-11T09:24:04Z</time>
      </trkpt>
      <trkpt lat="47.81197" lon="-2.40658">
        <ele>59.7</ele>
        <time>2025-02-11T09:24:05Z</time>
      </trkpt>
      <trkpt lat="47.81198" lon="-2.40659">
        <ele>59.7</ele>
        <time>2025-02-11T09:24:06Z</time>
      </trkpt>
      <trkpt lat="47.81199" lon="-2.4066">
        <ele>59.8</ele>
        <time>2025-02-11T09:24:07Z</time>
      </trkpt>
      <trkpt lat="47.812" lon="-2.40662">
        <ele>59.8</ele>
        <time>2025-02-11T09:24:08Z</time>
      </trkpt>
      <trkpt lat="47.81201" lon="-2.40663">
        <ele>59.9</ele>
        <time>2025-02-11T09:24:09Z</time>
      </trkpt>
      <trkpt lat="47.81202" lon="-2.40664">
        <ele>59.9</ele>
        <time>2025-02-11T09:24:10Z</time>
      </trkpt>
      <trkpt lat="47.81203" lon="-2.40665">
        <ele>59.9</ele>
        <time>2025-02-11T09:24:11Z</time>
      </trkpt>
      <trkpt lat="47.81204" lon="-2.40666">
        <ele>60</ele>
        <time>2025-02-11T09:24:12Z</time>
      </trkpt>
      <trkpt lat="47.81205" lon="-2.40667">
        <ele>60</ele>
        <time>2025-02-11T09:24:13Z</time>
      </trkpt>
      <trkpt lat="47.81206" lon="-2.40668">
        <ele>60</ele>
        <time>2025-02-11T09:24:14Z</time>
      </trkpt>
      <trkpt lat="47.81208" lon="-2.40667">
        <ele>60</ele>
        <time>2025-02-11T09:24:15Z</time>
      </trkpt>
      <trkpt lat="47.81208" lon="-2.40669">
        <ele>60</ele>
        <time>2025-02-11T09:24:16Z</time>
      </trkpt>
      <trkpt lat="47.81209" lon="-2.4067">
        <ele>60</ele>
        <time>2025-02-11T09:24:17Z</time>
      </trkpt>
      <trkpt lat="47.8121" lon="-2.40671">
        <ele>60</ele>
        <time>2025-02-11T09:24:18Z</time>
      </trkpt>
      <trkpt lat="47.81211" lon="-2.40672">
        <ele>60</ele>
        <time>2025-02-11T09:24:19Z</time>
      </trkpt>
      <trkpt lat="47.81212" lon="-2.40674">
        <ele>59.9</ele>
        <time>2025-02-11T09:24:20Z</time>
      </trkpt>
      <trkpt lat="47.81213" lon="-2.40675">
        <ele>59.9</ele>
        <time>2025-02-11T09:24:21Z</time>
      </trkpt>
      <trkpt lat="47.81213" lon="-2.40676">
        <ele>59.9</ele>
        <time>2025-02-11T09:24:22Z</time>
      </trkpt>
      <trkpt lat="47.81214" lon="-2.40677">
        <ele>59.8</ele>
        <time>2025-02-11T09:24:23Z</time>
      </trkpt>
      <trkpt lat="47.81216" lon="-2.40678">
        <ele>59.8</ele>
        <time>2025-02-11T09:24:24Z</time>
      </trkpt>
      <trkpt lat="47.81217" lon="-2.40677">
        <ele>59.8</ele>
        <time>2025-02-11T09:24:25Z</time>
      </trkpt>
      <trkpt lat="47.81219" lon="-2.40676">
        <ele>59.7</ele>
        <time>2025-02-11T09:24:26Z</time>
      </trkpt>
      <trkpt lat="47.8122" lon="-2.40676">
        <ele>59.7</ele>
        <time>2025-02-11T09:24:27Z</time>
      </trkpt>
      <trkpt lat="47.81221" lon="-2.40677">
        <ele>59.7</ele>
        <time>2025-02-11T09:24:28Z</time>
      </trkpt>
      <trkpt lat="47.81221" lon="-2.40678">
        <ele>59.6</ele>
        <time>2025-02-11T09:24:29Z</time>
      </trkpt>
      <trkpt lat="47.81222" lon="-2.40678">
        <ele>59.6</ele>
        <time>2025-02-11T09:24:30Z</time>
      </trkpt>
      <trkpt lat="47.81223" lon="-2.40678">
        <ele>59.6</ele>
        <time>2025-02-11T09:24:31Z</time>
      </trkpt>
      <trkpt lat="47.81224" lon="-2.40676">
        <ele>59.6</ele>
        <time>2025-02-11T09:24:32Z</time>
      </trkpt>
      <trkpt lat="47.81225" lon="-2.40675">
        <ele>59.6</ele>
        <time>2025-02-11T09:24:33Z</time>
      </trkpt>
      <trkpt lat="47.81226" lon="-2.40673">
        <ele>59.6</ele>
        <time>2025-02-11T09:24:34Z</time>
      </trkpt>
      <trkpt lat="47.81227" lon="-2.40671">
        <ele>59.5</ele>
        <time>2025-02-11T09:24:35Z</time>
      </trkpt>
      <trkpt lat="47.81228" lon="-2.40669">
        <ele>59.5</ele>
        <time>2025-02-11T09:24:36Z</time>
      </trkpt>
      <trkpt lat="47.81229" lon="-2.40668">
        <ele>59.5</ele>
        <time>2025-02-11T09:24:37Z</time>
      </trkpt>
      <trkpt lat="47.81229" lon="-2.40666">
        <ele>59.5</ele>
        <time>2025-02-11T09:24:38Z</time>
      </trkpt>
      <trkpt lat="47.8123" lon="-2.40665">
        <ele>59.4</ele>
        <time>2025-02-11T09:24:39Z</time>
      </trkpt>
      <trkpt lat="47.81231" lon="-2.40664">
        <ele>59.3</ele>
        <time>2025-02-11T09:24:40Z</time>
      </trkpt>
      <trkpt lat="47.81232" lon="-2.40663">
        <ele>59.2</ele>
        <time>2025-02-11T09:24:41Z</time>
      </trkpt>
      <trkpt lat="47.81233" lon="-2.40662">
        <ele>59.2</ele>
        <time>2025-02-11T09:24:42Z</time>
      </trkpt>
      <trkpt lat="47.81234" lon="-2.40662">
        <ele>59.1</ele>
        <time>2025-02-11T09:24:43Z</time>
      </trkpt>
      <trkpt lat="47.81235" lon="-2.40661">
        <ele>59.1</ele>
        <time>2025-02-11T09:24:44Z</time>
      </trkpt>
      <trkpt lat="47.81236" lon="-2.4066">
        <ele>59</ele>
        <time>2025-02-11T09:24:45Z</time>
      </trkpt>
      <trkpt lat="47.81237" lon="-2.40659">
        <ele>59</ele>
        <time>2025-02-11T09:24:46Z</time>
      </trkpt>
      <trkpt lat="47.81238" lon="-2.40659">
        <ele>58.9</ele>
        <time>2025-02-11T09:24:47Z</time>
      </trkpt>
      <trkpt lat="47.81239" lon="-2.40659">
        <ele>58.8</ele>
        <time>2025-02-11T09:24:48Z</time>
      </trkpt>
      <trkpt lat="47.81241" lon="-2.40659">
        <ele>58.8</ele>
        <time>2025-02-11T09:24:49Z</time>
      </trkpt>
      <trkpt lat="47.81242" lon="-2.40659">
        <ele>58.7</ele>
        <time>2025-02-11T09:24:50Z</time>
      </trkpt>
      <trkpt lat="47.81243" lon="-2.40658">
        <ele>58.7</ele>
        <time>2025-02-11T09:24:51Z</time>
      </trkpt>
      <trkpt lat="47.81244" lon="-2.40658">
        <ele>58.6</ele>
        <time>2025-02-11T09:24:52Z</time>
      </trkpt>
      <trkpt lat="47.81245" lon="-2.40657">
        <ele>58.6</ele>
        <time>2025-02-11T09:24:53Z</time>
      </trkpt>
      <trkpt lat="47.81247" lon="-2.40657">
        <ele>58.5</ele>
        <time>2025-02-11T09:24:54Z</time>
      </trkpt>
      <trkpt lat="47.81248" lon="-2.40656">
        <ele>58.5</ele>
        <time>2025-02-11T09:24:55Z</time>
      </trkpt>
      <trkpt lat="47.81249" lon="-2.40656">
        <ele>58.4</ele>
        <time>2025-02-11T09:24:56Z</time>
      </trkpt>
      <trkpt lat="47.8125" lon="-2.40656">
        <ele>58.4</ele>
        <time>2025-02-11T09:24:57Z</time>
      </trkpt>
      <trkpt lat="47.81251" lon="-2.40655">
        <ele>58.3</ele>
        <time>2025-02-11T09:24:58Z</time>
      </trkpt>
      <trkpt lat="47.81252" lon="-2.40655">
        <ele>58.2</ele>
        <time>2025-02-11T09:24:59Z</time>
      </trkpt>
      <trkpt lat="47.81254" lon="-2.40655">
        <ele>58.1</ele>
        <time>2025-02-11T09:25:00Z</time>
      </trkpt>
      <trkpt lat="47.81254" lon="-2.40654">
        <ele>58.1</ele>
        <time>2025-02-11T09:25:01Z</time>
      </trkpt>
      <trkpt lat="47.81255" lon="-2.40654">
        <ele>58</ele>
        <time>2025-02-11T09:25:02Z</time>
      </trkpt>
      <trkpt lat="47.81256" lon="-2.40653">
        <ele>57.9</ele>
        <time>2025-02-11T09:25:03Z</time>
      </trkpt>
      <trkpt lat="47.81257" lon="-2.40653">
        <ele>57.8</ele>
        <time>2025-02-11T09:25:04Z</time>
      </trkpt>
      <trkpt lat="47.81258" lon="-2.40653">
        <ele>57.8</ele>
        <time>2025-02-11T09:25:05Z</time>
      </trkpt>
      <trkpt lat="47.81259" lon="-2.40652">
        <ele>57.7</ele>
        <time>2025-02-11T09:25:06Z</time>
      </trkpt>
      <trkpt lat="47.8126" lon="-2.40651">
        <ele>57.6</ele>
        <time>2025-02-11T09:25:07Z</time>
      </trkpt>
      <trkpt lat="47.81261" lon="-2.40651">
        <ele>57.5</ele>
        <time>2025-02-11T09:25:08Z</time>
      </trkpt>
      <trkpt lat="47.81263" lon="-2.4065">
        <ele>57.4</ele>
        <time>2025-02-11T09:25:09Z</time>
      </trkpt>
      <trkpt lat="47.81264" lon="-2.4065">
        <ele>57.3</ele>
        <time>2025-02-11T09:25:10Z</time>
      </trkpt>
      <trkpt lat="47.81265" lon="-2.40651">
        <ele>57.2</ele>
        <time>2025-02-11T09:25:11Z</time>
      </trkpt>
      <trkpt lat="47.81266" lon="-2.4065">
        <ele>57.1</ele>
        <time>2025-02-11T09:25:12Z</time>
      </trkpt>
      <trkpt lat="47.81267" lon="-2.40649">
        <ele>57.1</ele>
        <time>2025-02-11T09:25:13Z</time>
      </trkpt>
      <trkpt lat="47.81268" lon="-2.40649">
        <ele>57</ele>
        <time>2025-02-11T09:25:14Z</time>
      </trkpt>
      <trkpt lat="47.81268" lon="-2.40648">
        <ele>56.9</ele>
        <time>2025-02-11T09:25:15Z</time>
      </trkpt>
      <trkpt lat="47.81269" lon="-2.40648">
        <ele>56.8</ele>
        <time>2025-02-11T09:25:16Z</time>
      </trkpt>
      <trkpt lat="47.8127" lon="-2.40647">
        <ele>56.7</ele>
        <time>2025-02-11T09:25:17Z</time>
      </trkpt>
      <trkpt lat="47.81271" lon="-2.40646">
        <ele>56.6</ele>
        <time>2025-02-11T09:25:18Z</time>
      </trkpt>
      <trkpt lat="47.81272" lon="-2.40646">
        <ele>56.5</ele>
        <time>2025-02-11T09:25:19Z</time>
      </trkpt>
      <trkpt lat="47.81273" lon="-2.40645">
        <ele>56.4</ele>
        <time>2025-02-11T09:25:20Z</time>
      </trkpt>
      <trkpt lat="47.81274" lon="-2.40644">
        <ele>56.4</ele>
        <time>2025-02-11T09:25:21Z</time>
      </trkpt>
      <trkpt lat="47.81275" lon="-2.40644">
        <ele>56.3</ele>
        <time>2025-02-11T09:25:22Z</time>
      </trkpt>
      <trkpt lat="47.81276" lon="-2.40643">
        <ele>56.2</ele>
        <time>2025-02-11T09:25:23Z</time>
      </trkpt>
      <trkpt lat="47.81277" lon="-2.40643">
        <ele>56.1</ele>
        <time>2025-02-11T09:25:24Z</time>
      </trkpt>
      <trkpt lat="47.81278" lon="-2.40643">
        <ele>55.9</ele>
        <time>2025-02-11T09:25:25Z</time>
      </trkpt>
      <trkpt lat="47.81279" lon="-2.40642">
        <ele>55.7</ele>
        <time>2025-02-11T09:25:26Z</time>
      </trkpt>
      <trkpt lat="47.8128" lon="-2.40642">
        <ele>55.5</ele>
        <time>2025-02-11T09:25:27Z</time>
      </trkpt>
      <trkpt lat="47.81281" lon="-2.40641">
        <ele>55.3</ele>
        <time>2025-02-11T09:25:28Z</time>
      </trkpt>
      <trkpt lat="47.81283" lon="-2.4064">
        <ele>55.1</ele>
        <time>2025-02-11T09:25:29Z</time>
      </trkpt>
      <trkpt lat="47.81284" lon="-2.40639">
        <ele>55</ele>
        <time>2025-02-11T09:25:30Z</time>
      </trkpt>
      <trkpt lat="47.81285" lon="-2.40639">
        <ele>54.8</ele>
        <time>2025-02-11T09:25:31Z</time>
      </trkpt>
      <trkpt lat="47.81286" lon="-2.40638">
        <ele>54.7</ele>
        <time>2025-02-11T09:25:32Z</time>
      </trkpt>
      <trkpt lat="47.81287" lon="-2.40637">
        <ele>54.5</ele>
        <time>2025-02-11T09:25:33Z</time>
      </trkpt>
      <trkpt lat="47.81288" lon="-2.40637">
        <ele>54.4</ele>
        <time>2025-02-11T09:25:34Z</time>
      </trkpt>
      <trkpt lat="47.81289" lon="-2.40636">
        <ele>54.2</ele>
        <time>2025-02-11T09:25:35Z</time>
      </trkpt>
      <trkpt lat="47.8129" lon="-2.40635">
        <ele>54.1</ele>
        <time>2025-02-11T09:25:36Z</time>
      </trkpt>
      <trkpt lat="47.81291" lon="-2.40635">
        <ele>54</ele>
        <time>2025-02-11T09:25:37Z</time>
      </trkpt>
      <trkpt lat="47.81292" lon="-2.40634">
        <ele>53.9</ele>
        <time>2025-02-11T09:25:38Z</time>
      </trkpt>
      <trkpt lat="47.81293" lon="-2.40633">
        <ele>53.8</ele>
        <time>2025-02-11T09:25:39Z</time>
      </trkpt>
      <trkpt lat="47.81294" lon="-2.40633">
        <ele>53.6</ele>
        <time>2025-02-11T09:25:40Z</time>
      </trkpt>
      <trkpt lat="47.81295" lon="-2.40633">
        <ele>53.5</ele>
        <time>2025-02-11T09:25:41Z</time>
      </trkpt>
      <trkpt lat="47.81296" lon="-2.40632">
        <ele>53.4</ele>
        <time>2025-02-11T09:25:42Z</time>
      </trkpt>
      <trkpt lat="47.81297" lon="-2.40631">
        <ele>53.2</ele>
        <time>2025-02-11T09:25:43Z</time>
      </trkpt>
      <trkpt lat="47.81298" lon="-2.40631">
        <ele>53</ele>
        <time>2025-02-11T09:25:44Z</time>
      </trkpt>
      <trkpt lat="47.81299" lon="-2.40631">
        <ele>52.8</ele>
        <time>2025-02-11T09:25:45Z</time>
      </trkpt>
      <trkpt lat="47.813" lon="-2.4063">
        <ele>52.6</ele>
        <time>2025-02-11T09:25:46Z</time>
      </trkpt>
      <trkpt lat="47.81301" lon="-2.4063">
        <ele>52.5</ele>
        <time>2025-02-11T09:25:47Z</time>
      </trkpt>
      <trkpt lat="47.81303" lon="-2.40629">
        <ele>52.3</ele>
        <time>2025-02-11T09:25:48Z</time>
      </trkpt>
      <trkpt lat="47.81304" lon="-2.40629">
        <ele>52.1</ele>
        <time>2025-02-11T09:25:49Z</time>
      </trkpt>
      <trkpt lat="47.81305" lon="-2.40628">
        <ele>51.9</ele>
        <time>2025-02-11T09:25:50Z</time>
      </trkpt>
      <trkpt lat="47.81306" lon="-2.40627">
        <ele>51.7</ele>
        <time>2025-02-11T09:25:51Z</time>
      </trkpt>
      <trkpt lat="47.81307" lon="-2.40627">
        <ele>51.6</ele>
        <time>2025-02-11T09:25:52Z</time>
      </trkpt>
      <trkpt lat="47.81308" lon="-2.40626">
        <ele>51.4</ele>
        <time>2025-02-11T09:25:53Z</time>
      </trkpt>
      <trkpt lat="47.81309" lon="-2.40626">
        <ele>51.3</ele>
        <time>2025-02-11T09:25:54Z</time>
      </trkpt>
      <trkpt lat="47.8131" lon="-2.40625">
        <ele>51.1</ele>
        <time>2025-02-11T09:25:55Z</time>
      </trkpt>
      <trkpt lat="47.81311" lon="-2.40624">
        <ele>51</ele>
        <time>2025-02-11T09:25:56Z</time>
      </trkpt>
      <trkpt lat="47.81312" lon="-2.40624">
        <ele>50.8</ele>
        <time>2025-02-11T09:25:57Z</time>
      </trkpt>
      <trkpt lat="47.81313" lon="-2.40623">
        <ele>50.7</ele>
        <time>2025-02-11T09:25:58Z</time>
      </trkpt>
      <trkpt lat="47.81314" lon="-2.40622">
        <ele>50.6</ele>
        <time>2025-02-11T09:25:59Z</time>
      </trkpt>
      <trkpt lat="47.81315" lon="-2.40622">
        <ele>50.4</ele>
        <time>2025-02-11T09:26:00Z</time>
      </trkpt>
      <trkpt lat="47.81316" lon="-2.40621">
        <ele>50.2</ele>
        <time>2025-02-11T09:26:01Z</time>
      </trkpt>
      <trkpt lat="47.81317" lon="-2.4062">
        <ele>50.1</ele>
        <time>2025-02-11T09:26:02Z</time>
      </trkpt>
      <trkpt lat="47.81318" lon="-2.4062">
        <ele>49.9</ele>
        <time>2025-02-11T09:26:03Z</time>
      </trkpt>
      <trkpt lat="47.81319" lon="-2.40619">
        <ele>49.8</ele>
        <time>2025-02-11T09:26:04Z</time>
      </trkpt>
      <trkpt lat="47.81321" lon="-2.40619">
        <ele>49.5</ele>
        <time>2025-02-11T09:26:05Z</time>
      </trkpt>
      <trkpt lat="47.81322" lon="-2.40618">
        <ele>49.4</ele>
        <time>2025-02-11T09:26:06Z</time>
      </trkpt>
      <trkpt lat="47.81323" lon="-2.40617">
        <ele>49.2</ele>
        <time>2025-02-11T09:26:07Z</time>
      </trkpt>
      <trkpt lat="47.81324" lon="-2.40617">
        <ele>49.1</ele>
        <time>2025-02-11T09:26:08Z</time>
      </trkpt>
      <trkpt lat="47.81325" lon="-2.40616">
        <ele>49</ele>
        <time>2025-02-11T09:26:09Z</time>
      </trkpt>
      <trkpt lat="47.81327" lon="-2.40618">
        <ele>48.5</ele>
        <time>2025-02-11T09:26:10Z</time>
      </trkpt>
      <trkpt lat="47.81328" lon="-2.40616">
        <ele>48.5</ele>
        <time>2025-02-11T09:26:11Z</time>
      </trkpt>
      <trkpt lat="47.81329" lon="-2.40614">
        <ele>48.6</ele>
        <time>2025-02-11T09:26:12Z</time>
      </trkpt>
      <trkpt lat="47.8133" lon="-2.40613">
        <ele>48.4</ele>
        <time>2025-02-11T09:26:13Z</time>
      </trkpt>
      <trkpt lat="47.81331" lon="-2.40612">
        <ele>48.3</ele>
        <time>2025-02-11T09:26:14Z</time>
      </trkpt>
      <trkpt lat="47.81333" lon="-2.40612">
        <ele>48.1</ele>
        <time>2025-02-11T09:26:15Z</time>
      </trkpt>
      <trkpt lat="47.81334" lon="-2.40611">
        <ele>47.9</ele>
        <time>2025-02-11T09:26:16Z</time>
      </trkpt>
      <trkpt lat="47.81335" lon="-2.40611">
        <ele>47.7</ele>
        <time>2025-02-11T09:26:17Z</time>
      </trkpt>
      <trkpt lat="47.81336" lon="-2.4061">
        <ele>47.6</ele>
        <time>2025-02-11T09:26:18Z</time>
      </trkpt>
      <trkpt lat="47.81338" lon="-2.40609">
        <ele>47.4</ele>
        <time>2025-02-11T09:26:19Z</time>
      </trkpt>
      <trkpt lat="47.81339" lon="-2.40609">
        <ele>47.2</ele>
        <time>2025-02-11T09:26:20Z</time>
      </trkpt>
      <trkpt lat="47.8134" lon="-2.40608">
        <ele>47</ele>
        <time>2025-02-11T09:26:21Z</time>
      </trkpt>
      <trkpt lat="47.81341" lon="-2.40607">
        <ele>46.9</ele>
        <time>2025-02-11T09:26:22Z</time>
      </trkpt>
      <trkpt lat="47.81342" lon="-2.40606">
        <ele>46.7</ele>
        <time>2025-02-11T09:26:23Z</time>
      </trkpt>
      <trkpt lat="47.81344" lon="-2.40605">
        <ele>46.5</ele>
        <time>2025-02-11T09:26:24Z</time>
      </trkpt>
      <trkpt lat="47.81345" lon="-2.40604">
        <ele>46.4</ele>
        <time>2025-02-11T09:26:25Z</time>
      </trkpt>
      <trkpt lat="47.81346" lon="-2.40603">
        <ele>46.2</ele>
        <time>2025-02-11T09:26:26Z</time>
      </trkpt>
      <trkpt lat="47.81347" lon="-2.40603">
        <ele>46.1</ele>
        <time>2025-02-11T09:26:27Z</time>
      </trkpt>
      <trkpt lat="47.81348" lon="-2.40602">
        <ele>45.9</ele>
        <time>2025-02-11T09:26:28Z</time>
      </trkpt>
      <trkpt lat="47.81349" lon="-2.40602">
        <ele>45.7</ele>
        <time>2025-02-11T09:26:29Z</time>
      </trkpt>
      <trkpt lat="47.8135" lon="-2.40602">
        <ele>45.5</ele>
        <time>2025-02-11T09:26:30Z</time>
      </trkpt>
      <trkpt lat="47.81352" lon="-2.40601">
        <ele>45.4</ele>
        <time>2025-02-11T09:26:31Z</time>
      </trkpt>
      <trkpt lat="47.81353" lon="-2.40601">
        <ele>45.2</ele>
        <time>2025-02-11T09:26:32Z</time>
      </trkpt>
      <trkpt lat="47.81354" lon="-2.406">
        <ele>45</ele>
        <time>2025-02-11T09:26:33Z</time>
      </trkpt>
      <trkpt lat="47.81355" lon="-2.40599">
        <ele>44.9</ele>
        <time>2025-02-11T09:26:34Z</time>
      </trkpt>
      <trkpt lat="47.81357" lon="-2.40599">
        <ele>44.7</ele>
        <time>2025-02-11T09:26:35Z</time>
      </trkpt>
      <trkpt lat="47.81358" lon="-2.40599">
        <ele>44.5</ele>
        <time>2025-02-11T09:26:36Z</time>
      </trkpt>
      <trkpt lat="47.81359" lon="-2.40598">
        <ele>44.3</ele>
        <time>2025-02-11T09:26:37Z</time>
      </trkpt>
      <trkpt lat="47.8136" lon="-2.40597">
        <ele>44.1</ele>
        <time>2025-02-11T09:26:38Z</time>
      </trkpt>
      <trkpt lat="47.81362" lon="-2.40597">
        <ele>44</ele>
        <time>2025-02-11T09:26:39Z</time>
      </trkpt>
      <trkpt lat="47.81363" lon="-2.40596">
        <ele>43.9</ele>
        <time>2025-02-11T09:26:40Z</time>
      </trkpt>
      <trkpt lat="47.81364" lon="-2.40595">
        <ele>43.8</ele>
        <time>2025-02-11T09:26:41Z</time>
      </trkpt>
      <trkpt lat="47.81365" lon="-2.40593">
        <ele>43.7</ele>
        <time>2025-02-11T09:26:42Z</time>
      </trkpt>
      <trkpt lat="47.81366" lon="-2.40592">
        <ele>43.7</ele>
        <time>2025-02-11T09:26:43Z</time>
      </trkpt>
      <trkpt lat="47.81367" lon="-2.40591">
        <ele>43.6</ele>
        <time>2025-02-11T09:26:44Z</time>
      </trkpt>
      <trkpt lat="47.81368" lon="-2.4059">
        <ele>43.5</ele>
        <time>2025-02-11T09:26:45Z</time>
      </trkpt>
      <trkpt lat="47.81369" lon="-2.4059">
        <ele>43.4</ele>
        <time>2025-02-11T09:26:46Z</time>
      </trkpt>
      <trkpt lat="47.81371" lon="-2.4059">
        <ele>43.3</ele>
        <time>2025-02-11T09:26:47Z</time>
      </trkpt>
      <trkpt lat="47.81372" lon="-2.4059">
        <ele>43.2</ele>
        <time>2025-02-11T09:26:48Z</time>
      </trkpt>
      <trkpt lat="47.81373" lon="-2.4059">
        <ele>43.2</ele>
        <time>2025-02-11T09:26:49Z</time>
      </trkpt>
      <trkpt lat="47.81374" lon="-2.40589">
        <ele>43.1</ele>
        <time>2025-02-11T09:26:50Z</time>
      </trkpt>
      <trkpt lat="47.81375" lon="-2.40589">
        <ele>43</ele>
        <time>2025-02-11T09:26:51Z</time>
      </trkpt>
      <trkpt lat="47.81376" lon="-2.40589">
        <ele>42.9</ele>
        <time>2025-02-11T09:26:52Z</time>
      </trkpt>
      <trkpt lat="47.81377" lon="-2.40588">
        <ele>42.8</ele>
        <time>2025-02-11T09:26:53Z</time>
      </trkpt>
      <trkpt lat="47.81378" lon="-2.40588">
        <ele>42.8</ele>
        <time>2025-02-11T09:26:54Z</time>
      </trkpt>
      <trkpt lat="47.8138" lon="-2.40587">
        <ele>42.7</ele>
        <time>2025-02-11T09:26:55Z</time>
      </trkpt>
      <trkpt lat="47.81381" lon="-2.40587">
        <ele>42.6</ele>
        <time>2025-02-11T09:26:56Z</time>
      </trkpt>
      <trkpt lat="47.81382" lon="-2.40586">
        <ele>42.5</ele>
        <time>2025-02-11T09:26:57Z</time>
      </trkpt>
      <trkpt lat="47.81383" lon="-2.40586">
        <ele>42.4</ele>
        <time>2025-02-11T09:26:58Z</time>
      </trkpt>
      <trkpt lat="47.81384" lon="-2.40585">
        <ele>42.4</ele>
        <time>2025-02-11T09:26:59Z</time>
      </trkpt>
      <trkpt lat="47.81385" lon="-2.40585">
        <ele>42.3</ele>
        <time>2025-02-11T09:27:00Z</time>
      </trkpt>
      <trkpt lat="47.81386" lon="-2.40584">
        <ele>42.2</ele>
        <time>2025-02-11T09:27:01Z</time>
      </trkpt>
      <trkpt lat="47.81387" lon="-2.40584">
        <ele>42.1</ele>
        <time>2025-02-11T09:27:02Z</time>
      </trkpt>
      <trkpt lat="47.81388" lon="-2.40584">
        <ele>42.1</ele>
        <time>2025-02-11T09:27:03Z</time>
      </trkpt>
      <trkpt lat="47.81389" lon="-2.40583">
        <ele>42</ele>
        <time>2025-02-11T09:27:04Z</time>
      </trkpt>
      <trkpt lat="47.8139" lon="-2.40582">
        <ele>42</ele>
        <time>2025-02-11T09:27:05Z</time>
      </trkpt>
      <trkpt lat="47.81391" lon="-2.40581">
        <ele>42.1</ele>
        <time>2025-02-11T09:27:06Z</time>
      </trkpt>
      <trkpt lat="47.81392" lon="-2.40581">
        <ele>42.1</ele>
        <time>2025-02-11T09:27:07Z</time>
      </trkpt>
      <trkpt lat="47.81394" lon="-2.40581">
        <ele>42.1</ele>
        <time>2025-02-11T09:27:08Z</time>
      </trkpt>
      <trkpt lat="47.81395" lon="-2.4058">
        <ele>42.1</ele>
        <time>2025-02-11T09:27:09Z</time>
      </trkpt>
      <trkpt lat="47.81396" lon="-2.4058">
        <ele>42.1</ele>
        <time>2025-02-11T09:27:10Z</time>
      </trkpt>
      <trkpt lat="47.81397" lon="-2.4058">
        <ele>42</ele>
        <time>2025-02-11T09:27:11Z</time>
      </trkpt>
      <trkpt lat="47.81398" lon="-2.4058">
        <ele>42</ele>
        <time>2025-02-11T09:27:12Z</time>
      </trkpt>
      <trkpt lat="47.81399" lon="-2.4058">
        <ele>42</ele>
        <time>2025-02-11T09:27:13Z</time>
      </trkpt>
      <trkpt lat="47.814" lon="-2.40579">
        <ele>42</ele>
        <time>2025-02-11T09:27:14Z</time>
      </trkpt>
      <trkpt lat="47.81401" lon="-2.40578">
        <ele>42</ele>
        <time>2025-02-11T09:27:15Z</time>
      </trkpt>
      <trkpt lat="47.81403" lon="-2.40578">
        <ele>42</ele>
        <time>2025-02-11T09:27:16Z</time>
      </trkpt>
      <trkpt lat="47.81404" lon="-2.40577">
        <ele>42</ele>
        <time>2025-02-11T09:27:17Z</time>
      </trkpt>
      <trkpt lat="47.81405" lon="-2.40576">
        <ele>42</ele>
        <time>2025-02-11T09:27:18Z</time>
      </trkpt>
      <trkpt lat="47.81406" lon="-2.40575">
        <ele>41.9</ele>
        <time>2025-02-11T09:27:19Z</time>
      </trkpt>
      <trkpt lat="47.81407" lon="-2.40575">
        <ele>41.9</ele>
        <time>2025-02-11T09:27:20Z</time>
      </trkpt>
      <trkpt lat="47.81408" lon="-2.40575">
        <ele>41.9</ele>
        <time>2025-02-11T09:27:21Z</time>
      </trkpt>
      <trkpt lat="47.81409" lon="-2.40574">
        <ele>41.9</ele>
        <time>2025-02-11T09:27:22Z</time>
      </trkpt>
      <trkpt lat="47.8141" lon="-2.40573">
        <ele>41.8</ele>
        <time>2025-02-11T09:27:23Z</time>
      </trkpt>
      <trkpt lat="47.81411" lon="-2.40573">
        <ele>41.8</ele>
        <time>2025-02-11T09:27:24Z</time>
      </trkpt>
      <trkpt lat="47.81412" lon="-2.40573">
        <ele>41.8</ele>
        <time>2025-02-11T09:27:25Z</time>
      </trkpt>
      <trkpt lat="47.81413" lon="-2.40573">
        <ele>41.7</ele>
        <time>2025-02-11T09:27:26Z</time>
      </trkpt>
      <trkpt lat="47.81414" lon="-2.40572">
        <ele>41.7</ele>
        <time>2025-02-11T09:27:27Z</time>
      </trkpt>
      <trkpt lat="47.81415" lon="-2.40571">
        <ele>41.6</ele>
        <time>2025-02-11T09:27:28Z</time>
      </trkpt>
      <trkpt lat="47.81417" lon="-2.40571">
        <ele>41.6</ele>
        <time>2025-02-11T09:27:29Z</time>
      </trkpt>
      <trkpt lat="47.81418" lon="-2.40571">
        <ele>41.5</ele>
        <time>2025-02-11T09:27:30Z</time>
      </trkpt>
      <trkpt lat="47.81419" lon="-2.4057">
        <ele>41.5</ele>
        <time>2025-02-11T09:27:31Z</time>
      </trkpt>
      <trkpt lat="47.8142" lon="-2.4057">
        <ele>41.5</ele>
        <time>2025-02-11T09:27:32Z</time>
      </trkpt>
      <trkpt lat="47.81421" lon="-2.40569">
        <ele>41.5</ele>
        <time>2025-02-11T09:27:33Z</time>
      </trkpt>
      <trkpt lat="47.81422" lon="-2.40569">
        <ele>41.5</ele>
        <time>2025-02-11T09:27:34Z</time>
      </trkpt>
      <trkpt lat="47.81423" lon="-2.40568">
        <ele>41.5</ele>
        <time>2025-02-11T09:27:35Z</time>
      </trkpt>
      <trkpt lat="47.81424" lon="-2.40567">
        <ele>41.4</ele>
        <time>2025-02-11T09:27:36Z</time>
      </trkpt>
      <trkpt lat="47.81425" lon="-2.40566">
        <ele>41.4</ele>
        <time>2025-02-11T09:27:37Z</time>
      </trkpt>
      <trkpt lat="47.81426" lon="-2.40565">
        <ele>41.4</ele>
        <time>2025-02-11T09:27:38Z</time>
      </trkpt>
      <trkpt lat="47.81427" lon="-2.40564">
        <ele>41.3</ele>
        <time>2025-02-11T09:27:39Z</time>
      </trkpt>
      <trkpt lat="47.81429" lon="-2.40564">
        <ele>41.3</ele>
        <time>2025-02-11T09:27:40Z</time>
      </trkpt>
      <trkpt lat="47.8143" lon="-2.40563">
        <ele>41.3</ele>
        <time>2025-02-11T09:27:41Z</time>
      </trkpt>
      <trkpt lat="47.81431" lon="-2.40562">
        <ele>41.2</ele>
        <time>2025-02-11T09:27:42Z</time>
      </trkpt>
      <trkpt lat="47.81432" lon="-2.40561">
        <ele>41.2</ele>
        <time>2025-02-11T09:27:43Z</time>
      </trkpt>
      <trkpt lat="47.81433" lon="-2.4056">
        <ele>41.2</ele>
        <time>2025-02-11T09:27:44Z</time>
      </trkpt>
      <trkpt lat="47.81434" lon="-2.4056">
        <ele>41.1</ele>
        <time>2025-02-11T09:27:45Z</time>
      </trkpt>
      <trkpt lat="47.81435" lon="-2.40559">
        <ele>41.1</ele>
        <time>2025-02-11T09:27:46Z</time>
      </trkpt>
      <trkpt lat="47.81437" lon="-2.40558">
        <ele>41.1</ele>
        <time>2025-02-11T09:27:47Z</time>
      </trkpt>
      <trkpt lat="47.81438" lon="-2.40557">
        <ele>41.1</ele>
        <time>2025-02-11T09:27:48Z</time>
      </trkpt>
      <trkpt lat="47.81439" lon="-2.40556">
        <ele>41</ele>
        <time>2025-02-11T09:27:49Z</time>
      </trkpt>
      <trkpt lat="47.8144" lon="-2.40556">
        <ele>41</ele>
        <time>2025-02-11T09:27:50Z</time>
      </trkpt>
      <trkpt lat="47.81441" lon="-2.40554">
        <ele>41</ele>
        <time>2025-02-11T09:27:51Z</time>
      </trkpt>
      <trkpt lat="47.81442" lon="-2.40553">
        <ele>40.9</ele>
        <time>2025-02-11T09:27:52Z</time>
      </trkpt>
      <trkpt lat="47.81443" lon="-2.40552">
        <ele>40.9</ele>
        <time>2025-02-11T09:27:53Z</time>
      </trkpt>
      <trkpt lat="47.81444" lon="-2.40551">
        <ele>40.8</ele>
        <time>2025-02-11T09:27:54Z</time>
      </trkpt>
      <trkpt lat="47.81445" lon="-2.4055">
        <ele>40.8</ele>
        <time>2025-02-11T09:27:55Z</time>
      </trkpt>
      <trkpt lat="47.81445" lon="-2.40548">
        <ele>40.8</ele>
        <time>2025-02-11T09:27:56Z</time>
      </trkpt>
      <trkpt lat="47.81446" lon="-2.40547">
        <ele>40.8</ele>
        <time>2025-02-11T09:27:57Z</time>
      </trkpt>
      <trkpt lat="47.81447" lon="-2.40545">
        <ele>40.8</ele>
        <time>2025-02-11T09:27:58Z</time>
      </trkpt>
      <trkpt lat="47.81448" lon="-2.40544">
        <ele>40.8</ele>
        <time>2025-02-11T09:27:59Z</time>
      </trkpt>
      <trkpt lat="47.81449" lon="-2.40543">
        <ele>40.9</ele>
        <time>2025-02-11T09:28:00Z</time>
      </trkpt>
      <trkpt lat="47.8145" lon="-2.40542">
        <ele>40.9</ele>
        <time>2025-02-11T09:28:01Z</time>
      </trkpt>
      <trkpt lat="47.81451" lon="-2.40541">
        <ele>41</ele>
        <time>2025-02-11T09:28:02Z</time>
      </trkpt>
      <trkpt lat="47.81452" lon="-2.4054">
        <ele>40.9</ele>
        <time>2025-02-11T09:28:03Z</time>
      </trkpt>
      <trkpt lat="47.81453" lon="-2.40538">
        <ele>40.9</ele>
        <time>2025-02-11T09:28:04Z</time>
      </trkpt>
      <trkpt lat="47.81454" lon="-2.40537">
        <ele>40.9</ele>
        <time>2025-02-11T09:28:05Z</time>
      </trkpt>
      <trkpt lat="47.81455" lon="-2.40536">
        <ele>40.9</ele>
        <time>2025-02-11T09:28:06Z</time>
      </trkpt>
      <trkpt lat="47.81456" lon="-2.40535">
        <ele>40.9</ele>
        <time>2025-02-11T09:28:07Z</time>
      </trkpt>
      <trkpt lat="47.81457" lon="-2.40534">
        <ele>40.9</ele>
        <time>2025-02-11T09:28:08Z</time>
      </trkpt>
      <trkpt lat="47.81458" lon="-2.40533">
        <ele>40.9</ele>
        <time>2025-02-11T09:28:09Z</time>
      </trkpt>
      <trkpt lat="47.8146" lon="-2.40533">
        <ele>40.9</ele>
        <time>2025-02-11T09:28:10Z</time>
      </trkpt>
      <trkpt lat="47.81461" lon="-2.40531">
        <ele>40.9</ele>
        <time>2025-02-11T09:28:11Z</time>
      </trkpt>
      <trkpt lat="47.81462" lon="-2.40531">
        <ele>40.8</ele>
        <time>2025-02-11T09:28:12Z</time>
      </trkpt>
      <trkpt lat="47.81463" lon="-2.40529">
        <ele>40.8</ele>
        <time>2025-02-11T09:28:13Z</time>
      </trkpt>
      <trkpt lat="47.81464" lon="-2.40528">
        <ele>40.7</ele>
        <time>2025-02-11T09:28:14Z</time>
      </trkpt>
      <trkpt lat="47.81464" lon="-2.40527">
        <ele>40.7</ele>
        <time>2025-02-11T09:28:15Z</time>
      </trkpt>
      <trkpt lat="47.81465" lon="-2.40526">
        <ele>40.6</ele>
        <time>2025-02-11T09:28:16Z</time>
      </trkpt>
      <trkpt lat="47.81466" lon="-2.40525">
        <ele>40.6</ele>
        <time>2025-02-11T09:28:17Z</time>
      </trkpt>
      <trkpt lat="47.81467" lon="-2.40524">
        <ele>40.6</ele>
        <time>2025-02-11T09:28:18Z</time>
      </trkpt>
      <trkpt lat="47.81468" lon="-2.40523">
        <ele>40.5</ele>
        <time>2025-02-11T09:28:19Z</time>
      </trkpt>
      <trkpt lat="47.81469" lon="-2.40522">
        <ele>40.5</ele>
        <time>2025-02-11T09:28:20Z</time>
      </trkpt>
      <trkpt lat="47.8147" lon="-2.40521">
        <ele>40.5</ele>
        <time>2025-02-11T09:28:21Z</time>
      </trkpt>
      <trkpt lat="47.81471" lon="-2.4052">
        <ele>40.4</ele>
        <time>2025-02-11T09:28:22Z</time>
      </trkpt>
      <trkpt lat="47.81472" lon="-2.40519">
        <ele>40.4</ele>
        <time>2025-02-11T09:28:23Z</time>
      </trkpt>
      <trkpt lat="47.81473" lon="-2.40518">
        <ele>40.3</ele>
        <time>2025-02-11T09:28:24Z</time>
      </trkpt>
      <trkpt lat="47.81473" lon="-2.40517">
        <ele>40.3</ele>
        <time>2025-02-11T09:28:25Z</time>
      </trkpt>
      <trkpt lat="47.81475" lon="-2.40516">
        <ele>40.4</ele>
        <time>2025-02-11T09:28:26Z</time>
      </trkpt>
      <trkpt lat="47.81476" lon="-2.40514">
        <ele>40.3</ele>
        <time>2025-02-11T09:28:27Z</time>
      </trkpt>
      <trkpt lat="47.81477" lon="-2.40513">
        <ele>40.3</ele>
        <time>2025-02-11T09:28:28Z</time>
      </trkpt>
      <trkpt lat="47.81478" lon="-2.40511">
        <ele>40.3</ele>
        <time>2025-02-11T09:28:29Z</time>
      </trkpt>
      <trkpt lat="47.81479" lon="-2.4051">
        <ele>40.2</ele>
        <time>2025-02-11T09:28:30Z</time>
      </trkpt>
      <trkpt lat="47.8148" lon="-2.40509">
        <ele>40.2</ele>
        <time>2025-02-11T09:28:31Z</time>
      </trkpt>
      <trkpt lat="47.81481" lon="-2.40508">
        <ele>40.2</ele>
        <time>2025-02-11T09:28:32Z</time>
      </trkpt>
      <trkpt lat="47.81482" lon="-2.40507">
        <ele>40.3</ele>
        <time>2025-02-11T09:28:33Z</time>
      </trkpt>
      <trkpt lat="47.81483" lon="-2.40507">
        <ele>40.3</ele>
        <time>2025-02-11T09:28:34Z</time>
      </trkpt>
      <trkpt lat="47.81484" lon="-2.40506">
        <ele>40.4</ele>
        <time>2025-02-11T09:28:35Z</time>
      </trkpt>
      <trkpt lat="47.81485" lon="-2.40505">
        <ele>40.4</ele>
        <time>2025-02-11T09:28:36Z</time>
      </trkpt>
      <trkpt lat="47.81486" lon="-2.40505">
        <ele>40.4</ele>
        <time>2025-02-11T09:28:37Z</time>
      </trkpt>
      <trkpt lat="47.81487" lon="-2.40503">
        <ele>40.4</ele>
        <time>2025-02-11T09:28:38Z</time>
      </trkpt>
      <trkpt lat="47.81488" lon="-2.40502">
        <ele>40.3</ele>
        <time>2025-02-11T09:28:39Z</time>
      </trkpt>
      <trkpt lat="47.81489" lon="-2.40501">
        <ele>40.3</ele>
        <time>2025-02-11T09:28:40Z</time>
      </trkpt>
      <trkpt lat="47.8149" lon="-2.405">
        <ele>40.3</ele>
        <time>2025-02-11T09:28:41Z</time>
      </trkpt>
      <trkpt lat="47.81492" lon="-2.40499">
        <ele>40.3</ele>
        <time>2025-02-11T09:28:42Z</time>
      </trkpt>
      <trkpt lat="47.81493" lon="-2.40499">
        <ele>40.3</ele>
        <time>2025-02-11T09:28:43Z</time>
      </trkpt>
      <trkpt lat="47.81494" lon="-2.40498">
        <ele>40.4</ele>
        <time>2025-02-11T09:28:44Z</time>
      </trkpt>
      <trkpt lat="47.81495" lon="-2.40498">
        <ele>40.4</ele>
        <time>2025-02-11T09:28:45Z</time>
      </trkpt>
      <trkpt lat="47.81496" lon="-2.40497">
        <ele>40.4</ele>
        <time>2025-02-11T09:28:46Z</time>
      </trkpt>
      <trkpt lat="47.81497" lon="-2.40496">
        <ele>40.4</ele>
        <time>2025-02-11T09:28:47Z</time>
      </trkpt>
      <trkpt lat="47.81498" lon="-2.40495">
        <ele>40.4</ele>
        <time>2025-02-11T09:28:48Z</time>
      </trkpt>
      <trkpt lat="47.81499" lon="-2.40494">
        <ele>40.3</ele>
        <time>2025-02-11T09:28:49Z</time>
      </trkpt>
      <trkpt lat="47.815" lon="-2.40493">
        <ele>40.2</ele>
        <time>2025-02-11T09:28:50Z</time>
      </trkpt>
      <trkpt lat="47.81501" lon="-2.40492">
        <ele>40.3</ele>
        <time>2025-02-11T09:28:51Z</time>
      </trkpt>
      <trkpt lat="47.81502" lon="-2.40492">
        <ele>40.4</ele>
        <time>2025-02-11T09:28:52Z</time>
      </trkpt>
      <trkpt lat="47.81504" lon="-2.40492">
        <ele>40.5</ele>
        <time>2025-02-11T09:28:53Z</time>
      </trkpt>
      <trkpt lat="47.81505" lon="-2.40491">
        <ele>40.6</ele>
        <time>2025-02-11T09:28:54Z</time>
      </trkpt>
      <trkpt lat="47.81506" lon="-2.40491">
        <ele>40.8</ele>
        <time>2025-02-11T09:28:55Z</time>
      </trkpt>
      <trkpt lat="47.81507" lon="-2.4049">
        <ele>40.8</ele>
        <time>2025-02-11T09:28:56Z</time>
      </trkpt>
      <trkpt lat="47.81509" lon="-2.4049">
        <ele>40.9</ele>
        <time>2025-02-11T09:28:57Z</time>
      </trkpt>
      <trkpt lat="47.8151" lon="-2.4049">
        <ele>41</ele>
        <time>2025-02-11T09:28:58Z</time>
      </trkpt>
      <trkpt lat="47.81511" lon="-2.40489">
        <ele>41.1</ele>
        <time>2025-02-11T09:28:59Z</time>
      </trkpt>
      <trkpt lat="47.81512" lon="-2.40488">
        <ele>41.1</ele>
        <time>2025-02-11T09:29:00Z</time>
      </trkpt>
      <trkpt lat="47.81513" lon="-2.40488">
        <ele>41.1</ele>
        <time>2025-02-11T09:29:01Z</time>
      </trkpt>
      <trkpt lat="47.81515" lon="-2.40487">
        <ele>41.2</ele>
        <time>2025-02-11T09:29:02Z</time>
      </trkpt>
      <trkpt lat="47.81516" lon="-2.40486">
        <ele>41.2</ele>
        <time>2025-02-11T09:29:03Z</time>
      </trkpt>
      <trkpt lat="47.81517" lon="-2.40485">
        <ele>41.2</ele>
        <time>2025-02-11T09:29:04Z</time>
      </trkpt>
      <trkpt lat="47.81518" lon="-2.40485">
        <ele>41.3</ele>
        <time>2025-02-11T09:29:05Z</time>
      </trkpt>
      <trkpt lat="47.81519" lon="-2.40485">
        <ele>41.3</ele>
        <time>2025-02-11T09:29:06Z</time>
      </trkpt>
      <trkpt lat="47.8152" lon="-2.40484">
        <ele>41.4</ele>
        <time>2025-02-11T09:29:07Z</time>
      </trkpt>
      <trkpt lat="47.81522" lon="-2.40484">
        <ele>41.5</ele>
        <time>2025-02-11T09:29:08Z</time>
      </trkpt>
      <trkpt lat="47.81523" lon="-2.40484">
        <ele>41.5</ele>
        <time>2025-02-11T09:29:09Z</time>
      </trkpt>
      <trkpt lat="47.81524" lon="-2.40483">
        <ele>41.6</ele>
        <time>2025-02-11T09:29:10Z</time>
      </trkpt>
      <trkpt lat="47.81525" lon="-2.40483">
        <ele>41.7</ele>
        <time>2025-02-11T09:29:11Z</time>
      </trkpt>
      <trkpt lat="47.81527" lon="-2.40482">
        <ele>41.6</ele>
        <time>2025-02-11T09:29:12Z</time>
      </trkpt>
      <trkpt lat="47.81528" lon="-2.40482">
        <ele>41.7</ele>
        <time>2025-02-11T09:29:13Z</time>
      </trkpt>
      <trkpt lat="47.81529" lon="-2.40482">
        <ele>41.8</ele>
        <time>2025-02-11T09:29:14Z</time>
      </trkpt>
      <trkpt lat="47.8153" lon="-2.40481">
        <ele>41.9</ele>
        <time>2025-02-11T09:29:15Z</time>
      </trkpt>
      <trkpt lat="47.81532" lon="-2.40481">
        <ele>41.9</ele>
        <time>2025-02-11T09:29:16Z</time>
      </trkpt>
      <trkpt lat="47.81533" lon="-2.40481">
        <ele>41.9</ele>
        <time>2025-02-11T09:29:17Z</time>
      </trkpt>
      <trkpt lat="47.81534" lon="-2.4048">
        <ele>42</ele>
        <time>2025-02-11T09:29:18Z</time>
      </trkpt>
      <trkpt lat="47.81535" lon="-2.4048">
        <ele>42</ele>
        <time>2025-02-11T09:29:19Z</time>
      </trkpt>
      <trkpt lat="47.81537" lon="-2.40479">
        <ele>42</ele>
        <time>2025-02-11T09:29:20Z</time>
      </trkpt>
      <trkpt lat="47.81538" lon="-2.40479">
        <ele>42.1</ele>
        <time>2025-02-11T09:29:21Z</time>
      </trkpt>
      <trkpt lat="47.81539" lon="-2.40478">
        <ele>42.1</ele>
        <time>2025-02-11T09:29:22Z</time>
      </trkpt>
      <trkpt lat="47.8154" lon="-2.40478">
        <ele>42.2</ele>
        <time>2025-02-11T09:29:23Z</time>
      </trkpt>
      <trkpt lat="47.81541" lon="-2.40478">
        <ele>42.2</ele>
        <time>2025-02-11T09:29:24Z</time>
      </trkpt>
      <trkpt lat="47.81542" lon="-2.40477">
        <ele>42.3</ele>
        <time>2025-02-11T09:29:25Z</time>
      </trkpt>
      <trkpt lat="47.81544" lon="-2.40477">
        <ele>42.4</ele>
        <time>2025-02-11T09:29:26Z</time>
      </trkpt>
      <trkpt lat="47.81545" lon="-2.40477">
        <ele>42.5</ele>
        <time>2025-02-11T09:29:27Z</time>
      </trkpt>
      <trkpt lat="47.81546" lon="-2.40477">
        <ele>42.6</ele>
        <time>2025-02-11T09:29:28Z</time>
      </trkpt>
      <trkpt lat="47.81547" lon="-2.40476">
        <ele>42.6</ele>
        <time>2025-02-11T09:29:29Z</time>
      </trkpt>
      <trkpt lat="47.81549" lon="-2.40476">
        <ele>42.7</ele>
        <time>2025-02-11T09:29:30Z</time>
      </trkpt>
      <trkpt lat="47.8155" lon="-2.40476">
        <ele>42.8</ele>
        <time>2025-02-11T09:29:31Z</time>
      </trkpt>
      <trkpt lat="47.81551" lon="-2.40476">
        <ele>42.9</ele>
        <time>2025-02-11T09:29:32Z</time>
      </trkpt>
      <trkpt lat="47.81552" lon="-2.40475">
        <ele>42.9</ele>
        <time>2025-02-11T09:29:33Z</time>
      </trkpt>
      <trkpt lat="47.81553" lon="-2.40475">
        <ele>43.1</ele>
        <time>2025-02-11T09:29:34Z</time>
      </trkpt>
      <trkpt lat="47.81555" lon="-2.40475">
        <ele>43.1</ele>
        <time>2025-02-11T09:29:35Z</time>
      </trkpt>
      <trkpt lat="47.81556" lon="-2.40474">
        <ele>43.2</ele>
        <time>2025-02-11T09:29:36Z</time>
      </trkpt>
      <trkpt lat="47.81557" lon="-2.40474">
        <ele>43.2</ele>
        <time>2025-02-11T09:29:37Z</time>
      </trkpt>
      <trkpt lat="47.81558" lon="-2.40473">
        <ele>43.2</ele>
        <time>2025-02-11T09:29:38Z</time>
      </trkpt>
      <trkpt lat="47.81559" lon="-2.40473">
        <ele>43.2</ele>
        <time>2025-02-11T09:29:39Z</time>
      </trkpt>
      <trkpt lat="47.8156" lon="-2.40473">
        <ele>43.3</ele>
        <time>2025-02-11T09:29:40Z</time>
      </trkpt>
      <trkpt lat="47.81561" lon="-2.40473">
        <ele>43.3</ele>
        <time>2025-02-11T09:29:41Z</time>
      </trkpt>
      <trkpt lat="47.81563" lon="-2.40473">
        <ele>43.3</ele>
        <time>2025-02-11T09:29:42Z</time>
      </trkpt>
      <trkpt lat="47.81564" lon="-2.40472">
        <ele>43.3</ele>
        <time>2025-02-11T09:29:43Z</time>
      </trkpt>
      <trkpt lat="47.81565" lon="-2.40472">
        <ele>43.3</ele>
        <time>2025-02-11T09:29:44Z</time>
      </trkpt>
      <trkpt lat="47.81566" lon="-2.40471">
        <ele>43.3</ele>
        <time>2025-02-11T09:29:45Z</time>
      </trkpt>
      <trkpt lat="47.81567" lon="-2.40471">
        <ele>43.3</ele>
        <time>2025-02-11T09:29:46Z</time>
      </trkpt>
      <trkpt lat="47.81568" lon="-2.40471">
        <ele>43.3</ele>
        <time>2025-02-11T09:29:47Z</time>
      </trkpt>
      <trkpt lat="47.81569" lon="-2.40471">
        <ele>43.3</ele>
        <time>2025-02-11T09:29:48Z</time>
      </trkpt>
      <trkpt lat="47.8157" lon="-2.4047">
        <ele>43.3</ele>
        <time>2025-02-11T09:29:49Z</time>
      </trkpt>
      <trkpt lat="47.81572" lon="-2.4047">
        <ele>43.3</ele>
        <time>2025-02-11T09:29:50Z</time>
      </trkpt>
      <trkpt lat="47.81573" lon="-2.4047">
        <ele>43.4</ele>
        <time>2025-02-11T09:29:51Z</time>
      </trkpt>
      <trkpt lat="47.81574" lon="-2.4047">
        <ele>43.4</ele>
        <time>2025-02-11T09:29:52Z</time>
      </trkpt>
      <trkpt lat="47.81575" lon="-2.40469">
        <ele>43.4</ele>
        <time>2025-02-11T09:29:53Z</time>
      </trkpt>
      <trkpt lat="47.81576" lon="-2.40469">
        <ele>43.4</ele>
        <time>2025-02-11T09:29:54Z</time>
      </trkpt>
      <trkpt lat="47.81577" lon="-2.40469">
        <ele>43.4</ele>
        <time>2025-02-11T09:29:55Z</time>
      </trkpt>
      <trkpt lat="47.81578" lon="-2.40468">
        <ele>43.4</ele>
        <time>2025-02-11T09:29:56Z</time>
      </trkpt>
      <trkpt lat="47.8158" lon="-2.40468">
        <ele>43.4</ele>
        <time>2025-02-11T09:29:57Z</time>
      </trkpt>
      <trkpt lat="47.81581" lon="-2.40468">
        <ele>43.5</ele>
        <time>2025-02-11T09:29:58Z</time>
      </trkpt>
      <trkpt lat="47.81582" lon="-2.40469">
        <ele>43.6</ele>
        <time>2025-02-11T09:29:59Z</time>
      </trkpt>
      <trkpt lat="47.81583" lon="-2.40468">
        <ele>43.6</ele>
        <time>2025-02-11T09:30:00Z</time>
      </trkpt>
      <trkpt lat="47.81585" lon="-2.40468">
        <ele>43.5</ele>
        <time>2025-02-11T09:30:01Z</time>
      </trkpt>
      <trkpt lat="47.81586" lon="-2.40468">
        <ele>43.5</ele>
        <time>2025-02-11T09:30:02Z</time>
      </trkpt>
      <trkpt lat="47.81587" lon="-2.40467">
        <ele>43.5</ele>
        <time>2025-02-11T09:30:03Z</time>
      </trkpt>
      <trkpt lat="47.81588" lon="-2.40467">
        <ele>43.4</ele>
        <time>2025-02-11T09:30:04Z</time>
      </trkpt>
      <trkpt lat="47.81589" lon="-2.40467">
        <ele>43.4</ele>
        <time>2025-02-11T09:30:05Z</time>
      </trkpt>
      <trkpt lat="47.81591" lon="-2.40467">
        <ele>43.4</ele>
        <time>2025-02-11T09:30:06Z</time>
      </trkpt>
      <trkpt lat="47.81592" lon="-2.40467">
        <ele>43.5</ele>
        <time>2025-02-11T09:30:07Z</time>
      </trkpt>
      <trkpt lat="47.81593" lon="-2.40466">
        <ele>43.4</ele>
        <time>2025-02-11T09:30:08Z</time>
      </trkpt>
      <trkpt lat="47.81595" lon="-2.40466">
        <ele>43.4</ele>
        <time>2025-02-11T09:30:09Z</time>
      </trkpt>
      <trkpt lat="47.81596" lon="-2.40465">
        <ele>43.3</ele>
        <time>2025-02-11T09:30:10Z</time>
      </trkpt>
      <trkpt lat="47.81597" lon="-2.40464">
        <ele>43.3</ele>
        <time>2025-02-11T09:30:11Z</time>
      </trkpt>
      <trkpt lat="47.81599" lon="-2.40464">
        <ele>43.3</ele>
        <time>2025-02-11T09:30:12Z</time>
      </trkpt>
      <trkpt lat="47.816" lon="-2.40464">
        <ele>43.3</ele>
        <time>2025-02-11T09:30:13Z</time>
      </trkpt>
      <trkpt lat="47.81601" lon="-2.40464">
        <ele>43.3</ele>
        <time>2025-02-11T09:30:14Z</time>
      </trkpt>
      <trkpt lat="47.81602" lon="-2.40464">
        <ele>43.3</ele>
        <time>2025-02-11T09:30:15Z</time>
      </trkpt>
      <trkpt lat="47.81604" lon="-2.40464">
        <ele>43.3</ele>
        <time>2025-02-11T09:30:16Z</time>
      </trkpt>
      <trkpt lat="47.81605" lon="-2.40463">
        <ele>43.3</ele>
        <time>2025-02-11T09:30:17Z</time>
      </trkpt>
      <trkpt lat="47.81606" lon="-2.40463">
        <ele>43.2</ele>
        <time>2025-02-11T09:30:18Z</time>
      </trkpt>
      <trkpt lat="47.81607" lon="-2.40462">
        <ele>43.2</ele>
        <time>2025-02-11T09:30:19Z</time>
      </trkpt>
      <trkpt lat="47.81609" lon="-2.40462">
        <ele>43.2</ele>
        <time>2025-02-11T09:30:20Z</time>
      </trkpt>
      <trkpt lat="47.8161" lon="-2.40462">
        <ele>43.2</ele>
        <time>2025-02-11T09:30:21Z</time>
      </trkpt>
      <trkpt lat="47.81611" lon="-2.40462">
        <ele>43.2</ele>
        <time>2025-02-11T09:30:22Z</time>
      </trkpt>
      <trkpt lat="47.81612" lon="-2.40461">
        <ele>43.3</ele>
        <time>2025-02-11T09:30:23Z</time>
      </trkpt>
      <trkpt lat="47.81614" lon="-2.40461">
        <ele>43.2</ele>
        <time>2025-02-11T09:30:24Z</time>
      </trkpt>
      <trkpt lat="47.81615" lon="-2.4046">
        <ele>43.3</ele>
        <time>2025-02-11T09:30:25Z</time>
      </trkpt>
      <trkpt lat="47.81616" lon="-2.4046">
        <ele>43.3</ele>
        <time>2025-02-11T09:30:26Z</time>
      </trkpt>
      <trkpt lat="47.81618" lon="-2.4046">
        <ele>43.4</ele>
        <time>2025-02-11T09:30:27Z</time>
      </trkpt>
      <trkpt lat="47.81619" lon="-2.4046">
        <ele>43.4</ele>
        <time>2025-02-11T09:30:28Z</time>
      </trkpt>
      <trkpt lat="47.8162" lon="-2.40459">
        <ele>43.4</ele>
        <time>2025-02-11T09:30:29Z</time>
      </trkpt>
      <trkpt lat="47.81622" lon="-2.40459">
        <ele>43.4</ele>
        <time>2025-02-11T09:30:30Z</time>
      </trkpt>
      <trkpt lat="47.81623" lon="-2.40459">
        <ele>43.5</ele>
        <time>2025-02-11T09:30:31Z</time>
      </trkpt>
      <trkpt lat="47.81624" lon="-2.40458">
        <ele>43.5</ele>
        <time>2025-02-11T09:30:32Z</time>
      </trkpt>
      <trkpt lat="47.81626" lon="-2.40458">
        <ele>43.5</ele>
        <time>2025-02-11T09:30:33Z</time>
      </trkpt>
      <trkpt lat="47.81627" lon="-2.40458">
        <ele>43.5</ele>
        <time>2025-02-11T09:30:34Z</time>
      </trkpt>
      <trkpt lat="47.81628" lon="-2.40457">
        <ele>43.5</ele>
        <time>2025-02-11T09:30:35Z</time>
      </trkpt>
      <trkpt lat="47.8163" lon="-2.40457">
        <ele>43.6</ele>
        <time>2025-02-11T09:30:36Z</time>
      </trkpt>
      <trkpt lat="47.81631" lon="-2.40457">
        <ele>43.6</ele>
        <time>2025-02-11T09:30:37Z</time>
      </trkpt>
      <trkpt lat="47.81632" lon="-2.40457">
        <ele>43.7</ele>
        <time>2025-02-11T09:30:38Z</time>
      </trkpt>
      <trkpt lat="47.81634" lon="-2.40457">
        <ele>43.7</ele>
        <time>2025-02-11T09:30:39Z</time>
      </trkpt>
      <trkpt lat="47.81635" lon="-2.40456">
        <ele>43.7</ele>
        <time>2025-02-11T09:30:40Z</time>
      </trkpt>
      <trkpt lat="47.81636" lon="-2.40457">
        <ele>43.8</ele>
        <time>2025-02-11T09:30:41Z</time>
      </trkpt>
      <trkpt lat="47.81637" lon="-2.40458">
        <ele>43.9</ele>
        <time>2025-02-11T09:30:42Z</time>
      </trkpt>
      <trkpt lat="47.81638" lon="-2.40457">
        <ele>43.9</ele>
        <time>2025-02-11T09:30:43Z</time>
      </trkpt>
      <trkpt lat="47.8164" lon="-2.40457">
        <ele>44</ele>
        <time>2025-02-11T09:30:44Z</time>
      </trkpt>
      <trkpt lat="47.81641" lon="-2.40457">
        <ele>44</ele>
        <time>2025-02-11T09:30:45Z</time>
      </trkpt>
      <trkpt lat="47.81642" lon="-2.40457">
        <ele>44.1</ele>
        <time>2025-02-11T09:30:46Z</time>
      </trkpt>
      <trkpt lat="47.81643" lon="-2.40457">
        <ele>44.1</ele>
        <time>2025-02-11T09:30:47Z</time>
      </trkpt>
      <trkpt lat="47.81644" lon="-2.40457">
        <ele>44.2</ele>
        <time>2025-02-11T09:30:48Z</time>
      </trkpt>
      <trkpt lat="47.81645" lon="-2.40457">
        <ele>44.2</ele>
        <time>2025-02-11T09:30:49Z</time>
      </trkpt>
      <trkpt lat="47.81646" lon="-2.40458">
        <ele>44.4</ele>
        <time>2025-02-11T09:30:50Z</time>
      </trkpt>
      <trkpt lat="47.81647" lon="-2.40459">
        <ele>44.5</ele>
        <time>2025-02-11T09:30:51Z</time>
      </trkpt>
      <trkpt lat="47.81648" lon="-2.4046">
        <ele>44.6</ele>
        <time>2025-02-11T09:30:52Z</time>
      </trkpt>
      <trkpt lat="47.81649" lon="-2.4046">
        <ele>44.7</ele>
        <time>2025-02-11T09:30:53Z</time>
      </trkpt>
      <trkpt lat="47.8165" lon="-2.40461">
        <ele>44.8</ele>
        <time>2025-02-11T09:30:54Z</time>
      </trkpt>
      <trkpt lat="47.81651" lon="-2.40462">
        <ele>45</ele>
        <time>2025-02-11T09:30:55Z</time>
      </trkpt>
      <trkpt lat="47.81652" lon="-2.40463">
        <ele>45.2</ele>
        <time>2025-02-11T09:30:56Z</time>
      </trkpt>
      <trkpt lat="47.81653" lon="-2.40465">
        <ele>45.3</ele>
        <time>2025-02-11T09:30:57Z</time>
      </trkpt>
      <trkpt lat="47.81654" lon="-2.40466">
        <ele>45.5</ele>
        <time>2025-02-11T09:30:58Z</time>
      </trkpt>
      <trkpt lat="47.81655" lon="-2.40467">
        <ele>45.6</ele>
        <time>2025-02-11T09:30:59Z</time>
      </trkpt>
      <trkpt lat="47.81656" lon="-2.40468">
        <ele>45.8</ele>
        <time>2025-02-11T09:31:00Z</time>
      </trkpt>
      <trkpt lat="47.81657" lon="-2.40468">
        <ele>45.9</ele>
        <time>2025-02-11T09:31:01Z</time>
      </trkpt>
      <trkpt lat="47.81657" lon="-2.4047">
        <ele>46.1</ele>
        <time>2025-02-11T09:31:02Z</time>
      </trkpt>
      <trkpt lat="47.81658" lon="-2.40471">
        <ele>46.2</ele>
        <time>2025-02-11T09:31:03Z</time>
      </trkpt>
      <trkpt lat="47.81658" lon="-2.40473">
        <ele>46.4</ele>
        <time>2025-02-11T09:31:04Z</time>
      </trkpt>
      <trkpt lat="47.81659" lon="-2.40474">
        <ele>46.5</ele>
        <time>2025-02-11T09:31:05Z</time>
      </trkpt>
      <trkpt lat="47.81659" lon="-2.40476">
        <ele>46.7</ele>
        <time>2025-02-11T09:31:06Z</time>
      </trkpt>
      <trkpt lat="47.8166" lon="-2.40477">
        <ele>46.8</ele>
        <time>2025-02-11T09:31:07Z</time>
      </trkpt>
      <trkpt lat="47.81661" lon="-2.40479">
        <ele>46.9</ele>
        <time>2025-02-11T09:31:08Z</time>
      </trkpt>
      <trkpt lat="47.81661" lon="-2.4048">
        <ele>47</ele>
        <time>2025-02-11T09:31:09Z</time>
      </trkpt>
      <trkpt lat="47.81662" lon="-2.40482">
        <ele>47.1</ele>
        <time>2025-02-11T09:31:10Z</time>
      </trkpt>
      <trkpt lat="47.81662" lon="-2.40483">
        <ele>47.2</ele>
        <time>2025-02-11T09:31:11Z</time>
      </trkpt>
      <trkpt lat="47.81662" lon="-2.40485">
        <ele>47.3</ele>
        <time>2025-02-11T09:31:12Z</time>
      </trkpt>
      <trkpt lat="47.81663" lon="-2.40487">
        <ele>47.4</ele>
        <time>2025-02-11T09:31:13Z</time>
      </trkpt>
      <trkpt lat="47.81663" lon="-2.40489">
        <ele>47.5</ele>
        <time>2025-02-11T09:31:14Z</time>
      </trkpt>
      <trkpt lat="47.81664" lon="-2.40491">
        <ele>47.6</ele>
        <time>2025-02-11T09:31:15Z</time>
      </trkpt>
      <trkpt lat="47.81664" lon="-2.40492">
        <ele>47.7</ele>
        <time>2025-02-11T09:31:16Z</time>
      </trkpt>
      <trkpt lat="47.81664" lon="-2.40494">
        <ele>47.7</ele>
        <time>2025-02-11T09:31:17Z</time>
      </trkpt>
      <trkpt lat="47.81664" lon="-2.40495">
        <ele>47.8</ele>
        <time>2025-02-11T09:31:18Z</time>
      </trkpt>
      <trkpt lat="47.81665" lon="-2.40497">
        <ele>47.9</ele>
        <time>2025-02-11T09:31:19Z</time>
      </trkpt>
      <trkpt lat="47.81665" lon="-2.40499">
        <ele>47.9</ele>
        <time>2025-02-11T09:31:20Z</time>
      </trkpt>
      <trkpt lat="47.81666" lon="-2.405">
        <ele>48</ele>
        <time>2025-02-11T09:31:21Z</time>
      </trkpt>
      <trkpt lat="47.81666" lon="-2.40501">
        <ele>48.1</ele>
        <time>2025-02-11T09:31:22Z</time>
      </trkpt>
      <trkpt lat="47.81666" lon="-2.40503">
        <ele>48.3</ele>
        <time>2025-02-11T09:31:23Z</time>
      </trkpt>
      <trkpt lat="47.81667" lon="-2.40504">
        <ele>48.5</ele>
        <time>2025-02-11T09:31:24Z</time>
      </trkpt>
      <trkpt lat="47.81667" lon="-2.40506">
        <ele>48.6</ele>
        <time>2025-02-11T09:31:25Z</time>
      </trkpt>
      <trkpt lat="47.81668" lon="-2.40507">
        <ele>48.7</ele>
        <time>2025-02-11T09:31:26Z</time>
      </trkpt>
      <trkpt lat="47.81669" lon="-2.40508">
        <ele>48.9</ele>
        <time>2025-02-11T09:31:27Z</time>
      </trkpt>
      <trkpt lat="47.81669" lon="-2.40509">
        <ele>49.1</ele>
        <time>2025-02-11T09:31:28Z</time>
      </trkpt>
      <trkpt lat="47.8167" lon="-2.40511">
        <ele>49.2</ele>
        <time>2025-02-11T09:31:29Z</time>
      </trkpt>
      <trkpt lat="47.8167" lon="-2.40512">
        <ele>49.4</ele>
        <time>2025-02-11T09:31:30Z</time>
      </trkpt>
      <trkpt lat="47.81671" lon="-2.40513">
        <ele>49.5</ele>
        <time>2025-02-11T09:31:31Z</time>
      </trkpt>
      <trkpt lat="47.81672" lon="-2.40515">
        <ele>49.7</ele>
        <time>2025-02-11T09:31:32Z</time>
      </trkpt>
      <trkpt lat="47.81672" lon="-2.40516">
        <ele>49.8</ele>
        <time>2025-02-11T09:31:33Z</time>
      </trkpt>
      <trkpt lat="47.81673" lon="-2.40517">
        <ele>49.9</ele>
        <time>2025-02-11T09:31:34Z</time>
      </trkpt>
      <trkpt lat="47.81674" lon="-2.40519">
        <ele>50.1</ele>
        <time>2025-02-11T09:31:35Z</time>
      </trkpt>
      <trkpt lat="47.81674" lon="-2.4052">
        <ele>50.2</ele>
        <time>2025-02-11T09:31:36Z</time>
      </trkpt>
      <trkpt lat="47.81675" lon="-2.40521">
        <ele>50.4</ele>
        <time>2025-02-11T09:31:37Z</time>
      </trkpt>
      <trkpt lat="47.81675" lon="-2.40523">
        <ele>50.5</ele>
        <time>2025-02-11T09:31:38Z</time>
      </trkpt>
      <trkpt lat="47.81676" lon="-2.40524">
        <ele>50.6</ele>
        <time>2025-02-11T09:31:39Z</time>
      </trkpt>
      <trkpt lat="47.81676" lon="-2.40525">
        <ele>50.7</ele>
        <time>2025-02-11T09:31:40Z</time>
      </trkpt>
      <trkpt lat="47.81677" lon="-2.40526">
        <ele>50.8</ele>
        <time>2025-02-11T09:31:41Z</time>
      </trkpt>
      <trkpt lat="47.81677" lon="-2.40527">
        <ele>51</ele>
        <time>2025-02-11T09:31:42Z</time>
      </trkpt>
      <trkpt lat="47.81678" lon="-2.40529">
        <ele>51.1</ele>
        <time>2025-02-11T09:31:43Z</time>
      </trkpt>
      <trkpt lat="47.81679" lon="-2.40529">
        <ele>51.1</ele>
        <time>2025-02-11T09:31:44Z</time>
      </trkpt>
      <trkpt lat="47.81679" lon="-2.4053">
        <ele>51.2</ele>
        <time>2025-02-11T09:31:45Z</time>
      </trkpt>
      <trkpt lat="47.8168" lon="-2.40531">
        <ele>51.3</ele>
        <time>2025-02-11T09:31:46Z</time>
      </trkpt>
      <trkpt lat="47.81681" lon="-2.40532">
        <ele>51.4</ele>
        <time>2025-02-11T09:31:47Z</time>
      </trkpt>
      <trkpt lat="47.81682" lon="-2.40533">
        <ele>51.5</ele>
        <time>2025-02-11T09:31:48Z</time>
      </trkpt>
      <trkpt lat="47.81683" lon="-2.40534">
        <ele>51.6</ele>
        <time>2025-02-11T09:31:49Z</time>
      </trkpt>
      <trkpt lat="47.81683" lon="-2.40535">
        <ele>51.7</ele>
        <time>2025-02-11T09:31:50Z</time>
      </trkpt>
      <trkpt lat="47.81684" lon="-2.40536">
        <ele>51.7</ele>
        <time>2025-02-11T09:31:51Z</time>
      </trkpt>
      <trkpt lat="47.81685" lon="-2.40537">
        <ele>51.8</ele>
        <time>2025-02-11T09:31:52Z</time>
      </trkpt>
      <trkpt lat="47.81686" lon="-2.40538">
        <ele>51.8</ele>
        <time>2025-02-11T09:31:53Z</time>
      </trkpt>
      <trkpt lat="47.81687" lon="-2.40539">
        <ele>51.9</ele>
        <time>2025-02-11T09:31:54Z</time>
      </trkpt>
      <trkpt lat="47.81688" lon="-2.4054">
        <ele>51.9</ele>
        <time>2025-02-11T09:31:55Z</time>
      </trkpt>
      <trkpt lat="47.81689" lon="-2.4054">
        <ele>52</ele>
        <time>2025-02-11T09:31:56Z</time>
      </trkpt>
      <trkpt lat="47.8169" lon="-2.40541">
        <ele>52</ele>
        <time>2025-02-11T09:31:57Z</time>
      </trkpt>
      <trkpt lat="47.81691" lon="-2.40542">
        <ele>52.1</ele>
        <time>2025-02-11T09:31:58Z</time>
      </trkpt>
      <trkpt lat="47.81692" lon="-2.40542">
        <ele>52.1</ele>
        <time>2025-02-11T09:31:59Z</time>
      </trkpt>
      <trkpt lat="47.81693" lon="-2.40542">
        <ele>52.1</ele>
        <time>2025-02-11T09:32:00Z</time>
      </trkpt>
      <trkpt lat="47.81694" lon="-2.40543">
        <ele>52.1</ele>
        <time>2025-02-11T09:32:01Z</time>
      </trkpt>
      <trkpt lat="47.81695" lon="-2.40544">
        <ele>52.2</ele>
        <time>2025-02-11T09:32:02Z</time>
      </trkpt>
      <trkpt lat="47.81695" lon="-2.40546">
        <ele>52.3</ele>
        <time>2025-02-11T09:32:03Z</time>
      </trkpt>
      <trkpt lat="47.81696" lon="-2.40547">
        <ele>52.3</ele>
        <time>2025-02-11T09:32:04Z</time>
      </trkpt>
      <trkpt lat="47.81697" lon="-2.40547">
        <ele>52.3</ele>
        <time>2025-02-11T09:32:05Z</time>
      </trkpt>
      <trkpt lat="47.81698" lon="-2.40548">
        <ele>52.4</ele>
        <time>2025-02-11T09:32:06Z</time>
      </trkpt>
      <trkpt lat="47.81699" lon="-2.40549">
        <ele>52.3</ele>
        <time>2025-02-11T09:32:07Z</time>
      </trkpt>
      <trkpt lat="47.81701" lon="-2.4055">
        <ele>52.3</ele>
        <time>2025-02-11T09:32:08Z</time>
      </trkpt>
      <trkpt lat="47.81702" lon="-2.4055">
        <ele>52.4</ele>
        <time>2025-02-11T09:32:09Z</time>
      </trkpt>
      <trkpt lat="47.81703" lon="-2.40551">
        <ele>52.4</ele>
        <time>2025-02-11T09:32:10Z</time>
      </trkpt>
      <trkpt lat="47.81704" lon="-2.40552">
        <ele>52.4</ele>
        <time>2025-02-11T09:32:11Z</time>
      </trkpt>
      <trkpt lat="47.81705" lon="-2.40553">
        <ele>52.4</ele>
        <time>2025-02-11T09:32:12Z</time>
      </trkpt>
      <trkpt lat="47.81706" lon="-2.40554">
        <ele>52.4</ele>
        <time>2025-02-11T09:32:13Z</time>
      </trkpt>
      <trkpt lat="47.81707" lon="-2.40555">
        <ele>52.5</ele>
        <time>2025-02-11T09:32:14Z</time>
      </trkpt>
      <trkpt lat="47.81708" lon="-2.40555">
        <ele>52.5</ele>
        <time>2025-02-11T09:32:15Z</time>
      </trkpt>
      <trkpt lat="47.81709" lon="-2.40556">
        <ele>52.5</ele>
        <time>2025-02-11T09:32:16Z</time>
      </trkpt>
      <trkpt lat="47.8171" lon="-2.40556">
        <ele>52.5</ele>
        <time>2025-02-11T09:32:17Z</time>
      </trkpt>
      <trkpt lat="47.81711" lon="-2.40557">
        <ele>52.5</ele>
        <time>2025-02-11T09:32:18Z</time>
      </trkpt>
      <trkpt lat="47.81712" lon="-2.40558">
        <ele>52.6</ele>
        <time>2025-02-11T09:32:19Z</time>
      </trkpt>
      <trkpt lat="47.81714" lon="-2.40559">
        <ele>52.6</ele>
        <time>2025-02-11T09:32:20Z</time>
      </trkpt>
      <trkpt lat="47.81715" lon="-2.40559">
        <ele>52.6</ele>
        <time>2025-02-11T09:32:21Z</time>
      </trkpt>
      <trkpt lat="47.81716" lon="-2.4056">
        <ele>52.6</ele>
        <time>2025-02-11T09:32:22Z</time>
      </trkpt>
      <trkpt lat="47.81717" lon="-2.40561">
        <ele>52.6</ele>
        <time>2025-02-11T09:32:23Z</time>
      </trkpt>
      <trkpt lat="47.81718" lon="-2.40561">
        <ele>52.6</ele>
        <time>2025-02-11T09:32:24Z</time>
      </trkpt>
      <trkpt lat="47.81719" lon="-2.40562">
        <ele>52.6</ele>
        <time>2025-02-11T09:32:25Z</time>
      </trkpt>
      <trkpt lat="47.8172" lon="-2.40563">
        <ele>52.6</ele>
        <time>2025-02-11T09:32:26Z</time>
      </trkpt>
      <trkpt lat="47.81722" lon="-2.40564">
        <ele>52.7</ele>
        <time>2025-02-11T09:32:27Z</time>
      </trkpt>
      <trkpt lat="47.81723" lon="-2.40565">
        <ele>52.7</ele>
        <time>2025-02-11T09:32:28Z</time>
      </trkpt>
      <trkpt lat="47.81724" lon="-2.40566">
        <ele>52.7</ele>
        <time>2025-02-11T09:32:29Z</time>
      </trkpt>
      <trkpt lat="47.81725" lon="-2.40567">
        <ele>52.7</ele>
        <time>2025-02-11T09:32:30Z</time>
      </trkpt>
      <trkpt lat="47.81726" lon="-2.40568">
        <ele>52.7</ele>
        <time>2025-02-11T09:32:31Z</time>
      </trkpt>
      <trkpt lat="47.81727" lon="-2.40569">
        <ele>52.7</ele>
        <time>2025-02-11T09:32:32Z</time>
      </trkpt>
      <trkpt lat="47.81728" lon="-2.40569">
        <ele>52.7</ele>
        <time>2025-02-11T09:32:33Z</time>
      </trkpt>
      <trkpt lat="47.81729" lon="-2.4057">
        <ele>52.7</ele>
        <time>2025-02-11T09:32:34Z</time>
      </trkpt>
      <trkpt lat="47.81729" lon="-2.40572">
        <ele>52.8</ele>
        <time>2025-02-11T09:32:35Z</time>
      </trkpt>
      <trkpt lat="47.8173" lon="-2.40573">
        <ele>52.9</ele>
        <time>2025-02-11T09:32:36Z</time>
      </trkpt>
      <trkpt lat="47.8173" lon="-2.40574">
        <ele>53</ele>
        <time>2025-02-11T09:32:37Z</time>
      </trkpt>
      <trkpt lat="47.8173" lon="-2.40575">
        <ele>53</ele>
        <time>2025-02-11T09:32:38Z</time>
      </trkpt>
      <trkpt lat="47.8173" lon="-2.40577">
        <ele>53.2</ele>
        <time>2025-02-11T09:32:39Z</time>
      </trkpt>
      <trkpt lat="47.81729" lon="-2.40577">
        <ele>53.3</ele>
        <time>2025-02-11T09:32:40Z</time>
      </trkpt>
      <trkpt lat="47.81729" lon="-2.40577">
        <ele>53.3</ele>
        <time>2025-02-11T09:32:41Z</time>
      </trkpt>
      <trkpt lat="47.81729" lon="-2.40577">
        <ele>53.2</ele>
        <time>2025-02-11T09:32:42Z</time>
      </trkpt>
      <trkpt lat="47.81729" lon="-2.40575">
        <ele>53.1</ele>
        <time>2025-02-11T09:32:43Z</time>
      </trkpt>
      <trkpt lat="47.8173" lon="-2.40574">
        <ele>53</ele>
        <time>2025-02-11T09:32:44Z</time>
      </trkpt>
      <trkpt lat="47.81729" lon="-2.40574">
        <ele>53</ele>
        <time>2025-02-11T09:32:45Z</time>
      </trkpt>
      <trkpt lat="47.81729" lon="-2.40574">
        <ele>53</ele>
        <time>2025-02-11T09:32:46Z</time>
      </trkpt>
      <trkpt lat="47.81729" lon="-2.40575">
        <ele>53.1</ele>
        <time>2025-02-11T09:32:47Z</time>
      </trkpt>
      <trkpt lat="47.81728" lon="-2.40576">
        <ele>53.2</ele>
        <time>2025-02-11T09:32:48Z</time>
      </trkpt>
      <trkpt lat="47.81728" lon="-2.40577">
        <ele>53.2</ele>
        <time>2025-02-11T09:32:49Z</time>
      </trkpt>
      <trkpt lat="47.81728" lon="-2.40578">
        <ele>53.4</ele>
        <time>2025-02-11T09:32:50Z</time>
      </trkpt>
      <trkpt lat="47.81728" lon="-2.40579">
        <ele>53.5</ele>
        <time>2025-02-11T09:32:51Z</time>
      </trkpt>
      <trkpt lat="47.81728" lon="-2.40581">
        <ele>53.6</ele>
        <time>2025-02-11T09:32:52Z</time>
      </trkpt>
      <trkpt lat="47.81728" lon="-2.40581">
        <ele>53.6</ele>
        <time>2025-02-11T09:32:53Z</time>
      </trkpt>
      <trkpt lat="47.81728" lon="-2.40581">
        <ele>53.6</ele>
        <time>2025-02-11T09:32:54Z</time>
      </trkpt>
      <trkpt lat="47.81728" lon="-2.40581">
        <ele>53.6</ele>
        <time>2025-02-11T09:32:55Z</time>
      </trkpt>
      <trkpt lat="47.81728" lon="-2.40581">
        <ele>53.6</ele>
        <time>2025-02-11T09:32:56Z</time>
      </trkpt>
      <trkpt lat="47.81729" lon="-2.40583">
        <ele>53.7</ele>
        <time>2025-02-11T09:32:57Z</time>
      </trkpt>
      <trkpt lat="47.81729" lon="-2.40585">
        <ele>53.9</ele>
        <time>2025-02-11T09:32:58Z</time>
      </trkpt>
      <trkpt lat="47.8173" lon="-2.40586">
        <ele>53.9</ele>
        <time>2025-02-11T09:32:59Z</time>
      </trkpt>
      <trkpt lat="47.81731" lon="-2.40587">
        <ele>54</ele>
        <time>2025-02-11T09:33:00Z</time>
      </trkpt>
      <trkpt lat="47.81732" lon="-2.40588">
        <ele>54</ele>
        <time>2025-02-11T09:33:01Z</time>
      </trkpt>
      <trkpt lat="47.81733" lon="-2.40589">
        <ele>54</ele>
        <time>2025-02-11T09:33:02Z</time>
      </trkpt>
      <trkpt lat="47.81734" lon="-2.4059">
        <ele>54.1</ele>
        <time>2025-02-11T09:33:03Z</time>
      </trkpt>
      <trkpt lat="47.81734" lon="-2.40592">
        <ele>54.2</ele>
        <time>2025-02-11T09:33:04Z</time>
      </trkpt>
      <trkpt lat="47.81735" lon="-2.40594">
        <ele>54.3</ele>
        <time>2025-02-11T09:33:05Z</time>
      </trkpt>
      <trkpt lat="47.81735" lon="-2.40596">
        <ele>54.4</ele>
        <time>2025-02-11T09:33:06Z</time>
      </trkpt>
      <trkpt lat="47.81735" lon="-2.40597">
        <ele>54.5</ele>
        <time>2025-02-11T09:33:07Z</time>
      </trkpt>
      <trkpt lat="47.81736" lon="-2.40599">
        <ele>54.6</ele>
        <time>2025-02-11T09:33:08Z</time>
      </trkpt>
      <trkpt lat="47.81736" lon="-2.406">
        <ele>54.7</ele>
        <time>2025-02-11T09:33:09Z</time>
      </trkpt>
      <trkpt lat="47.81737" lon="-2.40602">
        <ele>54.8</ele>
        <time>2025-02-11T09:33:10Z</time>
      </trkpt>
      <trkpt lat="47.81737" lon="-2.40603">
        <ele>54.9</ele>
        <time>2025-02-11T09:33:11Z</time>
      </trkpt>
      <trkpt lat="47.81738" lon="-2.40605">
        <ele>55</ele>
        <time>2025-02-11T09:33:12Z</time>
      </trkpt>
      <trkpt lat="47.81738" lon="-2.40606">
        <ele>55</ele>
        <time>2025-02-11T09:33:13Z</time>
      </trkpt>
      <trkpt lat="47.81739" lon="-2.40607">
        <ele>55.1</ele>
        <time>2025-02-11T09:33:14Z</time>
      </trkpt>
      <trkpt lat="47.81739" lon="-2.40608">
        <ele>55.2</ele>
        <time>2025-02-11T09:33:15Z</time>
      </trkpt>
      <trkpt lat="47.8174" lon="-2.40609">
        <ele>55.3</ele>
        <time>2025-02-11T09:33:16Z</time>
      </trkpt>
      <trkpt lat="47.8174" lon="-2.40611">
        <ele>55.3</ele>
        <time>2025-02-11T09:33:17Z</time>
      </trkpt>
      <trkpt lat="47.8174" lon="-2.40612">
        <ele>55.5</ele>
        <time>2025-02-11T09:33:18Z</time>
      </trkpt>
      <trkpt lat="47.81741" lon="-2.40614">
        <ele>55.5</ele>
        <time>2025-02-11T09:33:19Z</time>
      </trkpt>
      <trkpt lat="47.81741" lon="-2.40615">
        <ele>55.6</ele>
        <time>2025-02-11T09:33:20Z</time>
      </trkpt>
      <trkpt lat="47.81742" lon="-2.40616">
        <ele>55.7</ele>
        <time>2025-02-11T09:33:21Z</time>
      </trkpt>
      <trkpt lat="47.81742" lon="-2.40618">
        <ele>55.8</ele>
        <time>2025-02-11T09:33:22Z</time>
      </trkpt>
      <trkpt lat="47.81742" lon="-2.40619">
        <ele>55.9</ele>
        <time>2025-02-11T09:33:23Z</time>
      </trkpt>
      <trkpt lat="47.81743" lon="-2.4062">
        <ele>55.9</ele>
        <time>2025-02-11T09:33:24Z</time>
      </trkpt>
      <trkpt lat="47.81743" lon="-2.40622">
        <ele>56</ele>
        <time>2025-02-11T09:33:25Z</time>
      </trkpt>
      <trkpt lat="47.81744" lon="-2.40623">
        <ele>56.1</ele>
        <time>2025-02-11T09:33:26Z</time>
      </trkpt>
      <trkpt lat="47.81744" lon="-2.40625">
        <ele>56.2</ele>
        <time>2025-02-11T09:33:27Z</time>
      </trkpt>
      <trkpt lat="47.81745" lon="-2.40626">
        <ele>56.3</ele>
        <time>2025-02-11T09:33:28Z</time>
      </trkpt>
      <trkpt lat="47.81745" lon="-2.40627">
        <ele>56.4</ele>
        <time>2025-02-11T09:33:29Z</time>
      </trkpt>
      <trkpt lat="47.81746" lon="-2.40629">
        <ele>56.5</ele>
        <time>2025-02-11T09:33:30Z</time>
      </trkpt>
      <trkpt lat="47.81746" lon="-2.40631">
        <ele>56.5</ele>
        <time>2025-02-11T09:33:31Z</time>
      </trkpt>
      <trkpt lat="47.81747" lon="-2.40632">
        <ele>56.6</ele>
        <time>2025-02-11T09:33:32Z</time>
      </trkpt>
      <trkpt lat="47.81747" lon="-2.40634">
        <ele>56.7</ele>
        <time>2025-02-11T09:33:33Z</time>
      </trkpt>
      <trkpt lat="47.81748" lon="-2.40636">
        <ele>56.8</ele>
        <time>2025-02-11T09:33:34Z</time>
      </trkpt>
      <trkpt lat="47.81748" lon="-2.40637">
        <ele>56.9</ele>
        <time>2025-02-11T09:33:35Z</time>
      </trkpt>
      <trkpt lat="47.81749" lon="-2.40638">
        <ele>57</ele>
        <time>2025-02-11T09:33:36Z</time>
      </trkpt>
      <trkpt lat="47.81749" lon="-2.4064">
        <ele>57.1</ele>
        <time>2025-02-11T09:33:37Z</time>
      </trkpt>
      <trkpt lat="47.8175" lon="-2.40641">
        <ele>57.1</ele>
        <time>2025-02-11T09:33:38Z</time>
      </trkpt>
      <trkpt lat="47.8175" lon="-2.40643">
        <ele>57.2</ele>
        <time>2025-02-11T09:33:39Z</time>
      </trkpt>
      <trkpt lat="47.81751" lon="-2.40645">
        <ele>57.2</ele>
        <time>2025-02-11T09:33:40Z</time>
      </trkpt>
      <trkpt lat="47.81751" lon="-2.40646">
        <ele>57.2</ele>
        <time>2025-02-11T09:33:41Z</time>
      </trkpt>
      <trkpt lat="47.81751" lon="-2.40648">
        <ele>57.3</ele>
        <time>2025-02-11T09:33:42Z</time>
      </trkpt>
      <trkpt lat="47.81752" lon="-2.40649">
        <ele>57.3</ele>
        <time>2025-02-11T09:33:43Z</time>
      </trkpt>
      <trkpt lat="47.81753" lon="-2.40651">
        <ele>57.3</ele>
        <time>2025-02-11T09:33:44Z</time>
      </trkpt>
      <trkpt lat="47.81753" lon="-2.40652">
        <ele>57.4</ele>
        <time>2025-02-11T09:33:45Z</time>
      </trkpt>
      <trkpt lat="47.81753" lon="-2.40654">
        <ele>57.4</ele>
        <time>2025-02-11T09:33:46Z</time>
      </trkpt>
      <trkpt lat="47.81754" lon="-2.40656">
        <ele>57.5</ele>
        <time>2025-02-11T09:33:47Z</time>
      </trkpt>
      <trkpt lat="47.81755" lon="-2.40657">
        <ele>57.5</ele>
        <time>2025-02-11T09:33:48Z</time>
      </trkpt>
      <trkpt lat="47.81755" lon="-2.40659">
        <ele>57.6</ele>
        <time>2025-02-11T09:33:49Z</time>
      </trkpt>
      <trkpt lat="47.81755" lon="-2.40661">
        <ele>57.6</ele>
        <time>2025-02-11T09:33:50Z</time>
      </trkpt>
      <trkpt lat="47.81756" lon="-2.40662">
        <ele>57.6</ele>
        <time>2025-02-11T09:33:51Z</time>
      </trkpt>
      <trkpt lat="47.81757" lon="-2.40664">
        <ele>57.6</ele>
        <time>2025-02-11T09:33:52Z</time>
      </trkpt>
      <trkpt lat="47.81757" lon="-2.40665">
        <ele>57.7</ele>
        <time>2025-02-11T09:33:53Z</time>
      </trkpt>
      <trkpt lat="47.81758" lon="-2.40667">
        <ele>57.7</ele>
        <time>2025-02-11T09:33:54Z</time>
      </trkpt>
      <trkpt lat="47.81758" lon="-2.40669">
        <ele>57.8</ele>
        <time>2025-02-11T09:33:55Z</time>
      </trkpt>
      <trkpt lat="47.81759" lon="-2.4067">
        <ele>57.9</ele>
        <time>2025-02-11T09:33:56Z</time>
      </trkpt>
      <trkpt lat="47.81759" lon="-2.40672">
        <ele>58</ele>
        <time>2025-02-11T09:33:57Z</time>
      </trkpt>
      <trkpt lat="47.8176" lon="-2.40673">
        <ele>58</ele>
        <time>2025-02-11T09:33:58Z</time>
      </trkpt>
      <trkpt lat="47.8176" lon="-2.40675">
        <ele>58.1</ele>
        <time>2025-02-11T09:33:59Z</time>
      </trkpt>
      <trkpt lat="47.81761" lon="-2.40676">
        <ele>58.1</ele>
        <time>2025-02-11T09:34:00Z</time>
      </trkpt>
      <trkpt lat="47.81762" lon="-2.40677">
        <ele>58.2</ele>
        <time>2025-02-11T09:34:01Z</time>
      </trkpt>
      <trkpt lat="47.81762" lon="-2.40679">
        <ele>58.3</ele>
        <time>2025-02-11T09:34:02Z</time>
      </trkpt>
      <trkpt lat="47.81762" lon="-2.40681">
        <ele>58.4</ele>
        <time>2025-02-11T09:34:03Z</time>
      </trkpt>
      <trkpt lat="47.81763" lon="-2.40683">
        <ele>58.4</ele>
        <time>2025-02-11T09:34:04Z</time>
      </trkpt>
      <trkpt lat="47.81763" lon="-2.40684">
        <ele>58.5</ele>
        <time>2025-02-11T09:34:05Z</time>
      </trkpt>
      <trkpt lat="47.81764" lon="-2.40686">
        <ele>58.5</ele>
        <time>2025-02-11T09:34:06Z</time>
      </trkpt>
      <trkpt lat="47.81765" lon="-2.40687">
        <ele>58.6</ele>
        <time>2025-02-11T09:34:07Z</time>
      </trkpt>
      <trkpt lat="47.81765" lon="-2.40689">
        <ele>58.6</ele>
        <time>2025-02-11T09:34:08Z</time>
      </trkpt>
      <trkpt lat="47.81765" lon="-2.4069">
        <ele>58.7</ele>
        <time>2025-02-11T09:34:09Z</time>
      </trkpt>
      <trkpt lat="47.81766" lon="-2.40692">
        <ele>58.7</ele>
        <time>2025-02-11T09:34:10Z</time>
      </trkpt>
      <trkpt lat="47.81766" lon="-2.40694">
        <ele>58.8</ele>
        <time>2025-02-11T09:34:11Z</time>
      </trkpt>
      <trkpt lat="47.81767" lon="-2.40695">
        <ele>58.8</ele>
        <time>2025-02-11T09:34:12Z</time>
      </trkpt>
      <trkpt lat="47.81767" lon="-2.40697">
        <ele>58.8</ele>
        <time>2025-02-11T09:34:13Z</time>
      </trkpt>
      <trkpt lat="47.81767" lon="-2.40699">
        <ele>58.9</ele>
        <time>2025-02-11T09:34:14Z</time>
      </trkpt>
      <trkpt lat="47.81768" lon="-2.407">
        <ele>58.8</ele>
        <time>2025-02-11T09:34:15Z</time>
      </trkpt>
      <trkpt lat="47.81769" lon="-2.40702">
        <ele>58.8</ele>
        <time>2025-02-11T09:34:16Z</time>
      </trkpt>
      <trkpt lat="47.81769" lon="-2.40704">
        <ele>58.9</ele>
        <time>2025-02-11T09:34:17Z</time>
      </trkpt>
      <trkpt lat="47.8177" lon="-2.40705">
        <ele>58.9</ele>
        <time>2025-02-11T09:34:18Z</time>
      </trkpt>
      <trkpt lat="47.8177" lon="-2.40707">
        <ele>58.9</ele>
        <time>2025-02-11T09:34:19Z</time>
      </trkpt>
      <trkpt lat="47.81771" lon="-2.40709">
        <ele>58.9</ele>
        <time>2025-02-11T09:34:20Z</time>
      </trkpt>
      <trkpt lat="47.81771" lon="-2.4071">
        <ele>58.9</ele>
        <time>2025-02-11T09:34:21Z</time>
      </trkpt>
      <trkpt lat="47.81772" lon="-2.40712">
        <ele>58.9</ele>
        <time>2025-02-11T09:34:22Z</time>
      </trkpt>
      <trkpt lat="47.81773" lon="-2.40714">
        <ele>58.9</ele>
        <time>2025-02-11T09:34:23Z</time>
      </trkpt>
      <trkpt lat="47.81774" lon="-2.40715">
        <ele>58.9</ele>
        <time>2025-02-11T09:34:24Z</time>
      </trkpt>
      <trkpt lat="47.81774" lon="-2.40717">
        <ele>58.9</ele>
        <time>2025-02-11T09:34:25Z</time>
      </trkpt>
      <trkpt lat="47.81775" lon="-2.40718">
        <ele>59</ele>
        <time>2025-02-11T09:34:26Z</time>
      </trkpt>
      <trkpt lat="47.81776" lon="-2.4072">
        <ele>59</ele>
        <time>2025-02-11T09:34:27Z</time>
      </trkpt>
      <trkpt lat="47.81776" lon="-2.40721">
        <ele>59</ele>
        <time>2025-02-11T09:34:28Z</time>
      </trkpt>
      <trkpt lat="47.81776" lon="-2.40723">
        <ele>59</ele>
        <time>2025-02-11T09:34:29Z</time>
      </trkpt>
      <trkpt lat="47.81777" lon="-2.40725">
        <ele>59</ele>
        <time>2025-02-11T09:34:30Z</time>
      </trkpt>
      <trkpt lat="47.81777" lon="-2.40726">
        <ele>59</ele>
        <time>2025-02-11T09:34:31Z</time>
      </trkpt>
      <trkpt lat="47.81778" lon="-2.40728">
        <ele>59</ele>
        <time>2025-02-11T09:34:32Z</time>
      </trkpt>
      <trkpt lat="47.81778" lon="-2.40729">
        <ele>59</ele>
        <time>2025-02-11T09:34:33Z</time>
      </trkpt>
      <trkpt lat="47.81779" lon="-2.40731">
        <ele>58.9</ele>
        <time>2025-02-11T09:34:34Z</time>
      </trkpt>
      <trkpt lat="47.8178" lon="-2.40732">
        <ele>58.9</ele>
        <time>2025-02-11T09:34:35Z</time>
      </trkpt>
      <trkpt lat="47.8178" lon="-2.40734">
        <ele>58.9</ele>
        <time>2025-02-11T09:34:36Z</time>
      </trkpt>
      <trkpt lat="47.8178" lon="-2.40736">
        <ele>58.9</ele>
        <time>2025-02-11T09:34:37Z</time>
      </trkpt>
      <trkpt lat="47.81781" lon="-2.40738">
        <ele>58.8</ele>
        <time>2025-02-11T09:34:38Z</time>
      </trkpt>
      <trkpt lat="47.81781" lon="-2.40739">
        <ele>58.8</ele>
        <time>2025-02-11T09:34:39Z</time>
      </trkpt>
      <trkpt lat="47.81782" lon="-2.40741">
        <ele>58.8</ele>
        <time>2025-02-11T09:34:40Z</time>
      </trkpt>
      <trkpt lat="47.81782" lon="-2.40743">
        <ele>58.7</ele>
        <time>2025-02-11T09:34:41Z</time>
      </trkpt>
      <trkpt lat="47.81783" lon="-2.40745">
        <ele>58.7</ele>
        <time>2025-02-11T09:34:42Z</time>
      </trkpt>
      <trkpt lat="47.81783" lon="-2.40746">
        <ele>58.6</ele>
        <time>2025-02-11T09:34:43Z</time>
      </trkpt>
      <trkpt lat="47.81784" lon="-2.40748">
        <ele>58.6</ele>
        <time>2025-02-11T09:34:44Z</time>
      </trkpt>
      <trkpt lat="47.81785" lon="-2.4075">
        <ele>58.5</ele>
        <time>2025-02-11T09:34:45Z</time>
      </trkpt>
      <trkpt lat="47.81786" lon="-2.40751">
        <ele>58.4</ele>
        <time>2025-02-11T09:34:46Z</time>
      </trkpt>
      <trkpt lat="47.81786" lon="-2.40753">
        <ele>58.3</ele>
        <time>2025-02-11T09:34:47Z</time>
      </trkpt>
      <trkpt lat="47.81787" lon="-2.40754">
        <ele>58.2</ele>
        <time>2025-02-11T09:34:48Z</time>
      </trkpt>
      <trkpt lat="47.81787" lon="-2.40756">
        <ele>58.1</ele>
        <time>2025-02-11T09:34:49Z</time>
      </trkpt>
      <trkpt lat="47.81788" lon="-2.40758">
        <ele>58</ele>
        <time>2025-02-11T09:34:50Z</time>
      </trkpt>
      <trkpt lat="47.81789" lon="-2.40759">
        <ele>57.9</ele>
        <time>2025-02-11T09:34:51Z</time>
      </trkpt>
      <trkpt lat="47.81789" lon="-2.4076">
        <ele>57.8</ele>
        <time>2025-02-11T09:34:52Z</time>
      </trkpt>
      <trkpt lat="47.8179" lon="-2.40762">
        <ele>57.7</ele>
        <time>2025-02-11T09:34:53Z</time>
      </trkpt>
      <trkpt lat="47.8179" lon="-2.40764">
        <ele>57.6</ele>
        <time>2025-02-11T09:34:54Z</time>
      </trkpt>
      <trkpt lat="47.81791" lon="-2.40766">
        <ele>57.5</ele>
        <time>2025-02-11T09:34:55Z</time>
      </trkpt>
      <trkpt lat="47.81791" lon="-2.40767">
        <ele>57.4</ele>
        <time>2025-02-11T09:34:56Z</time>
      </trkpt>
      <trkpt lat="47.81792" lon="-2.40769">
        <ele>57.3</ele>
        <time>2025-02-11T09:34:57Z</time>
      </trkpt>
      <trkpt lat="47.81792" lon="-2.40771">
        <ele>57.2</ele>
        <time>2025-02-11T09:34:58Z</time>
      </trkpt>
      <trkpt lat="47.81792" lon="-2.40773">
        <ele>57.1</ele>
        <time>2025-02-11T09:34:59Z</time>
      </trkpt>
      <trkpt lat="47.81793" lon="-2.40775">
        <ele>57.1</ele>
        <time>2025-02-11T09:35:00Z</time>
      </trkpt>
      <trkpt lat="47.81793" lon="-2.40777">
        <ele>57</ele>
        <time>2025-02-11T09:35:01Z</time>
      </trkpt>
      <trkpt lat="47.81794" lon="-2.40778">
        <ele>56.8</ele>
        <time>2025-02-11T09:35:02Z</time>
      </trkpt>
      <trkpt lat="47.81794" lon="-2.4078">
        <ele>56.7</ele>
        <time>2025-02-11T09:35:03Z</time>
      </trkpt>
      <trkpt lat="47.81794" lon="-2.40781">
        <ele>56.5</ele>
        <time>2025-02-11T09:35:04Z</time>
      </trkpt>
      <trkpt lat="47.81795" lon="-2.40783">
        <ele>56.4</ele>
        <time>2025-02-11T09:35:05Z</time>
      </trkpt>
      <trkpt lat="47.81795" lon="-2.40785">
        <ele>56.2</ele>
        <time>2025-02-11T09:35:06Z</time>
      </trkpt>
      <trkpt lat="47.81796" lon="-2.40787">
        <ele>56.1</ele>
        <time>2025-02-11T09:35:07Z</time>
      </trkpt>
      <trkpt lat="47.81796" lon="-2.40789">
        <ele>55.9</ele>
        <time>2025-02-11T09:35:08Z</time>
      </trkpt>
      <trkpt lat="47.81797" lon="-2.4079">
        <ele>55.7</ele>
        <time>2025-02-11T09:35:09Z</time>
      </trkpt>
      <trkpt lat="47.81797" lon="-2.40792">
        <ele>55.6</ele>
        <time>2025-02-11T09:35:10Z</time>
      </trkpt>
      <trkpt lat="47.81797" lon="-2.40794">
        <ele>55.4</ele>
        <time>2025-02-11T09:35:11Z</time>
      </trkpt>
      <trkpt lat="47.81798" lon="-2.40795">
        <ele>55.3</ele>
        <time>2025-02-11T09:35:12Z</time>
      </trkpt>
      <trkpt lat="47.81799" lon="-2.40797">
        <ele>55.1</ele>
        <time>2025-02-11T09:35:13Z</time>
      </trkpt>
      <trkpt lat="47.818" lon="-2.40799">
        <ele>54.9</ele>
        <time>2025-02-11T09:35:14Z</time>
      </trkpt>
      <trkpt lat="47.818" lon="-2.408">
        <ele>54.8</ele>
        <time>2025-02-11T09:35:15Z</time>
      </trkpt>
      <trkpt lat="47.81801" lon="-2.40801">
        <ele>54.6</ele>
        <time>2025-02-11T09:35:16Z</time>
      </trkpt>
      <trkpt lat="47.81802" lon="-2.40803">
        <ele>54.5</ele>
        <time>2025-02-11T09:35:17Z</time>
      </trkpt>
      <trkpt lat="47.81802" lon="-2.40804">
        <ele>54.3</ele>
        <time>2025-02-11T09:35:18Z</time>
      </trkpt>
      <trkpt lat="47.81802" lon="-2.40806">
        <ele>54.2</ele>
        <time>2025-02-11T09:35:19Z</time>
      </trkpt>
      <trkpt lat="47.81803" lon="-2.40808">
        <ele>54</ele>
        <time>2025-02-11T09:35:20Z</time>
      </trkpt>
      <trkpt lat="47.81803" lon="-2.4081">
        <ele>53.7</ele>
        <time>2025-02-11T09:35:21Z</time>
      </trkpt>
      <trkpt lat="47.81804" lon="-2.40812">
        <ele>53.5</ele>
        <time>2025-02-11T09:35:22Z</time>
      </trkpt>
      <trkpt lat="47.81804" lon="-2.40813">
        <ele>53.3</ele>
        <time>2025-02-11T09:35:23Z</time>
      </trkpt>
      <trkpt lat="47.81805" lon="-2.40815">
        <ele>53.1</ele>
        <time>2025-02-11T09:35:24Z</time>
      </trkpt>
      <trkpt lat="47.81806" lon="-2.40816">
        <ele>52.9</ele>
        <time>2025-02-11T09:35:25Z</time>
      </trkpt>
      <trkpt lat="47.81806" lon="-2.40818">
        <ele>52.7</ele>
        <time>2025-02-11T09:35:26Z</time>
      </trkpt>
      <trkpt lat="47.81807" lon="-2.40819">
        <ele>52.5</ele>
        <time>2025-02-11T09:35:27Z</time>
      </trkpt>
      <trkpt lat="47.81807" lon="-2.40821">
        <ele>52.3</ele>
        <time>2025-02-11T09:35:28Z</time>
      </trkpt>
      <trkpt lat="47.81807" lon="-2.40822">
        <ele>52.1</ele>
        <time>2025-02-11T09:35:29Z</time>
      </trkpt>
      <trkpt lat="47.81808" lon="-2.40824">
        <ele>51.9</ele>
        <time>2025-02-11T09:35:30Z</time>
      </trkpt>
      <trkpt lat="47.81809" lon="-2.40826">
        <ele>51.7</ele>
        <time>2025-02-11T09:35:31Z</time>
      </trkpt>
      <trkpt lat="47.81809" lon="-2.40827">
        <ele>51.5</ele>
        <time>2025-02-11T09:35:32Z</time>
      </trkpt>
      <trkpt lat="47.8181" lon="-2.40829">
        <ele>51.3</ele>
        <time>2025-02-11T09:35:33Z</time>
      </trkpt>
      <trkpt lat="47.8181" lon="-2.40831">
        <ele>51.1</ele>
        <time>2025-02-11T09:35:34Z</time>
      </trkpt>
      <trkpt lat="47.81811" lon="-2.40832">
        <ele>50.9</ele>
        <time>2025-02-11T09:35:35Z</time>
      </trkpt>
      <trkpt lat="47.81811" lon="-2.40834">
        <ele>50.7</ele>
        <time>2025-02-11T09:35:36Z</time>
      </trkpt>
      <trkpt lat="47.81812" lon="-2.40836">
        <ele>50.6</ele>
        <time>2025-02-11T09:35:37Z</time>
      </trkpt>
      <trkpt lat="47.81812" lon="-2.40838">
        <ele>50.4</ele>
        <time>2025-02-11T09:35:38Z</time>
      </trkpt>
      <trkpt lat="47.81813" lon="-2.40839">
        <ele>50.2</ele>
        <time>2025-02-11T09:35:39Z</time>
      </trkpt>
      <trkpt lat="47.81814" lon="-2.40841">
        <ele>50.1</ele>
        <time>2025-02-11T09:35:40Z</time>
      </trkpt>
      <trkpt lat="47.81814" lon="-2.40843">
        <ele>49.9</ele>
        <time>2025-02-11T09:35:41Z</time>
      </trkpt>
      <trkpt lat="47.81815" lon="-2.40844">
        <ele>49.7</ele>
        <time>2025-02-11T09:35:42Z</time>
      </trkpt>
      <trkpt lat="47.81815" lon="-2.40846">
        <ele>49.6</ele>
        <time>2025-02-11T09:35:43Z</time>
      </trkpt>
      <trkpt lat="47.81816" lon="-2.40848">
        <ele>49.4</ele>
        <time>2025-02-11T09:35:44Z</time>
      </trkpt>
      <trkpt lat="47.81816" lon="-2.40849">
        <ele>49.2</ele>
        <time>2025-02-11T09:35:45Z</time>
      </trkpt>
      <trkpt lat="47.81817" lon="-2.40851">
        <ele>49.1</ele>
        <time>2025-02-11T09:35:46Z</time>
      </trkpt>
      <trkpt lat="47.81817" lon="-2.40853">
        <ele>48.9</ele>
        <time>2025-02-11T09:35:47Z</time>
      </trkpt>
      <trkpt lat="47.81817" lon="-2.40854">
        <ele>48.8</ele>
        <time>2025-02-11T09:35:48Z</time>
      </trkpt>
      <trkpt lat="47.81818" lon="-2.40856">
        <ele>48.6</ele>
        <time>2025-02-11T09:35:49Z</time>
      </trkpt>
      <trkpt lat="47.81818" lon="-2.40857">
        <ele>48.4</ele>
        <time>2025-02-11T09:35:50Z</time>
      </trkpt>
      <trkpt lat="47.81819" lon="-2.40859">
        <ele>48.3</ele>
        <time>2025-02-11T09:35:51Z</time>
      </trkpt>
      <trkpt lat="47.81819" lon="-2.4086">
        <ele>48.1</ele>
        <time>2025-02-11T09:35:52Z</time>
      </trkpt>
      <trkpt lat="47.8182" lon="-2.40862">
        <ele>47.9</ele>
        <time>2025-02-11T09:35:53Z</time>
      </trkpt>
      <trkpt lat="47.8182" lon="-2.40864">
        <ele>47.8</ele>
        <time>2025-02-11T09:35:54Z</time>
      </trkpt>
      <trkpt lat="47.81821" lon="-2.40866">
        <ele>47.6</ele>
        <time>2025-02-11T09:35:55Z</time>
      </trkpt>
      <trkpt lat="47.81821" lon="-2.40867">
        <ele>47.5</ele>
        <time>2025-02-11T09:35:56Z</time>
      </trkpt>
      <trkpt lat="47.81821" lon="-2.40869">
        <ele>47.3</ele>
        <time>2025-02-11T09:35:57Z</time>
      </trkpt>
      <trkpt lat="47.81822" lon="-2.40871">
        <ele>47.1</ele>
        <time>2025-02-11T09:35:58Z</time>
      </trkpt>
      <trkpt lat="47.81822" lon="-2.40872">
        <ele>47</ele>
        <time>2025-02-11T09:35:59Z</time>
      </trkpt>
      <trkpt lat="47.81823" lon="-2.40874">
        <ele>46.8</ele>
        <time>2025-02-11T09:36:00Z</time>
      </trkpt>
      <trkpt lat="47.81823" lon="-2.40876">
        <ele>46.7</ele>
        <time>2025-02-11T09:36:01Z</time>
      </trkpt>
      <trkpt lat="47.81823" lon="-2.40878">
        <ele>46.5</ele>
        <time>2025-02-11T09:36:02Z</time>
      </trkpt>
      <trkpt lat="47.81824" lon="-2.40879">
        <ele>46.4</ele>
        <time>2025-02-11T09:36:03Z</time>
      </trkpt>
      <trkpt lat="47.81824" lon="-2.40881">
        <ele>46.3</ele>
        <time>2025-02-11T09:36:04Z</time>
      </trkpt>
      <trkpt lat="47.81825" lon="-2.40882">
        <ele>46.1</ele>
        <time>2025-02-11T09:36:05Z</time>
      </trkpt>
      <trkpt lat="47.81826" lon="-2.40884">
        <ele>45.9</ele>
        <time>2025-02-11T09:36:06Z</time>
      </trkpt>
      <trkpt lat="47.81826" lon="-2.40885">
        <ele>45.8</ele>
        <time>2025-02-11T09:36:07Z</time>
      </trkpt>
      <trkpt lat="47.81827" lon="-2.40887">
        <ele>45.6</ele>
        <time>2025-02-11T09:36:08Z</time>
      </trkpt>
      <trkpt lat="47.81827" lon="-2.40888">
        <ele>45.5</ele>
        <time>2025-02-11T09:36:09Z</time>
      </trkpt>
      <trkpt lat="47.81828" lon="-2.4089">
        <ele>45.4</ele>
        <time>2025-02-11T09:36:10Z</time>
      </trkpt>
      <trkpt lat="47.81828" lon="-2.40892">
        <ele>45.3</ele>
        <time>2025-02-11T09:36:11Z</time>
      </trkpt>
      <trkpt lat="47.81828" lon="-2.40894">
        <ele>45.2</ele>
        <time>2025-02-11T09:36:12Z</time>
      </trkpt>
      <trkpt lat="47.81829" lon="-2.40895">
        <ele>45.1</ele>
        <time>2025-02-11T09:36:13Z</time>
      </trkpt>
      <trkpt lat="47.81829" lon="-2.40897">
        <ele>45</ele>
        <time>2025-02-11T09:36:14Z</time>
      </trkpt>
      <trkpt lat="47.8183" lon="-2.40898">
        <ele>44.9</ele>
        <time>2025-02-11T09:36:15Z</time>
      </trkpt>
      <trkpt lat="47.8183" lon="-2.409">
        <ele>44.8</ele>
        <time>2025-02-11T09:36:16Z</time>
      </trkpt>
      <trkpt lat="47.81831" lon="-2.40902">
        <ele>44.7</ele>
        <time>2025-02-11T09:36:17Z</time>
      </trkpt>
      <trkpt lat="47.81831" lon="-2.40904">
        <ele>44.6</ele>
        <time>2025-02-11T09:36:18Z</time>
      </trkpt>
      <trkpt lat="47.81832" lon="-2.40905">
        <ele>44.5</ele>
        <time>2025-02-11T09:36:19Z</time>
      </trkpt>
      <trkpt lat="47.81832" lon="-2.40907">
        <ele>44.4</ele>
        <time>2025-02-11T09:36:20Z</time>
      </trkpt>
      <trkpt lat="47.81833" lon="-2.40909">
        <ele>44.3</ele>
        <time>2025-02-11T09:36:21Z</time>
      </trkpt>
      <trkpt lat="47.81833" lon="-2.40911">
        <ele>44.3</ele>
        <time>2025-02-11T09:36:22Z</time>
      </trkpt>
      <trkpt lat="47.81833" lon="-2.40912">
        <ele>44.2</ele>
        <time>2025-02-11T09:36:23Z</time>
      </trkpt>
      <trkpt lat="47.81834" lon="-2.40914">
        <ele>44.1</ele>
        <time>2025-02-11T09:36:24Z</time>
      </trkpt>
      <trkpt lat="47.81834" lon="-2.40915">
        <ele>44</ele>
        <time>2025-02-11T09:36:25Z</time>
      </trkpt>
      <trkpt lat="47.81835" lon="-2.40917">
        <ele>44</ele>
        <time>2025-02-11T09:36:26Z</time>
      </trkpt>
      <trkpt lat="47.81835" lon="-2.40918">
        <ele>43.9</ele>
        <time>2025-02-11T09:36:27Z</time>
      </trkpt>
      <trkpt lat="47.81836" lon="-2.4092">
        <ele>43.8</ele>
        <time>2025-02-11T09:36:28Z</time>
      </trkpt>
      <trkpt lat="47.81836" lon="-2.40922">
        <ele>43.7</ele>
        <time>2025-02-11T09:36:29Z</time>
      </trkpt>
      <trkpt lat="47.81836" lon="-2.40923">
        <ele>43.7</ele>
        <time>2025-02-11T09:36:30Z</time>
      </trkpt>
      <trkpt lat="47.81837" lon="-2.40925">
        <ele>43.6</ele>
        <time>2025-02-11T09:36:31Z</time>
      </trkpt>
      <trkpt lat="47.81837" lon="-2.40927">
        <ele>43.5</ele>
        <time>2025-02-11T09:36:32Z</time>
      </trkpt>
      <trkpt lat="47.81838" lon="-2.40928">
        <ele>43.4</ele>
        <time>2025-02-11T09:36:33Z</time>
      </trkpt>
      <trkpt lat="47.81838" lon="-2.4093">
        <ele>43.3</ele>
        <time>2025-02-11T09:36:34Z</time>
      </trkpt>
      <trkpt lat="47.81839" lon="-2.40932">
        <ele>43.3</ele>
        <time>2025-02-11T09:36:35Z</time>
      </trkpt>
      <trkpt lat="47.81839" lon="-2.40933">
        <ele>43.2</ele>
        <time>2025-02-11T09:36:36Z</time>
      </trkpt>
      <trkpt lat="47.8184" lon="-2.40935">
        <ele>43.1</ele>
        <time>2025-02-11T09:36:37Z</time>
      </trkpt>
      <trkpt lat="47.8184" lon="-2.40937">
        <ele>43</ele>
        <time>2025-02-11T09:36:38Z</time>
      </trkpt>
      <trkpt lat="47.81841" lon="-2.40939">
        <ele>42.9</ele>
        <time>2025-02-11T09:36:39Z</time>
      </trkpt>
      <trkpt lat="47.81842" lon="-2.4094">
        <ele>42.8</ele>
        <time>2025-02-11T09:36:40Z</time>
      </trkpt>
      <trkpt lat="47.81842" lon="-2.40942">
        <ele>42.8</ele>
        <time>2025-02-11T09:36:41Z</time>
      </trkpt>
      <trkpt lat="47.81843" lon="-2.40944">
        <ele>42.7</ele>
        <time>2025-02-11T09:36:42Z</time>
      </trkpt>
      <trkpt lat="47.81843" lon="-2.40946">
        <ele>42.6</ele>
        <time>2025-02-11T09:36:43Z</time>
      </trkpt>
      <trkpt lat="47.81843" lon="-2.40947">
        <ele>42.5</ele>
        <time>2025-02-11T09:36:44Z</time>
      </trkpt>
      <trkpt lat="47.81843" lon="-2.40949">
        <ele>42.5</ele>
        <time>2025-02-11T09:36:45Z</time>
      </trkpt>
      <trkpt lat="47.81844" lon="-2.40951">
        <ele>42.4</ele>
        <time>2025-02-11T09:36:46Z</time>
      </trkpt>
      <trkpt lat="47.81844" lon="-2.40953">
        <ele>42.3</ele>
        <time>2025-02-11T09:36:47Z</time>
      </trkpt>
      <trkpt lat="47.81845" lon="-2.40954">
        <ele>42.2</ele>
        <time>2025-02-11T09:36:48Z</time>
      </trkpt>
      <trkpt lat="47.81845" lon="-2.40956">
        <ele>42.2</ele>
        <time>2025-02-11T09:36:49Z</time>
      </trkpt>
      <trkpt lat="47.81846" lon="-2.40958">
        <ele>42.1</ele>
        <time>2025-02-11T09:36:50Z</time>
      </trkpt>
      <trkpt lat="47.81846" lon="-2.4096">
        <ele>42</ele>
        <time>2025-02-11T09:36:51Z</time>
      </trkpt>
      <trkpt lat="47.81846" lon="-2.40962">
        <ele>41.9</ele>
        <time>2025-02-11T09:36:52Z</time>
      </trkpt>
      <trkpt lat="47.81846" lon="-2.40964">
        <ele>41.8</ele>
        <time>2025-02-11T09:36:53Z</time>
      </trkpt>
      <trkpt lat="47.81847" lon="-2.40966">
        <ele>41.8</ele>
        <time>2025-02-11T09:36:54Z</time>
      </trkpt>
      <trkpt lat="47.81847" lon="-2.40967">
        <ele>41.7</ele>
        <time>2025-02-11T09:36:55Z</time>
      </trkpt>
      <trkpt lat="47.81847" lon="-2.40969">
        <ele>41.6</ele>
        <time>2025-02-11T09:36:56Z</time>
      </trkpt>
      <trkpt lat="47.81848" lon="-2.40971">
        <ele>41.5</ele>
        <time>2025-02-11T09:36:57Z</time>
      </trkpt>
      <trkpt lat="47.81848" lon="-2.40973">
        <ele>41.5</ele>
        <time>2025-02-11T09:36:58Z</time>
      </trkpt>
      <trkpt lat="47.81848" lon="-2.40974">
        <ele>41.4</ele>
        <time>2025-02-11T09:36:59Z</time>
      </trkpt>
      <trkpt lat="47.81849" lon="-2.40976">
        <ele>41.4</ele>
        <time>2025-02-11T09:37:00Z</time>
      </trkpt>
      <trkpt lat="47.81849" lon="-2.40978">
        <ele>41.3</ele>
        <time>2025-02-11T09:37:01Z</time>
      </trkpt>
      <trkpt lat="47.8185" lon="-2.40979">
        <ele>41.3</ele>
        <time>2025-02-11T09:37:02Z</time>
      </trkpt>
      <trkpt lat="47.8185" lon="-2.40981">
        <ele>41.2</ele>
        <time>2025-02-11T09:37:03Z</time>
      </trkpt>
      <trkpt lat="47.8185" lon="-2.40983">
        <ele>41.1</ele>
        <time>2025-02-11T09:37:04Z</time>
      </trkpt>
      <trkpt lat="47.81851" lon="-2.40985">
        <ele>41.1</ele>
        <time>2025-02-11T09:37:05Z</time>
      </trkpt>
      <trkpt lat="47.81851" lon="-2.40987">
        <ele>41</ele>
        <time>2025-02-11T09:37:06Z</time>
      </trkpt>
      <trkpt lat="47.81852" lon="-2.40989">
        <ele>40.9</ele>
        <time>2025-02-11T09:37:07Z</time>
      </trkpt>
      <trkpt lat="47.81852" lon="-2.40991">
        <ele>40.9</ele>
        <time>2025-02-11T09:37:08Z</time>
      </trkpt>
      <trkpt lat="47.81852" lon="-2.40992">
        <ele>40.8</ele>
        <time>2025-02-11T09:37:09Z</time>
      </trkpt>
      <trkpt lat="47.81853" lon="-2.40994">
        <ele>40.8</ele>
        <time>2025-02-11T09:37:10Z</time>
      </trkpt>
      <trkpt lat="47.81853" lon="-2.40996">
        <ele>40.7</ele>
        <time>2025-02-11T09:37:11Z</time>
      </trkpt>
      <trkpt lat="47.81853" lon="-2.40998">
        <ele>40.6</ele>
        <time>2025-02-11T09:37:12Z</time>
      </trkpt>
      <trkpt lat="47.81854" lon="-2.41">
        <ele>40.5</ele>
        <time>2025-02-11T09:37:13Z</time>
      </trkpt>
      <trkpt lat="47.81854" lon="-2.41002">
        <ele>40.5</ele>
        <time>2025-02-11T09:37:14Z</time>
      </trkpt>
      <trkpt lat="47.81855" lon="-2.41003">
        <ele>40.4</ele>
        <time>2025-02-11T09:37:15Z</time>
      </trkpt>
      <trkpt lat="47.81855" lon="-2.41005">
        <ele>40.3</ele>
        <time>2025-02-11T09:37:16Z</time>
      </trkpt>
      <trkpt lat="47.81855" lon="-2.41007">
        <ele>40.2</ele>
        <time>2025-02-11T09:37:17Z</time>
      </trkpt>
      <trkpt lat="47.81856" lon="-2.41009">
        <ele>40.1</ele>
        <time>2025-02-11T09:37:18Z</time>
      </trkpt>
      <trkpt lat="47.81856" lon="-2.41011">
        <ele>40</ele>
        <time>2025-02-11T09:37:19Z</time>
      </trkpt>
      <trkpt lat="47.81856" lon="-2.41012">
        <ele>39.9</ele>
        <time>2025-02-11T09:37:20Z</time>
      </trkpt>
      <trkpt lat="47.81857" lon="-2.41014">
        <ele>39.8</ele>
        <time>2025-02-11T09:37:21Z</time>
      </trkpt>
      <trkpt lat="47.81857" lon="-2.41016">
        <ele>39.7</ele>
        <time>2025-02-11T09:37:22Z</time>
      </trkpt>
      <trkpt lat="47.81857" lon="-2.41018">
        <ele>39.7</ele>
        <time>2025-02-11T09:37:23Z</time>
      </trkpt>
      <trkpt lat="47.81858" lon="-2.41019">
        <ele>39.5</ele>
        <time>2025-02-11T09:37:24Z</time>
      </trkpt>
      <trkpt lat="47.81859" lon="-2.41021">
        <ele>39.4</ele>
        <time>2025-02-11T09:37:25Z</time>
      </trkpt>
      <trkpt lat="47.81859" lon="-2.41023">
        <ele>39.3</ele>
        <time>2025-02-11T09:37:26Z</time>
      </trkpt>
      <trkpt lat="47.8186" lon="-2.41024">
        <ele>39.2</ele>
        <time>2025-02-11T09:37:27Z</time>
      </trkpt>
      <trkpt lat="47.8186" lon="-2.41026">
        <ele>39.1</ele>
        <time>2025-02-11T09:37:28Z</time>
      </trkpt>
      <trkpt lat="47.8186" lon="-2.41028">
        <ele>39.1</ele>
        <time>2025-02-11T09:37:29Z</time>
      </trkpt>
      <trkpt lat="47.8186" lon="-2.4103">
        <ele>39.1</ele>
        <time>2025-02-11T09:37:30Z</time>
      </trkpt>
      <trkpt lat="47.8186" lon="-2.41032">
        <ele>39.1</ele>
        <time>2025-02-11T09:37:31Z</time>
      </trkpt>
      <trkpt lat="47.8186" lon="-2.41034">
        <ele>39</ele>
        <time>2025-02-11T09:37:32Z</time>
      </trkpt>
      <trkpt lat="47.81861" lon="-2.41036">
        <ele>39</ele>
        <time>2025-02-11T09:37:33Z</time>
      </trkpt>
      <trkpt lat="47.81861" lon="-2.41038">
        <ele>39</ele>
        <time>2025-02-11T09:37:34Z</time>
      </trkpt>
      <trkpt lat="47.81861" lon="-2.4104">
        <ele>39</ele>
        <time>2025-02-11T09:37:35Z</time>
      </trkpt>
      <trkpt lat="47.81862" lon="-2.41041">
        <ele>39</ele>
        <time>2025-02-11T09:37:36Z</time>
      </trkpt>
      <trkpt lat="47.81862" lon="-2.41043">
        <ele>39</ele>
        <time>2025-02-11T09:37:37Z</time>
      </trkpt>
      <trkpt lat="47.81863" lon="-2.41044">
        <ele>38.9</ele>
        <time>2025-02-11T09:37:38Z</time>
      </trkpt>
      <trkpt lat="47.81863" lon="-2.41046">
        <ele>38.9</ele>
        <time>2025-02-11T09:37:39Z</time>
      </trkpt>
      <trkpt lat="47.81863" lon="-2.41048">
        <ele>38.9</ele>
        <time>2025-02-11T09:37:40Z</time>
      </trkpt>
      <trkpt lat="47.81864" lon="-2.4105">
        <ele>38.9</ele>
        <time>2025-02-11T09:37:41Z</time>
      </trkpt>
      <trkpt lat="47.81864" lon="-2.41052">
        <ele>38.9</ele>
        <time>2025-02-11T09:37:42Z</time>
      </trkpt>
      <trkpt lat="47.81864" lon="-2.41054">
        <ele>38.9</ele>
        <time>2025-02-11T09:37:43Z</time>
      </trkpt>
      <trkpt lat="47.81864" lon="-2.41056">
        <ele>38.9</ele>
        <time>2025-02-11T09:37:44Z</time>
      </trkpt>
      <trkpt lat="47.81864" lon="-2.41057">
        <ele>38.8</ele>
        <time>2025-02-11T09:37:45Z</time>
      </trkpt>
      <trkpt lat="47.81865" lon="-2.41059">
        <ele>38.8</ele>
        <time>2025-02-11T09:37:46Z</time>
      </trkpt>
      <trkpt lat="47.81866" lon="-2.4106">
        <ele>38.7</ele>
        <time>2025-02-11T09:37:47Z</time>
      </trkpt>
      <trkpt lat="47.81866" lon="-2.41062">
        <ele>38.6</ele>
        <time>2025-02-11T09:37:48Z</time>
      </trkpt>
      <trkpt lat="47.81866" lon="-2.41064">
        <ele>38.5</ele>
        <time>2025-02-11T09:37:49Z</time>
      </trkpt>
      <trkpt lat="47.81867" lon="-2.41066">
        <ele>38.4</ele>
        <time>2025-02-11T09:37:50Z</time>
      </trkpt>
      <trkpt lat="47.81867" lon="-2.41068">
        <ele>38.3</ele>
        <time>2025-02-11T09:37:51Z</time>
      </trkpt>
      <trkpt lat="47.81867" lon="-2.4107">
        <ele>38.3</ele>
        <time>2025-02-11T09:37:52Z</time>
      </trkpt>
      <trkpt lat="47.81868" lon="-2.41072">
        <ele>38.2</ele>
        <time>2025-02-11T09:37:53Z</time>
      </trkpt>
      <trkpt lat="47.81868" lon="-2.41074">
        <ele>38.1</ele>
        <time>2025-02-11T09:37:54Z</time>
      </trkpt>
      <trkpt lat="47.81868" lon="-2.41076">
        <ele>38</ele>
        <time>2025-02-11T09:37:55Z</time>
      </trkpt>
      <trkpt lat="47.81868" lon="-2.41078">
        <ele>37.9</ele>
        <time>2025-02-11T09:37:56Z</time>
      </trkpt>
      <trkpt lat="47.81869" lon="-2.4108">
        <ele>37.9</ele>
        <time>2025-02-11T09:37:57Z</time>
      </trkpt>
      <trkpt lat="47.81869" lon="-2.41081">
        <ele>37.8</ele>
        <time>2025-02-11T09:37:58Z</time>
      </trkpt>
      <trkpt lat="47.8187" lon="-2.41083">
        <ele>37.7</ele>
        <time>2025-02-11T09:37:59Z</time>
      </trkpt>
      <trkpt lat="47.8187" lon="-2.41085">
        <ele>37.7</ele>
        <time>2025-02-11T09:38:00Z</time>
      </trkpt>
      <trkpt lat="47.81871" lon="-2.41087">
        <ele>37.7</ele>
        <time>2025-02-11T09:38:01Z</time>
      </trkpt>
      <trkpt lat="47.81871" lon="-2.41089">
        <ele>37.6</ele>
        <time>2025-02-11T09:38:02Z</time>
      </trkpt>
      <trkpt lat="47.81871" lon="-2.4109">
        <ele>37.6</ele>
        <time>2025-02-11T09:38:03Z</time>
      </trkpt>
      <trkpt lat="47.81871" lon="-2.41092">
        <ele>37.6</ele>
        <time>2025-02-11T09:38:04Z</time>
      </trkpt>
      <trkpt lat="47.81871" lon="-2.41094">
        <ele>37.6</ele>
        <time>2025-02-11T09:38:05Z</time>
      </trkpt>
      <trkpt lat="47.81872" lon="-2.41096">
        <ele>37.6</ele>
        <time>2025-02-11T09:38:06Z</time>
      </trkpt>
      <trkpt lat="47.81872" lon="-2.41098">
        <ele>37.6</ele>
        <time>2025-02-11T09:38:07Z</time>
      </trkpt>
      <trkpt lat="47.81872" lon="-2.411">
        <ele>37.6</ele>
        <time>2025-02-11T09:38:08Z</time>
      </trkpt>
      <trkpt lat="47.81873" lon="-2.41102">
        <ele>37.6</ele>
        <time>2025-02-11T09:38:09Z</time>
      </trkpt>
      <trkpt lat="47.81873" lon="-2.41104">
        <ele>37.6</ele>
        <time>2025-02-11T09:38:10Z</time>
      </trkpt>
      <trkpt lat="47.81874" lon="-2.41105">
        <ele>37.6</ele>
        <time>2025-02-11T09:38:11Z</time>
      </trkpt>
      <trkpt lat="47.81874" lon="-2.41107">
        <ele>37.5</ele>
        <time>2025-02-11T09:38:12Z</time>
      </trkpt>
      <trkpt lat="47.81874" lon="-2.41109">
        <ele>37.5</ele>
        <time>2025-02-11T09:38:13Z</time>
      </trkpt>
      <trkpt lat="47.81875" lon="-2.41111">
        <ele>37.5</ele>
        <time>2025-02-11T09:38:14Z</time>
      </trkpt>
      <trkpt lat="47.81875" lon="-2.41113">
        <ele>37.4</ele>
        <time>2025-02-11T09:38:15Z</time>
      </trkpt>
      <trkpt lat="47.81876" lon="-2.41115">
        <ele>37.4</ele>
        <time>2025-02-11T09:38:16Z</time>
      </trkpt>
      <trkpt lat="47.81876" lon="-2.41116">
        <ele>37.3</ele>
        <time>2025-02-11T09:38:17Z</time>
      </trkpt>
      <trkpt lat="47.81876" lon="-2.41118">
        <ele>37.2</ele>
        <time>2025-02-11T09:38:18Z</time>
      </trkpt>
      <trkpt lat="47.81876" lon="-2.4112">
        <ele>37.1</ele>
        <time>2025-02-11T09:38:19Z</time>
      </trkpt>
      <trkpt lat="47.81876" lon="-2.41122">
        <ele>37.1</ele>
        <time>2025-02-11T09:38:20Z</time>
      </trkpt>
      <trkpt lat="47.81877" lon="-2.41124">
        <ele>37</ele>
        <time>2025-02-11T09:38:21Z</time>
      </trkpt>
      <trkpt lat="47.81878" lon="-2.41126">
        <ele>36.9</ele>
        <time>2025-02-11T09:38:22Z</time>
      </trkpt>
      <trkpt lat="47.81878" lon="-2.41128">
        <ele>36.8</ele>
        <time>2025-02-11T09:38:23Z</time>
      </trkpt>
      <trkpt lat="47.81879" lon="-2.41129">
        <ele>36.7</ele>
        <time>2025-02-11T09:38:24Z</time>
      </trkpt>
      <trkpt lat="47.81879" lon="-2.41131">
        <ele>36.6</ele>
        <time>2025-02-11T09:38:25Z</time>
      </trkpt>
      <trkpt lat="47.8188" lon="-2.41133">
        <ele>36.5</ele>
        <time>2025-02-11T09:38:26Z</time>
      </trkpt>
      <trkpt lat="47.8188" lon="-2.41135">
        <ele>36.5</ele>
        <time>2025-02-11T09:38:27Z</time>
      </trkpt>
      <trkpt lat="47.8188" lon="-2.41137">
        <ele>36.4</ele>
        <time>2025-02-11T09:38:28Z</time>
      </trkpt>
      <trkpt lat="47.81881" lon="-2.41139">
        <ele>36.3</ele>
        <time>2025-02-11T09:38:29Z</time>
      </trkpt>
      <trkpt lat="47.81881" lon="-2.41141">
        <ele>36.2</ele>
        <time>2025-02-11T09:38:30Z</time>
      </trkpt>
      <trkpt lat="47.81881" lon="-2.41143">
        <ele>36.2</ele>
        <time>2025-02-11T09:38:31Z</time>
      </trkpt>
      <trkpt lat="47.81882" lon="-2.41144">
        <ele>36.1</ele>
        <time>2025-02-11T09:38:32Z</time>
      </trkpt>
      <trkpt lat="47.81882" lon="-2.41146">
        <ele>36.1</ele>
        <time>2025-02-11T09:38:33Z</time>
      </trkpt>
      <trkpt lat="47.81882" lon="-2.41148">
        <ele>36</ele>
        <time>2025-02-11T09:38:34Z</time>
      </trkpt>
      <trkpt lat="47.81883" lon="-2.4115">
        <ele>35.9</ele>
        <time>2025-02-11T09:38:35Z</time>
      </trkpt>
      <trkpt lat="47.81883" lon="-2.41152">
        <ele>35.8</ele>
        <time>2025-02-11T09:38:36Z</time>
      </trkpt>
      <trkpt lat="47.81884" lon="-2.41154">
        <ele>35.8</ele>
        <time>2025-02-11T09:38:37Z</time>
      </trkpt>
      <trkpt lat="47.81884" lon="-2.41155">
        <ele>35.7</ele>
        <time>2025-02-11T09:38:38Z</time>
      </trkpt>
      <trkpt lat="47.81884" lon="-2.41157">
        <ele>35.6</ele>
        <time>2025-02-11T09:38:39Z</time>
      </trkpt>
      <trkpt lat="47.81884" lon="-2.41159">
        <ele>35.6</ele>
        <time>2025-02-11T09:38:40Z</time>
      </trkpt>
      <trkpt lat="47.81885" lon="-2.41161">
        <ele>35.5</ele>
        <time>2025-02-11T09:38:41Z</time>
      </trkpt>
      <trkpt lat="47.81885" lon="-2.41163">
        <ele>35.4</ele>
        <time>2025-02-11T09:38:42Z</time>
      </trkpt>
      <trkpt lat="47.81886" lon="-2.41165">
        <ele>35.3</ele>
        <time>2025-02-11T09:38:43Z</time>
      </trkpt>
      <trkpt lat="47.81886" lon="-2.41167">
        <ele>35.2</ele>
        <time>2025-02-11T09:38:44Z</time>
      </trkpt>
      <trkpt lat="47.81886" lon="-2.41169">
        <ele>35.2</ele>
        <time>2025-02-11T09:38:45Z</time>
      </trkpt>
      <trkpt lat="47.81886" lon="-2.41171">
        <ele>35.2</ele>
        <time>2025-02-11T09:38:46Z</time>
      </trkpt>
      <trkpt lat="47.81887" lon="-2.41172">
        <ele>35.1</ele>
        <time>2025-02-11T09:38:47Z</time>
      </trkpt>
      <trkpt lat="47.81887" lon="-2.41174">
        <ele>35.1</ele>
        <time>2025-02-11T09:38:48Z</time>
      </trkpt>
      <trkpt lat="47.81888" lon="-2.41176">
        <ele>35.1</ele>
        <time>2025-02-11T09:38:49Z</time>
      </trkpt>
      <trkpt lat="47.81888" lon="-2.41178">
        <ele>35.1</ele>
        <time>2025-02-11T09:38:50Z</time>
      </trkpt>
      <trkpt lat="47.81888" lon="-2.4118">
        <ele>35.1</ele>
        <time>2025-02-11T09:38:51Z</time>
      </trkpt>
      <trkpt lat="47.81888" lon="-2.41182">
        <ele>35</ele>
        <time>2025-02-11T09:38:52Z</time>
      </trkpt>
      <trkpt lat="47.81888" lon="-2.41183">
        <ele>35</ele>
        <time>2025-02-11T09:38:53Z</time>
      </trkpt>
      <trkpt lat="47.81889" lon="-2.41185">
        <ele>35</ele>
        <time>2025-02-11T09:38:54Z</time>
      </trkpt>
      <trkpt lat="47.81889" lon="-2.41187">
        <ele>35</ele>
        <time>2025-02-11T09:38:55Z</time>
      </trkpt>
      <trkpt lat="47.81889" lon="-2.41189">
        <ele>35</ele>
        <time>2025-02-11T09:38:56Z</time>
      </trkpt>
      <trkpt lat="47.8189" lon="-2.4119">
        <ele>35</ele>
        <time>2025-02-11T09:38:57Z</time>
      </trkpt>
      <trkpt lat="47.81891" lon="-2.41192">
        <ele>34.9</ele>
        <time>2025-02-11T09:38:58Z</time>
      </trkpt>
      <trkpt lat="47.81891" lon="-2.41194">
        <ele>34.9</ele>
        <time>2025-02-11T09:38:59Z</time>
      </trkpt>
      <trkpt lat="47.81891" lon="-2.41196">
        <ele>34.9</ele>
        <time>2025-02-11T09:39:00Z</time>
      </trkpt>
      <trkpt lat="47.81892" lon="-2.41197">
        <ele>34.9</ele>
        <time>2025-02-11T09:39:01Z</time>
      </trkpt>
      <trkpt lat="47.81892" lon="-2.41199">
        <ele>34.9</ele>
        <time>2025-02-11T09:39:02Z</time>
      </trkpt>
      <trkpt lat="47.81892" lon="-2.41201">
        <ele>34.9</ele>
        <time>2025-02-11T09:39:03Z</time>
      </trkpt>
      <trkpt lat="47.81892" lon="-2.41203">
        <ele>34.9</ele>
        <time>2025-02-11T09:39:04Z</time>
      </trkpt>
      <trkpt lat="47.81892" lon="-2.41205">
        <ele>34.9</ele>
        <time>2025-02-11T09:39:05Z</time>
      </trkpt>
      <trkpt lat="47.81893" lon="-2.41206">
        <ele>34.9</ele>
        <time>2025-02-11T09:39:06Z</time>
      </trkpt>
      <trkpt lat="47.81893" lon="-2.41208">
        <ele>34.8</ele>
        <time>2025-02-11T09:39:07Z</time>
      </trkpt>
      <trkpt lat="47.81894" lon="-2.4121">
        <ele>34.8</ele>
        <time>2025-02-11T09:39:08Z</time>
      </trkpt>
      <trkpt lat="47.81894" lon="-2.41212">
        <ele>34.8</ele>
        <time>2025-02-11T09:39:09Z</time>
      </trkpt>
      <trkpt lat="47.81894" lon="-2.41213">
        <ele>34.8</ele>
        <time>2025-02-11T09:39:10Z</time>
      </trkpt>
      <trkpt lat="47.81894" lon="-2.41215">
        <ele>34.8</ele>
        <time>2025-02-11T09:39:11Z</time>
      </trkpt>
      <trkpt lat="47.81895" lon="-2.41217">
        <ele>34.8</ele>
        <time>2025-02-11T09:39:12Z</time>
      </trkpt>
      <trkpt lat="47.81895" lon="-2.41219">
        <ele>34.8</ele>
        <time>2025-02-11T09:39:13Z</time>
      </trkpt>
      <trkpt lat="47.81895" lon="-2.41221">
        <ele>34.8</ele>
        <time>2025-02-11T09:39:14Z</time>
      </trkpt>
      <trkpt lat="47.81896" lon="-2.41222">
        <ele>34.8</ele>
        <time>2025-02-11T09:39:15Z</time>
      </trkpt>
      <trkpt lat="47.81896" lon="-2.41224">
        <ele>34.8</ele>
        <time>2025-02-11T09:39:16Z</time>
      </trkpt>
      <trkpt lat="47.81897" lon="-2.41226">
        <ele>34.8</ele>
        <time>2025-02-11T09:39:17Z</time>
      </trkpt>
      <trkpt lat="47.81897" lon="-2.41227">
        <ele>34.9</ele>
        <time>2025-02-11T09:39:18Z</time>
      </trkpt>
      <trkpt lat="47.81898" lon="-2.41229">
        <ele>34.9</ele>
        <time>2025-02-11T09:39:19Z</time>
      </trkpt>
      <trkpt lat="47.81898" lon="-2.41231">
        <ele>35</ele>
        <time>2025-02-11T09:39:20Z</time>
      </trkpt>
      <trkpt lat="47.81898" lon="-2.41233">
        <ele>35</ele>
        <time>2025-02-11T09:39:21Z</time>
      </trkpt>
      <trkpt lat="47.81899" lon="-2.41234">
        <ele>35.1</ele>
        <time>2025-02-11T09:39:22Z</time>
      </trkpt>
      <trkpt lat="47.81899" lon="-2.41236">
        <ele>35.2</ele>
        <time>2025-02-11T09:39:23Z</time>
      </trkpt>
      <trkpt lat="47.81899" lon="-2.41238">
        <ele>35.2</ele>
        <time>2025-02-11T09:39:24Z</time>
      </trkpt>
      <trkpt lat="47.81899" lon="-2.4124">
        <ele>35.3</ele>
        <time>2025-02-11T09:39:25Z</time>
      </trkpt>
      <trkpt lat="47.819" lon="-2.41242">
        <ele>35.3</ele>
        <time>2025-02-11T09:39:26Z</time>
      </trkpt>
      <trkpt lat="47.819" lon="-2.41243">
        <ele>35.4</ele>
        <time>2025-02-11T09:39:27Z</time>
      </trkpt>
      <trkpt lat="47.81901" lon="-2.41245">
        <ele>35.4</ele>
        <time>2025-02-11T09:39:28Z</time>
      </trkpt>
      <trkpt lat="47.81901" lon="-2.41247">
        <ele>35.4</ele>
        <time>2025-02-11T09:39:29Z</time>
      </trkpt>
      <trkpt lat="47.81901" lon="-2.41249">
        <ele>35.5</ele>
        <time>2025-02-11T09:39:30Z</time>
      </trkpt>
      <trkpt lat="47.81902" lon="-2.41251">
        <ele>35.5</ele>
        <time>2025-02-11T09:39:31Z</time>
      </trkpt>
      <trkpt lat="47.81902" lon="-2.41252">
        <ele>35.5</ele>
        <time>2025-02-11T09:39:32Z</time>
      </trkpt>
      <trkpt lat="47.81902" lon="-2.41254">
        <ele>35.5</ele>
        <time>2025-02-11T09:39:33Z</time>
      </trkpt>
      <trkpt lat="47.81903" lon="-2.41256">
        <ele>35.5</ele>
        <time>2025-02-11T09:39:34Z</time>
      </trkpt>
      <trkpt lat="47.81903" lon="-2.41258">
        <ele>35.5</ele>
        <time>2025-02-11T09:39:35Z</time>
      </trkpt>
      <trkpt lat="47.81903" lon="-2.4126">
        <ele>35.5</ele>
        <time>2025-02-11T09:39:36Z</time>
      </trkpt>
      <trkpt lat="47.81903" lon="-2.41261">
        <ele>35.5</ele>
        <time>2025-02-11T09:39:37Z</time>
      </trkpt>
      <trkpt lat="47.81904" lon="-2.41263">
        <ele>35.5</ele>
        <time>2025-02-11T09:39:38Z</time>
      </trkpt>
      <trkpt lat="47.81904" lon="-2.41265">
        <ele>35.5</ele>
        <time>2025-02-11T09:39:39Z</time>
      </trkpt>
      <trkpt lat="47.81904" lon="-2.41267">
        <ele>35.5</ele>
        <time>2025-02-11T09:39:40Z</time>
      </trkpt>
      <trkpt lat="47.81904" lon="-2.41269">
        <ele>35.5</ele>
        <time>2025-02-11T09:39:41Z</time>
      </trkpt>
      <trkpt lat="47.81904" lon="-2.41271">
        <ele>35.4</ele>
        <time>2025-02-11T09:39:42Z</time>
      </trkpt>
      <trkpt lat="47.81905" lon="-2.41273">
        <ele>35.4</ele>
        <time>2025-02-11T09:39:43Z</time>
      </trkpt>
      <trkpt lat="47.81904" lon="-2.41275">
        <ele>35.4</ele>
        <time>2025-02-11T09:39:44Z</time>
      </trkpt>
      <trkpt lat="47.81905" lon="-2.41276">
        <ele>35.4</ele>
        <time>2025-02-11T09:39:45Z</time>
      </trkpt>
      <trkpt lat="47.81906" lon="-2.41278">
        <ele>35.4</ele>
        <time>2025-02-11T09:39:46Z</time>
      </trkpt>
      <trkpt lat="47.81906" lon="-2.4128">
        <ele>35.4</ele>
        <time>2025-02-11T09:39:47Z</time>
      </trkpt>
      <trkpt lat="47.81907" lon="-2.41281">
        <ele>35.4</ele>
        <time>2025-02-11T09:39:48Z</time>
      </trkpt>
      <trkpt lat="47.81907" lon="-2.41283">
        <ele>35.3</ele>
        <time>2025-02-11T09:39:49Z</time>
      </trkpt>
      <trkpt lat="47.81907" lon="-2.41285">
        <ele>35.3</ele>
        <time>2025-02-11T09:39:50Z</time>
      </trkpt>
      <trkpt lat="47.81908" lon="-2.41287">
        <ele>35.3</ele>
        <time>2025-02-11T09:39:51Z</time>
      </trkpt>
      <trkpt lat="47.81908" lon="-2.41288">
        <ele>35.3</ele>
        <time>2025-02-11T09:39:52Z</time>
      </trkpt>
      <trkpt lat="47.81908" lon="-2.4129">
        <ele>35.3</ele>
        <time>2025-02-11T09:39:53Z</time>
      </trkpt>
      <trkpt lat="47.81908" lon="-2.41292">
        <ele>35.3</ele>
        <time>2025-02-11T09:39:54Z</time>
      </trkpt>
      <trkpt lat="47.81909" lon="-2.41294">
        <ele>35.3</ele>
        <time>2025-02-11T09:39:55Z</time>
      </trkpt>
      <trkpt lat="47.81909" lon="-2.41295">
        <ele>35.3</ele>
        <time>2025-02-11T09:39:56Z</time>
      </trkpt>
      <trkpt lat="47.81909" lon="-2.41297">
        <ele>35.3</ele>
        <time>2025-02-11T09:39:57Z</time>
      </trkpt>
      <trkpt lat="47.8191" lon="-2.41299">
        <ele>35.2</ele>
        <time>2025-02-11T09:39:58Z</time>
      </trkpt>
      <trkpt lat="47.8191" lon="-2.41301">
        <ele>35.2</ele>
        <time>2025-02-11T09:39:59Z</time>
      </trkpt>
      <trkpt lat="47.81911" lon="-2.41303">
        <ele>35.2</ele>
        <time>2025-02-11T09:40:00Z</time>
      </trkpt>
      <trkpt lat="47.81911" lon="-2.41304">
        <ele>35.2</ele>
        <time>2025-02-11T09:40:01Z</time>
      </trkpt>
      <trkpt lat="47.81911" lon="-2.41306">
        <ele>35.2</ele>
        <time>2025-02-11T09:40:02Z</time>
      </trkpt>
      <trkpt lat="47.81911" lon="-2.41308">
        <ele>35.2</ele>
        <time>2025-02-11T09:40:03Z</time>
      </trkpt>
      <trkpt lat="47.81912" lon="-2.41309">
        <ele>35.2</ele>
        <time>2025-02-11T09:40:04Z</time>
      </trkpt>
      <trkpt lat="47.81913" lon="-2.41311">
        <ele>35.2</ele>
        <time>2025-02-11T09:40:05Z</time>
      </trkpt>
      <trkpt lat="47.81913" lon="-2.41313">
        <ele>35.1</ele>
        <time>2025-02-11T09:40:06Z</time>
      </trkpt>
      <trkpt lat="47.81913" lon="-2.41314">
        <ele>35.1</ele>
        <time>2025-02-11T09:40:07Z</time>
      </trkpt>
      <trkpt lat="47.81913" lon="-2.41316">
        <ele>35.1</ele>
        <time>2025-02-11T09:40:08Z</time>
      </trkpt>
      <trkpt lat="47.81913" lon="-2.41318">
        <ele>35.1</ele>
        <time>2025-02-11T09:40:09Z</time>
      </trkpt>
      <trkpt lat="47.81913" lon="-2.4132">
        <ele>35.1</ele>
        <time>2025-02-11T09:40:10Z</time>
      </trkpt>
      <trkpt lat="47.81914" lon="-2.41322">
        <ele>35.1</ele>
        <time>2025-02-11T09:40:11Z</time>
      </trkpt>
      <trkpt lat="47.81914" lon="-2.41324">
        <ele>35.1</ele>
        <time>2025-02-11T09:40:12Z</time>
      </trkpt>
      <trkpt lat="47.81915" lon="-2.41325">
        <ele>35.1</ele>
        <time>2025-02-11T09:40:13Z</time>
      </trkpt>
      <trkpt lat="47.81915" lon="-2.41327">
        <ele>35.1</ele>
        <time>2025-02-11T09:40:14Z</time>
      </trkpt>
      <trkpt lat="47.81915" lon="-2.41329">
        <ele>35</ele>
        <time>2025-02-11T09:40:15Z</time>
      </trkpt>
      <trkpt lat="47.81915" lon="-2.41331">
        <ele>35</ele>
        <time>2025-02-11T09:40:16Z</time>
      </trkpt>
      <trkpt lat="47.81916" lon="-2.41332">
        <ele>35</ele>
        <time>2025-02-11T09:40:17Z</time>
      </trkpt>
      <trkpt lat="47.81916" lon="-2.41334">
        <ele>35</ele>
        <time>2025-02-11T09:40:18Z</time>
      </trkpt>
      <trkpt lat="47.81917" lon="-2.41336">
        <ele>35</ele>
        <time>2025-02-11T09:40:19Z</time>
      </trkpt>
      <trkpt lat="47.81917" lon="-2.41338">
        <ele>35</ele>
        <time>2025-02-11T09:40:20Z</time>
      </trkpt>
      <trkpt lat="47.81918" lon="-2.4134">
        <ele>35</ele>
        <time>2025-02-11T09:40:21Z</time>
      </trkpt>
      <trkpt lat="47.81918" lon="-2.41342">
        <ele>35</ele>
        <time>2025-02-11T09:40:22Z</time>
      </trkpt>
      <trkpt lat="47.81918" lon="-2.41344">
        <ele>35</ele>
        <time>2025-02-11T09:40:23Z</time>
      </trkpt>
      <trkpt lat="47.81919" lon="-2.41346">
        <ele>34.9</ele>
        <time>2025-02-11T09:40:24Z</time>
      </trkpt>
      <trkpt lat="47.81919" lon="-2.41347">
        <ele>34.9</ele>
        <time>2025-02-11T09:40:25Z</time>
      </trkpt>
      <trkpt lat="47.81919" lon="-2.41349">
        <ele>34.9</ele>
        <time>2025-02-11T09:40:26Z</time>
      </trkpt>
      <trkpt lat="47.8192" lon="-2.41351">
        <ele>34.9</ele>
        <time>2025-02-11T09:40:27Z</time>
      </trkpt>
      <trkpt lat="47.8192" lon="-2.41353">
        <ele>34.9</ele>
        <time>2025-02-11T09:40:28Z</time>
      </trkpt>
      <trkpt lat="47.8192" lon="-2.41355">
        <ele>34.9</ele>
        <time>2025-02-11T09:40:29Z</time>
      </trkpt>
      <trkpt lat="47.81921" lon="-2.41357">
        <ele>34.9</ele>
        <time>2025-02-11T09:40:30Z</time>
      </trkpt>
      <trkpt lat="47.81921" lon="-2.41358">
        <ele>34.8</ele>
        <time>2025-02-11T09:40:31Z</time>
      </trkpt>
      <trkpt lat="47.81921" lon="-2.4136">
        <ele>34.8</ele>
        <time>2025-02-11T09:40:32Z</time>
      </trkpt>
      <trkpt lat="47.81922" lon="-2.41362">
        <ele>34.8</ele>
        <time>2025-02-11T09:40:33Z</time>
      </trkpt>
      <trkpt lat="47.81922" lon="-2.41363">
        <ele>34.8</ele>
        <time>2025-02-11T09:40:34Z</time>
      </trkpt>
      <trkpt lat="47.81922" lon="-2.41365">
        <ele>34.8</ele>
        <time>2025-02-11T09:40:35Z</time>
      </trkpt>
      <trkpt lat="47.81923" lon="-2.41367">
        <ele>34.8</ele>
        <time>2025-02-11T09:40:36Z</time>
      </trkpt>
      <trkpt lat="47.81923" lon="-2.41369">
        <ele>34.8</ele>
        <time>2025-02-11T09:40:37Z</time>
      </trkpt>
      <trkpt lat="47.81923" lon="-2.41371">
        <ele>34.8</ele>
        <time>2025-02-11T09:40:38Z</time>
      </trkpt>
      <trkpt lat="47.81924" lon="-2.41372">
        <ele>34.8</ele>
        <time>2025-02-11T09:40:39Z</time>
      </trkpt>
      <trkpt lat="47.81924" lon="-2.41374">
        <ele>34.7</ele>
        <time>2025-02-11T09:40:40Z</time>
      </trkpt>
      <trkpt lat="47.81925" lon="-2.41376">
        <ele>34.7</ele>
        <time>2025-02-11T09:40:41Z</time>
      </trkpt>
      <trkpt lat="47.81925" lon="-2.41377">
        <ele>34.7</ele>
        <time>2025-02-11T09:40:42Z</time>
      </trkpt>
      <trkpt lat="47.81925" lon="-2.41379">
        <ele>34.7</ele>
        <time>2025-02-11T09:40:43Z</time>
      </trkpt>
      <trkpt lat="47.81925" lon="-2.41381">
        <ele>34.7</ele>
        <time>2025-02-11T09:40:44Z</time>
      </trkpt>
      <trkpt lat="47.81926" lon="-2.41383">
        <ele>34.7</ele>
        <time>2025-02-11T09:40:45Z</time>
      </trkpt>
      <trkpt lat="47.81926" lon="-2.41385">
        <ele>34.7</ele>
        <time>2025-02-11T09:40:46Z</time>
      </trkpt>
      <trkpt lat="47.81927" lon="-2.41386">
        <ele>34.6</ele>
        <time>2025-02-11T09:40:47Z</time>
      </trkpt>
      <trkpt lat="47.81927" lon="-2.41388">
        <ele>34.6</ele>
        <time>2025-02-11T09:40:48Z</time>
      </trkpt>
      <trkpt lat="47.81928" lon="-2.4139">
        <ele>34.6</ele>
        <time>2025-02-11T09:40:49Z</time>
      </trkpt>
      <trkpt lat="47.81928" lon="-2.41391">
        <ele>34.7</ele>
        <time>2025-02-11T09:40:50Z</time>
      </trkpt>
      <trkpt lat="47.81929" lon="-2.41393">
        <ele>34.7</ele>
        <time>2025-02-11T09:40:51Z</time>
      </trkpt>
      <trkpt lat="47.81929" lon="-2.41395">
        <ele>34.8</ele>
        <time>2025-02-11T09:40:52Z</time>
      </trkpt>
      <trkpt lat="47.81929" lon="-2.41397">
        <ele>34.8</ele>
        <time>2025-02-11T09:40:53Z</time>
      </trkpt>
      <trkpt lat="47.81929" lon="-2.41399">
        <ele>34.9</ele>
        <time>2025-02-11T09:40:54Z</time>
      </trkpt>
      <trkpt lat="47.81929" lon="-2.414">
        <ele>35</ele>
        <time>2025-02-11T09:40:55Z</time>
      </trkpt>
      <trkpt lat="47.81929" lon="-2.41402">
        <ele>35</ele>
        <time>2025-02-11T09:40:56Z</time>
      </trkpt>
      <trkpt lat="47.8193" lon="-2.41404">
        <ele>35.1</ele>
        <time>2025-02-11T09:40:57Z</time>
      </trkpt>
      <trkpt lat="47.8193" lon="-2.41406">
        <ele>35.1</ele>
        <time>2025-02-11T09:40:58Z</time>
      </trkpt>
      <trkpt lat="47.81931" lon="-2.41408">
        <ele>35.2</ele>
        <time>2025-02-11T09:40:59Z</time>
      </trkpt>
      <trkpt lat="47.81932" lon="-2.4141">
        <ele>35.2</ele>
        <time>2025-02-11T09:41:00Z</time>
      </trkpt>
      <trkpt lat="47.81932" lon="-2.41411">
        <ele>35.2</ele>
        <time>2025-02-11T09:41:01Z</time>
      </trkpt>
      <trkpt lat="47.81933" lon="-2.41413">
        <ele>35.3</ele>
        <time>2025-02-11T09:41:02Z</time>
      </trkpt>
      <trkpt lat="47.81933" lon="-2.41414">
        <ele>35.3</ele>
        <time>2025-02-11T09:41:03Z</time>
      </trkpt>
      <trkpt lat="47.81933" lon="-2.41416">
        <ele>35.4</ele>
        <time>2025-02-11T09:41:04Z</time>
      </trkpt>
      <trkpt lat="47.81934" lon="-2.41417">
        <ele>35.4</ele>
        <time>2025-02-11T09:41:05Z</time>
      </trkpt>
      <trkpt lat="47.81934" lon="-2.41419">
        <ele>35.4</ele>
        <time>2025-02-11T09:41:06Z</time>
      </trkpt>
      <trkpt lat="47.81934" lon="-2.41421">
        <ele>35.4</ele>
        <time>2025-02-11T09:41:07Z</time>
      </trkpt>
      <trkpt lat="47.81935" lon="-2.41422">
        <ele>35.4</ele>
        <time>2025-02-11T09:41:08Z</time>
      </trkpt>
      <trkpt lat="47.81935" lon="-2.41424">
        <ele>35.4</ele>
        <time>2025-02-11T09:41:09Z</time>
      </trkpt>
      <trkpt lat="47.81935" lon="-2.41426">
        <ele>35.4</ele>
        <time>2025-02-11T09:41:10Z</time>
      </trkpt>
      <trkpt lat="47.81936" lon="-2.41428">
        <ele>35.4</ele>
        <time>2025-02-11T09:41:11Z</time>
      </trkpt>
      <trkpt lat="47.81936" lon="-2.41429">
        <ele>35.4</ele>
        <time>2025-02-11T09:41:12Z</time>
      </trkpt>
      <trkpt lat="47.81936" lon="-2.41431">
        <ele>35.4</ele>
        <time>2025-02-11T09:41:13Z</time>
      </trkpt>
      <trkpt lat="47.81937" lon="-2.41433">
        <ele>35.4</ele>
        <time>2025-02-11T09:41:14Z</time>
      </trkpt>
      <trkpt lat="47.81937" lon="-2.41435">
        <ele>35.5</ele>
        <time>2025-02-11T09:41:15Z</time>
      </trkpt>
      <trkpt lat="47.81937" lon="-2.41437">
        <ele>35.5</ele>
        <time>2025-02-11T09:41:16Z</time>
      </trkpt>
      <trkpt lat="47.81938" lon="-2.41438">
        <ele>35.4</ele>
        <time>2025-02-11T09:41:17Z</time>
      </trkpt>
      <trkpt lat="47.81938" lon="-2.4144">
        <ele>35.4</ele>
        <time>2025-02-11T09:41:18Z</time>
      </trkpt>
      <trkpt lat="47.81938" lon="-2.41442">
        <ele>35.4</ele>
        <time>2025-02-11T09:41:19Z</time>
      </trkpt>
      <trkpt lat="47.81939" lon="-2.41443">
        <ele>35.4</ele>
        <time>2025-02-11T09:41:20Z</time>
      </trkpt>
      <trkpt lat="47.81939" lon="-2.41445">
        <ele>35.4</ele>
        <time>2025-02-11T09:41:21Z</time>
      </trkpt>
      <trkpt lat="47.8194" lon="-2.41447">
        <ele>35.4</ele>
        <time>2025-02-11T09:41:22Z</time>
      </trkpt>
      <trkpt lat="47.8194" lon="-2.41449">
        <ele>35.4</ele>
        <time>2025-02-11T09:41:23Z</time>
      </trkpt>
      <trkpt lat="47.8194" lon="-2.41451">
        <ele>35.5</ele>
        <time>2025-02-11T09:41:24Z</time>
      </trkpt>
      <trkpt lat="47.81941" lon="-2.41452">
        <ele>35.5</ele>
        <time>2025-02-11T09:41:25Z</time>
      </trkpt>
      <trkpt lat="47.81941" lon="-2.41454">
        <ele>35.5</ele>
        <time>2025-02-11T09:41:26Z</time>
      </trkpt>
      <trkpt lat="47.81942" lon="-2.41455">
        <ele>35.5</ele>
        <time>2025-02-11T09:41:27Z</time>
      </trkpt>
      <trkpt lat="47.81942" lon="-2.41457">
        <ele>35.5</ele>
        <time>2025-02-11T09:41:28Z</time>
      </trkpt>
      <trkpt lat="47.81943" lon="-2.41458">
        <ele>35.6</ele>
        <time>2025-02-11T09:41:29Z</time>
      </trkpt>
      <trkpt lat="47.81943" lon="-2.4146">
        <ele>35.6</ele>
        <time>2025-02-11T09:41:30Z</time>
      </trkpt>
      <trkpt lat="47.81944" lon="-2.41462">
        <ele>35.7</ele>
        <time>2025-02-11T09:41:31Z</time>
      </trkpt>
      <trkpt lat="47.81944" lon="-2.41464">
        <ele>35.7</ele>
        <time>2025-02-11T09:41:32Z</time>
      </trkpt>
      <trkpt lat="47.81944" lon="-2.41465">
        <ele>35.8</ele>
        <time>2025-02-11T09:41:33Z</time>
      </trkpt>
      <trkpt lat="47.81944" lon="-2.41467">
        <ele>35.8</ele>
        <time>2025-02-11T09:41:34Z</time>
      </trkpt>
      <trkpt lat="47.81945" lon="-2.41469">
        <ele>35.8</ele>
        <time>2025-02-11T09:41:35Z</time>
      </trkpt>
      <trkpt lat="47.81945" lon="-2.4147">
        <ele>35.9</ele>
        <time>2025-02-11T09:41:36Z</time>
      </trkpt>
      <trkpt lat="47.81946" lon="-2.41472">
        <ele>35.9</ele>
        <time>2025-02-11T09:41:37Z</time>
      </trkpt>
      <trkpt lat="47.81946" lon="-2.41474">
        <ele>35.9</ele>
        <time>2025-02-11T09:41:38Z</time>
      </trkpt>
      <trkpt lat="47.81946" lon="-2.41476">
        <ele>36</ele>
        <time>2025-02-11T09:41:39Z</time>
      </trkpt>
      <trkpt lat="47.81947" lon="-2.41478">
        <ele>36</ele>
        <time>2025-02-11T09:41:40Z</time>
      </trkpt>
      <trkpt lat="47.81948" lon="-2.41479">
        <ele>36</ele>
        <time>2025-02-11T09:41:41Z</time>
      </trkpt>
      <trkpt lat="47.81948" lon="-2.41481">
        <ele>36.1</ele>
        <time>2025-02-11T09:41:42Z</time>
      </trkpt>
      <trkpt lat="47.81948" lon="-2.41483">
        <ele>36.1</ele>
        <time>2025-02-11T09:41:43Z</time>
      </trkpt>
      <trkpt lat="47.81949" lon="-2.41484">
        <ele>36.1</ele>
        <time>2025-02-11T09:41:44Z</time>
      </trkpt>
      <trkpt lat="47.81949" lon="-2.41486">
        <ele>36.2</ele>
        <time>2025-02-11T09:41:45Z</time>
      </trkpt>
      <trkpt lat="47.81949" lon="-2.41488">
        <ele>36.2</ele>
        <time>2025-02-11T09:41:46Z</time>
      </trkpt>
      <trkpt lat="47.8195" lon="-2.4149">
        <ele>36.2</ele>
        <time>2025-02-11T09:41:47Z</time>
      </trkpt>
      <trkpt lat="47.8195" lon="-2.41492">
        <ele>36.3</ele>
        <time>2025-02-11T09:41:48Z</time>
      </trkpt>
      <trkpt lat="47.81951" lon="-2.41493">
        <ele>36.3</ele>
        <time>2025-02-11T09:41:49Z</time>
      </trkpt>
      <trkpt lat="47.81951" lon="-2.41495">
        <ele>36.3</ele>
        <time>2025-02-11T09:41:50Z</time>
      </trkpt>
      <trkpt lat="47.81951" lon="-2.41497">
        <ele>36.4</ele>
        <time>2025-02-11T09:41:51Z</time>
      </trkpt>
      <trkpt lat="47.81952" lon="-2.41498">
        <ele>36.4</ele>
        <time>2025-02-11T09:41:52Z</time>
      </trkpt>
      <trkpt lat="47.81952" lon="-2.415">
        <ele>36.4</ele>
        <time>2025-02-11T09:41:53Z</time>
      </trkpt>
      <trkpt lat="47.81953" lon="-2.41502">
        <ele>36.4</ele>
        <time>2025-02-11T09:41:54Z</time>
      </trkpt>
      <trkpt lat="47.81953" lon="-2.41504">
        <ele>36.4</ele>
        <time>2025-02-11T09:41:55Z</time>
      </trkpt>
      <trkpt lat="47.81954" lon="-2.41505">
        <ele>36.4</ele>
        <time>2025-02-11T09:41:56Z</time>
      </trkpt>
      <trkpt lat="47.81954" lon="-2.41507">
        <ele>36.4</ele>
        <time>2025-02-11T09:41:57Z</time>
      </trkpt>
      <trkpt lat="47.81955" lon="-2.41509">
        <ele>36.4</ele>
        <time>2025-02-11T09:41:58Z</time>
      </trkpt>
      <trkpt lat="47.81955" lon="-2.41511">
        <ele>36.4</ele>
        <time>2025-02-11T09:41:59Z</time>
      </trkpt>
      <trkpt lat="47.81955" lon="-2.41513">
        <ele>36.4</ele>
        <time>2025-02-11T09:42:00Z</time>
      </trkpt>
      <trkpt lat="47.81956" lon="-2.41514">
        <ele>36.4</ele>
        <time>2025-02-11T09:42:01Z</time>
      </trkpt>
      <trkpt lat="47.81956" lon="-2.41516">
        <ele>36.4</ele>
        <time>2025-02-11T09:42:02Z</time>
      </trkpt>
      <trkpt lat="47.81957" lon="-2.41517">
        <ele>36.4</ele>
        <time>2025-02-11T09:42:03Z</time>
      </trkpt>
      <trkpt lat="47.81957" lon="-2.41519">
        <ele>36.4</ele>
        <time>2025-02-11T09:42:04Z</time>
      </trkpt>
      <trkpt lat="47.81958" lon="-2.41521">
        <ele>36.4</ele>
        <time>2025-02-11T09:42:05Z</time>
      </trkpt>
      <trkpt lat="47.81958" lon="-2.41523">
        <ele>36.4</ele>
        <time>2025-02-11T09:42:06Z</time>
      </trkpt>
      <trkpt lat="47.81958" lon="-2.41524">
        <ele>36.4</ele>
        <time>2025-02-11T09:42:07Z</time>
      </trkpt>
      <trkpt lat="47.81959" lon="-2.41526">
        <ele>36.5</ele>
        <time>2025-02-11T09:42:08Z</time>
      </trkpt>
      <trkpt lat="47.81959" lon="-2.41528">
        <ele>36.5</ele>
        <time>2025-02-11T09:42:09Z</time>
      </trkpt>
      <trkpt lat="47.81959" lon="-2.41529">
        <ele>36.5</ele>
        <time>2025-02-11T09:42:10Z</time>
      </trkpt>
      <trkpt lat="47.8196" lon="-2.41531">
        <ele>36.6</ele>
        <time>2025-02-11T09:42:11Z</time>
      </trkpt>
      <trkpt lat="47.8196" lon="-2.41533">
        <ele>36.6</ele>
        <time>2025-02-11T09:42:12Z</time>
      </trkpt>
      <trkpt lat="47.81961" lon="-2.41535">
        <ele>36.7</ele>
        <time>2025-02-11T09:42:13Z</time>
      </trkpt>
      <trkpt lat="47.81961" lon="-2.41537">
        <ele>36.7</ele>
        <time>2025-02-11T09:42:14Z</time>
      </trkpt>
      <trkpt lat="47.81962" lon="-2.41539">
        <ele>36.8</ele>
        <time>2025-02-11T09:42:15Z</time>
      </trkpt>
      <trkpt lat="47.81962" lon="-2.4154">
        <ele>36.8</ele>
        <time>2025-02-11T09:42:16Z</time>
      </trkpt>
      <trkpt lat="47.81962" lon="-2.41542">
        <ele>36.9</ele>
        <time>2025-02-11T09:42:17Z</time>
      </trkpt>
      <trkpt lat="47.81962" lon="-2.41544">
        <ele>36.9</ele>
        <time>2025-02-11T09:42:18Z</time>
      </trkpt>
      <trkpt lat="47.81963" lon="-2.41546">
        <ele>37</ele>
        <time>2025-02-11T09:42:19Z</time>
      </trkpt>
      <trkpt lat="47.81964" lon="-2.41547">
        <ele>37</ele>
        <time>2025-02-11T09:42:20Z</time>
      </trkpt>
      <trkpt lat="47.81964" lon="-2.41549">
        <ele>37.1</ele>
        <time>2025-02-11T09:42:21Z</time>
      </trkpt>
      <trkpt lat="47.81965" lon="-2.41551">
        <ele>37.1</ele>
        <time>2025-02-11T09:42:22Z</time>
      </trkpt>
      <trkpt lat="47.81965" lon="-2.41553">
        <ele>37.1</ele>
        <time>2025-02-11T09:42:23Z</time>
      </trkpt>
      <trkpt lat="47.81965" lon="-2.41554">
        <ele>37.2</ele>
        <time>2025-02-11T09:42:24Z</time>
      </trkpt>
      <trkpt lat="47.81966" lon="-2.41556">
        <ele>37.2</ele>
        <time>2025-02-11T09:42:25Z</time>
      </trkpt>
      <trkpt lat="47.81966" lon="-2.41558">
        <ele>37.2</ele>
        <time>2025-02-11T09:42:26Z</time>
      </trkpt>
      <trkpt lat="47.81967" lon="-2.41559">
        <ele>37.2</ele>
        <time>2025-02-11T09:42:27Z</time>
      </trkpt>
      <trkpt lat="47.81967" lon="-2.41561">
        <ele>37.2</ele>
        <time>2025-02-11T09:42:28Z</time>
      </trkpt>
      <trkpt lat="47.81967" lon="-2.41563">
        <ele>37.2</ele>
        <time>2025-02-11T09:42:29Z</time>
      </trkpt>
      <trkpt lat="47.81967" lon="-2.41565">
        <ele>37.2</ele>
        <time>2025-02-11T09:42:30Z</time>
      </trkpt>
      <trkpt lat="47.81968" lon="-2.41567">
        <ele>37.2</ele>
        <time>2025-02-11T09:42:31Z</time>
      </trkpt>
      <trkpt lat="47.81968" lon="-2.41568">
        <ele>37.2</ele>
        <time>2025-02-11T09:42:32Z</time>
      </trkpt>
      <trkpt lat="47.81969" lon="-2.4157">
        <ele>37.2</ele>
        <time>2025-02-11T09:42:33Z</time>
      </trkpt>
      <trkpt lat="47.81969" lon="-2.41572">
        <ele>37.2</ele>
        <time>2025-02-11T09:42:34Z</time>
      </trkpt>
      <trkpt lat="47.8197" lon="-2.41573">
        <ele>37.2</ele>
        <time>2025-02-11T09:42:35Z</time>
      </trkpt>
      <trkpt lat="47.8197" lon="-2.41575">
        <ele>37.1</ele>
        <time>2025-02-11T09:42:36Z</time>
      </trkpt>
      <trkpt lat="47.8197" lon="-2.41577">
        <ele>37.1</ele>
        <time>2025-02-11T09:42:37Z</time>
      </trkpt>
      <trkpt lat="47.8197" lon="-2.41578">
        <ele>37.1</ele>
        <time>2025-02-11T09:42:38Z</time>
      </trkpt>
      <trkpt lat="47.81971" lon="-2.4158">
        <ele>37.1</ele>
        <time>2025-02-11T09:42:39Z</time>
      </trkpt>
      <trkpt lat="47.81971" lon="-2.41582">
        <ele>37.1</ele>
        <time>2025-02-11T09:42:40Z</time>
      </trkpt>
      <trkpt lat="47.81971" lon="-2.41584">
        <ele>37.1</ele>
        <time>2025-02-11T09:42:41Z</time>
      </trkpt>
      <trkpt lat="47.81972" lon="-2.41585">
        <ele>37.1</ele>
        <time>2025-02-11T09:42:42Z</time>
      </trkpt>
      <trkpt lat="47.81972" lon="-2.41587">
        <ele>37.2</ele>
        <time>2025-02-11T09:42:43Z</time>
      </trkpt>
      <trkpt lat="47.81973" lon="-2.41589">
        <ele>37.2</ele>
        <time>2025-02-11T09:42:44Z</time>
      </trkpt>
      <trkpt lat="47.81973" lon="-2.41591">
        <ele>37.2</ele>
        <time>2025-02-11T09:42:45Z</time>
      </trkpt>
      <trkpt lat="47.81973" lon="-2.41592">
        <ele>37.3</ele>
        <time>2025-02-11T09:42:46Z</time>
      </trkpt>
      <trkpt lat="47.81974" lon="-2.41594">
        <ele>37.3</ele>
        <time>2025-02-11T09:42:47Z</time>
      </trkpt>
      <trkpt lat="47.81974" lon="-2.41596">
        <ele>37.4</ele>
        <time>2025-02-11T09:42:48Z</time>
      </trkpt>
      <trkpt lat="47.81974" lon="-2.41598">
        <ele>37.5</ele>
        <time>2025-02-11T09:42:49Z</time>
      </trkpt>
      <trkpt lat="47.81974" lon="-2.416">
        <ele>37.5</ele>
        <time>2025-02-11T09:42:50Z</time>
      </trkpt>
      <trkpt lat="47.81975" lon="-2.41601">
        <ele>37.6</ele>
        <time>2025-02-11T09:42:51Z</time>
      </trkpt>
      <trkpt lat="47.81975" lon="-2.41603">
        <ele>37.6</ele>
        <time>2025-02-11T09:42:52Z</time>
      </trkpt>
      <trkpt lat="47.81975" lon="-2.41605">
        <ele>37.7</ele>
        <time>2025-02-11T09:42:53Z</time>
      </trkpt>
      <trkpt lat="47.81976" lon="-2.41607">
        <ele>37.7</ele>
        <time>2025-02-11T09:42:54Z</time>
      </trkpt>
      <trkpt lat="47.81976" lon="-2.41609">
        <ele>37.8</ele>
        <time>2025-02-11T09:42:55Z</time>
      </trkpt>
      <trkpt lat="47.81976" lon="-2.4161">
        <ele>37.8</ele>
        <time>2025-02-11T09:42:56Z</time>
      </trkpt>
      <trkpt lat="47.81976" lon="-2.41612">
        <ele>37.9</ele>
        <time>2025-02-11T09:42:57Z</time>
      </trkpt>
      <trkpt lat="47.81977" lon="-2.41614">
        <ele>37.9</ele>
        <time>2025-02-11T09:42:58Z</time>
      </trkpt>
      <trkpt lat="47.81977" lon="-2.41616">
        <ele>38</ele>
        <time>2025-02-11T09:42:59Z</time>
      </trkpt>
      <trkpt lat="47.81977" lon="-2.41618">
        <ele>38</ele>
        <time>2025-02-11T09:43:00Z</time>
      </trkpt>
      <trkpt lat="47.81977" lon="-2.4162">
        <ele>38.1</ele>
        <time>2025-02-11T09:43:01Z</time>
      </trkpt>
      <trkpt lat="47.81977" lon="-2.41622">
        <ele>38.1</ele>
        <time>2025-02-11T09:43:02Z</time>
      </trkpt>
      <trkpt lat="47.81977" lon="-2.41623">
        <ele>38.2</ele>
        <time>2025-02-11T09:43:03Z</time>
      </trkpt>
      <trkpt lat="47.81977" lon="-2.41625">
        <ele>38.2</ele>
        <time>2025-02-11T09:43:04Z</time>
      </trkpt>
      <trkpt lat="47.81977" lon="-2.41627">
        <ele>38.3</ele>
        <time>2025-02-11T09:43:05Z</time>
      </trkpt>
      <trkpt lat="47.81977" lon="-2.41629">
        <ele>38.3</ele>
        <time>2025-02-11T09:43:06Z</time>
      </trkpt>
      <trkpt lat="47.81977" lon="-2.41631">
        <ele>38.4</ele>
        <time>2025-02-11T09:43:07Z</time>
      </trkpt>
      <trkpt lat="47.81977" lon="-2.41632">
        <ele>38.4</ele>
        <time>2025-02-11T09:43:08Z</time>
      </trkpt>
      <trkpt lat="47.81977" lon="-2.41634">
        <ele>38.5</ele>
        <time>2025-02-11T09:43:09Z</time>
      </trkpt>
      <trkpt lat="47.81977" lon="-2.41636">
        <ele>38.6</ele>
        <time>2025-02-11T09:43:10Z</time>
      </trkpt>
      <trkpt lat="47.81978" lon="-2.41638">
        <ele>38.6</ele>
        <time>2025-02-11T09:43:11Z</time>
      </trkpt>
      <trkpt lat="47.81978" lon="-2.4164">
        <ele>38.6</ele>
        <time>2025-02-11T09:43:12Z</time>
      </trkpt>
      <trkpt lat="47.81978" lon="-2.41642">
        <ele>38.6</ele>
        <time>2025-02-11T09:43:13Z</time>
      </trkpt>
      <trkpt lat="47.81977" lon="-2.41644">
        <ele>38.6</ele>
        <time>2025-02-11T09:43:14Z</time>
      </trkpt>
      <trkpt lat="47.81977" lon="-2.41646">
        <ele>38.6</ele>
        <time>2025-02-11T09:43:15Z</time>
      </trkpt>
      <trkpt lat="47.81978" lon="-2.41647">
        <ele>38.6</ele>
        <time>2025-02-11T09:43:16Z</time>
      </trkpt>
      <trkpt lat="47.81977" lon="-2.41649">
        <ele>38.6</ele>
        <time>2025-02-11T09:43:17Z</time>
      </trkpt>
      <trkpt lat="47.81977" lon="-2.41651">
        <ele>38.6</ele>
        <time>2025-02-11T09:43:18Z</time>
      </trkpt>
      <trkpt lat="47.81977" lon="-2.41653">
        <ele>38.6</ele>
        <time>2025-02-11T09:43:19Z</time>
      </trkpt>
      <trkpt lat="47.81977" lon="-2.41655">
        <ele>38.6</ele>
        <time>2025-02-11T09:43:20Z</time>
      </trkpt>
      <trkpt lat="47.81977" lon="-2.41657">
        <ele>38.7</ele>
        <time>2025-02-11T09:43:21Z</time>
      </trkpt>
      <trkpt lat="47.81977" lon="-2.41659">
        <ele>38.7</ele>
        <time>2025-02-11T09:43:22Z</time>
      </trkpt>
      <trkpt lat="47.81977" lon="-2.41661">
        <ele>38.7</ele>
        <time>2025-02-11T09:43:23Z</time>
      </trkpt>
      <trkpt lat="47.81977" lon="-2.41663">
        <ele>38.7</ele>
        <time>2025-02-11T09:43:24Z</time>
      </trkpt>
      <trkpt lat="47.81977" lon="-2.41665">
        <ele>38.6</ele>
        <time>2025-02-11T09:43:25Z</time>
      </trkpt>
      <trkpt lat="47.81977" lon="-2.41667">
        <ele>38.6</ele>
        <time>2025-02-11T09:43:26Z</time>
      </trkpt>
      <trkpt lat="47.81977" lon="-2.41669">
        <ele>38.7</ele>
        <time>2025-02-11T09:43:27Z</time>
      </trkpt>
      <trkpt lat="47.81977" lon="-2.4167">
        <ele>38.7</ele>
        <time>2025-02-11T09:43:28Z</time>
      </trkpt>
      <trkpt lat="47.81977" lon="-2.41672">
        <ele>38.7</ele>
        <time>2025-02-11T09:43:29Z</time>
      </trkpt>
      <trkpt lat="47.81977" lon="-2.41674">
        <ele>38.7</ele>
        <time>2025-02-11T09:43:30Z</time>
      </trkpt>
      <trkpt lat="47.81977" lon="-2.41676">
        <ele>38.7</ele>
        <time>2025-02-11T09:43:31Z</time>
      </trkpt>
      <trkpt lat="47.81977" lon="-2.41677">
        <ele>38.7</ele>
        <time>2025-02-11T09:43:32Z</time>
      </trkpt>
      <trkpt lat="47.81977" lon="-2.41679">
        <ele>38.7</ele>
        <time>2025-02-11T09:43:33Z</time>
      </trkpt>
      <trkpt lat="47.81977" lon="-2.41681">
        <ele>38.8</ele>
        <time>2025-02-11T09:43:34Z</time>
      </trkpt>
      <trkpt lat="47.81977" lon="-2.41683">
        <ele>38.8</ele>
        <time>2025-02-11T09:43:35Z</time>
      </trkpt>
      <trkpt lat="47.81977" lon="-2.41685">
        <ele>38.8</ele>
        <time>2025-02-11T09:43:36Z</time>
      </trkpt>
      <trkpt lat="47.81977" lon="-2.41687">
        <ele>38.8</ele>
        <time>2025-02-11T09:43:37Z</time>
      </trkpt>
      <trkpt lat="47.81977" lon="-2.41689">
        <ele>38.8</ele>
        <time>2025-02-11T09:43:38Z</time>
      </trkpt>
      <trkpt lat="47.81976" lon="-2.4169">
        <ele>38.8</ele>
        <time>2025-02-11T09:43:39Z</time>
      </trkpt>
      <trkpt lat="47.81976" lon="-2.41692">
        <ele>38.9</ele>
        <time>2025-02-11T09:43:40Z</time>
      </trkpt>
      <trkpt lat="47.81976" lon="-2.41694">
        <ele>38.9</ele>
        <time>2025-02-11T09:43:41Z</time>
      </trkpt>
      <trkpt lat="47.81975" lon="-2.41695">
        <ele>38.9</ele>
        <time>2025-02-11T09:43:42Z</time>
      </trkpt>
      <trkpt lat="47.81975" lon="-2.41697">
        <ele>39</ele>
        <time>2025-02-11T09:43:43Z</time>
      </trkpt>
      <trkpt lat="47.81975" lon="-2.41699">
        <ele>39</ele>
        <time>2025-02-11T09:43:44Z</time>
      </trkpt>
      <trkpt lat="47.81974" lon="-2.417">
        <ele>39.1</ele>
        <time>2025-02-11T09:43:45Z</time>
      </trkpt>
      <trkpt lat="47.81974" lon="-2.41702">
        <ele>39.2</ele>
        <time>2025-02-11T09:43:46Z</time>
      </trkpt>
      <trkpt lat="47.81974" lon="-2.41704">
        <ele>39.3</ele>
        <time>2025-02-11T09:43:47Z</time>
      </trkpt>
      <trkpt lat="47.81973" lon="-2.41706">
        <ele>39.4</ele>
        <time>2025-02-11T09:43:48Z</time>
      </trkpt>
      <trkpt lat="47.81973" lon="-2.41708">
        <ele>39.5</ele>
        <time>2025-02-11T09:43:49Z</time>
      </trkpt>
      <trkpt lat="47.81972" lon="-2.4171">
        <ele>39.5</ele>
        <time>2025-02-11T09:43:50Z</time>
      </trkpt>
      <trkpt lat="47.81972" lon="-2.41711">
        <ele>39.6</ele>
        <time>2025-02-11T09:43:51Z</time>
      </trkpt>
      <trkpt lat="47.81972" lon="-2.41713">
        <ele>39.7</ele>
        <time>2025-02-11T09:43:52Z</time>
      </trkpt>
      <trkpt lat="47.81971" lon="-2.41714">
        <ele>39.8</ele>
        <time>2025-02-11T09:43:53Z</time>
      </trkpt>
      <trkpt lat="47.8197" lon="-2.41716">
        <ele>39.9</ele>
        <time>2025-02-11T09:43:54Z</time>
      </trkpt>
      <trkpt lat="47.8197" lon="-2.41718">
        <ele>40</ele>
        <time>2025-02-11T09:43:55Z</time>
      </trkpt>
      <trkpt lat="47.8197" lon="-2.4172">
        <ele>40.1</ele>
        <time>2025-02-11T09:43:56Z</time>
      </trkpt>
      <trkpt lat="47.81969" lon="-2.41721">
        <ele>40.2</ele>
        <time>2025-02-11T09:43:57Z</time>
      </trkpt>
      <trkpt lat="47.81969" lon="-2.41723">
        <ele>40.3</ele>
        <time>2025-02-11T09:43:58Z</time>
      </trkpt>
      <trkpt lat="47.81969" lon="-2.41725">
        <ele>40.4</ele>
        <time>2025-02-11T09:43:59Z</time>
      </trkpt>
      <trkpt lat="47.81968" lon="-2.41727">
        <ele>40.4</ele>
        <time>2025-02-11T09:44:00Z</time>
      </trkpt>
      <trkpt lat="47.81967" lon="-2.41728">
        <ele>40.6</ele>
        <time>2025-02-11T09:44:01Z</time>
      </trkpt>
      <trkpt lat="47.81967" lon="-2.4173">
        <ele>40.6</ele>
        <time>2025-02-11T09:44:02Z</time>
      </trkpt>
      <trkpt lat="47.81967" lon="-2.41732">
        <ele>40.7</ele>
        <time>2025-02-11T09:44:03Z</time>
      </trkpt>
      <trkpt lat="47.81967" lon="-2.41733">
        <ele>40.8</ele>
        <time>2025-02-11T09:44:04Z</time>
      </trkpt>
      <trkpt lat="47.81966" lon="-2.41735">
        <ele>40.9</ele>
        <time>2025-02-11T09:44:05Z</time>
      </trkpt>
      <trkpt lat="47.81966" lon="-2.41737">
        <ele>41</ele>
        <time>2025-02-11T09:44:06Z</time>
      </trkpt>
      <trkpt lat="47.81965" lon="-2.41738">
        <ele>41.1</ele>
        <time>2025-02-11T09:44:07Z</time>
      </trkpt>
      <trkpt lat="47.81964" lon="-2.4174">
        <ele>41.2</ele>
        <time>2025-02-11T09:44:08Z</time>
      </trkpt>
      <trkpt lat="47.81964" lon="-2.41742">
        <ele>41.3</ele>
        <time>2025-02-11T09:44:09Z</time>
      </trkpt>
      <trkpt lat="47.81963" lon="-2.41743">
        <ele>41.4</ele>
        <time>2025-02-11T09:44:10Z</time>
      </trkpt>
      <trkpt lat="47.81963" lon="-2.41745">
        <ele>41.5</ele>
        <time>2025-02-11T09:44:11Z</time>
      </trkpt>
      <trkpt lat="47.81962" lon="-2.41747">
        <ele>41.6</ele>
        <time>2025-02-11T09:44:12Z</time>
      </trkpt>
      <trkpt lat="47.81962" lon="-2.41748">
        <ele>41.7</ele>
        <time>2025-02-11T09:44:13Z</time>
      </trkpt>
      <trkpt lat="47.81961" lon="-2.4175">
        <ele>41.8</ele>
        <time>2025-02-11T09:44:14Z</time>
      </trkpt>
      <trkpt lat="47.8196" lon="-2.41751">
        <ele>41.9</ele>
        <time>2025-02-11T09:44:15Z</time>
      </trkpt>
      <trkpt lat="47.81959" lon="-2.41752">
        <ele>42</ele>
        <time>2025-02-11T09:44:16Z</time>
      </trkpt>
      <trkpt lat="47.81958" lon="-2.41754">
        <ele>42.1</ele>
        <time>2025-02-11T09:44:17Z</time>
      </trkpt>
      <trkpt lat="47.81958" lon="-2.41755">
        <ele>42.1</ele>
        <time>2025-02-11T09:44:18Z</time>
      </trkpt>
      <trkpt lat="47.81957" lon="-2.41757">
        <ele>42.2</ele>
        <time>2025-02-11T09:44:19Z</time>
      </trkpt>
      <trkpt lat="47.81956" lon="-2.41759">
        <ele>42.3</ele>
        <time>2025-02-11T09:44:20Z</time>
      </trkpt>
      <trkpt lat="47.81956" lon="-2.4176">
        <ele>42.3</ele>
        <time>2025-02-11T09:44:21Z</time>
      </trkpt>
      <trkpt lat="47.81956" lon="-2.41762">
        <ele>42.4</ele>
        <time>2025-02-11T09:44:22Z</time>
      </trkpt>
      <trkpt lat="47.81956" lon="-2.41763">
        <ele>42.4</ele>
        <time>2025-02-11T09:44:23Z</time>
      </trkpt>
      <trkpt lat="47.81957" lon="-2.41765">
        <ele>42.3</ele>
        <time>2025-02-11T09:44:24Z</time>
      </trkpt>
      <trkpt lat="47.81958" lon="-2.41766">
        <ele>42.3</ele>
        <time>2025-02-11T09:44:25Z</time>
      </trkpt>
      <trkpt lat="47.8196" lon="-2.41767">
        <ele>42.2</ele>
        <time>2025-02-11T09:44:26Z</time>
      </trkpt>
      <trkpt lat="47.81961" lon="-2.41768">
        <ele>42.2</ele>
        <time>2025-02-11T09:44:27Z</time>
      </trkpt>
      <trkpt lat="47.81961" lon="-2.41769">
        <ele>42.2</ele>
        <time>2025-02-11T09:44:28Z</time>
      </trkpt>
      <trkpt lat="47.81962" lon="-2.41771">
        <ele>42.2</ele>
        <time>2025-02-11T09:44:29Z</time>
      </trkpt>
      <trkpt lat="47.81963" lon="-2.41772">
        <ele>42.2</ele>
        <time>2025-02-11T09:44:30Z</time>
      </trkpt>
      <trkpt lat="47.81965" lon="-2.41772">
        <ele>42.1</ele>
        <time>2025-02-11T09:44:31Z</time>
      </trkpt>
      <trkpt lat="47.81966" lon="-2.41773">
        <ele>42.1</ele>
        <time>2025-02-11T09:44:32Z</time>
      </trkpt>
      <trkpt lat="47.81967" lon="-2.41773">
        <ele>42.1</ele>
        <time>2025-02-11T09:44:33Z</time>
      </trkpt>
      <trkpt lat="47.81968" lon="-2.41773">
        <ele>42</ele>
        <time>2025-02-11T09:44:34Z</time>
      </trkpt>
      <trkpt lat="47.8197" lon="-2.41774">
        <ele>42</ele>
        <time>2025-02-11T09:44:35Z</time>
      </trkpt>
      <trkpt lat="47.81971" lon="-2.41774">
        <ele>41.9</ele>
        <time>2025-02-11T09:44:36Z</time>
      </trkpt>
      <trkpt lat="47.81972" lon="-2.41775">
        <ele>41.9</ele>
        <time>2025-02-11T09:44:37Z</time>
      </trkpt>
      <trkpt lat="47.81973" lon="-2.41777">
        <ele>41.9</ele>
        <time>2025-02-11T09:44:38Z</time>
      </trkpt>
      <trkpt lat="47.81974" lon="-2.41778">
        <ele>41.8</ele>
        <time>2025-02-11T09:44:39Z</time>
      </trkpt>
      <trkpt lat="47.81975" lon="-2.41779">
        <ele>41.7</ele>
        <time>2025-02-11T09:44:40Z</time>
      </trkpt>
      <trkpt lat="47.81976" lon="-2.4178">
        <ele>41.6</ele>
        <time>2025-02-11T09:44:41Z</time>
      </trkpt>
      <trkpt lat="47.81977" lon="-2.41781">
        <ele>41.5</ele>
        <time>2025-02-11T09:44:42Z</time>
      </trkpt>
      <trkpt lat="47.81978" lon="-2.41782">
        <ele>41.4</ele>
        <time>2025-02-11T09:44:43Z</time>
      </trkpt>
      <trkpt lat="47.81979" lon="-2.41783">
        <ele>41.3</ele>
        <time>2025-02-11T09:44:44Z</time>
      </trkpt>
      <trkpt lat="47.81981" lon="-2.41783">
        <ele>41.2</ele>
        <time>2025-02-11T09:44:45Z</time>
      </trkpt>
      <trkpt lat="47.81982" lon="-2.41784">
        <ele>41.1</ele>
        <time>2025-02-11T09:44:46Z</time>
      </trkpt>
      <trkpt lat="47.81983" lon="-2.41784">
        <ele>41</ele>
        <time>2025-02-11T09:44:47Z</time>
      </trkpt>
      <trkpt lat="47.81984" lon="-2.41785">
        <ele>40.9</ele>
        <time>2025-02-11T09:44:48Z</time>
      </trkpt>
      <trkpt lat="47.81985" lon="-2.41785">
        <ele>40.8</ele>
        <time>2025-02-11T09:44:49Z</time>
      </trkpt>
      <trkpt lat="47.81986" lon="-2.41787">
        <ele>40.8</ele>
        <time>2025-02-11T09:44:50Z</time>
      </trkpt>
      <trkpt lat="47.81987" lon="-2.41788">
        <ele>40.8</ele>
        <time>2025-02-11T09:44:51Z</time>
      </trkpt>
      <trkpt lat="47.81987" lon="-2.4179">
        <ele>40.9</ele>
        <time>2025-02-11T09:44:52Z</time>
      </trkpt>
      <trkpt lat="47.81988" lon="-2.41792">
        <ele>40.9</ele>
        <time>2025-02-11T09:44:53Z</time>
      </trkpt>
      <trkpt lat="47.81989" lon="-2.41793">
        <ele>40.9</ele>
        <time>2025-02-11T09:44:54Z</time>
      </trkpt>
      <trkpt lat="47.8199" lon="-2.41794">
        <ele>40.9</ele>
        <time>2025-02-11T09:44:55Z</time>
      </trkpt>
      <trkpt lat="47.8199" lon="-2.41795">
        <ele>40.8</ele>
        <time>2025-02-11T09:44:56Z</time>
      </trkpt>
      <trkpt lat="47.81991" lon="-2.41796">
        <ele>40.8</ele>
        <time>2025-02-11T09:44:57Z</time>
      </trkpt>
      <trkpt lat="47.81993" lon="-2.41796">
        <ele>40.8</ele>
        <time>2025-02-11T09:44:58Z</time>
      </trkpt>
      <trkpt lat="47.81994" lon="-2.41797">
        <ele>40.8</ele>
        <time>2025-02-11T09:44:59Z</time>
      </trkpt>
      <trkpt lat="47.81995" lon="-2.41798">
        <ele>40.7</ele>
        <time>2025-02-11T09:45:00Z</time>
      </trkpt>
      <trkpt lat="47.81996" lon="-2.41799">
        <ele>40.7</ele>
        <time>2025-02-11T09:45:01Z</time>
      </trkpt>
      <trkpt lat="47.81997" lon="-2.41799">
        <ele>40.7</ele>
        <time>2025-02-11T09:45:02Z</time>
      </trkpt>
      <trkpt lat="47.81998" lon="-2.418">
        <ele>40.7</ele>
        <time>2025-02-11T09:45:03Z</time>
      </trkpt>
      <trkpt lat="47.81999" lon="-2.41801">
        <ele>40.7</ele>
        <time>2025-02-11T09:45:04Z</time>
      </trkpt>
      <trkpt lat="47.82" lon="-2.41802">
        <ele>40.8</ele>
        <time>2025-02-11T09:45:05Z</time>
      </trkpt>
      <trkpt lat="47.82001" lon="-2.41803">
        <ele>40.7</ele>
        <time>2025-02-11T09:45:06Z</time>
      </trkpt>
      <trkpt lat="47.82002" lon="-2.41805">
        <ele>40.7</ele>
        <time>2025-02-11T09:45:07Z</time>
      </trkpt>
      <trkpt lat="47.82003" lon="-2.41806">
        <ele>40.7</ele>
        <time>2025-02-11T09:45:08Z</time>
      </trkpt>
      <trkpt lat="47.82004" lon="-2.41806">
        <ele>40.6</ele>
        <time>2025-02-11T09:45:09Z</time>
      </trkpt>
      <trkpt lat="47.82005" lon="-2.41807">
        <ele>40.4</ele>
        <time>2025-02-11T09:45:10Z</time>
      </trkpt>
      <trkpt lat="47.82006" lon="-2.41808">
        <ele>40.3</ele>
        <time>2025-02-11T09:45:11Z</time>
      </trkpt>
      <trkpt lat="47.82007" lon="-2.41809">
        <ele>40.2</ele>
        <time>2025-02-11T09:45:12Z</time>
      </trkpt>
      <trkpt lat="47.82008" lon="-2.4181">
        <ele>40.1</ele>
        <time>2025-02-11T09:45:13Z</time>
      </trkpt>
      <trkpt lat="47.82009" lon="-2.41811">
        <ele>40</ele>
        <time>2025-02-11T09:45:14Z</time>
      </trkpt>
      <trkpt lat="47.82011" lon="-2.41812">
        <ele>39.9</ele>
        <time>2025-02-11T09:45:15Z</time>
      </trkpt>
      <trkpt lat="47.82012" lon="-2.41812">
        <ele>39.8</ele>
        <time>2025-02-11T09:45:16Z</time>
      </trkpt>
      <trkpt lat="47.82013" lon="-2.41813">
        <ele>39.7</ele>
        <time>2025-02-11T09:45:17Z</time>
      </trkpt>
      <trkpt lat="47.82014" lon="-2.41814">
        <ele>39.6</ele>
        <time>2025-02-11T09:45:18Z</time>
      </trkpt>
      <trkpt lat="47.82015" lon="-2.41814">
        <ele>39.6</ele>
        <time>2025-02-11T09:45:19Z</time>
      </trkpt>
      <trkpt lat="47.82016" lon="-2.41815">
        <ele>39.5</ele>
        <time>2025-02-11T09:45:20Z</time>
      </trkpt>
      <trkpt lat="47.82017" lon="-2.41816">
        <ele>39.5</ele>
        <time>2025-02-11T09:45:21Z</time>
      </trkpt>
      <trkpt lat="47.82018" lon="-2.41817">
        <ele>39.4</ele>
        <time>2025-02-11T09:45:22Z</time>
      </trkpt>
      <trkpt lat="47.82019" lon="-2.41818">
        <ele>39.4</ele>
        <time>2025-02-11T09:45:23Z</time>
      </trkpt>
      <trkpt lat="47.8202" lon="-2.41819">
        <ele>39.4</ele>
        <time>2025-02-11T09:45:24Z</time>
      </trkpt>
      <trkpt lat="47.82021" lon="-2.4182">
        <ele>39.4</ele>
        <time>2025-02-11T09:45:25Z</time>
      </trkpt>
      <trkpt lat="47.82022" lon="-2.4182">
        <ele>39.4</ele>
        <time>2025-02-11T09:45:26Z</time>
      </trkpt>
      <trkpt lat="47.82023" lon="-2.41822">
        <ele>39.4</ele>
        <time>2025-02-11T09:45:27Z</time>
      </trkpt>
      <trkpt lat="47.82024" lon="-2.41822">
        <ele>39.4</ele>
        <time>2025-02-11T09:45:28Z</time>
      </trkpt>
      <trkpt lat="47.82026" lon="-2.41823">
        <ele>39.3</ele>
        <time>2025-02-11T09:45:29Z</time>
      </trkpt>
      <trkpt lat="47.82027" lon="-2.41824">
        <ele>39.4</ele>
        <time>2025-02-11T09:45:30Z</time>
      </trkpt>
      <trkpt lat="47.82028" lon="-2.41825">
        <ele>39.4</ele>
        <time>2025-02-11T09:45:31Z</time>
      </trkpt>
      <trkpt lat="47.82029" lon="-2.41826">
        <ele>39.4</ele>
        <time>2025-02-11T09:45:32Z</time>
      </trkpt>
      <trkpt lat="47.8203" lon="-2.41827">
        <ele>39.3</ele>
        <time>2025-02-11T09:45:33Z</time>
      </trkpt>
      <trkpt lat="47.82032" lon="-2.41827">
        <ele>39.3</ele>
        <time>2025-02-11T09:45:34Z</time>
      </trkpt>
      <trkpt lat="47.82033" lon="-2.41828">
        <ele>39.3</ele>
        <time>2025-02-11T09:45:35Z</time>
      </trkpt>
      <trkpt lat="47.82034" lon="-2.41829">
        <ele>39.3</ele>
        <time>2025-02-11T09:45:36Z</time>
      </trkpt>
      <trkpt lat="47.82035" lon="-2.4183">
        <ele>39.3</ele>
        <time>2025-02-11T09:45:37Z</time>
      </trkpt>
      <trkpt lat="47.82036" lon="-2.41831">
        <ele>39.2</ele>
        <time>2025-02-11T09:45:38Z</time>
      </trkpt>
      <trkpt lat="47.82038" lon="-2.41832">
        <ele>39.2</ele>
        <time>2025-02-11T09:45:39Z</time>
      </trkpt>
      <trkpt lat="47.82039" lon="-2.41832">
        <ele>39.1</ele>
        <time>2025-02-11T09:45:40Z</time>
      </trkpt>
      <trkpt lat="47.82041" lon="-2.41833">
        <ele>39</ele>
        <time>2025-02-11T09:45:41Z</time>
      </trkpt>
      <trkpt lat="47.82042" lon="-2.41834">
        <ele>39</ele>
        <time>2025-02-11T09:45:42Z</time>
      </trkpt>
      <trkpt lat="47.82043" lon="-2.41835">
        <ele>38.9</ele>
        <time>2025-02-11T09:45:43Z</time>
      </trkpt>
      <trkpt lat="47.82045" lon="-2.41836">
        <ele>38.8</ele>
        <time>2025-02-11T09:45:44Z</time>
      </trkpt>
      <trkpt lat="47.82046" lon="-2.41837">
        <ele>38.8</ele>
        <time>2025-02-11T09:45:45Z</time>
      </trkpt>
      <trkpt lat="47.82047" lon="-2.41838">
        <ele>38.7</ele>
        <time>2025-02-11T09:45:46Z</time>
      </trkpt>
      <trkpt lat="47.82049" lon="-2.41839">
        <ele>38.6</ele>
        <time>2025-02-11T09:45:47Z</time>
      </trkpt>
      <trkpt lat="47.8205" lon="-2.4184">
        <ele>38.6</ele>
        <time>2025-02-11T09:45:48Z</time>
      </trkpt>
      <trkpt lat="47.82051" lon="-2.41841">
        <ele>38.6</ele>
        <time>2025-02-11T09:45:49Z</time>
      </trkpt>
      <trkpt lat="47.82052" lon="-2.41843">
        <ele>38.6</ele>
        <time>2025-02-11T09:45:50Z</time>
      </trkpt>
      <trkpt lat="47.82053" lon="-2.41844">
        <ele>38.5</ele>
        <time>2025-02-11T09:45:51Z</time>
      </trkpt>
      <trkpt lat="47.82054" lon="-2.41844">
        <ele>38.5</ele>
        <time>2025-02-11T09:45:52Z</time>
      </trkpt>
      <trkpt lat="47.82055" lon="-2.41845">
        <ele>38.5</ele>
        <time>2025-02-11T09:45:53Z</time>
      </trkpt>
      <trkpt lat="47.82056" lon="-2.41845">
        <ele>38.4</ele>
        <time>2025-02-11T09:45:54Z</time>
      </trkpt>
      <trkpt lat="47.82057" lon="-2.41846">
        <ele>38.4</ele>
        <time>2025-02-11T09:45:55Z</time>
      </trkpt>
      <trkpt lat="47.82058" lon="-2.41847">
        <ele>38.4</ele>
        <time>2025-02-11T09:45:56Z</time>
      </trkpt>
      <trkpt lat="47.82059" lon="-2.41848">
        <ele>38.5</ele>
        <time>2025-02-11T09:45:57Z</time>
      </trkpt>
      <trkpt lat="47.8206" lon="-2.41849">
        <ele>38.5</ele>
        <time>2025-02-11T09:45:58Z</time>
      </trkpt>
      <trkpt lat="47.82061" lon="-2.41851">
        <ele>38.5</ele>
        <time>2025-02-11T09:45:59Z</time>
      </trkpt>
      <trkpt lat="47.82062" lon="-2.41851">
        <ele>38.6</ele>
        <time>2025-02-11T09:46:00Z</time>
      </trkpt>
      <trkpt lat="47.82064" lon="-2.41852">
        <ele>38.6</ele>
        <time>2025-02-11T09:46:01Z</time>
      </trkpt>
      <trkpt lat="47.82065" lon="-2.41853">
        <ele>38.6</ele>
        <time>2025-02-11T09:46:02Z</time>
      </trkpt>
      <trkpt lat="47.82066" lon="-2.41854">
        <ele>38.6</ele>
        <time>2025-02-11T09:46:03Z</time>
      </trkpt>
      <trkpt lat="47.82067" lon="-2.41855">
        <ele>38.7</ele>
        <time>2025-02-11T09:46:04Z</time>
      </trkpt>
      <trkpt lat="47.82068" lon="-2.41856">
        <ele>38.7</ele>
        <time>2025-02-11T09:46:05Z</time>
      </trkpt>
      <trkpt lat="47.8207" lon="-2.41856">
        <ele>38.7</ele>
        <time>2025-02-11T09:46:06Z</time>
      </trkpt>
      <trkpt lat="47.82071" lon="-2.41857">
        <ele>38.8</ele>
        <time>2025-02-11T09:46:07Z</time>
      </trkpt>
      <trkpt lat="47.82072" lon="-2.41858">
        <ele>38.8</ele>
        <time>2025-02-11T09:46:08Z</time>
      </trkpt>
      <trkpt lat="47.82073" lon="-2.41859">
        <ele>38.9</ele>
        <time>2025-02-11T09:46:09Z</time>
      </trkpt>
      <trkpt lat="47.82074" lon="-2.41859">
        <ele>38.9</ele>
        <time>2025-02-11T09:46:10Z</time>
      </trkpt>
      <trkpt lat="47.82075" lon="-2.4186">
        <ele>38.9</ele>
        <time>2025-02-11T09:46:11Z</time>
      </trkpt>
      <trkpt lat="47.82076" lon="-2.41861">
        <ele>39</ele>
        <time>2025-02-11T09:46:12Z</time>
      </trkpt>
      <trkpt lat="47.82077" lon="-2.41861">
        <ele>39</ele>
        <time>2025-02-11T09:46:13Z</time>
      </trkpt>
      <trkpt lat="47.82078" lon="-2.41861">
        <ele>39</ele>
        <time>2025-02-11T09:46:14Z</time>
      </trkpt>
      <trkpt lat="47.82079" lon="-2.41861">
        <ele>39</ele>
        <time>2025-02-11T09:46:15Z</time>
      </trkpt>
      <trkpt lat="47.8208" lon="-2.41861">
        <ele>39</ele>
        <time>2025-02-11T09:46:16Z</time>
      </trkpt>
      <trkpt lat="47.82082" lon="-2.41862">
        <ele>39</ele>
        <time>2025-02-11T09:46:17Z</time>
      </trkpt>
      <trkpt lat="47.82083" lon="-2.41864">
        <ele>38.9</ele>
        <time>2025-02-11T09:46:18Z</time>
      </trkpt>
      <trkpt lat="47.82084" lon="-2.41864">
        <ele>38.9</ele>
        <time>2025-02-11T09:46:19Z</time>
      </trkpt>
      <trkpt lat="47.82084" lon="-2.41866">
        <ele>38.8</ele>
        <time>2025-02-11T09:46:20Z</time>
      </trkpt>
      <trkpt lat="47.82085" lon="-2.41867">
        <ele>38.6</ele>
        <time>2025-02-11T09:46:21Z</time>
      </trkpt>
      <trkpt lat="47.82086" lon="-2.41867">
        <ele>38.6</ele>
        <time>2025-02-11T09:46:22Z</time>
      </trkpt>
      <trkpt lat="47.82087" lon="-2.41868">
        <ele>38.5</ele>
        <time>2025-02-11T09:46:23Z</time>
      </trkpt>
      <trkpt lat="47.82089" lon="-2.41868">
        <ele>38.4</ele>
        <time>2025-02-11T09:46:24Z</time>
      </trkpt>
      <trkpt lat="47.8209" lon="-2.41868">
        <ele>38.3</ele>
        <time>2025-02-11T09:46:25Z</time>
      </trkpt>
      <trkpt lat="47.82091" lon="-2.41869">
        <ele>38.2</ele>
        <time>2025-02-11T09:46:26Z</time>
      </trkpt>
      <trkpt lat="47.82092" lon="-2.4187">
        <ele>38.1</ele>
        <time>2025-02-11T09:46:27Z</time>
      </trkpt>
      <trkpt lat="47.82093" lon="-2.41871">
        <ele>38.1</ele>
        <time>2025-02-11T09:46:28Z</time>
      </trkpt>
      <trkpt lat="47.82095" lon="-2.41871">
        <ele>38</ele>
        <time>2025-02-11T09:46:29Z</time>
      </trkpt>
      <trkpt lat="47.82096" lon="-2.41872">
        <ele>38</ele>
        <time>2025-02-11T09:46:30Z</time>
      </trkpt>
      <trkpt lat="47.82097" lon="-2.41872">
        <ele>37.9</ele>
        <time>2025-02-11T09:46:31Z</time>
      </trkpt>
      <trkpt lat="47.82098" lon="-2.41873">
        <ele>37.9</ele>
        <time>2025-02-11T09:46:32Z</time>
      </trkpt>
      <trkpt lat="47.82099" lon="-2.41873">
        <ele>37.8</ele>
        <time>2025-02-11T09:46:33Z</time>
      </trkpt>
      <trkpt lat="47.821" lon="-2.41874">
        <ele>37.8</ele>
        <time>2025-02-11T09:46:34Z</time>
      </trkpt>
      <trkpt lat="47.82101" lon="-2.41875">
        <ele>37.8</ele>
        <time>2025-02-11T09:46:35Z</time>
      </trkpt>
      <trkpt lat="47.82103" lon="-2.41876">
        <ele>37.9</ele>
        <time>2025-02-11T09:46:36Z</time>
      </trkpt>
      <trkpt lat="47.82104" lon="-2.41876">
        <ele>37.9</ele>
        <time>2025-02-11T09:46:37Z</time>
      </trkpt>
      <trkpt lat="47.82105" lon="-2.41877">
        <ele>37.9</ele>
        <time>2025-02-11T09:46:38Z</time>
      </trkpt>
      <trkpt lat="47.82106" lon="-2.41878">
        <ele>37.9</ele>
        <time>2025-02-11T09:46:39Z</time>
      </trkpt>
      <trkpt lat="47.82107" lon="-2.41879">
        <ele>38</ele>
        <time>2025-02-11T09:46:40Z</time>
      </trkpt>
      <trkpt lat="47.82108" lon="-2.41879">
        <ele>38</ele>
        <time>2025-02-11T09:46:41Z</time>
      </trkpt>
      <trkpt lat="47.8211" lon="-2.4188">
        <ele>38</ele>
        <time>2025-02-11T09:46:42Z</time>
      </trkpt>
      <trkpt lat="47.82111" lon="-2.41881">
        <ele>38.1</ele>
        <time>2025-02-11T09:46:43Z</time>
      </trkpt>
      <trkpt lat="47.82111" lon="-2.41882">
        <ele>38.2</ele>
        <time>2025-02-11T09:46:44Z</time>
      </trkpt>
      <trkpt lat="47.82112" lon="-2.41883">
        <ele>38.3</ele>
        <time>2025-02-11T09:46:45Z</time>
      </trkpt>
      <trkpt lat="47.82113" lon="-2.41884">
        <ele>38.3</ele>
        <time>2025-02-11T09:46:46Z</time>
      </trkpt>
      <trkpt lat="47.82114" lon="-2.41884">
        <ele>38.3</ele>
        <time>2025-02-11T09:46:47Z</time>
      </trkpt>
      <trkpt lat="47.82115" lon="-2.41885">
        <ele>38.3</ele>
        <time>2025-02-11T09:46:48Z</time>
      </trkpt>
      <trkpt lat="47.82116" lon="-2.41886">
        <ele>38.3</ele>
        <time>2025-02-11T09:46:49Z</time>
      </trkpt>
      <trkpt lat="47.82118" lon="-2.41886">
        <ele>38.3</ele>
        <time>2025-02-11T09:46:50Z</time>
      </trkpt>
      <trkpt lat="47.82119" lon="-2.41887">
        <ele>38.2</ele>
        <time>2025-02-11T09:46:51Z</time>
      </trkpt>
      <trkpt lat="47.8212" lon="-2.41887">
        <ele>38.2</ele>
        <time>2025-02-11T09:46:52Z</time>
      </trkpt>
      <trkpt lat="47.82121" lon="-2.41888">
        <ele>38.2</ele>
        <time>2025-02-11T09:46:53Z</time>
      </trkpt>
      <trkpt lat="47.82123" lon="-2.41889">
        <ele>38.1</ele>
        <time>2025-02-11T09:46:54Z</time>
      </trkpt>
      <trkpt lat="47.82124" lon="-2.4189">
        <ele>38.1</ele>
        <time>2025-02-11T09:46:55Z</time>
      </trkpt>
      <trkpt lat="47.82125" lon="-2.41891">
        <ele>38</ele>
        <time>2025-02-11T09:46:56Z</time>
      </trkpt>
      <trkpt lat="47.82126" lon="-2.41892">
        <ele>37.9</ele>
        <time>2025-02-11T09:46:57Z</time>
      </trkpt>
      <trkpt lat="47.82127" lon="-2.41892">
        <ele>37.8</ele>
        <time>2025-02-11T09:46:58Z</time>
      </trkpt>
      <trkpt lat="47.82129" lon="-2.41892">
        <ele>37.7</ele>
        <time>2025-02-11T09:46:59Z</time>
      </trkpt>
      <trkpt lat="47.8213" lon="-2.41893">
        <ele>37.6</ele>
        <time>2025-02-11T09:47:00Z</time>
      </trkpt>
      <trkpt lat="47.82131" lon="-2.41893">
        <ele>37.5</ele>
        <time>2025-02-11T09:47:01Z</time>
      </trkpt>
      <trkpt lat="47.82132" lon="-2.41894">
        <ele>37.4</ele>
        <time>2025-02-11T09:47:02Z</time>
      </trkpt>
      <trkpt lat="47.82133" lon="-2.41895">
        <ele>37.4</ele>
        <time>2025-02-11T09:47:03Z</time>
      </trkpt>
      <trkpt lat="47.82135" lon="-2.41896">
        <ele>37.3</ele>
        <time>2025-02-11T09:47:04Z</time>
      </trkpt>
      <trkpt lat="47.82136" lon="-2.41897">
        <ele>37.2</ele>
        <time>2025-02-11T09:47:05Z</time>
      </trkpt>
      <trkpt lat="47.82137" lon="-2.41897">
        <ele>37.1</ele>
        <time>2025-02-11T09:47:06Z</time>
      </trkpt>
      <trkpt lat="47.82139" lon="-2.41898">
        <ele>37</ele>
        <time>2025-02-11T09:47:07Z</time>
      </trkpt>
      <trkpt lat="47.8214" lon="-2.41898">
        <ele>37</ele>
        <time>2025-02-11T09:47:08Z</time>
      </trkpt>
      <trkpt lat="47.82141" lon="-2.41899">
        <ele>37</ele>
        <time>2025-02-11T09:47:09Z</time>
      </trkpt>
      <trkpt lat="47.82142" lon="-2.419">
        <ele>37</ele>
        <time>2025-02-11T09:47:10Z</time>
      </trkpt>
      <trkpt lat="47.82143" lon="-2.419">
        <ele>37</ele>
        <time>2025-02-11T09:47:11Z</time>
      </trkpt>
      <trkpt lat="47.82144" lon="-2.41901">
        <ele>37</ele>
        <time>2025-02-11T09:47:12Z</time>
      </trkpt>
      <trkpt lat="47.82145" lon="-2.41902">
        <ele>37</ele>
        <time>2025-02-11T09:47:13Z</time>
      </trkpt>
      <trkpt lat="47.82146" lon="-2.41902">
        <ele>37</ele>
        <time>2025-02-11T09:47:14Z</time>
      </trkpt>
      <trkpt lat="47.82148" lon="-2.41903">
        <ele>37</ele>
        <time>2025-02-11T09:47:15Z</time>
      </trkpt>
      <trkpt lat="47.82149" lon="-2.41903">
        <ele>37</ele>
        <time>2025-02-11T09:47:16Z</time>
      </trkpt>
      <trkpt lat="47.8215" lon="-2.41903">
        <ele>37</ele>
        <time>2025-02-11T09:47:17Z</time>
      </trkpt>
      <trkpt lat="47.82151" lon="-2.41904">
        <ele>37</ele>
        <time>2025-02-11T09:47:18Z</time>
      </trkpt>
      <trkpt lat="47.82152" lon="-2.41906">
        <ele>37.1</ele>
        <time>2025-02-11T09:47:19Z</time>
      </trkpt>
      <trkpt lat="47.82153" lon="-2.41907">
        <ele>37.2</ele>
        <time>2025-02-11T09:47:20Z</time>
      </trkpt>
      <trkpt lat="47.82154" lon="-2.41909">
        <ele>37.2</ele>
        <time>2025-02-11T09:47:21Z</time>
      </trkpt>
      <trkpt lat="47.82155" lon="-2.4191">
        <ele>37.3</ele>
        <time>2025-02-11T09:47:22Z</time>
      </trkpt>
      <trkpt lat="47.82156" lon="-2.41911">
        <ele>37.3</ele>
        <time>2025-02-11T09:47:23Z</time>
      </trkpt>
      <trkpt lat="47.82157" lon="-2.41912">
        <ele>37.4</ele>
        <time>2025-02-11T09:47:24Z</time>
      </trkpt>
      <trkpt lat="47.82158" lon="-2.41912">
        <ele>37.5</ele>
        <time>2025-02-11T09:47:25Z</time>
      </trkpt>
      <trkpt lat="47.82159" lon="-2.41913">
        <ele>37.5</ele>
        <time>2025-02-11T09:47:26Z</time>
      </trkpt>
      <trkpt lat="47.8216" lon="-2.41914">
        <ele>37.6</ele>
        <time>2025-02-11T09:47:27Z</time>
      </trkpt>
      <trkpt lat="47.82161" lon="-2.41915">
        <ele>37.7</ele>
        <time>2025-02-11T09:47:28Z</time>
      </trkpt>
      <trkpt lat="47.82161" lon="-2.41916">
        <ele>37.8</ele>
        <time>2025-02-11T09:47:29Z</time>
      </trkpt>
      <trkpt lat="47.8216" lon="-2.41919">
        <ele>37.8</ele>
        <time>2025-02-11T09:47:30Z</time>
      </trkpt>
      <trkpt lat="47.82158" lon="-2.4192">
        <ele>37.7</ele>
        <time>2025-02-11T09:47:31Z</time>
      </trkpt>
      <trkpt lat="47.82157" lon="-2.4192">
        <ele>37.7</ele>
        <time>2025-02-11T09:47:32Z</time>
      </trkpt>
      <trkpt lat="47.82155" lon="-2.41921">
        <ele>37.7</ele>
        <time>2025-02-11T09:47:33Z</time>
      </trkpt>
      <trkpt lat="47.82154" lon="-2.41921">
        <ele>37.6</ele>
        <time>2025-02-11T09:47:34Z</time>
      </trkpt>
      <trkpt lat="47.82153" lon="-2.41922">
        <ele>37.6</ele>
        <time>2025-02-11T09:47:35Z</time>
      </trkpt>
      <trkpt lat="47.82151" lon="-2.41921">
        <ele>37.5</ele>
        <time>2025-02-11T09:47:36Z</time>
      </trkpt>
      <trkpt lat="47.82149" lon="-2.41921">
        <ele>37.5</ele>
        <time>2025-02-11T09:47:37Z</time>
      </trkpt>
      <trkpt lat="47.82148" lon="-2.41921">
        <ele>37.4</ele>
        <time>2025-02-11T09:47:38Z</time>
      </trkpt>
      <trkpt lat="47.82146" lon="-2.41921">
        <ele>37.4</ele>
        <time>2025-02-11T09:47:39Z</time>
      </trkpt>
      <trkpt lat="47.82145" lon="-2.41921">
        <ele>37.3</ele>
        <time>2025-02-11T09:47:40Z</time>
      </trkpt>
      <trkpt lat="47.82143" lon="-2.41921">
        <ele>37.3</ele>
        <time>2025-02-11T09:47:41Z</time>
      </trkpt>
      <trkpt lat="47.82142" lon="-2.41922">
        <ele>37.3</ele>
        <time>2025-02-11T09:47:42Z</time>
      </trkpt>
      <trkpt lat="47.82141" lon="-2.41922">
        <ele>37.3</ele>
        <time>2025-02-11T09:47:43Z</time>
      </trkpt>
      <trkpt lat="47.8214" lon="-2.41923">
        <ele>37.3</ele>
        <time>2025-02-11T09:47:44Z</time>
      </trkpt>
      <trkpt lat="47.8214" lon="-2.41925">
        <ele>37.3</ele>
        <time>2025-02-11T09:47:45Z</time>
      </trkpt>
      <trkpt lat="47.82139" lon="-2.41926">
        <ele>37.3</ele>
        <time>2025-02-11T09:47:46Z</time>
      </trkpt>
      <trkpt lat="47.82138" lon="-2.41927">
        <ele>37.4</ele>
        <time>2025-02-11T09:47:47Z</time>
      </trkpt>
      <trkpt lat="47.82137" lon="-2.41927">
        <ele>37.4</ele>
        <time>2025-02-11T09:47:48Z</time>
      </trkpt>
      <trkpt lat="47.82136" lon="-2.41926">
        <ele>37.5</ele>
        <time>2025-02-11T09:47:49Z</time>
      </trkpt>
      <trkpt lat="47.82135" lon="-2.41924">
        <ele>37.4</ele>
        <time>2025-02-11T09:47:50Z</time>
      </trkpt>
      <trkpt lat="47.82135" lon="-2.41921">
        <ele>37.3</ele>
        <time>2025-02-11T09:47:51Z</time>
      </trkpt>
      <trkpt lat="47.82134" lon="-2.41919">
        <ele>37.3</ele>
        <time>2025-02-11T09:47:52Z</time>
      </trkpt>
      <trkpt lat="47.82133" lon="-2.41918">
        <ele>37.3</ele>
        <time>2025-02-11T09:47:53Z</time>
      </trkpt>
      <trkpt lat="47.82132" lon="-2.41917">
        <ele>37.3</ele>
        <time>2025-02-11T09:47:54Z</time>
      </trkpt>
      <trkpt lat="47.82131" lon="-2.41917">
        <ele>37.3</ele>
        <time>2025-02-11T09:47:55Z</time>
      </trkpt>
      <trkpt lat="47.8213" lon="-2.41917">
        <ele>37.3</ele>
        <time>2025-02-11T09:47:56Z</time>
      </trkpt>
      <trkpt lat="47.82128" lon="-2.41917">
        <ele>37.4</ele>
        <time>2025-02-11T09:47:57Z</time>
      </trkpt>
      <trkpt lat="47.82128" lon="-2.41917">
        <ele>37.4</ele>
        <time>2025-02-11T09:47:58Z</time>
      </trkpt>
      <trkpt lat="47.82126" lon="-2.41918">
        <ele>37.5</ele>
        <time>2025-02-11T09:47:59Z</time>
      </trkpt>
      <trkpt lat="47.82125" lon="-2.41919">
        <ele>37.6</ele>
        <time>2025-02-11T09:48:00Z</time>
      </trkpt>
      <trkpt lat="47.82125" lon="-2.4192">
        <ele>37.7</ele>
        <time>2025-02-11T09:48:01Z</time>
      </trkpt>
      <trkpt lat="47.82123" lon="-2.41921">
        <ele>37.7</ele>
        <time>2025-02-11T09:48:02Z</time>
      </trkpt>
      <trkpt lat="47.82122" lon="-2.41922">
        <ele>37.8</ele>
        <time>2025-02-11T09:48:03Z</time>
      </trkpt>
      <trkpt lat="47.82122" lon="-2.41922">
        <ele>37.8</ele>
        <time>2025-02-11T09:48:04Z</time>
      </trkpt>
      <trkpt lat="47.82121" lon="-2.41924">
        <ele>37.9</ele>
        <time>2025-02-11T09:48:05Z</time>
      </trkpt>
      <trkpt lat="47.82121" lon="-2.41926">
        <ele>38</ele>
        <time>2025-02-11T09:48:06Z</time>
      </trkpt>
      <trkpt lat="47.8212" lon="-2.41928">
        <ele>38.1</ele>
        <time>2025-02-11T09:48:07Z</time>
      </trkpt>
      <trkpt lat="47.82119" lon="-2.4193">
        <ele>38.2</ele>
        <time>2025-02-11T09:48:08Z</time>
      </trkpt>
      <trkpt lat="47.82119" lon="-2.41931">
        <ele>38.2</ele>
        <time>2025-02-11T09:48:09Z</time>
      </trkpt>
      <trkpt lat="47.82118" lon="-2.41933">
        <ele>38.3</ele>
        <time>2025-02-11T09:48:10Z</time>
      </trkpt>
      <trkpt lat="47.82118" lon="-2.41934">
        <ele>38.4</ele>
        <time>2025-02-11T09:48:11Z</time>
      </trkpt>
      <trkpt lat="47.82118" lon="-2.41937">
        <ele>38.5</ele>
        <time>2025-02-11T09:48:12Z</time>
      </trkpt>
      <trkpt lat="47.82118" lon="-2.41939">
        <ele>38.5</ele>
        <time>2025-02-11T09:48:13Z</time>
      </trkpt>
      <trkpt lat="47.82118" lon="-2.41941">
        <ele>38.6</ele>
        <time>2025-02-11T09:48:14Z</time>
      </trkpt>
      <trkpt lat="47.82118" lon="-2.41943">
        <ele>38.7</ele>
        <time>2025-02-11T09:48:15Z</time>
      </trkpt>
      <trkpt lat="47.82118" lon="-2.41945">
        <ele>38.8</ele>
        <time>2025-02-11T09:48:16Z</time>
      </trkpt>
      <trkpt lat="47.82118" lon="-2.41946">
        <ele>38.8</ele>
        <time>2025-02-11T09:48:17Z</time>
      </trkpt>
      <trkpt lat="47.82117" lon="-2.41948">
        <ele>38.9</ele>
        <time>2025-02-11T09:48:18Z</time>
      </trkpt>
      <trkpt lat="47.82116" lon="-2.41949">
        <ele>39</ele>
        <time>2025-02-11T09:48:19Z</time>
      </trkpt>
      <trkpt lat="47.82115" lon="-2.4195">
        <ele>39</ele>
        <time>2025-02-11T09:48:20Z</time>
      </trkpt>
      <trkpt lat="47.82114" lon="-2.4195">
        <ele>39.1</ele>
        <time>2025-02-11T09:48:21Z</time>
      </trkpt>
      <trkpt lat="47.82113" lon="-2.41951">
        <ele>39.2</ele>
        <time>2025-02-11T09:48:22Z</time>
      </trkpt>
      <trkpt lat="47.82113" lon="-2.41952">
        <ele>39.2</ele>
        <time>2025-02-11T09:48:23Z</time>
      </trkpt>
      <trkpt lat="47.82111" lon="-2.41952">
        <ele>39.3</ele>
        <time>2025-02-11T09:48:24Z</time>
      </trkpt>
      <trkpt lat="47.8211" lon="-2.41952">
        <ele>39.3</ele>
        <time>2025-02-11T09:48:25Z</time>
      </trkpt>
      <trkpt lat="47.82109" lon="-2.41952">
        <ele>39.3</ele>
        <time>2025-02-11T09:48:26Z</time>
      </trkpt>
      <trkpt lat="47.82107" lon="-2.41951">
        <ele>39.4</ele>
        <time>2025-02-11T09:48:27Z</time>
      </trkpt>
      <trkpt lat="47.82106" lon="-2.41949">
        <ele>39.4</ele>
        <time>2025-02-11T09:48:28Z</time>
      </trkpt>
      <trkpt lat="47.82105" lon="-2.41949">
        <ele>39.4</ele>
        <time>2025-02-11T09:48:29Z</time>
      </trkpt>
      <trkpt lat="47.82104" lon="-2.41948">
        <ele>39.4</ele>
        <time>2025-02-11T09:48:30Z</time>
      </trkpt>
      <trkpt lat="47.82102" lon="-2.41949">
        <ele>39.5</ele>
        <time>2025-02-11T09:48:31Z</time>
      </trkpt>
      <trkpt lat="47.82102" lon="-2.41949">
        <ele>39.5</ele>
        <time>2025-02-11T09:48:32Z</time>
      </trkpt>
      <trkpt lat="47.82101" lon="-2.41952">
        <ele>39.6</ele>
        <time>2025-02-11T09:48:33Z</time>
      </trkpt>
      <trkpt lat="47.82101" lon="-2.41954">
        <ele>39.7</ele>
        <time>2025-02-11T09:48:34Z</time>
      </trkpt>
      <trkpt lat="47.82101" lon="-2.41955">
        <ele>39.8</ele>
        <time>2025-02-11T09:48:35Z</time>
      </trkpt>
      <trkpt lat="47.82101" lon="-2.41958">
        <ele>39.8</ele>
        <time>2025-02-11T09:48:36Z</time>
      </trkpt>
      <trkpt lat="47.82102" lon="-2.4196">
        <ele>39.9</ele>
        <time>2025-02-11T09:48:37Z</time>
      </trkpt>
      <trkpt lat="47.82103" lon="-2.41961">
        <ele>39.9</ele>
        <time>2025-02-11T09:48:38Z</time>
      </trkpt>
      <trkpt lat="47.82104" lon="-2.41963">
        <ele>39.9</ele>
        <time>2025-02-11T09:48:39Z</time>
      </trkpt>
      <trkpt lat="47.82105" lon="-2.41964">
        <ele>39.9</ele>
        <time>2025-02-11T09:48:40Z</time>
      </trkpt>
      <trkpt lat="47.82107" lon="-2.41966">
        <ele>39.9</ele>
        <time>2025-02-11T09:48:41Z</time>
      </trkpt>
      <trkpt lat="47.82108" lon="-2.41966">
        <ele>39.9</ele>
        <time>2025-02-11T09:48:42Z</time>
      </trkpt>
      <trkpt lat="47.82109" lon="-2.41967">
        <ele>39.9</ele>
        <time>2025-02-11T09:48:43Z</time>
      </trkpt>
      <trkpt lat="47.82111" lon="-2.41967">
        <ele>39.8</ele>
        <time>2025-02-11T09:48:44Z</time>
      </trkpt>
      <trkpt lat="47.82111" lon="-2.41969">
        <ele>39.9</ele>
        <time>2025-02-11T09:48:45Z</time>
      </trkpt>
      <trkpt lat="47.82111" lon="-2.41971">
        <ele>39.9</ele>
        <time>2025-02-11T09:48:46Z</time>
      </trkpt>
      <trkpt lat="47.82112" lon="-2.41972">
        <ele>40</ele>
        <time>2025-02-11T09:48:47Z</time>
      </trkpt>
      <trkpt lat="47.82112" lon="-2.41973">
        <ele>40</ele>
        <time>2025-02-11T09:48:48Z</time>
      </trkpt>
      <trkpt lat="47.82113" lon="-2.41975">
        <ele>40</ele>
        <time>2025-02-11T09:48:49Z</time>
      </trkpt>
      <trkpt lat="47.82113" lon="-2.41976">
        <ele>39.9</ele>
        <time>2025-02-11T09:48:50Z</time>
      </trkpt>
      <trkpt lat="47.82115" lon="-2.41977">
        <ele>39.9</ele>
        <time>2025-02-11T09:48:51Z</time>
      </trkpt>
      <trkpt lat="47.82116" lon="-2.41977">
        <ele>39.9</ele>
        <time>2025-02-11T09:48:52Z</time>
      </trkpt>
      <trkpt lat="47.82117" lon="-2.41978">
        <ele>39.8</ele>
        <time>2025-02-11T09:48:53Z</time>
      </trkpt>
      <trkpt lat="47.82119" lon="-2.41977">
        <ele>39.8</ele>
        <time>2025-02-11T09:48:54Z</time>
      </trkpt>
      <trkpt lat="47.8212" lon="-2.41977">
        <ele>39.7</ele>
        <time>2025-02-11T09:48:55Z</time>
      </trkpt>
      <trkpt lat="47.82121" lon="-2.41977">
        <ele>39.7</ele>
        <time>2025-02-11T09:48:56Z</time>
      </trkpt>
      <trkpt lat="47.82122" lon="-2.41977">
        <ele>39.7</ele>
        <time>2025-02-11T09:48:57Z</time>
      </trkpt>
      <trkpt lat="47.82123" lon="-2.41977">
        <ele>39.6</ele>
        <time>2025-02-11T09:48:58Z</time>
      </trkpt>
      <trkpt lat="47.82125" lon="-2.41977">
        <ele>39.6</ele>
        <time>2025-02-11T09:48:59Z</time>
      </trkpt>
      <trkpt lat="47.82126" lon="-2.41977">
        <ele>39.6</ele>
        <time>2025-02-11T09:49:00Z</time>
      </trkpt>
      <trkpt lat="47.82127" lon="-2.41977">
        <ele>39.5</ele>
        <time>2025-02-11T09:49:01Z</time>
      </trkpt>
      <trkpt lat="47.82128" lon="-2.41977">
        <ele>39.5</ele>
        <time>2025-02-11T09:49:02Z</time>
      </trkpt>
      <trkpt lat="47.82129" lon="-2.41978">
        <ele>39.5</ele>
        <time>2025-02-11T09:49:03Z</time>
      </trkpt>
      <trkpt lat="47.8213" lon="-2.41978">
        <ele>39.5</ele>
        <time>2025-02-11T09:49:04Z</time>
      </trkpt>
      <trkpt lat="47.82131" lon="-2.41978">
        <ele>39.4</ele>
        <time>2025-02-11T09:49:05Z</time>
      </trkpt>
      <trkpt lat="47.82133" lon="-2.41979">
        <ele>39.4</ele>
        <time>2025-02-11T09:49:06Z</time>
      </trkpt>
      <trkpt lat="47.82134" lon="-2.41979">
        <ele>39.4</ele>
        <time>2025-02-11T09:49:07Z</time>
      </trkpt>
      <trkpt lat="47.82135" lon="-2.41979">
        <ele>39.3</ele>
        <time>2025-02-11T09:49:08Z</time>
      </trkpt>
      <trkpt lat="47.82136" lon="-2.4198">
        <ele>39.3</ele>
        <time>2025-02-11T09:49:09Z</time>
      </trkpt>
      <trkpt lat="47.82137" lon="-2.4198">
        <ele>39.3</ele>
        <time>2025-02-11T09:49:10Z</time>
      </trkpt>
      <trkpt lat="47.82138" lon="-2.4198">
        <ele>39.3</ele>
        <time>2025-02-11T09:49:11Z</time>
      </trkpt>
      <trkpt lat="47.82139" lon="-2.41981">
        <ele>39.3</ele>
        <time>2025-02-11T09:49:12Z</time>
      </trkpt>
      <trkpt lat="47.8214" lon="-2.41981">
        <ele>39.3</ele>
        <time>2025-02-11T09:49:13Z</time>
      </trkpt>
      <trkpt lat="47.82141" lon="-2.41981">
        <ele>39.3</ele>
        <time>2025-02-11T09:49:14Z</time>
      </trkpt>
      <trkpt lat="47.82142" lon="-2.41981">
        <ele>39.3</ele>
        <time>2025-02-11T09:49:15Z</time>
      </trkpt>
      <trkpt lat="47.82143" lon="-2.41981">
        <ele>39.3</ele>
        <time>2025-02-11T09:49:16Z</time>
      </trkpt>
      <trkpt lat="47.82144" lon="-2.41981">
        <ele>39.3</ele>
        <time>2025-02-11T09:49:17Z</time>
      </trkpt>
      <trkpt lat="47.82146" lon="-2.41981">
        <ele>39.3</ele>
        <time>2025-02-11T09:49:18Z</time>
      </trkpt>
      <trkpt lat="47.82147" lon="-2.41982">
        <ele>39.3</ele>
        <time>2025-02-11T09:49:19Z</time>
      </trkpt>
      <trkpt lat="47.82148" lon="-2.41982">
        <ele>39.4</ele>
        <time>2025-02-11T09:49:20Z</time>
      </trkpt>
      <trkpt lat="47.82149" lon="-2.41983">
        <ele>39.4</ele>
        <time>2025-02-11T09:49:21Z</time>
      </trkpt>
      <trkpt lat="47.8215" lon="-2.41983">
        <ele>39.4</ele>
        <time>2025-02-11T09:49:22Z</time>
      </trkpt>
      <trkpt lat="47.82151" lon="-2.41983">
        <ele>39.4</ele>
        <time>2025-02-11T09:49:23Z</time>
      </trkpt>
      <trkpt lat="47.82153" lon="-2.41984">
        <ele>39.4</ele>
        <time>2025-02-11T09:49:24Z</time>
      </trkpt>
      <trkpt lat="47.82154" lon="-2.41985">
        <ele>39.4</ele>
        <time>2025-02-11T09:49:25Z</time>
      </trkpt>
      <trkpt lat="47.82155" lon="-2.41985">
        <ele>39.5</ele>
        <time>2025-02-11T09:49:26Z</time>
      </trkpt>
      <trkpt lat="47.82156" lon="-2.41986">
        <ele>39.5</ele>
        <time>2025-02-11T09:49:27Z</time>
      </trkpt>
      <trkpt lat="47.82157" lon="-2.41986">
        <ele>39.5</ele>
        <time>2025-02-11T09:49:28Z</time>
      </trkpt>
      <trkpt lat="47.82158" lon="-2.41986">
        <ele>39.5</ele>
        <time>2025-02-11T09:49:29Z</time>
      </trkpt>
      <trkpt lat="47.82159" lon="-2.41987">
        <ele>39.5</ele>
        <time>2025-02-11T09:49:30Z</time>
      </trkpt>
      <trkpt lat="47.8216" lon="-2.41987">
        <ele>39.5</ele>
        <time>2025-02-11T09:49:31Z</time>
      </trkpt>
      <trkpt lat="47.82161" lon="-2.41987">
        <ele>39.5</ele>
        <time>2025-02-11T09:49:32Z</time>
      </trkpt>
      <trkpt lat="47.82163" lon="-2.41988">
        <ele>39.6</ele>
        <time>2025-02-11T09:49:33Z</time>
      </trkpt>
      <trkpt lat="47.82164" lon="-2.41988">
        <ele>39.6</ele>
        <time>2025-02-11T09:49:34Z</time>
      </trkpt>
      <trkpt lat="47.82165" lon="-2.41988">
        <ele>39.6</ele>
        <time>2025-02-11T09:49:35Z</time>
      </trkpt>
      <trkpt lat="47.82166" lon="-2.41989">
        <ele>39.6</ele>
        <time>2025-02-11T09:49:36Z</time>
      </trkpt>
      <trkpt lat="47.82168" lon="-2.41989">
        <ele>39.6</ele>
        <time>2025-02-11T09:49:37Z</time>
      </trkpt>
      <trkpt lat="47.82169" lon="-2.4199">
        <ele>39.6</ele>
        <time>2025-02-11T09:49:38Z</time>
      </trkpt>
      <trkpt lat="47.8217" lon="-2.4199">
        <ele>39.6</ele>
        <time>2025-02-11T09:49:39Z</time>
      </trkpt>
      <trkpt lat="47.82171" lon="-2.4199">
        <ele>39.6</ele>
        <time>2025-02-11T09:49:40Z</time>
      </trkpt>
      <trkpt lat="47.82173" lon="-2.41991">
        <ele>39.7</ele>
        <time>2025-02-11T09:49:41Z</time>
      </trkpt>
      <trkpt lat="47.82174" lon="-2.41991">
        <ele>39.7</ele>
        <time>2025-02-11T09:49:42Z</time>
      </trkpt>
      <trkpt lat="47.82175" lon="-2.41991">
        <ele>39.7</ele>
        <time>2025-02-11T09:49:43Z</time>
      </trkpt>
      <trkpt lat="47.82176" lon="-2.41992">
        <ele>39.7</ele>
        <time>2025-02-11T09:49:44Z</time>
      </trkpt>
      <trkpt lat="47.82177" lon="-2.41992">
        <ele>39.7</ele>
        <time>2025-02-11T09:49:45Z</time>
      </trkpt>
      <trkpt lat="47.82179" lon="-2.41992">
        <ele>39.7</ele>
        <time>2025-02-11T09:49:46Z</time>
      </trkpt>
      <trkpt lat="47.8218" lon="-2.41993">
        <ele>39.7</ele>
        <time>2025-02-11T09:49:47Z</time>
      </trkpt>
      <trkpt lat="47.82181" lon="-2.41993">
        <ele>39.8</ele>
        <time>2025-02-11T09:49:48Z</time>
      </trkpt>
      <trkpt lat="47.82182" lon="-2.41994">
        <ele>39.8</ele>
        <time>2025-02-11T09:49:49Z</time>
      </trkpt>
      <trkpt lat="47.82183" lon="-2.41994">
        <ele>39.8</ele>
        <time>2025-02-11T09:49:50Z</time>
      </trkpt>
      <trkpt lat="47.82184" lon="-2.41994">
        <ele>39.8</ele>
        <time>2025-02-11T09:49:51Z</time>
      </trkpt>
      <trkpt lat="47.82186" lon="-2.41995">
        <ele>39.8</ele>
        <time>2025-02-11T09:49:52Z</time>
      </trkpt>
      <trkpt lat="47.82187" lon="-2.41995">
        <ele>39.8</ele>
        <time>2025-02-11T09:49:53Z</time>
      </trkpt>
      <trkpt lat="47.82188" lon="-2.41996">
        <ele>39.8</ele>
        <time>2025-02-11T09:49:54Z</time>
      </trkpt>
      <trkpt lat="47.82189" lon="-2.41996">
        <ele>39.9</ele>
        <time>2025-02-11T09:49:55Z</time>
      </trkpt>
      <trkpt lat="47.8219" lon="-2.41997">
        <ele>39.9</ele>
        <time>2025-02-11T09:49:56Z</time>
      </trkpt>
      <trkpt lat="47.82191" lon="-2.41997">
        <ele>39.9</ele>
        <time>2025-02-11T09:49:57Z</time>
      </trkpt>
      <trkpt lat="47.82192" lon="-2.41997">
        <ele>39.9</ele>
        <time>2025-02-11T09:49:58Z</time>
      </trkpt>
      <trkpt lat="47.82194" lon="-2.41997">
        <ele>39.9</ele>
        <time>2025-02-11T09:49:59Z</time>
      </trkpt>
      <trkpt lat="47.82195" lon="-2.41997">
        <ele>39.9</ele>
        <time>2025-02-11T09:50:00Z</time>
      </trkpt>
      <trkpt lat="47.82196" lon="-2.41998">
        <ele>39.9</ele>
        <time>2025-02-11T09:50:01Z</time>
      </trkpt>
      <trkpt lat="47.82197" lon="-2.41999">
        <ele>40</ele>
        <time>2025-02-11T09:50:02Z</time>
      </trkpt>
      <trkpt lat="47.82198" lon="-2.42">
        <ele>40</ele>
        <time>2025-02-11T09:50:03Z</time>
      </trkpt>
      <trkpt lat="47.82199" lon="-2.42">
        <ele>40</ele>
        <time>2025-02-11T09:50:04Z</time>
      </trkpt>
      <trkpt lat="47.822" lon="-2.42001">
        <ele>40</ele>
        <time>2025-02-11T09:50:05Z</time>
      </trkpt>
      <trkpt lat="47.82202" lon="-2.42">
        <ele>40</ele>
        <time>2025-02-11T09:50:06Z</time>
      </trkpt>
      <trkpt lat="47.82203" lon="-2.42">
        <ele>40</ele>
        <time>2025-02-11T09:50:07Z</time>
      </trkpt>
      <trkpt lat="47.82204" lon="-2.42">
        <ele>40</ele>
        <time>2025-02-11T09:50:08Z</time>
      </trkpt>
      <trkpt lat="47.82205" lon="-2.42001">
        <ele>40.1</ele>
        <time>2025-02-11T09:50:09Z</time>
      </trkpt>
      <trkpt lat="47.82206" lon="-2.42002">
        <ele>40.1</ele>
        <time>2025-02-11T09:50:10Z</time>
      </trkpt>
      <trkpt lat="47.82207" lon="-2.42002">
        <ele>40.2</ele>
        <time>2025-02-11T09:50:11Z</time>
      </trkpt>
      <trkpt lat="47.82208" lon="-2.42002">
        <ele>40.2</ele>
        <time>2025-02-11T09:50:12Z</time>
      </trkpt>
      <trkpt lat="47.82209" lon="-2.42003">
        <ele>40.2</ele>
        <time>2025-02-11T09:50:13Z</time>
      </trkpt>
      <trkpt lat="47.82211" lon="-2.42004">
        <ele>40.3</ele>
        <time>2025-02-11T09:50:14Z</time>
      </trkpt>
      <trkpt lat="47.82212" lon="-2.42004">
        <ele>40.3</ele>
        <time>2025-02-11T09:50:15Z</time>
      </trkpt>
      <trkpt lat="47.82213" lon="-2.42003">
        <ele>40.2</ele>
        <time>2025-02-11T09:50:16Z</time>
      </trkpt>
      <trkpt lat="47.82215" lon="-2.42004">
        <ele>40.3</ele>
        <time>2025-02-11T09:50:17Z</time>
      </trkpt>
      <trkpt lat="47.82216" lon="-2.42004">
        <ele>40.3</ele>
        <time>2025-02-11T09:50:18Z</time>
      </trkpt>
      <trkpt lat="47.82217" lon="-2.42004">
        <ele>40.3</ele>
        <time>2025-02-11T09:50:19Z</time>
      </trkpt>
      <trkpt lat="47.82218" lon="-2.42005">
        <ele>40.4</ele>
        <time>2025-02-11T09:50:20Z</time>
      </trkpt>
      <trkpt lat="47.82219" lon="-2.42005">
        <ele>40.4</ele>
        <time>2025-02-11T09:50:21Z</time>
      </trkpt>
      <trkpt lat="47.82221" lon="-2.42006">
        <ele>40.4</ele>
        <time>2025-02-11T09:50:22Z</time>
      </trkpt>
      <trkpt lat="47.82222" lon="-2.42006">
        <ele>40.5</ele>
        <time>2025-02-11T09:50:23Z</time>
      </trkpt>
      <trkpt lat="47.82223" lon="-2.42007">
        <ele>40.5</ele>
        <time>2025-02-11T09:50:24Z</time>
      </trkpt>
      <trkpt lat="47.82224" lon="-2.42007">
        <ele>40.6</ele>
        <time>2025-02-11T09:50:25Z</time>
      </trkpt>
      <trkpt lat="47.82225" lon="-2.42008">
        <ele>40.6</ele>
        <time>2025-02-11T09:50:26Z</time>
      </trkpt>
      <trkpt lat="47.82226" lon="-2.42008">
        <ele>40.7</ele>
        <time>2025-02-11T09:50:27Z</time>
      </trkpt>
      <trkpt lat="47.82227" lon="-2.42008">
        <ele>40.8</ele>
        <time>2025-02-11T09:50:28Z</time>
      </trkpt>
      <trkpt lat="47.82228" lon="-2.42008">
        <ele>40.8</ele>
        <time>2025-02-11T09:50:29Z</time>
      </trkpt>
      <trkpt lat="47.82229" lon="-2.42009">
        <ele>40.9</ele>
        <time>2025-02-11T09:50:30Z</time>
      </trkpt>
      <trkpt lat="47.82231" lon="-2.42009">
        <ele>41</ele>
        <time>2025-02-11T09:50:31Z</time>
      </trkpt>
      <trkpt lat="47.82232" lon="-2.4201">
        <ele>41</ele>
        <time>2025-02-11T09:50:32Z</time>
      </trkpt>
      <trkpt lat="47.82233" lon="-2.4201">
        <ele>41.1</ele>
        <time>2025-02-11T09:50:33Z</time>
      </trkpt>
      <trkpt lat="47.82234" lon="-2.4201">
        <ele>41.1</ele>
        <time>2025-02-11T09:50:34Z</time>
      </trkpt>
      <trkpt lat="47.82235" lon="-2.4201">
        <ele>41.2</ele>
        <time>2025-02-11T09:50:35Z</time>
      </trkpt>
      <trkpt lat="47.82236" lon="-2.42011">
        <ele>41.3</ele>
        <time>2025-02-11T09:50:36Z</time>
      </trkpt>
      <trkpt lat="47.82237" lon="-2.42011">
        <ele>41.4</ele>
        <time>2025-02-11T09:50:37Z</time>
      </trkpt>
      <trkpt lat="47.82239" lon="-2.42012">
        <ele>41.4</ele>
        <time>2025-02-11T09:50:38Z</time>
      </trkpt>
      <trkpt lat="47.8224" lon="-2.42012">
        <ele>41.5</ele>
        <time>2025-02-11T09:50:39Z</time>
      </trkpt>
      <trkpt lat="47.82241" lon="-2.42013">
        <ele>41.6</ele>
        <time>2025-02-11T09:50:40Z</time>
      </trkpt>
      <trkpt lat="47.82242" lon="-2.42013">
        <ele>41.6</ele>
        <time>2025-02-11T09:50:41Z</time>
      </trkpt>
      <trkpt lat="47.82243" lon="-2.42013">
        <ele>41.7</ele>
        <time>2025-02-11T09:50:42Z</time>
      </trkpt>
      <trkpt lat="47.82245" lon="-2.42013">
        <ele>41.8</ele>
        <time>2025-02-11T09:50:43Z</time>
      </trkpt>
      <trkpt lat="47.82246" lon="-2.42014">
        <ele>41.8</ele>
        <time>2025-02-11T09:50:44Z</time>
      </trkpt>
      <trkpt lat="47.82247" lon="-2.42014">
        <ele>41.9</ele>
        <time>2025-02-11T09:50:45Z</time>
      </trkpt>
      <trkpt lat="47.82248" lon="-2.42014">
        <ele>42</ele>
        <time>2025-02-11T09:50:46Z</time>
      </trkpt>
      <trkpt lat="47.82249" lon="-2.42015">
        <ele>42</ele>
        <time>2025-02-11T09:50:47Z</time>
      </trkpt>
      <trkpt lat="47.82251" lon="-2.42015">
        <ele>42.1</ele>
        <time>2025-02-11T09:50:48Z</time>
      </trkpt>
      <trkpt lat="47.82252" lon="-2.42015">
        <ele>42.1</ele>
        <time>2025-02-11T09:50:49Z</time>
      </trkpt>
      <trkpt lat="47.82253" lon="-2.42016">
        <ele>42.1</ele>
        <time>2025-02-11T09:50:50Z</time>
      </trkpt>
      <trkpt lat="47.82254" lon="-2.42016">
        <ele>42.2</ele>
        <time>2025-02-11T09:50:51Z</time>
      </trkpt>
      <trkpt lat="47.82256" lon="-2.42017">
        <ele>42.2</ele>
        <time>2025-02-11T09:50:52Z</time>
      </trkpt>
      <trkpt lat="47.82257" lon="-2.42018">
        <ele>42.3</ele>
        <time>2025-02-11T09:50:53Z</time>
      </trkpt>
      <trkpt lat="47.82258" lon="-2.42018">
        <ele>42.3</ele>
        <time>2025-02-11T09:50:54Z</time>
      </trkpt>
      <trkpt lat="47.8226" lon="-2.42018">
        <ele>42.3</ele>
        <time>2025-02-11T09:50:55Z</time>
      </trkpt>
      <trkpt lat="47.82261" lon="-2.42019">
        <ele>42.4</ele>
        <time>2025-02-11T09:50:56Z</time>
      </trkpt>
      <trkpt lat="47.82262" lon="-2.42019">
        <ele>42.4</ele>
        <time>2025-02-11T09:50:57Z</time>
      </trkpt>
      <trkpt lat="47.82263" lon="-2.4202">
        <ele>42.4</ele>
        <time>2025-02-11T09:50:58Z</time>
      </trkpt>
      <trkpt lat="47.82264" lon="-2.4202">
        <ele>42.4</ele>
        <time>2025-02-11T09:50:59Z</time>
      </trkpt>
      <trkpt lat="47.82265" lon="-2.4202">
        <ele>42.4</ele>
        <time>2025-02-11T09:51:00Z</time>
      </trkpt>
      <trkpt lat="47.82266" lon="-2.4202">
        <ele>42.4</ele>
        <time>2025-02-11T09:51:01Z</time>
      </trkpt>
      <trkpt lat="47.82268" lon="-2.4202">
        <ele>42.4</ele>
        <time>2025-02-11T09:51:02Z</time>
      </trkpt>
      <trkpt lat="47.82269" lon="-2.4202">
        <ele>42.5</ele>
        <time>2025-02-11T09:51:03Z</time>
      </trkpt>
      <trkpt lat="47.8227" lon="-2.42022">
        <ele>42.5</ele>
        <time>2025-02-11T09:51:04Z</time>
      </trkpt>
      <trkpt lat="47.82271" lon="-2.42022">
        <ele>42.6</ele>
        <time>2025-02-11T09:51:05Z</time>
      </trkpt>
      <trkpt lat="47.82272" lon="-2.42023">
        <ele>42.6</ele>
        <time>2025-02-11T09:51:06Z</time>
      </trkpt>
      <trkpt lat="47.82273" lon="-2.42023">
        <ele>42.7</ele>
        <time>2025-02-11T09:51:07Z</time>
      </trkpt>
      <trkpt lat="47.82274" lon="-2.42024">
        <ele>42.7</ele>
        <time>2025-02-11T09:51:08Z</time>
      </trkpt>
      <trkpt lat="47.82275" lon="-2.42024">
        <ele>42.7</ele>
        <time>2025-02-11T09:51:09Z</time>
      </trkpt>
      <trkpt lat="47.82276" lon="-2.42024">
        <ele>42.7</ele>
        <time>2025-02-11T09:51:10Z</time>
      </trkpt>
      <trkpt lat="47.82277" lon="-2.42025">
        <ele>42.8</ele>
        <time>2025-02-11T09:51:11Z</time>
      </trkpt>
      <trkpt lat="47.82278" lon="-2.42025">
        <ele>42.8</ele>
        <time>2025-02-11T09:51:12Z</time>
      </trkpt>
      <trkpt lat="47.82279" lon="-2.42026">
        <ele>42.8</ele>
        <time>2025-02-11T09:51:13Z</time>
      </trkpt>
      <trkpt lat="47.8228" lon="-2.42026">
        <ele>42.9</ele>
        <time>2025-02-11T09:51:14Z</time>
      </trkpt>
      <trkpt lat="47.82281" lon="-2.42027">
        <ele>42.9</ele>
        <time>2025-02-11T09:51:15Z</time>
      </trkpt>
      <trkpt lat="47.82283" lon="-2.42027">
        <ele>42.9</ele>
        <time>2025-02-11T09:51:16Z</time>
      </trkpt>
      <trkpt lat="47.82284" lon="-2.42027">
        <ele>43</ele>
        <time>2025-02-11T09:51:17Z</time>
      </trkpt>
      <trkpt lat="47.82285" lon="-2.42028">
        <ele>43</ele>
        <time>2025-02-11T09:51:18Z</time>
      </trkpt>
      <trkpt lat="47.82286" lon="-2.42028">
        <ele>43</ele>
        <time>2025-02-11T09:51:19Z</time>
      </trkpt>
      <trkpt lat="47.82287" lon="-2.42029">
        <ele>43.1</ele>
        <time>2025-02-11T09:51:20Z</time>
      </trkpt>
      <trkpt lat="47.82288" lon="-2.4203">
        <ele>43.2</ele>
        <time>2025-02-11T09:51:21Z</time>
      </trkpt>
      <trkpt lat="47.8229" lon="-2.42031">
        <ele>43.2</ele>
        <time>2025-02-11T09:51:22Z</time>
      </trkpt>
      <trkpt lat="47.82291" lon="-2.42031">
        <ele>43.2</ele>
        <time>2025-02-11T09:51:23Z</time>
      </trkpt>
      <trkpt lat="47.82292" lon="-2.42032">
        <ele>43.3</ele>
        <time>2025-02-11T09:51:24Z</time>
      </trkpt>
      <trkpt lat="47.82293" lon="-2.42033">
        <ele>43.3</ele>
        <time>2025-02-11T09:51:25Z</time>
      </trkpt>
      <trkpt lat="47.82294" lon="-2.42033">
        <ele>43.4</ele>
        <time>2025-02-11T09:51:26Z</time>
      </trkpt>
      <trkpt lat="47.82295" lon="-2.42033">
        <ele>43.4</ele>
        <time>2025-02-11T09:51:27Z</time>
      </trkpt>
      <trkpt lat="47.82297" lon="-2.42034">
        <ele>43.4</ele>
        <time>2025-02-11T09:51:28Z</time>
      </trkpt>
      <trkpt lat="47.82297" lon="-2.42035">
        <ele>43.5</ele>
        <time>2025-02-11T09:51:29Z</time>
      </trkpt>
      <trkpt lat="47.82298" lon="-2.42036">
        <ele>43.6</ele>
        <time>2025-02-11T09:51:30Z</time>
      </trkpt>
      <trkpt lat="47.82299" lon="-2.42037">
        <ele>43.7</ele>
        <time>2025-02-11T09:51:31Z</time>
      </trkpt>
      <trkpt lat="47.823" lon="-2.42038">
        <ele>43.7</ele>
        <time>2025-02-11T09:51:32Z</time>
      </trkpt>
      <trkpt lat="47.82301" lon="-2.42039">
        <ele>43.8</ele>
        <time>2025-02-11T09:51:33Z</time>
      </trkpt>
      <trkpt lat="47.82302" lon="-2.4204">
        <ele>43.8</ele>
        <time>2025-02-11T09:51:34Z</time>
      </trkpt>
      <trkpt lat="47.82303" lon="-2.4204">
        <ele>43.9</ele>
        <time>2025-02-11T09:51:35Z</time>
      </trkpt>
      <trkpt lat="47.82304" lon="-2.42041">
        <ele>43.9</ele>
        <time>2025-02-11T09:51:36Z</time>
      </trkpt>
      <trkpt lat="47.82305" lon="-2.42042">
        <ele>44</ele>
        <time>2025-02-11T09:51:37Z</time>
      </trkpt>
      <trkpt lat="47.82306" lon="-2.42043">
        <ele>44.1</ele>
        <time>2025-02-11T09:51:38Z</time>
      </trkpt>
      <trkpt lat="47.82307" lon="-2.42044">
        <ele>44.1</ele>
        <time>2025-02-11T09:51:39Z</time>
      </trkpt>
      <trkpt lat="47.82308" lon="-2.42045">
        <ele>44.2</ele>
        <time>2025-02-11T09:51:40Z</time>
      </trkpt>
      <trkpt lat="47.82309" lon="-2.42046">
        <ele>44.2</ele>
        <time>2025-02-11T09:51:41Z</time>
      </trkpt>
      <trkpt lat="47.8231" lon="-2.42047">
        <ele>44.3</ele>
        <time>2025-02-11T09:51:42Z</time>
      </trkpt>
      <trkpt lat="47.82311" lon="-2.42048">
        <ele>44.3</ele>
        <time>2025-02-11T09:51:43Z</time>
      </trkpt>
      <trkpt lat="47.82312" lon="-2.42049">
        <ele>44.3</ele>
        <time>2025-02-11T09:51:44Z</time>
      </trkpt>
      <trkpt lat="47.82313" lon="-2.42049">
        <ele>44.3</ele>
        <time>2025-02-11T09:51:45Z</time>
      </trkpt>
      <trkpt lat="47.82314" lon="-2.42051">
        <ele>44.4</ele>
        <time>2025-02-11T09:51:46Z</time>
      </trkpt>
      <trkpt lat="47.82314" lon="-2.42052">
        <ele>44.5</ele>
        <time>2025-02-11T09:51:47Z</time>
      </trkpt>
      <trkpt lat="47.82316" lon="-2.42053">
        <ele>44.5</ele>
        <time>2025-02-11T09:51:48Z</time>
      </trkpt>
      <trkpt lat="47.82317" lon="-2.42054">
        <ele>44.5</ele>
        <time>2025-02-11T09:51:49Z</time>
      </trkpt>
      <trkpt lat="47.82317" lon="-2.42055">
        <ele>44.5</ele>
        <time>2025-02-11T09:51:50Z</time>
      </trkpt>
      <trkpt lat="47.82318" lon="-2.42056">
        <ele>44.6</ele>
        <time>2025-02-11T09:51:51Z</time>
      </trkpt>
      <trkpt lat="47.82319" lon="-2.42058">
        <ele>44.6</ele>
        <time>2025-02-11T09:51:52Z</time>
      </trkpt>
      <trkpt lat="47.82319" lon="-2.42059">
        <ele>44.7</ele>
        <time>2025-02-11T09:51:53Z</time>
      </trkpt>
      <trkpt lat="47.8232" lon="-2.42061">
        <ele>44.8</ele>
        <time>2025-02-11T09:51:54Z</time>
      </trkpt>
      <trkpt lat="47.8232" lon="-2.42062">
        <ele>44.8</ele>
        <time>2025-02-11T09:51:55Z</time>
      </trkpt>
      <trkpt lat="47.82321" lon="-2.42063">
        <ele>44.9</ele>
        <time>2025-02-11T09:51:56Z</time>
      </trkpt>
      <trkpt lat="47.82321" lon="-2.42065">
        <ele>44.9</ele>
        <time>2025-02-11T09:51:57Z</time>
      </trkpt>
      <trkpt lat="47.82322" lon="-2.42066">
        <ele>45</ele>
        <time>2025-02-11T09:51:58Z</time>
      </trkpt>
      <trkpt lat="47.82322" lon="-2.42068">
        <ele>45.1</ele>
        <time>2025-02-11T09:51:59Z</time>
      </trkpt>
      <trkpt lat="47.82322" lon="-2.4207">
        <ele>45.2</ele>
        <time>2025-02-11T09:52:00Z</time>
      </trkpt>
      <trkpt lat="47.82322" lon="-2.42071">
        <ele>45.3</ele>
        <time>2025-02-11T09:52:01Z</time>
      </trkpt>
      <trkpt lat="47.82323" lon="-2.42073">
        <ele>45.4</ele>
        <time>2025-02-11T09:52:02Z</time>
      </trkpt>
      <trkpt lat="47.82323" lon="-2.42075">
        <ele>45.5</ele>
        <time>2025-02-11T09:52:03Z</time>
      </trkpt>
      <trkpt lat="47.82324" lon="-2.42076">
        <ele>45.6</ele>
        <time>2025-02-11T09:52:04Z</time>
      </trkpt>
      <trkpt lat="47.82324" lon="-2.42077">
        <ele>45.6</ele>
        <time>2025-02-11T09:52:05Z</time>
      </trkpt>
      <trkpt lat="47.82324" lon="-2.42079">
        <ele>45.7</ele>
        <time>2025-02-11T09:52:06Z</time>
      </trkpt>
      <trkpt lat="47.82324" lon="-2.4208">
        <ele>45.8</ele>
        <time>2025-02-11T09:52:07Z</time>
      </trkpt>
      <trkpt lat="47.82324" lon="-2.42082">
        <ele>45.9</ele>
        <time>2025-02-11T09:52:08Z</time>
      </trkpt>
      <trkpt lat="47.82324" lon="-2.42084">
        <ele>46</ele>
        <time>2025-02-11T09:52:09Z</time>
      </trkpt>
      <trkpt lat="47.82323" lon="-2.42085">
        <ele>46.1</ele>
        <time>2025-02-11T09:52:10Z</time>
      </trkpt>
      <trkpt lat="47.82323" lon="-2.42087">
        <ele>46.2</ele>
        <time>2025-02-11T09:52:11Z</time>
      </trkpt>
      <trkpt lat="47.82322" lon="-2.42088">
        <ele>46.3</ele>
        <time>2025-02-11T09:52:12Z</time>
      </trkpt>
      <trkpt lat="47.82322" lon="-2.4209">
        <ele>46.4</ele>
        <time>2025-02-11T09:52:13Z</time>
      </trkpt>
      <trkpt lat="47.82321" lon="-2.42091">
        <ele>46.5</ele>
        <time>2025-02-11T09:52:14Z</time>
      </trkpt>
      <trkpt lat="47.82321" lon="-2.42092">
        <ele>46.6</ele>
        <time>2025-02-11T09:52:15Z</time>
      </trkpt>
      <trkpt lat="47.82321" lon="-2.42094">
        <ele>46.7</ele>
        <time>2025-02-11T09:52:16Z</time>
      </trkpt>
      <trkpt lat="47.8232" lon="-2.42095">
        <ele>46.8</ele>
        <time>2025-02-11T09:52:17Z</time>
      </trkpt>
      <trkpt lat="47.82319" lon="-2.42096">
        <ele>46.9</ele>
        <time>2025-02-11T09:52:18Z</time>
      </trkpt>
      <trkpt lat="47.82319" lon="-2.42098">
        <ele>47</ele>
        <time>2025-02-11T09:52:19Z</time>
      </trkpt>
      <trkpt lat="47.82319" lon="-2.42099">
        <ele>47.1</ele>
        <time>2025-02-11T09:52:20Z</time>
      </trkpt>
      <trkpt lat="47.82319" lon="-2.42101">
        <ele>47.3</ele>
        <time>2025-02-11T09:52:21Z</time>
      </trkpt>
      <trkpt lat="47.82319" lon="-2.42102">
        <ele>47.4</ele>
        <time>2025-02-11T09:52:22Z</time>
      </trkpt>
      <trkpt lat="47.82318" lon="-2.42104">
        <ele>47.5</ele>
        <time>2025-02-11T09:52:23Z</time>
      </trkpt>
      <trkpt lat="47.82318" lon="-2.42105">
        <ele>47.6</ele>
        <time>2025-02-11T09:52:24Z</time>
      </trkpt>
      <trkpt lat="47.82318" lon="-2.42106">
        <ele>47.6</ele>
        <time>2025-02-11T09:52:25Z</time>
      </trkpt>
      <trkpt lat="47.82317" lon="-2.42108">
        <ele>47.7</ele>
        <time>2025-02-11T09:52:26Z</time>
      </trkpt>
      <trkpt lat="47.82317" lon="-2.42109">
        <ele>47.9</ele>
        <time>2025-02-11T09:52:27Z</time>
      </trkpt>
      <trkpt lat="47.82317" lon="-2.42111">
        <ele>48</ele>
        <time>2025-02-11T09:52:28Z</time>
      </trkpt>
      <trkpt lat="47.82317" lon="-2.42112">
        <ele>48</ele>
        <time>2025-02-11T09:52:29Z</time>
      </trkpt>
      <trkpt lat="47.82316" lon="-2.42113">
        <ele>48.1</ele>
        <time>2025-02-11T09:52:30Z</time>
      </trkpt>
      <trkpt lat="47.82316" lon="-2.42115">
        <ele>48.2</ele>
        <time>2025-02-11T09:52:31Z</time>
      </trkpt>
      <trkpt lat="47.82316" lon="-2.42116">
        <ele>48.3</ele>
        <time>2025-02-11T09:52:32Z</time>
      </trkpt>
      <trkpt lat="47.82315" lon="-2.42118">
        <ele>48.4</ele>
        <time>2025-02-11T09:52:33Z</time>
      </trkpt>
      <trkpt lat="47.82315" lon="-2.42119">
        <ele>48.4</ele>
        <time>2025-02-11T09:52:34Z</time>
      </trkpt>
      <trkpt lat="47.82314" lon="-2.4212">
        <ele>48.5</ele>
        <time>2025-02-11T09:52:35Z</time>
      </trkpt>
      <trkpt lat="47.82314" lon="-2.42121">
        <ele>48.6</ele>
        <time>2025-02-11T09:52:36Z</time>
      </trkpt>
      <trkpt lat="47.82314" lon="-2.42122">
        <ele>48.7</ele>
        <time>2025-02-11T09:52:37Z</time>
      </trkpt>
      <trkpt lat="47.82314" lon="-2.42124">
        <ele>48.8</ele>
        <time>2025-02-11T09:52:38Z</time>
      </trkpt>
      <trkpt lat="47.82313" lon="-2.42125">
        <ele>48.9</ele>
        <time>2025-02-11T09:52:39Z</time>
      </trkpt>
      <trkpt lat="47.82313" lon="-2.42127">
        <ele>49</ele>
        <time>2025-02-11T09:52:40Z</time>
      </trkpt>
      <trkpt lat="47.82313" lon="-2.42128">
        <ele>49.1</ele>
        <time>2025-02-11T09:52:41Z</time>
      </trkpt>
      <trkpt lat="47.82313" lon="-2.4213">
        <ele>49.1</ele>
        <time>2025-02-11T09:52:42Z</time>
      </trkpt>
      <trkpt lat="47.82312" lon="-2.42131">
        <ele>49.3</ele>
        <time>2025-02-11T09:52:43Z</time>
      </trkpt>
      <trkpt lat="47.82312" lon="-2.42132">
        <ele>49.3</ele>
        <time>2025-02-11T09:52:44Z</time>
      </trkpt>
      <trkpt lat="47.82312" lon="-2.42133">
        <ele>49.4</ele>
        <time>2025-02-11T09:52:45Z</time>
      </trkpt>
      <trkpt lat="47.82312" lon="-2.42135">
        <ele>49.5</ele>
        <time>2025-02-11T09:52:46Z</time>
      </trkpt>
      <trkpt lat="47.82312" lon="-2.42137">
        <ele>49.6</ele>
        <time>2025-02-11T09:52:47Z</time>
      </trkpt>
      <trkpt lat="47.82311" lon="-2.42139">
        <ele>49.8</ele>
        <time>2025-02-11T09:52:48Z</time>
      </trkpt>
      <trkpt lat="47.82311" lon="-2.4214">
        <ele>49.9</ele>
        <time>2025-02-11T09:52:49Z</time>
      </trkpt>
      <trkpt lat="47.82311" lon="-2.42142">
        <ele>50</ele>
        <time>2025-02-11T09:52:50Z</time>
      </trkpt>
      <trkpt lat="47.82311" lon="-2.42143">
        <ele>50.1</ele>
        <time>2025-02-11T09:52:51Z</time>
      </trkpt>
      <trkpt lat="47.82311" lon="-2.42145">
        <ele>50.2</ele>
        <time>2025-02-11T09:52:52Z</time>
      </trkpt>
      <trkpt lat="47.82311" lon="-2.42146">
        <ele>50.3</ele>
        <time>2025-02-11T09:52:53Z</time>
      </trkpt>
      <trkpt lat="47.82311" lon="-2.42148">
        <ele>50.4</ele>
        <time>2025-02-11T09:52:54Z</time>
      </trkpt>
      <trkpt lat="47.8231" lon="-2.42149">
        <ele>50.5</ele>
        <time>2025-02-11T09:52:55Z</time>
      </trkpt>
      <trkpt lat="47.8231" lon="-2.4215">
        <ele>50.6</ele>
        <time>2025-02-11T09:52:56Z</time>
      </trkpt>
      <trkpt lat="47.8231" lon="-2.42151">
        <ele>50.7</ele>
        <time>2025-02-11T09:52:57Z</time>
      </trkpt>
      <trkpt lat="47.8231" lon="-2.42153">
        <ele>50.8</ele>
        <time>2025-02-11T09:52:58Z</time>
      </trkpt>
      <trkpt lat="47.82309" lon="-2.42154">
        <ele>51</ele>
        <time>2025-02-11T09:52:59Z</time>
      </trkpt>
      <trkpt lat="47.82309" lon="-2.42156">
        <ele>51.1</ele>
        <time>2025-02-11T09:53:00Z</time>
      </trkpt>
      <trkpt lat="47.82308" lon="-2.42157">
        <ele>51.2</ele>
        <time>2025-02-11T09:53:01Z</time>
      </trkpt>
      <trkpt lat="47.82308" lon="-2.42159">
        <ele>51.3</ele>
        <time>2025-02-11T09:53:02Z</time>
      </trkpt>
      <trkpt lat="47.82308" lon="-2.4216">
        <ele>51.4</ele>
        <time>2025-02-11T09:53:03Z</time>
      </trkpt>
      <trkpt lat="47.82308" lon="-2.42161">
        <ele>51.5</ele>
        <time>2025-02-11T09:53:04Z</time>
      </trkpt>
      <trkpt lat="47.82307" lon="-2.42163">
        <ele>51.7</ele>
        <time>2025-02-11T09:53:05Z</time>
      </trkpt>
      <trkpt lat="47.82307" lon="-2.42164">
        <ele>51.8</ele>
        <time>2025-02-11T09:53:06Z</time>
      </trkpt>
      <trkpt lat="47.82306" lon="-2.42166">
        <ele>51.9</ele>
        <time>2025-02-11T09:53:07Z</time>
      </trkpt>
      <trkpt lat="47.82306" lon="-2.42167">
        <ele>52</ele>
        <time>2025-02-11T09:53:08Z</time>
      </trkpt>
      <trkpt lat="47.82306" lon="-2.42169">
        <ele>52.1</ele>
        <time>2025-02-11T09:53:09Z</time>
      </trkpt>
      <trkpt lat="47.82306" lon="-2.4217">
        <ele>52.2</ele>
        <time>2025-02-11T09:53:10Z</time>
      </trkpt>
      <trkpt lat="47.82305" lon="-2.42172">
        <ele>52.4</ele>
        <time>2025-02-11T09:53:11Z</time>
      </trkpt>
      <trkpt lat="47.82305" lon="-2.42173">
        <ele>52.4</ele>
        <time>2025-02-11T09:53:12Z</time>
      </trkpt>
      <trkpt lat="47.82305" lon="-2.42174">
        <ele>52.5</ele>
        <time>2025-02-11T09:53:13Z</time>
      </trkpt>
      <trkpt lat="47.82304" lon="-2.42175">
        <ele>52.6</ele>
        <time>2025-02-11T09:53:14Z</time>
      </trkpt>
      <trkpt lat="47.82304" lon="-2.42177">
        <ele>52.7</ele>
        <time>2025-02-11T09:53:15Z</time>
      </trkpt>
      <trkpt lat="47.82303" lon="-2.42178">
        <ele>52.8</ele>
        <time>2025-02-11T09:53:16Z</time>
      </trkpt>
      <trkpt lat="47.82303" lon="-2.42179">
        <ele>52.9</ele>
        <time>2025-02-11T09:53:17Z</time>
      </trkpt>
      <trkpt lat="47.82303" lon="-2.42181">
        <ele>53</ele>
        <time>2025-02-11T09:53:18Z</time>
      </trkpt>
      <trkpt lat="47.82303" lon="-2.42183">
        <ele>53.1</ele>
        <time>2025-02-11T09:53:19Z</time>
      </trkpt>
      <trkpt lat="47.82302" lon="-2.42184">
        <ele>53.2</ele>
        <time>2025-02-11T09:53:20Z</time>
      </trkpt>
      <trkpt lat="47.82302" lon="-2.42186">
        <ele>53.3</ele>
        <time>2025-02-11T09:53:21Z</time>
      </trkpt>
      <trkpt lat="47.82302" lon="-2.42188">
        <ele>53.5</ele>
        <time>2025-02-11T09:53:22Z</time>
      </trkpt>
      <trkpt lat="47.82302" lon="-2.42189">
        <ele>53.6</ele>
        <time>2025-02-11T09:53:23Z</time>
      </trkpt>
      <trkpt lat="47.82302" lon="-2.42191">
        <ele>53.7</ele>
        <time>2025-02-11T09:53:24Z</time>
      </trkpt>
      <trkpt lat="47.82302" lon="-2.42192">
        <ele>53.8</ele>
        <time>2025-02-11T09:53:25Z</time>
      </trkpt>
      <trkpt lat="47.82302" lon="-2.42194">
        <ele>54</ele>
        <time>2025-02-11T09:53:26Z</time>
      </trkpt>
      <trkpt lat="47.82301" lon="-2.42196">
        <ele>54.1</ele>
        <time>2025-02-11T09:53:27Z</time>
      </trkpt>
      <trkpt lat="47.82301" lon="-2.42197">
        <ele>54.3</ele>
        <time>2025-02-11T09:53:28Z</time>
      </trkpt>
      <trkpt lat="47.823" lon="-2.42199">
        <ele>54.5</ele>
        <time>2025-02-11T09:53:29Z</time>
      </trkpt>
      <trkpt lat="47.823" lon="-2.42201">
        <ele>54.6</ele>
        <time>2025-02-11T09:53:30Z</time>
      </trkpt>
      <trkpt lat="47.823" lon="-2.42202">
        <ele>54.8</ele>
        <time>2025-02-11T09:53:31Z</time>
      </trkpt>
      <trkpt lat="47.82299" lon="-2.42204">
        <ele>54.9</ele>
        <time>2025-02-11T09:53:32Z</time>
      </trkpt>
      <trkpt lat="47.82299" lon="-2.42206">
        <ele>55.1</ele>
        <time>2025-02-11T09:53:33Z</time>
      </trkpt>
      <trkpt lat="47.82299" lon="-2.42207">
        <ele>55.3</ele>
        <time>2025-02-11T09:53:34Z</time>
      </trkpt>
      <trkpt lat="47.82299" lon="-2.42209">
        <ele>55.4</ele>
        <time>2025-02-11T09:53:35Z</time>
      </trkpt>
      <trkpt lat="47.82299" lon="-2.42211">
        <ele>55.6</ele>
        <time>2025-02-11T09:53:36Z</time>
      </trkpt>
      <trkpt lat="47.82298" lon="-2.42212">
        <ele>55.7</ele>
        <time>2025-02-11T09:53:37Z</time>
      </trkpt>
      <trkpt lat="47.82298" lon="-2.42214">
        <ele>55.9</ele>
        <time>2025-02-11T09:53:38Z</time>
      </trkpt>
      <trkpt lat="47.82298" lon="-2.42215">
        <ele>56</ele>
        <time>2025-02-11T09:53:39Z</time>
      </trkpt>
      <trkpt lat="47.82298" lon="-2.42217">
        <ele>56.2</ele>
        <time>2025-02-11T09:53:40Z</time>
      </trkpt>
      <trkpt lat="47.82297" lon="-2.42218">
        <ele>56.3</ele>
        <time>2025-02-11T09:53:41Z</time>
      </trkpt>
      <trkpt lat="47.82297" lon="-2.4222">
        <ele>56.4</ele>
        <time>2025-02-11T09:53:42Z</time>
      </trkpt>
      <trkpt lat="47.82296" lon="-2.42221">
        <ele>56.5</ele>
        <time>2025-02-11T09:53:43Z</time>
      </trkpt>
      <trkpt lat="47.82296" lon="-2.42222">
        <ele>56.7</ele>
        <time>2025-02-11T09:53:44Z</time>
      </trkpt>
      <trkpt lat="47.82296" lon="-2.42224">
        <ele>56.7</ele>
        <time>2025-02-11T09:53:45Z</time>
      </trkpt>
      <trkpt lat="47.82296" lon="-2.42225">
        <ele>56.8</ele>
        <time>2025-02-11T09:53:46Z</time>
      </trkpt>
      <trkpt lat="47.82295" lon="-2.42227">
        <ele>56.8</ele>
        <time>2025-02-11T09:53:47Z</time>
      </trkpt>
      <trkpt lat="47.82294" lon="-2.42228">
        <ele>56.9</ele>
        <time>2025-02-11T09:53:48Z</time>
      </trkpt>
      <trkpt lat="47.82294" lon="-2.4223">
        <ele>57</ele>
        <time>2025-02-11T09:53:49Z</time>
      </trkpt>
      <trkpt lat="47.82294" lon="-2.42231">
        <ele>57</ele>
        <time>2025-02-11T09:53:50Z</time>
      </trkpt>
      <trkpt lat="47.82293" lon="-2.42233">
        <ele>57.1</ele>
        <time>2025-02-11T09:53:51Z</time>
      </trkpt>
      <trkpt lat="47.82293" lon="-2.42234">
        <ele>57.2</ele>
        <time>2025-02-11T09:53:52Z</time>
      </trkpt>
      <trkpt lat="47.82293" lon="-2.42236">
        <ele>57.3</ele>
        <time>2025-02-11T09:53:53Z</time>
      </trkpt>
      <trkpt lat="47.82293" lon="-2.42238">
        <ele>57.3</ele>
        <time>2025-02-11T09:53:54Z</time>
      </trkpt>
      <trkpt lat="47.82292" lon="-2.42239">
        <ele>57.4</ele>
        <time>2025-02-11T09:53:55Z</time>
      </trkpt>
      <trkpt lat="47.82292" lon="-2.42241">
        <ele>57.5</ele>
        <time>2025-02-11T09:53:56Z</time>
      </trkpt>
      <trkpt lat="47.82292" lon="-2.42242">
        <ele>57.6</ele>
        <time>2025-02-11T09:53:57Z</time>
      </trkpt>
      <trkpt lat="47.82292" lon="-2.42243">
        <ele>57.6</ele>
        <time>2025-02-11T09:53:58Z</time>
      </trkpt>
      <trkpt lat="47.82291" lon="-2.42245">
        <ele>57.7</ele>
        <time>2025-02-11T09:53:59Z</time>
      </trkpt>
      <trkpt lat="47.82291" lon="-2.42246">
        <ele>57.8</ele>
        <time>2025-02-11T09:54:00Z</time>
      </trkpt>
      <trkpt lat="47.82291" lon="-2.42247">
        <ele>57.8</ele>
        <time>2025-02-11T09:54:01Z</time>
      </trkpt>
      <trkpt lat="47.82291" lon="-2.42248">
        <ele>57.9</ele>
        <time>2025-02-11T09:54:02Z</time>
      </trkpt>
      <trkpt lat="47.82291" lon="-2.42249">
        <ele>58</ele>
        <time>2025-02-11T09:54:03Z</time>
      </trkpt>
      <trkpt lat="47.82291" lon="-2.42251">
        <ele>58</ele>
        <time>2025-02-11T09:54:04Z</time>
      </trkpt>
      <trkpt lat="47.8229" lon="-2.42252">
        <ele>58.2</ele>
        <time>2025-02-11T09:54:05Z</time>
      </trkpt>
      <trkpt lat="47.8229" lon="-2.42254">
        <ele>58.3</ele>
        <time>2025-02-11T09:54:06Z</time>
      </trkpt>
      <trkpt lat="47.82289" lon="-2.42256">
        <ele>58.4</ele>
        <time>2025-02-11T09:54:07Z</time>
      </trkpt>
      <trkpt lat="47.8229" lon="-2.42257">
        <ele>58.5</ele>
        <time>2025-02-11T09:54:08Z</time>
      </trkpt>
      <trkpt lat="47.82289" lon="-2.42258">
        <ele>58.6</ele>
        <time>2025-02-11T09:54:09Z</time>
      </trkpt>
      <trkpt lat="47.82289" lon="-2.4226">
        <ele>58.7</ele>
        <time>2025-02-11T09:54:10Z</time>
      </trkpt>
      <trkpt lat="47.82289" lon="-2.42261">
        <ele>58.8</ele>
        <time>2025-02-11T09:54:11Z</time>
      </trkpt>
      <trkpt lat="47.82289" lon="-2.42262">
        <ele>58.9</ele>
        <time>2025-02-11T09:54:12Z</time>
      </trkpt>
      <trkpt lat="47.82289" lon="-2.42264">
        <ele>59</ele>
        <time>2025-02-11T09:54:13Z</time>
      </trkpt>
      <trkpt lat="47.82288" lon="-2.42265">
        <ele>59.1</ele>
        <time>2025-02-11T09:54:14Z</time>
      </trkpt>
      <trkpt lat="47.82288" lon="-2.42267">
        <ele>59.2</ele>
        <time>2025-02-11T09:54:15Z</time>
      </trkpt>
      <trkpt lat="47.82288" lon="-2.42268">
        <ele>59.3</ele>
        <time>2025-02-11T09:54:16Z</time>
      </trkpt>
      <trkpt lat="47.82287" lon="-2.42269">
        <ele>59.4</ele>
        <time>2025-02-11T09:54:17Z</time>
      </trkpt>
      <trkpt lat="47.82287" lon="-2.42271">
        <ele>59.5</ele>
        <time>2025-02-11T09:54:18Z</time>
      </trkpt>
      <trkpt lat="47.82287" lon="-2.42272">
        <ele>59.6</ele>
        <time>2025-02-11T09:54:19Z</time>
      </trkpt>
      <trkpt lat="47.82287" lon="-2.42274">
        <ele>59.7</ele>
        <time>2025-02-11T09:54:20Z</time>
      </trkpt>
      <trkpt lat="47.82287" lon="-2.42275">
        <ele>59.8</ele>
        <time>2025-02-11T09:54:21Z</time>
      </trkpt>
      <trkpt lat="47.82287" lon="-2.42277">
        <ele>59.9</ele>
        <time>2025-02-11T09:54:22Z</time>
      </trkpt>
      <trkpt lat="47.82286" lon="-2.42278">
        <ele>60</ele>
        <time>2025-02-11T09:54:23Z</time>
      </trkpt>
      <trkpt lat="47.82286" lon="-2.42279">
        <ele>60.1</ele>
        <time>2025-02-11T09:54:24Z</time>
      </trkpt>
      <trkpt lat="47.82285" lon="-2.42281">
        <ele>60.1</ele>
        <time>2025-02-11T09:54:25Z</time>
      </trkpt>
      <trkpt lat="47.82285" lon="-2.42282">
        <ele>60.2</ele>
        <time>2025-02-11T09:54:26Z</time>
      </trkpt>
      <trkpt lat="47.82285" lon="-2.42284">
        <ele>60.2</ele>
        <time>2025-02-11T09:54:27Z</time>
      </trkpt>
      <trkpt lat="47.82284" lon="-2.42285">
        <ele>60.3</ele>
        <time>2025-02-11T09:54:28Z</time>
      </trkpt>
      <trkpt lat="47.82284" lon="-2.42286">
        <ele>60.3</ele>
        <time>2025-02-11T09:54:29Z</time>
      </trkpt>
      <trkpt lat="47.82284" lon="-2.42288">
        <ele>60.4</ele>
        <time>2025-02-11T09:54:30Z</time>
      </trkpt>
      <trkpt lat="47.82283" lon="-2.42289">
        <ele>60.4</ele>
        <time>2025-02-11T09:54:31Z</time>
      </trkpt>
      <trkpt lat="47.82283" lon="-2.42291">
        <ele>60.5</ele>
        <time>2025-02-11T09:54:32Z</time>
      </trkpt>
      <trkpt lat="47.82283" lon="-2.42292">
        <ele>60.5</ele>
        <time>2025-02-11T09:54:33Z</time>
      </trkpt>
      <trkpt lat="47.82282" lon="-2.42293">
        <ele>60.6</ele>
        <time>2025-02-11T09:54:34Z</time>
      </trkpt>
      <trkpt lat="47.82282" lon="-2.42295">
        <ele>60.6</ele>
        <time>2025-02-11T09:54:35Z</time>
      </trkpt>
      <trkpt lat="47.82282" lon="-2.42296">
        <ele>60.7</ele>
        <time>2025-02-11T09:54:36Z</time>
      </trkpt>
      <trkpt lat="47.82281" lon="-2.42298">
        <ele>60.7</ele>
        <time>2025-02-11T09:54:37Z</time>
      </trkpt>
      <trkpt lat="47.82281" lon="-2.42299">
        <ele>60.8</ele>
        <time>2025-02-11T09:54:38Z</time>
      </trkpt>
      <trkpt lat="47.8228" lon="-2.42301">
        <ele>60.8</ele>
        <time>2025-02-11T09:54:39Z</time>
      </trkpt>
      <trkpt lat="47.8228" lon="-2.42303">
        <ele>60.9</ele>
        <time>2025-02-11T09:54:40Z</time>
      </trkpt>
      <trkpt lat="47.8228" lon="-2.42304">
        <ele>60.9</ele>
        <time>2025-02-11T09:54:41Z</time>
      </trkpt>
      <trkpt lat="47.8228" lon="-2.42305">
        <ele>61</ele>
        <time>2025-02-11T09:54:42Z</time>
      </trkpt>
      <trkpt lat="47.8228" lon="-2.42307">
        <ele>61</ele>
        <time>2025-02-11T09:54:43Z</time>
      </trkpt>
      <trkpt lat="47.82279" lon="-2.42308">
        <ele>61.1</ele>
        <time>2025-02-11T09:54:44Z</time>
      </trkpt>
      <trkpt lat="47.82279" lon="-2.42309">
        <ele>61.1</ele>
        <time>2025-02-11T09:54:45Z</time>
      </trkpt>
      <trkpt lat="47.82278" lon="-2.42311">
        <ele>61.2</ele>
        <time>2025-02-11T09:54:46Z</time>
      </trkpt>
      <trkpt lat="47.82278" lon="-2.42312">
        <ele>61.2</ele>
        <time>2025-02-11T09:54:47Z</time>
      </trkpt>
      <trkpt lat="47.82278" lon="-2.42314">
        <ele>61.3</ele>
        <time>2025-02-11T09:54:48Z</time>
      </trkpt>
      <trkpt lat="47.82277" lon="-2.42315">
        <ele>61.3</ele>
        <time>2025-02-11T09:54:49Z</time>
      </trkpt>
      <trkpt lat="47.82276" lon="-2.42317">
        <ele>61.4</ele>
        <time>2025-02-11T09:54:50Z</time>
      </trkpt>
      <trkpt lat="47.82276" lon="-2.42318">
        <ele>61.5</ele>
        <time>2025-02-11T09:54:51Z</time>
      </trkpt>
      <trkpt lat="47.82276" lon="-2.4232">
        <ele>61.5</ele>
        <time>2025-02-11T09:54:52Z</time>
      </trkpt>
      <trkpt lat="47.82276" lon="-2.42321">
        <ele>61.6</ele>
        <time>2025-02-11T09:54:53Z</time>
      </trkpt>
      <trkpt lat="47.82275" lon="-2.42323">
        <ele>61.6</ele>
        <time>2025-02-11T09:54:54Z</time>
      </trkpt>
      <trkpt lat="47.82275" lon="-2.42325">
        <ele>61.7</ele>
        <time>2025-02-11T09:54:55Z</time>
      </trkpt>
      <trkpt lat="47.82275" lon="-2.42326">
        <ele>61.7</ele>
        <time>2025-02-11T09:54:56Z</time>
      </trkpt>
      <trkpt lat="47.82274" lon="-2.42328">
        <ele>61.8</ele>
        <time>2025-02-11T09:54:57Z</time>
      </trkpt>
      <trkpt lat="47.82274" lon="-2.4233">
        <ele>61.9</ele>
        <time>2025-02-11T09:54:58Z</time>
      </trkpt>
      <trkpt lat="47.82274" lon="-2.42331">
        <ele>61.9</ele>
        <time>2025-02-11T09:54:59Z</time>
      </trkpt>
      <trkpt lat="47.82274" lon="-2.42333">
        <ele>62</ele>
        <time>2025-02-11T09:55:00Z</time>
      </trkpt>
      <trkpt lat="47.82273" lon="-2.42334">
        <ele>62</ele>
        <time>2025-02-11T09:55:01Z</time>
      </trkpt>
      <trkpt lat="47.82273" lon="-2.42336">
        <ele>62.1</ele>
        <time>2025-02-11T09:55:02Z</time>
      </trkpt>
      <trkpt lat="47.82272" lon="-2.42337">
        <ele>62.1</ele>
        <time>2025-02-11T09:55:03Z</time>
      </trkpt>
      <trkpt lat="47.82272" lon="-2.42339">
        <ele>62.2</ele>
        <time>2025-02-11T09:55:04Z</time>
      </trkpt>
      <trkpt lat="47.82272" lon="-2.42341">
        <ele>62.3</ele>
        <time>2025-02-11T09:55:05Z</time>
      </trkpt>
      <trkpt lat="47.82272" lon="-2.42342">
        <ele>62.3</ele>
        <time>2025-02-11T09:55:06Z</time>
      </trkpt>
      <trkpt lat="47.82271" lon="-2.42344">
        <ele>62.4</ele>
        <time>2025-02-11T09:55:07Z</time>
      </trkpt>
      <trkpt lat="47.82271" lon="-2.42346">
        <ele>62.4</ele>
        <time>2025-02-11T09:55:08Z</time>
      </trkpt>
      <trkpt lat="47.82271" lon="-2.42347">
        <ele>62.5</ele>
        <time>2025-02-11T09:55:09Z</time>
      </trkpt>
      <trkpt lat="47.82271" lon="-2.42349">
        <ele>62.5</ele>
        <time>2025-02-11T09:55:10Z</time>
      </trkpt>
      <trkpt lat="47.82271" lon="-2.4235">
        <ele>62.6</ele>
        <time>2025-02-11T09:55:11Z</time>
      </trkpt>
      <trkpt lat="47.82271" lon="-2.42352">
        <ele>62.7</ele>
        <time>2025-02-11T09:55:12Z</time>
      </trkpt>
      <trkpt lat="47.82271" lon="-2.42353">
        <ele>62.7</ele>
        <time>2025-02-11T09:55:13Z</time>
      </trkpt>
      <trkpt lat="47.82271" lon="-2.42355">
        <ele>62.8</ele>
        <time>2025-02-11T09:55:14Z</time>
      </trkpt>
      <trkpt lat="47.82271" lon="-2.42356">
        <ele>62.8</ele>
        <time>2025-02-11T09:55:15Z</time>
      </trkpt>
      <trkpt lat="47.82271" lon="-2.42358">
        <ele>62.9</ele>
        <time>2025-02-11T09:55:16Z</time>
      </trkpt>
      <trkpt lat="47.8227" lon="-2.42359">
        <ele>62.9</ele>
        <time>2025-02-11T09:55:17Z</time>
      </trkpt>
      <trkpt lat="47.8227" lon="-2.42361">
        <ele>63</ele>
        <time>2025-02-11T09:55:18Z</time>
      </trkpt>
      <trkpt lat="47.8227" lon="-2.42363">
        <ele>63</ele>
        <time>2025-02-11T09:55:19Z</time>
      </trkpt>
      <trkpt lat="47.82269" lon="-2.42364">
        <ele>63.1</ele>
        <time>2025-02-11T09:55:20Z</time>
      </trkpt>
      <trkpt lat="47.82269" lon="-2.42366">
        <ele>63.2</ele>
        <time>2025-02-11T09:55:21Z</time>
      </trkpt>
      <trkpt lat="47.82268" lon="-2.42368">
        <ele>63.2</ele>
        <time>2025-02-11T09:55:22Z</time>
      </trkpt>
      <trkpt lat="47.82268" lon="-2.42369">
        <ele>63.3</ele>
        <time>2025-02-11T09:55:23Z</time>
      </trkpt>
      <trkpt lat="47.82268" lon="-2.42371">
        <ele>63.3</ele>
        <time>2025-02-11T09:55:24Z</time>
      </trkpt>
      <trkpt lat="47.82267" lon="-2.42372">
        <ele>63.4</ele>
        <time>2025-02-11T09:55:25Z</time>
      </trkpt>
      <trkpt lat="47.82267" lon="-2.42374">
        <ele>63.5</ele>
        <time>2025-02-11T09:55:26Z</time>
      </trkpt>
      <trkpt lat="47.82267" lon="-2.42376">
        <ele>63.5</ele>
        <time>2025-02-11T09:55:27Z</time>
      </trkpt>
      <trkpt lat="47.82266" lon="-2.42378">
        <ele>63.6</ele>
        <time>2025-02-11T09:55:28Z</time>
      </trkpt>
      <trkpt lat="47.82266" lon="-2.42379">
        <ele>63.7</ele>
        <time>2025-02-11T09:55:29Z</time>
      </trkpt>
      <trkpt lat="47.82265" lon="-2.42381">
        <ele>63.7</ele>
        <time>2025-02-11T09:55:30Z</time>
      </trkpt>
      <trkpt lat="47.82265" lon="-2.42383">
        <ele>63.8</ele>
        <time>2025-02-11T09:55:31Z</time>
      </trkpt>
      <trkpt lat="47.82265" lon="-2.42385">
        <ele>63.8</ele>
        <time>2025-02-11T09:55:32Z</time>
      </trkpt>
      <trkpt lat="47.82265" lon="-2.42386">
        <ele>63.9</ele>
        <time>2025-02-11T09:55:33Z</time>
      </trkpt>
      <trkpt lat="47.82264" lon="-2.42388">
        <ele>64</ele>
        <time>2025-02-11T09:55:34Z</time>
      </trkpt>
      <trkpt lat="47.82264" lon="-2.4239">
        <ele>64</ele>
        <time>2025-02-11T09:55:35Z</time>
      </trkpt>
      <trkpt lat="47.82264" lon="-2.42392">
        <ele>64.1</ele>
        <time>2025-02-11T09:55:36Z</time>
      </trkpt>
      <trkpt lat="47.82264" lon="-2.42393">
        <ele>64.2</ele>
        <time>2025-02-11T09:55:37Z</time>
      </trkpt>
      <trkpt lat="47.82263" lon="-2.42395">
        <ele>64.2</ele>
        <time>2025-02-11T09:55:38Z</time>
      </trkpt>
      <trkpt lat="47.82262" lon="-2.42397">
        <ele>64.3</ele>
        <time>2025-02-11T09:55:39Z</time>
      </trkpt>
      <trkpt lat="47.82262" lon="-2.42398">
        <ele>64.3</ele>
        <time>2025-02-11T09:55:40Z</time>
      </trkpt>
      <trkpt lat="47.82261" lon="-2.424">
        <ele>64.4</ele>
        <time>2025-02-11T09:55:41Z</time>
      </trkpt>
      <trkpt lat="47.82261" lon="-2.42402">
        <ele>64.5</ele>
        <time>2025-02-11T09:55:42Z</time>
      </trkpt>
      <trkpt lat="47.8226" lon="-2.42404">
        <ele>64.5</ele>
        <time>2025-02-11T09:55:43Z</time>
      </trkpt>
      <trkpt lat="47.8226" lon="-2.42405">
        <ele>64.6</ele>
        <time>2025-02-11T09:55:44Z</time>
      </trkpt>
      <trkpt lat="47.82259" lon="-2.42406">
        <ele>64.6</ele>
        <time>2025-02-11T09:55:45Z</time>
      </trkpt>
      <trkpt lat="47.82258" lon="-2.42407">
        <ele>64.7</ele>
        <time>2025-02-11T09:55:46Z</time>
      </trkpt>
      <trkpt lat="47.82258" lon="-2.42409">
        <ele>64.7</ele>
        <time>2025-02-11T09:55:47Z</time>
      </trkpt>
      <trkpt lat="47.82258" lon="-2.4241">
        <ele>64.8</ele>
        <time>2025-02-11T09:55:48Z</time>
      </trkpt>
      <trkpt lat="47.82257" lon="-2.42412">
        <ele>64.8</ele>
        <time>2025-02-11T09:55:49Z</time>
      </trkpt>
      <trkpt lat="47.82257" lon="-2.42414">
        <ele>64.9</ele>
        <time>2025-02-11T09:55:50Z</time>
      </trkpt>
      <trkpt lat="47.82257" lon="-2.42415">
        <ele>64.9</ele>
        <time>2025-02-11T09:55:51Z</time>
      </trkpt>
      <trkpt lat="47.82256" lon="-2.42417">
        <ele>65</ele>
        <time>2025-02-11T09:55:52Z</time>
      </trkpt>
      <trkpt lat="47.82256" lon="-2.42419">
        <ele>65.1</ele>
        <time>2025-02-11T09:55:53Z</time>
      </trkpt>
      <trkpt lat="47.82256" lon="-2.4242">
        <ele>65.1</ele>
        <time>2025-02-11T09:55:54Z</time>
      </trkpt>
      <trkpt lat="47.82255" lon="-2.42422">
        <ele>65.1</ele>
        <time>2025-02-11T09:55:55Z</time>
      </trkpt>
      <trkpt lat="47.82255" lon="-2.42423">
        <ele>65.2</ele>
        <time>2025-02-11T09:55:56Z</time>
      </trkpt>
      <trkpt lat="47.82255" lon="-2.42425">
        <ele>65.2</ele>
        <time>2025-02-11T09:55:57Z</time>
      </trkpt>
      <trkpt lat="47.82255" lon="-2.42426">
        <ele>65.3</ele>
        <time>2025-02-11T09:55:58Z</time>
      </trkpt>
      <trkpt lat="47.82255" lon="-2.42428">
        <ele>65.3</ele>
        <time>2025-02-11T09:55:59Z</time>
      </trkpt>
      <trkpt lat="47.82254" lon="-2.4243">
        <ele>65.4</ele>
        <time>2025-02-11T09:56:00Z</time>
      </trkpt>
      <trkpt lat="47.82254" lon="-2.42432">
        <ele>65.5</ele>
        <time>2025-02-11T09:56:01Z</time>
      </trkpt>
      <trkpt lat="47.82254" lon="-2.42434">
        <ele>65.5</ele>
        <time>2025-02-11T09:56:02Z</time>
      </trkpt>
      <trkpt lat="47.82253" lon="-2.42435">
        <ele>65.6</ele>
        <time>2025-02-11T09:56:03Z</time>
      </trkpt>
      <trkpt lat="47.82253" lon="-2.42437">
        <ele>65.6</ele>
        <time>2025-02-11T09:56:04Z</time>
      </trkpt>
      <trkpt lat="47.82253" lon="-2.42439">
        <ele>65.7</ele>
        <time>2025-02-11T09:56:05Z</time>
      </trkpt>
      <trkpt lat="47.82252" lon="-2.4244">
        <ele>65.8</ele>
        <time>2025-02-11T09:56:06Z</time>
      </trkpt>
      <trkpt lat="47.82252" lon="-2.42442">
        <ele>65.8</ele>
        <time>2025-02-11T09:56:07Z</time>
      </trkpt>
      <trkpt lat="47.82252" lon="-2.42443">
        <ele>65.9</ele>
        <time>2025-02-11T09:56:08Z</time>
      </trkpt>
      <trkpt lat="47.82251" lon="-2.42445">
        <ele>66</ele>
        <time>2025-02-11T09:56:09Z</time>
      </trkpt>
      <trkpt lat="47.82251" lon="-2.42447">
        <ele>66</ele>
        <time>2025-02-11T09:56:10Z</time>
      </trkpt>
      <trkpt lat="47.82251" lon="-2.42448">
        <ele>66</ele>
        <time>2025-02-11T09:56:11Z</time>
      </trkpt>
      <trkpt lat="47.82251" lon="-2.4245">
        <ele>66</ele>
        <time>2025-02-11T09:56:12Z</time>
      </trkpt>
      <trkpt lat="47.8225" lon="-2.42452">
        <ele>66</ele>
        <time>2025-02-11T09:56:13Z</time>
      </trkpt>
      <trkpt lat="47.8225" lon="-2.42453">
        <ele>66</ele>
        <time>2025-02-11T09:56:14Z</time>
      </trkpt>
      <trkpt lat="47.8225" lon="-2.42455">
        <ele>66</ele>
        <time>2025-02-11T09:56:15Z</time>
      </trkpt>
      <trkpt lat="47.82249" lon="-2.42456">
        <ele>66</ele>
        <time>2025-02-11T09:56:16Z</time>
      </trkpt>
      <trkpt lat="47.82249" lon="-2.42458">
        <ele>66</ele>
        <time>2025-02-11T09:56:17Z</time>
      </trkpt>
      <trkpt lat="47.82249" lon="-2.4246">
        <ele>66</ele>
        <time>2025-02-11T09:56:18Z</time>
      </trkpt>
      <trkpt lat="47.82249" lon="-2.42461">
        <ele>66</ele>
        <time>2025-02-11T09:56:19Z</time>
      </trkpt>
      <trkpt lat="47.82248" lon="-2.42463">
        <ele>66</ele>
        <time>2025-02-11T09:56:20Z</time>
      </trkpt>
      <trkpt lat="47.82248" lon="-2.42464">
        <ele>66</ele>
        <time>2025-02-11T09:56:21Z</time>
      </trkpt>
      <trkpt lat="47.82248" lon="-2.42466">
        <ele>66</ele>
        <time>2025-02-11T09:56:22Z</time>
      </trkpt>
      <trkpt lat="47.82248" lon="-2.42468">
        <ele>66</ele>
        <time>2025-02-11T09:56:23Z</time>
      </trkpt>
      <trkpt lat="47.82248" lon="-2.42469">
        <ele>66</ele>
        <time>2025-02-11T09:56:24Z</time>
      </trkpt>
      <trkpt lat="47.82247" lon="-2.42471">
        <ele>66</ele>
        <time>2025-02-11T09:56:25Z</time>
      </trkpt>
      <trkpt lat="47.82248" lon="-2.42473">
        <ele>66</ele>
        <time>2025-02-11T09:56:26Z</time>
      </trkpt>
      <trkpt lat="47.82247" lon="-2.42474">
        <ele>66</ele>
        <time>2025-02-11T09:56:27Z</time>
      </trkpt>
      <trkpt lat="47.82247" lon="-2.42476">
        <ele>66</ele>
        <time>2025-02-11T09:56:28Z</time>
      </trkpt>
      <trkpt lat="47.82246" lon="-2.42478">
        <ele>66</ele>
        <time>2025-02-11T09:56:29Z</time>
      </trkpt>
      <trkpt lat="47.82246" lon="-2.42479">
        <ele>66</ele>
        <time>2025-02-11T09:56:30Z</time>
      </trkpt>
      <trkpt lat="47.82245" lon="-2.42481">
        <ele>66.1</ele>
        <time>2025-02-11T09:56:31Z</time>
      </trkpt>
      <trkpt lat="47.82245" lon="-2.42483">
        <ele>66.1</ele>
        <time>2025-02-11T09:56:32Z</time>
      </trkpt>
      <trkpt lat="47.82245" lon="-2.42485">
        <ele>66.1</ele>
        <time>2025-02-11T09:56:33Z</time>
      </trkpt>
      <trkpt lat="47.82245" lon="-2.42487">
        <ele>66.1</ele>
        <time>2025-02-11T09:56:34Z</time>
      </trkpt>
      <trkpt lat="47.82245" lon="-2.42489">
        <ele>66.1</ele>
        <time>2025-02-11T09:56:35Z</time>
      </trkpt>
      <trkpt lat="47.82244" lon="-2.42491">
        <ele>66.1</ele>
        <time>2025-02-11T09:56:36Z</time>
      </trkpt>
      <trkpt lat="47.82244" lon="-2.42493">
        <ele>66.2</ele>
        <time>2025-02-11T09:56:37Z</time>
      </trkpt>
      <trkpt lat="47.82244" lon="-2.42494">
        <ele>66.2</ele>
        <time>2025-02-11T09:56:38Z</time>
      </trkpt>
      <trkpt lat="47.82243" lon="-2.42496">
        <ele>66.2</ele>
        <time>2025-02-11T09:56:39Z</time>
      </trkpt>
      <trkpt lat="47.82243" lon="-2.42497">
        <ele>66.2</ele>
        <time>2025-02-11T09:56:40Z</time>
      </trkpt>
      <trkpt lat="47.82243" lon="-2.42499">
        <ele>66.2</ele>
        <time>2025-02-11T09:56:41Z</time>
      </trkpt>
      <trkpt lat="47.82243" lon="-2.42501">
        <ele>66.2</ele>
        <time>2025-02-11T09:56:42Z</time>
      </trkpt>
      <trkpt lat="47.82243" lon="-2.42502">
        <ele>66.3</ele>
        <time>2025-02-11T09:56:43Z</time>
      </trkpt>
      <trkpt lat="47.82243" lon="-2.42504">
        <ele>66.3</ele>
        <time>2025-02-11T09:56:44Z</time>
      </trkpt>
      <trkpt lat="47.82242" lon="-2.42506">
        <ele>66.3</ele>
        <time>2025-02-11T09:56:45Z</time>
      </trkpt>
      <trkpt lat="47.82242" lon="-2.42507">
        <ele>66.3</ele>
        <time>2025-02-11T09:56:46Z</time>
      </trkpt>
      <trkpt lat="47.82241" lon="-2.42509">
        <ele>66.3</ele>
        <time>2025-02-11T09:56:47Z</time>
      </trkpt>
      <trkpt lat="47.82241" lon="-2.42511">
        <ele>66.3</ele>
        <time>2025-02-11T09:56:48Z</time>
      </trkpt>
      <trkpt lat="47.8224" lon="-2.42512">
        <ele>66.4</ele>
        <time>2025-02-11T09:56:49Z</time>
      </trkpt>
      <trkpt lat="47.8224" lon="-2.42514">
        <ele>66.4</ele>
        <time>2025-02-11T09:56:50Z</time>
      </trkpt>
      <trkpt lat="47.82239" lon="-2.42515">
        <ele>66.4</ele>
        <time>2025-02-11T09:56:51Z</time>
      </trkpt>
      <trkpt lat="47.82239" lon="-2.42517">
        <ele>66.4</ele>
        <time>2025-02-11T09:56:52Z</time>
      </trkpt>
      <trkpt lat="47.82238" lon="-2.42519">
        <ele>66.4</ele>
        <time>2025-02-11T09:56:53Z</time>
      </trkpt>
      <trkpt lat="47.82237" lon="-2.4252">
        <ele>66.5</ele>
        <time>2025-02-11T09:56:54Z</time>
      </trkpt>
      <trkpt lat="47.82237" lon="-2.42521">
        <ele>66.5</ele>
        <time>2025-02-11T09:56:55Z</time>
      </trkpt>
      <trkpt lat="47.82236" lon="-2.42523">
        <ele>66.5</ele>
        <time>2025-02-11T09:56:56Z</time>
      </trkpt>
      <trkpt lat="47.82236" lon="-2.42524">
        <ele>66.5</ele>
        <time>2025-02-11T09:56:57Z</time>
      </trkpt>
      <trkpt lat="47.82235" lon="-2.42525">
        <ele>66.6</ele>
        <time>2025-02-11T09:56:58Z</time>
      </trkpt>
      <trkpt lat="47.82233" lon="-2.42526">
        <ele>66.6</ele>
        <time>2025-02-11T09:56:59Z</time>
      </trkpt>
      <trkpt lat="47.82232" lon="-2.42527">
        <ele>66.6</ele>
        <time>2025-02-11T09:57:00Z</time>
      </trkpt>
      <trkpt lat="47.82231" lon="-2.42527">
        <ele>66.7</ele>
        <time>2025-02-11T09:57:01Z</time>
      </trkpt>
      <trkpt lat="47.8223" lon="-2.42528">
        <ele>66.7</ele>
        <time>2025-02-11T09:57:02Z</time>
      </trkpt>
      <trkpt lat="47.82229" lon="-2.42529">
        <ele>66.8</ele>
        <time>2025-02-11T09:57:03Z</time>
      </trkpt>
      <trkpt lat="47.82228" lon="-2.4253">
        <ele>66.9</ele>
        <time>2025-02-11T09:57:04Z</time>
      </trkpt>
      <trkpt lat="47.82227" lon="-2.4253">
        <ele>66.9</ele>
        <time>2025-02-11T09:57:05Z</time>
      </trkpt>
      <trkpt lat="47.82225" lon="-2.4253">
        <ele>67</ele>
        <time>2025-02-11T09:57:06Z</time>
      </trkpt>
      <trkpt lat="47.82224" lon="-2.4253">
        <ele>67</ele>
        <time>2025-02-11T09:57:07Z</time>
      </trkpt>
      <trkpt lat="47.82223" lon="-2.4253">
        <ele>67</ele>
        <time>2025-02-11T09:57:08Z</time>
      </trkpt>
      <trkpt lat="47.82222" lon="-2.4253">
        <ele>67.1</ele>
        <time>2025-02-11T09:57:09Z</time>
      </trkpt>
      <trkpt lat="47.82221" lon="-2.4253">
        <ele>67.1</ele>
        <time>2025-02-11T09:57:10Z</time>
      </trkpt>
      <trkpt lat="47.8222" lon="-2.4253">
        <ele>67.2</ele>
        <time>2025-02-11T09:57:11Z</time>
      </trkpt>
      <trkpt lat="47.82219" lon="-2.42529">
        <ele>67.2</ele>
        <time>2025-02-11T09:57:12Z</time>
      </trkpt>
      <trkpt lat="47.82218" lon="-2.42529">
        <ele>67.2</ele>
        <time>2025-02-11T09:57:13Z</time>
      </trkpt>
      <trkpt lat="47.82217" lon="-2.42528">
        <ele>67.2</ele>
        <time>2025-02-11T09:57:14Z</time>
      </trkpt>
      <trkpt lat="47.82216" lon="-2.42527">
        <ele>67.2</ele>
        <time>2025-02-11T09:57:15Z</time>
      </trkpt>
      <trkpt lat="47.82215" lon="-2.42527">
        <ele>67.2</ele>
        <time>2025-02-11T09:57:16Z</time>
      </trkpt>
      <trkpt lat="47.82214" lon="-2.42526">
        <ele>67.3</ele>
        <time>2025-02-11T09:57:17Z</time>
      </trkpt>
      <trkpt lat="47.82214" lon="-2.42526">
        <ele>67.3</ele>
        <time>2025-02-11T09:57:18Z</time>
      </trkpt>
      <trkpt lat="47.82213" lon="-2.42526">
        <ele>67.3</ele>
        <time>2025-02-11T09:57:19Z</time>
      </trkpt>
      <trkpt lat="47.82213" lon="-2.42526">
        <ele>67.3</ele>
        <time>2025-02-11T09:57:20Z</time>
      </trkpt>
      <trkpt lat="47.82213" lon="-2.42526">
        <ele>67.3</ele>
        <time>2025-02-11T09:57:21Z</time>
      </trkpt>
      <trkpt lat="47.82213" lon="-2.42526">
        <ele>67.3</ele>
        <time>2025-02-11T09:57:22Z</time>
      </trkpt>
      <trkpt lat="47.82213" lon="-2.42526">
        <ele>67.3</ele>
        <time>2025-02-11T09:57:23Z</time>
      </trkpt>
      <trkpt lat="47.82213" lon="-2.42526">
        <ele>67.3</ele>
        <time>2025-02-11T09:57:24Z</time>
      </trkpt>
      <trkpt lat="47.82213" lon="-2.42526">
        <ele>67.3</ele>
        <time>2025-02-11T09:57:25Z</time>
      </trkpt>
      <trkpt lat="47.82214" lon="-2.42526">
        <ele>67.3</ele>
        <time>2025-02-11T09:57:26Z</time>
      </trkpt>
      <trkpt lat="47.82214" lon="-2.42526">
        <ele>67.3</ele>
        <time>2025-02-11T09:57:27Z</time>
      </trkpt>
      <trkpt lat="47.82214" lon="-2.42528">
        <ele>67.3</ele>
        <time>2025-02-11T09:57:28Z</time>
      </trkpt>
      <trkpt lat="47.82214" lon="-2.42529">
        <ele>67.3</ele>
        <time>2025-02-11T09:57:29Z</time>
      </trkpt>
      <trkpt lat="47.82214" lon="-2.4253">
        <ele>67.3</ele>
        <time>2025-02-11T09:57:30Z</time>
      </trkpt>
      <trkpt lat="47.82214" lon="-2.42531">
        <ele>67.4</ele>
        <time>2025-02-11T09:57:31Z</time>
      </trkpt>
      <trkpt lat="47.82214" lon="-2.42532">
        <ele>67.5</ele>
        <time>2025-02-11T09:57:32Z</time>
      </trkpt>
      <trkpt lat="47.82213" lon="-2.42533">
        <ele>67.5</ele>
        <time>2025-02-11T09:57:33Z</time>
      </trkpt>
      <trkpt lat="47.82212" lon="-2.42533">
        <ele>67.6</ele>
        <time>2025-02-11T09:57:34Z</time>
      </trkpt>
      <trkpt lat="47.82211" lon="-2.42534">
        <ele>67.6</ele>
        <time>2025-02-11T09:57:35Z</time>
      </trkpt>
      <trkpt lat="47.82211" lon="-2.42536">
        <ele>67.7</ele>
        <time>2025-02-11T09:57:36Z</time>
      </trkpt>
      <trkpt lat="47.82211" lon="-2.42538">
        <ele>67.8</ele>
        <time>2025-02-11T09:57:37Z</time>
      </trkpt>
      <trkpt lat="47.82211" lon="-2.42539">
        <ele>67.8</ele>
        <time>2025-02-11T09:57:38Z</time>
      </trkpt>
      <trkpt lat="47.82211" lon="-2.42541">
        <ele>67.9</ele>
        <time>2025-02-11T09:57:39Z</time>
      </trkpt>
      <trkpt lat="47.8221" lon="-2.42543">
        <ele>68</ele>
        <time>2025-02-11T09:57:40Z</time>
      </trkpt>
      <trkpt lat="47.8221" lon="-2.42545">
        <ele>68</ele>
        <time>2025-02-11T09:57:41Z</time>
      </trkpt>
      <trkpt lat="47.8221" lon="-2.42547">
        <ele>68.1</ele>
        <time>2025-02-11T09:57:42Z</time>
      </trkpt>
      <trkpt lat="47.8221" lon="-2.42548">
        <ele>68.2</ele>
        <time>2025-02-11T09:57:43Z</time>
      </trkpt>
      <trkpt lat="47.8221" lon="-2.4255">
        <ele>68.2</ele>
        <time>2025-02-11T09:57:44Z</time>
      </trkpt>
      <trkpt lat="47.8221" lon="-2.42551">
        <ele>68.3</ele>
        <time>2025-02-11T09:57:45Z</time>
      </trkpt>
      <trkpt lat="47.8221" lon="-2.42553">
        <ele>68.3</ele>
        <time>2025-02-11T09:57:46Z</time>
      </trkpt>
      <trkpt lat="47.8221" lon="-2.42554">
        <ele>68.4</ele>
        <time>2025-02-11T09:57:47Z</time>
      </trkpt>
      <trkpt lat="47.8221" lon="-2.42555">
        <ele>68.4</ele>
        <time>2025-02-11T09:57:48Z</time>
      </trkpt>
      <trkpt lat="47.82211" lon="-2.42556">
        <ele>68.4</ele>
        <time>2025-02-11T09:57:49Z</time>
      </trkpt>
      <trkpt lat="47.82211" lon="-2.42558">
        <ele>68.4</ele>
        <time>2025-02-11T09:57:50Z</time>
      </trkpt>
      <trkpt lat="47.8221" lon="-2.42559">
        <ele>68.4</ele>
        <time>2025-02-11T09:57:51Z</time>
      </trkpt>
      <trkpt lat="47.8221" lon="-2.42561">
        <ele>68.4</ele>
        <time>2025-02-11T09:57:52Z</time>
      </trkpt>
      <trkpt lat="47.8221" lon="-2.42562">
        <ele>68.4</ele>
        <time>2025-02-11T09:57:53Z</time>
      </trkpt>
      <trkpt lat="47.8221" lon="-2.42563">
        <ele>68.5</ele>
        <time>2025-02-11T09:57:54Z</time>
      </trkpt>
      <trkpt lat="47.8221" lon="-2.42565">
        <ele>68.5</ele>
        <time>2025-02-11T09:57:55Z</time>
      </trkpt>
      <trkpt lat="47.8221" lon="-2.42566">
        <ele>68.5</ele>
        <time>2025-02-11T09:57:56Z</time>
      </trkpt>
      <trkpt lat="47.8221" lon="-2.42568">
        <ele>68.5</ele>
        <time>2025-02-11T09:57:57Z</time>
      </trkpt>
      <trkpt lat="47.82211" lon="-2.42569">
        <ele>68.4</ele>
        <time>2025-02-11T09:57:58Z</time>
      </trkpt>
      <trkpt lat="47.82211" lon="-2.4257">
        <ele>68.4</ele>
        <time>2025-02-11T09:57:59Z</time>
      </trkpt>
      <trkpt lat="47.8221" lon="-2.42572">
        <ele>68.4</ele>
        <time>2025-02-11T09:58:00Z</time>
      </trkpt>
      <trkpt lat="47.8221" lon="-2.42573">
        <ele>68.4</ele>
        <time>2025-02-11T09:58:01Z</time>
      </trkpt>
      <trkpt lat="47.8221" lon="-2.42575">
        <ele>68.4</ele>
        <time>2025-02-11T09:58:02Z</time>
      </trkpt>
      <trkpt lat="47.8221" lon="-2.42576">
        <ele>68.4</ele>
        <time>2025-02-11T09:58:03Z</time>
      </trkpt>
      <trkpt lat="47.8221" lon="-2.42577">
        <ele>68.4</ele>
        <time>2025-02-11T09:58:04Z</time>
      </trkpt>
      <trkpt lat="47.8221" lon="-2.42577">
        <ele>68.4</ele>
        <time>2025-02-11T09:58:05Z</time>
      </trkpt>
      <trkpt lat="47.8221" lon="-2.42576">
        <ele>68.4</ele>
        <time>2025-02-11T09:58:06Z</time>
      </trkpt>
      <trkpt lat="47.8221" lon="-2.42576">
        <ele>68.4</ele>
        <time>2025-02-11T09:58:07Z</time>
      </trkpt>
      <trkpt lat="47.8221" lon="-2.42576">
        <ele>68.4</ele>
        <time>2025-02-11T09:58:08Z</time>
      </trkpt>
      <trkpt lat="47.8221" lon="-2.42576">
        <ele>68.4</ele>
        <time>2025-02-11T09:58:09Z</time>
      </trkpt>
      <trkpt lat="47.8221" lon="-2.42576">
        <ele>68.4</ele>
        <time>2025-02-11T09:58:10Z</time>
      </trkpt>
      <trkpt lat="47.8221" lon="-2.42576">
        <ele>68.4</ele>
        <time>2025-02-11T09:58:11Z</time>
      </trkpt>
      <trkpt lat="47.8221" lon="-2.42576">
        <ele>68.4</ele>
        <time>2025-02-11T09:58:12Z</time>
      </trkpt>
      <trkpt lat="47.8221" lon="-2.42576">
        <ele>68.4</ele>
        <time>2025-02-11T09:58:13Z</time>
      </trkpt>
      <trkpt lat="47.8221" lon="-2.42576">
        <ele>68.4</ele>
        <time>2025-02-11T09:58:14Z</time>
      </trkpt>
      <trkpt lat="47.8221" lon="-2.42576">
        <ele>68.4</ele>
        <time>2025-02-11T09:58:15Z</time>
      </trkpt>
      <trkpt lat="47.8221" lon="-2.42576">
        <ele>68.4</ele>
        <time>2025-02-11T09:58:16Z</time>
      </trkpt>
      <trkpt lat="47.8221" lon="-2.42576">
        <ele>68.4</ele>
        <time>2025-02-11T09:58:17Z</time>
      </trkpt>
      <trkpt lat="47.8221" lon="-2.42576">
        <ele>68.4</ele>
        <time>2025-02-11T09:58:18Z</time>
      </trkpt>
      <trkpt lat="47.8221" lon="-2.42576">
        <ele>68.4</ele>
        <time>2025-02-11T09:58:19Z</time>
      </trkpt>
      <trkpt lat="47.8221" lon="-2.42576">
        <ele>68.4</ele>
        <time>2025-02-11T09:58:20Z</time>
      </trkpt>
      <trkpt lat="47.8221" lon="-2.42576">
        <ele>68.4</ele>
        <time>2025-02-11T09:58:21Z</time>
      </trkpt>
      <trkpt lat="47.8221" lon="-2.42576">
        <ele>68.4</ele>
        <time>2025-02-11T09:58:22Z</time>
      </trkpt>
      <trkpt lat="47.8221" lon="-2.42576">
        <ele>68.4</ele>
        <time>2025-02-11T09:58:23Z</time>
      </trkpt>
      <trkpt lat="47.8221" lon="-2.42576">
        <ele>68.4</ele>
        <time>2025-02-11T09:58:24Z</time>
      </trkpt>
      <trkpt lat="47.8221" lon="-2.42576">
        <ele>68.4</ele>
        <time>2025-02-11T09:58:25Z</time>
      </trkpt>
      <trkpt lat="47.8221" lon="-2.42576">
        <ele>68.4</ele>
        <time>2025-02-11T09:58:26Z</time>
      </trkpt>
      <trkpt lat="47.8221" lon="-2.42576">
        <ele>68.4</ele>
        <time>2025-02-11T09:58:27Z</time>
      </trkpt>
      <trkpt lat="47.8221" lon="-2.42577">
        <ele>68.4</ele>
        <time>2025-02-11T09:58:28Z</time>
      </trkpt>
      <trkpt lat="47.8221" lon="-2.42578">
        <ele>68.4</ele>
        <time>2025-02-11T09:58:29Z</time>
      </trkpt>
      <trkpt lat="47.8221" lon="-2.42579">
        <ele>68.4</ele>
        <time>2025-02-11T09:58:30Z</time>
      </trkpt>
      <trkpt lat="47.8221" lon="-2.4258">
        <ele>68.4</ele>
        <time>2025-02-11T09:58:31Z</time>
      </trkpt>
      <trkpt lat="47.82209" lon="-2.42581">
        <ele>68.5</ele>
        <time>2025-02-11T09:58:32Z</time>
      </trkpt>
      <trkpt lat="47.82209" lon="-2.42582">
        <ele>68.5</ele>
        <time>2025-02-11T09:58:33Z</time>
      </trkpt>
      <trkpt lat="47.82209" lon="-2.42583">
        <ele>68.5</ele>
        <time>2025-02-11T09:58:34Z</time>
      </trkpt>
      <trkpt lat="47.82209" lon="-2.42584">
        <ele>68.5</ele>
        <time>2025-02-11T09:58:35Z</time>
      </trkpt>
      <trkpt lat="47.82209" lon="-2.42586">
        <ele>68.5</ele>
        <time>2025-02-11T09:58:36Z</time>
      </trkpt>
      <trkpt lat="47.82209" lon="-2.42587">
        <ele>68.5</ele>
        <time>2025-02-11T09:58:37Z</time>
      </trkpt>
      <trkpt lat="47.82209" lon="-2.42588">
        <ele>68.5</ele>
        <time>2025-02-11T09:58:38Z</time>
      </trkpt>
      <trkpt lat="47.82209" lon="-2.42589">
        <ele>68.6</ele>
        <time>2025-02-11T09:58:39Z</time>
      </trkpt>
      <trkpt lat="47.8221" lon="-2.42591">
        <ele>68.6</ele>
        <time>2025-02-11T09:58:40Z</time>
      </trkpt>
      <trkpt lat="47.8221" lon="-2.42592">
        <ele>68.6</ele>
        <time>2025-02-11T09:58:41Z</time>
      </trkpt>
      <trkpt lat="47.8221" lon="-2.42594">
        <ele>68.6</ele>
        <time>2025-02-11T09:58:42Z</time>
      </trkpt>
      <trkpt lat="47.8221" lon="-2.42595">
        <ele>68.6</ele>
        <time>2025-02-11T09:58:43Z</time>
      </trkpt>
      <trkpt lat="47.82211" lon="-2.42597">
        <ele>68.6</ele>
        <time>2025-02-11T09:58:44Z</time>
      </trkpt>
      <trkpt lat="47.82211" lon="-2.42598">
        <ele>68.6</ele>
        <time>2025-02-11T09:58:45Z</time>
      </trkpt>
      <trkpt lat="47.82211" lon="-2.426">
        <ele>68.6</ele>
        <time>2025-02-11T09:58:46Z</time>
      </trkpt>
      <trkpt lat="47.82212" lon="-2.42602">
        <ele>68.6</ele>
        <time>2025-02-11T09:58:47Z</time>
      </trkpt>
      <trkpt lat="47.82212" lon="-2.42604">
        <ele>68.6</ele>
        <time>2025-02-11T09:58:48Z</time>
      </trkpt>
      <trkpt lat="47.82213" lon="-2.42606">
        <ele>68.6</ele>
        <time>2025-02-11T09:58:49Z</time>
      </trkpt>
      <trkpt lat="47.82214" lon="-2.42607">
        <ele>68.6</ele>
        <time>2025-02-11T09:58:50Z</time>
      </trkpt>
      <trkpt lat="47.82215" lon="-2.42609">
        <ele>68.5</ele>
        <time>2025-02-11T09:58:51Z</time>
      </trkpt>
      <trkpt lat="47.82216" lon="-2.42611">
        <ele>68.5</ele>
        <time>2025-02-11T09:58:52Z</time>
      </trkpt>
      <trkpt lat="47.82217" lon="-2.42613">
        <ele>68.4</ele>
        <time>2025-02-11T09:58:53Z</time>
      </trkpt>
      <trkpt lat="47.82217" lon="-2.42614">
        <ele>68.4</ele>
        <time>2025-02-11T09:58:54Z</time>
      </trkpt>
      <trkpt lat="47.82218" lon="-2.42616">
        <ele>68.4</ele>
        <time>2025-02-11T09:58:55Z</time>
      </trkpt>
      <trkpt lat="47.82218" lon="-2.42618">
        <ele>68.4</ele>
        <time>2025-02-11T09:58:56Z</time>
      </trkpt>
      <trkpt lat="47.82218" lon="-2.4262">
        <ele>68.4</ele>
        <time>2025-02-11T09:58:57Z</time>
      </trkpt>
      <trkpt lat="47.82218" lon="-2.42622">
        <ele>68.3</ele>
        <time>2025-02-11T09:58:58Z</time>
      </trkpt>
      <trkpt lat="47.82219" lon="-2.42624">
        <ele>68.3</ele>
        <time>2025-02-11T09:58:59Z</time>
      </trkpt>
      <trkpt lat="47.82219" lon="-2.42626">
        <ele>68.3</ele>
        <time>2025-02-11T09:59:00Z</time>
      </trkpt>
      <trkpt lat="47.82219" lon="-2.42627">
        <ele>68.3</ele>
        <time>2025-02-11T09:59:01Z</time>
      </trkpt>
      <trkpt lat="47.82219" lon="-2.42629">
        <ele>68.3</ele>
        <time>2025-02-11T09:59:02Z</time>
      </trkpt>
      <trkpt lat="47.82219" lon="-2.4263">
        <ele>68.3</ele>
        <time>2025-02-11T09:59:03Z</time>
      </trkpt>
      <trkpt lat="47.82219" lon="-2.42632">
        <ele>68.3</ele>
        <time>2025-02-11T09:59:04Z</time>
      </trkpt>
      <trkpt lat="47.82219" lon="-2.42633">
        <ele>68.3</ele>
        <time>2025-02-11T09:59:05Z</time>
      </trkpt>
      <trkpt lat="47.8222" lon="-2.42635">
        <ele>68.3</ele>
        <time>2025-02-11T09:59:06Z</time>
      </trkpt>
      <trkpt lat="47.8222" lon="-2.42637">
        <ele>68.3</ele>
        <time>2025-02-11T09:59:07Z</time>
      </trkpt>
      <trkpt lat="47.82219" lon="-2.42638">
        <ele>68.3</ele>
        <time>2025-02-11T09:59:08Z</time>
      </trkpt>
      <trkpt lat="47.82219" lon="-2.4264">
        <ele>68.3</ele>
        <time>2025-02-11T09:59:09Z</time>
      </trkpt>
      <trkpt lat="47.82219" lon="-2.42642">
        <ele>68.3</ele>
        <time>2025-02-11T09:59:10Z</time>
      </trkpt>
      <trkpt lat="47.82219" lon="-2.42643">
        <ele>68.3</ele>
        <time>2025-02-11T09:59:11Z</time>
      </trkpt>
      <trkpt lat="47.82219" lon="-2.42645">
        <ele>68.3</ele>
        <time>2025-02-11T09:59:12Z</time>
      </trkpt>
      <trkpt lat="47.82219" lon="-2.42648">
        <ele>68.3</ele>
        <time>2025-02-11T09:59:13Z</time>
      </trkpt>
      <trkpt lat="47.8222" lon="-2.4265">
        <ele>68.3</ele>
        <time>2025-02-11T09:59:14Z</time>
      </trkpt>
      <trkpt lat="47.8222" lon="-2.42652">
        <ele>68.2</ele>
        <time>2025-02-11T09:59:15Z</time>
      </trkpt>
      <trkpt lat="47.8222" lon="-2.42653">
        <ele>68.2</ele>
        <time>2025-02-11T09:59:16Z</time>
      </trkpt>
      <trkpt lat="47.8222" lon="-2.42655">
        <ele>68.2</ele>
        <time>2025-02-11T09:59:17Z</time>
      </trkpt>
      <trkpt lat="47.8222" lon="-2.42657">
        <ele>68.2</ele>
        <time>2025-02-11T09:59:18Z</time>
      </trkpt>
      <trkpt lat="47.8222" lon="-2.42659">
        <ele>68.2</ele>
        <time>2025-02-11T09:59:19Z</time>
      </trkpt>
      <trkpt lat="47.8222" lon="-2.4266">
        <ele>68.2</ele>
        <time>2025-02-11T09:59:20Z</time>
      </trkpt>
      <trkpt lat="47.8222" lon="-2.42662">
        <ele>68.3</ele>
        <time>2025-02-11T09:59:21Z</time>
      </trkpt>
      <trkpt lat="47.8222" lon="-2.42663">
        <ele>68.3</ele>
        <time>2025-02-11T09:59:22Z</time>
      </trkpt>
      <trkpt lat="47.8222" lon="-2.42664">
        <ele>68.2</ele>
        <time>2025-02-11T09:59:23Z</time>
      </trkpt>
      <trkpt lat="47.82221" lon="-2.42665">
        <ele>68.2</ele>
        <time>2025-02-11T09:59:24Z</time>
      </trkpt>
      <trkpt lat="47.82221" lon="-2.42667">
        <ele>68.2</ele>
        <time>2025-02-11T09:59:25Z</time>
      </trkpt>
      <trkpt lat="47.82221" lon="-2.42668">
        <ele>68.1</ele>
        <time>2025-02-11T09:59:26Z</time>
      </trkpt>
      <trkpt lat="47.82221" lon="-2.42669">
        <ele>68.1</ele>
        <time>2025-02-11T09:59:27Z</time>
      </trkpt>
      <trkpt lat="47.82222" lon="-2.42671">
        <ele>68</ele>
        <time>2025-02-11T09:59:28Z</time>
      </trkpt>
      <trkpt lat="47.82222" lon="-2.42672">
        <ele>68</ele>
        <time>2025-02-11T09:59:29Z</time>
      </trkpt>
      <trkpt lat="47.82223" lon="-2.42674">
        <ele>67.9</ele>
        <time>2025-02-11T09:59:30Z</time>
      </trkpt>
      <trkpt lat="47.82223" lon="-2.42676">
        <ele>67.9</ele>
        <time>2025-02-11T09:59:31Z</time>
      </trkpt>
      <trkpt lat="47.82223" lon="-2.42677">
        <ele>67.9</ele>
        <time>2025-02-11T09:59:32Z</time>
      </trkpt>
      <trkpt lat="47.82223" lon="-2.42679">
        <ele>67.9</ele>
        <time>2025-02-11T09:59:33Z</time>
      </trkpt>
      <trkpt lat="47.82223" lon="-2.4268">
        <ele>67.9</ele>
        <time>2025-02-11T09:59:34Z</time>
      </trkpt>
      <trkpt lat="47.82223" lon="-2.42681">
        <ele>67.9</ele>
        <time>2025-02-11T09:59:35Z</time>
      </trkpt>
      <trkpt lat="47.82223" lon="-2.42683">
        <ele>67.9</ele>
        <time>2025-02-11T09:59:36Z</time>
      </trkpt>
      <trkpt lat="47.82224" lon="-2.42684">
        <ele>67.8</ele>
        <time>2025-02-11T09:59:37Z</time>
      </trkpt>
      <trkpt lat="47.82224" lon="-2.42684">
        <ele>67.7</ele>
        <time>2025-02-11T09:59:38Z</time>
      </trkpt>
      <trkpt lat="47.82225" lon="-2.42685">
        <ele>67.7</ele>
        <time>2025-02-11T09:59:39Z</time>
      </trkpt>
      <trkpt lat="47.82225" lon="-2.42687">
        <ele>67.7</ele>
        <time>2025-02-11T09:59:40Z</time>
      </trkpt>
      <trkpt lat="47.82224" lon="-2.42688">
        <ele>67.7</ele>
        <time>2025-02-11T09:59:41Z</time>
      </trkpt>
      <trkpt lat="47.82223" lon="-2.42689">
        <ele>67.8</ele>
        <time>2025-02-11T09:59:42Z</time>
      </trkpt>
      <trkpt lat="47.82223" lon="-2.4269">
        <ele>67.9</ele>
        <time>2025-02-11T09:59:43Z</time>
      </trkpt>
      <trkpt lat="47.82222" lon="-2.42691">
        <ele>68</ele>
        <time>2025-02-11T09:59:44Z</time>
      </trkpt>
      <trkpt lat="47.82221" lon="-2.42692">
        <ele>68.1</ele>
        <time>2025-02-11T09:59:45Z</time>
      </trkpt>
      <trkpt lat="47.8222" lon="-2.42693">
        <ele>68.1</ele>
        <time>2025-02-11T09:59:46Z</time>
      </trkpt>
      <trkpt lat="47.8222" lon="-2.42694">
        <ele>68.2</ele>
        <time>2025-02-11T09:59:47Z</time>
      </trkpt>
      <trkpt lat="47.82219" lon="-2.42695">
        <ele>68.2</ele>
        <time>2025-02-11T09:59:48Z</time>
      </trkpt>
      <trkpt lat="47.82219" lon="-2.42696">
        <ele>68.1</ele>
        <time>2025-02-11T09:59:49Z</time>
      </trkpt>
      <trkpt lat="47.82219" lon="-2.42697">
        <ele>68.1</ele>
        <time>2025-02-11T09:59:50Z</time>
      </trkpt>
      <trkpt lat="47.82218" lon="-2.42699">
        <ele>68.1</ele>
        <time>2025-02-11T09:59:51Z</time>
      </trkpt>
      <trkpt lat="47.82218" lon="-2.427">
        <ele>68.1</ele>
        <time>2025-02-11T09:59:52Z</time>
      </trkpt>
      <trkpt lat="47.82218" lon="-2.42702">
        <ele>68</ele>
        <time>2025-02-11T09:59:53Z</time>
      </trkpt>
      <trkpt lat="47.82218" lon="-2.42704">
        <ele>67.9</ele>
        <time>2025-02-11T09:59:54Z</time>
      </trkpt>
      <trkpt lat="47.82218" lon="-2.42706">
        <ele>67.9</ele>
        <time>2025-02-11T09:59:55Z</time>
      </trkpt>
      <trkpt lat="47.82218" lon="-2.42708">
        <ele>67.8</ele>
        <time>2025-02-11T09:59:56Z</time>
      </trkpt>
      <trkpt lat="47.82218" lon="-2.42709">
        <ele>67.7</ele>
        <time>2025-02-11T09:59:57Z</time>
      </trkpt>
      <trkpt lat="47.82218" lon="-2.42711">
        <ele>67.6</ele>
        <time>2025-02-11T09:59:58Z</time>
      </trkpt>
      <trkpt lat="47.82218" lon="-2.42713">
        <ele>67.5</ele>
        <time>2025-02-11T09:59:59Z</time>
      </trkpt>
      <trkpt lat="47.82218" lon="-2.42715">
        <ele>67.5</ele>
        <time>2025-02-11T10:00:00Z</time>
      </trkpt>
      <trkpt lat="47.82217" lon="-2.42716">
        <ele>67.4</ele>
        <time>2025-02-11T10:00:01Z</time>
      </trkpt>
      <trkpt lat="47.82217" lon="-2.42718">
        <ele>67.4</ele>
        <time>2025-02-11T10:00:02Z</time>
      </trkpt>
      <trkpt lat="47.82217" lon="-2.4272">
        <ele>67.3</ele>
        <time>2025-02-11T10:00:03Z</time>
      </trkpt>
      <trkpt lat="47.82217" lon="-2.42722">
        <ele>67.2</ele>
        <time>2025-02-11T10:00:04Z</time>
      </trkpt>
      <trkpt lat="47.82217" lon="-2.42723">
        <ele>67.2</ele>
        <time>2025-02-11T10:00:05Z</time>
      </trkpt>
      <trkpt lat="47.82217" lon="-2.42725">
        <ele>67.1</ele>
        <time>2025-02-11T10:00:06Z</time>
      </trkpt>
      <trkpt lat="47.82218" lon="-2.42726">
        <ele>67</ele>
        <time>2025-02-11T10:00:07Z</time>
      </trkpt>
      <trkpt lat="47.82218" lon="-2.42728">
        <ele>67</ele>
        <time>2025-02-11T10:00:08Z</time>
      </trkpt>
      <trkpt lat="47.82219" lon="-2.42728">
        <ele>66.9</ele>
        <time>2025-02-11T10:00:09Z</time>
      </trkpt>
      <trkpt lat="47.8222" lon="-2.42729">
        <ele>66.9</ele>
        <time>2025-02-11T10:00:10Z</time>
      </trkpt>
      <trkpt lat="47.8222" lon="-2.42731">
        <ele>66.8</ele>
        <time>2025-02-11T10:00:11Z</time>
      </trkpt>
      <trkpt lat="47.8222" lon="-2.42733">
        <ele>66.7</ele>
        <time>2025-02-11T10:00:12Z</time>
      </trkpt>
      <trkpt lat="47.82221" lon="-2.42735">
        <ele>66.6</ele>
        <time>2025-02-11T10:00:13Z</time>
      </trkpt>
      <trkpt lat="47.82221" lon="-2.42736">
        <ele>66.6</ele>
        <time>2025-02-11T10:00:14Z</time>
      </trkpt>
      <trkpt lat="47.82221" lon="-2.42738">
        <ele>66.5</ele>
        <time>2025-02-11T10:00:15Z</time>
      </trkpt>
      <trkpt lat="47.82221" lon="-2.4274">
        <ele>66.4</ele>
        <time>2025-02-11T10:00:16Z</time>
      </trkpt>
      <trkpt lat="47.82221" lon="-2.42741">
        <ele>66.4</ele>
        <time>2025-02-11T10:00:17Z</time>
      </trkpt>
      <trkpt lat="47.82221" lon="-2.42743">
        <ele>66.3</ele>
        <time>2025-02-11T10:00:18Z</time>
      </trkpt>
      <trkpt lat="47.82222" lon="-2.42745">
        <ele>66.2</ele>
        <time>2025-02-11T10:00:19Z</time>
      </trkpt>
      <trkpt lat="47.82222" lon="-2.42747">
        <ele>66.1</ele>
        <time>2025-02-11T10:00:20Z</time>
      </trkpt>
      <trkpt lat="47.82223" lon="-2.4275">
        <ele>66</ele>
        <time>2025-02-11T10:00:21Z</time>
      </trkpt>
      <trkpt lat="47.82222" lon="-2.42752">
        <ele>66</ele>
        <time>2025-02-11T10:00:22Z</time>
      </trkpt>
      <trkpt lat="47.82219" lon="-2.42754">
        <ele>66.1</ele>
        <time>2025-02-11T10:00:23Z</time>
      </trkpt>
      <trkpt lat="47.82217" lon="-2.42754">
        <ele>66.2</ele>
        <time>2025-02-11T10:00:24Z</time>
      </trkpt>
      <trkpt lat="47.82216" lon="-2.42755">
        <ele>66.3</ele>
        <time>2025-02-11T10:00:25Z</time>
      </trkpt>
      <trkpt lat="47.82215" lon="-2.42756">
        <ele>66.3</ele>
        <time>2025-02-11T10:00:26Z</time>
      </trkpt>
      <trkpt lat="47.82214" lon="-2.42756">
        <ele>66.4</ele>
        <time>2025-02-11T10:00:27Z</time>
      </trkpt>
      <trkpt lat="47.82213" lon="-2.42757">
        <ele>66.4</ele>
        <time>2025-02-11T10:00:28Z</time>
      </trkpt>
      <trkpt lat="47.82213" lon="-2.42758">
        <ele>66.4</ele>
        <time>2025-02-11T10:00:29Z</time>
      </trkpt>
      <trkpt lat="47.82211" lon="-2.4276">
        <ele>66.5</ele>
        <time>2025-02-11T10:00:30Z</time>
      </trkpt>
      <trkpt lat="47.8221" lon="-2.42762">
        <ele>66.5</ele>
        <time>2025-02-11T10:00:31Z</time>
      </trkpt>
      <trkpt lat="47.8221" lon="-2.42763">
        <ele>66.4</ele>
        <time>2025-02-11T10:00:32Z</time>
      </trkpt>
      <trkpt lat="47.82209" lon="-2.42764">
        <ele>66.4</ele>
        <time>2025-02-11T10:00:33Z</time>
      </trkpt>
      <trkpt lat="47.82209" lon="-2.42766">
        <ele>66.4</ele>
        <time>2025-02-11T10:00:34Z</time>
      </trkpt>
      <trkpt lat="47.82208" lon="-2.42767">
        <ele>66.4</ele>
        <time>2025-02-11T10:00:35Z</time>
      </trkpt>
      <trkpt lat="47.82209" lon="-2.4277">
        <ele>66.3</ele>
        <time>2025-02-11T10:00:36Z</time>
      </trkpt>
      <trkpt lat="47.82208" lon="-2.42771">
        <ele>66.2</ele>
        <time>2025-02-11T10:00:37Z</time>
      </trkpt>
      <trkpt lat="47.82208" lon="-2.42773">
        <ele>66.2</ele>
        <time>2025-02-11T10:00:38Z</time>
      </trkpt>
      <trkpt lat="47.82208" lon="-2.42775">
        <ele>66.1</ele>
        <time>2025-02-11T10:00:39Z</time>
      </trkpt>
      <trkpt lat="47.82208" lon="-2.42776">
        <ele>66.1</ele>
        <time>2025-02-11T10:00:40Z</time>
      </trkpt>
      <trkpt lat="47.82208" lon="-2.42778">
        <ele>66</ele>
        <time>2025-02-11T10:00:41Z</time>
      </trkpt>
      <trkpt lat="47.82208" lon="-2.4278">
        <ele>65.9</ele>
        <time>2025-02-11T10:00:42Z</time>
      </trkpt>
      <trkpt lat="47.82207" lon="-2.42781">
        <ele>65.9</ele>
        <time>2025-02-11T10:00:43Z</time>
      </trkpt>
      <trkpt lat="47.82207" lon="-2.42783">
        <ele>65.8</ele>
        <time>2025-02-11T10:00:44Z</time>
      </trkpt>
      <trkpt lat="47.82206" lon="-2.42784">
        <ele>65.8</ele>
        <time>2025-02-11T10:00:45Z</time>
      </trkpt>
      <trkpt lat="47.82205" lon="-2.42786">
        <ele>65.7</ele>
        <time>2025-02-11T10:00:46Z</time>
      </trkpt>
      <trkpt lat="47.82205" lon="-2.42788">
        <ele>65.7</ele>
        <time>2025-02-11T10:00:47Z</time>
      </trkpt>
      <trkpt lat="47.82204" lon="-2.42789">
        <ele>65.6</ele>
        <time>2025-02-11T10:00:48Z</time>
      </trkpt>
      <trkpt lat="47.82204" lon="-2.4279">
        <ele>65.6</ele>
        <time>2025-02-11T10:00:49Z</time>
      </trkpt>
      <trkpt lat="47.82204" lon="-2.42792">
        <ele>65.5</ele>
        <time>2025-02-11T10:00:50Z</time>
      </trkpt>
      <trkpt lat="47.82203" lon="-2.42793">
        <ele>65.4</ele>
        <time>2025-02-11T10:00:51Z</time>
      </trkpt>
      <trkpt lat="47.82202" lon="-2.42794">
        <ele>65.5</ele>
        <time>2025-02-11T10:00:52Z</time>
      </trkpt>
      <trkpt lat="47.82201" lon="-2.42794">
        <ele>65.5</ele>
        <time>2025-02-11T10:00:53Z</time>
      </trkpt>
      <trkpt lat="47.822" lon="-2.42793">
        <ele>65.6</ele>
        <time>2025-02-11T10:00:54Z</time>
      </trkpt>
      <trkpt lat="47.82198" lon="-2.42793">
        <ele>65.7</ele>
        <time>2025-02-11T10:00:55Z</time>
      </trkpt>
      <trkpt lat="47.82197" lon="-2.4279">
        <ele>66</ele>
        <time>2025-02-11T10:00:56Z</time>
      </trkpt>
      <trkpt lat="47.82197" lon="-2.42789">
        <ele>66.1</ele>
        <time>2025-02-11T10:00:57Z</time>
      </trkpt>
      <trkpt lat="47.82196" lon="-2.42788">
        <ele>66.2</ele>
        <time>2025-02-11T10:00:58Z</time>
      </trkpt>
      <trkpt lat="47.82195" lon="-2.42787">
        <ele>66.3</ele>
        <time>2025-02-11T10:00:59Z</time>
      </trkpt>
      <trkpt lat="47.82194" lon="-2.42786">
        <ele>66.4</ele>
        <time>2025-02-11T10:01:00Z</time>
      </trkpt>
      <trkpt lat="47.82194" lon="-2.42784">
        <ele>66.6</ele>
        <time>2025-02-11T10:01:01Z</time>
      </trkpt>
      <trkpt lat="47.82193" lon="-2.42783">
        <ele>66.7</ele>
        <time>2025-02-11T10:01:02Z</time>
      </trkpt>
      <trkpt lat="47.82192" lon="-2.42782">
        <ele>66.8</ele>
        <time>2025-02-11T10:01:03Z</time>
      </trkpt>
      <trkpt lat="47.82191" lon="-2.42781">
        <ele>66.9</ele>
        <time>2025-02-11T10:01:04Z</time>
      </trkpt>
      <trkpt lat="47.8219" lon="-2.42779">
        <ele>67</ele>
        <time>2025-02-11T10:01:05Z</time>
      </trkpt>
      <trkpt lat="47.82189" lon="-2.42778">
        <ele>67.2</ele>
        <time>2025-02-11T10:01:06Z</time>
      </trkpt>
      <trkpt lat="47.82189" lon="-2.42776">
        <ele>67.3</ele>
        <time>2025-02-11T10:01:07Z</time>
      </trkpt>
      <trkpt lat="47.82188" lon="-2.42775">
        <ele>67.4</ele>
        <time>2025-02-11T10:01:08Z</time>
      </trkpt>
      <trkpt lat="47.82187" lon="-2.42774">
        <ele>67.4</ele>
        <time>2025-02-11T10:01:09Z</time>
      </trkpt>
      <trkpt lat="47.82186" lon="-2.42773">
        <ele>67.5</ele>
        <time>2025-02-11T10:01:10Z</time>
      </trkpt>
      <trkpt lat="47.82186" lon="-2.42771">
        <ele>67.6</ele>
        <time>2025-02-11T10:01:11Z</time>
      </trkpt>
      <trkpt lat="47.82185" lon="-2.4277">
        <ele>67.7</ele>
        <time>2025-02-11T10:01:12Z</time>
      </trkpt>
      <trkpt lat="47.82185" lon="-2.42767">
        <ele>67.9</ele>
        <time>2025-02-11T10:01:13Z</time>
      </trkpt>
      <trkpt lat="47.82184" lon="-2.42765">
        <ele>68</ele>
        <time>2025-02-11T10:01:14Z</time>
      </trkpt>
      <trkpt lat="47.82184" lon="-2.42764">
        <ele>68.1</ele>
        <time>2025-02-11T10:01:15Z</time>
      </trkpt>
      <trkpt lat="47.82182" lon="-2.42763">
        <ele>68.2</ele>
        <time>2025-02-11T10:01:16Z</time>
      </trkpt>
      <trkpt lat="47.82182" lon="-2.42761">
        <ele>68.3</ele>
        <time>2025-02-11T10:01:17Z</time>
      </trkpt>
      <trkpt lat="47.82181" lon="-2.42759">
        <ele>68.5</ele>
        <time>2025-02-11T10:01:18Z</time>
      </trkpt>
      <trkpt lat="47.82181" lon="-2.42758">
        <ele>68.6</ele>
        <time>2025-02-11T10:01:19Z</time>
      </trkpt>
      <trkpt lat="47.8218" lon="-2.42757">
        <ele>68.7</ele>
        <time>2025-02-11T10:01:20Z</time>
      </trkpt>
      <trkpt lat="47.82178" lon="-2.42756">
        <ele>68.9</ele>
        <time>2025-02-11T10:01:21Z</time>
      </trkpt>
      <trkpt lat="47.82177" lon="-2.42755">
        <ele>69</ele>
        <time>2025-02-11T10:01:22Z</time>
      </trkpt>
      <trkpt lat="47.82176" lon="-2.42754">
        <ele>69.1</ele>
        <time>2025-02-11T10:01:23Z</time>
      </trkpt>
      <trkpt lat="47.82175" lon="-2.42753">
        <ele>69.2</ele>
        <time>2025-02-11T10:01:24Z</time>
      </trkpt>
      <trkpt lat="47.82174" lon="-2.42753">
        <ele>69.3</ele>
        <time>2025-02-11T10:01:25Z</time>
      </trkpt>
      <trkpt lat="47.82173" lon="-2.42753">
        <ele>69.4</ele>
        <time>2025-02-11T10:01:26Z</time>
      </trkpt>
      <trkpt lat="47.82172" lon="-2.42754">
        <ele>69.4</ele>
        <time>2025-02-11T10:01:27Z</time>
      </trkpt>
      <trkpt lat="47.82171" lon="-2.42755">
        <ele>69.4</ele>
        <time>2025-02-11T10:01:28Z</time>
      </trkpt>
      <trkpt lat="47.8217" lon="-2.42756">
        <ele>69.4</ele>
        <time>2025-02-11T10:01:29Z</time>
      </trkpt>
      <trkpt lat="47.82169" lon="-2.42756">
        <ele>69.4</ele>
        <time>2025-02-11T10:01:30Z</time>
      </trkpt>
      <trkpt lat="47.82168" lon="-2.42757">
        <ele>69.4</ele>
        <time>2025-02-11T10:01:31Z</time>
      </trkpt>
      <trkpt lat="47.82167" lon="-2.42756">
        <ele>69.5</ele>
        <time>2025-02-11T10:01:32Z</time>
      </trkpt>
      <trkpt lat="47.82166" lon="-2.42757">
        <ele>69.5</ele>
        <time>2025-02-11T10:01:33Z</time>
      </trkpt>
      <trkpt lat="47.82165" lon="-2.42755">
        <ele>69.7</ele>
        <time>2025-02-11T10:01:34Z</time>
      </trkpt>
      <trkpt lat="47.82165" lon="-2.42753">
        <ele>69.8</ele>
        <time>2025-02-11T10:01:35Z</time>
      </trkpt>
      <trkpt lat="47.82164" lon="-2.42752">
        <ele>69.8</ele>
        <time>2025-02-11T10:01:36Z</time>
      </trkpt>
      <trkpt lat="47.82164" lon="-2.42751">
        <ele>69.9</ele>
        <time>2025-02-11T10:01:37Z</time>
      </trkpt>
      <trkpt lat="47.82163" lon="-2.4275">
        <ele>70</ele>
        <time>2025-02-11T10:01:38Z</time>
      </trkpt>
      <trkpt lat="47.82163" lon="-2.42749">
        <ele>70</ele>
        <time>2025-02-11T10:01:39Z</time>
      </trkpt>
      <trkpt lat="47.82162" lon="-2.42749">
        <ele>70</ele>
        <time>2025-02-11T10:01:40Z</time>
      </trkpt>
      <trkpt lat="47.82161" lon="-2.42748">
        <ele>70.1</ele>
        <time>2025-02-11T10:01:41Z</time>
      </trkpt>
      <trkpt lat="47.8216" lon="-2.42748">
        <ele>70.1</ele>
        <time>2025-02-11T10:01:42Z</time>
      </trkpt>
      <trkpt lat="47.82159" lon="-2.42749">
        <ele>70</ele>
        <time>2025-02-11T10:01:43Z</time>
      </trkpt>
      <trkpt lat="47.82158" lon="-2.42748">
        <ele>70.1</ele>
        <time>2025-02-11T10:01:44Z</time>
      </trkpt>
      <trkpt lat="47.82157" lon="-2.42747">
        <ele>70.1</ele>
        <time>2025-02-11T10:01:45Z</time>
      </trkpt>
      <trkpt lat="47.82156" lon="-2.42747">
        <ele>70.1</ele>
        <time>2025-02-11T10:01:46Z</time>
      </trkpt>
      <trkpt lat="47.82156" lon="-2.42747">
        <ele>70.1</ele>
        <time>2025-02-11T10:01:47Z</time>
      </trkpt>
      <trkpt lat="47.82156" lon="-2.42746">
        <ele>70.1</ele>
        <time>2025-02-11T10:01:48Z</time>
      </trkpt>
      <trkpt lat="47.82156" lon="-2.42746">
        <ele>70.1</ele>
        <time>2025-02-11T10:01:49Z</time>
      </trkpt>
      <trkpt lat="47.82156" lon="-2.42746">
        <ele>70.1</ele>
        <time>2025-02-11T10:01:50Z</time>
      </trkpt>
      <trkpt lat="47.82156" lon="-2.42746">
        <ele>70.1</ele>
        <time>2025-02-11T10:01:51Z</time>
      </trkpt>
      <trkpt lat="47.82156" lon="-2.42746">
        <ele>70.1</ele>
        <time>2025-02-11T10:01:52Z</time>
      </trkpt>
      <trkpt lat="47.82156" lon="-2.42746">
        <ele>70.1</ele>
        <time>2025-02-11T10:01:53Z</time>
      </trkpt>
      <trkpt lat="47.82156" lon="-2.42746">
        <ele>70.1</ele>
        <time>2025-02-11T10:01:54Z</time>
      </trkpt>
      <trkpt lat="47.82156" lon="-2.42746">
        <ele>70.1</ele>
        <time>2025-02-11T10:01:55Z</time>
      </trkpt>
      <trkpt lat="47.82156" lon="-2.42746">
        <ele>70.1</ele>
        <time>2025-02-11T10:01:56Z</time>
      </trkpt>
      <trkpt lat="47.82156" lon="-2.42746">
        <ele>70.1</ele>
        <time>2025-02-11T10:01:57Z</time>
      </trkpt>
      <trkpt lat="47.82156" lon="-2.42746">
        <ele>70.1</ele>
        <time>2025-02-11T10:01:58Z</time>
      </trkpt>
      <trkpt lat="47.82156" lon="-2.42746">
        <ele>70.1</ele>
        <time>2025-02-11T10:01:59Z</time>
      </trkpt>
      <trkpt lat="47.82156" lon="-2.42746">
        <ele>70.1</ele>
        <time>2025-02-11T10:02:00Z</time>
      </trkpt>
      <trkpt lat="47.82156" lon="-2.42746">
        <ele>70.1</ele>
        <time>2025-02-11T10:02:01Z</time>
      </trkpt>
      <trkpt lat="47.82156" lon="-2.42746">
        <ele>70.1</ele>
        <time>2025-02-11T10:02:02Z</time>
      </trkpt>
      <trkpt lat="47.82156" lon="-2.42747">
        <ele>70.1</ele>
        <time>2025-02-11T10:02:03Z</time>
      </trkpt>
      <trkpt lat="47.82156" lon="-2.42747">
        <ele>70.1</ele>
        <time>2025-02-11T10:02:04Z</time>
      </trkpt>
      <trkpt lat="47.82156" lon="-2.42746">
        <ele>70.1</ele>
        <time>2025-02-11T10:02:05Z</time>
      </trkpt>
      <trkpt lat="47.82156" lon="-2.42746">
        <ele>70.1</ele>
        <time>2025-02-11T10:02:06Z</time>
      </trkpt>
      <trkpt lat="47.82156" lon="-2.42747">
        <ele>70.1</ele>
        <time>2025-02-11T10:02:07Z</time>
      </trkpt>
      <trkpt lat="47.82156" lon="-2.42747">
        <ele>70.1</ele>
        <time>2025-02-11T10:02:08Z</time>
      </trkpt>
      <trkpt lat="47.82156" lon="-2.42747">
        <ele>70.1</ele>
        <time>2025-02-11T10:02:09Z</time>
      </trkpt>
      <trkpt lat="47.82156" lon="-2.42747">
        <ele>70.1</ele>
        <time>2025-02-11T10:02:10Z</time>
      </trkpt>
      <trkpt lat="47.82156" lon="-2.42747">
        <ele>70.1</ele>
        <time>2025-02-11T10:02:11Z</time>
      </trkpt>
      <trkpt lat="47.82156" lon="-2.42747">
        <ele>70.1</ele>
        <time>2025-02-11T10:02:12Z</time>
      </trkpt>
      <trkpt lat="47.82156" lon="-2.42747">
        <ele>70.1</ele>
        <time>2025-02-11T10:02:13Z</time>
      </trkpt>
      <trkpt lat="47.82157" lon="-2.42748">
        <ele>70.1</ele>
        <time>2025-02-11T10:02:14Z</time>
      </trkpt>
      <trkpt lat="47.82157" lon="-2.42748">
        <ele>70</ele>
        <time>2025-02-11T10:02:15Z</time>
      </trkpt>
      <trkpt lat="47.82157" lon="-2.42749">
        <ele>70</ele>
        <time>2025-02-11T10:02:16Z</time>
      </trkpt>
      <trkpt lat="47.82157" lon="-2.42749">
        <ele>70</ele>
        <time>2025-02-11T10:02:17Z</time>
      </trkpt>
      <trkpt lat="47.82157" lon="-2.42748">
        <ele>70</ele>
        <time>2025-02-11T10:02:18Z</time>
      </trkpt>
      <trkpt lat="47.82156" lon="-2.42748">
        <ele>70</ele>
        <time>2025-02-11T10:02:19Z</time>
      </trkpt>
      <trkpt lat="47.82157" lon="-2.42746">
        <ele>70.1</ele>
        <time>2025-02-11T10:02:20Z</time>
      </trkpt>
      <trkpt lat="47.82157" lon="-2.42746">
        <ele>70.1</ele>
        <time>2025-02-11T10:02:21Z</time>
      </trkpt>
      <trkpt lat="47.82157" lon="-2.42744">
        <ele>70.1</ele>
        <time>2025-02-11T10:02:22Z</time>
      </trkpt>
      <trkpt lat="47.82156" lon="-2.42744">
        <ele>70.1</ele>
        <time>2025-02-11T10:02:23Z</time>
      </trkpt>
      <trkpt lat="47.82155" lon="-2.42744">
        <ele>70.1</ele>
        <time>2025-02-11T10:02:24Z</time>
      </trkpt>
      <trkpt lat="47.82154" lon="-2.42746">
        <ele>70.1</ele>
        <time>2025-02-11T10:02:25Z</time>
      </trkpt>
      <trkpt lat="47.82153" lon="-2.42747">
        <ele>70.1</ele>
        <time>2025-02-11T10:02:26Z</time>
      </trkpt>
      <trkpt lat="47.82152" lon="-2.42747">
        <ele>70.1</ele>
        <time>2025-02-11T10:02:27Z</time>
      </trkpt>
      <trkpt lat="47.82151" lon="-2.42748">
        <ele>70</ele>
        <time>2025-02-11T10:02:28Z</time>
      </trkpt>
      <trkpt lat="47.8215" lon="-2.42748">
        <ele>70</ele>
        <time>2025-02-11T10:02:29Z</time>
      </trkpt>
      <trkpt lat="47.82149" lon="-2.42749">
        <ele>70</ele>
        <time>2025-02-11T10:02:30Z</time>
      </trkpt>
      <trkpt lat="47.82147" lon="-2.4275">
        <ele>70</ele>
        <time>2025-02-11T10:02:31Z</time>
      </trkpt>
      <trkpt lat="47.82146" lon="-2.4275">
        <ele>70</ele>
        <time>2025-02-11T10:02:32Z</time>
      </trkpt>
      <trkpt lat="47.82145" lon="-2.42751">
        <ele>70</ele>
        <time>2025-02-11T10:02:33Z</time>
      </trkpt>
      <trkpt lat="47.82144" lon="-2.42751">
        <ele>69.9</ele>
        <time>2025-02-11T10:02:34Z</time>
      </trkpt>
      <trkpt lat="47.82144" lon="-2.42752">
        <ele>69.9</ele>
        <time>2025-02-11T10:02:35Z</time>
      </trkpt>
      <trkpt lat="47.82143" lon="-2.42752">
        <ele>69.9</ele>
        <time>2025-02-11T10:02:36Z</time>
      </trkpt>
      <trkpt lat="47.82142" lon="-2.42753">
        <ele>69.9</ele>
        <time>2025-02-11T10:02:37Z</time>
      </trkpt>
      <trkpt lat="47.82141" lon="-2.42754">
        <ele>69.8</ele>
        <time>2025-02-11T10:02:38Z</time>
      </trkpt>
      <trkpt lat="47.8214" lon="-2.42754">
        <ele>69.8</ele>
        <time>2025-02-11T10:02:39Z</time>
      </trkpt>
      <trkpt lat="47.82139" lon="-2.42755">
        <ele>69.8</ele>
        <time>2025-02-11T10:02:40Z</time>
      </trkpt>
      <trkpt lat="47.82139" lon="-2.42756">
        <ele>69.8</ele>
        <time>2025-02-11T10:02:41Z</time>
      </trkpt>
      <trkpt lat="47.82138" lon="-2.42757">
        <ele>69.7</ele>
        <time>2025-02-11T10:02:42Z</time>
      </trkpt>
      <trkpt lat="47.82137" lon="-2.42758">
        <ele>69.6</ele>
        <time>2025-02-11T10:02:43Z</time>
      </trkpt>
      <trkpt lat="47.82136" lon="-2.42759">
        <ele>69.6</ele>
        <time>2025-02-11T10:02:44Z</time>
      </trkpt>
      <trkpt lat="47.82136" lon="-2.42759">
        <ele>69.5</ele>
        <time>2025-02-11T10:02:45Z</time>
      </trkpt>
      <trkpt lat="47.82135" lon="-2.4276">
        <ele>69.4</ele>
        <time>2025-02-11T10:02:46Z</time>
      </trkpt>
      <trkpt lat="47.82134" lon="-2.4276">
        <ele>69.4</ele>
        <time>2025-02-11T10:02:47Z</time>
      </trkpt>
      <trkpt lat="47.82133" lon="-2.42761">
        <ele>69.3</ele>
        <time>2025-02-11T10:02:48Z</time>
      </trkpt>
      <trkpt lat="47.82132" lon="-2.42761">
        <ele>69.2</ele>
        <time>2025-02-11T10:02:49Z</time>
      </trkpt>
      <trkpt lat="47.82131" lon="-2.42762">
        <ele>69.2</ele>
        <time>2025-02-11T10:02:50Z</time>
      </trkpt>
      <trkpt lat="47.8213" lon="-2.42763">
        <ele>69.1</ele>
        <time>2025-02-11T10:02:51Z</time>
      </trkpt>
      <trkpt lat="47.82129" lon="-2.42762">
        <ele>69</ele>
        <time>2025-02-11T10:02:52Z</time>
      </trkpt>
      <trkpt lat="47.82128" lon="-2.42762">
        <ele>69</ele>
        <time>2025-02-11T10:02:53Z</time>
      </trkpt>
      <trkpt lat="47.82127" lon="-2.42761">
        <ele>69</ele>
        <time>2025-02-11T10:02:54Z</time>
      </trkpt>
      <trkpt lat="47.82126" lon="-2.42761">
        <ele>69</ele>
        <time>2025-02-11T10:02:55Z</time>
      </trkpt>
      <trkpt lat="47.82124" lon="-2.42761">
        <ele>68.9</ele>
        <time>2025-02-11T10:02:56Z</time>
      </trkpt>
      <trkpt lat="47.82123" lon="-2.42761">
        <ele>68.8</ele>
        <time>2025-02-11T10:02:57Z</time>
      </trkpt>
      <trkpt lat="47.82122" lon="-2.42762">
        <ele>68.7</ele>
        <time>2025-02-11T10:02:58Z</time>
      </trkpt>
      <trkpt lat="47.82121" lon="-2.42763">
        <ele>68.6</ele>
        <time>2025-02-11T10:02:59Z</time>
      </trkpt>
      <trkpt lat="47.82121" lon="-2.42766">
        <ele>68.4</ele>
        <time>2025-02-11T10:03:00Z</time>
      </trkpt>
      <trkpt lat="47.82121" lon="-2.42768">
        <ele>68.3</ele>
        <time>2025-02-11T10:03:01Z</time>
      </trkpt>
      <trkpt lat="47.82119" lon="-2.42768">
        <ele>68.2</ele>
        <time>2025-02-11T10:03:02Z</time>
      </trkpt>
      <trkpt lat="47.82117" lon="-2.42767">
        <ele>68.2</ele>
        <time>2025-02-11T10:03:03Z</time>
      </trkpt>
      <trkpt lat="47.82116" lon="-2.42766">
        <ele>68.1</ele>
        <time>2025-02-11T10:03:04Z</time>
      </trkpt>
      <trkpt lat="47.82112" lon="-2.42761">
        <ele>68.3</ele>
        <time>2025-02-11T10:03:05Z</time>
      </trkpt>
      <trkpt lat="47.82111" lon="-2.4276">
        <ele>68.3</ele>
        <time>2025-02-11T10:03:06Z</time>
      </trkpt>
      <trkpt lat="47.8211" lon="-2.4276">
        <ele>68.3</ele>
        <time>2025-02-11T10:03:07Z</time>
      </trkpt>
      <trkpt lat="47.8211" lon="-2.42759">
        <ele>68.3</ele>
        <time>2025-02-11T10:03:08Z</time>
      </trkpt>
      <trkpt lat="47.8211" lon="-2.42757">
        <ele>68.4</ele>
        <time>2025-02-11T10:03:09Z</time>
      </trkpt>
      <trkpt lat="47.82109" lon="-2.42757">
        <ele>68.4</ele>
        <time>2025-02-11T10:03:10Z</time>
      </trkpt>
      <trkpt lat="47.82108" lon="-2.42756">
        <ele>68.3</ele>
        <time>2025-02-11T10:03:11Z</time>
      </trkpt>
      <trkpt lat="47.82106" lon="-2.42756">
        <ele>68.2</ele>
        <time>2025-02-11T10:03:12Z</time>
      </trkpt>
      <trkpt lat="47.82105" lon="-2.42756">
        <ele>68.2</ele>
        <time>2025-02-11T10:03:13Z</time>
      </trkpt>
      <trkpt lat="47.82104" lon="-2.42755">
        <ele>68.1</ele>
        <time>2025-02-11T10:03:14Z</time>
      </trkpt>
      <trkpt lat="47.82103" lon="-2.42755">
        <ele>68.1</ele>
        <time>2025-02-11T10:03:15Z</time>
      </trkpt>
      <trkpt lat="47.82101" lon="-2.42754">
        <ele>68.1</ele>
        <time>2025-02-11T10:03:16Z</time>
      </trkpt>
      <trkpt lat="47.821" lon="-2.42753">
        <ele>68.1</ele>
        <time>2025-02-11T10:03:17Z</time>
      </trkpt>
      <trkpt lat="47.82099" lon="-2.42752">
        <ele>68</ele>
        <time>2025-02-11T10:03:18Z</time>
      </trkpt>
      <trkpt lat="47.82099" lon="-2.42753">
        <ele>68</ele>
        <time>2025-02-11T10:03:19Z</time>
      </trkpt>
      <trkpt lat="47.82098" lon="-2.42752">
        <ele>67.9</ele>
        <time>2025-02-11T10:03:20Z</time>
      </trkpt>
      <trkpt lat="47.82097" lon="-2.42752">
        <ele>67.9</ele>
        <time>2025-02-11T10:03:21Z</time>
      </trkpt>
      <trkpt lat="47.82096" lon="-2.42752">
        <ele>67.8</ele>
        <time>2025-02-11T10:03:22Z</time>
      </trkpt>
      <trkpt lat="47.82095" lon="-2.42752">
        <ele>67.8</ele>
        <time>2025-02-11T10:03:23Z</time>
      </trkpt>
      <trkpt lat="47.82094" lon="-2.42754">
        <ele>67.6</ele>
        <time>2025-02-11T10:03:24Z</time>
      </trkpt>
      <trkpt lat="47.82093" lon="-2.42755">
        <ele>67.5</ele>
        <time>2025-02-11T10:03:25Z</time>
      </trkpt>
      <trkpt lat="47.82093" lon="-2.42757">
        <ele>67.4</ele>
        <time>2025-02-11T10:03:26Z</time>
      </trkpt>
      <trkpt lat="47.82094" lon="-2.42756">
        <ele>67.5</ele>
        <time>2025-02-11T10:03:27Z</time>
      </trkpt>
      <trkpt lat="47.82096" lon="-2.4276">
        <ele>67.4</ele>
        <time>2025-02-11T10:03:28Z</time>
      </trkpt>
      <trkpt lat="47.82096" lon="-2.42761">
        <ele>67.4</ele>
        <time>2025-02-11T10:03:29Z</time>
      </trkpt>
      <trkpt lat="47.82097" lon="-2.42761">
        <ele>67.4</ele>
        <time>2025-02-11T10:03:30Z</time>
      </trkpt>
      <trkpt lat="47.82097" lon="-2.42762">
        <ele>67.3</ele>
        <time>2025-02-11T10:03:31Z</time>
      </trkpt>
      <trkpt lat="47.82095" lon="-2.42763">
        <ele>67.2</ele>
        <time>2025-02-11T10:03:32Z</time>
      </trkpt>
      <trkpt lat="47.82094" lon="-2.42763">
        <ele>67.1</ele>
        <time>2025-02-11T10:03:33Z</time>
      </trkpt>
      <trkpt lat="47.82094" lon="-2.42764">
        <ele>67.1</ele>
        <time>2025-02-11T10:03:34Z</time>
      </trkpt>
      <trkpt lat="47.82093" lon="-2.42765">
        <ele>67</ele>
        <time>2025-02-11T10:03:35Z</time>
      </trkpt>
      <trkpt lat="47.82092" lon="-2.42766">
        <ele>66.9</ele>
        <time>2025-02-11T10:03:36Z</time>
      </trkpt>
      <trkpt lat="47.82091" lon="-2.42767">
        <ele>66.8</ele>
        <time>2025-02-11T10:03:37Z</time>
      </trkpt>
      <trkpt lat="47.82091" lon="-2.42768">
        <ele>66.7</ele>
        <time>2025-02-11T10:03:38Z</time>
      </trkpt>
      <trkpt lat="47.8209" lon="-2.42769">
        <ele>66.7</ele>
        <time>2025-02-11T10:03:39Z</time>
      </trkpt>
      <trkpt lat="47.8209" lon="-2.4277">
        <ele>66.6</ele>
        <time>2025-02-11T10:03:40Z</time>
      </trkpt>
      <trkpt lat="47.8209" lon="-2.42771">
        <ele>66.5</ele>
        <time>2025-02-11T10:03:41Z</time>
      </trkpt>
      <trkpt lat="47.82089" lon="-2.42773">
        <ele>66.4</ele>
        <time>2025-02-11T10:03:42Z</time>
      </trkpt>
      <trkpt lat="47.82089" lon="-2.42774">
        <ele>66.4</ele>
        <time>2025-02-11T10:03:43Z</time>
      </trkpt>
      <trkpt lat="47.82089" lon="-2.42776">
        <ele>66.3</ele>
        <time>2025-02-11T10:03:44Z</time>
      </trkpt>
      <trkpt lat="47.82089" lon="-2.42777">
        <ele>66.2</ele>
        <time>2025-02-11T10:03:45Z</time>
      </trkpt>
      <trkpt lat="47.82088" lon="-2.42779">
        <ele>66.1</ele>
        <time>2025-02-11T10:03:46Z</time>
      </trkpt>
      <trkpt lat="47.82088" lon="-2.42781">
        <ele>66.1</ele>
        <time>2025-02-11T10:03:47Z</time>
      </trkpt>
      <trkpt lat="47.82087" lon="-2.42782">
        <ele>66</ele>
        <time>2025-02-11T10:03:48Z</time>
      </trkpt>
      <trkpt lat="47.82086" lon="-2.42785">
        <ele>65.9</ele>
        <time>2025-02-11T10:03:49Z</time>
      </trkpt>
      <trkpt lat="47.82086" lon="-2.42786">
        <ele>65.8</ele>
        <time>2025-02-11T10:03:50Z</time>
      </trkpt>
      <trkpt lat="47.82086" lon="-2.42788">
        <ele>65.7</ele>
        <time>2025-02-11T10:03:51Z</time>
      </trkpt>
      <trkpt lat="47.82086" lon="-2.4279">
        <ele>65.6</ele>
        <time>2025-02-11T10:03:52Z</time>
      </trkpt>
      <trkpt lat="47.82086" lon="-2.42792">
        <ele>65.6</ele>
        <time>2025-02-11T10:03:53Z</time>
      </trkpt>
      <trkpt lat="47.82086" lon="-2.42794">
        <ele>65.5</ele>
        <time>2025-02-11T10:03:54Z</time>
      </trkpt>
      <trkpt lat="47.82087" lon="-2.42796">
        <ele>65.5</ele>
        <time>2025-02-11T10:03:55Z</time>
      </trkpt>
      <trkpt lat="47.82088" lon="-2.42798">
        <ele>65.4</ele>
        <time>2025-02-11T10:03:56Z</time>
      </trkpt>
      <trkpt lat="47.82088" lon="-2.42799">
        <ele>65.4</ele>
        <time>2025-02-11T10:03:57Z</time>
      </trkpt>
      <trkpt lat="47.82089" lon="-2.428">
        <ele>65.4</ele>
        <time>2025-02-11T10:03:58Z</time>
      </trkpt>
      <trkpt lat="47.8209" lon="-2.42801">
        <ele>65.4</ele>
        <time>2025-02-11T10:03:59Z</time>
      </trkpt>
      <trkpt lat="47.8209" lon="-2.42803">
        <ele>65.3</ele>
        <time>2025-02-11T10:04:00Z</time>
      </trkpt>
      <trkpt lat="47.82091" lon="-2.42805">
        <ele>65.3</ele>
        <time>2025-02-11T10:04:01Z</time>
      </trkpt>
      <trkpt lat="47.82091" lon="-2.42807">
        <ele>65.1</ele>
        <time>2025-02-11T10:04:02Z</time>
      </trkpt>
      <trkpt lat="47.82092" lon="-2.42809">
        <ele>65.1</ele>
        <time>2025-02-11T10:04:03Z</time>
      </trkpt>
      <trkpt lat="47.82093" lon="-2.42809">
        <ele>65.1</ele>
        <time>2025-02-11T10:04:04Z</time>
      </trkpt>
      <trkpt lat="47.82093" lon="-2.4281">
        <ele>65.1</ele>
        <time>2025-02-11T10:04:05Z</time>
      </trkpt>
      <trkpt lat="47.82093" lon="-2.4281">
        <ele>65</ele>
        <time>2025-02-11T10:04:06Z</time>
      </trkpt>
      <trkpt lat="47.82093" lon="-2.42812">
        <ele>64.9</ele>
        <time>2025-02-11T10:04:07Z</time>
      </trkpt>
      <trkpt lat="47.82093" lon="-2.42813">
        <ele>64.8</ele>
        <time>2025-02-11T10:04:08Z</time>
      </trkpt>
      <trkpt lat="47.82093" lon="-2.42815">
        <ele>64.7</ele>
        <time>2025-02-11T10:04:09Z</time>
      </trkpt>
      <trkpt lat="47.82093" lon="-2.42817">
        <ele>64.6</ele>
        <time>2025-02-11T10:04:10Z</time>
      </trkpt>
      <trkpt lat="47.82093" lon="-2.42819">
        <ele>64.4</ele>
        <time>2025-02-11T10:04:11Z</time>
      </trkpt>
      <trkpt lat="47.82093" lon="-2.4282">
        <ele>64.3</ele>
        <time>2025-02-11T10:04:12Z</time>
      </trkpt>
      <trkpt lat="47.82092" lon="-2.42822">
        <ele>64.1</ele>
        <time>2025-02-11T10:04:13Z</time>
      </trkpt>
      <trkpt lat="47.82092" lon="-2.42824">
        <ele>64</ele>
        <time>2025-02-11T10:04:14Z</time>
      </trkpt>
      <trkpt lat="47.82091" lon="-2.42825">
        <ele>63.9</ele>
        <time>2025-02-11T10:04:15Z</time>
      </trkpt>
      <trkpt lat="47.8209" lon="-2.42826">
        <ele>63.8</ele>
        <time>2025-02-11T10:04:16Z</time>
      </trkpt>
      <trkpt lat="47.8209" lon="-2.42828">
        <ele>63.6</ele>
        <time>2025-02-11T10:04:17Z</time>
      </trkpt>
      <trkpt lat="47.82089" lon="-2.42829">
        <ele>63.5</ele>
        <time>2025-02-11T10:04:18Z</time>
      </trkpt>
      <trkpt lat="47.82088" lon="-2.4283">
        <ele>63.4</ele>
        <time>2025-02-11T10:04:19Z</time>
      </trkpt>
      <trkpt lat="47.82088" lon="-2.42831">
        <ele>63.3</ele>
        <time>2025-02-11T10:04:20Z</time>
      </trkpt>
      <trkpt lat="47.82087" lon="-2.42833">
        <ele>63.2</ele>
        <time>2025-02-11T10:04:21Z</time>
      </trkpt>
      <trkpt lat="47.82086" lon="-2.42834">
        <ele>63.1</ele>
        <time>2025-02-11T10:04:22Z</time>
      </trkpt>
      <trkpt lat="47.82085" lon="-2.42835">
        <ele>63.1</ele>
        <time>2025-02-11T10:04:23Z</time>
      </trkpt>
      <trkpt lat="47.82084" lon="-2.42835">
        <ele>63</ele>
        <time>2025-02-11T10:04:24Z</time>
      </trkpt>
      <trkpt lat="47.82083" lon="-2.42834">
        <ele>63</ele>
        <time>2025-02-11T10:04:25Z</time>
      </trkpt>
      <trkpt lat="47.82082" lon="-2.42834">
        <ele>63.1</ele>
        <time>2025-02-11T10:04:26Z</time>
      </trkpt>
      <trkpt lat="47.82082" lon="-2.42833">
        <ele>63.2</ele>
        <time>2025-02-11T10:04:27Z</time>
      </trkpt>
      <trkpt lat="47.82081" lon="-2.42832">
        <ele>63.3</ele>
        <time>2025-02-11T10:04:28Z</time>
      </trkpt>
      <trkpt lat="47.8208" lon="-2.42831">
        <ele>63.4</ele>
        <time>2025-02-11T10:04:29Z</time>
      </trkpt>
      <trkpt lat="47.82079" lon="-2.42831">
        <ele>63.4</ele>
        <time>2025-02-11T10:04:30Z</time>
      </trkpt>
      <trkpt lat="47.82079" lon="-2.42831">
        <ele>63.5</ele>
        <time>2025-02-11T10:04:31Z</time>
      </trkpt>
      <trkpt lat="47.82079" lon="-2.4283">
        <ele>63.5</ele>
        <time>2025-02-11T10:04:32Z</time>
      </trkpt>
      <trkpt lat="47.82078" lon="-2.42829">
        <ele>63.7</ele>
        <time>2025-02-11T10:04:33Z</time>
      </trkpt>
      <trkpt lat="47.82076" lon="-2.42827">
        <ele>63.9</ele>
        <time>2025-02-11T10:04:34Z</time>
      </trkpt>
      <trkpt lat="47.82075" lon="-2.42826">
        <ele>64</ele>
        <time>2025-02-11T10:04:35Z</time>
      </trkpt>
      <trkpt lat="47.82074" lon="-2.42826">
        <ele>64.2</ele>
        <time>2025-02-11T10:04:36Z</time>
      </trkpt>
      <trkpt lat="47.82072" lon="-2.42825">
        <ele>64.3</ele>
        <time>2025-02-11T10:04:37Z</time>
      </trkpt>
      <trkpt lat="47.82071" lon="-2.42824">
        <ele>64.4</ele>
        <time>2025-02-11T10:04:38Z</time>
      </trkpt>
      <trkpt lat="47.8207" lon="-2.42823">
        <ele>64.6</ele>
        <time>2025-02-11T10:04:39Z</time>
      </trkpt>
      <trkpt lat="47.82069" lon="-2.42821">
        <ele>64.7</ele>
        <time>2025-02-11T10:04:40Z</time>
      </trkpt>
      <trkpt lat="47.82068" lon="-2.4282">
        <ele>64.8</ele>
        <time>2025-02-11T10:04:41Z</time>
      </trkpt>
      <trkpt lat="47.82067" lon="-2.42819">
        <ele>64.9</ele>
        <time>2025-02-11T10:04:42Z</time>
      </trkpt>
      <trkpt lat="47.82066" lon="-2.42817">
        <ele>65</ele>
        <time>2025-02-11T10:04:43Z</time>
      </trkpt>
      <trkpt lat="47.82065" lon="-2.42816">
        <ele>65.2</ele>
        <time>2025-02-11T10:04:44Z</time>
      </trkpt>
      <trkpt lat="47.82064" lon="-2.42815">
        <ele>65.3</ele>
        <time>2025-02-11T10:04:45Z</time>
      </trkpt>
      <trkpt lat="47.82063" lon="-2.42814">
        <ele>65.4</ele>
        <time>2025-02-11T10:04:46Z</time>
      </trkpt>
      <trkpt lat="47.82062" lon="-2.42813">
        <ele>65.4</ele>
        <time>2025-02-11T10:04:47Z</time>
      </trkpt>
      <trkpt lat="47.82062" lon="-2.42812">
        <ele>65.5</ele>
        <time>2025-02-11T10:04:48Z</time>
      </trkpt>
      <trkpt lat="47.82061" lon="-2.4281">
        <ele>65.6</ele>
        <time>2025-02-11T10:04:49Z</time>
      </trkpt>
      <trkpt lat="47.82061" lon="-2.42809">
        <ele>65.7</ele>
        <time>2025-02-11T10:04:50Z</time>
      </trkpt>
      <trkpt lat="47.8206" lon="-2.42808">
        <ele>65.7</ele>
        <time>2025-02-11T10:04:51Z</time>
      </trkpt>
      <trkpt lat="47.82058" lon="-2.42808">
        <ele>65.8</ele>
        <time>2025-02-11T10:04:52Z</time>
      </trkpt>
      <trkpt lat="47.82057" lon="-2.42808">
        <ele>65.8</ele>
        <time>2025-02-11T10:04:53Z</time>
      </trkpt>
      <trkpt lat="47.82056" lon="-2.42809">
        <ele>65.9</ele>
        <time>2025-02-11T10:04:54Z</time>
      </trkpt>
      <trkpt lat="47.82055" lon="-2.4281">
        <ele>65.9</ele>
        <time>2025-02-11T10:04:55Z</time>
      </trkpt>
      <trkpt lat="47.82054" lon="-2.42811">
        <ele>65.9</ele>
        <time>2025-02-11T10:04:56Z</time>
      </trkpt>
      <trkpt lat="47.82053" lon="-2.42812">
        <ele>65.9</ele>
        <time>2025-02-11T10:04:57Z</time>
      </trkpt>
      <trkpt lat="47.82052" lon="-2.42813">
        <ele>66</ele>
        <time>2025-02-11T10:04:58Z</time>
      </trkpt>
      <trkpt lat="47.82051" lon="-2.42814">
        <ele>66</ele>
        <time>2025-02-11T10:04:59Z</time>
      </trkpt>
      <trkpt lat="47.8205" lon="-2.42814">
        <ele>66.1</ele>
        <time>2025-02-11T10:05:00Z</time>
      </trkpt>
      <trkpt lat="47.82049" lon="-2.42815">
        <ele>66.1</ele>
        <time>2025-02-11T10:05:01Z</time>
      </trkpt>
      <trkpt lat="47.82048" lon="-2.42816">
        <ele>66.1</ele>
        <time>2025-02-11T10:05:02Z</time>
      </trkpt>
      <trkpt lat="47.82048" lon="-2.42817">
        <ele>66.1</ele>
        <time>2025-02-11T10:05:03Z</time>
      </trkpt>
      <trkpt lat="47.82047" lon="-2.42818">
        <ele>66.2</ele>
        <time>2025-02-11T10:05:04Z</time>
      </trkpt>
      <trkpt lat="47.82046" lon="-2.42819">
        <ele>66.2</ele>
        <time>2025-02-11T10:05:05Z</time>
      </trkpt>
      <trkpt lat="47.82046" lon="-2.4282">
        <ele>66.2</ele>
        <time>2025-02-11T10:05:06Z</time>
      </trkpt>
      <trkpt lat="47.82045" lon="-2.42821">
        <ele>66.2</ele>
        <time>2025-02-11T10:05:07Z</time>
      </trkpt>
      <trkpt lat="47.82044" lon="-2.42822">
        <ele>66.2</ele>
        <time>2025-02-11T10:05:08Z</time>
      </trkpt>
      <trkpt lat="47.82043" lon="-2.42823">
        <ele>66.2</ele>
        <time>2025-02-11T10:05:09Z</time>
      </trkpt>
      <trkpt lat="47.82043" lon="-2.42824">
        <ele>66.3</ele>
        <time>2025-02-11T10:05:10Z</time>
      </trkpt>
      <trkpt lat="47.82042" lon="-2.42825">
        <ele>66.3</ele>
        <time>2025-02-11T10:05:11Z</time>
      </trkpt>
      <trkpt lat="47.82041" lon="-2.42825">
        <ele>66.4</ele>
        <time>2025-02-11T10:05:12Z</time>
      </trkpt>
      <trkpt lat="47.8204" lon="-2.42827">
        <ele>66.4</ele>
        <time>2025-02-11T10:05:13Z</time>
      </trkpt>
      <trkpt lat="47.8204" lon="-2.42828">
        <ele>66.3</ele>
        <time>2025-02-11T10:05:14Z</time>
      </trkpt>
      <trkpt lat="47.8204" lon="-2.4283">
        <ele>66.3</ele>
        <time>2025-02-11T10:05:15Z</time>
      </trkpt>
      <trkpt lat="47.8204" lon="-2.42831">
        <ele>66.2</ele>
        <time>2025-02-11T10:05:16Z</time>
      </trkpt>
      <trkpt lat="47.8204" lon="-2.42832">
        <ele>66.2</ele>
        <time>2025-02-11T10:05:17Z</time>
      </trkpt>
      <trkpt lat="47.82039" lon="-2.42834">
        <ele>66.2</ele>
        <time>2025-02-11T10:05:18Z</time>
      </trkpt>
      <trkpt lat="47.82039" lon="-2.42833">
        <ele>66.2</ele>
        <time>2025-02-11T10:05:19Z</time>
      </trkpt>
      <trkpt lat="47.82039" lon="-2.42833">
        <ele>66.2</ele>
        <time>2025-02-11T10:05:20Z</time>
      </trkpt>
      <trkpt lat="47.82039" lon="-2.42833">
        <ele>66.2</ele>
        <time>2025-02-11T10:05:21Z</time>
      </trkpt>
      <trkpt lat="47.82039" lon="-2.42833">
        <ele>66.2</ele>
        <time>2025-02-11T10:05:22Z</time>
      </trkpt>
      <trkpt lat="47.82039" lon="-2.42834">
        <ele>66.2</ele>
        <time>2025-02-11T10:05:23Z</time>
      </trkpt>
      <trkpt lat="47.82039" lon="-2.42835">
        <ele>66.2</ele>
        <time>2025-02-11T10:05:24Z</time>
      </trkpt>
      <trkpt lat="47.82039" lon="-2.42837">
        <ele>66.2</ele>
        <time>2025-02-11T10:05:25Z</time>
      </trkpt>
      <trkpt lat="47.82038" lon="-2.42839">
        <ele>66.2</ele>
        <time>2025-02-11T10:05:26Z</time>
      </trkpt>
      <trkpt lat="47.82038" lon="-2.4284">
        <ele>66.2</ele>
        <time>2025-02-11T10:05:27Z</time>
      </trkpt>
      <trkpt lat="47.82039" lon="-2.42842">
        <ele>66.2</ele>
        <time>2025-02-11T10:05:28Z</time>
      </trkpt>
      <trkpt lat="47.82039" lon="-2.42843">
        <ele>66.2</ele>
        <time>2025-02-11T10:05:29Z</time>
      </trkpt>
      <trkpt lat="47.8204" lon="-2.42845">
        <ele>66.1</ele>
        <time>2025-02-11T10:05:30Z</time>
      </trkpt>
      <trkpt lat="47.8204" lon="-2.42846">
        <ele>66.1</ele>
        <time>2025-02-11T10:05:31Z</time>
      </trkpt>
      <trkpt lat="47.8204" lon="-2.42848">
        <ele>66.1</ele>
        <time>2025-02-11T10:05:32Z</time>
      </trkpt>
      <trkpt lat="47.8204" lon="-2.42849">
        <ele>66.1</ele>
        <time>2025-02-11T10:05:33Z</time>
      </trkpt>
      <trkpt lat="47.8204" lon="-2.42851">
        <ele>66.1</ele>
        <time>2025-02-11T10:05:34Z</time>
      </trkpt>
      <trkpt lat="47.8204" lon="-2.42853">
        <ele>66.1</ele>
        <time>2025-02-11T10:05:35Z</time>
      </trkpt>
      <trkpt lat="47.8204" lon="-2.42854">
        <ele>66.1</ele>
        <time>2025-02-11T10:05:36Z</time>
      </trkpt>
      <trkpt lat="47.8204" lon="-2.42856">
        <ele>66.1</ele>
        <time>2025-02-11T10:05:37Z</time>
      </trkpt>
      <trkpt lat="47.8204" lon="-2.42857">
        <ele>66.1</ele>
        <time>2025-02-11T10:05:38Z</time>
      </trkpt>
      <trkpt lat="47.8204" lon="-2.42859">
        <ele>66.1</ele>
        <time>2025-02-11T10:05:39Z</time>
      </trkpt>
      <trkpt lat="47.8204" lon="-2.4286">
        <ele>66.1</ele>
        <time>2025-02-11T10:05:40Z</time>
      </trkpt>
      <trkpt lat="47.8204" lon="-2.42862">
        <ele>66.1</ele>
        <time>2025-02-11T10:05:41Z</time>
      </trkpt>
      <trkpt lat="47.8204" lon="-2.42863">
        <ele>66</ele>
        <time>2025-02-11T10:05:42Z</time>
      </trkpt>
      <trkpt lat="47.8204" lon="-2.42865">
        <ele>66</ele>
        <time>2025-02-11T10:05:43Z</time>
      </trkpt>
      <trkpt lat="47.8204" lon="-2.42867">
        <ele>65.9</ele>
        <time>2025-02-11T10:05:44Z</time>
      </trkpt>
      <trkpt lat="47.8204" lon="-2.42868">
        <ele>65.9</ele>
        <time>2025-02-11T10:05:45Z</time>
      </trkpt>
      <trkpt lat="47.8204" lon="-2.4287">
        <ele>65.8</ele>
        <time>2025-02-11T10:05:46Z</time>
      </trkpt>
      <trkpt lat="47.8204" lon="-2.42871">
        <ele>65.8</ele>
        <time>2025-02-11T10:05:47Z</time>
      </trkpt>
      <trkpt lat="47.8204" lon="-2.42872">
        <ele>65.7</ele>
        <time>2025-02-11T10:05:48Z</time>
      </trkpt>
      <trkpt lat="47.8204" lon="-2.42874">
        <ele>65.7</ele>
        <time>2025-02-11T10:05:49Z</time>
      </trkpt>
      <trkpt lat="47.82039" lon="-2.42876">
        <ele>65.6</ele>
        <time>2025-02-11T10:05:50Z</time>
      </trkpt>
      <trkpt lat="47.8204" lon="-2.42878">
        <ele>65.5</ele>
        <time>2025-02-11T10:05:51Z</time>
      </trkpt>
      <trkpt lat="47.8204" lon="-2.4288">
        <ele>65.5</ele>
        <time>2025-02-11T10:05:52Z</time>
      </trkpt>
      <trkpt lat="47.8204" lon="-2.42882">
        <ele>65.4</ele>
        <time>2025-02-11T10:05:53Z</time>
      </trkpt>
      <trkpt lat="47.8204" lon="-2.42884">
        <ele>65.3</ele>
        <time>2025-02-11T10:05:54Z</time>
      </trkpt>
      <trkpt lat="47.8204" lon="-2.42886">
        <ele>65.2</ele>
        <time>2025-02-11T10:05:55Z</time>
      </trkpt>
      <trkpt lat="47.8204" lon="-2.42887">
        <ele>65.2</ele>
        <time>2025-02-11T10:05:56Z</time>
      </trkpt>
      <trkpt lat="47.8204" lon="-2.42889">
        <ele>65.1</ele>
        <time>2025-02-11T10:05:57Z</time>
      </trkpt>
      <trkpt lat="47.8204" lon="-2.42891">
        <ele>65.1</ele>
        <time>2025-02-11T10:05:58Z</time>
      </trkpt>
      <trkpt lat="47.8204" lon="-2.42893">
        <ele>65</ele>
        <time>2025-02-11T10:05:59Z</time>
      </trkpt>
      <trkpt lat="47.82039" lon="-2.42894">
        <ele>65</ele>
        <time>2025-02-11T10:06:00Z</time>
      </trkpt>
      <trkpt lat="47.82039" lon="-2.42895">
        <ele>64.9</ele>
        <time>2025-02-11T10:06:01Z</time>
      </trkpt>
      <trkpt lat="47.82039" lon="-2.42897">
        <ele>64.8</ele>
        <time>2025-02-11T10:06:02Z</time>
      </trkpt>
      <trkpt lat="47.8204" lon="-2.42898">
        <ele>64.8</ele>
        <time>2025-02-11T10:06:03Z</time>
      </trkpt>
      <trkpt lat="47.8204" lon="-2.429">
        <ele>64.7</ele>
        <time>2025-02-11T10:06:04Z</time>
      </trkpt>
      <trkpt lat="47.8204" lon="-2.42901">
        <ele>64.6</ele>
        <time>2025-02-11T10:06:05Z</time>
      </trkpt>
      <trkpt lat="47.82041" lon="-2.42902">
        <ele>64.5</ele>
        <time>2025-02-11T10:06:06Z</time>
      </trkpt>
      <trkpt lat="47.82041" lon="-2.42904">
        <ele>64.5</ele>
        <time>2025-02-11T10:06:07Z</time>
      </trkpt>
      <trkpt lat="47.8204" lon="-2.42906">
        <ele>64.4</ele>
        <time>2025-02-11T10:06:08Z</time>
      </trkpt>
      <trkpt lat="47.8204" lon="-2.42908">
        <ele>64.4</ele>
        <time>2025-02-11T10:06:09Z</time>
      </trkpt>
      <trkpt lat="47.8204" lon="-2.42909">
        <ele>64.3</ele>
        <time>2025-02-11T10:06:10Z</time>
      </trkpt>
      <trkpt lat="47.82039" lon="-2.4291">
        <ele>64.3</ele>
        <time>2025-02-11T10:06:11Z</time>
      </trkpt>
      <trkpt lat="47.8204" lon="-2.42912">
        <ele>64.2</ele>
        <time>2025-02-11T10:06:12Z</time>
      </trkpt>
      <trkpt lat="47.82039" lon="-2.42914">
        <ele>64.1</ele>
        <time>2025-02-11T10:06:13Z</time>
      </trkpt>
      <trkpt lat="47.8204" lon="-2.42915">
        <ele>64.1</ele>
        <time>2025-02-11T10:06:14Z</time>
      </trkpt>
      <trkpt lat="47.8204" lon="-2.42916">
        <ele>64</ele>
        <time>2025-02-11T10:06:15Z</time>
      </trkpt>
      <trkpt lat="47.8204" lon="-2.42918">
        <ele>64</ele>
        <time>2025-02-11T10:06:16Z</time>
      </trkpt>
      <trkpt lat="47.82039" lon="-2.4292">
        <ele>64</ele>
        <time>2025-02-11T10:06:17Z</time>
      </trkpt>
      <trkpt lat="47.82039" lon="-2.42921">
        <ele>63.9</ele>
        <time>2025-02-11T10:06:18Z</time>
      </trkpt>
      <trkpt lat="47.82039" lon="-2.42923">
        <ele>63.9</ele>
        <time>2025-02-11T10:06:19Z</time>
      </trkpt>
      <trkpt lat="47.82039" lon="-2.42925">
        <ele>63.9</ele>
        <time>2025-02-11T10:06:20Z</time>
      </trkpt>
      <trkpt lat="47.8204" lon="-2.42926">
        <ele>63.9</ele>
        <time>2025-02-11T10:06:21Z</time>
      </trkpt>
      <trkpt lat="47.8204" lon="-2.42928">
        <ele>63.8</ele>
        <time>2025-02-11T10:06:22Z</time>
      </trkpt>
      <trkpt lat="47.82039" lon="-2.4293">
        <ele>63.8</ele>
        <time>2025-02-11T10:06:23Z</time>
      </trkpt>
      <trkpt lat="47.82039" lon="-2.42931">
        <ele>63.8</ele>
        <time>2025-02-11T10:06:24Z</time>
      </trkpt>
      <trkpt lat="47.82039" lon="-2.42933">
        <ele>63.8</ele>
        <time>2025-02-11T10:06:25Z</time>
      </trkpt>
      <trkpt lat="47.82038" lon="-2.42935">
        <ele>63.8</ele>
        <time>2025-02-11T10:06:26Z</time>
      </trkpt>
      <trkpt lat="47.82038" lon="-2.42936">
        <ele>63.7</ele>
        <time>2025-02-11T10:06:27Z</time>
      </trkpt>
      <trkpt lat="47.82038" lon="-2.42938">
        <ele>63.7</ele>
        <time>2025-02-11T10:06:28Z</time>
      </trkpt>
      <trkpt lat="47.82038" lon="-2.42939">
        <ele>63.7</ele>
        <time>2025-02-11T10:06:29Z</time>
      </trkpt>
      <trkpt lat="47.82037" lon="-2.42941">
        <ele>63.7</ele>
        <time>2025-02-11T10:06:30Z</time>
      </trkpt>
      <trkpt lat="47.82036" lon="-2.42942">
        <ele>63.7</ele>
        <time>2025-02-11T10:06:31Z</time>
      </trkpt>
      <trkpt lat="47.82036" lon="-2.42944">
        <ele>63.7</ele>
        <time>2025-02-11T10:06:32Z</time>
      </trkpt>
      <trkpt lat="47.82035" lon="-2.42945">
        <ele>63.7</ele>
        <time>2025-02-11T10:06:33Z</time>
      </trkpt>
      <trkpt lat="47.82034" lon="-2.42947">
        <ele>63.8</ele>
        <time>2025-02-11T10:06:34Z</time>
      </trkpt>
      <trkpt lat="47.82033" lon="-2.42947">
        <ele>63.8</ele>
        <time>2025-02-11T10:06:35Z</time>
      </trkpt>
      <trkpt lat="47.82033" lon="-2.42949">
        <ele>63.8</ele>
        <time>2025-02-11T10:06:36Z</time>
      </trkpt>
      <trkpt lat="47.82032" lon="-2.4295">
        <ele>63.8</ele>
        <time>2025-02-11T10:06:37Z</time>
      </trkpt>
      <trkpt lat="47.82032" lon="-2.42952">
        <ele>63.9</ele>
        <time>2025-02-11T10:06:38Z</time>
      </trkpt>
      <trkpt lat="47.82031" lon="-2.42953">
        <ele>63.9</ele>
        <time>2025-02-11T10:06:39Z</time>
      </trkpt>
      <trkpt lat="47.82031" lon="-2.42955">
        <ele>63.9</ele>
        <time>2025-02-11T10:06:40Z</time>
      </trkpt>
      <trkpt lat="47.82031" lon="-2.42957">
        <ele>63.9</ele>
        <time>2025-02-11T10:06:41Z</time>
      </trkpt>
      <trkpt lat="47.82031" lon="-2.42958">
        <ele>63.9</ele>
        <time>2025-02-11T10:06:42Z</time>
      </trkpt>
      <trkpt lat="47.82031" lon="-2.4296">
        <ele>63.9</ele>
        <time>2025-02-11T10:06:43Z</time>
      </trkpt>
      <trkpt lat="47.82031" lon="-2.42962">
        <ele>63.9</ele>
        <time>2025-02-11T10:06:44Z</time>
      </trkpt>
      <trkpt lat="47.8203" lon="-2.42963">
        <ele>63.9</ele>
        <time>2025-02-11T10:06:45Z</time>
      </trkpt>
      <trkpt lat="47.8203" lon="-2.42965">
        <ele>63.9</ele>
        <time>2025-02-11T10:06:46Z</time>
      </trkpt>
      <trkpt lat="47.8203" lon="-2.42966">
        <ele>63.9</ele>
        <time>2025-02-11T10:06:47Z</time>
      </trkpt>
      <trkpt lat="47.8203" lon="-2.42968">
        <ele>63.9</ele>
        <time>2025-02-11T10:06:48Z</time>
      </trkpt>
      <trkpt lat="47.8203" lon="-2.42969">
        <ele>63.9</ele>
        <time>2025-02-11T10:06:49Z</time>
      </trkpt>
      <trkpt lat="47.8203" lon="-2.42971">
        <ele>63.9</ele>
        <time>2025-02-11T10:06:50Z</time>
      </trkpt>
      <trkpt lat="47.8203" lon="-2.42972">
        <ele>63.9</ele>
        <time>2025-02-11T10:06:51Z</time>
      </trkpt>
      <trkpt lat="47.82029" lon="-2.42974">
        <ele>63.9</ele>
        <time>2025-02-11T10:06:52Z</time>
      </trkpt>
      <trkpt lat="47.82029" lon="-2.42975">
        <ele>64</ele>
        <time>2025-02-11T10:06:53Z</time>
      </trkpt>
      <trkpt lat="47.82029" lon="-2.42977">
        <ele>63.9</ele>
        <time>2025-02-11T10:06:54Z</time>
      </trkpt>
      <trkpt lat="47.82029" lon="-2.42979">
        <ele>64</ele>
        <time>2025-02-11T10:06:55Z</time>
      </trkpt>
      <trkpt lat="47.82029" lon="-2.4298">
        <ele>64</ele>
        <time>2025-02-11T10:06:56Z</time>
      </trkpt>
      <trkpt lat="47.82028" lon="-2.42981">
        <ele>64</ele>
        <time>2025-02-11T10:06:57Z</time>
      </trkpt>
      <trkpt lat="47.82028" lon="-2.42983">
        <ele>64</ele>
        <time>2025-02-11T10:06:58Z</time>
      </trkpt>
      <trkpt lat="47.82028" lon="-2.42985">
        <ele>64</ele>
        <time>2025-02-11T10:06:59Z</time>
      </trkpt>
      <trkpt lat="47.82027" lon="-2.42986">
        <ele>64</ele>
        <time>2025-02-11T10:07:00Z</time>
      </trkpt>
      <trkpt lat="47.82027" lon="-2.42987">
        <ele>64</ele>
        <time>2025-02-11T10:07:01Z</time>
      </trkpt>
      <trkpt lat="47.82028" lon="-2.42989">
        <ele>64</ele>
        <time>2025-02-11T10:07:02Z</time>
      </trkpt>
      <trkpt lat="47.82028" lon="-2.42989">
        <ele>64</ele>
        <time>2025-02-11T10:07:03Z</time>
      </trkpt>
      <trkpt lat="47.82029" lon="-2.4299">
        <ele>64</ele>
        <time>2025-02-11T10:07:04Z</time>
      </trkpt>
      <trkpt lat="47.82028" lon="-2.42992">
        <ele>64</ele>
        <time>2025-02-11T10:07:05Z</time>
      </trkpt>
      <trkpt lat="47.82028" lon="-2.42993">
        <ele>64</ele>
        <time>2025-02-11T10:07:06Z</time>
      </trkpt>
      <trkpt lat="47.82027" lon="-2.42994">
        <ele>64</ele>
        <time>2025-02-11T10:07:07Z</time>
      </trkpt>
      <trkpt lat="47.82026" lon="-2.42995">
        <ele>64.1</ele>
        <time>2025-02-11T10:07:08Z</time>
      </trkpt>
      <trkpt lat="47.82026" lon="-2.42996">
        <ele>64.1</ele>
        <time>2025-02-11T10:07:09Z</time>
      </trkpt>
      <trkpt lat="47.82025" lon="-2.42998">
        <ele>64.1</ele>
        <time>2025-02-11T10:07:10Z</time>
      </trkpt>
      <trkpt lat="47.82025" lon="-2.43">
        <ele>64.1</ele>
        <time>2025-02-11T10:07:11Z</time>
      </trkpt>
      <trkpt lat="47.82024" lon="-2.43002">
        <ele>64.1</ele>
        <time>2025-02-11T10:07:12Z</time>
      </trkpt>
      <trkpt lat="47.82024" lon="-2.43003">
        <ele>64</ele>
        <time>2025-02-11T10:07:13Z</time>
      </trkpt>
      <trkpt lat="47.82022" lon="-2.43005">
        <ele>64</ele>
        <time>2025-02-11T10:07:14Z</time>
      </trkpt>
      <trkpt lat="47.82022" lon="-2.43007">
        <ele>64</ele>
        <time>2025-02-11T10:07:15Z</time>
      </trkpt>
      <trkpt lat="47.82022" lon="-2.43009">
        <ele>63.9</ele>
        <time>2025-02-11T10:07:16Z</time>
      </trkpt>
      <trkpt lat="47.82021" lon="-2.4301">
        <ele>63.9</ele>
        <time>2025-02-11T10:07:17Z</time>
      </trkpt>
      <trkpt lat="47.82021" lon="-2.43011">
        <ele>63.9</ele>
        <time>2025-02-11T10:07:18Z</time>
      </trkpt>
      <trkpt lat="47.8202" lon="-2.43012">
        <ele>63.8</ele>
        <time>2025-02-11T10:07:19Z</time>
      </trkpt>
      <trkpt lat="47.8202" lon="-2.43014">
        <ele>63.8</ele>
        <time>2025-02-11T10:07:20Z</time>
      </trkpt>
      <trkpt lat="47.8202" lon="-2.43015">
        <ele>63.7</ele>
        <time>2025-02-11T10:07:21Z</time>
      </trkpt>
      <trkpt lat="47.82019" lon="-2.43017">
        <ele>63.7</ele>
        <time>2025-02-11T10:07:22Z</time>
      </trkpt>
      <trkpt lat="47.82019" lon="-2.43019">
        <ele>63.7</ele>
        <time>2025-02-11T10:07:23Z</time>
      </trkpt>
      <trkpt lat="47.82018" lon="-2.4302">
        <ele>63.6</ele>
        <time>2025-02-11T10:07:24Z</time>
      </trkpt>
      <trkpt lat="47.82018" lon="-2.43022">
        <ele>63.6</ele>
        <time>2025-02-11T10:07:25Z</time>
      </trkpt>
      <trkpt lat="47.82017" lon="-2.43023">
        <ele>63.5</ele>
        <time>2025-02-11T10:07:26Z</time>
      </trkpt>
      <trkpt lat="47.82017" lon="-2.43025">
        <ele>63.5</ele>
        <time>2025-02-11T10:07:27Z</time>
      </trkpt>
      <trkpt lat="47.82016" lon="-2.43027">
        <ele>63.4</ele>
        <time>2025-02-11T10:07:28Z</time>
      </trkpt>
      <trkpt lat="47.82016" lon="-2.43029">
        <ele>63.4</ele>
        <time>2025-02-11T10:07:29Z</time>
      </trkpt>
      <trkpt lat="47.82016" lon="-2.43031">
        <ele>63.5</ele>
        <time>2025-02-11T10:07:30Z</time>
      </trkpt>
      <trkpt lat="47.82015" lon="-2.43032">
        <ele>63.5</ele>
        <time>2025-02-11T10:07:31Z</time>
      </trkpt>
      <trkpt lat="47.82015" lon="-2.43034">
        <ele>63.6</ele>
        <time>2025-02-11T10:07:32Z</time>
      </trkpt>
      <trkpt lat="47.82014" lon="-2.43035">
        <ele>63.6</ele>
        <time>2025-02-11T10:07:33Z</time>
      </trkpt>
      <trkpt lat="47.82014" lon="-2.43037">
        <ele>63.7</ele>
        <time>2025-02-11T10:07:34Z</time>
      </trkpt>
      <trkpt lat="47.82013" lon="-2.43038">
        <ele>63.7</ele>
        <time>2025-02-11T10:07:35Z</time>
      </trkpt>
      <trkpt lat="47.82012" lon="-2.4304">
        <ele>63.8</ele>
        <time>2025-02-11T10:07:36Z</time>
      </trkpt>
      <trkpt lat="47.82012" lon="-2.43041">
        <ele>63.8</ele>
        <time>2025-02-11T10:07:37Z</time>
      </trkpt>
      <trkpt lat="47.82012" lon="-2.43043">
        <ele>63.9</ele>
        <time>2025-02-11T10:07:38Z</time>
      </trkpt>
      <trkpt lat="47.82012" lon="-2.43044">
        <ele>63.9</ele>
        <time>2025-02-11T10:07:39Z</time>
      </trkpt>
      <trkpt lat="47.82011" lon="-2.43046">
        <ele>64</ele>
        <time>2025-02-11T10:07:40Z</time>
      </trkpt>
      <trkpt lat="47.82011" lon="-2.43048">
        <ele>64</ele>
        <time>2025-02-11T10:07:41Z</time>
      </trkpt>
      <trkpt lat="47.82011" lon="-2.43049">
        <ele>64.1</ele>
        <time>2025-02-11T10:07:42Z</time>
      </trkpt>
      <trkpt lat="47.8201" lon="-2.4305">
        <ele>64.1</ele>
        <time>2025-02-11T10:07:43Z</time>
      </trkpt>
      <trkpt lat="47.8201" lon="-2.43052">
        <ele>64.2</ele>
        <time>2025-02-11T10:07:44Z</time>
      </trkpt>
      <trkpt lat="47.8201" lon="-2.43053">
        <ele>64.2</ele>
        <time>2025-02-11T10:07:45Z</time>
      </trkpt>
      <trkpt lat="47.8201" lon="-2.43055">
        <ele>64.2</ele>
        <time>2025-02-11T10:07:46Z</time>
      </trkpt>
      <trkpt lat="47.8201" lon="-2.43056">
        <ele>64.3</ele>
        <time>2025-02-11T10:07:47Z</time>
      </trkpt>
      <trkpt lat="47.8201" lon="-2.43057">
        <ele>64.3</ele>
        <time>2025-02-11T10:07:48Z</time>
      </trkpt>
      <trkpt lat="47.82009" lon="-2.43059">
        <ele>64.3</ele>
        <time>2025-02-11T10:07:49Z</time>
      </trkpt>
      <trkpt lat="47.82009" lon="-2.43061">
        <ele>64.4</ele>
        <time>2025-02-11T10:07:50Z</time>
      </trkpt>
      <trkpt lat="47.82009" lon="-2.43062">
        <ele>64.4</ele>
        <time>2025-02-11T10:07:51Z</time>
      </trkpt>
      <trkpt lat="47.82008" lon="-2.43064">
        <ele>64.4</ele>
        <time>2025-02-11T10:07:52Z</time>
      </trkpt>
      <trkpt lat="47.82008" lon="-2.43065">
        <ele>64.5</ele>
        <time>2025-02-11T10:07:53Z</time>
      </trkpt>
      <trkpt lat="47.82008" lon="-2.43067">
        <ele>64.5</ele>
        <time>2025-02-11T10:07:54Z</time>
      </trkpt>
      <trkpt lat="47.82008" lon="-2.43068">
        <ele>64.5</ele>
        <time>2025-02-11T10:07:55Z</time>
      </trkpt>
      <trkpt lat="47.82007" lon="-2.43069">
        <ele>64.5</ele>
        <time>2025-02-11T10:07:56Z</time>
      </trkpt>
      <trkpt lat="47.82007" lon="-2.4307">
        <ele>64.5</ele>
        <time>2025-02-11T10:07:57Z</time>
      </trkpt>
      <trkpt lat="47.82007" lon="-2.43072">
        <ele>64.5</ele>
        <time>2025-02-11T10:07:58Z</time>
      </trkpt>
      <trkpt lat="47.82006" lon="-2.43073">
        <ele>64.5</ele>
        <time>2025-02-11T10:07:59Z</time>
      </trkpt>
      <trkpt lat="47.82006" lon="-2.43075">
        <ele>64.6</ele>
        <time>2025-02-11T10:08:00Z</time>
      </trkpt>
      <trkpt lat="47.82006" lon="-2.43077">
        <ele>64.6</ele>
        <time>2025-02-11T10:08:01Z</time>
      </trkpt>
      <trkpt lat="47.82006" lon="-2.43078">
        <ele>64.6</ele>
        <time>2025-02-11T10:08:02Z</time>
      </trkpt>
      <trkpt lat="47.82005" lon="-2.4308">
        <ele>64.6</ele>
        <time>2025-02-11T10:08:03Z</time>
      </trkpt>
      <trkpt lat="47.82005" lon="-2.43082">
        <ele>64.6</ele>
        <time>2025-02-11T10:08:04Z</time>
      </trkpt>
      <trkpt lat="47.82005" lon="-2.43083">
        <ele>64.7</ele>
        <time>2025-02-11T10:08:05Z</time>
      </trkpt>
      <trkpt lat="47.82004" lon="-2.43085">
        <ele>64.7</ele>
        <time>2025-02-11T10:08:06Z</time>
      </trkpt>
      <trkpt lat="47.82003" lon="-2.43086">
        <ele>64.8</ele>
        <time>2025-02-11T10:08:07Z</time>
      </trkpt>
      <trkpt lat="47.82002" lon="-2.43087">
        <ele>64.8</ele>
        <time>2025-02-11T10:08:08Z</time>
      </trkpt>
      <trkpt lat="47.82002" lon="-2.43089">
        <ele>64.9</ele>
        <time>2025-02-11T10:08:09Z</time>
      </trkpt>
      <trkpt lat="47.82002" lon="-2.43091">
        <ele>64.9</ele>
        <time>2025-02-11T10:08:10Z</time>
      </trkpt>
      <trkpt lat="47.82001" lon="-2.43092">
        <ele>64.9</ele>
        <time>2025-02-11T10:08:11Z</time>
      </trkpt>
      <trkpt lat="47.82" lon="-2.43095">
        <ele>65</ele>
        <time>2025-02-11T10:08:12Z</time>
      </trkpt>
      <trkpt lat="47.82" lon="-2.43097">
        <ele>65</ele>
        <time>2025-02-11T10:08:13Z</time>
      </trkpt>
      <trkpt lat="47.81999" lon="-2.43099">
        <ele>65</ele>
        <time>2025-02-11T10:08:14Z</time>
      </trkpt>
      <trkpt lat="47.81999" lon="-2.431">
        <ele>65</ele>
        <time>2025-02-11T10:08:15Z</time>
      </trkpt>
      <trkpt lat="47.81999" lon="-2.43102">
        <ele>65</ele>
        <time>2025-02-11T10:08:16Z</time>
      </trkpt>
      <trkpt lat="47.81999" lon="-2.43103">
        <ele>65</ele>
        <time>2025-02-11T10:08:17Z</time>
      </trkpt>
      <trkpt lat="47.81999" lon="-2.43104">
        <ele>65.1</ele>
        <time>2025-02-11T10:08:18Z</time>
      </trkpt>
      <trkpt lat="47.81998" lon="-2.43105">
        <ele>65.1</ele>
        <time>2025-02-11T10:08:19Z</time>
      </trkpt>
      <trkpt lat="47.81998" lon="-2.43107">
        <ele>65.1</ele>
        <time>2025-02-11T10:08:20Z</time>
      </trkpt>
      <trkpt lat="47.81998" lon="-2.43108">
        <ele>65.1</ele>
        <time>2025-02-11T10:08:21Z</time>
      </trkpt>
      <trkpt lat="47.81998" lon="-2.4311">
        <ele>65.1</ele>
        <time>2025-02-11T10:08:22Z</time>
      </trkpt>
      <trkpt lat="47.81998" lon="-2.43112">
        <ele>65.1</ele>
        <time>2025-02-11T10:08:23Z</time>
      </trkpt>
      <trkpt lat="47.81998" lon="-2.43114">
        <ele>65</ele>
        <time>2025-02-11T10:08:24Z</time>
      </trkpt>
      <trkpt lat="47.81997" lon="-2.43116">
        <ele>65</ele>
        <time>2025-02-11T10:08:25Z</time>
      </trkpt>
      <trkpt lat="47.81997" lon="-2.43118">
        <ele>65</ele>
        <time>2025-02-11T10:08:26Z</time>
      </trkpt>
      <trkpt lat="47.81996" lon="-2.43119">
        <ele>65</ele>
        <time>2025-02-11T10:08:27Z</time>
      </trkpt>
      <trkpt lat="47.81996" lon="-2.4312">
        <ele>65</ele>
        <time>2025-02-11T10:08:28Z</time>
      </trkpt>
      <trkpt lat="47.81996" lon="-2.43121">
        <ele>65</ele>
        <time>2025-02-11T10:08:29Z</time>
      </trkpt>
      <trkpt lat="47.81996" lon="-2.43123">
        <ele>64.9</ele>
        <time>2025-02-11T10:08:30Z</time>
      </trkpt>
      <trkpt lat="47.81996" lon="-2.43124">
        <ele>64.9</ele>
        <time>2025-02-11T10:08:31Z</time>
      </trkpt>
      <trkpt lat="47.81996" lon="-2.43126">
        <ele>64.8</ele>
        <time>2025-02-11T10:08:32Z</time>
      </trkpt>
      <trkpt lat="47.81996" lon="-2.43128">
        <ele>64.8</ele>
        <time>2025-02-11T10:08:33Z</time>
      </trkpt>
      <trkpt lat="47.81996" lon="-2.4313">
        <ele>64.8</ele>
        <time>2025-02-11T10:08:34Z</time>
      </trkpt>
      <trkpt lat="47.81995" lon="-2.43131">
        <ele>64.8</ele>
        <time>2025-02-11T10:08:35Z</time>
      </trkpt>
      <trkpt lat="47.81995" lon="-2.43133">
        <ele>64.8</ele>
        <time>2025-02-11T10:08:36Z</time>
      </trkpt>
      <trkpt lat="47.81995" lon="-2.43134">
        <ele>64.8</ele>
        <time>2025-02-11T10:08:37Z</time>
      </trkpt>
      <trkpt lat="47.81995" lon="-2.43135">
        <ele>64.8</ele>
        <time>2025-02-11T10:08:38Z</time>
      </trkpt>
      <trkpt lat="47.81995" lon="-2.43137">
        <ele>64.8</ele>
        <time>2025-02-11T10:08:39Z</time>
      </trkpt>
      <trkpt lat="47.81995" lon="-2.43138">
        <ele>64.8</ele>
        <time>2025-02-11T10:08:40Z</time>
      </trkpt>
      <trkpt lat="47.81995" lon="-2.43138">
        <ele>64.7</ele>
        <time>2025-02-11T10:08:41Z</time>
      </trkpt>
      <trkpt lat="47.81995" lon="-2.4314">
        <ele>64.8</ele>
        <time>2025-02-11T10:08:42Z</time>
      </trkpt>
      <trkpt lat="47.81994" lon="-2.43141">
        <ele>64.9</ele>
        <time>2025-02-11T10:08:43Z</time>
      </trkpt>
      <trkpt lat="47.81994" lon="-2.43142">
        <ele>64.9</ele>
        <time>2025-02-11T10:08:44Z</time>
      </trkpt>
      <trkpt lat="47.81994" lon="-2.43144">
        <ele>65</ele>
        <time>2025-02-11T10:08:45Z</time>
      </trkpt>
      <trkpt lat="47.81993" lon="-2.43145">
        <ele>65.1</ele>
        <time>2025-02-11T10:08:46Z</time>
      </trkpt>
      <trkpt lat="47.81993" lon="-2.43147">
        <ele>65.1</ele>
        <time>2025-02-11T10:08:47Z</time>
      </trkpt>
      <trkpt lat="47.81994" lon="-2.43148">
        <ele>65.1</ele>
        <time>2025-02-11T10:08:48Z</time>
      </trkpt>
      <trkpt lat="47.81994" lon="-2.43149">
        <ele>65.1</ele>
        <time>2025-02-11T10:08:49Z</time>
      </trkpt>
      <trkpt lat="47.81994" lon="-2.43151">
        <ele>65.1</ele>
        <time>2025-02-11T10:08:50Z</time>
      </trkpt>
      <trkpt lat="47.81994" lon="-2.43152">
        <ele>65.1</ele>
        <time>2025-02-11T10:08:51Z</time>
      </trkpt>
      <trkpt lat="47.81994" lon="-2.43154">
        <ele>65.2</ele>
        <time>2025-02-11T10:08:52Z</time>
      </trkpt>
      <trkpt lat="47.81993" lon="-2.43155">
        <ele>65.3</ele>
        <time>2025-02-11T10:08:53Z</time>
      </trkpt>
      <trkpt lat="47.81992" lon="-2.43156">
        <ele>65.4</ele>
        <time>2025-02-11T10:08:54Z</time>
      </trkpt>
      <trkpt lat="47.81992" lon="-2.43158">
        <ele>65.4</ele>
        <time>2025-02-11T10:08:55Z</time>
      </trkpt>
      <trkpt lat="47.81992" lon="-2.43159">
        <ele>65.4</ele>
        <time>2025-02-11T10:08:56Z</time>
      </trkpt>
      <trkpt lat="47.81992" lon="-2.43161">
        <ele>65.5</ele>
        <time>2025-02-11T10:08:57Z</time>
      </trkpt>
      <trkpt lat="47.81992" lon="-2.43162">
        <ele>65.5</ele>
        <time>2025-02-11T10:08:58Z</time>
      </trkpt>
      <trkpt lat="47.81992" lon="-2.43164">
        <ele>65.5</ele>
        <time>2025-02-11T10:08:59Z</time>
      </trkpt>
      <trkpt lat="47.81992" lon="-2.43166">
        <ele>65.6</ele>
        <time>2025-02-11T10:09:00Z</time>
      </trkpt>
      <trkpt lat="47.81992" lon="-2.43167">
        <ele>65.6</ele>
        <time>2025-02-11T10:09:01Z</time>
      </trkpt>
      <trkpt lat="47.81992" lon="-2.43169">
        <ele>65.6</ele>
        <time>2025-02-11T10:09:02Z</time>
      </trkpt>
      <trkpt lat="47.81991" lon="-2.4317">
        <ele>65.6</ele>
        <time>2025-02-11T10:09:03Z</time>
      </trkpt>
      <trkpt lat="47.81991" lon="-2.43171">
        <ele>65.7</ele>
        <time>2025-02-11T10:09:04Z</time>
      </trkpt>
      <trkpt lat="47.8199" lon="-2.43172">
        <ele>65.7</ele>
        <time>2025-02-11T10:09:05Z</time>
      </trkpt>
      <trkpt lat="47.81989" lon="-2.43173">
        <ele>65.8</ele>
        <time>2025-02-11T10:09:06Z</time>
      </trkpt>
      <trkpt lat="47.81988" lon="-2.43174">
        <ele>65.8</ele>
        <time>2025-02-11T10:09:07Z</time>
      </trkpt>
      <trkpt lat="47.81988" lon="-2.43175">
        <ele>65.9</ele>
        <time>2025-02-11T10:09:08Z</time>
      </trkpt>
      <trkpt lat="47.81987" lon="-2.43176">
        <ele>65.9</ele>
        <time>2025-02-11T10:09:09Z</time>
      </trkpt>
      <trkpt lat="47.81986" lon="-2.43176">
        <ele>66</ele>
        <time>2025-02-11T10:09:10Z</time>
      </trkpt>
      <trkpt lat="47.81985" lon="-2.43177">
        <ele>66.1</ele>
        <time>2025-02-11T10:09:11Z</time>
      </trkpt>
      <trkpt lat="47.81984" lon="-2.43177">
        <ele>66.1</ele>
        <time>2025-02-11T10:09:12Z</time>
      </trkpt>
      <trkpt lat="47.81984" lon="-2.43178">
        <ele>66.2</ele>
        <time>2025-02-11T10:09:13Z</time>
      </trkpt>
      <trkpt lat="47.81983" lon="-2.43179">
        <ele>66.2</ele>
        <time>2025-02-11T10:09:14Z</time>
      </trkpt>
      <trkpt lat="47.81982" lon="-2.43179">
        <ele>66.3</ele>
        <time>2025-02-11T10:09:15Z</time>
      </trkpt>
      <trkpt lat="47.81982" lon="-2.43181">
        <ele>66.3</ele>
        <time>2025-02-11T10:09:16Z</time>
      </trkpt>
      <trkpt lat="47.81982" lon="-2.43182">
        <ele>66.3</ele>
        <time>2025-02-11T10:09:17Z</time>
      </trkpt>
      <trkpt lat="47.81982" lon="-2.43183">
        <ele>66.3</ele>
        <time>2025-02-11T10:09:18Z</time>
      </trkpt>
      <trkpt lat="47.81981" lon="-2.43185">
        <ele>66.4</ele>
        <time>2025-02-11T10:09:19Z</time>
      </trkpt>
      <trkpt lat="47.8198" lon="-2.43185">
        <ele>66.5</ele>
        <time>2025-02-11T10:09:20Z</time>
      </trkpt>
      <trkpt lat="47.81979" lon="-2.43187">
        <ele>66.5</ele>
        <time>2025-02-11T10:09:21Z</time>
      </trkpt>
      <trkpt lat="47.81979" lon="-2.43189">
        <ele>66.5</ele>
        <time>2025-02-11T10:09:22Z</time>
      </trkpt>
      <trkpt lat="47.81978" lon="-2.4319">
        <ele>66.6</ele>
        <time>2025-02-11T10:09:23Z</time>
      </trkpt>
      <trkpt lat="47.81978" lon="-2.43191">
        <ele>66.6</ele>
        <time>2025-02-11T10:09:24Z</time>
      </trkpt>
      <trkpt lat="47.81978" lon="-2.43193">
        <ele>66.6</ele>
        <time>2025-02-11T10:09:25Z</time>
      </trkpt>
      <trkpt lat="47.81978" lon="-2.43194">
        <ele>66.6</ele>
        <time>2025-02-11T10:09:26Z</time>
      </trkpt>
      <trkpt lat="47.81977" lon="-2.43196">
        <ele>66.6</ele>
        <time>2025-02-11T10:09:27Z</time>
      </trkpt>
      <trkpt lat="47.81978" lon="-2.43197">
        <ele>66.6</ele>
        <time>2025-02-11T10:09:28Z</time>
      </trkpt>
      <trkpt lat="47.81978" lon="-2.43199">
        <ele>66.6</ele>
        <time>2025-02-11T10:09:29Z</time>
      </trkpt>
      <trkpt lat="47.81977" lon="-2.432">
        <ele>66.6</ele>
        <time>2025-02-11T10:09:30Z</time>
      </trkpt>
      <trkpt lat="47.81977" lon="-2.43201">
        <ele>66.7</ele>
        <time>2025-02-11T10:09:31Z</time>
      </trkpt>
      <trkpt lat="47.81976" lon="-2.43203">
        <ele>66.7</ele>
        <time>2025-02-11T10:09:32Z</time>
      </trkpt>
      <trkpt lat="47.81976" lon="-2.43204">
        <ele>66.7</ele>
        <time>2025-02-11T10:09:33Z</time>
      </trkpt>
      <trkpt lat="47.81976" lon="-2.43206">
        <ele>66.7</ele>
        <time>2025-02-11T10:09:34Z</time>
      </trkpt>
      <trkpt lat="47.81975" lon="-2.43207">
        <ele>66.8</ele>
        <time>2025-02-11T10:09:35Z</time>
      </trkpt>
      <trkpt lat="47.81975" lon="-2.43208">
        <ele>66.8</ele>
        <time>2025-02-11T10:09:36Z</time>
      </trkpt>
      <trkpt lat="47.81974" lon="-2.4321">
        <ele>66.8</ele>
        <time>2025-02-11T10:09:37Z</time>
      </trkpt>
      <trkpt lat="47.81974" lon="-2.43212">
        <ele>66.9</ele>
        <time>2025-02-11T10:09:38Z</time>
      </trkpt>
      <trkpt lat="47.81974" lon="-2.43213">
        <ele>66.9</ele>
        <time>2025-02-11T10:09:39Z</time>
      </trkpt>
      <trkpt lat="47.81974" lon="-2.43214">
        <ele>66.9</ele>
        <time>2025-02-11T10:09:40Z</time>
      </trkpt>
      <trkpt lat="47.81973" lon="-2.43215">
        <ele>66.9</ele>
        <time>2025-02-11T10:09:41Z</time>
      </trkpt>
      <trkpt lat="47.81974" lon="-2.43217">
        <ele>66.9</ele>
        <time>2025-02-11T10:09:42Z</time>
      </trkpt>
      <trkpt lat="47.81973" lon="-2.43219">
        <ele>66.9</ele>
        <time>2025-02-11T10:09:43Z</time>
      </trkpt>
      <trkpt lat="47.81973" lon="-2.4322">
        <ele>67</ele>
        <time>2025-02-11T10:09:44Z</time>
      </trkpt>
      <trkpt lat="47.81972" lon="-2.43221">
        <ele>67</ele>
        <time>2025-02-11T10:09:45Z</time>
      </trkpt>
      <trkpt lat="47.81971" lon="-2.43221">
        <ele>67.2</ele>
        <time>2025-02-11T10:09:46Z</time>
      </trkpt>
      <trkpt lat="47.8197" lon="-2.43223">
        <ele>67.4</ele>
        <time>2025-02-11T10:09:47Z</time>
      </trkpt>
      <trkpt lat="47.8197" lon="-2.43225">
        <ele>67.4</ele>
        <time>2025-02-11T10:09:48Z</time>
      </trkpt>
      <trkpt lat="47.8197" lon="-2.43226">
        <ele>67.4</ele>
        <time>2025-02-11T10:09:49Z</time>
      </trkpt>
      <trkpt lat="47.81969" lon="-2.43228">
        <ele>67.5</ele>
        <time>2025-02-11T10:09:50Z</time>
      </trkpt>
      <trkpt lat="47.81969" lon="-2.43229">
        <ele>67.5</ele>
        <time>2025-02-11T10:09:51Z</time>
      </trkpt>
      <trkpt lat="47.8197" lon="-2.4323">
        <ele>67.5</ele>
        <time>2025-02-11T10:09:52Z</time>
      </trkpt>
      <trkpt lat="47.8197" lon="-2.43232">
        <ele>67.4</ele>
        <time>2025-02-11T10:09:53Z</time>
      </trkpt>
      <trkpt lat="47.8197" lon="-2.43233">
        <ele>67.4</ele>
        <time>2025-02-11T10:09:54Z</time>
      </trkpt>
      <trkpt lat="47.8197" lon="-2.43235">
        <ele>67.5</ele>
        <time>2025-02-11T10:09:55Z</time>
      </trkpt>
      <trkpt lat="47.8197" lon="-2.43236">
        <ele>67.5</ele>
        <time>2025-02-11T10:09:56Z</time>
      </trkpt>
      <trkpt lat="47.8197" lon="-2.43237">
        <ele>67.4</ele>
        <time>2025-02-11T10:09:57Z</time>
      </trkpt>
      <trkpt lat="47.81969" lon="-2.43239">
        <ele>67.5</ele>
        <time>2025-02-11T10:09:58Z</time>
      </trkpt>
      <trkpt lat="47.81969" lon="-2.43241">
        <ele>67.5</ele>
        <time>2025-02-11T10:09:59Z</time>
      </trkpt>
      <trkpt lat="47.81969" lon="-2.43242">
        <ele>67.7</ele>
        <time>2025-02-11T10:10:00Z</time>
      </trkpt>
      <trkpt lat="47.81968" lon="-2.43243">
        <ele>67.8</ele>
        <time>2025-02-11T10:10:01Z</time>
      </trkpt>
      <trkpt lat="47.81968" lon="-2.43245">
        <ele>67.8</ele>
        <time>2025-02-11T10:10:02Z</time>
      </trkpt>
      <trkpt lat="47.81967" lon="-2.43246">
        <ele>67.9</ele>
        <time>2025-02-11T10:10:03Z</time>
      </trkpt>
      <trkpt lat="47.81967" lon="-2.43247">
        <ele>68</ele>
        <time>2025-02-11T10:10:04Z</time>
      </trkpt>
      <trkpt lat="47.81966" lon="-2.43248">
        <ele>68.1</ele>
        <time>2025-02-11T10:10:05Z</time>
      </trkpt>
      <trkpt lat="47.81965" lon="-2.43249">
        <ele>68.4</ele>
        <time>2025-02-11T10:10:06Z</time>
      </trkpt>
      <trkpt lat="47.81964" lon="-2.4325">
        <ele>68.6</ele>
        <time>2025-02-11T10:10:07Z</time>
      </trkpt>
      <trkpt lat="47.81963" lon="-2.43253">
        <ele>68.7</ele>
        <time>2025-02-11T10:10:08Z</time>
      </trkpt>
      <trkpt lat="47.81962" lon="-2.43254">
        <ele>68.9</ele>
        <time>2025-02-11T10:10:09Z</time>
      </trkpt>
      <trkpt lat="47.81961" lon="-2.43256">
        <ele>69</ele>
        <time>2025-02-11T10:10:10Z</time>
      </trkpt>
      <trkpt lat="47.81961" lon="-2.43258">
        <ele>69.1</ele>
        <time>2025-02-11T10:10:11Z</time>
      </trkpt>
      <trkpt lat="47.8196" lon="-2.43259">
        <ele>69.3</ele>
        <time>2025-02-11T10:10:12Z</time>
      </trkpt>
      <trkpt lat="47.81959" lon="-2.43261">
        <ele>69.4</ele>
        <time>2025-02-11T10:10:13Z</time>
      </trkpt>
      <trkpt lat="47.81959" lon="-2.43263">
        <ele>69.5</ele>
        <time>2025-02-11T10:10:14Z</time>
      </trkpt>
      <trkpt lat="47.81959" lon="-2.43263">
        <ele>69.5</ele>
        <time>2025-02-11T10:10:15Z</time>
      </trkpt>
      <trkpt lat="47.81958" lon="-2.43265">
        <ele>69.5</ele>
        <time>2025-02-11T10:10:16Z</time>
      </trkpt>
      <trkpt lat="47.81958" lon="-2.43266">
        <ele>69.5</ele>
        <time>2025-02-11T10:10:17Z</time>
      </trkpt>
      <trkpt lat="47.81957" lon="-2.43268">
        <ele>69.7</ele>
        <time>2025-02-11T10:10:18Z</time>
      </trkpt>
      <trkpt lat="47.81956" lon="-2.4327">
        <ele>69.8</ele>
        <time>2025-02-11T10:10:19Z</time>
      </trkpt>
      <trkpt lat="47.81955" lon="-2.4327">
        <ele>69.9</ele>
        <time>2025-02-11T10:10:20Z</time>
      </trkpt>
      <trkpt lat="47.81954" lon="-2.4327">
        <ele>70.1</ele>
        <time>2025-02-11T10:10:21Z</time>
      </trkpt>
      <trkpt lat="47.81953" lon="-2.4327">
        <ele>70.2</ele>
        <time>2025-02-11T10:10:22Z</time>
      </trkpt>
      <trkpt lat="47.81951" lon="-2.4327">
        <ele>70.4</ele>
        <time>2025-02-11T10:10:23Z</time>
      </trkpt>
      <trkpt lat="47.8195" lon="-2.4327">
        <ele>70.6</ele>
        <time>2025-02-11T10:10:24Z</time>
      </trkpt>
      <trkpt lat="47.81949" lon="-2.43269">
        <ele>70.7</ele>
        <time>2025-02-11T10:10:25Z</time>
      </trkpt>
      <trkpt lat="47.81949" lon="-2.43268">
        <ele>70.8</ele>
        <time>2025-02-11T10:10:26Z</time>
      </trkpt>
      <trkpt lat="47.81948" lon="-2.43268">
        <ele>71</ele>
        <time>2025-02-11T10:10:27Z</time>
      </trkpt>
      <trkpt lat="47.81946" lon="-2.43268">
        <ele>71.1</ele>
        <time>2025-02-11T10:10:28Z</time>
      </trkpt>
      <trkpt lat="47.81945" lon="-2.43268">
        <ele>71.3</ele>
        <time>2025-02-11T10:10:29Z</time>
      </trkpt>
      <trkpt lat="47.81944" lon="-2.43268">
        <ele>71.5</ele>
        <time>2025-02-11T10:10:30Z</time>
      </trkpt>
      <trkpt lat="47.81943" lon="-2.43266">
        <ele>71.6</ele>
        <time>2025-02-11T10:10:31Z</time>
      </trkpt>
      <trkpt lat="47.81943" lon="-2.43264">
        <ele>71.8</ele>
        <time>2025-02-11T10:10:32Z</time>
      </trkpt>
      <trkpt lat="47.81942" lon="-2.43263">
        <ele>71.9</ele>
        <time>2025-02-11T10:10:33Z</time>
      </trkpt>
      <trkpt lat="47.81941" lon="-2.43262">
        <ele>72.1</ele>
        <time>2025-02-11T10:10:34Z</time>
      </trkpt>
      <trkpt lat="47.8194" lon="-2.4326">
        <ele>72.2</ele>
        <time>2025-02-11T10:10:35Z</time>
      </trkpt>
      <trkpt lat="47.8194" lon="-2.43259">
        <ele>72.4</ele>
        <time>2025-02-11T10:10:36Z</time>
      </trkpt>
      <trkpt lat="47.81939" lon="-2.43258">
        <ele>72.5</ele>
        <time>2025-02-11T10:10:37Z</time>
      </trkpt>
      <trkpt lat="47.81938" lon="-2.43257">
        <ele>72.7</ele>
        <time>2025-02-11T10:10:38Z</time>
      </trkpt>
      <trkpt lat="47.81937" lon="-2.43256">
        <ele>72.9</ele>
        <time>2025-02-11T10:10:39Z</time>
      </trkpt>
      <trkpt lat="47.81937" lon="-2.43254">
        <ele>72.9</ele>
        <time>2025-02-11T10:10:40Z</time>
      </trkpt>
      <trkpt lat="47.81937" lon="-2.43252">
        <ele>73</ele>
        <time>2025-02-11T10:10:41Z</time>
      </trkpt>
      <trkpt lat="47.81937" lon="-2.4325">
        <ele>73</ele>
        <time>2025-02-11T10:10:42Z</time>
      </trkpt>
      <trkpt lat="47.81937" lon="-2.43249">
        <ele>73</ele>
        <time>2025-02-11T10:10:43Z</time>
      </trkpt>
      <trkpt lat="47.81938" lon="-2.43247">
        <ele>73</ele>
        <time>2025-02-11T10:10:44Z</time>
      </trkpt>
      <trkpt lat="47.81938" lon="-2.43246">
        <ele>72.9</ele>
        <time>2025-02-11T10:10:45Z</time>
      </trkpt>
      <trkpt lat="47.81939" lon="-2.43245">
        <ele>72.9</ele>
        <time>2025-02-11T10:10:46Z</time>
      </trkpt>
      <trkpt lat="47.81938" lon="-2.43244">
        <ele>73</ele>
        <time>2025-02-11T10:10:47Z</time>
      </trkpt>
      <trkpt lat="47.81938" lon="-2.43243">
        <ele>73</ele>
        <time>2025-02-11T10:10:48Z</time>
      </trkpt>
      <trkpt lat="47.81938" lon="-2.43242">
        <ele>73</ele>
        <time>2025-02-11T10:10:49Z</time>
      </trkpt>
      <trkpt lat="47.81938" lon="-2.43242">
        <ele>73.1</ele>
        <time>2025-02-11T10:10:50Z</time>
      </trkpt>
      <trkpt lat="47.81937" lon="-2.43241">
        <ele>73.2</ele>
        <time>2025-02-11T10:10:51Z</time>
      </trkpt>
      <trkpt lat="47.81937" lon="-2.4324">
        <ele>73.3</ele>
        <time>2025-02-11T10:10:52Z</time>
      </trkpt>
      <trkpt lat="47.81936" lon="-2.43241">
        <ele>73.4</ele>
        <time>2025-02-11T10:10:53Z</time>
      </trkpt>
      <trkpt lat="47.81936" lon="-2.43242">
        <ele>73.4</ele>
        <time>2025-02-11T10:10:54Z</time>
      </trkpt>
      <trkpt lat="47.81935" lon="-2.43242">
        <ele>73.5</ele>
        <time>2025-02-11T10:10:55Z</time>
      </trkpt>
      <trkpt lat="47.81935" lon="-2.43242">
        <ele>73.5</ele>
        <time>2025-02-11T10:10:56Z</time>
      </trkpt>
      <trkpt lat="47.81935" lon="-2.43243">
        <ele>73.5</ele>
        <time>2025-02-11T10:10:57Z</time>
      </trkpt>
      <trkpt lat="47.81935" lon="-2.43242">
        <ele>73.6</ele>
        <time>2025-02-11T10:10:58Z</time>
      </trkpt>
      <trkpt lat="47.81935" lon="-2.43244">
        <ele>73.6</ele>
        <time>2025-02-11T10:10:59Z</time>
      </trkpt>
      <trkpt lat="47.81935" lon="-2.43244">
        <ele>73.6</ele>
        <time>2025-02-11T10:11:00Z</time>
      </trkpt>
      <trkpt lat="47.81935" lon="-2.43245">
        <ele>73.6</ele>
        <time>2025-02-11T10:11:01Z</time>
      </trkpt>
      <trkpt lat="47.81934" lon="-2.43246">
        <ele>73.6</ele>
        <time>2025-02-11T10:11:02Z</time>
      </trkpt>
      <trkpt lat="47.81934" lon="-2.43246">
        <ele>73.5</ele>
        <time>2025-02-11T10:11:03Z</time>
      </trkpt>
      <trkpt lat="47.81935" lon="-2.43247">
        <ele>73.5</ele>
        <time>2025-02-11T10:11:04Z</time>
      </trkpt>
      <trkpt lat="47.81934" lon="-2.43249">
        <ele>73.5</ele>
        <time>2025-02-11T10:11:05Z</time>
      </trkpt>
      <trkpt lat="47.81934" lon="-2.43251">
        <ele>73.5</ele>
        <time>2025-02-11T10:11:06Z</time>
      </trkpt>
      <trkpt lat="47.81933" lon="-2.43253">
        <ele>73.5</ele>
        <time>2025-02-11T10:11:07Z</time>
      </trkpt>
      <trkpt lat="47.81932" lon="-2.43255">
        <ele>73.6</ele>
        <time>2025-02-11T10:11:08Z</time>
      </trkpt>
      <trkpt lat="47.81932" lon="-2.43256">
        <ele>73.6</ele>
        <time>2025-02-11T10:11:09Z</time>
      </trkpt>
      <trkpt lat="47.81931" lon="-2.43257">
        <ele>73.7</ele>
        <time>2025-02-11T10:11:10Z</time>
      </trkpt>
      <trkpt lat="47.81931" lon="-2.43258">
        <ele>73.7</ele>
        <time>2025-02-11T10:11:11Z</time>
      </trkpt>
      <trkpt lat="47.81931" lon="-2.4326">
        <ele>73.6</ele>
        <time>2025-02-11T10:11:12Z</time>
      </trkpt>
      <trkpt lat="47.81931" lon="-2.43262">
        <ele>73.5</ele>
        <time>2025-02-11T10:11:13Z</time>
      </trkpt>
      <trkpt lat="47.81931" lon="-2.43264">
        <ele>73.5</ele>
        <time>2025-02-11T10:11:14Z</time>
      </trkpt>
      <trkpt lat="47.8193" lon="-2.43265">
        <ele>73.5</ele>
        <time>2025-02-11T10:11:15Z</time>
      </trkpt>
      <trkpt lat="47.8193" lon="-2.43267">
        <ele>73.5</ele>
        <time>2025-02-11T10:11:16Z</time>
      </trkpt>
      <trkpt lat="47.81929" lon="-2.43269">
        <ele>73.6</ele>
        <time>2025-02-11T10:11:17Z</time>
      </trkpt>
      <trkpt lat="47.81928" lon="-2.43271">
        <ele>73.7</ele>
        <time>2025-02-11T10:11:18Z</time>
      </trkpt>
      <trkpt lat="47.81926" lon="-2.43272">
        <ele>73.8</ele>
        <time>2025-02-11T10:11:19Z</time>
      </trkpt>
      <trkpt lat="47.81925" lon="-2.43275">
        <ele>73.9</ele>
        <time>2025-02-11T10:11:20Z</time>
      </trkpt>
      <trkpt lat="47.81925" lon="-2.43277">
        <ele>73.8</ele>
        <time>2025-02-11T10:11:21Z</time>
      </trkpt>
      <trkpt lat="47.81925" lon="-2.43279">
        <ele>73.9</ele>
        <time>2025-02-11T10:11:22Z</time>
      </trkpt>
      <trkpt lat="47.81924" lon="-2.43281">
        <ele>74</ele>
        <time>2025-02-11T10:11:23Z</time>
      </trkpt>
      <trkpt lat="47.81923" lon="-2.43282">
        <ele>74.1</ele>
        <time>2025-02-11T10:11:24Z</time>
      </trkpt>
      <trkpt lat="47.81923" lon="-2.43284">
        <ele>74.1</ele>
        <time>2025-02-11T10:11:25Z</time>
      </trkpt>
      <trkpt lat="47.81923" lon="-2.43286">
        <ele>74.2</ele>
        <time>2025-02-11T10:11:26Z</time>
      </trkpt>
      <trkpt lat="47.81922" lon="-2.43288">
        <ele>74.4</ele>
        <time>2025-02-11T10:11:27Z</time>
      </trkpt>
      <trkpt lat="47.81921" lon="-2.43289">
        <ele>74.5</ele>
        <time>2025-02-11T10:11:28Z</time>
      </trkpt>
      <trkpt lat="47.8192" lon="-2.43291">
        <ele>74.6</ele>
        <time>2025-02-11T10:11:29Z</time>
      </trkpt>
      <trkpt lat="47.81919" lon="-2.43294">
        <ele>74.7</ele>
        <time>2025-02-11T10:11:30Z</time>
      </trkpt>
      <trkpt lat="47.81919" lon="-2.43296">
        <ele>74.7</ele>
        <time>2025-02-11T10:11:31Z</time>
      </trkpt>
      <trkpt lat="47.81918" lon="-2.43297">
        <ele>74.8</ele>
        <time>2025-02-11T10:11:32Z</time>
      </trkpt>
      <trkpt lat="47.81917" lon="-2.43297">
        <ele>75</ele>
        <time>2025-02-11T10:11:33Z</time>
      </trkpt>
      <trkpt lat="47.81916" lon="-2.43296">
        <ele>75.2</ele>
        <time>2025-02-11T10:11:34Z</time>
      </trkpt>
      <trkpt lat="47.81914" lon="-2.43295">
        <ele>75.4</ele>
        <time>2025-02-11T10:11:35Z</time>
      </trkpt>
      <trkpt lat="47.81913" lon="-2.43296">
        <ele>75.5</ele>
        <time>2025-02-11T10:11:36Z</time>
      </trkpt>
      <trkpt lat="47.81913" lon="-2.43296">
        <ele>75.6</ele>
        <time>2025-02-11T10:11:37Z</time>
      </trkpt>
      <trkpt lat="47.81912" lon="-2.43297">
        <ele>75.8</ele>
        <time>2025-02-11T10:11:38Z</time>
      </trkpt>
      <trkpt lat="47.81911" lon="-2.43297">
        <ele>75.9</ele>
        <time>2025-02-11T10:11:39Z</time>
      </trkpt>
      <trkpt lat="47.8191" lon="-2.43297">
        <ele>76.1</ele>
        <time>2025-02-11T10:11:40Z</time>
      </trkpt>
      <trkpt lat="47.81909" lon="-2.43297">
        <ele>76.2</ele>
        <time>2025-02-11T10:11:41Z</time>
      </trkpt>
      <trkpt lat="47.81908" lon="-2.43297">
        <ele>76.4</ele>
        <time>2025-02-11T10:11:42Z</time>
      </trkpt>
      <trkpt lat="47.81907" lon="-2.43298">
        <ele>76.5</ele>
        <time>2025-02-11T10:11:43Z</time>
      </trkpt>
      <trkpt lat="47.81907" lon="-2.433">
        <ele>76.4</ele>
        <time>2025-02-11T10:11:44Z</time>
      </trkpt>
      <trkpt lat="47.81906" lon="-2.43301">
        <ele>76.6</ele>
        <time>2025-02-11T10:11:45Z</time>
      </trkpt>
      <trkpt lat="47.81906" lon="-2.43301">
        <ele>76.7</ele>
        <time>2025-02-11T10:11:46Z</time>
      </trkpt>
      <trkpt lat="47.81906" lon="-2.43303">
        <ele>76.6</ele>
        <time>2025-02-11T10:11:47Z</time>
      </trkpt>
      <trkpt lat="47.81905" lon="-2.43304">
        <ele>76.7</ele>
        <time>2025-02-11T10:11:48Z</time>
      </trkpt>
      <trkpt lat="47.81905" lon="-2.43305">
        <ele>76.6</ele>
        <time>2025-02-11T10:11:49Z</time>
      </trkpt>
      <trkpt lat="47.81905" lon="-2.43306">
        <ele>76.7</ele>
        <time>2025-02-11T10:11:50Z</time>
      </trkpt>
      <trkpt lat="47.81905" lon="-2.43307">
        <ele>76.7</ele>
        <time>2025-02-11T10:11:51Z</time>
      </trkpt>
      <trkpt lat="47.81905" lon="-2.43308">
        <ele>76.7</ele>
        <time>2025-02-11T10:11:52Z</time>
      </trkpt>
      <trkpt lat="47.81905" lon="-2.4331">
        <ele>76.7</ele>
        <time>2025-02-11T10:11:53Z</time>
      </trkpt>
      <trkpt lat="47.81904" lon="-2.43311">
        <ele>76.7</ele>
        <time>2025-02-11T10:11:54Z</time>
      </trkpt>
      <trkpt lat="47.81903" lon="-2.43311">
        <ele>76.9</ele>
        <time>2025-02-11T10:11:55Z</time>
      </trkpt>
      <trkpt lat="47.81903" lon="-2.43313">
        <ele>76.9</ele>
        <time>2025-02-11T10:11:56Z</time>
      </trkpt>
      <trkpt lat="47.81903" lon="-2.43314">
        <ele>76.8</ele>
        <time>2025-02-11T10:13:58Z</time>
      </trkpt>
      <trkpt lat="47.81904" lon="-2.43316">
        <ele>76.6</ele>
        <time>2025-02-11T10:13:59Z</time>
      </trkpt>
      <trkpt lat="47.81905" lon="-2.43317">
        <ele>76.5</ele>
        <time>2025-02-11T10:14:00Z</time>
      </trkpt>
      <trkpt lat="47.81906" lon="-2.43318">
        <ele>76.4</ele>
        <time>2025-02-11T10:14:01Z</time>
      </trkpt>
      <trkpt lat="47.81907" lon="-2.4332">
        <ele>76.3</ele>
        <time>2025-02-11T10:14:02Z</time>
      </trkpt>
      <trkpt lat="47.81908" lon="-2.4332">
        <ele>76.1</ele>
        <time>2025-02-11T10:14:03Z</time>
      </trkpt>
      <trkpt lat="47.81909" lon="-2.4332">
        <ele>75.9</ele>
        <time>2025-02-11T10:14:04Z</time>
      </trkpt>
      <trkpt lat="47.8191" lon="-2.43319">
        <ele>75.8</ele>
        <time>2025-02-11T10:14:05Z</time>
      </trkpt>
      <trkpt lat="47.81911" lon="-2.43318">
        <ele>75.7</ele>
        <time>2025-02-11T10:14:06Z</time>
      </trkpt>
      <trkpt lat="47.81912" lon="-2.43318">
        <ele>75.6</ele>
        <time>2025-02-11T10:14:07Z</time>
      </trkpt>
      <trkpt lat="47.81914" lon="-2.43317">
        <ele>75.4</ele>
        <time>2025-02-11T10:14:08Z</time>
      </trkpt>
      <trkpt lat="47.81915" lon="-2.43316">
        <ele>75.2</ele>
        <time>2025-02-11T10:14:09Z</time>
      </trkpt>
      <trkpt lat="47.81916" lon="-2.43316">
        <ele>75.1</ele>
        <time>2025-02-11T10:14:10Z</time>
      </trkpt>
      <trkpt lat="47.81917" lon="-2.43317">
        <ele>74.9</ele>
        <time>2025-02-11T10:14:11Z</time>
      </trkpt>
      <trkpt lat="47.81918" lon="-2.43317">
        <ele>74.8</ele>
        <time>2025-02-11T10:14:12Z</time>
      </trkpt>
      <trkpt lat="47.81919" lon="-2.43318">
        <ele>74.8</ele>
        <time>2025-02-11T10:14:13Z</time>
      </trkpt>
      <trkpt lat="47.8192" lon="-2.43318">
        <ele>74.7</ele>
        <time>2025-02-11T10:14:14Z</time>
      </trkpt>
      <trkpt lat="47.8192" lon="-2.43318">
        <ele>74.7</ele>
        <time>2025-02-11T10:14:15Z</time>
      </trkpt>
      <trkpt lat="47.81921" lon="-2.43318">
        <ele>74.6</ele>
        <time>2025-02-11T10:14:16Z</time>
      </trkpt>
      <trkpt lat="47.81922" lon="-2.43318">
        <ele>74.5</ele>
        <time>2025-02-11T10:14:17Z</time>
      </trkpt>
      <trkpt lat="47.81922" lon="-2.43318">
        <ele>74.5</ele>
        <time>2025-02-11T10:14:18Z</time>
      </trkpt>
      <trkpt lat="47.81923" lon="-2.43318">
        <ele>74.4</ele>
        <time>2025-02-11T10:14:19Z</time>
      </trkpt>
      <trkpt lat="47.81924" lon="-2.43317">
        <ele>74.3</ele>
        <time>2025-02-11T10:14:20Z</time>
      </trkpt>
      <trkpt lat="47.81925" lon="-2.43316">
        <ele>74.2</ele>
        <time>2025-02-11T10:14:21Z</time>
      </trkpt>
      <trkpt lat="47.81926" lon="-2.43316">
        <ele>74.2</ele>
        <time>2025-02-11T10:14:22Z</time>
      </trkpt>
      <trkpt lat="47.81927" lon="-2.43316">
        <ele>74.1</ele>
        <time>2025-02-11T10:14:23Z</time>
      </trkpt>
      <trkpt lat="47.81928" lon="-2.43317">
        <ele>74</ele>
        <time>2025-02-11T10:14:24Z</time>
      </trkpt>
      <trkpt lat="47.81929" lon="-2.43317">
        <ele>73.9</ele>
        <time>2025-02-11T10:14:25Z</time>
      </trkpt>
      <trkpt lat="47.81929" lon="-2.43318">
        <ele>73.8</ele>
        <time>2025-02-11T10:14:26Z</time>
      </trkpt>
      <trkpt lat="47.8193" lon="-2.43318">
        <ele>73.8</ele>
        <time>2025-02-11T10:14:27Z</time>
      </trkpt>
      <trkpt lat="47.81931" lon="-2.43319">
        <ele>73.7</ele>
        <time>2025-02-11T10:14:28Z</time>
      </trkpt>
      <trkpt lat="47.81932" lon="-2.4332">
        <ele>73.6</ele>
        <time>2025-02-11T10:14:29Z</time>
      </trkpt>
      <trkpt lat="47.81933" lon="-2.4332">
        <ele>73.5</ele>
        <time>2025-02-11T10:14:30Z</time>
      </trkpt>
      <trkpt lat="47.81934" lon="-2.43319">
        <ele>73.4</ele>
        <time>2025-02-11T10:14:31Z</time>
      </trkpt>
      <trkpt lat="47.81935" lon="-2.43317">
        <ele>73.3</ele>
        <time>2025-02-11T10:14:32Z</time>
      </trkpt>
      <trkpt lat="47.81937" lon="-2.43317">
        <ele>73.1</ele>
        <time>2025-02-11T10:14:33Z</time>
      </trkpt>
      <trkpt lat="47.81938" lon="-2.43317">
        <ele>73</ele>
        <time>2025-02-11T10:14:34Z</time>
      </trkpt>
      <trkpt lat="47.8194" lon="-2.43317">
        <ele>72.9</ele>
        <time>2025-02-11T10:14:35Z</time>
      </trkpt>
      <trkpt lat="47.81941" lon="-2.43317">
        <ele>72.7</ele>
        <time>2025-02-11T10:14:36Z</time>
      </trkpt>
      <trkpt lat="47.81942" lon="-2.43317">
        <ele>72.6</ele>
        <time>2025-02-11T10:14:37Z</time>
      </trkpt>
      <trkpt lat="47.81944" lon="-2.43317">
        <ele>72.5</ele>
        <time>2025-02-11T10:14:38Z</time>
      </trkpt>
      <trkpt lat="47.81945" lon="-2.43318">
        <ele>72.4</ele>
        <time>2025-02-11T10:14:39Z</time>
      </trkpt>
      <trkpt lat="47.81946" lon="-2.43319">
        <ele>72.4</ele>
        <time>2025-02-11T10:14:40Z</time>
      </trkpt>
      <trkpt lat="47.81946" lon="-2.43322">
        <ele>72.4</ele>
        <time>2025-02-11T10:14:41Z</time>
      </trkpt>
      <trkpt lat="47.81945" lon="-2.43324">
        <ele>72.6</ele>
        <time>2025-02-11T10:14:42Z</time>
      </trkpt>
      <trkpt lat="47.81947" lon="-2.43326">
        <ele>72.5</ele>
        <time>2025-02-11T10:14:44Z</time>
      </trkpt>
      <trkpt lat="47.81949" lon="-2.43325">
        <ele>72.3</ele>
        <time>2025-02-11T10:14:46Z</time>
      </trkpt>
      <trkpt lat="47.81949" lon="-2.43325">
        <ele>72.3</ele>
        <time>2025-02-11T10:14:48Z</time>
      </trkpt>
      <trkpt lat="47.81948" lon="-2.43325">
        <ele>72.3</ele>
        <time>2025-02-11T10:14:50Z</time>
      </trkpt>
      <trkpt lat="47.81949" lon="-2.43327">
        <ele>72.3</ele>
        <time>2025-02-11T10:14:52Z</time>
      </trkpt>
      <trkpt lat="47.81949" lon="-2.4333">
        <ele>72.4</ele>
        <time>2025-02-11T10:15:06Z</time>
      </trkpt>
      <trkpt lat="47.81953" lon="-2.43327">
        <ele>71.9</ele>
        <time>2025-02-11T10:15:08Z</time>
      </trkpt>
      <trkpt lat="47.81954" lon="-2.43322">
        <ele>71.6</ele>
        <time>2025-02-11T10:15:12Z</time>
      </trkpt>
      <trkpt lat="47.81956" lon="-2.4332">
        <ele>71.3</ele>
        <time>2025-02-11T10:15:14Z</time>
      </trkpt>
      <trkpt lat="47.81959" lon="-2.4332">
        <ele>71</ele>
        <time>2025-02-11T10:15:16Z</time>
      </trkpt>
      <trkpt lat="47.8196" lon="-2.43318">
        <ele>70.8</ele>
        <time>2025-02-11T10:15:18Z</time>
      </trkpt>
      <trkpt lat="47.8196" lon="-2.43314">
        <ele>70.6</ele>
        <time>2025-02-11T10:15:20Z</time>
      </trkpt>
      <trkpt lat="47.81962" lon="-2.43314">
        <ele>70.4</ele>
        <time>2025-02-11T10:15:22Z</time>
      </trkpt>
      <trkpt lat="47.81963" lon="-2.43315">
        <ele>70.3</ele>
        <time>2025-02-11T10:15:24Z</time>
      </trkpt>
      <trkpt lat="47.81963" lon="-2.43318">
        <ele>70.4</ele>
        <time>2025-02-11T10:15:25Z</time>
      </trkpt>
      <trkpt lat="47.81963" lon="-2.43319">
        <ele>70.5</ele>
        <time>2025-02-11T10:15:26Z</time>
      </trkpt>
      <trkpt lat="47.81963" lon="-2.4332">
        <ele>70.5</ele>
        <time>2025-02-11T10:15:27Z</time>
      </trkpt>
      <trkpt lat="47.81964" lon="-2.4332">
        <ele>70.4</ele>
        <time>2025-02-11T10:15:28Z</time>
      </trkpt>
      <trkpt lat="47.81965" lon="-2.4332">
        <ele>70.4</ele>
        <time>2025-02-11T10:15:29Z</time>
      </trkpt>
      <trkpt lat="47.81965" lon="-2.4332">
        <ele>70.3</ele>
        <time>2025-02-11T10:15:30Z</time>
      </trkpt>
      <trkpt lat="47.81966" lon="-2.4332">
        <ele>70.2</ele>
        <time>2025-02-11T10:15:31Z</time>
      </trkpt>
      <trkpt lat="47.81968" lon="-2.4332">
        <ele>70</ele>
        <time>2025-02-11T10:15:32Z</time>
      </trkpt>
      <trkpt lat="47.81968" lon="-2.43321">
        <ele>70</ele>
        <time>2025-02-11T10:15:33Z</time>
      </trkpt>
      <trkpt lat="47.81969" lon="-2.43321">
        <ele>69.9</ele>
        <time>2025-02-11T10:15:34Z</time>
      </trkpt>
      <trkpt lat="47.8197" lon="-2.4332">
        <ele>69.7</ele>
        <time>2025-02-11T10:15:35Z</time>
      </trkpt>
      <trkpt lat="47.81971" lon="-2.43319">
        <ele>69.6</ele>
        <time>2025-02-11T10:15:36Z</time>
      </trkpt>
      <trkpt lat="47.81972" lon="-2.43319">
        <ele>69.5</ele>
        <time>2025-02-11T10:15:37Z</time>
      </trkpt>
      <trkpt lat="47.81972" lon="-2.43318">
        <ele>69.4</ele>
        <time>2025-02-11T10:15:38Z</time>
      </trkpt>
      <trkpt lat="47.81973" lon="-2.43317">
        <ele>69.4</ele>
        <time>2025-02-11T10:15:39Z</time>
      </trkpt>
      <trkpt lat="47.81974" lon="-2.43316">
        <ele>69.3</ele>
        <time>2025-02-11T10:15:40Z</time>
      </trkpt>
      <trkpt lat="47.81975" lon="-2.43316">
        <ele>69.3</ele>
        <time>2025-02-11T10:15:41Z</time>
      </trkpt>
      <trkpt lat="47.81977" lon="-2.43316">
        <ele>69.2</ele>
        <time>2025-02-11T10:15:42Z</time>
      </trkpt>
      <trkpt lat="47.81978" lon="-2.43317">
        <ele>69.2</ele>
        <time>2025-02-11T10:15:43Z</time>
      </trkpt>
      <trkpt lat="47.81979" lon="-2.43317">
        <ele>69.2</ele>
        <time>2025-02-11T10:15:44Z</time>
      </trkpt>
      <trkpt lat="47.8198" lon="-2.43316">
        <ele>69.1</ele>
        <time>2025-02-11T10:15:45Z</time>
      </trkpt>
      <trkpt lat="47.81981" lon="-2.43315">
        <ele>69</ele>
        <time>2025-02-11T10:15:46Z</time>
      </trkpt>
      <trkpt lat="47.81981" lon="-2.43313">
        <ele>69</ele>
        <time>2025-02-11T10:15:47Z</time>
      </trkpt>
      <trkpt lat="47.81981" lon="-2.43312">
        <ele>68.9</ele>
        <time>2025-02-11T10:15:48Z</time>
      </trkpt>
      <trkpt lat="47.81981" lon="-2.43311">
        <ele>68.9</ele>
        <time>2025-02-11T10:15:49Z</time>
      </trkpt>
      <trkpt lat="47.81982" lon="-2.4331">
        <ele>68.8</ele>
        <time>2025-02-11T10:15:50Z</time>
      </trkpt>
      <trkpt lat="47.81982" lon="-2.43309">
        <ele>68.7</ele>
        <time>2025-02-11T10:15:51Z</time>
      </trkpt>
      <trkpt lat="47.81983" lon="-2.43308">
        <ele>68.7</ele>
        <time>2025-02-11T10:15:52Z</time>
      </trkpt>
      <trkpt lat="47.81983" lon="-2.43306">
        <ele>68.6</ele>
        <time>2025-02-11T10:15:53Z</time>
      </trkpt>
      <trkpt lat="47.81984" lon="-2.43305">
        <ele>68.6</ele>
        <time>2025-02-11T10:15:54Z</time>
      </trkpt>
      <trkpt lat="47.81984" lon="-2.43303">
        <ele>68.5</ele>
        <time>2025-02-11T10:15:55Z</time>
      </trkpt>
      <trkpt lat="47.81985" lon="-2.43302">
        <ele>68.4</ele>
        <time>2025-02-11T10:15:56Z</time>
      </trkpt>
      <trkpt lat="47.81985" lon="-2.43301">
        <ele>68.4</ele>
        <time>2025-02-11T10:15:57Z</time>
      </trkpt>
      <trkpt lat="47.81986" lon="-2.43301">
        <ele>68.3</ele>
        <time>2025-02-11T10:15:58Z</time>
      </trkpt>
      <trkpt lat="47.81987" lon="-2.43301">
        <ele>68.3</ele>
        <time>2025-02-11T10:15:59Z</time>
      </trkpt>
      <trkpt lat="47.81987" lon="-2.43301">
        <ele>68.3</ele>
        <time>2025-02-11T10:16:00Z</time>
      </trkpt>
      <trkpt lat="47.81988" lon="-2.43301">
        <ele>68.3</ele>
        <time>2025-02-11T10:16:01Z</time>
      </trkpt>
      <trkpt lat="47.81988" lon="-2.43301">
        <ele>68.3</ele>
        <time>2025-02-11T10:16:02Z</time>
      </trkpt>
      <trkpt lat="47.81989" lon="-2.43301">
        <ele>68.2</ele>
        <time>2025-02-11T10:16:03Z</time>
      </trkpt>
      <trkpt lat="47.8199" lon="-2.43301">
        <ele>68.2</ele>
        <time>2025-02-11T10:16:04Z</time>
      </trkpt>
      <trkpt lat="47.81991" lon="-2.433">
        <ele>68.1</ele>
        <time>2025-02-11T10:16:05Z</time>
      </trkpt>
      <trkpt lat="47.81992" lon="-2.43299">
        <ele>68</ele>
        <time>2025-02-11T10:16:06Z</time>
      </trkpt>
      <trkpt lat="47.81993" lon="-2.43297">
        <ele>68</ele>
        <time>2025-02-11T10:16:07Z</time>
      </trkpt>
      <trkpt lat="47.81993" lon="-2.43296">
        <ele>67.9</ele>
        <time>2025-02-11T10:16:08Z</time>
      </trkpt>
      <trkpt lat="47.81994" lon="-2.43295">
        <ele>67.8</ele>
        <time>2025-02-11T10:16:09Z</time>
      </trkpt>
      <trkpt lat="47.81995" lon="-2.43294">
        <ele>67.8</ele>
        <time>2025-02-11T10:16:10Z</time>
      </trkpt>
      <trkpt lat="47.81996" lon="-2.43294">
        <ele>67.7</ele>
        <time>2025-02-11T10:16:11Z</time>
      </trkpt>
      <trkpt lat="47.81997" lon="-2.43293">
        <ele>67.7</ele>
        <time>2025-02-11T10:16:12Z</time>
      </trkpt>
      <trkpt lat="47.81998" lon="-2.43293">
        <ele>67.6</ele>
        <time>2025-02-11T10:16:13Z</time>
      </trkpt>
      <trkpt lat="47.81998" lon="-2.43292">
        <ele>67.6</ele>
        <time>2025-02-11T10:16:14Z</time>
      </trkpt>
      <trkpt lat="47.81999" lon="-2.4329">
        <ele>67.5</ele>
        <time>2025-02-11T10:16:15Z</time>
      </trkpt>
      <trkpt lat="47.81999" lon="-2.43289">
        <ele>67.4</ele>
        <time>2025-02-11T10:16:16Z</time>
      </trkpt>
      <trkpt lat="47.81999" lon="-2.43287">
        <ele>67.4</ele>
        <time>2025-02-11T10:16:17Z</time>
      </trkpt>
      <trkpt lat="47.82" lon="-2.43286">
        <ele>67.3</ele>
        <time>2025-02-11T10:16:18Z</time>
      </trkpt>
      <trkpt lat="47.82001" lon="-2.43285">
        <ele>67.3</ele>
        <time>2025-02-11T10:16:19Z</time>
      </trkpt>
      <trkpt lat="47.82002" lon="-2.43285">
        <ele>67.3</ele>
        <time>2025-02-11T10:16:20Z</time>
      </trkpt>
      <trkpt lat="47.82003" lon="-2.43286">
        <ele>67.4</ele>
        <time>2025-02-11T10:16:21Z</time>
      </trkpt>
      <trkpt lat="47.82004" lon="-2.43286">
        <ele>67.4</ele>
        <time>2025-02-11T10:16:22Z</time>
      </trkpt>
      <trkpt lat="47.82006" lon="-2.43287">
        <ele>67.5</ele>
        <time>2025-02-11T10:16:23Z</time>
      </trkpt>
      <trkpt lat="47.82007" lon="-2.43287">
        <ele>67.5</ele>
        <time>2025-02-11T10:16:24Z</time>
      </trkpt>
      <trkpt lat="47.82008" lon="-2.43288">
        <ele>67.5</ele>
        <time>2025-02-11T10:16:25Z</time>
      </trkpt>
      <trkpt lat="47.82009" lon="-2.43289">
        <ele>67.6</ele>
        <time>2025-02-11T10:16:26Z</time>
      </trkpt>
      <trkpt lat="47.82009" lon="-2.43291">
        <ele>67.6</ele>
        <time>2025-02-11T10:16:27Z</time>
      </trkpt>
      <trkpt lat="47.8201" lon="-2.43292">
        <ele>67.7</ele>
        <time>2025-02-11T10:16:28Z</time>
      </trkpt>
      <trkpt lat="47.8201" lon="-2.43294">
        <ele>67.7</ele>
        <time>2025-02-11T10:16:29Z</time>
      </trkpt>
      <trkpt lat="47.82009" lon="-2.43296">
        <ele>67.8</ele>
        <time>2025-02-11T10:16:30Z</time>
      </trkpt>
      <trkpt lat="47.82009" lon="-2.43297">
        <ele>67.8</ele>
        <time>2025-02-11T10:16:31Z</time>
      </trkpt>
      <trkpt lat="47.82009" lon="-2.43299">
        <ele>67.8</ele>
        <time>2025-02-11T10:16:32Z</time>
      </trkpt>
      <trkpt lat="47.8201" lon="-2.43301">
        <ele>67.9</ele>
        <time>2025-02-11T10:16:33Z</time>
      </trkpt>
      <trkpt lat="47.8201" lon="-2.43302">
        <ele>67.9</ele>
        <time>2025-02-11T10:16:34Z</time>
      </trkpt>
      <trkpt lat="47.82011" lon="-2.43304">
        <ele>68</ele>
        <time>2025-02-11T10:16:35Z</time>
      </trkpt>
      <trkpt lat="47.82012" lon="-2.43305">
        <ele>68</ele>
        <time>2025-02-11T10:16:36Z</time>
      </trkpt>
      <trkpt lat="47.82012" lon="-2.43306">
        <ele>68</ele>
        <time>2025-02-11T10:16:37Z</time>
      </trkpt>
      <trkpt lat="47.82012" lon="-2.43308">
        <ele>68.1</ele>
        <time>2025-02-11T10:16:38Z</time>
      </trkpt>
      <trkpt lat="47.82013" lon="-2.4331">
        <ele>68.1</ele>
        <time>2025-02-11T10:16:39Z</time>
      </trkpt>
      <trkpt lat="47.82014" lon="-2.43311">
        <ele>68.2</ele>
        <time>2025-02-11T10:16:40Z</time>
      </trkpt>
      <trkpt lat="47.82015" lon="-2.43312">
        <ele>68.2</ele>
        <time>2025-02-11T10:16:41Z</time>
      </trkpt>
      <trkpt lat="47.82016" lon="-2.43313">
        <ele>68.3</ele>
        <time>2025-02-11T10:16:42Z</time>
      </trkpt>
      <trkpt lat="47.82016" lon="-2.43314">
        <ele>68.3</ele>
        <time>2025-02-11T10:16:43Z</time>
      </trkpt>
      <trkpt lat="47.82017" lon="-2.43316">
        <ele>68.4</ele>
        <time>2025-02-11T10:16:44Z</time>
      </trkpt>
      <trkpt lat="47.82018" lon="-2.43317">
        <ele>68.4</ele>
        <time>2025-02-11T10:16:45Z</time>
      </trkpt>
      <trkpt lat="47.82019" lon="-2.43318">
        <ele>68.5</ele>
        <time>2025-02-11T10:16:46Z</time>
      </trkpt>
      <trkpt lat="47.82019" lon="-2.43319">
        <ele>68.5</ele>
        <time>2025-02-11T10:16:47Z</time>
      </trkpt>
      <trkpt lat="47.8202" lon="-2.4332">
        <ele>68.5</ele>
        <time>2025-02-11T10:16:48Z</time>
      </trkpt>
      <trkpt lat="47.8202" lon="-2.43322">
        <ele>68.6</ele>
        <time>2025-02-11T10:16:49Z</time>
      </trkpt>
      <trkpt lat="47.8202" lon="-2.43323">
        <ele>68.6</ele>
        <time>2025-02-11T10:16:50Z</time>
      </trkpt>
      <trkpt lat="47.8202" lon="-2.43325">
        <ele>68.7</ele>
        <time>2025-02-11T10:16:51Z</time>
      </trkpt>
      <trkpt lat="47.8202" lon="-2.43327">
        <ele>68.8</ele>
        <time>2025-02-11T10:16:52Z</time>
      </trkpt>
      <trkpt lat="47.8202" lon="-2.43328">
        <ele>68.8</ele>
        <time>2025-02-11T10:16:53Z</time>
      </trkpt>
      <trkpt lat="47.8202" lon="-2.43329">
        <ele>68.9</ele>
        <time>2025-02-11T10:16:54Z</time>
      </trkpt>
      <trkpt lat="47.82019" lon="-2.43331">
        <ele>68.9</ele>
        <time>2025-02-11T10:16:55Z</time>
      </trkpt>
      <trkpt lat="47.82018" lon="-2.43332">
        <ele>69</ele>
        <time>2025-02-11T10:16:56Z</time>
      </trkpt>
      <trkpt lat="47.82018" lon="-2.43334">
        <ele>69</ele>
        <time>2025-02-11T10:16:57Z</time>
      </trkpt>
      <trkpt lat="47.82018" lon="-2.43335">
        <ele>69.1</ele>
        <time>2025-02-11T10:16:58Z</time>
      </trkpt>
      <trkpt lat="47.82018" lon="-2.43337">
        <ele>69.1</ele>
        <time>2025-02-11T10:16:59Z</time>
      </trkpt>
      <trkpt lat="47.82018" lon="-2.43339">
        <ele>69.2</ele>
        <time>2025-02-11T10:17:00Z</time>
      </trkpt>
      <trkpt lat="47.82018" lon="-2.43341">
        <ele>69.3</ele>
        <time>2025-02-11T10:17:01Z</time>
      </trkpt>
      <trkpt lat="47.82018" lon="-2.43343">
        <ele>69.4</ele>
        <time>2025-02-11T10:17:02Z</time>
      </trkpt>
      <trkpt lat="47.82017" lon="-2.43344">
        <ele>69.4</ele>
        <time>2025-02-11T10:17:03Z</time>
      </trkpt>
      <trkpt lat="47.82016" lon="-2.43346">
        <ele>69.4</ele>
        <time>2025-02-11T10:17:04Z</time>
      </trkpt>
      <trkpt lat="47.82016" lon="-2.43347">
        <ele>69.5</ele>
        <time>2025-02-11T10:17:05Z</time>
      </trkpt>
      <trkpt lat="47.82016" lon="-2.43348">
        <ele>69.5</ele>
        <time>2025-02-11T10:17:06Z</time>
      </trkpt>
      <trkpt lat="47.82015" lon="-2.4335">
        <ele>69.6</ele>
        <time>2025-02-11T10:17:07Z</time>
      </trkpt>
      <trkpt lat="47.82015" lon="-2.43351">
        <ele>69.6</ele>
        <time>2025-02-11T10:17:08Z</time>
      </trkpt>
      <trkpt lat="47.82015" lon="-2.43353">
        <ele>69.7</ele>
        <time>2025-02-11T10:17:09Z</time>
      </trkpt>
      <trkpt lat="47.82015" lon="-2.43354">
        <ele>69.7</ele>
        <time>2025-02-11T10:17:10Z</time>
      </trkpt>
      <trkpt lat="47.82015" lon="-2.43356">
        <ele>69.8</ele>
        <time>2025-02-11T10:17:11Z</time>
      </trkpt>
      <trkpt lat="47.82015" lon="-2.43358">
        <ele>69.9</ele>
        <time>2025-02-11T10:17:12Z</time>
      </trkpt>
      <trkpt lat="47.82015" lon="-2.4336">
        <ele>70</ele>
        <time>2025-02-11T10:17:13Z</time>
      </trkpt>
      <trkpt lat="47.82014" lon="-2.43361">
        <ele>70</ele>
        <time>2025-02-11T10:17:14Z</time>
      </trkpt>
      <trkpt lat="47.82014" lon="-2.43363">
        <ele>70</ele>
        <time>2025-02-11T10:17:15Z</time>
      </trkpt>
      <trkpt lat="47.82014" lon="-2.43364">
        <ele>70.1</ele>
        <time>2025-02-11T10:17:16Z</time>
      </trkpt>
      <trkpt lat="47.82014" lon="-2.43366">
        <ele>70.1</ele>
        <time>2025-02-11T10:17:17Z</time>
      </trkpt>
      <trkpt lat="47.82014" lon="-2.43368">
        <ele>70.1</ele>
        <time>2025-02-11T10:17:18Z</time>
      </trkpt>
      <trkpt lat="47.82014" lon="-2.43369">
        <ele>70.2</ele>
        <time>2025-02-11T10:17:19Z</time>
      </trkpt>
      <trkpt lat="47.82014" lon="-2.43371">
        <ele>70.2</ele>
        <time>2025-02-11T10:17:20Z</time>
      </trkpt>
      <trkpt lat="47.82014" lon="-2.43372">
        <ele>70.2</ele>
        <time>2025-02-11T10:17:21Z</time>
      </trkpt>
      <trkpt lat="47.82014" lon="-2.43374">
        <ele>70.2</ele>
        <time>2025-02-11T10:17:22Z</time>
      </trkpt>
      <trkpt lat="47.82014" lon="-2.43375">
        <ele>70.3</ele>
        <time>2025-02-11T10:17:23Z</time>
      </trkpt>
      <trkpt lat="47.82014" lon="-2.43377">
        <ele>70.3</ele>
        <time>2025-02-11T10:17:24Z</time>
      </trkpt>
      <trkpt lat="47.82014" lon="-2.43378">
        <ele>70.3</ele>
        <time>2025-02-11T10:17:25Z</time>
      </trkpt>
      <trkpt lat="47.82015" lon="-2.43379">
        <ele>70.3</ele>
        <time>2025-02-11T10:17:26Z</time>
      </trkpt>
      <trkpt lat="47.82015" lon="-2.43381">
        <ele>70.4</ele>
        <time>2025-02-11T10:17:27Z</time>
      </trkpt>
      <trkpt lat="47.82015" lon="-2.43383">
        <ele>70.4</ele>
        <time>2025-02-11T10:17:28Z</time>
      </trkpt>
      <trkpt lat="47.82014" lon="-2.43384">
        <ele>70.4</ele>
        <time>2025-02-11T10:17:29Z</time>
      </trkpt>
      <trkpt lat="47.82014" lon="-2.43386">
        <ele>70.4</ele>
        <time>2025-02-11T10:17:30Z</time>
      </trkpt>
      <trkpt lat="47.82014" lon="-2.43387">
        <ele>70.5</ele>
        <time>2025-02-11T10:17:31Z</time>
      </trkpt>
      <trkpt lat="47.82013" lon="-2.43389">
        <ele>70.5</ele>
        <time>2025-02-11T10:17:32Z</time>
      </trkpt>
      <trkpt lat="47.82014" lon="-2.4339">
        <ele>70.6</ele>
        <time>2025-02-11T10:17:33Z</time>
      </trkpt>
      <trkpt lat="47.82015" lon="-2.43392">
        <ele>70.7</ele>
        <time>2025-02-11T10:17:34Z</time>
      </trkpt>
      <trkpt lat="47.82015" lon="-2.43393">
        <ele>70.8</ele>
        <time>2025-02-11T10:17:35Z</time>
      </trkpt>
      <trkpt lat="47.82016" lon="-2.43394">
        <ele>70.9</ele>
        <time>2025-02-11T10:17:36Z</time>
      </trkpt>
      <trkpt lat="47.82016" lon="-2.43396">
        <ele>70.9</ele>
        <time>2025-02-11T10:17:37Z</time>
      </trkpt>
      <trkpt lat="47.82015" lon="-2.43397">
        <ele>71</ele>
        <time>2025-02-11T10:17:38Z</time>
      </trkpt>
      <trkpt lat="47.82015" lon="-2.43399">
        <ele>71.1</ele>
        <time>2025-02-11T10:17:39Z</time>
      </trkpt>
      <trkpt lat="47.82014" lon="-2.434">
        <ele>71.1</ele>
        <time>2025-02-11T10:17:40Z</time>
      </trkpt>
      <trkpt lat="47.82014" lon="-2.43402">
        <ele>71.2</ele>
        <time>2025-02-11T10:17:41Z</time>
      </trkpt>
      <trkpt lat="47.82014" lon="-2.43403">
        <ele>71.3</ele>
        <time>2025-02-11T10:17:42Z</time>
      </trkpt>
      <trkpt lat="47.82014" lon="-2.43405">
        <ele>71.4</ele>
        <time>2025-02-11T10:17:43Z</time>
      </trkpt>
      <trkpt lat="47.82013" lon="-2.43406">
        <ele>71.4</ele>
        <time>2025-02-11T10:17:44Z</time>
      </trkpt>
      <trkpt lat="47.82013" lon="-2.43408">
        <ele>71.4</ele>
        <time>2025-02-11T10:17:45Z</time>
      </trkpt>
      <trkpt lat="47.82012" lon="-2.43409">
        <ele>71.5</ele>
        <time>2025-02-11T10:17:46Z</time>
      </trkpt>
      <trkpt lat="47.82012" lon="-2.43411">
        <ele>71.6</ele>
        <time>2025-02-11T10:17:47Z</time>
      </trkpt>
      <trkpt lat="47.82012" lon="-2.43413">
        <ele>71.6</ele>
        <time>2025-02-11T10:17:48Z</time>
      </trkpt>
      <trkpt lat="47.82012" lon="-2.43414">
        <ele>71.7</ele>
        <time>2025-02-11T10:17:49Z</time>
      </trkpt>
      <trkpt lat="47.82011" lon="-2.43416">
        <ele>71.7</ele>
        <time>2025-02-11T10:17:50Z</time>
      </trkpt>
      <trkpt lat="47.82011" lon="-2.43417">
        <ele>71.8</ele>
        <time>2025-02-11T10:17:51Z</time>
      </trkpt>
      <trkpt lat="47.8201" lon="-2.43419">
        <ele>71.9</ele>
        <time>2025-02-11T10:17:52Z</time>
      </trkpt>
      <trkpt lat="47.8201" lon="-2.4342">
        <ele>72</ele>
        <time>2025-02-11T10:17:53Z</time>
      </trkpt>
      <trkpt lat="47.8201" lon="-2.43422">
        <ele>72.1</ele>
        <time>2025-02-11T10:17:54Z</time>
      </trkpt>
      <trkpt lat="47.82009" lon="-2.43423">
        <ele>72.1</ele>
        <time>2025-02-11T10:17:55Z</time>
      </trkpt>
      <trkpt lat="47.82009" lon="-2.43425">
        <ele>72.2</ele>
        <time>2025-02-11T10:17:56Z</time>
      </trkpt>
      <trkpt lat="47.82008" lon="-2.43426">
        <ele>72.2</ele>
        <time>2025-02-11T10:17:57Z</time>
      </trkpt>
      <trkpt lat="47.82008" lon="-2.43428">
        <ele>72.3</ele>
        <time>2025-02-11T10:17:58Z</time>
      </trkpt>
      <trkpt lat="47.82008" lon="-2.4343">
        <ele>72.4</ele>
        <time>2025-02-11T10:17:59Z</time>
      </trkpt>
      <trkpt lat="47.82008" lon="-2.43432">
        <ele>72.5</ele>
        <time>2025-02-11T10:18:00Z</time>
      </trkpt>
      <trkpt lat="47.82007" lon="-2.43434">
        <ele>72.6</ele>
        <time>2025-02-11T10:18:01Z</time>
      </trkpt>
      <trkpt lat="47.82007" lon="-2.43435">
        <ele>72.6</ele>
        <time>2025-02-11T10:18:02Z</time>
      </trkpt>
      <trkpt lat="47.82007" lon="-2.43435">
        <ele>72.6</ele>
        <time>2025-02-11T10:18:03Z</time>
      </trkpt>
      <trkpt lat="47.82007" lon="-2.43437">
        <ele>72.7</ele>
        <time>2025-02-11T10:18:04Z</time>
      </trkpt>
      <trkpt lat="47.82007" lon="-2.43439">
        <ele>72.8</ele>
        <time>2025-02-11T10:18:05Z</time>
      </trkpt>
      <trkpt lat="47.82007" lon="-2.43441">
        <ele>73</ele>
        <time>2025-02-11T10:18:06Z</time>
      </trkpt>
      <trkpt lat="47.82007" lon="-2.43443">
        <ele>73.1</ele>
        <time>2025-02-11T10:18:07Z</time>
      </trkpt>
      <trkpt lat="47.82007" lon="-2.43444">
        <ele>73.3</ele>
        <time>2025-02-11T10:18:08Z</time>
      </trkpt>
      <trkpt lat="47.82007" lon="-2.43446">
        <ele>73.3</ele>
        <time>2025-02-11T10:18:09Z</time>
      </trkpt>
      <trkpt lat="47.82007" lon="-2.43447">
        <ele>73.4</ele>
        <time>2025-02-11T10:18:10Z</time>
      </trkpt>
      <trkpt lat="47.82007" lon="-2.43448">
        <ele>73.4</ele>
        <time>2025-02-11T10:18:11Z</time>
      </trkpt>
      <trkpt lat="47.82007" lon="-2.4345">
        <ele>73.5</ele>
        <time>2025-02-11T10:18:12Z</time>
      </trkpt>
      <trkpt lat="47.82007" lon="-2.43451">
        <ele>73.6</ele>
        <time>2025-02-11T10:18:13Z</time>
      </trkpt>
      <trkpt lat="47.82007" lon="-2.43453">
        <ele>73.7</ele>
        <time>2025-02-11T10:18:14Z</time>
      </trkpt>
      <trkpt lat="47.82006" lon="-2.43456">
        <ele>73.7</ele>
        <time>2025-02-11T10:18:15Z</time>
      </trkpt>
      <trkpt lat="47.82005" lon="-2.43458">
        <ele>73.7</ele>
        <time>2025-02-11T10:18:16Z</time>
      </trkpt>
      <trkpt lat="47.82005" lon="-2.4346">
        <ele>73.7</ele>
        <time>2025-02-11T10:18:17Z</time>
      </trkpt>
      <trkpt lat="47.82004" lon="-2.43462">
        <ele>73.8</ele>
        <time>2025-02-11T10:18:18Z</time>
      </trkpt>
      <trkpt lat="47.82004" lon="-2.43464">
        <ele>73.9</ele>
        <time>2025-02-11T10:18:19Z</time>
      </trkpt>
      <trkpt lat="47.82004" lon="-2.43465">
        <ele>74</ele>
        <time>2025-02-11T10:18:20Z</time>
      </trkpt>
      <trkpt lat="47.82004" lon="-2.43467">
        <ele>74.1</ele>
        <time>2025-02-11T10:18:21Z</time>
      </trkpt>
      <trkpt lat="47.82003" lon="-2.43469">
        <ele>74.1</ele>
        <time>2025-02-11T10:18:22Z</time>
      </trkpt>
      <trkpt lat="47.82002" lon="-2.4347">
        <ele>74.1</ele>
        <time>2025-02-11T10:18:23Z</time>
      </trkpt>
      <trkpt lat="47.82002" lon="-2.43472">
        <ele>74.1</ele>
        <time>2025-02-11T10:18:24Z</time>
      </trkpt>
      <trkpt lat="47.82001" lon="-2.43473">
        <ele>74.1</ele>
        <time>2025-02-11T10:18:25Z</time>
      </trkpt>
      <trkpt lat="47.82001" lon="-2.43475">
        <ele>74</ele>
        <time>2025-02-11T10:18:26Z</time>
      </trkpt>
      <trkpt lat="47.82001" lon="-2.43477">
        <ele>73.9</ele>
        <time>2025-02-11T10:18:27Z</time>
      </trkpt>
      <trkpt lat="47.82003" lon="-2.43479">
        <ele>74</ele>
        <time>2025-02-11T10:18:28Z</time>
      </trkpt>
      <trkpt lat="47.82004" lon="-2.43481">
        <ele>74</ele>
        <time>2025-02-11T10:18:29Z</time>
      </trkpt>
      <trkpt lat="47.82005" lon="-2.43483">
        <ele>74</ele>
        <time>2025-02-11T10:18:30Z</time>
      </trkpt>
      <trkpt lat="47.82005" lon="-2.43485">
        <ele>73.9</ele>
        <time>2025-02-11T10:18:31Z</time>
      </trkpt>
      <trkpt lat="47.82006" lon="-2.43487">
        <ele>73.9</ele>
        <time>2025-02-11T10:18:32Z</time>
      </trkpt>
      <trkpt lat="47.82006" lon="-2.43489">
        <ele>73.8</ele>
        <time>2025-02-11T10:18:33Z</time>
      </trkpt>
      <trkpt lat="47.82006" lon="-2.4349">
        <ele>73.7</ele>
        <time>2025-02-11T10:18:34Z</time>
      </trkpt>
      <trkpt lat="47.82006" lon="-2.43492">
        <ele>73.6</ele>
        <time>2025-02-11T10:18:35Z</time>
      </trkpt>
      <trkpt lat="47.82006" lon="-2.43493">
        <ele>73.5</ele>
        <time>2025-02-11T10:18:36Z</time>
      </trkpt>
      <trkpt lat="47.82006" lon="-2.43495">
        <ele>73.5</ele>
        <time>2025-02-11T10:18:37Z</time>
      </trkpt>
      <trkpt lat="47.82006" lon="-2.43497">
        <ele>73.4</ele>
        <time>2025-02-11T10:18:38Z</time>
      </trkpt>
      <trkpt lat="47.82005" lon="-2.43499">
        <ele>73.2</ele>
        <time>2025-02-11T10:18:39Z</time>
      </trkpt>
      <trkpt lat="47.82004" lon="-2.43502">
        <ele>73.1</ele>
        <time>2025-02-11T10:18:40Z</time>
      </trkpt>
      <trkpt lat="47.82004" lon="-2.43503">
        <ele>73.1</ele>
        <time>2025-02-11T10:18:41Z</time>
      </trkpt>
      <trkpt lat="47.82003" lon="-2.43505">
        <ele>73.1</ele>
        <time>2025-02-11T10:18:42Z</time>
      </trkpt>
      <trkpt lat="47.82002" lon="-2.43508">
        <ele>73</ele>
        <time>2025-02-11T10:18:43Z</time>
      </trkpt>
      <trkpt lat="47.82002" lon="-2.4351">
        <ele>73</ele>
        <time>2025-02-11T10:18:44Z</time>
      </trkpt>
      <trkpt lat="47.82001" lon="-2.43512">
        <ele>73</ele>
        <time>2025-02-11T10:18:45Z</time>
      </trkpt>
      <trkpt lat="47.82001" lon="-2.43514">
        <ele>73</ele>
        <time>2025-02-11T10:18:46Z</time>
      </trkpt>
      <trkpt lat="47.82" lon="-2.43516">
        <ele>73</ele>
        <time>2025-02-11T10:18:47Z</time>
      </trkpt>
      <trkpt lat="47.81999" lon="-2.43518">
        <ele>73.1</ele>
        <time>2025-02-11T10:18:48Z</time>
      </trkpt>
      <trkpt lat="47.81999" lon="-2.43519">
        <ele>73.1</ele>
        <time>2025-02-11T10:18:49Z</time>
      </trkpt>
      <trkpt lat="47.81999" lon="-2.43521">
        <ele>73.1</ele>
        <time>2025-02-11T10:18:50Z</time>
      </trkpt>
      <trkpt lat="47.81998" lon="-2.43523">
        <ele>73.2</ele>
        <time>2025-02-11T10:18:51Z</time>
      </trkpt>
      <trkpt lat="47.81998" lon="-2.43524">
        <ele>73.2</ele>
        <time>2025-02-11T10:18:52Z</time>
      </trkpt>
      <trkpt lat="47.81997" lon="-2.43526">
        <ele>73.3</ele>
        <time>2025-02-11T10:18:53Z</time>
      </trkpt>
      <trkpt lat="47.81996" lon="-2.43528">
        <ele>73.3</ele>
        <time>2025-02-11T10:18:54Z</time>
      </trkpt>
      <trkpt lat="47.81995" lon="-2.43529">
        <ele>73.3</ele>
        <time>2025-02-11T10:18:55Z</time>
      </trkpt>
      <trkpt lat="47.81995" lon="-2.43531">
        <ele>73.4</ele>
        <time>2025-02-11T10:18:56Z</time>
      </trkpt>
      <trkpt lat="47.81994" lon="-2.43532">
        <ele>73.4</ele>
        <time>2025-02-11T10:18:57Z</time>
      </trkpt>
      <trkpt lat="47.81993" lon="-2.43534">
        <ele>73.5</ele>
        <time>2025-02-11T10:18:58Z</time>
      </trkpt>
      <trkpt lat="47.81992" lon="-2.43535">
        <ele>73.5</ele>
        <time>2025-02-11T10:18:59Z</time>
      </trkpt>
      <trkpt lat="47.81992" lon="-2.43536">
        <ele>73.5</ele>
        <time>2025-02-11T10:19:00Z</time>
      </trkpt>
      <trkpt lat="47.81993" lon="-2.43537">
        <ele>73.4</ele>
        <time>2025-02-11T10:19:01Z</time>
      </trkpt>
      <trkpt lat="47.81994" lon="-2.43538">
        <ele>73.4</ele>
        <time>2025-02-11T10:19:02Z</time>
      </trkpt>
      <trkpt lat="47.81994" lon="-2.43538">
        <ele>73.4</ele>
        <time>2025-02-11T10:19:03Z</time>
      </trkpt>
      <trkpt lat="47.81994" lon="-2.43538">
        <ele>73.4</ele>
        <time>2025-02-11T10:19:04Z</time>
      </trkpt>
      <trkpt lat="47.81994" lon="-2.43538">
        <ele>73.4</ele>
        <time>2025-02-11T10:19:05Z</time>
      </trkpt>
      <trkpt lat="47.81995" lon="-2.43539">
        <ele>73.3</ele>
        <time>2025-02-11T10:19:06Z</time>
      </trkpt>
      <trkpt lat="47.81995" lon="-2.4354">
        <ele>73.3</ele>
        <time>2025-02-11T10:19:07Z</time>
      </trkpt>
      <trkpt lat="47.81996" lon="-2.43541">
        <ele>73.2</ele>
        <time>2025-02-11T10:19:08Z</time>
      </trkpt>
      <trkpt lat="47.81995" lon="-2.43543">
        <ele>73.3</ele>
        <time>2025-02-11T10:19:09Z</time>
      </trkpt>
      <trkpt lat="47.81995" lon="-2.43544">
        <ele>73.3</ele>
        <time>2025-02-11T10:19:10Z</time>
      </trkpt>
      <trkpt lat="47.81994" lon="-2.43545">
        <ele>73.3</ele>
        <time>2025-02-11T10:19:11Z</time>
      </trkpt>
      <trkpt lat="47.81994" lon="-2.43546">
        <ele>73.3</ele>
        <time>2025-02-11T10:19:12Z</time>
      </trkpt>
      <trkpt lat="47.81994" lon="-2.43547">
        <ele>73.3</ele>
        <time>2025-02-11T10:19:13Z</time>
      </trkpt>
      <trkpt lat="47.81994" lon="-2.43548">
        <ele>73.3</ele>
        <time>2025-02-11T10:19:14Z</time>
      </trkpt>
      <trkpt lat="47.81994" lon="-2.43549">
        <ele>73.3</ele>
        <time>2025-02-11T10:19:15Z</time>
      </trkpt>
      <trkpt lat="47.81993" lon="-2.4355">
        <ele>73.3</ele>
        <time>2025-02-11T10:19:47Z</time>
      </trkpt>
      <trkpt lat="47.81993" lon="-2.43549">
        <ele>73.3</ele>
        <time>2025-02-11T10:19:48Z</time>
      </trkpt>
      <trkpt lat="47.81992" lon="-2.43547">
        <ele>73.4</ele>
        <time>2025-02-11T10:19:49Z</time>
      </trkpt>
      <trkpt lat="47.81991" lon="-2.43546">
        <ele>73.4</ele>
        <time>2025-02-11T10:19:50Z</time>
      </trkpt>
      <trkpt lat="47.8199" lon="-2.43545">
        <ele>73.5</ele>
        <time>2025-02-11T10:19:51Z</time>
      </trkpt>
      <trkpt lat="47.81989" lon="-2.43545">
        <ele>73.6</ele>
        <time>2025-02-11T10:19:52Z</time>
      </trkpt>
      <trkpt lat="47.81988" lon="-2.43544">
        <ele>73.6</ele>
        <time>2025-02-11T10:19:53Z</time>
      </trkpt>
      <trkpt lat="47.81987" lon="-2.43543">
        <ele>73.7</ele>
        <time>2025-02-11T10:19:54Z</time>
      </trkpt>
      <trkpt lat="47.81986" lon="-2.43543">
        <ele>73.7</ele>
        <time>2025-02-11T10:19:55Z</time>
      </trkpt>
      <trkpt lat="47.81985" lon="-2.43542">
        <ele>73.8</ele>
        <time>2025-02-11T10:19:56Z</time>
      </trkpt>
      <trkpt lat="47.81984" lon="-2.43542">
        <ele>73.9</ele>
        <time>2025-02-11T10:19:57Z</time>
      </trkpt>
      <trkpt lat="47.81983" lon="-2.43541">
        <ele>73.9</ele>
        <time>2025-02-11T10:19:58Z</time>
      </trkpt>
      <trkpt lat="47.81982" lon="-2.43541">
        <ele>74</ele>
        <time>2025-02-11T10:19:59Z</time>
      </trkpt>
      <trkpt lat="47.8198" lon="-2.43541">
        <ele>74.1</ele>
        <time>2025-02-11T10:20:00Z</time>
      </trkpt>
      <trkpt lat="47.81979" lon="-2.43542">
        <ele>74.1</ele>
        <time>2025-02-11T10:20:01Z</time>
      </trkpt>
      <trkpt lat="47.81978" lon="-2.43542">
        <ele>74.2</ele>
        <time>2025-02-11T10:20:02Z</time>
      </trkpt>
      <trkpt lat="47.81977" lon="-2.43542">
        <ele>74.2</ele>
        <time>2025-02-11T10:20:03Z</time>
      </trkpt>
      <trkpt lat="47.81976" lon="-2.43542">
        <ele>74.3</ele>
        <time>2025-02-11T10:20:04Z</time>
      </trkpt>
      <trkpt lat="47.81974" lon="-2.43542">
        <ele>74.4</ele>
        <time>2025-02-11T10:20:05Z</time>
      </trkpt>
      <trkpt lat="47.81973" lon="-2.43542">
        <ele>74.5</ele>
        <time>2025-02-11T10:20:06Z</time>
      </trkpt>
      <trkpt lat="47.81972" lon="-2.43542">
        <ele>74.6</ele>
        <time>2025-02-11T10:20:07Z</time>
      </trkpt>
      <trkpt lat="47.81971" lon="-2.43542">
        <ele>74.8</ele>
        <time>2025-02-11T10:20:08Z</time>
      </trkpt>
      <trkpt lat="47.81969" lon="-2.43543">
        <ele>74.9</ele>
        <time>2025-02-11T10:20:09Z</time>
      </trkpt>
      <trkpt lat="47.81968" lon="-2.43544">
        <ele>75.1</ele>
        <time>2025-02-11T10:20:10Z</time>
      </trkpt>
      <trkpt lat="47.81967" lon="-2.43544">
        <ele>75.3</ele>
        <time>2025-02-11T10:20:11Z</time>
      </trkpt>
      <trkpt lat="47.81966" lon="-2.43544">
        <ele>75.4</ele>
        <time>2025-02-11T10:20:12Z</time>
      </trkpt>
      <trkpt lat="47.81964" lon="-2.43545">
        <ele>75.5</ele>
        <time>2025-02-11T10:20:13Z</time>
      </trkpt>
      <trkpt lat="47.81963" lon="-2.43546">
        <ele>75.7</ele>
        <time>2025-02-11T10:20:14Z</time>
      </trkpt>
      <trkpt lat="47.81962" lon="-2.43546">
        <ele>75.9</ele>
        <time>2025-02-11T10:20:15Z</time>
      </trkpt>
      <trkpt lat="47.81961" lon="-2.43546">
        <ele>76.1</ele>
        <time>2025-02-11T10:20:16Z</time>
      </trkpt>
      <trkpt lat="47.81959" lon="-2.43545">
        <ele>76.3</ele>
        <time>2025-02-11T10:20:17Z</time>
      </trkpt>
      <trkpt lat="47.81958" lon="-2.43545">
        <ele>76.5</ele>
        <time>2025-02-11T10:20:18Z</time>
      </trkpt>
      <trkpt lat="47.81957" lon="-2.43545">
        <ele>76.7</ele>
        <time>2025-02-11T10:20:19Z</time>
      </trkpt>
      <trkpt lat="47.81955" lon="-2.43546">
        <ele>76.9</ele>
        <time>2025-02-11T10:20:20Z</time>
      </trkpt>
      <trkpt lat="47.81954" lon="-2.43547">
        <ele>76.9</ele>
        <time>2025-02-11T10:20:21Z</time>
      </trkpt>
      <trkpt lat="47.81953" lon="-2.43547">
        <ele>77</ele>
        <time>2025-02-11T10:20:22Z</time>
      </trkpt>
      <trkpt lat="47.81952" lon="-2.43548">
        <ele>77.1</ele>
        <time>2025-02-11T10:20:23Z</time>
      </trkpt>
      <trkpt lat="47.81951" lon="-2.43549">
        <ele>77.1</ele>
        <time>2025-02-11T10:20:24Z</time>
      </trkpt>
      <trkpt lat="47.8195" lon="-2.43549">
        <ele>77.2</ele>
        <time>2025-02-11T10:20:25Z</time>
      </trkpt>
      <trkpt lat="47.81949" lon="-2.4355">
        <ele>77.2</ele>
        <time>2025-02-11T10:20:26Z</time>
      </trkpt>
      <trkpt lat="47.81948" lon="-2.4355">
        <ele>77.4</ele>
        <time>2025-02-11T10:20:27Z</time>
      </trkpt>
      <trkpt lat="47.81946" lon="-2.43551">
        <ele>77.5</ele>
        <time>2025-02-11T10:20:28Z</time>
      </trkpt>
      <trkpt lat="47.81945" lon="-2.43551">
        <ele>77.5</ele>
        <time>2025-02-11T10:20:29Z</time>
      </trkpt>
      <trkpt lat="47.81944" lon="-2.43552">
        <ele>77.6</ele>
        <time>2025-02-11T10:20:30Z</time>
      </trkpt>
      <trkpt lat="47.81943" lon="-2.43553">
        <ele>77.7</ele>
        <time>2025-02-11T10:20:31Z</time>
      </trkpt>
      <trkpt lat="47.81942" lon="-2.43552">
        <ele>78</ele>
        <time>2025-02-11T10:20:32Z</time>
      </trkpt>
      <trkpt lat="47.8194" lon="-2.43553">
        <ele>78.1</ele>
        <time>2025-02-11T10:20:33Z</time>
      </trkpt>
      <trkpt lat="47.81939" lon="-2.43554">
        <ele>78.1</ele>
        <time>2025-02-11T10:20:34Z</time>
      </trkpt>
      <trkpt lat="47.81938" lon="-2.43555">
        <ele>78.2</ele>
        <time>2025-02-11T10:20:35Z</time>
      </trkpt>
      <trkpt lat="47.81936" lon="-2.43556">
        <ele>78.4</ele>
        <time>2025-02-11T10:20:36Z</time>
      </trkpt>
      <trkpt lat="47.81935" lon="-2.43557">
        <ele>78.6</ele>
        <time>2025-02-11T10:20:37Z</time>
      </trkpt>
      <trkpt lat="47.81933" lon="-2.43558">
        <ele>78.7</ele>
        <time>2025-02-11T10:20:38Z</time>
      </trkpt>
      <trkpt lat="47.81932" lon="-2.4356">
        <ele>78.8</ele>
        <time>2025-02-11T10:20:39Z</time>
      </trkpt>
      <trkpt lat="47.8193" lon="-2.43561">
        <ele>78.8</ele>
        <time>2025-02-11T10:20:40Z</time>
      </trkpt>
      <trkpt lat="47.81929" lon="-2.43563">
        <ele>78.8</ele>
        <time>2025-02-11T10:20:41Z</time>
      </trkpt>
      <trkpt lat="47.81927" lon="-2.43564">
        <ele>79</ele>
        <time>2025-02-11T10:20:42Z</time>
      </trkpt>
      <trkpt lat="47.81926" lon="-2.43565">
        <ele>79.1</ele>
        <time>2025-02-11T10:20:43Z</time>
      </trkpt>
      <trkpt lat="47.81925" lon="-2.43566">
        <ele>79.1</ele>
        <time>2025-02-11T10:20:44Z</time>
      </trkpt>
      <trkpt lat="47.81924" lon="-2.43568">
        <ele>79</ele>
        <time>2025-02-11T10:20:45Z</time>
      </trkpt>
      <trkpt lat="47.81923" lon="-2.43569">
        <ele>78.9</ele>
        <time>2025-02-11T10:20:46Z</time>
      </trkpt>
      <trkpt lat="47.81924" lon="-2.43571">
        <ele>78.7</ele>
        <time>2025-02-11T10:20:47Z</time>
      </trkpt>
      <trkpt lat="47.81923" lon="-2.43573">
        <ele>78.5</ele>
        <time>2025-02-11T10:20:48Z</time>
      </trkpt>
      <trkpt lat="47.81923" lon="-2.43573">
        <ele>78.6</ele>
        <time>2025-02-11T10:20:49Z</time>
      </trkpt>
      <trkpt lat="47.81922" lon="-2.43574">
        <ele>78.5</ele>
        <time>2025-02-11T10:20:50Z</time>
      </trkpt>
      <trkpt lat="47.81921" lon="-2.43575">
        <ele>78.5</ele>
        <time>2025-02-11T10:20:51Z</time>
      </trkpt>
      <trkpt lat="47.8192" lon="-2.43576">
        <ele>78.5</ele>
        <time>2025-02-11T10:20:52Z</time>
      </trkpt>
      <trkpt lat="47.8192" lon="-2.43577">
        <ele>78.5</ele>
        <time>2025-02-11T10:20:53Z</time>
      </trkpt>
      <trkpt lat="47.81919" lon="-2.43578">
        <ele>78.5</ele>
        <time>2025-02-11T10:20:54Z</time>
      </trkpt>
      <trkpt lat="47.81918" lon="-2.43579">
        <ele>78.4</ele>
        <time>2025-02-11T10:20:55Z</time>
      </trkpt>
      <trkpt lat="47.81917" lon="-2.4358">
        <ele>78.5</ele>
        <time>2025-02-11T10:20:56Z</time>
      </trkpt>
      <trkpt lat="47.81917" lon="-2.43581">
        <ele>78.3</ele>
        <time>2025-02-11T10:20:57Z</time>
      </trkpt>
      <trkpt lat="47.81916" lon="-2.43583">
        <ele>78.2</ele>
        <time>2025-02-11T10:20:58Z</time>
      </trkpt>
      <trkpt lat="47.81914" lon="-2.43583">
        <ele>78.4</ele>
        <time>2025-02-11T10:20:59Z</time>
      </trkpt>
      <trkpt lat="47.81913" lon="-2.43583">
        <ele>78.7</ele>
        <time>2025-02-11T10:21:00Z</time>
      </trkpt>
      <trkpt lat="47.81912" lon="-2.43584">
        <ele>78.8</ele>
        <time>2025-02-11T10:21:01Z</time>
      </trkpt>
      <trkpt lat="47.81911" lon="-2.43585">
        <ele>78.9</ele>
        <time>2025-02-11T10:21:02Z</time>
      </trkpt>
      <trkpt lat="47.8191" lon="-2.43586">
        <ele>78.9</ele>
        <time>2025-02-11T10:21:03Z</time>
      </trkpt>
      <trkpt lat="47.81908" lon="-2.43586">
        <ele>79.2</ele>
        <time>2025-02-11T10:21:04Z</time>
      </trkpt>
      <trkpt lat="47.81907" lon="-2.43587">
        <ele>79.3</ele>
        <time>2025-02-11T10:21:05Z</time>
      </trkpt>
      <trkpt lat="47.81906" lon="-2.43587">
        <ele>79.4</ele>
        <time>2025-02-11T10:21:06Z</time>
      </trkpt>
      <trkpt lat="47.81905" lon="-2.43588">
        <ele>79.5</ele>
        <time>2025-02-11T10:21:07Z</time>
      </trkpt>
      <trkpt lat="47.81904" lon="-2.43589">
        <ele>79.6</ele>
        <time>2025-02-11T10:21:08Z</time>
      </trkpt>
      <trkpt lat="47.81902" lon="-2.4359">
        <ele>79.7</ele>
        <time>2025-02-11T10:21:09Z</time>
      </trkpt>
      <trkpt lat="47.81901" lon="-2.43591">
        <ele>79.8</ele>
        <time>2025-02-11T10:21:10Z</time>
      </trkpt>
      <trkpt lat="47.819" lon="-2.43593">
        <ele>79.7</ele>
        <time>2025-02-11T10:21:11Z</time>
      </trkpt>
      <trkpt lat="47.81899" lon="-2.43594">
        <ele>79.7</ele>
        <time>2025-02-11T10:21:12Z</time>
      </trkpt>
      <trkpt lat="47.81898" lon="-2.43595">
        <ele>79.8</ele>
        <time>2025-02-11T10:21:13Z</time>
      </trkpt>
      <trkpt lat="47.81897" lon="-2.43596">
        <ele>79.8</ele>
        <time>2025-02-11T10:21:14Z</time>
      </trkpt>
      <trkpt lat="47.81896" lon="-2.43597">
        <ele>79.8</ele>
        <time>2025-02-11T10:21:15Z</time>
      </trkpt>
      <trkpt lat="47.81895" lon="-2.43598">
        <ele>79.9</ele>
        <time>2025-02-11T10:21:16Z</time>
      </trkpt>
      <trkpt lat="47.81894" lon="-2.43598">
        <ele>80</ele>
        <time>2025-02-11T10:21:17Z</time>
      </trkpt>
      <trkpt lat="47.81894" lon="-2.43599">
        <ele>80</ele>
        <time>2025-02-11T10:21:18Z</time>
      </trkpt>
      <trkpt lat="47.81893" lon="-2.43599">
        <ele>80.1</ele>
        <time>2025-02-11T10:21:19Z</time>
      </trkpt>
      <trkpt lat="47.81892" lon="-2.436">
        <ele>80.1</ele>
        <time>2025-02-11T10:21:20Z</time>
      </trkpt>
      <trkpt lat="47.81891" lon="-2.43601">
        <ele>80.2</ele>
        <time>2025-02-11T10:21:21Z</time>
      </trkpt>
      <trkpt lat="47.8189" lon="-2.43602">
        <ele>80.2</ele>
        <time>2025-02-11T10:21:22Z</time>
      </trkpt>
      <trkpt lat="47.81889" lon="-2.43603">
        <ele>80.3</ele>
        <time>2025-02-11T10:21:23Z</time>
      </trkpt>
      <trkpt lat="47.81888" lon="-2.43603">
        <ele>80.4</ele>
        <time>2025-02-11T10:21:24Z</time>
      </trkpt>
      <trkpt lat="47.81887" lon="-2.43604">
        <ele>80.5</ele>
        <time>2025-02-11T10:21:25Z</time>
      </trkpt>
      <trkpt lat="47.81886" lon="-2.43605">
        <ele>80.4</ele>
        <time>2025-02-11T10:21:26Z</time>
      </trkpt>
      <trkpt lat="47.81885" lon="-2.43606">
        <ele>80.5</ele>
        <time>2025-02-11T10:21:27Z</time>
      </trkpt>
      <trkpt lat="47.81884" lon="-2.43607">
        <ele>80.7</ele>
        <time>2025-02-11T10:21:28Z</time>
      </trkpt>
      <trkpt lat="47.81883" lon="-2.43607">
        <ele>80.8</ele>
        <time>2025-02-11T10:21:29Z</time>
      </trkpt>
      <trkpt lat="47.81882" lon="-2.43608">
        <ele>80.8</ele>
        <time>2025-02-11T10:21:30Z</time>
      </trkpt>
      <trkpt lat="47.81881" lon="-2.4361">
        <ele>80.9</ele>
        <time>2025-02-11T10:21:31Z</time>
      </trkpt>
      <trkpt lat="47.8188" lon="-2.43611">
        <ele>80.9</ele>
        <time>2025-02-11T10:21:32Z</time>
      </trkpt>
      <trkpt lat="47.8188" lon="-2.43611">
        <ele>81</ele>
        <time>2025-02-11T10:21:33Z</time>
      </trkpt>
      <trkpt lat="47.81878" lon="-2.43612">
        <ele>81.2</ele>
        <time>2025-02-11T10:21:34Z</time>
      </trkpt>
      <trkpt lat="47.81878" lon="-2.43613">
        <ele>81.2</ele>
        <time>2025-02-11T10:21:35Z</time>
      </trkpt>
      <trkpt lat="47.81877" lon="-2.43614">
        <ele>81.4</ele>
        <time>2025-02-11T10:21:36Z</time>
      </trkpt>
      <trkpt lat="47.81876" lon="-2.43615">
        <ele>81.4</ele>
        <time>2025-02-11T10:21:37Z</time>
      </trkpt>
      <trkpt lat="47.81875" lon="-2.43615">
        <ele>81.5</ele>
        <time>2025-02-11T10:21:38Z</time>
      </trkpt>
      <trkpt lat="47.81874" lon="-2.43616">
        <ele>81.6</ele>
        <time>2025-02-11T10:21:39Z</time>
      </trkpt>
      <trkpt lat="47.81873" lon="-2.43616">
        <ele>81.8</ele>
        <time>2025-02-11T10:21:40Z</time>
      </trkpt>
      <trkpt lat="47.81872" lon="-2.43617">
        <ele>81.9</ele>
        <time>2025-02-11T10:21:41Z</time>
      </trkpt>
      <trkpt lat="47.81871" lon="-2.43618">
        <ele>82</ele>
        <time>2025-02-11T10:21:42Z</time>
      </trkpt>
      <trkpt lat="47.8187" lon="-2.43618">
        <ele>82.1</ele>
        <time>2025-02-11T10:21:43Z</time>
      </trkpt>
      <trkpt lat="47.81869" lon="-2.43619">
        <ele>82.2</ele>
        <time>2025-02-11T10:21:44Z</time>
      </trkpt>
      <trkpt lat="47.81868" lon="-2.43619">
        <ele>82.2</ele>
        <time>2025-02-11T10:21:45Z</time>
      </trkpt>
      <trkpt lat="47.81867" lon="-2.4362">
        <ele>82.4</ele>
        <time>2025-02-11T10:21:46Z</time>
      </trkpt>
      <trkpt lat="47.81866" lon="-2.4362">
        <ele>82.4</ele>
        <time>2025-02-11T10:21:47Z</time>
      </trkpt>
      <trkpt lat="47.81865" lon="-2.43621">
        <ele>82.5</ele>
        <time>2025-02-11T10:21:48Z</time>
      </trkpt>
      <trkpt lat="47.81864" lon="-2.43622">
        <ele>82.5</ele>
        <time>2025-02-11T10:21:49Z</time>
      </trkpt>
      <trkpt lat="47.81863" lon="-2.43623">
        <ele>82.5</ele>
        <time>2025-02-11T10:21:50Z</time>
      </trkpt>
      <trkpt lat="47.81862" lon="-2.43624">
        <ele>82.5</ele>
        <time>2025-02-11T10:21:51Z</time>
      </trkpt>
      <trkpt lat="47.81861" lon="-2.43625">
        <ele>82.4</ele>
        <time>2025-02-11T10:21:52Z</time>
      </trkpt>
      <trkpt lat="47.8186" lon="-2.43626">
        <ele>82.4</ele>
        <time>2025-02-11T10:21:53Z</time>
      </trkpt>
      <trkpt lat="47.8186" lon="-2.43627">
        <ele>82.3</ele>
        <time>2025-02-11T10:21:54Z</time>
      </trkpt>
      <trkpt lat="47.81859" lon="-2.43628">
        <ele>82.4</ele>
        <time>2025-02-11T10:21:55Z</time>
      </trkpt>
      <trkpt lat="47.81858" lon="-2.43629">
        <ele>82.4</ele>
        <time>2025-02-11T10:21:56Z</time>
      </trkpt>
      <trkpt lat="47.81857" lon="-2.4363">
        <ele>82.3</ele>
        <time>2025-02-11T10:21:57Z</time>
      </trkpt>
      <trkpt lat="47.81856" lon="-2.43631">
        <ele>82.3</ele>
        <time>2025-02-11T10:21:58Z</time>
      </trkpt>
      <trkpt lat="47.81855" lon="-2.43632">
        <ele>82.4</ele>
        <time>2025-02-11T10:21:59Z</time>
      </trkpt>
      <trkpt lat="47.81854" lon="-2.43633">
        <ele>82.4</ele>
        <time>2025-02-11T10:22:00Z</time>
      </trkpt>
      <trkpt lat="47.81853" lon="-2.43634">
        <ele>82.5</ele>
        <time>2025-02-11T10:22:01Z</time>
      </trkpt>
      <trkpt lat="47.81852" lon="-2.43635">
        <ele>82.6</ele>
        <time>2025-02-11T10:22:02Z</time>
      </trkpt>
      <trkpt lat="47.81851" lon="-2.43636">
        <ele>82.6</ele>
        <time>2025-02-11T10:22:03Z</time>
      </trkpt>
      <trkpt lat="47.8185" lon="-2.43636">
        <ele>82.8</ele>
        <time>2025-02-11T10:22:04Z</time>
      </trkpt>
      <trkpt lat="47.81849" lon="-2.43636">
        <ele>83.1</ele>
        <time>2025-02-11T10:22:05Z</time>
      </trkpt>
      <trkpt lat="47.81847" lon="-2.43637">
        <ele>83.3</ele>
        <time>2025-02-11T10:22:06Z</time>
      </trkpt>
      <trkpt lat="47.81846" lon="-2.43638">
        <ele>83.4</ele>
        <time>2025-02-11T10:22:07Z</time>
      </trkpt>
      <trkpt lat="47.81845" lon="-2.43639">
        <ele>83.5</ele>
        <time>2025-02-11T10:22:08Z</time>
      </trkpt>
      <trkpt lat="47.81844" lon="-2.4364">
        <ele>83.5</ele>
        <time>2025-02-11T10:22:09Z</time>
      </trkpt>
      <trkpt lat="47.81844" lon="-2.43641">
        <ele>83.5</ele>
        <time>2025-02-11T10:22:10Z</time>
      </trkpt>
      <trkpt lat="47.81842" lon="-2.43643">
        <ele>83.6</ele>
        <time>2025-02-11T10:22:11Z</time>
      </trkpt>
      <trkpt lat="47.81841" lon="-2.43643">
        <ele>83.8</ele>
        <time>2025-02-11T10:22:12Z</time>
      </trkpt>
      <trkpt lat="47.8184" lon="-2.43644">
        <ele>84</ele>
        <time>2025-02-11T10:22:13Z</time>
      </trkpt>
      <trkpt lat="47.81839" lon="-2.43644">
        <ele>84.1</ele>
        <time>2025-02-11T10:22:14Z</time>
      </trkpt>
      <trkpt lat="47.81838" lon="-2.43645">
        <ele>84.2</ele>
        <time>2025-02-11T10:22:15Z</time>
      </trkpt>
      <trkpt lat="47.81837" lon="-2.43645">
        <ele>84.4</ele>
        <time>2025-02-11T10:22:16Z</time>
      </trkpt>
      <trkpt lat="47.81836" lon="-2.43646">
        <ele>84.6</ele>
        <time>2025-02-11T10:22:17Z</time>
      </trkpt>
      <trkpt lat="47.81835" lon="-2.43647">
        <ele>84.7</ele>
        <time>2025-02-11T10:22:18Z</time>
      </trkpt>
      <trkpt lat="47.81834" lon="-2.43648">
        <ele>84.7</ele>
        <time>2025-02-11T10:22:19Z</time>
      </trkpt>
      <trkpt lat="47.81832" lon="-2.43648">
        <ele>84.9</ele>
        <time>2025-02-11T10:22:20Z</time>
      </trkpt>
      <trkpt lat="47.81831" lon="-2.43649">
        <ele>84.9</ele>
        <time>2025-02-11T10:22:21Z</time>
      </trkpt>
      <trkpt lat="47.8183" lon="-2.43649">
        <ele>85.1</ele>
        <time>2025-02-11T10:22:22Z</time>
      </trkpt>
      <trkpt lat="47.81829" lon="-2.4365">
        <ele>85</ele>
        <time>2025-02-11T10:22:23Z</time>
      </trkpt>
      <trkpt lat="47.81828" lon="-2.43651">
        <ele>85</ele>
        <time>2025-02-11T10:22:24Z</time>
      </trkpt>
      <trkpt lat="47.81827" lon="-2.43652">
        <ele>85.1</ele>
        <time>2025-02-11T10:22:25Z</time>
      </trkpt>
      <trkpt lat="47.81826" lon="-2.43653">
        <ele>85.2</ele>
        <time>2025-02-11T10:22:26Z</time>
      </trkpt>
      <trkpt lat="47.81825" lon="-2.43654">
        <ele>85.3</ele>
        <time>2025-02-11T10:22:27Z</time>
      </trkpt>
      <trkpt lat="47.81824" lon="-2.43655">
        <ele>85.3</ele>
        <time>2025-02-11T10:22:28Z</time>
      </trkpt>
      <trkpt lat="47.81823" lon="-2.43656">
        <ele>85.4</ele>
        <time>2025-02-11T10:22:29Z</time>
      </trkpt>
      <trkpt lat="47.81822" lon="-2.43657">
        <ele>85.5</ele>
        <time>2025-02-11T10:22:30Z</time>
      </trkpt>
      <trkpt lat="47.81821" lon="-2.43658">
        <ele>85.6</ele>
        <time>2025-02-11T10:22:31Z</time>
      </trkpt>
      <trkpt lat="47.8182" lon="-2.43659">
        <ele>85.6</ele>
        <time>2025-02-11T10:22:32Z</time>
      </trkpt>
      <trkpt lat="47.81819" lon="-2.4366">
        <ele>85.7</ele>
        <time>2025-02-11T10:22:33Z</time>
      </trkpt>
      <trkpt lat="47.81818" lon="-2.43661">
        <ele>85.8</ele>
        <time>2025-02-11T10:22:34Z</time>
      </trkpt>
      <trkpt lat="47.81817" lon="-2.43662">
        <ele>86</ele>
        <time>2025-02-11T10:22:35Z</time>
      </trkpt>
      <trkpt lat="47.81815" lon="-2.43663">
        <ele>86.1</ele>
        <time>2025-02-11T10:22:36Z</time>
      </trkpt>
      <trkpt lat="47.81814" lon="-2.43664">
        <ele>86.3</ele>
        <time>2025-02-11T10:22:37Z</time>
      </trkpt>
      <trkpt lat="47.81814" lon="-2.43665">
        <ele>86.4</ele>
        <time>2025-02-11T10:22:38Z</time>
      </trkpt>
      <trkpt lat="47.81812" lon="-2.43666">
        <ele>86.5</ele>
        <time>2025-02-11T10:22:39Z</time>
      </trkpt>
      <trkpt lat="47.81812" lon="-2.43667">
        <ele>86.6</ele>
        <time>2025-02-11T10:22:40Z</time>
      </trkpt>
      <trkpt lat="47.8181" lon="-2.43668">
        <ele>86.8</ele>
        <time>2025-02-11T10:22:41Z</time>
      </trkpt>
      <trkpt lat="47.81809" lon="-2.43668">
        <ele>87</ele>
        <time>2025-02-11T10:22:42Z</time>
      </trkpt>
      <trkpt lat="47.81808" lon="-2.43669">
        <ele>87.2</ele>
        <time>2025-02-11T10:22:43Z</time>
      </trkpt>
      <trkpt lat="47.81807" lon="-2.4367">
        <ele>87.2</ele>
        <time>2025-02-11T10:22:44Z</time>
      </trkpt>
      <trkpt lat="47.81806" lon="-2.43671">
        <ele>87.4</ele>
        <time>2025-02-11T10:22:45Z</time>
      </trkpt>
      <trkpt lat="47.81805" lon="-2.43672">
        <ele>87.5</ele>
        <time>2025-02-11T10:22:46Z</time>
      </trkpt>
      <trkpt lat="47.81804" lon="-2.43673">
        <ele>87.5</ele>
        <time>2025-02-11T10:22:47Z</time>
      </trkpt>
      <trkpt lat="47.81803" lon="-2.43674">
        <ele>87.6</ele>
        <time>2025-02-11T10:22:48Z</time>
      </trkpt>
      <trkpt lat="47.81802" lon="-2.43675">
        <ele>87.6</ele>
        <time>2025-02-11T10:22:49Z</time>
      </trkpt>
      <trkpt lat="47.818" lon="-2.43675">
        <ele>87.8</ele>
        <time>2025-02-11T10:22:50Z</time>
      </trkpt>
      <trkpt lat="47.81799" lon="-2.43676">
        <ele>87.8</ele>
        <time>2025-02-11T10:22:51Z</time>
      </trkpt>
      <trkpt lat="47.81798" lon="-2.43677">
        <ele>87.8</ele>
        <time>2025-02-11T10:22:52Z</time>
      </trkpt>
      <trkpt lat="47.81797" lon="-2.43678">
        <ele>87.8</ele>
        <time>2025-02-11T10:22:53Z</time>
      </trkpt>
      <trkpt lat="47.81796" lon="-2.43679">
        <ele>87.8</ele>
        <time>2025-02-11T10:22:54Z</time>
      </trkpt>
      <trkpt lat="47.81795" lon="-2.4368">
        <ele>87.8</ele>
        <time>2025-02-11T10:22:55Z</time>
      </trkpt>
      <trkpt lat="47.81794" lon="-2.43681">
        <ele>87.9</ele>
        <time>2025-02-11T10:22:56Z</time>
      </trkpt>
      <trkpt lat="47.81793" lon="-2.43682">
        <ele>88</ele>
        <time>2025-02-11T10:22:57Z</time>
      </trkpt>
      <trkpt lat="47.81792" lon="-2.43682">
        <ele>88.1</ele>
        <time>2025-02-11T10:22:58Z</time>
      </trkpt>
      <trkpt lat="47.81791" lon="-2.43683">
        <ele>88.2</ele>
        <time>2025-02-11T10:22:59Z</time>
      </trkpt>
      <trkpt lat="47.8179" lon="-2.43684">
        <ele>88.2</ele>
        <time>2025-02-11T10:23:00Z</time>
      </trkpt>
      <trkpt lat="47.81788" lon="-2.43684">
        <ele>88.4</ele>
        <time>2025-02-11T10:23:01Z</time>
      </trkpt>
      <trkpt lat="47.81787" lon="-2.43685">
        <ele>88.4</ele>
        <time>2025-02-11T10:23:02Z</time>
      </trkpt>
      <trkpt lat="47.81787" lon="-2.43686">
        <ele>88.4</ele>
        <time>2025-02-11T10:23:03Z</time>
      </trkpt>
      <trkpt lat="47.81785" lon="-2.43687">
        <ele>88.5</ele>
        <time>2025-02-11T10:23:04Z</time>
      </trkpt>
      <trkpt lat="47.81784" lon="-2.43688">
        <ele>88.6</ele>
        <time>2025-02-11T10:23:05Z</time>
      </trkpt>
      <trkpt lat="47.81783" lon="-2.43688">
        <ele>88.7</ele>
        <time>2025-02-11T10:23:06Z</time>
      </trkpt>
      <trkpt lat="47.81782" lon="-2.43689">
        <ele>88.8</ele>
        <time>2025-02-11T10:23:07Z</time>
      </trkpt>
      <trkpt lat="47.81782" lon="-2.43689">
        <ele>88.8</ele>
        <time>2025-02-11T10:23:08Z</time>
      </trkpt>
      <trkpt lat="47.81782" lon="-2.43691">
        <ele>88.8</ele>
        <time>2025-02-11T10:23:09Z</time>
      </trkpt>
      <trkpt lat="47.81781" lon="-2.43692">
        <ele>88.7</ele>
        <time>2025-02-11T10:23:10Z</time>
      </trkpt>
      <trkpt lat="47.81782" lon="-2.43693">
        <ele>88.5</ele>
        <time>2025-02-11T10:23:11Z</time>
      </trkpt>
      <trkpt lat="47.81783" lon="-2.43693">
        <ele>88.4</ele>
        <time>2025-02-11T10:23:12Z</time>
      </trkpt>
      <trkpt lat="47.81782" lon="-2.43693">
        <ele>88.5</ele>
        <time>2025-02-11T10:23:13Z</time>
      </trkpt>
      <trkpt lat="47.81781" lon="-2.43695">
        <ele>88.5</ele>
        <time>2025-02-11T10:23:14Z</time>
      </trkpt>
      <trkpt lat="47.8178" lon="-2.43696">
        <ele>88.6</ele>
        <time>2025-02-11T10:23:15Z</time>
      </trkpt>
      <trkpt lat="47.81779" lon="-2.43697">
        <ele>88.7</ele>
        <time>2025-02-11T10:23:16Z</time>
      </trkpt>
      <trkpt lat="47.81778" lon="-2.43697">
        <ele>88.8</ele>
        <time>2025-02-11T10:23:17Z</time>
      </trkpt>
      <trkpt lat="47.81776" lon="-2.43697">
        <ele>89</ele>
        <time>2025-02-11T10:23:18Z</time>
      </trkpt>
      <trkpt lat="47.81775" lon="-2.43697">
        <ele>89.2</ele>
        <time>2025-02-11T10:23:19Z</time>
      </trkpt>
      <trkpt lat="47.81774" lon="-2.43697">
        <ele>89.4</ele>
        <time>2025-02-11T10:23:20Z</time>
      </trkpt>
      <trkpt lat="47.81773" lon="-2.43698">
        <ele>89.5</ele>
        <time>2025-02-11T10:23:21Z</time>
      </trkpt>
      <trkpt lat="47.81771" lon="-2.43698">
        <ele>89.6</ele>
        <time>2025-02-11T10:23:22Z</time>
      </trkpt>
      <trkpt lat="47.8177" lon="-2.43699">
        <ele>89.7</ele>
        <time>2025-02-11T10:23:23Z</time>
      </trkpt>
      <trkpt lat="47.81769" lon="-2.437">
        <ele>89.8</ele>
        <time>2025-02-11T10:23:24Z</time>
      </trkpt>
      <trkpt lat="47.81768" lon="-2.43701">
        <ele>89.9</ele>
        <time>2025-02-11T10:23:25Z</time>
      </trkpt>
      <trkpt lat="47.81767" lon="-2.43702">
        <ele>90</ele>
        <time>2025-02-11T10:23:26Z</time>
      </trkpt>
      <trkpt lat="47.81767" lon="-2.43702">
        <ele>90.1</ele>
        <time>2025-02-11T10:23:27Z</time>
      </trkpt>
      <trkpt lat="47.81766" lon="-2.43703">
        <ele>90.1</ele>
        <time>2025-02-11T10:23:28Z</time>
      </trkpt>
      <trkpt lat="47.81765" lon="-2.43703">
        <ele>90.3</ele>
        <time>2025-02-11T10:23:29Z</time>
      </trkpt>
      <trkpt lat="47.81764" lon="-2.43704">
        <ele>90.4</ele>
        <time>2025-02-11T10:23:30Z</time>
      </trkpt>
      <trkpt lat="47.81763" lon="-2.43705">
        <ele>90.4</ele>
        <time>2025-02-11T10:23:31Z</time>
      </trkpt>
      <trkpt lat="47.81762" lon="-2.43705">
        <ele>90.5</ele>
        <time>2025-02-11T10:23:32Z</time>
      </trkpt>
      <trkpt lat="47.81761" lon="-2.43705">
        <ele>90.6</ele>
        <time>2025-02-11T10:23:33Z</time>
      </trkpt>
      <trkpt lat="47.8176" lon="-2.43706">
        <ele>90.7</ele>
        <time>2025-02-11T10:23:34Z</time>
      </trkpt>
      <trkpt lat="47.81759" lon="-2.43707">
        <ele>90.8</ele>
        <time>2025-02-11T10:23:35Z</time>
      </trkpt>
      <trkpt lat="47.81758" lon="-2.43708">
        <ele>90.9</ele>
        <time>2025-02-11T10:23:36Z</time>
      </trkpt>
      <trkpt lat="47.81757" lon="-2.43708">
        <ele>91</ele>
        <time>2025-02-11T10:23:37Z</time>
      </trkpt>
      <trkpt lat="47.81756" lon="-2.43709">
        <ele>91.1</ele>
        <time>2025-02-11T10:23:38Z</time>
      </trkpt>
      <trkpt lat="47.81755" lon="-2.4371">
        <ele>91.2</ele>
        <time>2025-02-11T10:23:39Z</time>
      </trkpt>
      <trkpt lat="47.81754" lon="-2.43711">
        <ele>91.2</ele>
        <time>2025-02-11T10:23:40Z</time>
      </trkpt>
      <trkpt lat="47.81754" lon="-2.43712">
        <ele>91.2</ele>
        <time>2025-02-11T10:23:41Z</time>
      </trkpt>
      <trkpt lat="47.81753" lon="-2.43713">
        <ele>91.3</ele>
        <time>2025-02-11T10:23:42Z</time>
      </trkpt>
      <trkpt lat="47.81752" lon="-2.43714">
        <ele>91.4</ele>
        <time>2025-02-11T10:23:43Z</time>
      </trkpt>
      <trkpt lat="47.81751" lon="-2.43714">
        <ele>91.5</ele>
        <time>2025-02-11T10:23:44Z</time>
      </trkpt>
      <trkpt lat="47.8175" lon="-2.43715">
        <ele>91.5</ele>
        <time>2025-02-11T10:23:45Z</time>
      </trkpt>
      <trkpt lat="47.81749" lon="-2.43716">
        <ele>91.6</ele>
        <time>2025-02-11T10:23:46Z</time>
      </trkpt>
      <trkpt lat="47.81748" lon="-2.43717">
        <ele>91.6</ele>
        <time>2025-02-11T10:23:47Z</time>
      </trkpt>
      <trkpt lat="47.81748" lon="-2.43718">
        <ele>91.6</ele>
        <time>2025-02-11T10:23:48Z</time>
      </trkpt>
      <trkpt lat="47.81747" lon="-2.43719">
        <ele>91.6</ele>
        <time>2025-02-11T10:23:49Z</time>
      </trkpt>
      <trkpt lat="47.81746" lon="-2.4372">
        <ele>91.7</ele>
        <time>2025-02-11T10:23:50Z</time>
      </trkpt>
      <trkpt lat="47.81745" lon="-2.43721">
        <ele>91.8</ele>
        <time>2025-02-11T10:23:51Z</time>
      </trkpt>
      <trkpt lat="47.81744" lon="-2.43721">
        <ele>92</ele>
        <time>2025-02-11T10:23:52Z</time>
      </trkpt>
      <trkpt lat="47.81743" lon="-2.43721">
        <ele>92.1</ele>
        <time>2025-02-11T10:23:53Z</time>
      </trkpt>
      <trkpt lat="47.81742" lon="-2.43722">
        <ele>92.2</ele>
        <time>2025-02-11T10:23:54Z</time>
      </trkpt>
      <trkpt lat="47.81741" lon="-2.43723">
        <ele>92.3</ele>
        <time>2025-02-11T10:23:55Z</time>
      </trkpt>
      <trkpt lat="47.8174" lon="-2.43724">
        <ele>92.4</ele>
        <time>2025-02-11T10:23:56Z</time>
      </trkpt>
      <trkpt lat="47.8174" lon="-2.43725">
        <ele>92.4</ele>
        <time>2025-02-11T10:23:57Z</time>
      </trkpt>
      <trkpt lat="47.81739" lon="-2.43726">
        <ele>92.5</ele>
        <time>2025-02-11T10:23:58Z</time>
      </trkpt>
      <trkpt lat="47.81738" lon="-2.43727">
        <ele>92.6</ele>
        <time>2025-02-11T10:23:59Z</time>
      </trkpt>
      <trkpt lat="47.81738" lon="-2.43729">
        <ele>92.6</ele>
        <time>2025-02-11T10:24:00Z</time>
      </trkpt>
      <trkpt lat="47.81737" lon="-2.4373">
        <ele>92.7</ele>
        <time>2025-02-11T10:24:01Z</time>
      </trkpt>
      <trkpt lat="47.81737" lon="-2.43731">
        <ele>92.7</ele>
        <time>2025-02-11T10:24:02Z</time>
      </trkpt>
      <trkpt lat="47.81736" lon="-2.43732">
        <ele>92.8</ele>
        <time>2025-02-11T10:24:03Z</time>
      </trkpt>
      <trkpt lat="47.81736" lon="-2.43733">
        <ele>92.8</ele>
        <time>2025-02-11T10:24:04Z</time>
      </trkpt>
      <trkpt lat="47.81736" lon="-2.43733">
        <ele>92.8</ele>
        <time>2025-02-11T10:24:05Z</time>
      </trkpt>
      <trkpt lat="47.81736" lon="-2.43734">
        <ele>92.9</ele>
        <time>2025-02-11T10:24:06Z</time>
      </trkpt>
      <trkpt lat="47.81735" lon="-2.43735">
        <ele>93</ele>
        <time>2025-02-11T10:24:07Z</time>
      </trkpt>
      <trkpt lat="47.81735" lon="-2.43736">
        <ele>93</ele>
        <time>2025-02-11T10:24:08Z</time>
      </trkpt>
      <trkpt lat="47.81734" lon="-2.43737">
        <ele>93</ele>
        <time>2025-02-11T10:24:09Z</time>
      </trkpt>
      <trkpt lat="47.81734" lon="-2.43738">
        <ele>93.1</ele>
        <time>2025-02-11T10:24:10Z</time>
      </trkpt>
      <trkpt lat="47.81733" lon="-2.43739">
        <ele>93.2</ele>
        <time>2025-02-11T10:24:11Z</time>
      </trkpt>
      <trkpt lat="47.81734" lon="-2.43738">
        <ele>93.1</ele>
        <time>2025-02-11T10:24:12Z</time>
      </trkpt>
      <trkpt lat="47.81734" lon="-2.43737">
        <ele>93</ele>
        <time>2025-02-11T10:24:13Z</time>
      </trkpt>
      <trkpt lat="47.81735" lon="-2.43736">
        <ele>93</ele>
        <time>2025-02-11T10:24:14Z</time>
      </trkpt>
      <trkpt lat="47.81735" lon="-2.43736">
        <ele>93</ele>
        <time>2025-02-11T10:24:15Z</time>
      </trkpt>
      <trkpt lat="47.81735" lon="-2.43736">
        <ele>93</ele>
        <time>2025-02-11T10:24:16Z</time>
      </trkpt>
      <trkpt lat="47.81735" lon="-2.43736">
        <ele>93</ele>
        <time>2025-02-11T10:24:17Z</time>
      </trkpt>
      <trkpt lat="47.81734" lon="-2.43737">
        <ele>93</ele>
        <time>2025-02-11T10:24:18Z</time>
      </trkpt>
      <trkpt lat="47.81735" lon="-2.43739">
        <ele>92.9</ele>
        <time>2025-02-11T10:24:19Z</time>
      </trkpt>
      <trkpt lat="47.81735" lon="-2.43741">
        <ele>92.9</ele>
        <time>2025-02-11T10:24:20Z</time>
      </trkpt>
      <trkpt lat="47.81735" lon="-2.43742">
        <ele>92.9</ele>
        <time>2025-02-11T10:24:21Z</time>
      </trkpt>
      <trkpt lat="47.81735" lon="-2.43744">
        <ele>92.8</ele>
        <time>2025-02-11T10:24:22Z</time>
      </trkpt>
      <trkpt lat="47.81735" lon="-2.43745">
        <ele>92.8</ele>
        <time>2025-02-11T10:24:23Z</time>
      </trkpt>
      <trkpt lat="47.81735" lon="-2.43747">
        <ele>92.8</ele>
        <time>2025-02-11T10:24:24Z</time>
      </trkpt>
      <trkpt lat="47.81734" lon="-2.43748">
        <ele>92.8</ele>
        <time>2025-02-11T10:24:25Z</time>
      </trkpt>
      <trkpt lat="47.81734" lon="-2.4375">
        <ele>92.9</ele>
        <time>2025-02-11T10:24:26Z</time>
      </trkpt>
      <trkpt lat="47.81734" lon="-2.43752">
        <ele>92.9</ele>
        <time>2025-02-11T10:24:27Z</time>
      </trkpt>
      <trkpt lat="47.81734" lon="-2.43754">
        <ele>92.9</ele>
        <time>2025-02-11T10:24:28Z</time>
      </trkpt>
      <trkpt lat="47.81733" lon="-2.43756">
        <ele>93</ele>
        <time>2025-02-11T10:24:29Z</time>
      </trkpt>
      <trkpt lat="47.81733" lon="-2.43758">
        <ele>93</ele>
        <time>2025-02-11T10:24:30Z</time>
      </trkpt>
      <trkpt lat="47.81733" lon="-2.4376">
        <ele>93</ele>
        <time>2025-02-11T10:24:31Z</time>
      </trkpt>
      <trkpt lat="47.81733" lon="-2.43762">
        <ele>92.9</ele>
        <time>2025-02-11T10:24:32Z</time>
      </trkpt>
      <trkpt lat="47.81733" lon="-2.43764">
        <ele>92.9</ele>
        <time>2025-02-11T10:24:33Z</time>
      </trkpt>
      <trkpt lat="47.81734" lon="-2.43765">
        <ele>92.8</ele>
        <time>2025-02-11T10:24:34Z</time>
      </trkpt>
      <trkpt lat="47.81734" lon="-2.43767">
        <ele>92.8</ele>
        <time>2025-02-11T10:24:35Z</time>
      </trkpt>
      <trkpt lat="47.81734" lon="-2.43769">
        <ele>92.7</ele>
        <time>2025-02-11T10:24:36Z</time>
      </trkpt>
      <trkpt lat="47.81734" lon="-2.4377">
        <ele>92.7</ele>
        <time>2025-02-11T10:24:37Z</time>
      </trkpt>
      <trkpt lat="47.81735" lon="-2.43772">
        <ele>92.7</ele>
        <time>2025-02-11T10:24:38Z</time>
      </trkpt>
      <trkpt lat="47.81734" lon="-2.43774">
        <ele>92.7</ele>
        <time>2025-02-11T10:24:39Z</time>
      </trkpt>
      <trkpt lat="47.81735" lon="-2.43776">
        <ele>92.7</ele>
        <time>2025-02-11T10:24:40Z</time>
      </trkpt>
      <trkpt lat="47.81735" lon="-2.43778">
        <ele>92.6</ele>
        <time>2025-02-11T10:24:41Z</time>
      </trkpt>
      <trkpt lat="47.81735" lon="-2.4378">
        <ele>92.7</ele>
        <time>2025-02-11T10:24:42Z</time>
      </trkpt>
      <trkpt lat="47.81735" lon="-2.43781">
        <ele>92.7</ele>
        <time>2025-02-11T10:24:43Z</time>
      </trkpt>
      <trkpt lat="47.81734" lon="-2.43783">
        <ele>92.7</ele>
        <time>2025-02-11T10:24:44Z</time>
      </trkpt>
      <trkpt lat="47.81734" lon="-2.43785">
        <ele>92.7</ele>
        <time>2025-02-11T10:24:45Z</time>
      </trkpt>
      <trkpt lat="47.81734" lon="-2.43786">
        <ele>92.7</ele>
        <time>2025-02-11T10:24:46Z</time>
      </trkpt>
      <trkpt lat="47.81734" lon="-2.43788">
        <ele>92.8</ele>
        <time>2025-02-11T10:24:47Z</time>
      </trkpt>
      <trkpt lat="47.81734" lon="-2.43789">
        <ele>92.8</ele>
        <time>2025-02-11T10:24:48Z</time>
      </trkpt>
      <trkpt lat="47.81734" lon="-2.43791">
        <ele>92.8</ele>
        <time>2025-02-11T10:24:49Z</time>
      </trkpt>
      <trkpt lat="47.81734" lon="-2.43792">
        <ele>92.8</ele>
        <time>2025-02-11T10:24:50Z</time>
      </trkpt>
      <trkpt lat="47.81734" lon="-2.43794">
        <ele>92.8</ele>
        <time>2025-02-11T10:24:51Z</time>
      </trkpt>
      <trkpt lat="47.81733" lon="-2.43795">
        <ele>92.8</ele>
        <time>2025-02-11T10:24:52Z</time>
      </trkpt>
      <trkpt lat="47.81734" lon="-2.43797">
        <ele>92.8</ele>
        <time>2025-02-11T10:24:53Z</time>
      </trkpt>
      <trkpt lat="47.81733" lon="-2.43799">
        <ele>92.8</ele>
        <time>2025-02-11T10:24:54Z</time>
      </trkpt>
      <trkpt lat="47.81733" lon="-2.438">
        <ele>92.9</ele>
        <time>2025-02-11T10:24:55Z</time>
      </trkpt>
      <trkpt lat="47.81733" lon="-2.43802">
        <ele>92.9</ele>
        <time>2025-02-11T10:24:56Z</time>
      </trkpt>
      <trkpt lat="47.81732" lon="-2.43804">
        <ele>92.9</ele>
        <time>2025-02-11T10:24:57Z</time>
      </trkpt>
      <trkpt lat="47.81732" lon="-2.43805">
        <ele>92.9</ele>
        <time>2025-02-11T10:24:58Z</time>
      </trkpt>
      <trkpt lat="47.81733" lon="-2.43807">
        <ele>92.9</ele>
        <time>2025-02-11T10:24:59Z</time>
      </trkpt>
      <trkpt lat="47.81732" lon="-2.43809">
        <ele>93</ele>
        <time>2025-02-11T10:25:00Z</time>
      </trkpt>
      <trkpt lat="47.81733" lon="-2.43811">
        <ele>93.1</ele>
        <time>2025-02-11T10:25:01Z</time>
      </trkpt>
      <trkpt lat="47.81733" lon="-2.43813">
        <ele>93.1</ele>
        <time>2025-02-11T10:25:02Z</time>
      </trkpt>
      <trkpt lat="47.81733" lon="-2.43814">
        <ele>93.2</ele>
        <time>2025-02-11T10:25:03Z</time>
      </trkpt>
      <trkpt lat="47.81733" lon="-2.43816">
        <ele>93.2</ele>
        <time>2025-02-11T10:25:04Z</time>
      </trkpt>
      <trkpt lat="47.81733" lon="-2.43818">
        <ele>93.3</ele>
        <time>2025-02-11T10:25:05Z</time>
      </trkpt>
      <trkpt lat="47.81733" lon="-2.4382">
        <ele>93.3</ele>
        <time>2025-02-11T10:25:06Z</time>
      </trkpt>
      <trkpt lat="47.81734" lon="-2.43822">
        <ele>93.4</ele>
        <time>2025-02-11T10:25:07Z</time>
      </trkpt>
      <trkpt lat="47.81734" lon="-2.43824">
        <ele>93.4</ele>
        <time>2025-02-11T10:25:08Z</time>
      </trkpt>
      <trkpt lat="47.81734" lon="-2.43826">
        <ele>93.4</ele>
        <time>2025-02-11T10:25:09Z</time>
      </trkpt>
      <trkpt lat="47.81735" lon="-2.43828">
        <ele>93.4</ele>
        <time>2025-02-11T10:25:10Z</time>
      </trkpt>
      <trkpt lat="47.81735" lon="-2.4383">
        <ele>93.5</ele>
        <time>2025-02-11T10:25:11Z</time>
      </trkpt>
      <trkpt lat="47.81735" lon="-2.43832">
        <ele>93.6</ele>
        <time>2025-02-11T10:25:12Z</time>
      </trkpt>
      <trkpt lat="47.81734" lon="-2.43834">
        <ele>93.7</ele>
        <time>2025-02-11T10:25:13Z</time>
      </trkpt>
      <trkpt lat="47.81734" lon="-2.43836">
        <ele>93.7</ele>
        <time>2025-02-11T10:25:14Z</time>
      </trkpt>
      <trkpt lat="47.81734" lon="-2.43838">
        <ele>93.6</ele>
        <time>2025-02-11T10:25:15Z</time>
      </trkpt>
      <trkpt lat="47.81734" lon="-2.4384">
        <ele>93.6</ele>
        <time>2025-02-11T10:25:16Z</time>
      </trkpt>
      <trkpt lat="47.81734" lon="-2.43842">
        <ele>93.5</ele>
        <time>2025-02-11T10:25:17Z</time>
      </trkpt>
      <trkpt lat="47.81734" lon="-2.43844">
        <ele>93.5</ele>
        <time>2025-02-11T10:25:18Z</time>
      </trkpt>
      <trkpt lat="47.81734" lon="-2.43846">
        <ele>93.5</ele>
        <time>2025-02-11T10:25:19Z</time>
      </trkpt>
      <trkpt lat="47.81734" lon="-2.43848">
        <ele>93.5</ele>
        <time>2025-02-11T10:25:20Z</time>
      </trkpt>
      <trkpt lat="47.81733" lon="-2.4385">
        <ele>93.4</ele>
        <time>2025-02-11T10:25:21Z</time>
      </trkpt>
      <trkpt lat="47.81733" lon="-2.43852">
        <ele>93.5</ele>
        <time>2025-02-11T10:25:22Z</time>
      </trkpt>
      <trkpt lat="47.81733" lon="-2.43854">
        <ele>93.4</ele>
        <time>2025-02-11T10:25:23Z</time>
      </trkpt>
      <trkpt lat="47.81733" lon="-2.43856">
        <ele>93.4</ele>
        <time>2025-02-11T10:25:24Z</time>
      </trkpt>
      <trkpt lat="47.81733" lon="-2.43858">
        <ele>93.3</ele>
        <time>2025-02-11T10:25:25Z</time>
      </trkpt>
      <trkpt lat="47.81732" lon="-2.4386">
        <ele>93.3</ele>
        <time>2025-02-11T10:25:26Z</time>
      </trkpt>
      <trkpt lat="47.81731" lon="-2.43862">
        <ele>93.4</ele>
        <time>2025-02-11T10:25:27Z</time>
      </trkpt>
      <trkpt lat="47.8173" lon="-2.43863">
        <ele>93.4</ele>
        <time>2025-02-11T10:25:28Z</time>
      </trkpt>
      <trkpt lat="47.8173" lon="-2.43865">
        <ele>93.5</ele>
        <time>2025-02-11T10:25:29Z</time>
      </trkpt>
      <trkpt lat="47.8173" lon="-2.43868">
        <ele>93.5</ele>
        <time>2025-02-11T10:25:30Z</time>
      </trkpt>
      <trkpt lat="47.8173" lon="-2.4387">
        <ele>93.5</ele>
        <time>2025-02-11T10:25:31Z</time>
      </trkpt>
      <trkpt lat="47.8173" lon="-2.43872">
        <ele>93.4</ele>
        <time>2025-02-11T10:25:32Z</time>
      </trkpt>
      <trkpt lat="47.8173" lon="-2.43874">
        <ele>93.4</ele>
        <time>2025-02-11T10:25:33Z</time>
      </trkpt>
      <trkpt lat="47.8173" lon="-2.43876">
        <ele>93.5</ele>
        <time>2025-02-11T10:25:34Z</time>
      </trkpt>
      <trkpt lat="47.8173" lon="-2.43878">
        <ele>93.4</ele>
        <time>2025-02-11T10:25:35Z</time>
      </trkpt>
      <trkpt lat="47.8173" lon="-2.4388">
        <ele>93.5</ele>
        <time>2025-02-11T10:25:36Z</time>
      </trkpt>
      <trkpt lat="47.8173" lon="-2.43882">
        <ele>93.5</ele>
        <time>2025-02-11T10:25:37Z</time>
      </trkpt>
      <trkpt lat="47.81729" lon="-2.43884">
        <ele>93.5</ele>
        <time>2025-02-11T10:25:38Z</time>
      </trkpt>
      <trkpt lat="47.81728" lon="-2.43885">
        <ele>93.6</ele>
        <time>2025-02-11T10:25:39Z</time>
      </trkpt>
      <trkpt lat="47.81728" lon="-2.43886">
        <ele>93.6</ele>
        <time>2025-02-11T10:25:40Z</time>
      </trkpt>
      <trkpt lat="47.81727" lon="-2.43887">
        <ele>93.7</ele>
        <time>2025-02-11T10:25:41Z</time>
      </trkpt>
      <trkpt lat="47.81727" lon="-2.4389">
        <ele>93.6</ele>
        <time>2025-02-11T10:25:42Z</time>
      </trkpt>
      <trkpt lat="47.81727" lon="-2.43892">
        <ele>93.6</ele>
        <time>2025-02-11T10:25:43Z</time>
      </trkpt>
      <trkpt lat="47.81728" lon="-2.43894">
        <ele>93.6</ele>
        <time>2025-02-11T10:25:44Z</time>
      </trkpt>
      <trkpt lat="47.81728" lon="-2.43896">
        <ele>93.6</ele>
        <time>2025-02-11T10:25:45Z</time>
      </trkpt>
      <trkpt lat="47.81728" lon="-2.43898">
        <ele>93.6</ele>
        <time>2025-02-11T10:25:46Z</time>
      </trkpt>
      <trkpt lat="47.81728" lon="-2.439">
        <ele>93.6</ele>
        <time>2025-02-11T10:25:47Z</time>
      </trkpt>
      <trkpt lat="47.81727" lon="-2.43902">
        <ele>93.6</ele>
        <time>2025-02-11T10:25:48Z</time>
      </trkpt>
      <trkpt lat="47.81727" lon="-2.43904">
        <ele>93.7</ele>
        <time>2025-02-11T10:25:49Z</time>
      </trkpt>
      <trkpt lat="47.81727" lon="-2.43906">
        <ele>93.6</ele>
        <time>2025-02-11T10:25:50Z</time>
      </trkpt>
      <trkpt lat="47.81727" lon="-2.43908">
        <ele>93.6</ele>
        <time>2025-02-11T10:25:51Z</time>
      </trkpt>
      <trkpt lat="47.81727" lon="-2.4391">
        <ele>93.7</ele>
        <time>2025-02-11T10:25:52Z</time>
      </trkpt>
      <trkpt lat="47.81727" lon="-2.43911">
        <ele>93.7</ele>
        <time>2025-02-11T10:25:53Z</time>
      </trkpt>
      <trkpt lat="47.81727" lon="-2.43914">
        <ele>93.6</ele>
        <time>2025-02-11T10:25:54Z</time>
      </trkpt>
      <trkpt lat="47.81728" lon="-2.43916">
        <ele>93.6</ele>
        <time>2025-02-11T10:25:55Z</time>
      </trkpt>
      <trkpt lat="47.81728" lon="-2.43918">
        <ele>93.6</ele>
        <time>2025-02-11T10:25:56Z</time>
      </trkpt>
      <trkpt lat="47.81727" lon="-2.4392">
        <ele>93.6</ele>
        <time>2025-02-11T10:25:57Z</time>
      </trkpt>
      <trkpt lat="47.81727" lon="-2.43922">
        <ele>93.7</ele>
        <time>2025-02-11T10:25:58Z</time>
      </trkpt>
      <trkpt lat="47.81727" lon="-2.43924">
        <ele>93.7</ele>
        <time>2025-02-11T10:25:59Z</time>
      </trkpt>
      <trkpt lat="47.81727" lon="-2.43926">
        <ele>93.7</ele>
        <time>2025-02-11T10:26:00Z</time>
      </trkpt>
      <trkpt lat="47.81727" lon="-2.43927">
        <ele>93.7</ele>
        <time>2025-02-11T10:26:01Z</time>
      </trkpt>
      <trkpt lat="47.81726" lon="-2.43929">
        <ele>93.7</ele>
        <time>2025-02-11T10:26:02Z</time>
      </trkpt>
      <trkpt lat="47.81726" lon="-2.43931">
        <ele>93.7</ele>
        <time>2025-02-11T10:26:03Z</time>
      </trkpt>
      <trkpt lat="47.81725" lon="-2.43933">
        <ele>93.8</ele>
        <time>2025-02-11T10:26:04Z</time>
      </trkpt>
      <trkpt lat="47.81726" lon="-2.43935">
        <ele>93.7</ele>
        <time>2025-02-11T10:26:05Z</time>
      </trkpt>
      <trkpt lat="47.81726" lon="-2.43936">
        <ele>93.7</ele>
        <time>2025-02-11T10:26:06Z</time>
      </trkpt>
      <trkpt lat="47.81727" lon="-2.43938">
        <ele>93.7</ele>
        <time>2025-02-11T10:26:07Z</time>
      </trkpt>
      <trkpt lat="47.81727" lon="-2.4394">
        <ele>93.6</ele>
        <time>2025-02-11T10:26:08Z</time>
      </trkpt>
      <trkpt lat="47.81728" lon="-2.43942">
        <ele>93.6</ele>
        <time>2025-02-11T10:26:09Z</time>
      </trkpt>
      <trkpt lat="47.81728" lon="-2.43944">
        <ele>93.6</ele>
        <time>2025-02-11T10:26:10Z</time>
      </trkpt>
      <trkpt lat="47.81728" lon="-2.43946">
        <ele>93.6</ele>
        <time>2025-02-11T10:26:11Z</time>
      </trkpt>
      <trkpt lat="47.81728" lon="-2.43947">
        <ele>93.6</ele>
        <time>2025-02-11T10:26:12Z</time>
      </trkpt>
      <trkpt lat="47.81728" lon="-2.43949">
        <ele>93.6</ele>
        <time>2025-02-11T10:26:13Z</time>
      </trkpt>
      <trkpt lat="47.81728" lon="-2.43951">
        <ele>93.6</ele>
        <time>2025-02-11T10:26:14Z</time>
      </trkpt>
      <trkpt lat="47.81728" lon="-2.43953">
        <ele>93.6</ele>
        <time>2025-02-11T10:26:15Z</time>
      </trkpt>
      <trkpt lat="47.81727" lon="-2.43955">
        <ele>93.6</ele>
        <time>2025-02-11T10:26:16Z</time>
      </trkpt>
      <trkpt lat="47.81728" lon="-2.43957">
        <ele>93.6</ele>
        <time>2025-02-11T10:26:17Z</time>
      </trkpt>
      <trkpt lat="47.81728" lon="-2.43959">
        <ele>93.6</ele>
        <time>2025-02-11T10:26:18Z</time>
      </trkpt>
      <trkpt lat="47.81729" lon="-2.43961">
        <ele>93.5</ele>
        <time>2025-02-11T10:26:19Z</time>
      </trkpt>
      <trkpt lat="47.81729" lon="-2.43963">
        <ele>93.5</ele>
        <time>2025-02-11T10:26:20Z</time>
      </trkpt>
      <trkpt lat="47.81729" lon="-2.43965">
        <ele>93.5</ele>
        <time>2025-02-11T10:26:21Z</time>
      </trkpt>
      <trkpt lat="47.81729" lon="-2.43967">
        <ele>93.5</ele>
        <time>2025-02-11T10:26:22Z</time>
      </trkpt>
      <trkpt lat="47.81729" lon="-2.43969">
        <ele>93.5</ele>
        <time>2025-02-11T10:26:23Z</time>
      </trkpt>
      <trkpt lat="47.81729" lon="-2.43971">
        <ele>93.5</ele>
        <time>2025-02-11T10:26:24Z</time>
      </trkpt>
      <trkpt lat="47.81729" lon="-2.43973">
        <ele>93.5</ele>
        <time>2025-02-11T10:26:25Z</time>
      </trkpt>
      <trkpt lat="47.81729" lon="-2.43975">
        <ele>93.5</ele>
        <time>2025-02-11T10:26:26Z</time>
      </trkpt>
      <trkpt lat="47.8173" lon="-2.43977">
        <ele>93.5</ele>
        <time>2025-02-11T10:26:27Z</time>
      </trkpt>
      <trkpt lat="47.8173" lon="-2.43979">
        <ele>93.5</ele>
        <time>2025-02-11T10:26:28Z</time>
      </trkpt>
      <trkpt lat="47.8173" lon="-2.43981">
        <ele>93.5</ele>
        <time>2025-02-11T10:26:29Z</time>
      </trkpt>
      <trkpt lat="47.81729" lon="-2.43983">
        <ele>93.5</ele>
        <time>2025-02-11T10:26:30Z</time>
      </trkpt>
      <trkpt lat="47.81729" lon="-2.43984">
        <ele>93.5</ele>
        <time>2025-02-11T10:26:31Z</time>
      </trkpt>
      <trkpt lat="47.81729" lon="-2.43986">
        <ele>93.5</ele>
        <time>2025-02-11T10:26:32Z</time>
      </trkpt>
      <trkpt lat="47.81729" lon="-2.43988">
        <ele>93.5</ele>
        <time>2025-02-11T10:26:33Z</time>
      </trkpt>
      <trkpt lat="47.81729" lon="-2.4399">
        <ele>93.5</ele>
        <time>2025-02-11T10:26:34Z</time>
      </trkpt>
      <trkpt lat="47.8173" lon="-2.43992">
        <ele>93.5</ele>
        <time>2025-02-11T10:26:35Z</time>
      </trkpt>
      <trkpt lat="47.8173" lon="-2.43994">
        <ele>93.5</ele>
        <time>2025-02-11T10:26:36Z</time>
      </trkpt>
      <trkpt lat="47.81729" lon="-2.43996">
        <ele>93.5</ele>
        <time>2025-02-11T10:26:37Z</time>
      </trkpt>
      <trkpt lat="47.81729" lon="-2.43998">
        <ele>93.5</ele>
        <time>2025-02-11T10:26:38Z</time>
      </trkpt>
      <trkpt lat="47.81728" lon="-2.44">
        <ele>93.6</ele>
        <time>2025-02-11T10:26:39Z</time>
      </trkpt>
      <trkpt lat="47.81728" lon="-2.44002">
        <ele>93.5</ele>
        <time>2025-02-11T10:26:40Z</time>
      </trkpt>
      <trkpt lat="47.81728" lon="-2.44004">
        <ele>93.5</ele>
        <time>2025-02-11T10:26:41Z</time>
      </trkpt>
      <trkpt lat="47.81728" lon="-2.44006">
        <ele>93.5</ele>
        <time>2025-02-11T10:26:42Z</time>
      </trkpt>
      <trkpt lat="47.81729" lon="-2.44007">
        <ele>93.5</ele>
        <time>2025-02-11T10:26:43Z</time>
      </trkpt>
      <trkpt lat="47.81728" lon="-2.44009">
        <ele>93.5</ele>
        <time>2025-02-11T10:26:44Z</time>
      </trkpt>
      <trkpt lat="47.81728" lon="-2.44011">
        <ele>93.5</ele>
        <time>2025-02-11T10:26:45Z</time>
      </trkpt>
      <trkpt lat="47.81728" lon="-2.44013">
        <ele>93.5</ele>
        <time>2025-02-11T10:26:46Z</time>
      </trkpt>
      <trkpt lat="47.81729" lon="-2.44015">
        <ele>93.4</ele>
        <time>2025-02-11T10:26:47Z</time>
      </trkpt>
      <trkpt lat="47.81729" lon="-2.44017">
        <ele>93.4</ele>
        <time>2025-02-11T10:26:48Z</time>
      </trkpt>
      <trkpt lat="47.81729" lon="-2.44018">
        <ele>93.4</ele>
        <time>2025-02-11T10:26:49Z</time>
      </trkpt>
      <trkpt lat="47.81729" lon="-2.4402">
        <ele>93.4</ele>
        <time>2025-02-11T10:26:50Z</time>
      </trkpt>
      <trkpt lat="47.81729" lon="-2.44022">
        <ele>93.3</ele>
        <time>2025-02-11T10:26:51Z</time>
      </trkpt>
      <trkpt lat="47.81729" lon="-2.44024">
        <ele>93.3</ele>
        <time>2025-02-11T10:26:52Z</time>
      </trkpt>
      <trkpt lat="47.81729" lon="-2.44026">
        <ele>93.3</ele>
        <time>2025-02-11T10:26:53Z</time>
      </trkpt>
      <trkpt lat="47.81729" lon="-2.44028">
        <ele>93.2</ele>
        <time>2025-02-11T10:26:54Z</time>
      </trkpt>
      <trkpt lat="47.81729" lon="-2.44029">
        <ele>93.2</ele>
        <time>2025-02-11T10:26:55Z</time>
      </trkpt>
      <trkpt lat="47.8173" lon="-2.44031">
        <ele>93.2</ele>
        <time>2025-02-11T10:26:56Z</time>
      </trkpt>
      <trkpt lat="47.8173" lon="-2.44033">
        <ele>93.2</ele>
        <time>2025-02-11T10:26:57Z</time>
      </trkpt>
      <trkpt lat="47.8173" lon="-2.44035">
        <ele>93.2</ele>
        <time>2025-02-11T10:26:58Z</time>
      </trkpt>
      <trkpt lat="47.8173" lon="-2.44036">
        <ele>93.1</ele>
        <time>2025-02-11T10:26:59Z</time>
      </trkpt>
      <trkpt lat="47.8173" lon="-2.44038">
        <ele>93.1</ele>
        <time>2025-02-11T10:27:00Z</time>
      </trkpt>
      <trkpt lat="47.8173" lon="-2.4404">
        <ele>93.1</ele>
        <time>2025-02-11T10:27:01Z</time>
      </trkpt>
      <trkpt lat="47.81729" lon="-2.44042">
        <ele>93.3</ele>
        <time>2025-02-11T10:27:02Z</time>
      </trkpt>
      <trkpt lat="47.81729" lon="-2.44044">
        <ele>93.3</ele>
        <time>2025-02-11T10:27:03Z</time>
      </trkpt>
      <trkpt lat="47.81729" lon="-2.44046">
        <ele>93.3</ele>
        <time>2025-02-11T10:27:04Z</time>
      </trkpt>
      <trkpt lat="47.81729" lon="-2.44048">
        <ele>93.3</ele>
        <time>2025-02-11T10:27:05Z</time>
      </trkpt>
      <trkpt lat="47.81729" lon="-2.4405">
        <ele>93.3</ele>
        <time>2025-02-11T10:27:06Z</time>
      </trkpt>
      <trkpt lat="47.81728" lon="-2.44052">
        <ele>93.3</ele>
        <time>2025-02-11T10:27:07Z</time>
      </trkpt>
      <trkpt lat="47.81728" lon="-2.44054">
        <ele>93.3</ele>
        <time>2025-02-11T10:27:08Z</time>
      </trkpt>
      <trkpt lat="47.81729" lon="-2.44056">
        <ele>93.3</ele>
        <time>2025-02-11T10:27:09Z</time>
      </trkpt>
      <trkpt lat="47.81728" lon="-2.44058">
        <ele>93.3</ele>
        <time>2025-02-11T10:27:10Z</time>
      </trkpt>
      <trkpt lat="47.81728" lon="-2.4406">
        <ele>93.4</ele>
        <time>2025-02-11T10:27:11Z</time>
      </trkpt>
      <trkpt lat="47.81728" lon="-2.44062">
        <ele>93.4</ele>
        <time>2025-02-11T10:27:12Z</time>
      </trkpt>
      <trkpt lat="47.81727" lon="-2.44064">
        <ele>93.4</ele>
        <time>2025-02-11T10:27:13Z</time>
      </trkpt>
      <trkpt lat="47.81727" lon="-2.44066">
        <ele>93.4</ele>
        <time>2025-02-11T10:27:14Z</time>
      </trkpt>
      <trkpt lat="47.81727" lon="-2.44067">
        <ele>93.5</ele>
        <time>2025-02-11T10:27:15Z</time>
      </trkpt>
      <trkpt lat="47.81727" lon="-2.44069">
        <ele>93.5</ele>
        <time>2025-02-11T10:27:16Z</time>
      </trkpt>
      <trkpt lat="47.81727" lon="-2.44071">
        <ele>93.5</ele>
        <time>2025-02-11T10:27:17Z</time>
      </trkpt>
      <trkpt lat="47.81727" lon="-2.44073">
        <ele>93.5</ele>
        <time>2025-02-11T10:27:18Z</time>
      </trkpt>
      <trkpt lat="47.81728" lon="-2.44075">
        <ele>93.4</ele>
        <time>2025-02-11T10:27:19Z</time>
      </trkpt>
      <trkpt lat="47.81729" lon="-2.44076">
        <ele>93.3</ele>
        <time>2025-02-11T10:27:20Z</time>
      </trkpt>
      <trkpt lat="47.81728" lon="-2.44078">
        <ele>93.3</ele>
        <time>2025-02-11T10:27:21Z</time>
      </trkpt>
      <trkpt lat="47.81728" lon="-2.4408">
        <ele>93.4</ele>
        <time>2025-02-11T10:27:22Z</time>
      </trkpt>
      <trkpt lat="47.81728" lon="-2.44081">
        <ele>93.4</ele>
        <time>2025-02-11T10:27:23Z</time>
      </trkpt>
      <trkpt lat="47.81728" lon="-2.44083">
        <ele>93.4</ele>
        <time>2025-02-11T10:27:24Z</time>
      </trkpt>
      <trkpt lat="47.81728" lon="-2.44085">
        <ele>93.4</ele>
        <time>2025-02-11T10:27:25Z</time>
      </trkpt>
      <trkpt lat="47.81728" lon="-2.44086">
        <ele>93.3</ele>
        <time>2025-02-11T10:27:26Z</time>
      </trkpt>
      <trkpt lat="47.81729" lon="-2.44087">
        <ele>93.3</ele>
        <time>2025-02-11T10:27:27Z</time>
      </trkpt>
      <trkpt lat="47.8173" lon="-2.44089">
        <ele>93.2</ele>
        <time>2025-02-11T10:27:28Z</time>
      </trkpt>
      <trkpt lat="47.8173" lon="-2.44091">
        <ele>93.2</ele>
        <time>2025-02-11T10:27:29Z</time>
      </trkpt>
      <trkpt lat="47.81729" lon="-2.44093">
        <ele>93.3</ele>
        <time>2025-02-11T10:27:30Z</time>
      </trkpt>
      <trkpt lat="47.81729" lon="-2.44095">
        <ele>93.3</ele>
        <time>2025-02-11T10:27:31Z</time>
      </trkpt>
      <trkpt lat="47.81729" lon="-2.44097">
        <ele>93.3</ele>
        <time>2025-02-11T10:27:32Z</time>
      </trkpt>
      <trkpt lat="47.81729" lon="-2.44098">
        <ele>93.3</ele>
        <time>2025-02-11T10:27:33Z</time>
      </trkpt>
      <trkpt lat="47.81729" lon="-2.441">
        <ele>93.3</ele>
        <time>2025-02-11T10:27:34Z</time>
      </trkpt>
      <trkpt lat="47.81729" lon="-2.44102">
        <ele>93.2</ele>
        <time>2025-02-11T10:27:35Z</time>
      </trkpt>
      <trkpt lat="47.81729" lon="-2.44105">
        <ele>93.3</ele>
        <time>2025-02-11T10:27:36Z</time>
      </trkpt>
      <trkpt lat="47.81729" lon="-2.44106">
        <ele>93.3</ele>
        <time>2025-02-11T10:27:37Z</time>
      </trkpt>
      <trkpt lat="47.81728" lon="-2.44108">
        <ele>93.4</ele>
        <time>2025-02-11T10:27:38Z</time>
      </trkpt>
      <trkpt lat="47.81728" lon="-2.4411">
        <ele>93.4</ele>
        <time>2025-02-11T10:27:39Z</time>
      </trkpt>
      <trkpt lat="47.81728" lon="-2.44112">
        <ele>93.4</ele>
        <time>2025-02-11T10:27:40Z</time>
      </trkpt>
      <trkpt lat="47.81728" lon="-2.44114">
        <ele>93.4</ele>
        <time>2025-02-11T10:27:41Z</time>
      </trkpt>
      <trkpt lat="47.81727" lon="-2.44115">
        <ele>93.4</ele>
        <time>2025-02-11T10:27:42Z</time>
      </trkpt>
      <trkpt lat="47.81726" lon="-2.44117">
        <ele>93.5</ele>
        <time>2025-02-11T10:27:43Z</time>
      </trkpt>
      <trkpt lat="47.81726" lon="-2.44119">
        <ele>93.6</ele>
        <time>2025-02-11T10:27:44Z</time>
      </trkpt>
      <trkpt lat="47.81726" lon="-2.44121">
        <ele>93.6</ele>
        <time>2025-02-11T10:27:45Z</time>
      </trkpt>
      <trkpt lat="47.81725" lon="-2.44123">
        <ele>93.7</ele>
        <time>2025-02-11T10:27:46Z</time>
      </trkpt>
      <trkpt lat="47.81725" lon="-2.44124">
        <ele>93.7</ele>
        <time>2025-02-11T10:27:47Z</time>
      </trkpt>
      <trkpt lat="47.81725" lon="-2.44126">
        <ele>93.7</ele>
        <time>2025-02-11T10:27:48Z</time>
      </trkpt>
      <trkpt lat="47.81725" lon="-2.44128">
        <ele>93.7</ele>
        <time>2025-02-11T10:27:49Z</time>
      </trkpt>
      <trkpt lat="47.81725" lon="-2.4413">
        <ele>93.7</ele>
        <time>2025-02-11T10:27:50Z</time>
      </trkpt>
      <trkpt lat="47.81725" lon="-2.44132">
        <ele>93.7</ele>
        <time>2025-02-11T10:27:51Z</time>
      </trkpt>
      <trkpt lat="47.81724" lon="-2.44133">
        <ele>93.8</ele>
        <time>2025-02-11T10:27:52Z</time>
      </trkpt>
      <trkpt lat="47.81723" lon="-2.44135">
        <ele>93.9</ele>
        <time>2025-02-11T10:27:53Z</time>
      </trkpt>
      <trkpt lat="47.81723" lon="-2.44137">
        <ele>93.9</ele>
        <time>2025-02-11T10:27:54Z</time>
      </trkpt>
      <trkpt lat="47.81723" lon="-2.44139">
        <ele>94</ele>
        <time>2025-02-11T10:27:55Z</time>
      </trkpt>
      <trkpt lat="47.81723" lon="-2.44141">
        <ele>93.9</ele>
        <time>2025-02-11T10:27:56Z</time>
      </trkpt>
      <trkpt lat="47.81723" lon="-2.44143">
        <ele>93.9</ele>
        <time>2025-02-11T10:27:57Z</time>
      </trkpt>
      <trkpt lat="47.81724" lon="-2.44145">
        <ele>93.8</ele>
        <time>2025-02-11T10:27:58Z</time>
      </trkpt>
      <trkpt lat="47.81724" lon="-2.44147">
        <ele>93.8</ele>
        <time>2025-02-11T10:27:59Z</time>
      </trkpt>
      <trkpt lat="47.81724" lon="-2.44149">
        <ele>93.7</ele>
        <time>2025-02-11T10:28:00Z</time>
      </trkpt>
      <trkpt lat="47.81724" lon="-2.44151">
        <ele>93.7</ele>
        <time>2025-02-11T10:28:01Z</time>
      </trkpt>
      <trkpt lat="47.81724" lon="-2.44153">
        <ele>93.7</ele>
        <time>2025-02-11T10:28:02Z</time>
      </trkpt>
      <trkpt lat="47.81724" lon="-2.44155">
        <ele>93.8</ele>
        <time>2025-02-11T10:28:03Z</time>
      </trkpt>
      <trkpt lat="47.81724" lon="-2.44157">
        <ele>93.8</ele>
        <time>2025-02-11T10:28:04Z</time>
      </trkpt>
      <trkpt lat="47.81724" lon="-2.44159">
        <ele>93.8</ele>
        <time>2025-02-11T10:28:05Z</time>
      </trkpt>
      <trkpt lat="47.81723" lon="-2.44161">
        <ele>93.9</ele>
        <time>2025-02-11T10:28:06Z</time>
      </trkpt>
      <trkpt lat="47.81723" lon="-2.44163">
        <ele>93.9</ele>
        <time>2025-02-11T10:28:07Z</time>
      </trkpt>
      <trkpt lat="47.81723" lon="-2.44164">
        <ele>93.9</ele>
        <time>2025-02-11T10:28:08Z</time>
      </trkpt>
      <trkpt lat="47.81723" lon="-2.44167">
        <ele>93.9</ele>
        <time>2025-02-11T10:28:09Z</time>
      </trkpt>
      <trkpt lat="47.81723" lon="-2.44168">
        <ele>93.8</ele>
        <time>2025-02-11T10:28:10Z</time>
      </trkpt>
      <trkpt lat="47.81724" lon="-2.44171">
        <ele>93.8</ele>
        <time>2025-02-11T10:28:11Z</time>
      </trkpt>
      <trkpt lat="47.81723" lon="-2.44173">
        <ele>93.8</ele>
        <time>2025-02-11T10:28:12Z</time>
      </trkpt>
      <trkpt lat="47.81723" lon="-2.44174">
        <ele>93.9</ele>
        <time>2025-02-11T10:28:13Z</time>
      </trkpt>
      <trkpt lat="47.81723" lon="-2.44176">
        <ele>93.9</ele>
        <time>2025-02-11T10:28:14Z</time>
      </trkpt>
      <trkpt lat="47.81723" lon="-2.44178">
        <ele>93.9</ele>
        <time>2025-02-11T10:28:15Z</time>
      </trkpt>
      <trkpt lat="47.81724" lon="-2.4418">
        <ele>93.8</ele>
        <time>2025-02-11T10:28:16Z</time>
      </trkpt>
      <trkpt lat="47.81723" lon="-2.44182">
        <ele>93.8</ele>
        <time>2025-02-11T10:28:17Z</time>
      </trkpt>
      <trkpt lat="47.81724" lon="-2.44183">
        <ele>93.8</ele>
        <time>2025-02-11T10:28:18Z</time>
      </trkpt>
      <trkpt lat="47.81724" lon="-2.44185">
        <ele>93.7</ele>
        <time>2025-02-11T10:28:19Z</time>
      </trkpt>
      <trkpt lat="47.81724" lon="-2.44187">
        <ele>93.7</ele>
        <time>2025-02-11T10:28:20Z</time>
      </trkpt>
      <trkpt lat="47.81724" lon="-2.44189">
        <ele>93.8</ele>
        <time>2025-02-11T10:28:21Z</time>
      </trkpt>
      <trkpt lat="47.81724" lon="-2.44191">
        <ele>93.8</ele>
        <time>2025-02-11T10:28:22Z</time>
      </trkpt>
      <trkpt lat="47.81723" lon="-2.44192">
        <ele>93.9</ele>
        <time>2025-02-11T10:28:23Z</time>
      </trkpt>
      <trkpt lat="47.81723" lon="-2.44194">
        <ele>93.9</ele>
        <time>2025-02-11T10:28:24Z</time>
      </trkpt>
      <trkpt lat="47.81723" lon="-2.44196">
        <ele>94</ele>
        <time>2025-02-11T10:28:25Z</time>
      </trkpt>
      <trkpt lat="47.81722" lon="-2.44197">
        <ele>94.1</ele>
        <time>2025-02-11T10:28:26Z</time>
      </trkpt>
      <trkpt lat="47.81722" lon="-2.44199">
        <ele>94.2</ele>
        <time>2025-02-11T10:28:27Z</time>
      </trkpt>
      <trkpt lat="47.81722" lon="-2.442">
        <ele>94.3</ele>
        <time>2025-02-11T10:28:28Z</time>
      </trkpt>
      <trkpt lat="47.81722" lon="-2.44202">
        <ele>94.4</ele>
        <time>2025-02-11T10:28:29Z</time>
      </trkpt>
      <trkpt lat="47.81722" lon="-2.44204">
        <ele>94.4</ele>
        <time>2025-02-11T10:28:30Z</time>
      </trkpt>
      <trkpt lat="47.81722" lon="-2.44206">
        <ele>94.5</ele>
        <time>2025-02-11T10:28:31Z</time>
      </trkpt>
      <trkpt lat="47.81721" lon="-2.44208">
        <ele>94.6</ele>
        <time>2025-02-11T10:28:32Z</time>
      </trkpt>
      <trkpt lat="47.81722" lon="-2.4421">
        <ele>94.7</ele>
        <time>2025-02-11T10:28:33Z</time>
      </trkpt>
      <trkpt lat="47.81721" lon="-2.44212">
        <ele>94.7</ele>
        <time>2025-02-11T10:28:34Z</time>
      </trkpt>
      <trkpt lat="47.81721" lon="-2.44214">
        <ele>94.8</ele>
        <time>2025-02-11T10:28:35Z</time>
      </trkpt>
      <trkpt lat="47.81721" lon="-2.44215">
        <ele>94.9</ele>
        <time>2025-02-11T10:28:36Z</time>
      </trkpt>
      <trkpt lat="47.81721" lon="-2.44217">
        <ele>95</ele>
        <time>2025-02-11T10:28:37Z</time>
      </trkpt>
      <trkpt lat="47.81721" lon="-2.44219">
        <ele>95</ele>
        <time>2025-02-11T10:28:38Z</time>
      </trkpt>
      <trkpt lat="47.81721" lon="-2.44221">
        <ele>95.1</ele>
        <time>2025-02-11T10:28:39Z</time>
      </trkpt>
      <trkpt lat="47.81721" lon="-2.44223">
        <ele>95.1</ele>
        <time>2025-02-11T10:28:40Z</time>
      </trkpt>
      <trkpt lat="47.81721" lon="-2.44225">
        <ele>95.1</ele>
        <time>2025-02-11T10:28:41Z</time>
      </trkpt>
      <trkpt lat="47.81721" lon="-2.44227">
        <ele>95.2</ele>
        <time>2025-02-11T10:28:42Z</time>
      </trkpt>
      <trkpt lat="47.8172" lon="-2.44229">
        <ele>95.2</ele>
        <time>2025-02-11T10:28:43Z</time>
      </trkpt>
      <trkpt lat="47.8172" lon="-2.4423">
        <ele>95.2</ele>
        <time>2025-02-11T10:28:44Z</time>
      </trkpt>
      <trkpt lat="47.8172" lon="-2.44232">
        <ele>95.3</ele>
        <time>2025-02-11T10:28:45Z</time>
      </trkpt>
      <trkpt lat="47.8172" lon="-2.44234">
        <ele>95.2</ele>
        <time>2025-02-11T10:28:46Z</time>
      </trkpt>
      <trkpt lat="47.8172" lon="-2.44235">
        <ele>95.3</ele>
        <time>2025-02-11T10:28:47Z</time>
      </trkpt>
      <trkpt lat="47.8172" lon="-2.44237">
        <ele>95.3</ele>
        <time>2025-02-11T10:28:48Z</time>
      </trkpt>
      <trkpt lat="47.8172" lon="-2.44239">
        <ele>95.2</ele>
        <time>2025-02-11T10:28:49Z</time>
      </trkpt>
      <trkpt lat="47.81721" lon="-2.44241">
        <ele>95.1</ele>
        <time>2025-02-11T10:28:50Z</time>
      </trkpt>
      <trkpt lat="47.81722" lon="-2.44243">
        <ele>95.1</ele>
        <time>2025-02-11T10:28:51Z</time>
      </trkpt>
      <trkpt lat="47.81722" lon="-2.44245">
        <ele>95</ele>
        <time>2025-02-11T10:28:52Z</time>
      </trkpt>
      <trkpt lat="47.81722" lon="-2.44246">
        <ele>95.1</ele>
        <time>2025-02-11T10:28:53Z</time>
      </trkpt>
      <trkpt lat="47.81721" lon="-2.44248">
        <ele>95.1</ele>
        <time>2025-02-11T10:28:54Z</time>
      </trkpt>
      <trkpt lat="47.81721" lon="-2.4425">
        <ele>95.1</ele>
        <time>2025-02-11T10:28:55Z</time>
      </trkpt>
      <trkpt lat="47.81721" lon="-2.44252">
        <ele>95.1</ele>
        <time>2025-02-11T10:28:56Z</time>
      </trkpt>
      <trkpt lat="47.81722" lon="-2.44254">
        <ele>95.1</ele>
        <time>2025-02-11T10:28:57Z</time>
      </trkpt>
      <trkpt lat="47.81722" lon="-2.44256">
        <ele>95.1</ele>
        <time>2025-02-11T10:28:58Z</time>
      </trkpt>
      <trkpt lat="47.81721" lon="-2.44257">
        <ele>95.1</ele>
        <time>2025-02-11T10:28:59Z</time>
      </trkpt>
      <trkpt lat="47.81721" lon="-2.44259">
        <ele>95.1</ele>
        <time>2025-02-11T10:29:00Z</time>
      </trkpt>
      <trkpt lat="47.81722" lon="-2.44262">
        <ele>95.1</ele>
        <time>2025-02-11T10:29:01Z</time>
      </trkpt>
      <trkpt lat="47.81722" lon="-2.44264">
        <ele>95</ele>
        <time>2025-02-11T10:29:02Z</time>
      </trkpt>
      <trkpt lat="47.81722" lon="-2.44266">
        <ele>95</ele>
        <time>2025-02-11T10:29:03Z</time>
      </trkpt>
      <trkpt lat="47.81722" lon="-2.44268">
        <ele>95</ele>
        <time>2025-02-11T10:29:04Z</time>
      </trkpt>
      <trkpt lat="47.81722" lon="-2.44269">
        <ele>95.1</ele>
        <time>2025-02-11T10:29:05Z</time>
      </trkpt>
      <trkpt lat="47.81722" lon="-2.44271">
        <ele>95</ele>
        <time>2025-02-11T10:29:06Z</time>
      </trkpt>
      <trkpt lat="47.81722" lon="-2.44273">
        <ele>95.1</ele>
        <time>2025-02-11T10:29:07Z</time>
      </trkpt>
      <trkpt lat="47.81722" lon="-2.44275">
        <ele>95.1</ele>
        <time>2025-02-11T10:29:08Z</time>
      </trkpt>
      <trkpt lat="47.81722" lon="-2.44277">
        <ele>95.1</ele>
        <time>2025-02-11T10:29:09Z</time>
      </trkpt>
      <trkpt lat="47.81721" lon="-2.44278">
        <ele>95.1</ele>
        <time>2025-02-11T10:29:10Z</time>
      </trkpt>
      <trkpt lat="47.81722" lon="-2.4428">
        <ele>95</ele>
        <time>2025-02-11T10:29:11Z</time>
      </trkpt>
      <trkpt lat="47.81722" lon="-2.44283">
        <ele>95</ele>
        <time>2025-02-11T10:29:12Z</time>
      </trkpt>
      <trkpt lat="47.81722" lon="-2.44285">
        <ele>95</ele>
        <time>2025-02-11T10:29:13Z</time>
      </trkpt>
      <trkpt lat="47.81722" lon="-2.44287">
        <ele>95</ele>
        <time>2025-02-11T10:29:14Z</time>
      </trkpt>
      <trkpt lat="47.81721" lon="-2.44289">
        <ele>95.1</ele>
        <time>2025-02-11T10:29:15Z</time>
      </trkpt>
      <trkpt lat="47.81721" lon="-2.4429">
        <ele>95.1</ele>
        <time>2025-02-11T10:29:16Z</time>
      </trkpt>
      <trkpt lat="47.81721" lon="-2.44292">
        <ele>95.1</ele>
        <time>2025-02-11T10:29:17Z</time>
      </trkpt>
      <trkpt lat="47.81721" lon="-2.44294">
        <ele>95.1</ele>
        <time>2025-02-11T10:29:18Z</time>
      </trkpt>
      <trkpt lat="47.81721" lon="-2.44296">
        <ele>95.1</ele>
        <time>2025-02-11T10:29:19Z</time>
      </trkpt>
      <trkpt lat="47.81721" lon="-2.44298">
        <ele>95.1</ele>
        <time>2025-02-11T10:29:20Z</time>
      </trkpt>
      <trkpt lat="47.81722" lon="-2.443">
        <ele>95</ele>
        <time>2025-02-11T10:29:21Z</time>
      </trkpt>
      <trkpt lat="47.81722" lon="-2.44302">
        <ele>95</ele>
        <time>2025-02-11T10:29:22Z</time>
      </trkpt>
      <trkpt lat="47.81723" lon="-2.44304">
        <ele>94.9</ele>
        <time>2025-02-11T10:29:23Z</time>
      </trkpt>
      <trkpt lat="47.81723" lon="-2.44306">
        <ele>94.8</ele>
        <time>2025-02-11T10:29:24Z</time>
      </trkpt>
      <trkpt lat="47.81723" lon="-2.44308">
        <ele>94.9</ele>
        <time>2025-02-11T10:29:25Z</time>
      </trkpt>
      <trkpt lat="47.81723" lon="-2.4431">
        <ele>94.9</ele>
        <time>2025-02-11T10:29:26Z</time>
      </trkpt>
      <trkpt lat="47.81723" lon="-2.44311">
        <ele>94.8</ele>
        <time>2025-02-11T10:29:27Z</time>
      </trkpt>
      <trkpt lat="47.81723" lon="-2.44313">
        <ele>94.8</ele>
        <time>2025-02-11T10:29:28Z</time>
      </trkpt>
      <trkpt lat="47.81723" lon="-2.44315">
        <ele>94.8</ele>
        <time>2025-02-11T10:29:29Z</time>
      </trkpt>
      <trkpt lat="47.81723" lon="-2.44317">
        <ele>94.9</ele>
        <time>2025-02-11T10:29:30Z</time>
      </trkpt>
      <trkpt lat="47.81722" lon="-2.44319">
        <ele>95</ele>
        <time>2025-02-11T10:29:31Z</time>
      </trkpt>
      <trkpt lat="47.81722" lon="-2.4432">
        <ele>95</ele>
        <time>2025-02-11T10:29:32Z</time>
      </trkpt>
      <trkpt lat="47.81722" lon="-2.44322">
        <ele>95</ele>
        <time>2025-02-11T10:29:33Z</time>
      </trkpt>
      <trkpt lat="47.81723" lon="-2.44324">
        <ele>94.9</ele>
        <time>2025-02-11T10:29:34Z</time>
      </trkpt>
      <trkpt lat="47.81723" lon="-2.44326">
        <ele>94.9</ele>
        <time>2025-02-11T10:29:35Z</time>
      </trkpt>
      <trkpt lat="47.81722" lon="-2.44328">
        <ele>95</ele>
        <time>2025-02-11T10:29:36Z</time>
      </trkpt>
      <trkpt lat="47.81722" lon="-2.44329">
        <ele>95</ele>
        <time>2025-02-11T10:29:37Z</time>
      </trkpt>
      <trkpt lat="47.81722" lon="-2.44331">
        <ele>95</ele>
        <time>2025-02-11T10:29:38Z</time>
      </trkpt>
      <trkpt lat="47.81721" lon="-2.44333">
        <ele>95.1</ele>
        <time>2025-02-11T10:29:39Z</time>
      </trkpt>
      <trkpt lat="47.81721" lon="-2.44335">
        <ele>95.2</ele>
        <time>2025-02-11T10:29:40Z</time>
      </trkpt>
      <trkpt lat="47.8172" lon="-2.44337">
        <ele>95.2</ele>
        <time>2025-02-11T10:29:41Z</time>
      </trkpt>
      <trkpt lat="47.81721" lon="-2.44338">
        <ele>95.2</ele>
        <time>2025-02-11T10:29:42Z</time>
      </trkpt>
      <trkpt lat="47.81721" lon="-2.4434">
        <ele>95.1</ele>
        <time>2025-02-11T10:29:43Z</time>
      </trkpt>
      <trkpt lat="47.81721" lon="-2.44342">
        <ele>95.1</ele>
        <time>2025-02-11T10:29:44Z</time>
      </trkpt>
      <trkpt lat="47.81721" lon="-2.44344">
        <ele>95.2</ele>
        <time>2025-02-11T10:29:45Z</time>
      </trkpt>
      <trkpt lat="47.81721" lon="-2.44345">
        <ele>95.1</ele>
        <time>2025-02-11T10:29:46Z</time>
      </trkpt>
      <trkpt lat="47.81721" lon="-2.44347">
        <ele>95.1</ele>
        <time>2025-02-11T10:29:47Z</time>
      </trkpt>
      <trkpt lat="47.81721" lon="-2.44349">
        <ele>95.2</ele>
        <time>2025-02-11T10:29:48Z</time>
      </trkpt>
      <trkpt lat="47.81721" lon="-2.44351">
        <ele>95.1</ele>
        <time>2025-02-11T10:29:49Z</time>
      </trkpt>
      <trkpt lat="47.81722" lon="-2.44352">
        <ele>95.1</ele>
        <time>2025-02-11T10:29:50Z</time>
      </trkpt>
      <trkpt lat="47.81722" lon="-2.44354">
        <ele>95.1</ele>
        <time>2025-02-11T10:29:51Z</time>
      </trkpt>
      <trkpt lat="47.81721" lon="-2.44356">
        <ele>95.1</ele>
        <time>2025-02-11T10:29:52Z</time>
      </trkpt>
      <trkpt lat="47.81721" lon="-2.44358">
        <ele>95.1</ele>
        <time>2025-02-11T10:29:53Z</time>
      </trkpt>
      <trkpt lat="47.81721" lon="-2.4436">
        <ele>95.1</ele>
        <time>2025-02-11T10:29:54Z</time>
      </trkpt>
      <trkpt lat="47.81721" lon="-2.44362">
        <ele>95.1</ele>
        <time>2025-02-11T10:29:55Z</time>
      </trkpt>
      <trkpt lat="47.8172" lon="-2.44364">
        <ele>95</ele>
        <time>2025-02-11T10:29:56Z</time>
      </trkpt>
      <trkpt lat="47.8172" lon="-2.44366">
        <ele>95</ele>
        <time>2025-02-11T10:29:57Z</time>
      </trkpt>
      <trkpt lat="47.81719" lon="-2.44368">
        <ele>95</ele>
        <time>2025-02-11T10:29:58Z</time>
      </trkpt>
      <trkpt lat="47.81719" lon="-2.4437">
        <ele>94.9</ele>
        <time>2025-02-11T10:29:59Z</time>
      </trkpt>
      <trkpt lat="47.81719" lon="-2.44372">
        <ele>94.8</ele>
        <time>2025-02-11T10:30:00Z</time>
      </trkpt>
      <trkpt lat="47.81719" lon="-2.44374">
        <ele>94.8</ele>
        <time>2025-02-11T10:30:01Z</time>
      </trkpt>
      <trkpt lat="47.81719" lon="-2.44376">
        <ele>94.7</ele>
        <time>2025-02-11T10:30:02Z</time>
      </trkpt>
      <trkpt lat="47.81719" lon="-2.44378">
        <ele>94.7</ele>
        <time>2025-02-11T10:30:03Z</time>
      </trkpt>
      <trkpt lat="47.81719" lon="-2.4438">
        <ele>94.6</ele>
        <time>2025-02-11T10:30:04Z</time>
      </trkpt>
      <trkpt lat="47.81719" lon="-2.44382">
        <ele>94.5</ele>
        <time>2025-02-11T10:30:05Z</time>
      </trkpt>
      <trkpt lat="47.81719" lon="-2.44384">
        <ele>94.5</ele>
        <time>2025-02-11T10:30:06Z</time>
      </trkpt>
      <trkpt lat="47.81719" lon="-2.44385">
        <ele>94.4</ele>
        <time>2025-02-11T10:30:07Z</time>
      </trkpt>
      <trkpt lat="47.8172" lon="-2.44387">
        <ele>94.3</ele>
        <time>2025-02-11T10:30:08Z</time>
      </trkpt>
      <trkpt lat="47.81719" lon="-2.44389">
        <ele>94.3</ele>
        <time>2025-02-11T10:30:09Z</time>
      </trkpt>
      <trkpt lat="47.81719" lon="-2.44391">
        <ele>94.3</ele>
        <time>2025-02-11T10:30:10Z</time>
      </trkpt>
      <trkpt lat="47.81719" lon="-2.44393">
        <ele>94.4</ele>
        <time>2025-02-11T10:30:11Z</time>
      </trkpt>
      <trkpt lat="47.81719" lon="-2.44395">
        <ele>94.3</ele>
        <time>2025-02-11T10:30:12Z</time>
      </trkpt>
      <trkpt lat="47.8172" lon="-2.44396">
        <ele>94.3</ele>
        <time>2025-02-11T10:30:13Z</time>
      </trkpt>
      <trkpt lat="47.8172" lon="-2.44398">
        <ele>94.3</ele>
        <time>2025-02-11T10:30:14Z</time>
      </trkpt>
      <trkpt lat="47.81719" lon="-2.44399">
        <ele>94.3</ele>
        <time>2025-02-11T10:30:15Z</time>
      </trkpt>
      <trkpt lat="47.81719" lon="-2.44401">
        <ele>94.4</ele>
        <time>2025-02-11T10:30:16Z</time>
      </trkpt>
      <trkpt lat="47.81718" lon="-2.44402">
        <ele>94.4</ele>
        <time>2025-02-11T10:30:17Z</time>
      </trkpt>
      <trkpt lat="47.81718" lon="-2.44404">
        <ele>94.4</ele>
        <time>2025-02-11T10:30:18Z</time>
      </trkpt>
      <trkpt lat="47.81719" lon="-2.44406">
        <ele>94.4</ele>
        <time>2025-02-11T10:30:19Z</time>
      </trkpt>
      <trkpt lat="47.81719" lon="-2.44408">
        <ele>94.4</ele>
        <time>2025-02-11T10:30:20Z</time>
      </trkpt>
      <trkpt lat="47.81719" lon="-2.4441">
        <ele>94.3</ele>
        <time>2025-02-11T10:30:21Z</time>
      </trkpt>
      <trkpt lat="47.81719" lon="-2.44412">
        <ele>94.3</ele>
        <time>2025-02-11T10:30:22Z</time>
      </trkpt>
      <trkpt lat="47.81719" lon="-2.44414">
        <ele>94.3</ele>
        <time>2025-02-11T10:30:23Z</time>
      </trkpt>
      <trkpt lat="47.8172" lon="-2.44416">
        <ele>94.3</ele>
        <time>2025-02-11T10:30:24Z</time>
      </trkpt>
      <trkpt lat="47.81719" lon="-2.44418">
        <ele>94.4</ele>
        <time>2025-02-11T10:30:25Z</time>
      </trkpt>
      <trkpt lat="47.81718" lon="-2.4442">
        <ele>94.5</ele>
        <time>2025-02-11T10:30:26Z</time>
      </trkpt>
      <trkpt lat="47.81717" lon="-2.44422">
        <ele>94.6</ele>
        <time>2025-02-11T10:30:27Z</time>
      </trkpt>
      <trkpt lat="47.81717" lon="-2.44423">
        <ele>94.6</ele>
        <time>2025-02-11T10:30:28Z</time>
      </trkpt>
      <trkpt lat="47.81717" lon="-2.44425">
        <ele>94.6</ele>
        <time>2025-02-11T10:30:29Z</time>
      </trkpt>
      <trkpt lat="47.81717" lon="-2.44427">
        <ele>94.5</ele>
        <time>2025-02-11T10:30:30Z</time>
      </trkpt>
      <trkpt lat="47.81718" lon="-2.44429">
        <ele>94.5</ele>
        <time>2025-02-11T10:30:31Z</time>
      </trkpt>
      <trkpt lat="47.81718" lon="-2.44431">
        <ele>94.5</ele>
        <time>2025-02-11T10:30:32Z</time>
      </trkpt>
      <trkpt lat="47.81717" lon="-2.44432">
        <ele>94.5</ele>
        <time>2025-02-11T10:30:33Z</time>
      </trkpt>
      <trkpt lat="47.81717" lon="-2.44434">
        <ele>94.6</ele>
        <time>2025-02-11T10:30:34Z</time>
      </trkpt>
      <trkpt lat="47.81717" lon="-2.44436">
        <ele>94.6</ele>
        <time>2025-02-11T10:30:35Z</time>
      </trkpt>
      <trkpt lat="47.81717" lon="-2.44437">
        <ele>94.6</ele>
        <time>2025-02-11T10:30:36Z</time>
      </trkpt>
      <trkpt lat="47.81716" lon="-2.44439">
        <ele>94.6</ele>
        <time>2025-02-11T10:30:37Z</time>
      </trkpt>
      <trkpt lat="47.81716" lon="-2.44441">
        <ele>94.6</ele>
        <time>2025-02-11T10:30:38Z</time>
      </trkpt>
      <trkpt lat="47.81716" lon="-2.44443">
        <ele>94.7</ele>
        <time>2025-02-11T10:30:39Z</time>
      </trkpt>
      <trkpt lat="47.81715" lon="-2.44444">
        <ele>94.8</ele>
        <time>2025-02-11T10:30:40Z</time>
      </trkpt>
      <trkpt lat="47.81715" lon="-2.44446">
        <ele>94.8</ele>
        <time>2025-02-11T10:30:41Z</time>
      </trkpt>
      <trkpt lat="47.81714" lon="-2.44448">
        <ele>94.8</ele>
        <time>2025-02-11T10:30:42Z</time>
      </trkpt>
      <trkpt lat="47.81714" lon="-2.4445">
        <ele>94.8</ele>
        <time>2025-02-11T10:30:43Z</time>
      </trkpt>
      <trkpt lat="47.81714" lon="-2.44452">
        <ele>94.8</ele>
        <time>2025-02-11T10:30:44Z</time>
      </trkpt>
      <trkpt lat="47.81715" lon="-2.44453">
        <ele>94.7</ele>
        <time>2025-02-11T10:30:45Z</time>
      </trkpt>
      <trkpt lat="47.81715" lon="-2.44455">
        <ele>94.6</ele>
        <time>2025-02-11T10:30:46Z</time>
      </trkpt>
      <trkpt lat="47.81716" lon="-2.44457">
        <ele>94.6</ele>
        <time>2025-02-11T10:30:47Z</time>
      </trkpt>
      <trkpt lat="47.81716" lon="-2.44459">
        <ele>94.5</ele>
        <time>2025-02-11T10:30:48Z</time>
      </trkpt>
      <trkpt lat="47.81716" lon="-2.44461">
        <ele>94.5</ele>
        <time>2025-02-11T10:30:49Z</time>
      </trkpt>
      <trkpt lat="47.81717" lon="-2.44463">
        <ele>94.5</ele>
        <time>2025-02-11T10:30:50Z</time>
      </trkpt>
      <trkpt lat="47.81716" lon="-2.44464">
        <ele>94.5</ele>
        <time>2025-02-11T10:30:51Z</time>
      </trkpt>
      <trkpt lat="47.81717" lon="-2.44466">
        <ele>94.4</ele>
        <time>2025-02-11T10:30:52Z</time>
      </trkpt>
      <trkpt lat="47.81717" lon="-2.44468">
        <ele>94.4</ele>
        <time>2025-02-11T10:30:53Z</time>
      </trkpt>
      <trkpt lat="47.81717" lon="-2.4447">
        <ele>94.4</ele>
        <time>2025-02-11T10:30:54Z</time>
      </trkpt>
      <trkpt lat="47.81717" lon="-2.44472">
        <ele>94.4</ele>
        <time>2025-02-11T10:30:55Z</time>
      </trkpt>
      <trkpt lat="47.81718" lon="-2.44473">
        <ele>94.3</ele>
        <time>2025-02-11T10:30:56Z</time>
      </trkpt>
      <trkpt lat="47.81718" lon="-2.44475">
        <ele>94.2</ele>
        <time>2025-02-11T10:30:57Z</time>
      </trkpt>
      <trkpt lat="47.81718" lon="-2.44477">
        <ele>94.2</ele>
        <time>2025-02-11T10:30:58Z</time>
      </trkpt>
      <trkpt lat="47.81717" lon="-2.44479">
        <ele>94.1</ele>
        <time>2025-02-11T10:30:59Z</time>
      </trkpt>
      <trkpt lat="47.81717" lon="-2.44481">
        <ele>94.1</ele>
        <time>2025-02-11T10:31:00Z</time>
      </trkpt>
      <trkpt lat="47.81717" lon="-2.44483">
        <ele>94.1</ele>
        <time>2025-02-11T10:31:01Z</time>
      </trkpt>
      <trkpt lat="47.81717" lon="-2.44485">
        <ele>94</ele>
        <time>2025-02-11T10:31:02Z</time>
      </trkpt>
      <trkpt lat="47.81716" lon="-2.44487">
        <ele>94</ele>
        <time>2025-02-11T10:31:03Z</time>
      </trkpt>
      <trkpt lat="47.81716" lon="-2.44489">
        <ele>94</ele>
        <time>2025-02-11T10:31:04Z</time>
      </trkpt>
      <trkpt lat="47.81716" lon="-2.4449">
        <ele>94</ele>
        <time>2025-02-11T10:31:05Z</time>
      </trkpt>
      <trkpt lat="47.81716" lon="-2.44492">
        <ele>93.9</ele>
        <time>2025-02-11T10:31:06Z</time>
      </trkpt>
      <trkpt lat="47.81717" lon="-2.44493">
        <ele>93.8</ele>
        <time>2025-02-11T10:31:07Z</time>
      </trkpt>
      <trkpt lat="47.81717" lon="-2.44495">
        <ele>93.8</ele>
        <time>2025-02-11T10:31:08Z</time>
      </trkpt>
      <trkpt lat="47.81716" lon="-2.44496">
        <ele>93.8</ele>
        <time>2025-02-11T10:31:09Z</time>
      </trkpt>
      <trkpt lat="47.81716" lon="-2.44498">
        <ele>93.7</ele>
        <time>2025-02-11T10:31:10Z</time>
      </trkpt>
      <trkpt lat="47.81716" lon="-2.445">
        <ele>93.7</ele>
        <time>2025-02-11T10:31:11Z</time>
      </trkpt>
      <trkpt lat="47.81716" lon="-2.44502">
        <ele>93.7</ele>
        <time>2025-02-11T10:31:12Z</time>
      </trkpt>
      <trkpt lat="47.81716" lon="-2.44503">
        <ele>93.7</ele>
        <time>2025-02-11T10:31:13Z</time>
      </trkpt>
      <trkpt lat="47.81716" lon="-2.44505">
        <ele>93.7</ele>
        <time>2025-02-11T10:31:14Z</time>
      </trkpt>
      <trkpt lat="47.81716" lon="-2.44507">
        <ele>93.6</ele>
        <time>2025-02-11T10:31:15Z</time>
      </trkpt>
      <trkpt lat="47.81716" lon="-2.44509">
        <ele>93.6</ele>
        <time>2025-02-11T10:31:16Z</time>
      </trkpt>
      <trkpt lat="47.81716" lon="-2.4451">
        <ele>93.6</ele>
        <time>2025-02-11T10:31:17Z</time>
      </trkpt>
      <trkpt lat="47.81715" lon="-2.44512">
        <ele>93.6</ele>
        <time>2025-02-11T10:31:18Z</time>
      </trkpt>
      <trkpt lat="47.81716" lon="-2.44514">
        <ele>93.6</ele>
        <time>2025-02-11T10:31:19Z</time>
      </trkpt>
      <trkpt lat="47.81715" lon="-2.44516">
        <ele>93.6</ele>
        <time>2025-02-11T10:31:20Z</time>
      </trkpt>
      <trkpt lat="47.81716" lon="-2.44518">
        <ele>93.6</ele>
        <time>2025-02-11T10:31:21Z</time>
      </trkpt>
      <trkpt lat="47.81715" lon="-2.4452">
        <ele>93.6</ele>
        <time>2025-02-11T10:31:22Z</time>
      </trkpt>
      <trkpt lat="47.81715" lon="-2.44521">
        <ele>93.6</ele>
        <time>2025-02-11T10:31:23Z</time>
      </trkpt>
      <trkpt lat="47.81715" lon="-2.44523">
        <ele>93.6</ele>
        <time>2025-02-11T10:31:24Z</time>
      </trkpt>
      <trkpt lat="47.81715" lon="-2.44525">
        <ele>93.6</ele>
        <time>2025-02-11T10:31:25Z</time>
      </trkpt>
      <trkpt lat="47.81715" lon="-2.44527">
        <ele>93.6</ele>
        <time>2025-02-11T10:31:26Z</time>
      </trkpt>
      <trkpt lat="47.81715" lon="-2.44529">
        <ele>93.5</ele>
        <time>2025-02-11T10:31:27Z</time>
      </trkpt>
      <trkpt lat="47.81715" lon="-2.4453">
        <ele>93.4</ele>
        <time>2025-02-11T10:31:28Z</time>
      </trkpt>
      <trkpt lat="47.81715" lon="-2.44532">
        <ele>93.4</ele>
        <time>2025-02-11T10:31:29Z</time>
      </trkpt>
      <trkpt lat="47.81715" lon="-2.44534">
        <ele>93.4</ele>
        <time>2025-02-11T10:31:30Z</time>
      </trkpt>
      <trkpt lat="47.81714" lon="-2.44536">
        <ele>93.3</ele>
        <time>2025-02-11T10:31:31Z</time>
      </trkpt>
      <trkpt lat="47.81715" lon="-2.44538">
        <ele>93.3</ele>
        <time>2025-02-11T10:31:32Z</time>
      </trkpt>
      <trkpt lat="47.81715" lon="-2.4454">
        <ele>93.2</ele>
        <time>2025-02-11T10:31:33Z</time>
      </trkpt>
      <trkpt lat="47.81714" lon="-2.44542">
        <ele>93.2</ele>
        <time>2025-02-11T10:31:34Z</time>
      </trkpt>
      <trkpt lat="47.81714" lon="-2.44544">
        <ele>93.2</ele>
        <time>2025-02-11T10:31:35Z</time>
      </trkpt>
      <trkpt lat="47.81714" lon="-2.44545">
        <ele>93.1</ele>
        <time>2025-02-11T10:31:36Z</time>
      </trkpt>
      <trkpt lat="47.81715" lon="-2.44547">
        <ele>93</ele>
        <time>2025-02-11T10:31:37Z</time>
      </trkpt>
      <trkpt lat="47.81715" lon="-2.44549">
        <ele>93</ele>
        <time>2025-02-11T10:31:38Z</time>
      </trkpt>
      <trkpt lat="47.81715" lon="-2.44551">
        <ele>92.9</ele>
        <time>2025-02-11T10:31:39Z</time>
      </trkpt>
      <trkpt lat="47.81715" lon="-2.44553">
        <ele>92.9</ele>
        <time>2025-02-11T10:31:40Z</time>
      </trkpt>
      <trkpt lat="47.81715" lon="-2.44555">
        <ele>92.8</ele>
        <time>2025-02-11T10:31:41Z</time>
      </trkpt>
      <trkpt lat="47.81715" lon="-2.44557">
        <ele>92.7</ele>
        <time>2025-02-11T10:31:42Z</time>
      </trkpt>
      <trkpt lat="47.81715" lon="-2.44559">
        <ele>92.8</ele>
        <time>2025-02-11T10:31:43Z</time>
      </trkpt>
      <trkpt lat="47.81715" lon="-2.44561">
        <ele>92.8</ele>
        <time>2025-02-11T10:31:44Z</time>
      </trkpt>
      <trkpt lat="47.81715" lon="-2.44562">
        <ele>92.8</ele>
        <time>2025-02-11T10:31:45Z</time>
      </trkpt>
      <trkpt lat="47.81715" lon="-2.44564">
        <ele>92.8</ele>
        <time>2025-02-11T10:31:46Z</time>
      </trkpt>
      <trkpt lat="47.81715" lon="-2.44566">
        <ele>92.8</ele>
        <time>2025-02-11T10:31:47Z</time>
      </trkpt>
      <trkpt lat="47.81715" lon="-2.44568">
        <ele>92.8</ele>
        <time>2025-02-11T10:31:48Z</time>
      </trkpt>
      <trkpt lat="47.81714" lon="-2.4457">
        <ele>92.9</ele>
        <time>2025-02-11T10:31:49Z</time>
      </trkpt>
      <trkpt lat="47.81713" lon="-2.44572">
        <ele>93</ele>
        <time>2025-02-11T10:31:50Z</time>
      </trkpt>
      <trkpt lat="47.81713" lon="-2.44574">
        <ele>93</ele>
        <time>2025-02-11T10:31:51Z</time>
      </trkpt>
      <trkpt lat="47.81713" lon="-2.44576">
        <ele>93</ele>
        <time>2025-02-11T10:31:52Z</time>
      </trkpt>
      <trkpt lat="47.81713" lon="-2.44577">
        <ele>93</ele>
        <time>2025-02-11T10:31:53Z</time>
      </trkpt>
      <trkpt lat="47.81713" lon="-2.44579">
        <ele>93.1</ele>
        <time>2025-02-11T10:31:54Z</time>
      </trkpt>
      <trkpt lat="47.81713" lon="-2.44581">
        <ele>93</ele>
        <time>2025-02-11T10:31:55Z</time>
      </trkpt>
      <trkpt lat="47.81713" lon="-2.44583">
        <ele>93</ele>
        <time>2025-02-11T10:31:56Z</time>
      </trkpt>
      <trkpt lat="47.81713" lon="-2.44584">
        <ele>93</ele>
        <time>2025-02-11T10:31:57Z</time>
      </trkpt>
      <trkpt lat="47.81713" lon="-2.44586">
        <ele>92.9</ele>
        <time>2025-02-11T10:31:58Z</time>
      </trkpt>
      <trkpt lat="47.81713" lon="-2.44588">
        <ele>92.8</ele>
        <time>2025-02-11T10:31:59Z</time>
      </trkpt>
      <trkpt lat="47.81713" lon="-2.4459">
        <ele>92.9</ele>
        <time>2025-02-11T10:32:00Z</time>
      </trkpt>
      <trkpt lat="47.81712" lon="-2.44592">
        <ele>92.9</ele>
        <time>2025-02-11T10:32:01Z</time>
      </trkpt>
      <trkpt lat="47.81712" lon="-2.44594">
        <ele>92.9</ele>
        <time>2025-02-11T10:32:02Z</time>
      </trkpt>
      <trkpt lat="47.81711" lon="-2.44596">
        <ele>92.9</ele>
        <time>2025-02-11T10:32:03Z</time>
      </trkpt>
      <trkpt lat="47.81711" lon="-2.44598">
        <ele>92.9</ele>
        <time>2025-02-11T10:32:04Z</time>
      </trkpt>
      <trkpt lat="47.81711" lon="-2.446">
        <ele>92.9</ele>
        <time>2025-02-11T10:32:05Z</time>
      </trkpt>
      <trkpt lat="47.81711" lon="-2.44601">
        <ele>92.8</ele>
        <time>2025-02-11T10:32:06Z</time>
      </trkpt>
      <trkpt lat="47.81711" lon="-2.44603">
        <ele>92.8</ele>
        <time>2025-02-11T10:32:07Z</time>
      </trkpt>
      <trkpt lat="47.81712" lon="-2.44605">
        <ele>92.7</ele>
        <time>2025-02-11T10:32:08Z</time>
      </trkpt>
      <trkpt lat="47.81712" lon="-2.44607">
        <ele>92.5</ele>
        <time>2025-02-11T10:32:09Z</time>
      </trkpt>
      <trkpt lat="47.81712" lon="-2.44609">
        <ele>92.5</ele>
        <time>2025-02-11T10:32:10Z</time>
      </trkpt>
      <trkpt lat="47.81713" lon="-2.44611">
        <ele>92.4</ele>
        <time>2025-02-11T10:32:11Z</time>
      </trkpt>
      <trkpt lat="47.81713" lon="-2.44613">
        <ele>92.4</ele>
        <time>2025-02-11T10:32:12Z</time>
      </trkpt>
      <trkpt lat="47.81713" lon="-2.44615">
        <ele>92.4</ele>
        <time>2025-02-11T10:32:13Z</time>
      </trkpt>
      <trkpt lat="47.81713" lon="-2.44616">
        <ele>92.3</ele>
        <time>2025-02-11T10:32:14Z</time>
      </trkpt>
      <trkpt lat="47.81712" lon="-2.44619">
        <ele>92.4</ele>
        <time>2025-02-11T10:32:15Z</time>
      </trkpt>
      <trkpt lat="47.81712" lon="-2.4462">
        <ele>92.5</ele>
        <time>2025-02-11T10:32:16Z</time>
      </trkpt>
      <trkpt lat="47.81712" lon="-2.44622">
        <ele>92.5</ele>
        <time>2025-02-11T10:32:17Z</time>
      </trkpt>
      <trkpt lat="47.81711" lon="-2.44624">
        <ele>92.6</ele>
        <time>2025-02-11T10:32:18Z</time>
      </trkpt>
      <trkpt lat="47.81712" lon="-2.44626">
        <ele>92.5</ele>
        <time>2025-02-11T10:32:19Z</time>
      </trkpt>
      <trkpt lat="47.81712" lon="-2.44628">
        <ele>92.5</ele>
        <time>2025-02-11T10:32:20Z</time>
      </trkpt>
      <trkpt lat="47.81712" lon="-2.4463">
        <ele>92.5</ele>
        <time>2025-02-11T10:32:21Z</time>
      </trkpt>
      <trkpt lat="47.81712" lon="-2.44632">
        <ele>92.4</ele>
        <time>2025-02-11T10:32:22Z</time>
      </trkpt>
      <trkpt lat="47.81712" lon="-2.44634">
        <ele>92.4</ele>
        <time>2025-02-11T10:32:23Z</time>
      </trkpt>
      <trkpt lat="47.81712" lon="-2.44636">
        <ele>92.4</ele>
        <time>2025-02-11T10:32:24Z</time>
      </trkpt>
      <trkpt lat="47.81712" lon="-2.44638">
        <ele>92.4</ele>
        <time>2025-02-11T10:32:25Z</time>
      </trkpt>
      <trkpt lat="47.81712" lon="-2.44639">
        <ele>92.5</ele>
        <time>2025-02-11T10:32:26Z</time>
      </trkpt>
      <trkpt lat="47.81712" lon="-2.44641">
        <ele>92.4</ele>
        <time>2025-02-11T10:32:27Z</time>
      </trkpt>
      <trkpt lat="47.81712" lon="-2.44643">
        <ele>92.5</ele>
        <time>2025-02-11T10:32:28Z</time>
      </trkpt>
      <trkpt lat="47.81712" lon="-2.44644">
        <ele>92.5</ele>
        <time>2025-02-11T10:32:29Z</time>
      </trkpt>
      <trkpt lat="47.81711" lon="-2.44646">
        <ele>92.6</ele>
        <time>2025-02-11T10:32:30Z</time>
      </trkpt>
      <trkpt lat="47.8171" lon="-2.44648">
        <ele>92.7</ele>
        <time>2025-02-11T10:32:31Z</time>
      </trkpt>
      <trkpt lat="47.8171" lon="-2.44649">
        <ele>92.7</ele>
        <time>2025-02-11T10:32:32Z</time>
      </trkpt>
      <trkpt lat="47.81711" lon="-2.44651">
        <ele>92.6</ele>
        <time>2025-02-11T10:32:33Z</time>
      </trkpt>
      <trkpt lat="47.81711" lon="-2.44653">
        <ele>92.7</ele>
        <time>2025-02-11T10:32:34Z</time>
      </trkpt>
      <trkpt lat="47.8171" lon="-2.44655">
        <ele>92.7</ele>
        <time>2025-02-11T10:32:35Z</time>
      </trkpt>
      <trkpt lat="47.8171" lon="-2.44656">
        <ele>92.8</ele>
        <time>2025-02-11T10:32:36Z</time>
      </trkpt>
      <trkpt lat="47.8171" lon="-2.44658">
        <ele>92.8</ele>
        <time>2025-02-11T10:32:37Z</time>
      </trkpt>
      <trkpt lat="47.8171" lon="-2.4466">
        <ele>92.8</ele>
        <time>2025-02-11T10:32:38Z</time>
      </trkpt>
      <trkpt lat="47.8171" lon="-2.44662">
        <ele>92.7</ele>
        <time>2025-02-11T10:32:39Z</time>
      </trkpt>
      <trkpt lat="47.8171" lon="-2.44664">
        <ele>92.7</ele>
        <time>2025-02-11T10:32:40Z</time>
      </trkpt>
      <trkpt lat="47.81712" lon="-2.44665">
        <ele>92.5</ele>
        <time>2025-02-11T10:32:41Z</time>
      </trkpt>
      <trkpt lat="47.81712" lon="-2.44667">
        <ele>92.5</ele>
        <time>2025-02-11T10:32:42Z</time>
      </trkpt>
      <trkpt lat="47.81713" lon="-2.44669">
        <ele>92.4</ele>
        <time>2025-02-11T10:32:43Z</time>
      </trkpt>
      <trkpt lat="47.81713" lon="-2.44671">
        <ele>92.4</ele>
        <time>2025-02-11T10:32:44Z</time>
      </trkpt>
      <trkpt lat="47.81712" lon="-2.44673">
        <ele>92.4</ele>
        <time>2025-02-11T10:32:45Z</time>
      </trkpt>
      <trkpt lat="47.81712" lon="-2.44674">
        <ele>92.5</ele>
        <time>2025-02-11T10:32:46Z</time>
      </trkpt>
      <trkpt lat="47.81712" lon="-2.44676">
        <ele>92.5</ele>
        <time>2025-02-11T10:32:47Z</time>
      </trkpt>
      <trkpt lat="47.81712" lon="-2.44678">
        <ele>92.5</ele>
        <time>2025-02-11T10:32:48Z</time>
      </trkpt>
      <trkpt lat="47.81712" lon="-2.4468">
        <ele>92.5</ele>
        <time>2025-02-11T10:32:49Z</time>
      </trkpt>
      <trkpt lat="47.81711" lon="-2.44682">
        <ele>92.6</ele>
        <time>2025-02-11T10:32:50Z</time>
      </trkpt>
      <trkpt lat="47.81711" lon="-2.44684">
        <ele>92.6</ele>
        <time>2025-02-11T10:32:51Z</time>
      </trkpt>
      <trkpt lat="47.81711" lon="-2.44686">
        <ele>92.7</ele>
        <time>2025-02-11T10:32:52Z</time>
      </trkpt>
      <trkpt lat="47.8171" lon="-2.44688">
        <ele>92.7</ele>
        <time>2025-02-11T10:32:53Z</time>
      </trkpt>
      <trkpt lat="47.81711" lon="-2.4469">
        <ele>92.7</ele>
        <time>2025-02-11T10:32:54Z</time>
      </trkpt>
      <trkpt lat="47.81711" lon="-2.44691">
        <ele>92.7</ele>
        <time>2025-02-11T10:32:55Z</time>
      </trkpt>
      <trkpt lat="47.81711" lon="-2.44693">
        <ele>92.6</ele>
        <time>2025-02-11T10:32:56Z</time>
      </trkpt>
      <trkpt lat="47.81711" lon="-2.44695">
        <ele>92.6</ele>
        <time>2025-02-11T10:32:57Z</time>
      </trkpt>
      <trkpt lat="47.81711" lon="-2.44696">
        <ele>92.7</ele>
        <time>2025-02-11T10:32:58Z</time>
      </trkpt>
      <trkpt lat="47.81711" lon="-2.44698">
        <ele>92.8</ele>
        <time>2025-02-11T10:32:59Z</time>
      </trkpt>
      <trkpt lat="47.81712" lon="-2.447">
        <ele>92.7</ele>
        <time>2025-02-11T10:33:00Z</time>
      </trkpt>
      <trkpt lat="47.81712" lon="-2.44702">
        <ele>92.8</ele>
        <time>2025-02-11T10:33:01Z</time>
      </trkpt>
      <trkpt lat="47.81712" lon="-2.44703">
        <ele>92.8</ele>
        <time>2025-02-11T10:33:02Z</time>
      </trkpt>
      <trkpt lat="47.81713" lon="-2.44705">
        <ele>92.8</ele>
        <time>2025-02-11T10:33:03Z</time>
      </trkpt>
      <trkpt lat="47.81713" lon="-2.44706">
        <ele>92.8</ele>
        <time>2025-02-11T10:33:04Z</time>
      </trkpt>
      <trkpt lat="47.81712" lon="-2.44708">
        <ele>92.9</ele>
        <time>2025-02-11T10:33:05Z</time>
      </trkpt>
      <trkpt lat="47.81712" lon="-2.4471">
        <ele>93.1</ele>
        <time>2025-02-11T10:33:06Z</time>
      </trkpt>
      <trkpt lat="47.81712" lon="-2.44712">
        <ele>93.2</ele>
        <time>2025-02-11T10:33:07Z</time>
      </trkpt>
      <trkpt lat="47.81712" lon="-2.44713">
        <ele>93.2</ele>
        <time>2025-02-11T10:33:08Z</time>
      </trkpt>
      <trkpt lat="47.81711" lon="-2.44715">
        <ele>93.4</ele>
        <time>2025-02-11T10:33:09Z</time>
      </trkpt>
      <trkpt lat="47.81711" lon="-2.44717">
        <ele>93.5</ele>
        <time>2025-02-11T10:33:10Z</time>
      </trkpt>
      <trkpt lat="47.81711" lon="-2.44719">
        <ele>93.5</ele>
        <time>2025-02-11T10:33:11Z</time>
      </trkpt>
      <trkpt lat="47.81711" lon="-2.4472">
        <ele>93.6</ele>
        <time>2025-02-11T10:33:12Z</time>
      </trkpt>
      <trkpt lat="47.81711" lon="-2.44722">
        <ele>93.6</ele>
        <time>2025-02-11T10:33:13Z</time>
      </trkpt>
      <trkpt lat="47.81711" lon="-2.44724">
        <ele>93.7</ele>
        <time>2025-02-11T10:33:14Z</time>
      </trkpt>
      <trkpt lat="47.8171" lon="-2.44725">
        <ele>93.9</ele>
        <time>2025-02-11T10:33:15Z</time>
      </trkpt>
      <trkpt lat="47.8171" lon="-2.44727">
        <ele>94</ele>
        <time>2025-02-11T10:33:16Z</time>
      </trkpt>
      <trkpt lat="47.8171" lon="-2.44728">
        <ele>94</ele>
        <time>2025-02-11T10:33:17Z</time>
      </trkpt>
      <trkpt lat="47.8171" lon="-2.4473">
        <ele>94.2</ele>
        <time>2025-02-11T10:33:18Z</time>
      </trkpt>
      <trkpt lat="47.8171" lon="-2.44731">
        <ele>94.3</ele>
        <time>2025-02-11T10:33:19Z</time>
      </trkpt>
      <trkpt lat="47.8171" lon="-2.44733">
        <ele>94.3</ele>
        <time>2025-02-11T10:33:20Z</time>
      </trkpt>
      <trkpt lat="47.81711" lon="-2.44734">
        <ele>94.2</ele>
        <time>2025-02-11T10:33:21Z</time>
      </trkpt>
      <trkpt lat="47.81712" lon="-2.44735">
        <ele>94.3</ele>
        <time>2025-02-11T10:33:22Z</time>
      </trkpt>
      <trkpt lat="47.81712" lon="-2.44737">
        <ele>94.3</ele>
        <time>2025-02-11T10:33:23Z</time>
      </trkpt>
      <trkpt lat="47.81712" lon="-2.44738">
        <ele>94.4</ele>
        <time>2025-02-11T10:33:24Z</time>
      </trkpt>
      <trkpt lat="47.81712" lon="-2.4474">
        <ele>94.5</ele>
        <time>2025-02-11T10:33:25Z</time>
      </trkpt>
      <trkpt lat="47.81713" lon="-2.44742">
        <ele>94.5</ele>
        <time>2025-02-11T10:33:26Z</time>
      </trkpt>
      <trkpt lat="47.81714" lon="-2.44743">
        <ele>94.5</ele>
        <time>2025-02-11T10:33:27Z</time>
      </trkpt>
      <trkpt lat="47.81714" lon="-2.44744">
        <ele>94.5</ele>
        <time>2025-02-11T10:33:28Z</time>
      </trkpt>
      <trkpt lat="47.81715" lon="-2.44745">
        <ele>94.5</ele>
        <time>2025-02-11T10:33:29Z</time>
      </trkpt>
      <trkpt lat="47.81716" lon="-2.44745">
        <ele>94.4</ele>
        <time>2025-02-11T10:33:30Z</time>
      </trkpt>
      <trkpt lat="47.81717" lon="-2.44744">
        <ele>94.2</ele>
        <time>2025-02-11T10:33:31Z</time>
      </trkpt>
      <trkpt lat="47.81717" lon="-2.44744">
        <ele>94.1</ele>
        <time>2025-02-11T10:33:32Z</time>
      </trkpt>
      <trkpt lat="47.81718" lon="-2.44744">
        <ele>94</ele>
        <time>2025-02-11T10:33:33Z</time>
      </trkpt>
      <trkpt lat="47.81719" lon="-2.44744">
        <ele>93.9</ele>
        <time>2025-02-11T10:33:34Z</time>
      </trkpt>
      <trkpt lat="47.8172" lon="-2.44744">
        <ele>93.8</ele>
        <time>2025-02-11T10:33:35Z</time>
      </trkpt>
      <trkpt lat="47.81722" lon="-2.44744">
        <ele>93.7</ele>
        <time>2025-02-11T10:33:36Z</time>
      </trkpt>
      <trkpt lat="47.81723" lon="-2.44745">
        <ele>93.6</ele>
        <time>2025-02-11T10:33:37Z</time>
      </trkpt>
      <trkpt lat="47.81724" lon="-2.44745">
        <ele>93.4</ele>
        <time>2025-02-11T10:33:38Z</time>
      </trkpt>
      <trkpt lat="47.81725" lon="-2.44746">
        <ele>93.3</ele>
        <time>2025-02-11T10:33:39Z</time>
      </trkpt>
      <trkpt lat="47.81726" lon="-2.44746">
        <ele>93.2</ele>
        <time>2025-02-11T10:33:40Z</time>
      </trkpt>
      <trkpt lat="47.81727" lon="-2.44746">
        <ele>93.1</ele>
        <time>2025-02-11T10:33:41Z</time>
      </trkpt>
      <trkpt lat="47.81727" lon="-2.44745">
        <ele>92.9</ele>
        <time>2025-02-11T10:33:42Z</time>
      </trkpt>
      <trkpt lat="47.81729" lon="-2.44744">
        <ele>92.7</ele>
        <time>2025-02-11T10:33:43Z</time>
      </trkpt>
      <trkpt lat="47.8173" lon="-2.44746">
        <ele>92.7</ele>
        <time>2025-02-11T10:33:44Z</time>
      </trkpt>
      <trkpt lat="47.81731" lon="-2.44746">
        <ele>92.6</ele>
        <time>2025-02-11T10:33:45Z</time>
      </trkpt>
      <trkpt lat="47.81731" lon="-2.44746">
        <ele>92.4</ele>
        <time>2025-02-11T10:33:46Z</time>
      </trkpt>
      <trkpt lat="47.81733" lon="-2.44745">
        <ele>92.2</ele>
        <time>2025-02-11T10:33:47Z</time>
      </trkpt>
      <trkpt lat="47.81734" lon="-2.44744">
        <ele>92</ele>
        <time>2025-02-11T10:33:48Z</time>
      </trkpt>
      <trkpt lat="47.81736" lon="-2.44744">
        <ele>91.7</ele>
        <time>2025-02-11T10:33:49Z</time>
      </trkpt>
      <trkpt lat="47.81737" lon="-2.44743">
        <ele>91.5</ele>
        <time>2025-02-11T10:33:50Z</time>
      </trkpt>
      <trkpt lat="47.81738" lon="-2.44743">
        <ele>91.3</ele>
        <time>2025-02-11T10:33:51Z</time>
      </trkpt>
      <trkpt lat="47.81739" lon="-2.44743">
        <ele>91.2</ele>
        <time>2025-02-11T10:33:52Z</time>
      </trkpt>
      <trkpt lat="47.81741" lon="-2.44742">
        <ele>91</ele>
        <time>2025-02-11T10:33:53Z</time>
      </trkpt>
      <trkpt lat="47.81742" lon="-2.44741">
        <ele>90.8</ele>
        <time>2025-02-11T10:33:54Z</time>
      </trkpt>
      <trkpt lat="47.81743" lon="-2.44741">
        <ele>90.6</ele>
        <time>2025-02-11T10:33:55Z</time>
      </trkpt>
      <trkpt lat="47.81744" lon="-2.44742">
        <ele>90.4</ele>
        <time>2025-02-11T10:33:56Z</time>
      </trkpt>
      <trkpt lat="47.81746" lon="-2.44742">
        <ele>90.3</ele>
        <time>2025-02-11T10:33:57Z</time>
      </trkpt>
      <trkpt lat="47.81746" lon="-2.44742">
        <ele>90.2</ele>
        <time>2025-02-11T10:33:58Z</time>
      </trkpt>
      <trkpt lat="47.81748" lon="-2.44743">
        <ele>90.1</ele>
        <time>2025-02-11T10:33:59Z</time>
      </trkpt>
      <trkpt lat="47.81749" lon="-2.44743">
        <ele>89.9</ele>
        <time>2025-02-11T10:34:00Z</time>
      </trkpt>
      <trkpt lat="47.8175" lon="-2.44743">
        <ele>89.7</ele>
        <time>2025-02-11T10:34:01Z</time>
      </trkpt>
      <trkpt lat="47.81751" lon="-2.44743">
        <ele>89.6</ele>
        <time>2025-02-11T10:34:02Z</time>
      </trkpt>
      <trkpt lat="47.81752" lon="-2.44743">
        <ele>89.5</ele>
        <time>2025-02-11T10:34:03Z</time>
      </trkpt>
      <trkpt lat="47.81754" lon="-2.44743">
        <ele>89.4</ele>
        <time>2025-02-11T10:34:04Z</time>
      </trkpt>
      <trkpt lat="47.81755" lon="-2.44742">
        <ele>89.2</ele>
        <time>2025-02-11T10:34:05Z</time>
      </trkpt>
      <trkpt lat="47.81755" lon="-2.44741">
        <ele>89.1</ele>
        <time>2025-02-11T10:34:06Z</time>
      </trkpt>
      <trkpt lat="47.81756" lon="-2.4474">
        <ele>89</ele>
        <time>2025-02-11T10:34:07Z</time>
      </trkpt>
      <trkpt lat="47.81757" lon="-2.44739">
        <ele>88.9</ele>
        <time>2025-02-11T10:34:08Z</time>
      </trkpt>
      <trkpt lat="47.81758" lon="-2.44739">
        <ele>88.8</ele>
        <time>2025-02-11T10:34:09Z</time>
      </trkpt>
      <trkpt lat="47.81758" lon="-2.44739">
        <ele>88.7</ele>
        <time>2025-02-11T10:34:10Z</time>
      </trkpt>
      <trkpt lat="47.81759" lon="-2.44739">
        <ele>88.6</ele>
        <time>2025-02-11T10:34:11Z</time>
      </trkpt>
      <trkpt lat="47.8176" lon="-2.44739">
        <ele>88.5</ele>
        <time>2025-02-11T10:34:12Z</time>
      </trkpt>
      <trkpt lat="47.81761" lon="-2.44741">
        <ele>88.5</ele>
        <time>2025-02-11T10:34:13Z</time>
      </trkpt>
      <trkpt lat="47.8176" lon="-2.44743">
        <ele>88.7</ele>
        <time>2025-02-11T10:34:14Z</time>
      </trkpt>
      <trkpt lat="47.81759" lon="-2.44745">
        <ele>88.8</ele>
        <time>2025-02-11T10:34:15Z</time>
      </trkpt>
      <trkpt lat="47.81759" lon="-2.44746">
        <ele>88.9</ele>
        <time>2025-02-11T10:34:16Z</time>
      </trkpt>
      <trkpt lat="47.81758" lon="-2.44747">
        <ele>89</ele>
        <time>2025-02-11T10:34:17Z</time>
      </trkpt>
      <trkpt lat="47.81758" lon="-2.44748">
        <ele>89.1</ele>
        <time>2025-02-11T10:34:18Z</time>
      </trkpt>
      <trkpt lat="47.81757" lon="-2.44749">
        <ele>89.2</ele>
        <time>2025-02-11T10:34:19Z</time>
      </trkpt>
      <trkpt lat="47.81757" lon="-2.4475">
        <ele>89.3</ele>
        <time>2025-02-11T10:34:20Z</time>
      </trkpt>
      <trkpt lat="47.81757" lon="-2.44752">
        <ele>89.3</ele>
        <time>2025-02-11T10:34:21Z</time>
      </trkpt>
      <trkpt lat="47.81757" lon="-2.44753">
        <ele>89.4</ele>
        <time>2025-02-11T10:34:22Z</time>
      </trkpt>
      <trkpt lat="47.81757" lon="-2.44754">
        <ele>89.5</ele>
        <time>2025-02-11T10:34:23Z</time>
      </trkpt>
      <trkpt lat="47.81757" lon="-2.44755">
        <ele>89.5</ele>
        <time>2025-02-11T10:34:24Z</time>
      </trkpt>
      <trkpt lat="47.81756" lon="-2.44757">
        <ele>89.6</ele>
        <time>2025-02-11T10:34:25Z</time>
      </trkpt>
      <trkpt lat="47.81755" lon="-2.44757">
        <ele>89.7</ele>
        <time>2025-02-11T10:34:26Z</time>
      </trkpt>
      <trkpt lat="47.81754" lon="-2.44758">
        <ele>89.8</ele>
        <time>2025-02-11T10:34:27Z</time>
      </trkpt>
      <trkpt lat="47.81754" lon="-2.4476">
        <ele>89.9</ele>
        <time>2025-02-11T10:34:28Z</time>
      </trkpt>
      <trkpt lat="47.81754" lon="-2.44761">
        <ele>90</ele>
        <time>2025-02-11T10:34:29Z</time>
      </trkpt>
      <trkpt lat="47.81753" lon="-2.44763">
        <ele>90.1</ele>
        <time>2025-02-11T10:34:30Z</time>
      </trkpt>
      <trkpt lat="47.81753" lon="-2.44765">
        <ele>90.2</ele>
        <time>2025-02-11T10:34:31Z</time>
      </trkpt>
      <trkpt lat="47.81752" lon="-2.44766">
        <ele>90.3</ele>
        <time>2025-02-11T10:34:32Z</time>
      </trkpt>
      <trkpt lat="47.81752" lon="-2.44768">
        <ele>90.5</ele>
        <time>2025-02-11T10:34:33Z</time>
      </trkpt>
      <trkpt lat="47.81751" lon="-2.4477">
        <ele>90.6</ele>
        <time>2025-02-11T10:34:34Z</time>
      </trkpt>
      <trkpt lat="47.81751" lon="-2.44771">
        <ele>90.7</ele>
        <time>2025-02-11T10:34:35Z</time>
      </trkpt>
      <trkpt lat="47.8175" lon="-2.44772">
        <ele>90.8</ele>
        <time>2025-02-11T10:34:36Z</time>
      </trkpt>
      <trkpt lat="47.81749" lon="-2.44773">
        <ele>90.9</ele>
        <time>2025-02-11T10:34:37Z</time>
      </trkpt>
      <trkpt lat="47.81748" lon="-2.44773">
        <ele>91.1</ele>
        <time>2025-02-11T10:34:38Z</time>
      </trkpt>
      <trkpt lat="47.81747" lon="-2.44774">
        <ele>91.2</ele>
        <time>2025-02-11T10:34:39Z</time>
      </trkpt>
      <trkpt lat="47.81746" lon="-2.44775">
        <ele>91.4</ele>
        <time>2025-02-11T10:34:40Z</time>
      </trkpt>
      <trkpt lat="47.81746" lon="-2.44778">
        <ele>91.5</ele>
        <time>2025-02-11T10:34:41Z</time>
      </trkpt>
      <trkpt lat="47.81746" lon="-2.4478">
        <ele>91.6</ele>
        <time>2025-02-11T10:34:42Z</time>
      </trkpt>
      <trkpt lat="47.81745" lon="-2.44782">
        <ele>91.7</ele>
        <time>2025-02-11T10:34:43Z</time>
      </trkpt>
      <trkpt lat="47.81745" lon="-2.44784">
        <ele>91.8</ele>
        <time>2025-02-11T10:34:44Z</time>
      </trkpt>
      <trkpt lat="47.81744" lon="-2.44785">
        <ele>91.9</ele>
        <time>2025-02-11T10:34:45Z</time>
      </trkpt>
      <trkpt lat="47.81744" lon="-2.44786">
        <ele>91.9</ele>
        <time>2025-02-11T10:34:46Z</time>
      </trkpt>
      <trkpt lat="47.81744" lon="-2.44787">
        <ele>92</ele>
        <time>2025-02-11T10:34:47Z</time>
      </trkpt>
      <trkpt lat="47.81743" lon="-2.44789">
        <ele>92.1</ele>
        <time>2025-02-11T10:34:48Z</time>
      </trkpt>
      <trkpt lat="47.81744" lon="-2.44791">
        <ele>92.2</ele>
        <time>2025-02-11T10:34:49Z</time>
      </trkpt>
      <trkpt lat="47.81743" lon="-2.44792">
        <ele>92.3</ele>
        <time>2025-02-11T10:34:50Z</time>
      </trkpt>
      <trkpt lat="47.81743" lon="-2.44794">
        <ele>92.3</ele>
        <time>2025-02-11T10:34:51Z</time>
      </trkpt>
      <trkpt lat="47.81743" lon="-2.44795">
        <ele>92.4</ele>
        <time>2025-02-11T10:34:52Z</time>
      </trkpt>
      <trkpt lat="47.81743" lon="-2.44797">
        <ele>92.4</ele>
        <time>2025-02-11T10:34:53Z</time>
      </trkpt>
      <trkpt lat="47.81743" lon="-2.44799">
        <ele>92.6</ele>
        <time>2025-02-11T10:34:54Z</time>
      </trkpt>
      <trkpt lat="47.81742" lon="-2.44799">
        <ele>92.6</ele>
        <time>2025-02-11T10:34:55Z</time>
      </trkpt>
      <trkpt lat="47.81742" lon="-2.44801">
        <ele>92.7</ele>
        <time>2025-02-11T10:34:56Z</time>
      </trkpt>
      <trkpt lat="47.81742" lon="-2.44802">
        <ele>92.7</ele>
        <time>2025-02-11T10:34:57Z</time>
      </trkpt>
      <trkpt lat="47.81742" lon="-2.44803">
        <ele>92.7</ele>
        <time>2025-02-11T10:34:58Z</time>
      </trkpt>
      <trkpt lat="47.81742" lon="-2.44805">
        <ele>92.9</ele>
        <time>2025-02-11T10:34:59Z</time>
      </trkpt>
      <trkpt lat="47.81741" lon="-2.44806">
        <ele>92.9</ele>
        <time>2025-02-11T10:35:00Z</time>
      </trkpt>
      <trkpt lat="47.81742" lon="-2.44808">
        <ele>92.9</ele>
        <time>2025-02-11T10:35:01Z</time>
      </trkpt>
      <trkpt lat="47.81743" lon="-2.44809">
        <ele>92.8</ele>
        <time>2025-02-11T10:35:02Z</time>
      </trkpt>
      <trkpt lat="47.81743" lon="-2.44811">
        <ele>92.7</ele>
        <time>2025-02-11T10:35:03Z</time>
      </trkpt>
      <trkpt lat="47.81743" lon="-2.44812">
        <ele>92.7</ele>
        <time>2025-02-11T10:35:04Z</time>
      </trkpt>
      <trkpt lat="47.81743" lon="-2.44814">
        <ele>92.6</ele>
        <time>2025-02-11T10:35:05Z</time>
      </trkpt>
      <trkpt lat="47.81743" lon="-2.44815">
        <ele>92.6</ele>
        <time>2025-02-11T10:35:06Z</time>
      </trkpt>
      <trkpt lat="47.81744" lon="-2.44816">
        <ele>92.5</ele>
        <time>2025-02-11T10:35:07Z</time>
      </trkpt>
      <trkpt lat="47.81743" lon="-2.44818">
        <ele>92.5</ele>
        <time>2025-02-11T10:35:08Z</time>
      </trkpt>
      <trkpt lat="47.81743" lon="-2.44819">
        <ele>92.5</ele>
        <time>2025-02-11T10:35:09Z</time>
      </trkpt>
      <trkpt lat="47.81743" lon="-2.4482">
        <ele>92.5</ele>
        <time>2025-02-11T10:35:10Z</time>
      </trkpt>
      <trkpt lat="47.81743" lon="-2.44821">
        <ele>92.5</ele>
        <time>2025-02-11T10:35:11Z</time>
      </trkpt>
      <trkpt lat="47.81742" lon="-2.44822">
        <ele>92.6</ele>
        <time>2025-02-11T10:35:12Z</time>
      </trkpt>
      <trkpt lat="47.81742" lon="-2.44823">
        <ele>92.6</ele>
        <time>2025-02-11T10:35:13Z</time>
      </trkpt>
      <trkpt lat="47.81742" lon="-2.44824">
        <ele>92.6</ele>
        <time>2025-02-11T10:35:14Z</time>
      </trkpt>
      <trkpt lat="47.81741" lon="-2.44825">
        <ele>92.7</ele>
        <time>2025-02-11T10:35:15Z</time>
      </trkpt>
      <trkpt lat="47.81741" lon="-2.44826">
        <ele>92.8</ele>
        <time>2025-02-11T10:35:16Z</time>
      </trkpt>
      <trkpt lat="47.81741" lon="-2.44828">
        <ele>92.7</ele>
        <time>2025-02-11T10:35:17Z</time>
      </trkpt>
      <trkpt lat="47.81741" lon="-2.4483">
        <ele>92.7</ele>
        <time>2025-02-11T10:35:18Z</time>
      </trkpt>
      <trkpt lat="47.8174" lon="-2.44831">
        <ele>92.8</ele>
        <time>2025-02-11T10:35:19Z</time>
      </trkpt>
      <trkpt lat="47.81739" lon="-2.44831">
        <ele>93</ele>
        <time>2025-02-11T10:35:20Z</time>
      </trkpt>
      <trkpt lat="47.81738" lon="-2.44832">
        <ele>93.1</ele>
        <time>2025-02-11T10:35:21Z</time>
      </trkpt>
      <trkpt lat="47.81737" lon="-2.44833">
        <ele>93.3</ele>
        <time>2025-02-11T10:35:22Z</time>
      </trkpt>
      <trkpt lat="47.81737" lon="-2.44834">
        <ele>93.3</ele>
        <time>2025-02-11T10:35:23Z</time>
      </trkpt>
      <trkpt lat="47.81737" lon="-2.44835">
        <ele>93.4</ele>
        <time>2025-02-11T10:35:24Z</time>
      </trkpt>
      <trkpt lat="47.81737" lon="-2.44836">
        <ele>93.5</ele>
        <time>2025-02-11T10:35:25Z</time>
      </trkpt>
      <trkpt lat="47.81736" lon="-2.44836">
        <ele>93.6</ele>
        <time>2025-02-11T10:35:26Z</time>
      </trkpt>
      <trkpt lat="47.81735" lon="-2.44837">
        <ele>93.7</ele>
        <time>2025-02-11T10:35:27Z</time>
      </trkpt>
      <trkpt lat="47.81735" lon="-2.44837">
        <ele>93.8</ele>
        <time>2025-02-11T10:35:28Z</time>
      </trkpt>
      <trkpt lat="47.81736" lon="-2.44837">
        <ele>93.7</ele>
        <time>2025-02-11T10:35:29Z</time>
      </trkpt>
      <trkpt lat="47.81734" lon="-2.44839">
        <ele>93.9</ele>
        <time>2025-02-11T10:35:30Z</time>
      </trkpt>
      <trkpt lat="47.81733" lon="-2.44838">
        <ele>94.2</ele>
        <time>2025-02-11T10:35:31Z</time>
      </trkpt>
      <trkpt lat="47.81732" lon="-2.44838">
        <ele>94.2</ele>
        <time>2025-02-11T10:35:32Z</time>
      </trkpt>
      <trkpt lat="47.81732" lon="-2.44836">
        <ele>94.3</ele>
        <time>2025-02-11T10:35:33Z</time>
      </trkpt>
      <trkpt lat="47.81732" lon="-2.44836">
        <ele>94.3</ele>
        <time>2025-02-11T10:35:34Z</time>
      </trkpt>
      <trkpt lat="47.81731" lon="-2.44835">
        <ele>94.5</ele>
        <time>2025-02-11T10:35:35Z</time>
      </trkpt>
      <trkpt lat="47.8173" lon="-2.44834">
        <ele>94.6</ele>
        <time>2025-02-11T10:35:36Z</time>
      </trkpt>
      <trkpt lat="47.81729" lon="-2.44833">
        <ele>94.8</ele>
        <time>2025-02-11T10:35:37Z</time>
      </trkpt>
      <trkpt lat="47.81728" lon="-2.44831">
        <ele>94.9</ele>
        <time>2025-02-11T10:35:38Z</time>
      </trkpt>
      <trkpt lat="47.81728" lon="-2.4483">
        <ele>95</ele>
        <time>2025-02-11T10:35:39Z</time>
      </trkpt>
      <trkpt lat="47.81728" lon="-2.44829">
        <ele>94.9</ele>
        <time>2025-02-11T10:35:40Z</time>
      </trkpt>
      <trkpt lat="47.81727" lon="-2.44827">
        <ele>95</ele>
        <time>2025-02-11T10:35:41Z</time>
      </trkpt>
      <trkpt lat="47.81727" lon="-2.44826">
        <ele>95</ele>
        <time>2025-02-11T10:35:42Z</time>
      </trkpt>
      <trkpt lat="47.81727" lon="-2.44825">
        <ele>94.9</ele>
        <time>2025-02-11T10:35:43Z</time>
      </trkpt>
      <trkpt lat="47.81726" lon="-2.44823">
        <ele>95</ele>
        <time>2025-02-11T10:35:44Z</time>
      </trkpt>
      <trkpt lat="47.81725" lon="-2.44822">
        <ele>95.1</ele>
        <time>2025-02-11T10:35:45Z</time>
      </trkpt>
      <trkpt lat="47.81724" lon="-2.44822">
        <ele>95.3</ele>
        <time>2025-02-11T10:35:46Z</time>
      </trkpt>
      <trkpt lat="47.81724" lon="-2.44821">
        <ele>95.3</ele>
        <time>2025-02-11T10:35:47Z</time>
      </trkpt>
      <trkpt lat="47.81723" lon="-2.4482">
        <ele>95.4</ele>
        <time>2025-02-11T10:35:48Z</time>
      </trkpt>
      <trkpt lat="47.81722" lon="-2.44819">
        <ele>95.5</ele>
        <time>2025-02-11T10:35:49Z</time>
      </trkpt>
      <trkpt lat="47.81721" lon="-2.44819">
        <ele>95.6</ele>
        <time>2025-02-11T10:35:50Z</time>
      </trkpt>
      <trkpt lat="47.81721" lon="-2.4482">
        <ele>95.7</ele>
        <time>2025-02-11T10:35:51Z</time>
      </trkpt>
      <trkpt lat="47.8172" lon="-2.44821">
        <ele>95.7</ele>
        <time>2025-02-11T10:35:52Z</time>
      </trkpt>
      <trkpt lat="47.81719" lon="-2.44821">
        <ele>95.8</ele>
        <time>2025-02-11T10:35:53Z</time>
      </trkpt>
      <trkpt lat="47.81719" lon="-2.44822">
        <ele>95.9</ele>
        <time>2025-02-11T10:35:54Z</time>
      </trkpt>
      <trkpt lat="47.81718" lon="-2.44823">
        <ele>96</ele>
        <time>2025-02-11T10:35:55Z</time>
      </trkpt>
      <trkpt lat="47.81717" lon="-2.44824">
        <ele>96.1</ele>
        <time>2025-02-11T10:35:56Z</time>
      </trkpt>
      <trkpt lat="47.81717" lon="-2.44826">
        <ele>96.2</ele>
        <time>2025-02-11T10:35:57Z</time>
      </trkpt>
      <trkpt lat="47.81715" lon="-2.44827">
        <ele>96.3</ele>
        <time>2025-02-11T10:35:58Z</time>
      </trkpt>
      <trkpt lat="47.81715" lon="-2.44827">
        <ele>96.4</ele>
        <time>2025-02-11T10:35:59Z</time>
      </trkpt>
      <trkpt lat="47.81714" lon="-2.44828">
        <ele>96.5</ele>
        <time>2025-02-11T10:36:00Z</time>
      </trkpt>
      <trkpt lat="47.81713" lon="-2.4483">
        <ele>96.6</ele>
        <time>2025-02-11T10:36:01Z</time>
      </trkpt>
      <trkpt lat="47.81712" lon="-2.44832">
        <ele>96.7</ele>
        <time>2025-02-11T10:36:02Z</time>
      </trkpt>
      <trkpt lat="47.81711" lon="-2.44834">
        <ele>96.8</ele>
        <time>2025-02-11T10:36:03Z</time>
      </trkpt>
      <trkpt lat="47.8171" lon="-2.44835">
        <ele>96.9</ele>
        <time>2025-02-11T10:36:04Z</time>
      </trkpt>
      <trkpt lat="47.81709" lon="-2.44835">
        <ele>97</ele>
        <time>2025-02-11T10:36:05Z</time>
      </trkpt>
      <trkpt lat="47.81708" lon="-2.44835">
        <ele>97</ele>
        <time>2025-02-11T10:36:06Z</time>
      </trkpt>
      <trkpt lat="47.81707" lon="-2.44835">
        <ele>97.1</ele>
        <time>2025-02-11T10:36:07Z</time>
      </trkpt>
      <trkpt lat="47.81706" lon="-2.44835">
        <ele>97.1</ele>
        <time>2025-02-11T10:36:08Z</time>
      </trkpt>
      <trkpt lat="47.81706" lon="-2.44836">
        <ele>97.2</ele>
        <time>2025-02-11T10:36:09Z</time>
      </trkpt>
      <trkpt lat="47.81705" lon="-2.44836">
        <ele>97.2</ele>
        <time>2025-02-11T10:36:10Z</time>
      </trkpt>
      <trkpt lat="47.81704" lon="-2.44837">
        <ele>97.3</ele>
        <time>2025-02-11T10:36:11Z</time>
      </trkpt>
      <trkpt lat="47.81704" lon="-2.44839">
        <ele>97.3</ele>
        <time>2025-02-11T10:36:12Z</time>
      </trkpt>
      <trkpt lat="47.81703" lon="-2.4484">
        <ele>97.4</ele>
        <time>2025-02-11T10:36:13Z</time>
      </trkpt>
      <trkpt lat="47.81703" lon="-2.44842">
        <ele>97.4</ele>
        <time>2025-02-11T10:36:14Z</time>
      </trkpt>
      <trkpt lat="47.81702" lon="-2.44843">
        <ele>97.5</ele>
        <time>2025-02-11T10:36:15Z</time>
      </trkpt>
      <trkpt lat="47.81701" lon="-2.44843">
        <ele>97.5</ele>
        <time>2025-02-11T10:36:16Z</time>
      </trkpt>
      <trkpt lat="47.817" lon="-2.44844">
        <ele>97.6</ele>
        <time>2025-02-11T10:36:17Z</time>
      </trkpt>
      <trkpt lat="47.81699" lon="-2.44844">
        <ele>97.7</ele>
        <time>2025-02-11T10:36:18Z</time>
      </trkpt>
      <trkpt lat="47.81698" lon="-2.44844">
        <ele>97.7</ele>
        <time>2025-02-11T10:36:19Z</time>
      </trkpt>
      <trkpt lat="47.81697" lon="-2.44845">
        <ele>97.8</ele>
        <time>2025-02-11T10:36:20Z</time>
      </trkpt>
      <trkpt lat="47.81697" lon="-2.44847">
        <ele>97.8</ele>
        <time>2025-02-11T10:36:21Z</time>
      </trkpt>
      <trkpt lat="47.81697" lon="-2.44848">
        <ele>97.8</ele>
        <time>2025-02-11T10:36:22Z</time>
      </trkpt>
      <trkpt lat="47.81698" lon="-2.44849">
        <ele>97.8</ele>
        <time>2025-02-11T10:36:23Z</time>
      </trkpt>
      <trkpt lat="47.81698" lon="-2.44851">
        <ele>97.7</ele>
        <time>2025-02-11T10:36:24Z</time>
      </trkpt>
      <trkpt lat="47.81699" lon="-2.44853">
        <ele>97.7</ele>
        <time>2025-02-11T10:36:25Z</time>
      </trkpt>
      <trkpt lat="47.81698" lon="-2.44855">
        <ele>97.7</ele>
        <time>2025-02-11T10:36:26Z</time>
      </trkpt>
      <trkpt lat="47.81697" lon="-2.44856">
        <ele>97.8</ele>
        <time>2025-02-11T10:36:27Z</time>
      </trkpt>
      <trkpt lat="47.81696" lon="-2.44857">
        <ele>97.9</ele>
        <time>2025-02-11T10:36:28Z</time>
      </trkpt>
      <trkpt lat="47.81695" lon="-2.44858">
        <ele>98</ele>
        <time>2025-02-11T10:36:29Z</time>
      </trkpt>
      <trkpt lat="47.81695" lon="-2.4486">
        <ele>98</ele>
        <time>2025-02-11T10:36:30Z</time>
      </trkpt>
      <trkpt lat="47.81694" lon="-2.44861">
        <ele>98</ele>
        <time>2025-02-11T10:36:31Z</time>
      </trkpt>
      <trkpt lat="47.81694" lon="-2.44862">
        <ele>98.1</ele>
        <time>2025-02-11T10:36:32Z</time>
      </trkpt>
      <trkpt lat="47.81693" lon="-2.44863">
        <ele>98.2</ele>
        <time>2025-02-11T10:36:33Z</time>
      </trkpt>
      <trkpt lat="47.81693" lon="-2.44864">
        <ele>98.3</ele>
        <time>2025-02-11T10:36:34Z</time>
      </trkpt>
      <trkpt lat="47.81692" lon="-2.44865">
        <ele>98.4</ele>
        <time>2025-02-11T10:36:35Z</time>
      </trkpt>
      <trkpt lat="47.81691" lon="-2.44865">
        <ele>98.5</ele>
        <time>2025-02-11T10:36:36Z</time>
      </trkpt>
      <trkpt lat="47.8169" lon="-2.44866">
        <ele>98.7</ele>
        <time>2025-02-11T10:36:37Z</time>
      </trkpt>
      <trkpt lat="47.81689" lon="-2.44867">
        <ele>98.8</ele>
        <time>2025-02-11T10:36:38Z</time>
      </trkpt>
      <trkpt lat="47.81688" lon="-2.44868">
        <ele>98.9</ele>
        <time>2025-02-11T10:36:39Z</time>
      </trkpt>
      <trkpt lat="47.81688" lon="-2.44869">
        <ele>99</ele>
        <time>2025-02-11T10:36:40Z</time>
      </trkpt>
      <trkpt lat="47.81687" lon="-2.44869">
        <ele>99.1</ele>
        <time>2025-02-11T10:36:41Z</time>
      </trkpt>
      <trkpt lat="47.81686" lon="-2.4487">
        <ele>99.2</ele>
        <time>2025-02-11T10:36:42Z</time>
      </trkpt>
      <trkpt lat="47.81685" lon="-2.44871">
        <ele>99.4</ele>
        <time>2025-02-11T10:36:43Z</time>
      </trkpt>
      <trkpt lat="47.81684" lon="-2.44872">
        <ele>99.4</ele>
        <time>2025-02-11T10:36:44Z</time>
      </trkpt>
      <trkpt lat="47.81685" lon="-2.44874">
        <ele>99.4</ele>
        <time>2025-02-11T10:36:45Z</time>
      </trkpt>
      <trkpt lat="47.81685" lon="-2.44875">
        <ele>99.4</ele>
        <time>2025-02-11T10:36:46Z</time>
      </trkpt>
      <trkpt lat="47.81684" lon="-2.44877">
        <ele>99.5</ele>
        <time>2025-02-11T10:36:47Z</time>
      </trkpt>
      <trkpt lat="47.81684" lon="-2.44878">
        <ele>99.5</ele>
        <time>2025-02-11T10:36:48Z</time>
      </trkpt>
      <trkpt lat="47.81684" lon="-2.4488">
        <ele>99.6</ele>
        <time>2025-02-11T10:36:49Z</time>
      </trkpt>
      <trkpt lat="47.81683" lon="-2.4488">
        <ele>99.7</ele>
        <time>2025-02-11T10:36:50Z</time>
      </trkpt>
      <trkpt lat="47.81682" lon="-2.44882">
        <ele>99.8</ele>
        <time>2025-02-11T10:36:51Z</time>
      </trkpt>
      <trkpt lat="47.81681" lon="-2.44882">
        <ele>99.9</ele>
        <time>2025-02-11T10:36:52Z</time>
      </trkpt>
      <trkpt lat="47.81681" lon="-2.44883">
        <ele>100</ele>
        <time>2025-02-11T10:36:53Z</time>
      </trkpt>
      <trkpt lat="47.8168" lon="-2.44883">
        <ele>100.1</ele>
        <time>2025-02-11T10:36:54Z</time>
      </trkpt>
      <trkpt lat="47.81679" lon="-2.44884">
        <ele>100.2</ele>
        <time>2025-02-11T10:36:55Z</time>
      </trkpt>
      <trkpt lat="47.81678" lon="-2.44884">
        <ele>100.3</ele>
        <time>2025-02-11T10:36:56Z</time>
      </trkpt>
      <trkpt lat="47.81677" lon="-2.44885">
        <ele>100.5</ele>
        <time>2025-02-11T10:36:57Z</time>
      </trkpt>
      <trkpt lat="47.81676" lon="-2.44887">
        <ele>100.7</ele>
        <time>2025-02-11T10:36:58Z</time>
      </trkpt>
      <trkpt lat="47.81675" lon="-2.44888">
        <ele>100.8</ele>
        <time>2025-02-11T10:36:59Z</time>
      </trkpt>
      <trkpt lat="47.81674" lon="-2.4489">
        <ele>100.9</ele>
        <time>2025-02-11T10:37:00Z</time>
      </trkpt>
      <trkpt lat="47.81673" lon="-2.4489">
        <ele>101.1</ele>
        <time>2025-02-11T10:37:01Z</time>
      </trkpt>
      <trkpt lat="47.81672" lon="-2.44891">
        <ele>101.2</ele>
        <time>2025-02-11T10:37:02Z</time>
      </trkpt>
      <trkpt lat="47.81672" lon="-2.44892">
        <ele>101.3</ele>
        <time>2025-02-11T10:37:03Z</time>
      </trkpt>
      <trkpt lat="47.81671" lon="-2.44894">
        <ele>101.4</ele>
        <time>2025-02-11T10:37:04Z</time>
      </trkpt>
      <trkpt lat="47.8167" lon="-2.44894">
        <ele>101.5</ele>
        <time>2025-02-11T10:37:05Z</time>
      </trkpt>
      <trkpt lat="47.8167" lon="-2.44894">
        <ele>101.6</ele>
        <time>2025-02-11T10:37:06Z</time>
      </trkpt>
      <trkpt lat="47.81669" lon="-2.44894">
        <ele>101.7</ele>
        <time>2025-02-11T10:37:07Z</time>
      </trkpt>
      <trkpt lat="47.81668" lon="-2.44895">
        <ele>101.8</ele>
        <time>2025-02-11T10:37:08Z</time>
      </trkpt>
      <trkpt lat="47.81668" lon="-2.44895">
        <ele>101.9</ele>
        <time>2025-02-11T10:37:09Z</time>
      </trkpt>
      <trkpt lat="47.81666" lon="-2.44896">
        <ele>102</ele>
        <time>2025-02-11T10:37:10Z</time>
      </trkpt>
      <trkpt lat="47.81666" lon="-2.44897">
        <ele>102.1</ele>
        <time>2025-02-11T10:37:11Z</time>
      </trkpt>
      <trkpt lat="47.81665" lon="-2.44897">
        <ele>102.2</ele>
        <time>2025-02-11T10:37:12Z</time>
      </trkpt>
      <trkpt lat="47.81664" lon="-2.44897">
        <ele>102.3</ele>
        <time>2025-02-11T10:37:13Z</time>
      </trkpt>
      <trkpt lat="47.81663" lon="-2.44897">
        <ele>102.4</ele>
        <time>2025-02-11T10:37:14Z</time>
      </trkpt>
      <trkpt lat="47.81662" lon="-2.44896">
        <ele>102.5</ele>
        <time>2025-02-11T10:37:15Z</time>
      </trkpt>
      <trkpt lat="47.81661" lon="-2.44896">
        <ele>102.6</ele>
        <time>2025-02-11T10:37:16Z</time>
      </trkpt>
      <trkpt lat="47.8166" lon="-2.44896">
        <ele>102.7</ele>
        <time>2025-02-11T10:37:17Z</time>
      </trkpt>
      <trkpt lat="47.81659" lon="-2.44897">
        <ele>102.8</ele>
        <time>2025-02-11T10:37:18Z</time>
      </trkpt>
      <trkpt lat="47.81658" lon="-2.44896">
        <ele>102.9</ele>
        <time>2025-02-11T10:37:19Z</time>
      </trkpt>
      <trkpt lat="47.81657" lon="-2.44895">
        <ele>103</ele>
        <time>2025-02-11T10:37:20Z</time>
      </trkpt>
      <trkpt lat="47.81657" lon="-2.44896">
        <ele>103.1</ele>
        <time>2025-02-11T10:37:21Z</time>
      </trkpt>
      <trkpt lat="47.81656" lon="-2.44896">
        <ele>103.2</ele>
        <time>2025-02-11T10:37:22Z</time>
      </trkpt>
      <trkpt lat="47.81655" lon="-2.44897">
        <ele>103.2</ele>
        <time>2025-02-11T10:37:23Z</time>
      </trkpt>
      <trkpt lat="47.81655" lon="-2.44899">
        <ele>103.3</ele>
        <time>2025-02-11T10:37:24Z</time>
      </trkpt>
      <trkpt lat="47.81654" lon="-2.44901">
        <ele>103.3</ele>
        <time>2025-02-11T10:37:25Z</time>
      </trkpt>
      <trkpt lat="47.81654" lon="-2.44902">
        <ele>103.4</ele>
        <time>2025-02-11T10:37:26Z</time>
      </trkpt>
      <trkpt lat="47.81654" lon="-2.44904">
        <ele>103.4</ele>
        <time>2025-02-11T10:37:27Z</time>
      </trkpt>
      <trkpt lat="47.81654" lon="-2.44905">
        <ele>103.4</ele>
        <time>2025-02-11T10:37:28Z</time>
      </trkpt>
      <trkpt lat="47.81654" lon="-2.44907">
        <ele>103.4</ele>
        <time>2025-02-11T10:37:29Z</time>
      </trkpt>
      <trkpt lat="47.81654" lon="-2.44908">
        <ele>103.4</ele>
        <time>2025-02-11T10:37:30Z</time>
      </trkpt>
      <trkpt lat="47.81654" lon="-2.44909">
        <ele>103.4</ele>
        <time>2025-02-11T10:37:31Z</time>
      </trkpt>
      <trkpt lat="47.81654" lon="-2.44911">
        <ele>103.4</ele>
        <time>2025-02-11T10:37:32Z</time>
      </trkpt>
      <trkpt lat="47.81653" lon="-2.44912">
        <ele>103.5</ele>
        <time>2025-02-11T10:37:33Z</time>
      </trkpt>
      <trkpt lat="47.81653" lon="-2.44913">
        <ele>103.5</ele>
        <time>2025-02-11T10:37:34Z</time>
      </trkpt>
      <trkpt lat="47.81652" lon="-2.44913">
        <ele>103.6</ele>
        <time>2025-02-11T10:37:35Z</time>
      </trkpt>
      <trkpt lat="47.81652" lon="-2.44915">
        <ele>103.6</ele>
        <time>2025-02-11T10:37:36Z</time>
      </trkpt>
      <trkpt lat="47.81651" lon="-2.44916">
        <ele>103.7</ele>
        <time>2025-02-11T10:37:37Z</time>
      </trkpt>
      <trkpt lat="47.81651" lon="-2.44917">
        <ele>103.7</ele>
        <time>2025-02-11T10:37:38Z</time>
      </trkpt>
      <trkpt lat="47.81651" lon="-2.44919">
        <ele>103.7</ele>
        <time>2025-02-11T10:37:39Z</time>
      </trkpt>
      <trkpt lat="47.81651" lon="-2.4492">
        <ele>103.7</ele>
        <time>2025-02-11T10:37:40Z</time>
      </trkpt>
      <trkpt lat="47.81651" lon="-2.44922">
        <ele>103.7</ele>
        <time>2025-02-11T10:37:41Z</time>
      </trkpt>
      <trkpt lat="47.81651" lon="-2.44923">
        <ele>103.7</ele>
        <time>2025-02-11T10:37:42Z</time>
      </trkpt>
      <trkpt lat="47.8165" lon="-2.44925">
        <ele>103.8</ele>
        <time>2025-02-11T10:37:43Z</time>
      </trkpt>
      <trkpt lat="47.8165" lon="-2.44926">
        <ele>103.8</ele>
        <time>2025-02-11T10:37:44Z</time>
      </trkpt>
      <trkpt lat="47.8165" lon="-2.44927">
        <ele>103.8</ele>
        <time>2025-02-11T10:37:45Z</time>
      </trkpt>
      <trkpt lat="47.8165" lon="-2.44929">
        <ele>103.8</ele>
        <time>2025-02-11T10:37:46Z</time>
      </trkpt>
      <trkpt lat="47.8165" lon="-2.4493">
        <ele>103.8</ele>
        <time>2025-02-11T10:37:47Z</time>
      </trkpt>
      <trkpt lat="47.81649" lon="-2.44933">
        <ele>103.9</ele>
        <time>2025-02-11T10:37:48Z</time>
      </trkpt>
      <trkpt lat="47.81649" lon="-2.44936">
        <ele>103.9</ele>
        <time>2025-02-11T10:37:49Z</time>
      </trkpt>
      <trkpt lat="47.8165" lon="-2.44938">
        <ele>103.8</ele>
        <time>2025-02-11T10:37:50Z</time>
      </trkpt>
      <trkpt lat="47.8165" lon="-2.44939">
        <ele>103.8</ele>
        <time>2025-02-11T10:37:51Z</time>
      </trkpt>
      <trkpt lat="47.81649" lon="-2.44941">
        <ele>103.9</ele>
        <time>2025-02-11T10:37:52Z</time>
      </trkpt>
      <trkpt lat="47.81649" lon="-2.44943">
        <ele>103.9</ele>
        <time>2025-02-11T10:37:53Z</time>
      </trkpt>
      <trkpt lat="47.81649" lon="-2.44945">
        <ele>103.9</ele>
        <time>2025-02-11T10:37:54Z</time>
      </trkpt>
      <trkpt lat="47.81649" lon="-2.44947">
        <ele>103.8</ele>
        <time>2025-02-11T10:37:55Z</time>
      </trkpt>
      <trkpt lat="47.81649" lon="-2.44949">
        <ele>103.8</ele>
        <time>2025-02-11T10:37:56Z</time>
      </trkpt>
      <trkpt lat="47.8165" lon="-2.44951">
        <ele>103.8</ele>
        <time>2025-02-11T10:37:57Z</time>
      </trkpt>
      <trkpt lat="47.8165" lon="-2.44952">
        <ele>103.7</ele>
        <time>2025-02-11T10:37:58Z</time>
      </trkpt>
      <trkpt lat="47.8165" lon="-2.44953">
        <ele>103.7</ele>
        <time>2025-02-11T10:37:59Z</time>
      </trkpt>
      <trkpt lat="47.8165" lon="-2.44954">
        <ele>103.7</ele>
        <time>2025-02-11T10:38:00Z</time>
      </trkpt>
      <trkpt lat="47.8165" lon="-2.44955">
        <ele>103.6</ele>
        <time>2025-02-11T10:38:01Z</time>
      </trkpt>
      <trkpt lat="47.8165" lon="-2.44953">
        <ele>103.7</ele>
        <time>2025-02-11T10:39:32Z</time>
      </trkpt>
      <trkpt lat="47.8165" lon="-2.44952">
        <ele>103.8</ele>
        <time>2025-02-11T10:39:33Z</time>
      </trkpt>
      <trkpt lat="47.81648" lon="-2.44951">
        <ele>104</ele>
        <time>2025-02-11T10:39:34Z</time>
      </trkpt>
      <trkpt lat="47.81647" lon="-2.44951">
        <ele>104.1</ele>
        <time>2025-02-11T10:39:35Z</time>
      </trkpt>
      <trkpt lat="47.81646" lon="-2.4495">
        <ele>104.2</ele>
        <time>2025-02-11T10:39:36Z</time>
      </trkpt>
      <trkpt lat="47.81645" lon="-2.4495">
        <ele>104.3</ele>
        <time>2025-02-11T10:39:37Z</time>
      </trkpt>
      <trkpt lat="47.81644" lon="-2.4495">
        <ele>104.4</ele>
        <time>2025-02-11T10:39:38Z</time>
      </trkpt>
      <trkpt lat="47.81643" lon="-2.4495">
        <ele>104.5</ele>
        <time>2025-02-11T10:39:39Z</time>
      </trkpt>
      <trkpt lat="47.81642" lon="-2.4495">
        <ele>104.7</ele>
        <time>2025-02-11T10:39:40Z</time>
      </trkpt>
      <trkpt lat="47.81641" lon="-2.44949">
        <ele>104.8</ele>
        <time>2025-02-11T10:39:41Z</time>
      </trkpt>
      <trkpt lat="47.8164" lon="-2.44949">
        <ele>104.9</ele>
        <time>2025-02-11T10:39:42Z</time>
      </trkpt>
      <trkpt lat="47.81639" lon="-2.44949">
        <ele>105</ele>
        <time>2025-02-11T10:39:43Z</time>
      </trkpt>
      <trkpt lat="47.81638" lon="-2.44949">
        <ele>105.1</ele>
        <time>2025-02-11T10:39:44Z</time>
      </trkpt>
      <trkpt lat="47.81637" lon="-2.44949">
        <ele>105.2</ele>
        <time>2025-02-11T10:39:45Z</time>
      </trkpt>
      <trkpt lat="47.81636" lon="-2.4495">
        <ele>105.2</ele>
        <time>2025-02-11T10:39:46Z</time>
      </trkpt>
      <trkpt lat="47.81635" lon="-2.4495">
        <ele>105.3</ele>
        <time>2025-02-11T10:39:47Z</time>
      </trkpt>
      <trkpt lat="47.81634" lon="-2.4495">
        <ele>105.4</ele>
        <time>2025-02-11T10:39:48Z</time>
      </trkpt>
      <trkpt lat="47.81633" lon="-2.44951">
        <ele>105.5</ele>
        <time>2025-02-11T10:39:49Z</time>
      </trkpt>
      <trkpt lat="47.81633" lon="-2.44952">
        <ele>105.5</ele>
        <time>2025-02-11T10:39:50Z</time>
      </trkpt>
      <trkpt lat="47.81632" lon="-2.44954">
        <ele>105.6</ele>
        <time>2025-02-11T10:39:51Z</time>
      </trkpt>
      <trkpt lat="47.81631" lon="-2.44955">
        <ele>105.6</ele>
        <time>2025-02-11T10:39:52Z</time>
      </trkpt>
      <trkpt lat="47.81631" lon="-2.44956">
        <ele>105.7</ele>
        <time>2025-02-11T10:39:53Z</time>
      </trkpt>
      <trkpt lat="47.8163" lon="-2.44957">
        <ele>105.8</ele>
        <time>2025-02-11T10:39:54Z</time>
      </trkpt>
      <trkpt lat="47.81629" lon="-2.44957">
        <ele>105.9</ele>
        <time>2025-02-11T10:39:55Z</time>
      </trkpt>
      <trkpt lat="47.81628" lon="-2.44957">
        <ele>106</ele>
        <time>2025-02-11T10:39:56Z</time>
      </trkpt>
      <trkpt lat="47.81627" lon="-2.44958">
        <ele>106</ele>
        <time>2025-02-11T10:39:57Z</time>
      </trkpt>
      <trkpt lat="47.81627" lon="-2.44959">
        <ele>106.1</ele>
        <time>2025-02-11T10:39:58Z</time>
      </trkpt>
      <trkpt lat="47.81626" lon="-2.44959">
        <ele>106.2</ele>
        <time>2025-02-11T10:39:59Z</time>
      </trkpt>
      <trkpt lat="47.81625" lon="-2.44958">
        <ele>106.2</ele>
        <time>2025-02-11T10:40:00Z</time>
      </trkpt>
      <trkpt lat="47.81625" lon="-2.44959">
        <ele>106.3</ele>
        <time>2025-02-11T10:40:01Z</time>
      </trkpt>
      <trkpt lat="47.81624" lon="-2.4496">
        <ele>106.4</ele>
        <time>2025-02-11T10:40:02Z</time>
      </trkpt>
      <trkpt lat="47.81623" lon="-2.4496">
        <ele>106.5</ele>
        <time>2025-02-11T10:40:03Z</time>
      </trkpt>
      <trkpt lat="47.81622" lon="-2.4496">
        <ele>106.6</ele>
        <time>2025-02-11T10:40:04Z</time>
      </trkpt>
      <trkpt lat="47.81621" lon="-2.4496">
        <ele>106.7</ele>
        <time>2025-02-11T10:40:05Z</time>
      </trkpt>
      <trkpt lat="47.8162" lon="-2.4496">
        <ele>106.8</ele>
        <time>2025-02-11T10:40:06Z</time>
      </trkpt>
      <trkpt lat="47.81619" lon="-2.44959">
        <ele>106.8</ele>
        <time>2025-02-11T10:40:07Z</time>
      </trkpt>
      <trkpt lat="47.81619" lon="-2.44959">
        <ele>106.9</ele>
        <time>2025-02-11T10:40:08Z</time>
      </trkpt>
      <trkpt lat="47.81618" lon="-2.44959">
        <ele>106.9</ele>
        <time>2025-02-11T10:40:09Z</time>
      </trkpt>
      <trkpt lat="47.81617" lon="-2.44958">
        <ele>107</ele>
        <time>2025-02-11T10:40:10Z</time>
      </trkpt>
      <trkpt lat="47.81615" lon="-2.44958">
        <ele>107.1</ele>
        <time>2025-02-11T10:40:11Z</time>
      </trkpt>
      <trkpt lat="47.81614" lon="-2.44959">
        <ele>107.2</ele>
        <time>2025-02-11T10:40:12Z</time>
      </trkpt>
      <trkpt lat="47.81613" lon="-2.44959">
        <ele>107.3</ele>
        <time>2025-02-11T10:40:13Z</time>
      </trkpt>
      <trkpt lat="47.81612" lon="-2.44959">
        <ele>107.5</ele>
        <time>2025-02-11T10:40:14Z</time>
      </trkpt>
      <trkpt lat="47.81611" lon="-2.4496">
        <ele>107.6</ele>
        <time>2025-02-11T10:40:15Z</time>
      </trkpt>
      <trkpt lat="47.8161" lon="-2.4496">
        <ele>107.7</ele>
        <time>2025-02-11T10:40:16Z</time>
      </trkpt>
      <trkpt lat="47.81609" lon="-2.4496">
        <ele>107.8</ele>
        <time>2025-02-11T10:40:17Z</time>
      </trkpt>
      <trkpt lat="47.81608" lon="-2.44961">
        <ele>107.9</ele>
        <time>2025-02-11T10:40:18Z</time>
      </trkpt>
      <trkpt lat="47.81607" lon="-2.44962">
        <ele>108</ele>
        <time>2025-02-11T10:40:19Z</time>
      </trkpt>
      <trkpt lat="47.81606" lon="-2.44963">
        <ele>108.1</ele>
        <time>2025-02-11T10:40:20Z</time>
      </trkpt>
      <trkpt lat="47.81605" lon="-2.44964">
        <ele>108.2</ele>
        <time>2025-02-11T10:40:21Z</time>
      </trkpt>
      <trkpt lat="47.81604" lon="-2.44965">
        <ele>108.3</ele>
        <time>2025-02-11T10:40:22Z</time>
      </trkpt>
      <trkpt lat="47.81603" lon="-2.44967">
        <ele>108.4</ele>
        <time>2025-02-11T10:40:23Z</time>
      </trkpt>
      <trkpt lat="47.81603" lon="-2.44968">
        <ele>108.5</ele>
        <time>2025-02-11T10:40:24Z</time>
      </trkpt>
      <trkpt lat="47.81602" lon="-2.44968">
        <ele>108.6</ele>
        <time>2025-02-11T10:40:25Z</time>
      </trkpt>
      <trkpt lat="47.81601" lon="-2.44969">
        <ele>108.7</ele>
        <time>2025-02-11T10:40:26Z</time>
      </trkpt>
      <trkpt lat="47.816" lon="-2.44969">
        <ele>108.7</ele>
        <time>2025-02-11T10:40:27Z</time>
      </trkpt>
      <trkpt lat="47.81599" lon="-2.44968">
        <ele>108.8</ele>
        <time>2025-02-11T10:40:28Z</time>
      </trkpt>
      <trkpt lat="47.81598" lon="-2.44968">
        <ele>108.9</ele>
        <time>2025-02-11T10:40:29Z</time>
      </trkpt>
      <trkpt lat="47.81597" lon="-2.44968">
        <ele>108.9</ele>
        <time>2025-02-11T10:40:30Z</time>
      </trkpt>
      <trkpt lat="47.81596" lon="-2.44968">
        <ele>109</ele>
        <time>2025-02-11T10:40:31Z</time>
      </trkpt>
      <trkpt lat="47.81595" lon="-2.44969">
        <ele>109.1</ele>
        <time>2025-02-11T10:40:32Z</time>
      </trkpt>
      <trkpt lat="47.81595" lon="-2.44969">
        <ele>109.2</ele>
        <time>2025-02-11T10:40:33Z</time>
      </trkpt>
      <trkpt lat="47.81594" lon="-2.4497">
        <ele>109.2</ele>
        <time>2025-02-11T10:40:34Z</time>
      </trkpt>
      <trkpt lat="47.81593" lon="-2.4497">
        <ele>109.3</ele>
        <time>2025-02-11T10:40:35Z</time>
      </trkpt>
      <trkpt lat="47.81592" lon="-2.44969">
        <ele>109.4</ele>
        <time>2025-02-11T10:40:36Z</time>
      </trkpt>
      <trkpt lat="47.81591" lon="-2.4497">
        <ele>109.4</ele>
        <time>2025-02-11T10:40:37Z</time>
      </trkpt>
      <trkpt lat="47.81591" lon="-2.4497">
        <ele>109.5</ele>
        <time>2025-02-11T10:40:38Z</time>
      </trkpt>
      <trkpt lat="47.8159" lon="-2.4497">
        <ele>109.5</ele>
        <time>2025-02-11T10:40:39Z</time>
      </trkpt>
      <trkpt lat="47.81589" lon="-2.44971">
        <ele>109.6</ele>
        <time>2025-02-11T10:40:40Z</time>
      </trkpt>
      <trkpt lat="47.81587" lon="-2.44973">
        <ele>109.7</ele>
        <time>2025-02-11T10:40:41Z</time>
      </trkpt>
      <trkpt lat="47.81585" lon="-2.44974">
        <ele>109.8</ele>
        <time>2025-02-11T10:40:42Z</time>
      </trkpt>
      <trkpt lat="47.81585" lon="-2.44974">
        <ele>109.9</ele>
        <time>2025-02-11T10:40:43Z</time>
      </trkpt>
      <trkpt lat="47.81586" lon="-2.44973">
        <ele>109.8</ele>
        <time>2025-02-11T10:40:44Z</time>
      </trkpt>
      <trkpt lat="47.81585" lon="-2.44974">
        <ele>109.9</ele>
        <time>2025-02-11T10:40:45Z</time>
      </trkpt>
      <trkpt lat="47.81584" lon="-2.44975">
        <ele>109.9</ele>
        <time>2025-02-11T10:40:46Z</time>
      </trkpt>
      <trkpt lat="47.81583" lon="-2.44975">
        <ele>110</ele>
        <time>2025-02-11T10:40:47Z</time>
      </trkpt>
      <trkpt lat="47.81582" lon="-2.44974">
        <ele>110.1</ele>
        <time>2025-02-11T10:40:48Z</time>
      </trkpt>
      <trkpt lat="47.81581" lon="-2.44975">
        <ele>110.3</ele>
        <time>2025-02-11T10:40:49Z</time>
      </trkpt>
      <trkpt lat="47.8158" lon="-2.44975">
        <ele>110.3</ele>
        <time>2025-02-11T10:40:50Z</time>
      </trkpt>
      <trkpt lat="47.81579" lon="-2.44976">
        <ele>110.4</ele>
        <time>2025-02-11T10:40:51Z</time>
      </trkpt>
      <trkpt lat="47.81578" lon="-2.44976">
        <ele>110.6</ele>
        <time>2025-02-11T10:40:52Z</time>
      </trkpt>
      <trkpt lat="47.81578" lon="-2.44976">
        <ele>110.6</ele>
        <time>2025-02-11T10:40:53Z</time>
      </trkpt>
      <trkpt lat="47.81578" lon="-2.44976">
        <ele>110.6</ele>
        <time>2025-02-11T10:40:54Z</time>
      </trkpt>
      <trkpt lat="47.8158" lon="-2.44976">
        <ele>110.4</ele>
        <time>2025-02-11T10:40:55Z</time>
      </trkpt>
      <trkpt lat="47.81581" lon="-2.44975">
        <ele>110.2</ele>
        <time>2025-02-11T10:40:56Z</time>
      </trkpt>
      <trkpt lat="47.81582" lon="-2.44975">
        <ele>110.2</ele>
        <time>2025-02-11T10:40:57Z</time>
      </trkpt>
      <trkpt lat="47.81581" lon="-2.44975">
        <ele>110.2</ele>
        <time>2025-02-11T10:40:58Z</time>
      </trkpt>
      <trkpt lat="47.81581" lon="-2.44975">
        <ele>110.3</ele>
        <time>2025-02-11T10:40:59Z</time>
      </trkpt>
      <trkpt lat="47.81578" lon="-2.44974">
        <ele>110.6</ele>
        <time>2025-02-11T10:41:00Z</time>
      </trkpt>
      <trkpt lat="47.81577" lon="-2.44974">
        <ele>110.7</ele>
        <time>2025-02-11T10:41:01Z</time>
      </trkpt>
      <trkpt lat="47.81576" lon="-2.44974">
        <ele>110.8</ele>
        <time>2025-02-11T10:41:02Z</time>
      </trkpt>
      <trkpt lat="47.81576" lon="-2.44974">
        <ele>110.8</ele>
        <time>2025-02-11T10:41:03Z</time>
      </trkpt>
      <trkpt lat="47.81576" lon="-2.44974">
        <ele>110.8</ele>
        <time>2025-02-11T10:41:04Z</time>
      </trkpt>
      <trkpt lat="47.81576" lon="-2.44974">
        <ele>110.8</ele>
        <time>2025-02-11T10:41:05Z</time>
      </trkpt>
      <trkpt lat="47.81574" lon="-2.44974">
        <ele>111</ele>
        <time>2025-02-11T10:41:06Z</time>
      </trkpt>
      <trkpt lat="47.81574" lon="-2.44974">
        <ele>111</ele>
        <time>2025-02-11T10:41:07Z</time>
      </trkpt>
      <trkpt lat="47.81573" lon="-2.44975">
        <ele>111.1</ele>
        <time>2025-02-11T10:41:08Z</time>
      </trkpt>
      <trkpt lat="47.81572" lon="-2.44975">
        <ele>111.2</ele>
        <time>2025-02-11T10:41:09Z</time>
      </trkpt>
      <trkpt lat="47.81572" lon="-2.44976">
        <ele>111.2</ele>
        <time>2025-02-11T10:41:10Z</time>
      </trkpt>
      <trkpt lat="47.81571" lon="-2.44976">
        <ele>111.4</ele>
        <time>2025-02-11T10:41:11Z</time>
      </trkpt>
      <trkpt lat="47.8157" lon="-2.44977">
        <ele>111.4</ele>
        <time>2025-02-11T10:41:12Z</time>
      </trkpt>
      <trkpt lat="47.81569" lon="-2.44976">
        <ele>111.5</ele>
        <time>2025-02-11T10:41:13Z</time>
      </trkpt>
      <trkpt lat="47.81568" lon="-2.44975">
        <ele>111.6</ele>
        <time>2025-02-11T10:41:14Z</time>
      </trkpt>
      <trkpt lat="47.81567" lon="-2.44974">
        <ele>111.8</ele>
        <time>2025-02-11T10:41:15Z</time>
      </trkpt>
      <trkpt lat="47.81566" lon="-2.44974">
        <ele>111.9</ele>
        <time>2025-02-11T10:41:16Z</time>
      </trkpt>
      <trkpt lat="47.81565" lon="-2.44974">
        <ele>111.9</ele>
        <time>2025-02-11T10:41:17Z</time>
      </trkpt>
      <trkpt lat="47.81565" lon="-2.44974">
        <ele>111.9</ele>
        <time>2025-02-11T10:41:18Z</time>
      </trkpt>
      <trkpt lat="47.81564" lon="-2.44973">
        <ele>112.1</ele>
        <time>2025-02-11T10:41:19Z</time>
      </trkpt>
      <trkpt lat="47.81563" lon="-2.44971">
        <ele>112.2</ele>
        <time>2025-02-11T10:41:20Z</time>
      </trkpt>
      <trkpt lat="47.81563" lon="-2.44971">
        <ele>112.2</ele>
        <time>2025-02-11T10:41:21Z</time>
      </trkpt>
      <trkpt lat="47.81562" lon="-2.4497">
        <ele>112.3</ele>
        <time>2025-02-11T10:41:22Z</time>
      </trkpt>
      <trkpt lat="47.81561" lon="-2.4497">
        <ele>112.4</ele>
        <time>2025-02-11T10:41:23Z</time>
      </trkpt>
      <trkpt lat="47.8156" lon="-2.4497">
        <ele>112.5</ele>
        <time>2025-02-11T10:41:24Z</time>
      </trkpt>
      <trkpt lat="47.81559" lon="-2.4497">
        <ele>112.6</ele>
        <time>2025-02-11T10:41:25Z</time>
      </trkpt>
      <trkpt lat="47.81558" lon="-2.44969">
        <ele>112.7</ele>
        <time>2025-02-11T10:41:26Z</time>
      </trkpt>
      <trkpt lat="47.81558" lon="-2.44969">
        <ele>112.8</ele>
        <time>2025-02-11T10:41:27Z</time>
      </trkpt>
      <trkpt lat="47.81557" lon="-2.44969">
        <ele>112.9</ele>
        <time>2025-02-11T10:41:28Z</time>
      </trkpt>
      <trkpt lat="47.81556" lon="-2.44969">
        <ele>113</ele>
        <time>2025-02-11T10:41:29Z</time>
      </trkpt>
      <trkpt lat="47.81555" lon="-2.44968">
        <ele>113.1</ele>
        <time>2025-02-11T10:41:30Z</time>
      </trkpt>
      <trkpt lat="47.81555" lon="-2.44967">
        <ele>113.1</ele>
        <time>2025-02-11T10:41:31Z</time>
      </trkpt>
      <trkpt lat="47.81556" lon="-2.44967">
        <ele>113</ele>
        <time>2025-02-11T10:41:32Z</time>
      </trkpt>
      <trkpt lat="47.81555" lon="-2.44967">
        <ele>113</ele>
        <time>2025-02-11T10:41:33Z</time>
      </trkpt>
      <trkpt lat="47.81554" lon="-2.44966">
        <ele>113.1</ele>
        <time>2025-02-11T10:41:34Z</time>
      </trkpt>
      <trkpt lat="47.81554" lon="-2.44967">
        <ele>113.1</ele>
        <time>2025-02-11T10:41:35Z</time>
      </trkpt>
      <trkpt lat="47.81552" lon="-2.44967">
        <ele>113.2</ele>
        <time>2025-02-11T10:41:36Z</time>
      </trkpt>
      <trkpt lat="47.81551" lon="-2.44967">
        <ele>113.3</ele>
        <time>2025-02-11T10:41:37Z</time>
      </trkpt>
      <trkpt lat="47.81551" lon="-2.44967">
        <ele>113.4</ele>
        <time>2025-02-11T10:41:38Z</time>
      </trkpt>
      <trkpt lat="47.8155" lon="-2.44968">
        <ele>113.4</ele>
        <time>2025-02-11T10:41:39Z</time>
      </trkpt>
      <trkpt lat="47.81549" lon="-2.44968">
        <ele>113.5</ele>
        <time>2025-02-11T10:41:40Z</time>
      </trkpt>
      <trkpt lat="47.81549" lon="-2.44967">
        <ele>113.5</ele>
        <time>2025-02-11T10:41:41Z</time>
      </trkpt>
      <trkpt lat="47.81548" lon="-2.44967">
        <ele>113.6</ele>
        <time>2025-02-11T10:41:42Z</time>
      </trkpt>
      <trkpt lat="47.81547" lon="-2.44967">
        <ele>113.6</ele>
        <time>2025-02-11T10:41:43Z</time>
      </trkpt>
      <trkpt lat="47.81546" lon="-2.44967">
        <ele>113.7</ele>
        <time>2025-02-11T10:41:44Z</time>
      </trkpt>
      <trkpt lat="47.81546" lon="-2.44966">
        <ele>113.7</ele>
        <time>2025-02-11T10:41:45Z</time>
      </trkpt>
      <trkpt lat="47.81545" lon="-2.44966">
        <ele>113.8</ele>
        <time>2025-02-11T10:41:46Z</time>
      </trkpt>
      <trkpt lat="47.81544" lon="-2.44966">
        <ele>113.8</ele>
        <time>2025-02-11T10:41:47Z</time>
      </trkpt>
      <trkpt lat="47.81544" lon="-2.44965">
        <ele>113.9</ele>
        <time>2025-02-11T10:41:48Z</time>
      </trkpt>
      <trkpt lat="47.81543" lon="-2.44965">
        <ele>113.9</ele>
        <time>2025-02-11T10:41:49Z</time>
      </trkpt>
      <trkpt lat="47.81542" lon="-2.44966">
        <ele>114</ele>
        <time>2025-02-11T10:41:50Z</time>
      </trkpt>
      <trkpt lat="47.81542" lon="-2.44966">
        <ele>114</ele>
        <time>2025-02-11T10:41:51Z</time>
      </trkpt>
      <trkpt lat="47.81542" lon="-2.44967">
        <ele>114</ele>
        <time>2025-02-11T10:41:52Z</time>
      </trkpt>
      <trkpt lat="47.81543" lon="-2.44967">
        <ele>113.9</ele>
        <time>2025-02-11T10:41:53Z</time>
      </trkpt>
      <trkpt lat="47.81545" lon="-2.44968">
        <ele>113.7</ele>
        <time>2025-02-11T10:41:54Z</time>
      </trkpt>
      <trkpt lat="47.81546" lon="-2.44966">
        <ele>113.7</ele>
        <time>2025-02-11T10:41:55Z</time>
      </trkpt>
      <trkpt lat="47.81542" lon="-2.44965">
        <ele>114</ele>
        <time>2025-02-11T10:41:56Z</time>
      </trkpt>
      <trkpt lat="47.81538" lon="-2.44966">
        <ele>114.3</ele>
        <time>2025-02-11T10:41:57Z</time>
      </trkpt>
      <trkpt lat="47.81537" lon="-2.44969">
        <ele>114.3</ele>
        <time>2025-02-11T10:41:58Z</time>
      </trkpt>
      <trkpt lat="47.81538" lon="-2.44973">
        <ele>114.3</ele>
        <time>2025-02-11T10:41:59Z</time>
      </trkpt>
      <trkpt lat="47.81537" lon="-2.44975">
        <ele>114.3</ele>
        <time>2025-02-11T10:42:00Z</time>
      </trkpt>
      <trkpt lat="47.81537" lon="-2.44977">
        <ele>114.4</ele>
        <time>2025-02-11T10:42:01Z</time>
      </trkpt>
      <trkpt lat="47.81536" lon="-2.44978">
        <ele>114.4</ele>
        <time>2025-02-11T10:42:02Z</time>
      </trkpt>
      <trkpt lat="47.81536" lon="-2.44979">
        <ele>114.4</ele>
        <time>2025-02-11T10:42:03Z</time>
      </trkpt>
      <trkpt lat="47.81535" lon="-2.4498">
        <ele>114.5</ele>
        <time>2025-02-11T10:42:04Z</time>
      </trkpt>
      <trkpt lat="47.81535" lon="-2.4498">
        <ele>114.5</ele>
        <time>2025-02-11T10:42:05Z</time>
      </trkpt>
      <trkpt lat="47.81534" lon="-2.44979">
        <ele>114.5</ele>
        <time>2025-02-11T10:42:06Z</time>
      </trkpt>
      <trkpt lat="47.81533" lon="-2.44978">
        <ele>114.6</ele>
        <time>2025-02-11T10:42:07Z</time>
      </trkpt>
      <trkpt lat="47.81533" lon="-2.44977">
        <ele>114.7</ele>
        <time>2025-02-11T10:42:08Z</time>
      </trkpt>
      <trkpt lat="47.81532" lon="-2.44975">
        <ele>114.7</ele>
        <time>2025-02-11T10:42:09Z</time>
      </trkpt>
      <trkpt lat="47.81532" lon="-2.44974">
        <ele>114.7</ele>
        <time>2025-02-11T10:42:10Z</time>
      </trkpt>
      <trkpt lat="47.81531" lon="-2.44973">
        <ele>114.7</ele>
        <time>2025-02-11T10:42:11Z</time>
      </trkpt>
      <trkpt lat="47.8153" lon="-2.44972">
        <ele>114.8</ele>
        <time>2025-02-11T10:42:12Z</time>
      </trkpt>
      <trkpt lat="47.8153" lon="-2.44972">
        <ele>114.9</ele>
        <time>2025-02-11T10:42:13Z</time>
      </trkpt>
      <trkpt lat="47.81529" lon="-2.44972">
        <ele>114.9</ele>
        <time>2025-02-11T10:42:14Z</time>
      </trkpt>
      <trkpt lat="47.81531" lon="-2.44971">
        <ele>114.8</ele>
        <time>2025-02-11T10:42:15Z</time>
      </trkpt>
      <trkpt lat="47.8153" lon="-2.44971">
        <ele>114.8</ele>
        <time>2025-02-11T10:42:16Z</time>
      </trkpt>
      <trkpt lat="47.8153" lon="-2.44971">
        <ele>114.9</ele>
        <time>2025-02-11T10:42:17Z</time>
      </trkpt>
      <trkpt lat="47.81529" lon="-2.44969">
        <ele>114.9</ele>
        <time>2025-02-11T10:42:18Z</time>
      </trkpt>
      <trkpt lat="47.81529" lon="-2.44968">
        <ele>114.9</ele>
        <time>2025-02-11T10:42:19Z</time>
      </trkpt>
      <trkpt lat="47.81529" lon="-2.44967">
        <ele>114.9</ele>
        <time>2025-02-11T10:42:20Z</time>
      </trkpt>
      <trkpt lat="47.81529" lon="-2.44966">
        <ele>114.9</ele>
        <time>2025-02-11T10:42:21Z</time>
      </trkpt>
      <trkpt lat="47.81528" lon="-2.44966">
        <ele>115</ele>
        <time>2025-02-11T10:42:22Z</time>
      </trkpt>
      <trkpt lat="47.81528" lon="-2.44965">
        <ele>115</ele>
        <time>2025-02-11T10:42:23Z</time>
      </trkpt>
      <trkpt lat="47.81528" lon="-2.44964">
        <ele>115</ele>
        <time>2025-02-11T10:42:24Z</time>
      </trkpt>
      <trkpt lat="47.81527" lon="-2.44963">
        <ele>115.1</ele>
        <time>2025-02-11T10:42:25Z</time>
      </trkpt>
      <trkpt lat="47.81526" lon="-2.44963">
        <ele>115.1</ele>
        <time>2025-02-11T10:42:26Z</time>
      </trkpt>
      <trkpt lat="47.81526" lon="-2.44962">
        <ele>115.2</ele>
        <time>2025-02-11T10:42:27Z</time>
      </trkpt>
      <trkpt lat="47.81525" lon="-2.44962">
        <ele>115.3</ele>
        <time>2025-02-11T10:42:28Z</time>
      </trkpt>
      <trkpt lat="47.81525" lon="-2.44962">
        <ele>115.3</ele>
        <time>2025-02-11T10:42:29Z</time>
      </trkpt>
      <trkpt lat="47.81524" lon="-2.44961">
        <ele>115.3</ele>
        <time>2025-02-11T10:42:30Z</time>
      </trkpt>
      <trkpt lat="47.81524" lon="-2.44961">
        <ele>115.4</ele>
        <time>2025-02-11T10:42:31Z</time>
      </trkpt>
      <trkpt lat="47.81525" lon="-2.44962">
        <ele>115.3</ele>
        <time>2025-02-11T10:42:32Z</time>
      </trkpt>
      <trkpt lat="47.81525" lon="-2.44962">
        <ele>115.2</ele>
        <time>2025-02-11T10:42:33Z</time>
      </trkpt>
      <trkpt lat="47.81525" lon="-2.44962">
        <ele>115.2</ele>
        <time>2025-02-11T10:42:34Z</time>
      </trkpt>
      <trkpt lat="47.81525" lon="-2.44962">
        <ele>115.2</ele>
        <time>2025-02-11T10:42:35Z</time>
      </trkpt>
      <trkpt lat="47.81525" lon="-2.44962">
        <ele>115.2</ele>
        <time>2025-02-11T10:42:36Z</time>
      </trkpt>
      <trkpt lat="47.81525" lon="-2.44961">
        <ele>115.3</ele>
        <time>2025-02-11T10:42:37Z</time>
      </trkpt>
      <trkpt lat="47.81525" lon="-2.44962">
        <ele>115.3</ele>
        <time>2025-02-11T10:42:38Z</time>
      </trkpt>
      <trkpt lat="47.81523" lon="-2.44961">
        <ele>115.4</ele>
        <time>2025-02-11T10:42:39Z</time>
      </trkpt>
      <trkpt lat="47.81523" lon="-2.44961">
        <ele>115.4</ele>
        <time>2025-02-11T10:42:40Z</time>
      </trkpt>
      <trkpt lat="47.81522" lon="-2.44961">
        <ele>115.5</ele>
        <time>2025-02-11T10:42:41Z</time>
      </trkpt>
      <trkpt lat="47.81522" lon="-2.44963">
        <ele>115.6</ele>
        <time>2025-02-11T10:42:42Z</time>
      </trkpt>
      <trkpt lat="47.81522" lon="-2.44965">
        <ele>115.6</ele>
        <time>2025-02-11T10:42:43Z</time>
      </trkpt>
      <trkpt lat="47.81522" lon="-2.44967">
        <ele>115.6</ele>
        <time>2025-02-11T10:42:44Z</time>
      </trkpt>
      <trkpt lat="47.81521" lon="-2.44968">
        <ele>115.7</ele>
        <time>2025-02-11T10:42:45Z</time>
      </trkpt>
      <trkpt lat="47.81521" lon="-2.44969">
        <ele>115.7</ele>
        <time>2025-02-11T10:42:46Z</time>
      </trkpt>
      <trkpt lat="47.81522" lon="-2.4497">
        <ele>115.6</ele>
        <time>2025-02-11T10:42:47Z</time>
      </trkpt>
      <trkpt lat="47.81521" lon="-2.44971">
        <ele>115.7</ele>
        <time>2025-02-11T10:42:48Z</time>
      </trkpt>
      <trkpt lat="47.81521" lon="-2.44971">
        <ele>115.7</ele>
        <time>2025-02-11T10:42:49Z</time>
      </trkpt>
      <trkpt lat="47.8152" lon="-2.44971">
        <ele>115.8</ele>
        <time>2025-02-11T10:42:50Z</time>
      </trkpt>
      <trkpt lat="47.8152" lon="-2.44971">
        <ele>115.8</ele>
        <time>2025-02-11T10:42:51Z</time>
      </trkpt>
      <trkpt lat="47.8152" lon="-2.44972">
        <ele>115.8</ele>
        <time>2025-02-11T10:42:52Z</time>
      </trkpt>
      <trkpt lat="47.81521" lon="-2.44973">
        <ele>115.8</ele>
        <time>2025-02-11T10:42:53Z</time>
      </trkpt>
      <trkpt lat="47.81521" lon="-2.44973">
        <ele>115.8</ele>
        <time>2025-02-11T10:42:54Z</time>
      </trkpt>
      <trkpt lat="47.81521" lon="-2.44973">
        <ele>115.7</ele>
        <time>2025-02-11T10:42:55Z</time>
      </trkpt>
      <trkpt lat="47.81521" lon="-2.44973">
        <ele>115.7</ele>
        <time>2025-02-11T10:42:56Z</time>
      </trkpt>
      <trkpt lat="47.81521" lon="-2.44973">
        <ele>115.7</ele>
        <time>2025-02-11T10:42:57Z</time>
      </trkpt>
      <trkpt lat="47.81521" lon="-2.44973">
        <ele>115.7</ele>
        <time>2025-02-11T10:42:58Z</time>
      </trkpt>
      <trkpt lat="47.81521" lon="-2.44973">
        <ele>115.7</ele>
        <time>2025-02-11T10:42:59Z</time>
      </trkpt>
      <trkpt lat="47.81521" lon="-2.44973">
        <ele>115.7</ele>
        <time>2025-02-11T10:43:00Z</time>
      </trkpt>
      <trkpt lat="47.81521" lon="-2.44973">
        <ele>115.7</ele>
        <time>2025-02-11T10:43:01Z</time>
      </trkpt>
      <trkpt lat="47.81521" lon="-2.44972">
        <ele>115.7</ele>
        <time>2025-02-11T10:43:02Z</time>
      </trkpt>
      <trkpt lat="47.81521" lon="-2.44972">
        <ele>115.7</ele>
        <time>2025-02-11T10:43:03Z</time>
      </trkpt>
      <trkpt lat="47.81521" lon="-2.44972">
        <ele>115.7</ele>
        <time>2025-02-11T10:43:04Z</time>
      </trkpt>
      <trkpt lat="47.81521" lon="-2.44972">
        <ele>115.7</ele>
        <time>2025-02-11T10:43:05Z</time>
      </trkpt>
      <trkpt lat="47.81521" lon="-2.44972">
        <ele>115.7</ele>
        <time>2025-02-11T10:43:06Z</time>
      </trkpt>
      <trkpt lat="47.81521" lon="-2.44973">
        <ele>115.7</ele>
        <time>2025-02-11T10:43:07Z</time>
      </trkpt>
      <trkpt lat="47.8152" lon="-2.44973">
        <ele>115.8</ele>
        <time>2025-02-11T10:43:08Z</time>
      </trkpt>
      <trkpt lat="47.8152" lon="-2.44974">
        <ele>115.9</ele>
        <time>2025-02-11T10:43:09Z</time>
      </trkpt>
      <trkpt lat="47.81519" lon="-2.44975">
        <ele>115.9</ele>
        <time>2025-02-11T10:43:10Z</time>
      </trkpt>
      <trkpt lat="47.81519" lon="-2.44976">
        <ele>116</ele>
        <time>2025-02-11T10:43:11Z</time>
      </trkpt>
      <trkpt lat="47.81518" lon="-2.44977">
        <ele>116.1</ele>
        <time>2025-02-11T10:43:12Z</time>
      </trkpt>
      <trkpt lat="47.81518" lon="-2.44978">
        <ele>116.1</ele>
        <time>2025-02-11T10:43:13Z</time>
      </trkpt>
      <trkpt lat="47.81517" lon="-2.44979">
        <ele>116.2</ele>
        <time>2025-02-11T10:43:14Z</time>
      </trkpt>
      <trkpt lat="47.81516" lon="-2.44979">
        <ele>116.2</ele>
        <time>2025-02-11T10:43:15Z</time>
      </trkpt>
      <trkpt lat="47.81516" lon="-2.44981">
        <ele>116.3</ele>
        <time>2025-02-11T10:43:16Z</time>
      </trkpt>
      <trkpt lat="47.81515" lon="-2.44982">
        <ele>116.4</ele>
        <time>2025-02-11T10:43:17Z</time>
      </trkpt>
      <trkpt lat="47.81514" lon="-2.44983">
        <ele>116.5</ele>
        <time>2025-02-11T10:43:18Z</time>
      </trkpt>
      <trkpt lat="47.81514" lon="-2.44983">
        <ele>116.5</ele>
        <time>2025-02-11T10:43:19Z</time>
      </trkpt>
      <trkpt lat="47.81513" lon="-2.44984">
        <ele>116.6</ele>
        <time>2025-02-11T10:43:20Z</time>
      </trkpt>
      <trkpt lat="47.81512" lon="-2.44986">
        <ele>116.7</ele>
        <time>2025-02-11T10:43:21Z</time>
      </trkpt>
      <trkpt lat="47.81512" lon="-2.44987">
        <ele>116.7</ele>
        <time>2025-02-11T10:43:22Z</time>
      </trkpt>
      <trkpt lat="47.81512" lon="-2.44988">
        <ele>116.7</ele>
        <time>2025-02-11T10:43:23Z</time>
      </trkpt>
      <trkpt lat="47.81511" lon="-2.44989">
        <ele>116.8</ele>
        <time>2025-02-11T10:43:24Z</time>
      </trkpt>
      <trkpt lat="47.8151" lon="-2.4499">
        <ele>116.9</ele>
        <time>2025-02-11T10:43:25Z</time>
      </trkpt>
      <trkpt lat="47.81509" lon="-2.44991">
        <ele>117</ele>
        <time>2025-02-11T10:43:26Z</time>
      </trkpt>
      <trkpt lat="47.81508" lon="-2.44991">
        <ele>117.2</ele>
        <time>2025-02-11T10:43:27Z</time>
      </trkpt>
      <trkpt lat="47.81507" lon="-2.4499">
        <ele>117.3</ele>
        <time>2025-02-11T10:43:28Z</time>
      </trkpt>
      <trkpt lat="47.81506" lon="-2.44989">
        <ele>117.4</ele>
        <time>2025-02-11T10:43:29Z</time>
      </trkpt>
      <trkpt lat="47.81505" lon="-2.44988">
        <ele>117.5</ele>
        <time>2025-02-11T10:43:30Z</time>
      </trkpt>
      <trkpt lat="47.81505" lon="-2.44987">
        <ele>117.5</ele>
        <time>2025-02-11T10:43:31Z</time>
      </trkpt>
      <trkpt lat="47.81505" lon="-2.44987">
        <ele>117.5</ele>
        <time>2025-02-11T10:43:32Z</time>
      </trkpt>
      <trkpt lat="47.81504" lon="-2.44987">
        <ele>117.6</ele>
        <time>2025-02-11T10:43:33Z</time>
      </trkpt>
      <trkpt lat="47.81503" lon="-2.44986">
        <ele>117.7</ele>
        <time>2025-02-11T10:43:34Z</time>
      </trkpt>
      <trkpt lat="47.81502" lon="-2.44985">
        <ele>117.8</ele>
        <time>2025-02-11T10:43:35Z</time>
      </trkpt>
      <trkpt lat="47.81501" lon="-2.44984">
        <ele>117.9</ele>
        <time>2025-02-11T10:43:36Z</time>
      </trkpt>
      <trkpt lat="47.81501" lon="-2.44984">
        <ele>117.9</ele>
        <time>2025-02-11T10:43:37Z</time>
      </trkpt>
      <trkpt lat="47.815" lon="-2.44984">
        <ele>118</ele>
        <time>2025-02-11T10:43:38Z</time>
      </trkpt>
      <trkpt lat="47.81499" lon="-2.44984">
        <ele>118</ele>
        <time>2025-02-11T10:43:39Z</time>
      </trkpt>
      <trkpt lat="47.81499" lon="-2.44983">
        <ele>118</ele>
        <time>2025-02-11T10:43:40Z</time>
      </trkpt>
      <trkpt lat="47.81498" lon="-2.44982">
        <ele>118.1</ele>
        <time>2025-02-11T10:43:41Z</time>
      </trkpt>
      <trkpt lat="47.81498" lon="-2.44981">
        <ele>118.1</ele>
        <time>2025-02-11T10:43:42Z</time>
      </trkpt>
      <trkpt lat="47.81497" lon="-2.44981">
        <ele>118.1</ele>
        <time>2025-02-11T10:43:43Z</time>
      </trkpt>
      <trkpt lat="47.81495" lon="-2.4498">
        <ele>118.2</ele>
        <time>2025-02-11T10:43:44Z</time>
      </trkpt>
      <trkpt lat="47.81494" lon="-2.44979">
        <ele>118.2</ele>
        <time>2025-02-11T10:43:45Z</time>
      </trkpt>
      <trkpt lat="47.81494" lon="-2.44978">
        <ele>118.2</ele>
        <time>2025-02-11T10:43:46Z</time>
      </trkpt>
      <trkpt lat="47.81494" lon="-2.44976">
        <ele>118.2</ele>
        <time>2025-02-11T10:43:47Z</time>
      </trkpt>
      <trkpt lat="47.81494" lon="-2.44975">
        <ele>118.2</ele>
        <time>2025-02-11T10:43:48Z</time>
      </trkpt>
      <trkpt lat="47.81493" lon="-2.44974">
        <ele>118.3</ele>
        <time>2025-02-11T10:43:49Z</time>
      </trkpt>
      <trkpt lat="47.81492" lon="-2.44973">
        <ele>118.3</ele>
        <time>2025-02-11T10:43:50Z</time>
      </trkpt>
      <trkpt lat="47.81491" lon="-2.44972">
        <ele>118.3</ele>
        <time>2025-02-11T10:43:51Z</time>
      </trkpt>
      <trkpt lat="47.8149" lon="-2.44972">
        <ele>118.3</ele>
        <time>2025-02-11T10:43:52Z</time>
      </trkpt>
      <trkpt lat="47.81489" lon="-2.44972">
        <ele>118.4</ele>
        <time>2025-02-11T10:43:53Z</time>
      </trkpt>
      <trkpt lat="47.81488" lon="-2.44972">
        <ele>118.4</ele>
        <time>2025-02-11T10:43:54Z</time>
      </trkpt>
      <trkpt lat="47.81487" lon="-2.44973">
        <ele>118.5</ele>
        <time>2025-02-11T10:43:55Z</time>
      </trkpt>
      <trkpt lat="47.81486" lon="-2.44974">
        <ele>118.5</ele>
        <time>2025-02-11T10:43:56Z</time>
      </trkpt>
      <trkpt lat="47.81484" lon="-2.44976">
        <ele>118.6</ele>
        <time>2025-02-11T10:43:57Z</time>
      </trkpt>
      <trkpt lat="47.81483" lon="-2.44977">
        <ele>118.6</ele>
        <time>2025-02-11T10:43:58Z</time>
      </trkpt>
      <trkpt lat="47.81482" lon="-2.44977">
        <ele>118.7</ele>
        <time>2025-02-11T10:43:59Z</time>
      </trkpt>
      <trkpt lat="47.81481" lon="-2.44977">
        <ele>118.7</ele>
        <time>2025-02-11T10:44:00Z</time>
      </trkpt>
      <trkpt lat="47.8148" lon="-2.44976">
        <ele>118.7</ele>
        <time>2025-02-11T10:44:01Z</time>
      </trkpt>
      <trkpt lat="47.81479" lon="-2.44976">
        <ele>118.8</ele>
        <time>2025-02-11T10:44:02Z</time>
      </trkpt>
      <trkpt lat="47.81478" lon="-2.44976">
        <ele>118.8</ele>
        <time>2025-02-11T10:44:03Z</time>
      </trkpt>
      <trkpt lat="47.81477" lon="-2.44976">
        <ele>118.8</ele>
        <time>2025-02-11T10:44:04Z</time>
      </trkpt>
      <trkpt lat="47.81476" lon="-2.44975">
        <ele>118.8</ele>
        <time>2025-02-11T10:44:05Z</time>
      </trkpt>
      <trkpt lat="47.81476" lon="-2.44975">
        <ele>118.9</ele>
        <time>2025-02-11T10:44:06Z</time>
      </trkpt>
      <trkpt lat="47.81475" lon="-2.44974">
        <ele>118.9</ele>
        <time>2025-02-11T10:44:07Z</time>
      </trkpt>
      <trkpt lat="47.81474" lon="-2.44974">
        <ele>118.9</ele>
        <time>2025-02-11T10:44:08Z</time>
      </trkpt>
      <trkpt lat="47.81473" lon="-2.44974">
        <ele>119</ele>
        <time>2025-02-11T10:44:09Z</time>
      </trkpt>
      <trkpt lat="47.81472" lon="-2.44973">
        <ele>119</ele>
        <time>2025-02-11T10:44:10Z</time>
      </trkpt>
      <trkpt lat="47.81471" lon="-2.44973">
        <ele>119</ele>
        <time>2025-02-11T10:44:11Z</time>
      </trkpt>
      <trkpt lat="47.8147" lon="-2.44975">
        <ele>119</ele>
        <time>2025-02-11T10:44:12Z</time>
      </trkpt>
      <trkpt lat="47.81468" lon="-2.44974">
        <ele>119</ele>
        <time>2025-02-11T10:44:13Z</time>
      </trkpt>
      <trkpt lat="47.81468" lon="-2.44974">
        <ele>119</ele>
        <time>2025-02-11T10:44:14Z</time>
      </trkpt>
      <trkpt lat="47.81467" lon="-2.44973">
        <ele>119</ele>
        <time>2025-02-11T10:44:15Z</time>
      </trkpt>
      <trkpt lat="47.81467" lon="-2.44974">
        <ele>119</ele>
        <time>2025-02-11T10:44:16Z</time>
      </trkpt>
      <trkpt lat="47.81466" lon="-2.44973">
        <ele>119</ele>
        <time>2025-02-11T10:44:17Z</time>
      </trkpt>
      <trkpt lat="47.81465" lon="-2.44972">
        <ele>119</ele>
        <time>2025-02-11T10:44:18Z</time>
      </trkpt>
      <trkpt lat="47.81464" lon="-2.44971">
        <ele>119</ele>
        <time>2025-02-11T10:44:19Z</time>
      </trkpt>
      <trkpt lat="47.81463" lon="-2.4497">
        <ele>119</ele>
        <time>2025-02-11T10:44:20Z</time>
      </trkpt>
      <trkpt lat="47.81462" lon="-2.44971">
        <ele>119</ele>
        <time>2025-02-11T10:44:21Z</time>
      </trkpt>
      <trkpt lat="47.81461" lon="-2.44971">
        <ele>119</ele>
        <time>2025-02-11T10:44:22Z</time>
      </trkpt>
      <trkpt lat="47.8146" lon="-2.44971">
        <ele>119</ele>
        <time>2025-02-11T10:44:23Z</time>
      </trkpt>
      <trkpt lat="47.81459" lon="-2.4497">
        <ele>119</ele>
        <time>2025-02-11T10:44:24Z</time>
      </trkpt>
      <trkpt lat="47.81458" lon="-2.44969">
        <ele>118.9</ele>
        <time>2025-02-11T10:44:25Z</time>
      </trkpt>
      <trkpt lat="47.81457" lon="-2.44969">
        <ele>118.9</ele>
        <time>2025-02-11T10:44:26Z</time>
      </trkpt>
      <trkpt lat="47.81456" lon="-2.44968">
        <ele>118.9</ele>
        <time>2025-02-11T10:44:27Z</time>
      </trkpt>
      <trkpt lat="47.81454" lon="-2.44968">
        <ele>119</ele>
        <time>2025-02-11T10:44:28Z</time>
      </trkpt>
      <trkpt lat="47.81453" lon="-2.44968">
        <ele>118.9</ele>
        <time>2025-02-11T10:44:29Z</time>
      </trkpt>
      <trkpt lat="47.81452" lon="-2.44967">
        <ele>118.9</ele>
        <time>2025-02-11T10:44:30Z</time>
      </trkpt>
      <trkpt lat="47.8145" lon="-2.44967">
        <ele>119</ele>
        <time>2025-02-11T10:44:31Z</time>
      </trkpt>
      <trkpt lat="47.81449" lon="-2.44966">
        <ele>119</ele>
        <time>2025-02-11T10:44:32Z</time>
      </trkpt>
      <trkpt lat="47.81447" lon="-2.44966">
        <ele>119</ele>
        <time>2025-02-11T10:44:33Z</time>
      </trkpt>
      <trkpt lat="47.81446" lon="-2.44966">
        <ele>119</ele>
        <time>2025-02-11T10:44:34Z</time>
      </trkpt>
      <trkpt lat="47.81444" lon="-2.44966">
        <ele>119</ele>
        <time>2025-02-11T10:44:35Z</time>
      </trkpt>
      <trkpt lat="47.81443" lon="-2.44966">
        <ele>119</ele>
        <time>2025-02-11T10:44:36Z</time>
      </trkpt>
      <trkpt lat="47.81442" lon="-2.44966">
        <ele>119.1</ele>
        <time>2025-02-11T10:44:37Z</time>
      </trkpt>
      <trkpt lat="47.81442" lon="-2.44966">
        <ele>119.1</ele>
        <time>2025-02-11T10:44:38Z</time>
      </trkpt>
      <trkpt lat="47.81441" lon="-2.44966">
        <ele>119.1</ele>
        <time>2025-02-11T10:44:39Z</time>
      </trkpt>
      <trkpt lat="47.81439" lon="-2.44966">
        <ele>119.2</ele>
        <time>2025-02-11T10:44:40Z</time>
      </trkpt>
      <trkpt lat="47.81438" lon="-2.44967">
        <ele>119.2</ele>
        <time>2025-02-11T10:44:41Z</time>
      </trkpt>
      <trkpt lat="47.81438" lon="-2.44967">
        <ele>119.3</ele>
        <time>2025-02-11T10:44:42Z</time>
      </trkpt>
      <trkpt lat="47.81437" lon="-2.44967">
        <ele>119.3</ele>
        <time>2025-02-11T10:44:43Z</time>
      </trkpt>
      <trkpt lat="47.81436" lon="-2.44967">
        <ele>119.3</ele>
        <time>2025-02-11T10:44:44Z</time>
      </trkpt>
      <trkpt lat="47.81435" lon="-2.44968">
        <ele>119.4</ele>
        <time>2025-02-11T10:44:45Z</time>
      </trkpt>
      <trkpt lat="47.81434" lon="-2.44968">
        <ele>119.4</ele>
        <time>2025-02-11T10:44:46Z</time>
      </trkpt>
      <trkpt lat="47.81432" lon="-2.44968">
        <ele>119.4</ele>
        <time>2025-02-11T10:44:47Z</time>
      </trkpt>
      <trkpt lat="47.81431" lon="-2.44968">
        <ele>119.5</ele>
        <time>2025-02-11T10:44:48Z</time>
      </trkpt>
      <trkpt lat="47.81431" lon="-2.44968">
        <ele>119.5</ele>
        <time>2025-02-11T10:44:49Z</time>
      </trkpt>
      <trkpt lat="47.8143" lon="-2.44967">
        <ele>119.5</ele>
        <time>2025-02-11T10:44:50Z</time>
      </trkpt>
      <trkpt lat="47.81429" lon="-2.44968">
        <ele>119.6</ele>
        <time>2025-02-11T10:44:51Z</time>
      </trkpt>
      <trkpt lat="47.81428" lon="-2.44969">
        <ele>119.6</ele>
        <time>2025-02-11T10:44:52Z</time>
      </trkpt>
      <trkpt lat="47.81427" lon="-2.4497">
        <ele>119.6</ele>
        <time>2025-02-11T10:44:53Z</time>
      </trkpt>
      <trkpt lat="47.81427" lon="-2.44971">
        <ele>119.6</ele>
        <time>2025-02-11T10:44:54Z</time>
      </trkpt>
      <trkpt lat="47.81426" lon="-2.44972">
        <ele>119.7</ele>
        <time>2025-02-11T10:44:55Z</time>
      </trkpt>
      <trkpt lat="47.81425" lon="-2.44973">
        <ele>119.7</ele>
        <time>2025-02-11T10:44:56Z</time>
      </trkpt>
      <trkpt lat="47.81425" lon="-2.44974">
        <ele>119.7</ele>
        <time>2025-02-11T10:44:57Z</time>
      </trkpt>
      <trkpt lat="47.81424" lon="-2.44975">
        <ele>119.8</ele>
        <time>2025-02-11T10:44:58Z</time>
      </trkpt>
      <trkpt lat="47.81424" lon="-2.44976">
        <ele>119.8</ele>
        <time>2025-02-11T10:44:59Z</time>
      </trkpt>
      <trkpt lat="47.81423" lon="-2.44977">
        <ele>119.8</ele>
        <time>2025-02-11T10:45:00Z</time>
      </trkpt>
      <trkpt lat="47.81422" lon="-2.44978">
        <ele>119.8</ele>
        <time>2025-02-11T10:45:01Z</time>
      </trkpt>
      <trkpt lat="47.81421" lon="-2.44979">
        <ele>119.9</ele>
        <time>2025-02-11T10:45:02Z</time>
      </trkpt>
      <trkpt lat="47.81421" lon="-2.44981">
        <ele>119.9</ele>
        <time>2025-02-11T10:45:03Z</time>
      </trkpt>
      <trkpt lat="47.81421" lon="-2.44982">
        <ele>119.9</ele>
        <time>2025-02-11T10:45:04Z</time>
      </trkpt>
      <trkpt lat="47.8142" lon="-2.44983">
        <ele>119.9</ele>
        <time>2025-02-11T10:45:05Z</time>
      </trkpt>
      <trkpt lat="47.8142" lon="-2.44984">
        <ele>119.9</ele>
        <time>2025-02-11T10:45:06Z</time>
      </trkpt>
      <trkpt lat="47.81419" lon="-2.44985">
        <ele>120</ele>
        <time>2025-02-11T10:45:07Z</time>
      </trkpt>
      <trkpt lat="47.81418" lon="-2.44986">
        <ele>120</ele>
        <time>2025-02-11T10:45:08Z</time>
      </trkpt>
      <trkpt lat="47.81418" lon="-2.44987">
        <ele>120</ele>
        <time>2025-02-11T10:45:09Z</time>
      </trkpt>
      <trkpt lat="47.81417" lon="-2.44988">
        <ele>120</ele>
        <time>2025-02-11T10:45:10Z</time>
      </trkpt>
      <trkpt lat="47.81417" lon="-2.44989">
        <ele>120</ele>
        <time>2025-02-11T10:45:11Z</time>
      </trkpt>
      <trkpt lat="47.81415" lon="-2.44989">
        <ele>120</ele>
        <time>2025-02-11T10:45:12Z</time>
      </trkpt>
      <trkpt lat="47.81414" lon="-2.44991">
        <ele>119.9</ele>
        <time>2025-02-11T10:45:13Z</time>
      </trkpt>
      <trkpt lat="47.81413" lon="-2.44991">
        <ele>119.9</ele>
        <time>2025-02-11T10:45:14Z</time>
      </trkpt>
      <trkpt lat="47.81412" lon="-2.44991">
        <ele>119.8</ele>
        <time>2025-02-11T10:45:15Z</time>
      </trkpt>
      <trkpt lat="47.81411" lon="-2.44991">
        <ele>119.8</ele>
        <time>2025-02-11T10:45:16Z</time>
      </trkpt>
      <trkpt lat="47.8141" lon="-2.44991">
        <ele>119.7</ele>
        <time>2025-02-11T10:45:17Z</time>
      </trkpt>
      <trkpt lat="47.81408" lon="-2.44991">
        <ele>119.7</ele>
        <time>2025-02-11T10:45:18Z</time>
      </trkpt>
      <trkpt lat="47.81407" lon="-2.44991">
        <ele>119.7</ele>
        <time>2025-02-11T10:45:19Z</time>
      </trkpt>
      <trkpt lat="47.81406" lon="-2.4499">
        <ele>119.6</ele>
        <time>2025-02-11T10:45:20Z</time>
      </trkpt>
      <trkpt lat="47.81405" lon="-2.4499">
        <ele>119.6</ele>
        <time>2025-02-11T10:45:21Z</time>
      </trkpt>
      <trkpt lat="47.81404" lon="-2.44991">
        <ele>119.5</ele>
        <time>2025-02-11T10:45:22Z</time>
      </trkpt>
      <trkpt lat="47.81403" lon="-2.44992">
        <ele>119.5</ele>
        <time>2025-02-11T10:45:23Z</time>
      </trkpt>
      <trkpt lat="47.81402" lon="-2.44992">
        <ele>119.5</ele>
        <time>2025-02-11T10:45:24Z</time>
      </trkpt>
      <trkpt lat="47.81402" lon="-2.44995">
        <ele>119.5</ele>
        <time>2025-02-11T10:45:25Z</time>
      </trkpt>
      <trkpt lat="47.81403" lon="-2.44997">
        <ele>119.5</ele>
        <time>2025-02-11T10:45:26Z</time>
      </trkpt>
      <trkpt lat="47.81402" lon="-2.44998">
        <ele>119.5</ele>
        <time>2025-02-11T10:45:27Z</time>
      </trkpt>
      <trkpt lat="47.81402" lon="-2.45">
        <ele>119.5</ele>
        <time>2025-02-11T10:45:28Z</time>
      </trkpt>
      <trkpt lat="47.81402" lon="-2.45001">
        <ele>119.5</ele>
        <time>2025-02-11T10:45:29Z</time>
      </trkpt>
      <trkpt lat="47.81402" lon="-2.45002">
        <ele>119.5</ele>
        <time>2025-02-11T10:45:30Z</time>
      </trkpt>
      <trkpt lat="47.81402" lon="-2.45004">
        <ele>119.5</ele>
        <time>2025-02-11T10:45:31Z</time>
      </trkpt>
      <trkpt lat="47.81402" lon="-2.45005">
        <ele>119.5</ele>
        <time>2025-02-11T10:45:32Z</time>
      </trkpt>
      <trkpt lat="47.81402" lon="-2.45007">
        <ele>119.5</ele>
        <time>2025-02-11T10:45:33Z</time>
      </trkpt>
      <trkpt lat="47.81402" lon="-2.45009">
        <ele>119.5</ele>
        <time>2025-02-11T10:45:34Z</time>
      </trkpt>
      <trkpt lat="47.81402" lon="-2.4501">
        <ele>119.5</ele>
        <time>2025-02-11T10:45:35Z</time>
      </trkpt>
      <trkpt lat="47.81401" lon="-2.45011">
        <ele>119.4</ele>
        <time>2025-02-11T10:45:36Z</time>
      </trkpt>
      <trkpt lat="47.81401" lon="-2.45012">
        <ele>119.4</ele>
        <time>2025-02-11T10:45:37Z</time>
      </trkpt>
      <trkpt lat="47.814" lon="-2.45012">
        <ele>119.4</ele>
        <time>2025-02-11T10:45:38Z</time>
      </trkpt>
      <trkpt lat="47.81399" lon="-2.45012">
        <ele>119.4</ele>
        <time>2025-02-11T10:45:39Z</time>
      </trkpt>
      <trkpt lat="47.81398" lon="-2.45013">
        <ele>119.3</ele>
        <time>2025-02-11T10:45:40Z</time>
      </trkpt>
      <trkpt lat="47.81397" lon="-2.45013">
        <ele>119.3</ele>
        <time>2025-02-11T10:45:41Z</time>
      </trkpt>
      <trkpt lat="47.81396" lon="-2.45014">
        <ele>119.3</ele>
        <time>2025-02-11T10:45:42Z</time>
      </trkpt>
      <trkpt lat="47.81397" lon="-2.45013">
        <ele>119.3</ele>
        <time>2025-02-11T10:45:43Z</time>
      </trkpt>
      <trkpt lat="47.81397" lon="-2.45013">
        <ele>119.3</ele>
        <time>2025-02-11T10:45:44Z</time>
      </trkpt>
      <trkpt lat="47.81397" lon="-2.45013">
        <ele>119.3</ele>
        <time>2025-02-11T10:45:45Z</time>
      </trkpt>
      <trkpt lat="47.81397" lon="-2.45013">
        <ele>119.3</ele>
        <time>2025-02-11T10:45:46Z</time>
      </trkpt>
      <trkpt lat="47.81397" lon="-2.45013">
        <ele>119.3</ele>
        <time>2025-02-11T10:45:47Z</time>
      </trkpt>
      <trkpt lat="47.81397" lon="-2.45013">
        <ele>119.3</ele>
        <time>2025-02-11T10:45:48Z</time>
      </trkpt>
      <trkpt lat="47.81397" lon="-2.45013">
        <ele>119.3</ele>
        <time>2025-02-11T10:45:49Z</time>
      </trkpt>
      <trkpt lat="47.81397" lon="-2.45013">
        <ele>119.3</ele>
        <time>2025-02-11T10:45:50Z</time>
      </trkpt>
      <trkpt lat="47.81397" lon="-2.45013">
        <ele>119.3</ele>
        <time>2025-02-11T10:45:51Z</time>
      </trkpt>
      <trkpt lat="47.81397" lon="-2.45013">
        <ele>119.3</ele>
        <time>2025-02-11T10:45:52Z</time>
      </trkpt>
      <trkpt lat="47.81397" lon="-2.45013">
        <ele>119.3</ele>
        <time>2025-02-11T10:45:53Z</time>
      </trkpt>
      <trkpt lat="47.81397" lon="-2.45013">
        <ele>119.3</ele>
        <time>2025-02-11T10:45:54Z</time>
      </trkpt>
      <trkpt lat="47.81397" lon="-2.45013">
        <ele>119.3</ele>
        <time>2025-02-11T10:45:55Z</time>
      </trkpt>
      <trkpt lat="47.81397" lon="-2.45013">
        <ele>119.3</ele>
        <time>2025-02-11T10:45:56Z</time>
      </trkpt>
      <trkpt lat="47.81397" lon="-2.45013">
        <ele>119.3</ele>
        <time>2025-02-11T10:45:57Z</time>
      </trkpt>
      <trkpt lat="47.81397" lon="-2.45013">
        <ele>119.3</ele>
        <time>2025-02-11T10:45:58Z</time>
      </trkpt>
      <trkpt lat="47.81397" lon="-2.45013">
        <ele>119.3</ele>
        <time>2025-02-11T10:45:59Z</time>
      </trkpt>
      <trkpt lat="47.81397" lon="-2.45013">
        <ele>119.3</ele>
        <time>2025-02-11T10:46:00Z</time>
      </trkpt>
      <trkpt lat="47.81397" lon="-2.45013">
        <ele>119.3</ele>
        <time>2025-02-11T10:46:01Z</time>
      </trkpt>
      <trkpt lat="47.81397" lon="-2.45013">
        <ele>119.3</ele>
        <time>2025-02-11T10:46:02Z</time>
      </trkpt>
      <trkpt lat="47.81398" lon="-2.45013">
        <ele>119.3</ele>
        <time>2025-02-11T10:46:03Z</time>
      </trkpt>
      <trkpt lat="47.81398" lon="-2.45013">
        <ele>119.3</ele>
        <time>2025-02-11T10:46:04Z</time>
      </trkpt>
      <trkpt lat="47.81398" lon="-2.45013">
        <ele>119.3</ele>
        <time>2025-02-11T10:46:05Z</time>
      </trkpt>
      <trkpt lat="47.81398" lon="-2.45013">
        <ele>119.3</ele>
        <time>2025-02-11T10:46:06Z</time>
      </trkpt>
      <trkpt lat="47.81398" lon="-2.45013">
        <ele>119.3</ele>
        <time>2025-02-11T10:46:07Z</time>
      </trkpt>
      <trkpt lat="47.81398" lon="-2.45013">
        <ele>119.3</ele>
        <time>2025-02-11T10:46:08Z</time>
      </trkpt>
      <trkpt lat="47.81398" lon="-2.45013">
        <ele>119.3</ele>
        <time>2025-02-11T10:46:09Z</time>
      </trkpt>
      <trkpt lat="47.81398" lon="-2.45013">
        <ele>119.3</ele>
        <time>2025-02-11T10:46:10Z</time>
      </trkpt>
      <trkpt lat="47.81398" lon="-2.45014">
        <ele>119.3</ele>
        <time>2025-02-11T10:46:11Z</time>
      </trkpt>
      <trkpt lat="47.81398" lon="-2.45014">
        <ele>119.3</ele>
        <time>2025-02-11T10:46:12Z</time>
      </trkpt>
      <trkpt lat="47.81398" lon="-2.45014">
        <ele>119.3</ele>
        <time>2025-02-11T10:46:13Z</time>
      </trkpt>
      <trkpt lat="47.81397" lon="-2.45014">
        <ele>119.3</ele>
        <time>2025-02-11T10:46:14Z</time>
      </trkpt>
      <trkpt lat="47.81397" lon="-2.45014">
        <ele>119.3</ele>
        <time>2025-02-11T10:46:15Z</time>
      </trkpt>
      <trkpt lat="47.81397" lon="-2.45014">
        <ele>119.3</ele>
        <time>2025-02-11T10:46:16Z</time>
      </trkpt>
      <trkpt lat="47.81397" lon="-2.45014">
        <ele>119.3</ele>
        <time>2025-02-11T10:46:17Z</time>
      </trkpt>
      <trkpt lat="47.81397" lon="-2.45014">
        <ele>119.3</ele>
        <time>2025-02-11T10:46:18Z</time>
      </trkpt>
      <trkpt lat="47.81397" lon="-2.45014">
        <ele>119.3</ele>
        <time>2025-02-11T10:46:19Z</time>
      </trkpt>
      <trkpt lat="47.81397" lon="-2.45014">
        <ele>119.3</ele>
        <time>2025-02-11T10:46:20Z</time>
      </trkpt>
      <trkpt lat="47.81397" lon="-2.45015">
        <ele>119.3</ele>
        <time>2025-02-11T10:46:21Z</time>
      </trkpt>
      <trkpt lat="47.81397" lon="-2.45015">
        <ele>119.3</ele>
        <time>2025-02-11T10:46:22Z</time>
      </trkpt>
      <trkpt lat="47.81397" lon="-2.45015">
        <ele>119.3</ele>
        <time>2025-02-11T10:46:23Z</time>
      </trkpt>
      <trkpt lat="47.81397" lon="-2.45015">
        <ele>119.3</ele>
        <time>2025-02-11T10:46:24Z</time>
      </trkpt>
      <trkpt lat="47.81397" lon="-2.45015">
        <ele>119.3</ele>
        <time>2025-02-11T10:46:25Z</time>
      </trkpt>
      <trkpt lat="47.81397" lon="-2.45015">
        <ele>119.3</ele>
        <time>2025-02-11T10:46:26Z</time>
      </trkpt>
      <trkpt lat="47.81397" lon="-2.45015">
        <ele>119.3</ele>
        <time>2025-02-11T10:46:27Z</time>
      </trkpt>
      <trkpt lat="47.81398" lon="-2.45015">
        <ele>119.3</ele>
        <time>2025-02-11T10:46:28Z</time>
      </trkpt>
      <trkpt lat="47.81398" lon="-2.45014">
        <ele>119.3</ele>
        <time>2025-02-11T10:46:29Z</time>
      </trkpt>
      <trkpt lat="47.81398" lon="-2.45012">
        <ele>119.3</ele>
        <time>2025-02-11T10:46:30Z</time>
      </trkpt>
      <trkpt lat="47.81398" lon="-2.45011">
        <ele>119.3</ele>
        <time>2025-02-11T10:46:31Z</time>
      </trkpt>
      <trkpt lat="47.81397" lon="-2.45011">
        <ele>119.3</ele>
        <time>2025-02-11T10:46:32Z</time>
      </trkpt>
      <trkpt lat="47.81398" lon="-2.45013">
        <ele>119.3</ele>
        <time>2025-02-11T10:46:33Z</time>
      </trkpt>
      <trkpt lat="47.81398" lon="-2.45014">
        <ele>119.3</ele>
        <time>2025-02-11T10:46:34Z</time>
      </trkpt>
      <trkpt lat="47.81398" lon="-2.45017">
        <ele>119.3</ele>
        <time>2025-02-11T10:46:35Z</time>
      </trkpt>
      <trkpt lat="47.81398" lon="-2.45019">
        <ele>119.3</ele>
        <time>2025-02-11T10:46:36Z</time>
      </trkpt>
      <trkpt lat="47.81398" lon="-2.4502">
        <ele>119.3</ele>
        <time>2025-02-11T10:46:37Z</time>
      </trkpt>
      <trkpt lat="47.81398" lon="-2.45022">
        <ele>119.3</ele>
        <time>2025-02-11T10:46:38Z</time>
      </trkpt>
      <trkpt lat="47.81399" lon="-2.45024">
        <ele>119.4</ele>
        <time>2025-02-11T10:46:39Z</time>
      </trkpt>
      <trkpt lat="47.814" lon="-2.45026">
        <ele>119.4</ele>
        <time>2025-02-11T10:46:40Z</time>
      </trkpt>
      <trkpt lat="47.81401" lon="-2.45027">
        <ele>119.5</ele>
        <time>2025-02-11T10:46:41Z</time>
      </trkpt>
      <trkpt lat="47.81403" lon="-2.45029">
        <ele>119.5</ele>
        <time>2025-02-11T10:46:42Z</time>
      </trkpt>
      <trkpt lat="47.81403" lon="-2.45031">
        <ele>119.5</ele>
        <time>2025-02-11T10:46:43Z</time>
      </trkpt>
      <trkpt lat="47.81403" lon="-2.45033">
        <ele>119.5</ele>
        <time>2025-02-11T10:46:44Z</time>
      </trkpt>
      <trkpt lat="47.81403" lon="-2.45035">
        <ele>119.5</ele>
        <time>2025-02-11T10:46:45Z</time>
      </trkpt>
      <trkpt lat="47.81404" lon="-2.45037">
        <ele>119.5</ele>
        <time>2025-02-11T10:46:46Z</time>
      </trkpt>
      <trkpt lat="47.81405" lon="-2.45039">
        <ele>119.6</ele>
        <time>2025-02-11T10:46:47Z</time>
      </trkpt>
      <trkpt lat="47.81406" lon="-2.45041">
        <ele>119.6</ele>
        <time>2025-02-11T10:46:48Z</time>
      </trkpt>
      <trkpt lat="47.81407" lon="-2.45043">
        <ele>119.6</ele>
        <time>2025-02-11T10:46:49Z</time>
      </trkpt>
      <trkpt lat="47.81407" lon="-2.45045">
        <ele>119.6</ele>
        <time>2025-02-11T10:46:50Z</time>
      </trkpt>
      <trkpt lat="47.81407" lon="-2.45046">
        <ele>119.6</ele>
        <time>2025-02-11T10:46:51Z</time>
      </trkpt>
      <trkpt lat="47.81406" lon="-2.45048">
        <ele>119.6</ele>
        <time>2025-02-11T10:46:52Z</time>
      </trkpt>
      <trkpt lat="47.81407" lon="-2.4505">
        <ele>119.6</ele>
        <time>2025-02-11T10:46:53Z</time>
      </trkpt>
      <trkpt lat="47.81407" lon="-2.45052">
        <ele>119.7</ele>
        <time>2025-02-11T10:46:54Z</time>
      </trkpt>
      <trkpt lat="47.81408" lon="-2.45054">
        <ele>119.7</ele>
        <time>2025-02-11T10:46:55Z</time>
      </trkpt>
      <trkpt lat="47.81408" lon="-2.45056">
        <ele>119.7</ele>
        <time>2025-02-11T10:46:56Z</time>
      </trkpt>
      <trkpt lat="47.81409" lon="-2.45058">
        <ele>119.7</ele>
        <time>2025-02-11T10:46:57Z</time>
      </trkpt>
      <trkpt lat="47.81408" lon="-2.4506">
        <ele>119.7</ele>
        <time>2025-02-11T10:46:58Z</time>
      </trkpt>
      <trkpt lat="47.81408" lon="-2.45062">
        <ele>119.7</ele>
        <time>2025-02-11T10:46:59Z</time>
      </trkpt>
      <trkpt lat="47.81408" lon="-2.45064">
        <ele>119.7</ele>
        <time>2025-02-11T10:47:00Z</time>
      </trkpt>
      <trkpt lat="47.81408" lon="-2.45065">
        <ele>119.7</ele>
        <time>2025-02-11T10:47:01Z</time>
      </trkpt>
      <trkpt lat="47.81408" lon="-2.45067">
        <ele>119.7</ele>
        <time>2025-02-11T10:47:02Z</time>
      </trkpt>
      <trkpt lat="47.81407" lon="-2.45068">
        <ele>119.7</ele>
        <time>2025-02-11T10:47:03Z</time>
      </trkpt>
      <trkpt lat="47.81407" lon="-2.4507">
        <ele>119.7</ele>
        <time>2025-02-11T10:47:04Z</time>
      </trkpt>
      <trkpt lat="47.81407" lon="-2.45072">
        <ele>119.7</ele>
        <time>2025-02-11T10:47:05Z</time>
      </trkpt>
      <trkpt lat="47.81408" lon="-2.45073">
        <ele>119.7</ele>
        <time>2025-02-11T10:47:06Z</time>
      </trkpt>
      <trkpt lat="47.81407" lon="-2.45075">
        <ele>119.7</ele>
        <time>2025-02-11T10:47:07Z</time>
      </trkpt>
      <trkpt lat="47.81408" lon="-2.45077">
        <ele>119.7</ele>
        <time>2025-02-11T10:47:08Z</time>
      </trkpt>
      <trkpt lat="47.81408" lon="-2.45078">
        <ele>119.7</ele>
        <time>2025-02-11T10:47:09Z</time>
      </trkpt>
      <trkpt lat="47.81408" lon="-2.4508">
        <ele>119.7</ele>
        <time>2025-02-11T10:47:10Z</time>
      </trkpt>
      <trkpt lat="47.81407" lon="-2.45082">
        <ele>119.6</ele>
        <time>2025-02-11T10:47:11Z</time>
      </trkpt>
      <trkpt lat="47.81407" lon="-2.45083">
        <ele>119.6</ele>
        <time>2025-02-11T10:47:12Z</time>
      </trkpt>
      <trkpt lat="47.81407" lon="-2.45085">
        <ele>119.6</ele>
        <time>2025-02-11T10:47:13Z</time>
      </trkpt>
      <trkpt lat="47.81406" lon="-2.45087">
        <ele>119.6</ele>
        <time>2025-02-11T10:47:14Z</time>
      </trkpt>
      <trkpt lat="47.81405" lon="-2.45089">
        <ele>119.6</ele>
        <time>2025-02-11T10:47:15Z</time>
      </trkpt>
      <trkpt lat="47.81405" lon="-2.4509">
        <ele>119.6</ele>
        <time>2025-02-11T10:47:16Z</time>
      </trkpt>
      <trkpt lat="47.81405" lon="-2.45092">
        <ele>119.6</ele>
        <time>2025-02-11T10:47:17Z</time>
      </trkpt>
      <trkpt lat="47.81406" lon="-2.45094">
        <ele>119.6</ele>
        <time>2025-02-11T10:47:18Z</time>
      </trkpt>
      <trkpt lat="47.81406" lon="-2.45096">
        <ele>119.6</ele>
        <time>2025-02-11T10:47:19Z</time>
      </trkpt>
      <trkpt lat="47.81407" lon="-2.45097">
        <ele>119.6</ele>
        <time>2025-02-11T10:47:20Z</time>
      </trkpt>
      <trkpt lat="47.81407" lon="-2.45099">
        <ele>119.6</ele>
        <time>2025-02-11T10:47:21Z</time>
      </trkpt>
      <trkpt lat="47.81408" lon="-2.45101">
        <ele>119.7</ele>
        <time>2025-02-11T10:47:22Z</time>
      </trkpt>
      <trkpt lat="47.81408" lon="-2.45102">
        <ele>119.7</ele>
        <time>2025-02-11T10:47:23Z</time>
      </trkpt>
      <trkpt lat="47.81409" lon="-2.45104">
        <ele>119.7</ele>
        <time>2025-02-11T10:47:24Z</time>
      </trkpt>
      <trkpt lat="47.81409" lon="-2.45106">
        <ele>119.7</ele>
        <time>2025-02-11T10:47:25Z</time>
      </trkpt>
      <trkpt lat="47.81409" lon="-2.45107">
        <ele>119.7</ele>
        <time>2025-02-11T10:47:26Z</time>
      </trkpt>
      <trkpt lat="47.81409" lon="-2.45109">
        <ele>119.7</ele>
        <time>2025-02-11T10:47:27Z</time>
      </trkpt>
      <trkpt lat="47.81409" lon="-2.4511">
        <ele>119.7</ele>
        <time>2025-02-11T10:47:28Z</time>
      </trkpt>
      <trkpt lat="47.8141" lon="-2.45112">
        <ele>119.7</ele>
        <time>2025-02-11T10:47:29Z</time>
      </trkpt>
      <trkpt lat="47.8141" lon="-2.45114">
        <ele>119.7</ele>
        <time>2025-02-11T10:47:30Z</time>
      </trkpt>
      <trkpt lat="47.8141" lon="-2.45116">
        <ele>119.6</ele>
        <time>2025-02-11T10:47:31Z</time>
      </trkpt>
      <trkpt lat="47.81411" lon="-2.45117">
        <ele>119.6</ele>
        <time>2025-02-11T10:47:32Z</time>
      </trkpt>
      <trkpt lat="47.81411" lon="-2.45119">
        <ele>119.6</ele>
        <time>2025-02-11T10:47:33Z</time>
      </trkpt>
      <trkpt lat="47.8141" lon="-2.45121">
        <ele>119.5</ele>
        <time>2025-02-11T10:47:34Z</time>
      </trkpt>
      <trkpt lat="47.8141" lon="-2.45123">
        <ele>119.4</ele>
        <time>2025-02-11T10:47:35Z</time>
      </trkpt>
      <trkpt lat="47.81411" lon="-2.45125">
        <ele>119.4</ele>
        <time>2025-02-11T10:47:36Z</time>
      </trkpt>
      <trkpt lat="47.81411" lon="-2.45126">
        <ele>119.4</ele>
        <time>2025-02-11T10:47:37Z</time>
      </trkpt>
      <trkpt lat="47.81411" lon="-2.45128">
        <ele>119.3</ele>
        <time>2025-02-11T10:47:38Z</time>
      </trkpt>
      <trkpt lat="47.81411" lon="-2.4513">
        <ele>119.3</ele>
        <time>2025-02-11T10:47:39Z</time>
      </trkpt>
      <trkpt lat="47.81412" lon="-2.45132">
        <ele>119.2</ele>
        <time>2025-02-11T10:47:40Z</time>
      </trkpt>
      <trkpt lat="47.81412" lon="-2.45134">
        <ele>119.1</ele>
        <time>2025-02-11T10:47:41Z</time>
      </trkpt>
      <trkpt lat="47.81412" lon="-2.45136">
        <ele>119.1</ele>
        <time>2025-02-11T10:47:42Z</time>
      </trkpt>
      <trkpt lat="47.81412" lon="-2.45137">
        <ele>119</ele>
        <time>2025-02-11T10:47:43Z</time>
      </trkpt>
      <trkpt lat="47.81412" lon="-2.45139">
        <ele>119</ele>
        <time>2025-02-11T10:47:44Z</time>
      </trkpt>
      <trkpt lat="47.81413" lon="-2.4514">
        <ele>119</ele>
        <time>2025-02-11T10:47:45Z</time>
      </trkpt>
      <trkpt lat="47.81413" lon="-2.45143">
        <ele>119</ele>
        <time>2025-02-11T10:47:46Z</time>
      </trkpt>
      <trkpt lat="47.81413" lon="-2.45144">
        <ele>119</ele>
        <time>2025-02-11T10:47:47Z</time>
      </trkpt>
      <trkpt lat="47.81413" lon="-2.45146">
        <ele>119</ele>
        <time>2025-02-11T10:47:48Z</time>
      </trkpt>
      <trkpt lat="47.81413" lon="-2.45147">
        <ele>119</ele>
        <time>2025-02-11T10:47:49Z</time>
      </trkpt>
      <trkpt lat="47.81414" lon="-2.45149">
        <ele>119</ele>
        <time>2025-02-11T10:47:50Z</time>
      </trkpt>
      <trkpt lat="47.81414" lon="-2.45151">
        <ele>119</ele>
        <time>2025-02-11T10:47:51Z</time>
      </trkpt>
      <trkpt lat="47.81414" lon="-2.45153">
        <ele>119</ele>
        <time>2025-02-11T10:47:52Z</time>
      </trkpt>
      <trkpt lat="47.81414" lon="-2.45154">
        <ele>119</ele>
        <time>2025-02-11T10:47:53Z</time>
      </trkpt>
      <trkpt lat="47.81414" lon="-2.45157">
        <ele>119</ele>
        <time>2025-02-11T10:47:54Z</time>
      </trkpt>
      <trkpt lat="47.81414" lon="-2.45158">
        <ele>119</ele>
        <time>2025-02-11T10:47:55Z</time>
      </trkpt>
      <trkpt lat="47.81414" lon="-2.4516">
        <ele>119</ele>
        <time>2025-02-11T10:47:56Z</time>
      </trkpt>
      <trkpt lat="47.81414" lon="-2.45161">
        <ele>119</ele>
        <time>2025-02-11T10:47:57Z</time>
      </trkpt>
      <trkpt lat="47.81413" lon="-2.45163">
        <ele>119</ele>
        <time>2025-02-11T10:47:58Z</time>
      </trkpt>
      <trkpt lat="47.81414" lon="-2.45165">
        <ele>119</ele>
        <time>2025-02-11T10:47:59Z</time>
      </trkpt>
      <trkpt lat="47.81414" lon="-2.45167">
        <ele>119</ele>
        <time>2025-02-11T10:48:00Z</time>
      </trkpt>
      <trkpt lat="47.81414" lon="-2.45168">
        <ele>119</ele>
        <time>2025-02-11T10:48:01Z</time>
      </trkpt>
      <trkpt lat="47.81414" lon="-2.4517">
        <ele>119</ele>
        <time>2025-02-11T10:48:02Z</time>
      </trkpt>
      <trkpt lat="47.81415" lon="-2.45171">
        <ele>119</ele>
        <time>2025-02-11T10:48:03Z</time>
      </trkpt>
      <trkpt lat="47.81415" lon="-2.45173">
        <ele>119</ele>
        <time>2025-02-11T10:48:04Z</time>
      </trkpt>
      <trkpt lat="47.81414" lon="-2.45175">
        <ele>119</ele>
        <time>2025-02-11T10:48:05Z</time>
      </trkpt>
      <trkpt lat="47.81414" lon="-2.45177">
        <ele>119</ele>
        <time>2025-02-11T10:48:06Z</time>
      </trkpt>
      <trkpt lat="47.81414" lon="-2.45178">
        <ele>119</ele>
        <time>2025-02-11T10:48:07Z</time>
      </trkpt>
      <trkpt lat="47.81414" lon="-2.4518">
        <ele>119</ele>
        <time>2025-02-11T10:48:08Z</time>
      </trkpt>
      <trkpt lat="47.81415" lon="-2.45181">
        <ele>119</ele>
        <time>2025-02-11T10:48:09Z</time>
      </trkpt>
      <trkpt lat="47.81416" lon="-2.45183">
        <ele>119</ele>
        <time>2025-02-11T10:48:10Z</time>
      </trkpt>
      <trkpt lat="47.81416" lon="-2.45184">
        <ele>119</ele>
        <time>2025-02-11T10:48:11Z</time>
      </trkpt>
      <trkpt lat="47.81416" lon="-2.45186">
        <ele>119</ele>
        <time>2025-02-11T10:48:12Z</time>
      </trkpt>
      <trkpt lat="47.81416" lon="-2.45188">
        <ele>119</ele>
        <time>2025-02-11T10:48:13Z</time>
      </trkpt>
      <trkpt lat="47.81416" lon="-2.4519">
        <ele>119</ele>
        <time>2025-02-11T10:48:14Z</time>
      </trkpt>
      <trkpt lat="47.81416" lon="-2.45191">
        <ele>119</ele>
        <time>2025-02-11T10:48:15Z</time>
      </trkpt>
      <trkpt lat="47.81416" lon="-2.45193">
        <ele>119</ele>
        <time>2025-02-11T10:48:16Z</time>
      </trkpt>
      <trkpt lat="47.81416" lon="-2.45195">
        <ele>119</ele>
        <time>2025-02-11T10:48:17Z</time>
      </trkpt>
      <trkpt lat="47.81416" lon="-2.45196">
        <ele>119</ele>
        <time>2025-02-11T10:48:18Z</time>
      </trkpt>
      <trkpt lat="47.81416" lon="-2.45198">
        <ele>119</ele>
        <time>2025-02-11T10:48:19Z</time>
      </trkpt>
      <trkpt lat="47.81416" lon="-2.452">
        <ele>119</ele>
        <time>2025-02-11T10:48:20Z</time>
      </trkpt>
      <trkpt lat="47.81416" lon="-2.45201">
        <ele>119</ele>
        <time>2025-02-11T10:48:21Z</time>
      </trkpt>
      <trkpt lat="47.81416" lon="-2.45203">
        <ele>119</ele>
        <time>2025-02-11T10:48:22Z</time>
      </trkpt>
      <trkpt lat="47.81416" lon="-2.45204">
        <ele>119</ele>
        <time>2025-02-11T10:48:23Z</time>
      </trkpt>
      <trkpt lat="47.81417" lon="-2.45206">
        <ele>119</ele>
        <time>2025-02-11T10:48:24Z</time>
      </trkpt>
      <trkpt lat="47.81417" lon="-2.45208">
        <ele>119</ele>
        <time>2025-02-11T10:48:25Z</time>
      </trkpt>
      <trkpt lat="47.81417" lon="-2.4521">
        <ele>119</ele>
        <time>2025-02-11T10:48:26Z</time>
      </trkpt>
      <trkpt lat="47.81417" lon="-2.45212">
        <ele>119</ele>
        <time>2025-02-11T10:48:27Z</time>
      </trkpt>
      <trkpt lat="47.81417" lon="-2.45214">
        <ele>119</ele>
        <time>2025-02-11T10:48:28Z</time>
      </trkpt>
      <trkpt lat="47.81418" lon="-2.45216">
        <ele>119</ele>
        <time>2025-02-11T10:48:29Z</time>
      </trkpt>
      <trkpt lat="47.81418" lon="-2.45218">
        <ele>119</ele>
        <time>2025-02-11T10:48:30Z</time>
      </trkpt>
      <trkpt lat="47.81418" lon="-2.4522">
        <ele>119</ele>
        <time>2025-02-11T10:48:31Z</time>
      </trkpt>
      <trkpt lat="47.81417" lon="-2.45222">
        <ele>119</ele>
        <time>2025-02-11T10:48:32Z</time>
      </trkpt>
      <trkpt lat="47.81417" lon="-2.45224">
        <ele>119</ele>
        <time>2025-02-11T10:48:33Z</time>
      </trkpt>
      <trkpt lat="47.81417" lon="-2.45226">
        <ele>119</ele>
        <time>2025-02-11T10:48:34Z</time>
      </trkpt>
      <trkpt lat="47.81417" lon="-2.45227">
        <ele>119</ele>
        <time>2025-02-11T10:48:35Z</time>
      </trkpt>
      <trkpt lat="47.81417" lon="-2.45229">
        <ele>119</ele>
        <time>2025-02-11T10:48:36Z</time>
      </trkpt>
      <trkpt lat="47.81417" lon="-2.45231">
        <ele>119</ele>
        <time>2025-02-11T10:48:37Z</time>
      </trkpt>
      <trkpt lat="47.81416" lon="-2.45233">
        <ele>119</ele>
        <time>2025-02-11T10:48:38Z</time>
      </trkpt>
      <trkpt lat="47.81416" lon="-2.45234">
        <ele>119</ele>
        <time>2025-02-11T10:48:39Z</time>
      </trkpt>
      <trkpt lat="47.81416" lon="-2.45236">
        <ele>119</ele>
        <time>2025-02-11T10:48:40Z</time>
      </trkpt>
      <trkpt lat="47.81417" lon="-2.45238">
        <ele>119</ele>
        <time>2025-02-11T10:48:41Z</time>
      </trkpt>
      <trkpt lat="47.81417" lon="-2.4524">
        <ele>119</ele>
        <time>2025-02-11T10:48:42Z</time>
      </trkpt>
      <trkpt lat="47.81417" lon="-2.45241">
        <ele>119</ele>
        <time>2025-02-11T10:48:43Z</time>
      </trkpt>
      <trkpt lat="47.81417" lon="-2.45244">
        <ele>119</ele>
        <time>2025-02-11T10:48:44Z</time>
      </trkpt>
      <trkpt lat="47.81417" lon="-2.45245">
        <ele>119</ele>
        <time>2025-02-11T10:48:45Z</time>
      </trkpt>
      <trkpt lat="47.81417" lon="-2.45247">
        <ele>119</ele>
        <time>2025-02-11T10:48:46Z</time>
      </trkpt>
      <trkpt lat="47.81416" lon="-2.45249">
        <ele>119</ele>
        <time>2025-02-11T10:48:47Z</time>
      </trkpt>
      <trkpt lat="47.81416" lon="-2.4525">
        <ele>119</ele>
        <time>2025-02-11T10:48:48Z</time>
      </trkpt>
      <trkpt lat="47.81416" lon="-2.45252">
        <ele>118.9</ele>
        <time>2025-02-11T10:48:49Z</time>
      </trkpt>
      <trkpt lat="47.81416" lon="-2.45254">
        <ele>118.9</ele>
        <time>2025-02-11T10:48:50Z</time>
      </trkpt>
      <trkpt lat="47.81417" lon="-2.45255">
        <ele>118.8</ele>
        <time>2025-02-11T10:48:51Z</time>
      </trkpt>
      <trkpt lat="47.81417" lon="-2.45257">
        <ele>118.7</ele>
        <time>2025-02-11T10:48:52Z</time>
      </trkpt>
      <trkpt lat="47.81418" lon="-2.45259">
        <ele>118.7</ele>
        <time>2025-02-11T10:48:53Z</time>
      </trkpt>
      <trkpt lat="47.81417" lon="-2.45261">
        <ele>118.6</ele>
        <time>2025-02-11T10:48:54Z</time>
      </trkpt>
      <trkpt lat="47.81417" lon="-2.45262">
        <ele>118.5</ele>
        <time>2025-02-11T10:48:55Z</time>
      </trkpt>
      <trkpt lat="47.81417" lon="-2.45264">
        <ele>118.5</ele>
        <time>2025-02-11T10:48:56Z</time>
      </trkpt>
      <trkpt lat="47.81417" lon="-2.45266">
        <ele>118.4</ele>
        <time>2025-02-11T10:48:57Z</time>
      </trkpt>
      <trkpt lat="47.81417" lon="-2.45267">
        <ele>118.4</ele>
        <time>2025-02-11T10:48:58Z</time>
      </trkpt>
      <trkpt lat="47.81416" lon="-2.45269">
        <ele>118.3</ele>
        <time>2025-02-11T10:48:59Z</time>
      </trkpt>
      <trkpt lat="47.81416" lon="-2.45271">
        <ele>118.3</ele>
        <time>2025-02-11T10:49:00Z</time>
      </trkpt>
      <trkpt lat="47.81416" lon="-2.45272">
        <ele>118.2</ele>
        <time>2025-02-11T10:49:01Z</time>
      </trkpt>
      <trkpt lat="47.81416" lon="-2.45274">
        <ele>118.1</ele>
        <time>2025-02-11T10:49:02Z</time>
      </trkpt>
      <trkpt lat="47.81416" lon="-2.45276">
        <ele>118.1</ele>
        <time>2025-02-11T10:49:03Z</time>
      </trkpt>
      <trkpt lat="47.81416" lon="-2.45277">
        <ele>118</ele>
        <time>2025-02-11T10:49:04Z</time>
      </trkpt>
      <trkpt lat="47.81416" lon="-2.45279">
        <ele>118</ele>
        <time>2025-02-11T10:49:05Z</time>
      </trkpt>
      <trkpt lat="47.81416" lon="-2.4528">
        <ele>118</ele>
        <time>2025-02-11T10:49:06Z</time>
      </trkpt>
      <trkpt lat="47.81416" lon="-2.45282">
        <ele>118</ele>
        <time>2025-02-11T10:49:07Z</time>
      </trkpt>
      <trkpt lat="47.81416" lon="-2.45283">
        <ele>118</ele>
        <time>2025-02-11T10:49:08Z</time>
      </trkpt>
      <trkpt lat="47.81415" lon="-2.45284">
        <ele>118</ele>
        <time>2025-02-11T10:49:09Z</time>
      </trkpt>
      <trkpt lat="47.81415" lon="-2.45286">
        <ele>118</ele>
        <time>2025-02-11T10:49:10Z</time>
      </trkpt>
      <trkpt lat="47.81415" lon="-2.45287">
        <ele>118</ele>
        <time>2025-02-11T10:49:11Z</time>
      </trkpt>
      <trkpt lat="47.81415" lon="-2.45289">
        <ele>118</ele>
        <time>2025-02-11T10:49:12Z</time>
      </trkpt>
      <trkpt lat="47.81415" lon="-2.4529">
        <ele>118</ele>
        <time>2025-02-11T10:49:13Z</time>
      </trkpt>
      <trkpt lat="47.81415" lon="-2.45292">
        <ele>118</ele>
        <time>2025-02-11T10:49:14Z</time>
      </trkpt>
      <trkpt lat="47.81415" lon="-2.45294">
        <ele>118</ele>
        <time>2025-02-11T10:49:15Z</time>
      </trkpt>
      <trkpt lat="47.81415" lon="-2.45295">
        <ele>118</ele>
        <time>2025-02-11T10:49:16Z</time>
      </trkpt>
      <trkpt lat="47.81415" lon="-2.45297">
        <ele>118</ele>
        <time>2025-02-11T10:49:17Z</time>
      </trkpt>
      <trkpt lat="47.81415" lon="-2.45299">
        <ele>118</ele>
        <time>2025-02-11T10:49:18Z</time>
      </trkpt>
      <trkpt lat="47.81415" lon="-2.453">
        <ele>118</ele>
        <time>2025-02-11T10:49:19Z</time>
      </trkpt>
      <trkpt lat="47.81415" lon="-2.45302">
        <ele>118</ele>
        <time>2025-02-11T10:49:20Z</time>
      </trkpt>
      <trkpt lat="47.81415" lon="-2.45304">
        <ele>118</ele>
        <time>2025-02-11T10:49:21Z</time>
      </trkpt>
      <trkpt lat="47.81415" lon="-2.45306">
        <ele>118</ele>
        <time>2025-02-11T10:49:22Z</time>
      </trkpt>
      <trkpt lat="47.81414" lon="-2.45308">
        <ele>118</ele>
        <time>2025-02-11T10:49:23Z</time>
      </trkpt>
      <trkpt lat="47.81414" lon="-2.4531">
        <ele>118</ele>
        <time>2025-02-11T10:49:24Z</time>
      </trkpt>
      <trkpt lat="47.81414" lon="-2.45311">
        <ele>118</ele>
        <time>2025-02-11T10:49:25Z</time>
      </trkpt>
      <trkpt lat="47.81414" lon="-2.45313">
        <ele>118</ele>
        <time>2025-02-11T10:49:26Z</time>
      </trkpt>
      <trkpt lat="47.81415" lon="-2.45315">
        <ele>118</ele>
        <time>2025-02-11T10:49:27Z</time>
      </trkpt>
      <trkpt lat="47.81415" lon="-2.45316">
        <ele>118</ele>
        <time>2025-02-11T10:49:28Z</time>
      </trkpt>
      <trkpt lat="47.81415" lon="-2.45318">
        <ele>118</ele>
        <time>2025-02-11T10:49:29Z</time>
      </trkpt>
      <trkpt lat="47.81415" lon="-2.45319">
        <ele>118</ele>
        <time>2025-02-11T10:49:30Z</time>
      </trkpt>
      <trkpt lat="47.81415" lon="-2.45321">
        <ele>118</ele>
        <time>2025-02-11T10:49:31Z</time>
      </trkpt>
      <trkpt lat="47.81415" lon="-2.45323">
        <ele>118</ele>
        <time>2025-02-11T10:49:32Z</time>
      </trkpt>
      <trkpt lat="47.81415" lon="-2.45324">
        <ele>118</ele>
        <time>2025-02-11T10:49:33Z</time>
      </trkpt>
      <trkpt lat="47.81415" lon="-2.45326">
        <ele>118</ele>
        <time>2025-02-11T10:49:34Z</time>
      </trkpt>
      <trkpt lat="47.81415" lon="-2.45327">
        <ele>118</ele>
        <time>2025-02-11T10:49:35Z</time>
      </trkpt>
      <trkpt lat="47.81415" lon="-2.45329">
        <ele>118</ele>
        <time>2025-02-11T10:49:36Z</time>
      </trkpt>
      <trkpt lat="47.81415" lon="-2.45331">
        <ele>118</ele>
        <time>2025-02-11T10:49:37Z</time>
      </trkpt>
      <trkpt lat="47.81414" lon="-2.45333">
        <ele>118</ele>
        <time>2025-02-11T10:49:38Z</time>
      </trkpt>
      <trkpt lat="47.81413" lon="-2.45334">
        <ele>118</ele>
        <time>2025-02-11T10:49:39Z</time>
      </trkpt>
      <trkpt lat="47.81413" lon="-2.45336">
        <ele>118</ele>
        <time>2025-02-11T10:49:40Z</time>
      </trkpt>
      <trkpt lat="47.81413" lon="-2.45338">
        <ele>118</ele>
        <time>2025-02-11T10:49:41Z</time>
      </trkpt>
      <trkpt lat="47.81413" lon="-2.45339">
        <ele>118</ele>
        <time>2025-02-11T10:49:42Z</time>
      </trkpt>
      <trkpt lat="47.81412" lon="-2.45341">
        <ele>118</ele>
        <time>2025-02-11T10:49:43Z</time>
      </trkpt>
      <trkpt lat="47.81413" lon="-2.45342">
        <ele>118</ele>
        <time>2025-02-11T10:49:44Z</time>
      </trkpt>
      <trkpt lat="47.81413" lon="-2.45344">
        <ele>117.9</ele>
        <time>2025-02-11T10:49:45Z</time>
      </trkpt>
      <trkpt lat="47.81412" lon="-2.45346">
        <ele>117.9</ele>
        <time>2025-02-11T10:49:46Z</time>
      </trkpt>
      <trkpt lat="47.81412" lon="-2.45348">
        <ele>117.9</ele>
        <time>2025-02-11T10:49:47Z</time>
      </trkpt>
      <trkpt lat="47.81412" lon="-2.45349">
        <ele>117.9</ele>
        <time>2025-02-11T10:49:48Z</time>
      </trkpt>
      <trkpt lat="47.81412" lon="-2.45351">
        <ele>117.9</ele>
        <time>2025-02-11T10:49:49Z</time>
      </trkpt>
      <trkpt lat="47.81412" lon="-2.45353">
        <ele>117.9</ele>
        <time>2025-02-11T10:49:50Z</time>
      </trkpt>
      <trkpt lat="47.81413" lon="-2.45355">
        <ele>117.9</ele>
        <time>2025-02-11T10:49:51Z</time>
      </trkpt>
      <trkpt lat="47.81413" lon="-2.45357">
        <ele>117.9</ele>
        <time>2025-02-11T10:49:52Z</time>
      </trkpt>
      <trkpt lat="47.81412" lon="-2.45358">
        <ele>117.9</ele>
        <time>2025-02-11T10:49:53Z</time>
      </trkpt>
      <trkpt lat="47.81412" lon="-2.4536">
        <ele>117.8</ele>
        <time>2025-02-11T10:49:54Z</time>
      </trkpt>
      <trkpt lat="47.81412" lon="-2.45361">
        <ele>117.8</ele>
        <time>2025-02-11T10:49:55Z</time>
      </trkpt>
      <trkpt lat="47.81412" lon="-2.45363">
        <ele>117.8</ele>
        <time>2025-02-11T10:49:56Z</time>
      </trkpt>
      <trkpt lat="47.81411" lon="-2.45364">
        <ele>117.7</ele>
        <time>2025-02-11T10:49:57Z</time>
      </trkpt>
      <trkpt lat="47.81412" lon="-2.45365">
        <ele>117.7</ele>
        <time>2025-02-11T10:49:58Z</time>
      </trkpt>
      <trkpt lat="47.81411" lon="-2.45367">
        <ele>117.6</ele>
        <time>2025-02-11T10:49:59Z</time>
      </trkpt>
      <trkpt lat="47.81411" lon="-2.45368">
        <ele>117.6</ele>
        <time>2025-02-11T10:50:00Z</time>
      </trkpt>
      <trkpt lat="47.81411" lon="-2.45369">
        <ele>117.5</ele>
        <time>2025-02-11T10:50:01Z</time>
      </trkpt>
      <trkpt lat="47.81411" lon="-2.4537">
        <ele>117.5</ele>
        <time>2025-02-11T10:50:02Z</time>
      </trkpt>
      <trkpt lat="47.81411" lon="-2.45371">
        <ele>117.5</ele>
        <time>2025-02-11T10:50:03Z</time>
      </trkpt>
      <trkpt lat="47.81411" lon="-2.45373">
        <ele>117.5</ele>
        <time>2025-02-11T10:50:04Z</time>
      </trkpt>
      <trkpt lat="47.8141" lon="-2.45374">
        <ele>117.4</ele>
        <time>2025-02-11T10:50:05Z</time>
      </trkpt>
      <trkpt lat="47.8141" lon="-2.45375">
        <ele>117.4</ele>
        <time>2025-02-11T10:50:06Z</time>
      </trkpt>
      <trkpt lat="47.81409" lon="-2.45376">
        <ele>117.3</ele>
        <time>2025-02-11T10:50:07Z</time>
      </trkpt>
      <trkpt lat="47.81408" lon="-2.45378">
        <ele>117.3</ele>
        <time>2025-02-11T10:50:08Z</time>
      </trkpt>
      <trkpt lat="47.81408" lon="-2.45379">
        <ele>117.2</ele>
        <time>2025-02-11T10:50:09Z</time>
      </trkpt>
      <trkpt lat="47.81408" lon="-2.45381">
        <ele>117.2</ele>
        <time>2025-02-11T10:50:10Z</time>
      </trkpt>
      <trkpt lat="47.81408" lon="-2.45383">
        <ele>117.1</ele>
        <time>2025-02-11T10:50:11Z</time>
      </trkpt>
      <trkpt lat="47.81408" lon="-2.45385">
        <ele>117.1</ele>
        <time>2025-02-11T10:50:12Z</time>
      </trkpt>
      <trkpt lat="47.81408" lon="-2.45387">
        <ele>117.1</ele>
        <time>2025-02-11T10:50:13Z</time>
      </trkpt>
      <trkpt lat="47.81408" lon="-2.45388">
        <ele>117</ele>
        <time>2025-02-11T10:50:14Z</time>
      </trkpt>
      <trkpt lat="47.81408" lon="-2.4539">
        <ele>117</ele>
        <time>2025-02-11T10:50:15Z</time>
      </trkpt>
      <trkpt lat="47.81408" lon="-2.45392">
        <ele>117</ele>
        <time>2025-02-11T10:50:16Z</time>
      </trkpt>
      <trkpt lat="47.81408" lon="-2.45394">
        <ele>117</ele>
        <time>2025-02-11T10:50:17Z</time>
      </trkpt>
      <trkpt lat="47.81408" lon="-2.45395">
        <ele>117</ele>
        <time>2025-02-11T10:50:18Z</time>
      </trkpt>
      <trkpt lat="47.81408" lon="-2.45397">
        <ele>117</ele>
        <time>2025-02-11T10:50:19Z</time>
      </trkpt>
      <trkpt lat="47.81407" lon="-2.45399">
        <ele>117</ele>
        <time>2025-02-11T10:50:20Z</time>
      </trkpt>
      <trkpt lat="47.81407" lon="-2.45401">
        <ele>117</ele>
        <time>2025-02-11T10:50:21Z</time>
      </trkpt>
      <trkpt lat="47.81407" lon="-2.45403">
        <ele>117</ele>
        <time>2025-02-11T10:50:22Z</time>
      </trkpt>
      <trkpt lat="47.81407" lon="-2.45405">
        <ele>117</ele>
        <time>2025-02-11T10:50:23Z</time>
      </trkpt>
      <trkpt lat="47.81407" lon="-2.45406">
        <ele>117</ele>
        <time>2025-02-11T10:50:24Z</time>
      </trkpt>
      <trkpt lat="47.81407" lon="-2.45408">
        <ele>117</ele>
        <time>2025-02-11T10:50:25Z</time>
      </trkpt>
      <trkpt lat="47.81407" lon="-2.4541">
        <ele>117</ele>
        <time>2025-02-11T10:50:26Z</time>
      </trkpt>
      <trkpt lat="47.81407" lon="-2.45412">
        <ele>117</ele>
        <time>2025-02-11T10:50:27Z</time>
      </trkpt>
      <trkpt lat="47.81407" lon="-2.45414">
        <ele>117</ele>
        <time>2025-02-11T10:50:28Z</time>
      </trkpt>
      <trkpt lat="47.81407" lon="-2.45415">
        <ele>117</ele>
        <time>2025-02-11T10:50:29Z</time>
      </trkpt>
      <trkpt lat="47.81408" lon="-2.45417">
        <ele>117</ele>
        <time>2025-02-11T10:50:30Z</time>
      </trkpt>
      <trkpt lat="47.81407" lon="-2.45419">
        <ele>117</ele>
        <time>2025-02-11T10:50:31Z</time>
      </trkpt>
      <trkpt lat="47.81408" lon="-2.45421">
        <ele>117.1</ele>
        <time>2025-02-11T10:50:32Z</time>
      </trkpt>
      <trkpt lat="47.81408" lon="-2.45422">
        <ele>117.1</ele>
        <time>2025-02-11T10:50:33Z</time>
      </trkpt>
      <trkpt lat="47.81408" lon="-2.45424">
        <ele>117.2</ele>
        <time>2025-02-11T10:50:34Z</time>
      </trkpt>
      <trkpt lat="47.81408" lon="-2.45426">
        <ele>117.2</ele>
        <time>2025-02-11T10:50:35Z</time>
      </trkpt>
      <trkpt lat="47.81408" lon="-2.45427">
        <ele>117.3</ele>
        <time>2025-02-11T10:50:36Z</time>
      </trkpt>
      <trkpt lat="47.81408" lon="-2.45429">
        <ele>117.3</ele>
        <time>2025-02-11T10:50:37Z</time>
      </trkpt>
      <trkpt lat="47.81408" lon="-2.45431">
        <ele>117.4</ele>
        <time>2025-02-11T10:50:38Z</time>
      </trkpt>
      <trkpt lat="47.81408" lon="-2.45433">
        <ele>117.4</ele>
        <time>2025-02-11T10:50:39Z</time>
      </trkpt>
      <trkpt lat="47.81408" lon="-2.45435">
        <ele>117.4</ele>
        <time>2025-02-11T10:50:40Z</time>
      </trkpt>
      <trkpt lat="47.81408" lon="-2.45436">
        <ele>117.5</ele>
        <time>2025-02-11T10:50:41Z</time>
      </trkpt>
      <trkpt lat="47.81408" lon="-2.45438">
        <ele>117.5</ele>
        <time>2025-02-11T10:50:42Z</time>
      </trkpt>
      <trkpt lat="47.81407" lon="-2.4544">
        <ele>117.5</ele>
        <time>2025-02-11T10:50:43Z</time>
      </trkpt>
      <trkpt lat="47.81407" lon="-2.45441">
        <ele>117.6</ele>
        <time>2025-02-11T10:50:44Z</time>
      </trkpt>
      <trkpt lat="47.81407" lon="-2.45443">
        <ele>117.6</ele>
        <time>2025-02-11T10:50:45Z</time>
      </trkpt>
      <trkpt lat="47.81406" lon="-2.45445">
        <ele>117.6</ele>
        <time>2025-02-11T10:50:46Z</time>
      </trkpt>
      <trkpt lat="47.81407" lon="-2.45447">
        <ele>117.6</ele>
        <time>2025-02-11T10:50:47Z</time>
      </trkpt>
      <trkpt lat="47.81407" lon="-2.45448">
        <ele>117.6</ele>
        <time>2025-02-11T10:50:48Z</time>
      </trkpt>
      <trkpt lat="47.81407" lon="-2.4545">
        <ele>117.6</ele>
        <time>2025-02-11T10:50:49Z</time>
      </trkpt>
      <trkpt lat="47.81407" lon="-2.45452">
        <ele>117.6</ele>
        <time>2025-02-11T10:50:50Z</time>
      </trkpt>
      <trkpt lat="47.81406" lon="-2.45454">
        <ele>117.6</ele>
        <time>2025-02-11T10:50:51Z</time>
      </trkpt>
      <trkpt lat="47.81406" lon="-2.45455">
        <ele>117.6</ele>
        <time>2025-02-11T10:50:52Z</time>
      </trkpt>
      <trkpt lat="47.81406" lon="-2.45457">
        <ele>117.6</ele>
        <time>2025-02-11T10:50:53Z</time>
      </trkpt>
      <trkpt lat="47.81406" lon="-2.45459">
        <ele>117.6</ele>
        <time>2025-02-11T10:50:54Z</time>
      </trkpt>
      <trkpt lat="47.81406" lon="-2.45461">
        <ele>117.6</ele>
        <time>2025-02-11T10:50:55Z</time>
      </trkpt>
      <trkpt lat="47.81406" lon="-2.45463">
        <ele>117.6</ele>
        <time>2025-02-11T10:50:56Z</time>
      </trkpt>
      <trkpt lat="47.81406" lon="-2.45465">
        <ele>117.6</ele>
        <time>2025-02-11T10:50:57Z</time>
      </trkpt>
      <trkpt lat="47.81406" lon="-2.45467">
        <ele>117.6</ele>
        <time>2025-02-11T10:50:58Z</time>
      </trkpt>
      <trkpt lat="47.81406" lon="-2.45468">
        <ele>117.6</ele>
        <time>2025-02-11T10:50:59Z</time>
      </trkpt>
      <trkpt lat="47.81406" lon="-2.4547">
        <ele>117.6</ele>
        <time>2025-02-11T10:51:00Z</time>
      </trkpt>
      <trkpt lat="47.81406" lon="-2.45472">
        <ele>117.6</ele>
        <time>2025-02-11T10:51:01Z</time>
      </trkpt>
      <trkpt lat="47.81406" lon="-2.45474">
        <ele>117.6</ele>
        <time>2025-02-11T10:51:02Z</time>
      </trkpt>
      <trkpt lat="47.81406" lon="-2.45476">
        <ele>117.6</ele>
        <time>2025-02-11T10:51:03Z</time>
      </trkpt>
      <trkpt lat="47.81406" lon="-2.45478">
        <ele>117.5</ele>
        <time>2025-02-11T10:51:04Z</time>
      </trkpt>
      <trkpt lat="47.81406" lon="-2.4548">
        <ele>117.5</ele>
        <time>2025-02-11T10:51:05Z</time>
      </trkpt>
      <trkpt lat="47.81406" lon="-2.45482">
        <ele>117.5</ele>
        <time>2025-02-11T10:51:06Z</time>
      </trkpt>
      <trkpt lat="47.81406" lon="-2.45483">
        <ele>117.5</ele>
        <time>2025-02-11T10:51:07Z</time>
      </trkpt>
      <trkpt lat="47.81406" lon="-2.45485">
        <ele>117.4</ele>
        <time>2025-02-11T10:51:08Z</time>
      </trkpt>
      <trkpt lat="47.81406" lon="-2.45487">
        <ele>117.4</ele>
        <time>2025-02-11T10:51:09Z</time>
      </trkpt>
      <trkpt lat="47.81406" lon="-2.45489">
        <ele>117.4</ele>
        <time>2025-02-11T10:51:10Z</time>
      </trkpt>
      <trkpt lat="47.81406" lon="-2.45491">
        <ele>117.4</ele>
        <time>2025-02-11T10:51:11Z</time>
      </trkpt>
      <trkpt lat="47.81406" lon="-2.45493">
        <ele>117.3</ele>
        <time>2025-02-11T10:51:12Z</time>
      </trkpt>
      <trkpt lat="47.81406" lon="-2.45495">
        <ele>117.3</ele>
        <time>2025-02-11T10:51:13Z</time>
      </trkpt>
      <trkpt lat="47.81406" lon="-2.45497">
        <ele>117.3</ele>
        <time>2025-02-11T10:51:14Z</time>
      </trkpt>
      <trkpt lat="47.81405" lon="-2.45499">
        <ele>117.2</ele>
        <time>2025-02-11T10:51:15Z</time>
      </trkpt>
      <trkpt lat="47.81405" lon="-2.455">
        <ele>117.1</ele>
        <time>2025-02-11T10:51:16Z</time>
      </trkpt>
      <trkpt lat="47.81404" lon="-2.45502">
        <ele>117.1</ele>
        <time>2025-02-11T10:51:17Z</time>
      </trkpt>
      <trkpt lat="47.81404" lon="-2.45504">
        <ele>117</ele>
        <time>2025-02-11T10:51:18Z</time>
      </trkpt>
      <trkpt lat="47.81404" lon="-2.45506">
        <ele>117</ele>
        <time>2025-02-11T10:51:19Z</time>
      </trkpt>
      <trkpt lat="47.81404" lon="-2.45508">
        <ele>116.9</ele>
        <time>2025-02-11T10:51:20Z</time>
      </trkpt>
      <trkpt lat="47.81404" lon="-2.4551">
        <ele>116.9</ele>
        <time>2025-02-11T10:51:21Z</time>
      </trkpt>
      <trkpt lat="47.81405" lon="-2.45513">
        <ele>116.9</ele>
        <time>2025-02-11T10:51:22Z</time>
      </trkpt>
      <trkpt lat="47.81405" lon="-2.45515">
        <ele>116.9</ele>
        <time>2025-02-11T10:51:23Z</time>
      </trkpt>
      <trkpt lat="47.81406" lon="-2.45517">
        <ele>116.9</ele>
        <time>2025-02-11T10:51:24Z</time>
      </trkpt>
      <trkpt lat="47.81406" lon="-2.45519">
        <ele>116.8</ele>
        <time>2025-02-11T10:51:25Z</time>
      </trkpt>
      <trkpt lat="47.81407" lon="-2.45521">
        <ele>116.8</ele>
        <time>2025-02-11T10:51:26Z</time>
      </trkpt>
      <trkpt lat="47.81406" lon="-2.45522">
        <ele>116.7</ele>
        <time>2025-02-11T10:51:27Z</time>
      </trkpt>
      <trkpt lat="47.81406" lon="-2.45524">
        <ele>116.7</ele>
        <time>2025-02-11T10:51:28Z</time>
      </trkpt>
      <trkpt lat="47.81406" lon="-2.45526">
        <ele>116.6</ele>
        <time>2025-02-11T10:51:29Z</time>
      </trkpt>
      <trkpt lat="47.81405" lon="-2.45528">
        <ele>116.6</ele>
        <time>2025-02-11T10:51:30Z</time>
      </trkpt>
      <trkpt lat="47.81405" lon="-2.45529">
        <ele>116.6</ele>
        <time>2025-02-11T10:51:31Z</time>
      </trkpt>
      <trkpt lat="47.81405" lon="-2.45531">
        <ele>116.6</ele>
        <time>2025-02-11T10:51:32Z</time>
      </trkpt>
      <trkpt lat="47.81405" lon="-2.45533">
        <ele>116.6</ele>
        <time>2025-02-11T10:51:33Z</time>
      </trkpt>
      <trkpt lat="47.81405" lon="-2.45535">
        <ele>116.6</ele>
        <time>2025-02-11T10:51:34Z</time>
      </trkpt>
      <trkpt lat="47.81405" lon="-2.45536">
        <ele>116.6</ele>
        <time>2025-02-11T10:51:35Z</time>
      </trkpt>
      <trkpt lat="47.81406" lon="-2.45538">
        <ele>116.6</ele>
        <time>2025-02-11T10:51:36Z</time>
      </trkpt>
      <trkpt lat="47.81407" lon="-2.45539">
        <ele>116.7</ele>
        <time>2025-02-11T10:51:37Z</time>
      </trkpt>
      <trkpt lat="47.81408" lon="-2.45539">
        <ele>116.7</ele>
        <time>2025-02-11T10:51:38Z</time>
      </trkpt>
      <trkpt lat="47.81409" lon="-2.45539">
        <ele>116.7</ele>
        <time>2025-02-11T10:51:39Z</time>
      </trkpt>
      <trkpt lat="47.81409" lon="-2.45539">
        <ele>116.7</ele>
        <time>2025-02-11T10:51:40Z</time>
      </trkpt>
      <trkpt lat="47.81409" lon="-2.45539">
        <ele>116.7</ele>
        <time>2025-02-11T10:51:41Z</time>
      </trkpt>
      <trkpt lat="47.81409" lon="-2.45539">
        <ele>116.7</ele>
        <time>2025-02-11T10:51:42Z</time>
      </trkpt>
      <trkpt lat="47.81408" lon="-2.45539">
        <ele>116.7</ele>
        <time>2025-02-11T10:51:43Z</time>
      </trkpt>
      <trkpt lat="47.81408" lon="-2.45538">
        <ele>116.7</ele>
        <time>2025-02-11T10:51:44Z</time>
      </trkpt>
      <trkpt lat="47.81412" lon="-2.45537">
        <ele>116.8</ele>
        <time>2025-02-11T10:51:45Z</time>
      </trkpt>
      <trkpt lat="47.81412" lon="-2.45537">
        <ele>116.8</ele>
        <time>2025-02-11T10:51:46Z</time>
      </trkpt>
      <trkpt lat="47.81411" lon="-2.45537">
        <ele>116.8</ele>
        <time>2025-02-11T10:51:47Z</time>
      </trkpt>
      <trkpt lat="47.81412" lon="-2.45538">
        <ele>116.8</ele>
        <time>2025-02-11T10:51:48Z</time>
      </trkpt>
      <trkpt lat="47.81411" lon="-2.45539">
        <ele>116.8</ele>
        <time>2025-02-11T10:51:49Z</time>
      </trkpt>
      <trkpt lat="47.8141" lon="-2.45541">
        <ele>116.8</ele>
        <time>2025-02-11T10:51:50Z</time>
      </trkpt>
      <trkpt lat="47.81409" lon="-2.45542">
        <ele>116.7</ele>
        <time>2025-02-11T10:51:51Z</time>
      </trkpt>
      <trkpt lat="47.81408" lon="-2.45544">
        <ele>116.7</ele>
        <time>2025-02-11T10:51:52Z</time>
      </trkpt>
      <trkpt lat="47.81407" lon="-2.45545">
        <ele>116.6</ele>
        <time>2025-02-11T10:51:53Z</time>
      </trkpt>
      <trkpt lat="47.81406" lon="-2.45547">
        <ele>116.6</ele>
        <time>2025-02-11T10:51:54Z</time>
      </trkpt>
      <trkpt lat="47.81406" lon="-2.45548">
        <ele>116.6</ele>
        <time>2025-02-11T10:51:55Z</time>
      </trkpt>
      <trkpt lat="47.81405" lon="-2.4555">
        <ele>116.6</ele>
        <time>2025-02-11T10:51:56Z</time>
      </trkpt>
      <trkpt lat="47.81404" lon="-2.45552">
        <ele>116.5</ele>
        <time>2025-02-11T10:51:57Z</time>
      </trkpt>
      <trkpt lat="47.81403" lon="-2.45554">
        <ele>116.5</ele>
        <time>2025-02-11T10:51:58Z</time>
      </trkpt>
      <trkpt lat="47.81403" lon="-2.45556">
        <ele>116.5</ele>
        <time>2025-02-11T10:51:59Z</time>
      </trkpt>
      <trkpt lat="47.81403" lon="-2.45558">
        <ele>116.5</ele>
        <time>2025-02-11T10:52:00Z</time>
      </trkpt>
      <trkpt lat="47.81403" lon="-2.4556">
        <ele>116.5</ele>
        <time>2025-02-11T10:52:01Z</time>
      </trkpt>
      <trkpt lat="47.81403" lon="-2.45561">
        <ele>116.5</ele>
        <time>2025-02-11T10:52:02Z</time>
      </trkpt>
      <trkpt lat="47.81403" lon="-2.45563">
        <ele>116.5</ele>
        <time>2025-02-11T10:52:03Z</time>
      </trkpt>
      <trkpt lat="47.81403" lon="-2.45565">
        <ele>116.5</ele>
        <time>2025-02-11T10:52:04Z</time>
      </trkpt>
      <trkpt lat="47.81403" lon="-2.45567">
        <ele>116.5</ele>
        <time>2025-02-11T10:52:05Z</time>
      </trkpt>
      <trkpt lat="47.81402" lon="-2.45569">
        <ele>116.5</ele>
        <time>2025-02-11T10:52:06Z</time>
      </trkpt>
      <trkpt lat="47.81402" lon="-2.45571">
        <ele>116.5</ele>
        <time>2025-02-11T10:52:07Z</time>
      </trkpt>
      <trkpt lat="47.81401" lon="-2.45572">
        <ele>116.4</ele>
        <time>2025-02-11T10:52:08Z</time>
      </trkpt>
      <trkpt lat="47.81401" lon="-2.45574">
        <ele>116.4</ele>
        <time>2025-02-11T10:52:09Z</time>
      </trkpt>
      <trkpt lat="47.81401" lon="-2.45576">
        <ele>116.5</ele>
        <time>2025-02-11T10:52:10Z</time>
      </trkpt>
      <trkpt lat="47.81402" lon="-2.45578">
        <ele>116.5</ele>
        <time>2025-02-11T10:52:11Z</time>
      </trkpt>
      <trkpt lat="47.81402" lon="-2.4558">
        <ele>116.5</ele>
        <time>2025-02-11T10:52:12Z</time>
      </trkpt>
      <trkpt lat="47.81402" lon="-2.45582">
        <ele>116.5</ele>
        <time>2025-02-11T10:52:13Z</time>
      </trkpt>
      <trkpt lat="47.81402" lon="-2.45583">
        <ele>116.5</ele>
        <time>2025-02-11T10:52:14Z</time>
      </trkpt>
      <trkpt lat="47.81402" lon="-2.45585">
        <ele>116.5</ele>
        <time>2025-02-11T10:52:15Z</time>
      </trkpt>
      <trkpt lat="47.81401" lon="-2.45587">
        <ele>116.5</ele>
        <time>2025-02-11T10:52:16Z</time>
      </trkpt>
      <trkpt lat="47.81401" lon="-2.45589">
        <ele>116.4</ele>
        <time>2025-02-11T10:52:17Z</time>
      </trkpt>
      <trkpt lat="47.81401" lon="-2.45591">
        <ele>116.4</ele>
        <time>2025-02-11T10:52:18Z</time>
      </trkpt>
      <trkpt lat="47.81401" lon="-2.45593">
        <ele>116.4</ele>
        <time>2025-02-11T10:52:19Z</time>
      </trkpt>
      <trkpt lat="47.81402" lon="-2.45595">
        <ele>116.5</ele>
        <time>2025-02-11T10:52:20Z</time>
      </trkpt>
      <trkpt lat="47.81402" lon="-2.45596">
        <ele>116.5</ele>
        <time>2025-02-11T10:52:21Z</time>
      </trkpt>
      <trkpt lat="47.81402" lon="-2.45598">
        <ele>116.5</ele>
        <time>2025-02-11T10:52:22Z</time>
      </trkpt>
      <trkpt lat="47.81402" lon="-2.456">
        <ele>116.5</ele>
        <time>2025-02-11T10:52:23Z</time>
      </trkpt>
      <trkpt lat="47.81402" lon="-2.45602">
        <ele>116.5</ele>
        <time>2025-02-11T10:52:24Z</time>
      </trkpt>
      <trkpt lat="47.81401" lon="-2.45604">
        <ele>116.5</ele>
        <time>2025-02-11T10:52:25Z</time>
      </trkpt>
      <trkpt lat="47.81401" lon="-2.45606">
        <ele>116.4</ele>
        <time>2025-02-11T10:52:26Z</time>
      </trkpt>
      <trkpt lat="47.81401" lon="-2.45608">
        <ele>116.4</ele>
        <time>2025-02-11T10:52:27Z</time>
      </trkpt>
      <trkpt lat="47.81401" lon="-2.45609">
        <ele>116.4</ele>
        <time>2025-02-11T10:52:28Z</time>
      </trkpt>
      <trkpt lat="47.81401" lon="-2.45611">
        <ele>116.4</ele>
        <time>2025-02-11T10:52:29Z</time>
      </trkpt>
      <trkpt lat="47.81401" lon="-2.45613">
        <ele>116.5</ele>
        <time>2025-02-11T10:52:30Z</time>
      </trkpt>
      <trkpt lat="47.81401" lon="-2.45615">
        <ele>116.5</ele>
        <time>2025-02-11T10:52:31Z</time>
      </trkpt>
      <trkpt lat="47.81401" lon="-2.45617">
        <ele>116.6</ele>
        <time>2025-02-11T10:52:32Z</time>
      </trkpt>
      <trkpt lat="47.81401" lon="-2.45618">
        <ele>116.6</ele>
        <time>2025-02-11T10:52:33Z</time>
      </trkpt>
      <trkpt lat="47.81401" lon="-2.4562">
        <ele>116.6</ele>
        <time>2025-02-11T10:52:34Z</time>
      </trkpt>
      <trkpt lat="47.81401" lon="-2.45622">
        <ele>116.7</ele>
        <time>2025-02-11T10:52:35Z</time>
      </trkpt>
      <trkpt lat="47.81401" lon="-2.45623">
        <ele>116.7</ele>
        <time>2025-02-11T10:52:36Z</time>
      </trkpt>
      <trkpt lat="47.81401" lon="-2.45625">
        <ele>116.7</ele>
        <time>2025-02-11T10:52:37Z</time>
      </trkpt>
      <trkpt lat="47.81401" lon="-2.45627">
        <ele>116.7</ele>
        <time>2025-02-11T10:52:38Z</time>
      </trkpt>
      <trkpt lat="47.81401" lon="-2.45629">
        <ele>116.8</ele>
        <time>2025-02-11T10:52:39Z</time>
      </trkpt>
      <trkpt lat="47.814" lon="-2.45632">
        <ele>116.8</ele>
        <time>2025-02-11T10:52:40Z</time>
      </trkpt>
      <trkpt lat="47.81399" lon="-2.45634">
        <ele>116.9</ele>
        <time>2025-02-11T10:52:41Z</time>
      </trkpt>
      <trkpt lat="47.81399" lon="-2.45636">
        <ele>116.9</ele>
        <time>2025-02-11T10:52:42Z</time>
      </trkpt>
      <trkpt lat="47.814" lon="-2.45637">
        <ele>117</ele>
        <time>2025-02-11T10:52:43Z</time>
      </trkpt>
      <trkpt lat="47.814" lon="-2.45639">
        <ele>117</ele>
        <time>2025-02-11T10:52:44Z</time>
      </trkpt>
      <trkpt lat="47.814" lon="-2.4564">
        <ele>117</ele>
        <time>2025-02-11T10:52:45Z</time>
      </trkpt>
      <trkpt lat="47.81401" lon="-2.45642">
        <ele>117</ele>
        <time>2025-02-11T10:52:46Z</time>
      </trkpt>
      <trkpt lat="47.81401" lon="-2.45643">
        <ele>117</ele>
        <time>2025-02-11T10:52:47Z</time>
      </trkpt>
      <trkpt lat="47.81401" lon="-2.45645">
        <ele>117</ele>
        <time>2025-02-11T10:52:48Z</time>
      </trkpt>
      <trkpt lat="47.81401" lon="-2.45646">
        <ele>117</ele>
        <time>2025-02-11T10:52:49Z</time>
      </trkpt>
      <trkpt lat="47.814" lon="-2.45648">
        <ele>117</ele>
        <time>2025-02-11T10:52:50Z</time>
      </trkpt>
      <trkpt lat="47.814" lon="-2.45649">
        <ele>117</ele>
        <time>2025-02-11T10:52:51Z</time>
      </trkpt>
      <trkpt lat="47.814" lon="-2.45651">
        <ele>117</ele>
        <time>2025-02-11T10:52:52Z</time>
      </trkpt>
      <trkpt lat="47.81399" lon="-2.45653">
        <ele>117</ele>
        <time>2025-02-11T10:52:53Z</time>
      </trkpt>
      <trkpt lat="47.814" lon="-2.45655">
        <ele>117</ele>
        <time>2025-02-11T10:52:54Z</time>
      </trkpt>
      <trkpt lat="47.814" lon="-2.45656">
        <ele>117</ele>
        <time>2025-02-11T10:52:55Z</time>
      </trkpt>
      <trkpt lat="47.814" lon="-2.45658">
        <ele>117</ele>
        <time>2025-02-11T10:52:56Z</time>
      </trkpt>
      <trkpt lat="47.814" lon="-2.45659">
        <ele>117</ele>
        <time>2025-02-11T10:52:57Z</time>
      </trkpt>
      <trkpt lat="47.814" lon="-2.45661">
        <ele>117</ele>
        <time>2025-02-11T10:52:58Z</time>
      </trkpt>
      <trkpt lat="47.814" lon="-2.45663">
        <ele>117</ele>
        <time>2025-02-11T10:52:59Z</time>
      </trkpt>
      <trkpt lat="47.814" lon="-2.45665">
        <ele>117</ele>
        <time>2025-02-11T10:53:00Z</time>
      </trkpt>
      <trkpt lat="47.81399" lon="-2.45666">
        <ele>117</ele>
        <time>2025-02-11T10:53:01Z</time>
      </trkpt>
      <trkpt lat="47.814" lon="-2.45668">
        <ele>117</ele>
        <time>2025-02-11T10:53:02Z</time>
      </trkpt>
      <trkpt lat="47.814" lon="-2.4567">
        <ele>117</ele>
        <time>2025-02-11T10:53:03Z</time>
      </trkpt>
      <trkpt lat="47.814" lon="-2.45672">
        <ele>117</ele>
        <time>2025-02-11T10:53:04Z</time>
      </trkpt>
      <trkpt lat="47.814" lon="-2.45674">
        <ele>117</ele>
        <time>2025-02-11T10:53:05Z</time>
      </trkpt>
      <trkpt lat="47.81399" lon="-2.45677">
        <ele>117</ele>
        <time>2025-02-11T10:53:06Z</time>
      </trkpt>
      <trkpt lat="47.814" lon="-2.45679">
        <ele>117</ele>
        <time>2025-02-11T10:53:07Z</time>
      </trkpt>
      <trkpt lat="47.81399" lon="-2.45681">
        <ele>117</ele>
        <time>2025-02-11T10:53:08Z</time>
      </trkpt>
      <trkpt lat="47.81399" lon="-2.45682">
        <ele>117</ele>
        <time>2025-02-11T10:53:09Z</time>
      </trkpt>
      <trkpt lat="47.81399" lon="-2.45684">
        <ele>117</ele>
        <time>2025-02-11T10:53:10Z</time>
      </trkpt>
      <trkpt lat="47.81398" lon="-2.45685">
        <ele>117</ele>
        <time>2025-02-11T10:53:11Z</time>
      </trkpt>
      <trkpt lat="47.81398" lon="-2.45687">
        <ele>117</ele>
        <time>2025-02-11T10:53:12Z</time>
      </trkpt>
      <trkpt lat="47.81398" lon="-2.45688">
        <ele>117</ele>
        <time>2025-02-11T10:53:13Z</time>
      </trkpt>
      <trkpt lat="47.81398" lon="-2.4569">
        <ele>117</ele>
        <time>2025-02-11T10:53:14Z</time>
      </trkpt>
      <trkpt lat="47.81398" lon="-2.45692">
        <ele>117</ele>
        <time>2025-02-11T10:53:15Z</time>
      </trkpt>
      <trkpt lat="47.81399" lon="-2.45694">
        <ele>117</ele>
        <time>2025-02-11T10:53:16Z</time>
      </trkpt>
      <trkpt lat="47.81398" lon="-2.45695">
        <ele>117</ele>
        <time>2025-02-11T10:53:17Z</time>
      </trkpt>
      <trkpt lat="47.81398" lon="-2.45697">
        <ele>117</ele>
        <time>2025-02-11T10:53:18Z</time>
      </trkpt>
      <trkpt lat="47.81398" lon="-2.45699">
        <ele>117</ele>
        <time>2025-02-11T10:53:19Z</time>
      </trkpt>
      <trkpt lat="47.81397" lon="-2.457">
        <ele>117</ele>
        <time>2025-02-11T10:53:20Z</time>
      </trkpt>
      <trkpt lat="47.81398" lon="-2.45701">
        <ele>117</ele>
        <time>2025-02-11T10:53:21Z</time>
      </trkpt>
      <trkpt lat="47.81398" lon="-2.45703">
        <ele>117</ele>
        <time>2025-02-11T10:53:22Z</time>
      </trkpt>
      <trkpt lat="47.81399" lon="-2.45705">
        <ele>117</ele>
        <time>2025-02-11T10:53:23Z</time>
      </trkpt>
      <trkpt lat="47.81399" lon="-2.45707">
        <ele>117</ele>
        <time>2025-02-11T10:53:24Z</time>
      </trkpt>
      <trkpt lat="47.81399" lon="-2.45709">
        <ele>117</ele>
        <time>2025-02-11T10:53:25Z</time>
      </trkpt>
      <trkpt lat="47.81397" lon="-2.45712">
        <ele>117</ele>
        <time>2025-02-11T10:53:26Z</time>
      </trkpt>
      <trkpt lat="47.81397" lon="-2.45714">
        <ele>117</ele>
        <time>2025-02-11T10:53:27Z</time>
      </trkpt>
      <trkpt lat="47.81397" lon="-2.45715">
        <ele>117</ele>
        <time>2025-02-11T10:53:28Z</time>
      </trkpt>
      <trkpt lat="47.81397" lon="-2.45718">
        <ele>117</ele>
        <time>2025-02-11T10:53:29Z</time>
      </trkpt>
      <trkpt lat="47.81397" lon="-2.4572">
        <ele>117</ele>
        <time>2025-02-11T10:53:30Z</time>
      </trkpt>
      <trkpt lat="47.81397" lon="-2.45722">
        <ele>117</ele>
        <time>2025-02-11T10:53:31Z</time>
      </trkpt>
      <trkpt lat="47.81398" lon="-2.45724">
        <ele>117</ele>
        <time>2025-02-11T10:53:32Z</time>
      </trkpt>
      <trkpt lat="47.81398" lon="-2.45725">
        <ele>117</ele>
        <time>2025-02-11T10:53:33Z</time>
      </trkpt>
      <trkpt lat="47.81398" lon="-2.45727">
        <ele>117</ele>
        <time>2025-02-11T10:53:34Z</time>
      </trkpt>
      <trkpt lat="47.81398" lon="-2.45729">
        <ele>117</ele>
        <time>2025-02-11T10:53:35Z</time>
      </trkpt>
      <trkpt lat="47.81398" lon="-2.45731">
        <ele>117</ele>
        <time>2025-02-11T10:53:36Z</time>
      </trkpt>
      <trkpt lat="47.81398" lon="-2.45733">
        <ele>117</ele>
        <time>2025-02-11T10:53:37Z</time>
      </trkpt>
      <trkpt lat="47.81399" lon="-2.45735">
        <ele>117</ele>
        <time>2025-02-11T10:53:38Z</time>
      </trkpt>
      <trkpt lat="47.81399" lon="-2.45737">
        <ele>117</ele>
        <time>2025-02-11T10:53:39Z</time>
      </trkpt>
      <trkpt lat="47.81399" lon="-2.45739">
        <ele>117</ele>
        <time>2025-02-11T10:53:40Z</time>
      </trkpt>
      <trkpt lat="47.81399" lon="-2.45742">
        <ele>117</ele>
        <time>2025-02-11T10:53:41Z</time>
      </trkpt>
      <trkpt lat="47.81399" lon="-2.45743">
        <ele>117</ele>
        <time>2025-02-11T10:53:42Z</time>
      </trkpt>
      <trkpt lat="47.814" lon="-2.45745">
        <ele>117</ele>
        <time>2025-02-11T10:53:43Z</time>
      </trkpt>
      <trkpt lat="47.814" lon="-2.45747">
        <ele>117</ele>
        <time>2025-02-11T10:53:44Z</time>
      </trkpt>
      <trkpt lat="47.81399" lon="-2.45749">
        <ele>117</ele>
        <time>2025-02-11T10:53:45Z</time>
      </trkpt>
      <trkpt lat="47.81399" lon="-2.45751">
        <ele>117</ele>
        <time>2025-02-11T10:53:46Z</time>
      </trkpt>
      <trkpt lat="47.81399" lon="-2.45753">
        <ele>117</ele>
        <time>2025-02-11T10:53:47Z</time>
      </trkpt>
      <trkpt lat="47.81398" lon="-2.45755">
        <ele>117</ele>
        <time>2025-02-11T10:53:48Z</time>
      </trkpt>
      <trkpt lat="47.81399" lon="-2.45757">
        <ele>117</ele>
        <time>2025-02-11T10:53:49Z</time>
      </trkpt>
      <trkpt lat="47.81399" lon="-2.45759">
        <ele>117</ele>
        <time>2025-02-11T10:53:50Z</time>
      </trkpt>
      <trkpt lat="47.81398" lon="-2.45761">
        <ele>117</ele>
        <time>2025-02-11T10:53:51Z</time>
      </trkpt>
      <trkpt lat="47.81398" lon="-2.45762">
        <ele>117</ele>
        <time>2025-02-11T10:53:52Z</time>
      </trkpt>
      <trkpt lat="47.81397" lon="-2.45764">
        <ele>117</ele>
        <time>2025-02-11T10:53:53Z</time>
      </trkpt>
      <trkpt lat="47.81398" lon="-2.45766">
        <ele>117</ele>
        <time>2025-02-11T10:53:54Z</time>
      </trkpt>
      <trkpt lat="47.81398" lon="-2.45768">
        <ele>117</ele>
        <time>2025-02-11T10:53:55Z</time>
      </trkpt>
      <trkpt lat="47.81398" lon="-2.4577">
        <ele>117</ele>
        <time>2025-02-11T10:53:56Z</time>
      </trkpt>
      <trkpt lat="47.81398" lon="-2.45772">
        <ele>117</ele>
        <time>2025-02-11T10:53:57Z</time>
      </trkpt>
      <trkpt lat="47.81398" lon="-2.45774">
        <ele>117</ele>
        <time>2025-02-11T10:53:58Z</time>
      </trkpt>
      <trkpt lat="47.81398" lon="-2.45776">
        <ele>117</ele>
        <time>2025-02-11T10:53:59Z</time>
      </trkpt>
      <trkpt lat="47.81397" lon="-2.45778">
        <ele>117</ele>
        <time>2025-02-11T10:54:00Z</time>
      </trkpt>
      <trkpt lat="47.81397" lon="-2.45779">
        <ele>117</ele>
        <time>2025-02-11T10:54:01Z</time>
      </trkpt>
      <trkpt lat="47.81397" lon="-2.4578">
        <ele>117</ele>
        <time>2025-02-11T10:54:02Z</time>
      </trkpt>
      <trkpt lat="47.81397" lon="-2.45782">
        <ele>117</ele>
        <time>2025-02-11T10:54:03Z</time>
      </trkpt>
      <trkpt lat="47.81397" lon="-2.45784">
        <ele>117</ele>
        <time>2025-02-11T10:54:04Z</time>
      </trkpt>
      <trkpt lat="47.81397" lon="-2.45786">
        <ele>117</ele>
        <time>2025-02-11T10:54:05Z</time>
      </trkpt>
      <trkpt lat="47.81396" lon="-2.45788">
        <ele>117</ele>
        <time>2025-02-11T10:54:06Z</time>
      </trkpt>
      <trkpt lat="47.81396" lon="-2.45789">
        <ele>117</ele>
        <time>2025-02-11T10:54:07Z</time>
      </trkpt>
      <trkpt lat="47.81397" lon="-2.45792">
        <ele>117</ele>
        <time>2025-02-11T10:54:08Z</time>
      </trkpt>
      <trkpt lat="47.81397" lon="-2.45793">
        <ele>117</ele>
        <time>2025-02-11T10:54:09Z</time>
      </trkpt>
      <trkpt lat="47.81397" lon="-2.45795">
        <ele>117</ele>
        <time>2025-02-11T10:54:10Z</time>
      </trkpt>
      <trkpt lat="47.81396" lon="-2.45797">
        <ele>117</ele>
        <time>2025-02-11T10:54:11Z</time>
      </trkpt>
      <trkpt lat="47.81397" lon="-2.45798">
        <ele>117</ele>
        <time>2025-02-11T10:54:12Z</time>
      </trkpt>
      <trkpt lat="47.81397" lon="-2.458">
        <ele>117</ele>
        <time>2025-02-11T10:54:13Z</time>
      </trkpt>
      <trkpt lat="47.81396" lon="-2.45802">
        <ele>117</ele>
        <time>2025-02-11T10:54:14Z</time>
      </trkpt>
      <trkpt lat="47.81396" lon="-2.45804">
        <ele>117</ele>
        <time>2025-02-11T10:54:15Z</time>
      </trkpt>
      <trkpt lat="47.81396" lon="-2.45806">
        <ele>117</ele>
        <time>2025-02-11T10:54:16Z</time>
      </trkpt>
      <trkpt lat="47.81396" lon="-2.45808">
        <ele>117</ele>
        <time>2025-02-11T10:54:17Z</time>
      </trkpt>
      <trkpt lat="47.81397" lon="-2.4581">
        <ele>117</ele>
        <time>2025-02-11T10:54:18Z</time>
      </trkpt>
      <trkpt lat="47.81397" lon="-2.45812">
        <ele>117.1</ele>
        <time>2025-02-11T10:54:19Z</time>
      </trkpt>
      <trkpt lat="47.81396" lon="-2.45814">
        <ele>117.1</ele>
        <time>2025-02-11T10:54:20Z</time>
      </trkpt>
      <trkpt lat="47.81396" lon="-2.45816">
        <ele>117.1</ele>
        <time>2025-02-11T10:54:21Z</time>
      </trkpt>
      <trkpt lat="47.81396" lon="-2.45817">
        <ele>117.1</ele>
        <time>2025-02-11T10:54:22Z</time>
      </trkpt>
      <trkpt lat="47.81396" lon="-2.45819">
        <ele>117.1</ele>
        <time>2025-02-11T10:54:23Z</time>
      </trkpt>
      <trkpt lat="47.81396" lon="-2.45821">
        <ele>117.1</ele>
        <time>2025-02-11T10:54:24Z</time>
      </trkpt>
      <trkpt lat="47.81397" lon="-2.45823">
        <ele>117.2</ele>
        <time>2025-02-11T10:54:25Z</time>
      </trkpt>
      <trkpt lat="47.81397" lon="-2.45824">
        <ele>117.2</ele>
        <time>2025-02-11T10:54:26Z</time>
      </trkpt>
      <trkpt lat="47.81398" lon="-2.45826">
        <ele>117.2</ele>
        <time>2025-02-11T10:54:27Z</time>
      </trkpt>
      <trkpt lat="47.81397" lon="-2.45828">
        <ele>117.2</ele>
        <time>2025-02-11T10:54:28Z</time>
      </trkpt>
      <trkpt lat="47.81396" lon="-2.4583">
        <ele>117.2</ele>
        <time>2025-02-11T10:54:29Z</time>
      </trkpt>
      <trkpt lat="47.81397" lon="-2.45832">
        <ele>117.3</ele>
        <time>2025-02-11T10:54:30Z</time>
      </trkpt>
      <trkpt lat="47.81398" lon="-2.45834">
        <ele>117.3</ele>
        <time>2025-02-11T10:54:31Z</time>
      </trkpt>
      <trkpt lat="47.81398" lon="-2.45836">
        <ele>117.3</ele>
        <time>2025-02-11T10:54:32Z</time>
      </trkpt>
      <trkpt lat="47.81397" lon="-2.45839">
        <ele>117.3</ele>
        <time>2025-02-11T10:54:33Z</time>
      </trkpt>
      <trkpt lat="47.81398" lon="-2.4584">
        <ele>117.3</ele>
        <time>2025-02-11T10:54:34Z</time>
      </trkpt>
      <trkpt lat="47.81398" lon="-2.45842">
        <ele>117.3</ele>
        <time>2025-02-11T10:54:35Z</time>
      </trkpt>
      <trkpt lat="47.81398" lon="-2.45843">
        <ele>117.3</ele>
        <time>2025-02-11T10:54:36Z</time>
      </trkpt>
      <trkpt lat="47.81398" lon="-2.45845">
        <ele>117.3</ele>
        <time>2025-02-11T10:54:37Z</time>
      </trkpt>
      <trkpt lat="47.81398" lon="-2.45846">
        <ele>117.3</ele>
        <time>2025-02-11T10:54:38Z</time>
      </trkpt>
      <trkpt lat="47.81398" lon="-2.45848">
        <ele>117.3</ele>
        <time>2025-02-11T10:54:39Z</time>
      </trkpt>
      <trkpt lat="47.81399" lon="-2.45849">
        <ele>117.4</ele>
        <time>2025-02-11T10:54:40Z</time>
      </trkpt>
      <trkpt lat="47.814" lon="-2.4585">
        <ele>117.4</ele>
        <time>2025-02-11T10:54:41Z</time>
      </trkpt>
      <trkpt lat="47.814" lon="-2.45848">
        <ele>117.4</ele>
        <time>2025-02-11T10:54:42Z</time>
      </trkpt>
      <trkpt lat="47.814" lon="-2.45848">
        <ele>117.4</ele>
        <time>2025-02-11T10:54:43Z</time>
      </trkpt>
      <trkpt lat="47.814" lon="-2.45848">
        <ele>117.4</ele>
        <time>2025-02-11T10:54:44Z</time>
      </trkpt>
      <trkpt lat="47.814" lon="-2.45848">
        <ele>117.4</ele>
        <time>2025-02-11T10:54:45Z</time>
      </trkpt>
      <trkpt lat="47.814" lon="-2.45848">
        <ele>117.4</ele>
        <time>2025-02-11T10:54:46Z</time>
      </trkpt>
      <trkpt lat="47.814" lon="-2.45848">
        <ele>117.4</ele>
        <time>2025-02-11T10:54:47Z</time>
      </trkpt>
      <trkpt lat="47.814" lon="-2.45848">
        <ele>117.4</ele>
        <time>2025-02-11T10:54:48Z</time>
      </trkpt>
      <trkpt lat="47.814" lon="-2.45848">
        <ele>117.4</ele>
        <time>2025-02-11T10:54:49Z</time>
      </trkpt>
      <trkpt lat="47.814" lon="-2.45848">
        <ele>117.4</ele>
        <time>2025-02-11T10:54:50Z</time>
      </trkpt>
      <trkpt lat="47.814" lon="-2.45848">
        <ele>117.4</ele>
        <time>2025-02-11T10:54:51Z</time>
      </trkpt>
      <trkpt lat="47.814" lon="-2.45848">
        <ele>117.4</ele>
        <time>2025-02-11T10:54:52Z</time>
      </trkpt>
      <trkpt lat="47.814" lon="-2.45848">
        <ele>117.4</ele>
        <time>2025-02-11T10:54:53Z</time>
      </trkpt>
      <trkpt lat="47.814" lon="-2.45848">
        <ele>117.4</ele>
        <time>2025-02-11T10:54:54Z</time>
      </trkpt>
      <trkpt lat="47.814" lon="-2.45848">
        <ele>117.4</ele>
        <time>2025-02-11T10:54:55Z</time>
      </trkpt>
      <trkpt lat="47.814" lon="-2.45848">
        <ele>117.4</ele>
        <time>2025-02-11T10:54:56Z</time>
      </trkpt>
      <trkpt lat="47.814" lon="-2.45848">
        <ele>117.4</ele>
        <time>2025-02-11T10:54:57Z</time>
      </trkpt>
      <trkpt lat="47.814" lon="-2.45849">
        <ele>117.4</ele>
        <time>2025-02-11T10:54:58Z</time>
      </trkpt>
      <trkpt lat="47.814" lon="-2.45851">
        <ele>117.4</ele>
        <time>2025-02-11T10:54:59Z</time>
      </trkpt>
      <trkpt lat="47.814" lon="-2.45853">
        <ele>117.4</ele>
        <time>2025-02-11T10:55:00Z</time>
      </trkpt>
      <trkpt lat="47.814" lon="-2.45855">
        <ele>117.4</ele>
        <time>2025-02-11T10:55:01Z</time>
      </trkpt>
      <trkpt lat="47.814" lon="-2.45856">
        <ele>117.4</ele>
        <time>2025-02-11T10:55:02Z</time>
      </trkpt>
      <trkpt lat="47.814" lon="-2.45858">
        <ele>117.4</ele>
        <time>2025-02-11T10:55:03Z</time>
      </trkpt>
      <trkpt lat="47.814" lon="-2.45859">
        <ele>117.4</ele>
        <time>2025-02-11T10:55:04Z</time>
      </trkpt>
      <trkpt lat="47.81399" lon="-2.45861">
        <ele>117.4</ele>
        <time>2025-02-11T10:55:05Z</time>
      </trkpt>
      <trkpt lat="47.81399" lon="-2.45863">
        <ele>117.4</ele>
        <time>2025-02-11T10:55:06Z</time>
      </trkpt>
      <trkpt lat="47.81398" lon="-2.45865">
        <ele>117.3</ele>
        <time>2025-02-11T10:55:07Z</time>
      </trkpt>
      <trkpt lat="47.81398" lon="-2.45867">
        <ele>117.3</ele>
        <time>2025-02-11T10:55:08Z</time>
      </trkpt>
      <trkpt lat="47.81398" lon="-2.45869">
        <ele>117.3</ele>
        <time>2025-02-11T10:55:09Z</time>
      </trkpt>
      <trkpt lat="47.81399" lon="-2.4587">
        <ele>117.3</ele>
        <time>2025-02-11T10:55:10Z</time>
      </trkpt>
      <trkpt lat="47.81398" lon="-2.45873">
        <ele>117.3</ele>
        <time>2025-02-11T10:55:11Z</time>
      </trkpt>
      <trkpt lat="47.81398" lon="-2.45874">
        <ele>117.3</ele>
        <time>2025-02-11T10:55:12Z</time>
      </trkpt>
      <trkpt lat="47.81397" lon="-2.45876">
        <ele>117.3</ele>
        <time>2025-02-11T10:55:13Z</time>
      </trkpt>
      <trkpt lat="47.81397" lon="-2.45877">
        <ele>117.3</ele>
        <time>2025-02-11T10:55:14Z</time>
      </trkpt>
      <trkpt lat="47.81397" lon="-2.45879">
        <ele>117.3</ele>
        <time>2025-02-11T10:55:15Z</time>
      </trkpt>
      <trkpt lat="47.81396" lon="-2.45881">
        <ele>117.3</ele>
        <time>2025-02-11T10:55:16Z</time>
      </trkpt>
      <trkpt lat="47.81395" lon="-2.45882">
        <ele>117.2</ele>
        <time>2025-02-11T10:55:17Z</time>
      </trkpt>
      <trkpt lat="47.81394" lon="-2.45883">
        <ele>117.2</ele>
        <time>2025-02-11T10:55:18Z</time>
      </trkpt>
      <trkpt lat="47.81394" lon="-2.45885">
        <ele>117.2</ele>
        <time>2025-02-11T10:55:19Z</time>
      </trkpt>
      <trkpt lat="47.81393" lon="-2.45887">
        <ele>117.2</ele>
        <time>2025-02-11T10:55:20Z</time>
      </trkpt>
      <trkpt lat="47.81393" lon="-2.45889">
        <ele>117.2</ele>
        <time>2025-02-11T10:55:21Z</time>
      </trkpt>
      <trkpt lat="47.81394" lon="-2.4589">
        <ele>117.2</ele>
        <time>2025-02-11T10:55:22Z</time>
      </trkpt>
      <trkpt lat="47.81395" lon="-2.45892">
        <ele>117.2</ele>
        <time>2025-02-11T10:55:23Z</time>
      </trkpt>
      <trkpt lat="47.81394" lon="-2.45894">
        <ele>117.2</ele>
        <time>2025-02-11T10:55:24Z</time>
      </trkpt>
      <trkpt lat="47.81394" lon="-2.45896">
        <ele>117.2</ele>
        <time>2025-02-11T10:55:25Z</time>
      </trkpt>
      <trkpt lat="47.81394" lon="-2.45898">
        <ele>117.2</ele>
        <time>2025-02-11T10:55:26Z</time>
      </trkpt>
      <trkpt lat="47.81394" lon="-2.45899">
        <ele>117.2</ele>
        <time>2025-02-11T10:55:27Z</time>
      </trkpt>
      <trkpt lat="47.81394" lon="-2.459">
        <ele>117.2</ele>
        <time>2025-02-11T10:55:28Z</time>
      </trkpt>
      <trkpt lat="47.81394" lon="-2.45902">
        <ele>117.2</ele>
        <time>2025-02-11T10:55:29Z</time>
      </trkpt>
      <trkpt lat="47.81394" lon="-2.45904">
        <ele>117.2</ele>
        <time>2025-02-11T10:55:30Z</time>
      </trkpt>
      <trkpt lat="47.81394" lon="-2.45906">
        <ele>117.2</ele>
        <time>2025-02-11T10:55:31Z</time>
      </trkpt>
      <trkpt lat="47.81394" lon="-2.45907">
        <ele>117.2</ele>
        <time>2025-02-11T10:55:32Z</time>
      </trkpt>
      <trkpt lat="47.81393" lon="-2.45909">
        <ele>117.2</ele>
        <time>2025-02-11T10:55:33Z</time>
      </trkpt>
      <trkpt lat="47.81393" lon="-2.45911">
        <ele>117.1</ele>
        <time>2025-02-11T10:55:34Z</time>
      </trkpt>
      <trkpt lat="47.81393" lon="-2.45913">
        <ele>117.2</ele>
        <time>2025-02-11T10:55:35Z</time>
      </trkpt>
      <trkpt lat="47.81393" lon="-2.45915">
        <ele>117.2</ele>
        <time>2025-02-11T10:55:36Z</time>
      </trkpt>
      <trkpt lat="47.81393" lon="-2.45916">
        <ele>117.1</ele>
        <time>2025-02-11T10:55:37Z</time>
      </trkpt>
      <trkpt lat="47.81392" lon="-2.45918">
        <ele>117.1</ele>
        <time>2025-02-11T10:55:38Z</time>
      </trkpt>
      <trkpt lat="47.81393" lon="-2.4592">
        <ele>117.1</ele>
        <time>2025-02-11T10:55:39Z</time>
      </trkpt>
      <trkpt lat="47.81392" lon="-2.45922">
        <ele>117.1</ele>
        <time>2025-02-11T10:55:40Z</time>
      </trkpt>
      <trkpt lat="47.81391" lon="-2.45923">
        <ele>117.1</ele>
        <time>2025-02-11T10:55:41Z</time>
      </trkpt>
      <trkpt lat="47.81391" lon="-2.45926">
        <ele>117.1</ele>
        <time>2025-02-11T10:55:42Z</time>
      </trkpt>
      <trkpt lat="47.81391" lon="-2.45928">
        <ele>117.1</ele>
        <time>2025-02-11T10:55:43Z</time>
      </trkpt>
      <trkpt lat="47.81391" lon="-2.4593">
        <ele>117</ele>
        <time>2025-02-11T10:55:44Z</time>
      </trkpt>
      <trkpt lat="47.81391" lon="-2.45931">
        <ele>117</ele>
        <time>2025-02-11T10:55:45Z</time>
      </trkpt>
      <trkpt lat="47.81391" lon="-2.45933">
        <ele>117</ele>
        <time>2025-02-11T10:55:46Z</time>
      </trkpt>
      <trkpt lat="47.81391" lon="-2.45935">
        <ele>117</ele>
        <time>2025-02-11T10:55:47Z</time>
      </trkpt>
      <trkpt lat="47.81391" lon="-2.45936">
        <ele>117</ele>
        <time>2025-02-11T10:55:48Z</time>
      </trkpt>
      <trkpt lat="47.81392" lon="-2.45938">
        <ele>117</ele>
        <time>2025-02-11T10:55:49Z</time>
      </trkpt>
      <trkpt lat="47.81392" lon="-2.4594">
        <ele>117</ele>
        <time>2025-02-11T10:55:50Z</time>
      </trkpt>
      <trkpt lat="47.81393" lon="-2.45942">
        <ele>117</ele>
        <time>2025-02-11T10:55:51Z</time>
      </trkpt>
      <trkpt lat="47.81393" lon="-2.45944">
        <ele>117</ele>
        <time>2025-02-11T10:55:52Z</time>
      </trkpt>
      <trkpt lat="47.81393" lon="-2.45945">
        <ele>117</ele>
        <time>2025-02-11T10:55:53Z</time>
      </trkpt>
      <trkpt lat="47.81392" lon="-2.45947">
        <ele>117.1</ele>
        <time>2025-02-11T10:55:54Z</time>
      </trkpt>
      <trkpt lat="47.81393" lon="-2.45949">
        <ele>117.1</ele>
        <time>2025-02-11T10:55:55Z</time>
      </trkpt>
      <trkpt lat="47.81393" lon="-2.4595">
        <ele>117.2</ele>
        <time>2025-02-11T10:55:56Z</time>
      </trkpt>
      <trkpt lat="47.81393" lon="-2.45952">
        <ele>117.2</ele>
        <time>2025-02-11T10:55:57Z</time>
      </trkpt>
      <trkpt lat="47.81394" lon="-2.45953">
        <ele>117.3</ele>
        <time>2025-02-11T10:55:58Z</time>
      </trkpt>
      <trkpt lat="47.81394" lon="-2.45955">
        <ele>117.3</ele>
        <time>2025-02-11T10:55:59Z</time>
      </trkpt>
      <trkpt lat="47.81395" lon="-2.45956">
        <ele>117.3</ele>
        <time>2025-02-11T10:56:00Z</time>
      </trkpt>
      <trkpt lat="47.81394" lon="-2.45958">
        <ele>117.4</ele>
        <time>2025-02-11T10:56:01Z</time>
      </trkpt>
      <trkpt lat="47.81394" lon="-2.4596">
        <ele>117.5</ele>
        <time>2025-02-11T10:56:02Z</time>
      </trkpt>
      <trkpt lat="47.81394" lon="-2.45962">
        <ele>117.5</ele>
        <time>2025-02-11T10:56:03Z</time>
      </trkpt>
      <trkpt lat="47.81394" lon="-2.45964">
        <ele>117.6</ele>
        <time>2025-02-11T10:56:04Z</time>
      </trkpt>
      <trkpt lat="47.81395" lon="-2.45965">
        <ele>117.6</ele>
        <time>2025-02-11T10:56:05Z</time>
      </trkpt>
      <trkpt lat="47.81395" lon="-2.45967">
        <ele>117.6</ele>
        <time>2025-02-11T10:56:06Z</time>
      </trkpt>
      <trkpt lat="47.81395" lon="-2.45969">
        <ele>117.7</ele>
        <time>2025-02-11T10:56:07Z</time>
      </trkpt>
      <trkpt lat="47.81395" lon="-2.45971">
        <ele>117.7</ele>
        <time>2025-02-11T10:56:08Z</time>
      </trkpt>
      <trkpt lat="47.81396" lon="-2.45972">
        <ele>117.8</ele>
        <time>2025-02-11T10:56:09Z</time>
      </trkpt>
      <trkpt lat="47.81396" lon="-2.45974">
        <ele>117.7</ele>
        <time>2025-02-11T10:56:10Z</time>
      </trkpt>
      <trkpt lat="47.81396" lon="-2.45976">
        <ele>117.7</ele>
        <time>2025-02-11T10:56:11Z</time>
      </trkpt>
      <trkpt lat="47.81396" lon="-2.45977">
        <ele>117.6</ele>
        <time>2025-02-11T10:56:12Z</time>
      </trkpt>
      <trkpt lat="47.81397" lon="-2.45979">
        <ele>117.5</ele>
        <time>2025-02-11T10:56:13Z</time>
      </trkpt>
      <trkpt lat="47.81396" lon="-2.45981">
        <ele>117.5</ele>
        <time>2025-02-11T10:56:14Z</time>
      </trkpt>
      <trkpt lat="47.81396" lon="-2.45983">
        <ele>117.5</ele>
        <time>2025-02-11T10:56:15Z</time>
      </trkpt>
      <trkpt lat="47.81397" lon="-2.45984">
        <ele>117.4</ele>
        <time>2025-02-11T10:56:16Z</time>
      </trkpt>
      <trkpt lat="47.81397" lon="-2.45986">
        <ele>117.4</ele>
        <time>2025-02-11T10:56:17Z</time>
      </trkpt>
      <trkpt lat="47.81397" lon="-2.45988">
        <ele>117.3</ele>
        <time>2025-02-11T10:56:18Z</time>
      </trkpt>
      <trkpt lat="47.81396" lon="-2.4599">
        <ele>117.3</ele>
        <time>2025-02-11T10:56:19Z</time>
      </trkpt>
      <trkpt lat="47.81396" lon="-2.45992">
        <ele>117.2</ele>
        <time>2025-02-11T10:56:20Z</time>
      </trkpt>
      <trkpt lat="47.81396" lon="-2.45994">
        <ele>117.2</ele>
        <time>2025-02-11T10:56:21Z</time>
      </trkpt>
      <trkpt lat="47.81396" lon="-2.45996">
        <ele>117.1</ele>
        <time>2025-02-11T10:56:22Z</time>
      </trkpt>
      <trkpt lat="47.81396" lon="-2.45998">
        <ele>117.1</ele>
        <time>2025-02-11T10:56:23Z</time>
      </trkpt>
      <trkpt lat="47.81396" lon="-2.46">
        <ele>117</ele>
        <time>2025-02-11T10:56:24Z</time>
      </trkpt>
      <trkpt lat="47.81396" lon="-2.46002">
        <ele>117</ele>
        <time>2025-02-11T10:56:25Z</time>
      </trkpt>
      <trkpt lat="47.81396" lon="-2.46003">
        <ele>117.1</ele>
        <time>2025-02-11T10:56:26Z</time>
      </trkpt>
      <trkpt lat="47.81397" lon="-2.46005">
        <ele>117.1</ele>
        <time>2025-02-11T10:56:27Z</time>
      </trkpt>
      <trkpt lat="47.81397" lon="-2.46007">
        <ele>117.2</ele>
        <time>2025-02-11T10:56:28Z</time>
      </trkpt>
      <trkpt lat="47.81397" lon="-2.46009">
        <ele>117.2</ele>
        <time>2025-02-11T10:56:29Z</time>
      </trkpt>
      <trkpt lat="47.81397" lon="-2.46011">
        <ele>117.3</ele>
        <time>2025-02-11T10:56:30Z</time>
      </trkpt>
      <trkpt lat="47.81398" lon="-2.46012">
        <ele>117.3</ele>
        <time>2025-02-11T10:56:31Z</time>
      </trkpt>
      <trkpt lat="47.81398" lon="-2.46014">
        <ele>117.3</ele>
        <time>2025-02-11T10:56:32Z</time>
      </trkpt>
      <trkpt lat="47.81399" lon="-2.46016">
        <ele>117.4</ele>
        <time>2025-02-11T10:56:33Z</time>
      </trkpt>
      <trkpt lat="47.81399" lon="-2.46018">
        <ele>117.4</ele>
        <time>2025-02-11T10:56:34Z</time>
      </trkpt>
      <trkpt lat="47.81399" lon="-2.4602">
        <ele>117.5</ele>
        <time>2025-02-11T10:56:35Z</time>
      </trkpt>
      <trkpt lat="47.81399" lon="-2.46022">
        <ele>117.5</ele>
        <time>2025-02-11T10:56:36Z</time>
      </trkpt>
      <trkpt lat="47.81399" lon="-2.46024">
        <ele>117.6</ele>
        <time>2025-02-11T10:56:37Z</time>
      </trkpt>
      <trkpt lat="47.81399" lon="-2.46026">
        <ele>117.6</ele>
        <time>2025-02-11T10:56:38Z</time>
      </trkpt>
      <trkpt lat="47.81399" lon="-2.46028">
        <ele>117.6</ele>
        <time>2025-02-11T10:56:39Z</time>
      </trkpt>
      <trkpt lat="47.814" lon="-2.46029">
        <ele>117.6</ele>
        <time>2025-02-11T10:56:40Z</time>
      </trkpt>
      <trkpt lat="47.814" lon="-2.46031">
        <ele>117.5</ele>
        <time>2025-02-11T10:56:41Z</time>
      </trkpt>
      <trkpt lat="47.81401" lon="-2.46033">
        <ele>117.5</ele>
        <time>2025-02-11T10:56:42Z</time>
      </trkpt>
      <trkpt lat="47.814" lon="-2.46035">
        <ele>117.4</ele>
        <time>2025-02-11T10:56:43Z</time>
      </trkpt>
      <trkpt lat="47.814" lon="-2.46037">
        <ele>117.4</ele>
        <time>2025-02-11T10:56:44Z</time>
      </trkpt>
      <trkpt lat="47.814" lon="-2.46038">
        <ele>117.4</ele>
        <time>2025-02-11T10:56:45Z</time>
      </trkpt>
      <trkpt lat="47.814" lon="-2.4604">
        <ele>117.3</ele>
        <time>2025-02-11T10:56:46Z</time>
      </trkpt>
      <trkpt lat="47.814" lon="-2.46042">
        <ele>117.3</ele>
        <time>2025-02-11T10:56:47Z</time>
      </trkpt>
      <trkpt lat="47.814" lon="-2.46044">
        <ele>117.3</ele>
        <time>2025-02-11T10:56:48Z</time>
      </trkpt>
      <trkpt lat="47.814" lon="-2.46046">
        <ele>117.2</ele>
        <time>2025-02-11T10:56:49Z</time>
      </trkpt>
      <trkpt lat="47.814" lon="-2.46048">
        <ele>117.2</ele>
        <time>2025-02-11T10:56:50Z</time>
      </trkpt>
      <trkpt lat="47.81401" lon="-2.46049">
        <ele>117.1</ele>
        <time>2025-02-11T10:56:51Z</time>
      </trkpt>
      <trkpt lat="47.81401" lon="-2.46051">
        <ele>117.1</ele>
        <time>2025-02-11T10:56:52Z</time>
      </trkpt>
      <trkpt lat="47.81402" lon="-2.46053">
        <ele>117.1</ele>
        <time>2025-02-11T10:56:53Z</time>
      </trkpt>
      <trkpt lat="47.81402" lon="-2.46055">
        <ele>117</ele>
        <time>2025-02-11T10:56:54Z</time>
      </trkpt>
      <trkpt lat="47.81401" lon="-2.46057">
        <ele>117</ele>
        <time>2025-02-11T10:56:55Z</time>
      </trkpt>
      <trkpt lat="47.81402" lon="-2.46058">
        <ele>117</ele>
        <time>2025-02-11T10:56:56Z</time>
      </trkpt>
      <trkpt lat="47.81402" lon="-2.4606">
        <ele>117</ele>
        <time>2025-02-11T10:56:57Z</time>
      </trkpt>
      <trkpt lat="47.81402" lon="-2.46062">
        <ele>117</ele>
        <time>2025-02-11T10:56:58Z</time>
      </trkpt>
      <trkpt lat="47.81402" lon="-2.46064">
        <ele>117</ele>
        <time>2025-02-11T10:56:59Z</time>
      </trkpt>
      <trkpt lat="47.81402" lon="-2.46066">
        <ele>117</ele>
        <time>2025-02-11T10:57:00Z</time>
      </trkpt>
      <trkpt lat="47.81402" lon="-2.46067">
        <ele>117</ele>
        <time>2025-02-11T10:57:01Z</time>
      </trkpt>
      <trkpt lat="47.81402" lon="-2.46069">
        <ele>117</ele>
        <time>2025-02-11T10:57:02Z</time>
      </trkpt>
      <trkpt lat="47.81402" lon="-2.46071">
        <ele>117</ele>
        <time>2025-02-11T10:57:03Z</time>
      </trkpt>
      <trkpt lat="47.81403" lon="-2.46073">
        <ele>117</ele>
        <time>2025-02-11T10:57:04Z</time>
      </trkpt>
      <trkpt lat="47.81402" lon="-2.46075">
        <ele>117</ele>
        <time>2025-02-11T10:57:05Z</time>
      </trkpt>
      <trkpt lat="47.81402" lon="-2.46077">
        <ele>117</ele>
        <time>2025-02-11T10:57:06Z</time>
      </trkpt>
      <trkpt lat="47.81402" lon="-2.46079">
        <ele>117</ele>
        <time>2025-02-11T10:57:07Z</time>
      </trkpt>
      <trkpt lat="47.81402" lon="-2.46081">
        <ele>117</ele>
        <time>2025-02-11T10:57:08Z</time>
      </trkpt>
      <trkpt lat="47.81402" lon="-2.46083">
        <ele>117</ele>
        <time>2025-02-11T10:57:09Z</time>
      </trkpt>
      <trkpt lat="47.81402" lon="-2.46085">
        <ele>117.1</ele>
        <time>2025-02-11T10:57:10Z</time>
      </trkpt>
      <trkpt lat="47.81402" lon="-2.46087">
        <ele>117.1</ele>
        <time>2025-02-11T10:57:11Z</time>
      </trkpt>
      <trkpt lat="47.81402" lon="-2.46089">
        <ele>117.2</ele>
        <time>2025-02-11T10:57:12Z</time>
      </trkpt>
      <trkpt lat="47.81403" lon="-2.46091">
        <ele>117.3</ele>
        <time>2025-02-11T10:57:13Z</time>
      </trkpt>
      <trkpt lat="47.81403" lon="-2.46092">
        <ele>117.3</ele>
        <time>2025-02-11T10:57:14Z</time>
      </trkpt>
      <trkpt lat="47.81403" lon="-2.46094">
        <ele>117.4</ele>
        <time>2025-02-11T10:57:15Z</time>
      </trkpt>
      <trkpt lat="47.81403" lon="-2.46096">
        <ele>117.5</ele>
        <time>2025-02-11T10:57:16Z</time>
      </trkpt>
      <trkpt lat="47.81403" lon="-2.46098">
        <ele>117.5</ele>
        <time>2025-02-11T10:57:17Z</time>
      </trkpt>
      <trkpt lat="47.81402" lon="-2.461">
        <ele>117.6</ele>
        <time>2025-02-11T10:57:18Z</time>
      </trkpt>
      <trkpt lat="47.81402" lon="-2.46102">
        <ele>117.7</ele>
        <time>2025-02-11T10:57:19Z</time>
      </trkpt>
      <trkpt lat="47.81402" lon="-2.46104">
        <ele>117.7</ele>
        <time>2025-02-11T10:57:20Z</time>
      </trkpt>
      <trkpt lat="47.81402" lon="-2.46106">
        <ele>117.8</ele>
        <time>2025-02-11T10:57:21Z</time>
      </trkpt>
      <trkpt lat="47.81402" lon="-2.46107">
        <ele>117.9</ele>
        <time>2025-02-11T10:57:22Z</time>
      </trkpt>
      <trkpt lat="47.81402" lon="-2.46109">
        <ele>117.9</ele>
        <time>2025-02-11T10:57:23Z</time>
      </trkpt>
      <trkpt lat="47.81402" lon="-2.46111">
        <ele>118</ele>
        <time>2025-02-11T10:57:24Z</time>
      </trkpt>
      <trkpt lat="47.81402" lon="-2.46113">
        <ele>118</ele>
        <time>2025-02-11T10:57:25Z</time>
      </trkpt>
      <trkpt lat="47.81402" lon="-2.46115">
        <ele>118</ele>
        <time>2025-02-11T10:57:26Z</time>
      </trkpt>
      <trkpt lat="47.81402" lon="-2.46116">
        <ele>118</ele>
        <time>2025-02-11T10:57:27Z</time>
      </trkpt>
      <trkpt lat="47.81401" lon="-2.46118">
        <ele>118</ele>
        <time>2025-02-11T10:57:28Z</time>
      </trkpt>
      <trkpt lat="47.81401" lon="-2.4612">
        <ele>118</ele>
        <time>2025-02-11T10:57:29Z</time>
      </trkpt>
      <trkpt lat="47.814" lon="-2.46121">
        <ele>118</ele>
        <time>2025-02-11T10:57:30Z</time>
      </trkpt>
      <trkpt lat="47.814" lon="-2.46123">
        <ele>118</ele>
        <time>2025-02-11T10:57:31Z</time>
      </trkpt>
      <trkpt lat="47.814" lon="-2.46125">
        <ele>118</ele>
        <time>2025-02-11T10:57:32Z</time>
      </trkpt>
      <trkpt lat="47.81399" lon="-2.46126">
        <ele>118</ele>
        <time>2025-02-11T10:57:33Z</time>
      </trkpt>
      <trkpt lat="47.81399" lon="-2.46128">
        <ele>118</ele>
        <time>2025-02-11T10:57:34Z</time>
      </trkpt>
      <trkpt lat="47.81398" lon="-2.4613">
        <ele>118</ele>
        <time>2025-02-11T10:57:35Z</time>
      </trkpt>
      <trkpt lat="47.81398" lon="-2.46132">
        <ele>118</ele>
        <time>2025-02-11T10:57:36Z</time>
      </trkpt>
      <trkpt lat="47.81398" lon="-2.46134">
        <ele>118</ele>
        <time>2025-02-11T10:57:37Z</time>
      </trkpt>
      <trkpt lat="47.81398" lon="-2.46136">
        <ele>118</ele>
        <time>2025-02-11T10:57:38Z</time>
      </trkpt>
      <trkpt lat="47.81398" lon="-2.46138">
        <ele>118</ele>
        <time>2025-02-11T10:57:39Z</time>
      </trkpt>
      <trkpt lat="47.81397" lon="-2.46139">
        <ele>118</ele>
        <time>2025-02-11T10:57:40Z</time>
      </trkpt>
      <trkpt lat="47.81397" lon="-2.46141">
        <ele>118</ele>
        <time>2025-02-11T10:57:41Z</time>
      </trkpt>
      <trkpt lat="47.81397" lon="-2.46143">
        <ele>118</ele>
        <time>2025-02-11T10:57:42Z</time>
      </trkpt>
      <trkpt lat="47.81397" lon="-2.46145">
        <ele>118.1</ele>
        <time>2025-02-11T10:57:43Z</time>
      </trkpt>
      <trkpt lat="47.81397" lon="-2.46147">
        <ele>118.1</ele>
        <time>2025-02-11T10:57:44Z</time>
      </trkpt>
      <trkpt lat="47.81397" lon="-2.46149">
        <ele>118.1</ele>
        <time>2025-02-11T10:57:45Z</time>
      </trkpt>
      <trkpt lat="47.81398" lon="-2.4615">
        <ele>118.1</ele>
        <time>2025-02-11T10:57:46Z</time>
      </trkpt>
      <trkpt lat="47.81398" lon="-2.46152">
        <ele>118.2</ele>
        <time>2025-02-11T10:57:47Z</time>
      </trkpt>
      <trkpt lat="47.81397" lon="-2.46154">
        <ele>118.2</ele>
        <time>2025-02-11T10:57:48Z</time>
      </trkpt>
      <trkpt lat="47.81397" lon="-2.46156">
        <ele>118.2</ele>
        <time>2025-02-11T10:57:49Z</time>
      </trkpt>
      <trkpt lat="47.81397" lon="-2.46158">
        <ele>118.2</ele>
        <time>2025-02-11T10:57:50Z</time>
      </trkpt>
      <trkpt lat="47.81397" lon="-2.46159">
        <ele>118.2</ele>
        <time>2025-02-11T10:57:51Z</time>
      </trkpt>
      <trkpt lat="47.81397" lon="-2.46161">
        <ele>118.2</ele>
        <time>2025-02-11T10:57:52Z</time>
      </trkpt>
      <trkpt lat="47.81397" lon="-2.46163">
        <ele>118.3</ele>
        <time>2025-02-11T10:57:53Z</time>
      </trkpt>
      <trkpt lat="47.81397" lon="-2.46165">
        <ele>118.3</ele>
        <time>2025-02-11T10:57:54Z</time>
      </trkpt>
      <trkpt lat="47.81396" lon="-2.46166">
        <ele>118.2</ele>
        <time>2025-02-11T10:57:55Z</time>
      </trkpt>
      <trkpt lat="47.81395" lon="-2.46168">
        <ele>118.2</ele>
        <time>2025-02-11T10:57:56Z</time>
      </trkpt>
      <trkpt lat="47.81395" lon="-2.4617">
        <ele>118.2</ele>
        <time>2025-02-11T10:57:57Z</time>
      </trkpt>
      <trkpt lat="47.81395" lon="-2.46172">
        <ele>118.2</ele>
        <time>2025-02-11T10:57:58Z</time>
      </trkpt>
      <trkpt lat="47.81395" lon="-2.46173">
        <ele>118.2</ele>
        <time>2025-02-11T10:57:59Z</time>
      </trkpt>
      <trkpt lat="47.81395" lon="-2.46175">
        <ele>118.2</ele>
        <time>2025-02-11T10:58:00Z</time>
      </trkpt>
      <trkpt lat="47.81394" lon="-2.46176">
        <ele>118.2</ele>
        <time>2025-02-11T10:58:01Z</time>
      </trkpt>
      <trkpt lat="47.81394" lon="-2.46178">
        <ele>118.2</ele>
        <time>2025-02-11T10:58:02Z</time>
      </trkpt>
      <trkpt lat="47.81394" lon="-2.4618">
        <ele>118.2</ele>
        <time>2025-02-11T10:58:03Z</time>
      </trkpt>
      <trkpt lat="47.81394" lon="-2.46182">
        <ele>118.2</ele>
        <time>2025-02-11T10:58:04Z</time>
      </trkpt>
      <trkpt lat="47.81393" lon="-2.46184">
        <ele>118.2</ele>
        <time>2025-02-11T10:58:05Z</time>
      </trkpt>
      <trkpt lat="47.81393" lon="-2.46186">
        <ele>118.1</ele>
        <time>2025-02-11T10:58:06Z</time>
      </trkpt>
      <trkpt lat="47.81392" lon="-2.46187">
        <ele>118.1</ele>
        <time>2025-02-11T10:58:07Z</time>
      </trkpt>
      <trkpt lat="47.81392" lon="-2.46189">
        <ele>118.1</ele>
        <time>2025-02-11T10:58:08Z</time>
      </trkpt>
      <trkpt lat="47.81392" lon="-2.46191">
        <ele>118.1</ele>
        <time>2025-02-11T10:58:09Z</time>
      </trkpt>
      <trkpt lat="47.81392" lon="-2.46193">
        <ele>118.1</ele>
        <time>2025-02-11T10:58:10Z</time>
      </trkpt>
      <trkpt lat="47.81392" lon="-2.46194">
        <ele>118.1</ele>
        <time>2025-02-11T10:58:11Z</time>
      </trkpt>
      <trkpt lat="47.81392" lon="-2.46196">
        <ele>118.1</ele>
        <time>2025-02-11T10:58:12Z</time>
      </trkpt>
      <trkpt lat="47.81392" lon="-2.46198">
        <ele>118.1</ele>
        <time>2025-02-11T10:58:13Z</time>
      </trkpt>
      <trkpt lat="47.81392" lon="-2.462">
        <ele>118.1</ele>
        <time>2025-02-11T10:58:14Z</time>
      </trkpt>
      <trkpt lat="47.81392" lon="-2.46202">
        <ele>118.1</ele>
        <time>2025-02-11T10:58:15Z</time>
      </trkpt>
      <trkpt lat="47.81392" lon="-2.46204">
        <ele>118.1</ele>
        <time>2025-02-11T10:58:16Z</time>
      </trkpt>
      <trkpt lat="47.81392" lon="-2.46206">
        <ele>118.1</ele>
        <time>2025-02-11T10:58:17Z</time>
      </trkpt>
      <trkpt lat="47.81392" lon="-2.46208">
        <ele>118.1</ele>
        <time>2025-02-11T10:58:18Z</time>
      </trkpt>
      <trkpt lat="47.81392" lon="-2.4621">
        <ele>118.1</ele>
        <time>2025-02-11T10:58:19Z</time>
      </trkpt>
      <trkpt lat="47.81391" lon="-2.46211">
        <ele>118.1</ele>
        <time>2025-02-11T10:58:20Z</time>
      </trkpt>
      <trkpt lat="47.81391" lon="-2.46213">
        <ele>118.1</ele>
        <time>2025-02-11T10:58:21Z</time>
      </trkpt>
      <trkpt lat="47.81391" lon="-2.46215">
        <ele>118.1</ele>
        <time>2025-02-11T10:58:22Z</time>
      </trkpt>
      <trkpt lat="47.81391" lon="-2.46217">
        <ele>118.1</ele>
        <time>2025-02-11T10:58:23Z</time>
      </trkpt>
      <trkpt lat="47.81391" lon="-2.46219">
        <ele>118.1</ele>
        <time>2025-02-11T10:58:24Z</time>
      </trkpt>
      <trkpt lat="47.81391" lon="-2.46221">
        <ele>118.1</ele>
        <time>2025-02-11T10:58:25Z</time>
      </trkpt>
      <trkpt lat="47.81391" lon="-2.46222">
        <ele>118.1</ele>
        <time>2025-02-11T10:58:26Z</time>
      </trkpt>
      <trkpt lat="47.8139" lon="-2.46224">
        <ele>118</ele>
        <time>2025-02-11T10:58:27Z</time>
      </trkpt>
      <trkpt lat="47.8139" lon="-2.46226">
        <ele>118</ele>
        <time>2025-02-11T10:58:28Z</time>
      </trkpt>
      <trkpt lat="47.8139" lon="-2.46228">
        <ele>118</ele>
        <time>2025-02-11T10:58:29Z</time>
      </trkpt>
      <trkpt lat="47.81389" lon="-2.4623">
        <ele>118</ele>
        <time>2025-02-11T10:58:30Z</time>
      </trkpt>
      <trkpt lat="47.81389" lon="-2.46231">
        <ele>118</ele>
        <time>2025-02-11T10:58:31Z</time>
      </trkpt>
      <trkpt lat="47.81388" lon="-2.46233">
        <ele>118</ele>
        <time>2025-02-11T10:58:32Z</time>
      </trkpt>
      <trkpt lat="47.81388" lon="-2.46235">
        <ele>118</ele>
        <time>2025-02-11T10:58:33Z</time>
      </trkpt>
      <trkpt lat="47.81388" lon="-2.46237">
        <ele>118</ele>
        <time>2025-02-11T10:58:34Z</time>
      </trkpt>
      <trkpt lat="47.81387" lon="-2.46239">
        <ele>118</ele>
        <time>2025-02-11T10:58:35Z</time>
      </trkpt>
      <trkpt lat="47.81387" lon="-2.46241">
        <ele>118</ele>
        <time>2025-02-11T10:58:36Z</time>
      </trkpt>
      <trkpt lat="47.81387" lon="-2.46243">
        <ele>118</ele>
        <time>2025-02-11T10:58:37Z</time>
      </trkpt>
      <trkpt lat="47.81387" lon="-2.46245">
        <ele>118</ele>
        <time>2025-02-11T10:58:38Z</time>
      </trkpt>
      <trkpt lat="47.81387" lon="-2.46247">
        <ele>118</ele>
        <time>2025-02-11T10:58:39Z</time>
      </trkpt>
      <trkpt lat="47.81387" lon="-2.46248">
        <ele>118</ele>
        <time>2025-02-11T10:58:40Z</time>
      </trkpt>
      <trkpt lat="47.81386" lon="-2.4625">
        <ele>118</ele>
        <time>2025-02-11T10:58:41Z</time>
      </trkpt>
      <trkpt lat="47.81386" lon="-2.46252">
        <ele>118.1</ele>
        <time>2025-02-11T10:58:42Z</time>
      </trkpt>
      <trkpt lat="47.81386" lon="-2.46254">
        <ele>118.1</ele>
        <time>2025-02-11T10:58:43Z</time>
      </trkpt>
      <trkpt lat="47.81386" lon="-2.46256">
        <ele>118.2</ele>
        <time>2025-02-11T10:58:44Z</time>
      </trkpt>
      <trkpt lat="47.81386" lon="-2.46257">
        <ele>118.2</ele>
        <time>2025-02-11T10:58:45Z</time>
      </trkpt>
      <trkpt lat="47.81386" lon="-2.46259">
        <ele>118.3</ele>
        <time>2025-02-11T10:58:46Z</time>
      </trkpt>
      <trkpt lat="47.81386" lon="-2.46261">
        <ele>118.4</ele>
        <time>2025-02-11T10:58:47Z</time>
      </trkpt>
      <trkpt lat="47.81386" lon="-2.46263">
        <ele>118.4</ele>
        <time>2025-02-11T10:58:48Z</time>
      </trkpt>
      <trkpt lat="47.81386" lon="-2.46265">
        <ele>118.5</ele>
        <time>2025-02-11T10:58:49Z</time>
      </trkpt>
      <trkpt lat="47.81386" lon="-2.46267">
        <ele>118.5</ele>
        <time>2025-02-11T10:58:50Z</time>
      </trkpt>
      <trkpt lat="47.81386" lon="-2.46269">
        <ele>118.6</ele>
        <time>2025-02-11T10:58:51Z</time>
      </trkpt>
      <trkpt lat="47.81386" lon="-2.4627">
        <ele>118.7</ele>
        <time>2025-02-11T10:58:52Z</time>
      </trkpt>
      <trkpt lat="47.81386" lon="-2.46272">
        <ele>118.7</ele>
        <time>2025-02-11T10:58:53Z</time>
      </trkpt>
      <trkpt lat="47.81385" lon="-2.46274">
        <ele>118.7</ele>
        <time>2025-02-11T10:58:54Z</time>
      </trkpt>
      <trkpt lat="47.81385" lon="-2.46276">
        <ele>118.8</ele>
        <time>2025-02-11T10:58:55Z</time>
      </trkpt>
      <trkpt lat="47.81385" lon="-2.46277">
        <ele>118.9</ele>
        <time>2025-02-11T10:58:56Z</time>
      </trkpt>
      <trkpt lat="47.81385" lon="-2.46279">
        <ele>118.9</ele>
        <time>2025-02-11T10:58:57Z</time>
      </trkpt>
      <trkpt lat="47.81385" lon="-2.46281">
        <ele>118.8</ele>
        <time>2025-02-11T10:58:58Z</time>
      </trkpt>
      <trkpt lat="47.81384" lon="-2.46283">
        <ele>118.8</ele>
        <time>2025-02-11T10:58:59Z</time>
      </trkpt>
      <trkpt lat="47.81384" lon="-2.46285">
        <ele>118.8</ele>
        <time>2025-02-11T10:59:00Z</time>
      </trkpt>
      <trkpt lat="47.81384" lon="-2.46286">
        <ele>118.8</ele>
        <time>2025-02-11T10:59:01Z</time>
      </trkpt>
      <trkpt lat="47.81384" lon="-2.46288">
        <ele>118.8</ele>
        <time>2025-02-11T10:59:02Z</time>
      </trkpt>
      <trkpt lat="47.81384" lon="-2.4629">
        <ele>118.8</ele>
        <time>2025-02-11T10:59:03Z</time>
      </trkpt>
      <trkpt lat="47.81383" lon="-2.46292">
        <ele>118.8</ele>
        <time>2025-02-11T10:59:04Z</time>
      </trkpt>
      <trkpt lat="47.81383" lon="-2.46294">
        <ele>118.8</ele>
        <time>2025-02-11T10:59:05Z</time>
      </trkpt>
      <trkpt lat="47.81383" lon="-2.46296">
        <ele>118.8</ele>
        <time>2025-02-11T10:59:06Z</time>
      </trkpt>
      <trkpt lat="47.81383" lon="-2.46298">
        <ele>118.8</ele>
        <time>2025-02-11T10:59:07Z</time>
      </trkpt>
      <trkpt lat="47.81383" lon="-2.463">
        <ele>118.8</ele>
        <time>2025-02-11T10:59:08Z</time>
      </trkpt>
      <trkpt lat="47.81383" lon="-2.46302">
        <ele>118.8</ele>
        <time>2025-02-11T10:59:09Z</time>
      </trkpt>
      <trkpt lat="47.81383" lon="-2.46303">
        <ele>118.8</ele>
        <time>2025-02-11T10:59:10Z</time>
      </trkpt>
      <trkpt lat="47.81383" lon="-2.46305">
        <ele>118.8</ele>
        <time>2025-02-11T10:59:11Z</time>
      </trkpt>
      <trkpt lat="47.81383" lon="-2.46307">
        <ele>118.8</ele>
        <time>2025-02-11T10:59:12Z</time>
      </trkpt>
      <trkpt lat="47.81382" lon="-2.46309">
        <ele>118.8</ele>
        <time>2025-02-11T10:59:13Z</time>
      </trkpt>
      <trkpt lat="47.81382" lon="-2.46311">
        <ele>118.8</ele>
        <time>2025-02-11T10:59:14Z</time>
      </trkpt>
      <trkpt lat="47.81382" lon="-2.46313">
        <ele>118.8</ele>
        <time>2025-02-11T10:59:15Z</time>
      </trkpt>
      <trkpt lat="47.81382" lon="-2.46315">
        <ele>118.8</ele>
        <time>2025-02-11T10:59:16Z</time>
      </trkpt>
      <trkpt lat="47.81382" lon="-2.46317">
        <ele>118.7</ele>
        <time>2025-02-11T10:59:17Z</time>
      </trkpt>
      <trkpt lat="47.81382" lon="-2.46319">
        <ele>118.8</ele>
        <time>2025-02-11T10:59:18Z</time>
      </trkpt>
      <trkpt lat="47.81382" lon="-2.46321">
        <ele>118.7</ele>
        <time>2025-02-11T10:59:19Z</time>
      </trkpt>
      <trkpt lat="47.81381" lon="-2.46323">
        <ele>118.7</ele>
        <time>2025-02-11T10:59:20Z</time>
      </trkpt>
      <trkpt lat="47.81381" lon="-2.46324">
        <ele>118.7</ele>
        <time>2025-02-11T10:59:21Z</time>
      </trkpt>
      <trkpt lat="47.8138" lon="-2.46326">
        <ele>118.7</ele>
        <time>2025-02-11T10:59:22Z</time>
      </trkpt>
      <trkpt lat="47.8138" lon="-2.46328">
        <ele>118.7</ele>
        <time>2025-02-11T10:59:23Z</time>
      </trkpt>
      <trkpt lat="47.8138" lon="-2.4633">
        <ele>118.7</ele>
        <time>2025-02-11T10:59:24Z</time>
      </trkpt>
      <trkpt lat="47.8138" lon="-2.46332">
        <ele>118.7</ele>
        <time>2025-02-11T10:59:25Z</time>
      </trkpt>
      <trkpt lat="47.8138" lon="-2.46334">
        <ele>118.7</ele>
        <time>2025-02-11T10:59:26Z</time>
      </trkpt>
      <trkpt lat="47.8138" lon="-2.46335">
        <ele>118.7</ele>
        <time>2025-02-11T10:59:27Z</time>
      </trkpt>
      <trkpt lat="47.8138" lon="-2.46337">
        <ele>118.7</ele>
        <time>2025-02-11T10:59:28Z</time>
      </trkpt>
      <trkpt lat="47.81379" lon="-2.46339">
        <ele>118.7</ele>
        <time>2025-02-11T10:59:29Z</time>
      </trkpt>
      <trkpt lat="47.81379" lon="-2.46341">
        <ele>118.7</ele>
        <time>2025-02-11T10:59:30Z</time>
      </trkpt>
      <trkpt lat="47.81379" lon="-2.46342">
        <ele>118.8</ele>
        <time>2025-02-11T10:59:31Z</time>
      </trkpt>
      <trkpt lat="47.81379" lon="-2.46344">
        <ele>118.8</ele>
        <time>2025-02-11T10:59:32Z</time>
      </trkpt>
      <trkpt lat="47.81379" lon="-2.46346">
        <ele>118.8</ele>
        <time>2025-02-11T10:59:33Z</time>
      </trkpt>
      <trkpt lat="47.81379" lon="-2.46348">
        <ele>118.8</ele>
        <time>2025-02-11T10:59:34Z</time>
      </trkpt>
      <trkpt lat="47.81378" lon="-2.4635">
        <ele>118.8</ele>
        <time>2025-02-11T10:59:35Z</time>
      </trkpt>
      <trkpt lat="47.81378" lon="-2.46351">
        <ele>118.9</ele>
        <time>2025-02-11T10:59:36Z</time>
      </trkpt>
      <trkpt lat="47.81378" lon="-2.46353">
        <ele>118.9</ele>
        <time>2025-02-11T10:59:37Z</time>
      </trkpt>
      <trkpt lat="47.81378" lon="-2.46355">
        <ele>118.9</ele>
        <time>2025-02-11T10:59:38Z</time>
      </trkpt>
      <trkpt lat="47.81377" lon="-2.46357">
        <ele>118.9</ele>
        <time>2025-02-11T10:59:39Z</time>
      </trkpt>
      <trkpt lat="47.81378" lon="-2.46359">
        <ele>119</ele>
        <time>2025-02-11T10:59:40Z</time>
      </trkpt>
      <trkpt lat="47.81377" lon="-2.46361">
        <ele>119</ele>
        <time>2025-02-11T10:59:41Z</time>
      </trkpt>
      <trkpt lat="47.81376" lon="-2.46363">
        <ele>119</ele>
        <time>2025-02-11T10:59:42Z</time>
      </trkpt>
      <trkpt lat="47.81376" lon="-2.46365">
        <ele>119.1</ele>
        <time>2025-02-11T10:59:43Z</time>
      </trkpt>
      <trkpt lat="47.81376" lon="-2.46367">
        <ele>119.1</ele>
        <time>2025-02-11T10:59:44Z</time>
      </trkpt>
      <trkpt lat="47.81375" lon="-2.46368">
        <ele>119.1</ele>
        <time>2025-02-11T10:59:45Z</time>
      </trkpt>
      <trkpt lat="47.81375" lon="-2.4637">
        <ele>119.2</ele>
        <time>2025-02-11T10:59:46Z</time>
      </trkpt>
      <trkpt lat="47.81375" lon="-2.46372">
        <ele>119.2</ele>
        <time>2025-02-11T10:59:47Z</time>
      </trkpt>
      <trkpt lat="47.81375" lon="-2.46374">
        <ele>119.2</ele>
        <time>2025-02-11T10:59:48Z</time>
      </trkpt>
      <trkpt lat="47.81375" lon="-2.46376">
        <ele>119.3</ele>
        <time>2025-02-11T10:59:49Z</time>
      </trkpt>
      <trkpt lat="47.81375" lon="-2.46377">
        <ele>119.3</ele>
        <time>2025-02-11T10:59:50Z</time>
      </trkpt>
      <trkpt lat="47.81375" lon="-2.46379">
        <ele>119.3</ele>
        <time>2025-02-11T10:59:51Z</time>
      </trkpt>
      <trkpt lat="47.81375" lon="-2.46381">
        <ele>119.3</ele>
        <time>2025-02-11T10:59:52Z</time>
      </trkpt>
      <trkpt lat="47.81375" lon="-2.46383">
        <ele>119.4</ele>
        <time>2025-02-11T10:59:53Z</time>
      </trkpt>
      <trkpt lat="47.81375" lon="-2.46385">
        <ele>119.4</ele>
        <time>2025-02-11T10:59:54Z</time>
      </trkpt>
      <trkpt lat="47.81375" lon="-2.46387">
        <ele>119.4</ele>
        <time>2025-02-11T10:59:55Z</time>
      </trkpt>
      <trkpt lat="47.81375" lon="-2.46388">
        <ele>119.5</ele>
        <time>2025-02-11T10:59:56Z</time>
      </trkpt>
      <trkpt lat="47.81375" lon="-2.4639">
        <ele>119.5</ele>
        <time>2025-02-11T10:59:57Z</time>
      </trkpt>
      <trkpt lat="47.81374" lon="-2.46392">
        <ele>119.5</ele>
        <time>2025-02-11T10:59:58Z</time>
      </trkpt>
      <trkpt lat="47.81374" lon="-2.46394">
        <ele>119.5</ele>
        <time>2025-02-11T10:59:59Z</time>
      </trkpt>
      <trkpt lat="47.81374" lon="-2.46396">
        <ele>119.4</ele>
        <time>2025-02-11T11:00:00Z</time>
      </trkpt>
      <trkpt lat="47.81374" lon="-2.46398">
        <ele>119.4</ele>
        <time>2025-02-11T11:00:01Z</time>
      </trkpt>
      <trkpt lat="47.81374" lon="-2.46399">
        <ele>119.4</ele>
        <time>2025-02-11T11:00:02Z</time>
      </trkpt>
      <trkpt lat="47.81373" lon="-2.46401">
        <ele>119.4</ele>
        <time>2025-02-11T11:00:03Z</time>
      </trkpt>
      <trkpt lat="47.81373" lon="-2.46403">
        <ele>119.4</ele>
        <time>2025-02-11T11:00:04Z</time>
      </trkpt>
      <trkpt lat="47.81373" lon="-2.46405">
        <ele>119.4</ele>
        <time>2025-02-11T11:00:05Z</time>
      </trkpt>
      <trkpt lat="47.81373" lon="-2.46407">
        <ele>119.4</ele>
        <time>2025-02-11T11:00:06Z</time>
      </trkpt>
      <trkpt lat="47.81373" lon="-2.46409">
        <ele>119.4</ele>
        <time>2025-02-11T11:00:07Z</time>
      </trkpt>
      <trkpt lat="47.81373" lon="-2.4641">
        <ele>119.4</ele>
        <time>2025-02-11T11:00:08Z</time>
      </trkpt>
      <trkpt lat="47.81373" lon="-2.46412">
        <ele>119.4</ele>
        <time>2025-02-11T11:00:09Z</time>
      </trkpt>
      <trkpt lat="47.81372" lon="-2.46414">
        <ele>119.4</ele>
        <time>2025-02-11T11:00:10Z</time>
      </trkpt>
      <trkpt lat="47.81373" lon="-2.46416">
        <ele>119.4</ele>
        <time>2025-02-11T11:00:11Z</time>
      </trkpt>
      <trkpt lat="47.81372" lon="-2.46418">
        <ele>119.4</ele>
        <time>2025-02-11T11:00:12Z</time>
      </trkpt>
      <trkpt lat="47.81372" lon="-2.4642">
        <ele>119.4</ele>
        <time>2025-02-11T11:00:13Z</time>
      </trkpt>
      <trkpt lat="47.81372" lon="-2.46422">
        <ele>119.5</ele>
        <time>2025-02-11T11:00:14Z</time>
      </trkpt>
      <trkpt lat="47.81372" lon="-2.46423">
        <ele>119.5</ele>
        <time>2025-02-11T11:00:15Z</time>
      </trkpt>
      <trkpt lat="47.81372" lon="-2.46425">
        <ele>119.5</ele>
        <time>2025-02-11T11:00:16Z</time>
      </trkpt>
      <trkpt lat="47.81372" lon="-2.46427">
        <ele>119.5</ele>
        <time>2025-02-11T11:00:17Z</time>
      </trkpt>
      <trkpt lat="47.81372" lon="-2.46428">
        <ele>119.5</ele>
        <time>2025-02-11T11:00:18Z</time>
      </trkpt>
      <trkpt lat="47.81372" lon="-2.4643">
        <ele>119.6</ele>
        <time>2025-02-11T11:00:19Z</time>
      </trkpt>
      <trkpt lat="47.81371" lon="-2.46432">
        <ele>119.6</ele>
        <time>2025-02-11T11:00:20Z</time>
      </trkpt>
      <trkpt lat="47.81371" lon="-2.46434">
        <ele>119.6</ele>
        <time>2025-02-11T11:00:21Z</time>
      </trkpt>
      <trkpt lat="47.81371" lon="-2.46435">
        <ele>119.6</ele>
        <time>2025-02-11T11:00:22Z</time>
      </trkpt>
      <trkpt lat="47.81371" lon="-2.46438">
        <ele>119.6</ele>
        <time>2025-02-11T11:00:23Z</time>
      </trkpt>
      <trkpt lat="47.81371" lon="-2.46439">
        <ele>119.6</ele>
        <time>2025-02-11T11:00:24Z</time>
      </trkpt>
      <trkpt lat="47.81371" lon="-2.46441">
        <ele>119.7</ele>
        <time>2025-02-11T11:00:25Z</time>
      </trkpt>
      <trkpt lat="47.81371" lon="-2.46443">
        <ele>119.7</ele>
        <time>2025-02-11T11:00:26Z</time>
      </trkpt>
      <trkpt lat="47.81371" lon="-2.46445">
        <ele>119.7</ele>
        <time>2025-02-11T11:00:27Z</time>
      </trkpt>
      <trkpt lat="47.81372" lon="-2.46447">
        <ele>119.7</ele>
        <time>2025-02-11T11:00:28Z</time>
      </trkpt>
      <trkpt lat="47.81372" lon="-2.46448">
        <ele>119.7</ele>
        <time>2025-02-11T11:00:29Z</time>
      </trkpt>
      <trkpt lat="47.81372" lon="-2.4645">
        <ele>119.7</ele>
        <time>2025-02-11T11:00:30Z</time>
      </trkpt>
      <trkpt lat="47.81372" lon="-2.46452">
        <ele>119.6</ele>
        <time>2025-02-11T11:00:31Z</time>
      </trkpt>
      <trkpt lat="47.81371" lon="-2.46454">
        <ele>119.6</ele>
        <time>2025-02-11T11:00:32Z</time>
      </trkpt>
      <trkpt lat="47.81371" lon="-2.46455">
        <ele>119.6</ele>
        <time>2025-02-11T11:00:33Z</time>
      </trkpt>
      <trkpt lat="47.81371" lon="-2.46457">
        <ele>119.6</ele>
        <time>2025-02-11T11:00:34Z</time>
      </trkpt>
      <trkpt lat="47.81372" lon="-2.46459">
        <ele>119.6</ele>
        <time>2025-02-11T11:00:35Z</time>
      </trkpt>
      <trkpt lat="47.81372" lon="-2.46461">
        <ele>119.5</ele>
        <time>2025-02-11T11:00:36Z</time>
      </trkpt>
      <trkpt lat="47.81372" lon="-2.46462">
        <ele>119.5</ele>
        <time>2025-02-11T11:00:37Z</time>
      </trkpt>
      <trkpt lat="47.81372" lon="-2.46464">
        <ele>119.5</ele>
        <time>2025-02-11T11:00:38Z</time>
      </trkpt>
      <trkpt lat="47.81373" lon="-2.46466">
        <ele>119.5</ele>
        <time>2025-02-11T11:00:39Z</time>
      </trkpt>
      <trkpt lat="47.81373" lon="-2.46468">
        <ele>119.5</ele>
        <time>2025-02-11T11:00:40Z</time>
      </trkpt>
      <trkpt lat="47.81373" lon="-2.4647">
        <ele>119.5</ele>
        <time>2025-02-11T11:00:41Z</time>
      </trkpt>
      <trkpt lat="47.81373" lon="-2.46472">
        <ele>119.5</ele>
        <time>2025-02-11T11:00:42Z</time>
      </trkpt>
      <trkpt lat="47.81374" lon="-2.46473">
        <ele>119.4</ele>
        <time>2025-02-11T11:00:43Z</time>
      </trkpt>
      <trkpt lat="47.81374" lon="-2.46475">
        <ele>119.5</ele>
        <time>2025-02-11T11:00:44Z</time>
      </trkpt>
      <trkpt lat="47.81374" lon="-2.46477">
        <ele>119.5</ele>
        <time>2025-02-11T11:00:45Z</time>
      </trkpt>
      <trkpt lat="47.81374" lon="-2.46478">
        <ele>119.4</ele>
        <time>2025-02-11T11:00:46Z</time>
      </trkpt>
      <trkpt lat="47.81374" lon="-2.4648">
        <ele>119.5</ele>
        <time>2025-02-11T11:00:47Z</time>
      </trkpt>
      <trkpt lat="47.81374" lon="-2.46482">
        <ele>119.5</ele>
        <time>2025-02-11T11:00:48Z</time>
      </trkpt>
      <trkpt lat="47.81375" lon="-2.46483">
        <ele>119.5</ele>
        <time>2025-02-11T11:00:49Z</time>
      </trkpt>
      <trkpt lat="47.81375" lon="-2.46486">
        <ele>119.5</ele>
        <time>2025-02-11T11:00:50Z</time>
      </trkpt>
      <trkpt lat="47.81374" lon="-2.46488">
        <ele>119.5</ele>
        <time>2025-02-11T11:00:51Z</time>
      </trkpt>
      <trkpt lat="47.81374" lon="-2.46489">
        <ele>119.5</ele>
        <time>2025-02-11T11:00:52Z</time>
      </trkpt>
      <trkpt lat="47.81374" lon="-2.46491">
        <ele>119.5</ele>
        <time>2025-02-11T11:00:53Z</time>
      </trkpt>
      <trkpt lat="47.81375" lon="-2.46493">
        <ele>119.5</ele>
        <time>2025-02-11T11:00:54Z</time>
      </trkpt>
      <trkpt lat="47.81375" lon="-2.46495">
        <ele>119.5</ele>
        <time>2025-02-11T11:00:55Z</time>
      </trkpt>
      <trkpt lat="47.81376" lon="-2.46497">
        <ele>119.5</ele>
        <time>2025-02-11T11:00:56Z</time>
      </trkpt>
      <trkpt lat="47.81376" lon="-2.46499">
        <ele>119.5</ele>
        <time>2025-02-11T11:00:57Z</time>
      </trkpt>
      <trkpt lat="47.81376" lon="-2.46502">
        <ele>119.6</ele>
        <time>2025-02-11T11:00:58Z</time>
      </trkpt>
      <trkpt lat="47.81376" lon="-2.46504">
        <ele>119.6</ele>
        <time>2025-02-11T11:00:59Z</time>
      </trkpt>
      <trkpt lat="47.81376" lon="-2.46506">
        <ele>119.6</ele>
        <time>2025-02-11T11:01:00Z</time>
      </trkpt>
      <trkpt lat="47.81376" lon="-2.46508">
        <ele>119.7</ele>
        <time>2025-02-11T11:01:01Z</time>
      </trkpt>
      <trkpt lat="47.81376" lon="-2.46509">
        <ele>119.7</ele>
        <time>2025-02-11T11:01:02Z</time>
      </trkpt>
      <trkpt lat="47.81376" lon="-2.46511">
        <ele>119.7</ele>
        <time>2025-02-11T11:01:03Z</time>
      </trkpt>
      <trkpt lat="47.81376" lon="-2.46512">
        <ele>119.7</ele>
        <time>2025-02-11T11:01:04Z</time>
      </trkpt>
      <trkpt lat="47.81376" lon="-2.46514">
        <ele>119.8</ele>
        <time>2025-02-11T11:01:05Z</time>
      </trkpt>
      <trkpt lat="47.81378" lon="-2.46515">
        <ele>119.8</ele>
        <time>2025-02-11T11:01:06Z</time>
      </trkpt>
      <trkpt lat="47.81378" lon="-2.46517">
        <ele>119.9</ele>
        <time>2025-02-11T11:01:07Z</time>
      </trkpt>
      <trkpt lat="47.81378" lon="-2.46519">
        <ele>119.9</ele>
        <time>2025-02-11T11:01:08Z</time>
      </trkpt>
      <trkpt lat="47.81379" lon="-2.46521">
        <ele>119.9</ele>
        <time>2025-02-11T11:01:09Z</time>
      </trkpt>
      <trkpt lat="47.81379" lon="-2.46523">
        <ele>119.9</ele>
        <time>2025-02-11T11:01:10Z</time>
      </trkpt>
      <trkpt lat="47.81379" lon="-2.46525">
        <ele>120</ele>
        <time>2025-02-11T11:01:11Z</time>
      </trkpt>
      <trkpt lat="47.81379" lon="-2.46527">
        <ele>120</ele>
        <time>2025-02-11T11:01:12Z</time>
      </trkpt>
      <trkpt lat="47.81379" lon="-2.46529">
        <ele>120</ele>
        <time>2025-02-11T11:01:13Z</time>
      </trkpt>
      <trkpt lat="47.81379" lon="-2.46531">
        <ele>120</ele>
        <time>2025-02-11T11:01:14Z</time>
      </trkpt>
      <trkpt lat="47.8138" lon="-2.46533">
        <ele>120</ele>
        <time>2025-02-11T11:01:15Z</time>
      </trkpt>
      <trkpt lat="47.8138" lon="-2.46534">
        <ele>120</ele>
        <time>2025-02-11T11:01:16Z</time>
      </trkpt>
      <trkpt lat="47.81381" lon="-2.46536">
        <ele>120</ele>
        <time>2025-02-11T11:01:17Z</time>
      </trkpt>
      <trkpt lat="47.81381" lon="-2.46538">
        <ele>120</ele>
        <time>2025-02-11T11:01:18Z</time>
      </trkpt>
      <trkpt lat="47.81381" lon="-2.46539">
        <ele>120</ele>
        <time>2025-02-11T11:01:19Z</time>
      </trkpt>
      <trkpt lat="47.8138" lon="-2.46541">
        <ele>120</ele>
        <time>2025-02-11T11:01:20Z</time>
      </trkpt>
      <trkpt lat="47.8138" lon="-2.46544">
        <ele>120</ele>
        <time>2025-02-11T11:01:21Z</time>
      </trkpt>
      <trkpt lat="47.81381" lon="-2.46546">
        <ele>120</ele>
        <time>2025-02-11T11:01:22Z</time>
      </trkpt>
      <trkpt lat="47.81381" lon="-2.46547">
        <ele>120</ele>
        <time>2025-02-11T11:01:23Z</time>
      </trkpt>
      <trkpt lat="47.81381" lon="-2.46549">
        <ele>120</ele>
        <time>2025-02-11T11:01:24Z</time>
      </trkpt>
      <trkpt lat="47.81382" lon="-2.46551">
        <ele>120</ele>
        <time>2025-02-11T11:01:25Z</time>
      </trkpt>
      <trkpt lat="47.81383" lon="-2.46552">
        <ele>120</ele>
        <time>2025-02-11T11:01:26Z</time>
      </trkpt>
      <trkpt lat="47.81383" lon="-2.46555">
        <ele>120</ele>
        <time>2025-02-11T11:01:27Z</time>
      </trkpt>
      <trkpt lat="47.81384" lon="-2.46557">
        <ele>120</ele>
        <time>2025-02-11T11:01:28Z</time>
      </trkpt>
      <trkpt lat="47.81384" lon="-2.46559">
        <ele>120</ele>
        <time>2025-02-11T11:01:29Z</time>
      </trkpt>
      <trkpt lat="47.81384" lon="-2.46561">
        <ele>120</ele>
        <time>2025-02-11T11:01:30Z</time>
      </trkpt>
      <trkpt lat="47.81384" lon="-2.46562">
        <ele>120</ele>
        <time>2025-02-11T11:01:31Z</time>
      </trkpt>
      <trkpt lat="47.81384" lon="-2.46564">
        <ele>120</ele>
        <time>2025-02-11T11:01:32Z</time>
      </trkpt>
      <trkpt lat="47.81385" lon="-2.46566">
        <ele>120</ele>
        <time>2025-02-11T11:01:33Z</time>
      </trkpt>
      <trkpt lat="47.81385" lon="-2.46568">
        <ele>120</ele>
        <time>2025-02-11T11:01:34Z</time>
      </trkpt>
      <trkpt lat="47.81385" lon="-2.4657">
        <ele>120</ele>
        <time>2025-02-11T11:01:35Z</time>
      </trkpt>
      <trkpt lat="47.81385" lon="-2.46572">
        <ele>120</ele>
        <time>2025-02-11T11:01:36Z</time>
      </trkpt>
      <trkpt lat="47.81385" lon="-2.46573">
        <ele>120</ele>
        <time>2025-02-11T11:01:37Z</time>
      </trkpt>
      <trkpt lat="47.81385" lon="-2.46575">
        <ele>120</ele>
        <time>2025-02-11T11:01:38Z</time>
      </trkpt>
      <trkpt lat="47.81386" lon="-2.46577">
        <ele>120</ele>
        <time>2025-02-11T11:01:39Z</time>
      </trkpt>
      <trkpt lat="47.81386" lon="-2.46579">
        <ele>120</ele>
        <time>2025-02-11T11:01:40Z</time>
      </trkpt>
      <trkpt lat="47.81386" lon="-2.46581">
        <ele>120</ele>
        <time>2025-02-11T11:01:41Z</time>
      </trkpt>
      <trkpt lat="47.81387" lon="-2.46583">
        <ele>120</ele>
        <time>2025-02-11T11:01:42Z</time>
      </trkpt>
      <trkpt lat="47.81386" lon="-2.46585">
        <ele>120</ele>
        <time>2025-02-11T11:01:43Z</time>
      </trkpt>
      <trkpt lat="47.81386" lon="-2.46587">
        <ele>120</ele>
        <time>2025-02-11T11:01:44Z</time>
      </trkpt>
      <trkpt lat="47.81386" lon="-2.46589">
        <ele>120</ele>
        <time>2025-02-11T11:01:45Z</time>
      </trkpt>
      <trkpt lat="47.81386" lon="-2.46591">
        <ele>120</ele>
        <time>2025-02-11T11:01:46Z</time>
      </trkpt>
      <trkpt lat="47.81387" lon="-2.46592">
        <ele>120</ele>
        <time>2025-02-11T11:01:47Z</time>
      </trkpt>
      <trkpt lat="47.81387" lon="-2.46594">
        <ele>120</ele>
        <time>2025-02-11T11:01:48Z</time>
      </trkpt>
      <trkpt lat="47.81387" lon="-2.46596">
        <ele>120</ele>
        <time>2025-02-11T11:01:49Z</time>
      </trkpt>
      <trkpt lat="47.81388" lon="-2.46598">
        <ele>120</ele>
        <time>2025-02-11T11:01:50Z</time>
      </trkpt>
      <trkpt lat="47.81388" lon="-2.466">
        <ele>120</ele>
        <time>2025-02-11T11:01:51Z</time>
      </trkpt>
      <trkpt lat="47.81388" lon="-2.46602">
        <ele>120</ele>
        <time>2025-02-11T11:01:52Z</time>
      </trkpt>
      <trkpt lat="47.81389" lon="-2.46603">
        <ele>120</ele>
        <time>2025-02-11T11:01:53Z</time>
      </trkpt>
      <trkpt lat="47.81389" lon="-2.46605">
        <ele>120</ele>
        <time>2025-02-11T11:01:54Z</time>
      </trkpt>
      <trkpt lat="47.8139" lon="-2.46607">
        <ele>120</ele>
        <time>2025-02-11T11:01:55Z</time>
      </trkpt>
      <trkpt lat="47.8139" lon="-2.46609">
        <ele>120</ele>
        <time>2025-02-11T11:01:56Z</time>
      </trkpt>
      <trkpt lat="47.8139" lon="-2.46611">
        <ele>120</ele>
        <time>2025-02-11T11:01:57Z</time>
      </trkpt>
      <trkpt lat="47.8139" lon="-2.46612">
        <ele>120</ele>
        <time>2025-02-11T11:01:58Z</time>
      </trkpt>
      <trkpt lat="47.81391" lon="-2.46613">
        <ele>120</ele>
        <time>2025-02-11T11:01:59Z</time>
      </trkpt>
      <trkpt lat="47.81391" lon="-2.46614">
        <ele>120</ele>
        <time>2025-02-11T11:02:00Z</time>
      </trkpt>
      <trkpt lat="47.81392" lon="-2.46615">
        <ele>120</ele>
        <time>2025-02-11T11:02:01Z</time>
      </trkpt>
      <trkpt lat="47.81392" lon="-2.46617">
        <ele>120</ele>
        <time>2025-02-11T11:02:02Z</time>
      </trkpt>
      <trkpt lat="47.81391" lon="-2.46618">
        <ele>120</ele>
        <time>2025-02-11T11:02:03Z</time>
      </trkpt>
      <trkpt lat="47.81391" lon="-2.4662">
        <ele>120</ele>
        <time>2025-02-11T11:02:04Z</time>
      </trkpt>
      <trkpt lat="47.81391" lon="-2.46621">
        <ele>120</ele>
        <time>2025-02-11T11:02:05Z</time>
      </trkpt>
      <trkpt lat="47.81391" lon="-2.4662">
        <ele>120</ele>
        <time>2025-02-11T11:02:06Z</time>
      </trkpt>
      <trkpt lat="47.81392" lon="-2.46621">
        <ele>120</ele>
        <time>2025-02-11T11:02:07Z</time>
      </trkpt>
      <trkpt lat="47.81392" lon="-2.46622">
        <ele>120</ele>
        <time>2025-02-11T11:02:08Z</time>
      </trkpt>
      <trkpt lat="47.81391" lon="-2.46623">
        <ele>120</ele>
        <time>2025-02-11T11:02:09Z</time>
      </trkpt>
      <trkpt lat="47.81391" lon="-2.46623">
        <ele>120</ele>
        <time>2025-02-11T11:02:10Z</time>
      </trkpt>
      <trkpt lat="47.81391" lon="-2.46623">
        <ele>120</ele>
        <time>2025-02-11T11:02:11Z</time>
      </trkpt>
      <trkpt lat="47.8139" lon="-2.46623">
        <ele>120</ele>
        <time>2025-02-11T11:02:12Z</time>
      </trkpt>
      <trkpt lat="47.8139" lon="-2.46623">
        <ele>120</ele>
        <time>2025-02-11T11:02:13Z</time>
      </trkpt>
      <trkpt lat="47.8139" lon="-2.46623">
        <ele>120</ele>
        <time>2025-02-11T11:02:14Z</time>
      </trkpt>
      <trkpt lat="47.8139" lon="-2.46623">
        <ele>120</ele>
        <time>2025-02-11T11:02:15Z</time>
      </trkpt>
      <trkpt lat="47.8139" lon="-2.46623">
        <ele>120</ele>
        <time>2025-02-11T11:02:16Z</time>
      </trkpt>
      <trkpt lat="47.8139" lon="-2.46625">
        <ele>120</ele>
        <time>2025-02-11T11:02:17Z</time>
      </trkpt>
      <trkpt lat="47.81391" lon="-2.46626">
        <ele>120</ele>
        <time>2025-02-11T11:02:18Z</time>
      </trkpt>
      <trkpt lat="47.81391" lon="-2.46628">
        <ele>120</ele>
        <time>2025-02-11T11:02:19Z</time>
      </trkpt>
      <trkpt lat="47.8139" lon="-2.4663">
        <ele>120</ele>
        <time>2025-02-11T11:02:20Z</time>
      </trkpt>
      <trkpt lat="47.81389" lon="-2.46631">
        <ele>120</ele>
        <time>2025-02-11T11:02:21Z</time>
      </trkpt>
      <trkpt lat="47.81387" lon="-2.46632">
        <ele>119.9</ele>
        <time>2025-02-11T11:02:22Z</time>
      </trkpt>
      <trkpt lat="47.81387" lon="-2.46634">
        <ele>119.9</ele>
        <time>2025-02-11T11:02:23Z</time>
      </trkpt>
      <trkpt lat="47.81387" lon="-2.46635">
        <ele>119.9</ele>
        <time>2025-02-11T11:02:24Z</time>
      </trkpt>
      <trkpt lat="47.81386" lon="-2.46636">
        <ele>119.9</ele>
        <time>2025-02-11T11:02:25Z</time>
      </trkpt>
      <trkpt lat="47.81386" lon="-2.46637">
        <ele>119.9</ele>
        <time>2025-02-11T11:02:26Z</time>
      </trkpt>
      <trkpt lat="47.81386" lon="-2.46639">
        <ele>119.9</ele>
        <time>2025-02-11T11:02:27Z</time>
      </trkpt>
      <trkpt lat="47.81386" lon="-2.46641">
        <ele>119.9</ele>
        <time>2025-02-11T11:02:28Z</time>
      </trkpt>
      <trkpt lat="47.81386" lon="-2.46642">
        <ele>119.9</ele>
        <time>2025-02-11T11:02:29Z</time>
      </trkpt>
      <trkpt lat="47.81386" lon="-2.46644">
        <ele>119.9</ele>
        <time>2025-02-11T11:02:30Z</time>
      </trkpt>
      <trkpt lat="47.81387" lon="-2.46646">
        <ele>119.9</ele>
        <time>2025-02-11T11:02:31Z</time>
      </trkpt>
      <trkpt lat="47.81387" lon="-2.46647">
        <ele>119.9</ele>
        <time>2025-02-11T11:02:32Z</time>
      </trkpt>
      <trkpt lat="47.81387" lon="-2.46649">
        <ele>120</ele>
        <time>2025-02-11T11:02:33Z</time>
      </trkpt>
      <trkpt lat="47.81387" lon="-2.46651">
        <ele>120</ele>
        <time>2025-02-11T11:02:34Z</time>
      </trkpt>
      <trkpt lat="47.81387" lon="-2.46652">
        <ele>120</ele>
        <time>2025-02-11T11:02:35Z</time>
      </trkpt>
      <trkpt lat="47.81387" lon="-2.46654">
        <ele>120</ele>
        <time>2025-02-11T11:02:36Z</time>
      </trkpt>
      <trkpt lat="47.81388" lon="-2.46655">
        <ele>120</ele>
        <time>2025-02-11T11:02:37Z</time>
      </trkpt>
      <trkpt lat="47.81388" lon="-2.46657">
        <ele>120</ele>
        <time>2025-02-11T11:02:38Z</time>
      </trkpt>
      <trkpt lat="47.81388" lon="-2.46659">
        <ele>120</ele>
        <time>2025-02-11T11:02:39Z</time>
      </trkpt>
      <trkpt lat="47.81388" lon="-2.46661">
        <ele>120</ele>
        <time>2025-02-11T11:02:40Z</time>
      </trkpt>
      <trkpt lat="47.81388" lon="-2.46663">
        <ele>120</ele>
        <time>2025-02-11T11:02:41Z</time>
      </trkpt>
      <trkpt lat="47.81388" lon="-2.46664">
        <ele>120</ele>
        <time>2025-02-11T11:02:42Z</time>
      </trkpt>
      <trkpt lat="47.81388" lon="-2.46666">
        <ele>120</ele>
        <time>2025-02-11T11:02:43Z</time>
      </trkpt>
      <trkpt lat="47.81388" lon="-2.46668">
        <ele>120</ele>
        <time>2025-02-11T11:02:44Z</time>
      </trkpt>
      <trkpt lat="47.81388" lon="-2.46669">
        <ele>120</ele>
        <time>2025-02-11T11:02:45Z</time>
      </trkpt>
      <trkpt lat="47.81388" lon="-2.46671">
        <ele>120</ele>
        <time>2025-02-11T11:02:46Z</time>
      </trkpt>
      <trkpt lat="47.81389" lon="-2.46673">
        <ele>120</ele>
        <time>2025-02-11T11:02:47Z</time>
      </trkpt>
      <trkpt lat="47.81389" lon="-2.46675">
        <ele>120</ele>
        <time>2025-02-11T11:02:48Z</time>
      </trkpt>
      <trkpt lat="47.81388" lon="-2.46676">
        <ele>120</ele>
        <time>2025-02-11T11:02:49Z</time>
      </trkpt>
      <trkpt lat="47.8139" lon="-2.46678">
        <ele>120</ele>
        <time>2025-02-11T11:02:50Z</time>
      </trkpt>
      <trkpt lat="47.81391" lon="-2.4668">
        <ele>120</ele>
        <time>2025-02-11T11:02:51Z</time>
      </trkpt>
      <trkpt lat="47.81391" lon="-2.46682">
        <ele>120</ele>
        <time>2025-02-11T11:02:52Z</time>
      </trkpt>
      <trkpt lat="47.81392" lon="-2.46683">
        <ele>120</ele>
        <time>2025-02-11T11:02:53Z</time>
      </trkpt>
      <trkpt lat="47.81393" lon="-2.46685">
        <ele>120</ele>
        <time>2025-02-11T11:02:54Z</time>
      </trkpt>
      <trkpt lat="47.81394" lon="-2.46686">
        <ele>120</ele>
        <time>2025-02-11T11:02:55Z</time>
      </trkpt>
      <trkpt lat="47.81394" lon="-2.46688">
        <ele>120</ele>
        <time>2025-02-11T11:02:56Z</time>
      </trkpt>
      <trkpt lat="47.81395" lon="-2.4669">
        <ele>120</ele>
        <time>2025-02-11T11:02:57Z</time>
      </trkpt>
      <trkpt lat="47.81395" lon="-2.46692">
        <ele>120</ele>
        <time>2025-02-11T11:02:58Z</time>
      </trkpt>
      <trkpt lat="47.81395" lon="-2.46694">
        <ele>120</ele>
        <time>2025-02-11T11:02:59Z</time>
      </trkpt>
      <trkpt lat="47.81395" lon="-2.46696">
        <ele>120</ele>
        <time>2025-02-11T11:03:00Z</time>
      </trkpt>
      <trkpt lat="47.81395" lon="-2.46698">
        <ele>120</ele>
        <time>2025-02-11T11:03:01Z</time>
      </trkpt>
      <trkpt lat="47.81395" lon="-2.46699">
        <ele>120</ele>
        <time>2025-02-11T11:03:02Z</time>
      </trkpt>
      <trkpt lat="47.81395" lon="-2.46701">
        <ele>120</ele>
        <time>2025-02-11T11:03:03Z</time>
      </trkpt>
      <trkpt lat="47.81395" lon="-2.46703">
        <ele>120</ele>
        <time>2025-02-11T11:03:04Z</time>
      </trkpt>
      <trkpt lat="47.81395" lon="-2.46705">
        <ele>120</ele>
        <time>2025-02-11T11:03:05Z</time>
      </trkpt>
      <trkpt lat="47.81395" lon="-2.46708">
        <ele>120</ele>
        <time>2025-02-11T11:03:06Z</time>
      </trkpt>
      <trkpt lat="47.81395" lon="-2.4671">
        <ele>120</ele>
        <time>2025-02-11T11:03:07Z</time>
      </trkpt>
      <trkpt lat="47.81395" lon="-2.46711">
        <ele>120</ele>
        <time>2025-02-11T11:03:08Z</time>
      </trkpt>
      <trkpt lat="47.81396" lon="-2.46713">
        <ele>120</ele>
        <time>2025-02-11T11:03:09Z</time>
      </trkpt>
      <trkpt lat="47.81396" lon="-2.46715">
        <ele>120</ele>
        <time>2025-02-11T11:03:10Z</time>
      </trkpt>
      <trkpt lat="47.81397" lon="-2.46717">
        <ele>120</ele>
        <time>2025-02-11T11:03:11Z</time>
      </trkpt>
      <trkpt lat="47.81397" lon="-2.46719">
        <ele>120</ele>
        <time>2025-02-11T11:03:12Z</time>
      </trkpt>
      <trkpt lat="47.81397" lon="-2.46722">
        <ele>120</ele>
        <time>2025-02-11T11:03:13Z</time>
      </trkpt>
      <trkpt lat="47.81397" lon="-2.46723">
        <ele>120</ele>
        <time>2025-02-11T11:03:14Z</time>
      </trkpt>
      <trkpt lat="47.81396" lon="-2.46725">
        <ele>120</ele>
        <time>2025-02-11T11:03:15Z</time>
      </trkpt>
      <trkpt lat="47.81397" lon="-2.46727">
        <ele>120</ele>
        <time>2025-02-11T11:03:16Z</time>
      </trkpt>
      <trkpt lat="47.81397" lon="-2.46729">
        <ele>120</ele>
        <time>2025-02-11T11:03:17Z</time>
      </trkpt>
      <trkpt lat="47.81397" lon="-2.46731">
        <ele>120</ele>
        <time>2025-02-11T11:03:18Z</time>
      </trkpt>
      <trkpt lat="47.81397" lon="-2.46732">
        <ele>120</ele>
        <time>2025-02-11T11:03:19Z</time>
      </trkpt>
      <trkpt lat="47.81397" lon="-2.46734">
        <ele>120</ele>
        <time>2025-02-11T11:03:20Z</time>
      </trkpt>
      <trkpt lat="47.81397" lon="-2.46735">
        <ele>120</ele>
        <time>2025-02-11T11:03:21Z</time>
      </trkpt>
      <trkpt lat="47.81397" lon="-2.46737">
        <ele>120</ele>
        <time>2025-02-11T11:03:22Z</time>
      </trkpt>
      <trkpt lat="47.81397" lon="-2.46738">
        <ele>120</ele>
        <time>2025-02-11T11:03:23Z</time>
      </trkpt>
      <trkpt lat="47.81398" lon="-2.4674">
        <ele>120</ele>
        <time>2025-02-11T11:03:24Z</time>
      </trkpt>
      <trkpt lat="47.81398" lon="-2.46742">
        <ele>120</ele>
        <time>2025-02-11T11:03:25Z</time>
      </trkpt>
      <trkpt lat="47.81398" lon="-2.46744">
        <ele>120</ele>
        <time>2025-02-11T11:03:26Z</time>
      </trkpt>
      <trkpt lat="47.81398" lon="-2.46745">
        <ele>120</ele>
        <time>2025-02-11T11:03:27Z</time>
      </trkpt>
      <trkpt lat="47.81399" lon="-2.46746">
        <ele>120</ele>
        <time>2025-02-11T11:03:28Z</time>
      </trkpt>
      <trkpt lat="47.81399" lon="-2.46748">
        <ele>120</ele>
        <time>2025-02-11T11:03:29Z</time>
      </trkpt>
      <trkpt lat="47.81399" lon="-2.4675">
        <ele>120</ele>
        <time>2025-02-11T11:03:30Z</time>
      </trkpt>
      <trkpt lat="47.81399" lon="-2.46752">
        <ele>120</ele>
        <time>2025-02-11T11:03:31Z</time>
      </trkpt>
      <trkpt lat="47.81399" lon="-2.46754">
        <ele>120</ele>
        <time>2025-02-11T11:03:32Z</time>
      </trkpt>
      <trkpt lat="47.814" lon="-2.46755">
        <ele>120</ele>
        <time>2025-02-11T11:03:33Z</time>
      </trkpt>
      <trkpt lat="47.814" lon="-2.46757">
        <ele>120</ele>
        <time>2025-02-11T11:03:34Z</time>
      </trkpt>
      <trkpt lat="47.81399" lon="-2.46759">
        <ele>120</ele>
        <time>2025-02-11T11:03:35Z</time>
      </trkpt>
      <trkpt lat="47.81399" lon="-2.4676">
        <ele>120</ele>
        <time>2025-02-11T11:03:36Z</time>
      </trkpt>
      <trkpt lat="47.81399" lon="-2.46761">
        <ele>120</ele>
        <time>2025-02-11T11:03:37Z</time>
      </trkpt>
      <trkpt lat="47.81399" lon="-2.46763">
        <ele>120</ele>
        <time>2025-02-11T11:03:38Z</time>
      </trkpt>
      <trkpt lat="47.814" lon="-2.46765">
        <ele>120</ele>
        <time>2025-02-11T11:03:39Z</time>
      </trkpt>
      <trkpt lat="47.81401" lon="-2.46766">
        <ele>120</ele>
        <time>2025-02-11T11:03:40Z</time>
      </trkpt>
      <trkpt lat="47.81401" lon="-2.46768">
        <ele>120</ele>
        <time>2025-02-11T11:03:41Z</time>
      </trkpt>
      <trkpt lat="47.81401" lon="-2.4677">
        <ele>120</ele>
        <time>2025-02-11T11:03:42Z</time>
      </trkpt>
      <trkpt lat="47.81401" lon="-2.46772">
        <ele>120</ele>
        <time>2025-02-11T11:03:43Z</time>
      </trkpt>
      <trkpt lat="47.81402" lon="-2.46774">
        <ele>120</ele>
        <time>2025-02-11T11:03:44Z</time>
      </trkpt>
      <trkpt lat="47.81402" lon="-2.46776">
        <ele>120</ele>
        <time>2025-02-11T11:03:45Z</time>
      </trkpt>
      <trkpt lat="47.81402" lon="-2.46778">
        <ele>120</ele>
        <time>2025-02-11T11:03:46Z</time>
      </trkpt>
      <trkpt lat="47.81402" lon="-2.4678">
        <ele>120</ele>
        <time>2025-02-11T11:03:47Z</time>
      </trkpt>
      <trkpt lat="47.81402" lon="-2.46781">
        <ele>120.1</ele>
        <time>2025-02-11T11:03:48Z</time>
      </trkpt>
      <trkpt lat="47.81403" lon="-2.46783">
        <ele>120.1</ele>
        <time>2025-02-11T11:03:49Z</time>
      </trkpt>
      <trkpt lat="47.81403" lon="-2.46785">
        <ele>120.1</ele>
        <time>2025-02-11T11:03:50Z</time>
      </trkpt>
      <trkpt lat="47.81403" lon="-2.46786">
        <ele>120.2</ele>
        <time>2025-02-11T11:03:51Z</time>
      </trkpt>
      <trkpt lat="47.81403" lon="-2.46788">
        <ele>120.2</ele>
        <time>2025-02-11T11:03:52Z</time>
      </trkpt>
      <trkpt lat="47.81403" lon="-2.4679">
        <ele>120.2</ele>
        <time>2025-02-11T11:03:53Z</time>
      </trkpt>
      <trkpt lat="47.81403" lon="-2.46792">
        <ele>120.3</ele>
        <time>2025-02-11T11:03:54Z</time>
      </trkpt>
      <trkpt lat="47.81403" lon="-2.46794">
        <ele>120.3</ele>
        <time>2025-02-11T11:03:55Z</time>
      </trkpt>
      <trkpt lat="47.81403" lon="-2.46796">
        <ele>120.3</ele>
        <time>2025-02-11T11:03:56Z</time>
      </trkpt>
      <trkpt lat="47.81403" lon="-2.46797">
        <ele>120.3</ele>
        <time>2025-02-11T11:03:57Z</time>
      </trkpt>
      <trkpt lat="47.81404" lon="-2.46799">
        <ele>120.4</ele>
        <time>2025-02-11T11:03:58Z</time>
      </trkpt>
      <trkpt lat="47.81404" lon="-2.468">
        <ele>120.4</ele>
        <time>2025-02-11T11:03:59Z</time>
      </trkpt>
      <trkpt lat="47.81404" lon="-2.46801">
        <ele>120.4</ele>
        <time>2025-02-11T11:04:00Z</time>
      </trkpt>
      <trkpt lat="47.81404" lon="-2.46802">
        <ele>120.4</ele>
        <time>2025-02-11T11:04:01Z</time>
      </trkpt>
      <trkpt lat="47.81404" lon="-2.46804">
        <ele>120.4</ele>
        <time>2025-02-11T11:04:02Z</time>
      </trkpt>
      <trkpt lat="47.81404" lon="-2.46805">
        <ele>120.4</ele>
        <time>2025-02-11T11:04:03Z</time>
      </trkpt>
      <trkpt lat="47.81404" lon="-2.46807">
        <ele>120.5</ele>
        <time>2025-02-11T11:04:04Z</time>
      </trkpt>
      <trkpt lat="47.81404" lon="-2.46808">
        <ele>120.5</ele>
        <time>2025-02-11T11:04:05Z</time>
      </trkpt>
      <trkpt lat="47.81404" lon="-2.4681">
        <ele>120.4</ele>
        <time>2025-02-11T11:04:06Z</time>
      </trkpt>
      <trkpt lat="47.81404" lon="-2.46812">
        <ele>120.4</ele>
        <time>2025-02-11T11:04:07Z</time>
      </trkpt>
      <trkpt lat="47.81405" lon="-2.46813">
        <ele>120.4</ele>
        <time>2025-02-11T11:04:08Z</time>
      </trkpt>
      <trkpt lat="47.81405" lon="-2.46815">
        <ele>120.4</ele>
        <time>2025-02-11T11:04:09Z</time>
      </trkpt>
      <trkpt lat="47.81405" lon="-2.46817">
        <ele>120.4</ele>
        <time>2025-02-11T11:04:10Z</time>
      </trkpt>
      <trkpt lat="47.81405" lon="-2.46819">
        <ele>120.4</ele>
        <time>2025-02-11T11:04:11Z</time>
      </trkpt>
      <trkpt lat="47.81405" lon="-2.4682">
        <ele>120.4</ele>
        <time>2025-02-11T11:04:12Z</time>
      </trkpt>
      <trkpt lat="47.81405" lon="-2.46822">
        <ele>120.4</ele>
        <time>2025-02-11T11:04:13Z</time>
      </trkpt>
      <trkpt lat="47.81405" lon="-2.46823">
        <ele>120.4</ele>
        <time>2025-02-11T11:04:14Z</time>
      </trkpt>
      <trkpt lat="47.81406" lon="-2.46825">
        <ele>120.4</ele>
        <time>2025-02-11T11:04:15Z</time>
      </trkpt>
      <trkpt lat="47.81406" lon="-2.46826">
        <ele>120.4</ele>
        <time>2025-02-11T11:04:16Z</time>
      </trkpt>
      <trkpt lat="47.81406" lon="-2.46828">
        <ele>120.4</ele>
        <time>2025-02-11T11:04:17Z</time>
      </trkpt>
      <trkpt lat="47.81406" lon="-2.4683">
        <ele>120.4</ele>
        <time>2025-02-11T11:04:18Z</time>
      </trkpt>
      <trkpt lat="47.81406" lon="-2.46832">
        <ele>120.4</ele>
        <time>2025-02-11T11:04:19Z</time>
      </trkpt>
      <trkpt lat="47.81406" lon="-2.46833">
        <ele>120.4</ele>
        <time>2025-02-11T11:04:20Z</time>
      </trkpt>
      <trkpt lat="47.81407" lon="-2.46835">
        <ele>120.3</ele>
        <time>2025-02-11T11:04:21Z</time>
      </trkpt>
      <trkpt lat="47.81407" lon="-2.46837">
        <ele>120.3</ele>
        <time>2025-02-11T11:04:22Z</time>
      </trkpt>
      <trkpt lat="47.81407" lon="-2.46839">
        <ele>120.3</ele>
        <time>2025-02-11T11:04:23Z</time>
      </trkpt>
      <trkpt lat="47.81407" lon="-2.4684">
        <ele>120.3</ele>
        <time>2025-02-11T11:04:24Z</time>
      </trkpt>
      <trkpt lat="47.81407" lon="-2.46842">
        <ele>120.2</ele>
        <time>2025-02-11T11:04:25Z</time>
      </trkpt>
      <trkpt lat="47.81407" lon="-2.46844">
        <ele>120.2</ele>
        <time>2025-02-11T11:04:26Z</time>
      </trkpt>
      <trkpt lat="47.81408" lon="-2.46845">
        <ele>120.2</ele>
        <time>2025-02-11T11:04:27Z</time>
      </trkpt>
      <trkpt lat="47.81408" lon="-2.46847">
        <ele>120.2</ele>
        <time>2025-02-11T11:04:28Z</time>
      </trkpt>
      <trkpt lat="47.81409" lon="-2.46849">
        <ele>120.1</ele>
        <time>2025-02-11T11:04:29Z</time>
      </trkpt>
      <trkpt lat="47.81409" lon="-2.46851">
        <ele>120.1</ele>
        <time>2025-02-11T11:04:30Z</time>
      </trkpt>
      <trkpt lat="47.81409" lon="-2.46853">
        <ele>120.1</ele>
        <time>2025-02-11T11:04:31Z</time>
      </trkpt>
      <trkpt lat="47.81409" lon="-2.46854">
        <ele>120.1</ele>
        <time>2025-02-11T11:04:32Z</time>
      </trkpt>
      <trkpt lat="47.81409" lon="-2.46856">
        <ele>120</ele>
        <time>2025-02-11T11:04:33Z</time>
      </trkpt>
      <trkpt lat="47.81409" lon="-2.46858">
        <ele>120</ele>
        <time>2025-02-11T11:04:34Z</time>
      </trkpt>
      <trkpt lat="47.81409" lon="-2.4686">
        <ele>120</ele>
        <time>2025-02-11T11:04:35Z</time>
      </trkpt>
      <trkpt lat="47.81409" lon="-2.46861">
        <ele>120</ele>
        <time>2025-02-11T11:04:36Z</time>
      </trkpt>
      <trkpt lat="47.8141" lon="-2.46863">
        <ele>120</ele>
        <time>2025-02-11T11:04:37Z</time>
      </trkpt>
      <trkpt lat="47.8141" lon="-2.46865">
        <ele>120.1</ele>
        <time>2025-02-11T11:04:38Z</time>
      </trkpt>
      <trkpt lat="47.8141" lon="-2.46866">
        <ele>120.1</ele>
        <time>2025-02-11T11:04:39Z</time>
      </trkpt>
      <trkpt lat="47.8141" lon="-2.46868">
        <ele>120.2</ele>
        <time>2025-02-11T11:04:40Z</time>
      </trkpt>
      <trkpt lat="47.8141" lon="-2.4687">
        <ele>120.2</ele>
        <time>2025-02-11T11:04:41Z</time>
      </trkpt>
      <trkpt lat="47.8141" lon="-2.46871">
        <ele>120.3</ele>
        <time>2025-02-11T11:04:42Z</time>
      </trkpt>
      <trkpt lat="47.8141" lon="-2.46873">
        <ele>120.3</ele>
        <time>2025-02-11T11:04:43Z</time>
      </trkpt>
      <trkpt lat="47.81411" lon="-2.46875">
        <ele>120.4</ele>
        <time>2025-02-11T11:04:44Z</time>
      </trkpt>
      <trkpt lat="47.81411" lon="-2.46877">
        <ele>120.4</ele>
        <time>2025-02-11T11:04:45Z</time>
      </trkpt>
      <trkpt lat="47.81411" lon="-2.46879">
        <ele>120.5</ele>
        <time>2025-02-11T11:04:46Z</time>
      </trkpt>
      <trkpt lat="47.81411" lon="-2.4688">
        <ele>120.6</ele>
        <time>2025-02-11T11:04:47Z</time>
      </trkpt>
      <trkpt lat="47.81411" lon="-2.46882">
        <ele>120.6</ele>
        <time>2025-02-11T11:04:48Z</time>
      </trkpt>
      <trkpt lat="47.81412" lon="-2.46884">
        <ele>120.7</ele>
        <time>2025-02-11T11:04:49Z</time>
      </trkpt>
      <trkpt lat="47.81412" lon="-2.46886">
        <ele>120.7</ele>
        <time>2025-02-11T11:04:50Z</time>
      </trkpt>
      <trkpt lat="47.81412" lon="-2.46887">
        <ele>120.8</ele>
        <time>2025-02-11T11:04:51Z</time>
      </trkpt>
      <trkpt lat="47.81412" lon="-2.46889">
        <ele>120.8</ele>
        <time>2025-02-11T11:04:52Z</time>
      </trkpt>
      <trkpt lat="47.81412" lon="-2.46891">
        <ele>120.8</ele>
        <time>2025-02-11T11:04:53Z</time>
      </trkpt>
      <trkpt lat="47.81412" lon="-2.46893">
        <ele>120.8</ele>
        <time>2025-02-11T11:04:54Z</time>
      </trkpt>
      <trkpt lat="47.81412" lon="-2.46895">
        <ele>120.8</ele>
        <time>2025-02-11T11:04:55Z</time>
      </trkpt>
      <trkpt lat="47.81412" lon="-2.46896">
        <ele>120.8</ele>
        <time>2025-02-11T11:04:56Z</time>
      </trkpt>
      <trkpt lat="47.81412" lon="-2.46898">
        <ele>120.8</ele>
        <time>2025-02-11T11:04:57Z</time>
      </trkpt>
      <trkpt lat="47.81413" lon="-2.469">
        <ele>120.9</ele>
        <time>2025-02-11T11:04:58Z</time>
      </trkpt>
      <trkpt lat="47.81413" lon="-2.46901">
        <ele>120.9</ele>
        <time>2025-02-11T11:04:59Z</time>
      </trkpt>
      <trkpt lat="47.81413" lon="-2.46903">
        <ele>120.9</ele>
        <time>2025-02-11T11:05:00Z</time>
      </trkpt>
      <trkpt lat="47.81414" lon="-2.46905">
        <ele>120.9</ele>
        <time>2025-02-11T11:05:01Z</time>
      </trkpt>
      <trkpt lat="47.81414" lon="-2.46907">
        <ele>120.9</ele>
        <time>2025-02-11T11:05:02Z</time>
      </trkpt>
      <trkpt lat="47.81414" lon="-2.46908">
        <ele>120.9</ele>
        <time>2025-02-11T11:05:03Z</time>
      </trkpt>
      <trkpt lat="47.81414" lon="-2.4691">
        <ele>120.9</ele>
        <time>2025-02-11T11:05:04Z</time>
      </trkpt>
      <trkpt lat="47.81414" lon="-2.46912">
        <ele>120.9</ele>
        <time>2025-02-11T11:05:05Z</time>
      </trkpt>
      <trkpt lat="47.81414" lon="-2.46914">
        <ele>120.9</ele>
        <time>2025-02-11T11:05:06Z</time>
      </trkpt>
      <trkpt lat="47.81414" lon="-2.46915">
        <ele>120.9</ele>
        <time>2025-02-11T11:05:07Z</time>
      </trkpt>
      <trkpt lat="47.81413" lon="-2.46918">
        <ele>120.9</ele>
        <time>2025-02-11T11:05:08Z</time>
      </trkpt>
      <trkpt lat="47.81413" lon="-2.46919">
        <ele>120.9</ele>
        <time>2025-02-11T11:05:09Z</time>
      </trkpt>
      <trkpt lat="47.81412" lon="-2.46921">
        <ele>120.8</ele>
        <time>2025-02-11T11:05:10Z</time>
      </trkpt>
      <trkpt lat="47.81411" lon="-2.46922">
        <ele>120.8</ele>
        <time>2025-02-11T11:05:11Z</time>
      </trkpt>
      <trkpt lat="47.8141" lon="-2.46923">
        <ele>120.7</ele>
        <time>2025-02-11T11:05:12Z</time>
      </trkpt>
      <trkpt lat="47.81409" lon="-2.46924">
        <ele>120.7</ele>
        <time>2025-02-11T11:05:13Z</time>
      </trkpt>
      <trkpt lat="47.81407" lon="-2.46925">
        <ele>120.7</ele>
        <time>2025-02-11T11:05:14Z</time>
      </trkpt>
      <trkpt lat="47.81406" lon="-2.46926">
        <ele>120.6</ele>
        <time>2025-02-11T11:05:15Z</time>
      </trkpt>
      <trkpt lat="47.81406" lon="-2.46928">
        <ele>120.6</ele>
        <time>2025-02-11T11:05:16Z</time>
      </trkpt>
      <trkpt lat="47.81404" lon="-2.46928">
        <ele>120.6</ele>
        <time>2025-02-11T11:05:17Z</time>
      </trkpt>
      <trkpt lat="47.81403" lon="-2.46929">
        <ele>120.5</ele>
        <time>2025-02-11T11:05:18Z</time>
      </trkpt>
      <trkpt lat="47.81401" lon="-2.46929">
        <ele>120.4</ele>
        <time>2025-02-11T11:05:19Z</time>
      </trkpt>
      <trkpt lat="47.814" lon="-2.46927">
        <ele>120.4</ele>
        <time>2025-02-11T11:05:20Z</time>
      </trkpt>
      <trkpt lat="47.81399" lon="-2.46925">
        <ele>120.4</ele>
        <time>2025-02-11T11:05:21Z</time>
      </trkpt>
      <trkpt lat="47.81398" lon="-2.46924">
        <ele>120.3</ele>
        <time>2025-02-11T11:05:22Z</time>
      </trkpt>
      <trkpt lat="47.81397" lon="-2.46922">
        <ele>120.3</ele>
        <time>2025-02-11T11:05:23Z</time>
      </trkpt>
      <trkpt lat="47.81397" lon="-2.46921">
        <ele>120.3</ele>
        <time>2025-02-11T11:05:24Z</time>
      </trkpt>
      <trkpt lat="47.81396" lon="-2.46919">
        <ele>120.2</ele>
        <time>2025-02-11T11:05:25Z</time>
      </trkpt>
      <trkpt lat="47.81394" lon="-2.46918">
        <ele>120.2</ele>
        <time>2025-02-11T11:05:26Z</time>
      </trkpt>
      <trkpt lat="47.81393" lon="-2.46917">
        <ele>120.2</ele>
        <time>2025-02-11T11:05:27Z</time>
      </trkpt>
      <trkpt lat="47.81392" lon="-2.46916">
        <ele>120.1</ele>
        <time>2025-02-11T11:05:28Z</time>
      </trkpt>
      <trkpt lat="47.81391" lon="-2.46916">
        <ele>120.1</ele>
        <time>2025-02-11T11:05:29Z</time>
      </trkpt>
      <trkpt lat="47.8139" lon="-2.46915">
        <ele>120.1</ele>
        <time>2025-02-11T11:05:30Z</time>
      </trkpt>
      <trkpt lat="47.81389" lon="-2.46915">
        <ele>120</ele>
        <time>2025-02-11T11:05:31Z</time>
      </trkpt>
      <trkpt lat="47.81389" lon="-2.46915">
        <ele>120</ele>
        <time>2025-02-11T11:05:32Z</time>
      </trkpt>
      <trkpt lat="47.81388" lon="-2.46914">
        <ele>120</ele>
        <time>2025-02-11T11:05:33Z</time>
      </trkpt>
      <trkpt lat="47.81386" lon="-2.46914">
        <ele>119.9</ele>
        <time>2025-02-11T11:05:34Z</time>
      </trkpt>
      <trkpt lat="47.81385" lon="-2.46914">
        <ele>119.9</ele>
        <time>2025-02-11T11:05:35Z</time>
      </trkpt>
      <trkpt lat="47.81384" lon="-2.46914">
        <ele>119.8</ele>
        <time>2025-02-11T11:05:36Z</time>
      </trkpt>
      <trkpt lat="47.81383" lon="-2.46915">
        <ele>119.8</ele>
        <time>2025-02-11T11:05:37Z</time>
      </trkpt>
      <trkpt lat="47.81382" lon="-2.46916">
        <ele>119.8</ele>
        <time>2025-02-11T11:05:38Z</time>
      </trkpt>
      <trkpt lat="47.81381" lon="-2.46915">
        <ele>119.7</ele>
        <time>2025-02-11T11:05:39Z</time>
      </trkpt>
      <trkpt lat="47.8138" lon="-2.46915">
        <ele>119.7</ele>
        <time>2025-02-11T11:05:40Z</time>
      </trkpt>
      <trkpt lat="47.81378" lon="-2.46913">
        <ele>119.6</ele>
        <time>2025-02-11T11:05:41Z</time>
      </trkpt>
      <trkpt lat="47.81377" lon="-2.46913">
        <ele>119.6</ele>
        <time>2025-02-11T11:05:42Z</time>
      </trkpt>
      <trkpt lat="47.81376" lon="-2.46912">
        <ele>119.5</ele>
        <time>2025-02-11T11:05:43Z</time>
      </trkpt>
      <trkpt lat="47.81375" lon="-2.46911">
        <ele>119.5</ele>
        <time>2025-02-11T11:05:44Z</time>
      </trkpt>
      <trkpt lat="47.81374" lon="-2.4691">
        <ele>119.5</ele>
        <time>2025-02-11T11:05:45Z</time>
      </trkpt>
      <trkpt lat="47.81373" lon="-2.46909">
        <ele>119.4</ele>
        <time>2025-02-11T11:05:46Z</time>
      </trkpt>
      <trkpt lat="47.81372" lon="-2.4691">
        <ele>119.4</ele>
        <time>2025-02-11T11:05:47Z</time>
      </trkpt>
      <trkpt lat="47.8137" lon="-2.4691">
        <ele>119.3</ele>
        <time>2025-02-11T11:05:48Z</time>
      </trkpt>
      <trkpt lat="47.81369" lon="-2.46911">
        <ele>119.3</ele>
        <time>2025-02-11T11:05:49Z</time>
      </trkpt>
      <trkpt lat="47.81369" lon="-2.46913">
        <ele>119.3</ele>
        <time>2025-02-11T11:05:50Z</time>
      </trkpt>
      <trkpt lat="47.81367" lon="-2.46912">
        <ele>119.2</ele>
        <time>2025-02-11T11:05:51Z</time>
      </trkpt>
      <trkpt lat="47.81366" lon="-2.46912">
        <ele>119.2</ele>
        <time>2025-02-11T11:05:52Z</time>
      </trkpt>
      <trkpt lat="47.81365" lon="-2.46912">
        <ele>119.1</ele>
        <time>2025-02-11T11:05:53Z</time>
      </trkpt>
      <trkpt lat="47.81363" lon="-2.46913">
        <ele>119.1</ele>
        <time>2025-02-11T11:05:54Z</time>
      </trkpt>
      <trkpt lat="47.81363" lon="-2.46913">
        <ele>119.1</ele>
        <time>2025-02-11T11:05:55Z</time>
      </trkpt>
      <trkpt lat="47.81362" lon="-2.46916">
        <ele>119</ele>
        <time>2025-02-11T11:05:56Z</time>
      </trkpt>
      <trkpt lat="47.81361" lon="-2.46917">
        <ele>119</ele>
        <time>2025-02-11T11:05:57Z</time>
      </trkpt>
      <trkpt lat="47.8136" lon="-2.46917">
        <ele>119</ele>
        <time>2025-02-11T11:05:58Z</time>
      </trkpt>
      <trkpt lat="47.8136" lon="-2.46917">
        <ele>119</ele>
        <time>2025-02-11T11:05:59Z</time>
      </trkpt>
      <trkpt lat="47.81359" lon="-2.46917">
        <ele>118.9</ele>
        <time>2025-02-11T11:06:00Z</time>
      </trkpt>
      <trkpt lat="47.81358" lon="-2.46918">
        <ele>118.9</ele>
        <time>2025-02-11T11:06:01Z</time>
      </trkpt>
      <trkpt lat="47.81357" lon="-2.46918">
        <ele>118.9</ele>
        <time>2025-02-11T11:06:02Z</time>
      </trkpt>
      <trkpt lat="47.81356" lon="-2.46919">
        <ele>118.8</ele>
        <time>2025-02-11T11:06:03Z</time>
      </trkpt>
      <trkpt lat="47.81355" lon="-2.46918">
        <ele>118.8</ele>
        <time>2025-02-11T11:06:04Z</time>
      </trkpt>
      <trkpt lat="47.81354" lon="-2.46918">
        <ele>118.7</ele>
        <time>2025-02-11T11:06:05Z</time>
      </trkpt>
      <trkpt lat="47.81353" lon="-2.46917">
        <ele>118.7</ele>
        <time>2025-02-11T11:06:06Z</time>
      </trkpt>
      <trkpt lat="47.81352" lon="-2.46916">
        <ele>118.7</ele>
        <time>2025-02-11T11:06:07Z</time>
      </trkpt>
      <trkpt lat="47.81351" lon="-2.46915">
        <ele>118.6</ele>
        <time>2025-02-11T11:06:08Z</time>
      </trkpt>
      <trkpt lat="47.8135" lon="-2.46914">
        <ele>118.6</ele>
        <time>2025-02-11T11:06:09Z</time>
      </trkpt>
      <trkpt lat="47.81349" lon="-2.46912">
        <ele>118.6</ele>
        <time>2025-02-11T11:06:10Z</time>
      </trkpt>
      <trkpt lat="47.81348" lon="-2.4691">
        <ele>118.5</ele>
        <time>2025-02-11T11:06:11Z</time>
      </trkpt>
      <trkpt lat="47.81347" lon="-2.46909">
        <ele>118.5</ele>
        <time>2025-02-11T11:06:12Z</time>
      </trkpt>
      <trkpt lat="47.81346" lon="-2.46908">
        <ele>118.4</ele>
        <time>2025-02-11T11:06:13Z</time>
      </trkpt>
      <trkpt lat="47.81345" lon="-2.46907">
        <ele>118.4</ele>
        <time>2025-02-11T11:06:14Z</time>
      </trkpt>
      <trkpt lat="47.81343" lon="-2.46906">
        <ele>118.4</ele>
        <time>2025-02-11T11:06:15Z</time>
      </trkpt>
      <trkpt lat="47.81342" lon="-2.46906">
        <ele>118.3</ele>
        <time>2025-02-11T11:06:16Z</time>
      </trkpt>
      <trkpt lat="47.81341" lon="-2.46905">
        <ele>118.3</ele>
        <time>2025-02-11T11:06:17Z</time>
      </trkpt>
      <trkpt lat="47.8134" lon="-2.46904">
        <ele>118.2</ele>
        <time>2025-02-11T11:06:18Z</time>
      </trkpt>
      <trkpt lat="47.81339" lon="-2.46902">
        <ele>118.2</ele>
        <time>2025-02-11T11:06:19Z</time>
      </trkpt>
      <trkpt lat="47.81338" lon="-2.46901">
        <ele>118.2</ele>
        <time>2025-02-11T11:06:20Z</time>
      </trkpt>
      <trkpt lat="47.81336" lon="-2.46902">
        <ele>118.1</ele>
        <time>2025-02-11T11:06:21Z</time>
      </trkpt>
      <trkpt lat="47.81334" lon="-2.46901">
        <ele>118</ele>
        <time>2025-02-11T11:06:22Z</time>
      </trkpt>
      <trkpt lat="47.81333" lon="-2.469">
        <ele>118</ele>
        <time>2025-02-11T11:06:23Z</time>
      </trkpt>
      <trkpt lat="47.81332" lon="-2.46899">
        <ele>117.9</ele>
        <time>2025-02-11T11:06:24Z</time>
      </trkpt>
      <trkpt lat="47.81332" lon="-2.46898">
        <ele>117.9</ele>
        <time>2025-02-11T11:06:25Z</time>
      </trkpt>
      <trkpt lat="47.81331" lon="-2.46897">
        <ele>117.8</ele>
        <time>2025-02-11T11:06:26Z</time>
      </trkpt>
      <trkpt lat="47.8133" lon="-2.46896">
        <ele>117.7</ele>
        <time>2025-02-11T11:06:27Z</time>
      </trkpt>
      <trkpt lat="47.81329" lon="-2.46895">
        <ele>117.7</ele>
        <time>2025-02-11T11:06:28Z</time>
      </trkpt>
      <trkpt lat="47.81328" lon="-2.46894">
        <ele>117.6</ele>
        <time>2025-02-11T11:06:29Z</time>
      </trkpt>
      <trkpt lat="47.81327" lon="-2.46893">
        <ele>117.6</ele>
        <time>2025-02-11T11:06:30Z</time>
      </trkpt>
      <trkpt lat="47.81326" lon="-2.46892">
        <ele>117.5</ele>
        <time>2025-02-11T11:06:31Z</time>
      </trkpt>
      <trkpt lat="47.81326" lon="-2.46891">
        <ele>117.4</ele>
        <time>2025-02-11T11:06:32Z</time>
      </trkpt>
      <trkpt lat="47.81324" lon="-2.46891">
        <ele>117.3</ele>
        <time>2025-02-11T11:06:33Z</time>
      </trkpt>
      <trkpt lat="47.81323" lon="-2.4689">
        <ele>117.3</ele>
        <time>2025-02-11T11:06:34Z</time>
      </trkpt>
      <trkpt lat="47.81322" lon="-2.4689">
        <ele>117.2</ele>
        <time>2025-02-11T11:06:35Z</time>
      </trkpt>
      <trkpt lat="47.81321" lon="-2.4689">
        <ele>117.1</ele>
        <time>2025-02-11T11:06:36Z</time>
      </trkpt>
      <trkpt lat="47.8132" lon="-2.4689">
        <ele>117</ele>
        <time>2025-02-11T11:06:37Z</time>
      </trkpt>
      <trkpt lat="47.81319" lon="-2.46889">
        <ele>117</ele>
        <time>2025-02-11T11:06:38Z</time>
      </trkpt>
      <trkpt lat="47.81319" lon="-2.46888">
        <ele>117</ele>
        <time>2025-02-11T11:06:39Z</time>
      </trkpt>
      <trkpt lat="47.81318" lon="-2.46887">
        <ele>116.9</ele>
        <time>2025-02-11T11:06:40Z</time>
      </trkpt>
      <trkpt lat="47.81317" lon="-2.46886">
        <ele>116.9</ele>
        <time>2025-02-11T11:06:41Z</time>
      </trkpt>
      <trkpt lat="47.81315" lon="-2.46886">
        <ele>116.8</ele>
        <time>2025-02-11T11:06:42Z</time>
      </trkpt>
      <trkpt lat="47.81315" lon="-2.46886">
        <ele>116.8</ele>
        <time>2025-02-11T11:06:43Z</time>
      </trkpt>
      <trkpt lat="47.81314" lon="-2.46885">
        <ele>116.7</ele>
        <time>2025-02-11T11:06:44Z</time>
      </trkpt>
      <trkpt lat="47.81313" lon="-2.46884">
        <ele>116.7</ele>
        <time>2025-02-11T11:06:45Z</time>
      </trkpt>
      <trkpt lat="47.81312" lon="-2.46884">
        <ele>116.7</ele>
        <time>2025-02-11T11:06:46Z</time>
      </trkpt>
      <trkpt lat="47.81311" lon="-2.46884">
        <ele>116.6</ele>
        <time>2025-02-11T11:06:47Z</time>
      </trkpt>
      <trkpt lat="47.8131" lon="-2.46884">
        <ele>116.5</ele>
        <time>2025-02-11T11:06:48Z</time>
      </trkpt>
      <trkpt lat="47.81309" lon="-2.46884">
        <ele>116.4</ele>
        <time>2025-02-11T11:06:49Z</time>
      </trkpt>
      <trkpt lat="47.81308" lon="-2.46883">
        <ele>116.4</ele>
        <time>2025-02-11T11:06:50Z</time>
      </trkpt>
      <trkpt lat="47.81307" lon="-2.46883">
        <ele>116.4</ele>
        <time>2025-02-11T11:06:51Z</time>
      </trkpt>
      <trkpt lat="47.81306" lon="-2.46882">
        <ele>116.3</ele>
        <time>2025-02-11T11:06:52Z</time>
      </trkpt>
      <trkpt lat="47.81305" lon="-2.46882">
        <ele>116.2</ele>
        <time>2025-02-11T11:06:53Z</time>
      </trkpt>
      <trkpt lat="47.81305" lon="-2.46882">
        <ele>116.2</ele>
        <time>2025-02-11T11:06:54Z</time>
      </trkpt>
      <trkpt lat="47.81304" lon="-2.46882">
        <ele>116.1</ele>
        <time>2025-02-11T11:06:55Z</time>
      </trkpt>
      <trkpt lat="47.81304" lon="-2.46882">
        <ele>116.2</ele>
        <time>2025-02-11T11:06:56Z</time>
      </trkpt>
      <trkpt lat="47.81304" lon="-2.46883">
        <ele>116.1</ele>
        <time>2025-02-11T11:06:57Z</time>
      </trkpt>
      <trkpt lat="47.81303" lon="-2.46883">
        <ele>116</ele>
        <time>2025-02-11T11:06:58Z</time>
      </trkpt>
      <trkpt lat="47.81302" lon="-2.46884">
        <ele>116</ele>
        <time>2025-02-11T11:06:59Z</time>
      </trkpt>
      <trkpt lat="47.81301" lon="-2.46883">
        <ele>115.9</ele>
        <time>2025-02-11T11:07:00Z</time>
      </trkpt>
      <trkpt lat="47.813" lon="-2.46883">
        <ele>115.8</ele>
        <time>2025-02-11T11:07:01Z</time>
      </trkpt>
      <trkpt lat="47.81299" lon="-2.46883">
        <ele>115.8</ele>
        <time>2025-02-11T11:07:02Z</time>
      </trkpt>
      <trkpt lat="47.81298" lon="-2.46883">
        <ele>115.7</ele>
        <time>2025-02-11T11:07:03Z</time>
      </trkpt>
      <trkpt lat="47.81297" lon="-2.46882">
        <ele>115.6</ele>
        <time>2025-02-11T11:07:04Z</time>
      </trkpt>
      <trkpt lat="47.81296" lon="-2.46882">
        <ele>115.5</ele>
        <time>2025-02-11T11:07:05Z</time>
      </trkpt>
      <trkpt lat="47.81295" lon="-2.46882">
        <ele>115.5</ele>
        <time>2025-02-11T11:07:06Z</time>
      </trkpt>
      <trkpt lat="47.81294" lon="-2.46881">
        <ele>115.4</ele>
        <time>2025-02-11T11:07:07Z</time>
      </trkpt>
      <trkpt lat="47.81293" lon="-2.4688">
        <ele>115.4</ele>
        <time>2025-02-11T11:07:08Z</time>
      </trkpt>
      <trkpt lat="47.81292" lon="-2.4688">
        <ele>115.4</ele>
        <time>2025-02-11T11:07:09Z</time>
      </trkpt>
      <trkpt lat="47.81291" lon="-2.4688">
        <ele>115.3</ele>
        <time>2025-02-11T11:07:10Z</time>
      </trkpt>
      <trkpt lat="47.8129" lon="-2.4688">
        <ele>115.2</ele>
        <time>2025-02-11T11:07:11Z</time>
      </trkpt>
      <trkpt lat="47.81289" lon="-2.46879">
        <ele>115.2</ele>
        <time>2025-02-11T11:07:12Z</time>
      </trkpt>
      <trkpt lat="47.81289" lon="-2.4688">
        <ele>115.1</ele>
        <time>2025-02-11T11:07:13Z</time>
      </trkpt>
      <trkpt lat="47.81288" lon="-2.4688">
        <ele>115</ele>
        <time>2025-02-11T11:07:14Z</time>
      </trkpt>
      <trkpt lat="47.81287" lon="-2.46882">
        <ele>114.9</ele>
        <time>2025-02-11T11:07:15Z</time>
      </trkpt>
      <trkpt lat="47.81286" lon="-2.46883">
        <ele>114.8</ele>
        <time>2025-02-11T11:07:16Z</time>
      </trkpt>
      <trkpt lat="47.81285" lon="-2.46884">
        <ele>114.7</ele>
        <time>2025-02-11T11:07:17Z</time>
      </trkpt>
      <trkpt lat="47.81284" lon="-2.46885">
        <ele>114.6</ele>
        <time>2025-02-11T11:07:18Z</time>
      </trkpt>
      <trkpt lat="47.81283" lon="-2.46886">
        <ele>114.5</ele>
        <time>2025-02-11T11:07:19Z</time>
      </trkpt>
      <trkpt lat="47.81282" lon="-2.46886">
        <ele>114.4</ele>
        <time>2025-02-11T11:07:20Z</time>
      </trkpt>
      <trkpt lat="47.81281" lon="-2.46887">
        <ele>114.3</ele>
        <time>2025-02-11T11:07:21Z</time>
      </trkpt>
      <trkpt lat="47.8128" lon="-2.46888">
        <ele>114.2</ele>
        <time>2025-02-11T11:07:22Z</time>
      </trkpt>
      <trkpt lat="47.81278" lon="-2.46887">
        <ele>114.1</ele>
        <time>2025-02-11T11:07:23Z</time>
      </trkpt>
      <trkpt lat="47.81277" lon="-2.46887">
        <ele>114</ele>
        <time>2025-02-11T11:07:24Z</time>
      </trkpt>
      <trkpt lat="47.81275" lon="-2.46887">
        <ele>113.9</ele>
        <time>2025-02-11T11:07:25Z</time>
      </trkpt>
      <trkpt lat="47.81274" lon="-2.46887">
        <ele>113.8</ele>
        <time>2025-02-11T11:07:26Z</time>
      </trkpt>
      <trkpt lat="47.81273" lon="-2.46886">
        <ele>113.7</ele>
        <time>2025-02-11T11:07:27Z</time>
      </trkpt>
      <trkpt lat="47.81272" lon="-2.46885">
        <ele>113.7</ele>
        <time>2025-02-11T11:07:28Z</time>
      </trkpt>
      <trkpt lat="47.8127" lon="-2.46885">
        <ele>113.6</ele>
        <time>2025-02-11T11:07:29Z</time>
      </trkpt>
      <trkpt lat="47.81269" lon="-2.46884">
        <ele>113.5</ele>
        <time>2025-02-11T11:07:30Z</time>
      </trkpt>
      <trkpt lat="47.81268" lon="-2.46884">
        <ele>113.4</ele>
        <time>2025-02-11T11:07:31Z</time>
      </trkpt>
      <trkpt lat="47.81267" lon="-2.46884">
        <ele>113.4</ele>
        <time>2025-02-11T11:07:32Z</time>
      </trkpt>
      <trkpt lat="47.81267" lon="-2.46883">
        <ele>113.3</ele>
        <time>2025-02-11T11:07:33Z</time>
      </trkpt>
      <trkpt lat="47.81265" lon="-2.46883">
        <ele>113.2</ele>
        <time>2025-02-11T11:07:34Z</time>
      </trkpt>
      <trkpt lat="47.81264" lon="-2.46883">
        <ele>113.1</ele>
        <time>2025-02-11T11:07:35Z</time>
      </trkpt>
      <trkpt lat="47.81263" lon="-2.46883">
        <ele>113</ele>
        <time>2025-02-11T11:07:36Z</time>
      </trkpt>
      <trkpt lat="47.81262" lon="-2.46883">
        <ele>113</ele>
        <time>2025-02-11T11:07:37Z</time>
      </trkpt>
      <trkpt lat="47.81261" lon="-2.46883">
        <ele>112.9</ele>
        <time>2025-02-11T11:07:38Z</time>
      </trkpt>
      <trkpt lat="47.8126" lon="-2.46883">
        <ele>112.8</ele>
        <time>2025-02-11T11:07:39Z</time>
      </trkpt>
      <trkpt lat="47.81259" lon="-2.46883">
        <ele>112.7</ele>
        <time>2025-02-11T11:07:40Z</time>
      </trkpt>
      <trkpt lat="47.81258" lon="-2.46882">
        <ele>112.6</ele>
        <time>2025-02-11T11:07:41Z</time>
      </trkpt>
      <trkpt lat="47.81257" lon="-2.46882">
        <ele>112.5</ele>
        <time>2025-02-11T11:07:42Z</time>
      </trkpt>
      <trkpt lat="47.81255" lon="-2.46881">
        <ele>112.4</ele>
        <time>2025-02-11T11:07:43Z</time>
      </trkpt>
      <trkpt lat="47.81254" lon="-2.4688">
        <ele>112.3</ele>
        <time>2025-02-11T11:07:44Z</time>
      </trkpt>
      <trkpt lat="47.81253" lon="-2.46879">
        <ele>112.3</ele>
        <time>2025-02-11T11:07:45Z</time>
      </trkpt>
      <trkpt lat="47.81252" lon="-2.46878">
        <ele>112.2</ele>
        <time>2025-02-11T11:07:46Z</time>
      </trkpt>
      <trkpt lat="47.81251" lon="-2.46878">
        <ele>112.1</ele>
        <time>2025-02-11T11:07:47Z</time>
      </trkpt>
      <trkpt lat="47.81252" lon="-2.46878">
        <ele>112.1</ele>
        <time>2025-02-11T11:07:48Z</time>
      </trkpt>
      <trkpt lat="47.81252" lon="-2.46878">
        <ele>112.2</ele>
        <time>2025-02-11T11:07:49Z</time>
      </trkpt>
      <trkpt lat="47.81252" lon="-2.46879">
        <ele>112.2</ele>
        <time>2025-02-11T11:07:50Z</time>
      </trkpt>
      <trkpt lat="47.81252" lon="-2.46879">
        <ele>112.2</ele>
        <time>2025-02-11T11:07:51Z</time>
      </trkpt>
      <trkpt lat="47.81252" lon="-2.46879">
        <ele>112.2</ele>
        <time>2025-02-11T11:07:52Z</time>
      </trkpt>
      <trkpt lat="47.81252" lon="-2.46879">
        <ele>112.2</ele>
        <time>2025-02-11T11:07:53Z</time>
      </trkpt>
      <trkpt lat="47.81252" lon="-2.46879">
        <ele>112.2</ele>
        <time>2025-02-11T11:07:54Z</time>
      </trkpt>
      <trkpt lat="47.81252" lon="-2.46879">
        <ele>112.2</ele>
        <time>2025-02-11T11:07:55Z</time>
      </trkpt>
      <trkpt lat="47.81252" lon="-2.46879">
        <ele>112.2</ele>
        <time>2025-02-11T11:07:56Z</time>
      </trkpt>
      <trkpt lat="47.81252" lon="-2.46879">
        <ele>112.2</ele>
        <time>2025-02-11T11:07:57Z</time>
      </trkpt>
      <trkpt lat="47.81252" lon="-2.46879">
        <ele>112.2</ele>
        <time>2025-02-11T11:07:58Z</time>
      </trkpt>
      <trkpt lat="47.81252" lon="-2.46879">
        <ele>112.2</ele>
        <time>2025-02-11T11:07:59Z</time>
      </trkpt>
      <trkpt lat="47.81252" lon="-2.46879">
        <ele>112.2</ele>
        <time>2025-02-11T11:08:00Z</time>
      </trkpt>
      <trkpt lat="47.81252" lon="-2.46879">
        <ele>112.2</ele>
        <time>2025-02-11T11:08:01Z</time>
      </trkpt>
      <trkpt lat="47.81252" lon="-2.46879">
        <ele>112.1</ele>
        <time>2025-02-11T11:08:02Z</time>
      </trkpt>
      <trkpt lat="47.8125" lon="-2.4688">
        <ele>112</ele>
        <time>2025-02-11T11:08:03Z</time>
      </trkpt>
      <trkpt lat="47.81249" lon="-2.46881">
        <ele>112</ele>
        <time>2025-02-11T11:08:04Z</time>
      </trkpt>
      <trkpt lat="47.81249" lon="-2.46883">
        <ele>112</ele>
        <time>2025-02-11T11:08:05Z</time>
      </trkpt>
      <trkpt lat="47.81248" lon="-2.46884">
        <ele>111.9</ele>
        <time>2025-02-11T11:08:06Z</time>
      </trkpt>
      <trkpt lat="47.81249" lon="-2.46884">
        <ele>112</ele>
        <time>2025-02-11T11:08:07Z</time>
      </trkpt>
      <trkpt lat="47.81249" lon="-2.46884">
        <ele>112</ele>
        <time>2025-02-11T11:08:08Z</time>
      </trkpt>
      <trkpt lat="47.81249" lon="-2.46883">
        <ele>112</ele>
        <time>2025-02-11T11:08:09Z</time>
      </trkpt>
      <trkpt lat="47.81249" lon="-2.46883">
        <ele>112</ele>
        <time>2025-02-11T11:08:10Z</time>
      </trkpt>
      <trkpt lat="47.81249" lon="-2.46883">
        <ele>112</ele>
        <time>2025-02-11T11:08:11Z</time>
      </trkpt>
      <trkpt lat="47.81249" lon="-2.46883">
        <ele>112</ele>
        <time>2025-02-11T11:08:12Z</time>
      </trkpt>
      <trkpt lat="47.81249" lon="-2.46883">
        <ele>112</ele>
        <time>2025-02-11T11:08:13Z</time>
      </trkpt>
      <trkpt lat="47.81249" lon="-2.46883">
        <ele>112</ele>
        <time>2025-02-11T11:08:14Z</time>
      </trkpt>
      <trkpt lat="47.81249" lon="-2.46883">
        <ele>112</ele>
        <time>2025-02-11T11:08:15Z</time>
      </trkpt>
      <trkpt lat="47.81249" lon="-2.46883">
        <ele>112</ele>
        <time>2025-02-11T11:08:16Z</time>
      </trkpt>
      <trkpt lat="47.8125" lon="-2.46883">
        <ele>112</ele>
        <time>2025-02-11T11:08:17Z</time>
      </trkpt>
      <trkpt lat="47.8125" lon="-2.46883">
        <ele>112</ele>
        <time>2025-02-11T11:08:18Z</time>
      </trkpt>
      <trkpt lat="47.8125" lon="-2.46883">
        <ele>112</ele>
        <time>2025-02-11T11:08:19Z</time>
      </trkpt>
      <trkpt lat="47.8125" lon="-2.46883">
        <ele>112</ele>
        <time>2025-02-11T11:08:20Z</time>
      </trkpt>
      <trkpt lat="47.8125" lon="-2.46883">
        <ele>112</ele>
        <time>2025-02-11T11:08:21Z</time>
      </trkpt>
      <trkpt lat="47.8125" lon="-2.46883">
        <ele>112</ele>
        <time>2025-02-11T11:08:22Z</time>
      </trkpt>
      <trkpt lat="47.81249" lon="-2.46883">
        <ele>112</ele>
        <time>2025-02-11T11:08:23Z</time>
      </trkpt>
      <trkpt lat="47.81249" lon="-2.46883">
        <ele>112</ele>
        <time>2025-02-11T11:08:24Z</time>
      </trkpt>
      <trkpt lat="47.81249" lon="-2.46883">
        <ele>112</ele>
        <time>2025-02-11T11:08:25Z</time>
      </trkpt>
      <trkpt lat="47.81249" lon="-2.46883">
        <ele>112</ele>
        <time>2025-02-11T11:08:26Z</time>
      </trkpt>
      <trkpt lat="47.81249" lon="-2.46884">
        <ele>112</ele>
        <time>2025-02-11T11:08:27Z</time>
      </trkpt>
      <trkpt lat="47.81249" lon="-2.46886">
        <ele>112</ele>
        <time>2025-02-11T11:08:28Z</time>
      </trkpt>
      <trkpt lat="47.81249" lon="-2.46887">
        <ele>112</ele>
        <time>2025-02-11T11:08:29Z</time>
      </trkpt>
      <trkpt lat="47.81248" lon="-2.46888">
        <ele>111.9</ele>
        <time>2025-02-11T11:08:30Z</time>
      </trkpt>
      <trkpt lat="47.81248" lon="-2.46889">
        <ele>111.9</ele>
        <time>2025-02-11T11:08:31Z</time>
      </trkpt>
      <trkpt lat="47.81247" lon="-2.4689">
        <ele>111.9</ele>
        <time>2025-02-11T11:08:32Z</time>
      </trkpt>
      <trkpt lat="47.81247" lon="-2.46891">
        <ele>111.9</ele>
        <time>2025-02-11T11:08:33Z</time>
      </trkpt>
      <trkpt lat="47.81246" lon="-2.46892">
        <ele>111.8</ele>
        <time>2025-02-11T11:08:34Z</time>
      </trkpt>
      <trkpt lat="47.81246" lon="-2.46894">
        <ele>111.8</ele>
        <time>2025-02-11T11:08:35Z</time>
      </trkpt>
      <trkpt lat="47.81246" lon="-2.46895">
        <ele>111.8</ele>
        <time>2025-02-11T11:08:36Z</time>
      </trkpt>
      <trkpt lat="47.81246" lon="-2.46896">
        <ele>111.8</ele>
        <time>2025-02-11T11:08:37Z</time>
      </trkpt>
      <trkpt lat="47.81246" lon="-2.46897">
        <ele>111.8</ele>
        <time>2025-02-11T11:08:38Z</time>
      </trkpt>
      <trkpt lat="47.81245" lon="-2.46898">
        <ele>111.8</ele>
        <time>2025-02-11T11:08:39Z</time>
      </trkpt>
      <trkpt lat="47.81245" lon="-2.469">
        <ele>111.8</ele>
        <time>2025-02-11T11:08:40Z</time>
      </trkpt>
      <trkpt lat="47.81245" lon="-2.46901">
        <ele>111.7</ele>
        <time>2025-02-11T11:08:41Z</time>
      </trkpt>
      <trkpt lat="47.81245" lon="-2.46903">
        <ele>111.7</ele>
        <time>2025-02-11T11:08:42Z</time>
      </trkpt>
      <trkpt lat="47.81245" lon="-2.46904">
        <ele>111.7</ele>
        <time>2025-02-11T11:08:43Z</time>
      </trkpt>
      <trkpt lat="47.81244" lon="-2.46905">
        <ele>111.7</ele>
        <time>2025-02-11T11:08:44Z</time>
      </trkpt>
      <trkpt lat="47.81244" lon="-2.46906">
        <ele>111.6</ele>
        <time>2025-02-11T11:08:45Z</time>
      </trkpt>
      <trkpt lat="47.81244" lon="-2.46908">
        <ele>111.6</ele>
        <time>2025-02-11T11:08:46Z</time>
      </trkpt>
      <trkpt lat="47.81243" lon="-2.46909">
        <ele>111.6</ele>
        <time>2025-02-11T11:08:47Z</time>
      </trkpt>
      <trkpt lat="47.81243" lon="-2.4691">
        <ele>111.6</ele>
        <time>2025-02-11T11:08:48Z</time>
      </trkpt>
      <trkpt lat="47.81243" lon="-2.46911">
        <ele>111.5</ele>
        <time>2025-02-11T11:08:49Z</time>
      </trkpt>
      <trkpt lat="47.81243" lon="-2.46912">
        <ele>111.5</ele>
        <time>2025-02-11T11:08:50Z</time>
      </trkpt>
      <trkpt lat="47.81243" lon="-2.46914">
        <ele>111.5</ele>
        <time>2025-02-11T11:08:51Z</time>
      </trkpt>
      <trkpt lat="47.81243" lon="-2.46915">
        <ele>111.5</ele>
        <time>2025-02-11T11:08:52Z</time>
      </trkpt>
      <trkpt lat="47.81243" lon="-2.46916">
        <ele>111.5</ele>
        <time>2025-02-11T11:08:53Z</time>
      </trkpt>
      <trkpt lat="47.81244" lon="-2.46917">
        <ele>111.5</ele>
        <time>2025-02-11T11:08:54Z</time>
      </trkpt>
      <trkpt lat="47.81243" lon="-2.46919">
        <ele>111.5</ele>
        <time>2025-02-11T11:08:55Z</time>
      </trkpt>
      <trkpt lat="47.81243" lon="-2.46921">
        <ele>111.5</ele>
        <time>2025-02-11T11:08:56Z</time>
      </trkpt>
      <trkpt lat="47.81243" lon="-2.46922">
        <ele>111.4</ele>
        <time>2025-02-11T11:08:57Z</time>
      </trkpt>
      <trkpt lat="47.81243" lon="-2.46924">
        <ele>111.5</ele>
        <time>2025-02-11T11:08:58Z</time>
      </trkpt>
      <trkpt lat="47.81244" lon="-2.46925">
        <ele>111.5</ele>
        <time>2025-02-11T11:08:59Z</time>
      </trkpt>
      <trkpt lat="47.81244" lon="-2.46926">
        <ele>111.5</ele>
        <time>2025-02-11T11:09:00Z</time>
      </trkpt>
      <trkpt lat="47.81244" lon="-2.46928">
        <ele>111.5</ele>
        <time>2025-02-11T11:09:01Z</time>
      </trkpt>
      <trkpt lat="47.81244" lon="-2.46929">
        <ele>111.4</ele>
        <time>2025-02-11T11:09:02Z</time>
      </trkpt>
      <trkpt lat="47.81244" lon="-2.46931">
        <ele>111.4</ele>
        <time>2025-02-11T11:09:03Z</time>
      </trkpt>
      <trkpt lat="47.81244" lon="-2.46931">
        <ele>111.4</ele>
        <time>2025-02-11T11:09:04Z</time>
      </trkpt>
      <trkpt lat="47.81243" lon="-2.46932">
        <ele>111.4</ele>
        <time>2025-02-11T11:09:05Z</time>
      </trkpt>
      <trkpt lat="47.81243" lon="-2.46933">
        <ele>111.3</ele>
        <time>2025-02-11T11:09:06Z</time>
      </trkpt>
      <trkpt lat="47.81243" lon="-2.46934">
        <ele>111.3</ele>
        <time>2025-02-11T11:09:07Z</time>
      </trkpt>
      <trkpt lat="47.81242" lon="-2.46935">
        <ele>111.3</ele>
        <time>2025-02-11T11:09:08Z</time>
      </trkpt>
      <trkpt lat="47.81242" lon="-2.46936">
        <ele>111.2</ele>
        <time>2025-02-11T11:09:09Z</time>
      </trkpt>
      <trkpt lat="47.81241" lon="-2.46937">
        <ele>111.1</ele>
        <time>2025-02-11T11:09:10Z</time>
      </trkpt>
      <trkpt lat="47.81242" lon="-2.46938">
        <ele>111.1</ele>
        <time>2025-02-11T11:09:11Z</time>
      </trkpt>
      <trkpt lat="47.81241" lon="-2.4694">
        <ele>111.1</ele>
        <time>2025-02-11T11:09:12Z</time>
      </trkpt>
      <trkpt lat="47.81241" lon="-2.46941">
        <ele>111</ele>
        <time>2025-02-11T11:09:13Z</time>
      </trkpt>
      <trkpt lat="47.8124" lon="-2.46942">
        <ele>111</ele>
        <time>2025-02-11T11:09:14Z</time>
      </trkpt>
      <trkpt lat="47.8124" lon="-2.46943">
        <ele>110.9</ele>
        <time>2025-02-11T11:09:15Z</time>
      </trkpt>
      <trkpt lat="47.8124" lon="-2.46945">
        <ele>110.9</ele>
        <time>2025-02-11T11:09:16Z</time>
      </trkpt>
      <trkpt lat="47.81239" lon="-2.46946">
        <ele>110.9</ele>
        <time>2025-02-11T11:09:17Z</time>
      </trkpt>
      <trkpt lat="47.81239" lon="-2.46947">
        <ele>110.8</ele>
        <time>2025-02-11T11:09:18Z</time>
      </trkpt>
      <trkpt lat="47.81238" lon="-2.46948">
        <ele>110.8</ele>
        <time>2025-02-11T11:09:19Z</time>
      </trkpt>
      <trkpt lat="47.81238" lon="-2.4695">
        <ele>110.8</ele>
        <time>2025-02-11T11:09:20Z</time>
      </trkpt>
      <trkpt lat="47.81238" lon="-2.46951">
        <ele>110.8</ele>
        <time>2025-02-11T11:09:21Z</time>
      </trkpt>
      <trkpt lat="47.81237" lon="-2.46953">
        <ele>110.8</ele>
        <time>2025-02-11T11:09:22Z</time>
      </trkpt>
      <trkpt lat="47.81236" lon="-2.46953">
        <ele>110.7</ele>
        <time>2025-02-11T11:09:23Z</time>
      </trkpt>
      <trkpt lat="47.81236" lon="-2.46954">
        <ele>110.6</ele>
        <time>2025-02-11T11:09:24Z</time>
      </trkpt>
      <trkpt lat="47.81236" lon="-2.46956">
        <ele>110.6</ele>
        <time>2025-02-11T11:09:25Z</time>
      </trkpt>
      <trkpt lat="47.81236" lon="-2.46957">
        <ele>110.7</ele>
        <time>2025-02-11T11:09:26Z</time>
      </trkpt>
      <trkpt lat="47.81235" lon="-2.46958">
        <ele>110.7</ele>
        <time>2025-02-11T11:09:27Z</time>
      </trkpt>
      <trkpt lat="47.81235" lon="-2.4696">
        <ele>110.7</ele>
        <time>2025-02-11T11:09:28Z</time>
      </trkpt>
      <trkpt lat="47.81235" lon="-2.46961">
        <ele>110.7</ele>
        <time>2025-02-11T11:09:29Z</time>
      </trkpt>
      <trkpt lat="47.81235" lon="-2.46962">
        <ele>110.7</ele>
        <time>2025-02-11T11:09:30Z</time>
      </trkpt>
      <trkpt lat="47.81234" lon="-2.46963">
        <ele>110.7</ele>
        <time>2025-02-11T11:09:31Z</time>
      </trkpt>
      <trkpt lat="47.81234" lon="-2.46964">
        <ele>110.6</ele>
        <time>2025-02-11T11:09:32Z</time>
      </trkpt>
      <trkpt lat="47.81233" lon="-2.46964">
        <ele>110.6</ele>
        <time>2025-02-11T11:09:33Z</time>
      </trkpt>
      <trkpt lat="47.81232" lon="-2.46965">
        <ele>110.5</ele>
        <time>2025-02-11T11:09:34Z</time>
      </trkpt>
      <trkpt lat="47.81231" lon="-2.46966">
        <ele>110.5</ele>
        <time>2025-02-11T11:09:35Z</time>
      </trkpt>
      <trkpt lat="47.8123" lon="-2.46966">
        <ele>110.4</ele>
        <time>2025-02-11T11:09:36Z</time>
      </trkpt>
      <trkpt lat="47.81229" lon="-2.46967">
        <ele>110.4</ele>
        <time>2025-02-11T11:09:37Z</time>
      </trkpt>
      <trkpt lat="47.81229" lon="-2.46968">
        <ele>110.4</ele>
        <time>2025-02-11T11:09:38Z</time>
      </trkpt>
      <trkpt lat="47.81229" lon="-2.4697">
        <ele>110.4</ele>
        <time>2025-02-11T11:09:39Z</time>
      </trkpt>
      <trkpt lat="47.81228" lon="-2.46971">
        <ele>110.4</ele>
        <time>2025-02-11T11:09:40Z</time>
      </trkpt>
      <trkpt lat="47.81229" lon="-2.46973">
        <ele>110.5</ele>
        <time>2025-02-11T11:09:41Z</time>
      </trkpt>
      <trkpt lat="47.81228" lon="-2.46974">
        <ele>110.4</ele>
        <time>2025-02-11T11:09:42Z</time>
      </trkpt>
      <trkpt lat="47.81228" lon="-2.46976">
        <ele>110.4</ele>
        <time>2025-02-11T11:09:43Z</time>
      </trkpt>
      <trkpt lat="47.81228" lon="-2.46977">
        <ele>110.4</ele>
        <time>2025-02-11T11:09:44Z</time>
      </trkpt>
      <trkpt lat="47.81228" lon="-2.46978">
        <ele>110.4</ele>
        <time>2025-02-11T11:09:45Z</time>
      </trkpt>
      <trkpt lat="47.81228" lon="-2.46979">
        <ele>110.4</ele>
        <time>2025-02-11T11:09:46Z</time>
      </trkpt>
      <trkpt lat="47.81228" lon="-2.4698">
        <ele>110.4</ele>
        <time>2025-02-11T11:09:47Z</time>
      </trkpt>
      <trkpt lat="47.81228" lon="-2.46982">
        <ele>110.4</ele>
        <time>2025-02-11T11:09:48Z</time>
      </trkpt>
      <trkpt lat="47.81228" lon="-2.46983">
        <ele>110.4</ele>
        <time>2025-02-11T11:09:49Z</time>
      </trkpt>
      <trkpt lat="47.81228" lon="-2.46985">
        <ele>110.4</ele>
        <time>2025-02-11T11:09:50Z</time>
      </trkpt>
      <trkpt lat="47.81229" lon="-2.46986">
        <ele>110.5</ele>
        <time>2025-02-11T11:09:51Z</time>
      </trkpt>
      <trkpt lat="47.81229" lon="-2.46986">
        <ele>110.5</ele>
        <time>2025-02-11T11:09:52Z</time>
      </trkpt>
      <trkpt lat="47.81229" lon="-2.46988">
        <ele>110.5</ele>
        <time>2025-02-11T11:09:53Z</time>
      </trkpt>
      <trkpt lat="47.81229" lon="-2.46989">
        <ele>110.5</ele>
        <time>2025-02-11T11:09:54Z</time>
      </trkpt>
      <trkpt lat="47.8123" lon="-2.4699">
        <ele>110.5</ele>
        <time>2025-02-11T11:09:55Z</time>
      </trkpt>
      <trkpt lat="47.81229" lon="-2.46992">
        <ele>110.5</ele>
        <time>2025-02-11T11:09:56Z</time>
      </trkpt>
      <trkpt lat="47.81228" lon="-2.46993">
        <ele>110.4</ele>
        <time>2025-02-11T11:09:57Z</time>
      </trkpt>
      <trkpt lat="47.81227" lon="-2.46993">
        <ele>110.4</ele>
        <time>2025-02-11T11:09:58Z</time>
      </trkpt>
      <trkpt lat="47.81227" lon="-2.46994">
        <ele>110.3</ele>
        <time>2025-02-11T11:09:59Z</time>
      </trkpt>
      <trkpt lat="47.81226" lon="-2.46995">
        <ele>110.3</ele>
        <time>2025-02-11T11:10:00Z</time>
      </trkpt>
      <trkpt lat="47.81226" lon="-2.46996">
        <ele>110.3</ele>
        <time>2025-02-11T11:10:01Z</time>
      </trkpt>
      <trkpt lat="47.81225" lon="-2.46997">
        <ele>110.2</ele>
        <time>2025-02-11T11:10:02Z</time>
      </trkpt>
      <trkpt lat="47.81225" lon="-2.46998">
        <ele>110.2</ele>
        <time>2025-02-11T11:10:03Z</time>
      </trkpt>
      <trkpt lat="47.81224" lon="-2.46999">
        <ele>110.1</ele>
        <time>2025-02-11T11:10:04Z</time>
      </trkpt>
      <trkpt lat="47.81223" lon="-2.47">
        <ele>110.1</ele>
        <time>2025-02-11T11:10:05Z</time>
      </trkpt>
      <trkpt lat="47.81224" lon="-2.47001">
        <ele>110.1</ele>
        <time>2025-02-11T11:10:06Z</time>
      </trkpt>
      <trkpt lat="47.81224" lon="-2.47002">
        <ele>110.1</ele>
        <time>2025-02-11T11:10:07Z</time>
      </trkpt>
      <trkpt lat="47.81224" lon="-2.47003">
        <ele>110.1</ele>
        <time>2025-02-11T11:10:08Z</time>
      </trkpt>
      <trkpt lat="47.81224" lon="-2.47004">
        <ele>110.1</ele>
        <time>2025-02-11T11:10:09Z</time>
      </trkpt>
      <trkpt lat="47.81224" lon="-2.47005">
        <ele>110.1</ele>
        <time>2025-02-11T11:10:10Z</time>
      </trkpt>
      <trkpt lat="47.81223" lon="-2.47006">
        <ele>110.1</ele>
        <time>2025-02-11T11:10:11Z</time>
      </trkpt>
      <trkpt lat="47.81223" lon="-2.47007">
        <ele>110.1</ele>
        <time>2025-02-11T11:10:12Z</time>
      </trkpt>
      <trkpt lat="47.81223" lon="-2.47008">
        <ele>110</ele>
        <time>2025-02-11T11:10:13Z</time>
      </trkpt>
      <trkpt lat="47.81223" lon="-2.47009">
        <ele>110</ele>
        <time>2025-02-11T11:10:14Z</time>
      </trkpt>
      <trkpt lat="47.81222" lon="-2.4701">
        <ele>110</ele>
        <time>2025-02-11T11:10:15Z</time>
      </trkpt>
      <trkpt lat="47.81222" lon="-2.47012">
        <ele>110</ele>
        <time>2025-02-11T11:10:16Z</time>
      </trkpt>
      <trkpt lat="47.81221" lon="-2.47013">
        <ele>109.9</ele>
        <time>2025-02-11T11:10:17Z</time>
      </trkpt>
      <trkpt lat="47.81221" lon="-2.47014">
        <ele>109.9</ele>
        <time>2025-02-11T11:10:18Z</time>
      </trkpt>
      <trkpt lat="47.81221" lon="-2.47015">
        <ele>109.9</ele>
        <time>2025-02-11T11:10:19Z</time>
      </trkpt>
      <trkpt lat="47.8122" lon="-2.47017">
        <ele>109.8</ele>
        <time>2025-02-11T11:10:20Z</time>
      </trkpt>
      <trkpt lat="47.81219" lon="-2.47018">
        <ele>109.8</ele>
        <time>2025-02-11T11:10:21Z</time>
      </trkpt>
      <trkpt lat="47.81219" lon="-2.47019">
        <ele>109.7</ele>
        <time>2025-02-11T11:10:22Z</time>
      </trkpt>
      <trkpt lat="47.81218" lon="-2.4702">
        <ele>109.7</ele>
        <time>2025-02-11T11:10:23Z</time>
      </trkpt>
      <trkpt lat="47.81218" lon="-2.47021">
        <ele>109.6</ele>
        <time>2025-02-11T11:10:24Z</time>
      </trkpt>
      <trkpt lat="47.81217" lon="-2.47022">
        <ele>109.6</ele>
        <time>2025-02-11T11:10:25Z</time>
      </trkpt>
      <trkpt lat="47.81217" lon="-2.47023">
        <ele>109.6</ele>
        <time>2025-02-11T11:10:26Z</time>
      </trkpt>
      <trkpt lat="47.81217" lon="-2.47025">
        <ele>109.6</ele>
        <time>2025-02-11T11:10:27Z</time>
      </trkpt>
      <trkpt lat="47.81217" lon="-2.47026">
        <ele>109.6</ele>
        <time>2025-02-11T11:10:28Z</time>
      </trkpt>
      <trkpt lat="47.81217" lon="-2.47026">
        <ele>109.6</ele>
        <time>2025-02-11T11:10:29Z</time>
      </trkpt>
      <trkpt lat="47.81218" lon="-2.47027">
        <ele>109.7</ele>
        <time>2025-02-11T11:10:30Z</time>
      </trkpt>
      <trkpt lat="47.81218" lon="-2.47028">
        <ele>109.7</ele>
        <time>2025-02-11T11:10:31Z</time>
      </trkpt>
      <trkpt lat="47.81218" lon="-2.47029">
        <ele>109.7</ele>
        <time>2025-02-11T11:10:32Z</time>
      </trkpt>
      <trkpt lat="47.81218" lon="-2.47029">
        <ele>109.7</ele>
        <time>2025-02-11T11:10:33Z</time>
      </trkpt>
      <trkpt lat="47.81218" lon="-2.47031">
        <ele>109.7</ele>
        <time>2025-02-11T11:10:34Z</time>
      </trkpt>
      <trkpt lat="47.81218" lon="-2.47032">
        <ele>109.7</ele>
        <time>2025-02-11T11:10:35Z</time>
      </trkpt>
      <trkpt lat="47.81218" lon="-2.47033">
        <ele>109.7</ele>
        <time>2025-02-11T11:10:36Z</time>
      </trkpt>
      <trkpt lat="47.81218" lon="-2.47034">
        <ele>109.7</ele>
        <time>2025-02-11T11:10:37Z</time>
      </trkpt>
      <trkpt lat="47.81219" lon="-2.47035">
        <ele>109.7</ele>
        <time>2025-02-11T11:10:38Z</time>
      </trkpt>
      <trkpt lat="47.81219" lon="-2.47034">
        <ele>109.7</ele>
        <time>2025-02-11T11:10:39Z</time>
      </trkpt>
      <trkpt lat="47.8122" lon="-2.47034">
        <ele>109.8</ele>
        <time>2025-02-11T11:10:40Z</time>
      </trkpt>
      <trkpt lat="47.8122" lon="-2.47034">
        <ele>109.8</ele>
        <time>2025-02-11T11:10:41Z</time>
      </trkpt>
      <trkpt lat="47.8122" lon="-2.47034">
        <ele>109.8</ele>
        <time>2025-02-11T11:10:42Z</time>
      </trkpt>
      <trkpt lat="47.81219" lon="-2.47034">
        <ele>109.7</ele>
        <time>2025-02-11T11:10:43Z</time>
      </trkpt>
      <trkpt lat="47.81219" lon="-2.47034">
        <ele>109.7</ele>
        <time>2025-02-11T11:10:44Z</time>
      </trkpt>
      <trkpt lat="47.81219" lon="-2.47034">
        <ele>109.7</ele>
        <time>2025-02-11T11:10:45Z</time>
      </trkpt>
      <trkpt lat="47.81219" lon="-2.47034">
        <ele>109.7</ele>
        <time>2025-02-11T11:10:46Z</time>
      </trkpt>
      <trkpt lat="47.81219" lon="-2.47034">
        <ele>109.7</ele>
        <time>2025-02-11T11:10:47Z</time>
      </trkpt>
      <trkpt lat="47.81219" lon="-2.47034">
        <ele>109.7</ele>
        <time>2025-02-11T11:10:48Z</time>
      </trkpt>
      <trkpt lat="47.81219" lon="-2.47035">
        <ele>109.7</ele>
        <time>2025-02-11T11:10:49Z</time>
      </trkpt>
      <trkpt lat="47.81219" lon="-2.47036">
        <ele>109.7</ele>
        <time>2025-02-11T11:10:50Z</time>
      </trkpt>
      <trkpt lat="47.81218" lon="-2.47037">
        <ele>109.6</ele>
        <time>2025-02-11T11:10:51Z</time>
      </trkpt>
      <trkpt lat="47.81218" lon="-2.47039">
        <ele>109.6</ele>
        <time>2025-02-11T11:10:52Z</time>
      </trkpt>
      <trkpt lat="47.81218" lon="-2.4704">
        <ele>109.6</ele>
        <time>2025-02-11T11:10:53Z</time>
      </trkpt>
      <trkpt lat="47.81218" lon="-2.47042">
        <ele>109.6</ele>
        <time>2025-02-11T11:10:54Z</time>
      </trkpt>
      <trkpt lat="47.81218" lon="-2.47043">
        <ele>109.6</ele>
        <time>2025-02-11T11:10:55Z</time>
      </trkpt>
      <trkpt lat="47.81218" lon="-2.47045">
        <ele>109.6</ele>
        <time>2025-02-11T11:10:56Z</time>
      </trkpt>
      <trkpt lat="47.81218" lon="-2.47046">
        <ele>109.6</ele>
        <time>2025-02-11T11:10:57Z</time>
      </trkpt>
      <trkpt lat="47.81218" lon="-2.47047">
        <ele>109.6</ele>
        <time>2025-02-11T11:10:58Z</time>
      </trkpt>
      <trkpt lat="47.81219" lon="-2.47047">
        <ele>109.7</ele>
        <time>2025-02-11T11:10:59Z</time>
      </trkpt>
      <trkpt lat="47.81219" lon="-2.47048">
        <ele>109.7</ele>
        <time>2025-02-11T11:11:00Z</time>
      </trkpt>
      <trkpt lat="47.81219" lon="-2.47049">
        <ele>109.7</ele>
        <time>2025-02-11T11:11:01Z</time>
      </trkpt>
      <trkpt lat="47.8122" lon="-2.4705">
        <ele>109.8</ele>
        <time>2025-02-11T11:11:02Z</time>
      </trkpt>
      <trkpt lat="47.81221" lon="-2.4705">
        <ele>109.8</ele>
        <time>2025-02-11T11:11:03Z</time>
      </trkpt>
      <trkpt lat="47.81221" lon="-2.47051">
        <ele>109.9</ele>
        <time>2025-02-11T11:11:04Z</time>
      </trkpt>
      <trkpt lat="47.81222" lon="-2.47051">
        <ele>109.9</ele>
        <time>2025-02-11T11:11:05Z</time>
      </trkpt>
      <trkpt lat="47.81222" lon="-2.47051">
        <ele>110</ele>
        <time>2025-02-11T11:11:06Z</time>
      </trkpt>
      <trkpt lat="47.81223" lon="-2.47051">
        <ele>110.1</ele>
        <time>2025-02-11T11:11:07Z</time>
      </trkpt>
      <trkpt lat="47.81224" lon="-2.47052">
        <ele>110.1</ele>
        <time>2025-02-11T11:11:08Z</time>
      </trkpt>
      <trkpt lat="47.81224" lon="-2.47053">
        <ele>110.1</ele>
        <time>2025-02-11T11:11:09Z</time>
      </trkpt>
      <trkpt lat="47.81224" lon="-2.47054">
        <ele>110.1</ele>
        <time>2025-02-11T11:11:10Z</time>
      </trkpt>
      <trkpt lat="47.81224" lon="-2.47054">
        <ele>110.1</ele>
        <time>2025-02-11T11:11:11Z</time>
      </trkpt>
      <trkpt lat="47.81224" lon="-2.47055">
        <ele>110.1</ele>
        <time>2025-02-11T11:11:12Z</time>
      </trkpt>
      <trkpt lat="47.81225" lon="-2.47056">
        <ele>110.2</ele>
        <time>2025-02-11T11:11:13Z</time>
      </trkpt>
      <trkpt lat="47.81225" lon="-2.47057">
        <ele>110.1</ele>
        <time>2025-02-11T11:11:14Z</time>
      </trkpt>
      <trkpt lat="47.81225" lon="-2.47058">
        <ele>110.1</ele>
        <time>2025-02-11T11:11:15Z</time>
      </trkpt>
      <trkpt lat="47.81225" lon="-2.4706">
        <ele>110.1</ele>
        <time>2025-02-11T11:11:16Z</time>
      </trkpt>
      <trkpt lat="47.81225" lon="-2.4706">
        <ele>110.1</ele>
        <time>2025-02-11T11:11:17Z</time>
      </trkpt>
      <trkpt lat="47.81226" lon="-2.47061">
        <ele>110.1</ele>
        <time>2025-02-11T11:11:18Z</time>
      </trkpt>
      <trkpt lat="47.81226" lon="-2.47062">
        <ele>110.1</ele>
        <time>2025-02-11T11:11:19Z</time>
      </trkpt>
      <trkpt lat="47.81226" lon="-2.47063">
        <ele>110</ele>
        <time>2025-02-11T11:11:20Z</time>
      </trkpt>
      <trkpt lat="47.81225" lon="-2.47064">
        <ele>110</ele>
        <time>2025-02-11T11:11:21Z</time>
      </trkpt>
      <trkpt lat="47.81225" lon="-2.47065">
        <ele>109.9</ele>
        <time>2025-02-11T11:11:22Z</time>
      </trkpt>
      <trkpt lat="47.81224" lon="-2.47066">
        <ele>109.8</ele>
        <time>2025-02-11T11:11:23Z</time>
      </trkpt>
      <trkpt lat="47.81225" lon="-2.47067">
        <ele>109.8</ele>
        <time>2025-02-11T11:11:24Z</time>
      </trkpt>
      <trkpt lat="47.81224" lon="-2.47069">
        <ele>109.7</ele>
        <time>2025-02-11T11:11:25Z</time>
      </trkpt>
      <trkpt lat="47.81224" lon="-2.4707">
        <ele>109.6</ele>
        <time>2025-02-11T11:11:26Z</time>
      </trkpt>
      <trkpt lat="47.81224" lon="-2.47071">
        <ele>109.6</ele>
        <time>2025-02-11T11:11:27Z</time>
      </trkpt>
      <trkpt lat="47.81224" lon="-2.47073">
        <ele>109.6</ele>
        <time>2025-02-11T11:11:28Z</time>
      </trkpt>
      <trkpt lat="47.81224" lon="-2.47074">
        <ele>109.6</ele>
        <time>2025-02-11T11:11:29Z</time>
      </trkpt>
      <trkpt lat="47.81224" lon="-2.47075">
        <ele>109.5</ele>
        <time>2025-02-11T11:11:30Z</time>
      </trkpt>
      <trkpt lat="47.81223" lon="-2.47077">
        <ele>109.3</ele>
        <time>2025-02-11T11:11:31Z</time>
      </trkpt>
      <trkpt lat="47.81223" lon="-2.47079">
        <ele>109.3</ele>
        <time>2025-02-11T11:11:32Z</time>
      </trkpt>
      <trkpt lat="47.81222" lon="-2.4708">
        <ele>109.1</ele>
        <time>2025-02-11T11:11:33Z</time>
      </trkpt>
      <trkpt lat="47.81221" lon="-2.4708">
        <ele>109</ele>
        <time>2025-02-11T11:11:34Z</time>
      </trkpt>
      <trkpt lat="47.8122" lon="-2.4708">
        <ele>109</ele>
        <time>2025-02-11T11:11:35Z</time>
      </trkpt>
      <trkpt lat="47.8122" lon="-2.47081">
        <ele>108.9</ele>
        <time>2025-02-11T11:11:36Z</time>
      </trkpt>
      <trkpt lat="47.81219" lon="-2.47082">
        <ele>108.8</ele>
        <time>2025-02-11T11:11:37Z</time>
      </trkpt>
      <trkpt lat="47.81219" lon="-2.47082">
        <ele>108.8</ele>
        <time>2025-02-11T11:11:38Z</time>
      </trkpt>
      <trkpt lat="47.81218" lon="-2.47084">
        <ele>108.7</ele>
        <time>2025-02-11T11:11:39Z</time>
      </trkpt>
      <trkpt lat="47.81218" lon="-2.47086">
        <ele>108.7</ele>
        <time>2025-02-11T11:11:40Z</time>
      </trkpt>
      <trkpt lat="47.81218" lon="-2.47086">
        <ele>108.7</ele>
        <time>2025-02-11T11:11:41Z</time>
      </trkpt>
      <trkpt lat="47.81218" lon="-2.47087">
        <ele>108.7</ele>
        <time>2025-02-11T11:11:42Z</time>
      </trkpt>
      <trkpt lat="47.81219" lon="-2.47087">
        <ele>108.7</ele>
        <time>2025-02-11T11:11:43Z</time>
      </trkpt>
      <trkpt lat="47.81219" lon="-2.47089">
        <ele>108.7</ele>
        <time>2025-02-11T11:11:44Z</time>
      </trkpt>
      <trkpt lat="47.81219" lon="-2.47091">
        <ele>108.8</ele>
        <time>2025-02-11T11:11:45Z</time>
      </trkpt>
      <trkpt lat="47.81219" lon="-2.47092">
        <ele>108.8</ele>
        <time>2025-02-11T11:11:46Z</time>
      </trkpt>
      <trkpt lat="47.81219" lon="-2.47094">
        <ele>108.8</ele>
        <time>2025-02-11T11:11:47Z</time>
      </trkpt>
      <trkpt lat="47.81219" lon="-2.47095">
        <ele>108.8</ele>
        <time>2025-02-11T11:11:48Z</time>
      </trkpt>
      <trkpt lat="47.81219" lon="-2.47096">
        <ele>108.7</ele>
        <time>2025-02-11T11:11:49Z</time>
      </trkpt>
      <trkpt lat="47.81218" lon="-2.47097">
        <ele>108.7</ele>
        <time>2025-02-11T11:11:50Z</time>
      </trkpt>
      <trkpt lat="47.81218" lon="-2.47098">
        <ele>108.7</ele>
        <time>2025-02-11T11:11:51Z</time>
      </trkpt>
      <trkpt lat="47.81218" lon="-2.47099">
        <ele>108.7</ele>
        <time>2025-02-11T11:11:52Z</time>
      </trkpt>
      <trkpt lat="47.81218" lon="-2.471">
        <ele>108.7</ele>
        <time>2025-02-11T11:11:53Z</time>
      </trkpt>
      <trkpt lat="47.81217" lon="-2.471">
        <ele>108.6</ele>
        <time>2025-02-11T11:11:54Z</time>
      </trkpt>
      <trkpt lat="47.81217" lon="-2.471">
        <ele>108.6</ele>
        <time>2025-02-11T11:11:55Z</time>
      </trkpt>
      <trkpt lat="47.81216" lon="-2.471">
        <ele>108.6</ele>
        <time>2025-02-11T11:11:56Z</time>
      </trkpt>
      <trkpt lat="47.81216" lon="-2.47101">
        <ele>108.5</ele>
        <time>2025-02-11T11:11:57Z</time>
      </trkpt>
      <trkpt lat="47.81215" lon="-2.47101">
        <ele>108.5</ele>
        <time>2025-02-11T11:11:58Z</time>
      </trkpt>
      <trkpt lat="47.81214" lon="-2.47101">
        <ele>108.4</ele>
        <time>2025-02-11T11:11:59Z</time>
      </trkpt>
      <trkpt lat="47.81214" lon="-2.47101">
        <ele>108.4</ele>
        <time>2025-02-11T11:12:00Z</time>
      </trkpt>
      <trkpt lat="47.81213" lon="-2.47102">
        <ele>108.4</ele>
        <time>2025-02-11T11:12:01Z</time>
      </trkpt>
      <trkpt lat="47.81213" lon="-2.47103">
        <ele>108.3</ele>
        <time>2025-02-11T11:12:02Z</time>
      </trkpt>
      <trkpt lat="47.81213" lon="-2.47104">
        <ele>108.3</ele>
        <time>2025-02-11T11:12:03Z</time>
      </trkpt>
      <trkpt lat="47.81212" lon="-2.47103">
        <ele>108.2</ele>
        <time>2025-02-11T11:12:04Z</time>
      </trkpt>
      <trkpt lat="47.81212" lon="-2.47102">
        <ele>108.2</ele>
        <time>2025-02-11T11:12:05Z</time>
      </trkpt>
      <trkpt lat="47.81212" lon="-2.47101">
        <ele>108.3</ele>
        <time>2025-02-11T11:12:06Z</time>
      </trkpt>
      <trkpt lat="47.81211" lon="-2.47101">
        <ele>108.2</ele>
        <time>2025-02-11T11:12:07Z</time>
      </trkpt>
      <trkpt lat="47.8121" lon="-2.47102">
        <ele>108.1</ele>
        <time>2025-02-11T11:12:08Z</time>
      </trkpt>
      <trkpt lat="47.8121" lon="-2.47102">
        <ele>108.1</ele>
        <time>2025-02-11T11:12:09Z</time>
      </trkpt>
      <trkpt lat="47.81209" lon="-2.47102">
        <ele>108</ele>
        <time>2025-02-11T11:12:10Z</time>
      </trkpt>
      <trkpt lat="47.81208" lon="-2.47102">
        <ele>107.9</ele>
        <time>2025-02-11T11:12:11Z</time>
      </trkpt>
      <trkpt lat="47.81207" lon="-2.47102">
        <ele>107.9</ele>
        <time>2025-02-11T11:12:12Z</time>
      </trkpt>
      <trkpt lat="47.81206" lon="-2.47101">
        <ele>107.9</ele>
        <time>2025-02-11T11:12:13Z</time>
      </trkpt>
      <trkpt lat="47.81206" lon="-2.47101">
        <ele>107.8</ele>
        <time>2025-02-11T11:12:14Z</time>
      </trkpt>
      <trkpt lat="47.81206" lon="-2.47101">
        <ele>107.8</ele>
        <time>2025-02-11T11:12:15Z</time>
      </trkpt>
      <trkpt lat="47.81208" lon="-2.47103">
        <ele>108</ele>
        <time>2025-02-11T11:12:16Z</time>
      </trkpt>
      <trkpt lat="47.81209" lon="-2.47104">
        <ele>108</ele>
        <time>2025-02-11T11:12:17Z</time>
      </trkpt>
      <trkpt lat="47.81209" lon="-2.47104">
        <ele>108</ele>
        <time>2025-02-11T11:12:18Z</time>
      </trkpt>
      <trkpt lat="47.81209" lon="-2.47104">
        <ele>108</ele>
        <time>2025-02-11T11:12:19Z</time>
      </trkpt>
      <trkpt lat="47.81208" lon="-2.47104">
        <ele>108</ele>
        <time>2025-02-11T11:12:20Z</time>
      </trkpt>
      <trkpt lat="47.81208" lon="-2.47103">
        <ele>108</ele>
        <time>2025-02-11T11:12:21Z</time>
      </trkpt>
      <trkpt lat="47.81207" lon="-2.47103">
        <ele>107.9</ele>
        <time>2025-02-11T11:12:22Z</time>
      </trkpt>
      <trkpt lat="47.81205" lon="-2.47102">
        <ele>107.8</ele>
        <time>2025-02-11T11:12:23Z</time>
      </trkpt>
      <trkpt lat="47.81204" lon="-2.47102">
        <ele>107.7</ele>
        <time>2025-02-11T11:12:24Z</time>
      </trkpt>
      <trkpt lat="47.81203" lon="-2.47101">
        <ele>107.6</ele>
        <time>2025-02-11T11:12:25Z</time>
      </trkpt>
      <trkpt lat="47.81202" lon="-2.471">
        <ele>107.6</ele>
        <time>2025-02-11T11:12:26Z</time>
      </trkpt>
      <trkpt lat="47.81202" lon="-2.471">
        <ele>107.5</ele>
        <time>2025-02-11T11:12:27Z</time>
      </trkpt>
      <trkpt lat="47.81201" lon="-2.47099">
        <ele>107.4</ele>
        <time>2025-02-11T11:12:28Z</time>
      </trkpt>
      <trkpt lat="47.812" lon="-2.471">
        <ele>107.4</ele>
        <time>2025-02-11T11:12:29Z</time>
      </trkpt>
      <trkpt lat="47.81199" lon="-2.471">
        <ele>107.3</ele>
        <time>2025-02-11T11:12:30Z</time>
      </trkpt>
      <trkpt lat="47.81198" lon="-2.471">
        <ele>107.3</ele>
        <time>2025-02-11T11:12:31Z</time>
      </trkpt>
      <trkpt lat="47.81197" lon="-2.47101">
        <ele>107.2</ele>
        <time>2025-02-11T11:12:32Z</time>
      </trkpt>
      <trkpt lat="47.81197" lon="-2.47102">
        <ele>107.1</ele>
        <time>2025-02-11T11:12:33Z</time>
      </trkpt>
      <trkpt lat="47.81196" lon="-2.47103">
        <ele>107.1</ele>
        <time>2025-02-11T11:12:34Z</time>
      </trkpt>
      <trkpt lat="47.81195" lon="-2.47103">
        <ele>107</ele>
        <time>2025-02-11T11:12:35Z</time>
      </trkpt>
      <trkpt lat="47.81194" lon="-2.47104">
        <ele>107</ele>
        <time>2025-02-11T11:12:36Z</time>
      </trkpt>
      <trkpt lat="47.81193" lon="-2.47104">
        <ele>106.9</ele>
        <time>2025-02-11T11:12:37Z</time>
      </trkpt>
      <trkpt lat="47.81193" lon="-2.47104">
        <ele>106.8</ele>
        <time>2025-02-11T11:12:38Z</time>
      </trkpt>
      <trkpt lat="47.81191" lon="-2.47104">
        <ele>106.6</ele>
        <time>2025-02-11T11:12:39Z</time>
      </trkpt>
      <trkpt lat="47.81191" lon="-2.47104">
        <ele>106.5</ele>
        <time>2025-02-11T11:12:40Z</time>
      </trkpt>
      <trkpt lat="47.81189" lon="-2.47105">
        <ele>106.3</ele>
        <time>2025-02-11T11:12:41Z</time>
      </trkpt>
      <trkpt lat="47.81188" lon="-2.47105">
        <ele>106.2</ele>
        <time>2025-02-11T11:12:42Z</time>
      </trkpt>
      <trkpt lat="47.81187" lon="-2.47105">
        <ele>106.1</ele>
        <time>2025-02-11T11:12:43Z</time>
      </trkpt>
      <trkpt lat="47.81186" lon="-2.47106">
        <ele>106</ele>
        <time>2025-02-11T11:12:44Z</time>
      </trkpt>
      <trkpt lat="47.81185" lon="-2.47106">
        <ele>105.9</ele>
        <time>2025-02-11T11:12:45Z</time>
      </trkpt>
      <trkpt lat="47.81184" lon="-2.47106">
        <ele>105.7</ele>
        <time>2025-02-11T11:12:46Z</time>
      </trkpt>
      <trkpt lat="47.81182" lon="-2.47106">
        <ele>105.5</ele>
        <time>2025-02-11T11:12:47Z</time>
      </trkpt>
      <trkpt lat="47.81181" lon="-2.47106">
        <ele>105.3</ele>
        <time>2025-02-11T11:12:48Z</time>
      </trkpt>
      <trkpt lat="47.8118" lon="-2.47105">
        <ele>105.2</ele>
        <time>2025-02-11T11:12:49Z</time>
      </trkpt>
      <trkpt lat="47.81178" lon="-2.47106">
        <ele>105.1</ele>
        <time>2025-02-11T11:12:50Z</time>
      </trkpt>
      <trkpt lat="47.81178" lon="-2.47106">
        <ele>105</ele>
        <time>2025-02-11T11:12:51Z</time>
      </trkpt>
      <trkpt lat="47.81177" lon="-2.47106">
        <ele>104.8</ele>
        <time>2025-02-11T11:12:52Z</time>
      </trkpt>
      <trkpt lat="47.81175" lon="-2.47106">
        <ele>104.6</ele>
        <time>2025-02-11T11:12:53Z</time>
      </trkpt>
      <trkpt lat="47.81174" lon="-2.47109">
        <ele>104.7</ele>
        <time>2025-02-11T11:12:54Z</time>
      </trkpt>
      <trkpt lat="47.81174" lon="-2.47111">
        <ele>104.8</ele>
        <time>2025-02-11T11:12:55Z</time>
      </trkpt>
      <trkpt lat="47.81174" lon="-2.47113">
        <ele>104.8</ele>
        <time>2025-02-11T11:12:56Z</time>
      </trkpt>
      <trkpt lat="47.81174" lon="-2.47115">
        <ele>104.8</ele>
        <time>2025-02-11T11:12:57Z</time>
      </trkpt>
      <trkpt lat="47.81174" lon="-2.47117">
        <ele>104.8</ele>
        <time>2025-02-11T11:12:58Z</time>
      </trkpt>
      <trkpt lat="47.81174" lon="-2.47118">
        <ele>104.8</ele>
        <time>2025-02-11T11:12:59Z</time>
      </trkpt>
      <trkpt lat="47.81173" lon="-2.4712">
        <ele>104.7</ele>
        <time>2025-02-11T11:13:00Z</time>
      </trkpt>
      <trkpt lat="47.81173" lon="-2.47121">
        <ele>104.7</ele>
        <time>2025-02-11T11:13:01Z</time>
      </trkpt>
      <trkpt lat="47.81173" lon="-2.47122">
        <ele>104.7</ele>
        <time>2025-02-11T11:13:02Z</time>
      </trkpt>
      <trkpt lat="47.81174" lon="-2.47124">
        <ele>104.7</ele>
        <time>2025-02-11T11:13:03Z</time>
      </trkpt>
      <trkpt lat="47.81174" lon="-2.47125">
        <ele>104.7</ele>
        <time>2025-02-11T11:13:04Z</time>
      </trkpt>
      <trkpt lat="47.81173" lon="-2.47126">
        <ele>104.7</ele>
        <time>2025-02-11T11:13:05Z</time>
      </trkpt>
      <trkpt lat="47.81173" lon="-2.47127">
        <ele>104.7</ele>
        <time>2025-02-11T11:13:06Z</time>
      </trkpt>
      <trkpt lat="47.81173" lon="-2.47127">
        <ele>104.7</ele>
        <time>2025-02-11T11:13:07Z</time>
      </trkpt>
      <trkpt lat="47.81174" lon="-2.47128">
        <ele>104.7</ele>
        <time>2025-02-11T11:13:08Z</time>
      </trkpt>
      <trkpt lat="47.81174" lon="-2.47129">
        <ele>104.7</ele>
        <time>2025-02-11T11:13:09Z</time>
      </trkpt>
      <trkpt lat="47.81174" lon="-2.4713">
        <ele>104.8</ele>
        <time>2025-02-11T11:13:10Z</time>
      </trkpt>
      <trkpt lat="47.81174" lon="-2.47131">
        <ele>104.7</ele>
        <time>2025-02-11T11:13:11Z</time>
      </trkpt>
      <trkpt lat="47.81173" lon="-2.47132">
        <ele>104.7</ele>
        <time>2025-02-11T11:13:12Z</time>
      </trkpt>
      <trkpt lat="47.81173" lon="-2.47134">
        <ele>104.7</ele>
        <time>2025-02-11T11:13:13Z</time>
      </trkpt>
      <trkpt lat="47.81173" lon="-2.47135">
        <ele>104.7</ele>
        <time>2025-02-11T11:13:14Z</time>
      </trkpt>
      <trkpt lat="47.81172" lon="-2.47136">
        <ele>104.6</ele>
        <time>2025-02-11T11:13:15Z</time>
      </trkpt>
      <trkpt lat="47.81172" lon="-2.47138">
        <ele>104.6</ele>
        <time>2025-02-11T11:13:16Z</time>
      </trkpt>
      <trkpt lat="47.81172" lon="-2.4714">
        <ele>104.6</ele>
        <time>2025-02-11T11:13:17Z</time>
      </trkpt>
      <trkpt lat="47.81172" lon="-2.47142">
        <ele>104.6</ele>
        <time>2025-02-11T11:13:18Z</time>
      </trkpt>
      <trkpt lat="47.81172" lon="-2.47144">
        <ele>104.6</ele>
        <time>2025-02-11T11:13:19Z</time>
      </trkpt>
      <trkpt lat="47.81172" lon="-2.47145">
        <ele>104.6</ele>
        <time>2025-02-11T11:13:20Z</time>
      </trkpt>
      <trkpt lat="47.81173" lon="-2.47146">
        <ele>104.7</ele>
        <time>2025-02-11T11:13:21Z</time>
      </trkpt>
      <trkpt lat="47.81174" lon="-2.47147">
        <ele>104.8</ele>
        <time>2025-02-11T11:13:22Z</time>
      </trkpt>
      <trkpt lat="47.81175" lon="-2.47149">
        <ele>105</ele>
        <time>2025-02-11T11:13:23Z</time>
      </trkpt>
      <trkpt lat="47.81176" lon="-2.4715">
        <ele>105.1</ele>
        <time>2025-02-11T11:13:24Z</time>
      </trkpt>
      <trkpt lat="47.81177" lon="-2.47152">
        <ele>105.2</ele>
        <time>2025-02-11T11:13:25Z</time>
      </trkpt>
      <trkpt lat="47.81177" lon="-2.47154">
        <ele>105.3</ele>
        <time>2025-02-11T11:13:26Z</time>
      </trkpt>
      <trkpt lat="47.81177" lon="-2.47156">
        <ele>105.4</ele>
        <time>2025-02-11T11:13:27Z</time>
      </trkpt>
      <trkpt lat="47.81178" lon="-2.47158">
        <ele>105.4</ele>
        <time>2025-02-11T11:13:28Z</time>
      </trkpt>
      <trkpt lat="47.81178" lon="-2.47161">
        <ele>105.5</ele>
        <time>2025-02-11T11:13:29Z</time>
      </trkpt>
      <trkpt lat="47.81178" lon="-2.47163">
        <ele>105.6</ele>
        <time>2025-02-11T11:13:30Z</time>
      </trkpt>
      <trkpt lat="47.81179" lon="-2.47164">
        <ele>105.7</ele>
        <time>2025-02-11T11:13:31Z</time>
      </trkpt>
      <trkpt lat="47.81178" lon="-2.47166">
        <ele>105.6</ele>
        <time>2025-02-11T11:13:32Z</time>
      </trkpt>
      <trkpt lat="47.81178" lon="-2.47168">
        <ele>105.6</ele>
        <time>2025-02-11T11:13:33Z</time>
      </trkpt>
      <trkpt lat="47.81178" lon="-2.47171">
        <ele>105.5</ele>
        <time>2025-02-11T11:13:34Z</time>
      </trkpt>
      <trkpt lat="47.81178" lon="-2.47172">
        <ele>105.5</ele>
        <time>2025-02-11T11:13:35Z</time>
      </trkpt>
      <trkpt lat="47.81178" lon="-2.47174">
        <ele>105.5</ele>
        <time>2025-02-11T11:13:36Z</time>
      </trkpt>
      <trkpt lat="47.81178" lon="-2.47176">
        <ele>105.5</ele>
        <time>2025-02-11T11:13:37Z</time>
      </trkpt>
      <trkpt lat="47.81178" lon="-2.47178">
        <ele>105.4</ele>
        <time>2025-02-11T11:13:38Z</time>
      </trkpt>
      <trkpt lat="47.81178" lon="-2.47181">
        <ele>105.4</ele>
        <time>2025-02-11T11:13:39Z</time>
      </trkpt>
      <trkpt lat="47.81178" lon="-2.47183">
        <ele>105.4</ele>
        <time>2025-02-11T11:13:40Z</time>
      </trkpt>
      <trkpt lat="47.81178" lon="-2.47184">
        <ele>105.4</ele>
        <time>2025-02-11T11:13:41Z</time>
      </trkpt>
      <trkpt lat="47.81178" lon="-2.47186">
        <ele>105.3</ele>
        <time>2025-02-11T11:13:42Z</time>
      </trkpt>
      <trkpt lat="47.81178" lon="-2.47188">
        <ele>105.3</ele>
        <time>2025-02-11T11:13:43Z</time>
      </trkpt>
      <trkpt lat="47.81178" lon="-2.47189">
        <ele>105.3</ele>
        <time>2025-02-11T11:13:44Z</time>
      </trkpt>
      <trkpt lat="47.81178" lon="-2.47191">
        <ele>105.3</ele>
        <time>2025-02-11T11:13:45Z</time>
      </trkpt>
      <trkpt lat="47.81178" lon="-2.47192">
        <ele>105.2</ele>
        <time>2025-02-11T11:13:46Z</time>
      </trkpt>
      <trkpt lat="47.81178" lon="-2.47194">
        <ele>105.2</ele>
        <time>2025-02-11T11:13:47Z</time>
      </trkpt>
      <trkpt lat="47.81177" lon="-2.47196">
        <ele>105.2</ele>
        <time>2025-02-11T11:13:48Z</time>
      </trkpt>
      <trkpt lat="47.81177" lon="-2.47198">
        <ele>105.1</ele>
        <time>2025-02-11T11:13:49Z</time>
      </trkpt>
      <trkpt lat="47.81176" lon="-2.47199">
        <ele>105</ele>
        <time>2025-02-11T11:13:50Z</time>
      </trkpt>
      <trkpt lat="47.81176" lon="-2.47201">
        <ele>105</ele>
        <time>2025-02-11T11:13:51Z</time>
      </trkpt>
      <trkpt lat="47.81176" lon="-2.47202">
        <ele>105</ele>
        <time>2025-02-11T11:13:52Z</time>
      </trkpt>
      <trkpt lat="47.81176" lon="-2.47204">
        <ele>105</ele>
        <time>2025-02-11T11:13:53Z</time>
      </trkpt>
      <trkpt lat="47.81176" lon="-2.47205">
        <ele>105</ele>
        <time>2025-02-11T11:13:54Z</time>
      </trkpt>
      <trkpt lat="47.81176" lon="-2.47207">
        <ele>105</ele>
        <time>2025-02-11T11:13:55Z</time>
      </trkpt>
      <trkpt lat="47.81175" lon="-2.47209">
        <ele>104.9</ele>
        <time>2025-02-11T11:13:56Z</time>
      </trkpt>
      <trkpt lat="47.81175" lon="-2.4721">
        <ele>104.9</ele>
        <time>2025-02-11T11:13:57Z</time>
      </trkpt>
      <trkpt lat="47.81175" lon="-2.47211">
        <ele>104.9</ele>
        <time>2025-02-11T11:13:58Z</time>
      </trkpt>
      <trkpt lat="47.81175" lon="-2.47213">
        <ele>104.9</ele>
        <time>2025-02-11T11:13:59Z</time>
      </trkpt>
      <trkpt lat="47.81175" lon="-2.47214">
        <ele>104.9</ele>
        <time>2025-02-11T11:14:00Z</time>
      </trkpt>
      <trkpt lat="47.81175" lon="-2.47216">
        <ele>104.9</ele>
        <time>2025-02-11T11:14:01Z</time>
      </trkpt>
      <trkpt lat="47.81176" lon="-2.47217">
        <ele>105</ele>
        <time>2025-02-11T11:14:02Z</time>
      </trkpt>
      <trkpt lat="47.81176" lon="-2.47219">
        <ele>105</ele>
        <time>2025-02-11T11:14:03Z</time>
      </trkpt>
      <trkpt lat="47.81176" lon="-2.4722">
        <ele>105</ele>
        <time>2025-02-11T11:14:04Z</time>
      </trkpt>
      <trkpt lat="47.81176" lon="-2.47222">
        <ele>105</ele>
        <time>2025-02-11T11:14:05Z</time>
      </trkpt>
      <trkpt lat="47.81176" lon="-2.47224">
        <ele>105</ele>
        <time>2025-02-11T11:14:06Z</time>
      </trkpt>
      <trkpt lat="47.81176" lon="-2.47225">
        <ele>105</ele>
        <time>2025-02-11T11:14:07Z</time>
      </trkpt>
      <trkpt lat="47.81176" lon="-2.47227">
        <ele>105</ele>
        <time>2025-02-11T11:14:08Z</time>
      </trkpt>
      <trkpt lat="47.81176" lon="-2.47228">
        <ele>105</ele>
        <time>2025-02-11T11:14:09Z</time>
      </trkpt>
      <trkpt lat="47.81176" lon="-2.4723">
        <ele>105.1</ele>
        <time>2025-02-11T11:14:10Z</time>
      </trkpt>
      <trkpt lat="47.81177" lon="-2.47231">
        <ele>105.1</ele>
        <time>2025-02-11T11:14:11Z</time>
      </trkpt>
      <trkpt lat="47.81177" lon="-2.47233">
        <ele>105.1</ele>
        <time>2025-02-11T11:14:12Z</time>
      </trkpt>
      <trkpt lat="47.81177" lon="-2.47235">
        <ele>105.1</ele>
        <time>2025-02-11T11:14:13Z</time>
      </trkpt>
      <trkpt lat="47.81177" lon="-2.47236">
        <ele>105.1</ele>
        <time>2025-02-11T11:14:14Z</time>
      </trkpt>
      <trkpt lat="47.81178" lon="-2.47238">
        <ele>105.2</ele>
        <time>2025-02-11T11:14:15Z</time>
      </trkpt>
      <trkpt lat="47.81178" lon="-2.47239">
        <ele>105.2</ele>
        <time>2025-02-11T11:14:16Z</time>
      </trkpt>
      <trkpt lat="47.81178" lon="-2.47241">
        <ele>105.2</ele>
        <time>2025-02-11T11:14:17Z</time>
      </trkpt>
      <trkpt lat="47.81179" lon="-2.47242">
        <ele>105.3</ele>
        <time>2025-02-11T11:14:18Z</time>
      </trkpt>
      <trkpt lat="47.81179" lon="-2.47244">
        <ele>105.3</ele>
        <time>2025-02-11T11:14:19Z</time>
      </trkpt>
      <trkpt lat="47.81179" lon="-2.47246">
        <ele>105.3</ele>
        <time>2025-02-11T11:14:20Z</time>
      </trkpt>
      <trkpt lat="47.81179" lon="-2.47247">
        <ele>105.3</ele>
        <time>2025-02-11T11:14:21Z</time>
      </trkpt>
      <trkpt lat="47.8118" lon="-2.47249">
        <ele>105.4</ele>
        <time>2025-02-11T11:14:22Z</time>
      </trkpt>
      <trkpt lat="47.8118" lon="-2.47251">
        <ele>105.4</ele>
        <time>2025-02-11T11:14:23Z</time>
      </trkpt>
      <trkpt lat="47.8118" lon="-2.47252">
        <ele>105.5</ele>
        <time>2025-02-11T11:14:24Z</time>
      </trkpt>
      <trkpt lat="47.8118" lon="-2.47254">
        <ele>105.4</ele>
        <time>2025-02-11T11:14:25Z</time>
      </trkpt>
      <trkpt lat="47.8118" lon="-2.47256">
        <ele>105.4</ele>
        <time>2025-02-11T11:14:26Z</time>
      </trkpt>
      <trkpt lat="47.8118" lon="-2.47258">
        <ele>105.4</ele>
        <time>2025-02-11T11:14:27Z</time>
      </trkpt>
      <trkpt lat="47.8118" lon="-2.4726">
        <ele>105.4</ele>
        <time>2025-02-11T11:14:28Z</time>
      </trkpt>
      <trkpt lat="47.8118" lon="-2.47261">
        <ele>105.4</ele>
        <time>2025-02-11T11:14:29Z</time>
      </trkpt>
      <trkpt lat="47.81179" lon="-2.47263">
        <ele>105.4</ele>
        <time>2025-02-11T11:14:30Z</time>
      </trkpt>
      <trkpt lat="47.81179" lon="-2.47264">
        <ele>105.3</ele>
        <time>2025-02-11T11:14:31Z</time>
      </trkpt>
      <trkpt lat="47.81179" lon="-2.47266">
        <ele>105.4</ele>
        <time>2025-02-11T11:14:32Z</time>
      </trkpt>
      <trkpt lat="47.8118" lon="-2.47267">
        <ele>105.4</ele>
        <time>2025-02-11T11:14:33Z</time>
      </trkpt>
      <trkpt lat="47.8118" lon="-2.47269">
        <ele>105.5</ele>
        <time>2025-02-11T11:14:34Z</time>
      </trkpt>
      <trkpt lat="47.8118" lon="-2.47271">
        <ele>105.4</ele>
        <time>2025-02-11T11:14:35Z</time>
      </trkpt>
      <trkpt lat="47.8118" lon="-2.47273">
        <ele>105.4</ele>
        <time>2025-02-11T11:14:36Z</time>
      </trkpt>
      <trkpt lat="47.8118" lon="-2.47275">
        <ele>105.4</ele>
        <time>2025-02-11T11:14:37Z</time>
      </trkpt>
      <trkpt lat="47.8118" lon="-2.47277">
        <ele>105.4</ele>
        <time>2025-02-11T11:14:38Z</time>
      </trkpt>
      <trkpt lat="47.8118" lon="-2.47279">
        <ele>105.5</ele>
        <time>2025-02-11T11:14:39Z</time>
      </trkpt>
      <trkpt lat="47.8118" lon="-2.47281">
        <ele>105.4</ele>
        <time>2025-02-11T11:14:40Z</time>
      </trkpt>
      <trkpt lat="47.8118" lon="-2.47282">
        <ele>105.4</ele>
        <time>2025-02-11T11:14:41Z</time>
      </trkpt>
      <trkpt lat="47.8118" lon="-2.47281">
        <ele>105.4</ele>
        <time>2025-02-11T11:14:42Z</time>
      </trkpt>
      <trkpt lat="47.8118" lon="-2.47281">
        <ele>105.4</ele>
        <time>2025-02-11T11:14:43Z</time>
      </trkpt>
      <trkpt lat="47.8118" lon="-2.47281">
        <ele>105.4</ele>
        <time>2025-02-11T11:14:44Z</time>
      </trkpt>
      <trkpt lat="47.8118" lon="-2.47281">
        <ele>105.4</ele>
        <time>2025-02-11T11:14:45Z</time>
      </trkpt>
      <trkpt lat="47.8118" lon="-2.47281">
        <ele>105.4</ele>
        <time>2025-02-11T11:14:46Z</time>
      </trkpt>
      <trkpt lat="47.81179" lon="-2.47281">
        <ele>105.3</ele>
        <time>2025-02-11T11:14:47Z</time>
      </trkpt>
      <trkpt lat="47.81178" lon="-2.47282">
        <ele>105.2</ele>
        <time>2025-02-11T11:14:48Z</time>
      </trkpt>
      <trkpt lat="47.81179" lon="-2.47284">
        <ele>105.3</ele>
        <time>2025-02-11T11:14:49Z</time>
      </trkpt>
      <trkpt lat="47.8118" lon="-2.47286">
        <ele>105.4</ele>
        <time>2025-02-11T11:14:50Z</time>
      </trkpt>
      <trkpt lat="47.81181" lon="-2.47287">
        <ele>105.5</ele>
        <time>2025-02-11T11:14:51Z</time>
      </trkpt>
      <trkpt lat="47.81181" lon="-2.47289">
        <ele>105.5</ele>
        <time>2025-02-11T11:14:52Z</time>
      </trkpt>
      <trkpt lat="47.81181" lon="-2.4729">
        <ele>105.5</ele>
        <time>2025-02-11T11:14:53Z</time>
      </trkpt>
      <trkpt lat="47.81181" lon="-2.47292">
        <ele>105.6</ele>
        <time>2025-02-11T11:14:54Z</time>
      </trkpt>
      <trkpt lat="47.81181" lon="-2.47294">
        <ele>105.6</ele>
        <time>2025-02-11T11:14:55Z</time>
      </trkpt>
      <trkpt lat="47.81182" lon="-2.47295">
        <ele>105.6</ele>
        <time>2025-02-11T11:14:56Z</time>
      </trkpt>
      <trkpt lat="47.81182" lon="-2.47297">
        <ele>105.7</ele>
        <time>2025-02-11T11:14:57Z</time>
      </trkpt>
      <trkpt lat="47.81182" lon="-2.47298">
        <ele>105.7</ele>
        <time>2025-02-11T11:14:58Z</time>
      </trkpt>
      <trkpt lat="47.81183" lon="-2.473">
        <ele>105.7</ele>
        <time>2025-02-11T11:14:59Z</time>
      </trkpt>
      <trkpt lat="47.81183" lon="-2.47301">
        <ele>105.8</ele>
        <time>2025-02-11T11:15:00Z</time>
      </trkpt>
      <trkpt lat="47.81183" lon="-2.47303">
        <ele>105.8</ele>
        <time>2025-02-11T11:15:01Z</time>
      </trkpt>
      <trkpt lat="47.81183" lon="-2.47305">
        <ele>105.8</ele>
        <time>2025-02-11T11:15:02Z</time>
      </trkpt>
      <trkpt lat="47.81184" lon="-2.47307">
        <ele>105.8</ele>
        <time>2025-02-11T11:15:03Z</time>
      </trkpt>
      <trkpt lat="47.81184" lon="-2.47308">
        <ele>105.8</ele>
        <time>2025-02-11T11:15:04Z</time>
      </trkpt>
      <trkpt lat="47.81185" lon="-2.4731">
        <ele>105.8</ele>
        <time>2025-02-11T11:15:05Z</time>
      </trkpt>
      <trkpt lat="47.81185" lon="-2.47312">
        <ele>105.8</ele>
        <time>2025-02-11T11:15:06Z</time>
      </trkpt>
      <trkpt lat="47.81186" lon="-2.47314">
        <ele>105.8</ele>
        <time>2025-02-11T11:15:07Z</time>
      </trkpt>
      <trkpt lat="47.81186" lon="-2.47316">
        <ele>105.7</ele>
        <time>2025-02-11T11:15:08Z</time>
      </trkpt>
      <trkpt lat="47.81186" lon="-2.47316">
        <ele>105.7</ele>
        <time>2025-02-11T11:15:09Z</time>
      </trkpt>
      <trkpt lat="47.81186" lon="-2.47316">
        <ele>105.7</ele>
        <time>2025-02-11T11:15:10Z</time>
      </trkpt>
      <trkpt lat="47.81186" lon="-2.47315">
        <ele>105.7</ele>
        <time>2025-02-11T11:15:11Z</time>
      </trkpt>
      <trkpt lat="47.81186" lon="-2.47315">
        <ele>105.7</ele>
        <time>2025-02-11T11:15:12Z</time>
      </trkpt>
      <trkpt lat="47.81186" lon="-2.47315">
        <ele>105.7</ele>
        <time>2025-02-11T11:15:13Z</time>
      </trkpt>
      <trkpt lat="47.81186" lon="-2.47315">
        <ele>105.7</ele>
        <time>2025-02-11T11:15:14Z</time>
      </trkpt>
      <trkpt lat="47.81186" lon="-2.47315">
        <ele>105.7</ele>
        <time>2025-02-11T11:15:15Z</time>
      </trkpt>
      <trkpt lat="47.81186" lon="-2.47315">
        <ele>105.7</ele>
        <time>2025-02-11T11:15:16Z</time>
      </trkpt>
      <trkpt lat="47.81186" lon="-2.47316">
        <ele>105.7</ele>
        <time>2025-02-11T11:15:17Z</time>
      </trkpt>
      <trkpt lat="47.81186" lon="-2.47317">
        <ele>105.7</ele>
        <time>2025-02-11T11:15:18Z</time>
      </trkpt>
      <trkpt lat="47.81186" lon="-2.47318">
        <ele>105.7</ele>
        <time>2025-02-11T11:15:19Z</time>
      </trkpt>
      <trkpt lat="47.81186" lon="-2.4732">
        <ele>105.5</ele>
        <time>2025-02-11T11:15:20Z</time>
      </trkpt>
      <trkpt lat="47.81185" lon="-2.47323">
        <ele>105.4</ele>
        <time>2025-02-11T11:15:21Z</time>
      </trkpt>
      <trkpt lat="47.81186" lon="-2.47325">
        <ele>105.4</ele>
        <time>2025-02-11T11:15:22Z</time>
      </trkpt>
      <trkpt lat="47.81186" lon="-2.47326">
        <ele>105.3</ele>
        <time>2025-02-11T11:15:23Z</time>
      </trkpt>
      <trkpt lat="47.81186" lon="-2.47328">
        <ele>105.3</ele>
        <time>2025-02-11T11:15:24Z</time>
      </trkpt>
      <trkpt lat="47.81186" lon="-2.4733">
        <ele>105.3</ele>
        <time>2025-02-11T11:15:25Z</time>
      </trkpt>
      <trkpt lat="47.81187" lon="-2.47331">
        <ele>105.2</ele>
        <time>2025-02-11T11:15:26Z</time>
      </trkpt>
      <trkpt lat="47.81187" lon="-2.47333">
        <ele>105.2</ele>
        <time>2025-02-11T11:15:27Z</time>
      </trkpt>
      <trkpt lat="47.81187" lon="-2.47335">
        <ele>105.2</ele>
        <time>2025-02-11T11:15:28Z</time>
      </trkpt>
      <trkpt lat="47.81187" lon="-2.47337">
        <ele>105.2</ele>
        <time>2025-02-11T11:15:29Z</time>
      </trkpt>
      <trkpt lat="47.81188" lon="-2.47339">
        <ele>105.3</ele>
        <time>2025-02-11T11:15:30Z</time>
      </trkpt>
      <trkpt lat="47.81188" lon="-2.47341">
        <ele>105.3</ele>
        <time>2025-02-11T11:15:31Z</time>
      </trkpt>
      <trkpt lat="47.81189" lon="-2.47343">
        <ele>105.4</ele>
        <time>2025-02-11T11:15:32Z</time>
      </trkpt>
      <trkpt lat="47.81189" lon="-2.47345">
        <ele>105.4</ele>
        <time>2025-02-11T11:15:33Z</time>
      </trkpt>
      <trkpt lat="47.8119" lon="-2.47347">
        <ele>105.5</ele>
        <time>2025-02-11T11:15:34Z</time>
      </trkpt>
      <trkpt lat="47.8119" lon="-2.47349">
        <ele>105.5</ele>
        <time>2025-02-11T11:15:35Z</time>
      </trkpt>
      <trkpt lat="47.8119" lon="-2.47351">
        <ele>105.5</ele>
        <time>2025-02-11T11:15:36Z</time>
      </trkpt>
      <trkpt lat="47.8119" lon="-2.47353">
        <ele>105.6</ele>
        <time>2025-02-11T11:15:37Z</time>
      </trkpt>
      <trkpt lat="47.81191" lon="-2.47355">
        <ele>105.6</ele>
        <time>2025-02-11T11:15:38Z</time>
      </trkpt>
      <trkpt lat="47.81191" lon="-2.47357">
        <ele>105.6</ele>
        <time>2025-02-11T11:15:39Z</time>
      </trkpt>
      <trkpt lat="47.81191" lon="-2.47359">
        <ele>105.6</ele>
        <time>2025-02-11T11:15:40Z</time>
      </trkpt>
      <trkpt lat="47.81191" lon="-2.47361">
        <ele>105.6</ele>
        <time>2025-02-11T11:15:41Z</time>
      </trkpt>
      <trkpt lat="47.81192" lon="-2.47362">
        <ele>105.7</ele>
        <time>2025-02-11T11:15:42Z</time>
      </trkpt>
      <trkpt lat="47.81192" lon="-2.47364">
        <ele>105.7</ele>
        <time>2025-02-11T11:15:43Z</time>
      </trkpt>
      <trkpt lat="47.81193" lon="-2.47366">
        <ele>105.8</ele>
        <time>2025-02-11T11:15:44Z</time>
      </trkpt>
      <trkpt lat="47.81192" lon="-2.47368">
        <ele>105.8</ele>
        <time>2025-02-11T11:15:45Z</time>
      </trkpt>
      <trkpt lat="47.81192" lon="-2.4737">
        <ele>105.7</ele>
        <time>2025-02-11T11:15:46Z</time>
      </trkpt>
      <trkpt lat="47.81192" lon="-2.47371">
        <ele>105.8</ele>
        <time>2025-02-11T11:15:47Z</time>
      </trkpt>
      <trkpt lat="47.81193" lon="-2.47373">
        <ele>105.8</ele>
        <time>2025-02-11T11:15:48Z</time>
      </trkpt>
      <trkpt lat="47.81193" lon="-2.47375">
        <ele>105.8</ele>
        <time>2025-02-11T11:15:49Z</time>
      </trkpt>
      <trkpt lat="47.81193" lon="-2.47376">
        <ele>105.8</ele>
        <time>2025-02-11T11:15:50Z</time>
      </trkpt>
      <trkpt lat="47.81193" lon="-2.47378">
        <ele>105.9</ele>
        <time>2025-02-11T11:15:51Z</time>
      </trkpt>
      <trkpt lat="47.81194" lon="-2.4738">
        <ele>105.9</ele>
        <time>2025-02-11T11:15:52Z</time>
      </trkpt>
      <trkpt lat="47.81194" lon="-2.47382">
        <ele>105.9</ele>
        <time>2025-02-11T11:15:53Z</time>
      </trkpt>
      <trkpt lat="47.81193" lon="-2.47384">
        <ele>105.9</ele>
        <time>2025-02-11T11:15:54Z</time>
      </trkpt>
      <trkpt lat="47.81193" lon="-2.47386">
        <ele>105.9</ele>
        <time>2025-02-11T11:15:55Z</time>
      </trkpt>
      <trkpt lat="47.81194" lon="-2.47387">
        <ele>105.9</ele>
        <time>2025-02-11T11:15:56Z</time>
      </trkpt>
      <trkpt lat="47.81194" lon="-2.47389">
        <ele>106</ele>
        <time>2025-02-11T11:15:57Z</time>
      </trkpt>
      <trkpt lat="47.81195" lon="-2.47391">
        <ele>106</ele>
        <time>2025-02-11T11:15:58Z</time>
      </trkpt>
      <trkpt lat="47.81195" lon="-2.47392">
        <ele>106</ele>
        <time>2025-02-11T11:15:59Z</time>
      </trkpt>
      <trkpt lat="47.81195" lon="-2.47394">
        <ele>106</ele>
        <time>2025-02-11T11:16:00Z</time>
      </trkpt>
      <trkpt lat="47.81195" lon="-2.47396">
        <ele>106</ele>
        <time>2025-02-11T11:16:01Z</time>
      </trkpt>
      <trkpt lat="47.81195" lon="-2.47398">
        <ele>106</ele>
        <time>2025-02-11T11:16:02Z</time>
      </trkpt>
      <trkpt lat="47.81195" lon="-2.47399">
        <ele>106.1</ele>
        <time>2025-02-11T11:16:03Z</time>
      </trkpt>
      <trkpt lat="47.81194" lon="-2.47401">
        <ele>106</ele>
        <time>2025-02-11T11:16:04Z</time>
      </trkpt>
      <trkpt lat="47.81194" lon="-2.47403">
        <ele>106</ele>
        <time>2025-02-11T11:16:05Z</time>
      </trkpt>
      <trkpt lat="47.81195" lon="-2.47405">
        <ele>106</ele>
        <time>2025-02-11T11:16:06Z</time>
      </trkpt>
      <trkpt lat="47.81195" lon="-2.47407">
        <ele>106</ele>
        <time>2025-02-11T11:16:07Z</time>
      </trkpt>
      <trkpt lat="47.81195" lon="-2.47409">
        <ele>106.1</ele>
        <time>2025-02-11T11:16:08Z</time>
      </trkpt>
      <trkpt lat="47.81196" lon="-2.4741">
        <ele>106.1</ele>
        <time>2025-02-11T11:16:09Z</time>
      </trkpt>
      <trkpt lat="47.81196" lon="-2.47412">
        <ele>106.2</ele>
        <time>2025-02-11T11:16:10Z</time>
      </trkpt>
      <trkpt lat="47.81197" lon="-2.47414">
        <ele>106.2</ele>
        <time>2025-02-11T11:16:11Z</time>
      </trkpt>
      <trkpt lat="47.81197" lon="-2.47415">
        <ele>106.2</ele>
        <time>2025-02-11T11:16:12Z</time>
      </trkpt>
      <trkpt lat="47.81197" lon="-2.47417">
        <ele>106.3</ele>
        <time>2025-02-11T11:16:13Z</time>
      </trkpt>
      <trkpt lat="47.81197" lon="-2.47419">
        <ele>106.3</ele>
        <time>2025-02-11T11:16:14Z</time>
      </trkpt>
      <trkpt lat="47.81197" lon="-2.4742">
        <ele>106.3</ele>
        <time>2025-02-11T11:16:15Z</time>
      </trkpt>
      <trkpt lat="47.81197" lon="-2.47422">
        <ele>106.3</ele>
        <time>2025-02-11T11:16:16Z</time>
      </trkpt>
      <trkpt lat="47.81198" lon="-2.47424">
        <ele>106.4</ele>
        <time>2025-02-11T11:16:17Z</time>
      </trkpt>
      <trkpt lat="47.81198" lon="-2.47425">
        <ele>106.4</ele>
        <time>2025-02-11T11:16:18Z</time>
      </trkpt>
      <trkpt lat="47.81199" lon="-2.47427">
        <ele>106.5</ele>
        <time>2025-02-11T11:16:19Z</time>
      </trkpt>
      <trkpt lat="47.81199" lon="-2.47429">
        <ele>106.5</ele>
        <time>2025-02-11T11:16:20Z</time>
      </trkpt>
      <trkpt lat="47.812" lon="-2.4743">
        <ele>106.5</ele>
        <time>2025-02-11T11:16:21Z</time>
      </trkpt>
      <trkpt lat="47.812" lon="-2.47432">
        <ele>106.6</ele>
        <time>2025-02-11T11:16:22Z</time>
      </trkpt>
      <trkpt lat="47.812" lon="-2.47433">
        <ele>106.6</ele>
        <time>2025-02-11T11:16:23Z</time>
      </trkpt>
      <trkpt lat="47.812" lon="-2.47435">
        <ele>106.6</ele>
        <time>2025-02-11T11:16:24Z</time>
      </trkpt>
      <trkpt lat="47.812" lon="-2.47437">
        <ele>106.6</ele>
        <time>2025-02-11T11:16:25Z</time>
      </trkpt>
      <trkpt lat="47.812" lon="-2.47439">
        <ele>106.6</ele>
        <time>2025-02-11T11:16:26Z</time>
      </trkpt>
      <trkpt lat="47.812" lon="-2.47441">
        <ele>106.6</ele>
        <time>2025-02-11T11:16:27Z</time>
      </trkpt>
      <trkpt lat="47.812" lon="-2.47443">
        <ele>106.6</ele>
        <time>2025-02-11T11:16:28Z</time>
      </trkpt>
      <trkpt lat="47.812" lon="-2.47445">
        <ele>106.6</ele>
        <time>2025-02-11T11:16:29Z</time>
      </trkpt>
      <trkpt lat="47.812" lon="-2.47447">
        <ele>106.7</ele>
        <time>2025-02-11T11:16:30Z</time>
      </trkpt>
      <trkpt lat="47.812" lon="-2.47448">
        <ele>106.7</ele>
        <time>2025-02-11T11:16:31Z</time>
      </trkpt>
      <trkpt lat="47.812" lon="-2.4745">
        <ele>106.8</ele>
        <time>2025-02-11T11:16:32Z</time>
      </trkpt>
      <trkpt lat="47.812" lon="-2.47452">
        <ele>106.9</ele>
        <time>2025-02-11T11:16:33Z</time>
      </trkpt>
      <trkpt lat="47.812" lon="-2.47454">
        <ele>106.9</ele>
        <time>2025-02-11T11:16:34Z</time>
      </trkpt>
      <trkpt lat="47.81201" lon="-2.47455">
        <ele>107</ele>
        <time>2025-02-11T11:16:35Z</time>
      </trkpt>
      <trkpt lat="47.81201" lon="-2.47457">
        <ele>107</ele>
        <time>2025-02-11T11:16:36Z</time>
      </trkpt>
      <trkpt lat="47.81201" lon="-2.47459">
        <ele>107.1</ele>
        <time>2025-02-11T11:16:37Z</time>
      </trkpt>
      <trkpt lat="47.812" lon="-2.4746">
        <ele>107.1</ele>
        <time>2025-02-11T11:16:38Z</time>
      </trkpt>
      <trkpt lat="47.812" lon="-2.47462">
        <ele>107.1</ele>
        <time>2025-02-11T11:16:39Z</time>
      </trkpt>
      <trkpt lat="47.81201" lon="-2.47464">
        <ele>107.2</ele>
        <time>2025-02-11T11:16:40Z</time>
      </trkpt>
      <trkpt lat="47.81201" lon="-2.47466">
        <ele>107.3</ele>
        <time>2025-02-11T11:16:41Z</time>
      </trkpt>
      <trkpt lat="47.81202" lon="-2.47467">
        <ele>107.4</ele>
        <time>2025-02-11T11:16:42Z</time>
      </trkpt>
      <trkpt lat="47.81202" lon="-2.47469">
        <ele>107.4</ele>
        <time>2025-02-11T11:16:43Z</time>
      </trkpt>
      <trkpt lat="47.81202" lon="-2.4747">
        <ele>107.5</ele>
        <time>2025-02-11T11:16:44Z</time>
      </trkpt>
      <trkpt lat="47.81202" lon="-2.47472">
        <ele>107.6</ele>
        <time>2025-02-11T11:16:45Z</time>
      </trkpt>
      <trkpt lat="47.81202" lon="-2.47474">
        <ele>107.6</ele>
        <time>2025-02-11T11:16:46Z</time>
      </trkpt>
      <trkpt lat="47.81202" lon="-2.47476">
        <ele>107.6</ele>
        <time>2025-02-11T11:16:47Z</time>
      </trkpt>
      <trkpt lat="47.81203" lon="-2.47477">
        <ele>107.6</ele>
        <time>2025-02-11T11:16:48Z</time>
      </trkpt>
      <trkpt lat="47.81204" lon="-2.47479">
        <ele>107.7</ele>
        <time>2025-02-11T11:16:49Z</time>
      </trkpt>
      <trkpt lat="47.81204" lon="-2.47481">
        <ele>107.7</ele>
        <time>2025-02-11T11:16:50Z</time>
      </trkpt>
      <trkpt lat="47.81204" lon="-2.47483">
        <ele>107.7</ele>
        <time>2025-02-11T11:16:51Z</time>
      </trkpt>
      <trkpt lat="47.81204" lon="-2.47485">
        <ele>107.7</ele>
        <time>2025-02-11T11:16:52Z</time>
      </trkpt>
      <trkpt lat="47.81204" lon="-2.47487">
        <ele>107.7</ele>
        <time>2025-02-11T11:16:53Z</time>
      </trkpt>
      <trkpt lat="47.81205" lon="-2.47488">
        <ele>107.7</ele>
        <time>2025-02-11T11:16:54Z</time>
      </trkpt>
      <trkpt lat="47.81205" lon="-2.4749">
        <ele>107.7</ele>
        <time>2025-02-11T11:16:55Z</time>
      </trkpt>
      <trkpt lat="47.81205" lon="-2.47491">
        <ele>107.8</ele>
        <time>2025-02-11T11:16:56Z</time>
      </trkpt>
      <trkpt lat="47.81205" lon="-2.47493">
        <ele>107.8</ele>
        <time>2025-02-11T11:16:57Z</time>
      </trkpt>
      <trkpt lat="47.81206" lon="-2.47495">
        <ele>107.8</ele>
        <time>2025-02-11T11:16:58Z</time>
      </trkpt>
      <trkpt lat="47.81206" lon="-2.47497">
        <ele>107.8</ele>
        <time>2025-02-11T11:16:59Z</time>
      </trkpt>
      <trkpt lat="47.81206" lon="-2.47498">
        <ele>107.8</ele>
        <time>2025-02-11T11:17:00Z</time>
      </trkpt>
      <trkpt lat="47.81206" lon="-2.475">
        <ele>107.8</ele>
        <time>2025-02-11T11:17:01Z</time>
      </trkpt>
      <trkpt lat="47.81207" lon="-2.47501">
        <ele>107.9</ele>
        <time>2025-02-11T11:17:02Z</time>
      </trkpt>
      <trkpt lat="47.81207" lon="-2.47503">
        <ele>107.9</ele>
        <time>2025-02-11T11:17:03Z</time>
      </trkpt>
      <trkpt lat="47.81208" lon="-2.47504">
        <ele>108</ele>
        <time>2025-02-11T11:17:04Z</time>
      </trkpt>
      <trkpt lat="47.81208" lon="-2.47506">
        <ele>108</ele>
        <time>2025-02-11T11:17:05Z</time>
      </trkpt>
      <trkpt lat="47.81208" lon="-2.47508">
        <ele>107.9</ele>
        <time>2025-02-11T11:17:06Z</time>
      </trkpt>
      <trkpt lat="47.81207" lon="-2.47509">
        <ele>107.9</ele>
        <time>2025-02-11T11:17:07Z</time>
      </trkpt>
      <trkpt lat="47.81207" lon="-2.47511">
        <ele>107.9</ele>
        <time>2025-02-11T11:17:08Z</time>
      </trkpt>
      <trkpt lat="47.81207" lon="-2.47512">
        <ele>107.9</ele>
        <time>2025-02-11T11:17:09Z</time>
      </trkpt>
      <trkpt lat="47.81206" lon="-2.47513">
        <ele>107.8</ele>
        <time>2025-02-11T11:17:10Z</time>
      </trkpt>
      <trkpt lat="47.81205" lon="-2.47514">
        <ele>107.8</ele>
        <time>2025-02-11T11:17:11Z</time>
      </trkpt>
      <trkpt lat="47.81204" lon="-2.47515">
        <ele>107.7</ele>
        <time>2025-02-11T11:17:12Z</time>
      </trkpt>
      <trkpt lat="47.81203" lon="-2.47515">
        <ele>107.6</ele>
        <time>2025-02-11T11:17:13Z</time>
      </trkpt>
      <trkpt lat="47.81202" lon="-2.47516">
        <ele>107.5</ele>
        <time>2025-02-11T11:17:14Z</time>
      </trkpt>
      <trkpt lat="47.81201" lon="-2.47517">
        <ele>107.5</ele>
        <time>2025-02-11T11:17:15Z</time>
      </trkpt>
      <trkpt lat="47.812" lon="-2.47518">
        <ele>107.4</ele>
        <time>2025-02-11T11:17:16Z</time>
      </trkpt>
      <trkpt lat="47.81199" lon="-2.47518">
        <ele>107.3</ele>
        <time>2025-02-11T11:17:17Z</time>
      </trkpt>
      <trkpt lat="47.81198" lon="-2.47519">
        <ele>107.2</ele>
        <time>2025-02-11T11:17:18Z</time>
      </trkpt>
      <trkpt lat="47.81197" lon="-2.47521">
        <ele>107.2</ele>
        <time>2025-02-11T11:17:19Z</time>
      </trkpt>
      <trkpt lat="47.81197" lon="-2.47522">
        <ele>107.2</ele>
        <time>2025-02-11T11:17:20Z</time>
      </trkpt>
      <trkpt lat="47.81197" lon="-2.47524">
        <ele>107.2</ele>
        <time>2025-02-11T11:17:21Z</time>
      </trkpt>
      <trkpt lat="47.81196" lon="-2.47525">
        <ele>107.1</ele>
        <time>2025-02-11T11:17:22Z</time>
      </trkpt>
      <trkpt lat="47.81197" lon="-2.47527">
        <ele>107.2</ele>
        <time>2025-02-11T11:17:23Z</time>
      </trkpt>
      <trkpt lat="47.81197" lon="-2.47529">
        <ele>107.2</ele>
        <time>2025-02-11T11:17:24Z</time>
      </trkpt>
      <trkpt lat="47.81197" lon="-2.47531">
        <ele>107.2</ele>
        <time>2025-02-11T11:17:25Z</time>
      </trkpt>
      <trkpt lat="47.81198" lon="-2.47533">
        <ele>107.2</ele>
        <time>2025-02-11T11:17:26Z</time>
      </trkpt>
      <trkpt lat="47.81198" lon="-2.47534">
        <ele>107.3</ele>
        <time>2025-02-11T11:17:27Z</time>
      </trkpt>
      <trkpt lat="47.81199" lon="-2.47536">
        <ele>107.3</ele>
        <time>2025-02-11T11:17:28Z</time>
      </trkpt>
      <trkpt lat="47.812" lon="-2.47537">
        <ele>107.4</ele>
        <time>2025-02-11T11:17:29Z</time>
      </trkpt>
      <trkpt lat="47.812" lon="-2.47539">
        <ele>107.4</ele>
        <time>2025-02-11T11:17:30Z</time>
      </trkpt>
      <trkpt lat="47.81202" lon="-2.47539">
        <ele>107.5</ele>
        <time>2025-02-11T11:17:31Z</time>
      </trkpt>
      <trkpt lat="47.81202" lon="-2.47541">
        <ele>107.6</ele>
        <time>2025-02-11T11:17:32Z</time>
      </trkpt>
      <trkpt lat="47.81203" lon="-2.47542">
        <ele>107.6</ele>
        <time>2025-02-11T11:17:33Z</time>
      </trkpt>
      <trkpt lat="47.81203" lon="-2.47543">
        <ele>107.6</ele>
        <time>2025-02-11T11:17:34Z</time>
      </trkpt>
      <trkpt lat="47.81203" lon="-2.47545">
        <ele>107.6</ele>
        <time>2025-02-11T11:17:35Z</time>
      </trkpt>
      <trkpt lat="47.81203" lon="-2.47546">
        <ele>107.6</ele>
        <time>2025-02-11T11:17:36Z</time>
      </trkpt>
      <trkpt lat="47.81203" lon="-2.47548">
        <ele>107.6</ele>
        <time>2025-02-11T11:17:37Z</time>
      </trkpt>
      <trkpt lat="47.81203" lon="-2.47549">
        <ele>107.6</ele>
        <time>2025-02-11T11:17:38Z</time>
      </trkpt>
      <trkpt lat="47.81203" lon="-2.47551">
        <ele>107.6</ele>
        <time>2025-02-11T11:17:39Z</time>
      </trkpt>
      <trkpt lat="47.81203" lon="-2.47553">
        <ele>107.6</ele>
        <time>2025-02-11T11:17:40Z</time>
      </trkpt>
      <trkpt lat="47.81203" lon="-2.47554">
        <ele>107.6</ele>
        <time>2025-02-11T11:17:41Z</time>
      </trkpt>
      <trkpt lat="47.81202" lon="-2.47555">
        <ele>107.6</ele>
        <time>2025-02-11T11:17:42Z</time>
      </trkpt>
      <trkpt lat="47.81202" lon="-2.47557">
        <ele>107.6</ele>
        <time>2025-02-11T11:17:43Z</time>
      </trkpt>
      <trkpt lat="47.81202" lon="-2.47559">
        <ele>107.6</ele>
        <time>2025-02-11T11:17:44Z</time>
      </trkpt>
      <trkpt lat="47.81201" lon="-2.4756">
        <ele>107.7</ele>
        <time>2025-02-11T11:17:45Z</time>
      </trkpt>
      <trkpt lat="47.81201" lon="-2.47562">
        <ele>107.7</ele>
        <time>2025-02-11T11:17:46Z</time>
      </trkpt>
      <trkpt lat="47.81201" lon="-2.47564">
        <ele>107.8</ele>
        <time>2025-02-11T11:17:47Z</time>
      </trkpt>
      <trkpt lat="47.81201" lon="-2.47566">
        <ele>107.8</ele>
        <time>2025-02-11T11:17:48Z</time>
      </trkpt>
      <trkpt lat="47.81201" lon="-2.47567">
        <ele>107.9</ele>
        <time>2025-02-11T11:17:49Z</time>
      </trkpt>
      <trkpt lat="47.81202" lon="-2.47569">
        <ele>108</ele>
        <time>2025-02-11T11:17:50Z</time>
      </trkpt>
      <trkpt lat="47.81203" lon="-2.4757">
        <ele>108.1</ele>
        <time>2025-02-11T11:17:51Z</time>
      </trkpt>
      <trkpt lat="47.81204" lon="-2.47571">
        <ele>108.2</ele>
        <time>2025-02-11T11:17:52Z</time>
      </trkpt>
      <trkpt lat="47.81204" lon="-2.47572">
        <ele>108.3</ele>
        <time>2025-02-11T11:17:53Z</time>
      </trkpt>
      <trkpt lat="47.81205" lon="-2.47573">
        <ele>108.4</ele>
        <time>2025-02-11T11:17:54Z</time>
      </trkpt>
      <trkpt lat="47.81205" lon="-2.47574">
        <ele>108.4</ele>
        <time>2025-02-11T11:17:55Z</time>
      </trkpt>
      <trkpt lat="47.81206" lon="-2.47575">
        <ele>108.5</ele>
        <time>2025-02-11T11:17:56Z</time>
      </trkpt>
      <trkpt lat="47.81206" lon="-2.47576">
        <ele>108.5</ele>
        <time>2025-02-11T11:17:57Z</time>
      </trkpt>
      <trkpt lat="47.81206" lon="-2.47577">
        <ele>108.6</ele>
        <time>2025-02-11T11:17:58Z</time>
      </trkpt>
      <trkpt lat="47.81205" lon="-2.47578">
        <ele>108.6</ele>
        <time>2025-02-11T11:17:59Z</time>
      </trkpt>
      <trkpt lat="47.81205" lon="-2.4758">
        <ele>108.6</ele>
        <time>2025-02-11T11:18:00Z</time>
      </trkpt>
      <trkpt lat="47.81206" lon="-2.47582">
        <ele>108.7</ele>
        <time>2025-02-11T11:18:01Z</time>
      </trkpt>
      <trkpt lat="47.81206" lon="-2.47583">
        <ele>108.8</ele>
        <time>2025-02-11T11:18:02Z</time>
      </trkpt>
      <trkpt lat="47.81207" lon="-2.47585">
        <ele>108.9</ele>
        <time>2025-02-11T11:18:03Z</time>
      </trkpt>
      <trkpt lat="47.81208" lon="-2.47586">
        <ele>109</ele>
        <time>2025-02-11T11:18:04Z</time>
      </trkpt>
      <trkpt lat="47.81209" lon="-2.47588">
        <ele>109.1</ele>
        <time>2025-02-11T11:18:05Z</time>
      </trkpt>
      <trkpt lat="47.8121" lon="-2.4759">
        <ele>109.2</ele>
        <time>2025-02-11T11:18:06Z</time>
      </trkpt>
      <trkpt lat="47.8121" lon="-2.47592">
        <ele>109.3</ele>
        <time>2025-02-11T11:18:07Z</time>
      </trkpt>
      <trkpt lat="47.8121" lon="-2.47594">
        <ele>109.3</ele>
        <time>2025-02-11T11:18:08Z</time>
      </trkpt>
      <trkpt lat="47.81211" lon="-2.47595">
        <ele>109.3</ele>
        <time>2025-02-11T11:18:09Z</time>
      </trkpt>
      <trkpt lat="47.81211" lon="-2.47596">
        <ele>109.4</ele>
        <time>2025-02-11T11:18:10Z</time>
      </trkpt>
      <trkpt lat="47.81211" lon="-2.47597">
        <ele>109.4</ele>
        <time>2025-02-11T11:18:11Z</time>
      </trkpt>
      <trkpt lat="47.81212" lon="-2.47599">
        <ele>109.5</ele>
        <time>2025-02-11T11:18:12Z</time>
      </trkpt>
      <trkpt lat="47.81212" lon="-2.47601">
        <ele>109.5</ele>
        <time>2025-02-11T11:18:13Z</time>
      </trkpt>
      <trkpt lat="47.81213" lon="-2.47603">
        <ele>109.5</ele>
        <time>2025-02-11T11:18:14Z</time>
      </trkpt>
      <trkpt lat="47.81212" lon="-2.47605">
        <ele>109.6</ele>
        <time>2025-02-11T11:18:15Z</time>
      </trkpt>
      <trkpt lat="47.81212" lon="-2.47607">
        <ele>109.6</ele>
        <time>2025-02-11T11:18:16Z</time>
      </trkpt>
      <trkpt lat="47.81212" lon="-2.47608">
        <ele>109.6</ele>
        <time>2025-02-11T11:18:17Z</time>
      </trkpt>
      <trkpt lat="47.81212" lon="-2.4761">
        <ele>109.6</ele>
        <time>2025-02-11T11:18:18Z</time>
      </trkpt>
      <trkpt lat="47.81212" lon="-2.47611">
        <ele>109.6</ele>
        <time>2025-02-11T11:18:19Z</time>
      </trkpt>
      <trkpt lat="47.81213" lon="-2.47613">
        <ele>109.7</ele>
        <time>2025-02-11T11:18:20Z</time>
      </trkpt>
      <trkpt lat="47.81213" lon="-2.47614">
        <ele>109.7</ele>
        <time>2025-02-11T11:18:21Z</time>
      </trkpt>
      <trkpt lat="47.81213" lon="-2.47616">
        <ele>109.7</ele>
        <time>2025-02-11T11:18:22Z</time>
      </trkpt>
      <trkpt lat="47.81213" lon="-2.47617">
        <ele>109.7</ele>
        <time>2025-02-11T11:18:23Z</time>
      </trkpt>
      <trkpt lat="47.81213" lon="-2.47619">
        <ele>109.7</ele>
        <time>2025-02-11T11:18:24Z</time>
      </trkpt>
      <trkpt lat="47.81214" lon="-2.47621">
        <ele>109.7</ele>
        <time>2025-02-11T11:18:25Z</time>
      </trkpt>
      <trkpt lat="47.81214" lon="-2.47623">
        <ele>109.7</ele>
        <time>2025-02-11T11:18:26Z</time>
      </trkpt>
      <trkpt lat="47.81215" lon="-2.47624">
        <ele>109.7</ele>
        <time>2025-02-11T11:18:27Z</time>
      </trkpt>
      <trkpt lat="47.81215" lon="-2.47625">
        <ele>109.8</ele>
        <time>2025-02-11T11:18:28Z</time>
      </trkpt>
      <trkpt lat="47.81216" lon="-2.47626">
        <ele>109.8</ele>
        <time>2025-02-11T11:18:29Z</time>
      </trkpt>
      <trkpt lat="47.81216" lon="-2.47629">
        <ele>109.8</ele>
        <time>2025-02-11T11:18:30Z</time>
      </trkpt>
      <trkpt lat="47.81216" lon="-2.4763">
        <ele>109.8</ele>
        <time>2025-02-11T11:18:31Z</time>
      </trkpt>
      <trkpt lat="47.81216" lon="-2.47632">
        <ele>109.8</ele>
        <time>2025-02-11T11:18:32Z</time>
      </trkpt>
      <trkpt lat="47.81217" lon="-2.47633">
        <ele>109.8</ele>
        <time>2025-02-11T11:18:33Z</time>
      </trkpt>
      <trkpt lat="47.81216" lon="-2.47635">
        <ele>109.8</ele>
        <time>2025-02-11T11:18:34Z</time>
      </trkpt>
      <trkpt lat="47.81216" lon="-2.47637">
        <ele>109.8</ele>
        <time>2025-02-11T11:18:35Z</time>
      </trkpt>
      <trkpt lat="47.81215" lon="-2.47638">
        <ele>109.8</ele>
        <time>2025-02-11T11:18:36Z</time>
      </trkpt>
      <trkpt lat="47.81215" lon="-2.4764">
        <ele>109.8</ele>
        <time>2025-02-11T11:18:37Z</time>
      </trkpt>
      <trkpt lat="47.81215" lon="-2.47642">
        <ele>109.8</ele>
        <time>2025-02-11T11:18:38Z</time>
      </trkpt>
      <trkpt lat="47.81215" lon="-2.47643">
        <ele>109.9</ele>
        <time>2025-02-11T11:18:39Z</time>
      </trkpt>
      <trkpt lat="47.81215" lon="-2.47645">
        <ele>109.9</ele>
        <time>2025-02-11T11:18:40Z</time>
      </trkpt>
      <trkpt lat="47.81214" lon="-2.47646">
        <ele>109.9</ele>
        <time>2025-02-11T11:18:41Z</time>
      </trkpt>
      <trkpt lat="47.81214" lon="-2.47647">
        <ele>109.9</ele>
        <time>2025-02-11T11:18:42Z</time>
      </trkpt>
      <trkpt lat="47.81213" lon="-2.47648">
        <ele>109.9</ele>
        <time>2025-02-11T11:18:43Z</time>
      </trkpt>
      <trkpt lat="47.81212" lon="-2.47649">
        <ele>109.9</ele>
        <time>2025-02-11T11:18:44Z</time>
      </trkpt>
      <trkpt lat="47.81211" lon="-2.4765">
        <ele>109.8</ele>
        <time>2025-02-11T11:18:45Z</time>
      </trkpt>
      <trkpt lat="47.81209" lon="-2.47651">
        <ele>109.8</ele>
        <time>2025-02-11T11:18:46Z</time>
      </trkpt>
      <trkpt lat="47.81208" lon="-2.47652">
        <ele>109.7</ele>
        <time>2025-02-11T11:18:47Z</time>
      </trkpt>
      <trkpt lat="47.81206" lon="-2.47652">
        <ele>109.6</ele>
        <time>2025-02-11T11:18:48Z</time>
      </trkpt>
      <trkpt lat="47.81205" lon="-2.47652">
        <ele>109.6</ele>
        <time>2025-02-11T11:18:49Z</time>
      </trkpt>
      <trkpt lat="47.81204" lon="-2.47652">
        <ele>109.5</ele>
        <time>2025-02-11T11:18:50Z</time>
      </trkpt>
      <trkpt lat="47.81203" lon="-2.47653">
        <ele>109.5</ele>
        <time>2025-02-11T11:18:51Z</time>
      </trkpt>
      <trkpt lat="47.81202" lon="-2.47653">
        <ele>109.4</ele>
        <time>2025-02-11T11:18:52Z</time>
      </trkpt>
      <trkpt lat="47.81201" lon="-2.47655">
        <ele>109.4</ele>
        <time>2025-02-11T11:18:53Z</time>
      </trkpt>
      <trkpt lat="47.81201" lon="-2.47656">
        <ele>109.4</ele>
        <time>2025-02-11T11:18:54Z</time>
      </trkpt>
      <trkpt lat="47.812" lon="-2.47657">
        <ele>109.3</ele>
        <time>2025-02-11T11:18:55Z</time>
      </trkpt>
      <trkpt lat="47.812" lon="-2.47659">
        <ele>109.4</ele>
        <time>2025-02-11T11:18:56Z</time>
      </trkpt>
      <trkpt lat="47.812" lon="-2.47661">
        <ele>109.3</ele>
        <time>2025-02-11T11:18:57Z</time>
      </trkpt>
      <trkpt lat="47.81199" lon="-2.47663">
        <ele>109.3</ele>
        <time>2025-02-11T11:18:58Z</time>
      </trkpt>
      <trkpt lat="47.81199" lon="-2.47665">
        <ele>109.3</ele>
        <time>2025-02-11T11:18:59Z</time>
      </trkpt>
      <trkpt lat="47.81199" lon="-2.47666">
        <ele>109.3</ele>
        <time>2025-02-11T11:19:00Z</time>
      </trkpt>
      <trkpt lat="47.81198" lon="-2.47667">
        <ele>109.3</ele>
        <time>2025-02-11T11:19:01Z</time>
      </trkpt>
      <trkpt lat="47.81197" lon="-2.47669">
        <ele>109.2</ele>
        <time>2025-02-11T11:19:02Z</time>
      </trkpt>
      <trkpt lat="47.81197" lon="-2.4767">
        <ele>109.2</ele>
        <time>2025-02-11T11:19:03Z</time>
      </trkpt>
      <trkpt lat="47.81196" lon="-2.47671">
        <ele>109.1</ele>
        <time>2025-02-11T11:19:04Z</time>
      </trkpt>
      <trkpt lat="47.81196" lon="-2.47672">
        <ele>109.1</ele>
        <time>2025-02-11T11:19:05Z</time>
      </trkpt>
      <trkpt lat="47.81195" lon="-2.47674">
        <ele>109</ele>
        <time>2025-02-11T11:19:06Z</time>
      </trkpt>
      <trkpt lat="47.81194" lon="-2.47675">
        <ele>109</ele>
        <time>2025-02-11T11:19:07Z</time>
      </trkpt>
      <trkpt lat="47.81193" lon="-2.47676">
        <ele>108.9</ele>
        <time>2025-02-11T11:19:08Z</time>
      </trkpt>
      <trkpt lat="47.81193" lon="-2.47678">
        <ele>108.9</ele>
        <time>2025-02-11T11:19:09Z</time>
      </trkpt>
      <trkpt lat="47.81193" lon="-2.4768">
        <ele>108.9</ele>
        <time>2025-02-11T11:19:10Z</time>
      </trkpt>
      <trkpt lat="47.81193" lon="-2.47681">
        <ele>108.9</ele>
        <time>2025-02-11T11:19:11Z</time>
      </trkpt>
      <trkpt lat="47.81193" lon="-2.47683">
        <ele>108.9</ele>
        <time>2025-02-11T11:19:12Z</time>
      </trkpt>
      <trkpt lat="47.81194" lon="-2.47684">
        <ele>109</ele>
        <time>2025-02-11T11:19:13Z</time>
      </trkpt>
      <trkpt lat="47.81194" lon="-2.47686">
        <ele>109</ele>
        <time>2025-02-11T11:19:14Z</time>
      </trkpt>
      <trkpt lat="47.81195" lon="-2.47687">
        <ele>109</ele>
        <time>2025-02-11T11:19:15Z</time>
      </trkpt>
      <trkpt lat="47.81195" lon="-2.47689">
        <ele>109</ele>
        <time>2025-02-11T11:19:16Z</time>
      </trkpt>
      <trkpt lat="47.81195" lon="-2.47691">
        <ele>109</ele>
        <time>2025-02-11T11:19:17Z</time>
      </trkpt>
      <trkpt lat="47.81195" lon="-2.47692">
        <ele>109.1</ele>
        <time>2025-02-11T11:19:18Z</time>
      </trkpt>
      <trkpt lat="47.81196" lon="-2.47693">
        <ele>109.1</ele>
        <time>2025-02-11T11:19:19Z</time>
      </trkpt>
      <trkpt lat="47.81196" lon="-2.47695">
        <ele>109.1</ele>
        <time>2025-02-11T11:19:20Z</time>
      </trkpt>
      <trkpt lat="47.81197" lon="-2.47696">
        <ele>109.2</ele>
        <time>2025-02-11T11:19:21Z</time>
      </trkpt>
      <trkpt lat="47.81198" lon="-2.47697">
        <ele>109.2</ele>
        <time>2025-02-11T11:19:22Z</time>
      </trkpt>
      <trkpt lat="47.81199" lon="-2.47699">
        <ele>109.3</ele>
        <time>2025-02-11T11:19:23Z</time>
      </trkpt>
      <trkpt lat="47.81199" lon="-2.47701">
        <ele>109.3</ele>
        <time>2025-02-11T11:19:24Z</time>
      </trkpt>
      <trkpt lat="47.812" lon="-2.47702">
        <ele>109.4</ele>
        <time>2025-02-11T11:19:25Z</time>
      </trkpt>
      <trkpt lat="47.812" lon="-2.47704">
        <ele>109.4</ele>
        <time>2025-02-11T11:19:26Z</time>
      </trkpt>
      <trkpt lat="47.81201" lon="-2.47704">
        <ele>109.5</ele>
        <time>2025-02-11T11:19:27Z</time>
      </trkpt>
      <trkpt lat="47.81203" lon="-2.47705">
        <ele>109.6</ele>
        <time>2025-02-11T11:19:28Z</time>
      </trkpt>
      <trkpt lat="47.81203" lon="-2.47705">
        <ele>109.6</ele>
        <time>2025-02-11T11:19:29Z</time>
      </trkpt>
      <trkpt lat="47.81204" lon="-2.47704">
        <ele>109.7</ele>
        <time>2025-02-11T11:19:30Z</time>
      </trkpt>
      <trkpt lat="47.81205" lon="-2.47703">
        <ele>109.8</ele>
        <time>2025-02-11T11:19:31Z</time>
      </trkpt>
      <trkpt lat="47.81206" lon="-2.47703">
        <ele>109.9</ele>
        <time>2025-02-11T11:19:32Z</time>
      </trkpt>
      <trkpt lat="47.81207" lon="-2.47704">
        <ele>109.9</ele>
        <time>2025-02-11T11:19:33Z</time>
      </trkpt>
      <trkpt lat="47.81209" lon="-2.47704">
        <ele>110</ele>
        <time>2025-02-11T11:19:34Z</time>
      </trkpt>
      <trkpt lat="47.81209" lon="-2.47706">
        <ele>110.1</ele>
        <time>2025-02-11T11:19:35Z</time>
      </trkpt>
      <trkpt lat="47.81211" lon="-2.47707">
        <ele>110.2</ele>
        <time>2025-02-11T11:19:36Z</time>
      </trkpt>
      <trkpt lat="47.81212" lon="-2.47707">
        <ele>110.2</ele>
        <time>2025-02-11T11:19:37Z</time>
      </trkpt>
      <trkpt lat="47.81213" lon="-2.47706">
        <ele>110.3</ele>
        <time>2025-02-11T11:19:38Z</time>
      </trkpt>
      <trkpt lat="47.81213" lon="-2.47705">
        <ele>110.4</ele>
        <time>2025-02-11T11:19:39Z</time>
      </trkpt>
      <trkpt lat="47.81214" lon="-2.47704">
        <ele>110.4</ele>
        <time>2025-02-11T11:19:40Z</time>
      </trkpt>
      <trkpt lat="47.81215" lon="-2.47703">
        <ele>110.5</ele>
        <time>2025-02-11T11:19:41Z</time>
      </trkpt>
      <trkpt lat="47.81215" lon="-2.47701">
        <ele>110.5</ele>
        <time>2025-02-11T11:19:42Z</time>
      </trkpt>
      <trkpt lat="47.81215" lon="-2.47701">
        <ele>110.5</ele>
        <time>2025-02-11T11:19:43Z</time>
      </trkpt>
      <trkpt lat="47.81215" lon="-2.47701">
        <ele>110.5</ele>
        <time>2025-02-11T11:19:44Z</time>
      </trkpt>
      <trkpt lat="47.81215" lon="-2.47701">
        <ele>110.5</ele>
        <time>2025-02-11T11:19:45Z</time>
      </trkpt>
      <trkpt lat="47.81215" lon="-2.47701">
        <ele>110.5</ele>
        <time>2025-02-11T11:19:46Z</time>
      </trkpt>
      <trkpt lat="47.81215" lon="-2.47701">
        <ele>110.5</ele>
        <time>2025-02-11T11:19:47Z</time>
      </trkpt>
      <trkpt lat="47.81216" lon="-2.47701">
        <ele>110.5</ele>
        <time>2025-02-11T11:19:48Z</time>
      </trkpt>
      <trkpt lat="47.81217" lon="-2.47702">
        <ele>110.6</ele>
        <time>2025-02-11T11:19:49Z</time>
      </trkpt>
      <trkpt lat="47.81218" lon="-2.47701">
        <ele>110.7</ele>
        <time>2025-02-11T11:19:50Z</time>
      </trkpt>
      <trkpt lat="47.8122" lon="-2.47702">
        <ele>110.8</ele>
        <time>2025-02-11T11:19:51Z</time>
      </trkpt>
      <trkpt lat="47.81221" lon="-2.47703">
        <ele>110.9</ele>
        <time>2025-02-11T11:19:52Z</time>
      </trkpt>
      <trkpt lat="47.81221" lon="-2.47706">
        <ele>110.9</ele>
        <time>2025-02-11T11:19:53Z</time>
      </trkpt>
      <trkpt lat="47.81222" lon="-2.47707">
        <ele>111</ele>
        <time>2025-02-11T11:19:54Z</time>
      </trkpt>
      <trkpt lat="47.81222" lon="-2.47709">
        <ele>111</ele>
        <time>2025-02-11T11:19:55Z</time>
      </trkpt>
      <trkpt lat="47.81222" lon="-2.47711">
        <ele>111</ele>
        <time>2025-02-11T11:19:56Z</time>
      </trkpt>
      <trkpt lat="47.81223" lon="-2.47713">
        <ele>111</ele>
        <time>2025-02-11T11:19:57Z</time>
      </trkpt>
      <trkpt lat="47.81222" lon="-2.47715">
        <ele>111</ele>
        <time>2025-02-11T11:19:58Z</time>
      </trkpt>
      <trkpt lat="47.81222" lon="-2.47716">
        <ele>111</ele>
        <time>2025-02-11T11:19:59Z</time>
      </trkpt>
      <trkpt lat="47.81222" lon="-2.47718">
        <ele>111</ele>
        <time>2025-02-11T11:20:00Z</time>
      </trkpt>
      <trkpt lat="47.81222" lon="-2.4772">
        <ele>111</ele>
        <time>2025-02-11T11:20:01Z</time>
      </trkpt>
      <trkpt lat="47.81223" lon="-2.47722">
        <ele>111</ele>
        <time>2025-02-11T11:20:02Z</time>
      </trkpt>
      <trkpt lat="47.81224" lon="-2.47723">
        <ele>111</ele>
        <time>2025-02-11T11:20:03Z</time>
      </trkpt>
      <trkpt lat="47.81224" lon="-2.47725">
        <ele>111</ele>
        <time>2025-02-11T11:20:04Z</time>
      </trkpt>
      <trkpt lat="47.81224" lon="-2.47727">
        <ele>110.9</ele>
        <time>2025-02-11T11:20:05Z</time>
      </trkpt>
      <trkpt lat="47.81224" lon="-2.47728">
        <ele>110.9</ele>
        <time>2025-02-11T11:20:06Z</time>
      </trkpt>
      <trkpt lat="47.81224" lon="-2.4773">
        <ele>110.8</ele>
        <time>2025-02-11T11:20:07Z</time>
      </trkpt>
      <trkpt lat="47.81224" lon="-2.47732">
        <ele>110.7</ele>
        <time>2025-02-11T11:20:08Z</time>
      </trkpt>
      <trkpt lat="47.81225" lon="-2.47734">
        <ele>110.7</ele>
        <time>2025-02-11T11:20:09Z</time>
      </trkpt>
      <trkpt lat="47.81225" lon="-2.47735">
        <ele>110.7</ele>
        <time>2025-02-11T11:20:10Z</time>
      </trkpt>
      <trkpt lat="47.81225" lon="-2.47737">
        <ele>110.6</ele>
        <time>2025-02-11T11:20:11Z</time>
      </trkpt>
      <trkpt lat="47.81225" lon="-2.47738">
        <ele>110.6</ele>
        <time>2025-02-11T11:20:12Z</time>
      </trkpt>
      <trkpt lat="47.81225" lon="-2.4774">
        <ele>110.6</ele>
        <time>2025-02-11T11:20:13Z</time>
      </trkpt>
      <trkpt lat="47.81227" lon="-2.4774">
        <ele>110.6</ele>
        <time>2025-02-11T11:20:14Z</time>
      </trkpt>
      <trkpt lat="47.81227" lon="-2.47742">
        <ele>110.6</ele>
        <time>2025-02-11T11:20:15Z</time>
      </trkpt>
      <trkpt lat="47.81228" lon="-2.47743">
        <ele>110.6</ele>
        <time>2025-02-11T11:20:16Z</time>
      </trkpt>
      <trkpt lat="47.81228" lon="-2.47745">
        <ele>110.6</ele>
        <time>2025-02-11T11:20:17Z</time>
      </trkpt>
      <trkpt lat="47.81229" lon="-2.47747">
        <ele>110.5</ele>
        <time>2025-02-11T11:20:18Z</time>
      </trkpt>
      <trkpt lat="47.8123" lon="-2.47748">
        <ele>110.6</ele>
        <time>2025-02-11T11:20:19Z</time>
      </trkpt>
      <trkpt lat="47.81231" lon="-2.47748">
        <ele>110.6</ele>
        <time>2025-02-11T11:20:20Z</time>
      </trkpt>
      <trkpt lat="47.81231" lon="-2.47748">
        <ele>110.7</ele>
        <time>2025-02-11T11:20:21Z</time>
      </trkpt>
      <trkpt lat="47.81232" lon="-2.47748">
        <ele>110.7</ele>
        <time>2025-02-11T11:20:22Z</time>
      </trkpt>
      <trkpt lat="47.81233" lon="-2.47748">
        <ele>110.8</ele>
        <time>2025-02-11T11:20:23Z</time>
      </trkpt>
      <trkpt lat="47.81233" lon="-2.47748">
        <ele>110.8</ele>
        <time>2025-02-11T11:20:24Z</time>
      </trkpt>
      <trkpt lat="47.81234" lon="-2.47749">
        <ele>110.9</ele>
        <time>2025-02-11T11:20:25Z</time>
      </trkpt>
      <trkpt lat="47.81235" lon="-2.47751">
        <ele>110.9</ele>
        <time>2025-02-11T11:20:26Z</time>
      </trkpt>
      <trkpt lat="47.81234" lon="-2.47753">
        <ele>110.9</ele>
        <time>2025-02-11T11:20:27Z</time>
      </trkpt>
      <trkpt lat="47.81234" lon="-2.47755">
        <ele>110.8</ele>
        <time>2025-02-11T11:20:28Z</time>
      </trkpt>
      <trkpt lat="47.81234" lon="-2.47756">
        <ele>110.8</ele>
        <time>2025-02-11T11:20:29Z</time>
      </trkpt>
      <trkpt lat="47.81233" lon="-2.47757">
        <ele>110.8</ele>
        <time>2025-02-11T11:20:30Z</time>
      </trkpt>
      <trkpt lat="47.81233" lon="-2.47759">
        <ele>110.8</ele>
        <time>2025-02-11T11:20:31Z</time>
      </trkpt>
      <trkpt lat="47.81232" lon="-2.47759">
        <ele>110.7</ele>
        <time>2025-02-11T11:20:32Z</time>
      </trkpt>
      <trkpt lat="47.81231" lon="-2.4776">
        <ele>110.6</ele>
        <time>2025-02-11T11:20:33Z</time>
      </trkpt>
      <trkpt lat="47.8123" lon="-2.47761">
        <ele>110.6</ele>
        <time>2025-02-11T11:20:34Z</time>
      </trkpt>
      <trkpt lat="47.8123" lon="-2.47762">
        <ele>110.6</ele>
        <time>2025-02-11T11:20:35Z</time>
      </trkpt>
      <trkpt lat="47.81231" lon="-2.47764">
        <ele>110.6</ele>
        <time>2025-02-11T11:20:36Z</time>
      </trkpt>
      <trkpt lat="47.81231" lon="-2.47765">
        <ele>110.6</ele>
        <time>2025-02-11T11:20:37Z</time>
      </trkpt>
      <trkpt lat="47.81231" lon="-2.47766">
        <ele>110.6</ele>
        <time>2025-02-11T11:20:38Z</time>
      </trkpt>
      <trkpt lat="47.81232" lon="-2.47767">
        <ele>110.7</ele>
        <time>2025-02-11T11:20:39Z</time>
      </trkpt>
      <trkpt lat="47.81232" lon="-2.47769">
        <ele>110.7</ele>
        <time>2025-02-11T11:20:40Z</time>
      </trkpt>
      <trkpt lat="47.81232" lon="-2.4777">
        <ele>110.7</ele>
        <time>2025-02-11T11:20:41Z</time>
      </trkpt>
      <trkpt lat="47.81233" lon="-2.47771">
        <ele>110.7</ele>
        <time>2025-02-11T11:20:42Z</time>
      </trkpt>
      <trkpt lat="47.81233" lon="-2.47773">
        <ele>110.8</ele>
        <time>2025-02-11T11:20:43Z</time>
      </trkpt>
      <trkpt lat="47.81233" lon="-2.47774">
        <ele>110.8</ele>
        <time>2025-02-11T11:20:44Z</time>
      </trkpt>
      <trkpt lat="47.81233" lon="-2.47775">
        <ele>110.8</ele>
        <time>2025-02-11T11:20:45Z</time>
      </trkpt>
      <trkpt lat="47.81233" lon="-2.47777">
        <ele>110.8</ele>
        <time>2025-02-11T11:20:46Z</time>
      </trkpt>
      <trkpt lat="47.81234" lon="-2.47778">
        <ele>110.8</ele>
        <time>2025-02-11T11:20:47Z</time>
      </trkpt>
      <trkpt lat="47.81234" lon="-2.4778">
        <ele>110.9</ele>
        <time>2025-02-11T11:20:48Z</time>
      </trkpt>
      <trkpt lat="47.81235" lon="-2.47781">
        <ele>110.9</ele>
        <time>2025-02-11T11:20:49Z</time>
      </trkpt>
      <trkpt lat="47.81235" lon="-2.47782">
        <ele>111</ele>
        <time>2025-02-11T11:20:50Z</time>
      </trkpt>
      <trkpt lat="47.81235" lon="-2.47783">
        <ele>111</ele>
        <time>2025-02-11T11:20:51Z</time>
      </trkpt>
      <trkpt lat="47.81235" lon="-2.47784">
        <ele>111</ele>
        <time>2025-02-11T11:20:52Z</time>
      </trkpt>
      <trkpt lat="47.81234" lon="-2.47785">
        <ele>111</ele>
        <time>2025-02-11T11:20:53Z</time>
      </trkpt>
      <trkpt lat="47.81234" lon="-2.47786">
        <ele>111</ele>
        <time>2025-02-11T11:20:54Z</time>
      </trkpt>
      <trkpt lat="47.81233" lon="-2.47787">
        <ele>111</ele>
        <time>2025-02-11T11:20:55Z</time>
      </trkpt>
      <trkpt lat="47.81232" lon="-2.47788">
        <ele>110.9</ele>
        <time>2025-02-11T11:20:56Z</time>
      </trkpt>
      <trkpt lat="47.8123" lon="-2.47788">
        <ele>110.8</ele>
        <time>2025-02-11T11:20:57Z</time>
      </trkpt>
      <trkpt lat="47.8123" lon="-2.47787">
        <ele>110.8</ele>
        <time>2025-02-11T11:20:58Z</time>
      </trkpt>
      <trkpt lat="47.81229" lon="-2.47788">
        <ele>110.8</ele>
        <time>2025-02-11T11:20:59Z</time>
      </trkpt>
      <trkpt lat="47.81229" lon="-2.47788">
        <ele>110.8</ele>
        <time>2025-02-11T11:21:00Z</time>
      </trkpt>
      <trkpt lat="47.81228" lon="-2.47789">
        <ele>110.8</ele>
        <time>2025-02-11T11:21:01Z</time>
      </trkpt>
      <trkpt lat="47.81228" lon="-2.4779">
        <ele>110.8</ele>
        <time>2025-02-11T11:21:02Z</time>
      </trkpt>
      <trkpt lat="47.81227" lon="-2.47791">
        <ele>110.7</ele>
        <time>2025-02-11T11:21:03Z</time>
      </trkpt>
      <trkpt lat="47.81227" lon="-2.47791">
        <ele>110.7</ele>
        <time>2025-02-11T11:21:04Z</time>
      </trkpt>
      <trkpt lat="47.81226" lon="-2.47792">
        <ele>110.7</ele>
        <time>2025-02-11T11:21:05Z</time>
      </trkpt>
      <trkpt lat="47.81226" lon="-2.47792">
        <ele>110.7</ele>
        <time>2025-02-11T11:21:06Z</time>
      </trkpt>
      <trkpt lat="47.81225" lon="-2.47792">
        <ele>110.7</ele>
        <time>2025-02-11T11:21:07Z</time>
      </trkpt>
      <trkpt lat="47.81224" lon="-2.47793">
        <ele>110.6</ele>
        <time>2025-02-11T11:21:08Z</time>
      </trkpt>
      <trkpt lat="47.81223" lon="-2.47793">
        <ele>110.6</ele>
        <time>2025-02-11T11:21:09Z</time>
      </trkpt>
      <trkpt lat="47.81222" lon="-2.47792">
        <ele>110.5</ele>
        <time>2025-02-11T11:21:10Z</time>
      </trkpt>
      <trkpt lat="47.81221" lon="-2.47792">
        <ele>110.5</ele>
        <time>2025-02-11T11:21:11Z</time>
      </trkpt>
      <trkpt lat="47.8122" lon="-2.47794">
        <ele>110.4</ele>
        <time>2025-02-11T11:21:12Z</time>
      </trkpt>
      <trkpt lat="47.81219" lon="-2.47795">
        <ele>110.4</ele>
        <time>2025-02-11T11:21:13Z</time>
      </trkpt>
      <trkpt lat="47.81218" lon="-2.47795">
        <ele>110.3</ele>
        <time>2025-02-11T11:21:14Z</time>
      </trkpt>
      <trkpt lat="47.81216" lon="-2.47795">
        <ele>110.2</ele>
        <time>2025-02-11T11:21:15Z</time>
      </trkpt>
      <trkpt lat="47.81215" lon="-2.47795">
        <ele>110.1</ele>
        <time>2025-02-11T11:21:16Z</time>
      </trkpt>
      <trkpt lat="47.81215" lon="-2.47796">
        <ele>110.1</ele>
        <time>2025-02-11T11:21:17Z</time>
      </trkpt>
      <trkpt lat="47.81215" lon="-2.47798">
        <ele>110</ele>
        <time>2025-02-11T11:21:18Z</time>
      </trkpt>
      <trkpt lat="47.81214" lon="-2.47798">
        <ele>110</ele>
        <time>2025-02-11T11:21:19Z</time>
      </trkpt>
      <trkpt lat="47.81213" lon="-2.47799">
        <ele>109.9</ele>
        <time>2025-02-11T11:21:20Z</time>
      </trkpt>
      <trkpt lat="47.81212" lon="-2.478">
        <ele>109.9</ele>
        <time>2025-02-11T11:21:21Z</time>
      </trkpt>
      <trkpt lat="47.81211" lon="-2.47801">
        <ele>109.8</ele>
        <time>2025-02-11T11:21:22Z</time>
      </trkpt>
      <trkpt lat="47.8121" lon="-2.47802">
        <ele>109.7</ele>
        <time>2025-02-11T11:21:23Z</time>
      </trkpt>
      <trkpt lat="47.81209" lon="-2.47803">
        <ele>109.6</ele>
        <time>2025-02-11T11:21:24Z</time>
      </trkpt>
      <trkpt lat="47.81208" lon="-2.47803">
        <ele>109.4</ele>
        <time>2025-02-11T11:21:25Z</time>
      </trkpt>
      <trkpt lat="47.81206" lon="-2.47804">
        <ele>109.3</ele>
        <time>2025-02-11T11:21:26Z</time>
      </trkpt>
      <trkpt lat="47.81206" lon="-2.47804">
        <ele>109.2</ele>
        <time>2025-02-11T11:21:27Z</time>
      </trkpt>
      <trkpt lat="47.81204" lon="-2.47804">
        <ele>109.1</ele>
        <time>2025-02-11T11:21:28Z</time>
      </trkpt>
      <trkpt lat="47.81203" lon="-2.47805">
        <ele>108.9</ele>
        <time>2025-02-11T11:21:29Z</time>
      </trkpt>
      <trkpt lat="47.81202" lon="-2.47806">
        <ele>108.8</ele>
        <time>2025-02-11T11:21:30Z</time>
      </trkpt>
      <trkpt lat="47.81201" lon="-2.47806">
        <ele>108.7</ele>
        <time>2025-02-11T11:21:31Z</time>
      </trkpt>
      <trkpt lat="47.812" lon="-2.47808">
        <ele>108.7</ele>
        <time>2025-02-11T11:21:32Z</time>
      </trkpt>
      <trkpt lat="47.812" lon="-2.4781">
        <ele>108.7</ele>
        <time>2025-02-11T11:21:33Z</time>
      </trkpt>
      <trkpt lat="47.812" lon="-2.47811">
        <ele>108.7</ele>
        <time>2025-02-11T11:21:34Z</time>
      </trkpt>
      <trkpt lat="47.812" lon="-2.47812">
        <ele>108.8</ele>
        <time>2025-02-11T11:21:35Z</time>
      </trkpt>
      <trkpt lat="47.81201" lon="-2.47814">
        <ele>108.8</ele>
        <time>2025-02-11T11:21:36Z</time>
      </trkpt>
      <trkpt lat="47.81201" lon="-2.47815">
        <ele>108.9</ele>
        <time>2025-02-11T11:21:37Z</time>
      </trkpt>
      <trkpt lat="47.81201" lon="-2.47817">
        <ele>109</ele>
        <time>2025-02-11T11:21:38Z</time>
      </trkpt>
      <trkpt lat="47.81202" lon="-2.47819">
        <ele>109</ele>
        <time>2025-02-11T11:21:39Z</time>
      </trkpt>
      <trkpt lat="47.81203" lon="-2.4782">
        <ele>109.1</ele>
        <time>2025-02-11T11:21:40Z</time>
      </trkpt>
      <trkpt lat="47.81203" lon="-2.47822">
        <ele>109.2</ele>
        <time>2025-02-11T11:21:41Z</time>
      </trkpt>
      <trkpt lat="47.81204" lon="-2.47823">
        <ele>109.2</ele>
        <time>2025-02-11T11:21:42Z</time>
      </trkpt>
      <trkpt lat="47.81204" lon="-2.47825">
        <ele>109.2</ele>
        <time>2025-02-11T11:21:43Z</time>
      </trkpt>
      <trkpt lat="47.81203" lon="-2.47827">
        <ele>109.2</ele>
        <time>2025-02-11T11:21:44Z</time>
      </trkpt>
      <trkpt lat="47.81204" lon="-2.47829">
        <ele>109.3</ele>
        <time>2025-02-11T11:21:45Z</time>
      </trkpt>
      <trkpt lat="47.81204" lon="-2.47831">
        <ele>109.3</ele>
        <time>2025-02-11T11:21:46Z</time>
      </trkpt>
      <trkpt lat="47.81204" lon="-2.47832">
        <ele>109.3</ele>
        <time>2025-02-11T11:21:47Z</time>
      </trkpt>
      <trkpt lat="47.81205" lon="-2.47834">
        <ele>109.4</ele>
        <time>2025-02-11T11:21:48Z</time>
      </trkpt>
      <trkpt lat="47.81205" lon="-2.47836">
        <ele>109.3</ele>
        <time>2025-02-11T11:21:49Z</time>
      </trkpt>
      <trkpt lat="47.81205" lon="-2.47838">
        <ele>109.3</ele>
        <time>2025-02-11T11:21:50Z</time>
      </trkpt>
      <trkpt lat="47.81206" lon="-2.47839">
        <ele>109.3</ele>
        <time>2025-02-11T11:21:51Z</time>
      </trkpt>
      <trkpt lat="47.81207" lon="-2.47841">
        <ele>109.3</ele>
        <time>2025-02-11T11:21:52Z</time>
      </trkpt>
      <trkpt lat="47.81207" lon="-2.47842">
        <ele>109.3</ele>
        <time>2025-02-11T11:21:53Z</time>
      </trkpt>
      <trkpt lat="47.81208" lon="-2.47844">
        <ele>109.3</ele>
        <time>2025-02-11T11:21:54Z</time>
      </trkpt>
      <trkpt lat="47.81209" lon="-2.47845">
        <ele>109.3</ele>
        <time>2025-02-11T11:21:55Z</time>
      </trkpt>
      <trkpt lat="47.81209" lon="-2.47846">
        <ele>109.3</ele>
        <time>2025-02-11T11:21:56Z</time>
      </trkpt>
      <trkpt lat="47.81209" lon="-2.47849">
        <ele>109.3</ele>
        <time>2025-02-11T11:21:57Z</time>
      </trkpt>
      <trkpt lat="47.81209" lon="-2.47851">
        <ele>109.2</ele>
        <time>2025-02-11T11:21:58Z</time>
      </trkpt>
      <trkpt lat="47.81208" lon="-2.47853">
        <ele>109.1</ele>
        <time>2025-02-11T11:21:59Z</time>
      </trkpt>
      <trkpt lat="47.81207" lon="-2.47854">
        <ele>109</ele>
        <time>2025-02-11T11:22:00Z</time>
      </trkpt>
      <trkpt lat="47.81205" lon="-2.47855">
        <ele>108.9</ele>
        <time>2025-02-11T11:22:01Z</time>
      </trkpt>
      <trkpt lat="47.81205" lon="-2.47857">
        <ele>108.8</ele>
        <time>2025-02-11T11:22:02Z</time>
      </trkpt>
      <trkpt lat="47.81204" lon="-2.47857">
        <ele>108.8</ele>
        <time>2025-02-11T11:22:03Z</time>
      </trkpt>
      <trkpt lat="47.81203" lon="-2.47858">
        <ele>108.7</ele>
        <time>2025-02-11T11:22:04Z</time>
      </trkpt>
      <trkpt lat="47.81202" lon="-2.47859">
        <ele>108.6</ele>
        <time>2025-02-11T11:22:05Z</time>
      </trkpt>
      <trkpt lat="47.81201" lon="-2.47861">
        <ele>108.5</ele>
        <time>2025-02-11T11:22:06Z</time>
      </trkpt>
      <trkpt lat="47.812" lon="-2.47862">
        <ele>108.4</ele>
        <time>2025-02-11T11:22:07Z</time>
      </trkpt>
      <trkpt lat="47.812" lon="-2.47863">
        <ele>108.4</ele>
        <time>2025-02-11T11:22:08Z</time>
      </trkpt>
      <trkpt lat="47.81199" lon="-2.47865">
        <ele>108.3</ele>
        <time>2025-02-11T11:22:09Z</time>
      </trkpt>
      <trkpt lat="47.81198" lon="-2.47866">
        <ele>108.3</ele>
        <time>2025-02-11T11:22:10Z</time>
      </trkpt>
      <trkpt lat="47.81198" lon="-2.47868">
        <ele>108.2</ele>
        <time>2025-02-11T11:22:11Z</time>
      </trkpt>
      <trkpt lat="47.81197" lon="-2.47869">
        <ele>108.2</ele>
        <time>2025-02-11T11:22:12Z</time>
      </trkpt>
      <trkpt lat="47.81196" lon="-2.47871">
        <ele>108.1</ele>
        <time>2025-02-11T11:22:13Z</time>
      </trkpt>
      <trkpt lat="47.81196" lon="-2.47873">
        <ele>108.1</ele>
        <time>2025-02-11T11:22:14Z</time>
      </trkpt>
      <trkpt lat="47.81196" lon="-2.47874">
        <ele>108.1</ele>
        <time>2025-02-11T11:22:15Z</time>
      </trkpt>
      <trkpt lat="47.81196" lon="-2.47876">
        <ele>108.1</ele>
        <time>2025-02-11T11:22:16Z</time>
      </trkpt>
      <trkpt lat="47.81196" lon="-2.47878">
        <ele>108.1</ele>
        <time>2025-02-11T11:22:17Z</time>
      </trkpt>
      <trkpt lat="47.81195" lon="-2.47879">
        <ele>108.1</ele>
        <time>2025-02-11T11:22:18Z</time>
      </trkpt>
      <trkpt lat="47.81196" lon="-2.4788">
        <ele>108.1</ele>
        <time>2025-02-11T11:22:19Z</time>
      </trkpt>
      <trkpt lat="47.81196" lon="-2.47882">
        <ele>108.1</ele>
        <time>2025-02-11T11:22:20Z</time>
      </trkpt>
      <trkpt lat="47.81197" lon="-2.47883">
        <ele>108.2</ele>
        <time>2025-02-11T11:22:21Z</time>
      </trkpt>
      <trkpt lat="47.81197" lon="-2.47885">
        <ele>108.2</ele>
        <time>2025-02-11T11:22:22Z</time>
      </trkpt>
      <trkpt lat="47.81198" lon="-2.47887">
        <ele>108.2</ele>
        <time>2025-02-11T11:22:23Z</time>
      </trkpt>
      <trkpt lat="47.81199" lon="-2.47888">
        <ele>108.3</ele>
        <time>2025-02-11T11:22:24Z</time>
      </trkpt>
      <trkpt lat="47.81199" lon="-2.4789">
        <ele>108.3</ele>
        <time>2025-02-11T11:22:25Z</time>
      </trkpt>
      <trkpt lat="47.81199" lon="-2.47892">
        <ele>108.2</ele>
        <time>2025-02-11T11:22:26Z</time>
      </trkpt>
      <trkpt lat="47.812" lon="-2.47894">
        <ele>108.2</ele>
        <time>2025-02-11T11:22:27Z</time>
      </trkpt>
      <trkpt lat="47.81199" lon="-2.47896">
        <ele>108.1</ele>
        <time>2025-02-11T11:22:28Z</time>
      </trkpt>
      <trkpt lat="47.81199" lon="-2.47897">
        <ele>108.1</ele>
        <time>2025-02-11T11:22:29Z</time>
      </trkpt>
      <trkpt lat="47.81199" lon="-2.47899">
        <ele>108</ele>
        <time>2025-02-11T11:22:30Z</time>
      </trkpt>
      <trkpt lat="47.81199" lon="-2.479">
        <ele>108</ele>
        <time>2025-02-11T11:22:31Z</time>
      </trkpt>
      <trkpt lat="47.812" lon="-2.47902">
        <ele>108</ele>
        <time>2025-02-11T11:22:32Z</time>
      </trkpt>
      <trkpt lat="47.812" lon="-2.47903">
        <ele>108</ele>
        <time>2025-02-11T11:22:33Z</time>
      </trkpt>
      <trkpt lat="47.812" lon="-2.47904">
        <ele>108</ele>
        <time>2025-02-11T11:22:34Z</time>
      </trkpt>
      <trkpt lat="47.81201" lon="-2.47906">
        <ele>108</ele>
        <time>2025-02-11T11:22:35Z</time>
      </trkpt>
      <trkpt lat="47.81201" lon="-2.47908">
        <ele>108</ele>
        <time>2025-02-11T11:22:36Z</time>
      </trkpt>
      <trkpt lat="47.81201" lon="-2.4791">
        <ele>107.9</ele>
        <time>2025-02-11T11:22:37Z</time>
      </trkpt>
      <trkpt lat="47.81201" lon="-2.47911">
        <ele>107.8</ele>
        <time>2025-02-11T11:22:38Z</time>
      </trkpt>
      <trkpt lat="47.81201" lon="-2.47913">
        <ele>107.8</ele>
        <time>2025-02-11T11:22:39Z</time>
      </trkpt>
      <trkpt lat="47.81201" lon="-2.47915">
        <ele>107.8</ele>
        <time>2025-02-11T11:22:40Z</time>
      </trkpt>
      <trkpt lat="47.81201" lon="-2.47916">
        <ele>107.7</ele>
        <time>2025-02-11T11:22:41Z</time>
      </trkpt>
      <trkpt lat="47.81201" lon="-2.47918">
        <ele>107.7</ele>
        <time>2025-02-11T11:22:42Z</time>
      </trkpt>
      <trkpt lat="47.81202" lon="-2.4792">
        <ele>107.7</ele>
        <time>2025-02-11T11:22:43Z</time>
      </trkpt>
      <trkpt lat="47.81201" lon="-2.47922">
        <ele>107.6</ele>
        <time>2025-02-11T11:22:44Z</time>
      </trkpt>
      <trkpt lat="47.81202" lon="-2.47923">
        <ele>107.5</ele>
        <time>2025-02-11T11:22:45Z</time>
      </trkpt>
      <trkpt lat="47.81202" lon="-2.47925">
        <ele>107.5</ele>
        <time>2025-02-11T11:22:46Z</time>
      </trkpt>
      <trkpt lat="47.81203" lon="-2.47927">
        <ele>107.5</ele>
        <time>2025-02-11T11:22:47Z</time>
      </trkpt>
      <trkpt lat="47.81203" lon="-2.47928">
        <ele>107.5</ele>
        <time>2025-02-11T11:22:48Z</time>
      </trkpt>
      <trkpt lat="47.81203" lon="-2.4793">
        <ele>107.4</ele>
        <time>2025-02-11T11:22:49Z</time>
      </trkpt>
      <trkpt lat="47.81203" lon="-2.47932">
        <ele>107.4</ele>
        <time>2025-02-11T11:22:50Z</time>
      </trkpt>
      <trkpt lat="47.81202" lon="-2.47933">
        <ele>107.2</ele>
        <time>2025-02-11T11:22:51Z</time>
      </trkpt>
      <trkpt lat="47.81202" lon="-2.47935">
        <ele>107.1</ele>
        <time>2025-02-11T11:22:52Z</time>
      </trkpt>
      <trkpt lat="47.81201" lon="-2.47936">
        <ele>107</ele>
        <time>2025-02-11T11:22:53Z</time>
      </trkpt>
      <trkpt lat="47.81201" lon="-2.47938">
        <ele>107</ele>
        <time>2025-02-11T11:22:54Z</time>
      </trkpt>
      <trkpt lat="47.81201" lon="-2.4794">
        <ele>106.9</ele>
        <time>2025-02-11T11:22:55Z</time>
      </trkpt>
      <trkpt lat="47.81201" lon="-2.47941">
        <ele>106.8</ele>
        <time>2025-02-11T11:22:56Z</time>
      </trkpt>
      <trkpt lat="47.812" lon="-2.47943">
        <ele>106.7</ele>
        <time>2025-02-11T11:22:57Z</time>
      </trkpt>
      <trkpt lat="47.812" lon="-2.47945">
        <ele>106.6</ele>
        <time>2025-02-11T11:22:58Z</time>
      </trkpt>
      <trkpt lat="47.812" lon="-2.47947">
        <ele>106.6</ele>
        <time>2025-02-11T11:22:59Z</time>
      </trkpt>
      <trkpt lat="47.81199" lon="-2.47948">
        <ele>106.5</ele>
        <time>2025-02-11T11:23:00Z</time>
      </trkpt>
      <trkpt lat="47.81199" lon="-2.47949">
        <ele>106.5</ele>
        <time>2025-02-11T11:23:01Z</time>
      </trkpt>
      <trkpt lat="47.81199" lon="-2.47951">
        <ele>106.4</ele>
        <time>2025-02-11T11:23:02Z</time>
      </trkpt>
      <trkpt lat="47.81199" lon="-2.47954">
        <ele>106.4</ele>
        <time>2025-02-11T11:23:03Z</time>
      </trkpt>
      <trkpt lat="47.81199" lon="-2.47956">
        <ele>106.4</ele>
        <time>2025-02-11T11:23:04Z</time>
      </trkpt>
      <trkpt lat="47.812" lon="-2.47958">
        <ele>106.5</ele>
        <time>2025-02-11T11:23:05Z</time>
      </trkpt>
      <trkpt lat="47.81201" lon="-2.47959">
        <ele>106.6</ele>
        <time>2025-02-11T11:23:06Z</time>
      </trkpt>
      <trkpt lat="47.81201" lon="-2.47961">
        <ele>106.6</ele>
        <time>2025-02-11T11:23:07Z</time>
      </trkpt>
      <trkpt lat="47.81201" lon="-2.47963">
        <ele>106.6</ele>
        <time>2025-02-11T11:23:08Z</time>
      </trkpt>
      <trkpt lat="47.81201" lon="-2.47964">
        <ele>106.5</ele>
        <time>2025-02-11T11:23:09Z</time>
      </trkpt>
      <trkpt lat="47.81201" lon="-2.47966">
        <ele>106.5</ele>
        <time>2025-02-11T11:23:10Z</time>
      </trkpt>
      <trkpt lat="47.812" lon="-2.47967">
        <ele>106.5</ele>
        <time>2025-02-11T11:23:11Z</time>
      </trkpt>
      <trkpt lat="47.81199" lon="-2.47969">
        <ele>106.4</ele>
        <time>2025-02-11T11:23:12Z</time>
      </trkpt>
      <trkpt lat="47.81199" lon="-2.4797">
        <ele>106.3</ele>
        <time>2025-02-11T11:23:13Z</time>
      </trkpt>
      <trkpt lat="47.81199" lon="-2.47972">
        <ele>106.3</ele>
        <time>2025-02-11T11:23:14Z</time>
      </trkpt>
      <trkpt lat="47.81199" lon="-2.47974">
        <ele>106.2</ele>
        <time>2025-02-11T11:23:15Z</time>
      </trkpt>
      <trkpt lat="47.81199" lon="-2.47976">
        <ele>106.2</ele>
        <time>2025-02-11T11:23:16Z</time>
      </trkpt>
      <trkpt lat="47.81199" lon="-2.47978">
        <ele>106.1</ele>
        <time>2025-02-11T11:23:17Z</time>
      </trkpt>
      <trkpt lat="47.81199" lon="-2.4798">
        <ele>106.1</ele>
        <time>2025-02-11T11:23:18Z</time>
      </trkpt>
      <trkpt lat="47.812" lon="-2.47981">
        <ele>106</ele>
        <time>2025-02-11T11:23:19Z</time>
      </trkpt>
      <trkpt lat="47.812" lon="-2.47983">
        <ele>106</ele>
        <time>2025-02-11T11:23:20Z</time>
      </trkpt>
      <trkpt lat="47.812" lon="-2.47984">
        <ele>106</ele>
        <time>2025-02-11T11:23:21Z</time>
      </trkpt>
      <trkpt lat="47.812" lon="-2.47986">
        <ele>105.9</ele>
        <time>2025-02-11T11:23:22Z</time>
      </trkpt>
      <trkpt lat="47.81201" lon="-2.47988">
        <ele>105.9</ele>
        <time>2025-02-11T11:23:23Z</time>
      </trkpt>
      <trkpt lat="47.81201" lon="-2.4799">
        <ele>105.8</ele>
        <time>2025-02-11T11:23:24Z</time>
      </trkpt>
      <trkpt lat="47.81201" lon="-2.47992">
        <ele>105.8</ele>
        <time>2025-02-11T11:23:25Z</time>
      </trkpt>
      <trkpt lat="47.81201" lon="-2.47993">
        <ele>105.7</ele>
        <time>2025-02-11T11:23:26Z</time>
      </trkpt>
      <trkpt lat="47.81201" lon="-2.47995">
        <ele>105.7</ele>
        <time>2025-02-11T11:23:27Z</time>
      </trkpt>
      <trkpt lat="47.81201" lon="-2.47997">
        <ele>105.6</ele>
        <time>2025-02-11T11:23:28Z</time>
      </trkpt>
      <trkpt lat="47.81201" lon="-2.47998">
        <ele>105.6</ele>
        <time>2025-02-11T11:23:29Z</time>
      </trkpt>
      <trkpt lat="47.81201" lon="-2.48">
        <ele>105.5</ele>
        <time>2025-02-11T11:23:30Z</time>
      </trkpt>
      <trkpt lat="47.81201" lon="-2.48002">
        <ele>105.4</ele>
        <time>2025-02-11T11:23:31Z</time>
      </trkpt>
      <trkpt lat="47.81201" lon="-2.48004">
        <ele>105.4</ele>
        <time>2025-02-11T11:23:32Z</time>
      </trkpt>
      <trkpt lat="47.81201" lon="-2.48005">
        <ele>105.3</ele>
        <time>2025-02-11T11:23:33Z</time>
      </trkpt>
      <trkpt lat="47.81201" lon="-2.48007">
        <ele>105.2</ele>
        <time>2025-02-11T11:23:34Z</time>
      </trkpt>
      <trkpt lat="47.81201" lon="-2.48008">
        <ele>105.2</ele>
        <time>2025-02-11T11:23:35Z</time>
      </trkpt>
      <trkpt lat="47.812" lon="-2.48009">
        <ele>105.1</ele>
        <time>2025-02-11T11:23:36Z</time>
      </trkpt>
      <trkpt lat="47.812" lon="-2.48011">
        <ele>105</ele>
        <time>2025-02-11T11:23:37Z</time>
      </trkpt>
      <trkpt lat="47.81199" lon="-2.48012">
        <ele>104.9</ele>
        <time>2025-02-11T11:23:38Z</time>
      </trkpt>
      <trkpt lat="47.81199" lon="-2.48014">
        <ele>104.8</ele>
        <time>2025-02-11T11:23:39Z</time>
      </trkpt>
      <trkpt lat="47.81199" lon="-2.48016">
        <ele>104.7</ele>
        <time>2025-02-11T11:23:40Z</time>
      </trkpt>
      <trkpt lat="47.81199" lon="-2.48018">
        <ele>104.7</ele>
        <time>2025-02-11T11:23:41Z</time>
      </trkpt>
      <trkpt lat="47.812" lon="-2.4802">
        <ele>104.7</ele>
        <time>2025-02-11T11:23:42Z</time>
      </trkpt>
      <trkpt lat="47.812" lon="-2.48021">
        <ele>104.6</ele>
        <time>2025-02-11T11:23:43Z</time>
      </trkpt>
      <trkpt lat="47.812" lon="-2.48023">
        <ele>104.6</ele>
        <time>2025-02-11T11:23:44Z</time>
      </trkpt>
      <trkpt lat="47.812" lon="-2.48025">
        <ele>104.5</ele>
        <time>2025-02-11T11:23:45Z</time>
      </trkpt>
      <trkpt lat="47.812" lon="-2.48026">
        <ele>104.5</ele>
        <time>2025-02-11T11:23:46Z</time>
      </trkpt>
      <trkpt lat="47.812" lon="-2.48028">
        <ele>104.4</ele>
        <time>2025-02-11T11:23:47Z</time>
      </trkpt>
      <trkpt lat="47.81201" lon="-2.48029">
        <ele>104.4</ele>
        <time>2025-02-11T11:23:48Z</time>
      </trkpt>
      <trkpt lat="47.81202" lon="-2.4803">
        <ele>104.4</ele>
        <time>2025-02-11T11:23:49Z</time>
      </trkpt>
      <trkpt lat="47.81202" lon="-2.48032">
        <ele>104.4</ele>
        <time>2025-02-11T11:23:50Z</time>
      </trkpt>
      <trkpt lat="47.81202" lon="-2.48033">
        <ele>104.4</ele>
        <time>2025-02-11T11:23:51Z</time>
      </trkpt>
      <trkpt lat="47.81203" lon="-2.48034">
        <ele>104.4</ele>
        <time>2025-02-11T11:23:52Z</time>
      </trkpt>
      <trkpt lat="47.81204" lon="-2.48035">
        <ele>104.4</ele>
        <time>2025-02-11T11:23:53Z</time>
      </trkpt>
      <trkpt lat="47.81204" lon="-2.48037">
        <ele>104.3</ele>
        <time>2025-02-11T11:23:54Z</time>
      </trkpt>
      <trkpt lat="47.81204" lon="-2.48039">
        <ele>104.3</ele>
        <time>2025-02-11T11:23:55Z</time>
      </trkpt>
      <trkpt lat="47.81204" lon="-2.48041">
        <ele>104.2</ele>
        <time>2025-02-11T11:23:56Z</time>
      </trkpt>
      <trkpt lat="47.81203" lon="-2.48042">
        <ele>104.1</ele>
        <time>2025-02-11T11:23:57Z</time>
      </trkpt>
      <trkpt lat="47.81203" lon="-2.48044">
        <ele>104</ele>
        <time>2025-02-11T11:23:58Z</time>
      </trkpt>
      <trkpt lat="47.81202" lon="-2.48045">
        <ele>103.9</ele>
        <time>2025-02-11T11:23:59Z</time>
      </trkpt>
      <trkpt lat="47.81201" lon="-2.48046">
        <ele>103.8</ele>
        <time>2025-02-11T11:24:00Z</time>
      </trkpt>
      <trkpt lat="47.81201" lon="-2.48048">
        <ele>103.7</ele>
        <time>2025-02-11T11:24:01Z</time>
      </trkpt>
      <trkpt lat="47.812" lon="-2.4805">
        <ele>103.6</ele>
        <time>2025-02-11T11:24:02Z</time>
      </trkpt>
      <trkpt lat="47.812" lon="-2.48052">
        <ele>103.5</ele>
        <time>2025-02-11T11:24:03Z</time>
      </trkpt>
      <trkpt lat="47.812" lon="-2.48054">
        <ele>103.4</ele>
        <time>2025-02-11T11:24:04Z</time>
      </trkpt>
      <trkpt lat="47.81199" lon="-2.48055">
        <ele>103.4</ele>
        <time>2025-02-11T11:24:05Z</time>
      </trkpt>
      <trkpt lat="47.81199" lon="-2.48057">
        <ele>103.3</ele>
        <time>2025-02-11T11:24:06Z</time>
      </trkpt>
      <trkpt lat="47.81199" lon="-2.48059">
        <ele>103.2</ele>
        <time>2025-02-11T11:24:07Z</time>
      </trkpt>
      <trkpt lat="47.81198" lon="-2.48061">
        <ele>103.1</ele>
        <time>2025-02-11T11:24:08Z</time>
      </trkpt>
      <trkpt lat="47.81198" lon="-2.48062">
        <ele>103</ele>
        <time>2025-02-11T11:24:09Z</time>
      </trkpt>
      <trkpt lat="47.81198" lon="-2.48064">
        <ele>102.9</ele>
        <time>2025-02-11T11:24:10Z</time>
      </trkpt>
      <trkpt lat="47.81198" lon="-2.48066">
        <ele>102.8</ele>
        <time>2025-02-11T11:24:11Z</time>
      </trkpt>
      <trkpt lat="47.81197" lon="-2.48068">
        <ele>102.8</ele>
        <time>2025-02-11T11:24:12Z</time>
      </trkpt>
      <trkpt lat="47.81198" lon="-2.48069">
        <ele>102.7</ele>
        <time>2025-02-11T11:24:13Z</time>
      </trkpt>
      <trkpt lat="47.81198" lon="-2.48071">
        <ele>102.7</ele>
        <time>2025-02-11T11:24:14Z</time>
      </trkpt>
      <trkpt lat="47.81198" lon="-2.48073">
        <ele>102.6</ele>
        <time>2025-02-11T11:24:15Z</time>
      </trkpt>
      <trkpt lat="47.81198" lon="-2.48075">
        <ele>102.6</ele>
        <time>2025-02-11T11:24:16Z</time>
      </trkpt>
      <trkpt lat="47.81198" lon="-2.48077">
        <ele>102.5</ele>
        <time>2025-02-11T11:24:17Z</time>
      </trkpt>
      <trkpt lat="47.81198" lon="-2.48078">
        <ele>102.4</ele>
        <time>2025-02-11T11:24:18Z</time>
      </trkpt>
      <trkpt lat="47.81198" lon="-2.4808">
        <ele>102.4</ele>
        <time>2025-02-11T11:24:19Z</time>
      </trkpt>
      <trkpt lat="47.81199" lon="-2.48082">
        <ele>102.3</ele>
        <time>2025-02-11T11:24:20Z</time>
      </trkpt>
      <trkpt lat="47.81198" lon="-2.48084">
        <ele>102.3</ele>
        <time>2025-02-11T11:24:21Z</time>
      </trkpt>
      <trkpt lat="47.81198" lon="-2.48085">
        <ele>102.2</ele>
        <time>2025-02-11T11:24:22Z</time>
      </trkpt>
      <trkpt lat="47.81198" lon="-2.48087">
        <ele>102.1</ele>
        <time>2025-02-11T11:24:23Z</time>
      </trkpt>
      <trkpt lat="47.81198" lon="-2.48089">
        <ele>102</ele>
        <time>2025-02-11T11:24:24Z</time>
      </trkpt>
      <trkpt lat="47.81198" lon="-2.48091">
        <ele>102</ele>
        <time>2025-02-11T11:24:25Z</time>
      </trkpt>
      <trkpt lat="47.81197" lon="-2.48092">
        <ele>101.9</ele>
        <time>2025-02-11T11:24:26Z</time>
      </trkpt>
      <trkpt lat="47.81197" lon="-2.48094">
        <ele>101.8</ele>
        <time>2025-02-11T11:24:27Z</time>
      </trkpt>
      <trkpt lat="47.81196" lon="-2.48095">
        <ele>101.7</ele>
        <time>2025-02-11T11:24:28Z</time>
      </trkpt>
      <trkpt lat="47.81196" lon="-2.48098">
        <ele>101.6</ele>
        <time>2025-02-11T11:24:29Z</time>
      </trkpt>
      <trkpt lat="47.81196" lon="-2.48099">
        <ele>101.5</ele>
        <time>2025-02-11T11:24:30Z</time>
      </trkpt>
      <trkpt lat="47.81196" lon="-2.48101">
        <ele>101.5</ele>
        <time>2025-02-11T11:24:31Z</time>
      </trkpt>
      <trkpt lat="47.81195" lon="-2.48103">
        <ele>101.4</ele>
        <time>2025-02-11T11:24:32Z</time>
      </trkpt>
      <trkpt lat="47.81195" lon="-2.48104">
        <ele>101.3</ele>
        <time>2025-02-11T11:24:33Z</time>
      </trkpt>
      <trkpt lat="47.81194" lon="-2.48105">
        <ele>101.2</ele>
        <time>2025-02-11T11:24:34Z</time>
      </trkpt>
      <trkpt lat="47.81194" lon="-2.48108">
        <ele>101.1</ele>
        <time>2025-02-11T11:24:35Z</time>
      </trkpt>
      <trkpt lat="47.81194" lon="-2.48109">
        <ele>101</ele>
        <time>2025-02-11T11:24:36Z</time>
      </trkpt>
      <trkpt lat="47.81194" lon="-2.48111">
        <ele>101</ele>
        <time>2025-02-11T11:24:37Z</time>
      </trkpt>
      <trkpt lat="47.81194" lon="-2.48113">
        <ele>100.9</ele>
        <time>2025-02-11T11:24:38Z</time>
      </trkpt>
      <trkpt lat="47.81195" lon="-2.48114">
        <ele>100.9</ele>
        <time>2025-02-11T11:24:39Z</time>
      </trkpt>
      <trkpt lat="47.81195" lon="-2.48116">
        <ele>100.8</ele>
        <time>2025-02-11T11:24:40Z</time>
      </trkpt>
      <trkpt lat="47.81195" lon="-2.48118">
        <ele>100.8</ele>
        <time>2025-02-11T11:24:41Z</time>
      </trkpt>
      <trkpt lat="47.81194" lon="-2.48119">
        <ele>100.7</ele>
        <time>2025-02-11T11:24:42Z</time>
      </trkpt>
      <trkpt lat="47.81194" lon="-2.48121">
        <ele>100.6</ele>
        <time>2025-02-11T11:24:43Z</time>
      </trkpt>
      <trkpt lat="47.81194" lon="-2.48122">
        <ele>100.6</ele>
        <time>2025-02-11T11:24:44Z</time>
      </trkpt>
      <trkpt lat="47.81194" lon="-2.48124">
        <ele>100.5</ele>
        <time>2025-02-11T11:24:45Z</time>
      </trkpt>
      <trkpt lat="47.81194" lon="-2.48125">
        <ele>100.4</ele>
        <time>2025-02-11T11:24:46Z</time>
      </trkpt>
      <trkpt lat="47.81193" lon="-2.48126">
        <ele>100.3</ele>
        <time>2025-02-11T11:24:47Z</time>
      </trkpt>
      <trkpt lat="47.81193" lon="-2.48128">
        <ele>100.3</ele>
        <time>2025-02-11T11:24:48Z</time>
      </trkpt>
      <trkpt lat="47.81193" lon="-2.4813">
        <ele>100.2</ele>
        <time>2025-02-11T11:24:49Z</time>
      </trkpt>
      <trkpt lat="47.81192" lon="-2.48131">
        <ele>100</ele>
        <time>2025-02-11T11:24:50Z</time>
      </trkpt>
      <trkpt lat="47.81192" lon="-2.48133">
        <ele>99.9</ele>
        <time>2025-02-11T11:24:51Z</time>
      </trkpt>
      <trkpt lat="47.81191" lon="-2.48135">
        <ele>99.8</ele>
        <time>2025-02-11T11:24:52Z</time>
      </trkpt>
      <trkpt lat="47.81191" lon="-2.48136">
        <ele>99.7</ele>
        <time>2025-02-11T11:24:53Z</time>
      </trkpt>
      <trkpt lat="47.81191" lon="-2.48138">
        <ele>99.7</ele>
        <time>2025-02-11T11:24:54Z</time>
      </trkpt>
      <trkpt lat="47.81192" lon="-2.48139">
        <ele>99.7</ele>
        <time>2025-02-11T11:24:55Z</time>
      </trkpt>
      <trkpt lat="47.81193" lon="-2.48141">
        <ele>99.7</ele>
        <time>2025-02-11T11:24:56Z</time>
      </trkpt>
      <trkpt lat="47.81194" lon="-2.48142">
        <ele>99.8</ele>
        <time>2025-02-11T11:24:57Z</time>
      </trkpt>
      <trkpt lat="47.81194" lon="-2.48143">
        <ele>99.8</ele>
        <time>2025-02-11T11:24:58Z</time>
      </trkpt>
      <trkpt lat="47.81195" lon="-2.48145">
        <ele>99.8</ele>
        <time>2025-02-11T11:24:59Z</time>
      </trkpt>
      <trkpt lat="47.81195" lon="-2.48146">
        <ele>99.7</ele>
        <time>2025-02-11T11:25:00Z</time>
      </trkpt>
      <trkpt lat="47.81196" lon="-2.48147">
        <ele>99.7</ele>
        <time>2025-02-11T11:25:01Z</time>
      </trkpt>
      <trkpt lat="47.81196" lon="-2.48149">
        <ele>99.7</ele>
        <time>2025-02-11T11:25:02Z</time>
      </trkpt>
      <trkpt lat="47.81197" lon="-2.4815">
        <ele>99.7</ele>
        <time>2025-02-11T11:25:03Z</time>
      </trkpt>
      <trkpt lat="47.81198" lon="-2.48151">
        <ele>99.7</ele>
        <time>2025-02-11T11:25:04Z</time>
      </trkpt>
      <trkpt lat="47.81198" lon="-2.48153">
        <ele>99.6</ele>
        <time>2025-02-11T11:25:05Z</time>
      </trkpt>
      <trkpt lat="47.81199" lon="-2.48154">
        <ele>99.6</ele>
        <time>2025-02-11T11:25:06Z</time>
      </trkpt>
      <trkpt lat="47.812" lon="-2.48156">
        <ele>99.6</ele>
        <time>2025-02-11T11:25:07Z</time>
      </trkpt>
      <trkpt lat="47.812" lon="-2.48157">
        <ele>99.6</ele>
        <time>2025-02-11T11:25:08Z</time>
      </trkpt>
      <trkpt lat="47.81201" lon="-2.48158">
        <ele>99.6</ele>
        <time>2025-02-11T11:25:09Z</time>
      </trkpt>
      <trkpt lat="47.81202" lon="-2.48159">
        <ele>99.5</ele>
        <time>2025-02-11T11:25:10Z</time>
      </trkpt>
      <trkpt lat="47.81202" lon="-2.48161">
        <ele>99.5</ele>
        <time>2025-02-11T11:25:11Z</time>
      </trkpt>
      <trkpt lat="47.81202" lon="-2.48163">
        <ele>99.4</ele>
        <time>2025-02-11T11:25:12Z</time>
      </trkpt>
      <trkpt lat="47.81202" lon="-2.48165">
        <ele>99.3</ele>
        <time>2025-02-11T11:25:13Z</time>
      </trkpt>
      <trkpt lat="47.81202" lon="-2.48166">
        <ele>99.3</ele>
        <time>2025-02-11T11:25:14Z</time>
      </trkpt>
      <trkpt lat="47.81202" lon="-2.48168">
        <ele>99.2</ele>
        <time>2025-02-11T11:25:15Z</time>
      </trkpt>
      <trkpt lat="47.81202" lon="-2.4817">
        <ele>99.2</ele>
        <time>2025-02-11T11:25:16Z</time>
      </trkpt>
      <trkpt lat="47.81201" lon="-2.48172">
        <ele>99.1</ele>
        <time>2025-02-11T11:25:17Z</time>
      </trkpt>
      <trkpt lat="47.81201" lon="-2.48173">
        <ele>99</ele>
        <time>2025-02-11T11:25:18Z</time>
      </trkpt>
      <trkpt lat="47.81199" lon="-2.48175">
        <ele>98.9</ele>
        <time>2025-02-11T11:25:19Z</time>
      </trkpt>
      <trkpt lat="47.81198" lon="-2.48176">
        <ele>98.8</ele>
        <time>2025-02-11T11:25:20Z</time>
      </trkpt>
      <trkpt lat="47.81197" lon="-2.48177">
        <ele>98.7</ele>
        <time>2025-02-11T11:25:21Z</time>
      </trkpt>
      <trkpt lat="47.81196" lon="-2.48178">
        <ele>98.7</ele>
        <time>2025-02-11T11:25:22Z</time>
      </trkpt>
      <trkpt lat="47.81194" lon="-2.48179">
        <ele>98.5</ele>
        <time>2025-02-11T11:25:23Z</time>
      </trkpt>
      <trkpt lat="47.81193" lon="-2.4818">
        <ele>98.3</ele>
        <time>2025-02-11T11:25:24Z</time>
      </trkpt>
      <trkpt lat="47.81192" lon="-2.48182">
        <ele>98</ele>
        <time>2025-02-11T11:25:25Z</time>
      </trkpt>
      <trkpt lat="47.81191" lon="-2.48183">
        <ele>97.8</ele>
        <time>2025-02-11T11:25:26Z</time>
      </trkpt>
      <trkpt lat="47.8119" lon="-2.48184">
        <ele>97.6</ele>
        <time>2025-02-11T11:25:27Z</time>
      </trkpt>
      <trkpt lat="47.81189" lon="-2.48186">
        <ele>97.4</ele>
        <time>2025-02-11T11:25:28Z</time>
      </trkpt>
      <trkpt lat="47.81188" lon="-2.48187">
        <ele>97.2</ele>
        <time>2025-02-11T11:25:29Z</time>
      </trkpt>
      <trkpt lat="47.81188" lon="-2.48188">
        <ele>97</ele>
        <time>2025-02-11T11:25:30Z</time>
      </trkpt>
      <trkpt lat="47.81187" lon="-2.4819">
        <ele>96.9</ele>
        <time>2025-02-11T11:25:31Z</time>
      </trkpt>
      <trkpt lat="47.81187" lon="-2.48192">
        <ele>96.7</ele>
        <time>2025-02-11T11:25:32Z</time>
      </trkpt>
      <trkpt lat="47.81186" lon="-2.48194">
        <ele>96.6</ele>
        <time>2025-02-11T11:25:33Z</time>
      </trkpt>
      <trkpt lat="47.81186" lon="-2.48196">
        <ele>96.4</ele>
        <time>2025-02-11T11:25:34Z</time>
      </trkpt>
      <trkpt lat="47.81186" lon="-2.48198">
        <ele>96.3</ele>
        <time>2025-02-11T11:25:35Z</time>
      </trkpt>
      <trkpt lat="47.81185" lon="-2.48199">
        <ele>96.1</ele>
        <time>2025-02-11T11:25:36Z</time>
      </trkpt>
      <trkpt lat="47.81185" lon="-2.48201">
        <ele>96</ele>
        <time>2025-02-11T11:25:37Z</time>
      </trkpt>
      <trkpt lat="47.81185" lon="-2.48203">
        <ele>95.8</ele>
        <time>2025-02-11T11:25:38Z</time>
      </trkpt>
      <trkpt lat="47.81185" lon="-2.48205">
        <ele>95.8</ele>
        <time>2025-02-11T11:25:39Z</time>
      </trkpt>
      <trkpt lat="47.81185" lon="-2.48207">
        <ele>95.7</ele>
        <time>2025-02-11T11:25:40Z</time>
      </trkpt>
      <trkpt lat="47.81185" lon="-2.48209">
        <ele>95.6</ele>
        <time>2025-02-11T11:25:41Z</time>
      </trkpt>
      <trkpt lat="47.81185" lon="-2.4821">
        <ele>95.4</ele>
        <time>2025-02-11T11:25:42Z</time>
      </trkpt>
      <trkpt lat="47.81184" lon="-2.48211">
        <ele>95.3</ele>
        <time>2025-02-11T11:25:43Z</time>
      </trkpt>
      <trkpt lat="47.81183" lon="-2.48213">
        <ele>95.1</ele>
        <time>2025-02-11T11:25:44Z</time>
      </trkpt>
      <trkpt lat="47.81183" lon="-2.48214">
        <ele>94.9</ele>
        <time>2025-02-11T11:25:45Z</time>
      </trkpt>
      <trkpt lat="47.81182" lon="-2.48215">
        <ele>94.7</ele>
        <time>2025-02-11T11:25:46Z</time>
      </trkpt>
      <trkpt lat="47.81181" lon="-2.48216">
        <ele>94.5</ele>
        <time>2025-02-11T11:25:47Z</time>
      </trkpt>
      <trkpt lat="47.81181" lon="-2.48216">
        <ele>94.3</ele>
        <time>2025-02-11T11:25:48Z</time>
      </trkpt>
      <trkpt lat="47.81179" lon="-2.48217">
        <ele>94.1</ele>
        <time>2025-02-11T11:25:49Z</time>
      </trkpt>
      <trkpt lat="47.81179" lon="-2.48217">
        <ele>94</ele>
        <time>2025-02-11T11:25:50Z</time>
      </trkpt>
      <trkpt lat="47.81179" lon="-2.48217">
        <ele>94</ele>
        <time>2025-02-11T11:25:51Z</time>
      </trkpt>
      <trkpt lat="47.81179" lon="-2.48217">
        <ele>93.9</ele>
        <time>2025-02-11T11:25:52Z</time>
      </trkpt>
      <trkpt lat="47.81179" lon="-2.48217">
        <ele>93.9</ele>
        <time>2025-02-11T11:25:53Z</time>
      </trkpt>
      <trkpt lat="47.81178" lon="-2.48218">
        <ele>93.8</ele>
        <time>2025-02-11T11:25:54Z</time>
      </trkpt>
      <trkpt lat="47.81178" lon="-2.48219">
        <ele>93.6</ele>
        <time>2025-02-11T11:25:55Z</time>
      </trkpt>
      <trkpt lat="47.81178" lon="-2.48218">
        <ele>93.6</ele>
        <time>2025-02-11T11:25:56Z</time>
      </trkpt>
      <trkpt lat="47.81177" lon="-2.48218">
        <ele>93.6</ele>
        <time>2025-02-11T11:25:57Z</time>
      </trkpt>
      <trkpt lat="47.81177" lon="-2.48218">
        <ele>93.6</ele>
        <time>2025-02-11T11:25:58Z</time>
      </trkpt>
      <trkpt lat="47.81177" lon="-2.48218">
        <ele>93.6</ele>
        <time>2025-02-11T11:25:59Z</time>
      </trkpt>
      <trkpt lat="47.81178" lon="-2.48218">
        <ele>93.6</ele>
        <time>2025-02-11T11:26:00Z</time>
      </trkpt>
      <trkpt lat="47.81178" lon="-2.48218">
        <ele>93.7</ele>
        <time>2025-02-11T11:26:01Z</time>
      </trkpt>
      <trkpt lat="47.81178" lon="-2.48218">
        <ele>93.7</ele>
        <time>2025-02-11T11:26:02Z</time>
      </trkpt>
      <trkpt lat="47.81178" lon="-2.48218">
        <ele>93.7</ele>
        <time>2025-02-11T11:26:03Z</time>
      </trkpt>
      <trkpt lat="47.81178" lon="-2.48218">
        <ele>93.7</ele>
        <time>2025-02-11T11:26:04Z</time>
      </trkpt>
      <trkpt lat="47.81178" lon="-2.48218">
        <ele>93.7</ele>
        <time>2025-02-11T11:26:05Z</time>
      </trkpt>
      <trkpt lat="47.81178" lon="-2.48217">
        <ele>93.7</ele>
        <time>2025-02-11T11:26:06Z</time>
      </trkpt>
      <trkpt lat="47.81178" lon="-2.48217">
        <ele>93.7</ele>
        <time>2025-02-11T11:26:07Z</time>
      </trkpt>
      <trkpt lat="47.81178" lon="-2.48217">
        <ele>93.7</ele>
        <time>2025-02-11T11:26:08Z</time>
      </trkpt>
      <trkpt lat="47.81178" lon="-2.48217">
        <ele>93.7</ele>
        <time>2025-02-11T11:26:09Z</time>
      </trkpt>
      <trkpt lat="47.81178" lon="-2.48217">
        <ele>93.7</ele>
        <time>2025-02-11T11:26:10Z</time>
      </trkpt>
      <trkpt lat="47.81178" lon="-2.48217">
        <ele>93.8</ele>
        <time>2025-02-11T11:26:11Z</time>
      </trkpt>
      <trkpt lat="47.81178" lon="-2.48216">
        <ele>93.9</ele>
        <time>2025-02-11T11:26:12Z</time>
      </trkpt>
      <trkpt lat="47.81178" lon="-2.48215">
        <ele>93.9</ele>
        <time>2025-02-11T11:26:13Z</time>
      </trkpt>
      <trkpt lat="47.81178" lon="-2.48216">
        <ele>93.9</ele>
        <time>2025-02-11T11:26:14Z</time>
      </trkpt>
      <trkpt lat="47.81178" lon="-2.48216">
        <ele>93.9</ele>
        <time>2025-02-11T11:26:15Z</time>
      </trkpt>
      <trkpt lat="47.81179" lon="-2.48217">
        <ele>94</ele>
        <time>2025-02-11T11:26:16Z</time>
      </trkpt>
      <trkpt lat="47.8118" lon="-2.48217">
        <ele>94.1</ele>
        <time>2025-02-11T11:26:17Z</time>
      </trkpt>
      <trkpt lat="47.8118" lon="-2.48217">
        <ele>94.1</ele>
        <time>2025-02-11T11:26:18Z</time>
      </trkpt>
      <trkpt lat="47.81181" lon="-2.48219">
        <ele>94.3</ele>
        <time>2025-02-11T11:26:19Z</time>
      </trkpt>
      <trkpt lat="47.81181" lon="-2.48219">
        <ele>94.4</ele>
        <time>2025-02-11T11:26:20Z</time>
      </trkpt>
      <trkpt lat="47.81182" lon="-2.4822">
        <ele>94.5</ele>
        <time>2025-02-11T11:26:21Z</time>
      </trkpt>
      <trkpt lat="47.81183" lon="-2.4822">
        <ele>94.5</ele>
        <time>2025-02-11T11:26:22Z</time>
      </trkpt>
      <trkpt lat="47.81183" lon="-2.48221">
        <ele>94.7</ele>
        <time>2025-02-11T11:26:23Z</time>
      </trkpt>
      <trkpt lat="47.81184" lon="-2.48223">
        <ele>94.8</ele>
        <time>2025-02-11T11:26:24Z</time>
      </trkpt>
      <trkpt lat="47.81184" lon="-2.48224">
        <ele>94.7</ele>
        <time>2025-02-11T11:26:25Z</time>
      </trkpt>
      <trkpt lat="47.81184" lon="-2.48226">
        <ele>94.7</ele>
        <time>2025-02-11T11:26:26Z</time>
      </trkpt>
      <trkpt lat="47.81185" lon="-2.48227">
        <ele>94.7</ele>
        <time>2025-02-11T11:26:27Z</time>
      </trkpt>
      <trkpt lat="47.81185" lon="-2.48228">
        <ele>94.8</ele>
        <time>2025-02-11T11:26:28Z</time>
      </trkpt>
      <trkpt lat="47.81186" lon="-2.48229">
        <ele>94.8</ele>
        <time>2025-02-11T11:26:29Z</time>
      </trkpt>
      <trkpt lat="47.81185" lon="-2.48231">
        <ele>94.7</ele>
        <time>2025-02-11T11:26:30Z</time>
      </trkpt>
      <trkpt lat="47.81185" lon="-2.48231">
        <ele>94.6</ele>
        <time>2025-02-11T11:26:31Z</time>
      </trkpt>
      <trkpt lat="47.81185" lon="-2.48232">
        <ele>94.6</ele>
        <time>2025-02-11T11:26:32Z</time>
      </trkpt>
      <trkpt lat="47.81186" lon="-2.48234">
        <ele>94.7</ele>
        <time>2025-02-11T11:26:33Z</time>
      </trkpt>
      <trkpt lat="47.81186" lon="-2.48235">
        <ele>94.8</ele>
        <time>2025-02-11T11:26:34Z</time>
      </trkpt>
      <trkpt lat="47.81188" lon="-2.48236">
        <ele>95.1</ele>
        <time>2025-02-11T11:26:35Z</time>
      </trkpt>
      <trkpt lat="47.81189" lon="-2.48236">
        <ele>95.3</ele>
        <time>2025-02-11T11:26:36Z</time>
      </trkpt>
      <trkpt lat="47.8119" lon="-2.48237">
        <ele>95.4</ele>
        <time>2025-02-11T11:26:37Z</time>
      </trkpt>
      <trkpt lat="47.8119" lon="-2.48238">
        <ele>95.6</ele>
        <time>2025-02-11T11:26:38Z</time>
      </trkpt>
      <trkpt lat="47.81191" lon="-2.48238">
        <ele>95.7</ele>
        <time>2025-02-11T11:26:39Z</time>
      </trkpt>
      <trkpt lat="47.81192" lon="-2.4824">
        <ele>95.8</ele>
        <time>2025-02-11T11:26:40Z</time>
      </trkpt>
      <trkpt lat="47.81193" lon="-2.48241">
        <ele>95.9</ele>
        <time>2025-02-11T11:26:41Z</time>
      </trkpt>
      <trkpt lat="47.81193" lon="-2.48243">
        <ele>96</ele>
        <time>2025-02-11T11:26:42Z</time>
      </trkpt>
      <trkpt lat="47.81194" lon="-2.48245">
        <ele>96</ele>
        <time>2025-02-11T11:26:43Z</time>
      </trkpt>
      <trkpt lat="47.81194" lon="-2.48246">
        <ele>96</ele>
        <time>2025-02-11T11:26:44Z</time>
      </trkpt>
      <trkpt lat="47.81195" lon="-2.48247">
        <ele>96.1</ele>
        <time>2025-02-11T11:26:45Z</time>
      </trkpt>
      <trkpt lat="47.81195" lon="-2.48249">
        <ele>96.1</ele>
        <time>2025-02-11T11:26:46Z</time>
      </trkpt>
      <trkpt lat="47.81195" lon="-2.48251">
        <ele>96</ele>
        <time>2025-02-11T11:26:47Z</time>
      </trkpt>
      <trkpt lat="47.81195" lon="-2.48253">
        <ele>95.9</ele>
        <time>2025-02-11T11:26:48Z</time>
      </trkpt>
      <trkpt lat="47.81195" lon="-2.48255">
        <ele>95.9</ele>
        <time>2025-02-11T11:26:49Z</time>
      </trkpt>
      <trkpt lat="47.81196" lon="-2.48256">
        <ele>95.9</ele>
        <time>2025-02-11T11:26:50Z</time>
      </trkpt>
      <trkpt lat="47.81197" lon="-2.48257">
        <ele>96</ele>
        <time>2025-02-11T11:26:51Z</time>
      </trkpt>
      <trkpt lat="47.81198" lon="-2.48259">
        <ele>96</ele>
        <time>2025-02-11T11:26:52Z</time>
      </trkpt>
      <trkpt lat="47.81199" lon="-2.4826">
        <ele>96</ele>
        <time>2025-02-11T11:26:53Z</time>
      </trkpt>
      <trkpt lat="47.81199" lon="-2.48261">
        <ele>96.1</ele>
        <time>2025-02-11T11:26:54Z</time>
      </trkpt>
      <trkpt lat="47.812" lon="-2.48262">
        <ele>96.1</ele>
        <time>2025-02-11T11:26:55Z</time>
      </trkpt>
      <trkpt lat="47.812" lon="-2.48263">
        <ele>96.1</ele>
        <time>2025-02-11T11:26:56Z</time>
      </trkpt>
      <trkpt lat="47.812" lon="-2.48264">
        <ele>96</ele>
        <time>2025-02-11T11:26:57Z</time>
      </trkpt>
      <trkpt lat="47.812" lon="-2.48266">
        <ele>95.9</ele>
        <time>2025-02-11T11:26:58Z</time>
      </trkpt>
      <trkpt lat="47.81201" lon="-2.48267">
        <ele>95.9</ele>
        <time>2025-02-11T11:26:59Z</time>
      </trkpt>
      <trkpt lat="47.81201" lon="-2.48269">
        <ele>95.9</ele>
        <time>2025-02-11T11:27:00Z</time>
      </trkpt>
      <trkpt lat="47.81201" lon="-2.4827">
        <ele>95.9</ele>
        <time>2025-02-11T11:27:01Z</time>
      </trkpt>
      <trkpt lat="47.81202" lon="-2.48271">
        <ele>95.8</ele>
        <time>2025-02-11T11:27:02Z</time>
      </trkpt>
      <trkpt lat="47.81202" lon="-2.48271">
        <ele>95.9</ele>
        <time>2025-02-11T11:27:03Z</time>
      </trkpt>
      <trkpt lat="47.81203" lon="-2.48272">
        <ele>95.9</ele>
        <time>2025-02-11T11:27:04Z</time>
      </trkpt>
      <trkpt lat="47.81204" lon="-2.48272">
        <ele>96</ele>
        <time>2025-02-11T11:27:05Z</time>
      </trkpt>
      <trkpt lat="47.81206" lon="-2.48273">
        <ele>96</ele>
        <time>2025-02-11T11:27:06Z</time>
      </trkpt>
      <trkpt lat="47.81207" lon="-2.48274">
        <ele>96.1</ele>
        <time>2025-02-11T11:27:07Z</time>
      </trkpt>
      <trkpt lat="47.81207" lon="-2.48275">
        <ele>96.1</ele>
        <time>2025-02-11T11:27:08Z</time>
      </trkpt>
      <trkpt lat="47.81208" lon="-2.48276">
        <ele>96.1</ele>
        <time>2025-02-11T11:27:09Z</time>
      </trkpt>
      <trkpt lat="47.81209" lon="-2.48277">
        <ele>96</ele>
        <time>2025-02-11T11:27:10Z</time>
      </trkpt>
      <trkpt lat="47.81209" lon="-2.48278">
        <ele>96.1</ele>
        <time>2025-02-11T11:27:11Z</time>
      </trkpt>
      <trkpt lat="47.8121" lon="-2.48279">
        <ele>96.1</ele>
        <time>2025-02-11T11:27:12Z</time>
      </trkpt>
      <trkpt lat="47.8121" lon="-2.48281">
        <ele>96</ele>
        <time>2025-02-11T11:27:13Z</time>
      </trkpt>
      <trkpt lat="47.81211" lon="-2.48282">
        <ele>96</ele>
        <time>2025-02-11T11:27:14Z</time>
      </trkpt>
      <trkpt lat="47.81211" lon="-2.48284">
        <ele>96</ele>
        <time>2025-02-11T11:27:15Z</time>
      </trkpt>
      <trkpt lat="47.81211" lon="-2.48285">
        <ele>95.9</ele>
        <time>2025-02-11T11:27:16Z</time>
      </trkpt>
      <trkpt lat="47.81211" lon="-2.48286">
        <ele>95.9</ele>
        <time>2025-02-11T11:27:17Z</time>
      </trkpt>
      <trkpt lat="47.81211" lon="-2.48287">
        <ele>95.9</ele>
        <time>2025-02-11T11:27:18Z</time>
      </trkpt>
      <trkpt lat="47.81211" lon="-2.48288">
        <ele>95.8</ele>
        <time>2025-02-11T11:27:19Z</time>
      </trkpt>
      <trkpt lat="47.81212" lon="-2.48289">
        <ele>95.9</ele>
        <time>2025-02-11T11:27:20Z</time>
      </trkpt>
      <trkpt lat="47.81213" lon="-2.48289">
        <ele>95.9</ele>
        <time>2025-02-11T11:27:21Z</time>
      </trkpt>
      <trkpt lat="47.81212" lon="-2.48291">
        <ele>95.8</ele>
        <time>2025-02-11T11:27:22Z</time>
      </trkpt>
      <trkpt lat="47.81212" lon="-2.48291">
        <ele>95.8</ele>
        <time>2025-02-11T11:27:23Z</time>
      </trkpt>
      <trkpt lat="47.81212" lon="-2.48292">
        <ele>95.8</ele>
        <time>2025-02-11T11:27:24Z</time>
      </trkpt>
      <trkpt lat="47.81212" lon="-2.48293">
        <ele>95.7</ele>
        <time>2025-02-11T11:27:25Z</time>
      </trkpt>
      <trkpt lat="47.81213" lon="-2.48293">
        <ele>95.8</ele>
        <time>2025-02-11T11:27:26Z</time>
      </trkpt>
      <trkpt lat="47.81213" lon="-2.48295">
        <ele>95.7</ele>
        <time>2025-02-11T11:27:27Z</time>
      </trkpt>
      <trkpt lat="47.81213" lon="-2.48295">
        <ele>95.7</ele>
        <time>2025-02-11T11:27:28Z</time>
      </trkpt>
      <trkpt lat="47.81213" lon="-2.48296">
        <ele>95.7</ele>
        <time>2025-02-11T11:27:29Z</time>
      </trkpt>
      <trkpt lat="47.81213" lon="-2.48296">
        <ele>95.7</ele>
        <time>2025-02-11T11:27:30Z</time>
      </trkpt>
      <trkpt lat="47.81214" lon="-2.48297">
        <ele>95.7</ele>
        <time>2025-02-11T11:27:31Z</time>
      </trkpt>
      <trkpt lat="47.81214" lon="-2.48297">
        <ele>95.7</ele>
        <time>2025-02-11T11:27:32Z</time>
      </trkpt>
      <trkpt lat="47.81215" lon="-2.48296">
        <ele>95.8</ele>
        <time>2025-02-11T11:27:33Z</time>
      </trkpt>
      <trkpt lat="47.81216" lon="-2.48298">
        <ele>95.8</ele>
        <time>2025-02-11T11:27:34Z</time>
      </trkpt>
      <trkpt lat="47.81216" lon="-2.48298">
        <ele>95.8</ele>
        <time>2025-02-11T11:27:35Z</time>
      </trkpt>
      <trkpt lat="47.81216" lon="-2.483">
        <ele>95.7</ele>
        <time>2025-02-11T11:27:36Z</time>
      </trkpt>
      <trkpt lat="47.81216" lon="-2.48301">
        <ele>95.7</ele>
        <time>2025-02-11T11:27:37Z</time>
      </trkpt>
      <trkpt lat="47.81216" lon="-2.48302">
        <ele>95.7</ele>
        <time>2025-02-11T11:27:38Z</time>
      </trkpt>
      <trkpt lat="47.81216" lon="-2.48302">
        <ele>95.7</ele>
        <time>2025-02-11T11:27:39Z</time>
      </trkpt>
      <trkpt lat="47.81215" lon="-2.48304">
        <ele>95.6</ele>
        <time>2025-02-11T11:27:40Z</time>
      </trkpt>
      <trkpt lat="47.81215" lon="-2.48305">
        <ele>95.5</ele>
        <time>2025-02-11T11:27:41Z</time>
      </trkpt>
      <trkpt lat="47.81216" lon="-2.48306">
        <ele>95.5</ele>
        <time>2025-02-11T11:27:42Z</time>
      </trkpt>
      <trkpt lat="47.81216" lon="-2.48306">
        <ele>95.5</ele>
        <time>2025-02-11T11:27:43Z</time>
      </trkpt>
      <trkpt lat="47.81215" lon="-2.48307">
        <ele>95.4</ele>
        <time>2025-02-11T11:27:44Z</time>
      </trkpt>
      <trkpt lat="47.81215" lon="-2.48307">
        <ele>95.4</ele>
        <time>2025-02-11T11:27:45Z</time>
      </trkpt>
      <trkpt lat="47.81214" lon="-2.48307">
        <ele>95.4</ele>
        <time>2025-02-11T11:27:46Z</time>
      </trkpt>
      <trkpt lat="47.81214" lon="-2.48308">
        <ele>95.4</ele>
        <time>2025-02-11T11:27:47Z</time>
      </trkpt>
      <trkpt lat="47.81214" lon="-2.48309">
        <ele>95.3</ele>
        <time>2025-02-11T11:27:48Z</time>
      </trkpt>
      <trkpt lat="47.81214" lon="-2.48309">
        <ele>95.3</ele>
        <time>2025-02-11T11:27:49Z</time>
      </trkpt>
      <trkpt lat="47.81214" lon="-2.48311">
        <ele>95.2</ele>
        <time>2025-02-11T11:27:50Z</time>
      </trkpt>
      <trkpt lat="47.81214" lon="-2.48313">
        <ele>95.2</ele>
        <time>2025-02-11T11:27:51Z</time>
      </trkpt>
      <trkpt lat="47.81214" lon="-2.48314">
        <ele>95.1</ele>
        <time>2025-02-11T11:27:52Z</time>
      </trkpt>
      <trkpt lat="47.81215" lon="-2.48315">
        <ele>95.1</ele>
        <time>2025-02-11T11:27:53Z</time>
      </trkpt>
      <trkpt lat="47.81215" lon="-2.48314">
        <ele>95.2</ele>
        <time>2025-02-11T11:27:54Z</time>
      </trkpt>
      <trkpt lat="47.81216" lon="-2.48314">
        <ele>95.3</ele>
        <time>2025-02-11T11:27:55Z</time>
      </trkpt>
      <trkpt lat="47.81218" lon="-2.48314">
        <ele>95.4</ele>
        <time>2025-02-11T11:27:56Z</time>
      </trkpt>
      <trkpt lat="47.81218" lon="-2.48313">
        <ele>95.4</ele>
        <time>2025-02-11T11:27:57Z</time>
      </trkpt>
      <trkpt lat="47.81219" lon="-2.48313">
        <ele>95.5</ele>
        <time>2025-02-11T11:27:58Z</time>
      </trkpt>
      <trkpt lat="47.81219" lon="-2.48313">
        <ele>95.5</ele>
        <time>2025-02-11T11:27:59Z</time>
      </trkpt>
      <trkpt lat="47.8122" lon="-2.48313">
        <ele>95.6</ele>
        <time>2025-02-11T11:28:00Z</time>
      </trkpt>
      <trkpt lat="47.8122" lon="-2.48314">
        <ele>95.5</ele>
        <time>2025-02-11T11:28:01Z</time>
      </trkpt>
      <trkpt lat="47.81219" lon="-2.48315">
        <ele>95.5</ele>
        <time>2025-02-11T11:28:02Z</time>
      </trkpt>
      <trkpt lat="47.81219" lon="-2.48315">
        <ele>95.4</ele>
        <time>2025-02-11T11:28:03Z</time>
      </trkpt>
      <trkpt lat="47.81219" lon="-2.48316">
        <ele>95.4</ele>
        <time>2025-02-11T11:28:04Z</time>
      </trkpt>
      <trkpt lat="47.81219" lon="-2.48317">
        <ele>95.3</ele>
        <time>2025-02-11T11:28:05Z</time>
      </trkpt>
      <trkpt lat="47.81218" lon="-2.48318">
        <ele>95.3</ele>
        <time>2025-02-11T11:28:06Z</time>
      </trkpt>
      <trkpt lat="47.81218" lon="-2.48318">
        <ele>95.2</ele>
        <time>2025-02-11T11:28:07Z</time>
      </trkpt>
      <trkpt lat="47.81218" lon="-2.48319">
        <ele>95.2</ele>
        <time>2025-02-11T11:28:08Z</time>
      </trkpt>
      <trkpt lat="47.81217" lon="-2.48319">
        <ele>95.1</ele>
        <time>2025-02-11T11:28:09Z</time>
      </trkpt>
      <trkpt lat="47.81217" lon="-2.4832">
        <ele>95.1</ele>
        <time>2025-02-11T11:28:10Z</time>
      </trkpt>
      <trkpt lat="47.81217" lon="-2.48321">
        <ele>95</ele>
        <time>2025-02-11T11:28:11Z</time>
      </trkpt>
      <trkpt lat="47.81216" lon="-2.48322">
        <ele>95</ele>
        <time>2025-02-11T11:28:12Z</time>
      </trkpt>
      <trkpt lat="47.81216" lon="-2.48323">
        <ele>94.9</ele>
        <time>2025-02-11T11:28:13Z</time>
      </trkpt>
      <trkpt lat="47.81216" lon="-2.48324">
        <ele>94.9</ele>
        <time>2025-02-11T11:28:14Z</time>
      </trkpt>
      <trkpt lat="47.81216" lon="-2.48326">
        <ele>94.8</ele>
        <time>2025-02-11T11:28:15Z</time>
      </trkpt>
      <trkpt lat="47.81215" lon="-2.48327">
        <ele>94.7</ele>
        <time>2025-02-11T11:28:16Z</time>
      </trkpt>
      <trkpt lat="47.81215" lon="-2.48329">
        <ele>94.6</ele>
        <time>2025-02-11T11:28:17Z</time>
      </trkpt>
      <trkpt lat="47.81214" lon="-2.48329">
        <ele>94.6</ele>
        <time>2025-02-11T11:28:18Z</time>
      </trkpt>
      <trkpt lat="47.81214" lon="-2.4833">
        <ele>94.5</ele>
        <time>2025-02-11T11:28:19Z</time>
      </trkpt>
      <trkpt lat="47.81213" lon="-2.48331">
        <ele>94.4</ele>
        <time>2025-02-11T11:28:20Z</time>
      </trkpt>
      <trkpt lat="47.81212" lon="-2.48332">
        <ele>94.3</ele>
        <time>2025-02-11T11:28:21Z</time>
      </trkpt>
      <trkpt lat="47.81212" lon="-2.48333">
        <ele>94.2</ele>
        <time>2025-02-11T11:28:22Z</time>
      </trkpt>
      <trkpt lat="47.81211" lon="-2.48335">
        <ele>94.2</ele>
        <time>2025-02-11T11:28:23Z</time>
      </trkpt>
      <trkpt lat="47.81211" lon="-2.48336">
        <ele>94.1</ele>
        <time>2025-02-11T11:28:24Z</time>
      </trkpt>
      <trkpt lat="47.81211" lon="-2.48337">
        <ele>94</ele>
        <time>2025-02-11T11:28:25Z</time>
      </trkpt>
      <trkpt lat="47.8121" lon="-2.48339">
        <ele>93.9</ele>
        <time>2025-02-11T11:28:26Z</time>
      </trkpt>
      <trkpt lat="47.8121" lon="-2.4834">
        <ele>93.9</ele>
        <time>2025-02-11T11:28:27Z</time>
      </trkpt>
      <trkpt lat="47.81209" lon="-2.48341">
        <ele>93.8</ele>
        <time>2025-02-11T11:28:28Z</time>
      </trkpt>
      <trkpt lat="47.81208" lon="-2.48342">
        <ele>93.7</ele>
        <time>2025-02-11T11:28:29Z</time>
      </trkpt>
      <trkpt lat="47.81207" lon="-2.48343">
        <ele>93.6</ele>
        <time>2025-02-11T11:28:30Z</time>
      </trkpt>
      <trkpt lat="47.81207" lon="-2.48344">
        <ele>93.5</ele>
        <time>2025-02-11T11:28:31Z</time>
      </trkpt>
      <trkpt lat="47.81206" lon="-2.48346">
        <ele>93.4</ele>
        <time>2025-02-11T11:28:32Z</time>
      </trkpt>
      <trkpt lat="47.81205" lon="-2.48347">
        <ele>93.3</ele>
        <time>2025-02-11T11:28:33Z</time>
      </trkpt>
      <trkpt lat="47.81205" lon="-2.48347">
        <ele>93.3</ele>
        <time>2025-02-11T11:28:34Z</time>
      </trkpt>
      <trkpt lat="47.81205" lon="-2.48348">
        <ele>93.2</ele>
        <time>2025-02-11T11:28:35Z</time>
      </trkpt>
      <trkpt lat="47.81204" lon="-2.48349">
        <ele>93.2</ele>
        <time>2025-02-11T11:28:36Z</time>
      </trkpt>
      <trkpt lat="47.81204" lon="-2.48347">
        <ele>93.2</ele>
        <time>2025-02-11T11:28:37Z</time>
      </trkpt>
      <trkpt lat="47.81204" lon="-2.48345">
        <ele>93.3</ele>
        <time>2025-02-11T11:28:38Z</time>
      </trkpt>
      <trkpt lat="47.81204" lon="-2.48345">
        <ele>93.3</ele>
        <time>2025-02-11T11:28:39Z</time>
      </trkpt>
      <trkpt lat="47.81204" lon="-2.48344">
        <ele>93.3</ele>
        <time>2025-02-11T11:28:40Z</time>
      </trkpt>
      <trkpt lat="47.81204" lon="-2.48344">
        <ele>93.3</ele>
        <time>2025-02-11T11:28:41Z</time>
      </trkpt>
      <trkpt lat="47.81204" lon="-2.48344">
        <ele>93.3</ele>
        <time>2025-02-11T11:28:42Z</time>
      </trkpt>
      <trkpt lat="47.81204" lon="-2.48344">
        <ele>93.3</ele>
        <time>2025-02-11T11:28:43Z</time>
      </trkpt>
      <trkpt lat="47.81204" lon="-2.48344">
        <ele>93.3</ele>
        <time>2025-02-11T11:28:44Z</time>
      </trkpt>
      <trkpt lat="47.81204" lon="-2.48345">
        <ele>93.3</ele>
        <time>2025-02-11T11:28:45Z</time>
      </trkpt>
      <trkpt lat="47.81203" lon="-2.48346">
        <ele>93.2</ele>
        <time>2025-02-11T11:28:46Z</time>
      </trkpt>
      <trkpt lat="47.81204" lon="-2.48346">
        <ele>93.2</ele>
        <time>2025-02-11T11:28:47Z</time>
      </trkpt>
      <trkpt lat="47.81203" lon="-2.48347">
        <ele>93.1</ele>
        <time>2025-02-11T11:28:48Z</time>
      </trkpt>
      <trkpt lat="47.81203" lon="-2.48349">
        <ele>93</ele>
        <time>2025-02-11T11:28:49Z</time>
      </trkpt>
      <trkpt lat="47.81202" lon="-2.4835">
        <ele>93</ele>
        <time>2025-02-11T11:28:50Z</time>
      </trkpt>
      <trkpt lat="47.81203" lon="-2.48352">
        <ele>92.9</ele>
        <time>2025-02-11T11:28:51Z</time>
      </trkpt>
      <trkpt lat="47.81203" lon="-2.48353">
        <ele>92.9</ele>
        <time>2025-02-11T11:28:52Z</time>
      </trkpt>
      <trkpt lat="47.81203" lon="-2.48354">
        <ele>92.9</ele>
        <time>2025-02-11T11:28:53Z</time>
      </trkpt>
      <trkpt lat="47.81203" lon="-2.48356">
        <ele>92.8</ele>
        <time>2025-02-11T11:28:54Z</time>
      </trkpt>
      <trkpt lat="47.81203" lon="-2.48356">
        <ele>92.8</ele>
        <time>2025-02-11T11:28:55Z</time>
      </trkpt>
      <trkpt lat="47.81203" lon="-2.48358">
        <ele>92.7</ele>
        <time>2025-02-11T11:28:56Z</time>
      </trkpt>
      <trkpt lat="47.81202" lon="-2.48359">
        <ele>92.6</ele>
        <time>2025-02-11T11:28:57Z</time>
      </trkpt>
      <trkpt lat="47.81202" lon="-2.48359">
        <ele>92.6</ele>
        <time>2025-02-11T11:28:58Z</time>
      </trkpt>
      <trkpt lat="47.81202" lon="-2.48361">
        <ele>92.6</ele>
        <time>2025-02-11T11:28:59Z</time>
      </trkpt>
      <trkpt lat="47.81202" lon="-2.48362">
        <ele>92.5</ele>
        <time>2025-02-11T11:29:00Z</time>
      </trkpt>
      <trkpt lat="47.81202" lon="-2.48363">
        <ele>92.6</ele>
        <time>2025-02-11T11:29:01Z</time>
      </trkpt>
      <trkpt lat="47.81202" lon="-2.48365">
        <ele>92.6</ele>
        <time>2025-02-11T11:29:02Z</time>
      </trkpt>
      <trkpt lat="47.81201" lon="-2.48367">
        <ele>92.5</ele>
        <time>2025-02-11T11:29:03Z</time>
      </trkpt>
      <trkpt lat="47.812" lon="-2.4837">
        <ele>92.5</ele>
        <time>2025-02-11T11:29:04Z</time>
      </trkpt>
      <trkpt lat="47.812" lon="-2.48372">
        <ele>92.4</ele>
        <time>2025-02-11T11:29:05Z</time>
      </trkpt>
      <trkpt lat="47.812" lon="-2.48373">
        <ele>92.5</ele>
        <time>2025-02-11T11:29:06Z</time>
      </trkpt>
      <trkpt lat="47.81199" lon="-2.48375">
        <ele>92.4</ele>
        <time>2025-02-11T11:29:07Z</time>
      </trkpt>
      <trkpt lat="47.81199" lon="-2.48377">
        <ele>92.4</ele>
        <time>2025-02-11T11:29:08Z</time>
      </trkpt>
      <trkpt lat="47.812" lon="-2.48378">
        <ele>92.5</ele>
        <time>2025-02-11T11:29:09Z</time>
      </trkpt>
      <trkpt lat="47.812" lon="-2.48379">
        <ele>92.5</ele>
        <time>2025-02-11T11:29:10Z</time>
      </trkpt>
      <trkpt lat="47.812" lon="-2.48381">
        <ele>92.6</ele>
        <time>2025-02-11T11:29:11Z</time>
      </trkpt>
      <trkpt lat="47.812" lon="-2.48382">
        <ele>92.6</ele>
        <time>2025-02-11T11:29:12Z</time>
      </trkpt>
      <trkpt lat="47.81202" lon="-2.48383">
        <ele>92.7</ele>
        <time>2025-02-11T11:29:13Z</time>
      </trkpt>
      <trkpt lat="47.81203" lon="-2.48383">
        <ele>92.9</ele>
        <time>2025-02-11T11:29:14Z</time>
      </trkpt>
      <trkpt lat="47.81204" lon="-2.48383">
        <ele>93</ele>
        <time>2025-02-11T11:29:15Z</time>
      </trkpt>
      <trkpt lat="47.81205" lon="-2.48384">
        <ele>93.1</ele>
        <time>2025-02-11T11:29:16Z</time>
      </trkpt>
      <trkpt lat="47.81206" lon="-2.48385">
        <ele>93.2</ele>
        <time>2025-02-11T11:29:17Z</time>
      </trkpt>
      <trkpt lat="47.81208" lon="-2.48385">
        <ele>93.3</ele>
        <time>2025-02-11T11:29:18Z</time>
      </trkpt>
      <trkpt lat="47.81209" lon="-2.48386">
        <ele>93.5</ele>
        <time>2025-02-11T11:29:19Z</time>
      </trkpt>
      <trkpt lat="47.81209" lon="-2.48386">
        <ele>93.5</ele>
        <time>2025-02-11T11:29:20Z</time>
      </trkpt>
      <trkpt lat="47.81207" lon="-2.48386">
        <ele>93.3</ele>
        <time>2025-02-11T11:29:21Z</time>
      </trkpt>
      <trkpt lat="47.81205" lon="-2.48386">
        <ele>93.1</ele>
        <time>2025-02-11T11:29:22Z</time>
      </trkpt>
      <trkpt lat="47.81205" lon="-2.48386">
        <ele>93.1</ele>
        <time>2025-02-11T11:29:23Z</time>
      </trkpt>
      <trkpt lat="47.81205" lon="-2.48386">
        <ele>93.1</ele>
        <time>2025-02-11T11:29:24Z</time>
      </trkpt>
      <trkpt lat="47.81206" lon="-2.48386">
        <ele>93.2</ele>
        <time>2025-02-11T11:29:25Z</time>
      </trkpt>
      <trkpt lat="47.81207" lon="-2.48386">
        <ele>93.3</ele>
        <time>2025-02-11T11:29:26Z</time>
      </trkpt>
      <trkpt lat="47.81208" lon="-2.48387">
        <ele>93.4</ele>
        <time>2025-02-11T11:29:27Z</time>
      </trkpt>
      <trkpt lat="47.81209" lon="-2.48387">
        <ele>93.6</ele>
        <time>2025-02-11T11:29:28Z</time>
      </trkpt>
      <trkpt lat="47.81211" lon="-2.48388">
        <ele>93.7</ele>
        <time>2025-02-11T11:29:29Z</time>
      </trkpt>
      <trkpt lat="47.81212" lon="-2.48388">
        <ele>93.8</ele>
        <time>2025-02-11T11:29:30Z</time>
      </trkpt>
      <trkpt lat="47.81213" lon="-2.48388">
        <ele>94</ele>
        <time>2025-02-11T11:29:31Z</time>
      </trkpt>
      <trkpt lat="47.81215" lon="-2.48388">
        <ele>94.2</ele>
        <time>2025-02-11T11:29:32Z</time>
      </trkpt>
      <trkpt lat="47.81217" lon="-2.48389">
        <ele>94.4</ele>
        <time>2025-02-11T11:29:33Z</time>
      </trkpt>
      <trkpt lat="47.81219" lon="-2.48389">
        <ele>94.6</ele>
        <time>2025-02-11T11:29:34Z</time>
      </trkpt>
      <trkpt lat="47.8122" lon="-2.48389">
        <ele>94.8</ele>
        <time>2025-02-11T11:29:35Z</time>
      </trkpt>
      <trkpt lat="47.81222" lon="-2.48389">
        <ele>95</ele>
        <time>2025-02-11T11:29:36Z</time>
      </trkpt>
      <trkpt lat="47.81223" lon="-2.4839">
        <ele>95.1</ele>
        <time>2025-02-11T11:29:37Z</time>
      </trkpt>
      <trkpt lat="47.81224" lon="-2.48392">
        <ele>95.2</ele>
        <time>2025-02-11T11:29:38Z</time>
      </trkpt>
      <trkpt lat="47.81225" lon="-2.48393">
        <ele>95.3</ele>
        <time>2025-02-11T11:29:39Z</time>
      </trkpt>
      <trkpt lat="47.81226" lon="-2.48395">
        <ele>95.4</ele>
        <time>2025-02-11T11:29:40Z</time>
      </trkpt>
      <trkpt lat="47.81226" lon="-2.48396">
        <ele>95.5</ele>
        <time>2025-02-11T11:29:41Z</time>
      </trkpt>
      <trkpt lat="47.81226" lon="-2.48398">
        <ele>95.6</ele>
        <time>2025-02-11T11:29:42Z</time>
      </trkpt>
      <trkpt lat="47.81227" lon="-2.484">
        <ele>95.7</ele>
        <time>2025-02-11T11:29:43Z</time>
      </trkpt>
      <trkpt lat="47.81227" lon="-2.48401">
        <ele>95.7</ele>
        <time>2025-02-11T11:29:44Z</time>
      </trkpt>
      <trkpt lat="47.81227" lon="-2.48403">
        <ele>95.8</ele>
        <time>2025-02-11T11:29:45Z</time>
      </trkpt>
      <trkpt lat="47.81228" lon="-2.48404">
        <ele>95.8</ele>
        <time>2025-02-11T11:29:46Z</time>
      </trkpt>
      <trkpt lat="47.81228" lon="-2.48406">
        <ele>95.9</ele>
        <time>2025-02-11T11:29:47Z</time>
      </trkpt>
      <trkpt lat="47.81228" lon="-2.48408">
        <ele>96</ele>
        <time>2025-02-11T11:29:48Z</time>
      </trkpt>
      <trkpt lat="47.81228" lon="-2.4841">
        <ele>96</ele>
        <time>2025-02-11T11:29:49Z</time>
      </trkpt>
      <trkpt lat="47.81228" lon="-2.48411">
        <ele>96.1</ele>
        <time>2025-02-11T11:29:50Z</time>
      </trkpt>
      <trkpt lat="47.81228" lon="-2.48412">
        <ele>96.1</ele>
        <time>2025-02-11T11:29:51Z</time>
      </trkpt>
      <trkpt lat="47.81228" lon="-2.48414">
        <ele>96.1</ele>
        <time>2025-02-11T11:29:52Z</time>
      </trkpt>
      <trkpt lat="47.81228" lon="-2.48416">
        <ele>96.2</ele>
        <time>2025-02-11T11:29:53Z</time>
      </trkpt>
      <trkpt lat="47.81228" lon="-2.48418">
        <ele>96.2</ele>
        <time>2025-02-11T11:29:54Z</time>
      </trkpt>
      <trkpt lat="47.81228" lon="-2.4842">
        <ele>96.1</ele>
        <time>2025-02-11T11:29:55Z</time>
      </trkpt>
      <trkpt lat="47.81228" lon="-2.48421">
        <ele>96.1</ele>
        <time>2025-02-11T11:29:56Z</time>
      </trkpt>
      <trkpt lat="47.81228" lon="-2.48423">
        <ele>96</ele>
        <time>2025-02-11T11:29:57Z</time>
      </trkpt>
      <trkpt lat="47.81229" lon="-2.48425">
        <ele>96</ele>
        <time>2025-02-11T11:29:58Z</time>
      </trkpt>
      <trkpt lat="47.81228" lon="-2.48427">
        <ele>95.9</ele>
        <time>2025-02-11T11:29:59Z</time>
      </trkpt>
      <trkpt lat="47.81228" lon="-2.48429">
        <ele>95.9</ele>
        <time>2025-02-11T11:30:00Z</time>
      </trkpt>
      <trkpt lat="47.81228" lon="-2.48431">
        <ele>95.8</ele>
        <time>2025-02-11T11:30:01Z</time>
      </trkpt>
      <trkpt lat="47.81228" lon="-2.48432">
        <ele>95.8</ele>
        <time>2025-02-11T11:30:02Z</time>
      </trkpt>
      <trkpt lat="47.81228" lon="-2.48434">
        <ele>95.7</ele>
        <time>2025-02-11T11:30:03Z</time>
      </trkpt>
      <trkpt lat="47.81228" lon="-2.48436">
        <ele>95.7</ele>
        <time>2025-02-11T11:30:04Z</time>
      </trkpt>
      <trkpt lat="47.81228" lon="-2.48438">
        <ele>95.6</ele>
        <time>2025-02-11T11:30:05Z</time>
      </trkpt>
      <trkpt lat="47.81228" lon="-2.4844">
        <ele>95.5</ele>
        <time>2025-02-11T11:30:06Z</time>
      </trkpt>
      <trkpt lat="47.81228" lon="-2.48442">
        <ele>95.5</ele>
        <time>2025-02-11T11:30:07Z</time>
      </trkpt>
      <trkpt lat="47.81228" lon="-2.48444">
        <ele>95.4</ele>
        <time>2025-02-11T11:30:08Z</time>
      </trkpt>
      <trkpt lat="47.81228" lon="-2.48446">
        <ele>95.4</ele>
        <time>2025-02-11T11:30:09Z</time>
      </trkpt>
      <trkpt lat="47.81228" lon="-2.48447">
        <ele>95.3</ele>
        <time>2025-02-11T11:30:10Z</time>
      </trkpt>
      <trkpt lat="47.81228" lon="-2.48449">
        <ele>95.2</ele>
        <time>2025-02-11T11:30:11Z</time>
      </trkpt>
      <trkpt lat="47.81228" lon="-2.48451">
        <ele>95.2</ele>
        <time>2025-02-11T11:30:12Z</time>
      </trkpt>
      <trkpt lat="47.81228" lon="-2.48453">
        <ele>95.1</ele>
        <time>2025-02-11T11:30:13Z</time>
      </trkpt>
      <trkpt lat="47.81228" lon="-2.48455">
        <ele>95</ele>
        <time>2025-02-11T11:30:14Z</time>
      </trkpt>
      <trkpt lat="47.81228" lon="-2.48457">
        <ele>94.9</ele>
        <time>2025-02-11T11:30:15Z</time>
      </trkpt>
      <trkpt lat="47.81228" lon="-2.48459">
        <ele>94.9</ele>
        <time>2025-02-11T11:30:16Z</time>
      </trkpt>
      <trkpt lat="47.81228" lon="-2.48461">
        <ele>94.8</ele>
        <time>2025-02-11T11:30:17Z</time>
      </trkpt>
      <trkpt lat="47.81227" lon="-2.48463">
        <ele>94.7</ele>
        <time>2025-02-11T11:30:18Z</time>
      </trkpt>
      <trkpt lat="47.81227" lon="-2.48465">
        <ele>94.6</ele>
        <time>2025-02-11T11:30:19Z</time>
      </trkpt>
      <trkpt lat="47.81227" lon="-2.48466">
        <ele>94.6</ele>
        <time>2025-02-11T11:30:20Z</time>
      </trkpt>
      <trkpt lat="47.81227" lon="-2.48468">
        <ele>94.5</ele>
        <time>2025-02-11T11:30:21Z</time>
      </trkpt>
      <trkpt lat="47.81227" lon="-2.4847">
        <ele>94.4</ele>
        <time>2025-02-11T11:30:22Z</time>
      </trkpt>
      <trkpt lat="47.81226" lon="-2.48472">
        <ele>94.3</ele>
        <time>2025-02-11T11:30:23Z</time>
      </trkpt>
      <trkpt lat="47.81226" lon="-2.48474">
        <ele>94.2</ele>
        <time>2025-02-11T11:30:24Z</time>
      </trkpt>
      <trkpt lat="47.81226" lon="-2.48476">
        <ele>94.2</ele>
        <time>2025-02-11T11:30:25Z</time>
      </trkpt>
      <trkpt lat="47.81226" lon="-2.48477">
        <ele>94.1</ele>
        <time>2025-02-11T11:30:26Z</time>
      </trkpt>
      <trkpt lat="47.81226" lon="-2.48479">
        <ele>94</ele>
        <time>2025-02-11T11:30:27Z</time>
      </trkpt>
      <trkpt lat="47.81226" lon="-2.48481">
        <ele>94</ele>
        <time>2025-02-11T11:30:28Z</time>
      </trkpt>
      <trkpt lat="47.81226" lon="-2.48483">
        <ele>93.9</ele>
        <time>2025-02-11T11:30:29Z</time>
      </trkpt>
      <trkpt lat="47.81227" lon="-2.48485">
        <ele>93.9</ele>
        <time>2025-02-11T11:30:30Z</time>
      </trkpt>
      <trkpt lat="47.81226" lon="-2.48487">
        <ele>93.8</ele>
        <time>2025-02-11T11:30:31Z</time>
      </trkpt>
      <trkpt lat="47.81226" lon="-2.48488">
        <ele>93.7</ele>
        <time>2025-02-11T11:30:32Z</time>
      </trkpt>
      <trkpt lat="47.81226" lon="-2.4849">
        <ele>93.6</ele>
        <time>2025-02-11T11:30:33Z</time>
      </trkpt>
      <trkpt lat="47.81226" lon="-2.48491">
        <ele>93.6</ele>
        <time>2025-02-11T11:30:34Z</time>
      </trkpt>
      <trkpt lat="47.81226" lon="-2.48493">
        <ele>93.5</ele>
        <time>2025-02-11T11:30:35Z</time>
      </trkpt>
      <trkpt lat="47.81226" lon="-2.48495">
        <ele>93.5</ele>
        <time>2025-02-11T11:30:36Z</time>
      </trkpt>
      <trkpt lat="47.81226" lon="-2.48497">
        <ele>93.4</ele>
        <time>2025-02-11T11:30:37Z</time>
      </trkpt>
      <trkpt lat="47.81226" lon="-2.48499">
        <ele>93.3</ele>
        <time>2025-02-11T11:30:38Z</time>
      </trkpt>
      <trkpt lat="47.81227" lon="-2.48501">
        <ele>93.3</ele>
        <time>2025-02-11T11:30:39Z</time>
      </trkpt>
      <trkpt lat="47.81227" lon="-2.48503">
        <ele>93.2</ele>
        <time>2025-02-11T11:30:40Z</time>
      </trkpt>
      <trkpt lat="47.81227" lon="-2.48505">
        <ele>93.1</ele>
        <time>2025-02-11T11:30:41Z</time>
      </trkpt>
      <trkpt lat="47.81228" lon="-2.48506">
        <ele>93</ele>
        <time>2025-02-11T11:30:42Z</time>
      </trkpt>
      <trkpt lat="47.81227" lon="-2.48508">
        <ele>92.8</ele>
        <time>2025-02-11T11:30:43Z</time>
      </trkpt>
      <trkpt lat="47.81227" lon="-2.4851">
        <ele>92.6</ele>
        <time>2025-02-11T11:30:44Z</time>
      </trkpt>
      <trkpt lat="47.81226" lon="-2.48512">
        <ele>92.4</ele>
        <time>2025-02-11T11:30:45Z</time>
      </trkpt>
      <trkpt lat="47.81224" lon="-2.48513">
        <ele>92.2</ele>
        <time>2025-02-11T11:30:46Z</time>
      </trkpt>
      <trkpt lat="47.81223" lon="-2.48514">
        <ele>92.1</ele>
        <time>2025-02-11T11:30:47Z</time>
      </trkpt>
      <trkpt lat="47.81221" lon="-2.48514">
        <ele>92</ele>
        <time>2025-02-11T11:30:48Z</time>
      </trkpt>
      <trkpt lat="47.81219" lon="-2.48514">
        <ele>92</ele>
        <time>2025-02-11T11:30:49Z</time>
      </trkpt>
      <trkpt lat="47.81217" lon="-2.48513">
        <ele>92.1</ele>
        <time>2025-02-11T11:30:50Z</time>
      </trkpt>
      <trkpt lat="47.81215" lon="-2.48512">
        <ele>92.1</ele>
        <time>2025-02-11T11:30:51Z</time>
      </trkpt>
      <trkpt lat="47.81214" lon="-2.48512">
        <ele>92.1</ele>
        <time>2025-02-11T11:30:52Z</time>
      </trkpt>
      <trkpt lat="47.81212" lon="-2.48512">
        <ele>92.1</ele>
        <time>2025-02-11T11:30:53Z</time>
      </trkpt>
      <trkpt lat="47.81211" lon="-2.48513">
        <ele>92.1</ele>
        <time>2025-02-11T11:30:54Z</time>
      </trkpt>
      <trkpt lat="47.8121" lon="-2.48512">
        <ele>92.1</ele>
        <time>2025-02-11T11:30:55Z</time>
      </trkpt>
      <trkpt lat="47.81208" lon="-2.48512">
        <ele>92.2</ele>
        <time>2025-02-11T11:30:56Z</time>
      </trkpt>
      <trkpt lat="47.81207" lon="-2.48512">
        <ele>92.2</ele>
        <time>2025-02-11T11:30:57Z</time>
      </trkpt>
      <trkpt lat="47.81205" lon="-2.48512">
        <ele>92.1</ele>
        <time>2025-02-11T11:30:58Z</time>
      </trkpt>
      <trkpt lat="47.81204" lon="-2.48513">
        <ele>92.1</ele>
        <time>2025-02-11T11:30:59Z</time>
      </trkpt>
      <trkpt lat="47.81202" lon="-2.48513">
        <ele>92.1</ele>
        <time>2025-02-11T11:31:00Z</time>
      </trkpt>
      <trkpt lat="47.81201" lon="-2.48513">
        <ele>92.1</ele>
        <time>2025-02-11T11:31:01Z</time>
      </trkpt>
      <trkpt lat="47.81199" lon="-2.48513">
        <ele>92</ele>
        <time>2025-02-11T11:31:02Z</time>
      </trkpt>
      <trkpt lat="47.81198" lon="-2.48513">
        <ele>92</ele>
        <time>2025-02-11T11:31:03Z</time>
      </trkpt>
      <trkpt lat="47.81197" lon="-2.48513">
        <ele>92</ele>
        <time>2025-02-11T11:31:04Z</time>
      </trkpt>
      <trkpt lat="47.81195" lon="-2.48514">
        <ele>92</ele>
        <time>2025-02-11T11:31:05Z</time>
      </trkpt>
      <trkpt lat="47.81194" lon="-2.48515">
        <ele>92</ele>
        <time>2025-02-11T11:31:06Z</time>
      </trkpt>
      <trkpt lat="47.81192" lon="-2.48515">
        <ele>92</ele>
        <time>2025-02-11T11:31:07Z</time>
      </trkpt>
      <trkpt lat="47.81191" lon="-2.48515">
        <ele>92.1</ele>
        <time>2025-02-11T11:31:08Z</time>
      </trkpt>
      <trkpt lat="47.8119" lon="-2.48515">
        <ele>92.1</ele>
        <time>2025-02-11T11:31:09Z</time>
      </trkpt>
      <trkpt lat="47.81189" lon="-2.48515">
        <ele>92.1</ele>
        <time>2025-02-11T11:31:10Z</time>
      </trkpt>
      <trkpt lat="47.81188" lon="-2.48516">
        <ele>92.1</ele>
        <time>2025-02-11T11:31:11Z</time>
      </trkpt>
      <trkpt lat="47.81186" lon="-2.48516">
        <ele>92.1</ele>
        <time>2025-02-11T11:31:12Z</time>
      </trkpt>
      <trkpt lat="47.81185" lon="-2.48517">
        <ele>92.1</ele>
        <time>2025-02-11T11:31:13Z</time>
      </trkpt>
      <trkpt lat="47.81184" lon="-2.48517">
        <ele>92.2</ele>
        <time>2025-02-11T11:31:14Z</time>
      </trkpt>
      <trkpt lat="47.81182" lon="-2.48517">
        <ele>92.2</ele>
        <time>2025-02-11T11:31:15Z</time>
      </trkpt>
      <trkpt lat="47.81181" lon="-2.48517">
        <ele>92.3</ele>
        <time>2025-02-11T11:31:16Z</time>
      </trkpt>
      <trkpt lat="47.8118" lon="-2.48517">
        <ele>92.3</ele>
        <time>2025-02-11T11:31:17Z</time>
      </trkpt>
      <trkpt lat="47.81178" lon="-2.48518">
        <ele>92.3</ele>
        <time>2025-02-11T11:31:18Z</time>
      </trkpt>
      <trkpt lat="47.81177" lon="-2.48518">
        <ele>92.3</ele>
        <time>2025-02-11T11:31:19Z</time>
      </trkpt>
      <trkpt lat="47.81176" lon="-2.48519">
        <ele>92.3</ele>
        <time>2025-02-11T11:31:20Z</time>
      </trkpt>
      <trkpt lat="47.81175" lon="-2.48519">
        <ele>92.3</ele>
        <time>2025-02-11T11:31:21Z</time>
      </trkpt>
      <trkpt lat="47.81174" lon="-2.4852">
        <ele>92.3</ele>
        <time>2025-02-11T11:31:22Z</time>
      </trkpt>
      <trkpt lat="47.81172" lon="-2.4852">
        <ele>92.3</ele>
        <time>2025-02-11T11:31:23Z</time>
      </trkpt>
      <trkpt lat="47.81171" lon="-2.48521">
        <ele>92.3</ele>
        <time>2025-02-11T11:31:24Z</time>
      </trkpt>
      <trkpt lat="47.81171" lon="-2.48522">
        <ele>92.3</ele>
        <time>2025-02-11T11:31:25Z</time>
      </trkpt>
      <trkpt lat="47.8117" lon="-2.48522">
        <ele>92.3</ele>
        <time>2025-02-11T11:31:26Z</time>
      </trkpt>
      <trkpt lat="47.81169" lon="-2.48522">
        <ele>92.3</ele>
        <time>2025-02-11T11:31:27Z</time>
      </trkpt>
      <trkpt lat="47.81168" lon="-2.48522">
        <ele>92.4</ele>
        <time>2025-02-11T11:31:28Z</time>
      </trkpt>
      <trkpt lat="47.81167" lon="-2.48522">
        <ele>92.4</ele>
        <time>2025-02-11T11:31:29Z</time>
      </trkpt>
      <trkpt lat="47.81166" lon="-2.48522">
        <ele>92.4</ele>
        <time>2025-02-11T11:31:30Z</time>
      </trkpt>
      <trkpt lat="47.81165" lon="-2.48522">
        <ele>92.4</ele>
        <time>2025-02-11T11:31:31Z</time>
      </trkpt>
      <trkpt lat="47.81164" lon="-2.48522">
        <ele>92.4</ele>
        <time>2025-02-11T11:31:32Z</time>
      </trkpt>
      <trkpt lat="47.81162" lon="-2.48522">
        <ele>92.4</ele>
        <time>2025-02-11T11:31:33Z</time>
      </trkpt>
      <trkpt lat="47.81161" lon="-2.48522">
        <ele>92.4</ele>
        <time>2025-02-11T11:31:34Z</time>
      </trkpt>
      <trkpt lat="47.81161" lon="-2.48522">
        <ele>92.4</ele>
        <time>2025-02-11T11:31:35Z</time>
      </trkpt>
      <trkpt lat="47.8116" lon="-2.48522">
        <ele>92.4</ele>
        <time>2025-02-11T11:31:36Z</time>
      </trkpt>
      <trkpt lat="47.81159" lon="-2.48522">
        <ele>92.4</ele>
        <time>2025-02-11T11:31:37Z</time>
      </trkpt>
      <trkpt lat="47.81158" lon="-2.48522">
        <ele>92.3</ele>
        <time>2025-02-11T11:31:38Z</time>
      </trkpt>
      <trkpt lat="47.81157" lon="-2.48522">
        <ele>92.3</ele>
        <time>2025-02-11T11:31:39Z</time>
      </trkpt>
      <trkpt lat="47.81156" lon="-2.48523">
        <ele>92.3</ele>
        <time>2025-02-11T11:31:40Z</time>
      </trkpt>
      <trkpt lat="47.81155" lon="-2.48523">
        <ele>92.3</ele>
        <time>2025-02-11T11:31:41Z</time>
      </trkpt>
      <trkpt lat="47.81154" lon="-2.48522">
        <ele>92.3</ele>
        <time>2025-02-11T11:31:42Z</time>
      </trkpt>
      <trkpt lat="47.81153" lon="-2.48523">
        <ele>92.3</ele>
        <time>2025-02-11T11:31:43Z</time>
      </trkpt>
      <trkpt lat="47.81152" lon="-2.48524">
        <ele>92.2</ele>
        <time>2025-02-11T11:31:44Z</time>
      </trkpt>
      <trkpt lat="47.81151" lon="-2.48525">
        <ele>92.2</ele>
        <time>2025-02-11T11:31:45Z</time>
      </trkpt>
      <trkpt lat="47.8115" lon="-2.48526">
        <ele>92.1</ele>
        <time>2025-02-11T11:31:46Z</time>
      </trkpt>
      <trkpt lat="47.81149" lon="-2.48526">
        <ele>92.1</ele>
        <time>2025-02-11T11:31:47Z</time>
      </trkpt>
      <trkpt lat="47.81148" lon="-2.48527">
        <ele>92.1</ele>
        <time>2025-02-11T11:31:48Z</time>
      </trkpt>
      <trkpt lat="47.81147" lon="-2.48527">
        <ele>92</ele>
        <time>2025-02-11T11:31:49Z</time>
      </trkpt>
      <trkpt lat="47.81146" lon="-2.48528">
        <ele>92</ele>
        <time>2025-02-11T11:31:50Z</time>
      </trkpt>
      <trkpt lat="47.81145" lon="-2.48529">
        <ele>92</ele>
        <time>2025-02-11T11:31:51Z</time>
      </trkpt>
      <trkpt lat="47.81144" lon="-2.4853">
        <ele>91.9</ele>
        <time>2025-02-11T11:31:52Z</time>
      </trkpt>
      <trkpt lat="47.81143" lon="-2.48531">
        <ele>91.9</ele>
        <time>2025-02-11T11:31:53Z</time>
      </trkpt>
      <trkpt lat="47.81142" lon="-2.48531">
        <ele>91.9</ele>
        <time>2025-02-11T11:31:54Z</time>
      </trkpt>
      <trkpt lat="47.81141" lon="-2.48531">
        <ele>91.9</ele>
        <time>2025-02-11T11:31:55Z</time>
      </trkpt>
      <trkpt lat="47.81139" lon="-2.48532">
        <ele>91.9</ele>
        <time>2025-02-11T11:31:56Z</time>
      </trkpt>
      <trkpt lat="47.81138" lon="-2.48532">
        <ele>91.8</ele>
        <time>2025-02-11T11:31:57Z</time>
      </trkpt>
      <trkpt lat="47.81137" lon="-2.48532">
        <ele>91.8</ele>
        <time>2025-02-11T11:31:58Z</time>
      </trkpt>
      <trkpt lat="47.81136" lon="-2.48532">
        <ele>91.7</ele>
        <time>2025-02-11T11:31:59Z</time>
      </trkpt>
      <trkpt lat="47.81134" lon="-2.48532">
        <ele>91.7</ele>
        <time>2025-02-11T11:32:00Z</time>
      </trkpt>
      <trkpt lat="47.81133" lon="-2.48533">
        <ele>91.6</ele>
        <time>2025-02-11T11:32:01Z</time>
      </trkpt>
      <trkpt lat="47.81132" lon="-2.48533">
        <ele>91.6</ele>
        <time>2025-02-11T11:32:02Z</time>
      </trkpt>
      <trkpt lat="47.81131" lon="-2.48534">
        <ele>91.5</ele>
        <time>2025-02-11T11:32:03Z</time>
      </trkpt>
      <trkpt lat="47.8113" lon="-2.48534">
        <ele>91.4</ele>
        <time>2025-02-11T11:32:04Z</time>
      </trkpt>
      <trkpt lat="47.81129" lon="-2.48535">
        <ele>91.4</ele>
        <time>2025-02-11T11:32:05Z</time>
      </trkpt>
      <trkpt lat="47.81128" lon="-2.48535">
        <ele>91.3</ele>
        <time>2025-02-11T11:32:06Z</time>
      </trkpt>
      <trkpt lat="47.81127" lon="-2.48535">
        <ele>91.3</ele>
        <time>2025-02-11T11:32:07Z</time>
      </trkpt>
      <trkpt lat="47.81125" lon="-2.48535">
        <ele>91.3</ele>
        <time>2025-02-11T11:32:08Z</time>
      </trkpt>
      <trkpt lat="47.81124" lon="-2.48535">
        <ele>91.2</ele>
        <time>2025-02-11T11:32:09Z</time>
      </trkpt>
      <trkpt lat="47.81123" lon="-2.48536">
        <ele>91.2</ele>
        <time>2025-02-11T11:32:10Z</time>
      </trkpt>
      <trkpt lat="47.81122" lon="-2.48536">
        <ele>91.1</ele>
        <time>2025-02-11T11:32:11Z</time>
      </trkpt>
      <trkpt lat="47.81121" lon="-2.48537">
        <ele>91</ele>
        <time>2025-02-11T11:32:12Z</time>
      </trkpt>
      <trkpt lat="47.8112" lon="-2.48538">
        <ele>91</ele>
        <time>2025-02-11T11:32:13Z</time>
      </trkpt>
      <trkpt lat="47.81119" lon="-2.48538">
        <ele>90.9</ele>
        <time>2025-02-11T11:32:14Z</time>
      </trkpt>
      <trkpt lat="47.81118" lon="-2.48539">
        <ele>90.9</ele>
        <time>2025-02-11T11:32:15Z</time>
      </trkpt>
      <trkpt lat="47.81117" lon="-2.48539">
        <ele>90.8</ele>
        <time>2025-02-11T11:32:16Z</time>
      </trkpt>
      <trkpt lat="47.81117" lon="-2.48539">
        <ele>90.8</ele>
        <time>2025-02-11T11:32:17Z</time>
      </trkpt>
      <trkpt lat="47.81117" lon="-2.48539">
        <ele>90.8</ele>
        <time>2025-02-11T11:32:18Z</time>
      </trkpt>
      <trkpt lat="47.81117" lon="-2.48539">
        <ele>90.8</ele>
        <time>2025-02-11T11:32:19Z</time>
      </trkpt>
      <trkpt lat="47.81117" lon="-2.48539">
        <ele>90.8</ele>
        <time>2025-02-11T11:32:20Z</time>
      </trkpt>
      <trkpt lat="47.81117" lon="-2.48539">
        <ele>90.8</ele>
        <time>2025-02-11T11:32:21Z</time>
      </trkpt>
      <trkpt lat="47.81117" lon="-2.48539">
        <ele>90.8</ele>
        <time>2025-02-11T11:32:22Z</time>
      </trkpt>
      <trkpt lat="47.81117" lon="-2.48539">
        <ele>90.8</ele>
        <time>2025-02-11T11:32:23Z</time>
      </trkpt>
      <trkpt lat="47.81117" lon="-2.48539">
        <ele>90.8</ele>
        <time>2025-02-11T11:32:24Z</time>
      </trkpt>
      <trkpt lat="47.81117" lon="-2.48539">
        <ele>90.8</ele>
        <time>2025-02-11T11:32:25Z</time>
      </trkpt>
      <trkpt lat="47.81117" lon="-2.48539">
        <ele>90.8</ele>
        <time>2025-02-11T11:32:26Z</time>
      </trkpt>
      <trkpt lat="47.81117" lon="-2.4854">
        <ele>90.8</ele>
        <time>2025-02-11T11:32:27Z</time>
      </trkpt>
      <trkpt lat="47.81116" lon="-2.4854">
        <ele>90.7</ele>
        <time>2025-02-11T11:32:28Z</time>
      </trkpt>
      <trkpt lat="47.81115" lon="-2.48541">
        <ele>90.7</ele>
        <time>2025-02-11T11:32:29Z</time>
      </trkpt>
      <trkpt lat="47.81114" lon="-2.48541">
        <ele>90.6</ele>
        <time>2025-02-11T11:32:30Z</time>
      </trkpt>
      <trkpt lat="47.81112" lon="-2.48542">
        <ele>90.5</ele>
        <time>2025-02-11T11:32:31Z</time>
      </trkpt>
      <trkpt lat="47.81111" lon="-2.48542">
        <ele>90.5</ele>
        <time>2025-02-11T11:32:32Z</time>
      </trkpt>
      <trkpt lat="47.8111" lon="-2.48543">
        <ele>90.3</ele>
        <time>2025-02-11T11:32:33Z</time>
      </trkpt>
      <trkpt lat="47.81109" lon="-2.48543">
        <ele>90</ele>
        <time>2025-02-11T11:32:34Z</time>
      </trkpt>
      <trkpt lat="47.81108" lon="-2.48543">
        <ele>89.8</ele>
        <time>2025-02-11T11:32:35Z</time>
      </trkpt>
      <trkpt lat="47.81107" lon="-2.48543">
        <ele>89.6</ele>
        <time>2025-02-11T11:32:36Z</time>
      </trkpt>
      <trkpt lat="47.81107" lon="-2.48544">
        <ele>89.4</ele>
        <time>2025-02-11T11:32:37Z</time>
      </trkpt>
      <trkpt lat="47.81106" lon="-2.48544">
        <ele>89.1</ele>
        <time>2025-02-11T11:32:38Z</time>
      </trkpt>
      <trkpt lat="47.81105" lon="-2.48544">
        <ele>88.9</ele>
        <time>2025-02-11T11:32:39Z</time>
      </trkpt>
      <trkpt lat="47.81104" lon="-2.48544">
        <ele>88.7</ele>
        <time>2025-02-11T11:32:40Z</time>
      </trkpt>
      <trkpt lat="47.81104" lon="-2.48544">
        <ele>88.8</ele>
        <time>2025-02-11T11:32:41Z</time>
      </trkpt>
      <trkpt lat="47.81104" lon="-2.48544">
        <ele>88.8</ele>
        <time>2025-02-11T11:32:42Z</time>
      </trkpt>
      <trkpt lat="47.81104" lon="-2.48544">
        <ele>88.8</ele>
        <time>2025-02-11T11:32:43Z</time>
      </trkpt>
      <trkpt lat="47.81104" lon="-2.48543">
        <ele>88.8</ele>
        <time>2025-02-11T11:32:44Z</time>
      </trkpt>
      <trkpt lat="47.81104" lon="-2.48543">
        <ele>88.8</ele>
        <time>2025-02-11T11:32:45Z</time>
      </trkpt>
      <trkpt lat="47.81104" lon="-2.48543">
        <ele>88.8</ele>
        <time>2025-02-11T11:32:46Z</time>
      </trkpt>
      <trkpt lat="47.81104" lon="-2.48543">
        <ele>88.8</ele>
        <time>2025-02-11T11:32:47Z</time>
      </trkpt>
      <trkpt lat="47.81104" lon="-2.48543">
        <ele>88.9</ele>
        <time>2025-02-11T11:32:48Z</time>
      </trkpt>
      <trkpt lat="47.81104" lon="-2.48543">
        <ele>88.9</ele>
        <time>2025-02-11T11:32:49Z</time>
      </trkpt>
      <trkpt lat="47.81104" lon="-2.48543">
        <ele>88.9</ele>
        <time>2025-02-11T11:32:50Z</time>
      </trkpt>
      <trkpt lat="47.81104" lon="-2.48544">
        <ele>88.9</ele>
        <time>2025-02-11T11:32:51Z</time>
      </trkpt>
      <trkpt lat="47.81104" lon="-2.48545">
        <ele>88.9</ele>
        <time>2025-02-11T11:32:52Z</time>
      </trkpt>
      <trkpt lat="47.81104" lon="-2.48545">
        <ele>88.8</ele>
        <time>2025-02-11T11:32:53Z</time>
      </trkpt>
      <trkpt lat="47.81104" lon="-2.48545">
        <ele>88.7</ele>
        <time>2025-02-11T11:32:54Z</time>
      </trkpt>
      <trkpt lat="47.81103" lon="-2.48546">
        <ele>88.6</ele>
        <time>2025-02-11T11:32:55Z</time>
      </trkpt>
      <trkpt lat="47.81103" lon="-2.48546">
        <ele>88.5</ele>
        <time>2025-02-11T11:32:56Z</time>
      </trkpt>
      <trkpt lat="47.81103" lon="-2.48547">
        <ele>88.4</ele>
        <time>2025-02-11T11:32:57Z</time>
      </trkpt>
      <trkpt lat="47.81102" lon="-2.48548">
        <ele>88.3</ele>
        <time>2025-02-11T11:32:58Z</time>
      </trkpt>
      <trkpt lat="47.81102" lon="-2.48548">
        <ele>88.1</ele>
        <time>2025-02-11T11:32:59Z</time>
      </trkpt>
      <trkpt lat="47.81102" lon="-2.48548">
        <ele>88.1</ele>
        <time>2025-02-11T11:33:00Z</time>
      </trkpt>
      <trkpt lat="47.81102" lon="-2.48548">
        <ele>88.2</ele>
        <time>2025-02-11T11:33:01Z</time>
      </trkpt>
      <trkpt lat="47.81102" lon="-2.48548">
        <ele>88.3</ele>
        <time>2025-02-11T11:33:02Z</time>
      </trkpt>
      <trkpt lat="47.81102" lon="-2.48548">
        <ele>88.3</ele>
        <time>2025-02-11T11:33:03Z</time>
      </trkpt>
      <trkpt lat="47.81102" lon="-2.48548">
        <ele>88.3</ele>
        <time>2025-02-11T11:33:04Z</time>
      </trkpt>
      <trkpt lat="47.81102" lon="-2.48548">
        <ele>88.3</ele>
        <time>2025-02-11T11:33:05Z</time>
      </trkpt>
      <trkpt lat="47.81102" lon="-2.48548">
        <ele>88.3</ele>
        <time>2025-02-11T11:33:06Z</time>
      </trkpt>
      <trkpt lat="47.81102" lon="-2.48548">
        <ele>88.3</ele>
        <time>2025-02-11T11:33:07Z</time>
      </trkpt>
      <trkpt lat="47.81102" lon="-2.48548">
        <ele>88.3</ele>
        <time>2025-02-11T11:33:08Z</time>
      </trkpt>
      <trkpt lat="47.81102" lon="-2.48548">
        <ele>88.3</ele>
        <time>2025-02-11T11:33:09Z</time>
      </trkpt>
      <trkpt lat="47.81102" lon="-2.48548">
        <ele>88.3</ele>
        <time>2025-02-11T11:33:10Z</time>
      </trkpt>
      <trkpt lat="47.81102" lon="-2.48548">
        <ele>88.3</ele>
        <time>2025-02-11T11:33:11Z</time>
      </trkpt>
      <trkpt lat="47.81102" lon="-2.48548">
        <ele>88.3</ele>
        <time>2025-02-11T11:33:12Z</time>
      </trkpt>
      <trkpt lat="47.81102" lon="-2.48548">
        <ele>88.3</ele>
        <time>2025-02-11T11:33:13Z</time>
      </trkpt>
      <trkpt lat="47.81102" lon="-2.48548">
        <ele>88.3</ele>
        <time>2025-02-11T11:33:14Z</time>
      </trkpt>
      <trkpt lat="47.81102" lon="-2.48547">
        <ele>88.3</ele>
        <time>2025-02-11T11:33:15Z</time>
      </trkpt>
      <trkpt lat="47.81102" lon="-2.48547">
        <ele>88.3</ele>
        <time>2025-02-11T11:33:16Z</time>
      </trkpt>
      <trkpt lat="47.81102" lon="-2.48547">
        <ele>88.3</ele>
        <time>2025-02-11T11:33:17Z</time>
      </trkpt>
      <trkpt lat="47.81102" lon="-2.48547">
        <ele>88.3</ele>
        <time>2025-02-11T11:33:18Z</time>
      </trkpt>
      <trkpt lat="47.81102" lon="-2.48547">
        <ele>88.3</ele>
        <time>2025-02-11T11:33:19Z</time>
      </trkpt>
      <trkpt lat="47.81102" lon="-2.48547">
        <ele>88.3</ele>
        <time>2025-02-11T11:33:20Z</time>
      </trkpt>
      <trkpt lat="47.81103" lon="-2.48547">
        <ele>88.3</ele>
        <time>2025-02-11T11:33:21Z</time>
      </trkpt>
      <trkpt lat="47.81103" lon="-2.48547">
        <ele>88.3</ele>
        <time>2025-02-11T11:33:22Z</time>
      </trkpt>
      <trkpt lat="47.81103" lon="-2.48547">
        <ele>88.3</ele>
        <time>2025-02-11T11:33:23Z</time>
      </trkpt>
      <trkpt lat="47.81103" lon="-2.48547">
        <ele>88.3</ele>
        <time>2025-02-11T11:33:24Z</time>
      </trkpt>
      <trkpt lat="47.81103" lon="-2.48547">
        <ele>88.3</ele>
        <time>2025-02-11T11:33:25Z</time>
      </trkpt>
      <trkpt lat="47.81103" lon="-2.48547">
        <ele>88.3</ele>
        <time>2025-02-11T11:33:26Z</time>
      </trkpt>
      <trkpt lat="47.81102" lon="-2.48547">
        <ele>88.3</ele>
        <time>2025-02-11T11:33:27Z</time>
      </trkpt>
      <trkpt lat="47.81103" lon="-2.48547">
        <ele>88.4</ele>
        <time>2025-02-11T11:33:28Z</time>
      </trkpt>
      <trkpt lat="47.81103" lon="-2.48547">
        <ele>88.4</ele>
        <time>2025-02-11T11:33:29Z</time>
      </trkpt>
      <trkpt lat="47.81103" lon="-2.48547">
        <ele>88.4</ele>
        <time>2025-02-11T11:33:30Z</time>
      </trkpt>
      <trkpt lat="47.81103" lon="-2.48547">
        <ele>88.4</ele>
        <time>2025-02-11T11:33:31Z</time>
      </trkpt>
      <trkpt lat="47.81103" lon="-2.48547">
        <ele>88.4</ele>
        <time>2025-02-11T11:33:32Z</time>
      </trkpt>
      <trkpt lat="47.81103" lon="-2.48547">
        <ele>88.4</ele>
        <time>2025-02-11T11:33:33Z</time>
      </trkpt>
      <trkpt lat="47.81103" lon="-2.48547">
        <ele>88.4</ele>
        <time>2025-02-11T11:33:34Z</time>
      </trkpt>
      <trkpt lat="47.81103" lon="-2.48547">
        <ele>88.4</ele>
        <time>2025-02-11T11:33:35Z</time>
      </trkpt>
      <trkpt lat="47.81103" lon="-2.48547">
        <ele>88.4</ele>
        <time>2025-02-11T11:33:36Z</time>
      </trkpt>
      <trkpt lat="47.81103" lon="-2.48547">
        <ele>88.4</ele>
        <time>2025-02-11T11:33:37Z</time>
      </trkpt>
      <trkpt lat="47.81103" lon="-2.48547">
        <ele>88.4</ele>
        <time>2025-02-11T11:33:38Z</time>
      </trkpt>
      <trkpt lat="47.81103" lon="-2.48547">
        <ele>88.4</ele>
        <time>2025-02-11T11:33:39Z</time>
      </trkpt>
      <trkpt lat="47.81103" lon="-2.48547">
        <ele>88.4</ele>
        <time>2025-02-11T11:33:40Z</time>
      </trkpt>
      <trkpt lat="47.81103" lon="-2.48547">
        <ele>88.4</ele>
        <time>2025-02-11T11:33:41Z</time>
      </trkpt>
      <trkpt lat="47.81103" lon="-2.48547">
        <ele>88.4</ele>
        <time>2025-02-11T11:33:42Z</time>
      </trkpt>
      <trkpt lat="47.81103" lon="-2.48547">
        <ele>88.4</ele>
        <time>2025-02-11T11:33:43Z</time>
      </trkpt>
      <trkpt lat="47.81103" lon="-2.48547">
        <ele>88.4</ele>
        <time>2025-02-11T11:33:44Z</time>
      </trkpt>
      <trkpt lat="47.81103" lon="-2.48547">
        <ele>88.4</ele>
        <time>2025-02-11T11:33:45Z</time>
      </trkpt>
      <trkpt lat="47.81103" lon="-2.48547">
        <ele>88.4</ele>
        <time>2025-02-11T11:33:46Z</time>
      </trkpt>
      <trkpt lat="47.81103" lon="-2.48547">
        <ele>88.4</ele>
        <time>2025-02-11T11:33:47Z</time>
      </trkpt>
      <trkpt lat="47.81103" lon="-2.48547">
        <ele>88.4</ele>
        <time>2025-02-11T11:33:48Z</time>
      </trkpt>
      <trkpt lat="47.81103" lon="-2.48547">
        <ele>88.4</ele>
        <time>2025-02-11T11:33:49Z</time>
      </trkpt>
      <trkpt lat="47.81103" lon="-2.48547">
        <ele>88.4</ele>
        <time>2025-02-11T11:33:50Z</time>
      </trkpt>
      <trkpt lat="47.81103" lon="-2.48547">
        <ele>88.4</ele>
        <time>2025-02-11T11:33:51Z</time>
      </trkpt>
      <trkpt lat="47.81103" lon="-2.48547">
        <ele>88.4</ele>
        <time>2025-02-11T11:33:52Z</time>
      </trkpt>
      <trkpt lat="47.81103" lon="-2.48547">
        <ele>88.5</ele>
        <time>2025-02-11T11:33:53Z</time>
      </trkpt>
      <trkpt lat="47.81103" lon="-2.48547">
        <ele>88.5</ele>
        <time>2025-02-11T11:33:54Z</time>
      </trkpt>
      <trkpt lat="47.81103" lon="-2.48547">
        <ele>88.5</ele>
        <time>2025-02-11T11:33:55Z</time>
      </trkpt>
      <trkpt lat="47.81103" lon="-2.48547">
        <ele>88.5</ele>
        <time>2025-02-11T11:33:56Z</time>
      </trkpt>
      <trkpt lat="47.81103" lon="-2.48547">
        <ele>88.5</ele>
        <time>2025-02-11T11:33:57Z</time>
      </trkpt>
      <trkpt lat="47.81103" lon="-2.48547">
        <ele>88.5</ele>
        <time>2025-02-11T11:33:58Z</time>
      </trkpt>
      <trkpt lat="47.81103" lon="-2.48547">
        <ele>88.5</ele>
        <time>2025-02-11T11:33:59Z</time>
      </trkpt>
      <trkpt lat="47.81103" lon="-2.48547">
        <ele>88.5</ele>
        <time>2025-02-11T11:34:00Z</time>
      </trkpt>
      <trkpt lat="47.81103" lon="-2.48547">
        <ele>88.5</ele>
        <time>2025-02-11T11:34:01Z</time>
      </trkpt>
      <trkpt lat="47.81103" lon="-2.48547">
        <ele>88.5</ele>
        <time>2025-02-11T11:34:02Z</time>
      </trkpt>
      <trkpt lat="47.81103" lon="-2.48547">
        <ele>88.5</ele>
        <time>2025-02-11T11:34:03Z</time>
      </trkpt>
      <trkpt lat="47.81103" lon="-2.48547">
        <ele>88.5</ele>
        <time>2025-02-11T11:34:04Z</time>
      </trkpt>
      <trkpt lat="47.81103" lon="-2.48547">
        <ele>88.5</ele>
        <time>2025-02-11T11:34:05Z</time>
      </trkpt>
      <trkpt lat="47.81103" lon="-2.48547">
        <ele>88.5</ele>
        <time>2025-02-11T11:34:06Z</time>
      </trkpt>
      <trkpt lat="47.81103" lon="-2.48547">
        <ele>88.5</ele>
        <time>2025-02-11T11:34:07Z</time>
      </trkpt>
      <trkpt lat="47.81103" lon="-2.48547">
        <ele>88.5</ele>
        <time>2025-02-11T11:34:08Z</time>
      </trkpt>
      <trkpt lat="47.81103" lon="-2.48547">
        <ele>88.5</ele>
        <time>2025-02-11T11:34:09Z</time>
      </trkpt>
      <trkpt lat="47.81103" lon="-2.48547">
        <ele>88.5</ele>
        <time>2025-02-11T11:34:10Z</time>
      </trkpt>
      <trkpt lat="47.81103" lon="-2.48547">
        <ele>88.5</ele>
        <time>2025-02-11T11:34:11Z</time>
      </trkpt>
      <trkpt lat="47.81103" lon="-2.48547">
        <ele>88.5</ele>
        <time>2025-02-11T11:34:12Z</time>
      </trkpt>
      <trkpt lat="47.81103" lon="-2.48547">
        <ele>88.5</ele>
        <time>2025-02-11T11:34:13Z</time>
      </trkpt>
      <trkpt lat="47.81103" lon="-2.48547">
        <ele>88.5</ele>
        <time>2025-02-11T11:34:14Z</time>
      </trkpt>
      <trkpt lat="47.81103" lon="-2.48547">
        <ele>88.5</ele>
        <time>2025-02-11T11:34:15Z</time>
      </trkpt>
      <trkpt lat="47.81103" lon="-2.48547">
        <ele>88.5</ele>
        <time>2025-02-11T11:34:16Z</time>
      </trkpt>
      <trkpt lat="47.81103" lon="-2.48547">
        <ele>88.5</ele>
        <time>2025-02-11T11:34:17Z</time>
      </trkpt>
      <trkpt lat="47.81103" lon="-2.48547">
        <ele>88.5</ele>
        <time>2025-02-11T11:34:18Z</time>
      </trkpt>
      <trkpt lat="47.81103" lon="-2.48547">
        <ele>88.5</ele>
        <time>2025-02-11T11:34:19Z</time>
      </trkpt>
      <trkpt lat="47.81103" lon="-2.48546">
        <ele>88.5</ele>
        <time>2025-02-11T11:34:20Z</time>
      </trkpt>
      <trkpt lat="47.81103" lon="-2.48546">
        <ele>88.5</ele>
        <time>2025-02-11T11:34:21Z</time>
      </trkpt>
      <trkpt lat="47.81103" lon="-2.48546">
        <ele>88.5</ele>
        <time>2025-02-11T11:34:22Z</time>
      </trkpt>
      <trkpt lat="47.81103" lon="-2.48546">
        <ele>88.5</ele>
        <time>2025-02-11T11:34:23Z</time>
      </trkpt>
      <trkpt lat="47.81103" lon="-2.48546">
        <ele>88.5</ele>
        <time>2025-02-11T11:34:24Z</time>
      </trkpt>
      <trkpt lat="47.81103" lon="-2.48546">
        <ele>88.5</ele>
        <time>2025-02-11T11:34:25Z</time>
      </trkpt>
      <trkpt lat="47.81103" lon="-2.48546">
        <ele>88.5</ele>
        <time>2025-02-11T11:34:26Z</time>
      </trkpt>
      <trkpt lat="47.81103" lon="-2.48546">
        <ele>88.5</ele>
        <time>2025-02-11T11:34:27Z</time>
      </trkpt>
      <trkpt lat="47.81103" lon="-2.48546">
        <ele>88.5</ele>
        <time>2025-02-11T11:34:28Z</time>
      </trkpt>
      <trkpt lat="47.81103" lon="-2.48546">
        <ele>88.5</ele>
        <time>2025-02-11T11:34:29Z</time>
      </trkpt>
      <trkpt lat="47.81103" lon="-2.48546">
        <ele>88.5</ele>
        <time>2025-02-11T11:34:30Z</time>
      </trkpt>
      <trkpt lat="47.81103" lon="-2.48546">
        <ele>88.5</ele>
        <time>2025-02-11T11:34:31Z</time>
      </trkpt>
      <trkpt lat="47.81103" lon="-2.48546">
        <ele>88.5</ele>
        <time>2025-02-11T11:34:32Z</time>
      </trkpt>
      <trkpt lat="47.81103" lon="-2.48546">
        <ele>88.5</ele>
        <time>2025-02-11T11:34:33Z</time>
      </trkpt>
      <trkpt lat="47.81103" lon="-2.48546">
        <ele>88.5</ele>
        <time>2025-02-11T11:34:34Z</time>
      </trkpt>
      <trkpt lat="47.81103" lon="-2.48546">
        <ele>88.5</ele>
        <time>2025-02-11T11:34:35Z</time>
      </trkpt>
      <trkpt lat="47.81103" lon="-2.48546">
        <ele>88.5</ele>
        <time>2025-02-11T11:34:36Z</time>
      </trkpt>
      <trkpt lat="47.81103" lon="-2.48546">
        <ele>88.5</ele>
        <time>2025-02-11T11:34:37Z</time>
      </trkpt>
      <trkpt lat="47.81103" lon="-2.48546">
        <ele>88.5</ele>
        <time>2025-02-11T11:34:38Z</time>
      </trkpt>
      <trkpt lat="47.81103" lon="-2.48546">
        <ele>88.5</ele>
        <time>2025-02-11T11:34:39Z</time>
      </trkpt>
      <trkpt lat="47.81103" lon="-2.48546">
        <ele>88.5</ele>
        <time>2025-02-11T11:34:40Z</time>
      </trkpt>
      <trkpt lat="47.81103" lon="-2.48546">
        <ele>88.5</ele>
        <time>2025-02-11T11:34:41Z</time>
      </trkpt>
      <trkpt lat="47.81103" lon="-2.48546">
        <ele>88.5</ele>
        <time>2025-02-11T11:34:42Z</time>
      </trkpt>
      <trkpt lat="47.81103" lon="-2.48546">
        <ele>88.5</ele>
        <time>2025-02-11T11:34:43Z</time>
      </trkpt>
      <trkpt lat="47.81103" lon="-2.48546">
        <ele>88.5</ele>
        <time>2025-02-11T11:34:44Z</time>
      </trkpt>
      <trkpt lat="47.81103" lon="-2.48546">
        <ele>88.5</ele>
        <time>2025-02-11T11:34:45Z</time>
      </trkpt>
      <trkpt lat="47.81103" lon="-2.48546">
        <ele>88.5</ele>
        <time>2025-02-11T11:34:46Z</time>
      </trkpt>
      <trkpt lat="47.81103" lon="-2.48546">
        <ele>88.5</ele>
        <time>2025-02-11T11:34:47Z</time>
      </trkpt>
      <trkpt lat="47.81103" lon="-2.48546">
        <ele>88.5</ele>
        <time>2025-02-11T11:34:48Z</time>
      </trkpt>
      <trkpt lat="47.81103" lon="-2.48546">
        <ele>88.5</ele>
        <time>2025-02-11T11:34:49Z</time>
      </trkpt>
      <trkpt lat="47.81103" lon="-2.48546">
        <ele>88.5</ele>
        <time>2025-02-11T11:34:50Z</time>
      </trkpt>
      <trkpt lat="47.81103" lon="-2.48546">
        <ele>88.5</ele>
        <time>2025-02-11T11:34:51Z</time>
      </trkpt>
      <trkpt lat="47.81103" lon="-2.48546">
        <ele>88.5</ele>
        <time>2025-02-11T11:34:52Z</time>
      </trkpt>
      <trkpt lat="47.81103" lon="-2.48546">
        <ele>88.5</ele>
        <time>2025-02-11T11:34:53Z</time>
      </trkpt>
      <trkpt lat="47.81103" lon="-2.48546">
        <ele>88.5</ele>
        <time>2025-02-11T11:34:54Z</time>
      </trkpt>
      <trkpt lat="47.81103" lon="-2.48545">
        <ele>88.5</ele>
        <time>2025-02-11T11:34:55Z</time>
      </trkpt>
      <trkpt lat="47.81103" lon="-2.48545">
        <ele>88.5</ele>
        <time>2025-02-11T11:34:56Z</time>
      </trkpt>
      <trkpt lat="47.81103" lon="-2.48545">
        <ele>88.5</ele>
        <time>2025-02-11T11:34:57Z</time>
      </trkpt>
      <trkpt lat="47.81103" lon="-2.48545">
        <ele>88.5</ele>
        <time>2025-02-11T11:34:58Z</time>
      </trkpt>
      <trkpt lat="47.81103" lon="-2.48545">
        <ele>88.5</ele>
        <time>2025-02-11T11:34:59Z</time>
      </trkpt>
      <trkpt lat="47.81103" lon="-2.48545">
        <ele>88.5</ele>
        <time>2025-02-11T11:35:00Z</time>
      </trkpt>
      <trkpt lat="47.81103" lon="-2.48545">
        <ele>88.5</ele>
        <time>2025-02-11T11:35:01Z</time>
      </trkpt>
      <trkpt lat="47.81103" lon="-2.48546">
        <ele>88.5</ele>
        <time>2025-02-11T11:35:02Z</time>
      </trkpt>
      <trkpt lat="47.81103" lon="-2.48546">
        <ele>88.5</ele>
        <time>2025-02-11T11:35:03Z</time>
      </trkpt>
      <trkpt lat="47.81103" lon="-2.48546">
        <ele>88.5</ele>
        <time>2025-02-11T11:35:04Z</time>
      </trkpt>
      <trkpt lat="47.81103" lon="-2.48546">
        <ele>88.5</ele>
        <time>2025-02-11T11:35:05Z</time>
      </trkpt>
      <trkpt lat="47.81103" lon="-2.48546">
        <ele>88.5</ele>
        <time>2025-02-11T11:35:06Z</time>
      </trkpt>
      <trkpt lat="47.81103" lon="-2.48545">
        <ele>88.5</ele>
        <time>2025-02-11T11:35:07Z</time>
      </trkpt>
      <trkpt lat="47.81103" lon="-2.48545">
        <ele>88.5</ele>
        <time>2025-02-11T11:35:08Z</time>
      </trkpt>
      <trkpt lat="47.81103" lon="-2.48545">
        <ele>88.5</ele>
        <time>2025-02-11T11:35:09Z</time>
      </trkpt>
      <trkpt lat="47.81103" lon="-2.48545">
        <ele>88.5</ele>
        <time>2025-02-11T11:35:10Z</time>
      </trkpt>
      <trkpt lat="47.81103" lon="-2.48545">
        <ele>88.5</ele>
        <time>2025-02-11T11:35:11Z</time>
      </trkpt>
      <trkpt lat="47.81103" lon="-2.48545">
        <ele>88.5</ele>
        <time>2025-02-11T11:35:12Z</time>
      </trkpt>
      <trkpt lat="47.81103" lon="-2.48545">
        <ele>88.5</ele>
        <time>2025-02-11T11:35:13Z</time>
      </trkpt>
      <trkpt lat="47.81103" lon="-2.48545">
        <ele>88.5</ele>
        <time>2025-02-11T11:35:14Z</time>
      </trkpt>
      <trkpt lat="47.81103" lon="-2.48545">
        <ele>88.5</ele>
        <time>2025-02-11T11:35:15Z</time>
      </trkpt>
      <trkpt lat="47.81103" lon="-2.48545">
        <ele>88.5</ele>
        <time>2025-02-11T11:35:16Z</time>
      </trkpt>
      <trkpt lat="47.81103" lon="-2.48545">
        <ele>88.6</ele>
        <time>2025-02-11T11:35:17Z</time>
      </trkpt>
      <trkpt lat="47.81103" lon="-2.48545">
        <ele>88.6</ele>
        <time>2025-02-11T11:35:18Z</time>
      </trkpt>
      <trkpt lat="47.81103" lon="-2.48545">
        <ele>88.6</ele>
        <time>2025-02-11T11:35:19Z</time>
      </trkpt>
      <trkpt lat="47.81103" lon="-2.48545">
        <ele>88.6</ele>
        <time>2025-02-11T11:35:20Z</time>
      </trkpt>
      <trkpt lat="47.81103" lon="-2.48545">
        <ele>88.6</ele>
        <time>2025-02-11T11:35:21Z</time>
      </trkpt>
      <trkpt lat="47.81103" lon="-2.48545">
        <ele>88.6</ele>
        <time>2025-02-11T11:35:22Z</time>
      </trkpt>
      <trkpt lat="47.81103" lon="-2.48545">
        <ele>88.6</ele>
        <time>2025-02-11T11:35:23Z</time>
      </trkpt>
      <trkpt lat="47.81103" lon="-2.48545">
        <ele>88.6</ele>
        <time>2025-02-11T11:35:24Z</time>
      </trkpt>
      <trkpt lat="47.81103" lon="-2.48545">
        <ele>88.6</ele>
        <time>2025-02-11T11:35:25Z</time>
      </trkpt>
      <trkpt lat="47.81103" lon="-2.48545">
        <ele>88.6</ele>
        <time>2025-02-11T11:35:26Z</time>
      </trkpt>
      <trkpt lat="47.81103" lon="-2.48545">
        <ele>88.6</ele>
        <time>2025-02-11T11:35:27Z</time>
      </trkpt>
      <trkpt lat="47.81103" lon="-2.48545">
        <ele>88.6</ele>
        <time>2025-02-11T11:35:28Z</time>
      </trkpt>
      <trkpt lat="47.81103" lon="-2.48545">
        <ele>88.6</ele>
        <time>2025-02-11T11:35:29Z</time>
      </trkpt>
      <trkpt lat="47.81103" lon="-2.48545">
        <ele>88.6</ele>
        <time>2025-02-11T11:35:30Z</time>
      </trkpt>
      <trkpt lat="47.81103" lon="-2.48545">
        <ele>88.6</ele>
        <time>2025-02-11T11:35:31Z</time>
      </trkpt>
      <trkpt lat="47.81103" lon="-2.48545">
        <ele>88.6</ele>
        <time>2025-02-11T11:35:32Z</time>
      </trkpt>
      <trkpt lat="47.81103" lon="-2.48545">
        <ele>88.6</ele>
        <time>2025-02-11T11:35:33Z</time>
      </trkpt>
      <trkpt lat="47.81103" lon="-2.48545">
        <ele>88.6</ele>
        <time>2025-02-11T11:35:34Z</time>
      </trkpt>
      <trkpt lat="47.81103" lon="-2.48545">
        <ele>88.6</ele>
        <time>2025-02-11T11:35:35Z</time>
      </trkpt>
      <trkpt lat="47.81103" lon="-2.48545">
        <ele>88.6</ele>
        <time>2025-02-11T11:35:36Z</time>
      </trkpt>
      <trkpt lat="47.81103" lon="-2.48545">
        <ele>88.6</ele>
        <time>2025-02-11T11:35:37Z</time>
      </trkpt>
      <trkpt lat="47.81103" lon="-2.48545">
        <ele>88.6</ele>
        <time>2025-02-11T11:35:38Z</time>
      </trkpt>
      <trkpt lat="47.81103" lon="-2.48545">
        <ele>88.6</ele>
        <time>2025-02-11T11:35:39Z</time>
      </trkpt>
      <trkpt lat="47.81103" lon="-2.48545">
        <ele>88.6</ele>
        <time>2025-02-11T11:35:40Z</time>
      </trkpt>
      <trkpt lat="47.81103" lon="-2.48545">
        <ele>88.6</ele>
        <time>2025-02-11T11:35:41Z</time>
      </trkpt>
      <trkpt lat="47.81103" lon="-2.48545">
        <ele>88.6</ele>
        <time>2025-02-11T11:35:42Z</time>
      </trkpt>
      <trkpt lat="47.81103" lon="-2.48545">
        <ele>88.6</ele>
        <time>2025-02-11T11:35:43Z</time>
      </trkpt>
      <trkpt lat="47.81103" lon="-2.48545">
        <ele>88.6</ele>
        <time>2025-02-11T11:35:44Z</time>
      </trkpt>
      <trkpt lat="47.81103" lon="-2.48545">
        <ele>88.6</ele>
        <time>2025-02-11T11:35:45Z</time>
      </trkpt>
      <trkpt lat="47.81103" lon="-2.48545">
        <ele>88.6</ele>
        <time>2025-02-11T11:35:46Z</time>
      </trkpt>
      <trkpt lat="47.81103" lon="-2.48545">
        <ele>88.6</ele>
        <time>2025-02-11T11:35:47Z</time>
      </trkpt>
      <trkpt lat="47.81103" lon="-2.48545">
        <ele>88.6</ele>
        <time>2025-02-11T11:35:48Z</time>
      </trkpt>
      <trkpt lat="47.81103" lon="-2.48545">
        <ele>88.6</ele>
        <time>2025-02-11T11:35:49Z</time>
      </trkpt>
      <trkpt lat="47.81104" lon="-2.48545">
        <ele>88.7</ele>
        <time>2025-02-11T11:35:50Z</time>
      </trkpt>
      <trkpt lat="47.81104" lon="-2.48545">
        <ele>88.7</ele>
        <time>2025-02-11T11:35:51Z</time>
      </trkpt>
      <trkpt lat="47.81104" lon="-2.48545">
        <ele>88.7</ele>
        <time>2025-02-11T11:35:52Z</time>
      </trkpt>
      <trkpt lat="47.81104" lon="-2.48545">
        <ele>88.7</ele>
        <time>2025-02-11T11:35:53Z</time>
      </trkpt>
      <trkpt lat="47.81104" lon="-2.48546">
        <ele>88.7</ele>
        <time>2025-02-11T11:35:54Z</time>
      </trkpt>
      <trkpt lat="47.81104" lon="-2.48546">
        <ele>88.7</ele>
        <time>2025-02-11T11:35:55Z</time>
      </trkpt>
      <trkpt lat="47.81104" lon="-2.48546">
        <ele>88.7</ele>
        <time>2025-02-11T11:35:56Z</time>
      </trkpt>
      <trkpt lat="47.81104" lon="-2.48546">
        <ele>88.7</ele>
        <time>2025-02-11T11:35:57Z</time>
      </trkpt>
      <trkpt lat="47.81104" lon="-2.48546">
        <ele>88.7</ele>
        <time>2025-02-11T11:35:58Z</time>
      </trkpt>
      <trkpt lat="47.81104" lon="-2.48546">
        <ele>88.7</ele>
        <time>2025-02-11T11:35:59Z</time>
      </trkpt>
      <trkpt lat="47.81104" lon="-2.48546">
        <ele>88.7</ele>
        <time>2025-02-11T11:36:00Z</time>
      </trkpt>
      <trkpt lat="47.81104" lon="-2.48546">
        <ele>88.7</ele>
        <time>2025-02-11T11:36:01Z</time>
      </trkpt>
      <trkpt lat="47.81104" lon="-2.48546">
        <ele>88.7</ele>
        <time>2025-02-11T11:36:02Z</time>
      </trkpt>
      <trkpt lat="47.81104" lon="-2.48546">
        <ele>88.7</ele>
        <time>2025-02-11T11:36:03Z</time>
      </trkpt>
      <trkpt lat="47.81104" lon="-2.48546">
        <ele>88.7</ele>
        <time>2025-02-11T11:36:04Z</time>
      </trkpt>
      <trkpt lat="47.81104" lon="-2.48546">
        <ele>88.7</ele>
        <time>2025-02-11T11:36:05Z</time>
      </trkpt>
      <trkpt lat="47.81104" lon="-2.48546">
        <ele>88.7</ele>
        <time>2025-02-11T11:36:06Z</time>
      </trkpt>
      <trkpt lat="47.81104" lon="-2.48546">
        <ele>88.8</ele>
        <time>2025-02-11T11:36:07Z</time>
      </trkpt>
      <trkpt lat="47.81104" lon="-2.48546">
        <ele>88.8</ele>
        <time>2025-02-11T11:36:08Z</time>
      </trkpt>
      <trkpt lat="47.81104" lon="-2.48546">
        <ele>88.7</ele>
        <time>2025-02-11T11:36:09Z</time>
      </trkpt>
      <trkpt lat="47.81104" lon="-2.48546">
        <ele>88.7</ele>
        <time>2025-02-11T11:36:10Z</time>
      </trkpt>
      <trkpt lat="47.81105" lon="-2.48547">
        <ele>88.8</ele>
        <time>2025-02-11T11:36:11Z</time>
      </trkpt>
      <trkpt lat="47.81105" lon="-2.48547">
        <ele>88.8</ele>
        <time>2025-02-11T11:36:12Z</time>
      </trkpt>
      <trkpt lat="47.81105" lon="-2.48547">
        <ele>88.8</ele>
        <time>2025-02-11T11:36:13Z</time>
      </trkpt>
      <trkpt lat="47.81105" lon="-2.48548">
        <ele>88.8</ele>
        <time>2025-02-11T11:36:14Z</time>
      </trkpt>
      <trkpt lat="47.81105" lon="-2.48548">
        <ele>88.8</ele>
        <time>2025-02-11T11:36:15Z</time>
      </trkpt>
      <trkpt lat="47.81105" lon="-2.48548">
        <ele>88.8</ele>
        <time>2025-02-11T11:36:16Z</time>
      </trkpt>
      <trkpt lat="47.81105" lon="-2.48548">
        <ele>88.8</ele>
        <time>2025-02-11T11:36:17Z</time>
      </trkpt>
      <trkpt lat="47.81105" lon="-2.48548">
        <ele>88.8</ele>
        <time>2025-02-11T11:36:18Z</time>
      </trkpt>
      <trkpt lat="47.81105" lon="-2.48548">
        <ele>88.8</ele>
        <time>2025-02-11T11:36:19Z</time>
      </trkpt>
      <trkpt lat="47.81105" lon="-2.48548">
        <ele>88.8</ele>
        <time>2025-02-11T11:36:20Z</time>
      </trkpt>
      <trkpt lat="47.81105" lon="-2.48548">
        <ele>88.8</ele>
        <time>2025-02-11T11:36:21Z</time>
      </trkpt>
      <trkpt lat="47.81105" lon="-2.48548">
        <ele>88.8</ele>
        <time>2025-02-11T11:36:22Z</time>
      </trkpt>
      <trkpt lat="47.81105" lon="-2.48548">
        <ele>88.8</ele>
        <time>2025-02-11T11:36:23Z</time>
      </trkpt>
      <trkpt lat="47.81105" lon="-2.48548">
        <ele>88.8</ele>
        <time>2025-02-11T11:36:24Z</time>
      </trkpt>
      <trkpt lat="47.81105" lon="-2.48548">
        <ele>88.8</ele>
        <time>2025-02-11T11:36:25Z</time>
      </trkpt>
      <trkpt lat="47.81105" lon="-2.48548">
        <ele>88.8</ele>
        <time>2025-02-11T11:36:26Z</time>
      </trkpt>
      <trkpt lat="47.81105" lon="-2.48548">
        <ele>88.8</ele>
        <time>2025-02-11T11:36:27Z</time>
      </trkpt>
      <trkpt lat="47.81105" lon="-2.48548">
        <ele>88.8</ele>
        <time>2025-02-11T11:36:28Z</time>
      </trkpt>
      <trkpt lat="47.81105" lon="-2.48548">
        <ele>88.8</ele>
        <time>2025-02-11T11:36:29Z</time>
      </trkpt>
      <trkpt lat="47.81105" lon="-2.48548">
        <ele>88.8</ele>
        <time>2025-02-11T11:36:30Z</time>
      </trkpt>
      <trkpt lat="47.81105" lon="-2.48548">
        <ele>88.8</ele>
        <time>2025-02-11T11:36:31Z</time>
      </trkpt>
      <trkpt lat="47.81105" lon="-2.48548">
        <ele>88.8</ele>
        <time>2025-02-11T11:36:32Z</time>
      </trkpt>
      <trkpt lat="47.81105" lon="-2.48548">
        <ele>88.8</ele>
        <time>2025-02-11T11:36:33Z</time>
      </trkpt>
      <trkpt lat="47.81105" lon="-2.48548">
        <ele>88.8</ele>
        <time>2025-02-11T11:36:34Z</time>
      </trkpt>
      <trkpt lat="47.81105" lon="-2.48548">
        <ele>88.8</ele>
        <time>2025-02-11T11:36:35Z</time>
      </trkpt>
      <trkpt lat="47.81105" lon="-2.48548">
        <ele>88.8</ele>
        <time>2025-02-11T11:36:36Z</time>
      </trkpt>
      <trkpt lat="47.81105" lon="-2.48548">
        <ele>88.8</ele>
        <time>2025-02-11T11:36:37Z</time>
      </trkpt>
      <trkpt lat="47.81105" lon="-2.48548">
        <ele>88.8</ele>
        <time>2025-02-11T11:36:38Z</time>
      </trkpt>
      <trkpt lat="47.81105" lon="-2.48548">
        <ele>88.8</ele>
        <time>2025-02-11T11:36:39Z</time>
      </trkpt>
      <trkpt lat="47.81105" lon="-2.48548">
        <ele>88.8</ele>
        <time>2025-02-11T11:36:40Z</time>
      </trkpt>
      <trkpt lat="47.81105" lon="-2.48548">
        <ele>88.8</ele>
        <time>2025-02-11T11:36:41Z</time>
      </trkpt>
      <trkpt lat="47.81105" lon="-2.48548">
        <ele>88.8</ele>
        <time>2025-02-11T11:36:42Z</time>
      </trkpt>
      <trkpt lat="47.81105" lon="-2.48548">
        <ele>88.8</ele>
        <time>2025-02-11T11:36:43Z</time>
      </trkpt>
      <trkpt lat="47.81105" lon="-2.48548">
        <ele>88.8</ele>
        <time>2025-02-11T11:36:44Z</time>
      </trkpt>
      <trkpt lat="47.81105" lon="-2.48548">
        <ele>88.8</ele>
        <time>2025-02-11T11:36:45Z</time>
      </trkpt>
      <trkpt lat="47.81105" lon="-2.48548">
        <ele>88.8</ele>
        <time>2025-02-11T11:36:46Z</time>
      </trkpt>
      <trkpt lat="47.81105" lon="-2.48548">
        <ele>88.8</ele>
        <time>2025-02-11T11:36:47Z</time>
      </trkpt>
      <trkpt lat="47.81104" lon="-2.48548">
        <ele>88.8</ele>
        <time>2025-02-11T11:36:48Z</time>
      </trkpt>
      <trkpt lat="47.81104" lon="-2.48548">
        <ele>88.8</ele>
        <time>2025-02-11T11:36:49Z</time>
      </trkpt>
      <trkpt lat="47.81104" lon="-2.48548">
        <ele>88.8</ele>
        <time>2025-02-11T11:36:50Z</time>
      </trkpt>
      <trkpt lat="47.81104" lon="-2.48548">
        <ele>88.8</ele>
        <time>2025-02-11T11:36:51Z</time>
      </trkpt>
      <trkpt lat="47.81104" lon="-2.48548">
        <ele>88.8</ele>
        <time>2025-02-11T11:36:52Z</time>
      </trkpt>
      <trkpt lat="47.81104" lon="-2.48547">
        <ele>88.8</ele>
        <time>2025-02-11T11:36:53Z</time>
      </trkpt>
      <trkpt lat="47.81104" lon="-2.48547">
        <ele>88.8</ele>
        <time>2025-02-11T11:36:54Z</time>
      </trkpt>
      <trkpt lat="47.81104" lon="-2.48547">
        <ele>88.8</ele>
        <time>2025-02-11T11:36:55Z</time>
      </trkpt>
      <trkpt lat="47.81104" lon="-2.48547">
        <ele>88.8</ele>
        <time>2025-02-11T11:36:56Z</time>
      </trkpt>
      <trkpt lat="47.81104" lon="-2.48547">
        <ele>88.8</ele>
        <time>2025-02-11T11:36:57Z</time>
      </trkpt>
      <trkpt lat="47.81104" lon="-2.48547">
        <ele>88.8</ele>
        <time>2025-02-11T11:36:58Z</time>
      </trkpt>
      <trkpt lat="47.81104" lon="-2.48547">
        <ele>88.8</ele>
        <time>2025-02-11T11:36:59Z</time>
      </trkpt>
      <trkpt lat="47.81104" lon="-2.48547">
        <ele>88.8</ele>
        <time>2025-02-11T11:37:00Z</time>
      </trkpt>
      <trkpt lat="47.81104" lon="-2.48547">
        <ele>88.8</ele>
        <time>2025-02-11T11:37:01Z</time>
      </trkpt>
      <trkpt lat="47.81104" lon="-2.48547">
        <ele>88.8</ele>
        <time>2025-02-11T11:37:02Z</time>
      </trkpt>
      <trkpt lat="47.81104" lon="-2.48547">
        <ele>88.8</ele>
        <time>2025-02-11T11:37:03Z</time>
      </trkpt>
      <trkpt lat="47.81104" lon="-2.48547">
        <ele>88.8</ele>
        <time>2025-02-11T11:37:04Z</time>
      </trkpt>
      <trkpt lat="47.81104" lon="-2.48547">
        <ele>88.8</ele>
        <time>2025-02-11T11:37:05Z</time>
      </trkpt>
      <trkpt lat="47.81104" lon="-2.48547">
        <ele>88.8</ele>
        <time>2025-02-11T11:37:06Z</time>
      </trkpt>
      <trkpt lat="47.81104" lon="-2.48547">
        <ele>88.8</ele>
        <time>2025-02-11T11:37:07Z</time>
      </trkpt>
      <trkpt lat="47.81104" lon="-2.48547">
        <ele>88.8</ele>
        <time>2025-02-11T11:37:08Z</time>
      </trkpt>
      <trkpt lat="47.81104" lon="-2.48547">
        <ele>88.8</ele>
        <time>2025-02-11T11:37:09Z</time>
      </trkpt>
      <trkpt lat="47.81104" lon="-2.48547">
        <ele>88.8</ele>
        <time>2025-02-11T11:37:10Z</time>
      </trkpt>
      <trkpt lat="47.81104" lon="-2.48547">
        <ele>88.8</ele>
        <time>2025-02-11T11:37:11Z</time>
      </trkpt>
      <trkpt lat="47.81104" lon="-2.48547">
        <ele>88.8</ele>
        <time>2025-02-11T11:37:12Z</time>
      </trkpt>
      <trkpt lat="47.81104" lon="-2.48547">
        <ele>88.8</ele>
        <time>2025-02-11T11:37:13Z</time>
      </trkpt>
      <trkpt lat="47.81104" lon="-2.48547">
        <ele>88.8</ele>
        <time>2025-02-11T11:37:14Z</time>
      </trkpt>
      <trkpt lat="47.81104" lon="-2.48547">
        <ele>88.8</ele>
        <time>2025-02-11T11:37:15Z</time>
      </trkpt>
      <trkpt lat="47.81104" lon="-2.48547">
        <ele>88.8</ele>
        <time>2025-02-11T11:37:16Z</time>
      </trkpt>
      <trkpt lat="47.81104" lon="-2.48547">
        <ele>88.8</ele>
        <time>2025-02-11T11:37:17Z</time>
      </trkpt>
      <trkpt lat="47.81104" lon="-2.48547">
        <ele>88.8</ele>
        <time>2025-02-11T11:37:18Z</time>
      </trkpt>
      <trkpt lat="47.81105" lon="-2.48547">
        <ele>88.8</ele>
        <time>2025-02-11T11:37:19Z</time>
      </trkpt>
      <trkpt lat="47.81104" lon="-2.48547">
        <ele>88.8</ele>
        <time>2025-02-11T11:37:20Z</time>
      </trkpt>
      <trkpt lat="47.81105" lon="-2.48547">
        <ele>88.8</ele>
        <time>2025-02-11T11:37:21Z</time>
      </trkpt>
      <trkpt lat="47.81104" lon="-2.48547">
        <ele>88.8</ele>
        <time>2025-02-11T11:37:22Z</time>
      </trkpt>
      <trkpt lat="47.81104" lon="-2.48547">
        <ele>88.8</ele>
        <time>2025-02-11T11:37:23Z</time>
      </trkpt>
      <trkpt lat="47.81104" lon="-2.48547">
        <ele>88.8</ele>
        <time>2025-02-11T11:37:24Z</time>
      </trkpt>
      <trkpt lat="47.81104" lon="-2.48547">
        <ele>88.8</ele>
        <time>2025-02-11T11:37:25Z</time>
      </trkpt>
      <trkpt lat="47.81104" lon="-2.48547">
        <ele>88.8</ele>
        <time>2025-02-11T11:37:26Z</time>
      </trkpt>
      <trkpt lat="47.81104" lon="-2.48547">
        <ele>88.8</ele>
        <time>2025-02-11T11:37:27Z</time>
      </trkpt>
      <trkpt lat="47.81104" lon="-2.48547">
        <ele>88.8</ele>
        <time>2025-02-11T11:37:28Z</time>
      </trkpt>
      <trkpt lat="47.81104" lon="-2.48547">
        <ele>88.8</ele>
        <time>2025-02-11T11:37:29Z</time>
      </trkpt>
      <trkpt lat="47.81104" lon="-2.48547">
        <ele>88.8</ele>
        <time>2025-02-11T11:37:30Z</time>
      </trkpt>
      <trkpt lat="47.81104" lon="-2.48547">
        <ele>88.8</ele>
        <time>2025-02-11T11:37:31Z</time>
      </trkpt>
      <trkpt lat="47.81104" lon="-2.48547">
        <ele>88.8</ele>
        <time>2025-02-11T11:37:32Z</time>
      </trkpt>
      <trkpt lat="47.81104" lon="-2.48547">
        <ele>88.8</ele>
        <time>2025-02-11T11:37:33Z</time>
      </trkpt>
      <trkpt lat="47.81104" lon="-2.48547">
        <ele>88.8</ele>
        <time>2025-02-11T11:37:34Z</time>
      </trkpt>
      <trkpt lat="47.81104" lon="-2.48547">
        <ele>88.8</ele>
        <time>2025-02-11T11:37:35Z</time>
      </trkpt>
      <trkpt lat="47.81104" lon="-2.48547">
        <ele>88.8</ele>
        <time>2025-02-11T11:37:36Z</time>
      </trkpt>
      <trkpt lat="47.81104" lon="-2.48547">
        <ele>88.8</ele>
        <time>2025-02-11T11:37:37Z</time>
      </trkpt>
      <trkpt lat="47.81104" lon="-2.48547">
        <ele>88.8</ele>
        <time>2025-02-11T11:37:38Z</time>
      </trkpt>
      <trkpt lat="47.81104" lon="-2.48547">
        <ele>88.8</ele>
        <time>2025-02-11T11:37:39Z</time>
      </trkpt>
      <trkpt lat="47.81104" lon="-2.48547">
        <ele>88.8</ele>
        <time>2025-02-11T11:37:40Z</time>
      </trkpt>
      <trkpt lat="47.81104" lon="-2.48547">
        <ele>88.8</ele>
        <time>2025-02-11T11:37:41Z</time>
      </trkpt>
      <trkpt lat="47.81104" lon="-2.48547">
        <ele>88.8</ele>
        <time>2025-02-11T11:37:42Z</time>
      </trkpt>
      <trkpt lat="47.81104" lon="-2.48547">
        <ele>88.8</ele>
        <time>2025-02-11T11:37:43Z</time>
      </trkpt>
      <trkpt lat="47.81104" lon="-2.48547">
        <ele>88.8</ele>
        <time>2025-02-11T11:37:44Z</time>
      </trkpt>
      <trkpt lat="47.81104" lon="-2.48547">
        <ele>88.8</ele>
        <time>2025-02-11T11:37:45Z</time>
      </trkpt>
      <trkpt lat="47.81104" lon="-2.48547">
        <ele>88.8</ele>
        <time>2025-02-11T11:37:46Z</time>
      </trkpt>
      <trkpt lat="47.81104" lon="-2.48547">
        <ele>88.8</ele>
        <time>2025-02-11T11:37:47Z</time>
      </trkpt>
      <trkpt lat="47.81104" lon="-2.48547">
        <ele>88.8</ele>
        <time>2025-02-11T11:37:48Z</time>
      </trkpt>
      <trkpt lat="47.81104" lon="-2.48547">
        <ele>88.8</ele>
        <time>2025-02-11T11:37:49Z</time>
      </trkpt>
      <trkpt lat="47.81104" lon="-2.48547">
        <ele>88.8</ele>
        <time>2025-02-11T11:37:50Z</time>
      </trkpt>
      <trkpt lat="47.81104" lon="-2.48547">
        <ele>88.8</ele>
        <time>2025-02-11T11:37:51Z</time>
      </trkpt>
      <trkpt lat="47.81104" lon="-2.48547">
        <ele>88.8</ele>
        <time>2025-02-11T11:37:52Z</time>
      </trkpt>
      <trkpt lat="47.81104" lon="-2.48547">
        <ele>88.8</ele>
        <time>2025-02-11T11:37:53Z</time>
      </trkpt>
      <trkpt lat="47.81104" lon="-2.48547">
        <ele>88.8</ele>
        <time>2025-02-11T11:37:54Z</time>
      </trkpt>
      <trkpt lat="47.81104" lon="-2.48547">
        <ele>88.8</ele>
        <time>2025-02-11T11:37:55Z</time>
      </trkpt>
      <trkpt lat="47.81104" lon="-2.48547">
        <ele>88.8</ele>
        <time>2025-02-11T11:37:56Z</time>
      </trkpt>
      <trkpt lat="47.81104" lon="-2.48547">
        <ele>88.8</ele>
        <time>2025-02-11T11:37:57Z</time>
      </trkpt>
      <trkpt lat="47.81104" lon="-2.48547">
        <ele>88.8</ele>
        <time>2025-02-11T11:37:58Z</time>
      </trkpt>
      <trkpt lat="47.81104" lon="-2.48547">
        <ele>88.8</ele>
        <time>2025-02-11T11:37:59Z</time>
      </trkpt>
      <trkpt lat="47.81104" lon="-2.48547">
        <ele>88.8</ele>
        <time>2025-02-11T11:38:00Z</time>
      </trkpt>
      <trkpt lat="47.81104" lon="-2.48547">
        <ele>88.8</ele>
        <time>2025-02-11T11:38:01Z</time>
      </trkpt>
      <trkpt lat="47.81104" lon="-2.48547">
        <ele>88.8</ele>
        <time>2025-02-11T11:38:02Z</time>
      </trkpt>
      <trkpt lat="47.81104" lon="-2.48547">
        <ele>88.8</ele>
        <time>2025-02-11T11:38:03Z</time>
      </trkpt>
      <trkpt lat="47.81104" lon="-2.48547">
        <ele>88.8</ele>
        <time>2025-02-11T11:38:04Z</time>
      </trkpt>
      <trkpt lat="47.81104" lon="-2.48547">
        <ele>88.8</ele>
        <time>2025-02-11T11:38:05Z</time>
      </trkpt>
      <trkpt lat="47.81104" lon="-2.48547">
        <ele>88.8</ele>
        <time>2025-02-11T11:38:06Z</time>
      </trkpt>
      <trkpt lat="47.81104" lon="-2.48547">
        <ele>88.8</ele>
        <time>2025-02-11T11:38:07Z</time>
      </trkpt>
      <trkpt lat="47.81104" lon="-2.48547">
        <ele>88.8</ele>
        <time>2025-02-11T11:38:08Z</time>
      </trkpt>
      <trkpt lat="47.81104" lon="-2.48547">
        <ele>88.8</ele>
        <time>2025-02-11T11:38:09Z</time>
      </trkpt>
      <trkpt lat="47.81104" lon="-2.48547">
        <ele>88.8</ele>
        <time>2025-02-11T11:38:10Z</time>
      </trkpt>
      <trkpt lat="47.81104" lon="-2.48547">
        <ele>88.8</ele>
        <time>2025-02-11T11:38:11Z</time>
      </trkpt>
      <trkpt lat="47.81104" lon="-2.48547">
        <ele>88.8</ele>
        <time>2025-02-11T11:38:12Z</time>
      </trkpt>
      <trkpt lat="47.81104" lon="-2.48547">
        <ele>88.8</ele>
        <time>2025-02-11T11:38:13Z</time>
      </trkpt>
      <trkpt lat="47.81104" lon="-2.48547">
        <ele>88.8</ele>
        <time>2025-02-11T11:38:14Z</time>
      </trkpt>
      <trkpt lat="47.81104" lon="-2.48547">
        <ele>88.8</ele>
        <time>2025-02-11T11:38:15Z</time>
      </trkpt>
      <trkpt lat="47.81104" lon="-2.48547">
        <ele>88.8</ele>
        <time>2025-02-11T11:38:16Z</time>
      </trkpt>
      <trkpt lat="47.81104" lon="-2.48547">
        <ele>88.8</ele>
        <time>2025-02-11T11:38:17Z</time>
      </trkpt>
      <trkpt lat="47.81104" lon="-2.48547">
        <ele>88.8</ele>
        <time>2025-02-11T11:38:18Z</time>
      </trkpt>
      <trkpt lat="47.81104" lon="-2.48547">
        <ele>88.8</ele>
        <time>2025-02-11T11:38:19Z</time>
      </trkpt>
      <trkpt lat="47.81104" lon="-2.48547">
        <ele>88.8</ele>
        <time>2025-02-11T11:38:20Z</time>
      </trkpt>
      <trkpt lat="47.81104" lon="-2.48547">
        <ele>88.8</ele>
        <time>2025-02-11T11:38:21Z</time>
      </trkpt>
      <trkpt lat="47.81104" lon="-2.48547">
        <ele>88.8</ele>
        <time>2025-02-11T11:38:22Z</time>
      </trkpt>
      <trkpt lat="47.81104" lon="-2.48547">
        <ele>88.8</ele>
        <time>2025-02-11T11:38:23Z</time>
      </trkpt>
      <trkpt lat="47.81104" lon="-2.48547">
        <ele>88.8</ele>
        <time>2025-02-11T11:38:24Z</time>
      </trkpt>
      <trkpt lat="47.81104" lon="-2.48547">
        <ele>88.8</ele>
        <time>2025-02-11T11:38:25Z</time>
      </trkpt>
      <trkpt lat="47.81104" lon="-2.48547">
        <ele>88.8</ele>
        <time>2025-02-11T11:38:26Z</time>
      </trkpt>
      <trkpt lat="47.81104" lon="-2.48547">
        <ele>88.8</ele>
        <time>2025-02-11T11:38:27Z</time>
      </trkpt>
      <trkpt lat="47.81104" lon="-2.48547">
        <ele>88.8</ele>
        <time>2025-02-11T11:38:28Z</time>
      </trkpt>
      <trkpt lat="47.81104" lon="-2.48547">
        <ele>88.8</ele>
        <time>2025-02-11T11:38:29Z</time>
      </trkpt>
      <trkpt lat="47.81104" lon="-2.48547">
        <ele>88.8</ele>
        <time>2025-02-11T11:38:30Z</time>
      </trkpt>
      <trkpt lat="47.81104" lon="-2.48547">
        <ele>88.8</ele>
        <time>2025-02-11T11:38:31Z</time>
      </trkpt>
      <trkpt lat="47.81104" lon="-2.48547">
        <ele>88.8</ele>
        <time>2025-02-11T11:38:32Z</time>
      </trkpt>
      <trkpt lat="47.81104" lon="-2.48547">
        <ele>88.8</ele>
        <time>2025-02-11T11:38:33Z</time>
      </trkpt>
      <trkpt lat="47.81104" lon="-2.48547">
        <ele>88.8</ele>
        <time>2025-02-11T11:38:34Z</time>
      </trkpt>
      <trkpt lat="47.81104" lon="-2.48547">
        <ele>88.8</ele>
        <time>2025-02-11T11:38:35Z</time>
      </trkpt>
      <trkpt lat="47.81104" lon="-2.48547">
        <ele>88.8</ele>
        <time>2025-02-11T11:38:36Z</time>
      </trkpt>
      <trkpt lat="47.81104" lon="-2.48547">
        <ele>88.8</ele>
        <time>2025-02-11T11:38:37Z</time>
      </trkpt>
      <trkpt lat="47.81104" lon="-2.48547">
        <ele>88.8</ele>
        <time>2025-02-11T11:38:38Z</time>
      </trkpt>
      <trkpt lat="47.81104" lon="-2.48547">
        <ele>88.8</ele>
        <time>2025-02-11T11:38:39Z</time>
      </trkpt>
      <trkpt lat="47.81104" lon="-2.48547">
        <ele>88.8</ele>
        <time>2025-02-11T11:38:40Z</time>
      </trkpt>
      <trkpt lat="47.81104" lon="-2.48547">
        <ele>88.8</ele>
        <time>2025-02-11T11:38:41Z</time>
      </trkpt>
      <trkpt lat="47.81104" lon="-2.48547">
        <ele>88.8</ele>
        <time>2025-02-11T11:38:42Z</time>
      </trkpt>
      <trkpt lat="47.81104" lon="-2.48547">
        <ele>88.8</ele>
        <time>2025-02-11T11:38:43Z</time>
      </trkpt>
      <trkpt lat="47.81104" lon="-2.48547">
        <ele>88.8</ele>
        <time>2025-02-11T11:38:44Z</time>
      </trkpt>
      <trkpt lat="47.81104" lon="-2.48547">
        <ele>88.8</ele>
        <time>2025-02-11T11:38:45Z</time>
      </trkpt>
      <trkpt lat="47.81104" lon="-2.48547">
        <ele>88.8</ele>
        <time>2025-02-11T11:38:46Z</time>
      </trkpt>
      <trkpt lat="47.81104" lon="-2.48547">
        <ele>88.8</ele>
        <time>2025-02-11T11:38:47Z</time>
      </trkpt>
      <trkpt lat="47.81104" lon="-2.48547">
        <ele>88.8</ele>
        <time>2025-02-11T11:38:48Z</time>
      </trkpt>
      <trkpt lat="47.81104" lon="-2.48547">
        <ele>88.8</ele>
        <time>2025-02-11T11:38:49Z</time>
      </trkpt>
      <trkpt lat="47.81104" lon="-2.48547">
        <ele>88.8</ele>
        <time>2025-02-11T11:38:50Z</time>
      </trkpt>
      <trkpt lat="47.81104" lon="-2.48547">
        <ele>88.8</ele>
        <time>2025-02-11T11:38:51Z</time>
      </trkpt>
      <trkpt lat="47.81104" lon="-2.48547">
        <ele>88.8</ele>
        <time>2025-02-11T11:38:52Z</time>
      </trkpt>
      <trkpt lat="47.81104" lon="-2.48547">
        <ele>88.8</ele>
        <time>2025-02-11T11:38:53Z</time>
      </trkpt>
      <trkpt lat="47.81104" lon="-2.48548">
        <ele>88.7</ele>
        <time>2025-02-11T11:38:54Z</time>
      </trkpt>
      <trkpt lat="47.81104" lon="-2.48548">
        <ele>88.8</ele>
        <time>2025-02-11T11:38:55Z</time>
      </trkpt>
      <trkpt lat="47.81105" lon="-2.48548">
        <ele>88.8</ele>
        <time>2025-02-11T11:38:56Z</time>
      </trkpt>
      <trkpt lat="47.81105" lon="-2.48549">
        <ele>88.8</ele>
        <time>2025-02-11T11:38:57Z</time>
      </trkpt>
      <trkpt lat="47.81105" lon="-2.48549">
        <ele>88.9</ele>
        <time>2025-02-11T11:38:58Z</time>
      </trkpt>
      <trkpt lat="47.81105" lon="-2.4855">
        <ele>88.9</ele>
        <time>2025-02-11T11:38:59Z</time>
      </trkpt>
      <trkpt lat="47.81105" lon="-2.4855">
        <ele>88.9</ele>
        <time>2025-02-11T11:39:00Z</time>
      </trkpt>
      <trkpt lat="47.81105" lon="-2.4855">
        <ele>88.9</ele>
        <time>2025-02-11T11:39:01Z</time>
      </trkpt>
      <trkpt lat="47.81105" lon="-2.4855">
        <ele>88.9</ele>
        <time>2025-02-11T11:39:02Z</time>
      </trkpt>
      <trkpt lat="47.81105" lon="-2.4855">
        <ele>88.9</ele>
        <time>2025-02-11T11:39:03Z</time>
      </trkpt>
      <trkpt lat="47.81105" lon="-2.4855">
        <ele>88.9</ele>
        <time>2025-02-11T11:39:04Z</time>
      </trkpt>
      <trkpt lat="47.81105" lon="-2.4855">
        <ele>88.9</ele>
        <time>2025-02-11T11:39:05Z</time>
      </trkpt>
      <trkpt lat="47.81105" lon="-2.4855">
        <ele>88.9</ele>
        <time>2025-02-11T11:39:06Z</time>
      </trkpt>
      <trkpt lat="47.81105" lon="-2.4855">
        <ele>88.8</ele>
        <time>2025-02-11T11:39:07Z</time>
      </trkpt>
      <trkpt lat="47.81105" lon="-2.4855">
        <ele>88.8</ele>
        <time>2025-02-11T11:39:08Z</time>
      </trkpt>
      <trkpt lat="47.81105" lon="-2.4855">
        <ele>88.8</ele>
        <time>2025-02-11T11:39:09Z</time>
      </trkpt>
      <trkpt lat="47.81105" lon="-2.48551">
        <ele>88.9</ele>
        <time>2025-02-11T11:39:10Z</time>
      </trkpt>
      <trkpt lat="47.81105" lon="-2.48551">
        <ele>88.9</ele>
        <time>2025-02-11T11:39:11Z</time>
      </trkpt>
      <trkpt lat="47.81105" lon="-2.48551">
        <ele>88.9</ele>
        <time>2025-02-11T11:39:12Z</time>
      </trkpt>
      <trkpt lat="47.81105" lon="-2.48551">
        <ele>88.9</ele>
        <time>2025-02-11T11:39:13Z</time>
      </trkpt>
      <trkpt lat="47.81105" lon="-2.48551">
        <ele>88.9</ele>
        <time>2025-02-11T11:39:14Z</time>
      </trkpt>
      <trkpt lat="47.81105" lon="-2.48551">
        <ele>88.9</ele>
        <time>2025-02-11T11:39:15Z</time>
      </trkpt>
      <trkpt lat="47.81105" lon="-2.48551">
        <ele>88.9</ele>
        <time>2025-02-11T11:39:16Z</time>
      </trkpt>
      <trkpt lat="47.81105" lon="-2.48551">
        <ele>88.9</ele>
        <time>2025-02-11T11:39:17Z</time>
      </trkpt>
      <trkpt lat="47.81105" lon="-2.48551">
        <ele>88.8</ele>
        <time>2025-02-11T11:39:18Z</time>
      </trkpt>
      <trkpt lat="47.81105" lon="-2.48551">
        <ele>88.8</ele>
        <time>2025-02-11T11:39:19Z</time>
      </trkpt>
      <trkpt lat="47.81105" lon="-2.48551">
        <ele>88.8</ele>
        <time>2025-02-11T11:39:20Z</time>
      </trkpt>
      <trkpt lat="47.81105" lon="-2.48551">
        <ele>88.8</ele>
        <time>2025-02-11T11:39:21Z</time>
      </trkpt>
      <trkpt lat="47.81105" lon="-2.48551">
        <ele>88.8</ele>
        <time>2025-02-11T11:39:22Z</time>
      </trkpt>
      <trkpt lat="47.81105" lon="-2.48551">
        <ele>88.8</ele>
        <time>2025-02-11T11:39:23Z</time>
      </trkpt>
      <trkpt lat="47.81105" lon="-2.48551">
        <ele>88.8</ele>
        <time>2025-02-11T11:39:24Z</time>
      </trkpt>
      <trkpt lat="47.81105" lon="-2.48551">
        <ele>88.8</ele>
        <time>2025-02-11T11:39:25Z</time>
      </trkpt>
      <trkpt lat="47.81105" lon="-2.4855">
        <ele>88.9</ele>
        <time>2025-02-11T11:39:26Z</time>
      </trkpt>
      <trkpt lat="47.81105" lon="-2.4855">
        <ele>88.9</ele>
        <time>2025-02-11T11:39:27Z</time>
      </trkpt>
      <trkpt lat="47.81105" lon="-2.4855">
        <ele>88.9</ele>
        <time>2025-02-11T11:39:28Z</time>
      </trkpt>
      <trkpt lat="47.81105" lon="-2.4855">
        <ele>88.9</ele>
        <time>2025-02-11T11:39:29Z</time>
      </trkpt>
      <trkpt lat="47.81105" lon="-2.4855">
        <ele>88.9</ele>
        <time>2025-02-11T11:39:30Z</time>
      </trkpt>
      <trkpt lat="47.81105" lon="-2.4855">
        <ele>88.9</ele>
        <time>2025-02-11T11:39:31Z</time>
      </trkpt>
      <trkpt lat="47.81105" lon="-2.4855">
        <ele>88.8</ele>
        <time>2025-02-11T11:39:32Z</time>
      </trkpt>
      <trkpt lat="47.81105" lon="-2.4855">
        <ele>88.9</ele>
        <time>2025-02-11T11:39:33Z</time>
      </trkpt>
      <trkpt lat="47.81105" lon="-2.4855">
        <ele>88.9</ele>
        <time>2025-02-11T11:39:34Z</time>
      </trkpt>
      <trkpt lat="47.81105" lon="-2.4855">
        <ele>88.9</ele>
        <time>2025-02-11T11:39:35Z</time>
      </trkpt>
      <trkpt lat="47.81105" lon="-2.4855">
        <ele>88.9</ele>
        <time>2025-02-11T11:39:36Z</time>
      </trkpt>
      <trkpt lat="47.81105" lon="-2.4855">
        <ele>88.9</ele>
        <time>2025-02-11T11:39:37Z</time>
      </trkpt>
      <trkpt lat="47.81105" lon="-2.4855">
        <ele>88.9</ele>
        <time>2025-02-11T11:39:38Z</time>
      </trkpt>
      <trkpt lat="47.81105" lon="-2.4855">
        <ele>88.9</ele>
        <time>2025-02-11T11:39:39Z</time>
      </trkpt>
      <trkpt lat="47.81105" lon="-2.4855">
        <ele>88.9</ele>
        <time>2025-02-11T11:39:40Z</time>
      </trkpt>
      <trkpt lat="47.81105" lon="-2.4855">
        <ele>88.8</ele>
        <time>2025-02-11T11:39:41Z</time>
      </trkpt>
      <trkpt lat="47.81105" lon="-2.48549">
        <ele>88.8</ele>
        <time>2025-02-11T11:39:42Z</time>
      </trkpt>
      <trkpt lat="47.81105" lon="-2.48549">
        <ele>88.8</ele>
        <time>2025-02-11T11:39:43Z</time>
      </trkpt>
      <trkpt lat="47.81105" lon="-2.48549">
        <ele>88.8</ele>
        <time>2025-02-11T11:39:44Z</time>
      </trkpt>
      <trkpt lat="47.81105" lon="-2.48549">
        <ele>88.8</ele>
        <time>2025-02-11T11:39:45Z</time>
      </trkpt>
      <trkpt lat="47.81105" lon="-2.48549">
        <ele>88.8</ele>
        <time>2025-02-11T11:39:46Z</time>
      </trkpt>
      <trkpt lat="47.81105" lon="-2.48549">
        <ele>88.8</ele>
        <time>2025-02-11T11:39:47Z</time>
      </trkpt>
      <trkpt lat="47.81105" lon="-2.48549">
        <ele>88.8</ele>
        <time>2025-02-11T11:39:48Z</time>
      </trkpt>
      <trkpt lat="47.81105" lon="-2.48549">
        <ele>88.8</ele>
        <time>2025-02-11T11:39:49Z</time>
      </trkpt>
      <trkpt lat="47.81105" lon="-2.48549">
        <ele>88.8</ele>
        <time>2025-02-11T11:39:50Z</time>
      </trkpt>
      <trkpt lat="47.81105" lon="-2.48549">
        <ele>88.8</ele>
        <time>2025-02-11T11:39:51Z</time>
      </trkpt>
      <trkpt lat="47.81105" lon="-2.48549">
        <ele>88.8</ele>
        <time>2025-02-11T11:39:52Z</time>
      </trkpt>
      <trkpt lat="47.81105" lon="-2.48549">
        <ele>88.8</ele>
        <time>2025-02-11T11:39:53Z</time>
      </trkpt>
      <trkpt lat="47.81105" lon="-2.48549">
        <ele>88.8</ele>
        <time>2025-02-11T11:39:54Z</time>
      </trkpt>
      <trkpt lat="47.81105" lon="-2.48549">
        <ele>88.8</ele>
        <time>2025-02-11T11:39:55Z</time>
      </trkpt>
      <trkpt lat="47.81105" lon="-2.48549">
        <ele>88.8</ele>
        <time>2025-02-11T11:39:56Z</time>
      </trkpt>
      <trkpt lat="47.81105" lon="-2.48549">
        <ele>88.8</ele>
        <time>2025-02-11T11:39:57Z</time>
      </trkpt>
      <trkpt lat="47.81105" lon="-2.48549">
        <ele>88.8</ele>
        <time>2025-02-11T11:39:58Z</time>
      </trkpt>
      <trkpt lat="47.81105" lon="-2.48549">
        <ele>88.8</ele>
        <time>2025-02-11T11:39:59Z</time>
      </trkpt>
      <trkpt lat="47.81105" lon="-2.48549">
        <ele>88.8</ele>
        <time>2025-02-11T11:40:00Z</time>
      </trkpt>
      <trkpt lat="47.81105" lon="-2.48549">
        <ele>88.8</ele>
        <time>2025-02-11T11:40:01Z</time>
      </trkpt>
      <trkpt lat="47.81105" lon="-2.48549">
        <ele>88.8</ele>
        <time>2025-02-11T11:40:02Z</time>
      </trkpt>
      <trkpt lat="47.81105" lon="-2.48549">
        <ele>88.8</ele>
        <time>2025-02-11T11:40:03Z</time>
      </trkpt>
      <trkpt lat="47.81105" lon="-2.48549">
        <ele>88.8</ele>
        <time>2025-02-11T11:40:04Z</time>
      </trkpt>
      <trkpt lat="47.81105" lon="-2.48549">
        <ele>88.8</ele>
        <time>2025-02-11T11:40:05Z</time>
      </trkpt>
      <trkpt lat="47.81105" lon="-2.48549">
        <ele>88.8</ele>
        <time>2025-02-11T11:40:06Z</time>
      </trkpt>
      <trkpt lat="47.81105" lon="-2.48549">
        <ele>88.8</ele>
        <time>2025-02-11T11:40:07Z</time>
      </trkpt>
      <trkpt lat="47.81105" lon="-2.48549">
        <ele>88.8</ele>
        <time>2025-02-11T11:40:08Z</time>
      </trkpt>
      <trkpt lat="47.81105" lon="-2.48549">
        <ele>88.8</ele>
        <time>2025-02-11T11:40:09Z</time>
      </trkpt>
      <trkpt lat="47.81105" lon="-2.48549">
        <ele>88.8</ele>
        <time>2025-02-11T11:40:10Z</time>
      </trkpt>
      <trkpt lat="47.81105" lon="-2.48549">
        <ele>88.8</ele>
        <time>2025-02-11T11:40:11Z</time>
      </trkpt>
      <trkpt lat="47.81105" lon="-2.48549">
        <ele>88.8</ele>
        <time>2025-02-11T11:40:12Z</time>
      </trkpt>
      <trkpt lat="47.81105" lon="-2.48549">
        <ele>88.8</ele>
        <time>2025-02-11T11:40:13Z</time>
      </trkpt>
      <trkpt lat="47.81105" lon="-2.48549">
        <ele>88.8</ele>
        <time>2025-02-11T11:40:14Z</time>
      </trkpt>
      <trkpt lat="47.81105" lon="-2.48549">
        <ele>88.8</ele>
        <time>2025-02-11T11:40:15Z</time>
      </trkpt>
      <trkpt lat="47.81105" lon="-2.48549">
        <ele>88.8</ele>
        <time>2025-02-11T11:40:16Z</time>
      </trkpt>
      <trkpt lat="47.81105" lon="-2.48549">
        <ele>88.8</ele>
        <time>2025-02-11T11:40:17Z</time>
      </trkpt>
      <trkpt lat="47.81105" lon="-2.48549">
        <ele>88.8</ele>
        <time>2025-02-11T11:40:18Z</time>
      </trkpt>
      <trkpt lat="47.81105" lon="-2.48549">
        <ele>88.8</ele>
        <time>2025-02-11T11:40:19Z</time>
      </trkpt>
      <trkpt lat="47.81105" lon="-2.48549">
        <ele>88.8</ele>
        <time>2025-02-11T11:40:20Z</time>
      </trkpt>
      <trkpt lat="47.81105" lon="-2.48549">
        <ele>88.8</ele>
        <time>2025-02-11T11:40:21Z</time>
      </trkpt>
      <trkpt lat="47.81105" lon="-2.48549">
        <ele>88.8</ele>
        <time>2025-02-11T11:40:22Z</time>
      </trkpt>
      <trkpt lat="47.81105" lon="-2.48549">
        <ele>88.8</ele>
        <time>2025-02-11T11:40:23Z</time>
      </trkpt>
      <trkpt lat="47.81105" lon="-2.48549">
        <ele>88.8</ele>
        <time>2025-02-11T11:40:24Z</time>
      </trkpt>
      <trkpt lat="47.81105" lon="-2.48549">
        <ele>88.8</ele>
        <time>2025-02-11T11:40:25Z</time>
      </trkpt>
      <trkpt lat="47.81105" lon="-2.48549">
        <ele>88.8</ele>
        <time>2025-02-11T11:40:26Z</time>
      </trkpt>
      <trkpt lat="47.81105" lon="-2.48549">
        <ele>88.8</ele>
        <time>2025-02-11T11:40:27Z</time>
      </trkpt>
      <trkpt lat="47.81105" lon="-2.48549">
        <ele>88.8</ele>
        <time>2025-02-11T11:40:28Z</time>
      </trkpt>
      <trkpt lat="47.81105" lon="-2.48549">
        <ele>88.8</ele>
        <time>2025-02-11T11:40:29Z</time>
      </trkpt>
      <trkpt lat="47.81105" lon="-2.48549">
        <ele>88.8</ele>
        <time>2025-02-11T11:40:30Z</time>
      </trkpt>
      <trkpt lat="47.81105" lon="-2.48549">
        <ele>88.8</ele>
        <time>2025-02-11T11:40:31Z</time>
      </trkpt>
      <trkpt lat="47.81105" lon="-2.48549">
        <ele>88.8</ele>
        <time>2025-02-11T11:40:32Z</time>
      </trkpt>
      <trkpt lat="47.81105" lon="-2.48549">
        <ele>88.8</ele>
        <time>2025-02-11T11:40:33Z</time>
      </trkpt>
      <trkpt lat="47.81105" lon="-2.48549">
        <ele>88.8</ele>
        <time>2025-02-11T11:40:34Z</time>
      </trkpt>
      <trkpt lat="47.81105" lon="-2.48549">
        <ele>88.8</ele>
        <time>2025-02-11T11:40:35Z</time>
      </trkpt>
      <trkpt lat="47.81105" lon="-2.48549">
        <ele>88.8</ele>
        <time>2025-02-11T11:40:36Z</time>
      </trkpt>
      <trkpt lat="47.81105" lon="-2.48549">
        <ele>88.8</ele>
        <time>2025-02-11T11:40:37Z</time>
      </trkpt>
      <trkpt lat="47.81105" lon="-2.48549">
        <ele>88.8</ele>
        <time>2025-02-11T11:40:38Z</time>
      </trkpt>
      <trkpt lat="47.81105" lon="-2.48549">
        <ele>88.8</ele>
        <time>2025-02-11T11:40:39Z</time>
      </trkpt>
      <trkpt lat="47.81105" lon="-2.48549">
        <ele>88.8</ele>
        <time>2025-02-11T11:40:40Z</time>
      </trkpt>
      <trkpt lat="47.81105" lon="-2.48549">
        <ele>88.9</ele>
        <time>2025-02-11T11:40:41Z</time>
      </trkpt>
      <trkpt lat="47.81105" lon="-2.48549">
        <ele>88.9</ele>
        <time>2025-02-11T11:40:42Z</time>
      </trkpt>
      <trkpt lat="47.81105" lon="-2.48549">
        <ele>88.9</ele>
        <time>2025-02-11T11:40:43Z</time>
      </trkpt>
      <trkpt lat="47.81105" lon="-2.48549">
        <ele>88.9</ele>
        <time>2025-02-11T11:40:44Z</time>
      </trkpt>
      <trkpt lat="47.81105" lon="-2.48549">
        <ele>88.9</ele>
        <time>2025-02-11T11:40:45Z</time>
      </trkpt>
      <trkpt lat="47.81105" lon="-2.48549">
        <ele>88.9</ele>
        <time>2025-02-11T11:40:46Z</time>
      </trkpt>
      <trkpt lat="47.81105" lon="-2.48549">
        <ele>88.9</ele>
        <time>2025-02-11T11:40:47Z</time>
      </trkpt>
      <trkpt lat="47.81105" lon="-2.48549">
        <ele>88.9</ele>
        <time>2025-02-11T11:40:48Z</time>
      </trkpt>
      <trkpt lat="47.81105" lon="-2.48549">
        <ele>88.9</ele>
        <time>2025-02-11T11:40:49Z</time>
      </trkpt>
      <trkpt lat="47.81105" lon="-2.48549">
        <ele>88.9</ele>
        <time>2025-02-11T11:40:50Z</time>
      </trkpt>
      <trkpt lat="47.81105" lon="-2.48549">
        <ele>88.9</ele>
        <time>2025-02-11T11:40:51Z</time>
      </trkpt>
      <trkpt lat="47.81105" lon="-2.48549">
        <ele>88.9</ele>
        <time>2025-02-11T11:40:52Z</time>
      </trkpt>
      <trkpt lat="47.81105" lon="-2.48549">
        <ele>88.9</ele>
        <time>2025-02-11T11:40:53Z</time>
      </trkpt>
      <trkpt lat="47.81105" lon="-2.48549">
        <ele>88.9</ele>
        <time>2025-02-11T11:40:54Z</time>
      </trkpt>
      <trkpt lat="47.81105" lon="-2.48549">
        <ele>88.9</ele>
        <time>2025-02-11T11:40:55Z</time>
      </trkpt>
      <trkpt lat="47.81105" lon="-2.48549">
        <ele>88.9</ele>
        <time>2025-02-11T11:40:56Z</time>
      </trkpt>
      <trkpt lat="47.81105" lon="-2.48549">
        <ele>88.9</ele>
        <time>2025-02-11T11:40:57Z</time>
      </trkpt>
      <trkpt lat="47.81105" lon="-2.48549">
        <ele>88.9</ele>
        <time>2025-02-11T11:40:58Z</time>
      </trkpt>
      <trkpt lat="47.81105" lon="-2.48549">
        <ele>88.9</ele>
        <time>2025-02-11T11:40:59Z</time>
      </trkpt>
      <trkpt lat="47.81105" lon="-2.48549">
        <ele>88.9</ele>
        <time>2025-02-11T11:41:00Z</time>
      </trkpt>
      <trkpt lat="47.81105" lon="-2.48549">
        <ele>88.9</ele>
        <time>2025-02-11T11:41:01Z</time>
      </trkpt>
      <trkpt lat="47.81105" lon="-2.48549">
        <ele>88.9</ele>
        <time>2025-02-11T11:41:02Z</time>
      </trkpt>
      <trkpt lat="47.81105" lon="-2.48549">
        <ele>88.9</ele>
        <time>2025-02-11T11:41:03Z</time>
      </trkpt>
      <trkpt lat="47.81105" lon="-2.48549">
        <ele>88.9</ele>
        <time>2025-02-11T11:41:04Z</time>
      </trkpt>
      <trkpt lat="47.81105" lon="-2.48549">
        <ele>88.9</ele>
        <time>2025-02-11T11:41:05Z</time>
      </trkpt>
      <trkpt lat="47.81105" lon="-2.48549">
        <ele>88.9</ele>
        <time>2025-02-11T11:41:06Z</time>
      </trkpt>
      <trkpt lat="47.81105" lon="-2.48549">
        <ele>88.9</ele>
        <time>2025-02-11T11:41:07Z</time>
      </trkpt>
      <trkpt lat="47.81105" lon="-2.48549">
        <ele>88.9</ele>
        <time>2025-02-11T11:41:08Z</time>
      </trkpt>
      <trkpt lat="47.81105" lon="-2.48549">
        <ele>88.8</ele>
        <time>2025-02-11T11:41:09Z</time>
      </trkpt>
      <trkpt lat="47.81105" lon="-2.48548">
        <ele>88.8</ele>
        <time>2025-02-11T11:41:10Z</time>
      </trkpt>
      <trkpt lat="47.81105" lon="-2.48548">
        <ele>88.8</ele>
        <time>2025-02-11T11:41:11Z</time>
      </trkpt>
      <trkpt lat="47.81105" lon="-2.48548">
        <ele>88.8</ele>
        <time>2025-02-11T11:41:12Z</time>
      </trkpt>
      <trkpt lat="47.81105" lon="-2.48548">
        <ele>88.8</ele>
        <time>2025-02-11T11:41:13Z</time>
      </trkpt>
      <trkpt lat="47.81105" lon="-2.48548">
        <ele>88.8</ele>
        <time>2025-02-11T11:41:14Z</time>
      </trkpt>
      <trkpt lat="47.81105" lon="-2.48548">
        <ele>88.8</ele>
        <time>2025-02-11T11:41:15Z</time>
      </trkpt>
      <trkpt lat="47.81105" lon="-2.48548">
        <ele>88.8</ele>
        <time>2025-02-11T11:41:16Z</time>
      </trkpt>
      <trkpt lat="47.81104" lon="-2.48547">
        <ele>88.7</ele>
        <time>2025-02-11T11:41:17Z</time>
      </trkpt>
      <trkpt lat="47.81104" lon="-2.48547">
        <ele>88.7</ele>
        <time>2025-02-11T11:41:18Z</time>
      </trkpt>
      <trkpt lat="47.81104" lon="-2.48547">
        <ele>88.7</ele>
        <time>2025-02-11T11:41:19Z</time>
      </trkpt>
      <trkpt lat="47.81104" lon="-2.48547">
        <ele>88.7</ele>
        <time>2025-02-11T11:41:20Z</time>
      </trkpt>
      <trkpt lat="47.81104" lon="-2.48547">
        <ele>88.7</ele>
        <time>2025-02-11T11:41:21Z</time>
      </trkpt>
      <trkpt lat="47.81104" lon="-2.48547">
        <ele>88.7</ele>
        <time>2025-02-11T11:41:22Z</time>
      </trkpt>
      <trkpt lat="47.81104" lon="-2.48547">
        <ele>88.7</ele>
        <time>2025-02-11T11:41:23Z</time>
      </trkpt>
      <trkpt lat="47.81104" lon="-2.48547">
        <ele>88.7</ele>
        <time>2025-02-11T11:41:24Z</time>
      </trkpt>
      <trkpt lat="47.81104" lon="-2.48547">
        <ele>88.7</ele>
        <time>2025-02-11T11:41:25Z</time>
      </trkpt>
      <trkpt lat="47.81104" lon="-2.48547">
        <ele>88.7</ele>
        <time>2025-02-11T11:41:26Z</time>
      </trkpt>
      <trkpt lat="47.81104" lon="-2.48547">
        <ele>88.7</ele>
        <time>2025-02-11T11:41:27Z</time>
      </trkpt>
      <trkpt lat="47.81104" lon="-2.48547">
        <ele>88.7</ele>
        <time>2025-02-11T11:41:28Z</time>
      </trkpt>
      <trkpt lat="47.81104" lon="-2.48547">
        <ele>88.7</ele>
        <time>2025-02-11T11:41:29Z</time>
      </trkpt>
      <trkpt lat="47.81104" lon="-2.48547">
        <ele>88.7</ele>
        <time>2025-02-11T11:41:30Z</time>
      </trkpt>
      <trkpt lat="47.81104" lon="-2.48547">
        <ele>88.7</ele>
        <time>2025-02-11T11:41:31Z</time>
      </trkpt>
      <trkpt lat="47.81104" lon="-2.48547">
        <ele>88.7</ele>
        <time>2025-02-11T11:41:32Z</time>
      </trkpt>
      <trkpt lat="47.81104" lon="-2.48547">
        <ele>88.7</ele>
        <time>2025-02-11T11:41:33Z</time>
      </trkpt>
      <trkpt lat="47.81104" lon="-2.48547">
        <ele>88.7</ele>
        <time>2025-02-11T11:41:34Z</time>
      </trkpt>
      <trkpt lat="47.81104" lon="-2.48547">
        <ele>88.7</ele>
        <time>2025-02-11T11:41:35Z</time>
      </trkpt>
      <trkpt lat="47.81104" lon="-2.48547">
        <ele>88.7</ele>
        <time>2025-02-11T11:41:36Z</time>
      </trkpt>
      <trkpt lat="47.81104" lon="-2.48547">
        <ele>88.7</ele>
        <time>2025-02-11T11:41:37Z</time>
      </trkpt>
      <trkpt lat="47.81104" lon="-2.48547">
        <ele>88.6</ele>
        <time>2025-02-11T11:41:38Z</time>
      </trkpt>
      <trkpt lat="47.81104" lon="-2.48547">
        <ele>88.6</ele>
        <time>2025-02-11T11:41:39Z</time>
      </trkpt>
      <trkpt lat="47.81104" lon="-2.48547">
        <ele>88.6</ele>
        <time>2025-02-11T11:41:40Z</time>
      </trkpt>
      <trkpt lat="47.81104" lon="-2.48547">
        <ele>88.6</ele>
        <time>2025-02-11T11:41:41Z</time>
      </trkpt>
      <trkpt lat="47.81104" lon="-2.48547">
        <ele>88.6</ele>
        <time>2025-02-11T11:41:42Z</time>
      </trkpt>
      <trkpt lat="47.81104" lon="-2.48547">
        <ele>88.6</ele>
        <time>2025-02-11T11:41:43Z</time>
      </trkpt>
      <trkpt lat="47.81104" lon="-2.48547">
        <ele>88.6</ele>
        <time>2025-02-11T11:41:44Z</time>
      </trkpt>
      <trkpt lat="47.81104" lon="-2.48547">
        <ele>88.6</ele>
        <time>2025-02-11T11:41:45Z</time>
      </trkpt>
      <trkpt lat="47.81104" lon="-2.48547">
        <ele>88.6</ele>
        <time>2025-02-11T11:41:46Z</time>
      </trkpt>
      <trkpt lat="47.81104" lon="-2.48547">
        <ele>88.6</ele>
        <time>2025-02-11T11:41:47Z</time>
      </trkpt>
      <trkpt lat="47.81104" lon="-2.48547">
        <ele>88.6</ele>
        <time>2025-02-11T11:41:48Z</time>
      </trkpt>
      <trkpt lat="47.81104" lon="-2.48547">
        <ele>88.6</ele>
        <time>2025-02-11T11:41:49Z</time>
      </trkpt>
      <trkpt lat="47.81104" lon="-2.48547">
        <ele>88.6</ele>
        <time>2025-02-11T11:41:50Z</time>
      </trkpt>
      <trkpt lat="47.81104" lon="-2.48547">
        <ele>88.6</ele>
        <time>2025-02-11T11:41:51Z</time>
      </trkpt>
      <trkpt lat="47.81104" lon="-2.48547">
        <ele>88.6</ele>
        <time>2025-02-11T11:41:52Z</time>
      </trkpt>
      <trkpt lat="47.81104" lon="-2.48547">
        <ele>88.6</ele>
        <time>2025-02-11T11:41:53Z</time>
      </trkpt>
      <trkpt lat="47.81104" lon="-2.48547">
        <ele>88.6</ele>
        <time>2025-02-11T11:41:54Z</time>
      </trkpt>
      <trkpt lat="47.81104" lon="-2.48547">
        <ele>88.6</ele>
        <time>2025-02-11T11:41:55Z</time>
      </trkpt>
      <trkpt lat="47.81104" lon="-2.48547">
        <ele>88.6</ele>
        <time>2025-02-11T11:41:56Z</time>
      </trkpt>
      <trkpt lat="47.81104" lon="-2.48547">
        <ele>88.6</ele>
        <time>2025-02-11T11:41:57Z</time>
      </trkpt>
      <trkpt lat="47.81104" lon="-2.48547">
        <ele>88.6</ele>
        <time>2025-02-11T11:41:58Z</time>
      </trkpt>
      <trkpt lat="47.81104" lon="-2.48547">
        <ele>88.6</ele>
        <time>2025-02-11T11:41:59Z</time>
      </trkpt>
      <trkpt lat="47.81104" lon="-2.48547">
        <ele>88.6</ele>
        <time>2025-02-11T11:42:00Z</time>
      </trkpt>
      <trkpt lat="47.81104" lon="-2.48547">
        <ele>88.6</ele>
        <time>2025-02-11T11:42:01Z</time>
      </trkpt>
      <trkpt lat="47.81104" lon="-2.48546">
        <ele>88.6</ele>
        <time>2025-02-11T11:42:02Z</time>
      </trkpt>
      <trkpt lat="47.81104" lon="-2.48546">
        <ele>88.7</ele>
        <time>2025-02-11T11:42:03Z</time>
      </trkpt>
      <trkpt lat="47.81104" lon="-2.48546">
        <ele>88.7</ele>
        <time>2025-02-11T11:42:04Z</time>
      </trkpt>
      <trkpt lat="47.81104" lon="-2.48546">
        <ele>88.7</ele>
        <time>2025-02-11T11:42:05Z</time>
      </trkpt>
      <trkpt lat="47.81104" lon="-2.48545">
        <ele>88.7</ele>
        <time>2025-02-11T11:42:06Z</time>
      </trkpt>
      <trkpt lat="47.81104" lon="-2.48545">
        <ele>88.7</ele>
        <time>2025-02-11T11:42:07Z</time>
      </trkpt>
      <trkpt lat="47.81104" lon="-2.48545">
        <ele>88.7</ele>
        <time>2025-02-11T11:42:08Z</time>
      </trkpt>
      <trkpt lat="47.81104" lon="-2.48545">
        <ele>88.7</ele>
        <time>2025-02-11T11:42:09Z</time>
      </trkpt>
      <trkpt lat="47.81104" lon="-2.48545">
        <ele>88.7</ele>
        <time>2025-02-11T11:42:10Z</time>
      </trkpt>
      <trkpt lat="47.81104" lon="-2.48545">
        <ele>88.7</ele>
        <time>2025-02-11T11:42:11Z</time>
      </trkpt>
      <trkpt lat="47.81104" lon="-2.48545">
        <ele>88.7</ele>
        <time>2025-02-11T11:42:12Z</time>
      </trkpt>
      <trkpt lat="47.81104" lon="-2.48545">
        <ele>88.7</ele>
        <time>2025-02-11T11:42:13Z</time>
      </trkpt>
      <trkpt lat="47.81104" lon="-2.48545">
        <ele>88.7</ele>
        <time>2025-02-11T11:42:14Z</time>
      </trkpt>
      <trkpt lat="47.81104" lon="-2.48545">
        <ele>88.7</ele>
        <time>2025-02-11T11:42:15Z</time>
      </trkpt>
      <trkpt lat="47.81104" lon="-2.48545">
        <ele>88.7</ele>
        <time>2025-02-11T11:42:16Z</time>
      </trkpt>
      <trkpt lat="47.81104" lon="-2.48545">
        <ele>88.7</ele>
        <time>2025-02-11T11:42:17Z</time>
      </trkpt>
      <trkpt lat="47.81104" lon="-2.48545">
        <ele>88.7</ele>
        <time>2025-02-11T11:42:18Z</time>
      </trkpt>
      <trkpt lat="47.81104" lon="-2.48545">
        <ele>88.7</ele>
        <time>2025-02-11T11:42:19Z</time>
      </trkpt>
      <trkpt lat="47.81104" lon="-2.48545">
        <ele>88.7</ele>
        <time>2025-02-11T11:42:20Z</time>
      </trkpt>
      <trkpt lat="47.81104" lon="-2.48546">
        <ele>88.7</ele>
        <time>2025-02-11T11:42:21Z</time>
      </trkpt>
      <trkpt lat="47.81104" lon="-2.48546">
        <ele>88.7</ele>
        <time>2025-02-11T11:42:22Z</time>
      </trkpt>
      <trkpt lat="47.81104" lon="-2.48546">
        <ele>88.7</ele>
        <time>2025-02-11T11:42:23Z</time>
      </trkpt>
      <trkpt lat="47.81104" lon="-2.48546">
        <ele>88.7</ele>
        <time>2025-02-11T11:42:24Z</time>
      </trkpt>
      <trkpt lat="47.81104" lon="-2.48546">
        <ele>88.7</ele>
        <time>2025-02-11T11:42:25Z</time>
      </trkpt>
      <trkpt lat="47.81104" lon="-2.48546">
        <ele>88.7</ele>
        <time>2025-02-11T11:42:26Z</time>
      </trkpt>
      <trkpt lat="47.81104" lon="-2.48546">
        <ele>88.7</ele>
        <time>2025-02-11T11:42:27Z</time>
      </trkpt>
      <trkpt lat="47.81104" lon="-2.48546">
        <ele>88.7</ele>
        <time>2025-02-11T11:42:28Z</time>
      </trkpt>
      <trkpt lat="47.81104" lon="-2.48546">
        <ele>88.7</ele>
        <time>2025-02-11T11:42:29Z</time>
      </trkpt>
      <trkpt lat="47.81104" lon="-2.48546">
        <ele>88.7</ele>
        <time>2025-02-11T11:42:30Z</time>
      </trkpt>
      <trkpt lat="47.81104" lon="-2.48546">
        <ele>88.7</ele>
        <time>2025-02-11T11:42:31Z</time>
      </trkpt>
      <trkpt lat="47.81104" lon="-2.48546">
        <ele>88.7</ele>
        <time>2025-02-11T11:42:32Z</time>
      </trkpt>
      <trkpt lat="47.81104" lon="-2.48546">
        <ele>88.7</ele>
        <time>2025-02-11T11:42:33Z</time>
      </trkpt>
      <trkpt lat="47.81104" lon="-2.48546">
        <ele>88.7</ele>
        <time>2025-02-11T11:42:34Z</time>
      </trkpt>
      <trkpt lat="47.81104" lon="-2.48546">
        <ele>88.7</ele>
        <time>2025-02-11T11:42:35Z</time>
      </trkpt>
      <trkpt lat="47.81104" lon="-2.48546">
        <ele>88.8</ele>
        <time>2025-02-11T11:42:36Z</time>
      </trkpt>
      <trkpt lat="47.81104" lon="-2.48546">
        <ele>88.8</ele>
        <time>2025-02-11T11:42:37Z</time>
      </trkpt>
      <trkpt lat="47.81104" lon="-2.48546">
        <ele>88.8</ele>
        <time>2025-02-11T11:42:38Z</time>
      </trkpt>
      <trkpt lat="47.81104" lon="-2.48546">
        <ele>88.8</ele>
        <time>2025-02-11T11:42:39Z</time>
      </trkpt>
      <trkpt lat="47.81104" lon="-2.48546">
        <ele>88.8</ele>
        <time>2025-02-11T11:42:40Z</time>
      </trkpt>
      <trkpt lat="47.81104" lon="-2.48546">
        <ele>88.8</ele>
        <time>2025-02-11T11:42:41Z</time>
      </trkpt>
      <trkpt lat="47.81104" lon="-2.48546">
        <ele>88.8</ele>
        <time>2025-02-11T11:42:42Z</time>
      </trkpt>
      <trkpt lat="47.81104" lon="-2.48546">
        <ele>88.8</ele>
        <time>2025-02-11T11:42:43Z</time>
      </trkpt>
      <trkpt lat="47.81104" lon="-2.48546">
        <ele>88.8</ele>
        <time>2025-02-11T11:42:44Z</time>
      </trkpt>
      <trkpt lat="47.81104" lon="-2.48546">
        <ele>88.8</ele>
        <time>2025-02-11T11:42:45Z</time>
      </trkpt>
      <trkpt lat="47.81104" lon="-2.48546">
        <ele>88.8</ele>
        <time>2025-02-11T11:42:46Z</time>
      </trkpt>
      <trkpt lat="47.81104" lon="-2.48546">
        <ele>88.8</ele>
        <time>2025-02-11T11:42:47Z</time>
      </trkpt>
      <trkpt lat="47.81104" lon="-2.48546">
        <ele>88.8</ele>
        <time>2025-02-11T11:42:48Z</time>
      </trkpt>
      <trkpt lat="47.81104" lon="-2.48546">
        <ele>88.8</ele>
        <time>2025-02-11T11:42:49Z</time>
      </trkpt>
      <trkpt lat="47.81104" lon="-2.48546">
        <ele>88.8</ele>
        <time>2025-02-11T11:42:50Z</time>
      </trkpt>
      <trkpt lat="47.81104" lon="-2.48546">
        <ele>88.8</ele>
        <time>2025-02-11T11:42:51Z</time>
      </trkpt>
      <trkpt lat="47.81104" lon="-2.48546">
        <ele>88.8</ele>
        <time>2025-02-11T11:42:52Z</time>
      </trkpt>
      <trkpt lat="47.81104" lon="-2.48546">
        <ele>88.8</ele>
        <time>2025-02-11T11:42:53Z</time>
      </trkpt>
      <trkpt lat="47.81104" lon="-2.48546">
        <ele>88.8</ele>
        <time>2025-02-11T11:42:54Z</time>
      </trkpt>
      <trkpt lat="47.81104" lon="-2.48546">
        <ele>88.8</ele>
        <time>2025-02-11T11:42:55Z</time>
      </trkpt>
      <trkpt lat="47.81104" lon="-2.48546">
        <ele>88.8</ele>
        <time>2025-02-11T11:42:56Z</time>
      </trkpt>
      <trkpt lat="47.81104" lon="-2.48546">
        <ele>88.8</ele>
        <time>2025-02-11T11:42:57Z</time>
      </trkpt>
      <trkpt lat="47.81104" lon="-2.48546">
        <ele>88.8</ele>
        <time>2025-02-11T11:42:58Z</time>
      </trkpt>
      <trkpt lat="47.81104" lon="-2.48546">
        <ele>88.7</ele>
        <time>2025-02-11T11:42:59Z</time>
      </trkpt>
      <trkpt lat="47.81104" lon="-2.48546">
        <ele>88.7</ele>
        <time>2025-02-11T11:43:00Z</time>
      </trkpt>
      <trkpt lat="47.81104" lon="-2.48546">
        <ele>88.7</ele>
        <time>2025-02-11T11:43:01Z</time>
      </trkpt>
      <trkpt lat="47.81104" lon="-2.48546">
        <ele>88.7</ele>
        <time>2025-02-11T11:43:02Z</time>
      </trkpt>
      <trkpt lat="47.81104" lon="-2.48546">
        <ele>88.7</ele>
        <time>2025-02-11T11:43:03Z</time>
      </trkpt>
      <trkpt lat="47.81104" lon="-2.48546">
        <ele>88.7</ele>
        <time>2025-02-11T11:43:04Z</time>
      </trkpt>
      <trkpt lat="47.81104" lon="-2.48546">
        <ele>88.8</ele>
        <time>2025-02-11T11:43:05Z</time>
      </trkpt>
      <trkpt lat="47.81104" lon="-2.48546">
        <ele>88.8</ele>
        <time>2025-02-11T11:43:06Z</time>
      </trkpt>
      <trkpt lat="47.81104" lon="-2.48546">
        <ele>88.7</ele>
        <time>2025-02-11T11:43:07Z</time>
      </trkpt>
      <trkpt lat="47.81104" lon="-2.48546">
        <ele>88.7</ele>
        <time>2025-02-11T11:43:08Z</time>
      </trkpt>
      <trkpt lat="47.81104" lon="-2.48546">
        <ele>88.7</ele>
        <time>2025-02-11T11:43:09Z</time>
      </trkpt>
      <trkpt lat="47.81104" lon="-2.48546">
        <ele>88.7</ele>
        <time>2025-02-11T11:43:10Z</time>
      </trkpt>
      <trkpt lat="47.81104" lon="-2.48546">
        <ele>88.8</ele>
        <time>2025-02-11T11:43:11Z</time>
      </trkpt>
      <trkpt lat="47.81104" lon="-2.48546">
        <ele>88.8</ele>
        <time>2025-02-11T11:43:12Z</time>
      </trkpt>
      <trkpt lat="47.81104" lon="-2.48546">
        <ele>88.8</ele>
        <time>2025-02-11T11:43:13Z</time>
      </trkpt>
      <trkpt lat="47.81104" lon="-2.48546">
        <ele>88.8</ele>
        <time>2025-02-11T11:43:14Z</time>
      </trkpt>
      <trkpt lat="47.81104" lon="-2.48546">
        <ele>88.8</ele>
        <time>2025-02-11T11:43:15Z</time>
      </trkpt>
      <trkpt lat="47.81104" lon="-2.48546">
        <ele>88.8</ele>
        <time>2025-02-11T11:43:16Z</time>
      </trkpt>
      <trkpt lat="47.81104" lon="-2.48546">
        <ele>88.8</ele>
        <time>2025-02-11T11:43:17Z</time>
      </trkpt>
      <trkpt lat="47.81104" lon="-2.48546">
        <ele>88.8</ele>
        <time>2025-02-11T11:43:18Z</time>
      </trkpt>
      <trkpt lat="47.81104" lon="-2.48546">
        <ele>88.8</ele>
        <time>2025-02-11T11:43:19Z</time>
      </trkpt>
      <trkpt lat="47.81104" lon="-2.48546">
        <ele>88.8</ele>
        <time>2025-02-11T11:43:20Z</time>
      </trkpt>
      <trkpt lat="47.81104" lon="-2.48546">
        <ele>88.8</ele>
        <time>2025-02-11T11:43:21Z</time>
      </trkpt>
      <trkpt lat="47.81104" lon="-2.48546">
        <ele>88.8</ele>
        <time>2025-02-11T11:43:22Z</time>
      </trkpt>
      <trkpt lat="47.81104" lon="-2.48546">
        <ele>88.8</ele>
        <time>2025-02-11T11:43:23Z</time>
      </trkpt>
      <trkpt lat="47.81104" lon="-2.48546">
        <ele>88.8</ele>
        <time>2025-02-11T11:43:24Z</time>
      </trkpt>
      <trkpt lat="47.81104" lon="-2.48546">
        <ele>88.8</ele>
        <time>2025-02-11T11:43:25Z</time>
      </trkpt>
      <trkpt lat="47.81104" lon="-2.48546">
        <ele>88.8</ele>
        <time>2025-02-11T11:43:26Z</time>
      </trkpt>
      <trkpt lat="47.81104" lon="-2.48546">
        <ele>88.8</ele>
        <time>2025-02-11T11:43:27Z</time>
      </trkpt>
      <trkpt lat="47.81104" lon="-2.48546">
        <ele>88.8</ele>
        <time>2025-02-11T11:43:28Z</time>
      </trkpt>
      <trkpt lat="47.81104" lon="-2.48546">
        <ele>88.8</ele>
        <time>2025-02-11T11:43:29Z</time>
      </trkpt>
      <trkpt lat="47.81104" lon="-2.48546">
        <ele>88.8</ele>
        <time>2025-02-11T11:43:30Z</time>
      </trkpt>
      <trkpt lat="47.81104" lon="-2.48546">
        <ele>88.8</ele>
        <time>2025-02-11T11:43:31Z</time>
      </trkpt>
      <trkpt lat="47.81104" lon="-2.48546">
        <ele>88.8</ele>
        <time>2025-02-11T11:43:32Z</time>
      </trkpt>
      <trkpt lat="47.81104" lon="-2.48546">
        <ele>88.8</ele>
        <time>2025-02-11T11:43:33Z</time>
      </trkpt>
      <trkpt lat="47.81104" lon="-2.48546">
        <ele>88.8</ele>
        <time>2025-02-11T11:43:34Z</time>
      </trkpt>
      <trkpt lat="47.81104" lon="-2.48546">
        <ele>88.8</ele>
        <time>2025-02-11T11:43:35Z</time>
      </trkpt>
      <trkpt lat="47.81104" lon="-2.48546">
        <ele>88.8</ele>
        <time>2025-02-11T11:43:36Z</time>
      </trkpt>
      <trkpt lat="47.81104" lon="-2.48546">
        <ele>88.8</ele>
        <time>2025-02-11T11:43:37Z</time>
      </trkpt>
      <trkpt lat="47.81104" lon="-2.48546">
        <ele>88.8</ele>
        <time>2025-02-11T11:43:38Z</time>
      </trkpt>
      <trkpt lat="47.81104" lon="-2.48546">
        <ele>88.8</ele>
        <time>2025-02-11T11:43:39Z</time>
      </trkpt>
      <trkpt lat="47.81104" lon="-2.48546">
        <ele>88.8</ele>
        <time>2025-02-11T11:43:40Z</time>
      </trkpt>
      <trkpt lat="47.81104" lon="-2.48546">
        <ele>88.8</ele>
        <time>2025-02-11T11:43:41Z</time>
      </trkpt>
      <trkpt lat="47.81104" lon="-2.48547">
        <ele>88.8</ele>
        <time>2025-02-11T11:43:42Z</time>
      </trkpt>
      <trkpt lat="47.81104" lon="-2.48547">
        <ele>88.8</ele>
        <time>2025-02-11T11:43:43Z</time>
      </trkpt>
      <trkpt lat="47.81104" lon="-2.48546">
        <ele>88.7</ele>
        <time>2025-02-11T11:43:44Z</time>
      </trkpt>
      <trkpt lat="47.81104" lon="-2.48546">
        <ele>88.7</ele>
        <time>2025-02-11T11:43:45Z</time>
      </trkpt>
      <trkpt lat="47.81104" lon="-2.48546">
        <ele>88.7</ele>
        <time>2025-02-11T11:43:46Z</time>
      </trkpt>
      <trkpt lat="47.81104" lon="-2.48546">
        <ele>88.7</ele>
        <time>2025-02-11T11:43:47Z</time>
      </trkpt>
      <trkpt lat="47.81104" lon="-2.48546">
        <ele>88.7</ele>
        <time>2025-02-11T11:43:48Z</time>
      </trkpt>
      <trkpt lat="47.81104" lon="-2.48546">
        <ele>88.7</ele>
        <time>2025-02-11T11:43:49Z</time>
      </trkpt>
      <trkpt lat="47.81104" lon="-2.48546">
        <ele>88.7</ele>
        <time>2025-02-11T11:43:50Z</time>
      </trkpt>
      <trkpt lat="47.81104" lon="-2.48546">
        <ele>88.7</ele>
        <time>2025-02-11T11:43:51Z</time>
      </trkpt>
      <trkpt lat="47.81104" lon="-2.48546">
        <ele>88.7</ele>
        <time>2025-02-11T11:43:52Z</time>
      </trkpt>
      <trkpt lat="47.81104" lon="-2.48546">
        <ele>88.7</ele>
        <time>2025-02-11T11:43:53Z</time>
      </trkpt>
      <trkpt lat="47.81104" lon="-2.48546">
        <ele>88.7</ele>
        <time>2025-02-11T11:43:54Z</time>
      </trkpt>
      <trkpt lat="47.81104" lon="-2.48546">
        <ele>88.7</ele>
        <time>2025-02-11T11:43:55Z</time>
      </trkpt>
      <trkpt lat="47.81104" lon="-2.48546">
        <ele>88.7</ele>
        <time>2025-02-11T11:43:56Z</time>
      </trkpt>
      <trkpt lat="47.81104" lon="-2.48546">
        <ele>88.7</ele>
        <time>2025-02-11T11:43:57Z</time>
      </trkpt>
      <trkpt lat="47.81104" lon="-2.48546">
        <ele>88.7</ele>
        <time>2025-02-11T11:43:58Z</time>
      </trkpt>
      <trkpt lat="47.81104" lon="-2.48546">
        <ele>88.7</ele>
        <time>2025-02-11T11:43:59Z</time>
      </trkpt>
      <trkpt lat="47.81104" lon="-2.48546">
        <ele>88.8</ele>
        <time>2025-02-11T11:44:00Z</time>
      </trkpt>
      <trkpt lat="47.81104" lon="-2.48545">
        <ele>88.8</ele>
        <time>2025-02-11T11:44:01Z</time>
      </trkpt>
      <trkpt lat="47.81104" lon="-2.48545">
        <ele>88.8</ele>
        <time>2025-02-11T11:44:02Z</time>
      </trkpt>
      <trkpt lat="47.81104" lon="-2.48545">
        <ele>88.8</ele>
        <time>2025-02-11T11:44:03Z</time>
      </trkpt>
      <trkpt lat="47.81104" lon="-2.48545">
        <ele>88.8</ele>
        <time>2025-02-11T11:44:04Z</time>
      </trkpt>
      <trkpt lat="47.81104" lon="-2.48545">
        <ele>88.8</ele>
        <time>2025-02-11T11:44:05Z</time>
      </trkpt>
      <trkpt lat="47.81104" lon="-2.48545">
        <ele>88.8</ele>
        <time>2025-02-11T11:44:06Z</time>
      </trkpt>
      <trkpt lat="47.81104" lon="-2.48545">
        <ele>88.8</ele>
        <time>2025-02-11T11:44:07Z</time>
      </trkpt>
      <trkpt lat="47.81104" lon="-2.48545">
        <ele>88.8</ele>
        <time>2025-02-11T11:44:08Z</time>
      </trkpt>
      <trkpt lat="47.81104" lon="-2.48545">
        <ele>88.8</ele>
        <time>2025-02-11T11:44:09Z</time>
      </trkpt>
      <trkpt lat="47.81104" lon="-2.48545">
        <ele>88.8</ele>
        <time>2025-02-11T11:44:10Z</time>
      </trkpt>
      <trkpt lat="47.81104" lon="-2.48545">
        <ele>88.8</ele>
        <time>2025-02-11T11:44:11Z</time>
      </trkpt>
      <trkpt lat="47.81104" lon="-2.48545">
        <ele>88.8</ele>
        <time>2025-02-11T11:44:12Z</time>
      </trkpt>
      <trkpt lat="47.81104" lon="-2.48545">
        <ele>88.8</ele>
        <time>2025-02-11T11:44:13Z</time>
      </trkpt>
      <trkpt lat="47.81104" lon="-2.48545">
        <ele>88.8</ele>
        <time>2025-02-11T11:44:14Z</time>
      </trkpt>
      <trkpt lat="47.81104" lon="-2.48545">
        <ele>88.8</ele>
        <time>2025-02-11T11:44:15Z</time>
      </trkpt>
      <trkpt lat="47.81104" lon="-2.48545">
        <ele>88.8</ele>
        <time>2025-02-11T11:44:16Z</time>
      </trkpt>
      <trkpt lat="47.81104" lon="-2.48545">
        <ele>88.8</ele>
        <time>2025-02-11T11:44:17Z</time>
      </trkpt>
      <trkpt lat="47.81104" lon="-2.48545">
        <ele>88.8</ele>
        <time>2025-02-11T11:44:18Z</time>
      </trkpt>
      <trkpt lat="47.81104" lon="-2.48545">
        <ele>88.8</ele>
        <time>2025-02-11T11:44:19Z</time>
      </trkpt>
      <trkpt lat="47.81104" lon="-2.48545">
        <ele>88.8</ele>
        <time>2025-02-11T11:44:20Z</time>
      </trkpt>
      <trkpt lat="47.81104" lon="-2.48545">
        <ele>88.8</ele>
        <time>2025-02-11T11:44:21Z</time>
      </trkpt>
      <trkpt lat="47.81104" lon="-2.48545">
        <ele>88.8</ele>
        <time>2025-02-11T11:44:22Z</time>
      </trkpt>
      <trkpt lat="47.81104" lon="-2.48545">
        <ele>88.8</ele>
        <time>2025-02-11T11:44:23Z</time>
      </trkpt>
      <trkpt lat="47.81104" lon="-2.48545">
        <ele>88.8</ele>
        <time>2025-02-11T11:44:24Z</time>
      </trkpt>
      <trkpt lat="47.81104" lon="-2.48545">
        <ele>88.8</ele>
        <time>2025-02-11T11:44:25Z</time>
      </trkpt>
      <trkpt lat="47.81104" lon="-2.48545">
        <ele>88.8</ele>
        <time>2025-02-11T11:44:26Z</time>
      </trkpt>
      <trkpt lat="47.81104" lon="-2.48545">
        <ele>88.8</ele>
        <time>2025-02-11T11:44:27Z</time>
      </trkpt>
      <trkpt lat="47.81104" lon="-2.48545">
        <ele>88.8</ele>
        <time>2025-02-11T11:44:28Z</time>
      </trkpt>
      <trkpt lat="47.81104" lon="-2.48545">
        <ele>88.8</ele>
        <time>2025-02-11T11:44:29Z</time>
      </trkpt>
      <trkpt lat="47.81104" lon="-2.48545">
        <ele>88.8</ele>
        <time>2025-02-11T11:44:30Z</time>
      </trkpt>
      <trkpt lat="47.81104" lon="-2.48545">
        <ele>88.8</ele>
        <time>2025-02-11T11:44:31Z</time>
      </trkpt>
      <trkpt lat="47.81104" lon="-2.48545">
        <ele>88.8</ele>
        <time>2025-02-11T11:44:32Z</time>
      </trkpt>
      <trkpt lat="47.81104" lon="-2.48545">
        <ele>88.8</ele>
        <time>2025-02-11T11:44:33Z</time>
      </trkpt>
      <trkpt lat="47.81104" lon="-2.48545">
        <ele>88.8</ele>
        <time>2025-02-11T11:44:34Z</time>
      </trkpt>
      <trkpt lat="47.81104" lon="-2.48545">
        <ele>88.8</ele>
        <time>2025-02-11T11:44:35Z</time>
      </trkpt>
      <trkpt lat="47.81104" lon="-2.48545">
        <ele>88.8</ele>
        <time>2025-02-11T11:44:36Z</time>
      </trkpt>
      <trkpt lat="47.81104" lon="-2.48545">
        <ele>88.8</ele>
        <time>2025-02-11T11:44:37Z</time>
      </trkpt>
      <trkpt lat="47.81104" lon="-2.48545">
        <ele>88.8</ele>
        <time>2025-02-11T11:44:38Z</time>
      </trkpt>
      <trkpt lat="47.81104" lon="-2.48545">
        <ele>88.8</ele>
        <time>2025-02-11T11:44:39Z</time>
      </trkpt>
      <trkpt lat="47.81104" lon="-2.48545">
        <ele>88.8</ele>
        <time>2025-02-11T11:44:40Z</time>
      </trkpt>
      <trkpt lat="47.81104" lon="-2.48545">
        <ele>88.8</ele>
        <time>2025-02-11T11:44:41Z</time>
      </trkpt>
      <trkpt lat="47.81104" lon="-2.48545">
        <ele>88.8</ele>
        <time>2025-02-11T11:44:42Z</time>
      </trkpt>
      <trkpt lat="47.81104" lon="-2.48545">
        <ele>88.8</ele>
        <time>2025-02-11T11:44:43Z</time>
      </trkpt>
      <trkpt lat="47.81104" lon="-2.48545">
        <ele>88.8</ele>
        <time>2025-02-11T11:44:44Z</time>
      </trkpt>
      <trkpt lat="47.81104" lon="-2.48545">
        <ele>88.8</ele>
        <time>2025-02-11T11:44:45Z</time>
      </trkpt>
      <trkpt lat="47.81104" lon="-2.48545">
        <ele>88.8</ele>
        <time>2025-02-11T11:44:46Z</time>
      </trkpt>
      <trkpt lat="47.81104" lon="-2.48545">
        <ele>88.8</ele>
        <time>2025-02-11T11:44:47Z</time>
      </trkpt>
      <trkpt lat="47.81104" lon="-2.48545">
        <ele>88.8</ele>
        <time>2025-02-11T11:44:48Z</time>
      </trkpt>
      <trkpt lat="47.81104" lon="-2.48545">
        <ele>88.8</ele>
        <time>2025-02-11T11:44:49Z</time>
      </trkpt>
      <trkpt lat="47.81104" lon="-2.48545">
        <ele>88.8</ele>
        <time>2025-02-11T11:44:50Z</time>
      </trkpt>
      <trkpt lat="47.81104" lon="-2.48545">
        <ele>88.8</ele>
        <time>2025-02-11T11:44:51Z</time>
      </trkpt>
      <trkpt lat="47.81104" lon="-2.48545">
        <ele>88.8</ele>
        <time>2025-02-11T11:44:52Z</time>
      </trkpt>
      <trkpt lat="47.81104" lon="-2.48546">
        <ele>88.8</ele>
        <time>2025-02-11T11:44:53Z</time>
      </trkpt>
      <trkpt lat="47.81104" lon="-2.48546">
        <ele>88.8</ele>
        <time>2025-02-11T11:44:54Z</time>
      </trkpt>
      <trkpt lat="47.81104" lon="-2.48546">
        <ele>88.8</ele>
        <time>2025-02-11T11:44:55Z</time>
      </trkpt>
      <trkpt lat="47.81104" lon="-2.48546">
        <ele>88.8</ele>
        <time>2025-02-11T11:44:56Z</time>
      </trkpt>
      <trkpt lat="47.81104" lon="-2.48546">
        <ele>88.8</ele>
        <time>2025-02-11T11:44:57Z</time>
      </trkpt>
      <trkpt lat="47.81104" lon="-2.48546">
        <ele>88.8</ele>
        <time>2025-02-11T11:44:58Z</time>
      </trkpt>
      <trkpt lat="47.81104" lon="-2.48546">
        <ele>88.8</ele>
        <time>2025-02-11T11:44:59Z</time>
      </trkpt>
      <trkpt lat="47.81104" lon="-2.48546">
        <ele>88.8</ele>
        <time>2025-02-11T11:45:00Z</time>
      </trkpt>
      <trkpt lat="47.81104" lon="-2.48546">
        <ele>88.8</ele>
        <time>2025-02-11T11:45:01Z</time>
      </trkpt>
      <trkpt lat="47.81104" lon="-2.48546">
        <ele>88.8</ele>
        <time>2025-02-11T11:45:02Z</time>
      </trkpt>
      <trkpt lat="47.81104" lon="-2.48546">
        <ele>88.8</ele>
        <time>2025-02-11T11:45:03Z</time>
      </trkpt>
      <trkpt lat="47.81104" lon="-2.48546">
        <ele>88.8</ele>
        <time>2025-02-11T11:45:04Z</time>
      </trkpt>
      <trkpt lat="47.81104" lon="-2.48546">
        <ele>88.8</ele>
        <time>2025-02-11T11:45:05Z</time>
      </trkpt>
      <trkpt lat="47.81104" lon="-2.48546">
        <ele>88.8</ele>
        <time>2025-02-11T11:45:06Z</time>
      </trkpt>
      <trkpt lat="47.81104" lon="-2.48546">
        <ele>88.8</ele>
        <time>2025-02-11T11:45:07Z</time>
      </trkpt>
      <trkpt lat="47.81104" lon="-2.48546">
        <ele>88.8</ele>
        <time>2025-02-11T11:45:08Z</time>
      </trkpt>
      <trkpt lat="47.81104" lon="-2.48546">
        <ele>88.8</ele>
        <time>2025-02-11T11:45:09Z</time>
      </trkpt>
      <trkpt lat="47.81104" lon="-2.48546">
        <ele>88.8</ele>
        <time>2025-02-11T11:45:10Z</time>
      </trkpt>
      <trkpt lat="47.81104" lon="-2.48546">
        <ele>88.8</ele>
        <time>2025-02-11T11:45:11Z</time>
      </trkpt>
      <trkpt lat="47.81104" lon="-2.48546">
        <ele>88.8</ele>
        <time>2025-02-11T11:45:12Z</time>
      </trkpt>
      <trkpt lat="47.81104" lon="-2.48546">
        <ele>88.8</ele>
        <time>2025-02-11T11:45:13Z</time>
      </trkpt>
      <trkpt lat="47.81104" lon="-2.48546">
        <ele>88.8</ele>
        <time>2025-02-11T11:45:14Z</time>
      </trkpt>
      <trkpt lat="47.81104" lon="-2.48546">
        <ele>88.8</ele>
        <time>2025-02-11T11:45:15Z</time>
      </trkpt>
      <trkpt lat="47.81104" lon="-2.48546">
        <ele>88.8</ele>
        <time>2025-02-11T11:45:16Z</time>
      </trkpt>
      <trkpt lat="47.81104" lon="-2.48546">
        <ele>88.8</ele>
        <time>2025-02-11T11:45:17Z</time>
      </trkpt>
      <trkpt lat="47.81104" lon="-2.48546">
        <ele>88.8</ele>
        <time>2025-02-11T11:45:18Z</time>
      </trkpt>
      <trkpt lat="47.81104" lon="-2.48546">
        <ele>88.8</ele>
        <time>2025-02-11T11:45:19Z</time>
      </trkpt>
      <trkpt lat="47.81104" lon="-2.48546">
        <ele>88.8</ele>
        <time>2025-02-11T11:45:20Z</time>
      </trkpt>
      <trkpt lat="47.81104" lon="-2.48546">
        <ele>88.8</ele>
        <time>2025-02-11T11:45:21Z</time>
      </trkpt>
      <trkpt lat="47.81104" lon="-2.48546">
        <ele>88.8</ele>
        <time>2025-02-11T11:45:22Z</time>
      </trkpt>
      <trkpt lat="47.81104" lon="-2.48546">
        <ele>88.8</ele>
        <time>2025-02-11T11:45:23Z</time>
      </trkpt>
      <trkpt lat="47.81104" lon="-2.48546">
        <ele>88.8</ele>
        <time>2025-02-11T11:45:24Z</time>
      </trkpt>
      <trkpt lat="47.81104" lon="-2.48546">
        <ele>88.8</ele>
        <time>2025-02-11T11:45:25Z</time>
      </trkpt>
      <trkpt lat="47.81104" lon="-2.48546">
        <ele>88.8</ele>
        <time>2025-02-11T11:45:26Z</time>
      </trkpt>
      <trkpt lat="47.81104" lon="-2.48546">
        <ele>88.8</ele>
        <time>2025-02-11T11:45:27Z</time>
      </trkpt>
      <trkpt lat="47.81104" lon="-2.48546">
        <ele>88.8</ele>
        <time>2025-02-11T11:45:28Z</time>
      </trkpt>
      <trkpt lat="47.81104" lon="-2.48546">
        <ele>88.7</ele>
        <time>2025-02-11T11:45:29Z</time>
      </trkpt>
      <trkpt lat="47.81104" lon="-2.48546">
        <ele>88.7</ele>
        <time>2025-02-11T11:45:30Z</time>
      </trkpt>
      <trkpt lat="47.81104" lon="-2.48546">
        <ele>88.7</ele>
        <time>2025-02-11T11:45:31Z</time>
      </trkpt>
      <trkpt lat="47.81104" lon="-2.48546">
        <ele>88.7</ele>
        <time>2025-02-11T11:45:32Z</time>
      </trkpt>
      <trkpt lat="47.81104" lon="-2.48546">
        <ele>88.7</ele>
        <time>2025-02-11T11:45:33Z</time>
      </trkpt>
      <trkpt lat="47.81104" lon="-2.48546">
        <ele>88.7</ele>
        <time>2025-02-11T11:45:34Z</time>
      </trkpt>
      <trkpt lat="47.81104" lon="-2.48546">
        <ele>88.7</ele>
        <time>2025-02-11T11:45:35Z</time>
      </trkpt>
      <trkpt lat="47.81104" lon="-2.48546">
        <ele>88.8</ele>
        <time>2025-02-11T11:45:36Z</time>
      </trkpt>
      <trkpt lat="47.81104" lon="-2.48546">
        <ele>88.8</ele>
        <time>2025-02-11T11:45:37Z</time>
      </trkpt>
      <trkpt lat="47.81104" lon="-2.48546">
        <ele>88.8</ele>
        <time>2025-02-11T11:45:38Z</time>
      </trkpt>
      <trkpt lat="47.81104" lon="-2.48546">
        <ele>88.7</ele>
        <time>2025-02-11T11:45:39Z</time>
      </trkpt>
      <trkpt lat="47.81104" lon="-2.48546">
        <ele>88.7</ele>
        <time>2025-02-11T11:45:40Z</time>
      </trkpt>
      <trkpt lat="47.81104" lon="-2.48546">
        <ele>88.7</ele>
        <time>2025-02-11T11:45:41Z</time>
      </trkpt>
      <trkpt lat="47.81104" lon="-2.48546">
        <ele>88.7</ele>
        <time>2025-02-11T11:45:42Z</time>
      </trkpt>
      <trkpt lat="47.81104" lon="-2.48546">
        <ele>88.7</ele>
        <time>2025-02-11T11:45:43Z</time>
      </trkpt>
      <trkpt lat="47.81104" lon="-2.48546">
        <ele>88.7</ele>
        <time>2025-02-11T11:45:44Z</time>
      </trkpt>
      <trkpt lat="47.81104" lon="-2.48546">
        <ele>88.7</ele>
        <time>2025-02-11T11:45:45Z</time>
      </trkpt>
      <trkpt lat="47.81104" lon="-2.48546">
        <ele>88.7</ele>
        <time>2025-02-11T11:45:46Z</time>
      </trkpt>
      <trkpt lat="47.81104" lon="-2.48546">
        <ele>88.7</ele>
        <time>2025-02-11T11:45:47Z</time>
      </trkpt>
      <trkpt lat="47.81104" lon="-2.48546">
        <ele>88.7</ele>
        <time>2025-02-11T11:45:48Z</time>
      </trkpt>
      <trkpt lat="47.81104" lon="-2.48546">
        <ele>88.7</ele>
        <time>2025-02-11T11:45:49Z</time>
      </trkpt>
      <trkpt lat="47.81104" lon="-2.48546">
        <ele>88.7</ele>
        <time>2025-02-11T11:45:50Z</time>
      </trkpt>
      <trkpt lat="47.81104" lon="-2.48546">
        <ele>88.7</ele>
        <time>2025-02-11T11:45:51Z</time>
      </trkpt>
      <trkpt lat="47.81104" lon="-2.48546">
        <ele>88.7</ele>
        <time>2025-02-11T11:45:52Z</time>
      </trkpt>
      <trkpt lat="47.81104" lon="-2.48546">
        <ele>88.7</ele>
        <time>2025-02-11T11:45:53Z</time>
      </trkpt>
      <trkpt lat="47.81104" lon="-2.48546">
        <ele>88.7</ele>
        <time>2025-02-11T11:45:54Z</time>
      </trkpt>
      <trkpt lat="47.81104" lon="-2.48546">
        <ele>88.7</ele>
        <time>2025-02-11T11:45:55Z</time>
      </trkpt>
      <trkpt lat="47.81104" lon="-2.48546">
        <ele>88.7</ele>
        <time>2025-02-11T11:45:56Z</time>
      </trkpt>
      <trkpt lat="47.81104" lon="-2.48546">
        <ele>88.7</ele>
        <time>2025-02-11T11:45:57Z</time>
      </trkpt>
      <trkpt lat="47.81104" lon="-2.48546">
        <ele>88.7</ele>
        <time>2025-02-11T11:45:58Z</time>
      </trkpt>
      <trkpt lat="47.81104" lon="-2.48546">
        <ele>88.8</ele>
        <time>2025-02-11T11:45:59Z</time>
      </trkpt>
      <trkpt lat="47.81104" lon="-2.48546">
        <ele>88.8</ele>
        <time>2025-02-11T11:46:00Z</time>
      </trkpt>
      <trkpt lat="47.81104" lon="-2.48546">
        <ele>88.8</ele>
        <time>2025-02-11T11:46:01Z</time>
      </trkpt>
      <trkpt lat="47.81104" lon="-2.48546">
        <ele>88.8</ele>
        <time>2025-02-11T11:46:02Z</time>
      </trkpt>
      <trkpt lat="47.81104" lon="-2.48546">
        <ele>88.8</ele>
        <time>2025-02-11T11:46:03Z</time>
      </trkpt>
      <trkpt lat="47.81104" lon="-2.48546">
        <ele>88.8</ele>
        <time>2025-02-11T11:46:04Z</time>
      </trkpt>
      <trkpt lat="47.81104" lon="-2.48546">
        <ele>88.8</ele>
        <time>2025-02-11T11:46:05Z</time>
      </trkpt>
      <trkpt lat="47.81104" lon="-2.48546">
        <ele>88.8</ele>
        <time>2025-02-11T11:46:06Z</time>
      </trkpt>
      <trkpt lat="47.81104" lon="-2.48546">
        <ele>88.8</ele>
        <time>2025-02-11T11:46:07Z</time>
      </trkpt>
      <trkpt lat="47.81104" lon="-2.48546">
        <ele>88.8</ele>
        <time>2025-02-11T11:46:08Z</time>
      </trkpt>
      <trkpt lat="47.81104" lon="-2.48546">
        <ele>88.8</ele>
        <time>2025-02-11T11:46:09Z</time>
      </trkpt>
      <trkpt lat="47.81104" lon="-2.48546">
        <ele>88.8</ele>
        <time>2025-02-11T11:46:10Z</time>
      </trkpt>
      <trkpt lat="47.81104" lon="-2.48546">
        <ele>88.8</ele>
        <time>2025-02-11T11:46:11Z</time>
      </trkpt>
      <trkpt lat="47.81104" lon="-2.48546">
        <ele>88.8</ele>
        <time>2025-02-11T11:46:12Z</time>
      </trkpt>
      <trkpt lat="47.81104" lon="-2.48546">
        <ele>88.8</ele>
        <time>2025-02-11T11:46:13Z</time>
      </trkpt>
      <trkpt lat="47.81104" lon="-2.48546">
        <ele>88.8</ele>
        <time>2025-02-11T11:46:14Z</time>
      </trkpt>
      <trkpt lat="47.81104" lon="-2.48546">
        <ele>88.8</ele>
        <time>2025-02-11T11:46:15Z</time>
      </trkpt>
      <trkpt lat="47.81104" lon="-2.48546">
        <ele>88.8</ele>
        <time>2025-02-11T11:46:16Z</time>
      </trkpt>
      <trkpt lat="47.81104" lon="-2.48546">
        <ele>88.8</ele>
        <time>2025-02-11T11:46:17Z</time>
      </trkpt>
      <trkpt lat="47.81104" lon="-2.48547">
        <ele>88.8</ele>
        <time>2025-02-11T11:46:18Z</time>
      </trkpt>
      <trkpt lat="47.81104" lon="-2.48547">
        <ele>88.8</ele>
        <time>2025-02-11T11:46:19Z</time>
      </trkpt>
      <trkpt lat="47.81104" lon="-2.48547">
        <ele>88.8</ele>
        <time>2025-02-11T11:46:20Z</time>
      </trkpt>
      <trkpt lat="47.81104" lon="-2.48547">
        <ele>88.8</ele>
        <time>2025-02-11T11:46:21Z</time>
      </trkpt>
      <trkpt lat="47.81104" lon="-2.48547">
        <ele>88.8</ele>
        <time>2025-02-11T11:46:22Z</time>
      </trkpt>
      <trkpt lat="47.81104" lon="-2.48547">
        <ele>88.7</ele>
        <time>2025-02-11T11:46:23Z</time>
      </trkpt>
      <trkpt lat="47.81104" lon="-2.48547">
        <ele>88.7</ele>
        <time>2025-02-11T11:46:24Z</time>
      </trkpt>
      <trkpt lat="47.81104" lon="-2.48547">
        <ele>88.7</ele>
        <time>2025-02-11T11:46:25Z</time>
      </trkpt>
      <trkpt lat="47.81104" lon="-2.48547">
        <ele>88.7</ele>
        <time>2025-02-11T11:46:26Z</time>
      </trkpt>
      <trkpt lat="47.81104" lon="-2.48547">
        <ele>88.7</ele>
        <time>2025-02-11T11:46:27Z</time>
      </trkpt>
      <trkpt lat="47.81104" lon="-2.48547">
        <ele>88.7</ele>
        <time>2025-02-11T11:46:28Z</time>
      </trkpt>
      <trkpt lat="47.81104" lon="-2.48547">
        <ele>88.7</ele>
        <time>2025-02-11T11:46:29Z</time>
      </trkpt>
      <trkpt lat="47.81104" lon="-2.48547">
        <ele>88.7</ele>
        <time>2025-02-11T11:46:30Z</time>
      </trkpt>
      <trkpt lat="47.81104" lon="-2.48547">
        <ele>88.7</ele>
        <time>2025-02-11T11:46:31Z</time>
      </trkpt>
      <trkpt lat="47.81104" lon="-2.48547">
        <ele>88.7</ele>
        <time>2025-02-11T11:46:32Z</time>
      </trkpt>
      <trkpt lat="47.81104" lon="-2.48547">
        <ele>88.7</ele>
        <time>2025-02-11T11:46:33Z</time>
      </trkpt>
      <trkpt lat="47.81104" lon="-2.48547">
        <ele>88.7</ele>
        <time>2025-02-11T11:46:34Z</time>
      </trkpt>
      <trkpt lat="47.81104" lon="-2.48547">
        <ele>88.7</ele>
        <time>2025-02-11T11:46:35Z</time>
      </trkpt>
      <trkpt lat="47.81104" lon="-2.48547">
        <ele>88.7</ele>
        <time>2025-02-11T11:46:36Z</time>
      </trkpt>
      <trkpt lat="47.81104" lon="-2.48547">
        <ele>88.7</ele>
        <time>2025-02-11T11:46:37Z</time>
      </trkpt>
      <trkpt lat="47.81104" lon="-2.48547">
        <ele>88.7</ele>
        <time>2025-02-11T11:46:38Z</time>
      </trkpt>
      <trkpt lat="47.81104" lon="-2.48547">
        <ele>88.7</ele>
        <time>2025-02-11T11:46:39Z</time>
      </trkpt>
      <trkpt lat="47.81104" lon="-2.48547">
        <ele>88.7</ele>
        <time>2025-02-11T11:46:40Z</time>
      </trkpt>
      <trkpt lat="47.81104" lon="-2.48547">
        <ele>88.7</ele>
        <time>2025-02-11T11:46:41Z</time>
      </trkpt>
      <trkpt lat="47.81104" lon="-2.48547">
        <ele>88.7</ele>
        <time>2025-02-11T11:46:42Z</time>
      </trkpt>
      <trkpt lat="47.81104" lon="-2.48547">
        <ele>88.7</ele>
        <time>2025-02-11T11:46:43Z</time>
      </trkpt>
      <trkpt lat="47.81104" lon="-2.48547">
        <ele>88.7</ele>
        <time>2025-02-11T11:46:44Z</time>
      </trkpt>
      <trkpt lat="47.81104" lon="-2.48547">
        <ele>88.7</ele>
        <time>2025-02-11T11:46:45Z</time>
      </trkpt>
      <trkpt lat="47.81104" lon="-2.48547">
        <ele>88.7</ele>
        <time>2025-02-11T11:46:46Z</time>
      </trkpt>
      <trkpt lat="47.81104" lon="-2.48547">
        <ele>88.7</ele>
        <time>2025-02-11T11:46:47Z</time>
      </trkpt>
      <trkpt lat="47.81104" lon="-2.48547">
        <ele>88.7</ele>
        <time>2025-02-11T11:46:48Z</time>
      </trkpt>
      <trkpt lat="47.81104" lon="-2.48547">
        <ele>88.7</ele>
        <time>2025-02-11T11:46:49Z</time>
      </trkpt>
      <trkpt lat="47.81104" lon="-2.48547">
        <ele>88.7</ele>
        <time>2025-02-11T11:46:50Z</time>
      </trkpt>
      <trkpt lat="47.81104" lon="-2.48547">
        <ele>88.7</ele>
        <time>2025-02-11T11:46:51Z</time>
      </trkpt>
      <trkpt lat="47.81104" lon="-2.48547">
        <ele>88.7</ele>
        <time>2025-02-11T11:46:52Z</time>
      </trkpt>
      <trkpt lat="47.81104" lon="-2.48547">
        <ele>88.7</ele>
        <time>2025-02-11T11:46:53Z</time>
      </trkpt>
      <trkpt lat="47.81104" lon="-2.48547">
        <ele>88.7</ele>
        <time>2025-02-11T11:46:54Z</time>
      </trkpt>
      <trkpt lat="47.81104" lon="-2.48547">
        <ele>88.7</ele>
        <time>2025-02-11T11:46:55Z</time>
      </trkpt>
      <trkpt lat="47.81104" lon="-2.48547">
        <ele>88.7</ele>
        <time>2025-02-11T11:46:56Z</time>
      </trkpt>
      <trkpt lat="47.81104" lon="-2.48547">
        <ele>88.7</ele>
        <time>2025-02-11T11:46:57Z</time>
      </trkpt>
      <trkpt lat="47.81104" lon="-2.48547">
        <ele>88.7</ele>
        <time>2025-02-11T11:46:58Z</time>
      </trkpt>
      <trkpt lat="47.81104" lon="-2.48547">
        <ele>88.7</ele>
        <time>2025-02-11T11:46:59Z</time>
      </trkpt>
      <trkpt lat="47.81104" lon="-2.48547">
        <ele>88.7</ele>
        <time>2025-02-11T11:47:00Z</time>
      </trkpt>
      <trkpt lat="47.81104" lon="-2.48547">
        <ele>88.7</ele>
        <time>2025-02-11T11:47:01Z</time>
      </trkpt>
      <trkpt lat="47.81104" lon="-2.48547">
        <ele>88.7</ele>
        <time>2025-02-11T11:47:02Z</time>
      </trkpt>
      <trkpt lat="47.81104" lon="-2.48547">
        <ele>88.7</ele>
        <time>2025-02-11T11:47:03Z</time>
      </trkpt>
      <trkpt lat="47.81104" lon="-2.48547">
        <ele>88.7</ele>
        <time>2025-02-11T11:47:04Z</time>
      </trkpt>
      <trkpt lat="47.81104" lon="-2.48547">
        <ele>88.7</ele>
        <time>2025-02-11T11:47:05Z</time>
      </trkpt>
      <trkpt lat="47.81104" lon="-2.48547">
        <ele>88.7</ele>
        <time>2025-02-11T11:47:06Z</time>
      </trkpt>
      <trkpt lat="47.81104" lon="-2.48547">
        <ele>88.7</ele>
        <time>2025-02-11T11:47:07Z</time>
      </trkpt>
      <trkpt lat="47.81104" lon="-2.48547">
        <ele>88.7</ele>
        <time>2025-02-11T11:47:08Z</time>
      </trkpt>
      <trkpt lat="47.81104" lon="-2.48547">
        <ele>88.7</ele>
        <time>2025-02-11T11:47:09Z</time>
      </trkpt>
      <trkpt lat="47.81104" lon="-2.48547">
        <ele>88.7</ele>
        <time>2025-02-11T11:47:10Z</time>
      </trkpt>
      <trkpt lat="47.81104" lon="-2.48547">
        <ele>88.7</ele>
        <time>2025-02-11T11:47:11Z</time>
      </trkpt>
      <trkpt lat="47.81104" lon="-2.48547">
        <ele>88.7</ele>
        <time>2025-02-11T11:47:12Z</time>
      </trkpt>
      <trkpt lat="47.81104" lon="-2.48547">
        <ele>88.7</ele>
        <time>2025-02-11T11:47:13Z</time>
      </trkpt>
      <trkpt lat="47.81104" lon="-2.48547">
        <ele>88.7</ele>
        <time>2025-02-11T11:47:14Z</time>
      </trkpt>
      <trkpt lat="47.81104" lon="-2.48547">
        <ele>88.7</ele>
        <time>2025-02-11T11:47:15Z</time>
      </trkpt>
      <trkpt lat="47.81104" lon="-2.48547">
        <ele>88.7</ele>
        <time>2025-02-11T11:47:16Z</time>
      </trkpt>
      <trkpt lat="47.81104" lon="-2.48547">
        <ele>88.7</ele>
        <time>2025-02-11T11:47:17Z</time>
      </trkpt>
      <trkpt lat="47.81104" lon="-2.48547">
        <ele>88.7</ele>
        <time>2025-02-11T11:47:18Z</time>
      </trkpt>
      <trkpt lat="47.81104" lon="-2.48547">
        <ele>88.7</ele>
        <time>2025-02-11T11:47:19Z</time>
      </trkpt>
      <trkpt lat="47.81104" lon="-2.48547">
        <ele>88.7</ele>
        <time>2025-02-11T11:47:20Z</time>
      </trkpt>
      <trkpt lat="47.81104" lon="-2.48547">
        <ele>88.7</ele>
        <time>2025-02-11T11:47:21Z</time>
      </trkpt>
      <trkpt lat="47.81104" lon="-2.48547">
        <ele>88.7</ele>
        <time>2025-02-11T11:47:22Z</time>
      </trkpt>
      <trkpt lat="47.81104" lon="-2.48547">
        <ele>88.7</ele>
        <time>2025-02-11T11:47:23Z</time>
      </trkpt>
      <trkpt lat="47.81104" lon="-2.48547">
        <ele>88.7</ele>
        <time>2025-02-11T11:47:24Z</time>
      </trkpt>
      <trkpt lat="47.81104" lon="-2.48547">
        <ele>88.7</ele>
        <time>2025-02-11T11:47:25Z</time>
      </trkpt>
      <trkpt lat="47.81104" lon="-2.48547">
        <ele>88.7</ele>
        <time>2025-02-11T11:47:26Z</time>
      </trkpt>
      <trkpt lat="47.81104" lon="-2.48547">
        <ele>88.7</ele>
        <time>2025-02-11T11:47:27Z</time>
      </trkpt>
      <trkpt lat="47.81104" lon="-2.48547">
        <ele>88.7</ele>
        <time>2025-02-11T11:47:28Z</time>
      </trkpt>
      <trkpt lat="47.81104" lon="-2.48547">
        <ele>88.7</ele>
        <time>2025-02-11T11:47:29Z</time>
      </trkpt>
      <trkpt lat="47.81104" lon="-2.48547">
        <ele>88.7</ele>
        <time>2025-02-11T11:47:30Z</time>
      </trkpt>
      <trkpt lat="47.81104" lon="-2.48547">
        <ele>88.7</ele>
        <time>2025-02-11T11:47:31Z</time>
      </trkpt>
      <trkpt lat="47.81104" lon="-2.48547">
        <ele>88.7</ele>
        <time>2025-02-11T11:47:32Z</time>
      </trkpt>
      <trkpt lat="47.81104" lon="-2.48547">
        <ele>88.7</ele>
        <time>2025-02-11T11:47:33Z</time>
      </trkpt>
      <trkpt lat="47.81104" lon="-2.48547">
        <ele>88.7</ele>
        <time>2025-02-11T11:47:34Z</time>
      </trkpt>
      <trkpt lat="47.81104" lon="-2.48547">
        <ele>88.7</ele>
        <time>2025-02-11T11:47:35Z</time>
      </trkpt>
      <trkpt lat="47.81104" lon="-2.48547">
        <ele>88.7</ele>
        <time>2025-02-11T11:47:36Z</time>
      </trkpt>
      <trkpt lat="47.81104" lon="-2.48547">
        <ele>88.7</ele>
        <time>2025-02-11T11:47:37Z</time>
      </trkpt>
      <trkpt lat="47.81104" lon="-2.48547">
        <ele>88.7</ele>
        <time>2025-02-11T11:47:38Z</time>
      </trkpt>
      <trkpt lat="47.81104" lon="-2.48547">
        <ele>88.7</ele>
        <time>2025-02-11T11:47:39Z</time>
      </trkpt>
      <trkpt lat="47.81104" lon="-2.48547">
        <ele>88.7</ele>
        <time>2025-02-11T11:47:40Z</time>
      </trkpt>
      <trkpt lat="47.81104" lon="-2.48547">
        <ele>88.7</ele>
        <time>2025-02-11T11:47:41Z</time>
      </trkpt>
      <trkpt lat="47.81104" lon="-2.48547">
        <ele>88.7</ele>
        <time>2025-02-11T11:47:42Z</time>
      </trkpt>
      <trkpt lat="47.81104" lon="-2.48547">
        <ele>88.7</ele>
        <time>2025-02-11T11:47:43Z</time>
      </trkpt>
      <trkpt lat="47.81104" lon="-2.48547">
        <ele>88.7</ele>
        <time>2025-02-11T11:47:44Z</time>
      </trkpt>
      <trkpt lat="47.81104" lon="-2.48547">
        <ele>88.7</ele>
        <time>2025-02-11T11:47:45Z</time>
      </trkpt>
      <trkpt lat="47.81104" lon="-2.48547">
        <ele>88.7</ele>
        <time>2025-02-11T11:47:46Z</time>
      </trkpt>
      <trkpt lat="47.81104" lon="-2.48547">
        <ele>88.7</ele>
        <time>2025-02-11T11:47:47Z</time>
      </trkpt>
      <trkpt lat="47.81104" lon="-2.48547">
        <ele>88.7</ele>
        <time>2025-02-11T11:47:48Z</time>
      </trkpt>
      <trkpt lat="47.81104" lon="-2.48547">
        <ele>88.7</ele>
        <time>2025-02-11T11:47:49Z</time>
      </trkpt>
      <trkpt lat="47.81104" lon="-2.48547">
        <ele>88.7</ele>
        <time>2025-02-11T11:47:50Z</time>
      </trkpt>
      <trkpt lat="47.81104" lon="-2.48547">
        <ele>88.7</ele>
        <time>2025-02-11T11:47:51Z</time>
      </trkpt>
      <trkpt lat="47.81104" lon="-2.48547">
        <ele>88.7</ele>
        <time>2025-02-11T11:47:52Z</time>
      </trkpt>
      <trkpt lat="47.81104" lon="-2.48547">
        <ele>88.7</ele>
        <time>2025-02-11T11:47:53Z</time>
      </trkpt>
      <trkpt lat="47.81104" lon="-2.48547">
        <ele>88.7</ele>
        <time>2025-02-11T11:47:54Z</time>
      </trkpt>
      <trkpt lat="47.81104" lon="-2.48547">
        <ele>88.7</ele>
        <time>2025-02-11T11:47:55Z</time>
      </trkpt>
      <trkpt lat="47.81104" lon="-2.48547">
        <ele>88.7</ele>
        <time>2025-02-11T11:47:56Z</time>
      </trkpt>
      <trkpt lat="47.81104" lon="-2.48547">
        <ele>88.7</ele>
        <time>2025-02-11T11:47:57Z</time>
      </trkpt>
      <trkpt lat="47.81104" lon="-2.48547">
        <ele>88.7</ele>
        <time>2025-02-11T11:47:58Z</time>
      </trkpt>
      <trkpt lat="47.81104" lon="-2.48547">
        <ele>88.7</ele>
        <time>2025-02-11T11:47:59Z</time>
      </trkpt>
      <trkpt lat="47.81104" lon="-2.48547">
        <ele>88.7</ele>
        <time>2025-02-11T11:48:00Z</time>
      </trkpt>
      <trkpt lat="47.81104" lon="-2.48547">
        <ele>88.7</ele>
        <time>2025-02-11T11:48:01Z</time>
      </trkpt>
      <trkpt lat="47.81104" lon="-2.48547">
        <ele>88.7</ele>
        <time>2025-02-11T11:48:02Z</time>
      </trkpt>
      <trkpt lat="47.81104" lon="-2.48547">
        <ele>88.8</ele>
        <time>2025-02-11T11:48:03Z</time>
      </trkpt>
      <trkpt lat="47.81104" lon="-2.48547">
        <ele>88.8</ele>
        <time>2025-02-11T11:48:04Z</time>
      </trkpt>
      <trkpt lat="47.81104" lon="-2.48547">
        <ele>88.8</ele>
        <time>2025-02-11T11:48:05Z</time>
      </trkpt>
      <trkpt lat="47.81104" lon="-2.48547">
        <ele>88.8</ele>
        <time>2025-02-11T11:48:06Z</time>
      </trkpt>
      <trkpt lat="47.81104" lon="-2.48547">
        <ele>88.8</ele>
        <time>2025-02-11T11:48:07Z</time>
      </trkpt>
      <trkpt lat="47.81104" lon="-2.48547">
        <ele>88.8</ele>
        <time>2025-02-11T11:48:08Z</time>
      </trkpt>
      <trkpt lat="47.81104" lon="-2.48547">
        <ele>88.8</ele>
        <time>2025-02-11T11:48:09Z</time>
      </trkpt>
      <trkpt lat="47.81104" lon="-2.48547">
        <ele>88.8</ele>
        <time>2025-02-11T11:48:10Z</time>
      </trkpt>
      <trkpt lat="47.81104" lon="-2.48547">
        <ele>88.8</ele>
        <time>2025-02-11T11:48:11Z</time>
      </trkpt>
      <trkpt lat="47.81104" lon="-2.48547">
        <ele>88.8</ele>
        <time>2025-02-11T11:48:12Z</time>
      </trkpt>
      <trkpt lat="47.81104" lon="-2.48547">
        <ele>88.8</ele>
        <time>2025-02-11T11:48:13Z</time>
      </trkpt>
      <trkpt lat="47.81104" lon="-2.48547">
        <ele>88.8</ele>
        <time>2025-02-11T11:48:14Z</time>
      </trkpt>
      <trkpt lat="47.81104" lon="-2.48547">
        <ele>88.8</ele>
        <time>2025-02-11T11:48:15Z</time>
      </trkpt>
      <trkpt lat="47.81104" lon="-2.48547">
        <ele>88.8</ele>
        <time>2025-02-11T11:48:16Z</time>
      </trkpt>
      <trkpt lat="47.81104" lon="-2.48547">
        <ele>88.8</ele>
        <time>2025-02-11T11:48:17Z</time>
      </trkpt>
      <trkpt lat="47.81104" lon="-2.48547">
        <ele>88.8</ele>
        <time>2025-02-11T11:48:18Z</time>
      </trkpt>
      <trkpt lat="47.81104" lon="-2.48547">
        <ele>88.8</ele>
        <time>2025-02-11T11:48:19Z</time>
      </trkpt>
      <trkpt lat="47.81104" lon="-2.48547">
        <ele>88.8</ele>
        <time>2025-02-11T11:48:20Z</time>
      </trkpt>
      <trkpt lat="47.81104" lon="-2.48547">
        <ele>88.8</ele>
        <time>2025-02-11T11:48:21Z</time>
      </trkpt>
      <trkpt lat="47.81104" lon="-2.48547">
        <ele>88.8</ele>
        <time>2025-02-11T11:48:22Z</time>
      </trkpt>
      <trkpt lat="47.81104" lon="-2.48546">
        <ele>88.8</ele>
        <time>2025-02-11T11:48:23Z</time>
      </trkpt>
      <trkpt lat="47.81104" lon="-2.48546">
        <ele>88.8</ele>
        <time>2025-02-11T11:48:24Z</time>
      </trkpt>
      <trkpt lat="47.81104" lon="-2.48546">
        <ele>88.8</ele>
        <time>2025-02-11T11:48:25Z</time>
      </trkpt>
      <trkpt lat="47.81104" lon="-2.48546">
        <ele>88.8</ele>
        <time>2025-02-11T11:48:26Z</time>
      </trkpt>
      <trkpt lat="47.81104" lon="-2.48546">
        <ele>88.8</ele>
        <time>2025-02-11T11:48:27Z</time>
      </trkpt>
      <trkpt lat="47.81104" lon="-2.48546">
        <ele>88.8</ele>
        <time>2025-02-11T11:48:28Z</time>
      </trkpt>
      <trkpt lat="47.81104" lon="-2.48546">
        <ele>88.8</ele>
        <time>2025-02-11T11:48:29Z</time>
      </trkpt>
      <trkpt lat="47.81104" lon="-2.48546">
        <ele>88.8</ele>
        <time>2025-02-11T11:48:30Z</time>
      </trkpt>
      <trkpt lat="47.81104" lon="-2.48546">
        <ele>88.8</ele>
        <time>2025-02-11T11:48:31Z</time>
      </trkpt>
      <trkpt lat="47.81104" lon="-2.48546">
        <ele>88.8</ele>
        <time>2025-02-11T11:48:32Z</time>
      </trkpt>
      <trkpt lat="47.81104" lon="-2.48546">
        <ele>88.8</ele>
        <time>2025-02-11T11:48:33Z</time>
      </trkpt>
      <trkpt lat="47.81104" lon="-2.48546">
        <ele>88.8</ele>
        <time>2025-02-11T11:48:34Z</time>
      </trkpt>
      <trkpt lat="47.81104" lon="-2.48546">
        <ele>88.8</ele>
        <time>2025-02-11T11:48:35Z</time>
      </trkpt>
      <trkpt lat="47.81104" lon="-2.48546">
        <ele>88.8</ele>
        <time>2025-02-11T11:48:36Z</time>
      </trkpt>
      <trkpt lat="47.81104" lon="-2.48546">
        <ele>88.8</ele>
        <time>2025-02-11T11:48:37Z</time>
      </trkpt>
      <trkpt lat="47.81104" lon="-2.48546">
        <ele>88.8</ele>
        <time>2025-02-11T11:48:38Z</time>
      </trkpt>
      <trkpt lat="47.81104" lon="-2.48546">
        <ele>88.8</ele>
        <time>2025-02-11T11:48:39Z</time>
      </trkpt>
      <trkpt lat="47.81104" lon="-2.48546">
        <ele>88.8</ele>
        <time>2025-02-11T11:48:40Z</time>
      </trkpt>
      <trkpt lat="47.81104" lon="-2.48546">
        <ele>88.8</ele>
        <time>2025-02-11T11:48:41Z</time>
      </trkpt>
      <trkpt lat="47.81104" lon="-2.48546">
        <ele>88.8</ele>
        <time>2025-02-11T11:48:42Z</time>
      </trkpt>
      <trkpt lat="47.81104" lon="-2.48546">
        <ele>88.8</ele>
        <time>2025-02-11T11:48:43Z</time>
      </trkpt>
      <trkpt lat="47.81104" lon="-2.48546">
        <ele>88.8</ele>
        <time>2025-02-11T11:48:44Z</time>
      </trkpt>
      <trkpt lat="47.81104" lon="-2.48546">
        <ele>88.8</ele>
        <time>2025-02-11T11:48:45Z</time>
      </trkpt>
      <trkpt lat="47.81104" lon="-2.48546">
        <ele>88.8</ele>
        <time>2025-02-11T11:48:46Z</time>
      </trkpt>
      <trkpt lat="47.81104" lon="-2.48546">
        <ele>88.8</ele>
        <time>2025-02-11T11:48:47Z</time>
      </trkpt>
      <trkpt lat="47.81104" lon="-2.48546">
        <ele>88.8</ele>
        <time>2025-02-11T11:48:48Z</time>
      </trkpt>
      <trkpt lat="47.81104" lon="-2.48546">
        <ele>88.8</ele>
        <time>2025-02-11T11:48:49Z</time>
      </trkpt>
      <trkpt lat="47.81104" lon="-2.48546">
        <ele>88.8</ele>
        <time>2025-02-11T11:48:50Z</time>
      </trkpt>
      <trkpt lat="47.81104" lon="-2.48546">
        <ele>88.7</ele>
        <time>2025-02-11T11:48:51Z</time>
      </trkpt>
      <trkpt lat="47.81104" lon="-2.48546">
        <ele>88.7</ele>
        <time>2025-02-11T11:48:52Z</time>
      </trkpt>
      <trkpt lat="47.81104" lon="-2.48546">
        <ele>88.7</ele>
        <time>2025-02-11T11:48:53Z</time>
      </trkpt>
      <trkpt lat="47.81104" lon="-2.48546">
        <ele>88.7</ele>
        <time>2025-02-11T11:48:54Z</time>
      </trkpt>
      <trkpt lat="47.81104" lon="-2.48546">
        <ele>88.7</ele>
        <time>2025-02-11T11:48:55Z</time>
      </trkpt>
      <trkpt lat="47.81104" lon="-2.48546">
        <ele>88.7</ele>
        <time>2025-02-11T11:48:56Z</time>
      </trkpt>
      <trkpt lat="47.81104" lon="-2.48546">
        <ele>88.7</ele>
        <time>2025-02-11T11:48:57Z</time>
      </trkpt>
      <trkpt lat="47.81104" lon="-2.48546">
        <ele>88.7</ele>
        <time>2025-02-11T11:48:58Z</time>
      </trkpt>
      <trkpt lat="47.81104" lon="-2.48546">
        <ele>88.7</ele>
        <time>2025-02-11T11:48:59Z</time>
      </trkpt>
      <trkpt lat="47.81104" lon="-2.48546">
        <ele>88.7</ele>
        <time>2025-02-11T11:49:00Z</time>
      </trkpt>
      <trkpt lat="47.81104" lon="-2.48546">
        <ele>88.7</ele>
        <time>2025-02-11T11:49:01Z</time>
      </trkpt>
      <trkpt lat="47.81104" lon="-2.48546">
        <ele>88.7</ele>
        <time>2025-02-11T11:49:02Z</time>
      </trkpt>
      <trkpt lat="47.81104" lon="-2.48546">
        <ele>88.7</ele>
        <time>2025-02-11T11:49:03Z</time>
      </trkpt>
      <trkpt lat="47.81104" lon="-2.48546">
        <ele>88.7</ele>
        <time>2025-02-11T11:49:04Z</time>
      </trkpt>
      <trkpt lat="47.81104" lon="-2.48546">
        <ele>88.7</ele>
        <time>2025-02-11T11:49:05Z</time>
      </trkpt>
      <trkpt lat="47.81104" lon="-2.48546">
        <ele>88.7</ele>
        <time>2025-02-11T11:49:06Z</time>
      </trkpt>
      <trkpt lat="47.81104" lon="-2.48546">
        <ele>88.7</ele>
        <time>2025-02-11T11:49:07Z</time>
      </trkpt>
      <trkpt lat="47.81104" lon="-2.48546">
        <ele>88.7</ele>
        <time>2025-02-11T11:49:08Z</time>
      </trkpt>
      <trkpt lat="47.81104" lon="-2.48546">
        <ele>88.7</ele>
        <time>2025-02-11T11:49:09Z</time>
      </trkpt>
      <trkpt lat="47.81104" lon="-2.48546">
        <ele>88.7</ele>
        <time>2025-02-11T11:49:10Z</time>
      </trkpt>
      <trkpt lat="47.81104" lon="-2.48546">
        <ele>88.7</ele>
        <time>2025-02-11T11:49:11Z</time>
      </trkpt>
      <trkpt lat="47.81104" lon="-2.48546">
        <ele>88.7</ele>
        <time>2025-02-11T11:49:12Z</time>
      </trkpt>
      <trkpt lat="47.81104" lon="-2.48546">
        <ele>88.7</ele>
        <time>2025-02-11T11:49:13Z</time>
      </trkpt>
      <trkpt lat="47.81104" lon="-2.48546">
        <ele>88.7</ele>
        <time>2025-02-11T11:49:14Z</time>
      </trkpt>
      <trkpt lat="47.81104" lon="-2.48546">
        <ele>88.7</ele>
        <time>2025-02-11T11:49:15Z</time>
      </trkpt>
      <trkpt lat="47.81104" lon="-2.48546">
        <ele>88.8</ele>
        <time>2025-02-11T11:49:16Z</time>
      </trkpt>
      <trkpt lat="47.81104" lon="-2.48546">
        <ele>88.8</ele>
        <time>2025-02-11T11:49:17Z</time>
      </trkpt>
      <trkpt lat="47.81104" lon="-2.48546">
        <ele>88.8</ele>
        <time>2025-02-11T11:49:18Z</time>
      </trkpt>
      <trkpt lat="47.81104" lon="-2.48546">
        <ele>88.8</ele>
        <time>2025-02-11T11:49:19Z</time>
      </trkpt>
      <trkpt lat="47.81104" lon="-2.48546">
        <ele>88.8</ele>
        <time>2025-02-11T11:49:20Z</time>
      </trkpt>
      <trkpt lat="47.81104" lon="-2.48546">
        <ele>88.8</ele>
        <time>2025-02-11T11:49:21Z</time>
      </trkpt>
      <trkpt lat="47.81104" lon="-2.48546">
        <ele>88.8</ele>
        <time>2025-02-11T11:49:22Z</time>
      </trkpt>
      <trkpt lat="47.81105" lon="-2.48547">
        <ele>88.8</ele>
        <time>2025-02-11T11:49:23Z</time>
      </trkpt>
      <trkpt lat="47.81105" lon="-2.48547">
        <ele>88.9</ele>
        <time>2025-02-11T11:49:24Z</time>
      </trkpt>
      <trkpt lat="47.81105" lon="-2.48547">
        <ele>88.8</ele>
        <time>2025-02-11T11:49:25Z</time>
      </trkpt>
      <trkpt lat="47.81105" lon="-2.48547">
        <ele>88.8</ele>
        <time>2025-02-11T11:49:26Z</time>
      </trkpt>
      <trkpt lat="47.81105" lon="-2.48547">
        <ele>88.8</ele>
        <time>2025-02-11T11:49:27Z</time>
      </trkpt>
      <trkpt lat="47.81105" lon="-2.48547">
        <ele>88.8</ele>
        <time>2025-02-11T11:49:28Z</time>
      </trkpt>
      <trkpt lat="47.81105" lon="-2.48547">
        <ele>88.8</ele>
        <time>2025-02-11T11:49:29Z</time>
      </trkpt>
      <trkpt lat="47.81105" lon="-2.48547">
        <ele>88.8</ele>
        <time>2025-02-11T11:49:30Z</time>
      </trkpt>
      <trkpt lat="47.81105" lon="-2.48547">
        <ele>88.8</ele>
        <time>2025-02-11T11:49:31Z</time>
      </trkpt>
      <trkpt lat="47.81105" lon="-2.48547">
        <ele>88.8</ele>
        <time>2025-02-11T11:49:32Z</time>
      </trkpt>
      <trkpt lat="47.81105" lon="-2.48547">
        <ele>88.8</ele>
        <time>2025-02-11T11:49:33Z</time>
      </trkpt>
      <trkpt lat="47.81105" lon="-2.48547">
        <ele>88.8</ele>
        <time>2025-02-11T11:49:34Z</time>
      </trkpt>
      <trkpt lat="47.81105" lon="-2.48547">
        <ele>88.8</ele>
        <time>2025-02-11T11:49:35Z</time>
      </trkpt>
      <trkpt lat="47.81105" lon="-2.48547">
        <ele>88.8</ele>
        <time>2025-02-11T11:49:36Z</time>
      </trkpt>
      <trkpt lat="47.81105" lon="-2.48547">
        <ele>88.8</ele>
        <time>2025-02-11T11:49:37Z</time>
      </trkpt>
      <trkpt lat="47.81105" lon="-2.48547">
        <ele>88.8</ele>
        <time>2025-02-11T11:49:38Z</time>
      </trkpt>
      <trkpt lat="47.81105" lon="-2.48547">
        <ele>88.8</ele>
        <time>2025-02-11T11:49:39Z</time>
      </trkpt>
      <trkpt lat="47.81105" lon="-2.48547">
        <ele>88.8</ele>
        <time>2025-02-11T11:49:40Z</time>
      </trkpt>
      <trkpt lat="47.81105" lon="-2.48547">
        <ele>88.9</ele>
        <time>2025-02-11T11:49:41Z</time>
      </trkpt>
      <trkpt lat="47.81105" lon="-2.48547">
        <ele>88.9</ele>
        <time>2025-02-11T11:49:42Z</time>
      </trkpt>
      <trkpt lat="47.81105" lon="-2.48547">
        <ele>88.9</ele>
        <time>2025-02-11T11:49:43Z</time>
      </trkpt>
      <trkpt lat="47.81105" lon="-2.48547">
        <ele>88.9</ele>
        <time>2025-02-11T11:49:44Z</time>
      </trkpt>
      <trkpt lat="47.81105" lon="-2.48547">
        <ele>88.9</ele>
        <time>2025-02-11T11:49:45Z</time>
      </trkpt>
      <trkpt lat="47.81105" lon="-2.48547">
        <ele>88.9</ele>
        <time>2025-02-11T11:49:46Z</time>
      </trkpt>
      <trkpt lat="47.81105" lon="-2.48547">
        <ele>88.9</ele>
        <time>2025-02-11T11:49:47Z</time>
      </trkpt>
      <trkpt lat="47.81105" lon="-2.48547">
        <ele>88.9</ele>
        <time>2025-02-11T11:49:48Z</time>
      </trkpt>
      <trkpt lat="47.81105" lon="-2.48547">
        <ele>88.9</ele>
        <time>2025-02-11T11:49:49Z</time>
      </trkpt>
      <trkpt lat="47.81105" lon="-2.48547">
        <ele>88.9</ele>
        <time>2025-02-11T11:49:50Z</time>
      </trkpt>
      <trkpt lat="47.81105" lon="-2.48547">
        <ele>88.9</ele>
        <time>2025-02-11T11:49:51Z</time>
      </trkpt>
      <trkpt lat="47.81105" lon="-2.48547">
        <ele>88.9</ele>
        <time>2025-02-11T11:49:52Z</time>
      </trkpt>
      <trkpt lat="47.81105" lon="-2.48547">
        <ele>88.9</ele>
        <time>2025-02-11T11:49:53Z</time>
      </trkpt>
      <trkpt lat="47.81105" lon="-2.48547">
        <ele>88.9</ele>
        <time>2025-02-11T11:49:54Z</time>
      </trkpt>
      <trkpt lat="47.81105" lon="-2.48547">
        <ele>88.9</ele>
        <time>2025-02-11T11:49:55Z</time>
      </trkpt>
      <trkpt lat="47.81105" lon="-2.48547">
        <ele>88.9</ele>
        <time>2025-02-11T11:49:56Z</time>
      </trkpt>
      <trkpt lat="47.81105" lon="-2.48547">
        <ele>88.9</ele>
        <time>2025-02-11T11:49:57Z</time>
      </trkpt>
      <trkpt lat="47.81105" lon="-2.48547">
        <ele>88.9</ele>
        <time>2025-02-11T11:49:58Z</time>
      </trkpt>
      <trkpt lat="47.81105" lon="-2.48547">
        <ele>88.9</ele>
        <time>2025-02-11T11:49:59Z</time>
      </trkpt>
      <trkpt lat="47.81105" lon="-2.48547">
        <ele>88.9</ele>
        <time>2025-02-11T11:50:00Z</time>
      </trkpt>
      <trkpt lat="47.81105" lon="-2.48547">
        <ele>88.9</ele>
        <time>2025-02-11T11:50:01Z</time>
      </trkpt>
      <trkpt lat="47.81105" lon="-2.48547">
        <ele>88.9</ele>
        <time>2025-02-11T11:50:02Z</time>
      </trkpt>
      <trkpt lat="47.81105" lon="-2.48547">
        <ele>88.9</ele>
        <time>2025-02-11T11:50:03Z</time>
      </trkpt>
      <trkpt lat="47.81105" lon="-2.48547">
        <ele>88.9</ele>
        <time>2025-02-11T11:50:04Z</time>
      </trkpt>
      <trkpt lat="47.81105" lon="-2.48547">
        <ele>88.9</ele>
        <time>2025-02-11T11:50:05Z</time>
      </trkpt>
      <trkpt lat="47.81105" lon="-2.48547">
        <ele>88.9</ele>
        <time>2025-02-11T11:50:06Z</time>
      </trkpt>
      <trkpt lat="47.81105" lon="-2.48547">
        <ele>88.9</ele>
        <time>2025-02-11T11:50:07Z</time>
      </trkpt>
      <trkpt lat="47.81105" lon="-2.48546">
        <ele>89</ele>
        <time>2025-02-11T11:50:08Z</time>
      </trkpt>
      <trkpt lat="47.81105" lon="-2.48546">
        <ele>89</ele>
        <time>2025-02-11T11:50:09Z</time>
      </trkpt>
      <trkpt lat="47.81105" lon="-2.48546">
        <ele>89</ele>
        <time>2025-02-11T11:50:10Z</time>
      </trkpt>
      <trkpt lat="47.81105" lon="-2.48546">
        <ele>89</ele>
        <time>2025-02-11T11:50:11Z</time>
      </trkpt>
      <trkpt lat="47.81105" lon="-2.48546">
        <ele>89</ele>
        <time>2025-02-11T11:50:12Z</time>
      </trkpt>
      <trkpt lat="47.81105" lon="-2.48546">
        <ele>89</ele>
        <time>2025-02-11T11:50:13Z</time>
      </trkpt>
      <trkpt lat="47.81105" lon="-2.48546">
        <ele>89</ele>
        <time>2025-02-11T11:50:14Z</time>
      </trkpt>
      <trkpt lat="47.81105" lon="-2.48546">
        <ele>89</ele>
        <time>2025-02-11T11:50:15Z</time>
      </trkpt>
      <trkpt lat="47.81105" lon="-2.48546">
        <ele>89</ele>
        <time>2025-02-11T11:50:16Z</time>
      </trkpt>
      <trkpt lat="47.81105" lon="-2.48546">
        <ele>89</ele>
        <time>2025-02-11T11:50:17Z</time>
      </trkpt>
      <trkpt lat="47.81105" lon="-2.48546">
        <ele>89.1</ele>
        <time>2025-02-11T11:50:18Z</time>
      </trkpt>
      <trkpt lat="47.81105" lon="-2.48546">
        <ele>89.1</ele>
        <time>2025-02-11T11:50:19Z</time>
      </trkpt>
      <trkpt lat="47.81105" lon="-2.48546">
        <ele>89.1</ele>
        <time>2025-02-11T11:50:20Z</time>
      </trkpt>
      <trkpt lat="47.81105" lon="-2.48546">
        <ele>89.1</ele>
        <time>2025-02-11T11:50:21Z</time>
      </trkpt>
      <trkpt lat="47.81105" lon="-2.48546">
        <ele>89</ele>
        <time>2025-02-11T11:50:22Z</time>
      </trkpt>
      <trkpt lat="47.81105" lon="-2.48546">
        <ele>89</ele>
        <time>2025-02-11T11:50:23Z</time>
      </trkpt>
      <trkpt lat="47.81105" lon="-2.48546">
        <ele>89</ele>
        <time>2025-02-11T11:50:24Z</time>
      </trkpt>
      <trkpt lat="47.81105" lon="-2.48546">
        <ele>89</ele>
        <time>2025-02-11T11:50:25Z</time>
      </trkpt>
      <trkpt lat="47.81105" lon="-2.48546">
        <ele>89</ele>
        <time>2025-02-11T11:50:26Z</time>
      </trkpt>
      <trkpt lat="47.81105" lon="-2.48546">
        <ele>89</ele>
        <time>2025-02-11T11:50:27Z</time>
      </trkpt>
      <trkpt lat="47.81105" lon="-2.48546">
        <ele>89</ele>
        <time>2025-02-11T11:50:28Z</time>
      </trkpt>
      <trkpt lat="47.81105" lon="-2.48546">
        <ele>89</ele>
        <time>2025-02-11T11:50:29Z</time>
      </trkpt>
      <trkpt lat="47.81105" lon="-2.48546">
        <ele>89</ele>
        <time>2025-02-11T11:50:30Z</time>
      </trkpt>
      <trkpt lat="47.81105" lon="-2.48546">
        <ele>89</ele>
        <time>2025-02-11T11:50:31Z</time>
      </trkpt>
      <trkpt lat="47.81105" lon="-2.48546">
        <ele>89</ele>
        <time>2025-02-11T11:50:32Z</time>
      </trkpt>
      <trkpt lat="47.81105" lon="-2.48546">
        <ele>89</ele>
        <time>2025-02-11T11:50:33Z</time>
      </trkpt>
      <trkpt lat="47.81105" lon="-2.48546">
        <ele>89</ele>
        <time>2025-02-11T11:50:34Z</time>
      </trkpt>
      <trkpt lat="47.81105" lon="-2.48546">
        <ele>89</ele>
        <time>2025-02-11T11:50:35Z</time>
      </trkpt>
      <trkpt lat="47.81105" lon="-2.48546">
        <ele>89</ele>
        <time>2025-02-11T11:50:36Z</time>
      </trkpt>
      <trkpt lat="47.81105" lon="-2.48546">
        <ele>89</ele>
        <time>2025-02-11T11:50:37Z</time>
      </trkpt>
      <trkpt lat="47.81105" lon="-2.48546">
        <ele>89</ele>
        <time>2025-02-11T11:50:38Z</time>
      </trkpt>
      <trkpt lat="47.81105" lon="-2.48546">
        <ele>89</ele>
        <time>2025-02-11T11:50:39Z</time>
      </trkpt>
      <trkpt lat="47.81105" lon="-2.48546">
        <ele>89</ele>
        <time>2025-02-11T11:50:40Z</time>
      </trkpt>
      <trkpt lat="47.81105" lon="-2.48546">
        <ele>89</ele>
        <time>2025-02-11T11:50:41Z</time>
      </trkpt>
      <trkpt lat="47.81105" lon="-2.48546">
        <ele>89</ele>
        <time>2025-02-11T11:50:42Z</time>
      </trkpt>
      <trkpt lat="47.81105" lon="-2.48546">
        <ele>89</ele>
        <time>2025-02-11T11:50:43Z</time>
      </trkpt>
      <trkpt lat="47.81105" lon="-2.48546">
        <ele>89</ele>
        <time>2025-02-11T11:50:44Z</time>
      </trkpt>
      <trkpt lat="47.81105" lon="-2.48546">
        <ele>89</ele>
        <time>2025-02-11T11:50:45Z</time>
      </trkpt>
      <trkpt lat="47.81105" lon="-2.48546">
        <ele>89</ele>
        <time>2025-02-11T11:50:46Z</time>
      </trkpt>
      <trkpt lat="47.81105" lon="-2.48546">
        <ele>89</ele>
        <time>2025-02-11T11:50:47Z</time>
      </trkpt>
      <trkpt lat="47.81105" lon="-2.48546">
        <ele>89</ele>
        <time>2025-02-11T11:50:48Z</time>
      </trkpt>
      <trkpt lat="47.81105" lon="-2.48546">
        <ele>89</ele>
        <time>2025-02-11T11:50:49Z</time>
      </trkpt>
      <trkpt lat="47.81105" lon="-2.48546">
        <ele>89</ele>
        <time>2025-02-11T11:50:50Z</time>
      </trkpt>
      <trkpt lat="47.81105" lon="-2.48546">
        <ele>89</ele>
        <time>2025-02-11T11:50:51Z</time>
      </trkpt>
      <trkpt lat="47.81105" lon="-2.48546">
        <ele>89</ele>
        <time>2025-02-11T11:50:52Z</time>
      </trkpt>
      <trkpt lat="47.81105" lon="-2.48546">
        <ele>89</ele>
        <time>2025-02-11T11:50:53Z</time>
      </trkpt>
      <trkpt lat="47.81105" lon="-2.48546">
        <ele>89</ele>
        <time>2025-02-11T11:50:54Z</time>
      </trkpt>
      <trkpt lat="47.81105" lon="-2.48546">
        <ele>89</ele>
        <time>2025-02-11T11:50:55Z</time>
      </trkpt>
      <trkpt lat="47.81105" lon="-2.48546">
        <ele>89</ele>
        <time>2025-02-11T11:50:56Z</time>
      </trkpt>
      <trkpt lat="47.81105" lon="-2.48546">
        <ele>89</ele>
        <time>2025-02-11T11:50:57Z</time>
      </trkpt>
      <trkpt lat="47.81105" lon="-2.48546">
        <ele>89</ele>
        <time>2025-02-11T11:50:58Z</time>
      </trkpt>
      <trkpt lat="47.81105" lon="-2.48546">
        <ele>89</ele>
        <time>2025-02-11T11:50:59Z</time>
      </trkpt>
      <trkpt lat="47.81105" lon="-2.48546">
        <ele>89</ele>
        <time>2025-02-11T11:51:00Z</time>
      </trkpt>
      <trkpt lat="47.81105" lon="-2.48546">
        <ele>89</ele>
        <time>2025-02-11T11:51:01Z</time>
      </trkpt>
      <trkpt lat="47.81105" lon="-2.48546">
        <ele>89</ele>
        <time>2025-02-11T11:51:02Z</time>
      </trkpt>
      <trkpt lat="47.81105" lon="-2.48546">
        <ele>89</ele>
        <time>2025-02-11T11:51:03Z</time>
      </trkpt>
      <trkpt lat="47.81105" lon="-2.48546">
        <ele>89</ele>
        <time>2025-02-11T11:51:04Z</time>
      </trkpt>
      <trkpt lat="47.81105" lon="-2.48546">
        <ele>89</ele>
        <time>2025-02-11T11:51:05Z</time>
      </trkpt>
      <trkpt lat="47.81105" lon="-2.48545">
        <ele>88.9</ele>
        <time>2025-02-11T11:51:06Z</time>
      </trkpt>
      <trkpt lat="47.81105" lon="-2.48545">
        <ele>88.9</ele>
        <time>2025-02-11T11:51:07Z</time>
      </trkpt>
      <trkpt lat="47.81104" lon="-2.48545">
        <ele>88.8</ele>
        <time>2025-02-11T11:51:08Z</time>
      </trkpt>
      <trkpt lat="47.81104" lon="-2.48545">
        <ele>88.8</ele>
        <time>2025-02-11T11:51:09Z</time>
      </trkpt>
      <trkpt lat="47.81104" lon="-2.48545">
        <ele>88.8</ele>
        <time>2025-02-11T11:51:10Z</time>
      </trkpt>
      <trkpt lat="47.81105" lon="-2.48546">
        <ele>88.9</ele>
        <time>2025-02-11T11:51:11Z</time>
      </trkpt>
      <trkpt lat="47.81105" lon="-2.48546">
        <ele>89</ele>
        <time>2025-02-11T11:51:12Z</time>
      </trkpt>
      <trkpt lat="47.81105" lon="-2.48546">
        <ele>88.9</ele>
        <time>2025-02-11T11:51:13Z</time>
      </trkpt>
      <trkpt lat="47.81105" lon="-2.48546">
        <ele>88.9</ele>
        <time>2025-02-11T11:51:14Z</time>
      </trkpt>
      <trkpt lat="47.81105" lon="-2.48546">
        <ele>88.9</ele>
        <time>2025-02-11T11:51:15Z</time>
      </trkpt>
      <trkpt lat="47.81105" lon="-2.48546">
        <ele>88.9</ele>
        <time>2025-02-11T11:51:16Z</time>
      </trkpt>
      <trkpt lat="47.81105" lon="-2.48546">
        <ele>88.9</ele>
        <time>2025-02-11T11:51:17Z</time>
      </trkpt>
      <trkpt lat="47.81105" lon="-2.48546">
        <ele>88.9</ele>
        <time>2025-02-11T11:51:18Z</time>
      </trkpt>
      <trkpt lat="47.81105" lon="-2.48546">
        <ele>88.9</ele>
        <time>2025-02-11T11:51:19Z</time>
      </trkpt>
      <trkpt lat="47.81105" lon="-2.48547">
        <ele>88.9</ele>
        <time>2025-02-11T11:51:20Z</time>
      </trkpt>
      <trkpt lat="47.81105" lon="-2.48547">
        <ele>88.9</ele>
        <time>2025-02-11T11:51:21Z</time>
      </trkpt>
      <trkpt lat="47.81105" lon="-2.48547">
        <ele>88.9</ele>
        <time>2025-02-11T11:51:22Z</time>
      </trkpt>
      <trkpt lat="47.81105" lon="-2.48547">
        <ele>88.9</ele>
        <time>2025-02-11T11:51:23Z</time>
      </trkpt>
      <trkpt lat="47.81105" lon="-2.48547">
        <ele>88.9</ele>
        <time>2025-02-11T11:51:24Z</time>
      </trkpt>
      <trkpt lat="47.81105" lon="-2.48547">
        <ele>88.9</ele>
        <time>2025-02-11T11:51:25Z</time>
      </trkpt>
      <trkpt lat="47.81105" lon="-2.48547">
        <ele>88.9</ele>
        <time>2025-02-11T11:51:26Z</time>
      </trkpt>
      <trkpt lat="47.81105" lon="-2.48547">
        <ele>88.9</ele>
        <time>2025-02-11T11:51:27Z</time>
      </trkpt>
      <trkpt lat="47.81105" lon="-2.48547">
        <ele>88.9</ele>
        <time>2025-02-11T11:51:28Z</time>
      </trkpt>
      <trkpt lat="47.81105" lon="-2.48547">
        <ele>89</ele>
        <time>2025-02-11T11:51:29Z</time>
      </trkpt>
      <trkpt lat="47.81105" lon="-2.48546">
        <ele>89</ele>
        <time>2025-02-11T11:51:30Z</time>
      </trkpt>
      <trkpt lat="47.81105" lon="-2.48545">
        <ele>89</ele>
        <time>2025-02-11T11:51:31Z</time>
      </trkpt>
      <trkpt lat="47.81105" lon="-2.48545">
        <ele>89</ele>
        <time>2025-02-11T11:51:32Z</time>
      </trkpt>
      <trkpt lat="47.81105" lon="-2.48545">
        <ele>89</ele>
        <time>2025-02-11T11:51:33Z</time>
      </trkpt>
      <trkpt lat="47.81105" lon="-2.48545">
        <ele>89</ele>
        <time>2025-02-11T11:51:34Z</time>
      </trkpt>
      <trkpt lat="47.81105" lon="-2.48545">
        <ele>89</ele>
        <time>2025-02-11T11:51:35Z</time>
      </trkpt>
      <trkpt lat="47.81105" lon="-2.48545">
        <ele>89</ele>
        <time>2025-02-11T11:51:36Z</time>
      </trkpt>
      <trkpt lat="47.81105" lon="-2.48545">
        <ele>89</ele>
        <time>2025-02-11T11:51:37Z</time>
      </trkpt>
      <trkpt lat="47.81105" lon="-2.48545">
        <ele>89</ele>
        <time>2025-02-11T11:51:38Z</time>
      </trkpt>
      <trkpt lat="47.81105" lon="-2.48545">
        <ele>89</ele>
        <time>2025-02-11T11:51:39Z</time>
      </trkpt>
      <trkpt lat="47.81105" lon="-2.48545">
        <ele>89</ele>
        <time>2025-02-11T11:51:40Z</time>
      </trkpt>
      <trkpt lat="47.81105" lon="-2.48545">
        <ele>89</ele>
        <time>2025-02-11T11:51:41Z</time>
      </trkpt>
      <trkpt lat="47.81105" lon="-2.48545">
        <ele>89</ele>
        <time>2025-02-11T11:51:42Z</time>
      </trkpt>
      <trkpt lat="47.81105" lon="-2.48545">
        <ele>89</ele>
        <time>2025-02-11T11:51:43Z</time>
      </trkpt>
      <trkpt lat="47.81105" lon="-2.48545">
        <ele>89</ele>
        <time>2025-02-11T11:51:44Z</time>
      </trkpt>
      <trkpt lat="47.81105" lon="-2.48545">
        <ele>89</ele>
        <time>2025-02-11T11:51:45Z</time>
      </trkpt>
      <trkpt lat="47.81105" lon="-2.48546">
        <ele>88.9</ele>
        <time>2025-02-11T11:51:46Z</time>
      </trkpt>
      <trkpt lat="47.81105" lon="-2.48546">
        <ele>88.9</ele>
        <time>2025-02-11T11:51:47Z</time>
      </trkpt>
      <trkpt lat="47.81105" lon="-2.48546">
        <ele>88.9</ele>
        <time>2025-02-11T11:51:48Z</time>
      </trkpt>
      <trkpt lat="47.81105" lon="-2.48546">
        <ele>88.9</ele>
        <time>2025-02-11T11:51:49Z</time>
      </trkpt>
      <trkpt lat="47.81105" lon="-2.48546">
        <ele>88.9</ele>
        <time>2025-02-11T11:51:50Z</time>
      </trkpt>
      <trkpt lat="47.81105" lon="-2.48546">
        <ele>88.9</ele>
        <time>2025-02-11T11:51:51Z</time>
      </trkpt>
      <trkpt lat="47.81105" lon="-2.48546">
        <ele>88.9</ele>
        <time>2025-02-11T11:51:52Z</time>
      </trkpt>
      <trkpt lat="47.81105" lon="-2.48546">
        <ele>88.9</ele>
        <time>2025-02-11T11:51:53Z</time>
      </trkpt>
      <trkpt lat="47.81105" lon="-2.48546">
        <ele>88.9</ele>
        <time>2025-02-11T11:51:54Z</time>
      </trkpt>
      <trkpt lat="47.81105" lon="-2.48546">
        <ele>88.9</ele>
        <time>2025-02-11T11:51:55Z</time>
      </trkpt>
      <trkpt lat="47.81105" lon="-2.48546">
        <ele>88.9</ele>
        <time>2025-02-11T11:51:56Z</time>
      </trkpt>
      <trkpt lat="47.81105" lon="-2.48546">
        <ele>88.9</ele>
        <time>2025-02-11T11:51:57Z</time>
      </trkpt>
      <trkpt lat="47.81105" lon="-2.48546">
        <ele>88.9</ele>
        <time>2025-02-11T11:51:58Z</time>
      </trkpt>
      <trkpt lat="47.81105" lon="-2.48546">
        <ele>88.9</ele>
        <time>2025-02-11T11:51:59Z</time>
      </trkpt>
      <trkpt lat="47.81105" lon="-2.48546">
        <ele>88.9</ele>
        <time>2025-02-11T11:52:00Z</time>
      </trkpt>
      <trkpt lat="47.81105" lon="-2.48546">
        <ele>88.9</ele>
        <time>2025-02-11T11:52:01Z</time>
      </trkpt>
      <trkpt lat="47.81105" lon="-2.48546">
        <ele>88.9</ele>
        <time>2025-02-11T11:52:02Z</time>
      </trkpt>
      <trkpt lat="47.81105" lon="-2.48546">
        <ele>88.9</ele>
        <time>2025-02-11T11:52:03Z</time>
      </trkpt>
      <trkpt lat="47.81105" lon="-2.48546">
        <ele>89</ele>
        <time>2025-02-11T11:52:04Z</time>
      </trkpt>
      <trkpt lat="47.81105" lon="-2.48546">
        <ele>89</ele>
        <time>2025-02-11T11:52:05Z</time>
      </trkpt>
      <trkpt lat="47.81105" lon="-2.48546">
        <ele>89</ele>
        <time>2025-02-11T11:52:06Z</time>
      </trkpt>
      <trkpt lat="47.81105" lon="-2.48546">
        <ele>88.9</ele>
        <time>2025-02-11T11:52:07Z</time>
      </trkpt>
      <trkpt lat="47.81105" lon="-2.48546">
        <ele>88.9</ele>
        <time>2025-02-11T11:52:08Z</time>
      </trkpt>
      <trkpt lat="47.81105" lon="-2.48546">
        <ele>88.9</ele>
        <time>2025-02-11T11:52:09Z</time>
      </trkpt>
      <trkpt lat="47.81105" lon="-2.48547">
        <ele>89</ele>
        <time>2025-02-11T11:52:10Z</time>
      </trkpt>
      <trkpt lat="47.81105" lon="-2.48547">
        <ele>89</ele>
        <time>2025-02-11T11:52:11Z</time>
      </trkpt>
      <trkpt lat="47.81106" lon="-2.48547">
        <ele>89</ele>
        <time>2025-02-11T11:52:12Z</time>
      </trkpt>
      <trkpt lat="47.81106" lon="-2.48547">
        <ele>89</ele>
        <time>2025-02-11T11:52:13Z</time>
      </trkpt>
      <trkpt lat="47.81105" lon="-2.48547">
        <ele>89</ele>
        <time>2025-02-11T11:52:14Z</time>
      </trkpt>
      <trkpt lat="47.81105" lon="-2.48547">
        <ele>89</ele>
        <time>2025-02-11T11:52:15Z</time>
      </trkpt>
      <trkpt lat="47.81105" lon="-2.48547">
        <ele>89</ele>
        <time>2025-02-11T11:52:16Z</time>
      </trkpt>
      <trkpt lat="47.81105" lon="-2.48547">
        <ele>89</ele>
        <time>2025-02-11T11:52:17Z</time>
      </trkpt>
      <trkpt lat="47.81105" lon="-2.48547">
        <ele>89</ele>
        <time>2025-02-11T11:52:18Z</time>
      </trkpt>
      <trkpt lat="47.81105" lon="-2.48547">
        <ele>89</ele>
        <time>2025-02-11T11:52:19Z</time>
      </trkpt>
      <trkpt lat="47.81106" lon="-2.48546">
        <ele>89.1</ele>
        <time>2025-02-11T11:52:20Z</time>
      </trkpt>
      <trkpt lat="47.81106" lon="-2.48546">
        <ele>89.1</ele>
        <time>2025-02-11T11:52:21Z</time>
      </trkpt>
      <trkpt lat="47.81106" lon="-2.48546">
        <ele>89.1</ele>
        <time>2025-02-11T11:52:22Z</time>
      </trkpt>
      <trkpt lat="47.81106" lon="-2.48546">
        <ele>89.1</ele>
        <time>2025-02-11T11:52:23Z</time>
      </trkpt>
      <trkpt lat="47.81106" lon="-2.48546">
        <ele>89.1</ele>
        <time>2025-02-11T11:52:24Z</time>
      </trkpt>
      <trkpt lat="47.81106" lon="-2.48546">
        <ele>89.1</ele>
        <time>2025-02-11T11:52:25Z</time>
      </trkpt>
      <trkpt lat="47.81106" lon="-2.48546">
        <ele>89.1</ele>
        <time>2025-02-11T11:52:26Z</time>
      </trkpt>
      <trkpt lat="47.81106" lon="-2.48546">
        <ele>89.1</ele>
        <time>2025-02-11T11:52:27Z</time>
      </trkpt>
      <trkpt lat="47.81106" lon="-2.48546">
        <ele>89.1</ele>
        <time>2025-02-11T11:52:28Z</time>
      </trkpt>
      <trkpt lat="47.81106" lon="-2.48546">
        <ele>89.1</ele>
        <time>2025-02-11T11:52:29Z</time>
      </trkpt>
      <trkpt lat="47.81106" lon="-2.48546">
        <ele>89.1</ele>
        <time>2025-02-11T11:52:30Z</time>
      </trkpt>
      <trkpt lat="47.81106" lon="-2.48546">
        <ele>89.1</ele>
        <time>2025-02-11T11:52:31Z</time>
      </trkpt>
      <trkpt lat="47.81106" lon="-2.48546">
        <ele>89.1</ele>
        <time>2025-02-11T11:52:32Z</time>
      </trkpt>
      <trkpt lat="47.81106" lon="-2.48546">
        <ele>89.1</ele>
        <time>2025-02-11T11:52:33Z</time>
      </trkpt>
      <trkpt lat="47.81106" lon="-2.48546">
        <ele>89.1</ele>
        <time>2025-02-11T11:52:34Z</time>
      </trkpt>
      <trkpt lat="47.81106" lon="-2.48546">
        <ele>89.1</ele>
        <time>2025-02-11T11:52:35Z</time>
      </trkpt>
      <trkpt lat="47.81106" lon="-2.48546">
        <ele>89.1</ele>
        <time>2025-02-11T11:52:36Z</time>
      </trkpt>
      <trkpt lat="47.81105" lon="-2.48546">
        <ele>89</ele>
        <time>2025-02-11T11:52:37Z</time>
      </trkpt>
      <trkpt lat="47.81105" lon="-2.48546">
        <ele>89</ele>
        <time>2025-02-11T11:52:38Z</time>
      </trkpt>
      <trkpt lat="47.81106" lon="-2.48546">
        <ele>89.1</ele>
        <time>2025-02-11T11:52:39Z</time>
      </trkpt>
      <trkpt lat="47.81106" lon="-2.48546">
        <ele>89.1</ele>
        <time>2025-02-11T11:52:40Z</time>
      </trkpt>
      <trkpt lat="47.81105" lon="-2.48546">
        <ele>89</ele>
        <time>2025-02-11T11:52:41Z</time>
      </trkpt>
      <trkpt lat="47.81106" lon="-2.48546">
        <ele>89.1</ele>
        <time>2025-02-11T11:52:42Z</time>
      </trkpt>
      <trkpt lat="47.81106" lon="-2.48546">
        <ele>89.1</ele>
        <time>2025-02-11T11:52:43Z</time>
      </trkpt>
      <trkpt lat="47.81105" lon="-2.48546">
        <ele>89</ele>
        <time>2025-02-11T11:52:44Z</time>
      </trkpt>
      <trkpt lat="47.81105" lon="-2.48546">
        <ele>89</ele>
        <time>2025-02-11T11:52:45Z</time>
      </trkpt>
      <trkpt lat="47.81105" lon="-2.48546">
        <ele>89</ele>
        <time>2025-02-11T11:52:46Z</time>
      </trkpt>
      <trkpt lat="47.81105" lon="-2.48546">
        <ele>89</ele>
        <time>2025-02-11T11:52:47Z</time>
      </trkpt>
      <trkpt lat="47.81105" lon="-2.48546">
        <ele>89</ele>
        <time>2025-02-11T11:52:48Z</time>
      </trkpt>
      <trkpt lat="47.81105" lon="-2.48546">
        <ele>89</ele>
        <time>2025-02-11T11:52:49Z</time>
      </trkpt>
      <trkpt lat="47.81105" lon="-2.48546">
        <ele>89</ele>
        <time>2025-02-11T11:52:50Z</time>
      </trkpt>
      <trkpt lat="47.81105" lon="-2.48546">
        <ele>89</ele>
        <time>2025-02-11T11:52:51Z</time>
      </trkpt>
      <trkpt lat="47.81105" lon="-2.48546">
        <ele>89</ele>
        <time>2025-02-11T11:52:52Z</time>
      </trkpt>
      <trkpt lat="47.81105" lon="-2.48546">
        <ele>89</ele>
        <time>2025-02-11T11:52:53Z</time>
      </trkpt>
      <trkpt lat="47.81105" lon="-2.48546">
        <ele>89</ele>
        <time>2025-02-11T11:52:54Z</time>
      </trkpt>
      <trkpt lat="47.81105" lon="-2.48546">
        <ele>89</ele>
        <time>2025-02-11T11:52:55Z</time>
      </trkpt>
      <trkpt lat="47.81105" lon="-2.48546">
        <ele>89</ele>
        <time>2025-02-11T11:52:56Z</time>
      </trkpt>
      <trkpt lat="47.81105" lon="-2.48546">
        <ele>89</ele>
        <time>2025-02-11T11:52:57Z</time>
      </trkpt>
      <trkpt lat="47.81105" lon="-2.48547">
        <ele>88.9</ele>
        <time>2025-02-11T11:52:58Z</time>
      </trkpt>
      <trkpt lat="47.81105" lon="-2.48547">
        <ele>89</ele>
        <time>2025-02-11T11:52:59Z</time>
      </trkpt>
      <trkpt lat="47.81105" lon="-2.48547">
        <ele>89</ele>
        <time>2025-02-11T11:53:00Z</time>
      </trkpt>
      <trkpt lat="47.81105" lon="-2.48547">
        <ele>89</ele>
        <time>2025-02-11T11:53:01Z</time>
      </trkpt>
      <trkpt lat="47.81105" lon="-2.48547">
        <ele>89</ele>
        <time>2025-02-11T11:53:02Z</time>
      </trkpt>
      <trkpt lat="47.81105" lon="-2.48547">
        <ele>89</ele>
        <time>2025-02-11T11:53:03Z</time>
      </trkpt>
      <trkpt lat="47.81105" lon="-2.48547">
        <ele>89</ele>
        <time>2025-02-11T11:53:04Z</time>
      </trkpt>
      <trkpt lat="47.81105" lon="-2.48547">
        <ele>89</ele>
        <time>2025-02-11T11:53:05Z</time>
      </trkpt>
      <trkpt lat="47.81105" lon="-2.48547">
        <ele>89</ele>
        <time>2025-02-11T11:53:06Z</time>
      </trkpt>
      <trkpt lat="47.81106" lon="-2.48547">
        <ele>89.2</ele>
        <time>2025-02-11T11:53:07Z</time>
      </trkpt>
      <trkpt lat="47.81107" lon="-2.48547">
        <ele>89.3</ele>
        <time>2025-02-11T11:53:08Z</time>
      </trkpt>
      <trkpt lat="47.81107" lon="-2.48547">
        <ele>89.3</ele>
        <time>2025-02-11T11:53:09Z</time>
      </trkpt>
      <trkpt lat="47.81107" lon="-2.48547">
        <ele>89.3</ele>
        <time>2025-02-11T11:53:10Z</time>
      </trkpt>
      <trkpt lat="47.81107" lon="-2.48547">
        <ele>89.3</ele>
        <time>2025-02-11T11:53:11Z</time>
      </trkpt>
      <trkpt lat="47.81107" lon="-2.48547">
        <ele>89.3</ele>
        <time>2025-02-11T11:53:12Z</time>
      </trkpt>
      <trkpt lat="47.81107" lon="-2.48547">
        <ele>89.3</ele>
        <time>2025-02-11T11:53:13Z</time>
      </trkpt>
      <trkpt lat="47.81107" lon="-2.48547">
        <ele>89.3</ele>
        <time>2025-02-11T11:53:14Z</time>
      </trkpt>
      <trkpt lat="47.81107" lon="-2.48547">
        <ele>89.3</ele>
        <time>2025-02-11T11:53:15Z</time>
      </trkpt>
      <trkpt lat="47.81107" lon="-2.48547">
        <ele>89.3</ele>
        <time>2025-02-11T11:53:16Z</time>
      </trkpt>
      <trkpt lat="47.81107" lon="-2.48547">
        <ele>89.3</ele>
        <time>2025-02-11T11:53:17Z</time>
      </trkpt>
      <trkpt lat="47.81107" lon="-2.48547">
        <ele>89.4</ele>
        <time>2025-02-11T11:53:18Z</time>
      </trkpt>
      <trkpt lat="47.81107" lon="-2.48546">
        <ele>89.4</ele>
        <time>2025-02-11T11:53:19Z</time>
      </trkpt>
      <trkpt lat="47.81107" lon="-2.48546">
        <ele>89.4</ele>
        <time>2025-02-11T11:53:20Z</time>
      </trkpt>
      <trkpt lat="47.81107" lon="-2.48546">
        <ele>89.4</ele>
        <time>2025-02-11T11:53:21Z</time>
      </trkpt>
      <trkpt lat="47.81107" lon="-2.48547">
        <ele>89.4</ele>
        <time>2025-02-11T11:53:22Z</time>
      </trkpt>
      <trkpt lat="47.81107" lon="-2.48548">
        <ele>89.4</ele>
        <time>2025-02-11T11:53:23Z</time>
      </trkpt>
      <trkpt lat="47.81107" lon="-2.48548">
        <ele>89.3</ele>
        <time>2025-02-11T11:53:24Z</time>
      </trkpt>
      <trkpt lat="47.81107" lon="-2.48548">
        <ele>89.2</ele>
        <time>2025-02-11T11:53:25Z</time>
      </trkpt>
      <trkpt lat="47.81107" lon="-2.48548">
        <ele>89.2</ele>
        <time>2025-02-11T11:53:26Z</time>
      </trkpt>
      <trkpt lat="47.81107" lon="-2.48548">
        <ele>89.2</ele>
        <time>2025-02-11T11:53:27Z</time>
      </trkpt>
      <trkpt lat="47.81107" lon="-2.48548">
        <ele>89.2</ele>
        <time>2025-02-11T11:53:28Z</time>
      </trkpt>
      <trkpt lat="47.81107" lon="-2.48548">
        <ele>89.2</ele>
        <time>2025-02-11T11:53:29Z</time>
      </trkpt>
      <trkpt lat="47.81106" lon="-2.48547">
        <ele>89.2</ele>
        <time>2025-02-11T11:53:30Z</time>
      </trkpt>
      <trkpt lat="47.81106" lon="-2.48547">
        <ele>89.2</ele>
        <time>2025-02-11T11:53:31Z</time>
      </trkpt>
      <trkpt lat="47.81106" lon="-2.48547">
        <ele>89.2</ele>
        <time>2025-02-11T11:53:32Z</time>
      </trkpt>
      <trkpt lat="47.81106" lon="-2.48547">
        <ele>89.2</ele>
        <time>2025-02-11T11:53:33Z</time>
      </trkpt>
      <trkpt lat="47.81106" lon="-2.48547">
        <ele>89.2</ele>
        <time>2025-02-11T11:53:34Z</time>
      </trkpt>
      <trkpt lat="47.81106" lon="-2.48547">
        <ele>89.2</ele>
        <time>2025-02-11T11:53:35Z</time>
      </trkpt>
      <trkpt lat="47.81107" lon="-2.48546">
        <ele>89.3</ele>
        <time>2025-02-11T11:53:36Z</time>
      </trkpt>
      <trkpt lat="47.81106" lon="-2.48546">
        <ele>89.3</ele>
        <time>2025-02-11T11:53:37Z</time>
      </trkpt>
      <trkpt lat="47.81106" lon="-2.48546">
        <ele>89.3</ele>
        <time>2025-02-11T11:53:38Z</time>
      </trkpt>
      <trkpt lat="47.81106" lon="-2.48547">
        <ele>89.2</ele>
        <time>2025-02-11T11:53:39Z</time>
      </trkpt>
      <trkpt lat="47.81106" lon="-2.48547">
        <ele>89.1</ele>
        <time>2025-02-11T11:53:40Z</time>
      </trkpt>
      <trkpt lat="47.81106" lon="-2.48546">
        <ele>89.1</ele>
        <time>2025-02-11T11:53:41Z</time>
      </trkpt>
      <trkpt lat="47.81106" lon="-2.48546">
        <ele>89.1</ele>
        <time>2025-02-11T11:53:42Z</time>
      </trkpt>
      <trkpt lat="47.81106" lon="-2.48546">
        <ele>89.1</ele>
        <time>2025-02-11T11:53:43Z</time>
      </trkpt>
      <trkpt lat="47.81106" lon="-2.48546">
        <ele>89.1</ele>
        <time>2025-02-11T11:53:44Z</time>
      </trkpt>
      <trkpt lat="47.81106" lon="-2.48546">
        <ele>89.1</ele>
        <time>2025-02-11T11:53:45Z</time>
      </trkpt>
      <trkpt lat="47.81106" lon="-2.48546">
        <ele>89.1</ele>
        <time>2025-02-11T11:53:46Z</time>
      </trkpt>
      <trkpt lat="47.81106" lon="-2.48546">
        <ele>89.1</ele>
        <time>2025-02-11T11:53:47Z</time>
      </trkpt>
      <trkpt lat="47.81106" lon="-2.48546">
        <ele>89.1</ele>
        <time>2025-02-11T11:53:48Z</time>
      </trkpt>
      <trkpt lat="47.81106" lon="-2.48546">
        <ele>89.1</ele>
        <time>2025-02-11T11:53:49Z</time>
      </trkpt>
      <trkpt lat="47.81106" lon="-2.48546">
        <ele>89.1</ele>
        <time>2025-02-11T11:53:50Z</time>
      </trkpt>
      <trkpt lat="47.81106" lon="-2.48546">
        <ele>89.1</ele>
        <time>2025-02-11T11:53:51Z</time>
      </trkpt>
      <trkpt lat="47.81106" lon="-2.48546">
        <ele>89.1</ele>
        <time>2025-02-11T11:53:52Z</time>
      </trkpt>
      <trkpt lat="47.81106" lon="-2.48546">
        <ele>89.1</ele>
        <time>2025-02-11T11:53:53Z</time>
      </trkpt>
      <trkpt lat="47.81106" lon="-2.48546">
        <ele>89.1</ele>
        <time>2025-02-11T11:53:54Z</time>
      </trkpt>
      <trkpt lat="47.81105" lon="-2.48546">
        <ele>89</ele>
        <time>2025-02-11T11:53:55Z</time>
      </trkpt>
      <trkpt lat="47.81105" lon="-2.48546">
        <ele>89</ele>
        <time>2025-02-11T11:53:56Z</time>
      </trkpt>
      <trkpt lat="47.81105" lon="-2.48546">
        <ele>89</ele>
        <time>2025-02-11T11:53:57Z</time>
      </trkpt>
      <trkpt lat="47.81105" lon="-2.48546">
        <ele>89</ele>
        <time>2025-02-11T11:53:58Z</time>
      </trkpt>
      <trkpt lat="47.81105" lon="-2.48546">
        <ele>89</ele>
        <time>2025-02-11T11:53:59Z</time>
      </trkpt>
      <trkpt lat="47.81105" lon="-2.48546">
        <ele>89</ele>
        <time>2025-02-11T11:54:00Z</time>
      </trkpt>
      <trkpt lat="47.81105" lon="-2.48546">
        <ele>89</ele>
        <time>2025-02-11T11:54:01Z</time>
      </trkpt>
      <trkpt lat="47.81105" lon="-2.48546">
        <ele>89</ele>
        <time>2025-02-11T11:54:02Z</time>
      </trkpt>
      <trkpt lat="47.81105" lon="-2.48546">
        <ele>89</ele>
        <time>2025-02-11T11:54:03Z</time>
      </trkpt>
      <trkpt lat="47.81105" lon="-2.48546">
        <ele>89</ele>
        <time>2025-02-11T11:54:04Z</time>
      </trkpt>
      <trkpt lat="47.81105" lon="-2.48546">
        <ele>89</ele>
        <time>2025-02-11T11:54:05Z</time>
      </trkpt>
      <trkpt lat="47.81105" lon="-2.48546">
        <ele>89</ele>
        <time>2025-02-11T11:54:06Z</time>
      </trkpt>
      <trkpt lat="47.81105" lon="-2.48546">
        <ele>89</ele>
        <time>2025-02-11T11:54:07Z</time>
      </trkpt>
      <trkpt lat="47.81105" lon="-2.48546">
        <ele>89</ele>
        <time>2025-02-11T11:54:08Z</time>
      </trkpt>
      <trkpt lat="47.81105" lon="-2.48546">
        <ele>89</ele>
        <time>2025-02-11T11:54:09Z</time>
      </trkpt>
      <trkpt lat="47.81105" lon="-2.48546">
        <ele>89</ele>
        <time>2025-02-11T11:54:10Z</time>
      </trkpt>
      <trkpt lat="47.81105" lon="-2.48546">
        <ele>89</ele>
        <time>2025-02-11T11:54:11Z</time>
      </trkpt>
      <trkpt lat="47.81105" lon="-2.48546">
        <ele>89</ele>
        <time>2025-02-11T11:54:12Z</time>
      </trkpt>
      <trkpt lat="47.81105" lon="-2.48546">
        <ele>89</ele>
        <time>2025-02-11T11:54:13Z</time>
      </trkpt>
      <trkpt lat="47.81105" lon="-2.48546">
        <ele>89</ele>
        <time>2025-02-11T11:54:14Z</time>
      </trkpt>
      <trkpt lat="47.81105" lon="-2.48546">
        <ele>89</ele>
        <time>2025-02-11T11:54:15Z</time>
      </trkpt>
      <trkpt lat="47.81105" lon="-2.48546">
        <ele>89</ele>
        <time>2025-02-11T11:54:16Z</time>
      </trkpt>
      <trkpt lat="47.81105" lon="-2.48546">
        <ele>89</ele>
        <time>2025-02-11T11:54:17Z</time>
      </trkpt>
      <trkpt lat="47.81105" lon="-2.48546">
        <ele>89</ele>
        <time>2025-02-11T11:54:18Z</time>
      </trkpt>
      <trkpt lat="47.81105" lon="-2.48546">
        <ele>89</ele>
        <time>2025-02-11T11:54:19Z</time>
      </trkpt>
      <trkpt lat="47.81105" lon="-2.48546">
        <ele>89</ele>
        <time>2025-02-11T11:54:20Z</time>
      </trkpt>
      <trkpt lat="47.81105" lon="-2.48547">
        <ele>89</ele>
        <time>2025-02-11T11:54:21Z</time>
      </trkpt>
      <trkpt lat="47.81105" lon="-2.48547">
        <ele>89</ele>
        <time>2025-02-11T11:54:22Z</time>
      </trkpt>
      <trkpt lat="47.81105" lon="-2.48547">
        <ele>89</ele>
        <time>2025-02-11T11:54:23Z</time>
      </trkpt>
      <trkpt lat="47.81105" lon="-2.48547">
        <ele>89</ele>
        <time>2025-02-11T11:54:24Z</time>
      </trkpt>
      <trkpt lat="47.81105" lon="-2.48547">
        <ele>89</ele>
        <time>2025-02-11T11:54:25Z</time>
      </trkpt>
      <trkpt lat="47.81105" lon="-2.48547">
        <ele>89</ele>
        <time>2025-02-11T11:54:26Z</time>
      </trkpt>
      <trkpt lat="47.81105" lon="-2.48547">
        <ele>89</ele>
        <time>2025-02-11T11:54:27Z</time>
      </trkpt>
      <trkpt lat="47.81105" lon="-2.48547">
        <ele>89</ele>
        <time>2025-02-11T11:54:28Z</time>
      </trkpt>
      <trkpt lat="47.81105" lon="-2.48547">
        <ele>89</ele>
        <time>2025-02-11T11:54:29Z</time>
      </trkpt>
      <trkpt lat="47.81105" lon="-2.48547">
        <ele>89</ele>
        <time>2025-02-11T11:54:30Z</time>
      </trkpt>
      <trkpt lat="47.81105" lon="-2.48547">
        <ele>89</ele>
        <time>2025-02-11T11:54:31Z</time>
      </trkpt>
      <trkpt lat="47.81105" lon="-2.48547">
        <ele>89</ele>
        <time>2025-02-11T11:54:32Z</time>
      </trkpt>
      <trkpt lat="47.81105" lon="-2.48547">
        <ele>89</ele>
        <time>2025-02-11T11:54:33Z</time>
      </trkpt>
      <trkpt lat="47.81105" lon="-2.48547">
        <ele>89</ele>
        <time>2025-02-11T11:54:34Z</time>
      </trkpt>
      <trkpt lat="47.81105" lon="-2.48547">
        <ele>89</ele>
        <time>2025-02-11T11:54:35Z</time>
      </trkpt>
      <trkpt lat="47.81105" lon="-2.48547">
        <ele>89</ele>
        <time>2025-02-11T11:54:36Z</time>
      </trkpt>
      <trkpt lat="47.81105" lon="-2.48547">
        <ele>89</ele>
        <time>2025-02-11T11:54:37Z</time>
      </trkpt>
      <trkpt lat="47.81105" lon="-2.48547">
        <ele>89</ele>
        <time>2025-02-11T11:54:38Z</time>
      </trkpt>
      <trkpt lat="47.81105" lon="-2.48547">
        <ele>89</ele>
        <time>2025-02-11T11:54:39Z</time>
      </trkpt>
      <trkpt lat="47.81105" lon="-2.48547">
        <ele>89</ele>
        <time>2025-02-11T11:54:40Z</time>
      </trkpt>
      <trkpt lat="47.81105" lon="-2.48547">
        <ele>89</ele>
        <time>2025-02-11T11:54:41Z</time>
      </trkpt>
      <trkpt lat="47.81105" lon="-2.48547">
        <ele>89</ele>
        <time>2025-02-11T11:54:42Z</time>
      </trkpt>
      <trkpt lat="47.81105" lon="-2.48547">
        <ele>89</ele>
        <time>2025-02-11T11:54:43Z</time>
      </trkpt>
      <trkpt lat="47.81105" lon="-2.48547">
        <ele>89</ele>
        <time>2025-02-11T11:54:44Z</time>
      </trkpt>
      <trkpt lat="47.81105" lon="-2.48547">
        <ele>89</ele>
        <time>2025-02-11T11:54:45Z</time>
      </trkpt>
      <trkpt lat="47.81105" lon="-2.48547">
        <ele>89</ele>
        <time>2025-02-11T11:54:46Z</time>
      </trkpt>
      <trkpt lat="47.81105" lon="-2.48547">
        <ele>89</ele>
        <time>2025-02-11T11:54:47Z</time>
      </trkpt>
      <trkpt lat="47.81105" lon="-2.48547">
        <ele>89</ele>
        <time>2025-02-11T11:54:48Z</time>
      </trkpt>
      <trkpt lat="47.81105" lon="-2.48547">
        <ele>89</ele>
        <time>2025-02-11T11:54:49Z</time>
      </trkpt>
      <trkpt lat="47.81106" lon="-2.48547">
        <ele>89</ele>
        <time>2025-02-11T11:54:50Z</time>
      </trkpt>
      <trkpt lat="47.81106" lon="-2.48546">
        <ele>89.1</ele>
        <time>2025-02-11T11:54:51Z</time>
      </trkpt>
      <trkpt lat="47.81106" lon="-2.48546">
        <ele>89.1</ele>
        <time>2025-02-11T11:54:52Z</time>
      </trkpt>
      <trkpt lat="47.81106" lon="-2.48546">
        <ele>89.1</ele>
        <time>2025-02-11T11:54:53Z</time>
      </trkpt>
      <trkpt lat="47.81106" lon="-2.48546">
        <ele>89.1</ele>
        <time>2025-02-11T11:54:54Z</time>
      </trkpt>
      <trkpt lat="47.81106" lon="-2.48546">
        <ele>89.1</ele>
        <time>2025-02-11T11:54:55Z</time>
      </trkpt>
      <trkpt lat="47.81106" lon="-2.48546">
        <ele>89.1</ele>
        <time>2025-02-11T11:54:56Z</time>
      </trkpt>
      <trkpt lat="47.81106" lon="-2.48546">
        <ele>89.1</ele>
        <time>2025-02-11T11:54:57Z</time>
      </trkpt>
      <trkpt lat="47.81106" lon="-2.48546">
        <ele>89.1</ele>
        <time>2025-02-11T11:54:58Z</time>
      </trkpt>
      <trkpt lat="47.81106" lon="-2.48546">
        <ele>89.1</ele>
        <time>2025-02-11T11:54:59Z</time>
      </trkpt>
      <trkpt lat="47.81106" lon="-2.48546">
        <ele>89.1</ele>
        <time>2025-02-11T11:55:00Z</time>
      </trkpt>
      <trkpt lat="47.81106" lon="-2.48546">
        <ele>89.1</ele>
        <time>2025-02-11T11:55:01Z</time>
      </trkpt>
      <trkpt lat="47.81106" lon="-2.48546">
        <ele>89.1</ele>
        <time>2025-02-11T11:55:02Z</time>
      </trkpt>
      <trkpt lat="47.81106" lon="-2.48546">
        <ele>89.1</ele>
        <time>2025-02-11T11:55:03Z</time>
      </trkpt>
      <trkpt lat="47.81106" lon="-2.48546">
        <ele>89.1</ele>
        <time>2025-02-11T11:55:04Z</time>
      </trkpt>
      <trkpt lat="47.81106" lon="-2.48546">
        <ele>89.1</ele>
        <time>2025-02-11T11:55:05Z</time>
      </trkpt>
      <trkpt lat="47.81106" lon="-2.48546">
        <ele>89.1</ele>
        <time>2025-02-11T11:55:06Z</time>
      </trkpt>
      <trkpt lat="47.81106" lon="-2.48546">
        <ele>89.1</ele>
        <time>2025-02-11T11:55:07Z</time>
      </trkpt>
      <trkpt lat="47.81106" lon="-2.48546">
        <ele>89.1</ele>
        <time>2025-02-11T11:55:08Z</time>
      </trkpt>
      <trkpt lat="47.81106" lon="-2.48546">
        <ele>89.1</ele>
        <time>2025-02-11T11:55:09Z</time>
      </trkpt>
      <trkpt lat="47.81106" lon="-2.48546">
        <ele>89.1</ele>
        <time>2025-02-11T11:55:10Z</time>
      </trkpt>
      <trkpt lat="47.81106" lon="-2.48546">
        <ele>89.1</ele>
        <time>2025-02-11T11:55:11Z</time>
      </trkpt>
      <trkpt lat="47.81106" lon="-2.48546">
        <ele>89.1</ele>
        <time>2025-02-11T11:55:12Z</time>
      </trkpt>
      <trkpt lat="47.81106" lon="-2.48546">
        <ele>89.1</ele>
        <time>2025-02-11T11:55:13Z</time>
      </trkpt>
      <trkpt lat="47.81106" lon="-2.48546">
        <ele>89.1</ele>
        <time>2025-02-11T11:55:14Z</time>
      </trkpt>
      <trkpt lat="47.81106" lon="-2.48546">
        <ele>89.1</ele>
        <time>2025-02-11T11:55:15Z</time>
      </trkpt>
      <trkpt lat="47.81106" lon="-2.48546">
        <ele>89.1</ele>
        <time>2025-02-11T11:55:16Z</time>
      </trkpt>
      <trkpt lat="47.81106" lon="-2.48546">
        <ele>89.1</ele>
        <time>2025-02-11T11:55:17Z</time>
      </trkpt>
      <trkpt lat="47.81106" lon="-2.48546">
        <ele>89.1</ele>
        <time>2025-02-11T11:55:18Z</time>
      </trkpt>
      <trkpt lat="47.81106" lon="-2.48546">
        <ele>89.1</ele>
        <time>2025-02-11T11:55:19Z</time>
      </trkpt>
      <trkpt lat="47.81106" lon="-2.48546">
        <ele>89.1</ele>
        <time>2025-02-11T11:55:20Z</time>
      </trkpt>
      <trkpt lat="47.81106" lon="-2.48546">
        <ele>89.1</ele>
        <time>2025-02-11T11:55:21Z</time>
      </trkpt>
      <trkpt lat="47.81106" lon="-2.48546">
        <ele>89.1</ele>
        <time>2025-02-11T11:55:22Z</time>
      </trkpt>
      <trkpt lat="47.81106" lon="-2.48546">
        <ele>89.1</ele>
        <time>2025-02-11T11:55:23Z</time>
      </trkpt>
      <trkpt lat="47.81106" lon="-2.48546">
        <ele>89.1</ele>
        <time>2025-02-11T11:55:24Z</time>
      </trkpt>
      <trkpt lat="47.81106" lon="-2.48546">
        <ele>89.1</ele>
        <time>2025-02-11T11:55:25Z</time>
      </trkpt>
      <trkpt lat="47.81106" lon="-2.48546">
        <ele>89.1</ele>
        <time>2025-02-11T11:55:26Z</time>
      </trkpt>
      <trkpt lat="47.81106" lon="-2.48546">
        <ele>89.1</ele>
        <time>2025-02-11T11:55:27Z</time>
      </trkpt>
      <trkpt lat="47.81106" lon="-2.48546">
        <ele>89.1</ele>
        <time>2025-02-11T11:55:28Z</time>
      </trkpt>
      <trkpt lat="47.81106" lon="-2.48546">
        <ele>89.1</ele>
        <time>2025-02-11T11:55:29Z</time>
      </trkpt>
      <trkpt lat="47.81106" lon="-2.48546">
        <ele>89.1</ele>
        <time>2025-02-11T11:55:30Z</time>
      </trkpt>
      <trkpt lat="47.81106" lon="-2.48546">
        <ele>89.1</ele>
        <time>2025-02-11T11:55:31Z</time>
      </trkpt>
      <trkpt lat="47.81106" lon="-2.48546">
        <ele>89.1</ele>
        <time>2025-02-11T11:55:32Z</time>
      </trkpt>
      <trkpt lat="47.81106" lon="-2.48546">
        <ele>89.1</ele>
        <time>2025-02-11T11:55:33Z</time>
      </trkpt>
      <trkpt lat="47.81106" lon="-2.48546">
        <ele>89.1</ele>
        <time>2025-02-11T11:55:34Z</time>
      </trkpt>
      <trkpt lat="47.81106" lon="-2.48546">
        <ele>89.1</ele>
        <time>2025-02-11T11:55:35Z</time>
      </trkpt>
      <trkpt lat="47.81106" lon="-2.48546">
        <ele>89.1</ele>
        <time>2025-02-11T11:55:36Z</time>
      </trkpt>
      <trkpt lat="47.81106" lon="-2.48546">
        <ele>89.1</ele>
        <time>2025-02-11T11:55:37Z</time>
      </trkpt>
      <trkpt lat="47.81106" lon="-2.48546">
        <ele>89.1</ele>
        <time>2025-02-11T11:55:38Z</time>
      </trkpt>
      <trkpt lat="47.81106" lon="-2.48546">
        <ele>89.1</ele>
        <time>2025-02-11T11:55:39Z</time>
      </trkpt>
      <trkpt lat="47.81106" lon="-2.48546">
        <ele>89.1</ele>
        <time>2025-02-11T11:55:40Z</time>
      </trkpt>
      <trkpt lat="47.81106" lon="-2.48546">
        <ele>89.1</ele>
        <time>2025-02-11T11:55:41Z</time>
      </trkpt>
      <trkpt lat="47.81106" lon="-2.48546">
        <ele>89.1</ele>
        <time>2025-02-11T11:55:42Z</time>
      </trkpt>
      <trkpt lat="47.81106" lon="-2.48546">
        <ele>89.1</ele>
        <time>2025-02-11T11:55:43Z</time>
      </trkpt>
      <trkpt lat="47.81106" lon="-2.48546">
        <ele>89.1</ele>
        <time>2025-02-11T11:55:44Z</time>
      </trkpt>
      <trkpt lat="47.81106" lon="-2.48546">
        <ele>89.1</ele>
        <time>2025-02-11T11:55:45Z</time>
      </trkpt>
      <trkpt lat="47.81106" lon="-2.48546">
        <ele>89.1</ele>
        <time>2025-02-11T11:55:46Z</time>
      </trkpt>
      <trkpt lat="47.81106" lon="-2.48546">
        <ele>89.1</ele>
        <time>2025-02-11T11:55:47Z</time>
      </trkpt>
      <trkpt lat="47.81106" lon="-2.48546">
        <ele>89.1</ele>
        <time>2025-02-11T11:55:48Z</time>
      </trkpt>
      <trkpt lat="47.81106" lon="-2.48546">
        <ele>89.1</ele>
        <time>2025-02-11T11:55:49Z</time>
      </trkpt>
      <trkpt lat="47.81106" lon="-2.48546">
        <ele>89.1</ele>
        <time>2025-02-11T11:55:50Z</time>
      </trkpt>
      <trkpt lat="47.81106" lon="-2.48546">
        <ele>89.1</ele>
        <time>2025-02-11T11:55:51Z</time>
      </trkpt>
      <trkpt lat="47.81106" lon="-2.48547">
        <ele>89</ele>
        <time>2025-02-11T11:55:52Z</time>
      </trkpt>
      <trkpt lat="47.81106" lon="-2.48547">
        <ele>89</ele>
        <time>2025-02-11T11:55:53Z</time>
      </trkpt>
      <trkpt lat="47.81105" lon="-2.48546">
        <ele>89</ele>
        <time>2025-02-11T11:55:54Z</time>
      </trkpt>
      <trkpt lat="47.81105" lon="-2.48546">
        <ele>89</ele>
        <time>2025-02-11T11:55:55Z</time>
      </trkpt>
      <trkpt lat="47.81106" lon="-2.48546">
        <ele>89.1</ele>
        <time>2025-02-11T11:55:56Z</time>
      </trkpt>
      <trkpt lat="47.81106" lon="-2.48546">
        <ele>89.1</ele>
        <time>2025-02-11T11:55:57Z</time>
      </trkpt>
      <trkpt lat="47.81106" lon="-2.48546">
        <ele>89.1</ele>
        <time>2025-02-11T11:55:58Z</time>
      </trkpt>
      <trkpt lat="47.81106" lon="-2.48546">
        <ele>89.1</ele>
        <time>2025-02-11T11:55:59Z</time>
      </trkpt>
      <trkpt lat="47.81106" lon="-2.48546">
        <ele>89.1</ele>
        <time>2025-02-11T11:56:00Z</time>
      </trkpt>
      <trkpt lat="47.81106" lon="-2.48546">
        <ele>89.1</ele>
        <time>2025-02-11T11:56:01Z</time>
      </trkpt>
      <trkpt lat="47.81106" lon="-2.48546">
        <ele>89.1</ele>
        <time>2025-02-11T11:56:02Z</time>
      </trkpt>
      <trkpt lat="47.81106" lon="-2.48546">
        <ele>89.1</ele>
        <time>2025-02-11T11:56:03Z</time>
      </trkpt>
      <trkpt lat="47.81106" lon="-2.48546">
        <ele>89.1</ele>
        <time>2025-02-11T11:56:04Z</time>
      </trkpt>
      <trkpt lat="47.81106" lon="-2.48546">
        <ele>89.1</ele>
        <time>2025-02-11T11:56:05Z</time>
      </trkpt>
      <trkpt lat="47.81106" lon="-2.48546">
        <ele>89.1</ele>
        <time>2025-02-11T11:56:06Z</time>
      </trkpt>
      <trkpt lat="47.81106" lon="-2.48546">
        <ele>89.1</ele>
        <time>2025-02-11T11:56:07Z</time>
      </trkpt>
      <trkpt lat="47.81106" lon="-2.48546">
        <ele>89.1</ele>
        <time>2025-02-11T11:56:08Z</time>
      </trkpt>
      <trkpt lat="47.81106" lon="-2.48546">
        <ele>89.1</ele>
        <time>2025-02-11T11:56:09Z</time>
      </trkpt>
      <trkpt lat="47.81106" lon="-2.48546">
        <ele>89.1</ele>
        <time>2025-02-11T11:56:10Z</time>
      </trkpt>
      <trkpt lat="47.81106" lon="-2.48546">
        <ele>89.1</ele>
        <time>2025-02-11T11:56:11Z</time>
      </trkpt>
      <trkpt lat="47.81106" lon="-2.48546">
        <ele>89.1</ele>
        <time>2025-02-11T11:56:12Z</time>
      </trkpt>
      <trkpt lat="47.81106" lon="-2.48546">
        <ele>89.1</ele>
        <time>2025-02-11T11:56:13Z</time>
      </trkpt>
      <trkpt lat="47.81106" lon="-2.48546">
        <ele>89.1</ele>
        <time>2025-02-11T11:56:14Z</time>
      </trkpt>
      <trkpt lat="47.81106" lon="-2.48546">
        <ele>89.1</ele>
        <time>2025-02-11T11:56:15Z</time>
      </trkpt>
      <trkpt lat="47.81106" lon="-2.48546">
        <ele>89.1</ele>
        <time>2025-02-11T11:56:16Z</time>
      </trkpt>
      <trkpt lat="47.81106" lon="-2.48546">
        <ele>89.1</ele>
        <time>2025-02-11T11:56:17Z</time>
      </trkpt>
      <trkpt lat="47.81106" lon="-2.48546">
        <ele>89.1</ele>
        <time>2025-02-11T11:56:18Z</time>
      </trkpt>
      <trkpt lat="47.81106" lon="-2.48546">
        <ele>89.1</ele>
        <time>2025-02-11T11:56:19Z</time>
      </trkpt>
      <trkpt lat="47.81106" lon="-2.48546">
        <ele>89.1</ele>
        <time>2025-02-11T11:56:20Z</time>
      </trkpt>
      <trkpt lat="47.81106" lon="-2.48546">
        <ele>89.1</ele>
        <time>2025-02-11T11:56:21Z</time>
      </trkpt>
      <trkpt lat="47.81106" lon="-2.48546">
        <ele>89.1</ele>
        <time>2025-02-11T11:56:22Z</time>
      </trkpt>
      <trkpt lat="47.81105" lon="-2.48546">
        <ele>89</ele>
        <time>2025-02-11T11:56:23Z</time>
      </trkpt>
      <trkpt lat="47.81105" lon="-2.48546">
        <ele>89</ele>
        <time>2025-02-11T11:56:24Z</time>
      </trkpt>
      <trkpt lat="47.81105" lon="-2.48546">
        <ele>89</ele>
        <time>2025-02-11T11:56:25Z</time>
      </trkpt>
      <trkpt lat="47.81105" lon="-2.48546">
        <ele>89</ele>
        <time>2025-02-11T11:56:26Z</time>
      </trkpt>
      <trkpt lat="47.81105" lon="-2.48546">
        <ele>89</ele>
        <time>2025-02-11T11:56:27Z</time>
      </trkpt>
      <trkpt lat="47.81105" lon="-2.48546">
        <ele>89</ele>
        <time>2025-02-11T11:56:28Z</time>
      </trkpt>
      <trkpt lat="47.81105" lon="-2.48546">
        <ele>89</ele>
        <time>2025-02-11T11:56:29Z</time>
      </trkpt>
      <trkpt lat="47.81105" lon="-2.48546">
        <ele>89</ele>
        <time>2025-02-11T11:56:30Z</time>
      </trkpt>
      <trkpt lat="47.81105" lon="-2.48546">
        <ele>89</ele>
        <time>2025-02-11T11:56:31Z</time>
      </trkpt>
      <trkpt lat="47.81105" lon="-2.48546">
        <ele>89</ele>
        <time>2025-02-11T11:56:32Z</time>
      </trkpt>
      <trkpt lat="47.81105" lon="-2.48546">
        <ele>89</ele>
        <time>2025-02-11T11:56:33Z</time>
      </trkpt>
      <trkpt lat="47.81105" lon="-2.48546">
        <ele>89</ele>
        <time>2025-02-11T11:56:34Z</time>
      </trkpt>
      <trkpt lat="47.81105" lon="-2.48546">
        <ele>89</ele>
        <time>2025-02-11T11:56:35Z</time>
      </trkpt>
      <trkpt lat="47.81105" lon="-2.48546">
        <ele>89</ele>
        <time>2025-02-11T11:56:36Z</time>
      </trkpt>
      <trkpt lat="47.81105" lon="-2.48546">
        <ele>89</ele>
        <time>2025-02-11T11:56:37Z</time>
      </trkpt>
      <trkpt lat="47.81105" lon="-2.48546">
        <ele>89</ele>
        <time>2025-02-11T11:56:38Z</time>
      </trkpt>
      <trkpt lat="47.81105" lon="-2.48546">
        <ele>89</ele>
        <time>2025-02-11T11:56:39Z</time>
      </trkpt>
      <trkpt lat="47.81105" lon="-2.48546">
        <ele>89</ele>
        <time>2025-02-11T11:56:40Z</time>
      </trkpt>
      <trkpt lat="47.81105" lon="-2.48546">
        <ele>89</ele>
        <time>2025-02-11T11:56:41Z</time>
      </trkpt>
      <trkpt lat="47.81105" lon="-2.48546">
        <ele>89</ele>
        <time>2025-02-11T11:56:42Z</time>
      </trkpt>
      <trkpt lat="47.81105" lon="-2.48546">
        <ele>89</ele>
        <time>2025-02-11T11:56:43Z</time>
      </trkpt>
      <trkpt lat="47.81105" lon="-2.48546">
        <ele>89</ele>
        <time>2025-02-11T11:56:44Z</time>
      </trkpt>
      <trkpt lat="47.81105" lon="-2.48546">
        <ele>89</ele>
        <time>2025-02-11T11:56:45Z</time>
      </trkpt>
      <trkpt lat="47.81105" lon="-2.48547">
        <ele>88.9</ele>
        <time>2025-02-11T11:56:46Z</time>
      </trkpt>
      <trkpt lat="47.81105" lon="-2.48547">
        <ele>88.8</ele>
        <time>2025-02-11T11:56:47Z</time>
      </trkpt>
      <trkpt lat="47.81105" lon="-2.48547">
        <ele>88.8</ele>
        <time>2025-02-11T11:56:48Z</time>
      </trkpt>
      <trkpt lat="47.81105" lon="-2.48547">
        <ele>88.8</ele>
        <time>2025-02-11T11:56:49Z</time>
      </trkpt>
      <trkpt lat="47.81105" lon="-2.48547">
        <ele>88.8</ele>
        <time>2025-02-11T11:56:50Z</time>
      </trkpt>
      <trkpt lat="47.81105" lon="-2.48547">
        <ele>88.8</ele>
        <time>2025-02-11T11:56:51Z</time>
      </trkpt>
      <trkpt lat="47.81105" lon="-2.48547">
        <ele>88.8</ele>
        <time>2025-02-11T11:56:52Z</time>
      </trkpt>
      <trkpt lat="47.81105" lon="-2.48547">
        <ele>88.8</ele>
        <time>2025-02-11T11:56:53Z</time>
      </trkpt>
      <trkpt lat="47.81105" lon="-2.48547">
        <ele>88.8</ele>
        <time>2025-02-11T11:56:54Z</time>
      </trkpt>
      <trkpt lat="47.81105" lon="-2.48547">
        <ele>88.8</ele>
        <time>2025-02-11T11:56:55Z</time>
      </trkpt>
      <trkpt lat="47.81104" lon="-2.48547">
        <ele>88.8</ele>
        <time>2025-02-11T11:56:56Z</time>
      </trkpt>
      <trkpt lat="47.81104" lon="-2.48547">
        <ele>88.7</ele>
        <time>2025-02-11T11:56:57Z</time>
      </trkpt>
      <trkpt lat="47.81104" lon="-2.48547">
        <ele>88.7</ele>
        <time>2025-02-11T11:56:58Z</time>
      </trkpt>
      <trkpt lat="47.81104" lon="-2.48547">
        <ele>88.7</ele>
        <time>2025-02-11T11:56:59Z</time>
      </trkpt>
      <trkpt lat="47.81104" lon="-2.48547">
        <ele>88.7</ele>
        <time>2025-02-11T11:57:00Z</time>
      </trkpt>
      <trkpt lat="47.81104" lon="-2.48547">
        <ele>88.7</ele>
        <time>2025-02-11T11:57:01Z</time>
      </trkpt>
      <trkpt lat="47.81104" lon="-2.48547">
        <ele>88.7</ele>
        <time>2025-02-11T11:57:02Z</time>
      </trkpt>
      <trkpt lat="47.81104" lon="-2.48547">
        <ele>88.7</ele>
        <time>2025-02-11T11:57:03Z</time>
      </trkpt>
      <trkpt lat="47.81104" lon="-2.48547">
        <ele>88.7</ele>
        <time>2025-02-11T11:57:04Z</time>
      </trkpt>
      <trkpt lat="47.81104" lon="-2.48547">
        <ele>88.7</ele>
        <time>2025-02-11T11:57:05Z</time>
      </trkpt>
      <trkpt lat="47.81104" lon="-2.48547">
        <ele>88.6</ele>
        <time>2025-02-11T11:57:06Z</time>
      </trkpt>
      <trkpt lat="47.81104" lon="-2.48546">
        <ele>88.6</ele>
        <time>2025-02-11T11:57:07Z</time>
      </trkpt>
      <trkpt lat="47.81104" lon="-2.48546">
        <ele>88.7</ele>
        <time>2025-02-11T11:57:08Z</time>
      </trkpt>
      <trkpt lat="47.81104" lon="-2.48546">
        <ele>88.7</ele>
        <time>2025-02-11T11:57:09Z</time>
      </trkpt>
      <trkpt lat="47.81104" lon="-2.48546">
        <ele>88.7</ele>
        <time>2025-02-11T11:57:10Z</time>
      </trkpt>
      <trkpt lat="47.81104" lon="-2.48546">
        <ele>88.8</ele>
        <time>2025-02-11T11:57:11Z</time>
      </trkpt>
      <trkpt lat="47.81104" lon="-2.48546">
        <ele>88.8</ele>
        <time>2025-02-11T11:57:12Z</time>
      </trkpt>
      <trkpt lat="47.81104" lon="-2.48546">
        <ele>88.8</ele>
        <time>2025-02-11T11:57:13Z</time>
      </trkpt>
      <trkpt lat="47.81104" lon="-2.48546">
        <ele>88.8</ele>
        <time>2025-02-11T11:57:14Z</time>
      </trkpt>
      <trkpt lat="47.81104" lon="-2.48546">
        <ele>88.8</ele>
        <time>2025-02-11T11:57:15Z</time>
      </trkpt>
      <trkpt lat="47.81104" lon="-2.48546">
        <ele>88.8</ele>
        <time>2025-02-11T11:57:16Z</time>
      </trkpt>
      <trkpt lat="47.81104" lon="-2.48546">
        <ele>88.8</ele>
        <time>2025-02-11T11:57:17Z</time>
      </trkpt>
      <trkpt lat="47.81104" lon="-2.48546">
        <ele>88.8</ele>
        <time>2025-02-11T11:57:18Z</time>
      </trkpt>
      <trkpt lat="47.81104" lon="-2.48546">
        <ele>88.8</ele>
        <time>2025-02-11T11:57:19Z</time>
      </trkpt>
      <trkpt lat="47.81104" lon="-2.48546">
        <ele>88.8</ele>
        <time>2025-02-11T11:57:20Z</time>
      </trkpt>
      <trkpt lat="47.81104" lon="-2.48546">
        <ele>88.8</ele>
        <time>2025-02-11T11:57:21Z</time>
      </trkpt>
      <trkpt lat="47.81104" lon="-2.48546">
        <ele>88.8</ele>
        <time>2025-02-11T11:57:22Z</time>
      </trkpt>
      <trkpt lat="47.81104" lon="-2.48546">
        <ele>88.8</ele>
        <time>2025-02-11T11:57:23Z</time>
      </trkpt>
      <trkpt lat="47.81104" lon="-2.48546">
        <ele>88.8</ele>
        <time>2025-02-11T11:57:24Z</time>
      </trkpt>
      <trkpt lat="47.81104" lon="-2.48546">
        <ele>88.8</ele>
        <time>2025-02-11T11:57:25Z</time>
      </trkpt>
      <trkpt lat="47.81104" lon="-2.48546">
        <ele>88.8</ele>
        <time>2025-02-11T11:57:26Z</time>
      </trkpt>
      <trkpt lat="47.81104" lon="-2.48546">
        <ele>88.8</ele>
        <time>2025-02-11T11:57:27Z</time>
      </trkpt>
      <trkpt lat="47.81104" lon="-2.48546">
        <ele>88.8</ele>
        <time>2025-02-11T11:57:28Z</time>
      </trkpt>
      <trkpt lat="47.81104" lon="-2.48546">
        <ele>88.8</ele>
        <time>2025-02-11T11:57:29Z</time>
      </trkpt>
      <trkpt lat="47.81104" lon="-2.48546">
        <ele>88.8</ele>
        <time>2025-02-11T11:57:30Z</time>
      </trkpt>
      <trkpt lat="47.81104" lon="-2.48546">
        <ele>88.8</ele>
        <time>2025-02-11T11:57:31Z</time>
      </trkpt>
      <trkpt lat="47.81104" lon="-2.48546">
        <ele>88.8</ele>
        <time>2025-02-11T11:57:32Z</time>
      </trkpt>
      <trkpt lat="47.81104" lon="-2.48546">
        <ele>88.8</ele>
        <time>2025-02-11T11:57:33Z</time>
      </trkpt>
      <trkpt lat="47.81104" lon="-2.48546">
        <ele>88.8</ele>
        <time>2025-02-11T11:57:34Z</time>
      </trkpt>
      <trkpt lat="47.81104" lon="-2.48546">
        <ele>88.8</ele>
        <time>2025-02-11T11:57:35Z</time>
      </trkpt>
      <trkpt lat="47.81104" lon="-2.48546">
        <ele>88.8</ele>
        <time>2025-02-11T11:57:36Z</time>
      </trkpt>
      <trkpt lat="47.81104" lon="-2.48546">
        <ele>88.8</ele>
        <time>2025-02-11T11:57:37Z</time>
      </trkpt>
      <trkpt lat="47.81104" lon="-2.48546">
        <ele>88.8</ele>
        <time>2025-02-11T11:57:38Z</time>
      </trkpt>
      <trkpt lat="47.81104" lon="-2.48546">
        <ele>88.8</ele>
        <time>2025-02-11T11:57:39Z</time>
      </trkpt>
      <trkpt lat="47.81104" lon="-2.48546">
        <ele>88.8</ele>
        <time>2025-02-11T11:57:40Z</time>
      </trkpt>
      <trkpt lat="47.81104" lon="-2.48546">
        <ele>88.8</ele>
        <time>2025-02-11T11:57:41Z</time>
      </trkpt>
      <trkpt lat="47.81104" lon="-2.48546">
        <ele>88.8</ele>
        <time>2025-02-11T11:57:42Z</time>
      </trkpt>
      <trkpt lat="47.81104" lon="-2.48546">
        <ele>88.8</ele>
        <time>2025-02-11T11:57:43Z</time>
      </trkpt>
      <trkpt lat="47.81104" lon="-2.48546">
        <ele>88.8</ele>
        <time>2025-02-11T11:57:44Z</time>
      </trkpt>
      <trkpt lat="47.81104" lon="-2.48546">
        <ele>88.8</ele>
        <time>2025-02-11T11:57:45Z</time>
      </trkpt>
      <trkpt lat="47.81104" lon="-2.48546">
        <ele>88.8</ele>
        <time>2025-02-11T11:57:46Z</time>
      </trkpt>
      <trkpt lat="47.81104" lon="-2.48546">
        <ele>88.8</ele>
        <time>2025-02-11T11:57:47Z</time>
      </trkpt>
      <trkpt lat="47.81104" lon="-2.48546">
        <ele>88.8</ele>
        <time>2025-02-11T11:57:48Z</time>
      </trkpt>
      <trkpt lat="47.81104" lon="-2.48546">
        <ele>88.8</ele>
        <time>2025-02-11T11:57:49Z</time>
      </trkpt>
      <trkpt lat="47.81104" lon="-2.48546">
        <ele>88.8</ele>
        <time>2025-02-11T11:57:50Z</time>
      </trkpt>
      <trkpt lat="47.81104" lon="-2.48546">
        <ele>88.8</ele>
        <time>2025-02-11T11:57:51Z</time>
      </trkpt>
      <trkpt lat="47.81104" lon="-2.48546">
        <ele>88.8</ele>
        <time>2025-02-11T11:57:52Z</time>
      </trkpt>
      <trkpt lat="47.81104" lon="-2.48546">
        <ele>88.8</ele>
        <time>2025-02-11T11:57:53Z</time>
      </trkpt>
      <trkpt lat="47.81104" lon="-2.48546">
        <ele>88.8</ele>
        <time>2025-02-11T11:57:54Z</time>
      </trkpt>
      <trkpt lat="47.81104" lon="-2.48546">
        <ele>88.8</ele>
        <time>2025-02-11T11:57:55Z</time>
      </trkpt>
      <trkpt lat="47.81104" lon="-2.48546">
        <ele>88.8</ele>
        <time>2025-02-11T11:57:56Z</time>
      </trkpt>
      <trkpt lat="47.81104" lon="-2.48546">
        <ele>88.8</ele>
        <time>2025-02-11T11:57:57Z</time>
      </trkpt>
      <trkpt lat="47.81104" lon="-2.48546">
        <ele>88.8</ele>
        <time>2025-02-11T11:57:58Z</time>
      </trkpt>
      <trkpt lat="47.81104" lon="-2.48546">
        <ele>88.8</ele>
        <time>2025-02-11T11:57:59Z</time>
      </trkpt>
      <trkpt lat="47.81104" lon="-2.48546">
        <ele>88.8</ele>
        <time>2025-02-11T11:58:00Z</time>
      </trkpt>
      <trkpt lat="47.81104" lon="-2.48546">
        <ele>88.8</ele>
        <time>2025-02-11T11:58:01Z</time>
      </trkpt>
      <trkpt lat="47.81104" lon="-2.48546">
        <ele>88.8</ele>
        <time>2025-02-11T11:58:02Z</time>
      </trkpt>
      <trkpt lat="47.81104" lon="-2.48546">
        <ele>88.8</ele>
        <time>2025-02-11T11:58:03Z</time>
      </trkpt>
      <trkpt lat="47.81104" lon="-2.48546">
        <ele>88.8</ele>
        <time>2025-02-11T11:58:04Z</time>
      </trkpt>
      <trkpt lat="47.81104" lon="-2.48546">
        <ele>88.8</ele>
        <time>2025-02-11T11:58:05Z</time>
      </trkpt>
      <trkpt lat="47.81104" lon="-2.48546">
        <ele>88.8</ele>
        <time>2025-02-11T11:58:06Z</time>
      </trkpt>
      <trkpt lat="47.81104" lon="-2.48546">
        <ele>88.8</ele>
        <time>2025-02-11T11:58:07Z</time>
      </trkpt>
      <trkpt lat="47.81104" lon="-2.48546">
        <ele>88.8</ele>
        <time>2025-02-11T11:58:08Z</time>
      </trkpt>
      <trkpt lat="47.81104" lon="-2.48546">
        <ele>88.8</ele>
        <time>2025-02-11T11:58:09Z</time>
      </trkpt>
      <trkpt lat="47.81104" lon="-2.48546">
        <ele>88.8</ele>
        <time>2025-02-11T11:58:10Z</time>
      </trkpt>
      <trkpt lat="47.81104" lon="-2.48546">
        <ele>88.8</ele>
        <time>2025-02-11T11:58:11Z</time>
      </trkpt>
      <trkpt lat="47.81104" lon="-2.48546">
        <ele>88.8</ele>
        <time>2025-02-11T11:58:12Z</time>
      </trkpt>
      <trkpt lat="47.81104" lon="-2.48546">
        <ele>88.8</ele>
        <time>2025-02-11T11:58:13Z</time>
      </trkpt>
      <trkpt lat="47.81104" lon="-2.48546">
        <ele>88.8</ele>
        <time>2025-02-11T11:58:14Z</time>
      </trkpt>
      <trkpt lat="47.81104" lon="-2.48546">
        <ele>88.8</ele>
        <time>2025-02-11T11:58:15Z</time>
      </trkpt>
      <trkpt lat="47.81104" lon="-2.48546">
        <ele>88.8</ele>
        <time>2025-02-11T11:58:16Z</time>
      </trkpt>
      <trkpt lat="47.81104" lon="-2.48546">
        <ele>88.8</ele>
        <time>2025-02-11T11:58:17Z</time>
      </trkpt>
      <trkpt lat="47.81104" lon="-2.48546">
        <ele>88.8</ele>
        <time>2025-02-11T11:58:18Z</time>
      </trkpt>
      <trkpt lat="47.81104" lon="-2.48546">
        <ele>88.8</ele>
        <time>2025-02-11T11:58:19Z</time>
      </trkpt>
      <trkpt lat="47.81104" lon="-2.48546">
        <ele>88.8</ele>
        <time>2025-02-11T11:58:20Z</time>
      </trkpt>
      <trkpt lat="47.81104" lon="-2.48546">
        <ele>88.8</ele>
        <time>2025-02-11T11:58:21Z</time>
      </trkpt>
      <trkpt lat="47.81104" lon="-2.48546">
        <ele>88.8</ele>
        <time>2025-02-11T11:58:22Z</time>
      </trkpt>
      <trkpt lat="47.81104" lon="-2.48546">
        <ele>88.8</ele>
        <time>2025-02-11T11:58:23Z</time>
      </trkpt>
      <trkpt lat="47.81104" lon="-2.48546">
        <ele>88.8</ele>
        <time>2025-02-11T11:58:24Z</time>
      </trkpt>
      <trkpt lat="47.81104" lon="-2.48546">
        <ele>88.8</ele>
        <time>2025-02-11T11:58:25Z</time>
      </trkpt>
      <trkpt lat="47.81104" lon="-2.48546">
        <ele>88.8</ele>
        <time>2025-02-11T11:58:26Z</time>
      </trkpt>
      <trkpt lat="47.81104" lon="-2.48546">
        <ele>88.8</ele>
        <time>2025-02-11T11:58:27Z</time>
      </trkpt>
      <trkpt lat="47.81104" lon="-2.48546">
        <ele>88.8</ele>
        <time>2025-02-11T11:58:28Z</time>
      </trkpt>
      <trkpt lat="47.81104" lon="-2.48546">
        <ele>88.8</ele>
        <time>2025-02-11T11:58:29Z</time>
      </trkpt>
      <trkpt lat="47.81104" lon="-2.48546">
        <ele>88.7</ele>
        <time>2025-02-11T11:58:30Z</time>
      </trkpt>
      <trkpt lat="47.81104" lon="-2.48546">
        <ele>88.7</ele>
        <time>2025-02-11T11:58:31Z</time>
      </trkpt>
      <trkpt lat="47.81104" lon="-2.48546">
        <ele>88.7</ele>
        <time>2025-02-11T11:58:32Z</time>
      </trkpt>
      <trkpt lat="47.81104" lon="-2.48546">
        <ele>88.7</ele>
        <time>2025-02-11T11:58:33Z</time>
      </trkpt>
      <trkpt lat="47.81104" lon="-2.48546">
        <ele>88.7</ele>
        <time>2025-02-11T11:58:34Z</time>
      </trkpt>
      <trkpt lat="47.81104" lon="-2.48546">
        <ele>88.7</ele>
        <time>2025-02-11T11:58:35Z</time>
      </trkpt>
      <trkpt lat="47.81104" lon="-2.48546">
        <ele>88.7</ele>
        <time>2025-02-11T11:58:36Z</time>
      </trkpt>
      <trkpt lat="47.81104" lon="-2.48546">
        <ele>88.7</ele>
        <time>2025-02-11T11:58:37Z</time>
      </trkpt>
      <trkpt lat="47.81104" lon="-2.48546">
        <ele>88.7</ele>
        <time>2025-02-11T11:58:38Z</time>
      </trkpt>
      <trkpt lat="47.81104" lon="-2.48546">
        <ele>88.8</ele>
        <time>2025-02-11T11:58:39Z</time>
      </trkpt>
      <trkpt lat="47.81104" lon="-2.48546">
        <ele>88.8</ele>
        <time>2025-02-11T11:58:40Z</time>
      </trkpt>
      <trkpt lat="47.81104" lon="-2.48546">
        <ele>88.8</ele>
        <time>2025-02-11T11:58:41Z</time>
      </trkpt>
      <trkpt lat="47.81104" lon="-2.48546">
        <ele>88.8</ele>
        <time>2025-02-11T11:58:42Z</time>
      </trkpt>
      <trkpt lat="47.81104" lon="-2.48546">
        <ele>88.8</ele>
        <time>2025-02-11T11:58:43Z</time>
      </trkpt>
      <trkpt lat="47.81104" lon="-2.48546">
        <ele>88.8</ele>
        <time>2025-02-11T11:58:44Z</time>
      </trkpt>
      <trkpt lat="47.81104" lon="-2.48546">
        <ele>88.8</ele>
        <time>2025-02-11T11:58:45Z</time>
      </trkpt>
      <trkpt lat="47.81104" lon="-2.48546">
        <ele>88.8</ele>
        <time>2025-02-11T11:58:46Z</time>
      </trkpt>
      <trkpt lat="47.81104" lon="-2.48546">
        <ele>88.7</ele>
        <time>2025-02-11T11:58:47Z</time>
      </trkpt>
      <trkpt lat="47.81104" lon="-2.48546">
        <ele>88.7</ele>
        <time>2025-02-11T11:58:48Z</time>
      </trkpt>
      <trkpt lat="47.81104" lon="-2.48546">
        <ele>88.7</ele>
        <time>2025-02-11T11:58:49Z</time>
      </trkpt>
      <trkpt lat="47.81104" lon="-2.48546">
        <ele>88.7</ele>
        <time>2025-02-11T11:58:50Z</time>
      </trkpt>
      <trkpt lat="47.81104" lon="-2.48546">
        <ele>88.7</ele>
        <time>2025-02-11T11:58:51Z</time>
      </trkpt>
      <trkpt lat="47.81104" lon="-2.48546">
        <ele>88.7</ele>
        <time>2025-02-11T11:58:52Z</time>
      </trkpt>
      <trkpt lat="47.81104" lon="-2.48546">
        <ele>88.7</ele>
        <time>2025-02-11T11:58:53Z</time>
      </trkpt>
      <trkpt lat="47.81104" lon="-2.48546">
        <ele>88.7</ele>
        <time>2025-02-11T11:58:54Z</time>
      </trkpt>
      <trkpt lat="47.81104" lon="-2.48546">
        <ele>88.7</ele>
        <time>2025-02-11T11:58:55Z</time>
      </trkpt>
      <trkpt lat="47.81104" lon="-2.48546">
        <ele>88.7</ele>
        <time>2025-02-11T11:58:56Z</time>
      </trkpt>
      <trkpt lat="47.81104" lon="-2.48546">
        <ele>88.7</ele>
        <time>2025-02-11T11:58:57Z</time>
      </trkpt>
      <trkpt lat="47.81104" lon="-2.48546">
        <ele>88.7</ele>
        <time>2025-02-11T11:58:58Z</time>
      </trkpt>
      <trkpt lat="47.81104" lon="-2.48546">
        <ele>88.7</ele>
        <time>2025-02-11T11:58:59Z</time>
      </trkpt>
      <trkpt lat="47.81104" lon="-2.48546">
        <ele>88.7</ele>
        <time>2025-02-11T11:59:00Z</time>
      </trkpt>
      <trkpt lat="47.81104" lon="-2.48546">
        <ele>88.7</ele>
        <time>2025-02-11T11:59:01Z</time>
      </trkpt>
      <trkpt lat="47.81104" lon="-2.48546">
        <ele>88.7</ele>
        <time>2025-02-11T11:59:02Z</time>
      </trkpt>
      <trkpt lat="47.81104" lon="-2.48546">
        <ele>88.7</ele>
        <time>2025-02-11T11:59:03Z</time>
      </trkpt>
      <trkpt lat="47.81104" lon="-2.48546">
        <ele>88.8</ele>
        <time>2025-02-11T11:59:04Z</time>
      </trkpt>
      <trkpt lat="47.81104" lon="-2.48546">
        <ele>88.8</ele>
        <time>2025-02-11T11:59:05Z</time>
      </trkpt>
      <trkpt lat="47.81104" lon="-2.48546">
        <ele>88.8</ele>
        <time>2025-02-11T11:59:06Z</time>
      </trkpt>
      <trkpt lat="47.81104" lon="-2.48546">
        <ele>88.8</ele>
        <time>2025-02-11T11:59:07Z</time>
      </trkpt>
      <trkpt lat="47.81104" lon="-2.48546">
        <ele>88.8</ele>
        <time>2025-02-11T11:59:08Z</time>
      </trkpt>
      <trkpt lat="47.81104" lon="-2.48546">
        <ele>88.8</ele>
        <time>2025-02-11T11:59:09Z</time>
      </trkpt>
      <trkpt lat="47.81104" lon="-2.48546">
        <ele>88.8</ele>
        <time>2025-02-11T11:59:10Z</time>
      </trkpt>
      <trkpt lat="47.81104" lon="-2.48546">
        <ele>88.8</ele>
        <time>2025-02-11T11:59:11Z</time>
      </trkpt>
      <trkpt lat="47.81104" lon="-2.48546">
        <ele>88.8</ele>
        <time>2025-02-11T11:59:12Z</time>
      </trkpt>
      <trkpt lat="47.81104" lon="-2.48546">
        <ele>88.8</ele>
        <time>2025-02-11T11:59:13Z</time>
      </trkpt>
      <trkpt lat="47.81104" lon="-2.48546">
        <ele>88.8</ele>
        <time>2025-02-11T11:59:14Z</time>
      </trkpt>
      <trkpt lat="47.81104" lon="-2.48546">
        <ele>88.8</ele>
        <time>2025-02-11T11:59:15Z</time>
      </trkpt>
      <trkpt lat="47.81104" lon="-2.48546">
        <ele>88.8</ele>
        <time>2025-02-11T11:59:16Z</time>
      </trkpt>
      <trkpt lat="47.81104" lon="-2.48546">
        <ele>88.7</ele>
        <time>2025-02-11T11:59:17Z</time>
      </trkpt>
      <trkpt lat="47.81104" lon="-2.48546">
        <ele>88.7</ele>
        <time>2025-02-11T11:59:18Z</time>
      </trkpt>
      <trkpt lat="47.81104" lon="-2.48546">
        <ele>88.7</ele>
        <time>2025-02-11T11:59:19Z</time>
      </trkpt>
      <trkpt lat="47.81104" lon="-2.48546">
        <ele>88.7</ele>
        <time>2025-02-11T11:59:20Z</time>
      </trkpt>
      <trkpt lat="47.81104" lon="-2.48546">
        <ele>88.7</ele>
        <time>2025-02-11T11:59:21Z</time>
      </trkpt>
      <trkpt lat="47.81104" lon="-2.48546">
        <ele>88.7</ele>
        <time>2025-02-11T11:59:22Z</time>
      </trkpt>
      <trkpt lat="47.81104" lon="-2.48546">
        <ele>88.7</ele>
        <time>2025-02-11T11:59:23Z</time>
      </trkpt>
      <trkpt lat="47.81104" lon="-2.48546">
        <ele>88.7</ele>
        <time>2025-02-11T11:59:24Z</time>
      </trkpt>
      <trkpt lat="47.81104" lon="-2.48546">
        <ele>88.7</ele>
        <time>2025-02-11T11:59:25Z</time>
      </trkpt>
      <trkpt lat="47.81104" lon="-2.48546">
        <ele>88.7</ele>
        <time>2025-02-11T11:59:26Z</time>
      </trkpt>
      <trkpt lat="47.81104" lon="-2.48546">
        <ele>88.7</ele>
        <time>2025-02-11T11:59:27Z</time>
      </trkpt>
      <trkpt lat="47.81104" lon="-2.48546">
        <ele>88.7</ele>
        <time>2025-02-11T11:59:28Z</time>
      </trkpt>
      <trkpt lat="47.81104" lon="-2.48546">
        <ele>88.7</ele>
        <time>2025-02-11T11:59:29Z</time>
      </trkpt>
      <trkpt lat="47.81104" lon="-2.48546">
        <ele>88.7</ele>
        <time>2025-02-11T11:59:30Z</time>
      </trkpt>
      <trkpt lat="47.81104" lon="-2.48546">
        <ele>88.7</ele>
        <time>2025-02-11T11:59:31Z</time>
      </trkpt>
      <trkpt lat="47.81104" lon="-2.48546">
        <ele>88.7</ele>
        <time>2025-02-11T11:59:32Z</time>
      </trkpt>
      <trkpt lat="47.81104" lon="-2.48546">
        <ele>88.7</ele>
        <time>2025-02-11T11:59:33Z</time>
      </trkpt>
      <trkpt lat="47.81104" lon="-2.48546">
        <ele>88.7</ele>
        <time>2025-02-11T11:59:34Z</time>
      </trkpt>
      <trkpt lat="47.81104" lon="-2.48546">
        <ele>88.7</ele>
        <time>2025-02-11T11:59:35Z</time>
      </trkpt>
      <trkpt lat="47.81104" lon="-2.48546">
        <ele>88.7</ele>
        <time>2025-02-11T11:59:36Z</time>
      </trkpt>
      <trkpt lat="47.81104" lon="-2.48546">
        <ele>88.7</ele>
        <time>2025-02-11T11:59:37Z</time>
      </trkpt>
      <trkpt lat="47.81104" lon="-2.48546">
        <ele>88.7</ele>
        <time>2025-02-11T11:59:38Z</time>
      </trkpt>
      <trkpt lat="47.81104" lon="-2.48546">
        <ele>88.7</ele>
        <time>2025-02-11T11:59:39Z</time>
      </trkpt>
      <trkpt lat="47.81104" lon="-2.48546">
        <ele>88.8</ele>
        <time>2025-02-11T11:59:40Z</time>
      </trkpt>
      <trkpt lat="47.81104" lon="-2.48546">
        <ele>88.8</ele>
        <time>2025-02-11T11:59:41Z</time>
      </trkpt>
      <trkpt lat="47.81104" lon="-2.48546">
        <ele>88.8</ele>
        <time>2025-02-11T11:59:42Z</time>
      </trkpt>
      <trkpt lat="47.81104" lon="-2.48546">
        <ele>88.8</ele>
        <time>2025-02-11T11:59:43Z</time>
      </trkpt>
      <trkpt lat="47.81104" lon="-2.48546">
        <ele>88.8</ele>
        <time>2025-02-11T11:59:44Z</time>
      </trkpt>
      <trkpt lat="47.81104" lon="-2.48546">
        <ele>88.8</ele>
        <time>2025-02-11T11:59:45Z</time>
      </trkpt>
      <trkpt lat="47.81104" lon="-2.48546">
        <ele>88.8</ele>
        <time>2025-02-11T11:59:46Z</time>
      </trkpt>
      <trkpt lat="47.81104" lon="-2.48546">
        <ele>88.8</ele>
        <time>2025-02-11T11:59:47Z</time>
      </trkpt>
      <trkpt lat="47.81104" lon="-2.48546">
        <ele>88.8</ele>
        <time>2025-02-11T11:59:48Z</time>
      </trkpt>
      <trkpt lat="47.81104" lon="-2.48546">
        <ele>88.8</ele>
        <time>2025-02-11T11:59:49Z</time>
      </trkpt>
      <trkpt lat="47.81104" lon="-2.48546">
        <ele>88.8</ele>
        <time>2025-02-11T11:59:50Z</time>
      </trkpt>
      <trkpt lat="47.81104" lon="-2.48546">
        <ele>88.8</ele>
        <time>2025-02-11T11:59:51Z</time>
      </trkpt>
      <trkpt lat="47.81104" lon="-2.48546">
        <ele>88.8</ele>
        <time>2025-02-11T11:59:52Z</time>
      </trkpt>
      <trkpt lat="47.81104" lon="-2.48546">
        <ele>88.8</ele>
        <time>2025-02-11T11:59:53Z</time>
      </trkpt>
      <trkpt lat="47.81104" lon="-2.48546">
        <ele>88.8</ele>
        <time>2025-02-11T11:59:54Z</time>
      </trkpt>
      <trkpt lat="47.81104" lon="-2.48546">
        <ele>88.8</ele>
        <time>2025-02-11T11:59:55Z</time>
      </trkpt>
      <trkpt lat="47.81104" lon="-2.48546">
        <ele>88.8</ele>
        <time>2025-02-11T11:59:56Z</time>
      </trkpt>
      <trkpt lat="47.81104" lon="-2.48546">
        <ele>88.8</ele>
        <time>2025-02-11T11:59:57Z</time>
      </trkpt>
      <trkpt lat="47.81104" lon="-2.48546">
        <ele>88.8</ele>
        <time>2025-02-11T11:59:58Z</time>
      </trkpt>
      <trkpt lat="47.81104" lon="-2.48546">
        <ele>88.8</ele>
        <time>2025-02-11T11:59:59Z</time>
      </trkpt>
      <trkpt lat="47.81104" lon="-2.48546">
        <ele>88.8</ele>
        <time>2025-02-11T12:00:00Z</time>
      </trkpt>
      <trkpt lat="47.81104" lon="-2.48546">
        <ele>88.8</ele>
        <time>2025-02-11T12:00:01Z</time>
      </trkpt>
      <trkpt lat="47.81104" lon="-2.48546">
        <ele>88.8</ele>
        <time>2025-02-11T12:00:02Z</time>
      </trkpt>
      <trkpt lat="47.81104" lon="-2.48546">
        <ele>88.8</ele>
        <time>2025-02-11T12:00:03Z</time>
      </trkpt>
      <trkpt lat="47.81104" lon="-2.48546">
        <ele>88.8</ele>
        <time>2025-02-11T12:00:04Z</time>
      </trkpt>
      <trkpt lat="47.81104" lon="-2.48546">
        <ele>88.8</ele>
        <time>2025-02-11T12:00:05Z</time>
      </trkpt>
      <trkpt lat="47.81104" lon="-2.48546">
        <ele>88.8</ele>
        <time>2025-02-11T12:00:06Z</time>
      </trkpt>
      <trkpt lat="47.81104" lon="-2.48546">
        <ele>88.8</ele>
        <time>2025-02-11T12:00:07Z</time>
      </trkpt>
      <trkpt lat="47.81104" lon="-2.48547">
        <ele>88.7</ele>
        <time>2025-02-11T12:00:08Z</time>
      </trkpt>
      <trkpt lat="47.81104" lon="-2.48547">
        <ele>88.7</ele>
        <time>2025-02-11T12:00:09Z</time>
      </trkpt>
      <trkpt lat="47.81104" lon="-2.48547">
        <ele>88.7</ele>
        <time>2025-02-11T12:00:10Z</time>
      </trkpt>
      <trkpt lat="47.81104" lon="-2.48547">
        <ele>88.7</ele>
        <time>2025-02-11T12:00:11Z</time>
      </trkpt>
      <trkpt lat="47.81104" lon="-2.48547">
        <ele>88.7</ele>
        <time>2025-02-11T12:00:12Z</time>
      </trkpt>
      <trkpt lat="47.81104" lon="-2.48547">
        <ele>88.7</ele>
        <time>2025-02-11T12:00:13Z</time>
      </trkpt>
      <trkpt lat="47.81104" lon="-2.48547">
        <ele>88.7</ele>
        <time>2025-02-11T12:00:14Z</time>
      </trkpt>
      <trkpt lat="47.81104" lon="-2.48547">
        <ele>88.7</ele>
        <time>2025-02-11T12:00:15Z</time>
      </trkpt>
      <trkpt lat="47.81104" lon="-2.48547">
        <ele>88.7</ele>
        <time>2025-02-11T12:00:16Z</time>
      </trkpt>
      <trkpt lat="47.81104" lon="-2.48547">
        <ele>88.7</ele>
        <time>2025-02-11T12:00:17Z</time>
      </trkpt>
      <trkpt lat="47.81104" lon="-2.48547">
        <ele>88.7</ele>
        <time>2025-02-11T12:00:18Z</time>
      </trkpt>
      <trkpt lat="47.81104" lon="-2.48547">
        <ele>88.7</ele>
        <time>2025-02-11T12:00:19Z</time>
      </trkpt>
      <trkpt lat="47.81104" lon="-2.48547">
        <ele>88.7</ele>
        <time>2025-02-11T12:00:20Z</time>
      </trkpt>
      <trkpt lat="47.81104" lon="-2.48547">
        <ele>88.7</ele>
        <time>2025-02-11T12:00:21Z</time>
      </trkpt>
      <trkpt lat="47.81104" lon="-2.48547">
        <ele>88.7</ele>
        <time>2025-02-11T12:00:22Z</time>
      </trkpt>
      <trkpt lat="47.81104" lon="-2.48547">
        <ele>88.7</ele>
        <time>2025-02-11T12:00:23Z</time>
      </trkpt>
      <trkpt lat="47.81104" lon="-2.48547">
        <ele>88.7</ele>
        <time>2025-02-11T12:00:24Z</time>
      </trkpt>
      <trkpt lat="47.81104" lon="-2.48547">
        <ele>88.7</ele>
        <time>2025-02-11T12:00:25Z</time>
      </trkpt>
      <trkpt lat="47.81104" lon="-2.48547">
        <ele>88.7</ele>
        <time>2025-02-11T12:00:26Z</time>
      </trkpt>
      <trkpt lat="47.81104" lon="-2.48547">
        <ele>88.7</ele>
        <time>2025-02-11T12:00:27Z</time>
      </trkpt>
      <trkpt lat="47.81104" lon="-2.48547">
        <ele>88.7</ele>
        <time>2025-02-11T12:00:28Z</time>
      </trkpt>
      <trkpt lat="47.81104" lon="-2.48547">
        <ele>88.7</ele>
        <time>2025-02-11T12:00:29Z</time>
      </trkpt>
      <trkpt lat="47.81105" lon="-2.48547">
        <ele>88.8</ele>
        <time>2025-02-11T12:00:30Z</time>
      </trkpt>
      <trkpt lat="47.81105" lon="-2.48547">
        <ele>88.8</ele>
        <time>2025-02-11T12:00:31Z</time>
      </trkpt>
      <trkpt lat="47.81105" lon="-2.48547">
        <ele>88.8</ele>
        <time>2025-02-11T12:00:32Z</time>
      </trkpt>
      <trkpt lat="47.81105" lon="-2.48547">
        <ele>88.8</ele>
        <time>2025-02-11T12:00:33Z</time>
      </trkpt>
      <trkpt lat="47.81105" lon="-2.48547">
        <ele>88.8</ele>
        <time>2025-02-11T12:00:34Z</time>
      </trkpt>
      <trkpt lat="47.81105" lon="-2.48547">
        <ele>88.8</ele>
        <time>2025-02-11T12:00:35Z</time>
      </trkpt>
      <trkpt lat="47.81105" lon="-2.48547">
        <ele>88.9</ele>
        <time>2025-02-11T12:00:36Z</time>
      </trkpt>
      <trkpt lat="47.81105" lon="-2.48547">
        <ele>88.9</ele>
        <time>2025-02-11T12:00:37Z</time>
      </trkpt>
      <trkpt lat="47.81105" lon="-2.48547">
        <ele>88.9</ele>
        <time>2025-02-11T12:00:38Z</time>
      </trkpt>
      <trkpt lat="47.81105" lon="-2.48547">
        <ele>88.9</ele>
        <time>2025-02-11T12:00:39Z</time>
      </trkpt>
      <trkpt lat="47.81105" lon="-2.48547">
        <ele>88.9</ele>
        <time>2025-02-11T12:00:40Z</time>
      </trkpt>
      <trkpt lat="47.81105" lon="-2.48547">
        <ele>88.9</ele>
        <time>2025-02-11T12:00:41Z</time>
      </trkpt>
      <trkpt lat="47.81105" lon="-2.48547">
        <ele>88.9</ele>
        <time>2025-02-11T12:00:42Z</time>
      </trkpt>
      <trkpt lat="47.81105" lon="-2.48547">
        <ele>88.9</ele>
        <time>2025-02-11T12:00:43Z</time>
      </trkpt>
      <trkpt lat="47.81105" lon="-2.48547">
        <ele>88.9</ele>
        <time>2025-02-11T12:00:44Z</time>
      </trkpt>
      <trkpt lat="47.81105" lon="-2.48547">
        <ele>88.9</ele>
        <time>2025-02-11T12:00:45Z</time>
      </trkpt>
      <trkpt lat="47.81105" lon="-2.48547">
        <ele>88.9</ele>
        <time>2025-02-11T12:00:46Z</time>
      </trkpt>
      <trkpt lat="47.81105" lon="-2.48547">
        <ele>89</ele>
        <time>2025-02-11T12:00:47Z</time>
      </trkpt>
      <trkpt lat="47.81105" lon="-2.48547">
        <ele>89</ele>
        <time>2025-02-11T12:00:48Z</time>
      </trkpt>
      <trkpt lat="47.81105" lon="-2.48547">
        <ele>89</ele>
        <time>2025-02-11T12:00:49Z</time>
      </trkpt>
      <trkpt lat="47.81105" lon="-2.48547">
        <ele>89</ele>
        <time>2025-02-11T12:00:50Z</time>
      </trkpt>
      <trkpt lat="47.81105" lon="-2.48547">
        <ele>89</ele>
        <time>2025-02-11T12:00:51Z</time>
      </trkpt>
      <trkpt lat="47.81105" lon="-2.48547">
        <ele>88.9</ele>
        <time>2025-02-11T12:00:52Z</time>
      </trkpt>
      <trkpt lat="47.81105" lon="-2.48547">
        <ele>88.9</ele>
        <time>2025-02-11T12:00:53Z</time>
      </trkpt>
      <trkpt lat="47.81105" lon="-2.48547">
        <ele>88.9</ele>
        <time>2025-02-11T12:00:54Z</time>
      </trkpt>
      <trkpt lat="47.81105" lon="-2.48546">
        <ele>89</ele>
        <time>2025-02-11T12:00:55Z</time>
      </trkpt>
      <trkpt lat="47.81105" lon="-2.48546">
        <ele>89</ele>
        <time>2025-02-11T12:00:56Z</time>
      </trkpt>
      <trkpt lat="47.81105" lon="-2.48546">
        <ele>89</ele>
        <time>2025-02-11T12:00:57Z</time>
      </trkpt>
      <trkpt lat="47.81105" lon="-2.48546">
        <ele>89</ele>
        <time>2025-02-11T12:00:58Z</time>
      </trkpt>
      <trkpt lat="47.81105" lon="-2.48546">
        <ele>89</ele>
        <time>2025-02-11T12:00:59Z</time>
      </trkpt>
      <trkpt lat="47.81105" lon="-2.48546">
        <ele>89</ele>
        <time>2025-02-11T12:01:00Z</time>
      </trkpt>
      <trkpt lat="47.81105" lon="-2.48546">
        <ele>89</ele>
        <time>2025-02-11T12:01:01Z</time>
      </trkpt>
      <trkpt lat="47.81105" lon="-2.48546">
        <ele>89</ele>
        <time>2025-02-11T12:01:02Z</time>
      </trkpt>
      <trkpt lat="47.81105" lon="-2.48546">
        <ele>89</ele>
        <time>2025-02-11T12:01:03Z</time>
      </trkpt>
      <trkpt lat="47.81105" lon="-2.48546">
        <ele>89</ele>
        <time>2025-02-11T12:01:04Z</time>
      </trkpt>
      <trkpt lat="47.81105" lon="-2.48546">
        <ele>89</ele>
        <time>2025-02-11T12:01:05Z</time>
      </trkpt>
      <trkpt lat="47.81105" lon="-2.48546">
        <ele>89</ele>
        <time>2025-02-11T12:01:06Z</time>
      </trkpt>
      <trkpt lat="47.81105" lon="-2.48546">
        <ele>89</ele>
        <time>2025-02-11T12:01:07Z</time>
      </trkpt>
      <trkpt lat="47.81105" lon="-2.48546">
        <ele>89</ele>
        <time>2025-02-11T12:01:08Z</time>
      </trkpt>
      <trkpt lat="47.81105" lon="-2.48546">
        <ele>89</ele>
        <time>2025-02-11T12:01:09Z</time>
      </trkpt>
      <trkpt lat="47.81105" lon="-2.48546">
        <ele>89</ele>
        <time>2025-02-11T12:01:10Z</time>
      </trkpt>
      <trkpt lat="47.81105" lon="-2.48546">
        <ele>89</ele>
        <time>2025-02-11T12:01:11Z</time>
      </trkpt>
      <trkpt lat="47.81105" lon="-2.48546">
        <ele>89</ele>
        <time>2025-02-11T12:01:12Z</time>
      </trkpt>
      <trkpt lat="47.81106" lon="-2.48547">
        <ele>89</ele>
        <time>2025-02-11T12:01:13Z</time>
      </trkpt>
      <trkpt lat="47.81106" lon="-2.48548">
        <ele>89</ele>
        <time>2025-02-11T12:01:14Z</time>
      </trkpt>
      <trkpt lat="47.81106" lon="-2.48549">
        <ele>89</ele>
        <time>2025-02-11T12:01:15Z</time>
      </trkpt>
      <trkpt lat="47.81105" lon="-2.48549">
        <ele>88.9</ele>
        <time>2025-02-11T12:01:16Z</time>
      </trkpt>
      <trkpt lat="47.81105" lon="-2.48549">
        <ele>88.9</ele>
        <time>2025-02-11T12:01:17Z</time>
      </trkpt>
      <trkpt lat="47.81105" lon="-2.4855">
        <ele>88.9</ele>
        <time>2025-02-11T12:01:18Z</time>
      </trkpt>
      <trkpt lat="47.81105" lon="-2.4855">
        <ele>88.8</ele>
        <time>2025-02-11T12:01:19Z</time>
      </trkpt>
      <trkpt lat="47.81105" lon="-2.4855">
        <ele>88.8</ele>
        <time>2025-02-11T12:01:20Z</time>
      </trkpt>
      <trkpt lat="47.81105" lon="-2.4855">
        <ele>88.8</ele>
        <time>2025-02-11T12:01:21Z</time>
      </trkpt>
      <trkpt lat="47.81105" lon="-2.48551">
        <ele>88.8</ele>
        <time>2025-02-11T12:01:22Z</time>
      </trkpt>
      <trkpt lat="47.81105" lon="-2.48551">
        <ele>88.8</ele>
        <time>2025-02-11T12:01:23Z</time>
      </trkpt>
      <trkpt lat="47.81105" lon="-2.48551">
        <ele>88.8</ele>
        <time>2025-02-11T12:01:24Z</time>
      </trkpt>
      <trkpt lat="47.81105" lon="-2.48551">
        <ele>88.8</ele>
        <time>2025-02-11T12:01:25Z</time>
      </trkpt>
      <trkpt lat="47.81105" lon="-2.48551">
        <ele>88.8</ele>
        <time>2025-02-11T12:01:26Z</time>
      </trkpt>
      <trkpt lat="47.81105" lon="-2.48551">
        <ele>88.8</ele>
        <time>2025-02-11T12:01:27Z</time>
      </trkpt>
      <trkpt lat="47.81105" lon="-2.48551">
        <ele>88.8</ele>
        <time>2025-02-11T12:01:28Z</time>
      </trkpt>
      <trkpt lat="47.81105" lon="-2.48551">
        <ele>88.8</ele>
        <time>2025-02-11T12:01:29Z</time>
      </trkpt>
      <trkpt lat="47.81105" lon="-2.48551">
        <ele>88.8</ele>
        <time>2025-02-11T12:01:30Z</time>
      </trkpt>
      <trkpt lat="47.81105" lon="-2.48551">
        <ele>88.8</ele>
        <time>2025-02-11T12:01:31Z</time>
      </trkpt>
      <trkpt lat="47.81105" lon="-2.48551">
        <ele>88.8</ele>
        <time>2025-02-11T12:01:32Z</time>
      </trkpt>
      <trkpt lat="47.81105" lon="-2.48551">
        <ele>88.8</ele>
        <time>2025-02-11T12:01:33Z</time>
      </trkpt>
      <trkpt lat="47.81105" lon="-2.48551">
        <ele>88.8</ele>
        <time>2025-02-11T12:01:34Z</time>
      </trkpt>
      <trkpt lat="47.81105" lon="-2.48551">
        <ele>88.8</ele>
        <time>2025-02-11T12:01:35Z</time>
      </trkpt>
      <trkpt lat="47.81105" lon="-2.48551">
        <ele>88.8</ele>
        <time>2025-02-11T12:01:36Z</time>
      </trkpt>
      <trkpt lat="47.81105" lon="-2.48551">
        <ele>88.8</ele>
        <time>2025-02-11T12:01:37Z</time>
      </trkpt>
      <trkpt lat="47.81105" lon="-2.48551">
        <ele>88.8</ele>
        <time>2025-02-11T12:01:38Z</time>
      </trkpt>
      <trkpt lat="47.81105" lon="-2.48551">
        <ele>88.8</ele>
        <time>2025-02-11T12:01:39Z</time>
      </trkpt>
      <trkpt lat="47.81105" lon="-2.4855">
        <ele>88.7</ele>
        <time>2025-02-11T12:01:40Z</time>
      </trkpt>
      <trkpt lat="47.81104" lon="-2.4855">
        <ele>88.7</ele>
        <time>2025-02-11T12:01:41Z</time>
      </trkpt>
      <trkpt lat="47.81104" lon="-2.4855">
        <ele>88.7</ele>
        <time>2025-02-11T12:01:42Z</time>
      </trkpt>
      <trkpt lat="47.81104" lon="-2.4855">
        <ele>88.7</ele>
        <time>2025-02-11T12:01:43Z</time>
      </trkpt>
      <trkpt lat="47.81104" lon="-2.4855">
        <ele>88.7</ele>
        <time>2025-02-11T12:01:44Z</time>
      </trkpt>
      <trkpt lat="47.81104" lon="-2.4855">
        <ele>88.7</ele>
        <time>2025-02-11T12:01:45Z</time>
      </trkpt>
      <trkpt lat="47.81104" lon="-2.4855">
        <ele>88.7</ele>
        <time>2025-02-11T12:01:46Z</time>
      </trkpt>
      <trkpt lat="47.81104" lon="-2.4855">
        <ele>88.6</ele>
        <time>2025-02-11T12:01:47Z</time>
      </trkpt>
      <trkpt lat="47.81104" lon="-2.4855">
        <ele>88.6</ele>
        <time>2025-02-11T12:01:48Z</time>
      </trkpt>
      <trkpt lat="47.81104" lon="-2.4855">
        <ele>88.6</ele>
        <time>2025-02-11T12:01:49Z</time>
      </trkpt>
      <trkpt lat="47.81104" lon="-2.4855">
        <ele>88.6</ele>
        <time>2025-02-11T12:01:50Z</time>
      </trkpt>
      <trkpt lat="47.81104" lon="-2.4855">
        <ele>88.6</ele>
        <time>2025-02-11T12:01:51Z</time>
      </trkpt>
      <trkpt lat="47.81104" lon="-2.4855">
        <ele>88.6</ele>
        <time>2025-02-11T12:01:52Z</time>
      </trkpt>
      <trkpt lat="47.81104" lon="-2.4855">
        <ele>88.6</ele>
        <time>2025-02-11T12:01:53Z</time>
      </trkpt>
      <trkpt lat="47.81104" lon="-2.4855">
        <ele>88.6</ele>
        <time>2025-02-11T12:01:54Z</time>
      </trkpt>
      <trkpt lat="47.81104" lon="-2.4855">
        <ele>88.6</ele>
        <time>2025-02-11T12:01:55Z</time>
      </trkpt>
      <trkpt lat="47.81104" lon="-2.4855">
        <ele>88.6</ele>
        <time>2025-02-11T12:01:56Z</time>
      </trkpt>
      <trkpt lat="47.81104" lon="-2.4855">
        <ele>88.6</ele>
        <time>2025-02-11T12:01:57Z</time>
      </trkpt>
      <trkpt lat="47.81104" lon="-2.4855">
        <ele>88.6</ele>
        <time>2025-02-11T12:01:58Z</time>
      </trkpt>
      <trkpt lat="47.81104" lon="-2.4855">
        <ele>88.6</ele>
        <time>2025-02-11T12:01:59Z</time>
      </trkpt>
      <trkpt lat="47.81104" lon="-2.4855">
        <ele>88.6</ele>
        <time>2025-02-11T12:02:00Z</time>
      </trkpt>
      <trkpt lat="47.81104" lon="-2.4855">
        <ele>88.6</ele>
        <time>2025-02-11T12:02:01Z</time>
      </trkpt>
      <trkpt lat="47.81104" lon="-2.48549">
        <ele>88.6</ele>
        <time>2025-02-11T12:02:02Z</time>
      </trkpt>
      <trkpt lat="47.81104" lon="-2.48549">
        <ele>88.6</ele>
        <time>2025-02-11T12:02:03Z</time>
      </trkpt>
      <trkpt lat="47.81104" lon="-2.48549">
        <ele>88.6</ele>
        <time>2025-02-11T12:02:04Z</time>
      </trkpt>
      <trkpt lat="47.81104" lon="-2.48549">
        <ele>88.6</ele>
        <time>2025-02-11T12:02:05Z</time>
      </trkpt>
      <trkpt lat="47.81104" lon="-2.48549">
        <ele>88.6</ele>
        <time>2025-02-11T12:02:06Z</time>
      </trkpt>
      <trkpt lat="47.81104" lon="-2.48549">
        <ele>88.6</ele>
        <time>2025-02-11T12:02:07Z</time>
      </trkpt>
      <trkpt lat="47.81104" lon="-2.48549">
        <ele>88.6</ele>
        <time>2025-02-11T12:02:08Z</time>
      </trkpt>
      <trkpt lat="47.81104" lon="-2.48549">
        <ele>88.6</ele>
        <time>2025-02-11T12:02:09Z</time>
      </trkpt>
      <trkpt lat="47.81104" lon="-2.48549">
        <ele>88.6</ele>
        <time>2025-02-11T12:02:10Z</time>
      </trkpt>
      <trkpt lat="47.81104" lon="-2.48549">
        <ele>88.5</ele>
        <time>2025-02-11T12:02:11Z</time>
      </trkpt>
      <trkpt lat="47.81104" lon="-2.48549">
        <ele>88.5</ele>
        <time>2025-02-11T12:02:12Z</time>
      </trkpt>
      <trkpt lat="47.81104" lon="-2.48549">
        <ele>88.5</ele>
        <time>2025-02-11T12:02:13Z</time>
      </trkpt>
      <trkpt lat="47.81104" lon="-2.48549">
        <ele>88.5</ele>
        <time>2025-02-11T12:02:14Z</time>
      </trkpt>
      <trkpt lat="47.81104" lon="-2.48549">
        <ele>88.5</ele>
        <time>2025-02-11T12:02:15Z</time>
      </trkpt>
      <trkpt lat="47.81104" lon="-2.48549">
        <ele>88.5</ele>
        <time>2025-02-11T12:02:16Z</time>
      </trkpt>
      <trkpt lat="47.81104" lon="-2.48549">
        <ele>88.5</ele>
        <time>2025-02-11T12:02:17Z</time>
      </trkpt>
      <trkpt lat="47.81104" lon="-2.48549">
        <ele>88.5</ele>
        <time>2025-02-11T12:02:18Z</time>
      </trkpt>
      <trkpt lat="47.81104" lon="-2.48549">
        <ele>88.5</ele>
        <time>2025-02-11T12:02:19Z</time>
      </trkpt>
      <trkpt lat="47.81104" lon="-2.48549">
        <ele>88.5</ele>
        <time>2025-02-11T12:02:20Z</time>
      </trkpt>
      <trkpt lat="47.81104" lon="-2.48549">
        <ele>88.5</ele>
        <time>2025-02-11T12:02:21Z</time>
      </trkpt>
      <trkpt lat="47.81104" lon="-2.48549">
        <ele>88.5</ele>
        <time>2025-02-11T12:02:22Z</time>
      </trkpt>
      <trkpt lat="47.81104" lon="-2.48549">
        <ele>88.5</ele>
        <time>2025-02-11T12:02:23Z</time>
      </trkpt>
      <trkpt lat="47.81104" lon="-2.48549">
        <ele>88.5</ele>
        <time>2025-02-11T12:02:24Z</time>
      </trkpt>
      <trkpt lat="47.81104" lon="-2.48549">
        <ele>88.5</ele>
        <time>2025-02-11T12:02:25Z</time>
      </trkpt>
      <trkpt lat="47.81104" lon="-2.48549">
        <ele>88.5</ele>
        <time>2025-02-11T12:02:26Z</time>
      </trkpt>
      <trkpt lat="47.81104" lon="-2.48549">
        <ele>88.5</ele>
        <time>2025-02-11T12:02:27Z</time>
      </trkpt>
      <trkpt lat="47.81104" lon="-2.48549">
        <ele>88.5</ele>
        <time>2025-02-11T12:02:28Z</time>
      </trkpt>
      <trkpt lat="47.81104" lon="-2.48549">
        <ele>88.5</ele>
        <time>2025-02-11T12:02:29Z</time>
      </trkpt>
      <trkpt lat="47.81104" lon="-2.48549">
        <ele>88.5</ele>
        <time>2025-02-11T12:02:30Z</time>
      </trkpt>
      <trkpt lat="47.81104" lon="-2.48549">
        <ele>88.5</ele>
        <time>2025-02-11T12:02:31Z</time>
      </trkpt>
      <trkpt lat="47.81104" lon="-2.48549">
        <ele>88.5</ele>
        <time>2025-02-11T12:02:32Z</time>
      </trkpt>
      <trkpt lat="47.81104" lon="-2.48549">
        <ele>88.5</ele>
        <time>2025-02-11T12:02:33Z</time>
      </trkpt>
      <trkpt lat="47.81104" lon="-2.48549">
        <ele>88.5</ele>
        <time>2025-02-11T12:02:34Z</time>
      </trkpt>
      <trkpt lat="47.81104" lon="-2.48549">
        <ele>88.5</ele>
        <time>2025-02-11T12:02:35Z</time>
      </trkpt>
      <trkpt lat="47.81104" lon="-2.48549">
        <ele>88.5</ele>
        <time>2025-02-11T12:02:36Z</time>
      </trkpt>
      <trkpt lat="47.81104" lon="-2.48549">
        <ele>88.5</ele>
        <time>2025-02-11T12:02:37Z</time>
      </trkpt>
      <trkpt lat="47.81104" lon="-2.48549">
        <ele>88.5</ele>
        <time>2025-02-11T12:02:38Z</time>
      </trkpt>
      <trkpt lat="47.81104" lon="-2.48549">
        <ele>88.5</ele>
        <time>2025-02-11T12:02:39Z</time>
      </trkpt>
      <trkpt lat="47.81104" lon="-2.48549">
        <ele>88.5</ele>
        <time>2025-02-11T12:02:40Z</time>
      </trkpt>
      <trkpt lat="47.81104" lon="-2.48549">
        <ele>88.5</ele>
        <time>2025-02-11T12:02:41Z</time>
      </trkpt>
      <trkpt lat="47.81104" lon="-2.48549">
        <ele>88.5</ele>
        <time>2025-02-11T12:02:42Z</time>
      </trkpt>
      <trkpt lat="47.81104" lon="-2.48549">
        <ele>88.5</ele>
        <time>2025-02-11T12:02:43Z</time>
      </trkpt>
      <trkpt lat="47.81104" lon="-2.48549">
        <ele>88.5</ele>
        <time>2025-02-11T12:02:44Z</time>
      </trkpt>
      <trkpt lat="47.81104" lon="-2.48549">
        <ele>88.5</ele>
        <time>2025-02-11T12:02:45Z</time>
      </trkpt>
      <trkpt lat="47.81104" lon="-2.48549">
        <ele>88.5</ele>
        <time>2025-02-11T12:02:46Z</time>
      </trkpt>
      <trkpt lat="47.81104" lon="-2.48549">
        <ele>88.5</ele>
        <time>2025-02-11T12:02:47Z</time>
      </trkpt>
      <trkpt lat="47.81104" lon="-2.48549">
        <ele>88.5</ele>
        <time>2025-02-11T12:02:48Z</time>
      </trkpt>
      <trkpt lat="47.81104" lon="-2.48549">
        <ele>88.5</ele>
        <time>2025-02-11T12:02:49Z</time>
      </trkpt>
      <trkpt lat="47.81104" lon="-2.48549">
        <ele>88.5</ele>
        <time>2025-02-11T12:02:50Z</time>
      </trkpt>
      <trkpt lat="47.81104" lon="-2.48549">
        <ele>88.5</ele>
        <time>2025-02-11T12:02:51Z</time>
      </trkpt>
      <trkpt lat="47.81104" lon="-2.48549">
        <ele>88.5</ele>
        <time>2025-02-11T12:02:52Z</time>
      </trkpt>
      <trkpt lat="47.81104" lon="-2.48549">
        <ele>88.5</ele>
        <time>2025-02-11T12:02:53Z</time>
      </trkpt>
      <trkpt lat="47.81104" lon="-2.48549">
        <ele>88.5</ele>
        <time>2025-02-11T12:02:54Z</time>
      </trkpt>
      <trkpt lat="47.81104" lon="-2.48549">
        <ele>88.5</ele>
        <time>2025-02-11T12:02:55Z</time>
      </trkpt>
      <trkpt lat="47.81104" lon="-2.48549">
        <ele>88.5</ele>
        <time>2025-02-11T12:02:56Z</time>
      </trkpt>
      <trkpt lat="47.81104" lon="-2.48549">
        <ele>88.5</ele>
        <time>2025-02-11T12:02:57Z</time>
      </trkpt>
      <trkpt lat="47.81104" lon="-2.48549">
        <ele>88.5</ele>
        <time>2025-02-11T12:02:58Z</time>
      </trkpt>
      <trkpt lat="47.81104" lon="-2.48549">
        <ele>88.5</ele>
        <time>2025-02-11T12:02:59Z</time>
      </trkpt>
      <trkpt lat="47.81104" lon="-2.48549">
        <ele>88.5</ele>
        <time>2025-02-11T12:03:00Z</time>
      </trkpt>
      <trkpt lat="47.81104" lon="-2.48549">
        <ele>88.5</ele>
        <time>2025-02-11T12:03:01Z</time>
      </trkpt>
      <trkpt lat="47.81104" lon="-2.48549">
        <ele>88.5</ele>
        <time>2025-02-11T12:03:02Z</time>
      </trkpt>
      <trkpt lat="47.81104" lon="-2.48549">
        <ele>88.5</ele>
        <time>2025-02-11T12:03:03Z</time>
      </trkpt>
      <trkpt lat="47.81104" lon="-2.48549">
        <ele>88.5</ele>
        <time>2025-02-11T12:03:04Z</time>
      </trkpt>
      <trkpt lat="47.81104" lon="-2.48549">
        <ele>88.5</ele>
        <time>2025-02-11T12:03:05Z</time>
      </trkpt>
      <trkpt lat="47.81104" lon="-2.48549">
        <ele>88.5</ele>
        <time>2025-02-11T12:03:06Z</time>
      </trkpt>
      <trkpt lat="47.81104" lon="-2.48549">
        <ele>88.5</ele>
        <time>2025-02-11T12:03:07Z</time>
      </trkpt>
      <trkpt lat="47.81104" lon="-2.48549">
        <ele>88.5</ele>
        <time>2025-02-11T12:03:08Z</time>
      </trkpt>
      <trkpt lat="47.81104" lon="-2.48549">
        <ele>88.5</ele>
        <time>2025-02-11T12:03:09Z</time>
      </trkpt>
      <trkpt lat="47.81104" lon="-2.48549">
        <ele>88.5</ele>
        <time>2025-02-11T12:03:10Z</time>
      </trkpt>
      <trkpt lat="47.81104" lon="-2.48549">
        <ele>88.5</ele>
        <time>2025-02-11T12:03:11Z</time>
      </trkpt>
      <trkpt lat="47.81104" lon="-2.48549">
        <ele>88.5</ele>
        <time>2025-02-11T12:03:12Z</time>
      </trkpt>
      <trkpt lat="47.81104" lon="-2.48549">
        <ele>88.5</ele>
        <time>2025-02-11T12:03:13Z</time>
      </trkpt>
      <trkpt lat="47.81104" lon="-2.48549">
        <ele>88.5</ele>
        <time>2025-02-11T12:03:14Z</time>
      </trkpt>
      <trkpt lat="47.81104" lon="-2.48549">
        <ele>88.5</ele>
        <time>2025-02-11T12:03:15Z</time>
      </trkpt>
      <trkpt lat="47.81104" lon="-2.48549">
        <ele>88.5</ele>
        <time>2025-02-11T12:03:16Z</time>
      </trkpt>
      <trkpt lat="47.81104" lon="-2.48549">
        <ele>88.5</ele>
        <time>2025-02-11T12:03:17Z</time>
      </trkpt>
      <trkpt lat="47.81104" lon="-2.48549">
        <ele>88.5</ele>
        <time>2025-02-11T12:03:18Z</time>
      </trkpt>
      <trkpt lat="47.81104" lon="-2.48549">
        <ele>88.5</ele>
        <time>2025-02-11T12:03:19Z</time>
      </trkpt>
      <trkpt lat="47.81104" lon="-2.48549">
        <ele>88.5</ele>
        <time>2025-02-11T12:03:20Z</time>
      </trkpt>
      <trkpt lat="47.81104" lon="-2.48549">
        <ele>88.5</ele>
        <time>2025-02-11T12:03:21Z</time>
      </trkpt>
      <trkpt lat="47.81104" lon="-2.48549">
        <ele>88.5</ele>
        <time>2025-02-11T12:03:22Z</time>
      </trkpt>
      <trkpt lat="47.81104" lon="-2.48549">
        <ele>88.5</ele>
        <time>2025-02-11T12:03:23Z</time>
      </trkpt>
      <trkpt lat="47.81103" lon="-2.48549">
        <ele>88.5</ele>
        <time>2025-02-11T12:03:24Z</time>
      </trkpt>
      <trkpt lat="47.81103" lon="-2.48549">
        <ele>88.5</ele>
        <time>2025-02-11T12:03:25Z</time>
      </trkpt>
      <trkpt lat="47.81103" lon="-2.48549">
        <ele>88.5</ele>
        <time>2025-02-11T12:03:26Z</time>
      </trkpt>
      <trkpt lat="47.81103" lon="-2.48549">
        <ele>88.5</ele>
        <time>2025-02-11T12:03:27Z</time>
      </trkpt>
      <trkpt lat="47.81103" lon="-2.48549">
        <ele>88.5</ele>
        <time>2025-02-11T12:03:28Z</time>
      </trkpt>
      <trkpt lat="47.81104" lon="-2.48549">
        <ele>88.5</ele>
        <time>2025-02-11T12:03:29Z</time>
      </trkpt>
      <trkpt lat="47.81104" lon="-2.48549">
        <ele>88.5</ele>
        <time>2025-02-11T12:03:30Z</time>
      </trkpt>
      <trkpt lat="47.81104" lon="-2.48549">
        <ele>88.5</ele>
        <time>2025-02-11T12:03:31Z</time>
      </trkpt>
      <trkpt lat="47.81104" lon="-2.48549">
        <ele>88.5</ele>
        <time>2025-02-11T12:03:32Z</time>
      </trkpt>
      <trkpt lat="47.81104" lon="-2.48549">
        <ele>88.5</ele>
        <time>2025-02-11T12:03:33Z</time>
      </trkpt>
      <trkpt lat="47.81104" lon="-2.48549">
        <ele>88.5</ele>
        <time>2025-02-11T12:03:34Z</time>
      </trkpt>
      <trkpt lat="47.81104" lon="-2.48549">
        <ele>88.5</ele>
        <time>2025-02-11T12:03:35Z</time>
      </trkpt>
      <trkpt lat="47.81103" lon="-2.48549">
        <ele>88.5</ele>
        <time>2025-02-11T12:03:36Z</time>
      </trkpt>
      <trkpt lat="47.81103" lon="-2.48549">
        <ele>88.5</ele>
        <time>2025-02-11T12:03:37Z</time>
      </trkpt>
      <trkpt lat="47.81103" lon="-2.48549">
        <ele>88.5</ele>
        <time>2025-02-11T12:03:38Z</time>
      </trkpt>
      <trkpt lat="47.81103" lon="-2.48549">
        <ele>88.5</ele>
        <time>2025-02-11T12:03:39Z</time>
      </trkpt>
      <trkpt lat="47.81103" lon="-2.48549">
        <ele>88.5</ele>
        <time>2025-02-11T12:03:40Z</time>
      </trkpt>
      <trkpt lat="47.81103" lon="-2.48549">
        <ele>88.5</ele>
        <time>2025-02-11T12:03:41Z</time>
      </trkpt>
      <trkpt lat="47.81103" lon="-2.48549">
        <ele>88.5</ele>
        <time>2025-02-11T12:03:42Z</time>
      </trkpt>
      <trkpt lat="47.81103" lon="-2.48549">
        <ele>88.5</ele>
        <time>2025-02-11T12:03:43Z</time>
      </trkpt>
      <trkpt lat="47.81103" lon="-2.48549">
        <ele>88.5</ele>
        <time>2025-02-11T12:03:44Z</time>
      </trkpt>
      <trkpt lat="47.81103" lon="-2.48549">
        <ele>88.5</ele>
        <time>2025-02-11T12:03:45Z</time>
      </trkpt>
      <trkpt lat="47.81103" lon="-2.48549">
        <ele>88.5</ele>
        <time>2025-02-11T12:03:46Z</time>
      </trkpt>
      <trkpt lat="47.81103" lon="-2.48549">
        <ele>88.5</ele>
        <time>2025-02-11T12:03:47Z</time>
      </trkpt>
      <trkpt lat="47.81103" lon="-2.48549">
        <ele>88.5</ele>
        <time>2025-02-11T12:03:48Z</time>
      </trkpt>
      <trkpt lat="47.81103" lon="-2.48549">
        <ele>88.5</ele>
        <time>2025-02-11T12:03:49Z</time>
      </trkpt>
      <trkpt lat="47.81103" lon="-2.48549">
        <ele>88.5</ele>
        <time>2025-02-11T12:03:50Z</time>
      </trkpt>
      <trkpt lat="47.81103" lon="-2.48549">
        <ele>88.5</ele>
        <time>2025-02-11T12:03:51Z</time>
      </trkpt>
      <trkpt lat="47.81103" lon="-2.48549">
        <ele>88.5</ele>
        <time>2025-02-11T12:03:52Z</time>
      </trkpt>
      <trkpt lat="47.81103" lon="-2.48549">
        <ele>88.5</ele>
        <time>2025-02-11T12:03:53Z</time>
      </trkpt>
      <trkpt lat="47.81103" lon="-2.48549">
        <ele>88.5</ele>
        <time>2025-02-11T12:03:54Z</time>
      </trkpt>
      <trkpt lat="47.81103" lon="-2.48549">
        <ele>88.5</ele>
        <time>2025-02-11T12:03:55Z</time>
      </trkpt>
      <trkpt lat="47.81103" lon="-2.48549">
        <ele>88.5</ele>
        <time>2025-02-11T12:03:56Z</time>
      </trkpt>
      <trkpt lat="47.81103" lon="-2.48549">
        <ele>88.5</ele>
        <time>2025-02-11T12:03:57Z</time>
      </trkpt>
      <trkpt lat="47.81103" lon="-2.48549">
        <ele>88.5</ele>
        <time>2025-02-11T12:03:58Z</time>
      </trkpt>
      <trkpt lat="47.81103" lon="-2.48549">
        <ele>88.5</ele>
        <time>2025-02-11T12:03:59Z</time>
      </trkpt>
      <trkpt lat="47.81103" lon="-2.48549">
        <ele>88.5</ele>
        <time>2025-02-11T12:04:00Z</time>
      </trkpt>
      <trkpt lat="47.81103" lon="-2.48549">
        <ele>88.5</ele>
        <time>2025-02-11T12:04:01Z</time>
      </trkpt>
      <trkpt lat="47.81103" lon="-2.48549">
        <ele>88.5</ele>
        <time>2025-02-11T12:04:02Z</time>
      </trkpt>
      <trkpt lat="47.81103" lon="-2.48549">
        <ele>88.5</ele>
        <time>2025-02-11T12:04:03Z</time>
      </trkpt>
      <trkpt lat="47.81103" lon="-2.48549">
        <ele>88.5</ele>
        <time>2025-02-11T12:04:04Z</time>
      </trkpt>
      <trkpt lat="47.81103" lon="-2.48549">
        <ele>88.5</ele>
        <time>2025-02-11T12:04:05Z</time>
      </trkpt>
      <trkpt lat="47.81103" lon="-2.48549">
        <ele>88.5</ele>
        <time>2025-02-11T12:04:06Z</time>
      </trkpt>
      <trkpt lat="47.81103" lon="-2.48549">
        <ele>88.5</ele>
        <time>2025-02-11T12:04:07Z</time>
      </trkpt>
      <trkpt lat="47.81103" lon="-2.48549">
        <ele>88.5</ele>
        <time>2025-02-11T12:04:08Z</time>
      </trkpt>
      <trkpt lat="47.81103" lon="-2.48549">
        <ele>88.5</ele>
        <time>2025-02-11T12:04:09Z</time>
      </trkpt>
      <trkpt lat="47.81103" lon="-2.48549">
        <ele>88.5</ele>
        <time>2025-02-11T12:04:10Z</time>
      </trkpt>
      <trkpt lat="47.81103" lon="-2.48549">
        <ele>88.5</ele>
        <time>2025-02-11T12:04:11Z</time>
      </trkpt>
      <trkpt lat="47.81103" lon="-2.48549">
        <ele>88.5</ele>
        <time>2025-02-11T12:04:12Z</time>
      </trkpt>
      <trkpt lat="47.81103" lon="-2.48549">
        <ele>88.5</ele>
        <time>2025-02-11T12:04:13Z</time>
      </trkpt>
      <trkpt lat="47.81103" lon="-2.48549">
        <ele>88.5</ele>
        <time>2025-02-11T12:04:14Z</time>
      </trkpt>
      <trkpt lat="47.81103" lon="-2.48549">
        <ele>88.5</ele>
        <time>2025-02-11T12:04:15Z</time>
      </trkpt>
      <trkpt lat="47.81103" lon="-2.48549">
        <ele>88.5</ele>
        <time>2025-02-11T12:04:16Z</time>
      </trkpt>
      <trkpt lat="47.81103" lon="-2.48549">
        <ele>88.5</ele>
        <time>2025-02-11T12:04:17Z</time>
      </trkpt>
      <trkpt lat="47.81103" lon="-2.48549">
        <ele>88.5</ele>
        <time>2025-02-11T12:04:18Z</time>
      </trkpt>
      <trkpt lat="47.81103" lon="-2.48549">
        <ele>88.5</ele>
        <time>2025-02-11T12:04:19Z</time>
      </trkpt>
      <trkpt lat="47.81103" lon="-2.48549">
        <ele>88.5</ele>
        <time>2025-02-11T12:04:20Z</time>
      </trkpt>
      <trkpt lat="47.81103" lon="-2.48549">
        <ele>88.5</ele>
        <time>2025-02-11T12:04:21Z</time>
      </trkpt>
      <trkpt lat="47.81103" lon="-2.48549">
        <ele>88.5</ele>
        <time>2025-02-11T12:04:22Z</time>
      </trkpt>
      <trkpt lat="47.81103" lon="-2.48549">
        <ele>88.5</ele>
        <time>2025-02-11T12:04:23Z</time>
      </trkpt>
      <trkpt lat="47.81103" lon="-2.48549">
        <ele>88.5</ele>
        <time>2025-02-11T12:04:24Z</time>
      </trkpt>
      <trkpt lat="47.81103" lon="-2.48549">
        <ele>88.5</ele>
        <time>2025-02-11T12:04:25Z</time>
      </trkpt>
      <trkpt lat="47.81103" lon="-2.48549">
        <ele>88.5</ele>
        <time>2025-02-11T12:04:26Z</time>
      </trkpt>
      <trkpt lat="47.81104" lon="-2.48549">
        <ele>88.5</ele>
        <time>2025-02-11T12:04:27Z</time>
      </trkpt>
      <trkpt lat="47.81104" lon="-2.48549">
        <ele>88.5</ele>
        <time>2025-02-11T12:04:28Z</time>
      </trkpt>
      <trkpt lat="47.81104" lon="-2.48549">
        <ele>88.5</ele>
        <time>2025-02-11T12:04:29Z</time>
      </trkpt>
      <trkpt lat="47.81104" lon="-2.48549">
        <ele>88.5</ele>
        <time>2025-02-11T12:04:30Z</time>
      </trkpt>
      <trkpt lat="47.81104" lon="-2.48549">
        <ele>88.5</ele>
        <time>2025-02-11T12:04:31Z</time>
      </trkpt>
      <trkpt lat="47.81104" lon="-2.48549">
        <ele>88.5</ele>
        <time>2025-02-11T12:04:32Z</time>
      </trkpt>
      <trkpt lat="47.81104" lon="-2.48549">
        <ele>88.5</ele>
        <time>2025-02-11T12:04:33Z</time>
      </trkpt>
      <trkpt lat="47.81104" lon="-2.48549">
        <ele>88.5</ele>
        <time>2025-02-11T12:04:34Z</time>
      </trkpt>
      <trkpt lat="47.81104" lon="-2.48549">
        <ele>88.5</ele>
        <time>2025-02-11T12:04:35Z</time>
      </trkpt>
      <trkpt lat="47.81103" lon="-2.48549">
        <ele>88.5</ele>
        <time>2025-02-11T12:04:36Z</time>
      </trkpt>
      <trkpt lat="47.81103" lon="-2.48549">
        <ele>88.5</ele>
        <time>2025-02-11T12:04:37Z</time>
      </trkpt>
      <trkpt lat="47.81103" lon="-2.48549">
        <ele>88.5</ele>
        <time>2025-02-11T12:04:38Z</time>
      </trkpt>
      <trkpt lat="47.81103" lon="-2.48549">
        <ele>88.5</ele>
        <time>2025-02-11T12:04:39Z</time>
      </trkpt>
      <trkpt lat="47.81103" lon="-2.48549">
        <ele>88.5</ele>
        <time>2025-02-11T12:04:40Z</time>
      </trkpt>
      <trkpt lat="47.81103" lon="-2.48549">
        <ele>88.5</ele>
        <time>2025-02-11T12:04:41Z</time>
      </trkpt>
      <trkpt lat="47.81103" lon="-2.48549">
        <ele>88.5</ele>
        <time>2025-02-11T12:04:42Z</time>
      </trkpt>
      <trkpt lat="47.81103" lon="-2.48549">
        <ele>88.5</ele>
        <time>2025-02-11T12:04:43Z</time>
      </trkpt>
      <trkpt lat="47.81103" lon="-2.48549">
        <ele>88.5</ele>
        <time>2025-02-11T12:04:44Z</time>
      </trkpt>
      <trkpt lat="47.81103" lon="-2.48549">
        <ele>88.5</ele>
        <time>2025-02-11T12:04:45Z</time>
      </trkpt>
      <trkpt lat="47.81103" lon="-2.48549">
        <ele>88.5</ele>
        <time>2025-02-11T12:04:46Z</time>
      </trkpt>
      <trkpt lat="47.81103" lon="-2.48549">
        <ele>88.5</ele>
        <time>2025-02-11T12:04:47Z</time>
      </trkpt>
      <trkpt lat="47.81103" lon="-2.48549">
        <ele>88.5</ele>
        <time>2025-02-11T12:04:48Z</time>
      </trkpt>
      <trkpt lat="47.81103" lon="-2.48549">
        <ele>88.5</ele>
        <time>2025-02-11T12:04:49Z</time>
      </trkpt>
      <trkpt lat="47.81103" lon="-2.48549">
        <ele>88.5</ele>
        <time>2025-02-11T12:04:50Z</time>
      </trkpt>
      <trkpt lat="47.81103" lon="-2.48549">
        <ele>88.5</ele>
        <time>2025-02-11T12:04:51Z</time>
      </trkpt>
      <trkpt lat="47.81103" lon="-2.48549">
        <ele>88.5</ele>
        <time>2025-02-11T12:04:52Z</time>
      </trkpt>
      <trkpt lat="47.81103" lon="-2.48549">
        <ele>88.5</ele>
        <time>2025-02-11T12:04:53Z</time>
      </trkpt>
      <trkpt lat="47.81103" lon="-2.48549">
        <ele>88.5</ele>
        <time>2025-02-11T12:04:54Z</time>
      </trkpt>
      <trkpt lat="47.81103" lon="-2.48549">
        <ele>88.5</ele>
        <time>2025-02-11T12:04:55Z</time>
      </trkpt>
      <trkpt lat="47.81103" lon="-2.48549">
        <ele>88.5</ele>
        <time>2025-02-11T12:04:56Z</time>
      </trkpt>
      <trkpt lat="47.81103" lon="-2.48549">
        <ele>88.5</ele>
        <time>2025-02-11T12:04:57Z</time>
      </trkpt>
      <trkpt lat="47.81103" lon="-2.48549">
        <ele>88.5</ele>
        <time>2025-02-11T12:04:58Z</time>
      </trkpt>
      <trkpt lat="47.81103" lon="-2.48549">
        <ele>88.5</ele>
        <time>2025-02-11T12:04:59Z</time>
      </trkpt>
      <trkpt lat="47.81103" lon="-2.48549">
        <ele>88.5</ele>
        <time>2025-02-11T12:05:00Z</time>
      </trkpt>
      <trkpt lat="47.81103" lon="-2.48549">
        <ele>88.5</ele>
        <time>2025-02-11T12:05:01Z</time>
      </trkpt>
      <trkpt lat="47.81103" lon="-2.48549">
        <ele>88.5</ele>
        <time>2025-02-11T12:05:02Z</time>
      </trkpt>
      <trkpt lat="47.81103" lon="-2.48549">
        <ele>88.5</ele>
        <time>2025-02-11T12:05:03Z</time>
      </trkpt>
      <trkpt lat="47.81103" lon="-2.48549">
        <ele>88.5</ele>
        <time>2025-02-11T12:05:04Z</time>
      </trkpt>
      <trkpt lat="47.81103" lon="-2.48549">
        <ele>88.5</ele>
        <time>2025-02-11T12:05:05Z</time>
      </trkpt>
      <trkpt lat="47.81103" lon="-2.48549">
        <ele>88.5</ele>
        <time>2025-02-11T12:05:06Z</time>
      </trkpt>
      <trkpt lat="47.81103" lon="-2.48549">
        <ele>88.5</ele>
        <time>2025-02-11T12:05:07Z</time>
      </trkpt>
      <trkpt lat="47.81103" lon="-2.48549">
        <ele>88.5</ele>
        <time>2025-02-11T12:05:08Z</time>
      </trkpt>
      <trkpt lat="47.81103" lon="-2.48549">
        <ele>88.5</ele>
        <time>2025-02-11T12:05:09Z</time>
      </trkpt>
      <trkpt lat="47.81103" lon="-2.48549">
        <ele>88.5</ele>
        <time>2025-02-11T12:05:10Z</time>
      </trkpt>
      <trkpt lat="47.81103" lon="-2.48549">
        <ele>88.5</ele>
        <time>2025-02-11T12:05:11Z</time>
      </trkpt>
      <trkpt lat="47.81103" lon="-2.48549">
        <ele>88.5</ele>
        <time>2025-02-11T12:05:12Z</time>
      </trkpt>
      <trkpt lat="47.81104" lon="-2.48547">
        <ele>88.7</ele>
        <time>2025-02-11T12:05:13Z</time>
      </trkpt>
      <trkpt lat="47.81105" lon="-2.48547">
        <ele>88.9</ele>
        <time>2025-02-11T12:05:14Z</time>
      </trkpt>
      <trkpt lat="47.81105" lon="-2.48546">
        <ele>88.9</ele>
        <time>2025-02-11T12:05:15Z</time>
      </trkpt>
      <trkpt lat="47.81105" lon="-2.48545">
        <ele>88.9</ele>
        <time>2025-02-11T12:05:16Z</time>
      </trkpt>
      <trkpt lat="47.81105" lon="-2.48545">
        <ele>88.9</ele>
        <time>2025-02-11T12:05:17Z</time>
      </trkpt>
      <trkpt lat="47.81105" lon="-2.48545">
        <ele>88.9</ele>
        <time>2025-02-11T12:05:18Z</time>
      </trkpt>
      <trkpt lat="47.81105" lon="-2.48545">
        <ele>88.9</ele>
        <time>2025-02-11T12:05:19Z</time>
      </trkpt>
      <trkpt lat="47.81105" lon="-2.48545">
        <ele>88.9</ele>
        <time>2025-02-11T12:05:20Z</time>
      </trkpt>
      <trkpt lat="47.81105" lon="-2.48545">
        <ele>89</ele>
        <time>2025-02-11T12:05:21Z</time>
      </trkpt>
      <trkpt lat="47.81105" lon="-2.48545">
        <ele>89</ele>
        <time>2025-02-11T12:05:22Z</time>
      </trkpt>
      <trkpt lat="47.81105" lon="-2.48545">
        <ele>89</ele>
        <time>2025-02-11T12:05:23Z</time>
      </trkpt>
      <trkpt lat="47.81105" lon="-2.48545">
        <ele>89</ele>
        <time>2025-02-11T12:05:24Z</time>
      </trkpt>
      <trkpt lat="47.81105" lon="-2.48545">
        <ele>89</ele>
        <time>2025-02-11T12:05:25Z</time>
      </trkpt>
      <trkpt lat="47.81105" lon="-2.48545">
        <ele>89</ele>
        <time>2025-02-11T12:05:26Z</time>
      </trkpt>
      <trkpt lat="47.81105" lon="-2.48545">
        <ele>89</ele>
        <time>2025-02-11T12:05:27Z</time>
      </trkpt>
      <trkpt lat="47.81105" lon="-2.48545">
        <ele>89</ele>
        <time>2025-02-11T12:05:28Z</time>
      </trkpt>
      <trkpt lat="47.81105" lon="-2.48545">
        <ele>89</ele>
        <time>2025-02-11T12:05:29Z</time>
      </trkpt>
      <trkpt lat="47.81105" lon="-2.48545">
        <ele>89</ele>
        <time>2025-02-11T12:05:30Z</time>
      </trkpt>
      <trkpt lat="47.81105" lon="-2.48545">
        <ele>88.9</ele>
        <time>2025-02-11T12:05:31Z</time>
      </trkpt>
      <trkpt lat="47.81105" lon="-2.48545">
        <ele>88.9</ele>
        <time>2025-02-11T12:05:32Z</time>
      </trkpt>
      <trkpt lat="47.81105" lon="-2.48545">
        <ele>88.9</ele>
        <time>2025-02-11T12:05:33Z</time>
      </trkpt>
      <trkpt lat="47.81105" lon="-2.48545">
        <ele>88.9</ele>
        <time>2025-02-11T12:05:34Z</time>
      </trkpt>
      <trkpt lat="47.81105" lon="-2.48545">
        <ele>88.9</ele>
        <time>2025-02-11T12:05:35Z</time>
      </trkpt>
      <trkpt lat="47.81105" lon="-2.48545">
        <ele>88.9</ele>
        <time>2025-02-11T12:05:36Z</time>
      </trkpt>
      <trkpt lat="47.81105" lon="-2.48545">
        <ele>88.9</ele>
        <time>2025-02-11T12:05:37Z</time>
      </trkpt>
      <trkpt lat="47.81105" lon="-2.48545">
        <ele>88.9</ele>
        <time>2025-02-11T12:05:38Z</time>
      </trkpt>
      <trkpt lat="47.81105" lon="-2.48545">
        <ele>88.9</ele>
        <time>2025-02-11T12:05:39Z</time>
      </trkpt>
      <trkpt lat="47.81104" lon="-2.48546">
        <ele>88.8</ele>
        <time>2025-02-11T12:05:40Z</time>
      </trkpt>
      <trkpt lat="47.81104" lon="-2.48546">
        <ele>88.8</ele>
        <time>2025-02-11T12:05:41Z</time>
      </trkpt>
      <trkpt lat="47.81104" lon="-2.48546">
        <ele>88.8</ele>
        <time>2025-02-11T12:05:42Z</time>
      </trkpt>
      <trkpt lat="47.81104" lon="-2.48546">
        <ele>88.8</ele>
        <time>2025-02-11T12:05:43Z</time>
      </trkpt>
      <trkpt lat="47.81104" lon="-2.48546">
        <ele>88.7</ele>
        <time>2025-02-11T12:05:44Z</time>
      </trkpt>
      <trkpt lat="47.81104" lon="-2.48546">
        <ele>88.7</ele>
        <time>2025-02-11T12:05:45Z</time>
      </trkpt>
      <trkpt lat="47.81104" lon="-2.48546">
        <ele>88.7</ele>
        <time>2025-02-11T12:05:46Z</time>
      </trkpt>
      <trkpt lat="47.81104" lon="-2.48546">
        <ele>88.8</ele>
        <time>2025-02-11T12:05:47Z</time>
      </trkpt>
      <trkpt lat="47.81104" lon="-2.48546">
        <ele>88.8</ele>
        <time>2025-02-11T12:05:48Z</time>
      </trkpt>
      <trkpt lat="47.81104" lon="-2.48546">
        <ele>88.8</ele>
        <time>2025-02-11T12:05:49Z</time>
      </trkpt>
      <trkpt lat="47.81104" lon="-2.48546">
        <ele>88.8</ele>
        <time>2025-02-11T12:05:50Z</time>
      </trkpt>
      <trkpt lat="47.81104" lon="-2.48546">
        <ele>88.7</ele>
        <time>2025-02-11T12:05:51Z</time>
      </trkpt>
      <trkpt lat="47.81104" lon="-2.48546">
        <ele>88.8</ele>
        <time>2025-02-11T12:05:52Z</time>
      </trkpt>
      <trkpt lat="47.81105" lon="-2.48545">
        <ele>88.9</ele>
        <time>2025-02-11T12:05:53Z</time>
      </trkpt>
      <trkpt lat="47.81105" lon="-2.48545">
        <ele>88.9</ele>
        <time>2025-02-11T12:05:54Z</time>
      </trkpt>
      <trkpt lat="47.81105" lon="-2.48544">
        <ele>89</ele>
        <time>2025-02-11T12:05:55Z</time>
      </trkpt>
      <trkpt lat="47.81105" lon="-2.48544">
        <ele>88.9</ele>
        <time>2025-02-11T12:05:56Z</time>
      </trkpt>
      <trkpt lat="47.81105" lon="-2.48544">
        <ele>88.9</ele>
        <time>2025-02-11T12:05:57Z</time>
      </trkpt>
      <trkpt lat="47.81105" lon="-2.48544">
        <ele>88.9</ele>
        <time>2025-02-11T12:05:58Z</time>
      </trkpt>
      <trkpt lat="47.81105" lon="-2.48544">
        <ele>88.9</ele>
        <time>2025-02-11T12:05:59Z</time>
      </trkpt>
      <trkpt lat="47.81105" lon="-2.48544">
        <ele>88.9</ele>
        <time>2025-02-11T12:06:00Z</time>
      </trkpt>
      <trkpt lat="47.81105" lon="-2.48544">
        <ele>88.9</ele>
        <time>2025-02-11T12:06:01Z</time>
      </trkpt>
      <trkpt lat="47.81105" lon="-2.48544">
        <ele>88.9</ele>
        <time>2025-02-11T12:06:02Z</time>
      </trkpt>
      <trkpt lat="47.81105" lon="-2.48544">
        <ele>88.9</ele>
        <time>2025-02-11T12:06:03Z</time>
      </trkpt>
      <trkpt lat="47.81105" lon="-2.48544">
        <ele>88.9</ele>
        <time>2025-02-11T12:06:04Z</time>
      </trkpt>
      <trkpt lat="47.81105" lon="-2.48544">
        <ele>88.9</ele>
        <time>2025-02-11T12:06:05Z</time>
      </trkpt>
      <trkpt lat="47.81105" lon="-2.48544">
        <ele>88.9</ele>
        <time>2025-02-11T12:06:06Z</time>
      </trkpt>
      <trkpt lat="47.81105" lon="-2.48544">
        <ele>89</ele>
        <time>2025-02-11T12:06:07Z</time>
      </trkpt>
      <trkpt lat="47.81105" lon="-2.48544">
        <ele>89</ele>
        <time>2025-02-11T12:06:08Z</time>
      </trkpt>
      <trkpt lat="47.81105" lon="-2.48544">
        <ele>88.9</ele>
        <time>2025-02-11T12:06:09Z</time>
      </trkpt>
      <trkpt lat="47.81105" lon="-2.48546">
        <ele>89</ele>
        <time>2025-02-11T12:06:10Z</time>
      </trkpt>
      <trkpt lat="47.81106" lon="-2.48547">
        <ele>89</ele>
        <time>2025-02-11T12:06:11Z</time>
      </trkpt>
      <trkpt lat="47.81105" lon="-2.48549">
        <ele>88.9</ele>
        <time>2025-02-11T12:06:12Z</time>
      </trkpt>
      <trkpt lat="47.81105" lon="-2.48549">
        <ele>88.9</ele>
        <time>2025-02-11T12:06:13Z</time>
      </trkpt>
      <trkpt lat="47.81105" lon="-2.48549">
        <ele>88.9</ele>
        <time>2025-02-11T12:06:14Z</time>
      </trkpt>
      <trkpt lat="47.81105" lon="-2.48549">
        <ele>88.9</ele>
        <time>2025-02-11T12:06:15Z</time>
      </trkpt>
      <trkpt lat="47.81105" lon="-2.48549">
        <ele>88.9</ele>
        <time>2025-02-11T12:06:16Z</time>
      </trkpt>
      <trkpt lat="47.81105" lon="-2.48549">
        <ele>88.9</ele>
        <time>2025-02-11T12:06:17Z</time>
      </trkpt>
      <trkpt lat="47.81105" lon="-2.48549">
        <ele>88.9</ele>
        <time>2025-02-11T12:06:18Z</time>
      </trkpt>
      <trkpt lat="47.81105" lon="-2.48549">
        <ele>88.8</ele>
        <time>2025-02-11T12:06:19Z</time>
      </trkpt>
      <trkpt lat="47.81105" lon="-2.48549">
        <ele>88.8</ele>
        <time>2025-02-11T12:06:20Z</time>
      </trkpt>
      <trkpt lat="47.81104" lon="-2.48549">
        <ele>88.7</ele>
        <time>2025-02-11T12:06:21Z</time>
      </trkpt>
      <trkpt lat="47.81104" lon="-2.48549">
        <ele>88.7</ele>
        <time>2025-02-11T12:06:22Z</time>
      </trkpt>
      <trkpt lat="47.81104" lon="-2.48549">
        <ele>88.7</ele>
        <time>2025-02-11T12:06:23Z</time>
      </trkpt>
      <trkpt lat="47.81104" lon="-2.48549">
        <ele>88.7</ele>
        <time>2025-02-11T12:06:24Z</time>
      </trkpt>
      <trkpt lat="47.81104" lon="-2.48549">
        <ele>88.7</ele>
        <time>2025-02-11T12:06:25Z</time>
      </trkpt>
      <trkpt lat="47.81104" lon="-2.48549">
        <ele>88.7</ele>
        <time>2025-02-11T12:06:26Z</time>
      </trkpt>
      <trkpt lat="47.81104" lon="-2.48549">
        <ele>88.7</ele>
        <time>2025-02-11T12:06:27Z</time>
      </trkpt>
      <trkpt lat="47.81104" lon="-2.48549">
        <ele>88.7</ele>
        <time>2025-02-11T12:06:28Z</time>
      </trkpt>
      <trkpt lat="47.81104" lon="-2.48549">
        <ele>88.7</ele>
        <time>2025-02-11T12:06:29Z</time>
      </trkpt>
      <trkpt lat="47.81104" lon="-2.48549">
        <ele>88.7</ele>
        <time>2025-02-11T12:06:30Z</time>
      </trkpt>
      <trkpt lat="47.81104" lon="-2.48549">
        <ele>88.7</ele>
        <time>2025-02-11T12:06:31Z</time>
      </trkpt>
      <trkpt lat="47.81104" lon="-2.48549">
        <ele>88.7</ele>
        <time>2025-02-11T12:06:32Z</time>
      </trkpt>
      <trkpt lat="47.81104" lon="-2.48548">
        <ele>88.7</ele>
        <time>2025-02-11T12:06:33Z</time>
      </trkpt>
      <trkpt lat="47.81104" lon="-2.48548">
        <ele>88.7</ele>
        <time>2025-02-11T12:06:34Z</time>
      </trkpt>
      <trkpt lat="47.81104" lon="-2.48548">
        <ele>88.7</ele>
        <time>2025-02-11T12:06:35Z</time>
      </trkpt>
      <trkpt lat="47.81104" lon="-2.48548">
        <ele>88.7</ele>
        <time>2025-02-11T12:06:36Z</time>
      </trkpt>
      <trkpt lat="47.81104" lon="-2.48548">
        <ele>88.7</ele>
        <time>2025-02-11T12:06:37Z</time>
      </trkpt>
      <trkpt lat="47.81104" lon="-2.48548">
        <ele>88.7</ele>
        <time>2025-02-11T12:06:38Z</time>
      </trkpt>
      <trkpt lat="47.81104" lon="-2.48548">
        <ele>88.7</ele>
        <time>2025-02-11T12:06:39Z</time>
      </trkpt>
      <trkpt lat="47.81104" lon="-2.48548">
        <ele>88.7</ele>
        <time>2025-02-11T12:06:40Z</time>
      </trkpt>
      <trkpt lat="47.81104" lon="-2.48548">
        <ele>88.6</ele>
        <time>2025-02-11T12:06:41Z</time>
      </trkpt>
      <trkpt lat="47.81104" lon="-2.48548">
        <ele>88.6</ele>
        <time>2025-02-11T12:06:42Z</time>
      </trkpt>
      <trkpt lat="47.81104" lon="-2.48547">
        <ele>88.6</ele>
        <time>2025-02-11T12:06:43Z</time>
      </trkpt>
      <trkpt lat="47.81104" lon="-2.48547">
        <ele>88.6</ele>
        <time>2025-02-11T12:06:44Z</time>
      </trkpt>
      <trkpt lat="47.81104" lon="-2.48547">
        <ele>88.6</ele>
        <time>2025-02-11T12:06:45Z</time>
      </trkpt>
      <trkpt lat="47.81104" lon="-2.48547">
        <ele>88.6</ele>
        <time>2025-02-11T12:06:46Z</time>
      </trkpt>
      <trkpt lat="47.81104" lon="-2.48547">
        <ele>88.6</ele>
        <time>2025-02-11T12:06:47Z</time>
      </trkpt>
      <trkpt lat="47.81104" lon="-2.48547">
        <ele>88.6</ele>
        <time>2025-02-11T12:06:48Z</time>
      </trkpt>
      <trkpt lat="47.81104" lon="-2.48547">
        <ele>88.6</ele>
        <time>2025-02-11T12:06:49Z</time>
      </trkpt>
      <trkpt lat="47.81104" lon="-2.48547">
        <ele>88.6</ele>
        <time>2025-02-11T12:06:50Z</time>
      </trkpt>
      <trkpt lat="47.81104" lon="-2.48547">
        <ele>88.6</ele>
        <time>2025-02-11T12:06:51Z</time>
      </trkpt>
      <trkpt lat="47.81104" lon="-2.48547">
        <ele>88.6</ele>
        <time>2025-02-11T12:06:52Z</time>
      </trkpt>
      <trkpt lat="47.81104" lon="-2.48547">
        <ele>88.6</ele>
        <time>2025-02-11T12:06:53Z</time>
      </trkpt>
      <trkpt lat="47.81104" lon="-2.48547">
        <ele>88.6</ele>
        <time>2025-02-11T12:06:54Z</time>
      </trkpt>
      <trkpt lat="47.81104" lon="-2.48547">
        <ele>88.6</ele>
        <time>2025-02-11T12:06:55Z</time>
      </trkpt>
      <trkpt lat="47.81104" lon="-2.48547">
        <ele>88.6</ele>
        <time>2025-02-11T12:06:56Z</time>
      </trkpt>
      <trkpt lat="47.81104" lon="-2.48547">
        <ele>88.6</ele>
        <time>2025-02-11T12:06:57Z</time>
      </trkpt>
      <trkpt lat="47.81104" lon="-2.48547">
        <ele>88.6</ele>
        <time>2025-02-11T12:06:58Z</time>
      </trkpt>
      <trkpt lat="47.81104" lon="-2.48547">
        <ele>88.6</ele>
        <time>2025-02-11T12:06:59Z</time>
      </trkpt>
      <trkpt lat="47.81104" lon="-2.48547">
        <ele>88.6</ele>
        <time>2025-02-11T12:07:00Z</time>
      </trkpt>
      <trkpt lat="47.81104" lon="-2.48547">
        <ele>88.6</ele>
        <time>2025-02-11T12:07:01Z</time>
      </trkpt>
      <trkpt lat="47.81104" lon="-2.48547">
        <ele>88.6</ele>
        <time>2025-02-11T12:07:02Z</time>
      </trkpt>
      <trkpt lat="47.81104" lon="-2.48547">
        <ele>88.6</ele>
        <time>2025-02-11T12:07:03Z</time>
      </trkpt>
      <trkpt lat="47.81104" lon="-2.48547">
        <ele>88.6</ele>
        <time>2025-02-11T12:07:04Z</time>
      </trkpt>
      <trkpt lat="47.81104" lon="-2.48547">
        <ele>88.6</ele>
        <time>2025-02-11T12:07:05Z</time>
      </trkpt>
      <trkpt lat="47.81104" lon="-2.48547">
        <ele>88.6</ele>
        <time>2025-02-11T12:07:06Z</time>
      </trkpt>
      <trkpt lat="47.81104" lon="-2.48547">
        <ele>88.6</ele>
        <time>2025-02-11T12:07:07Z</time>
      </trkpt>
      <trkpt lat="47.81104" lon="-2.48547">
        <ele>88.6</ele>
        <time>2025-02-11T12:07:08Z</time>
      </trkpt>
      <trkpt lat="47.81104" lon="-2.48547">
        <ele>88.6</ele>
        <time>2025-02-11T12:07:09Z</time>
      </trkpt>
      <trkpt lat="47.81104" lon="-2.48547">
        <ele>88.6</ele>
        <time>2025-02-11T12:07:10Z</time>
      </trkpt>
      <trkpt lat="47.81104" lon="-2.48547">
        <ele>88.6</ele>
        <time>2025-02-11T12:07:11Z</time>
      </trkpt>
      <trkpt lat="47.81104" lon="-2.48547">
        <ele>88.6</ele>
        <time>2025-02-11T12:07:12Z</time>
      </trkpt>
      <trkpt lat="47.81104" lon="-2.48547">
        <ele>88.6</ele>
        <time>2025-02-11T12:07:13Z</time>
      </trkpt>
      <trkpt lat="47.81104" lon="-2.48547">
        <ele>88.6</ele>
        <time>2025-02-11T12:07:14Z</time>
      </trkpt>
      <trkpt lat="47.81104" lon="-2.48547">
        <ele>88.6</ele>
        <time>2025-02-11T12:07:15Z</time>
      </trkpt>
      <trkpt lat="47.81104" lon="-2.48547">
        <ele>88.6</ele>
        <time>2025-02-11T12:07:16Z</time>
      </trkpt>
      <trkpt lat="47.81104" lon="-2.48547">
        <ele>88.6</ele>
        <time>2025-02-11T12:07:17Z</time>
      </trkpt>
      <trkpt lat="47.81104" lon="-2.48547">
        <ele>88.6</ele>
        <time>2025-02-11T12:07:18Z</time>
      </trkpt>
      <trkpt lat="47.81104" lon="-2.48547">
        <ele>88.6</ele>
        <time>2025-02-11T12:07:19Z</time>
      </trkpt>
      <trkpt lat="47.81104" lon="-2.48547">
        <ele>88.6</ele>
        <time>2025-02-11T12:07:20Z</time>
      </trkpt>
      <trkpt lat="47.81104" lon="-2.48547">
        <ele>88.6</ele>
        <time>2025-02-11T12:07:21Z</time>
      </trkpt>
      <trkpt lat="47.81104" lon="-2.48547">
        <ele>88.6</ele>
        <time>2025-02-11T12:07:22Z</time>
      </trkpt>
      <trkpt lat="47.81104" lon="-2.48547">
        <ele>88.6</ele>
        <time>2025-02-11T12:07:23Z</time>
      </trkpt>
      <trkpt lat="47.81104" lon="-2.48547">
        <ele>88.6</ele>
        <time>2025-02-11T12:07:24Z</time>
      </trkpt>
      <trkpt lat="47.81104" lon="-2.48547">
        <ele>88.6</ele>
        <time>2025-02-11T12:07:25Z</time>
      </trkpt>
      <trkpt lat="47.81104" lon="-2.48547">
        <ele>88.6</ele>
        <time>2025-02-11T12:07:26Z</time>
      </trkpt>
      <trkpt lat="47.81104" lon="-2.48547">
        <ele>88.6</ele>
        <time>2025-02-11T12:07:27Z</time>
      </trkpt>
      <trkpt lat="47.81104" lon="-2.48547">
        <ele>88.6</ele>
        <time>2025-02-11T12:07:28Z</time>
      </trkpt>
      <trkpt lat="47.81104" lon="-2.48547">
        <ele>88.6</ele>
        <time>2025-02-11T12:07:29Z</time>
      </trkpt>
      <trkpt lat="47.81104" lon="-2.48547">
        <ele>88.6</ele>
        <time>2025-02-11T12:07:30Z</time>
      </trkpt>
      <trkpt lat="47.81104" lon="-2.48547">
        <ele>88.6</ele>
        <time>2025-02-11T12:07:31Z</time>
      </trkpt>
      <trkpt lat="47.81104" lon="-2.48547">
        <ele>88.6</ele>
        <time>2025-02-11T12:07:32Z</time>
      </trkpt>
      <trkpt lat="47.81104" lon="-2.48547">
        <ele>88.6</ele>
        <time>2025-02-11T12:07:33Z</time>
      </trkpt>
      <trkpt lat="47.81104" lon="-2.48547">
        <ele>88.6</ele>
        <time>2025-02-11T12:07:34Z</time>
      </trkpt>
      <trkpt lat="47.81104" lon="-2.48547">
        <ele>88.6</ele>
        <time>2025-02-11T12:07:35Z</time>
      </trkpt>
      <trkpt lat="47.81104" lon="-2.48547">
        <ele>88.6</ele>
        <time>2025-02-11T12:07:36Z</time>
      </trkpt>
      <trkpt lat="47.81104" lon="-2.48547">
        <ele>88.6</ele>
        <time>2025-02-11T12:07:37Z</time>
      </trkpt>
      <trkpt lat="47.81104" lon="-2.48547">
        <ele>88.6</ele>
        <time>2025-02-11T12:07:38Z</time>
      </trkpt>
      <trkpt lat="47.81104" lon="-2.48547">
        <ele>88.6</ele>
        <time>2025-02-11T12:07:39Z</time>
      </trkpt>
      <trkpt lat="47.81104" lon="-2.48547">
        <ele>88.6</ele>
        <time>2025-02-11T12:07:40Z</time>
      </trkpt>
      <trkpt lat="47.81104" lon="-2.48547">
        <ele>88.6</ele>
        <time>2025-02-11T12:07:41Z</time>
      </trkpt>
      <trkpt lat="47.81104" lon="-2.48547">
        <ele>88.6</ele>
        <time>2025-02-11T12:07:42Z</time>
      </trkpt>
      <trkpt lat="47.81104" lon="-2.48547">
        <ele>88.6</ele>
        <time>2025-02-11T12:07:43Z</time>
      </trkpt>
      <trkpt lat="47.81104" lon="-2.48547">
        <ele>88.6</ele>
        <time>2025-02-11T12:07:44Z</time>
      </trkpt>
      <trkpt lat="47.81104" lon="-2.48547">
        <ele>88.6</ele>
        <time>2025-02-11T12:07:45Z</time>
      </trkpt>
      <trkpt lat="47.81104" lon="-2.48547">
        <ele>88.6</ele>
        <time>2025-02-11T12:07:46Z</time>
      </trkpt>
      <trkpt lat="47.81104" lon="-2.48547">
        <ele>88.6</ele>
        <time>2025-02-11T12:07:47Z</time>
      </trkpt>
      <trkpt lat="47.81104" lon="-2.48547">
        <ele>88.6</ele>
        <time>2025-02-11T12:07:48Z</time>
      </trkpt>
      <trkpt lat="47.81104" lon="-2.48547">
        <ele>88.6</ele>
        <time>2025-02-11T12:07:49Z</time>
      </trkpt>
      <trkpt lat="47.81104" lon="-2.48547">
        <ele>88.6</ele>
        <time>2025-02-11T12:07:50Z</time>
      </trkpt>
      <trkpt lat="47.81104" lon="-2.48547">
        <ele>88.6</ele>
        <time>2025-02-11T12:07:51Z</time>
      </trkpt>
      <trkpt lat="47.81104" lon="-2.48547">
        <ele>88.6</ele>
        <time>2025-02-11T12:07:52Z</time>
      </trkpt>
      <trkpt lat="47.81104" lon="-2.48547">
        <ele>88.6</ele>
        <time>2025-02-11T12:07:53Z</time>
      </trkpt>
      <trkpt lat="47.81104" lon="-2.48547">
        <ele>88.6</ele>
        <time>2025-02-11T12:07:54Z</time>
      </trkpt>
      <trkpt lat="47.81104" lon="-2.48547">
        <ele>88.6</ele>
        <time>2025-02-11T12:07:55Z</time>
      </trkpt>
      <trkpt lat="47.81104" lon="-2.48547">
        <ele>88.6</ele>
        <time>2025-02-11T12:07:56Z</time>
      </trkpt>
      <trkpt lat="47.81104" lon="-2.48547">
        <ele>88.6</ele>
        <time>2025-02-11T12:07:57Z</time>
      </trkpt>
      <trkpt lat="47.81104" lon="-2.48547">
        <ele>88.6</ele>
        <time>2025-02-11T12:07:58Z</time>
      </trkpt>
      <trkpt lat="47.81104" lon="-2.48547">
        <ele>88.6</ele>
        <time>2025-02-11T12:07:59Z</time>
      </trkpt>
      <trkpt lat="47.81104" lon="-2.48547">
        <ele>88.6</ele>
        <time>2025-02-11T12:08:00Z</time>
      </trkpt>
      <trkpt lat="47.81104" lon="-2.48547">
        <ele>88.6</ele>
        <time>2025-02-11T12:08:01Z</time>
      </trkpt>
      <trkpt lat="47.81104" lon="-2.48547">
        <ele>88.6</ele>
        <time>2025-02-11T12:08:02Z</time>
      </trkpt>
      <trkpt lat="47.81104" lon="-2.48547">
        <ele>88.6</ele>
        <time>2025-02-11T12:08:03Z</time>
      </trkpt>
      <trkpt lat="47.81104" lon="-2.48547">
        <ele>88.6</ele>
        <time>2025-02-11T12:08:04Z</time>
      </trkpt>
      <trkpt lat="47.81104" lon="-2.48547">
        <ele>88.6</ele>
        <time>2025-02-11T12:08:05Z</time>
      </trkpt>
      <trkpt lat="47.81104" lon="-2.48547">
        <ele>88.6</ele>
        <time>2025-02-11T12:08:06Z</time>
      </trkpt>
      <trkpt lat="47.81104" lon="-2.48547">
        <ele>88.6</ele>
        <time>2025-02-11T12:08:07Z</time>
      </trkpt>
      <trkpt lat="47.81104" lon="-2.48547">
        <ele>88.6</ele>
        <time>2025-02-11T12:08:08Z</time>
      </trkpt>
      <trkpt lat="47.81104" lon="-2.48547">
        <ele>88.6</ele>
        <time>2025-02-11T12:08:09Z</time>
      </trkpt>
      <trkpt lat="47.81104" lon="-2.48547">
        <ele>88.6</ele>
        <time>2025-02-11T12:08:10Z</time>
      </trkpt>
      <trkpt lat="47.81104" lon="-2.48547">
        <ele>88.6</ele>
        <time>2025-02-11T12:08:11Z</time>
      </trkpt>
      <trkpt lat="47.81104" lon="-2.48547">
        <ele>88.6</ele>
        <time>2025-02-11T12:08:12Z</time>
      </trkpt>
      <trkpt lat="47.81104" lon="-2.48547">
        <ele>88.6</ele>
        <time>2025-02-11T12:08:13Z</time>
      </trkpt>
      <trkpt lat="47.81104" lon="-2.48547">
        <ele>88.6</ele>
        <time>2025-02-11T12:08:14Z</time>
      </trkpt>
      <trkpt lat="47.81104" lon="-2.48547">
        <ele>88.6</ele>
        <time>2025-02-11T12:08:15Z</time>
      </trkpt>
      <trkpt lat="47.81104" lon="-2.48547">
        <ele>88.6</ele>
        <time>2025-02-11T12:08:16Z</time>
      </trkpt>
      <trkpt lat="47.81104" lon="-2.48547">
        <ele>88.6</ele>
        <time>2025-02-11T12:08:17Z</time>
      </trkpt>
      <trkpt lat="47.81104" lon="-2.48547">
        <ele>88.6</ele>
        <time>2025-02-11T12:08:18Z</time>
      </trkpt>
      <trkpt lat="47.81104" lon="-2.48547">
        <ele>88.6</ele>
        <time>2025-02-11T12:08:19Z</time>
      </trkpt>
      <trkpt lat="47.81104" lon="-2.48547">
        <ele>88.6</ele>
        <time>2025-02-11T12:08:20Z</time>
      </trkpt>
      <trkpt lat="47.81104" lon="-2.48547">
        <ele>88.6</ele>
        <time>2025-02-11T12:08:21Z</time>
      </trkpt>
      <trkpt lat="47.81104" lon="-2.48547">
        <ele>88.6</ele>
        <time>2025-02-11T12:08:22Z</time>
      </trkpt>
      <trkpt lat="47.81104" lon="-2.48547">
        <ele>88.6</ele>
        <time>2025-02-11T12:08:23Z</time>
      </trkpt>
      <trkpt lat="47.81104" lon="-2.48547">
        <ele>88.6</ele>
        <time>2025-02-11T12:08:24Z</time>
      </trkpt>
      <trkpt lat="47.81104" lon="-2.48547">
        <ele>88.6</ele>
        <time>2025-02-11T12:08:25Z</time>
      </trkpt>
      <trkpt lat="47.81104" lon="-2.48547">
        <ele>88.6</ele>
        <time>2025-02-11T12:08:26Z</time>
      </trkpt>
      <trkpt lat="47.81104" lon="-2.48547">
        <ele>88.6</ele>
        <time>2025-02-11T12:08:27Z</time>
      </trkpt>
      <trkpt lat="47.81104" lon="-2.48547">
        <ele>88.6</ele>
        <time>2025-02-11T12:08:28Z</time>
      </trkpt>
      <trkpt lat="47.81104" lon="-2.48547">
        <ele>88.6</ele>
        <time>2025-02-11T12:08:29Z</time>
      </trkpt>
      <trkpt lat="47.81104" lon="-2.48547">
        <ele>88.6</ele>
        <time>2025-02-11T12:08:30Z</time>
      </trkpt>
      <trkpt lat="47.81104" lon="-2.48547">
        <ele>88.6</ele>
        <time>2025-02-11T12:08:31Z</time>
      </trkpt>
      <trkpt lat="47.81104" lon="-2.48547">
        <ele>88.6</ele>
        <time>2025-02-11T12:08:32Z</time>
      </trkpt>
      <trkpt lat="47.81104" lon="-2.48547">
        <ele>88.6</ele>
        <time>2025-02-11T12:08:33Z</time>
      </trkpt>
      <trkpt lat="47.81104" lon="-2.48547">
        <ele>88.6</ele>
        <time>2025-02-11T12:08:34Z</time>
      </trkpt>
      <trkpt lat="47.81104" lon="-2.48547">
        <ele>88.6</ele>
        <time>2025-02-11T12:08:35Z</time>
      </trkpt>
      <trkpt lat="47.81104" lon="-2.48547">
        <ele>88.6</ele>
        <time>2025-02-11T12:08:36Z</time>
      </trkpt>
      <trkpt lat="47.81104" lon="-2.48547">
        <ele>88.6</ele>
        <time>2025-02-11T12:08:37Z</time>
      </trkpt>
      <trkpt lat="47.81104" lon="-2.48547">
        <ele>88.6</ele>
        <time>2025-02-11T12:08:38Z</time>
      </trkpt>
      <trkpt lat="47.81104" lon="-2.48547">
        <ele>88.6</ele>
        <time>2025-02-11T12:08:39Z</time>
      </trkpt>
      <trkpt lat="47.81104" lon="-2.48547">
        <ele>88.6</ele>
        <time>2025-02-11T12:08:40Z</time>
      </trkpt>
      <trkpt lat="47.81104" lon="-2.48546">
        <ele>88.7</ele>
        <time>2025-02-11T12:08:41Z</time>
      </trkpt>
      <trkpt lat="47.81104" lon="-2.48546">
        <ele>88.8</ele>
        <time>2025-02-11T12:08:42Z</time>
      </trkpt>
      <trkpt lat="47.81105" lon="-2.48545">
        <ele>89</ele>
        <time>2025-02-11T12:08:43Z</time>
      </trkpt>
      <trkpt lat="47.81105" lon="-2.48545">
        <ele>89</ele>
        <time>2025-02-11T12:08:44Z</time>
      </trkpt>
      <trkpt lat="47.81105" lon="-2.48545">
        <ele>89</ele>
        <time>2025-02-11T12:08:45Z</time>
      </trkpt>
      <trkpt lat="47.81105" lon="-2.48545">
        <ele>89</ele>
        <time>2025-02-11T12:08:46Z</time>
      </trkpt>
      <trkpt lat="47.81105" lon="-2.48545">
        <ele>89</ele>
        <time>2025-02-11T12:08:47Z</time>
      </trkpt>
      <trkpt lat="47.81105" lon="-2.48545">
        <ele>89</ele>
        <time>2025-02-11T12:08:48Z</time>
      </trkpt>
      <trkpt lat="47.81105" lon="-2.48544">
        <ele>89</ele>
        <time>2025-02-11T12:08:49Z</time>
      </trkpt>
      <trkpt lat="47.81105" lon="-2.48544">
        <ele>89</ele>
        <time>2025-02-11T12:08:50Z</time>
      </trkpt>
      <trkpt lat="47.81105" lon="-2.48544">
        <ele>89</ele>
        <time>2025-02-11T12:08:51Z</time>
      </trkpt>
      <trkpt lat="47.81105" lon="-2.48544">
        <ele>89</ele>
        <time>2025-02-11T12:08:52Z</time>
      </trkpt>
      <trkpt lat="47.81105" lon="-2.48544">
        <ele>89</ele>
        <time>2025-02-11T12:08:53Z</time>
      </trkpt>
      <trkpt lat="47.81105" lon="-2.48544">
        <ele>88.9</ele>
        <time>2025-02-11T12:08:54Z</time>
      </trkpt>
      <trkpt lat="47.81105" lon="-2.48544">
        <ele>88.9</ele>
        <time>2025-02-11T12:08:55Z</time>
      </trkpt>
      <trkpt lat="47.81105" lon="-2.48544">
        <ele>88.9</ele>
        <time>2025-02-11T12:08:56Z</time>
      </trkpt>
      <trkpt lat="47.81105" lon="-2.48544">
        <ele>88.9</ele>
        <time>2025-02-11T12:08:57Z</time>
      </trkpt>
      <trkpt lat="47.81105" lon="-2.48544">
        <ele>88.9</ele>
        <time>2025-02-11T12:08:58Z</time>
      </trkpt>
      <trkpt lat="47.81105" lon="-2.48544">
        <ele>88.9</ele>
        <time>2025-02-11T12:08:59Z</time>
      </trkpt>
      <trkpt lat="47.81105" lon="-2.48544">
        <ele>88.9</ele>
        <time>2025-02-11T12:09:00Z</time>
      </trkpt>
      <trkpt lat="47.81105" lon="-2.48545">
        <ele>88.9</ele>
        <time>2025-02-11T12:09:01Z</time>
      </trkpt>
      <trkpt lat="47.81105" lon="-2.48545">
        <ele>88.9</ele>
        <time>2025-02-11T12:09:02Z</time>
      </trkpt>
      <trkpt lat="47.81104" lon="-2.48545">
        <ele>88.9</ele>
        <time>2025-02-11T12:09:03Z</time>
      </trkpt>
      <trkpt lat="47.81104" lon="-2.48545">
        <ele>88.8</ele>
        <time>2025-02-11T12:09:04Z</time>
      </trkpt>
      <trkpt lat="47.81104" lon="-2.48545">
        <ele>88.8</ele>
        <time>2025-02-11T12:09:05Z</time>
      </trkpt>
      <trkpt lat="47.81104" lon="-2.48545">
        <ele>88.8</ele>
        <time>2025-02-11T12:09:06Z</time>
      </trkpt>
      <trkpt lat="47.81104" lon="-2.48545">
        <ele>88.8</ele>
        <time>2025-02-11T12:09:07Z</time>
      </trkpt>
      <trkpt lat="47.81104" lon="-2.48545">
        <ele>88.8</ele>
        <time>2025-02-11T12:09:08Z</time>
      </trkpt>
      <trkpt lat="47.81104" lon="-2.48545">
        <ele>88.8</ele>
        <time>2025-02-11T12:09:09Z</time>
      </trkpt>
      <trkpt lat="47.81104" lon="-2.48545">
        <ele>88.8</ele>
        <time>2025-02-11T12:09:10Z</time>
      </trkpt>
      <trkpt lat="47.81104" lon="-2.48545">
        <ele>88.8</ele>
        <time>2025-02-11T12:09:11Z</time>
      </trkpt>
      <trkpt lat="47.81104" lon="-2.48545">
        <ele>88.8</ele>
        <time>2025-02-11T12:09:12Z</time>
      </trkpt>
      <trkpt lat="47.81104" lon="-2.48545">
        <ele>88.8</ele>
        <time>2025-02-11T12:09:13Z</time>
      </trkpt>
      <trkpt lat="47.81104" lon="-2.48545">
        <ele>88.8</ele>
        <time>2025-02-11T12:09:14Z</time>
      </trkpt>
      <trkpt lat="47.81104" lon="-2.48545">
        <ele>88.8</ele>
        <time>2025-02-11T12:09:15Z</time>
      </trkpt>
      <trkpt lat="47.81104" lon="-2.48545">
        <ele>88.8</ele>
        <time>2025-02-11T12:09:16Z</time>
      </trkpt>
      <trkpt lat="47.81104" lon="-2.48545">
        <ele>88.8</ele>
        <time>2025-02-11T12:09:17Z</time>
      </trkpt>
      <trkpt lat="47.81104" lon="-2.48545">
        <ele>88.8</ele>
        <time>2025-02-11T12:09:18Z</time>
      </trkpt>
      <trkpt lat="47.81104" lon="-2.48545">
        <ele>88.8</ele>
        <time>2025-02-11T12:09:19Z</time>
      </trkpt>
      <trkpt lat="47.81104" lon="-2.48545">
        <ele>88.8</ele>
        <time>2025-02-11T12:09:20Z</time>
      </trkpt>
      <trkpt lat="47.81104" lon="-2.48545">
        <ele>88.8</ele>
        <time>2025-02-11T12:09:21Z</time>
      </trkpt>
      <trkpt lat="47.81104" lon="-2.48545">
        <ele>88.8</ele>
        <time>2025-02-11T12:09:22Z</time>
      </trkpt>
      <trkpt lat="47.81104" lon="-2.48545">
        <ele>88.8</ele>
        <time>2025-02-11T12:09:23Z</time>
      </trkpt>
      <trkpt lat="47.81104" lon="-2.48545">
        <ele>88.7</ele>
        <time>2025-02-11T12:09:24Z</time>
      </trkpt>
      <trkpt lat="47.81104" lon="-2.48545">
        <ele>88.8</ele>
        <time>2025-02-11T12:09:25Z</time>
      </trkpt>
      <trkpt lat="47.81104" lon="-2.48545">
        <ele>88.8</ele>
        <time>2025-02-11T12:09:26Z</time>
      </trkpt>
      <trkpt lat="47.81104" lon="-2.48545">
        <ele>88.8</ele>
        <time>2025-02-11T12:09:27Z</time>
      </trkpt>
      <trkpt lat="47.81104" lon="-2.48545">
        <ele>88.8</ele>
        <time>2025-02-11T12:09:28Z</time>
      </trkpt>
      <trkpt lat="47.81104" lon="-2.48545">
        <ele>88.8</ele>
        <time>2025-02-11T12:09:29Z</time>
      </trkpt>
      <trkpt lat="47.81104" lon="-2.48545">
        <ele>88.8</ele>
        <time>2025-02-11T12:09:30Z</time>
      </trkpt>
      <trkpt lat="47.81104" lon="-2.48545">
        <ele>88.8</ele>
        <time>2025-02-11T12:09:31Z</time>
      </trkpt>
      <trkpt lat="47.81104" lon="-2.48545">
        <ele>88.8</ele>
        <time>2025-02-11T12:09:32Z</time>
      </trkpt>
      <trkpt lat="47.81104" lon="-2.48545">
        <ele>88.8</ele>
        <time>2025-02-11T12:09:33Z</time>
      </trkpt>
      <trkpt lat="47.81104" lon="-2.48545">
        <ele>88.8</ele>
        <time>2025-02-11T12:09:34Z</time>
      </trkpt>
      <trkpt lat="47.81104" lon="-2.48545">
        <ele>88.8</ele>
        <time>2025-02-11T12:09:35Z</time>
      </trkpt>
      <trkpt lat="47.81104" lon="-2.48545">
        <ele>88.8</ele>
        <time>2025-02-11T12:09:36Z</time>
      </trkpt>
      <trkpt lat="47.81104" lon="-2.48545">
        <ele>88.8</ele>
        <time>2025-02-11T12:09:37Z</time>
      </trkpt>
      <trkpt lat="47.81104" lon="-2.48545">
        <ele>88.8</ele>
        <time>2025-02-11T12:09:38Z</time>
      </trkpt>
      <trkpt lat="47.81104" lon="-2.48545">
        <ele>88.8</ele>
        <time>2025-02-11T12:09:39Z</time>
      </trkpt>
      <trkpt lat="47.81104" lon="-2.48545">
        <ele>88.8</ele>
        <time>2025-02-11T12:09:40Z</time>
      </trkpt>
      <trkpt lat="47.81104" lon="-2.48545">
        <ele>88.8</ele>
        <time>2025-02-11T12:09:41Z</time>
      </trkpt>
      <trkpt lat="47.81104" lon="-2.48545">
        <ele>88.8</ele>
        <time>2025-02-11T12:09:42Z</time>
      </trkpt>
      <trkpt lat="47.81104" lon="-2.48545">
        <ele>88.8</ele>
        <time>2025-02-11T12:09:43Z</time>
      </trkpt>
      <trkpt lat="47.81104" lon="-2.48545">
        <ele>88.8</ele>
        <time>2025-02-11T12:09:44Z</time>
      </trkpt>
      <trkpt lat="47.81104" lon="-2.48545">
        <ele>88.8</ele>
        <time>2025-02-11T12:09:45Z</time>
      </trkpt>
      <trkpt lat="47.81104" lon="-2.48545">
        <ele>88.8</ele>
        <time>2025-02-11T12:09:46Z</time>
      </trkpt>
      <trkpt lat="47.81104" lon="-2.48545">
        <ele>88.8</ele>
        <time>2025-02-11T12:09:47Z</time>
      </trkpt>
      <trkpt lat="47.81104" lon="-2.48545">
        <ele>88.8</ele>
        <time>2025-02-11T12:09:48Z</time>
      </trkpt>
      <trkpt lat="47.81104" lon="-2.48545">
        <ele>88.8</ele>
        <time>2025-02-11T12:09:49Z</time>
      </trkpt>
      <trkpt lat="47.81104" lon="-2.48545">
        <ele>88.8</ele>
        <time>2025-02-11T12:09:50Z</time>
      </trkpt>
      <trkpt lat="47.81104" lon="-2.48545">
        <ele>88.8</ele>
        <time>2025-02-11T12:09:51Z</time>
      </trkpt>
      <trkpt lat="47.81104" lon="-2.48545">
        <ele>88.8</ele>
        <time>2025-02-11T12:09:52Z</time>
      </trkpt>
      <trkpt lat="47.81104" lon="-2.48545">
        <ele>88.8</ele>
        <time>2025-02-11T12:09:53Z</time>
      </trkpt>
      <trkpt lat="47.81104" lon="-2.48545">
        <ele>88.8</ele>
        <time>2025-02-11T12:09:54Z</time>
      </trkpt>
      <trkpt lat="47.81104" lon="-2.48545">
        <ele>88.8</ele>
        <time>2025-02-11T12:09:55Z</time>
      </trkpt>
      <trkpt lat="47.81104" lon="-2.48545">
        <ele>88.8</ele>
        <time>2025-02-11T12:09:56Z</time>
      </trkpt>
      <trkpt lat="47.81104" lon="-2.48545">
        <ele>88.8</ele>
        <time>2025-02-11T12:09:57Z</time>
      </trkpt>
      <trkpt lat="47.81104" lon="-2.48545">
        <ele>88.8</ele>
        <time>2025-02-11T12:09:58Z</time>
      </trkpt>
      <trkpt lat="47.81104" lon="-2.48545">
        <ele>88.8</ele>
        <time>2025-02-11T12:09:59Z</time>
      </trkpt>
      <trkpt lat="47.81104" lon="-2.48545">
        <ele>88.8</ele>
        <time>2025-02-11T12:10:00Z</time>
      </trkpt>
      <trkpt lat="47.81104" lon="-2.48545">
        <ele>88.8</ele>
        <time>2025-02-11T12:10:01Z</time>
      </trkpt>
      <trkpt lat="47.81104" lon="-2.48546">
        <ele>88.8</ele>
        <time>2025-02-11T12:10:02Z</time>
      </trkpt>
      <trkpt lat="47.81104" lon="-2.48546">
        <ele>88.8</ele>
        <time>2025-02-11T12:10:03Z</time>
      </trkpt>
      <trkpt lat="47.81105" lon="-2.48546">
        <ele>88.8</ele>
        <time>2025-02-11T12:10:04Z</time>
      </trkpt>
      <trkpt lat="47.81105" lon="-2.48546">
        <ele>88.8</ele>
        <time>2025-02-11T12:10:05Z</time>
      </trkpt>
      <trkpt lat="47.81105" lon="-2.48546">
        <ele>88.8</ele>
        <time>2025-02-11T12:10:06Z</time>
      </trkpt>
      <trkpt lat="47.81105" lon="-2.48546">
        <ele>88.8</ele>
        <time>2025-02-11T12:10:07Z</time>
      </trkpt>
      <trkpt lat="47.81105" lon="-2.48546">
        <ele>88.8</ele>
        <time>2025-02-11T12:10:08Z</time>
      </trkpt>
      <trkpt lat="47.81104" lon="-2.48546">
        <ele>88.8</ele>
        <time>2025-02-11T12:10:09Z</time>
      </trkpt>
      <trkpt lat="47.81104" lon="-2.48547">
        <ele>88.8</ele>
        <time>2025-02-11T12:10:10Z</time>
      </trkpt>
      <trkpt lat="47.81104" lon="-2.48547">
        <ele>88.8</ele>
        <time>2025-02-11T12:10:11Z</time>
      </trkpt>
      <trkpt lat="47.81104" lon="-2.48547">
        <ele>88.7</ele>
        <time>2025-02-11T12:10:12Z</time>
      </trkpt>
      <trkpt lat="47.81104" lon="-2.48547">
        <ele>88.7</ele>
        <time>2025-02-11T12:10:13Z</time>
      </trkpt>
      <trkpt lat="47.81104" lon="-2.48547">
        <ele>88.7</ele>
        <time>2025-02-11T12:10:14Z</time>
      </trkpt>
      <trkpt lat="47.81104" lon="-2.48547">
        <ele>88.7</ele>
        <time>2025-02-11T12:10:15Z</time>
      </trkpt>
      <trkpt lat="47.81104" lon="-2.48547">
        <ele>88.7</ele>
        <time>2025-02-11T12:10:16Z</time>
      </trkpt>
      <trkpt lat="47.81104" lon="-2.48547">
        <ele>88.7</ele>
        <time>2025-02-11T12:10:17Z</time>
      </trkpt>
      <trkpt lat="47.81104" lon="-2.48547">
        <ele>88.7</ele>
        <time>2025-02-11T12:10:18Z</time>
      </trkpt>
      <trkpt lat="47.81104" lon="-2.48547">
        <ele>88.7</ele>
        <time>2025-02-11T12:10:19Z</time>
      </trkpt>
      <trkpt lat="47.81104" lon="-2.48547">
        <ele>88.7</ele>
        <time>2025-02-11T12:10:20Z</time>
      </trkpt>
      <trkpt lat="47.81104" lon="-2.48547">
        <ele>88.7</ele>
        <time>2025-02-11T12:10:21Z</time>
      </trkpt>
      <trkpt lat="47.81104" lon="-2.48547">
        <ele>88.7</ele>
        <time>2025-02-11T12:10:22Z</time>
      </trkpt>
      <trkpt lat="47.81104" lon="-2.48547">
        <ele>88.7</ele>
        <time>2025-02-11T12:10:23Z</time>
      </trkpt>
      <trkpt lat="47.81104" lon="-2.48547">
        <ele>88.7</ele>
        <time>2025-02-11T12:10:24Z</time>
      </trkpt>
      <trkpt lat="47.81104" lon="-2.48547">
        <ele>88.7</ele>
        <time>2025-02-11T12:10:25Z</time>
      </trkpt>
      <trkpt lat="47.81104" lon="-2.48547">
        <ele>88.7</ele>
        <time>2025-02-11T12:10:26Z</time>
      </trkpt>
      <trkpt lat="47.81104" lon="-2.48547">
        <ele>88.7</ele>
        <time>2025-02-11T12:10:27Z</time>
      </trkpt>
      <trkpt lat="47.81104" lon="-2.48547">
        <ele>88.7</ele>
        <time>2025-02-11T12:10:28Z</time>
      </trkpt>
      <trkpt lat="47.81104" lon="-2.48547">
        <ele>88.7</ele>
        <time>2025-02-11T12:10:29Z</time>
      </trkpt>
      <trkpt lat="47.81104" lon="-2.48547">
        <ele>88.8</ele>
        <time>2025-02-11T12:10:30Z</time>
      </trkpt>
      <trkpt lat="47.81104" lon="-2.48547">
        <ele>88.8</ele>
        <time>2025-02-11T12:10:31Z</time>
      </trkpt>
      <trkpt lat="47.81104" lon="-2.48547">
        <ele>88.8</ele>
        <time>2025-02-11T12:10:32Z</time>
      </trkpt>
      <trkpt lat="47.81104" lon="-2.48547">
        <ele>88.8</ele>
        <time>2025-02-11T12:10:33Z</time>
      </trkpt>
      <trkpt lat="47.81104" lon="-2.48547">
        <ele>88.8</ele>
        <time>2025-02-11T12:10:34Z</time>
      </trkpt>
      <trkpt lat="47.81104" lon="-2.48547">
        <ele>88.8</ele>
        <time>2025-02-11T12:10:35Z</time>
      </trkpt>
      <trkpt lat="47.81104" lon="-2.48547">
        <ele>88.8</ele>
        <time>2025-02-11T12:10:36Z</time>
      </trkpt>
      <trkpt lat="47.81104" lon="-2.48547">
        <ele>88.8</ele>
        <time>2025-02-11T12:10:37Z</time>
      </trkpt>
      <trkpt lat="47.81104" lon="-2.48547">
        <ele>88.8</ele>
        <time>2025-02-11T12:10:38Z</time>
      </trkpt>
      <trkpt lat="47.81106" lon="-2.48547">
        <ele>89</ele>
        <time>2025-02-11T12:10:39Z</time>
      </trkpt>
      <trkpt lat="47.81106" lon="-2.48547">
        <ele>89.1</ele>
        <time>2025-02-11T12:10:40Z</time>
      </trkpt>
      <trkpt lat="47.81106" lon="-2.48547">
        <ele>89.1</ele>
        <time>2025-02-11T12:10:41Z</time>
      </trkpt>
      <trkpt lat="47.81106" lon="-2.48547">
        <ele>89.1</ele>
        <time>2025-02-11T12:10:42Z</time>
      </trkpt>
      <trkpt lat="47.81106" lon="-2.48547">
        <ele>89.1</ele>
        <time>2025-02-11T12:10:43Z</time>
      </trkpt>
      <trkpt lat="47.81105" lon="-2.48547">
        <ele>89</ele>
        <time>2025-02-11T12:10:44Z</time>
      </trkpt>
      <trkpt lat="47.81105" lon="-2.48547">
        <ele>89</ele>
        <time>2025-02-11T12:10:45Z</time>
      </trkpt>
      <trkpt lat="47.81105" lon="-2.48547">
        <ele>89</ele>
        <time>2025-02-11T12:10:46Z</time>
      </trkpt>
      <trkpt lat="47.81105" lon="-2.48547">
        <ele>89</ele>
        <time>2025-02-11T12:10:47Z</time>
      </trkpt>
      <trkpt lat="47.81105" lon="-2.48547">
        <ele>89</ele>
        <time>2025-02-11T12:10:48Z</time>
      </trkpt>
      <trkpt lat="47.81105" lon="-2.48547">
        <ele>89</ele>
        <time>2025-02-11T12:10:49Z</time>
      </trkpt>
      <trkpt lat="47.81105" lon="-2.48547">
        <ele>89</ele>
        <time>2025-02-11T12:10:50Z</time>
      </trkpt>
      <trkpt lat="47.81105" lon="-2.48547">
        <ele>89</ele>
        <time>2025-02-11T12:10:51Z</time>
      </trkpt>
      <trkpt lat="47.81105" lon="-2.48547">
        <ele>89</ele>
        <time>2025-02-11T12:10:52Z</time>
      </trkpt>
      <trkpt lat="47.81105" lon="-2.48547">
        <ele>89</ele>
        <time>2025-02-11T12:10:53Z</time>
      </trkpt>
      <trkpt lat="47.81105" lon="-2.48547">
        <ele>89</ele>
        <time>2025-02-11T12:10:54Z</time>
      </trkpt>
      <trkpt lat="47.81105" lon="-2.48547">
        <ele>89</ele>
        <time>2025-02-11T12:10:55Z</time>
      </trkpt>
      <trkpt lat="47.81105" lon="-2.48547">
        <ele>89</ele>
        <time>2025-02-11T12:10:56Z</time>
      </trkpt>
      <trkpt lat="47.81105" lon="-2.48547">
        <ele>89</ele>
        <time>2025-02-11T12:10:57Z</time>
      </trkpt>
      <trkpt lat="47.81105" lon="-2.48547">
        <ele>89</ele>
        <time>2025-02-11T12:10:58Z</time>
      </trkpt>
      <trkpt lat="47.81105" lon="-2.48547">
        <ele>89</ele>
        <time>2025-02-11T12:10:59Z</time>
      </trkpt>
      <trkpt lat="47.81105" lon="-2.48547">
        <ele>89</ele>
        <time>2025-02-11T12:11:00Z</time>
      </trkpt>
      <trkpt lat="47.81105" lon="-2.48547">
        <ele>89</ele>
        <time>2025-02-11T12:11:01Z</time>
      </trkpt>
      <trkpt lat="47.81105" lon="-2.48547">
        <ele>89</ele>
        <time>2025-02-11T12:11:02Z</time>
      </trkpt>
      <trkpt lat="47.81105" lon="-2.48547">
        <ele>89</ele>
        <time>2025-02-11T12:11:03Z</time>
      </trkpt>
      <trkpt lat="47.81105" lon="-2.48547">
        <ele>89</ele>
        <time>2025-02-11T12:11:04Z</time>
      </trkpt>
      <trkpt lat="47.81105" lon="-2.48546">
        <ele>89</ele>
        <time>2025-02-11T12:11:05Z</time>
      </trkpt>
      <trkpt lat="47.81105" lon="-2.48546">
        <ele>89</ele>
        <time>2025-02-11T12:11:06Z</time>
      </trkpt>
      <trkpt lat="47.81105" lon="-2.48546">
        <ele>89</ele>
        <time>2025-02-11T12:11:07Z</time>
      </trkpt>
      <trkpt lat="47.81105" lon="-2.48546">
        <ele>89</ele>
        <time>2025-02-11T12:11:08Z</time>
      </trkpt>
      <trkpt lat="47.81105" lon="-2.48546">
        <ele>89</ele>
        <time>2025-02-11T12:11:09Z</time>
      </trkpt>
      <trkpt lat="47.81105" lon="-2.48546">
        <ele>89</ele>
        <time>2025-02-11T12:11:10Z</time>
      </trkpt>
      <trkpt lat="47.81105" lon="-2.48546">
        <ele>89</ele>
        <time>2025-02-11T12:11:11Z</time>
      </trkpt>
      <trkpt lat="47.81105" lon="-2.48546">
        <ele>89</ele>
        <time>2025-02-11T12:11:12Z</time>
      </trkpt>
      <trkpt lat="47.81105" lon="-2.48546">
        <ele>89</ele>
        <time>2025-02-11T12:11:13Z</time>
      </trkpt>
      <trkpt lat="47.81105" lon="-2.48546">
        <ele>89</ele>
        <time>2025-02-11T12:11:14Z</time>
      </trkpt>
      <trkpt lat="47.81105" lon="-2.48546">
        <ele>89</ele>
        <time>2025-02-11T12:11:15Z</time>
      </trkpt>
      <trkpt lat="47.81105" lon="-2.48546">
        <ele>89</ele>
        <time>2025-02-11T12:11:16Z</time>
      </trkpt>
      <trkpt lat="47.81105" lon="-2.48546">
        <ele>89</ele>
        <time>2025-02-11T12:11:17Z</time>
      </trkpt>
      <trkpt lat="47.81105" lon="-2.48546">
        <ele>89</ele>
        <time>2025-02-11T12:11:18Z</time>
      </trkpt>
      <trkpt lat="47.81105" lon="-2.48546">
        <ele>89</ele>
        <time>2025-02-11T12:11:19Z</time>
      </trkpt>
      <trkpt lat="47.81105" lon="-2.48546">
        <ele>89</ele>
        <time>2025-02-11T12:11:20Z</time>
      </trkpt>
      <trkpt lat="47.81105" lon="-2.48546">
        <ele>89</ele>
        <time>2025-02-11T12:11:21Z</time>
      </trkpt>
      <trkpt lat="47.81105" lon="-2.48546">
        <ele>89</ele>
        <time>2025-02-11T12:11:22Z</time>
      </trkpt>
      <trkpt lat="47.81105" lon="-2.48546">
        <ele>89</ele>
        <time>2025-02-11T12:11:23Z</time>
      </trkpt>
      <trkpt lat="47.81105" lon="-2.48546">
        <ele>89</ele>
        <time>2025-02-11T12:11:24Z</time>
      </trkpt>
      <trkpt lat="47.81105" lon="-2.48546">
        <ele>89</ele>
        <time>2025-02-11T12:11:25Z</time>
      </trkpt>
      <trkpt lat="47.81105" lon="-2.48546">
        <ele>89</ele>
        <time>2025-02-11T12:11:26Z</time>
      </trkpt>
      <trkpt lat="47.81106" lon="-2.48547">
        <ele>89</ele>
        <time>2025-02-11T12:11:27Z</time>
      </trkpt>
      <trkpt lat="47.81106" lon="-2.48547">
        <ele>89</ele>
        <time>2025-02-11T12:11:28Z</time>
      </trkpt>
      <trkpt lat="47.81106" lon="-2.48547">
        <ele>89</ele>
        <time>2025-02-11T12:11:29Z</time>
      </trkpt>
      <trkpt lat="47.81106" lon="-2.48547">
        <ele>89</ele>
        <time>2025-02-11T12:11:30Z</time>
      </trkpt>
      <trkpt lat="47.81106" lon="-2.48547">
        <ele>89</ele>
        <time>2025-02-11T12:11:31Z</time>
      </trkpt>
      <trkpt lat="47.81106" lon="-2.48547">
        <ele>89</ele>
        <time>2025-02-11T12:11:32Z</time>
      </trkpt>
      <trkpt lat="47.81106" lon="-2.48547">
        <ele>89</ele>
        <time>2025-02-11T12:11:33Z</time>
      </trkpt>
      <trkpt lat="47.81106" lon="-2.48547">
        <ele>89</ele>
        <time>2025-02-11T12:11:34Z</time>
      </trkpt>
      <trkpt lat="47.81106" lon="-2.48547">
        <ele>89</ele>
        <time>2025-02-11T12:11:35Z</time>
      </trkpt>
      <trkpt lat="47.81105" lon="-2.48547">
        <ele>89</ele>
        <time>2025-02-11T12:11:36Z</time>
      </trkpt>
      <trkpt lat="47.81105" lon="-2.48547">
        <ele>88.9</ele>
        <time>2025-02-11T12:11:37Z</time>
      </trkpt>
      <trkpt lat="47.81105" lon="-2.48547">
        <ele>88.9</ele>
        <time>2025-02-11T12:11:38Z</time>
      </trkpt>
      <trkpt lat="47.81105" lon="-2.48547">
        <ele>88.9</ele>
        <time>2025-02-11T12:11:39Z</time>
      </trkpt>
      <trkpt lat="47.81105" lon="-2.48547">
        <ele>88.9</ele>
        <time>2025-02-11T12:11:40Z</time>
      </trkpt>
      <trkpt lat="47.81105" lon="-2.48547">
        <ele>88.9</ele>
        <time>2025-02-11T12:11:41Z</time>
      </trkpt>
      <trkpt lat="47.81105" lon="-2.48547">
        <ele>88.9</ele>
        <time>2025-02-11T12:11:42Z</time>
      </trkpt>
      <trkpt lat="47.81105" lon="-2.48547">
        <ele>88.9</ele>
        <time>2025-02-11T12:11:43Z</time>
      </trkpt>
      <trkpt lat="47.81105" lon="-2.48547">
        <ele>88.9</ele>
        <time>2025-02-11T12:11:44Z</time>
      </trkpt>
      <trkpt lat="47.81105" lon="-2.48547">
        <ele>88.9</ele>
        <time>2025-02-11T12:11:45Z</time>
      </trkpt>
      <trkpt lat="47.81105" lon="-2.48547">
        <ele>88.9</ele>
        <time>2025-02-11T12:11:46Z</time>
      </trkpt>
      <trkpt lat="47.81105" lon="-2.48547">
        <ele>88.9</ele>
        <time>2025-02-11T12:11:47Z</time>
      </trkpt>
      <trkpt lat="47.81105" lon="-2.48547">
        <ele>88.9</ele>
        <time>2025-02-11T12:11:48Z</time>
      </trkpt>
      <trkpt lat="47.81105" lon="-2.48547">
        <ele>88.9</ele>
        <time>2025-02-11T12:11:49Z</time>
      </trkpt>
      <trkpt lat="47.81105" lon="-2.48547">
        <ele>88.9</ele>
        <time>2025-02-11T12:11:50Z</time>
      </trkpt>
      <trkpt lat="47.81105" lon="-2.48547">
        <ele>88.9</ele>
        <time>2025-02-11T12:11:51Z</time>
      </trkpt>
      <trkpt lat="47.81105" lon="-2.48547">
        <ele>88.9</ele>
        <time>2025-02-11T12:11:52Z</time>
      </trkpt>
      <trkpt lat="47.81105" lon="-2.48547">
        <ele>88.9</ele>
        <time>2025-02-11T12:11:53Z</time>
      </trkpt>
      <trkpt lat="47.81105" lon="-2.48547">
        <ele>88.9</ele>
        <time>2025-02-11T12:11:54Z</time>
      </trkpt>
      <trkpt lat="47.81105" lon="-2.48547">
        <ele>88.9</ele>
        <time>2025-02-11T12:11:55Z</time>
      </trkpt>
      <trkpt lat="47.81105" lon="-2.48547">
        <ele>88.9</ele>
        <time>2025-02-11T12:11:56Z</time>
      </trkpt>
      <trkpt lat="47.81105" lon="-2.48547">
        <ele>88.9</ele>
        <time>2025-02-11T12:11:57Z</time>
      </trkpt>
      <trkpt lat="47.81105" lon="-2.48547">
        <ele>88.9</ele>
        <time>2025-02-11T12:11:58Z</time>
      </trkpt>
      <trkpt lat="47.81105" lon="-2.48548">
        <ele>88.8</ele>
        <time>2025-02-11T12:11:59Z</time>
      </trkpt>
      <trkpt lat="47.81105" lon="-2.48548">
        <ele>88.8</ele>
        <time>2025-02-11T12:12:00Z</time>
      </trkpt>
      <trkpt lat="47.81105" lon="-2.48548">
        <ele>88.8</ele>
        <time>2025-02-11T12:12:01Z</time>
      </trkpt>
      <trkpt lat="47.81105" lon="-2.48548">
        <ele>88.8</ele>
        <time>2025-02-11T12:12:02Z</time>
      </trkpt>
      <trkpt lat="47.81105" lon="-2.48548">
        <ele>88.8</ele>
        <time>2025-02-11T12:12:03Z</time>
      </trkpt>
      <trkpt lat="47.81105" lon="-2.48548">
        <ele>88.8</ele>
        <time>2025-02-11T12:12:04Z</time>
      </trkpt>
      <trkpt lat="47.81105" lon="-2.48548">
        <ele>88.8</ele>
        <time>2025-02-11T12:12:05Z</time>
      </trkpt>
      <trkpt lat="47.81105" lon="-2.48548">
        <ele>88.8</ele>
        <time>2025-02-11T12:12:06Z</time>
      </trkpt>
      <trkpt lat="47.81105" lon="-2.48548">
        <ele>88.8</ele>
        <time>2025-02-11T12:12:07Z</time>
      </trkpt>
      <trkpt lat="47.81105" lon="-2.48548">
        <ele>88.8</ele>
        <time>2025-02-11T12:12:08Z</time>
      </trkpt>
      <trkpt lat="47.81105" lon="-2.48548">
        <ele>88.8</ele>
        <time>2025-02-11T12:12:09Z</time>
      </trkpt>
      <trkpt lat="47.81105" lon="-2.48548">
        <ele>88.8</ele>
        <time>2025-02-11T12:12:10Z</time>
      </trkpt>
      <trkpt lat="47.81105" lon="-2.48548">
        <ele>88.8</ele>
        <time>2025-02-11T12:12:11Z</time>
      </trkpt>
      <trkpt lat="47.81105" lon="-2.48548">
        <ele>88.8</ele>
        <time>2025-02-11T12:12:12Z</time>
      </trkpt>
      <trkpt lat="47.81105" lon="-2.48548">
        <ele>88.8</ele>
        <time>2025-02-11T12:12:13Z</time>
      </trkpt>
      <trkpt lat="47.81105" lon="-2.48548">
        <ele>88.8</ele>
        <time>2025-02-11T12:12:14Z</time>
      </trkpt>
      <trkpt lat="47.81105" lon="-2.48548">
        <ele>88.8</ele>
        <time>2025-02-11T12:12:15Z</time>
      </trkpt>
      <trkpt lat="47.81105" lon="-2.48548">
        <ele>88.8</ele>
        <time>2025-02-11T12:12:16Z</time>
      </trkpt>
      <trkpt lat="47.81105" lon="-2.48548">
        <ele>88.8</ele>
        <time>2025-02-11T12:12:17Z</time>
      </trkpt>
      <trkpt lat="47.81105" lon="-2.48548">
        <ele>88.8</ele>
        <time>2025-02-11T12:12:18Z</time>
      </trkpt>
      <trkpt lat="47.81105" lon="-2.48548">
        <ele>88.8</ele>
        <time>2025-02-11T12:12:19Z</time>
      </trkpt>
      <trkpt lat="47.81105" lon="-2.48548">
        <ele>88.8</ele>
        <time>2025-02-11T12:12:20Z</time>
      </trkpt>
      <trkpt lat="47.81105" lon="-2.48548">
        <ele>88.8</ele>
        <time>2025-02-11T12:12:21Z</time>
      </trkpt>
      <trkpt lat="47.81105" lon="-2.48548">
        <ele>88.8</ele>
        <time>2025-02-11T12:12:22Z</time>
      </trkpt>
      <trkpt lat="47.81105" lon="-2.48548">
        <ele>88.8</ele>
        <time>2025-02-11T12:12:23Z</time>
      </trkpt>
      <trkpt lat="47.81105" lon="-2.48548">
        <ele>88.8</ele>
        <time>2025-02-11T12:12:24Z</time>
      </trkpt>
      <trkpt lat="47.81105" lon="-2.48548">
        <ele>88.8</ele>
        <time>2025-02-11T12:12:25Z</time>
      </trkpt>
      <trkpt lat="47.81105" lon="-2.48548">
        <ele>88.8</ele>
        <time>2025-02-11T12:12:26Z</time>
      </trkpt>
      <trkpt lat="47.81105" lon="-2.48548">
        <ele>88.8</ele>
        <time>2025-02-11T12:12:27Z</time>
      </trkpt>
      <trkpt lat="47.81105" lon="-2.48548">
        <ele>88.8</ele>
        <time>2025-02-11T12:12:28Z</time>
      </trkpt>
      <trkpt lat="47.81105" lon="-2.48548">
        <ele>88.8</ele>
        <time>2025-02-11T12:12:29Z</time>
      </trkpt>
      <trkpt lat="47.81105" lon="-2.48548">
        <ele>88.8</ele>
        <time>2025-02-11T12:12:30Z</time>
      </trkpt>
      <trkpt lat="47.81105" lon="-2.48548">
        <ele>88.8</ele>
        <time>2025-02-11T12:12:31Z</time>
      </trkpt>
      <trkpt lat="47.81105" lon="-2.48548">
        <ele>88.8</ele>
        <time>2025-02-11T12:12:32Z</time>
      </trkpt>
      <trkpt lat="47.81104" lon="-2.48548">
        <ele>88.8</ele>
        <time>2025-02-11T12:12:33Z</time>
      </trkpt>
      <trkpt lat="47.81104" lon="-2.48548">
        <ele>88.8</ele>
        <time>2025-02-11T12:12:34Z</time>
      </trkpt>
      <trkpt lat="47.81104" lon="-2.48548">
        <ele>88.8</ele>
        <time>2025-02-11T12:12:35Z</time>
      </trkpt>
      <trkpt lat="47.81104" lon="-2.48548">
        <ele>88.8</ele>
        <time>2025-02-11T12:12:36Z</time>
      </trkpt>
      <trkpt lat="47.81104" lon="-2.48548">
        <ele>88.8</ele>
        <time>2025-02-11T12:12:37Z</time>
      </trkpt>
      <trkpt lat="47.81104" lon="-2.48548">
        <ele>88.8</ele>
        <time>2025-02-11T12:12:38Z</time>
      </trkpt>
      <trkpt lat="47.81104" lon="-2.48548">
        <ele>88.8</ele>
        <time>2025-02-11T12:12:39Z</time>
      </trkpt>
      <trkpt lat="47.81104" lon="-2.48548">
        <ele>88.8</ele>
        <time>2025-02-11T12:12:40Z</time>
      </trkpt>
      <trkpt lat="47.81104" lon="-2.48548">
        <ele>88.8</ele>
        <time>2025-02-11T12:12:41Z</time>
      </trkpt>
      <trkpt lat="47.81104" lon="-2.48548">
        <ele>88.8</ele>
        <time>2025-02-11T12:12:42Z</time>
      </trkpt>
      <trkpt lat="47.81104" lon="-2.48548">
        <ele>88.8</ele>
        <time>2025-02-11T12:12:43Z</time>
      </trkpt>
      <trkpt lat="47.81104" lon="-2.48548">
        <ele>88.8</ele>
        <time>2025-02-11T12:12:44Z</time>
      </trkpt>
      <trkpt lat="47.81104" lon="-2.48548">
        <ele>88.8</ele>
        <time>2025-02-11T12:12:45Z</time>
      </trkpt>
      <trkpt lat="47.81104" lon="-2.48548">
        <ele>88.8</ele>
        <time>2025-02-11T12:12:46Z</time>
      </trkpt>
      <trkpt lat="47.81104" lon="-2.48548">
        <ele>88.8</ele>
        <time>2025-02-11T12:12:47Z</time>
      </trkpt>
      <trkpt lat="47.81104" lon="-2.48549">
        <ele>88.6</ele>
        <time>2025-02-11T12:12:48Z</time>
      </trkpt>
      <trkpt lat="47.81104" lon="-2.4855">
        <ele>88.6</ele>
        <time>2025-02-11T12:12:49Z</time>
      </trkpt>
      <trkpt lat="47.81104" lon="-2.4855">
        <ele>88.6</ele>
        <time>2025-02-11T12:12:50Z</time>
      </trkpt>
      <trkpt lat="47.81104" lon="-2.4855">
        <ele>88.6</ele>
        <time>2025-02-11T12:12:51Z</time>
      </trkpt>
      <trkpt lat="47.81104" lon="-2.4855">
        <ele>88.6</ele>
        <time>2025-02-11T12:12:52Z</time>
      </trkpt>
      <trkpt lat="47.81104" lon="-2.48549">
        <ele>88.6</ele>
        <time>2025-02-11T12:12:53Z</time>
      </trkpt>
      <trkpt lat="47.81104" lon="-2.48549">
        <ele>88.6</ele>
        <time>2025-02-11T12:12:54Z</time>
      </trkpt>
      <trkpt lat="47.81105" lon="-2.48547">
        <ele>88.9</ele>
        <time>2025-02-11T12:12:55Z</time>
      </trkpt>
      <trkpt lat="47.81105" lon="-2.48546">
        <ele>89</ele>
        <time>2025-02-11T12:12:56Z</time>
      </trkpt>
      <trkpt lat="47.81106" lon="-2.48545">
        <ele>89.1</ele>
        <time>2025-02-11T12:12:57Z</time>
      </trkpt>
      <trkpt lat="47.81106" lon="-2.48545">
        <ele>89.2</ele>
        <time>2025-02-11T12:12:58Z</time>
      </trkpt>
      <trkpt lat="47.81106" lon="-2.48545">
        <ele>89.2</ele>
        <time>2025-02-11T12:12:59Z</time>
      </trkpt>
      <trkpt lat="47.81106" lon="-2.48545">
        <ele>89.2</ele>
        <time>2025-02-11T12:13:00Z</time>
      </trkpt>
      <trkpt lat="47.81106" lon="-2.48545">
        <ele>89.2</ele>
        <time>2025-02-11T12:13:01Z</time>
      </trkpt>
      <trkpt lat="47.81106" lon="-2.48545">
        <ele>89.1</ele>
        <time>2025-02-11T12:13:02Z</time>
      </trkpt>
      <trkpt lat="47.81106" lon="-2.48545">
        <ele>89.1</ele>
        <time>2025-02-11T12:13:03Z</time>
      </trkpt>
      <trkpt lat="47.81106" lon="-2.48545">
        <ele>89.1</ele>
        <time>2025-02-11T12:13:04Z</time>
      </trkpt>
      <trkpt lat="47.81106" lon="-2.48545">
        <ele>89.1</ele>
        <time>2025-02-11T12:13:05Z</time>
      </trkpt>
      <trkpt lat="47.81106" lon="-2.48545">
        <ele>89.1</ele>
        <time>2025-02-11T12:13:06Z</time>
      </trkpt>
      <trkpt lat="47.81106" lon="-2.48545">
        <ele>89.1</ele>
        <time>2025-02-11T12:13:07Z</time>
      </trkpt>
      <trkpt lat="47.81106" lon="-2.48545">
        <ele>89.1</ele>
        <time>2025-02-11T12:13:08Z</time>
      </trkpt>
      <trkpt lat="47.81106" lon="-2.48545">
        <ele>89.1</ele>
        <time>2025-02-11T12:13:09Z</time>
      </trkpt>
      <trkpt lat="47.81106" lon="-2.48545">
        <ele>89.1</ele>
        <time>2025-02-11T12:13:10Z</time>
      </trkpt>
      <trkpt lat="47.81106" lon="-2.48545">
        <ele>89.1</ele>
        <time>2025-02-11T12:13:11Z</time>
      </trkpt>
      <trkpt lat="47.81106" lon="-2.48545">
        <ele>89.1</ele>
        <time>2025-02-11T12:13:12Z</time>
      </trkpt>
      <trkpt lat="47.81106" lon="-2.48545">
        <ele>89.1</ele>
        <time>2025-02-11T12:13:13Z</time>
      </trkpt>
      <trkpt lat="47.81106" lon="-2.48545">
        <ele>89.1</ele>
        <time>2025-02-11T12:13:14Z</time>
      </trkpt>
      <trkpt lat="47.81106" lon="-2.48545">
        <ele>89.1</ele>
        <time>2025-02-11T12:13:15Z</time>
      </trkpt>
      <trkpt lat="47.81106" lon="-2.48545">
        <ele>89.1</ele>
        <time>2025-02-11T12:13:16Z</time>
      </trkpt>
      <trkpt lat="47.81106" lon="-2.48545">
        <ele>89.1</ele>
        <time>2025-02-11T12:13:17Z</time>
      </trkpt>
      <trkpt lat="47.81106" lon="-2.48545">
        <ele>89.1</ele>
        <time>2025-02-11T12:13:18Z</time>
      </trkpt>
      <trkpt lat="47.81106" lon="-2.48545">
        <ele>89.1</ele>
        <time>2025-02-11T12:13:19Z</time>
      </trkpt>
      <trkpt lat="47.81106" lon="-2.48545">
        <ele>89.1</ele>
        <time>2025-02-11T12:13:20Z</time>
      </trkpt>
      <trkpt lat="47.81106" lon="-2.48545">
        <ele>89.1</ele>
        <time>2025-02-11T12:13:21Z</time>
      </trkpt>
      <trkpt lat="47.81106" lon="-2.48545">
        <ele>89.1</ele>
        <time>2025-02-11T12:13:22Z</time>
      </trkpt>
      <trkpt lat="47.81106" lon="-2.48545">
        <ele>89.1</ele>
        <time>2025-02-11T12:13:23Z</time>
      </trkpt>
      <trkpt lat="47.81106" lon="-2.48545">
        <ele>89.1</ele>
        <time>2025-02-11T12:13:24Z</time>
      </trkpt>
      <trkpt lat="47.81106" lon="-2.48545">
        <ele>89.1</ele>
        <time>2025-02-11T12:13:25Z</time>
      </trkpt>
      <trkpt lat="47.81106" lon="-2.48545">
        <ele>89.1</ele>
        <time>2025-02-11T12:13:26Z</time>
      </trkpt>
      <trkpt lat="47.81106" lon="-2.48545">
        <ele>89.1</ele>
        <time>2025-02-11T12:13:27Z</time>
      </trkpt>
      <trkpt lat="47.81106" lon="-2.48545">
        <ele>89.1</ele>
        <time>2025-02-11T12:13:28Z</time>
      </trkpt>
      <trkpt lat="47.81106" lon="-2.48545">
        <ele>89.1</ele>
        <time>2025-02-11T12:13:29Z</time>
      </trkpt>
      <trkpt lat="47.81106" lon="-2.48545">
        <ele>89.1</ele>
        <time>2025-02-11T12:13:30Z</time>
      </trkpt>
      <trkpt lat="47.81106" lon="-2.48545">
        <ele>89.1</ele>
        <time>2025-02-11T12:13:31Z</time>
      </trkpt>
      <trkpt lat="47.81106" lon="-2.48545">
        <ele>89.1</ele>
        <time>2025-02-11T12:13:32Z</time>
      </trkpt>
      <trkpt lat="47.81106" lon="-2.48545">
        <ele>89.1</ele>
        <time>2025-02-11T12:13:33Z</time>
      </trkpt>
      <trkpt lat="47.81106" lon="-2.48545">
        <ele>89.1</ele>
        <time>2025-02-11T12:13:34Z</time>
      </trkpt>
      <trkpt lat="47.81106" lon="-2.48545">
        <ele>89.1</ele>
        <time>2025-02-11T12:13:35Z</time>
      </trkpt>
      <trkpt lat="47.81106" lon="-2.48545">
        <ele>89.1</ele>
        <time>2025-02-11T12:13:36Z</time>
      </trkpt>
      <trkpt lat="47.81106" lon="-2.48545">
        <ele>89.1</ele>
        <time>2025-02-11T12:13:37Z</time>
      </trkpt>
      <trkpt lat="47.81106" lon="-2.48545">
        <ele>89.1</ele>
        <time>2025-02-11T12:13:38Z</time>
      </trkpt>
      <trkpt lat="47.81106" lon="-2.48545">
        <ele>89.1</ele>
        <time>2025-02-11T12:13:39Z</time>
      </trkpt>
      <trkpt lat="47.81106" lon="-2.48545">
        <ele>89.1</ele>
        <time>2025-02-11T12:13:40Z</time>
      </trkpt>
      <trkpt lat="47.81106" lon="-2.48545">
        <ele>89.1</ele>
        <time>2025-02-11T12:13:41Z</time>
      </trkpt>
      <trkpt lat="47.81106" lon="-2.48545">
        <ele>89.1</ele>
        <time>2025-02-11T12:13:42Z</time>
      </trkpt>
      <trkpt lat="47.81106" lon="-2.48545">
        <ele>89.1</ele>
        <time>2025-02-11T12:13:43Z</time>
      </trkpt>
      <trkpt lat="47.81106" lon="-2.48545">
        <ele>89.1</ele>
        <time>2025-02-11T12:13:44Z</time>
      </trkpt>
      <trkpt lat="47.81106" lon="-2.48545">
        <ele>89.1</ele>
        <time>2025-02-11T12:13:45Z</time>
      </trkpt>
      <trkpt lat="47.81106" lon="-2.48545">
        <ele>89.1</ele>
        <time>2025-02-11T12:13:46Z</time>
      </trkpt>
      <trkpt lat="47.81106" lon="-2.48545">
        <ele>89.1</ele>
        <time>2025-02-11T12:13:47Z</time>
      </trkpt>
      <trkpt lat="47.81106" lon="-2.48545">
        <ele>89.1</ele>
        <time>2025-02-11T12:13:48Z</time>
      </trkpt>
      <trkpt lat="47.81106" lon="-2.48545">
        <ele>89.1</ele>
        <time>2025-02-11T12:13:49Z</time>
      </trkpt>
      <trkpt lat="47.81105" lon="-2.48545">
        <ele>89.1</ele>
        <time>2025-02-11T12:13:50Z</time>
      </trkpt>
      <trkpt lat="47.81105" lon="-2.48545">
        <ele>89</ele>
        <time>2025-02-11T12:13:51Z</time>
      </trkpt>
      <trkpt lat="47.81105" lon="-2.48545">
        <ele>89</ele>
        <time>2025-02-11T12:13:52Z</time>
      </trkpt>
      <trkpt lat="47.81106" lon="-2.48545">
        <ele>89.1</ele>
        <time>2025-02-11T12:13:53Z</time>
      </trkpt>
      <trkpt lat="47.81106" lon="-2.48544">
        <ele>89.2</ele>
        <time>2025-02-11T12:13:54Z</time>
      </trkpt>
      <trkpt lat="47.81106" lon="-2.48543">
        <ele>89.3</ele>
        <time>2025-02-11T12:13:55Z</time>
      </trkpt>
      <trkpt lat="47.81107" lon="-2.48543">
        <ele>89.4</ele>
        <time>2025-02-11T12:13:56Z</time>
      </trkpt>
      <trkpt lat="47.81107" lon="-2.48542">
        <ele>89.5</ele>
        <time>2025-02-11T12:13:57Z</time>
      </trkpt>
      <trkpt lat="47.81107" lon="-2.48542">
        <ele>89.6</ele>
        <time>2025-02-11T12:13:58Z</time>
      </trkpt>
      <trkpt lat="47.81108" lon="-2.48542">
        <ele>89.7</ele>
        <time>2025-02-11T12:13:59Z</time>
      </trkpt>
      <trkpt lat="47.81108" lon="-2.48541">
        <ele>89.8</ele>
        <time>2025-02-11T12:14:00Z</time>
      </trkpt>
      <trkpt lat="47.81108" lon="-2.48542">
        <ele>89.8</ele>
        <time>2025-02-11T12:14:01Z</time>
      </trkpt>
      <trkpt lat="47.81108" lon="-2.48541">
        <ele>89.9</ele>
        <time>2025-02-11T12:14:02Z</time>
      </trkpt>
      <trkpt lat="47.81108" lon="-2.48541">
        <ele>89.9</ele>
        <time>2025-02-11T12:14:03Z</time>
      </trkpt>
      <trkpt lat="47.81108" lon="-2.48541">
        <ele>89.9</ele>
        <time>2025-02-11T12:14:04Z</time>
      </trkpt>
      <trkpt lat="47.81108" lon="-2.48541">
        <ele>89.8</ele>
        <time>2025-02-11T12:14:05Z</time>
      </trkpt>
      <trkpt lat="47.81109" lon="-2.4854">
        <ele>89.9</ele>
        <time>2025-02-11T12:14:06Z</time>
      </trkpt>
      <trkpt lat="47.8111" lon="-2.48539">
        <ele>90.3</ele>
        <time>2025-02-11T12:14:07Z</time>
      </trkpt>
      <trkpt lat="47.81111" lon="-2.48539">
        <ele>90.5</ele>
        <time>2025-02-11T12:14:08Z</time>
      </trkpt>
      <trkpt lat="47.81111" lon="-2.48539">
        <ele>90.6</ele>
        <time>2025-02-11T12:14:09Z</time>
      </trkpt>
      <trkpt lat="47.81111" lon="-2.48538">
        <ele>90.6</ele>
        <time>2025-02-11T12:14:10Z</time>
      </trkpt>
      <trkpt lat="47.8111" lon="-2.48538">
        <ele>90.5</ele>
        <time>2025-02-11T12:14:11Z</time>
      </trkpt>
      <trkpt lat="47.8111" lon="-2.48538">
        <ele>90.4</ele>
        <time>2025-02-11T12:14:12Z</time>
      </trkpt>
      <trkpt lat="47.81109" lon="-2.48538">
        <ele>90.2</ele>
        <time>2025-02-11T12:14:13Z</time>
      </trkpt>
      <trkpt lat="47.81109" lon="-2.48539">
        <ele>90.1</ele>
        <time>2025-02-11T12:14:14Z</time>
      </trkpt>
      <trkpt lat="47.81109" lon="-2.48539">
        <ele>90.1</ele>
        <time>2025-02-11T12:14:15Z</time>
      </trkpt>
      <trkpt lat="47.81109" lon="-2.48539">
        <ele>90.1</ele>
        <time>2025-02-11T12:14:16Z</time>
      </trkpt>
      <trkpt lat="47.81109" lon="-2.48539">
        <ele>90.1</ele>
        <time>2025-02-11T12:14:17Z</time>
      </trkpt>
      <trkpt lat="47.81109" lon="-2.48539">
        <ele>90.1</ele>
        <time>2025-02-11T12:14:18Z</time>
      </trkpt>
      <trkpt lat="47.81109" lon="-2.48539">
        <ele>90</ele>
        <time>2025-02-11T12:14:19Z</time>
      </trkpt>
      <trkpt lat="47.81108" lon="-2.4854">
        <ele>89.9</ele>
        <time>2025-02-11T12:14:20Z</time>
      </trkpt>
      <trkpt lat="47.81108" lon="-2.4854">
        <ele>89.9</ele>
        <time>2025-02-11T12:14:21Z</time>
      </trkpt>
      <trkpt lat="47.81108" lon="-2.4854">
        <ele>89.9</ele>
        <time>2025-02-11T12:14:22Z</time>
      </trkpt>
      <trkpt lat="47.81108" lon="-2.4854">
        <ele>89.9</ele>
        <time>2025-02-11T12:14:23Z</time>
      </trkpt>
      <trkpt lat="47.81108" lon="-2.4854">
        <ele>89.9</ele>
        <time>2025-02-11T12:14:24Z</time>
      </trkpt>
      <trkpt lat="47.81108" lon="-2.4854">
        <ele>89.9</ele>
        <time>2025-02-11T12:14:25Z</time>
      </trkpt>
      <trkpt lat="47.81108" lon="-2.4854">
        <ele>89.9</ele>
        <time>2025-02-11T12:14:26Z</time>
      </trkpt>
      <trkpt lat="47.81108" lon="-2.48541">
        <ele>89.9</ele>
        <time>2025-02-11T12:14:27Z</time>
      </trkpt>
      <trkpt lat="47.81108" lon="-2.48542">
        <ele>89.8</ele>
        <time>2025-02-11T12:14:28Z</time>
      </trkpt>
      <trkpt lat="47.81109" lon="-2.48543">
        <ele>89.8</ele>
        <time>2025-02-11T12:14:29Z</time>
      </trkpt>
      <trkpt lat="47.81108" lon="-2.48545">
        <ele>89.7</ele>
        <time>2025-02-11T12:14:30Z</time>
      </trkpt>
      <trkpt lat="47.81107" lon="-2.48546">
        <ele>89.5</ele>
        <time>2025-02-11T12:14:31Z</time>
      </trkpt>
      <trkpt lat="47.81107" lon="-2.48547">
        <ele>89.4</ele>
        <time>2025-02-11T12:14:32Z</time>
      </trkpt>
      <trkpt lat="47.81107" lon="-2.48547">
        <ele>89.4</ele>
        <time>2025-02-11T12:14:33Z</time>
      </trkpt>
      <trkpt lat="47.81107" lon="-2.48547">
        <ele>89.4</ele>
        <time>2025-02-11T12:14:34Z</time>
      </trkpt>
      <trkpt lat="47.81107" lon="-2.48547">
        <ele>89.4</ele>
        <time>2025-02-11T12:14:35Z</time>
      </trkpt>
      <trkpt lat="47.81107" lon="-2.48547">
        <ele>89.4</ele>
        <time>2025-02-11T12:14:36Z</time>
      </trkpt>
      <trkpt lat="47.81107" lon="-2.48547">
        <ele>89.4</ele>
        <time>2025-02-11T12:14:37Z</time>
      </trkpt>
      <trkpt lat="47.81107" lon="-2.48547">
        <ele>89.4</ele>
        <time>2025-02-11T12:14:38Z</time>
      </trkpt>
      <trkpt lat="47.81107" lon="-2.48547">
        <ele>89.4</ele>
        <time>2025-02-11T12:14:39Z</time>
      </trkpt>
      <trkpt lat="47.81107" lon="-2.48547">
        <ele>89.4</ele>
        <time>2025-02-11T12:14:40Z</time>
      </trkpt>
      <trkpt lat="47.81107" lon="-2.48547">
        <ele>89.4</ele>
        <time>2025-02-11T12:14:41Z</time>
      </trkpt>
      <trkpt lat="47.81107" lon="-2.48547">
        <ele>89.4</ele>
        <time>2025-02-11T12:14:42Z</time>
      </trkpt>
      <trkpt lat="47.81107" lon="-2.48547">
        <ele>89.4</ele>
        <time>2025-02-11T12:14:43Z</time>
      </trkpt>
      <trkpt lat="47.81107" lon="-2.48547">
        <ele>89.3</ele>
        <time>2025-02-11T12:14:44Z</time>
      </trkpt>
      <trkpt lat="47.81106" lon="-2.48547">
        <ele>89.2</ele>
        <time>2025-02-11T12:14:45Z</time>
      </trkpt>
      <trkpt lat="47.81106" lon="-2.48548">
        <ele>89.1</ele>
        <time>2025-02-11T12:14:46Z</time>
      </trkpt>
      <trkpt lat="47.81106" lon="-2.48548">
        <ele>89.1</ele>
        <time>2025-02-11T12:14:47Z</time>
      </trkpt>
      <trkpt lat="47.81106" lon="-2.48548">
        <ele>89.1</ele>
        <time>2025-02-11T12:14:48Z</time>
      </trkpt>
      <trkpt lat="47.81106" lon="-2.48548">
        <ele>89.1</ele>
        <time>2025-02-11T12:14:49Z</time>
      </trkpt>
      <trkpt lat="47.81106" lon="-2.48548">
        <ele>89.1</ele>
        <time>2025-02-11T12:14:50Z</time>
      </trkpt>
      <trkpt lat="47.81106" lon="-2.48548">
        <ele>89.1</ele>
        <time>2025-02-11T12:14:51Z</time>
      </trkpt>
      <trkpt lat="47.81106" lon="-2.48548">
        <ele>89.1</ele>
        <time>2025-02-11T12:14:52Z</time>
      </trkpt>
      <trkpt lat="47.81106" lon="-2.48548">
        <ele>89.1</ele>
        <time>2025-02-11T12:14:53Z</time>
      </trkpt>
      <trkpt lat="47.81106" lon="-2.48548">
        <ele>89</ele>
        <time>2025-02-11T12:14:54Z</time>
      </trkpt>
      <trkpt lat="47.81106" lon="-2.48547">
        <ele>89</ele>
        <time>2025-02-11T12:14:55Z</time>
      </trkpt>
      <trkpt lat="47.81106" lon="-2.48547">
        <ele>89</ele>
        <time>2025-02-11T12:14:56Z</time>
      </trkpt>
      <trkpt lat="47.81106" lon="-2.48547">
        <ele>89</ele>
        <time>2025-02-11T12:14:57Z</time>
      </trkpt>
      <trkpt lat="47.81106" lon="-2.48547">
        <ele>89</ele>
        <time>2025-02-11T12:14:58Z</time>
      </trkpt>
      <trkpt lat="47.81106" lon="-2.48547">
        <ele>89</ele>
        <time>2025-02-11T12:14:59Z</time>
      </trkpt>
      <trkpt lat="47.81106" lon="-2.48547">
        <ele>89</ele>
        <time>2025-02-11T12:15:00Z</time>
      </trkpt>
      <trkpt lat="47.81106" lon="-2.48547">
        <ele>89</ele>
        <time>2025-02-11T12:15:01Z</time>
      </trkpt>
      <trkpt lat="47.81106" lon="-2.48547">
        <ele>89</ele>
        <time>2025-02-11T12:15:02Z</time>
      </trkpt>
      <trkpt lat="47.81106" lon="-2.48547">
        <ele>89</ele>
        <time>2025-02-11T12:15:03Z</time>
      </trkpt>
      <trkpt lat="47.81106" lon="-2.48548">
        <ele>89</ele>
        <time>2025-02-11T12:15:04Z</time>
      </trkpt>
      <trkpt lat="47.81106" lon="-2.48548">
        <ele>89</ele>
        <time>2025-02-11T12:15:05Z</time>
      </trkpt>
      <trkpt lat="47.81106" lon="-2.48548">
        <ele>89</ele>
        <time>2025-02-11T12:15:06Z</time>
      </trkpt>
      <trkpt lat="47.81106" lon="-2.48548">
        <ele>89</ele>
        <time>2025-02-11T12:15:07Z</time>
      </trkpt>
      <trkpt lat="47.81106" lon="-2.48548">
        <ele>89</ele>
        <time>2025-02-11T12:15:08Z</time>
      </trkpt>
      <trkpt lat="47.81106" lon="-2.48548">
        <ele>89</ele>
        <time>2025-02-11T12:15:09Z</time>
      </trkpt>
      <trkpt lat="47.81106" lon="-2.48548">
        <ele>89</ele>
        <time>2025-02-11T12:15:10Z</time>
      </trkpt>
      <trkpt lat="47.81106" lon="-2.48548">
        <ele>89</ele>
        <time>2025-02-11T12:15:11Z</time>
      </trkpt>
      <trkpt lat="47.81106" lon="-2.48548">
        <ele>89</ele>
        <time>2025-02-11T12:15:12Z</time>
      </trkpt>
      <trkpt lat="47.81106" lon="-2.48548">
        <ele>89</ele>
        <time>2025-02-11T12:15:13Z</time>
      </trkpt>
      <trkpt lat="47.81105" lon="-2.48548">
        <ele>88.9</ele>
        <time>2025-02-11T12:15:14Z</time>
      </trkpt>
      <trkpt lat="47.81105" lon="-2.48548">
        <ele>88.9</ele>
        <time>2025-02-11T12:15:15Z</time>
      </trkpt>
      <trkpt lat="47.81105" lon="-2.48548">
        <ele>88.9</ele>
        <time>2025-02-11T12:15:16Z</time>
      </trkpt>
      <trkpt lat="47.81105" lon="-2.48548">
        <ele>88.9</ele>
        <time>2025-02-11T12:15:17Z</time>
      </trkpt>
      <trkpt lat="47.81105" lon="-2.48548">
        <ele>88.9</ele>
        <time>2025-02-11T12:15:18Z</time>
      </trkpt>
      <trkpt lat="47.81105" lon="-2.48548">
        <ele>88.9</ele>
        <time>2025-02-11T12:15:19Z</time>
      </trkpt>
      <trkpt lat="47.81105" lon="-2.48548">
        <ele>88.9</ele>
        <time>2025-02-11T12:15:20Z</time>
      </trkpt>
      <trkpt lat="47.81105" lon="-2.48548">
        <ele>89</ele>
        <time>2025-02-11T12:15:21Z</time>
      </trkpt>
      <trkpt lat="47.81105" lon="-2.48548">
        <ele>89</ele>
        <time>2025-02-11T12:15:22Z</time>
      </trkpt>
      <trkpt lat="47.81105" lon="-2.48548">
        <ele>89</ele>
        <time>2025-02-11T12:15:23Z</time>
      </trkpt>
      <trkpt lat="47.81105" lon="-2.48548">
        <ele>89</ele>
        <time>2025-02-11T12:15:24Z</time>
      </trkpt>
      <trkpt lat="47.81105" lon="-2.48548">
        <ele>89</ele>
        <time>2025-02-11T12:15:25Z</time>
      </trkpt>
      <trkpt lat="47.81105" lon="-2.48548">
        <ele>89</ele>
        <time>2025-02-11T12:15:26Z</time>
      </trkpt>
      <trkpt lat="47.81105" lon="-2.48548">
        <ele>89</ele>
        <time>2025-02-11T12:15:27Z</time>
      </trkpt>
      <trkpt lat="47.81105" lon="-2.48548">
        <ele>89</ele>
        <time>2025-02-11T12:15:28Z</time>
      </trkpt>
      <trkpt lat="47.81105" lon="-2.48548">
        <ele>89</ele>
        <time>2025-02-11T12:15:29Z</time>
      </trkpt>
      <trkpt lat="47.81105" lon="-2.48548">
        <ele>89</ele>
        <time>2025-02-11T12:15:30Z</time>
      </trkpt>
      <trkpt lat="47.81105" lon="-2.48548">
        <ele>89</ele>
        <time>2025-02-11T12:15:31Z</time>
      </trkpt>
      <trkpt lat="47.81105" lon="-2.48548">
        <ele>89</ele>
        <time>2025-02-11T12:15:32Z</time>
      </trkpt>
      <trkpt lat="47.81105" lon="-2.48548">
        <ele>89</ele>
        <time>2025-02-11T12:15:33Z</time>
      </trkpt>
      <trkpt lat="47.81105" lon="-2.48548">
        <ele>89</ele>
        <time>2025-02-11T12:15:34Z</time>
      </trkpt>
      <trkpt lat="47.81105" lon="-2.48548">
        <ele>89</ele>
        <time>2025-02-11T12:15:35Z</time>
      </trkpt>
      <trkpt lat="47.81105" lon="-2.48548">
        <ele>89</ele>
        <time>2025-02-11T12:15:36Z</time>
      </trkpt>
      <trkpt lat="47.81105" lon="-2.48548">
        <ele>89</ele>
        <time>2025-02-11T12:15:37Z</time>
      </trkpt>
      <trkpt lat="47.81105" lon="-2.48548">
        <ele>89</ele>
        <time>2025-02-11T12:15:38Z</time>
      </trkpt>
      <trkpt lat="47.81105" lon="-2.48548">
        <ele>89</ele>
        <time>2025-02-11T12:15:39Z</time>
      </trkpt>
      <trkpt lat="47.81105" lon="-2.48548">
        <ele>89</ele>
        <time>2025-02-11T12:15:40Z</time>
      </trkpt>
      <trkpt lat="47.81105" lon="-2.48548">
        <ele>89</ele>
        <time>2025-02-11T12:15:41Z</time>
      </trkpt>
      <trkpt lat="47.81105" lon="-2.48548">
        <ele>89</ele>
        <time>2025-02-11T12:15:42Z</time>
      </trkpt>
      <trkpt lat="47.81105" lon="-2.48548">
        <ele>89</ele>
        <time>2025-02-11T12:15:43Z</time>
      </trkpt>
      <trkpt lat="47.81105" lon="-2.48548">
        <ele>89</ele>
        <time>2025-02-11T12:15:44Z</time>
      </trkpt>
      <trkpt lat="47.81105" lon="-2.48548">
        <ele>89</ele>
        <time>2025-02-11T12:15:45Z</time>
      </trkpt>
      <trkpt lat="47.81105" lon="-2.48548">
        <ele>89</ele>
        <time>2025-02-11T12:15:46Z</time>
      </trkpt>
      <trkpt lat="47.81105" lon="-2.48548">
        <ele>89</ele>
        <time>2025-02-11T12:15:47Z</time>
      </trkpt>
      <trkpt lat="47.81105" lon="-2.48548">
        <ele>89</ele>
        <time>2025-02-11T12:15:48Z</time>
      </trkpt>
      <trkpt lat="47.81105" lon="-2.48548">
        <ele>89</ele>
        <time>2025-02-11T12:15:49Z</time>
      </trkpt>
      <trkpt lat="47.81105" lon="-2.48548">
        <ele>89</ele>
        <time>2025-02-11T12:15:50Z</time>
      </trkpt>
      <trkpt lat="47.81105" lon="-2.48548">
        <ele>89</ele>
        <time>2025-02-11T12:15:51Z</time>
      </trkpt>
      <trkpt lat="47.81105" lon="-2.48548">
        <ele>89</ele>
        <time>2025-02-11T12:15:52Z</time>
      </trkpt>
      <trkpt lat="47.81105" lon="-2.48548">
        <ele>89</ele>
        <time>2025-02-11T12:15:53Z</time>
      </trkpt>
      <trkpt lat="47.81105" lon="-2.48548">
        <ele>89</ele>
        <time>2025-02-11T12:15:54Z</time>
      </trkpt>
      <trkpt lat="47.81105" lon="-2.48548">
        <ele>89</ele>
        <time>2025-02-11T12:15:55Z</time>
      </trkpt>
      <trkpt lat="47.81105" lon="-2.48548">
        <ele>89</ele>
        <time>2025-02-11T12:15:56Z</time>
      </trkpt>
      <trkpt lat="47.81105" lon="-2.48548">
        <ele>89</ele>
        <time>2025-02-11T12:15:57Z</time>
      </trkpt>
      <trkpt lat="47.81105" lon="-2.48548">
        <ele>89</ele>
        <time>2025-02-11T12:15:58Z</time>
      </trkpt>
      <trkpt lat="47.81105" lon="-2.48548">
        <ele>89</ele>
        <time>2025-02-11T12:15:59Z</time>
      </trkpt>
      <trkpt lat="47.81105" lon="-2.48548">
        <ele>89</ele>
        <time>2025-02-11T12:16:00Z</time>
      </trkpt>
      <trkpt lat="47.81105" lon="-2.48548">
        <ele>89</ele>
        <time>2025-02-11T12:16:01Z</time>
      </trkpt>
      <trkpt lat="47.81105" lon="-2.48548">
        <ele>89</ele>
        <time>2025-02-11T12:16:02Z</time>
      </trkpt>
      <trkpt lat="47.81105" lon="-2.48548">
        <ele>89</ele>
        <time>2025-02-11T12:16:03Z</time>
      </trkpt>
      <trkpt lat="47.81105" lon="-2.48548">
        <ele>89</ele>
        <time>2025-02-11T12:16:04Z</time>
      </trkpt>
      <trkpt lat="47.81105" lon="-2.48548">
        <ele>89</ele>
        <time>2025-02-11T12:16:05Z</time>
      </trkpt>
      <trkpt lat="47.81105" lon="-2.48548">
        <ele>89</ele>
        <time>2025-02-11T12:16:06Z</time>
      </trkpt>
      <trkpt lat="47.81105" lon="-2.48548">
        <ele>89</ele>
        <time>2025-02-11T12:16:07Z</time>
      </trkpt>
      <trkpt lat="47.81105" lon="-2.48548">
        <ele>89</ele>
        <time>2025-02-11T12:16:08Z</time>
      </trkpt>
      <trkpt lat="47.81105" lon="-2.48548">
        <ele>89</ele>
        <time>2025-02-11T12:16:09Z</time>
      </trkpt>
      <trkpt lat="47.81105" lon="-2.48548">
        <ele>89</ele>
        <time>2025-02-11T12:16:10Z</time>
      </trkpt>
      <trkpt lat="47.81105" lon="-2.48548">
        <ele>89</ele>
        <time>2025-02-11T12:16:11Z</time>
      </trkpt>
      <trkpt lat="47.81105" lon="-2.48548">
        <ele>89</ele>
        <time>2025-02-11T12:16:12Z</time>
      </trkpt>
      <trkpt lat="47.81105" lon="-2.48548">
        <ele>89</ele>
        <time>2025-02-11T12:16:13Z</time>
      </trkpt>
      <trkpt lat="47.81105" lon="-2.48548">
        <ele>89</ele>
        <time>2025-02-11T12:16:14Z</time>
      </trkpt>
      <trkpt lat="47.81105" lon="-2.48548">
        <ele>89</ele>
        <time>2025-02-11T12:16:15Z</time>
      </trkpt>
      <trkpt lat="47.81105" lon="-2.48548">
        <ele>89</ele>
        <time>2025-02-11T12:16:16Z</time>
      </trkpt>
      <trkpt lat="47.81105" lon="-2.48548">
        <ele>89</ele>
        <time>2025-02-11T12:16:17Z</time>
      </trkpt>
      <trkpt lat="47.81105" lon="-2.48548">
        <ele>89</ele>
        <time>2025-02-11T12:16:18Z</time>
      </trkpt>
      <trkpt lat="47.81105" lon="-2.48548">
        <ele>89</ele>
        <time>2025-02-11T12:16:19Z</time>
      </trkpt>
      <trkpt lat="47.81105" lon="-2.48548">
        <ele>89</ele>
        <time>2025-02-11T12:16:20Z</time>
      </trkpt>
      <trkpt lat="47.81105" lon="-2.48548">
        <ele>89</ele>
        <time>2025-02-11T12:16:21Z</time>
      </trkpt>
      <trkpt lat="47.81105" lon="-2.48548">
        <ele>89</ele>
        <time>2025-02-11T12:16:22Z</time>
      </trkpt>
      <trkpt lat="47.81105" lon="-2.48548">
        <ele>89</ele>
        <time>2025-02-11T12:16:23Z</time>
      </trkpt>
      <trkpt lat="47.81105" lon="-2.48548">
        <ele>89</ele>
        <time>2025-02-11T12:16:24Z</time>
      </trkpt>
      <trkpt lat="47.81105" lon="-2.48548">
        <ele>89</ele>
        <time>2025-02-11T12:16:25Z</time>
      </trkpt>
      <trkpt lat="47.81105" lon="-2.48548">
        <ele>89</ele>
        <time>2025-02-11T12:16:26Z</time>
      </trkpt>
      <trkpt lat="47.81105" lon="-2.48548">
        <ele>89</ele>
        <time>2025-02-11T12:16:27Z</time>
      </trkpt>
      <trkpt lat="47.81105" lon="-2.48548">
        <ele>89</ele>
        <time>2025-02-11T12:16:28Z</time>
      </trkpt>
      <trkpt lat="47.81105" lon="-2.48548">
        <ele>89</ele>
        <time>2025-02-11T12:16:29Z</time>
      </trkpt>
      <trkpt lat="47.81105" lon="-2.48548">
        <ele>89</ele>
        <time>2025-02-11T12:16:30Z</time>
      </trkpt>
      <trkpt lat="47.81105" lon="-2.48548">
        <ele>89</ele>
        <time>2025-02-11T12:16:31Z</time>
      </trkpt>
      <trkpt lat="47.81105" lon="-2.48548">
        <ele>88.9</ele>
        <time>2025-02-11T12:16:32Z</time>
      </trkpt>
      <trkpt lat="47.81105" lon="-2.48548">
        <ele>88.9</ele>
        <time>2025-02-11T12:16:33Z</time>
      </trkpt>
      <trkpt lat="47.81105" lon="-2.48548">
        <ele>88.9</ele>
        <time>2025-02-11T12:16:34Z</time>
      </trkpt>
      <trkpt lat="47.81105" lon="-2.48548">
        <ele>88.9</ele>
        <time>2025-02-11T12:16:35Z</time>
      </trkpt>
      <trkpt lat="47.81105" lon="-2.48548">
        <ele>88.9</ele>
        <time>2025-02-11T12:16:36Z</time>
      </trkpt>
      <trkpt lat="47.81105" lon="-2.48548">
        <ele>88.9</ele>
        <time>2025-02-11T12:16:37Z</time>
      </trkpt>
      <trkpt lat="47.81105" lon="-2.48548">
        <ele>88.9</ele>
        <time>2025-02-11T12:16:38Z</time>
      </trkpt>
      <trkpt lat="47.81105" lon="-2.48548">
        <ele>88.9</ele>
        <time>2025-02-11T12:16:39Z</time>
      </trkpt>
      <trkpt lat="47.81105" lon="-2.48548">
        <ele>88.9</ele>
        <time>2025-02-11T12:16:40Z</time>
      </trkpt>
      <trkpt lat="47.81105" lon="-2.48548">
        <ele>88.9</ele>
        <time>2025-02-11T12:16:41Z</time>
      </trkpt>
      <trkpt lat="47.81105" lon="-2.48548">
        <ele>88.9</ele>
        <time>2025-02-11T12:16:42Z</time>
      </trkpt>
      <trkpt lat="47.81105" lon="-2.48548">
        <ele>88.9</ele>
        <time>2025-02-11T12:16:43Z</time>
      </trkpt>
      <trkpt lat="47.81105" lon="-2.48548">
        <ele>88.9</ele>
        <time>2025-02-11T12:16:44Z</time>
      </trkpt>
      <trkpt lat="47.81105" lon="-2.48548">
        <ele>88.9</ele>
        <time>2025-02-11T12:16:45Z</time>
      </trkpt>
      <trkpt lat="47.81105" lon="-2.48548">
        <ele>88.9</ele>
        <time>2025-02-11T12:16:46Z</time>
      </trkpt>
      <trkpt lat="47.81105" lon="-2.48548">
        <ele>88.9</ele>
        <time>2025-02-11T12:16:47Z</time>
      </trkpt>
      <trkpt lat="47.81105" lon="-2.48548">
        <ele>88.9</ele>
        <time>2025-02-11T12:16:48Z</time>
      </trkpt>
      <trkpt lat="47.81105" lon="-2.48548">
        <ele>88.9</ele>
        <time>2025-02-11T12:16:49Z</time>
      </trkpt>
      <trkpt lat="47.81105" lon="-2.48548">
        <ele>88.9</ele>
        <time>2025-02-11T12:16:50Z</time>
      </trkpt>
      <trkpt lat="47.81105" lon="-2.48548">
        <ele>88.9</ele>
        <time>2025-02-11T12:16:51Z</time>
      </trkpt>
      <trkpt lat="47.81105" lon="-2.48548">
        <ele>88.9</ele>
        <time>2025-02-11T12:16:52Z</time>
      </trkpt>
      <trkpt lat="47.81105" lon="-2.48548">
        <ele>88.9</ele>
        <time>2025-02-11T12:16:53Z</time>
      </trkpt>
      <trkpt lat="47.81105" lon="-2.48548">
        <ele>88.9</ele>
        <time>2025-02-11T12:16:54Z</time>
      </trkpt>
      <trkpt lat="47.81105" lon="-2.48548">
        <ele>88.9</ele>
        <time>2025-02-11T12:16:55Z</time>
      </trkpt>
      <trkpt lat="47.81105" lon="-2.48548">
        <ele>88.9</ele>
        <time>2025-02-11T12:16:56Z</time>
      </trkpt>
      <trkpt lat="47.81105" lon="-2.48549">
        <ele>88.9</ele>
        <time>2025-02-11T12:16:57Z</time>
      </trkpt>
      <trkpt lat="47.81105" lon="-2.48549">
        <ele>88.9</ele>
        <time>2025-02-11T12:16:58Z</time>
      </trkpt>
      <trkpt lat="47.81105" lon="-2.48549">
        <ele>88.9</ele>
        <time>2025-02-11T12:16:59Z</time>
      </trkpt>
      <trkpt lat="47.81105" lon="-2.48549">
        <ele>88.9</ele>
        <time>2025-02-11T12:17:00Z</time>
      </trkpt>
      <trkpt lat="47.81105" lon="-2.48549">
        <ele>88.9</ele>
        <time>2025-02-11T12:17:01Z</time>
      </trkpt>
      <trkpt lat="47.81105" lon="-2.48549">
        <ele>88.9</ele>
        <time>2025-02-11T12:17:02Z</time>
      </trkpt>
      <trkpt lat="47.81105" lon="-2.48549">
        <ele>88.9</ele>
        <time>2025-02-11T12:17:03Z</time>
      </trkpt>
      <trkpt lat="47.81105" lon="-2.48549">
        <ele>88.9</ele>
        <time>2025-02-11T12:17:04Z</time>
      </trkpt>
      <trkpt lat="47.81105" lon="-2.48549">
        <ele>88.9</ele>
        <time>2025-02-11T12:17:05Z</time>
      </trkpt>
      <trkpt lat="47.81105" lon="-2.48549">
        <ele>88.9</ele>
        <time>2025-02-11T12:17:06Z</time>
      </trkpt>
      <trkpt lat="47.81105" lon="-2.48549">
        <ele>88.9</ele>
        <time>2025-02-11T12:17:07Z</time>
      </trkpt>
      <trkpt lat="47.81105" lon="-2.48549">
        <ele>88.9</ele>
        <time>2025-02-11T12:17:08Z</time>
      </trkpt>
      <trkpt lat="47.81105" lon="-2.48549">
        <ele>88.9</ele>
        <time>2025-02-11T12:17:09Z</time>
      </trkpt>
      <trkpt lat="47.81105" lon="-2.48548">
        <ele>88.9</ele>
        <time>2025-02-11T12:17:10Z</time>
      </trkpt>
      <trkpt lat="47.81105" lon="-2.48548">
        <ele>88.9</ele>
        <time>2025-02-11T12:17:11Z</time>
      </trkpt>
      <trkpt lat="47.81105" lon="-2.48548">
        <ele>89</ele>
        <time>2025-02-11T12:17:12Z</time>
      </trkpt>
      <trkpt lat="47.81105" lon="-2.48547">
        <ele>89</ele>
        <time>2025-02-11T12:17:13Z</time>
      </trkpt>
      <trkpt lat="47.81106" lon="-2.48546">
        <ele>89.1</ele>
        <time>2025-02-11T12:17:14Z</time>
      </trkpt>
      <trkpt lat="47.81108" lon="-2.48545">
        <ele>89.6</ele>
        <time>2025-02-11T12:17:15Z</time>
      </trkpt>
      <trkpt lat="47.81109" lon="-2.48546">
        <ele>89.8</ele>
        <time>2025-02-11T12:17:16Z</time>
      </trkpt>
      <trkpt lat="47.8111" lon="-2.48546">
        <ele>90</ele>
        <time>2025-02-11T12:17:17Z</time>
      </trkpt>
      <trkpt lat="47.81111" lon="-2.48545">
        <ele>90.2</ele>
        <time>2025-02-11T12:17:18Z</time>
      </trkpt>
      <trkpt lat="47.81112" lon="-2.48546">
        <ele>90.4</ele>
        <time>2025-02-11T12:17:19Z</time>
      </trkpt>
      <trkpt lat="47.81112" lon="-2.48545">
        <ele>90.4</ele>
        <time>2025-02-11T12:17:20Z</time>
      </trkpt>
      <trkpt lat="47.81113" lon="-2.48545">
        <ele>90.5</ele>
        <time>2025-02-11T12:17:21Z</time>
      </trkpt>
      <trkpt lat="47.81113" lon="-2.48543">
        <ele>90.5</ele>
        <time>2025-02-11T12:17:22Z</time>
      </trkpt>
      <trkpt lat="47.81114" lon="-2.48543">
        <ele>90.6</ele>
        <time>2025-02-11T12:17:23Z</time>
      </trkpt>
      <trkpt lat="47.81114" lon="-2.48541">
        <ele>90.6</ele>
        <time>2025-02-11T12:17:24Z</time>
      </trkpt>
      <trkpt lat="47.81115" lon="-2.4854">
        <ele>90.7</ele>
        <time>2025-02-11T12:17:25Z</time>
      </trkpt>
      <trkpt lat="47.81115" lon="-2.48539">
        <ele>90.7</ele>
        <time>2025-02-11T12:17:26Z</time>
      </trkpt>
      <trkpt lat="47.81116" lon="-2.48538">
        <ele>90.8</ele>
        <time>2025-02-11T12:17:27Z</time>
      </trkpt>
      <trkpt lat="47.81117" lon="-2.48539">
        <ele>90.8</ele>
        <time>2025-02-11T12:17:28Z</time>
      </trkpt>
      <trkpt lat="47.81118" lon="-2.48539">
        <ele>90.8</ele>
        <time>2025-02-11T12:17:29Z</time>
      </trkpt>
      <trkpt lat="47.81119" lon="-2.48538">
        <ele>90.9</ele>
        <time>2025-02-11T12:17:30Z</time>
      </trkpt>
      <trkpt lat="47.8112" lon="-2.48538">
        <ele>90.9</ele>
        <time>2025-02-11T12:17:31Z</time>
      </trkpt>
      <trkpt lat="47.81121" lon="-2.48538">
        <ele>91</ele>
        <time>2025-02-11T12:17:32Z</time>
      </trkpt>
      <trkpt lat="47.81122" lon="-2.48537">
        <ele>91</ele>
        <time>2025-02-11T12:17:33Z</time>
      </trkpt>
      <trkpt lat="47.81123" lon="-2.48536">
        <ele>91.1</ele>
        <time>2025-02-11T12:17:34Z</time>
      </trkpt>
      <trkpt lat="47.81124" lon="-2.48535">
        <ele>91.2</ele>
        <time>2025-02-11T12:17:35Z</time>
      </trkpt>
      <trkpt lat="47.81126" lon="-2.48535">
        <ele>91.3</ele>
        <time>2025-02-11T12:17:36Z</time>
      </trkpt>
      <trkpt lat="47.81127" lon="-2.48535">
        <ele>91.3</ele>
        <time>2025-02-11T12:17:37Z</time>
      </trkpt>
      <trkpt lat="47.81128" lon="-2.48535">
        <ele>91.4</ele>
        <time>2025-02-11T12:17:38Z</time>
      </trkpt>
      <trkpt lat="47.81129" lon="-2.48535">
        <ele>91.4</ele>
        <time>2025-02-11T12:17:39Z</time>
      </trkpt>
      <trkpt lat="47.81131" lon="-2.48536">
        <ele>91.4</ele>
        <time>2025-02-11T12:17:40Z</time>
      </trkpt>
      <trkpt lat="47.81132" lon="-2.48535">
        <ele>91.5</ele>
        <time>2025-02-11T12:17:41Z</time>
      </trkpt>
      <trkpt lat="47.81133" lon="-2.48535">
        <ele>91.5</ele>
        <time>2025-02-11T12:17:42Z</time>
      </trkpt>
      <trkpt lat="47.81134" lon="-2.48535">
        <ele>91.6</ele>
        <time>2025-02-11T12:17:43Z</time>
      </trkpt>
      <trkpt lat="47.81135" lon="-2.48535">
        <ele>91.6</ele>
        <time>2025-02-11T12:17:44Z</time>
      </trkpt>
      <trkpt lat="47.81136" lon="-2.48535">
        <ele>91.7</ele>
        <time>2025-02-11T12:17:45Z</time>
      </trkpt>
      <trkpt lat="47.81137" lon="-2.48535">
        <ele>91.7</ele>
        <time>2025-02-11T12:17:46Z</time>
      </trkpt>
      <trkpt lat="47.81138" lon="-2.48534">
        <ele>91.7</ele>
        <time>2025-02-11T12:17:47Z</time>
      </trkpt>
      <trkpt lat="47.81139" lon="-2.48535">
        <ele>91.7</ele>
        <time>2025-02-11T12:17:48Z</time>
      </trkpt>
      <trkpt lat="47.8114" lon="-2.48535">
        <ele>91.7</ele>
        <time>2025-02-11T12:17:49Z</time>
      </trkpt>
      <trkpt lat="47.81142" lon="-2.48534">
        <ele>91.7</ele>
        <time>2025-02-11T12:17:50Z</time>
      </trkpt>
      <trkpt lat="47.81143" lon="-2.48533">
        <ele>91.7</ele>
        <time>2025-02-11T12:17:51Z</time>
      </trkpt>
      <trkpt lat="47.81144" lon="-2.48533">
        <ele>91.7</ele>
        <time>2025-02-11T12:17:52Z</time>
      </trkpt>
      <trkpt lat="47.81144" lon="-2.48533">
        <ele>91.7</ele>
        <time>2025-02-11T12:17:53Z</time>
      </trkpt>
      <trkpt lat="47.81145" lon="-2.48533">
        <ele>91.7</ele>
        <time>2025-02-11T12:17:54Z</time>
      </trkpt>
      <trkpt lat="47.81146" lon="-2.48533">
        <ele>91.7</ele>
        <time>2025-02-11T12:17:55Z</time>
      </trkpt>
      <trkpt lat="47.81147" lon="-2.48533">
        <ele>91.7</ele>
        <time>2025-02-11T12:17:56Z</time>
      </trkpt>
      <trkpt lat="47.81147" lon="-2.48532">
        <ele>91.7</ele>
        <time>2025-02-11T12:17:57Z</time>
      </trkpt>
      <trkpt lat="47.81148" lon="-2.48532">
        <ele>91.7</ele>
        <time>2025-02-11T12:17:58Z</time>
      </trkpt>
      <trkpt lat="47.81149" lon="-2.48531">
        <ele>91.8</ele>
        <time>2025-02-11T12:17:59Z</time>
      </trkpt>
      <trkpt lat="47.8115" lon="-2.48531">
        <ele>91.8</ele>
        <time>2025-02-11T12:18:00Z</time>
      </trkpt>
      <trkpt lat="47.81151" lon="-2.4853">
        <ele>91.9</ele>
        <time>2025-02-11T12:18:01Z</time>
      </trkpt>
      <trkpt lat="47.81152" lon="-2.48529">
        <ele>91.9</ele>
        <time>2025-02-11T12:18:02Z</time>
      </trkpt>
      <trkpt lat="47.81153" lon="-2.48529">
        <ele>91.9</ele>
        <time>2025-02-11T12:18:03Z</time>
      </trkpt>
      <trkpt lat="47.81154" lon="-2.48528">
        <ele>92</ele>
        <time>2025-02-11T12:18:04Z</time>
      </trkpt>
      <trkpt lat="47.81154" lon="-2.48527">
        <ele>92.1</ele>
        <time>2025-02-11T12:18:05Z</time>
      </trkpt>
      <trkpt lat="47.81155" lon="-2.48526">
        <ele>92.1</ele>
        <time>2025-02-11T12:18:06Z</time>
      </trkpt>
      <trkpt lat="47.81157" lon="-2.48527">
        <ele>92.1</ele>
        <time>2025-02-11T12:18:07Z</time>
      </trkpt>
      <trkpt lat="47.81158" lon="-2.48529">
        <ele>91.9</ele>
        <time>2025-02-11T12:18:08Z</time>
      </trkpt>
      <trkpt lat="47.81228" lon="-2.48509">
        <ele>92.9</ele>
      </trkpt>
      <trkpt lat="47.8122" lon="-2.48384">
        <ele>94.6</ele>
      </trkpt>
      <trkpt lat="47.81078" lon="-2.4834">
        <ele>80</ele>
      </trkpt>
      <trkpt lat="47.81025" lon="-2.48386">
        <ele>74.1</ele>
      </trkpt>
      <trkpt lat="47.81007" lon="-2.48432">
        <ele>71.8</ele>
        <time>2025-02-11T12:30:35Z</time>
      </trkpt>
      <trkpt lat="47.81006" lon="-2.48431">
        <ele>71.8</ele>
        <time>2025-02-11T12:30:36Z</time>
      </trkpt>
      <trkpt lat="47.81006" lon="-2.48429">
        <ele>71.7</ele>
        <time>2025-02-11T12:30:37Z</time>
      </trkpt>
      <trkpt lat="47.81005" lon="-2.48428">
        <ele>71.6</ele>
        <time>2025-02-11T12:30:38Z</time>
      </trkpt>
      <trkpt lat="47.81005" lon="-2.48427">
        <ele>71.6</ele>
        <time>2025-02-11T12:30:39Z</time>
      </trkpt>
      <trkpt lat="47.81004" lon="-2.48426">
        <ele>71.4</ele>
        <time>2025-02-11T12:30:40Z</time>
      </trkpt>
      <trkpt lat="47.81003" lon="-2.48426">
        <ele>71.3</ele>
        <time>2025-02-11T12:30:41Z</time>
      </trkpt>
      <trkpt lat="47.81002" lon="-2.48426">
        <ele>71.2</ele>
        <time>2025-02-11T12:30:42Z</time>
      </trkpt>
      <trkpt lat="47.81" lon="-2.48426">
        <ele>71</ele>
        <time>2025-02-11T12:30:43Z</time>
      </trkpt>
      <trkpt lat="47.80999" lon="-2.48427">
        <ele>71</ele>
        <time>2025-02-11T12:30:44Z</time>
      </trkpt>
      <trkpt lat="47.80998" lon="-2.48428">
        <ele>71</ele>
        <time>2025-02-11T12:30:45Z</time>
      </trkpt>
      <trkpt lat="47.80997" lon="-2.48429">
        <ele>71</ele>
        <time>2025-02-11T12:30:46Z</time>
      </trkpt>
      <trkpt lat="47.80996" lon="-2.4843">
        <ele>71</ele>
        <time>2025-02-11T12:30:47Z</time>
      </trkpt>
      <trkpt lat="47.80995" lon="-2.48431">
        <ele>71</ele>
        <time>2025-02-11T12:30:48Z</time>
      </trkpt>
      <trkpt lat="47.80993" lon="-2.48432">
        <ele>71</ele>
        <time>2025-02-11T12:30:49Z</time>
      </trkpt>
      <trkpt lat="47.80992" lon="-2.48433">
        <ele>71</ele>
        <time>2025-02-11T12:30:50Z</time>
      </trkpt>
      <trkpt lat="47.80991" lon="-2.48433">
        <ele>71</ele>
        <time>2025-02-11T12:30:51Z</time>
      </trkpt>
      <trkpt lat="47.8099" lon="-2.48432">
        <ele>71</ele>
        <time>2025-02-11T12:30:52Z</time>
      </trkpt>
      <trkpt lat="47.8099" lon="-2.48431">
        <ele>71</ele>
        <time>2025-02-11T12:30:53Z</time>
      </trkpt>
      <trkpt lat="47.80989" lon="-2.48431">
        <ele>71</ele>
        <time>2025-02-11T12:30:54Z</time>
      </trkpt>
      <trkpt lat="47.80988" lon="-2.48433">
        <ele>71</ele>
        <time>2025-02-11T12:30:55Z</time>
      </trkpt>
      <trkpt lat="47.80988" lon="-2.48435">
        <ele>71</ele>
        <time>2025-02-11T12:30:56Z</time>
      </trkpt>
      <trkpt lat="47.80988" lon="-2.48437">
        <ele>71</ele>
        <time>2025-02-11T12:30:57Z</time>
      </trkpt>
      <trkpt lat="47.80989" lon="-2.48439">
        <ele>71</ele>
        <time>2025-02-11T12:30:58Z</time>
      </trkpt>
      <trkpt lat="47.8099" lon="-2.48439">
        <ele>71</ele>
        <time>2025-02-11T12:30:59Z</time>
      </trkpt>
      <trkpt lat="47.8099" lon="-2.48439">
        <ele>71</ele>
        <time>2025-02-11T12:31:00Z</time>
      </trkpt>
      <trkpt lat="47.8099" lon="-2.48439">
        <ele>71</ele>
        <time>2025-02-11T12:31:01Z</time>
      </trkpt>
      <trkpt lat="47.8099" lon="-2.48439">
        <ele>71</ele>
        <time>2025-02-11T12:31:02Z</time>
      </trkpt>
      <trkpt lat="47.8099" lon="-2.4844">
        <ele>71</ele>
        <time>2025-02-11T12:31:03Z</time>
      </trkpt>
      <trkpt lat="47.8099" lon="-2.48441">
        <ele>71</ele>
        <time>2025-02-11T12:31:04Z</time>
      </trkpt>
      <trkpt lat="47.80991" lon="-2.48441">
        <ele>71</ele>
        <time>2025-02-11T12:31:05Z</time>
      </trkpt>
      <trkpt lat="47.80992" lon="-2.48444">
        <ele>71</ele>
        <time>2025-02-11T12:31:06Z</time>
      </trkpt>
      <trkpt lat="47.80993" lon="-2.48445">
        <ele>71</ele>
        <time>2025-02-11T12:31:07Z</time>
      </trkpt>
      <trkpt lat="47.80992" lon="-2.48448">
        <ele>71</ele>
        <time>2025-02-11T12:31:08Z</time>
      </trkpt>
      <trkpt lat="47.80991" lon="-2.48448">
        <ele>71</ele>
        <time>2025-02-11T12:31:09Z</time>
      </trkpt>
      <trkpt lat="47.8099" lon="-2.48448">
        <ele>71</ele>
        <time>2025-02-11T12:31:10Z</time>
      </trkpt>
      <trkpt lat="47.80989" lon="-2.48448">
        <ele>71</ele>
        <time>2025-02-11T12:31:11Z</time>
      </trkpt>
      <trkpt lat="47.80988" lon="-2.48448">
        <ele>71</ele>
        <time>2025-02-11T12:31:12Z</time>
      </trkpt>
      <trkpt lat="47.80986" lon="-2.48449">
        <ele>71</ele>
        <time>2025-02-11T12:31:13Z</time>
      </trkpt>
      <trkpt lat="47.80985" lon="-2.48448">
        <ele>71</ele>
        <time>2025-02-11T12:31:14Z</time>
      </trkpt>
      <trkpt lat="47.80984" lon="-2.48448">
        <ele>71</ele>
        <time>2025-02-11T12:31:15Z</time>
      </trkpt>
      <trkpt lat="47.80983" lon="-2.48447">
        <ele>71</ele>
        <time>2025-02-11T12:31:16Z</time>
      </trkpt>
      <trkpt lat="47.80981" lon="-2.48448">
        <ele>71</ele>
        <time>2025-02-11T12:31:17Z</time>
      </trkpt>
      <trkpt lat="47.8098" lon="-2.48448">
        <ele>71</ele>
        <time>2025-02-11T12:31:18Z</time>
      </trkpt>
      <trkpt lat="47.80979" lon="-2.48448">
        <ele>71</ele>
        <time>2025-02-11T12:31:19Z</time>
      </trkpt>
      <trkpt lat="47.80978" lon="-2.48448">
        <ele>71</ele>
        <time>2025-02-11T12:31:20Z</time>
      </trkpt>
      <trkpt lat="47.80977" lon="-2.48448">
        <ele>71</ele>
        <time>2025-02-11T12:31:21Z</time>
      </trkpt>
      <trkpt lat="47.80976" lon="-2.48449">
        <ele>71</ele>
        <time>2025-02-11T12:31:22Z</time>
      </trkpt>
      <trkpt lat="47.80975" lon="-2.48449">
        <ele>71</ele>
        <time>2025-02-11T12:31:23Z</time>
      </trkpt>
      <trkpt lat="47.80974" lon="-2.48449">
        <ele>71</ele>
        <time>2025-02-11T12:31:24Z</time>
      </trkpt>
      <trkpt lat="47.80972" lon="-2.4845">
        <ele>71</ele>
        <time>2025-02-11T12:31:25Z</time>
      </trkpt>
      <trkpt lat="47.80971" lon="-2.48451">
        <ele>71</ele>
        <time>2025-02-11T12:31:26Z</time>
      </trkpt>
      <trkpt lat="47.8097" lon="-2.48452">
        <ele>71.1</ele>
        <time>2025-02-11T12:31:27Z</time>
      </trkpt>
      <trkpt lat="47.80969" lon="-2.48453">
        <ele>71.1</ele>
        <time>2025-02-11T12:31:28Z</time>
      </trkpt>
      <trkpt lat="47.80968" lon="-2.48453">
        <ele>71.1</ele>
        <time>2025-02-11T12:31:29Z</time>
      </trkpt>
      <trkpt lat="47.80967" lon="-2.48454">
        <ele>71.2</ele>
        <time>2025-02-11T12:31:30Z</time>
      </trkpt>
      <trkpt lat="47.80967" lon="-2.48455">
        <ele>71.2</ele>
        <time>2025-02-11T12:31:31Z</time>
      </trkpt>
      <trkpt lat="47.80966" lon="-2.48456">
        <ele>71.2</ele>
        <time>2025-02-11T12:31:32Z</time>
      </trkpt>
      <trkpt lat="47.80965" lon="-2.48458">
        <ele>71.2</ele>
        <time>2025-02-11T12:31:33Z</time>
      </trkpt>
      <trkpt lat="47.80964" lon="-2.48459">
        <ele>71.3</ele>
        <time>2025-02-11T12:31:34Z</time>
      </trkpt>
      <trkpt lat="47.80964" lon="-2.4846">
        <ele>71.3</ele>
        <time>2025-02-11T12:31:35Z</time>
      </trkpt>
      <trkpt lat="47.80963" lon="-2.48461">
        <ele>71.3</ele>
        <time>2025-02-11T12:31:36Z</time>
      </trkpt>
      <trkpt lat="47.80962" lon="-2.48462">
        <ele>71.4</ele>
        <time>2025-02-11T12:31:37Z</time>
      </trkpt>
      <trkpt lat="47.80961" lon="-2.48463">
        <ele>71.4</ele>
        <time>2025-02-11T12:31:38Z</time>
      </trkpt>
      <trkpt lat="47.80961" lon="-2.48464">
        <ele>71.4</ele>
        <time>2025-02-11T12:31:39Z</time>
      </trkpt>
      <trkpt lat="47.8096" lon="-2.48465">
        <ele>71.4</ele>
        <time>2025-02-11T12:31:40Z</time>
      </trkpt>
      <trkpt lat="47.80959" lon="-2.48467">
        <ele>71.5</ele>
        <time>2025-02-11T12:31:41Z</time>
      </trkpt>
      <trkpt lat="47.80958" lon="-2.48468">
        <ele>71.5</ele>
        <time>2025-02-11T12:31:42Z</time>
      </trkpt>
      <trkpt lat="47.80957" lon="-2.48469">
        <ele>71.5</ele>
        <time>2025-02-11T12:31:43Z</time>
      </trkpt>
      <trkpt lat="47.80957" lon="-2.4847">
        <ele>71.6</ele>
        <time>2025-02-11T12:31:44Z</time>
      </trkpt>
      <trkpt lat="47.80955" lon="-2.4847">
        <ele>71.6</ele>
        <time>2025-02-11T12:31:45Z</time>
      </trkpt>
      <trkpt lat="47.80954" lon="-2.48471">
        <ele>71.6</ele>
        <time>2025-02-11T12:31:46Z</time>
      </trkpt>
      <trkpt lat="47.80954" lon="-2.48472">
        <ele>71.7</ele>
        <time>2025-02-11T12:31:47Z</time>
      </trkpt>
      <trkpt lat="47.80953" lon="-2.48473">
        <ele>71.7</ele>
        <time>2025-02-11T12:31:48Z</time>
      </trkpt>
      <trkpt lat="47.80952" lon="-2.48473">
        <ele>71.7</ele>
        <time>2025-02-11T12:31:49Z</time>
      </trkpt>
      <trkpt lat="47.80951" lon="-2.48474">
        <ele>71.7</ele>
        <time>2025-02-11T12:31:50Z</time>
      </trkpt>
      <trkpt lat="47.8095" lon="-2.48474">
        <ele>71.7</ele>
        <time>2025-02-11T12:31:51Z</time>
      </trkpt>
      <trkpt lat="47.80949" lon="-2.48476">
        <ele>71.7</ele>
        <time>2025-02-11T12:31:52Z</time>
      </trkpt>
      <trkpt lat="47.80948" lon="-2.48477">
        <ele>71.7</ele>
        <time>2025-02-11T12:31:53Z</time>
      </trkpt>
      <trkpt lat="47.80948" lon="-2.48477">
        <ele>71.7</ele>
        <time>2025-02-11T12:31:54Z</time>
      </trkpt>
      <trkpt lat="47.80947" lon="-2.48478">
        <ele>71.7</ele>
        <time>2025-02-11T12:31:55Z</time>
      </trkpt>
      <trkpt lat="47.80946" lon="-2.48479">
        <ele>71.7</ele>
        <time>2025-02-11T12:31:56Z</time>
      </trkpt>
      <trkpt lat="47.80945" lon="-2.48479">
        <ele>71.7</ele>
        <time>2025-02-11T12:31:57Z</time>
      </trkpt>
      <trkpt lat="47.80944" lon="-2.4848">
        <ele>71.8</ele>
        <time>2025-02-11T12:31:58Z</time>
      </trkpt>
      <trkpt lat="47.80943" lon="-2.48481">
        <ele>71.8</ele>
        <time>2025-02-11T12:31:59Z</time>
      </trkpt>
      <trkpt lat="47.80942" lon="-2.48481">
        <ele>71.8</ele>
        <time>2025-02-11T12:32:00Z</time>
      </trkpt>
      <trkpt lat="47.80941" lon="-2.48481">
        <ele>71.8</ele>
        <time>2025-02-11T12:32:01Z</time>
      </trkpt>
      <trkpt lat="47.8094" lon="-2.48482">
        <ele>71.9</ele>
        <time>2025-02-11T12:32:02Z</time>
      </trkpt>
      <trkpt lat="47.80939" lon="-2.48483">
        <ele>71.9</ele>
        <time>2025-02-11T12:32:03Z</time>
      </trkpt>
      <trkpt lat="47.80938" lon="-2.48483">
        <ele>71.9</ele>
        <time>2025-02-11T12:32:04Z</time>
      </trkpt>
      <trkpt lat="47.80937" lon="-2.48484">
        <ele>71.9</ele>
        <time>2025-02-11T12:32:05Z</time>
      </trkpt>
      <trkpt lat="47.80937" lon="-2.48485">
        <ele>72</ele>
        <time>2025-02-11T12:32:06Z</time>
      </trkpt>
      <trkpt lat="47.80936" lon="-2.48486">
        <ele>72</ele>
        <time>2025-02-11T12:32:07Z</time>
      </trkpt>
      <trkpt lat="47.80934" lon="-2.48487">
        <ele>72</ele>
        <time>2025-02-11T12:32:08Z</time>
      </trkpt>
      <trkpt lat="47.80933" lon="-2.48488">
        <ele>72.1</ele>
        <time>2025-02-11T12:32:09Z</time>
      </trkpt>
      <trkpt lat="47.80932" lon="-2.4849">
        <ele>72.1</ele>
        <time>2025-02-11T12:32:10Z</time>
      </trkpt>
      <trkpt lat="47.80931" lon="-2.48491">
        <ele>72.1</ele>
        <time>2025-02-11T12:32:11Z</time>
      </trkpt>
      <trkpt lat="47.8093" lon="-2.48493">
        <ele>72.2</ele>
        <time>2025-02-11T12:32:12Z</time>
      </trkpt>
      <trkpt lat="47.80929" lon="-2.48494">
        <ele>72.2</ele>
        <time>2025-02-11T12:32:13Z</time>
      </trkpt>
      <trkpt lat="47.80928" lon="-2.48495">
        <ele>72.3</ele>
        <time>2025-02-11T12:32:14Z</time>
      </trkpt>
      <trkpt lat="47.80927" lon="-2.48496">
        <ele>72.3</ele>
        <time>2025-02-11T12:32:15Z</time>
      </trkpt>
      <trkpt lat="47.80926" lon="-2.48497">
        <ele>72.4</ele>
        <time>2025-02-11T12:32:16Z</time>
      </trkpt>
      <trkpt lat="47.80925" lon="-2.48497">
        <ele>72.4</ele>
        <time>2025-02-11T12:32:17Z</time>
      </trkpt>
      <trkpt lat="47.80924" lon="-2.48498">
        <ele>72.5</ele>
        <time>2025-02-11T12:32:18Z</time>
      </trkpt>
      <trkpt lat="47.80923" lon="-2.48499">
        <ele>72.6</ele>
        <time>2025-02-11T12:32:19Z</time>
      </trkpt>
      <trkpt lat="47.80922" lon="-2.485">
        <ele>72.6</ele>
        <time>2025-02-11T12:32:20Z</time>
      </trkpt>
      <trkpt lat="47.80921" lon="-2.485">
        <ele>72.7</ele>
        <time>2025-02-11T12:32:21Z</time>
      </trkpt>
      <trkpt lat="47.8092" lon="-2.48501">
        <ele>72.8</ele>
        <time>2025-02-11T12:32:22Z</time>
      </trkpt>
      <trkpt lat="47.80918" lon="-2.48502">
        <ele>72.9</ele>
        <time>2025-02-11T12:32:23Z</time>
      </trkpt>
      <trkpt lat="47.80917" lon="-2.48503">
        <ele>73</ele>
        <time>2025-02-11T12:32:24Z</time>
      </trkpt>
      <trkpt lat="47.80916" lon="-2.48503">
        <ele>73</ele>
        <time>2025-02-11T12:32:25Z</time>
      </trkpt>
      <trkpt lat="47.80915" lon="-2.48504">
        <ele>73.1</ele>
        <time>2025-02-11T12:32:26Z</time>
      </trkpt>
      <trkpt lat="47.80913" lon="-2.48504">
        <ele>73.1</ele>
        <time>2025-02-11T12:32:27Z</time>
      </trkpt>
      <trkpt lat="47.80912" lon="-2.48505">
        <ele>73.2</ele>
        <time>2025-02-11T12:32:28Z</time>
      </trkpt>
      <trkpt lat="47.80911" lon="-2.48506">
        <ele>73.2</ele>
        <time>2025-02-11T12:32:29Z</time>
      </trkpt>
      <trkpt lat="47.8091" lon="-2.48507">
        <ele>73.3</ele>
        <time>2025-02-11T12:32:30Z</time>
      </trkpt>
      <trkpt lat="47.80909" lon="-2.48507">
        <ele>73.3</ele>
        <time>2025-02-11T12:32:31Z</time>
      </trkpt>
      <trkpt lat="47.80907" lon="-2.48507">
        <ele>73.3</ele>
        <time>2025-02-11T12:32:32Z</time>
      </trkpt>
      <trkpt lat="47.80906" lon="-2.48508">
        <ele>73.4</ele>
        <time>2025-02-11T12:32:33Z</time>
      </trkpt>
      <trkpt lat="47.80905" lon="-2.48507">
        <ele>73.4</ele>
        <time>2025-02-11T12:32:34Z</time>
      </trkpt>
      <trkpt lat="47.80903" lon="-2.48507">
        <ele>73.5</ele>
        <time>2025-02-11T12:32:35Z</time>
      </trkpt>
      <trkpt lat="47.80902" lon="-2.48508">
        <ele>73.5</ele>
        <time>2025-02-11T12:32:36Z</time>
      </trkpt>
      <trkpt lat="47.80901" lon="-2.48508">
        <ele>73.6</ele>
        <time>2025-02-11T12:32:37Z</time>
      </trkpt>
      <trkpt lat="47.809" lon="-2.48508">
        <ele>73.6</ele>
        <time>2025-02-11T12:32:38Z</time>
      </trkpt>
      <trkpt lat="47.80899" lon="-2.48509">
        <ele>73.6</ele>
        <time>2025-02-11T12:32:39Z</time>
      </trkpt>
      <trkpt lat="47.80898" lon="-2.48509">
        <ele>73.7</ele>
        <time>2025-02-11T12:32:40Z</time>
      </trkpt>
      <trkpt lat="47.80897" lon="-2.4851">
        <ele>73.7</ele>
        <time>2025-02-11T12:32:41Z</time>
      </trkpt>
      <trkpt lat="47.80896" lon="-2.48511">
        <ele>73.7</ele>
        <time>2025-02-11T12:32:42Z</time>
      </trkpt>
      <trkpt lat="47.80896" lon="-2.48511">
        <ele>73.8</ele>
        <time>2025-02-11T12:32:43Z</time>
      </trkpt>
      <trkpt lat="47.80895" lon="-2.48512">
        <ele>73.8</ele>
        <time>2025-02-11T12:32:44Z</time>
      </trkpt>
      <trkpt lat="47.80893" lon="-2.48511">
        <ele>73.8</ele>
        <time>2025-02-11T12:32:45Z</time>
      </trkpt>
      <trkpt lat="47.80893" lon="-2.48509">
        <ele>73.8</ele>
        <time>2025-02-11T12:32:46Z</time>
      </trkpt>
      <trkpt lat="47.80894" lon="-2.48507">
        <ele>73.8</ele>
        <time>2025-02-11T12:32:47Z</time>
      </trkpt>
      <trkpt lat="47.80893" lon="-2.48506">
        <ele>73.8</ele>
        <time>2025-02-11T12:32:48Z</time>
      </trkpt>
      <trkpt lat="47.80892" lon="-2.48506">
        <ele>73.9</ele>
        <time>2025-02-11T12:32:49Z</time>
      </trkpt>
      <trkpt lat="47.80891" lon="-2.48507">
        <ele>73.9</ele>
        <time>2025-02-11T12:32:50Z</time>
      </trkpt>
      <trkpt lat="47.8089" lon="-2.48509">
        <ele>74</ele>
        <time>2025-02-11T12:32:51Z</time>
      </trkpt>
      <trkpt lat="47.80889" lon="-2.48509">
        <ele>74</ele>
        <time>2025-02-11T12:32:52Z</time>
      </trkpt>
      <trkpt lat="47.80888" lon="-2.4851">
        <ele>74.1</ele>
        <time>2025-02-11T12:32:53Z</time>
      </trkpt>
      <trkpt lat="47.80887" lon="-2.4851">
        <ele>74.1</ele>
        <time>2025-02-11T12:32:54Z</time>
      </trkpt>
      <trkpt lat="47.80887" lon="-2.48511">
        <ele>74.2</ele>
        <time>2025-02-11T12:32:55Z</time>
      </trkpt>
      <trkpt lat="47.80886" lon="-2.48512">
        <ele>74.3</ele>
        <time>2025-02-11T12:32:56Z</time>
      </trkpt>
      <trkpt lat="47.80885" lon="-2.48513">
        <ele>74.4</ele>
        <time>2025-02-11T12:32:57Z</time>
      </trkpt>
      <trkpt lat="47.80884" lon="-2.48514">
        <ele>74.4</ele>
        <time>2025-02-11T12:32:58Z</time>
      </trkpt>
      <trkpt lat="47.80883" lon="-2.48514">
        <ele>74.5</ele>
        <time>2025-02-11T12:32:59Z</time>
      </trkpt>
      <trkpt lat="47.80882" lon="-2.48515">
        <ele>74.6</ele>
        <time>2025-02-11T12:33:00Z</time>
      </trkpt>
      <trkpt lat="47.80881" lon="-2.48515">
        <ele>74.7</ele>
        <time>2025-02-11T12:33:01Z</time>
      </trkpt>
      <trkpt lat="47.8088" lon="-2.48515">
        <ele>74.7</ele>
        <time>2025-02-11T12:33:02Z</time>
      </trkpt>
      <trkpt lat="47.80879" lon="-2.48516">
        <ele>74.8</ele>
        <time>2025-02-11T12:33:03Z</time>
      </trkpt>
      <trkpt lat="47.80879" lon="-2.48517">
        <ele>74.9</ele>
        <time>2025-02-11T12:33:04Z</time>
      </trkpt>
      <trkpt lat="47.80878" lon="-2.48518">
        <ele>75</ele>
        <time>2025-02-11T12:33:05Z</time>
      </trkpt>
      <trkpt lat="47.80877" lon="-2.48518">
        <ele>75</ele>
        <time>2025-02-11T12:33:06Z</time>
      </trkpt>
      <trkpt lat="47.80876" lon="-2.48518">
        <ele>75.1</ele>
        <time>2025-02-11T12:33:07Z</time>
      </trkpt>
      <trkpt lat="47.80874" lon="-2.48519">
        <ele>75.2</ele>
        <time>2025-02-11T12:33:08Z</time>
      </trkpt>
      <trkpt lat="47.80873" lon="-2.48519">
        <ele>75.3</ele>
        <time>2025-02-11T12:33:09Z</time>
      </trkpt>
      <trkpt lat="47.80872" lon="-2.48519">
        <ele>75.4</ele>
        <time>2025-02-11T12:33:10Z</time>
      </trkpt>
      <trkpt lat="47.80871" lon="-2.48519">
        <ele>75.5</ele>
        <time>2025-02-11T12:33:11Z</time>
      </trkpt>
      <trkpt lat="47.8087" lon="-2.48519">
        <ele>75.6</ele>
        <time>2025-02-11T12:33:12Z</time>
      </trkpt>
      <trkpt lat="47.80869" lon="-2.48519">
        <ele>75.7</ele>
        <time>2025-02-11T12:33:13Z</time>
      </trkpt>
      <trkpt lat="47.80868" lon="-2.4852">
        <ele>75.7</ele>
        <time>2025-02-11T12:33:14Z</time>
      </trkpt>
      <trkpt lat="47.80867" lon="-2.4852">
        <ele>75.8</ele>
        <time>2025-02-11T12:33:15Z</time>
      </trkpt>
      <trkpt lat="47.80866" lon="-2.48519">
        <ele>75.9</ele>
        <time>2025-02-11T12:33:16Z</time>
      </trkpt>
      <trkpt lat="47.80864" lon="-2.48519">
        <ele>76</ele>
        <time>2025-02-11T12:33:17Z</time>
      </trkpt>
      <trkpt lat="47.80863" lon="-2.4852">
        <ele>76.1</ele>
        <time>2025-02-11T12:33:18Z</time>
      </trkpt>
      <trkpt lat="47.80862" lon="-2.4852">
        <ele>76.2</ele>
        <time>2025-02-11T12:33:19Z</time>
      </trkpt>
      <trkpt lat="47.80861" lon="-2.4852">
        <ele>76.3</ele>
        <time>2025-02-11T12:33:20Z</time>
      </trkpt>
      <trkpt lat="47.80859" lon="-2.48521">
        <ele>76.4</ele>
        <time>2025-02-11T12:33:21Z</time>
      </trkpt>
      <trkpt lat="47.80858" lon="-2.48521">
        <ele>76.5</ele>
        <time>2025-02-11T12:33:22Z</time>
      </trkpt>
      <trkpt lat="47.80857" lon="-2.48522">
        <ele>76.6</ele>
        <time>2025-02-11T12:33:23Z</time>
      </trkpt>
      <trkpt lat="47.80856" lon="-2.48523">
        <ele>76.7</ele>
        <time>2025-02-11T12:33:24Z</time>
      </trkpt>
      <trkpt lat="47.80854" lon="-2.48524">
        <ele>76.8</ele>
        <time>2025-02-11T12:33:25Z</time>
      </trkpt>
      <trkpt lat="47.80853" lon="-2.48524">
        <ele>76.9</ele>
        <time>2025-02-11T12:33:26Z</time>
      </trkpt>
      <trkpt lat="47.80852" lon="-2.48525">
        <ele>77.1</ele>
        <time>2025-02-11T12:33:27Z</time>
      </trkpt>
      <trkpt lat="47.80851" lon="-2.48525">
        <ele>77.2</ele>
        <time>2025-02-11T12:33:28Z</time>
      </trkpt>
      <trkpt lat="47.80849" lon="-2.48526">
        <ele>77.3</ele>
        <time>2025-02-11T12:33:29Z</time>
      </trkpt>
      <trkpt lat="47.80848" lon="-2.48527">
        <ele>77.5</ele>
        <time>2025-02-11T12:33:30Z</time>
      </trkpt>
      <trkpt lat="47.80847" lon="-2.48527">
        <ele>77.6</ele>
        <time>2025-02-11T12:33:31Z</time>
      </trkpt>
      <trkpt lat="47.80846" lon="-2.48527">
        <ele>77.7</ele>
        <time>2025-02-11T12:33:32Z</time>
      </trkpt>
      <trkpt lat="47.80844" lon="-2.48528">
        <ele>77.8</ele>
        <time>2025-02-11T12:33:33Z</time>
      </trkpt>
      <trkpt lat="47.80843" lon="-2.48528">
        <ele>77.9</ele>
        <time>2025-02-11T12:33:34Z</time>
      </trkpt>
      <trkpt lat="47.80842" lon="-2.48528">
        <ele>78.1</ele>
        <time>2025-02-11T12:33:35Z</time>
      </trkpt>
      <trkpt lat="47.80841" lon="-2.48529">
        <ele>78.1</ele>
        <time>2025-02-11T12:33:36Z</time>
      </trkpt>
      <trkpt lat="47.8084" lon="-2.4853">
        <ele>78.3</ele>
        <time>2025-02-11T12:33:37Z</time>
      </trkpt>
      <trkpt lat="47.80839" lon="-2.4853">
        <ele>78.4</ele>
        <time>2025-02-11T12:33:38Z</time>
      </trkpt>
      <trkpt lat="47.80838" lon="-2.48529">
        <ele>78.5</ele>
        <time>2025-02-11T12:33:39Z</time>
      </trkpt>
      <trkpt lat="47.80837" lon="-2.48529">
        <ele>78.6</ele>
        <time>2025-02-11T12:33:40Z</time>
      </trkpt>
      <trkpt lat="47.80836" lon="-2.4853">
        <ele>78.7</ele>
        <time>2025-02-11T12:33:41Z</time>
      </trkpt>
      <trkpt lat="47.80835" lon="-2.48531">
        <ele>78.7</ele>
        <time>2025-02-11T12:33:42Z</time>
      </trkpt>
      <trkpt lat="47.80834" lon="-2.48531">
        <ele>78.9</ele>
        <time>2025-02-11T12:33:43Z</time>
      </trkpt>
      <trkpt lat="47.80833" lon="-2.48531">
        <ele>78.9</ele>
        <time>2025-02-11T12:33:44Z</time>
      </trkpt>
      <trkpt lat="47.80831" lon="-2.48532">
        <ele>79</ele>
        <time>2025-02-11T12:33:45Z</time>
      </trkpt>
      <trkpt lat="47.8083" lon="-2.48532">
        <ele>79.1</ele>
        <time>2025-02-11T12:33:46Z</time>
      </trkpt>
      <trkpt lat="47.80829" lon="-2.48532">
        <ele>79.2</ele>
        <time>2025-02-11T12:33:47Z</time>
      </trkpt>
      <trkpt lat="47.80828" lon="-2.48532">
        <ele>79.2</ele>
        <time>2025-02-11T12:33:48Z</time>
      </trkpt>
      <trkpt lat="47.80827" lon="-2.48533">
        <ele>79.3</ele>
        <time>2025-02-11T12:33:49Z</time>
      </trkpt>
      <trkpt lat="47.80826" lon="-2.48533">
        <ele>79.4</ele>
        <time>2025-02-11T12:33:50Z</time>
      </trkpt>
      <trkpt lat="47.80825" lon="-2.48533">
        <ele>79.5</ele>
        <time>2025-02-11T12:33:51Z</time>
      </trkpt>
      <trkpt lat="47.80824" lon="-2.48533">
        <ele>79.6</ele>
        <time>2025-02-11T12:33:52Z</time>
      </trkpt>
      <trkpt lat="47.80823" lon="-2.48533">
        <ele>79.6</ele>
        <time>2025-02-11T12:33:53Z</time>
      </trkpt>
      <trkpt lat="47.80822" lon="-2.48535">
        <ele>79.7</ele>
        <time>2025-02-11T12:33:54Z</time>
      </trkpt>
      <trkpt lat="47.80821" lon="-2.48535">
        <ele>79.7</ele>
        <time>2025-02-11T12:33:55Z</time>
      </trkpt>
      <trkpt lat="47.8082" lon="-2.48536">
        <ele>79.8</ele>
        <time>2025-02-11T12:33:56Z</time>
      </trkpt>
      <trkpt lat="47.80819" lon="-2.48536">
        <ele>79.9</ele>
        <time>2025-02-11T12:33:57Z</time>
      </trkpt>
      <trkpt lat="47.80818" lon="-2.48536">
        <ele>80</ele>
        <time>2025-02-11T12:33:58Z</time>
      </trkpt>
      <trkpt lat="47.80817" lon="-2.48537">
        <ele>80</ele>
        <time>2025-02-11T12:33:59Z</time>
      </trkpt>
      <trkpt lat="47.80816" lon="-2.48536">
        <ele>80.1</ele>
        <time>2025-02-11T12:34:00Z</time>
      </trkpt>
      <trkpt lat="47.80815" lon="-2.48537">
        <ele>80.2</ele>
        <time>2025-02-11T12:34:01Z</time>
      </trkpt>
      <trkpt lat="47.80814" lon="-2.48536">
        <ele>80.3</ele>
        <time>2025-02-11T12:34:02Z</time>
      </trkpt>
      <trkpt lat="47.80813" lon="-2.48536">
        <ele>80.4</ele>
        <time>2025-02-11T12:34:03Z</time>
      </trkpt>
      <trkpt lat="47.80812" lon="-2.48537">
        <ele>80.4</ele>
        <time>2025-02-11T12:34:04Z</time>
      </trkpt>
      <trkpt lat="47.80811" lon="-2.48537">
        <ele>80.5</ele>
        <time>2025-02-11T12:34:05Z</time>
      </trkpt>
      <trkpt lat="47.8081" lon="-2.48536">
        <ele>80.6</ele>
        <time>2025-02-11T12:34:06Z</time>
      </trkpt>
      <trkpt lat="47.80809" lon="-2.48535">
        <ele>80.7</ele>
        <time>2025-02-11T12:34:07Z</time>
      </trkpt>
      <trkpt lat="47.80808" lon="-2.48535">
        <ele>80.8</ele>
        <time>2025-02-11T12:34:08Z</time>
      </trkpt>
      <trkpt lat="47.80807" lon="-2.48534">
        <ele>80.9</ele>
        <time>2025-02-11T12:34:09Z</time>
      </trkpt>
      <trkpt lat="47.80806" lon="-2.48533">
        <ele>80.9</ele>
        <time>2025-02-11T12:34:10Z</time>
      </trkpt>
      <trkpt lat="47.80805" lon="-2.48532">
        <ele>81.1</ele>
        <time>2025-02-11T12:34:11Z</time>
      </trkpt>
      <trkpt lat="47.80803" lon="-2.48532">
        <ele>81.2</ele>
        <time>2025-02-11T12:34:12Z</time>
      </trkpt>
      <trkpt lat="47.80803" lon="-2.48531">
        <ele>81.2</ele>
        <time>2025-02-11T12:34:13Z</time>
      </trkpt>
      <trkpt lat="47.80801" lon="-2.48531">
        <ele>81.3</ele>
        <time>2025-02-11T12:34:14Z</time>
      </trkpt>
      <trkpt lat="47.808" lon="-2.48531">
        <ele>81.4</ele>
        <time>2025-02-11T12:34:15Z</time>
      </trkpt>
      <trkpt lat="47.80799" lon="-2.48531">
        <ele>81.5</ele>
        <time>2025-02-11T12:34:16Z</time>
      </trkpt>
      <trkpt lat="47.80798" lon="-2.4853">
        <ele>81.6</ele>
        <time>2025-02-11T12:34:17Z</time>
      </trkpt>
      <trkpt lat="47.80797" lon="-2.48531">
        <ele>81.6</ele>
        <time>2025-02-11T12:34:18Z</time>
      </trkpt>
      <trkpt lat="47.80796" lon="-2.48531">
        <ele>81.7</ele>
        <time>2025-02-11T12:34:19Z</time>
      </trkpt>
      <trkpt lat="47.80794" lon="-2.48531">
        <ele>81.8</ele>
        <time>2025-02-11T12:34:20Z</time>
      </trkpt>
      <trkpt lat="47.80793" lon="-2.48531">
        <ele>81.9</ele>
        <time>2025-02-11T12:34:21Z</time>
      </trkpt>
      <trkpt lat="47.80792" lon="-2.4853">
        <ele>82</ele>
        <time>2025-02-11T12:34:22Z</time>
      </trkpt>
      <trkpt lat="47.80791" lon="-2.48529">
        <ele>82</ele>
        <time>2025-02-11T12:34:23Z</time>
      </trkpt>
      <trkpt lat="47.8079" lon="-2.48529">
        <ele>82.1</ele>
        <time>2025-02-11T12:34:24Z</time>
      </trkpt>
      <trkpt lat="47.80788" lon="-2.4853">
        <ele>82.2</ele>
        <time>2025-02-11T12:34:25Z</time>
      </trkpt>
      <trkpt lat="47.80787" lon="-2.4853">
        <ele>82.3</ele>
        <time>2025-02-11T12:34:26Z</time>
      </trkpt>
      <trkpt lat="47.80786" lon="-2.4853">
        <ele>82.4</ele>
        <time>2025-02-11T12:34:27Z</time>
      </trkpt>
      <trkpt lat="47.80785" lon="-2.4853">
        <ele>82.5</ele>
        <time>2025-02-11T12:34:28Z</time>
      </trkpt>
      <trkpt lat="47.80784" lon="-2.4853">
        <ele>82.6</ele>
        <time>2025-02-11T12:34:29Z</time>
      </trkpt>
      <trkpt lat="47.80783" lon="-2.48531">
        <ele>82.7</ele>
        <time>2025-02-11T12:34:30Z</time>
      </trkpt>
      <trkpt lat="47.80782" lon="-2.48532">
        <ele>82.7</ele>
        <time>2025-02-11T12:34:31Z</time>
      </trkpt>
      <trkpt lat="47.8078" lon="-2.48532">
        <ele>82.8</ele>
        <time>2025-02-11T12:34:32Z</time>
      </trkpt>
      <trkpt lat="47.80779" lon="-2.48532">
        <ele>82.9</ele>
        <time>2025-02-11T12:34:33Z</time>
      </trkpt>
      <trkpt lat="47.80778" lon="-2.48533">
        <ele>83</ele>
        <time>2025-02-11T12:34:34Z</time>
      </trkpt>
      <trkpt lat="47.80777" lon="-2.48533">
        <ele>83.1</ele>
        <time>2025-02-11T12:34:35Z</time>
      </trkpt>
      <trkpt lat="47.80776" lon="-2.48533">
        <ele>83.2</ele>
        <time>2025-02-11T12:34:36Z</time>
      </trkpt>
      <trkpt lat="47.80775" lon="-2.48532">
        <ele>83.3</ele>
        <time>2025-02-11T12:34:37Z</time>
      </trkpt>
      <trkpt lat="47.80774" lon="-2.48531">
        <ele>83.4</ele>
        <time>2025-02-11T12:34:38Z</time>
      </trkpt>
      <trkpt lat="47.80773" lon="-2.48531">
        <ele>83.5</ele>
        <time>2025-02-11T12:34:39Z</time>
      </trkpt>
      <trkpt lat="47.80772" lon="-2.48531">
        <ele>83.6</ele>
        <time>2025-02-11T12:34:40Z</time>
      </trkpt>
      <trkpt lat="47.80771" lon="-2.4853">
        <ele>83.8</ele>
        <time>2025-02-11T12:34:41Z</time>
      </trkpt>
      <trkpt lat="47.80769" lon="-2.4853">
        <ele>83.9</ele>
        <time>2025-02-11T12:34:42Z</time>
      </trkpt>
      <trkpt lat="47.80768" lon="-2.4853">
        <ele>84</ele>
        <time>2025-02-11T12:34:43Z</time>
      </trkpt>
      <trkpt lat="47.80767" lon="-2.48529">
        <ele>84.1</ele>
        <time>2025-02-11T12:34:44Z</time>
      </trkpt>
      <trkpt lat="47.80766" lon="-2.48529">
        <ele>84.2</ele>
        <time>2025-02-11T12:34:45Z</time>
      </trkpt>
      <trkpt lat="47.80765" lon="-2.48529">
        <ele>84.3</ele>
        <time>2025-02-11T12:34:46Z</time>
      </trkpt>
      <trkpt lat="47.80764" lon="-2.48529">
        <ele>84.4</ele>
        <time>2025-02-11T12:34:47Z</time>
      </trkpt>
      <trkpt lat="47.80764" lon="-2.48528">
        <ele>84.5</ele>
        <time>2025-02-11T12:34:48Z</time>
      </trkpt>
      <trkpt lat="47.80763" lon="-2.48528">
        <ele>84.6</ele>
        <time>2025-02-11T12:34:49Z</time>
      </trkpt>
      <trkpt lat="47.80762" lon="-2.48528">
        <ele>84.8</ele>
        <time>2025-02-11T12:34:50Z</time>
      </trkpt>
      <trkpt lat="47.80761" lon="-2.48527">
        <ele>84.9</ele>
        <time>2025-02-11T12:34:51Z</time>
      </trkpt>
      <trkpt lat="47.80759" lon="-2.48527">
        <ele>85</ele>
        <time>2025-02-11T12:34:52Z</time>
      </trkpt>
      <trkpt lat="47.80758" lon="-2.48528">
        <ele>85.1</ele>
        <time>2025-02-11T12:34:53Z</time>
      </trkpt>
      <trkpt lat="47.80757" lon="-2.48528">
        <ele>85.2</ele>
        <time>2025-02-11T12:34:54Z</time>
      </trkpt>
      <trkpt lat="47.80756" lon="-2.48529">
        <ele>85.3</ele>
        <time>2025-02-11T12:34:55Z</time>
      </trkpt>
      <trkpt lat="47.80755" lon="-2.48528">
        <ele>85.4</ele>
        <time>2025-02-11T12:34:56Z</time>
      </trkpt>
      <trkpt lat="47.80754" lon="-2.48528">
        <ele>85.5</ele>
        <time>2025-02-11T12:34:57Z</time>
      </trkpt>
      <trkpt lat="47.80753" lon="-2.48527">
        <ele>85.7</ele>
        <time>2025-02-11T12:34:58Z</time>
      </trkpt>
      <trkpt lat="47.80752" lon="-2.48526">
        <ele>85.8</ele>
        <time>2025-02-11T12:34:59Z</time>
      </trkpt>
      <trkpt lat="47.80751" lon="-2.48526">
        <ele>85.9</ele>
        <time>2025-02-11T12:35:00Z</time>
      </trkpt>
      <trkpt lat="47.8075" lon="-2.48525">
        <ele>86</ele>
        <time>2025-02-11T12:35:01Z</time>
      </trkpt>
      <trkpt lat="47.80749" lon="-2.48526">
        <ele>86.1</ele>
        <time>2025-02-11T12:35:02Z</time>
      </trkpt>
      <trkpt lat="47.80748" lon="-2.48526">
        <ele>86.2</ele>
        <time>2025-02-11T12:35:03Z</time>
      </trkpt>
      <trkpt lat="47.80747" lon="-2.48525">
        <ele>86.2</ele>
        <time>2025-02-11T12:35:04Z</time>
      </trkpt>
      <trkpt lat="47.80746" lon="-2.48525">
        <ele>86.3</ele>
        <time>2025-02-11T12:35:05Z</time>
      </trkpt>
      <trkpt lat="47.80745" lon="-2.48524">
        <ele>86.4</ele>
        <time>2025-02-11T12:35:06Z</time>
      </trkpt>
      <trkpt lat="47.80743" lon="-2.48524">
        <ele>86.5</ele>
        <time>2025-02-11T12:35:07Z</time>
      </trkpt>
      <trkpt lat="47.80742" lon="-2.48524">
        <ele>86.6</ele>
        <time>2025-02-11T12:35:08Z</time>
      </trkpt>
      <trkpt lat="47.80741" lon="-2.48524">
        <ele>86.7</ele>
        <time>2025-02-11T12:35:09Z</time>
      </trkpt>
      <trkpt lat="47.8074" lon="-2.48523">
        <ele>86.7</ele>
        <time>2025-02-11T12:35:10Z</time>
      </trkpt>
      <trkpt lat="47.80739" lon="-2.48523">
        <ele>86.8</ele>
        <time>2025-02-11T12:35:11Z</time>
      </trkpt>
      <trkpt lat="47.80737" lon="-2.48523">
        <ele>86.9</ele>
        <time>2025-02-11T12:35:12Z</time>
      </trkpt>
      <trkpt lat="47.80736" lon="-2.48522">
        <ele>87</ele>
        <time>2025-02-11T12:35:13Z</time>
      </trkpt>
      <trkpt lat="47.80736" lon="-2.4852">
        <ele>87</ele>
        <time>2025-02-11T12:35:14Z</time>
      </trkpt>
      <trkpt lat="47.80734" lon="-2.4852">
        <ele>87.1</ele>
        <time>2025-02-11T12:35:15Z</time>
      </trkpt>
      <trkpt lat="47.80733" lon="-2.48521">
        <ele>87.2</ele>
        <time>2025-02-11T12:35:16Z</time>
      </trkpt>
      <trkpt lat="47.80732" lon="-2.48521">
        <ele>87.3</ele>
        <time>2025-02-11T12:35:17Z</time>
      </trkpt>
      <trkpt lat="47.80731" lon="-2.48521">
        <ele>87.4</ele>
        <time>2025-02-11T12:35:18Z</time>
      </trkpt>
      <trkpt lat="47.8073" lon="-2.4852">
        <ele>87.4</ele>
        <time>2025-02-11T12:35:19Z</time>
      </trkpt>
      <trkpt lat="47.80729" lon="-2.4852">
        <ele>87.5</ele>
        <time>2025-02-11T12:35:20Z</time>
      </trkpt>
      <trkpt lat="47.80728" lon="-2.4852">
        <ele>87.6</ele>
        <time>2025-02-11T12:35:21Z</time>
      </trkpt>
      <trkpt lat="47.80727" lon="-2.48519">
        <ele>87.6</ele>
        <time>2025-02-11T12:35:22Z</time>
      </trkpt>
      <trkpt lat="47.80726" lon="-2.4852">
        <ele>87.7</ele>
        <time>2025-02-11T12:35:23Z</time>
      </trkpt>
      <trkpt lat="47.80725" lon="-2.4852">
        <ele>87.8</ele>
        <time>2025-02-11T12:35:24Z</time>
      </trkpt>
      <trkpt lat="47.80723" lon="-2.48521">
        <ele>87.9</ele>
        <time>2025-02-11T12:35:25Z</time>
      </trkpt>
      <trkpt lat="47.80722" lon="-2.48521">
        <ele>88</ele>
        <time>2025-02-11T12:35:26Z</time>
      </trkpt>
      <trkpt lat="47.80721" lon="-2.48522">
        <ele>88.1</ele>
        <time>2025-02-11T12:35:27Z</time>
      </trkpt>
      <trkpt lat="47.8072" lon="-2.48522">
        <ele>88.1</ele>
        <time>2025-02-11T12:35:28Z</time>
      </trkpt>
      <trkpt lat="47.80719" lon="-2.48522">
        <ele>88.2</ele>
        <time>2025-02-11T12:35:29Z</time>
      </trkpt>
      <trkpt lat="47.80718" lon="-2.48521">
        <ele>88.2</ele>
        <time>2025-02-11T12:35:30Z</time>
      </trkpt>
      <trkpt lat="47.80716" lon="-2.48521">
        <ele>88.3</ele>
        <time>2025-02-11T12:35:31Z</time>
      </trkpt>
      <trkpt lat="47.80715" lon="-2.48522">
        <ele>88.3</ele>
        <time>2025-02-11T12:35:32Z</time>
      </trkpt>
      <trkpt lat="47.80714" lon="-2.48522">
        <ele>88.4</ele>
        <time>2025-02-11T12:35:33Z</time>
      </trkpt>
      <trkpt lat="47.80713" lon="-2.48522">
        <ele>88.4</ele>
        <time>2025-02-11T12:35:34Z</time>
      </trkpt>
      <trkpt lat="47.80712" lon="-2.48522">
        <ele>88.4</ele>
        <time>2025-02-11T12:35:35Z</time>
      </trkpt>
      <trkpt lat="47.80711" lon="-2.48522">
        <ele>88.5</ele>
        <time>2025-02-11T12:35:36Z</time>
      </trkpt>
      <trkpt lat="47.8071" lon="-2.48522">
        <ele>88.5</ele>
        <time>2025-02-11T12:35:37Z</time>
      </trkpt>
      <trkpt lat="47.80709" lon="-2.48522">
        <ele>88.6</ele>
        <time>2025-02-11T12:35:38Z</time>
      </trkpt>
      <trkpt lat="47.80708" lon="-2.48522">
        <ele>88.6</ele>
        <time>2025-02-11T12:35:39Z</time>
      </trkpt>
      <trkpt lat="47.80706" lon="-2.48522">
        <ele>88.7</ele>
        <time>2025-02-11T12:35:40Z</time>
      </trkpt>
      <trkpt lat="47.80705" lon="-2.48522">
        <ele>88.7</ele>
        <time>2025-02-11T12:35:41Z</time>
      </trkpt>
      <trkpt lat="47.80705" lon="-2.48521">
        <ele>88.8</ele>
        <time>2025-02-11T12:35:42Z</time>
      </trkpt>
      <trkpt lat="47.80704" lon="-2.48521">
        <ele>88.8</ele>
        <time>2025-02-11T12:35:43Z</time>
      </trkpt>
      <trkpt lat="47.80703" lon="-2.4852">
        <ele>88.9</ele>
        <time>2025-02-11T12:35:44Z</time>
      </trkpt>
      <trkpt lat="47.80702" lon="-2.4852">
        <ele>89</ele>
        <time>2025-02-11T12:35:45Z</time>
      </trkpt>
      <trkpt lat="47.80701" lon="-2.4852">
        <ele>89</ele>
        <time>2025-02-11T12:35:46Z</time>
      </trkpt>
      <trkpt lat="47.807" lon="-2.4852">
        <ele>89</ele>
        <time>2025-02-11T12:35:47Z</time>
      </trkpt>
      <trkpt lat="47.80699" lon="-2.4852">
        <ele>89.1</ele>
        <time>2025-02-11T12:35:48Z</time>
      </trkpt>
      <trkpt lat="47.80698" lon="-2.4852">
        <ele>89.1</ele>
        <time>2025-02-11T12:35:49Z</time>
      </trkpt>
      <trkpt lat="47.80696" lon="-2.4852">
        <ele>89.2</ele>
        <time>2025-02-11T12:35:50Z</time>
      </trkpt>
      <trkpt lat="47.80695" lon="-2.4852">
        <ele>89.2</ele>
        <time>2025-02-11T12:35:51Z</time>
      </trkpt>
      <trkpt lat="47.80695" lon="-2.48519">
        <ele>89.3</ele>
        <time>2025-02-11T12:35:52Z</time>
      </trkpt>
      <trkpt lat="47.80694" lon="-2.48518">
        <ele>89.4</ele>
        <time>2025-02-11T12:35:53Z</time>
      </trkpt>
      <trkpt lat="47.80693" lon="-2.48517">
        <ele>89.4</ele>
        <time>2025-02-11T12:35:54Z</time>
      </trkpt>
      <trkpt lat="47.80692" lon="-2.48517">
        <ele>89.5</ele>
        <time>2025-02-11T12:35:55Z</time>
      </trkpt>
      <trkpt lat="47.8069" lon="-2.48517">
        <ele>89.5</ele>
        <time>2025-02-11T12:35:56Z</time>
      </trkpt>
      <trkpt lat="47.80689" lon="-2.48516">
        <ele>89.5</ele>
        <time>2025-02-11T12:35:57Z</time>
      </trkpt>
      <trkpt lat="47.80688" lon="-2.48516">
        <ele>89.6</ele>
        <time>2025-02-11T12:35:58Z</time>
      </trkpt>
      <trkpt lat="47.80687" lon="-2.48516">
        <ele>89.6</ele>
        <time>2025-02-11T12:35:59Z</time>
      </trkpt>
      <trkpt lat="47.80687" lon="-2.48516">
        <ele>89.6</ele>
        <time>2025-02-11T12:36:00Z</time>
      </trkpt>
      <trkpt lat="47.80686" lon="-2.48515">
        <ele>89.6</ele>
        <time>2025-02-11T12:36:01Z</time>
      </trkpt>
      <trkpt lat="47.80684" lon="-2.48514">
        <ele>89.7</ele>
        <time>2025-02-11T12:36:02Z</time>
      </trkpt>
      <trkpt lat="47.80684" lon="-2.48514">
        <ele>89.7</ele>
        <time>2025-02-11T12:36:03Z</time>
      </trkpt>
      <trkpt lat="47.80682" lon="-2.48513">
        <ele>89.7</ele>
        <time>2025-02-11T12:36:04Z</time>
      </trkpt>
      <trkpt lat="47.80682" lon="-2.48512">
        <ele>89.8</ele>
        <time>2025-02-11T12:36:05Z</time>
      </trkpt>
      <trkpt lat="47.80681" lon="-2.48511">
        <ele>89.8</ele>
        <time>2025-02-11T12:36:06Z</time>
      </trkpt>
      <trkpt lat="47.8068" lon="-2.48511">
        <ele>89.8</ele>
        <time>2025-02-11T12:36:07Z</time>
      </trkpt>
      <trkpt lat="47.80679" lon="-2.4851">
        <ele>89.8</ele>
        <time>2025-02-11T12:36:08Z</time>
      </trkpt>
      <trkpt lat="47.80677" lon="-2.4851">
        <ele>89.9</ele>
        <time>2025-02-11T12:36:09Z</time>
      </trkpt>
      <trkpt lat="47.80676" lon="-2.4851">
        <ele>89.9</ele>
        <time>2025-02-11T12:36:10Z</time>
      </trkpt>
      <trkpt lat="47.80675" lon="-2.4851">
        <ele>89.9</ele>
        <time>2025-02-11T12:36:11Z</time>
      </trkpt>
      <trkpt lat="47.80675" lon="-2.48509">
        <ele>89.9</ele>
        <time>2025-02-11T12:36:12Z</time>
      </trkpt>
      <trkpt lat="47.80674" lon="-2.48508">
        <ele>89.9</ele>
        <time>2025-02-11T12:36:13Z</time>
      </trkpt>
      <trkpt lat="47.80673" lon="-2.48508">
        <ele>89.9</ele>
        <time>2025-02-11T12:36:14Z</time>
      </trkpt>
      <trkpt lat="47.80672" lon="-2.48508">
        <ele>90</ele>
        <time>2025-02-11T12:36:15Z</time>
      </trkpt>
      <trkpt lat="47.80671" lon="-2.48507">
        <ele>90</ele>
        <time>2025-02-11T12:36:16Z</time>
      </trkpt>
      <trkpt lat="47.8067" lon="-2.48504">
        <ele>90</ele>
        <time>2025-02-11T12:36:17Z</time>
      </trkpt>
      <trkpt lat="47.80669" lon="-2.48502">
        <ele>90</ele>
        <time>2025-02-11T12:36:18Z</time>
      </trkpt>
      <trkpt lat="47.80669" lon="-2.48502">
        <ele>90</ele>
        <time>2025-02-11T12:36:19Z</time>
      </trkpt>
      <trkpt lat="47.80668" lon="-2.48502">
        <ele>90</ele>
        <time>2025-02-11T12:36:20Z</time>
      </trkpt>
      <trkpt lat="47.80667" lon="-2.48501">
        <ele>90</ele>
        <time>2025-02-11T12:36:21Z</time>
      </trkpt>
      <trkpt lat="47.80665" lon="-2.48501">
        <ele>90.1</ele>
        <time>2025-02-11T12:36:22Z</time>
      </trkpt>
      <trkpt lat="47.80664" lon="-2.48501">
        <ele>90.1</ele>
        <time>2025-02-11T12:36:23Z</time>
      </trkpt>
      <trkpt lat="47.80663" lon="-2.48501">
        <ele>90.1</ele>
        <time>2025-02-11T12:36:24Z</time>
      </trkpt>
      <trkpt lat="47.80662" lon="-2.485">
        <ele>90.2</ele>
        <time>2025-02-11T12:36:25Z</time>
      </trkpt>
      <trkpt lat="47.8066" lon="-2.485">
        <ele>90.2</ele>
        <time>2025-02-11T12:36:26Z</time>
      </trkpt>
      <trkpt lat="47.80659" lon="-2.48501">
        <ele>90.3</ele>
        <time>2025-02-11T12:36:27Z</time>
      </trkpt>
      <trkpt lat="47.80658" lon="-2.48502">
        <ele>90.3</ele>
        <time>2025-02-11T12:36:28Z</time>
      </trkpt>
      <trkpt lat="47.80657" lon="-2.48502">
        <ele>90.3</ele>
        <time>2025-02-11T12:36:29Z</time>
      </trkpt>
      <trkpt lat="47.80656" lon="-2.48503">
        <ele>90.4</ele>
        <time>2025-02-11T12:36:30Z</time>
      </trkpt>
      <trkpt lat="47.80655" lon="-2.48503">
        <ele>90.4</ele>
        <time>2025-02-11T12:36:31Z</time>
      </trkpt>
      <trkpt lat="47.80654" lon="-2.48503">
        <ele>90.5</ele>
        <time>2025-02-11T12:36:32Z</time>
      </trkpt>
      <trkpt lat="47.80653" lon="-2.48504">
        <ele>90.5</ele>
        <time>2025-02-11T12:36:33Z</time>
      </trkpt>
      <trkpt lat="47.80651" lon="-2.48505">
        <ele>90.5</ele>
        <time>2025-02-11T12:36:34Z</time>
      </trkpt>
      <trkpt lat="47.8065" lon="-2.48506">
        <ele>90.6</ele>
        <time>2025-02-11T12:36:35Z</time>
      </trkpt>
      <trkpt lat="47.80649" lon="-2.48506">
        <ele>90.6</ele>
        <time>2025-02-11T12:36:36Z</time>
      </trkpt>
      <trkpt lat="47.80648" lon="-2.48507">
        <ele>90.7</ele>
        <time>2025-02-11T12:36:37Z</time>
      </trkpt>
      <trkpt lat="47.80647" lon="-2.48506">
        <ele>90.7</ele>
        <time>2025-02-11T12:36:38Z</time>
      </trkpt>
      <trkpt lat="47.80646" lon="-2.48506">
        <ele>90.7</ele>
        <time>2025-02-11T12:36:39Z</time>
      </trkpt>
      <trkpt lat="47.80645" lon="-2.48505">
        <ele>90.8</ele>
        <time>2025-02-11T12:36:40Z</time>
      </trkpt>
      <trkpt lat="47.80644" lon="-2.48504">
        <ele>90.8</ele>
        <time>2025-02-11T12:36:41Z</time>
      </trkpt>
      <trkpt lat="47.80643" lon="-2.48503">
        <ele>90.8</ele>
        <time>2025-02-11T12:36:42Z</time>
      </trkpt>
      <trkpt lat="47.80642" lon="-2.48503">
        <ele>90.9</ele>
        <time>2025-02-11T12:36:43Z</time>
      </trkpt>
      <trkpt lat="47.80641" lon="-2.48504">
        <ele>90.9</ele>
        <time>2025-02-11T12:36:44Z</time>
      </trkpt>
      <trkpt lat="47.80642" lon="-2.48503">
        <ele>90.9</ele>
        <time>2025-02-11T12:36:45Z</time>
      </trkpt>
      <trkpt lat="47.80642" lon="-2.48503">
        <ele>90.9</ele>
        <time>2025-02-11T12:36:46Z</time>
      </trkpt>
      <trkpt lat="47.80643" lon="-2.48504">
        <ele>90.9</ele>
        <time>2025-02-11T12:36:47Z</time>
      </trkpt>
      <trkpt lat="47.80643" lon="-2.48502">
        <ele>90.9</ele>
        <time>2025-02-11T12:36:48Z</time>
      </trkpt>
      <trkpt lat="47.80643" lon="-2.48502">
        <ele>90.8</ele>
        <time>2025-02-11T12:36:49Z</time>
      </trkpt>
      <trkpt lat="47.80644" lon="-2.48502">
        <ele>90.8</ele>
        <time>2025-02-11T12:36:50Z</time>
      </trkpt>
      <trkpt lat="47.80644" lon="-2.48502">
        <ele>90.8</ele>
        <time>2025-02-11T12:36:51Z</time>
      </trkpt>
      <trkpt lat="47.80645" lon="-2.48502">
        <ele>90.8</ele>
        <time>2025-02-11T12:36:52Z</time>
      </trkpt>
      <trkpt lat="47.80645" lon="-2.48505">
        <ele>90.8</ele>
        <time>2025-02-11T12:36:53Z</time>
      </trkpt>
      <trkpt lat="47.80645" lon="-2.48507">
        <ele>90.8</ele>
        <time>2025-02-11T12:36:54Z</time>
      </trkpt>
      <trkpt lat="47.80645" lon="-2.48507">
        <ele>90.8</ele>
        <time>2025-02-11T12:36:55Z</time>
      </trkpt>
      <trkpt lat="47.80645" lon="-2.48507">
        <ele>90.8</ele>
        <time>2025-02-11T12:36:56Z</time>
      </trkpt>
      <trkpt lat="47.80645" lon="-2.48508">
        <ele>90.8</ele>
        <time>2025-02-11T12:36:57Z</time>
      </trkpt>
      <trkpt lat="47.80645" lon="-2.48508">
        <ele>90.8</ele>
        <time>2025-02-11T12:36:58Z</time>
      </trkpt>
      <trkpt lat="47.80645" lon="-2.48508">
        <ele>90.8</ele>
        <time>2025-02-11T12:36:59Z</time>
      </trkpt>
      <trkpt lat="47.80645" lon="-2.48508">
        <ele>90.8</ele>
        <time>2025-02-11T12:37:00Z</time>
      </trkpt>
      <trkpt lat="47.80645" lon="-2.48508">
        <ele>90.8</ele>
        <time>2025-02-11T12:37:01Z</time>
      </trkpt>
      <trkpt lat="47.80645" lon="-2.48508">
        <ele>90.8</ele>
        <time>2025-02-11T12:37:02Z</time>
      </trkpt>
      <trkpt lat="47.80644" lon="-2.48508">
        <ele>90.8</ele>
        <time>2025-02-11T12:37:03Z</time>
      </trkpt>
      <trkpt lat="47.80644" lon="-2.48509">
        <ele>90.8</ele>
        <time>2025-02-11T12:37:04Z</time>
      </trkpt>
      <trkpt lat="47.80644" lon="-2.48509">
        <ele>90.8</ele>
        <time>2025-02-11T12:37:05Z</time>
      </trkpt>
      <trkpt lat="47.80644" lon="-2.48509">
        <ele>90.8</ele>
        <time>2025-02-11T12:37:06Z</time>
      </trkpt>
      <trkpt lat="47.80644" lon="-2.48509">
        <ele>90.8</ele>
        <time>2025-02-11T12:37:07Z</time>
      </trkpt>
      <trkpt lat="47.80644" lon="-2.48509">
        <ele>90.8</ele>
        <time>2025-02-11T12:37:08Z</time>
      </trkpt>
      <trkpt lat="47.80644" lon="-2.48509">
        <ele>90.8</ele>
        <time>2025-02-11T12:37:09Z</time>
      </trkpt>
      <trkpt lat="47.80644" lon="-2.48509">
        <ele>90.8</ele>
        <time>2025-02-11T12:37:10Z</time>
      </trkpt>
      <trkpt lat="47.80644" lon="-2.48509">
        <ele>90.8</ele>
        <time>2025-02-11T12:37:11Z</time>
      </trkpt>
      <trkpt lat="47.80644" lon="-2.48509">
        <ele>90.8</ele>
        <time>2025-02-11T12:37:12Z</time>
      </trkpt>
      <trkpt lat="47.80644" lon="-2.48509">
        <ele>90.8</ele>
        <time>2025-02-11T12:37:13Z</time>
      </trkpt>
      <trkpt lat="47.80644" lon="-2.48509">
        <ele>90.8</ele>
        <time>2025-02-11T12:37:14Z</time>
      </trkpt>
      <trkpt lat="47.80644" lon="-2.48509">
        <ele>90.8</ele>
        <time>2025-02-11T12:37:15Z</time>
      </trkpt>
      <trkpt lat="47.80644" lon="-2.48509">
        <ele>90.8</ele>
        <time>2025-02-11T12:37:16Z</time>
      </trkpt>
      <trkpt lat="47.80645" lon="-2.48508">
        <ele>90.8</ele>
        <time>2025-02-11T12:37:17Z</time>
      </trkpt>
      <trkpt lat="47.80645" lon="-2.48508">
        <ele>90.8</ele>
        <time>2025-02-11T12:37:18Z</time>
      </trkpt>
      <trkpt lat="47.80645" lon="-2.48508">
        <ele>90.8</ele>
        <time>2025-02-11T12:37:19Z</time>
      </trkpt>
      <trkpt lat="47.80645" lon="-2.48508">
        <ele>90.8</ele>
        <time>2025-02-11T12:37:20Z</time>
      </trkpt>
      <trkpt lat="47.80645" lon="-2.48508">
        <ele>90.8</ele>
        <time>2025-02-11T12:37:21Z</time>
      </trkpt>
      <trkpt lat="47.80645" lon="-2.48507">
        <ele>90.8</ele>
        <time>2025-02-11T12:37:22Z</time>
      </trkpt>
      <trkpt lat="47.80645" lon="-2.48507">
        <ele>90.8</ele>
        <time>2025-02-11T12:37:23Z</time>
      </trkpt>
      <trkpt lat="47.80645" lon="-2.48507">
        <ele>90.8</ele>
        <time>2025-02-11T12:37:24Z</time>
      </trkpt>
      <trkpt lat="47.80645" lon="-2.48507">
        <ele>90.8</ele>
        <time>2025-02-11T12:37:25Z</time>
      </trkpt>
      <trkpt lat="47.80645" lon="-2.48507">
        <ele>90.8</ele>
        <time>2025-02-11T12:37:26Z</time>
      </trkpt>
      <trkpt lat="47.80645" lon="-2.48507">
        <ele>90.8</ele>
        <time>2025-02-11T12:37:27Z</time>
      </trkpt>
      <trkpt lat="47.80645" lon="-2.48507">
        <ele>90.8</ele>
        <time>2025-02-11T12:37:28Z</time>
      </trkpt>
      <trkpt lat="47.80645" lon="-2.48507">
        <ele>90.8</ele>
        <time>2025-02-11T12:37:29Z</time>
      </trkpt>
      <trkpt lat="47.80645" lon="-2.48507">
        <ele>90.8</ele>
        <time>2025-02-11T12:37:30Z</time>
      </trkpt>
      <trkpt lat="47.80645" lon="-2.48507">
        <ele>90.8</ele>
        <time>2025-02-11T12:37:31Z</time>
      </trkpt>
      <trkpt lat="47.80645" lon="-2.48507">
        <ele>90.8</ele>
        <time>2025-02-11T12:37:32Z</time>
      </trkpt>
      <trkpt lat="47.80645" lon="-2.48507">
        <ele>90.8</ele>
        <time>2025-02-11T12:37:33Z</time>
      </trkpt>
      <trkpt lat="47.80645" lon="-2.48507">
        <ele>90.8</ele>
        <time>2025-02-11T12:37:34Z</time>
      </trkpt>
      <trkpt lat="47.80645" lon="-2.48507">
        <ele>90.8</ele>
        <time>2025-02-11T12:37:35Z</time>
      </trkpt>
      <trkpt lat="47.80645" lon="-2.48507">
        <ele>90.8</ele>
        <time>2025-02-11T12:37:36Z</time>
      </trkpt>
      <trkpt lat="47.80645" lon="-2.48507">
        <ele>90.8</ele>
        <time>2025-02-11T12:37:37Z</time>
      </trkpt>
      <trkpt lat="47.80645" lon="-2.48507">
        <ele>90.8</ele>
        <time>2025-02-11T12:37:38Z</time>
      </trkpt>
      <trkpt lat="47.80645" lon="-2.48506">
        <ele>90.8</ele>
        <time>2025-02-11T12:37:39Z</time>
      </trkpt>
      <trkpt lat="47.80645" lon="-2.48506">
        <ele>90.8</ele>
        <time>2025-02-11T12:37:40Z</time>
      </trkpt>
      <trkpt lat="47.80645" lon="-2.48506">
        <ele>90.8</ele>
        <time>2025-02-11T12:37:41Z</time>
      </trkpt>
      <trkpt lat="47.80645" lon="-2.48506">
        <ele>90.8</ele>
        <time>2025-02-11T12:37:42Z</time>
      </trkpt>
      <trkpt lat="47.80645" lon="-2.48506">
        <ele>90.8</ele>
        <time>2025-02-11T12:37:43Z</time>
      </trkpt>
      <trkpt lat="47.80645" lon="-2.48506">
        <ele>90.8</ele>
        <time>2025-02-11T12:37:44Z</time>
      </trkpt>
      <trkpt lat="47.80645" lon="-2.48506">
        <ele>90.8</ele>
        <time>2025-02-11T12:37:45Z</time>
      </trkpt>
      <trkpt lat="47.80645" lon="-2.48506">
        <ele>90.8</ele>
        <time>2025-02-11T12:37:46Z</time>
      </trkpt>
      <trkpt lat="47.80645" lon="-2.48506">
        <ele>90.8</ele>
        <time>2025-02-11T12:37:47Z</time>
      </trkpt>
      <trkpt lat="47.80645" lon="-2.48506">
        <ele>90.8</ele>
        <time>2025-02-11T12:37:48Z</time>
      </trkpt>
      <trkpt lat="47.80645" lon="-2.48506">
        <ele>90.8</ele>
        <time>2025-02-11T12:37:49Z</time>
      </trkpt>
      <trkpt lat="47.80645" lon="-2.48506">
        <ele>90.8</ele>
        <time>2025-02-11T12:37:50Z</time>
      </trkpt>
      <trkpt lat="47.80645" lon="-2.48506">
        <ele>90.8</ele>
        <time>2025-02-11T12:37:51Z</time>
      </trkpt>
      <trkpt lat="47.80645" lon="-2.48506">
        <ele>90.8</ele>
        <time>2025-02-11T12:37:52Z</time>
      </trkpt>
      <trkpt lat="47.80645" lon="-2.48506">
        <ele>90.8</ele>
        <time>2025-02-11T12:37:53Z</time>
      </trkpt>
      <trkpt lat="47.80645" lon="-2.48506">
        <ele>90.8</ele>
        <time>2025-02-11T12:37:54Z</time>
      </trkpt>
      <trkpt lat="47.80645" lon="-2.48506">
        <ele>90.8</ele>
        <time>2025-02-11T12:37:55Z</time>
      </trkpt>
      <trkpt lat="47.80645" lon="-2.48506">
        <ele>90.8</ele>
        <time>2025-02-11T12:37:56Z</time>
      </trkpt>
      <trkpt lat="47.80645" lon="-2.48506">
        <ele>90.8</ele>
        <time>2025-02-11T12:37:57Z</time>
      </trkpt>
      <trkpt lat="47.80645" lon="-2.48506">
        <ele>90.8</ele>
        <time>2025-02-11T12:37:58Z</time>
      </trkpt>
      <trkpt lat="47.80645" lon="-2.48506">
        <ele>90.8</ele>
        <time>2025-02-11T12:37:59Z</time>
      </trkpt>
      <trkpt lat="47.80645" lon="-2.48506">
        <ele>90.8</ele>
        <time>2025-02-11T12:38:00Z</time>
      </trkpt>
      <trkpt lat="47.80645" lon="-2.48506">
        <ele>90.8</ele>
        <time>2025-02-11T12:38:01Z</time>
      </trkpt>
      <trkpt lat="47.80645" lon="-2.48506">
        <ele>90.8</ele>
        <time>2025-02-11T12:38:02Z</time>
      </trkpt>
      <trkpt lat="47.80645" lon="-2.48506">
        <ele>90.8</ele>
        <time>2025-02-11T12:38:03Z</time>
      </trkpt>
      <trkpt lat="47.80645" lon="-2.48506">
        <ele>90.8</ele>
        <time>2025-02-11T12:38:04Z</time>
      </trkpt>
      <trkpt lat="47.80645" lon="-2.48506">
        <ele>90.8</ele>
        <time>2025-02-11T12:38:05Z</time>
      </trkpt>
      <trkpt lat="47.80645" lon="-2.48506">
        <ele>90.8</ele>
        <time>2025-02-11T12:38:06Z</time>
      </trkpt>
      <trkpt lat="47.80645" lon="-2.48506">
        <ele>90.8</ele>
        <time>2025-02-11T12:38:07Z</time>
      </trkpt>
      <trkpt lat="47.80645" lon="-2.48506">
        <ele>90.8</ele>
        <time>2025-02-11T12:38:08Z</time>
      </trkpt>
      <trkpt lat="47.80645" lon="-2.48506">
        <ele>90.8</ele>
        <time>2025-02-11T12:38:09Z</time>
      </trkpt>
      <trkpt lat="47.80645" lon="-2.48506">
        <ele>90.8</ele>
        <time>2025-02-11T12:38:10Z</time>
      </trkpt>
      <trkpt lat="47.80645" lon="-2.48506">
        <ele>90.8</ele>
        <time>2025-02-11T12:38:11Z</time>
      </trkpt>
      <trkpt lat="47.80645" lon="-2.48505">
        <ele>90.8</ele>
        <time>2025-02-11T12:38:12Z</time>
      </trkpt>
      <trkpt lat="47.80645" lon="-2.48504">
        <ele>90.8</ele>
        <time>2025-02-11T12:38:13Z</time>
      </trkpt>
      <trkpt lat="47.80645" lon="-2.48504">
        <ele>90.8</ele>
        <time>2025-02-11T12:38:14Z</time>
      </trkpt>
      <trkpt lat="47.80645" lon="-2.48504">
        <ele>90.8</ele>
        <time>2025-02-11T12:38:15Z</time>
      </trkpt>
      <trkpt lat="47.80645" lon="-2.48504">
        <ele>90.8</ele>
        <time>2025-02-11T12:38:16Z</time>
      </trkpt>
      <trkpt lat="47.80645" lon="-2.48504">
        <ele>90.8</ele>
        <time>2025-02-11T12:38:17Z</time>
      </trkpt>
      <trkpt lat="47.80645" lon="-2.48504">
        <ele>90.8</ele>
        <time>2025-02-11T12:38:18Z</time>
      </trkpt>
      <trkpt lat="47.80645" lon="-2.48504">
        <ele>90.8</ele>
        <time>2025-02-11T12:38:19Z</time>
      </trkpt>
      <trkpt lat="47.80645" lon="-2.48504">
        <ele>90.8</ele>
        <time>2025-02-11T12:38:20Z</time>
      </trkpt>
      <trkpt lat="47.80645" lon="-2.48504">
        <ele>90.8</ele>
        <time>2025-02-11T12:38:21Z</time>
      </trkpt>
      <trkpt lat="47.80645" lon="-2.48504">
        <ele>90.8</ele>
        <time>2025-02-11T12:38:22Z</time>
      </trkpt>
      <trkpt lat="47.80645" lon="-2.48504">
        <ele>90.8</ele>
        <time>2025-02-11T12:38:23Z</time>
      </trkpt>
      <trkpt lat="47.80645" lon="-2.48504">
        <ele>90.8</ele>
        <time>2025-02-11T12:38:24Z</time>
      </trkpt>
      <trkpt lat="47.80645" lon="-2.48504">
        <ele>90.8</ele>
        <time>2025-02-11T12:38:25Z</time>
      </trkpt>
      <trkpt lat="47.80645" lon="-2.48504">
        <ele>90.8</ele>
        <time>2025-02-11T12:38:26Z</time>
      </trkpt>
      <trkpt lat="47.80645" lon="-2.48503">
        <ele>90.8</ele>
        <time>2025-02-11T12:38:27Z</time>
      </trkpt>
      <trkpt lat="47.80645" lon="-2.48502">
        <ele>90.8</ele>
        <time>2025-02-11T12:38:28Z</time>
      </trkpt>
      <trkpt lat="47.80646" lon="-2.48502">
        <ele>90.7</ele>
        <time>2025-02-11T12:38:29Z</time>
      </trkpt>
      <trkpt lat="47.80647" lon="-2.48501">
        <ele>90.7</ele>
        <time>2025-02-11T12:38:30Z</time>
      </trkpt>
      <trkpt lat="47.80648" lon="-2.485">
        <ele>90.7</ele>
        <time>2025-02-11T12:38:31Z</time>
      </trkpt>
      <trkpt lat="47.80649" lon="-2.48498">
        <ele>90.6</ele>
        <time>2025-02-11T12:38:32Z</time>
      </trkpt>
      <trkpt lat="47.80649" lon="-2.48497">
        <ele>90.6</ele>
        <time>2025-02-11T12:38:33Z</time>
      </trkpt>
      <trkpt lat="47.80649" lon="-2.48495">
        <ele>90.5</ele>
        <time>2025-02-11T12:38:34Z</time>
      </trkpt>
      <trkpt lat="47.8065" lon="-2.48494">
        <ele>90.5</ele>
        <time>2025-02-11T12:38:35Z</time>
      </trkpt>
      <trkpt lat="47.8065" lon="-2.48492">
        <ele>90.4</ele>
        <time>2025-02-11T12:38:36Z</time>
      </trkpt>
      <trkpt lat="47.8065" lon="-2.48491">
        <ele>90.4</ele>
        <time>2025-02-11T12:38:37Z</time>
      </trkpt>
      <trkpt lat="47.8065" lon="-2.48489">
        <ele>90.4</ele>
        <time>2025-02-11T12:38:38Z</time>
      </trkpt>
      <trkpt lat="47.80651" lon="-2.48488">
        <ele>90.3</ele>
        <time>2025-02-11T12:38:39Z</time>
      </trkpt>
      <trkpt lat="47.80651" lon="-2.48487">
        <ele>90.3</ele>
        <time>2025-02-11T12:38:40Z</time>
      </trkpt>
      <trkpt lat="47.80651" lon="-2.48485">
        <ele>90.3</ele>
        <time>2025-02-11T12:38:41Z</time>
      </trkpt>
      <trkpt lat="47.80651" lon="-2.48484">
        <ele>90.2</ele>
        <time>2025-02-11T12:38:42Z</time>
      </trkpt>
      <trkpt lat="47.80651" lon="-2.48482">
        <ele>90.2</ele>
        <time>2025-02-11T12:38:43Z</time>
      </trkpt>
      <trkpt lat="47.80651" lon="-2.4848">
        <ele>90.2</ele>
        <time>2025-02-11T12:38:44Z</time>
      </trkpt>
      <trkpt lat="47.80651" lon="-2.48479">
        <ele>90.1</ele>
        <time>2025-02-11T12:38:45Z</time>
      </trkpt>
      <trkpt lat="47.80651" lon="-2.48477">
        <ele>90.1</ele>
        <time>2025-02-11T12:38:46Z</time>
      </trkpt>
      <trkpt lat="47.80651" lon="-2.48476">
        <ele>90.1</ele>
        <time>2025-02-11T12:38:47Z</time>
      </trkpt>
      <trkpt lat="47.80652" lon="-2.48474">
        <ele>90</ele>
        <time>2025-02-11T12:38:48Z</time>
      </trkpt>
      <trkpt lat="47.80652" lon="-2.48473">
        <ele>90</ele>
        <time>2025-02-11T12:38:49Z</time>
      </trkpt>
      <trkpt lat="47.80652" lon="-2.48471">
        <ele>90</ele>
        <time>2025-02-11T12:38:50Z</time>
      </trkpt>
      <trkpt lat="47.80652" lon="-2.48469">
        <ele>90.1</ele>
        <time>2025-02-11T12:38:51Z</time>
      </trkpt>
      <trkpt lat="47.80653" lon="-2.48468">
        <ele>90.1</ele>
        <time>2025-02-11T12:38:52Z</time>
      </trkpt>
      <trkpt lat="47.80653" lon="-2.48466">
        <ele>90.1</ele>
        <time>2025-02-11T12:38:53Z</time>
      </trkpt>
      <trkpt lat="47.80654" lon="-2.48465">
        <ele>90.1</ele>
        <time>2025-02-11T12:38:54Z</time>
      </trkpt>
      <trkpt lat="47.80654" lon="-2.48463">
        <ele>90.1</ele>
        <time>2025-02-11T12:38:55Z</time>
      </trkpt>
      <trkpt lat="47.80654" lon="-2.48462">
        <ele>90.2</ele>
        <time>2025-02-11T12:38:56Z</time>
      </trkpt>
      <trkpt lat="47.80655" lon="-2.4846">
        <ele>90.2</ele>
        <time>2025-02-11T12:38:57Z</time>
      </trkpt>
      <trkpt lat="47.80655" lon="-2.48458">
        <ele>90.2</ele>
        <time>2025-02-11T12:38:58Z</time>
      </trkpt>
      <trkpt lat="47.80655" lon="-2.48456">
        <ele>90.2</ele>
        <time>2025-02-11T12:38:59Z</time>
      </trkpt>
      <trkpt lat="47.80656" lon="-2.48454">
        <ele>90.3</ele>
        <time>2025-02-11T12:39:00Z</time>
      </trkpt>
      <trkpt lat="47.80656" lon="-2.48453">
        <ele>90.3</ele>
        <time>2025-02-11T12:39:01Z</time>
      </trkpt>
      <trkpt lat="47.80656" lon="-2.48451">
        <ele>90.3</ele>
        <time>2025-02-11T12:39:02Z</time>
      </trkpt>
      <trkpt lat="47.80656" lon="-2.48449">
        <ele>90.3</ele>
        <time>2025-02-11T12:39:03Z</time>
      </trkpt>
      <trkpt lat="47.80656" lon="-2.48447">
        <ele>90.3</ele>
        <time>2025-02-11T12:39:04Z</time>
      </trkpt>
      <trkpt lat="47.80657" lon="-2.48446">
        <ele>90.3</ele>
        <time>2025-02-11T12:39:05Z</time>
      </trkpt>
      <trkpt lat="47.80657" lon="-2.48444">
        <ele>90.3</ele>
        <time>2025-02-11T12:39:06Z</time>
      </trkpt>
      <trkpt lat="47.80658" lon="-2.48443">
        <ele>90.3</ele>
        <time>2025-02-11T12:39:07Z</time>
      </trkpt>
      <trkpt lat="47.80658" lon="-2.48441">
        <ele>90.2</ele>
        <time>2025-02-11T12:39:08Z</time>
      </trkpt>
      <trkpt lat="47.80658" lon="-2.4844">
        <ele>90.2</ele>
        <time>2025-02-11T12:39:09Z</time>
      </trkpt>
      <trkpt lat="47.80658" lon="-2.48438">
        <ele>90.1</ele>
        <time>2025-02-11T12:39:10Z</time>
      </trkpt>
      <trkpt lat="47.80658" lon="-2.48436">
        <ele>90.1</ele>
        <time>2025-02-11T12:39:11Z</time>
      </trkpt>
      <trkpt lat="47.80658" lon="-2.48435">
        <ele>90.1</ele>
        <time>2025-02-11T12:39:12Z</time>
      </trkpt>
      <trkpt lat="47.80658" lon="-2.48433">
        <ele>90</ele>
        <time>2025-02-11T12:39:13Z</time>
      </trkpt>
      <trkpt lat="47.80658" lon="-2.48431">
        <ele>90</ele>
        <time>2025-02-11T12:39:14Z</time>
      </trkpt>
      <trkpt lat="47.80658" lon="-2.4843">
        <ele>89.9</ele>
        <time>2025-02-11T12:39:15Z</time>
      </trkpt>
      <trkpt lat="47.80659" lon="-2.48428">
        <ele>89.9</ele>
        <time>2025-02-11T12:39:16Z</time>
      </trkpt>
      <trkpt lat="47.80659" lon="-2.48426">
        <ele>89.8</ele>
        <time>2025-02-11T12:39:17Z</time>
      </trkpt>
      <trkpt lat="47.80659" lon="-2.48425">
        <ele>89.8</ele>
        <time>2025-02-11T12:39:18Z</time>
      </trkpt>
      <trkpt lat="47.80659" lon="-2.48423">
        <ele>89.7</ele>
        <time>2025-02-11T12:39:19Z</time>
      </trkpt>
      <trkpt lat="47.80659" lon="-2.48421">
        <ele>89.7</ele>
        <time>2025-02-11T12:39:20Z</time>
      </trkpt>
      <trkpt lat="47.8066" lon="-2.4842">
        <ele>89.6</ele>
        <time>2025-02-11T12:39:21Z</time>
      </trkpt>
      <trkpt lat="47.8066" lon="-2.48418">
        <ele>89.5</ele>
        <time>2025-02-11T12:39:22Z</time>
      </trkpt>
      <trkpt lat="47.8066" lon="-2.48416">
        <ele>89.5</ele>
        <time>2025-02-11T12:39:23Z</time>
      </trkpt>
      <trkpt lat="47.8066" lon="-2.48414">
        <ele>89.5</ele>
        <time>2025-02-11T12:39:24Z</time>
      </trkpt>
      <trkpt lat="47.8066" lon="-2.48413">
        <ele>89.5</ele>
        <time>2025-02-11T12:39:25Z</time>
      </trkpt>
      <trkpt lat="47.8066" lon="-2.48411">
        <ele>89.5</ele>
        <time>2025-02-11T12:39:26Z</time>
      </trkpt>
      <trkpt lat="47.80661" lon="-2.48409">
        <ele>89.4</ele>
        <time>2025-02-11T12:39:27Z</time>
      </trkpt>
      <trkpt lat="47.80661" lon="-2.48408">
        <ele>89.4</ele>
        <time>2025-02-11T12:39:28Z</time>
      </trkpt>
      <trkpt lat="47.80662" lon="-2.48406">
        <ele>89.4</ele>
        <time>2025-02-11T12:39:29Z</time>
      </trkpt>
      <trkpt lat="47.80662" lon="-2.48404">
        <ele>89.4</ele>
        <time>2025-02-11T12:39:30Z</time>
      </trkpt>
      <trkpt lat="47.80662" lon="-2.48403">
        <ele>89.3</ele>
        <time>2025-02-11T12:39:31Z</time>
      </trkpt>
      <trkpt lat="47.80663" lon="-2.48401">
        <ele>89.3</ele>
        <time>2025-02-11T12:39:32Z</time>
      </trkpt>
      <trkpt lat="47.80663" lon="-2.484">
        <ele>89.3</ele>
        <time>2025-02-11T12:39:33Z</time>
      </trkpt>
      <trkpt lat="47.80663" lon="-2.48398">
        <ele>89.3</ele>
        <time>2025-02-11T12:39:34Z</time>
      </trkpt>
      <trkpt lat="47.80663" lon="-2.48396">
        <ele>89.3</ele>
        <time>2025-02-11T12:39:35Z</time>
      </trkpt>
      <trkpt lat="47.80663" lon="-2.48395">
        <ele>89.2</ele>
        <time>2025-02-11T12:39:36Z</time>
      </trkpt>
      <trkpt lat="47.80663" lon="-2.48394">
        <ele>89.2</ele>
        <time>2025-02-11T12:39:37Z</time>
      </trkpt>
      <trkpt lat="47.80664" lon="-2.48392">
        <ele>89.2</ele>
        <time>2025-02-11T12:39:38Z</time>
      </trkpt>
      <trkpt lat="47.80664" lon="-2.4839">
        <ele>89.2</ele>
        <time>2025-02-11T12:39:39Z</time>
      </trkpt>
      <trkpt lat="47.80664" lon="-2.48389">
        <ele>89.2</ele>
        <time>2025-02-11T12:39:40Z</time>
      </trkpt>
      <trkpt lat="47.80664" lon="-2.48387">
        <ele>89.2</ele>
        <time>2025-02-11T12:39:41Z</time>
      </trkpt>
      <trkpt lat="47.80664" lon="-2.48385">
        <ele>89.2</ele>
        <time>2025-02-11T12:39:42Z</time>
      </trkpt>
      <trkpt lat="47.80664" lon="-2.48384">
        <ele>89.2</ele>
        <time>2025-02-11T12:39:43Z</time>
      </trkpt>
      <trkpt lat="47.80664" lon="-2.48382">
        <ele>89.2</ele>
        <time>2025-02-11T12:39:44Z</time>
      </trkpt>
      <trkpt lat="47.80664" lon="-2.4838">
        <ele>89.2</ele>
        <time>2025-02-11T12:39:45Z</time>
      </trkpt>
      <trkpt lat="47.80665" lon="-2.48378">
        <ele>89.1</ele>
        <time>2025-02-11T12:39:46Z</time>
      </trkpt>
      <trkpt lat="47.80665" lon="-2.48377">
        <ele>89.1</ele>
        <time>2025-02-11T12:39:47Z</time>
      </trkpt>
      <trkpt lat="47.80665" lon="-2.48375">
        <ele>89.1</ele>
        <time>2025-02-11T12:39:48Z</time>
      </trkpt>
      <trkpt lat="47.80666" lon="-2.48374">
        <ele>89.1</ele>
        <time>2025-02-11T12:39:49Z</time>
      </trkpt>
      <trkpt lat="47.80666" lon="-2.48372">
        <ele>89</ele>
        <time>2025-02-11T12:39:50Z</time>
      </trkpt>
      <trkpt lat="47.80666" lon="-2.4837">
        <ele>89</ele>
        <time>2025-02-11T12:39:51Z</time>
      </trkpt>
      <trkpt lat="47.80666" lon="-2.48368">
        <ele>89</ele>
        <time>2025-02-11T12:39:52Z</time>
      </trkpt>
      <trkpt lat="47.80666" lon="-2.48366">
        <ele>89</ele>
        <time>2025-02-11T12:39:53Z</time>
      </trkpt>
      <trkpt lat="47.80667" lon="-2.48365">
        <ele>89</ele>
        <time>2025-02-11T12:39:54Z</time>
      </trkpt>
      <trkpt lat="47.80666" lon="-2.48363">
        <ele>89</ele>
        <time>2025-02-11T12:39:55Z</time>
      </trkpt>
      <trkpt lat="47.80666" lon="-2.48361">
        <ele>89</ele>
        <time>2025-02-11T12:39:56Z</time>
      </trkpt>
      <trkpt lat="47.80666" lon="-2.48359">
        <ele>89</ele>
        <time>2025-02-11T12:39:57Z</time>
      </trkpt>
      <trkpt lat="47.80667" lon="-2.48358">
        <ele>89</ele>
        <time>2025-02-11T12:39:58Z</time>
      </trkpt>
      <trkpt lat="47.80667" lon="-2.48356">
        <ele>89</ele>
        <time>2025-02-11T12:39:59Z</time>
      </trkpt>
      <trkpt lat="47.80667" lon="-2.48354">
        <ele>89</ele>
        <time>2025-02-11T12:40:00Z</time>
      </trkpt>
      <trkpt lat="47.80668" lon="-2.48353">
        <ele>89</ele>
        <time>2025-02-11T12:40:01Z</time>
      </trkpt>
      <trkpt lat="47.80668" lon="-2.48351">
        <ele>89</ele>
        <time>2025-02-11T12:40:02Z</time>
      </trkpt>
      <trkpt lat="47.80668" lon="-2.48349">
        <ele>89</ele>
        <time>2025-02-11T12:40:03Z</time>
      </trkpt>
      <trkpt lat="47.80668" lon="-2.48348">
        <ele>89</ele>
        <time>2025-02-11T12:40:04Z</time>
      </trkpt>
      <trkpt lat="47.80668" lon="-2.48346">
        <ele>89</ele>
        <time>2025-02-11T12:40:05Z</time>
      </trkpt>
      <trkpt lat="47.80669" lon="-2.48344">
        <ele>89</ele>
        <time>2025-02-11T12:40:06Z</time>
      </trkpt>
      <trkpt lat="47.80669" lon="-2.48342">
        <ele>89</ele>
        <time>2025-02-11T12:40:07Z</time>
      </trkpt>
      <trkpt lat="47.80669" lon="-2.4834">
        <ele>89</ele>
        <time>2025-02-11T12:40:08Z</time>
      </trkpt>
      <trkpt lat="47.80669" lon="-2.48339">
        <ele>89</ele>
        <time>2025-02-11T12:40:09Z</time>
      </trkpt>
      <trkpt lat="47.80669" lon="-2.48337">
        <ele>89</ele>
        <time>2025-02-11T12:40:10Z</time>
      </trkpt>
      <trkpt lat="47.80669" lon="-2.48335">
        <ele>89</ele>
        <time>2025-02-11T12:40:11Z</time>
      </trkpt>
      <trkpt lat="47.80669" lon="-2.48333">
        <ele>89</ele>
        <time>2025-02-11T12:40:12Z</time>
      </trkpt>
      <trkpt lat="47.8067" lon="-2.48332">
        <ele>89.1</ele>
        <time>2025-02-11T12:40:13Z</time>
      </trkpt>
      <trkpt lat="47.8067" lon="-2.4833">
        <ele>89.1</ele>
        <time>2025-02-11T12:40:14Z</time>
      </trkpt>
      <trkpt lat="47.80671" lon="-2.48328">
        <ele>89.2</ele>
        <time>2025-02-11T12:40:15Z</time>
      </trkpt>
      <trkpt lat="47.80671" lon="-2.48327">
        <ele>89.2</ele>
        <time>2025-02-11T12:40:16Z</time>
      </trkpt>
      <trkpt lat="47.80671" lon="-2.48325">
        <ele>89.3</ele>
        <time>2025-02-11T12:40:17Z</time>
      </trkpt>
      <trkpt lat="47.80671" lon="-2.48323">
        <ele>89.4</ele>
        <time>2025-02-11T12:40:18Z</time>
      </trkpt>
      <trkpt lat="47.80672" lon="-2.48321">
        <ele>89.4</ele>
        <time>2025-02-11T12:40:19Z</time>
      </trkpt>
      <trkpt lat="47.80672" lon="-2.48319">
        <ele>89.5</ele>
        <time>2025-02-11T12:40:20Z</time>
      </trkpt>
      <trkpt lat="47.80672" lon="-2.48318">
        <ele>89.6</ele>
        <time>2025-02-11T12:40:21Z</time>
      </trkpt>
      <trkpt lat="47.80673" lon="-2.48316">
        <ele>89.6</ele>
        <time>2025-02-11T12:40:22Z</time>
      </trkpt>
      <trkpt lat="47.80673" lon="-2.48314">
        <ele>89.7</ele>
        <time>2025-02-11T12:40:23Z</time>
      </trkpt>
      <trkpt lat="47.80673" lon="-2.48313">
        <ele>89.7</ele>
        <time>2025-02-11T12:40:24Z</time>
      </trkpt>
      <trkpt lat="47.80674" lon="-2.48311">
        <ele>89.8</ele>
        <time>2025-02-11T12:40:25Z</time>
      </trkpt>
      <trkpt lat="47.80674" lon="-2.48309">
        <ele>89.9</ele>
        <time>2025-02-11T12:40:26Z</time>
      </trkpt>
      <trkpt lat="47.80674" lon="-2.48308">
        <ele>89.9</ele>
        <time>2025-02-11T12:40:27Z</time>
      </trkpt>
      <trkpt lat="47.80674" lon="-2.48306">
        <ele>90</ele>
        <time>2025-02-11T12:40:28Z</time>
      </trkpt>
      <trkpt lat="47.80674" lon="-2.48304">
        <ele>90</ele>
        <time>2025-02-11T12:40:29Z</time>
      </trkpt>
      <trkpt lat="47.80674" lon="-2.48302">
        <ele>90</ele>
        <time>2025-02-11T12:40:30Z</time>
      </trkpt>
      <trkpt lat="47.80675" lon="-2.48301">
        <ele>90</ele>
        <time>2025-02-11T12:40:31Z</time>
      </trkpt>
      <trkpt lat="47.80675" lon="-2.48299">
        <ele>90</ele>
        <time>2025-02-11T12:40:32Z</time>
      </trkpt>
      <trkpt lat="47.80675" lon="-2.48297">
        <ele>90</ele>
        <time>2025-02-11T12:40:33Z</time>
      </trkpt>
      <trkpt lat="47.80676" lon="-2.48296">
        <ele>90</ele>
        <time>2025-02-11T12:40:34Z</time>
      </trkpt>
      <trkpt lat="47.80676" lon="-2.48294">
        <ele>90</ele>
        <time>2025-02-11T12:40:35Z</time>
      </trkpt>
      <trkpt lat="47.80676" lon="-2.48293">
        <ele>90</ele>
        <time>2025-02-11T12:40:36Z</time>
      </trkpt>
      <trkpt lat="47.80676" lon="-2.48291">
        <ele>90</ele>
        <time>2025-02-11T12:40:37Z</time>
      </trkpt>
      <trkpt lat="47.80676" lon="-2.48289">
        <ele>90</ele>
        <time>2025-02-11T12:40:38Z</time>
      </trkpt>
      <trkpt lat="47.80677" lon="-2.48287">
        <ele>90</ele>
        <time>2025-02-11T12:40:39Z</time>
      </trkpt>
      <trkpt lat="47.80677" lon="-2.48285">
        <ele>90</ele>
        <time>2025-02-11T12:40:40Z</time>
      </trkpt>
      <trkpt lat="47.80677" lon="-2.48284">
        <ele>90</ele>
        <time>2025-02-11T12:40:41Z</time>
      </trkpt>
      <trkpt lat="47.80677" lon="-2.48282">
        <ele>90</ele>
        <time>2025-02-11T12:40:42Z</time>
      </trkpt>
      <trkpt lat="47.80678" lon="-2.4828">
        <ele>90</ele>
        <time>2025-02-11T12:40:43Z</time>
      </trkpt>
      <trkpt lat="47.80678" lon="-2.48278">
        <ele>90</ele>
        <time>2025-02-11T12:40:44Z</time>
      </trkpt>
      <trkpt lat="47.80678" lon="-2.48277">
        <ele>90</ele>
        <time>2025-02-11T12:40:45Z</time>
      </trkpt>
      <trkpt lat="47.80679" lon="-2.48275">
        <ele>90</ele>
        <time>2025-02-11T12:40:46Z</time>
      </trkpt>
      <trkpt lat="47.80679" lon="-2.48273">
        <ele>90</ele>
        <time>2025-02-11T12:40:47Z</time>
      </trkpt>
      <trkpt lat="47.80679" lon="-2.48271">
        <ele>90</ele>
        <time>2025-02-11T12:40:48Z</time>
      </trkpt>
      <trkpt lat="47.80679" lon="-2.48269">
        <ele>90</ele>
        <time>2025-02-11T12:40:49Z</time>
      </trkpt>
      <trkpt lat="47.8068" lon="-2.48268">
        <ele>90</ele>
        <time>2025-02-11T12:40:50Z</time>
      </trkpt>
      <trkpt lat="47.8068" lon="-2.48266">
        <ele>90</ele>
        <time>2025-02-11T12:40:51Z</time>
      </trkpt>
      <trkpt lat="47.8068" lon="-2.48264">
        <ele>90</ele>
        <time>2025-02-11T12:40:52Z</time>
      </trkpt>
      <trkpt lat="47.8068" lon="-2.48263">
        <ele>90</ele>
        <time>2025-02-11T12:40:53Z</time>
      </trkpt>
      <trkpt lat="47.8068" lon="-2.48261">
        <ele>90</ele>
        <time>2025-02-11T12:40:54Z</time>
      </trkpt>
      <trkpt lat="47.8068" lon="-2.48259">
        <ele>90</ele>
        <time>2025-02-11T12:40:55Z</time>
      </trkpt>
      <trkpt lat="47.80681" lon="-2.48257">
        <ele>90</ele>
        <time>2025-02-11T12:40:56Z</time>
      </trkpt>
      <trkpt lat="47.80681" lon="-2.48255">
        <ele>90</ele>
        <time>2025-02-11T12:40:57Z</time>
      </trkpt>
      <trkpt lat="47.80681" lon="-2.48254">
        <ele>90</ele>
        <time>2025-02-11T12:40:58Z</time>
      </trkpt>
      <trkpt lat="47.80681" lon="-2.48252">
        <ele>90</ele>
        <time>2025-02-11T12:40:59Z</time>
      </trkpt>
      <trkpt lat="47.80682" lon="-2.4825">
        <ele>90</ele>
        <time>2025-02-11T12:41:00Z</time>
      </trkpt>
      <trkpt lat="47.80682" lon="-2.48248">
        <ele>90</ele>
        <time>2025-02-11T12:41:01Z</time>
      </trkpt>
      <trkpt lat="47.80682" lon="-2.48247">
        <ele>90</ele>
        <time>2025-02-11T12:41:02Z</time>
      </trkpt>
      <trkpt lat="47.80682" lon="-2.48246">
        <ele>90</ele>
        <time>2025-02-11T12:41:03Z</time>
      </trkpt>
      <trkpt lat="47.80682" lon="-2.48244">
        <ele>90</ele>
        <time>2025-02-11T12:41:04Z</time>
      </trkpt>
      <trkpt lat="47.80683" lon="-2.48243">
        <ele>90</ele>
        <time>2025-02-11T12:41:05Z</time>
      </trkpt>
      <trkpt lat="47.80683" lon="-2.48241">
        <ele>90</ele>
        <time>2025-02-11T12:41:06Z</time>
      </trkpt>
      <trkpt lat="47.80683" lon="-2.48239">
        <ele>90</ele>
        <time>2025-02-11T12:41:07Z</time>
      </trkpt>
      <trkpt lat="47.80683" lon="-2.48238">
        <ele>90</ele>
        <time>2025-02-11T12:41:08Z</time>
      </trkpt>
      <trkpt lat="47.80683" lon="-2.48236">
        <ele>90</ele>
        <time>2025-02-11T12:41:09Z</time>
      </trkpt>
      <trkpt lat="47.80683" lon="-2.48234">
        <ele>90</ele>
        <time>2025-02-11T12:41:10Z</time>
      </trkpt>
      <trkpt lat="47.80683" lon="-2.48232">
        <ele>90</ele>
        <time>2025-02-11T12:41:11Z</time>
      </trkpt>
      <trkpt lat="47.80684" lon="-2.48231">
        <ele>90</ele>
        <time>2025-02-11T12:41:12Z</time>
      </trkpt>
      <trkpt lat="47.80684" lon="-2.48229">
        <ele>90</ele>
        <time>2025-02-11T12:41:13Z</time>
      </trkpt>
      <trkpt lat="47.80684" lon="-2.48227">
        <ele>90</ele>
        <time>2025-02-11T12:41:14Z</time>
      </trkpt>
      <trkpt lat="47.80685" lon="-2.48226">
        <ele>90</ele>
        <time>2025-02-11T12:41:15Z</time>
      </trkpt>
      <trkpt lat="47.80685" lon="-2.48224">
        <ele>90</ele>
        <time>2025-02-11T12:41:16Z</time>
      </trkpt>
      <trkpt lat="47.80685" lon="-2.48222">
        <ele>90</ele>
        <time>2025-02-11T12:41:17Z</time>
      </trkpt>
      <trkpt lat="47.80685" lon="-2.4822">
        <ele>90</ele>
        <time>2025-02-11T12:41:18Z</time>
      </trkpt>
      <trkpt lat="47.80685" lon="-2.48219">
        <ele>90</ele>
        <time>2025-02-11T12:41:19Z</time>
      </trkpt>
      <trkpt lat="47.80685" lon="-2.48217">
        <ele>90</ele>
        <time>2025-02-11T12:41:20Z</time>
      </trkpt>
      <trkpt lat="47.80685" lon="-2.48215">
        <ele>90</ele>
        <time>2025-02-11T12:41:21Z</time>
      </trkpt>
      <trkpt lat="47.80685" lon="-2.48213">
        <ele>90</ele>
        <time>2025-02-11T12:41:22Z</time>
      </trkpt>
      <trkpt lat="47.80686" lon="-2.48212">
        <ele>90</ele>
        <time>2025-02-11T12:41:23Z</time>
      </trkpt>
      <trkpt lat="47.80686" lon="-2.4821">
        <ele>90</ele>
        <time>2025-02-11T12:41:24Z</time>
      </trkpt>
      <trkpt lat="47.80687" lon="-2.48208">
        <ele>90</ele>
        <time>2025-02-11T12:41:25Z</time>
      </trkpt>
      <trkpt lat="47.80686" lon="-2.48207">
        <ele>90</ele>
        <time>2025-02-11T12:41:26Z</time>
      </trkpt>
      <trkpt lat="47.80687" lon="-2.48205">
        <ele>90</ele>
        <time>2025-02-11T12:41:27Z</time>
      </trkpt>
      <trkpt lat="47.80687" lon="-2.48203">
        <ele>90</ele>
        <time>2025-02-11T12:41:28Z</time>
      </trkpt>
      <trkpt lat="47.80688" lon="-2.48202">
        <ele>90</ele>
        <time>2025-02-11T12:41:29Z</time>
      </trkpt>
      <trkpt lat="47.80688" lon="-2.482">
        <ele>90</ele>
        <time>2025-02-11T12:41:30Z</time>
      </trkpt>
      <trkpt lat="47.80689" lon="-2.48198">
        <ele>90</ele>
        <time>2025-02-11T12:41:31Z</time>
      </trkpt>
      <trkpt lat="47.80689" lon="-2.48197">
        <ele>90</ele>
        <time>2025-02-11T12:41:32Z</time>
      </trkpt>
      <trkpt lat="47.80689" lon="-2.48195">
        <ele>90</ele>
        <time>2025-02-11T12:41:33Z</time>
      </trkpt>
      <trkpt lat="47.80689" lon="-2.48193">
        <ele>90</ele>
        <time>2025-02-11T12:41:34Z</time>
      </trkpt>
      <trkpt lat="47.80689" lon="-2.48191">
        <ele>90</ele>
        <time>2025-02-11T12:41:35Z</time>
      </trkpt>
      <trkpt lat="47.80689" lon="-2.4819">
        <ele>90</ele>
        <time>2025-02-11T12:41:36Z</time>
      </trkpt>
      <trkpt lat="47.8069" lon="-2.48188">
        <ele>90</ele>
        <time>2025-02-11T12:41:37Z</time>
      </trkpt>
      <trkpt lat="47.8069" lon="-2.48187">
        <ele>90</ele>
        <time>2025-02-11T12:41:38Z</time>
      </trkpt>
      <trkpt lat="47.80691" lon="-2.48185">
        <ele>90</ele>
        <time>2025-02-11T12:41:39Z</time>
      </trkpt>
      <trkpt lat="47.80691" lon="-2.48183">
        <ele>90</ele>
        <time>2025-02-11T12:41:40Z</time>
      </trkpt>
      <trkpt lat="47.80691" lon="-2.48182">
        <ele>90</ele>
        <time>2025-02-11T12:41:41Z</time>
      </trkpt>
      <trkpt lat="47.80691" lon="-2.4818">
        <ele>90</ele>
        <time>2025-02-11T12:41:42Z</time>
      </trkpt>
      <trkpt lat="47.80691" lon="-2.48178">
        <ele>90</ele>
        <time>2025-02-11T12:41:43Z</time>
      </trkpt>
      <trkpt lat="47.80691" lon="-2.48176">
        <ele>90</ele>
        <time>2025-02-11T12:41:44Z</time>
      </trkpt>
      <trkpt lat="47.80691" lon="-2.48175">
        <ele>90</ele>
        <time>2025-02-11T12:41:45Z</time>
      </trkpt>
      <trkpt lat="47.80691" lon="-2.48173">
        <ele>90</ele>
        <time>2025-02-11T12:41:46Z</time>
      </trkpt>
      <trkpt lat="47.80691" lon="-2.48171">
        <ele>90</ele>
        <time>2025-02-11T12:41:47Z</time>
      </trkpt>
      <trkpt lat="47.80691" lon="-2.48169">
        <ele>90</ele>
        <time>2025-02-11T12:41:48Z</time>
      </trkpt>
      <trkpt lat="47.80691" lon="-2.48167">
        <ele>90</ele>
        <time>2025-02-11T12:41:49Z</time>
      </trkpt>
      <trkpt lat="47.80691" lon="-2.48165">
        <ele>90</ele>
        <time>2025-02-11T12:41:50Z</time>
      </trkpt>
      <trkpt lat="47.80692" lon="-2.48163">
        <ele>90</ele>
        <time>2025-02-11T12:41:51Z</time>
      </trkpt>
      <trkpt lat="47.80692" lon="-2.48161">
        <ele>90</ele>
        <time>2025-02-11T12:41:52Z</time>
      </trkpt>
      <trkpt lat="47.80692" lon="-2.4816">
        <ele>90</ele>
        <time>2025-02-11T12:41:53Z</time>
      </trkpt>
      <trkpt lat="47.80692" lon="-2.48158">
        <ele>90</ele>
        <time>2025-02-11T12:41:54Z</time>
      </trkpt>
      <trkpt lat="47.80693" lon="-2.48156">
        <ele>90</ele>
        <time>2025-02-11T12:41:55Z</time>
      </trkpt>
      <trkpt lat="47.80693" lon="-2.48155">
        <ele>90</ele>
        <time>2025-02-11T12:41:56Z</time>
      </trkpt>
      <trkpt lat="47.80693" lon="-2.48153">
        <ele>90</ele>
        <time>2025-02-11T12:41:57Z</time>
      </trkpt>
      <trkpt lat="47.80694" lon="-2.48152">
        <ele>90</ele>
        <time>2025-02-11T12:41:58Z</time>
      </trkpt>
      <trkpt lat="47.80694" lon="-2.4815">
        <ele>90</ele>
        <time>2025-02-11T12:41:59Z</time>
      </trkpt>
      <trkpt lat="47.80694" lon="-2.48148">
        <ele>90</ele>
        <time>2025-02-11T12:42:00Z</time>
      </trkpt>
      <trkpt lat="47.80695" lon="-2.48147">
        <ele>90</ele>
        <time>2025-02-11T12:42:01Z</time>
      </trkpt>
      <trkpt lat="47.80694" lon="-2.48145">
        <ele>90</ele>
        <time>2025-02-11T12:42:02Z</time>
      </trkpt>
      <trkpt lat="47.80695" lon="-2.48143">
        <ele>90</ele>
        <time>2025-02-11T12:42:03Z</time>
      </trkpt>
      <trkpt lat="47.80695" lon="-2.48141">
        <ele>90</ele>
        <time>2025-02-11T12:42:04Z</time>
      </trkpt>
      <trkpt lat="47.80695" lon="-2.48139">
        <ele>90</ele>
        <time>2025-02-11T12:42:05Z</time>
      </trkpt>
      <trkpt lat="47.80695" lon="-2.48138">
        <ele>90</ele>
        <time>2025-02-11T12:42:06Z</time>
      </trkpt>
      <trkpt lat="47.80695" lon="-2.48136">
        <ele>90</ele>
        <time>2025-02-11T12:42:07Z</time>
      </trkpt>
      <trkpt lat="47.80695" lon="-2.48134">
        <ele>90</ele>
        <time>2025-02-11T12:42:08Z</time>
      </trkpt>
      <trkpt lat="47.80696" lon="-2.48132">
        <ele>90</ele>
        <time>2025-02-11T12:42:09Z</time>
      </trkpt>
      <trkpt lat="47.80696" lon="-2.48131">
        <ele>90</ele>
        <time>2025-02-11T12:42:10Z</time>
      </trkpt>
      <trkpt lat="47.80696" lon="-2.48129">
        <ele>90</ele>
        <time>2025-02-11T12:42:11Z</time>
      </trkpt>
      <trkpt lat="47.80696" lon="-2.48127">
        <ele>90</ele>
        <time>2025-02-11T12:42:12Z</time>
      </trkpt>
      <trkpt lat="47.80697" lon="-2.48125">
        <ele>90</ele>
        <time>2025-02-11T12:42:13Z</time>
      </trkpt>
      <trkpt lat="47.80697" lon="-2.48124">
        <ele>90</ele>
        <time>2025-02-11T12:42:14Z</time>
      </trkpt>
      <trkpt lat="47.80697" lon="-2.48122">
        <ele>90</ele>
        <time>2025-02-11T12:42:15Z</time>
      </trkpt>
      <trkpt lat="47.80697" lon="-2.48121">
        <ele>90</ele>
        <time>2025-02-11T12:42:16Z</time>
      </trkpt>
      <trkpt lat="47.80697" lon="-2.48119">
        <ele>90</ele>
        <time>2025-02-11T12:42:17Z</time>
      </trkpt>
      <trkpt lat="47.80698" lon="-2.48117">
        <ele>90</ele>
        <time>2025-02-11T12:42:18Z</time>
      </trkpt>
      <trkpt lat="47.80698" lon="-2.48116">
        <ele>90</ele>
        <time>2025-02-11T12:42:19Z</time>
      </trkpt>
      <trkpt lat="47.80698" lon="-2.48114">
        <ele>90</ele>
        <time>2025-02-11T12:42:20Z</time>
      </trkpt>
      <trkpt lat="47.80698" lon="-2.48112">
        <ele>90</ele>
        <time>2025-02-11T12:42:21Z</time>
      </trkpt>
      <trkpt lat="47.80699" lon="-2.4811">
        <ele>90</ele>
        <time>2025-02-11T12:42:22Z</time>
      </trkpt>
      <trkpt lat="47.80699" lon="-2.48108">
        <ele>89.9</ele>
        <time>2025-02-11T12:42:23Z</time>
      </trkpt>
      <trkpt lat="47.80699" lon="-2.48107">
        <ele>89.8</ele>
        <time>2025-02-11T12:42:24Z</time>
      </trkpt>
      <trkpt lat="47.807" lon="-2.48105">
        <ele>89.8</ele>
        <time>2025-02-11T12:42:25Z</time>
      </trkpt>
      <trkpt lat="47.807" lon="-2.48103">
        <ele>89.7</ele>
        <time>2025-02-11T12:42:26Z</time>
      </trkpt>
      <trkpt lat="47.807" lon="-2.48102">
        <ele>89.7</ele>
        <time>2025-02-11T12:42:27Z</time>
      </trkpt>
      <trkpt lat="47.807" lon="-2.481">
        <ele>89.6</ele>
        <time>2025-02-11T12:42:28Z</time>
      </trkpt>
      <trkpt lat="47.807" lon="-2.48098">
        <ele>89.5</ele>
        <time>2025-02-11T12:42:29Z</time>
      </trkpt>
      <trkpt lat="47.80701" lon="-2.48096">
        <ele>89.5</ele>
        <time>2025-02-11T12:42:30Z</time>
      </trkpt>
      <trkpt lat="47.80701" lon="-2.48095">
        <ele>89.4</ele>
        <time>2025-02-11T12:42:31Z</time>
      </trkpt>
      <trkpt lat="47.80701" lon="-2.48093">
        <ele>89.3</ele>
        <time>2025-02-11T12:42:32Z</time>
      </trkpt>
      <trkpt lat="47.80701" lon="-2.48092">
        <ele>89.3</ele>
        <time>2025-02-11T12:42:33Z</time>
      </trkpt>
      <trkpt lat="47.80702" lon="-2.4809">
        <ele>89.2</ele>
        <time>2025-02-11T12:42:34Z</time>
      </trkpt>
      <trkpt lat="47.80702" lon="-2.48088">
        <ele>89.2</ele>
        <time>2025-02-11T12:42:35Z</time>
      </trkpt>
      <trkpt lat="47.80703" lon="-2.48087">
        <ele>89.1</ele>
        <time>2025-02-11T12:42:36Z</time>
      </trkpt>
      <trkpt lat="47.80703" lon="-2.48085">
        <ele>89</ele>
        <time>2025-02-11T12:42:37Z</time>
      </trkpt>
      <trkpt lat="47.80703" lon="-2.48083">
        <ele>89</ele>
        <time>2025-02-11T12:42:38Z</time>
      </trkpt>
      <trkpt lat="47.80704" lon="-2.48081">
        <ele>89</ele>
        <time>2025-02-11T12:42:39Z</time>
      </trkpt>
      <trkpt lat="47.80704" lon="-2.48079">
        <ele>89</ele>
        <time>2025-02-11T12:42:40Z</time>
      </trkpt>
      <trkpt lat="47.80706" lon="-2.48078">
        <ele>88.9</ele>
        <time>2025-02-11T12:42:41Z</time>
      </trkpt>
      <trkpt lat="47.80706" lon="-2.48077">
        <ele>88.9</ele>
        <time>2025-02-11T12:42:42Z</time>
      </trkpt>
      <trkpt lat="47.80706" lon="-2.48075">
        <ele>88.9</ele>
        <time>2025-02-11T12:42:43Z</time>
      </trkpt>
      <trkpt lat="47.80706" lon="-2.48073">
        <ele>88.8</ele>
        <time>2025-02-11T12:42:44Z</time>
      </trkpt>
      <trkpt lat="47.80706" lon="-2.48071">
        <ele>88.8</ele>
        <time>2025-02-11T12:42:45Z</time>
      </trkpt>
      <trkpt lat="47.80706" lon="-2.48069">
        <ele>88.8</ele>
        <time>2025-02-11T12:42:46Z</time>
      </trkpt>
      <trkpt lat="47.80706" lon="-2.48068">
        <ele>88.8</ele>
        <time>2025-02-11T12:42:47Z</time>
      </trkpt>
      <trkpt lat="47.80706" lon="-2.48066">
        <ele>88.7</ele>
        <time>2025-02-11T12:42:48Z</time>
      </trkpt>
      <trkpt lat="47.80706" lon="-2.48064">
        <ele>88.7</ele>
        <time>2025-02-11T12:42:49Z</time>
      </trkpt>
      <trkpt lat="47.80706" lon="-2.48062">
        <ele>88.7</ele>
        <time>2025-02-11T12:42:50Z</time>
      </trkpt>
      <trkpt lat="47.80707" lon="-2.48061">
        <ele>88.6</ele>
        <time>2025-02-11T12:42:51Z</time>
      </trkpt>
      <trkpt lat="47.80707" lon="-2.48059">
        <ele>88.6</ele>
        <time>2025-02-11T12:42:52Z</time>
      </trkpt>
      <trkpt lat="47.80707" lon="-2.48057">
        <ele>88.6</ele>
        <time>2025-02-11T12:42:53Z</time>
      </trkpt>
      <trkpt lat="47.80706" lon="-2.48055">
        <ele>88.6</ele>
        <time>2025-02-11T12:42:54Z</time>
      </trkpt>
      <trkpt lat="47.80706" lon="-2.48053">
        <ele>88.6</ele>
        <time>2025-02-11T12:42:55Z</time>
      </trkpt>
      <trkpt lat="47.80707" lon="-2.48051">
        <ele>88.6</ele>
        <time>2025-02-11T12:42:56Z</time>
      </trkpt>
      <trkpt lat="47.80707" lon="-2.4805">
        <ele>88.6</ele>
        <time>2025-02-11T12:42:57Z</time>
      </trkpt>
      <trkpt lat="47.80707" lon="-2.48048">
        <ele>88.6</ele>
        <time>2025-02-11T12:42:58Z</time>
      </trkpt>
      <trkpt lat="47.80707" lon="-2.48046">
        <ele>88.5</ele>
        <time>2025-02-11T12:42:59Z</time>
      </trkpt>
      <trkpt lat="47.80707" lon="-2.48044">
        <ele>88.5</ele>
        <time>2025-02-11T12:43:00Z</time>
      </trkpt>
      <trkpt lat="47.80707" lon="-2.48043">
        <ele>88.5</ele>
        <time>2025-02-11T12:43:01Z</time>
      </trkpt>
      <trkpt lat="47.80708" lon="-2.48041">
        <ele>88.5</ele>
        <time>2025-02-11T12:43:02Z</time>
      </trkpt>
      <trkpt lat="47.80708" lon="-2.48039">
        <ele>88.5</ele>
        <time>2025-02-11T12:43:03Z</time>
      </trkpt>
      <trkpt lat="47.80708" lon="-2.48038">
        <ele>88.5</ele>
        <time>2025-02-11T12:43:04Z</time>
      </trkpt>
      <trkpt lat="47.80708" lon="-2.48036">
        <ele>88.5</ele>
        <time>2025-02-11T12:43:05Z</time>
      </trkpt>
      <trkpt lat="47.80709" lon="-2.48034">
        <ele>88.5</ele>
        <time>2025-02-11T12:43:06Z</time>
      </trkpt>
      <trkpt lat="47.80709" lon="-2.48033">
        <ele>88.5</ele>
        <time>2025-02-11T12:43:07Z</time>
      </trkpt>
      <trkpt lat="47.80709" lon="-2.48031">
        <ele>88.5</ele>
        <time>2025-02-11T12:43:08Z</time>
      </trkpt>
      <trkpt lat="47.80709" lon="-2.48029">
        <ele>88.5</ele>
        <time>2025-02-11T12:43:09Z</time>
      </trkpt>
      <trkpt lat="47.8071" lon="-2.48027">
        <ele>88.5</ele>
        <time>2025-02-11T12:43:10Z</time>
      </trkpt>
      <trkpt lat="47.8071" lon="-2.48026">
        <ele>88.4</ele>
        <time>2025-02-11T12:43:11Z</time>
      </trkpt>
      <trkpt lat="47.8071" lon="-2.48024">
        <ele>88.4</ele>
        <time>2025-02-11T12:43:12Z</time>
      </trkpt>
      <trkpt lat="47.8071" lon="-2.48022">
        <ele>88.4</ele>
        <time>2025-02-11T12:43:13Z</time>
      </trkpt>
      <trkpt lat="47.8071" lon="-2.48021">
        <ele>88.4</ele>
        <time>2025-02-11T12:43:14Z</time>
      </trkpt>
      <trkpt lat="47.8071" lon="-2.48019">
        <ele>88.4</ele>
        <time>2025-02-11T12:43:15Z</time>
      </trkpt>
      <trkpt lat="47.80711" lon="-2.48017">
        <ele>88.4</ele>
        <time>2025-02-11T12:43:16Z</time>
      </trkpt>
      <trkpt lat="47.80711" lon="-2.48015">
        <ele>88.4</ele>
        <time>2025-02-11T12:43:17Z</time>
      </trkpt>
      <trkpt lat="47.80711" lon="-2.48013">
        <ele>88.4</ele>
        <time>2025-02-11T12:43:18Z</time>
      </trkpt>
      <trkpt lat="47.80711" lon="-2.48011">
        <ele>88.4</ele>
        <time>2025-02-11T12:43:19Z</time>
      </trkpt>
      <trkpt lat="47.80711" lon="-2.4801">
        <ele>88.4</ele>
        <time>2025-02-11T12:43:20Z</time>
      </trkpt>
      <trkpt lat="47.80712" lon="-2.48008">
        <ele>88.4</ele>
        <time>2025-02-11T12:43:21Z</time>
      </trkpt>
      <trkpt lat="47.80712" lon="-2.48006">
        <ele>88.4</ele>
        <time>2025-02-11T12:43:22Z</time>
      </trkpt>
      <trkpt lat="47.80712" lon="-2.48004">
        <ele>88.4</ele>
        <time>2025-02-11T12:43:23Z</time>
      </trkpt>
      <trkpt lat="47.80712" lon="-2.48003">
        <ele>88.4</ele>
        <time>2025-02-11T12:43:24Z</time>
      </trkpt>
      <trkpt lat="47.80713" lon="-2.48001">
        <ele>88.4</ele>
        <time>2025-02-11T12:43:25Z</time>
      </trkpt>
      <trkpt lat="47.80713" lon="-2.48">
        <ele>88.3</ele>
        <time>2025-02-11T12:43:26Z</time>
      </trkpt>
      <trkpt lat="47.80713" lon="-2.47998">
        <ele>88.3</ele>
        <time>2025-02-11T12:43:27Z</time>
      </trkpt>
      <trkpt lat="47.80713" lon="-2.47996">
        <ele>88.3</ele>
        <time>2025-02-11T12:43:28Z</time>
      </trkpt>
      <trkpt lat="47.80713" lon="-2.47994">
        <ele>88.2</ele>
        <time>2025-02-11T12:43:29Z</time>
      </trkpt>
      <trkpt lat="47.80714" lon="-2.47992">
        <ele>88.2</ele>
        <time>2025-02-11T12:43:30Z</time>
      </trkpt>
      <trkpt lat="47.80714" lon="-2.4799">
        <ele>88.2</ele>
        <time>2025-02-11T12:43:31Z</time>
      </trkpt>
      <trkpt lat="47.80714" lon="-2.47989">
        <ele>88.2</ele>
        <time>2025-02-11T12:43:32Z</time>
      </trkpt>
      <trkpt lat="47.80714" lon="-2.47987">
        <ele>88.2</ele>
        <time>2025-02-11T12:43:33Z</time>
      </trkpt>
      <trkpt lat="47.80715" lon="-2.47985">
        <ele>88.1</ele>
        <time>2025-02-11T12:43:34Z</time>
      </trkpt>
      <trkpt lat="47.80715" lon="-2.47983">
        <ele>88.1</ele>
        <time>2025-02-11T12:43:35Z</time>
      </trkpt>
      <trkpt lat="47.80716" lon="-2.47981">
        <ele>88.1</ele>
        <time>2025-02-11T12:43:36Z</time>
      </trkpt>
      <trkpt lat="47.80716" lon="-2.47979">
        <ele>88.1</ele>
        <time>2025-02-11T12:43:37Z</time>
      </trkpt>
      <trkpt lat="47.80717" lon="-2.47977">
        <ele>88</ele>
        <time>2025-02-11T12:43:38Z</time>
      </trkpt>
      <trkpt lat="47.80717" lon="-2.47976">
        <ele>88</ele>
        <time>2025-02-11T12:43:39Z</time>
      </trkpt>
      <trkpt lat="47.80717" lon="-2.47974">
        <ele>88</ele>
        <time>2025-02-11T12:43:40Z</time>
      </trkpt>
      <trkpt lat="47.80717" lon="-2.47974">
        <ele>88</ele>
        <time>2025-02-11T12:43:41Z</time>
      </trkpt>
      <trkpt lat="47.80717" lon="-2.47974">
        <ele>88</ele>
        <time>2025-02-11T12:43:42Z</time>
      </trkpt>
      <trkpt lat="47.80717" lon="-2.47974">
        <ele>88</ele>
        <time>2025-02-11T12:43:43Z</time>
      </trkpt>
      <trkpt lat="47.80717" lon="-2.47974">
        <ele>88</ele>
        <time>2025-02-11T12:43:44Z</time>
      </trkpt>
      <trkpt lat="47.80717" lon="-2.47974">
        <ele>88</ele>
        <time>2025-02-11T12:43:45Z</time>
      </trkpt>
      <trkpt lat="47.80717" lon="-2.47974">
        <ele>88</ele>
        <time>2025-02-11T12:43:46Z</time>
      </trkpt>
      <trkpt lat="47.80717" lon="-2.47974">
        <ele>88</ele>
        <time>2025-02-11T12:43:47Z</time>
      </trkpt>
      <trkpt lat="47.80717" lon="-2.47974">
        <ele>88</ele>
        <time>2025-02-11T12:43:48Z</time>
      </trkpt>
      <trkpt lat="47.80717" lon="-2.47974">
        <ele>88</ele>
        <time>2025-02-11T12:43:49Z</time>
      </trkpt>
      <trkpt lat="47.80718" lon="-2.47974">
        <ele>88</ele>
        <time>2025-02-11T12:43:50Z</time>
      </trkpt>
      <trkpt lat="47.80718" lon="-2.47971">
        <ele>88</ele>
        <time>2025-02-11T12:43:51Z</time>
      </trkpt>
      <trkpt lat="47.8072" lon="-2.4797">
        <ele>87.9</ele>
        <time>2025-02-11T12:43:52Z</time>
      </trkpt>
      <trkpt lat="47.80722" lon="-2.4797">
        <ele>87.9</ele>
        <time>2025-02-11T12:43:53Z</time>
      </trkpt>
      <trkpt lat="47.80723" lon="-2.4797">
        <ele>87.9</ele>
        <time>2025-02-11T12:43:54Z</time>
      </trkpt>
      <trkpt lat="47.80724" lon="-2.4797">
        <ele>87.8</ele>
        <time>2025-02-11T12:43:55Z</time>
      </trkpt>
      <trkpt lat="47.80726" lon="-2.4797">
        <ele>87.8</ele>
        <time>2025-02-11T12:43:56Z</time>
      </trkpt>
      <trkpt lat="47.80727" lon="-2.4797">
        <ele>87.8</ele>
        <time>2025-02-11T12:43:57Z</time>
      </trkpt>
      <trkpt lat="47.80728" lon="-2.4797">
        <ele>87.7</ele>
        <time>2025-02-11T12:43:58Z</time>
      </trkpt>
      <trkpt lat="47.80729" lon="-2.4797">
        <ele>87.7</ele>
        <time>2025-02-11T12:43:59Z</time>
      </trkpt>
      <trkpt lat="47.8073" lon="-2.4797">
        <ele>87.6</ele>
        <time>2025-02-11T12:44:00Z</time>
      </trkpt>
      <trkpt lat="47.80732" lon="-2.47969">
        <ele>87.6</ele>
        <time>2025-02-11T12:44:01Z</time>
      </trkpt>
      <trkpt lat="47.80733" lon="-2.4797">
        <ele>87.5</ele>
        <time>2025-02-11T12:44:02Z</time>
      </trkpt>
      <trkpt lat="47.80734" lon="-2.4797">
        <ele>87.5</ele>
        <time>2025-02-11T12:44:03Z</time>
      </trkpt>
      <trkpt lat="47.80735" lon="-2.4797">
        <ele>87.4</ele>
        <time>2025-02-11T12:44:04Z</time>
      </trkpt>
      <trkpt lat="47.80737" lon="-2.4797">
        <ele>87.4</ele>
        <time>2025-02-11T12:44:05Z</time>
      </trkpt>
      <trkpt lat="47.80738" lon="-2.47969">
        <ele>87.3</ele>
        <time>2025-02-11T12:44:06Z</time>
      </trkpt>
      <trkpt lat="47.80739" lon="-2.47969">
        <ele>87.3</ele>
        <time>2025-02-11T12:44:07Z</time>
      </trkpt>
      <trkpt lat="47.8074" lon="-2.4797">
        <ele>87.3</ele>
        <time>2025-02-11T12:44:08Z</time>
      </trkpt>
      <trkpt lat="47.80741" lon="-2.4797">
        <ele>87.3</ele>
        <time>2025-02-11T12:44:09Z</time>
      </trkpt>
      <trkpt lat="47.80742" lon="-2.47971">
        <ele>87.2</ele>
        <time>2025-02-11T12:44:10Z</time>
      </trkpt>
      <trkpt lat="47.80743" lon="-2.47971">
        <ele>87.2</ele>
        <time>2025-02-11T12:44:11Z</time>
      </trkpt>
      <trkpt lat="47.80744" lon="-2.4797">
        <ele>87.1</ele>
        <time>2025-02-11T12:44:12Z</time>
      </trkpt>
      <trkpt lat="47.80745" lon="-2.4797">
        <ele>87.1</ele>
        <time>2025-02-11T12:44:13Z</time>
      </trkpt>
      <trkpt lat="47.80746" lon="-2.47969">
        <ele>87</ele>
        <time>2025-02-11T12:44:14Z</time>
      </trkpt>
      <trkpt lat="47.80747" lon="-2.47968">
        <ele>86.9</ele>
        <time>2025-02-11T12:44:15Z</time>
      </trkpt>
      <trkpt lat="47.80748" lon="-2.47967">
        <ele>86.9</ele>
        <time>2025-02-11T12:44:16Z</time>
      </trkpt>
      <trkpt lat="47.8075" lon="-2.47967">
        <ele>86.8</ele>
        <time>2025-02-11T12:44:17Z</time>
      </trkpt>
      <trkpt lat="47.80751" lon="-2.47966">
        <ele>86.7</ele>
        <time>2025-02-11T12:44:18Z</time>
      </trkpt>
      <trkpt lat="47.80752" lon="-2.47965">
        <ele>86.7</ele>
        <time>2025-02-11T12:44:19Z</time>
      </trkpt>
      <trkpt lat="47.80753" lon="-2.47966">
        <ele>86.7</ele>
        <time>2025-02-11T12:44:20Z</time>
      </trkpt>
      <trkpt lat="47.80754" lon="-2.47966">
        <ele>86.6</ele>
        <time>2025-02-11T12:44:21Z</time>
      </trkpt>
      <trkpt lat="47.80755" lon="-2.47965">
        <ele>86.6</ele>
        <time>2025-02-11T12:44:22Z</time>
      </trkpt>
      <trkpt lat="47.80756" lon="-2.47965">
        <ele>86.5</ele>
        <time>2025-02-11T12:44:23Z</time>
      </trkpt>
      <trkpt lat="47.80757" lon="-2.47964">
        <ele>86.5</ele>
        <time>2025-02-11T12:44:24Z</time>
      </trkpt>
      <trkpt lat="47.80758" lon="-2.47964">
        <ele>86.4</ele>
        <time>2025-02-11T12:44:25Z</time>
      </trkpt>
      <trkpt lat="47.80759" lon="-2.47963">
        <ele>86.3</ele>
        <time>2025-02-11T12:44:26Z</time>
      </trkpt>
      <trkpt lat="47.80761" lon="-2.47963">
        <ele>86.3</ele>
        <time>2025-02-11T12:44:27Z</time>
      </trkpt>
      <trkpt lat="47.80762" lon="-2.47962">
        <ele>86.2</ele>
        <time>2025-02-11T12:44:28Z</time>
      </trkpt>
      <trkpt lat="47.80763" lon="-2.47962">
        <ele>86.2</ele>
        <time>2025-02-11T12:44:29Z</time>
      </trkpt>
      <trkpt lat="47.80764" lon="-2.47961">
        <ele>86.1</ele>
        <time>2025-02-11T12:44:30Z</time>
      </trkpt>
      <trkpt lat="47.80765" lon="-2.4796">
        <ele>86</ele>
        <time>2025-02-11T12:44:31Z</time>
      </trkpt>
      <trkpt lat="47.80766" lon="-2.4796">
        <ele>86</ele>
        <time>2025-02-11T12:44:32Z</time>
      </trkpt>
      <trkpt lat="47.80768" lon="-2.4796">
        <ele>85.9</ele>
        <time>2025-02-11T12:44:33Z</time>
      </trkpt>
      <trkpt lat="47.80769" lon="-2.47959">
        <ele>85.9</ele>
        <time>2025-02-11T12:44:34Z</time>
      </trkpt>
      <trkpt lat="47.8077" lon="-2.47959">
        <ele>85.8</ele>
        <time>2025-02-11T12:44:35Z</time>
      </trkpt>
      <trkpt lat="47.80771" lon="-2.47959">
        <ele>85.7</ele>
        <time>2025-02-11T12:44:36Z</time>
      </trkpt>
      <trkpt lat="47.80773" lon="-2.47959">
        <ele>85.7</ele>
        <time>2025-02-11T12:44:37Z</time>
      </trkpt>
      <trkpt lat="47.80774" lon="-2.47957">
        <ele>85.6</ele>
        <time>2025-02-11T12:44:38Z</time>
      </trkpt>
      <trkpt lat="47.80775" lon="-2.47957">
        <ele>85.5</ele>
        <time>2025-02-11T12:44:39Z</time>
      </trkpt>
      <trkpt lat="47.80776" lon="-2.47955">
        <ele>85.5</ele>
        <time>2025-02-11T12:44:40Z</time>
      </trkpt>
      <trkpt lat="47.80777" lon="-2.47954">
        <ele>85.4</ele>
        <time>2025-02-11T12:44:41Z</time>
      </trkpt>
      <trkpt lat="47.80778" lon="-2.47953">
        <ele>85.3</ele>
        <time>2025-02-11T12:44:42Z</time>
      </trkpt>
      <trkpt lat="47.80779" lon="-2.47951">
        <ele>85.2</ele>
        <time>2025-02-11T12:44:43Z</time>
      </trkpt>
      <trkpt lat="47.8078" lon="-2.4795">
        <ele>85.1</ele>
        <time>2025-02-11T12:44:44Z</time>
      </trkpt>
      <trkpt lat="47.80781" lon="-2.47948">
        <ele>85</ele>
        <time>2025-02-11T12:44:45Z</time>
      </trkpt>
      <trkpt lat="47.80781" lon="-2.47946">
        <ele>84.9</ele>
        <time>2025-02-11T12:44:46Z</time>
      </trkpt>
      <trkpt lat="47.80782" lon="-2.47945">
        <ele>84.9</ele>
        <time>2025-02-11T12:44:47Z</time>
      </trkpt>
      <trkpt lat="47.80783" lon="-2.47944">
        <ele>84.8</ele>
        <time>2025-02-11T12:44:48Z</time>
      </trkpt>
      <trkpt lat="47.80783" lon="-2.47942">
        <ele>84.8</ele>
        <time>2025-02-11T12:44:49Z</time>
      </trkpt>
      <trkpt lat="47.80784" lon="-2.4794">
        <ele>84.8</ele>
        <time>2025-02-11T12:44:50Z</time>
      </trkpt>
      <trkpt lat="47.80784" lon="-2.47938">
        <ele>84.8</ele>
        <time>2025-02-11T12:44:51Z</time>
      </trkpt>
      <trkpt lat="47.80785" lon="-2.47937">
        <ele>84.8</ele>
        <time>2025-02-11T12:44:52Z</time>
      </trkpt>
      <trkpt lat="47.80785" lon="-2.47935">
        <ele>84.7</ele>
        <time>2025-02-11T12:44:53Z</time>
      </trkpt>
      <trkpt lat="47.80785" lon="-2.47932">
        <ele>84.8</ele>
        <time>2025-02-11T12:44:54Z</time>
      </trkpt>
      <trkpt lat="47.80785" lon="-2.4793">
        <ele>84.7</ele>
        <time>2025-02-11T12:44:55Z</time>
      </trkpt>
      <trkpt lat="47.80786" lon="-2.47929">
        <ele>84.7</ele>
        <time>2025-02-11T12:44:56Z</time>
      </trkpt>
      <trkpt lat="47.80787" lon="-2.47927">
        <ele>84.7</ele>
        <time>2025-02-11T12:44:57Z</time>
      </trkpt>
      <trkpt lat="47.80787" lon="-2.47925">
        <ele>84.7</ele>
        <time>2025-02-11T12:44:58Z</time>
      </trkpt>
      <trkpt lat="47.80788" lon="-2.47923">
        <ele>84.6</ele>
        <time>2025-02-11T12:44:59Z</time>
      </trkpt>
      <trkpt lat="47.80788" lon="-2.47921">
        <ele>84.6</ele>
        <time>2025-02-11T12:45:00Z</time>
      </trkpt>
      <trkpt lat="47.80788" lon="-2.47919">
        <ele>84.6</ele>
        <time>2025-02-11T12:45:01Z</time>
      </trkpt>
      <trkpt lat="47.80788" lon="-2.47918">
        <ele>84.6</ele>
        <time>2025-02-11T12:45:02Z</time>
      </trkpt>
      <trkpt lat="47.80789" lon="-2.47916">
        <ele>84.6</ele>
        <time>2025-02-11T12:45:03Z</time>
      </trkpt>
      <trkpt lat="47.80789" lon="-2.47914">
        <ele>84.7</ele>
        <time>2025-02-11T12:45:04Z</time>
      </trkpt>
      <trkpt lat="47.8079" lon="-2.47912">
        <ele>84.7</ele>
        <time>2025-02-11T12:45:05Z</time>
      </trkpt>
      <trkpt lat="47.8079" lon="-2.4791">
        <ele>84.7</ele>
        <time>2025-02-11T12:45:06Z</time>
      </trkpt>
      <trkpt lat="47.8079" lon="-2.47908">
        <ele>84.7</ele>
        <time>2025-02-11T12:45:07Z</time>
      </trkpt>
      <trkpt lat="47.8079" lon="-2.47906">
        <ele>84.7</ele>
        <time>2025-02-11T12:45:08Z</time>
      </trkpt>
      <trkpt lat="47.80791" lon="-2.47905">
        <ele>84.7</ele>
        <time>2025-02-11T12:45:09Z</time>
      </trkpt>
      <trkpt lat="47.80792" lon="-2.47903">
        <ele>84.8</ele>
        <time>2025-02-11T12:45:10Z</time>
      </trkpt>
      <trkpt lat="47.80793" lon="-2.47901">
        <ele>84.7</ele>
        <time>2025-02-11T12:45:11Z</time>
      </trkpt>
      <trkpt lat="47.80793" lon="-2.479">
        <ele>84.7</ele>
        <time>2025-02-11T12:45:12Z</time>
      </trkpt>
      <trkpt lat="47.80794" lon="-2.47898">
        <ele>84.7</ele>
        <time>2025-02-11T12:45:13Z</time>
      </trkpt>
      <trkpt lat="47.80794" lon="-2.47896">
        <ele>84.7</ele>
        <time>2025-02-11T12:45:14Z</time>
      </trkpt>
      <trkpt lat="47.80794" lon="-2.47895">
        <ele>84.7</ele>
        <time>2025-02-11T12:45:15Z</time>
      </trkpt>
      <trkpt lat="47.80795" lon="-2.47893">
        <ele>84.7</ele>
        <time>2025-02-11T12:45:16Z</time>
      </trkpt>
      <trkpt lat="47.80795" lon="-2.47891">
        <ele>84.7</ele>
        <time>2025-02-11T12:45:17Z</time>
      </trkpt>
      <trkpt lat="47.80795" lon="-2.4789">
        <ele>84.7</ele>
        <time>2025-02-11T12:45:18Z</time>
      </trkpt>
      <trkpt lat="47.80796" lon="-2.47888">
        <ele>84.7</ele>
        <time>2025-02-11T12:45:19Z</time>
      </trkpt>
      <trkpt lat="47.80796" lon="-2.47886">
        <ele>84.8</ele>
        <time>2025-02-11T12:45:20Z</time>
      </trkpt>
      <trkpt lat="47.80797" lon="-2.47885">
        <ele>84.8</ele>
        <time>2025-02-11T12:45:21Z</time>
      </trkpt>
      <trkpt lat="47.80797" lon="-2.47884">
        <ele>84.8</ele>
        <time>2025-02-11T12:45:22Z</time>
      </trkpt>
      <trkpt lat="47.80798" lon="-2.47883">
        <ele>84.8</ele>
        <time>2025-02-11T12:45:23Z</time>
      </trkpt>
      <trkpt lat="47.80798" lon="-2.47881">
        <ele>84.8</ele>
        <time>2025-02-11T12:45:24Z</time>
      </trkpt>
      <trkpt lat="47.80798" lon="-2.47879">
        <ele>84.9</ele>
        <time>2025-02-11T12:45:25Z</time>
      </trkpt>
      <trkpt lat="47.80798" lon="-2.47877">
        <ele>85</ele>
        <time>2025-02-11T12:45:26Z</time>
      </trkpt>
      <trkpt lat="47.80798" lon="-2.47875">
        <ele>85.1</ele>
        <time>2025-02-11T12:45:27Z</time>
      </trkpt>
      <trkpt lat="47.80798" lon="-2.47874">
        <ele>85.1</ele>
        <time>2025-02-11T12:45:28Z</time>
      </trkpt>
      <trkpt lat="47.80798" lon="-2.47872">
        <ele>85.1</ele>
        <time>2025-02-11T12:45:29Z</time>
      </trkpt>
      <trkpt lat="47.80799" lon="-2.4787">
        <ele>85.2</ele>
        <time>2025-02-11T12:45:30Z</time>
      </trkpt>
      <trkpt lat="47.80799" lon="-2.47868">
        <ele>85.2</ele>
        <time>2025-02-11T12:45:31Z</time>
      </trkpt>
      <trkpt lat="47.80799" lon="-2.47867">
        <ele>85.3</ele>
        <time>2025-02-11T12:45:32Z</time>
      </trkpt>
      <trkpt lat="47.80799" lon="-2.47865">
        <ele>85.4</ele>
        <time>2025-02-11T12:45:33Z</time>
      </trkpt>
      <trkpt lat="47.808" lon="-2.47863">
        <ele>85.4</ele>
        <time>2025-02-11T12:45:34Z</time>
      </trkpt>
      <trkpt lat="47.808" lon="-2.47861">
        <ele>85.4</ele>
        <time>2025-02-11T12:45:35Z</time>
      </trkpt>
      <trkpt lat="47.808" lon="-2.4786">
        <ele>85.4</ele>
        <time>2025-02-11T12:45:36Z</time>
      </trkpt>
      <trkpt lat="47.80801" lon="-2.47858">
        <ele>85.3</ele>
        <time>2025-02-11T12:45:37Z</time>
      </trkpt>
      <trkpt lat="47.80802" lon="-2.47857">
        <ele>85.3</ele>
        <time>2025-02-11T12:45:38Z</time>
      </trkpt>
      <trkpt lat="47.80802" lon="-2.47855">
        <ele>85.2</ele>
        <time>2025-02-11T12:45:39Z</time>
      </trkpt>
      <trkpt lat="47.80803" lon="-2.47854">
        <ele>85.2</ele>
        <time>2025-02-11T12:45:40Z</time>
      </trkpt>
      <trkpt lat="47.80803" lon="-2.47852">
        <ele>85.2</ele>
        <time>2025-02-11T12:45:41Z</time>
      </trkpt>
      <trkpt lat="47.80803" lon="-2.4785">
        <ele>85.2</ele>
        <time>2025-02-11T12:45:42Z</time>
      </trkpt>
      <trkpt lat="47.80803" lon="-2.47848">
        <ele>85.2</ele>
        <time>2025-02-11T12:45:43Z</time>
      </trkpt>
      <trkpt lat="47.80804" lon="-2.47847">
        <ele>85.1</ele>
        <time>2025-02-11T12:45:44Z</time>
      </trkpt>
      <trkpt lat="47.80804" lon="-2.47845">
        <ele>85.1</ele>
        <time>2025-02-11T12:45:45Z</time>
      </trkpt>
      <trkpt lat="47.80804" lon="-2.47844">
        <ele>85.1</ele>
        <time>2025-02-11T12:45:46Z</time>
      </trkpt>
      <trkpt lat="47.80805" lon="-2.47843">
        <ele>85.1</ele>
        <time>2025-02-11T12:45:47Z</time>
      </trkpt>
      <trkpt lat="47.80805" lon="-2.47841">
        <ele>85</ele>
        <time>2025-02-11T12:45:48Z</time>
      </trkpt>
      <trkpt lat="47.80806" lon="-2.4784">
        <ele>85</ele>
        <time>2025-02-11T12:45:49Z</time>
      </trkpt>
      <trkpt lat="47.80806" lon="-2.47838">
        <ele>85</ele>
        <time>2025-02-11T12:45:50Z</time>
      </trkpt>
      <trkpt lat="47.80807" lon="-2.47836">
        <ele>85</ele>
        <time>2025-02-11T12:45:51Z</time>
      </trkpt>
      <trkpt lat="47.80807" lon="-2.47834">
        <ele>85</ele>
        <time>2025-02-11T12:45:52Z</time>
      </trkpt>
      <trkpt lat="47.80807" lon="-2.47833">
        <ele>85</ele>
        <time>2025-02-11T12:45:53Z</time>
      </trkpt>
      <trkpt lat="47.80807" lon="-2.47831">
        <ele>85</ele>
        <time>2025-02-11T12:45:54Z</time>
      </trkpt>
      <trkpt lat="47.80808" lon="-2.47829">
        <ele>85.1</ele>
        <time>2025-02-11T12:45:55Z</time>
      </trkpt>
      <trkpt lat="47.80808" lon="-2.47828">
        <ele>85.1</ele>
        <time>2025-02-11T12:45:56Z</time>
      </trkpt>
      <trkpt lat="47.80809" lon="-2.47826">
        <ele>85.2</ele>
        <time>2025-02-11T12:45:57Z</time>
      </trkpt>
      <trkpt lat="47.8081" lon="-2.47825">
        <ele>85.2</ele>
        <time>2025-02-11T12:45:58Z</time>
      </trkpt>
      <trkpt lat="47.80811" lon="-2.47824">
        <ele>85.1</ele>
        <time>2025-02-11T12:45:59Z</time>
      </trkpt>
      <trkpt lat="47.80812" lon="-2.47822">
        <ele>85.2</ele>
        <time>2025-02-11T12:46:00Z</time>
      </trkpt>
      <trkpt lat="47.80812" lon="-2.4782">
        <ele>85.3</ele>
        <time>2025-02-11T12:46:01Z</time>
      </trkpt>
      <trkpt lat="47.80813" lon="-2.47818">
        <ele>85.3</ele>
        <time>2025-02-11T12:46:02Z</time>
      </trkpt>
      <trkpt lat="47.80813" lon="-2.47817">
        <ele>85.3</ele>
        <time>2025-02-11T12:46:03Z</time>
      </trkpt>
      <trkpt lat="47.80814" lon="-2.47816">
        <ele>85.3</ele>
        <time>2025-02-11T12:46:04Z</time>
      </trkpt>
      <trkpt lat="47.80814" lon="-2.47814">
        <ele>85.4</ele>
        <time>2025-02-11T12:46:05Z</time>
      </trkpt>
      <trkpt lat="47.80814" lon="-2.47812">
        <ele>85.5</ele>
        <time>2025-02-11T12:46:06Z</time>
      </trkpt>
      <trkpt lat="47.80815" lon="-2.47811">
        <ele>85.5</ele>
        <time>2025-02-11T12:46:07Z</time>
      </trkpt>
      <trkpt lat="47.80816" lon="-2.4781">
        <ele>85.5</ele>
        <time>2025-02-11T12:46:08Z</time>
      </trkpt>
      <trkpt lat="47.80816" lon="-2.47807">
        <ele>85.6</ele>
        <time>2025-02-11T12:46:09Z</time>
      </trkpt>
      <trkpt lat="47.80816" lon="-2.47805">
        <ele>85.6</ele>
        <time>2025-02-11T12:46:10Z</time>
      </trkpt>
      <trkpt lat="47.80816" lon="-2.47803">
        <ele>85.6</ele>
        <time>2025-02-11T12:46:11Z</time>
      </trkpt>
      <trkpt lat="47.80816" lon="-2.47802">
        <ele>85.6</ele>
        <time>2025-02-11T12:46:12Z</time>
      </trkpt>
      <trkpt lat="47.80817" lon="-2.478">
        <ele>85.6</ele>
        <time>2025-02-11T12:46:13Z</time>
      </trkpt>
      <trkpt lat="47.80816" lon="-2.47798">
        <ele>85.6</ele>
        <time>2025-02-11T12:46:14Z</time>
      </trkpt>
      <trkpt lat="47.80816" lon="-2.47797">
        <ele>85.6</ele>
        <time>2025-02-11T12:46:15Z</time>
      </trkpt>
      <trkpt lat="47.80815" lon="-2.47795">
        <ele>85.6</ele>
        <time>2025-02-11T12:46:16Z</time>
      </trkpt>
      <trkpt lat="47.80816" lon="-2.47793">
        <ele>85.6</ele>
        <time>2025-02-11T12:46:17Z</time>
      </trkpt>
      <trkpt lat="47.80816" lon="-2.47792">
        <ele>85.6</ele>
        <time>2025-02-11T12:46:18Z</time>
      </trkpt>
      <trkpt lat="47.80817" lon="-2.4779">
        <ele>85.6</ele>
        <time>2025-02-11T12:46:19Z</time>
      </trkpt>
      <trkpt lat="47.80818" lon="-2.47789">
        <ele>85.6</ele>
        <time>2025-02-11T12:46:20Z</time>
      </trkpt>
      <trkpt lat="47.80818" lon="-2.47787">
        <ele>85.5</ele>
        <time>2025-02-11T12:46:21Z</time>
      </trkpt>
      <trkpt lat="47.80819" lon="-2.47786">
        <ele>85.5</ele>
        <time>2025-02-11T12:46:22Z</time>
      </trkpt>
      <trkpt lat="47.8082" lon="-2.47784">
        <ele>85.5</ele>
        <time>2025-02-11T12:46:23Z</time>
      </trkpt>
      <trkpt lat="47.8082" lon="-2.47783">
        <ele>85.5</ele>
        <time>2025-02-11T12:46:24Z</time>
      </trkpt>
      <trkpt lat="47.8082" lon="-2.47781">
        <ele>85.5</ele>
        <time>2025-02-11T12:46:25Z</time>
      </trkpt>
      <trkpt lat="47.80821" lon="-2.4778">
        <ele>85.4</ele>
        <time>2025-02-11T12:46:26Z</time>
      </trkpt>
      <trkpt lat="47.80821" lon="-2.47779">
        <ele>85.4</ele>
        <time>2025-02-11T12:46:27Z</time>
      </trkpt>
      <trkpt lat="47.80822" lon="-2.47777">
        <ele>85.5</ele>
        <time>2025-02-11T12:46:28Z</time>
      </trkpt>
      <trkpt lat="47.80822" lon="-2.47775">
        <ele>85.5</ele>
        <time>2025-02-11T12:46:29Z</time>
      </trkpt>
      <trkpt lat="47.80823" lon="-2.47774">
        <ele>85.5</ele>
        <time>2025-02-11T12:46:30Z</time>
      </trkpt>
      <trkpt lat="47.80823" lon="-2.47772">
        <ele>85.6</ele>
        <time>2025-02-11T12:46:31Z</time>
      </trkpt>
      <trkpt lat="47.80823" lon="-2.4777">
        <ele>85.6</ele>
        <time>2025-02-11T12:46:32Z</time>
      </trkpt>
      <trkpt lat="47.80823" lon="-2.47768">
        <ele>85.7</ele>
        <time>2025-02-11T12:46:33Z</time>
      </trkpt>
      <trkpt lat="47.80824" lon="-2.47767">
        <ele>85.7</ele>
        <time>2025-02-11T12:46:34Z</time>
      </trkpt>
      <trkpt lat="47.80825" lon="-2.47765">
        <ele>85.8</ele>
        <time>2025-02-11T12:46:35Z</time>
      </trkpt>
      <trkpt lat="47.80825" lon="-2.47763">
        <ele>85.8</ele>
        <time>2025-02-11T12:46:36Z</time>
      </trkpt>
      <trkpt lat="47.80825" lon="-2.47762">
        <ele>85.9</ele>
        <time>2025-02-11T12:46:37Z</time>
      </trkpt>
      <trkpt lat="47.80825" lon="-2.4776">
        <ele>85.9</ele>
        <time>2025-02-11T12:46:38Z</time>
      </trkpt>
      <trkpt lat="47.80826" lon="-2.47758">
        <ele>86</ele>
        <time>2025-02-11T12:46:39Z</time>
      </trkpt>
      <trkpt lat="47.80827" lon="-2.47757">
        <ele>86</ele>
        <time>2025-02-11T12:46:40Z</time>
      </trkpt>
      <trkpt lat="47.80827" lon="-2.47756">
        <ele>86</ele>
        <time>2025-02-11T12:46:41Z</time>
      </trkpt>
      <trkpt lat="47.80828" lon="-2.47755">
        <ele>86</ele>
        <time>2025-02-11T12:46:42Z</time>
      </trkpt>
      <trkpt lat="47.80828" lon="-2.47753">
        <ele>86.1</ele>
        <time>2025-02-11T12:46:43Z</time>
      </trkpt>
      <trkpt lat="47.80828" lon="-2.4775">
        <ele>86.2</ele>
        <time>2025-02-11T12:46:44Z</time>
      </trkpt>
      <trkpt lat="47.80828" lon="-2.47749">
        <ele>86.2</ele>
        <time>2025-02-11T12:46:45Z</time>
      </trkpt>
      <trkpt lat="47.80829" lon="-2.47747">
        <ele>86.2</ele>
        <time>2025-02-11T12:46:46Z</time>
      </trkpt>
      <trkpt lat="47.80829" lon="-2.47745">
        <ele>86.2</ele>
        <time>2025-02-11T12:46:47Z</time>
      </trkpt>
      <trkpt lat="47.80829" lon="-2.47744">
        <ele>86.1</ele>
        <time>2025-02-11T12:46:48Z</time>
      </trkpt>
      <trkpt lat="47.8083" lon="-2.47742">
        <ele>86.1</ele>
        <time>2025-02-11T12:46:49Z</time>
      </trkpt>
      <trkpt lat="47.8083" lon="-2.4774">
        <ele>86.1</ele>
        <time>2025-02-11T12:46:50Z</time>
      </trkpt>
      <trkpt lat="47.80831" lon="-2.47738">
        <ele>86.1</ele>
        <time>2025-02-11T12:46:51Z</time>
      </trkpt>
      <trkpt lat="47.80831" lon="-2.47736">
        <ele>86.1</ele>
        <time>2025-02-11T12:46:52Z</time>
      </trkpt>
      <trkpt lat="47.80831" lon="-2.47734">
        <ele>86.1</ele>
        <time>2025-02-11T12:46:53Z</time>
      </trkpt>
      <trkpt lat="47.80832" lon="-2.47733">
        <ele>86.1</ele>
        <time>2025-02-11T12:46:54Z</time>
      </trkpt>
      <trkpt lat="47.80832" lon="-2.47731">
        <ele>86</ele>
        <time>2025-02-11T12:46:55Z</time>
      </trkpt>
      <trkpt lat="47.80832" lon="-2.47729">
        <ele>86</ele>
        <time>2025-02-11T12:46:56Z</time>
      </trkpt>
      <trkpt lat="47.80833" lon="-2.47728">
        <ele>86</ele>
        <time>2025-02-11T12:46:57Z</time>
      </trkpt>
      <trkpt lat="47.80833" lon="-2.47726">
        <ele>86</ele>
        <time>2025-02-11T12:46:58Z</time>
      </trkpt>
      <trkpt lat="47.80833" lon="-2.47724">
        <ele>86</ele>
        <time>2025-02-11T12:46:59Z</time>
      </trkpt>
      <trkpt lat="47.80833" lon="-2.47722">
        <ele>86</ele>
        <time>2025-02-11T12:47:00Z</time>
      </trkpt>
      <trkpt lat="47.80833" lon="-2.47721">
        <ele>86</ele>
        <time>2025-02-11T12:47:01Z</time>
      </trkpt>
      <trkpt lat="47.80834" lon="-2.47719">
        <ele>86</ele>
        <time>2025-02-11T12:47:02Z</time>
      </trkpt>
      <trkpt lat="47.80834" lon="-2.47717">
        <ele>86</ele>
        <time>2025-02-11T12:47:03Z</time>
      </trkpt>
      <trkpt lat="47.80835" lon="-2.47716">
        <ele>86</ele>
        <time>2025-02-11T12:47:04Z</time>
      </trkpt>
      <trkpt lat="47.80835" lon="-2.47714">
        <ele>86</ele>
        <time>2025-02-11T12:47:05Z</time>
      </trkpt>
      <trkpt lat="47.80836" lon="-2.47713">
        <ele>86</ele>
        <time>2025-02-11T12:47:06Z</time>
      </trkpt>
      <trkpt lat="47.80836" lon="-2.47711">
        <ele>86</ele>
        <time>2025-02-11T12:47:07Z</time>
      </trkpt>
      <trkpt lat="47.80837" lon="-2.47709">
        <ele>86</ele>
        <time>2025-02-11T12:47:08Z</time>
      </trkpt>
      <trkpt lat="47.80837" lon="-2.47708">
        <ele>86</ele>
        <time>2025-02-11T12:47:09Z</time>
      </trkpt>
      <trkpt lat="47.80837" lon="-2.47706">
        <ele>86</ele>
        <time>2025-02-11T12:47:10Z</time>
      </trkpt>
      <trkpt lat="47.80837" lon="-2.47704">
        <ele>86</ele>
        <time>2025-02-11T12:47:11Z</time>
      </trkpt>
      <trkpt lat="47.80838" lon="-2.47703">
        <ele>86</ele>
        <time>2025-02-11T12:47:12Z</time>
      </trkpt>
      <trkpt lat="47.80838" lon="-2.47701">
        <ele>86</ele>
        <time>2025-02-11T12:47:13Z</time>
      </trkpt>
      <trkpt lat="47.80838" lon="-2.477">
        <ele>86</ele>
        <time>2025-02-11T12:47:14Z</time>
      </trkpt>
      <trkpt lat="47.80839" lon="-2.47698">
        <ele>86</ele>
        <time>2025-02-11T12:47:15Z</time>
      </trkpt>
      <trkpt lat="47.80839" lon="-2.47696">
        <ele>86</ele>
        <time>2025-02-11T12:47:16Z</time>
      </trkpt>
      <trkpt lat="47.80839" lon="-2.47694">
        <ele>86</ele>
        <time>2025-02-11T12:47:17Z</time>
      </trkpt>
      <trkpt lat="47.8084" lon="-2.47693">
        <ele>86</ele>
        <time>2025-02-11T12:47:18Z</time>
      </trkpt>
      <trkpt lat="47.8084" lon="-2.47691">
        <ele>86</ele>
        <time>2025-02-11T12:47:19Z</time>
      </trkpt>
      <trkpt lat="47.8084" lon="-2.47689">
        <ele>86</ele>
        <time>2025-02-11T12:47:20Z</time>
      </trkpt>
      <trkpt lat="47.8084" lon="-2.47688">
        <ele>86</ele>
        <time>2025-02-11T12:47:21Z</time>
      </trkpt>
      <trkpt lat="47.8084" lon="-2.47686">
        <ele>86</ele>
        <time>2025-02-11T12:47:22Z</time>
      </trkpt>
      <trkpt lat="47.8084" lon="-2.47684">
        <ele>86</ele>
        <time>2025-02-11T12:47:23Z</time>
      </trkpt>
      <trkpt lat="47.80841" lon="-2.47683">
        <ele>86</ele>
        <time>2025-02-11T12:47:24Z</time>
      </trkpt>
      <trkpt lat="47.80841" lon="-2.47681">
        <ele>86</ele>
        <time>2025-02-11T12:47:25Z</time>
      </trkpt>
      <trkpt lat="47.80842" lon="-2.4768">
        <ele>86</ele>
        <time>2025-02-11T12:47:26Z</time>
      </trkpt>
      <trkpt lat="47.80842" lon="-2.47678">
        <ele>86</ele>
        <time>2025-02-11T12:47:27Z</time>
      </trkpt>
      <trkpt lat="47.80842" lon="-2.47677">
        <ele>86</ele>
        <time>2025-02-11T12:47:28Z</time>
      </trkpt>
      <trkpt lat="47.80843" lon="-2.47675">
        <ele>86</ele>
        <time>2025-02-11T12:47:29Z</time>
      </trkpt>
      <trkpt lat="47.80843" lon="-2.47673">
        <ele>86</ele>
        <time>2025-02-11T12:47:30Z</time>
      </trkpt>
      <trkpt lat="47.80843" lon="-2.47671">
        <ele>86</ele>
        <time>2025-02-11T12:47:31Z</time>
      </trkpt>
      <trkpt lat="47.80844" lon="-2.4767">
        <ele>86</ele>
        <time>2025-02-11T12:47:32Z</time>
      </trkpt>
      <trkpt lat="47.80844" lon="-2.47668">
        <ele>86</ele>
        <time>2025-02-11T12:47:33Z</time>
      </trkpt>
      <trkpt lat="47.80844" lon="-2.47667">
        <ele>86</ele>
        <time>2025-02-11T12:47:34Z</time>
      </trkpt>
      <trkpt lat="47.80845" lon="-2.47665">
        <ele>86</ele>
        <time>2025-02-11T12:47:35Z</time>
      </trkpt>
      <trkpt lat="47.80845" lon="-2.47663">
        <ele>86</ele>
        <time>2025-02-11T12:47:36Z</time>
      </trkpt>
      <trkpt lat="47.80845" lon="-2.47661">
        <ele>86</ele>
        <time>2025-02-11T12:47:37Z</time>
      </trkpt>
      <trkpt lat="47.80845" lon="-2.4766">
        <ele>86</ele>
        <time>2025-02-11T12:47:38Z</time>
      </trkpt>
      <trkpt lat="47.80846" lon="-2.47658">
        <ele>86</ele>
        <time>2025-02-11T12:47:39Z</time>
      </trkpt>
      <trkpt lat="47.80846" lon="-2.47656">
        <ele>86</ele>
        <time>2025-02-11T12:47:40Z</time>
      </trkpt>
      <trkpt lat="47.80846" lon="-2.47654">
        <ele>86</ele>
        <time>2025-02-11T12:47:41Z</time>
      </trkpt>
      <trkpt lat="47.80847" lon="-2.47653">
        <ele>86</ele>
        <time>2025-02-11T12:47:42Z</time>
      </trkpt>
      <trkpt lat="47.80847" lon="-2.47652">
        <ele>86</ele>
        <time>2025-02-11T12:47:43Z</time>
      </trkpt>
      <trkpt lat="47.80847" lon="-2.4765">
        <ele>86</ele>
        <time>2025-02-11T12:47:44Z</time>
      </trkpt>
      <trkpt lat="47.80848" lon="-2.47649">
        <ele>86</ele>
        <time>2025-02-11T12:47:45Z</time>
      </trkpt>
      <trkpt lat="47.80848" lon="-2.47648">
        <ele>86</ele>
        <time>2025-02-11T12:47:46Z</time>
      </trkpt>
      <trkpt lat="47.80849" lon="-2.47646">
        <ele>86</ele>
        <time>2025-02-11T12:47:47Z</time>
      </trkpt>
      <trkpt lat="47.8085" lon="-2.47644">
        <ele>86</ele>
        <time>2025-02-11T12:47:48Z</time>
      </trkpt>
      <trkpt lat="47.8085" lon="-2.47643">
        <ele>86</ele>
        <time>2025-02-11T12:47:49Z</time>
      </trkpt>
      <trkpt lat="47.80851" lon="-2.47641">
        <ele>86</ele>
        <time>2025-02-11T12:47:50Z</time>
      </trkpt>
      <trkpt lat="47.80851" lon="-2.4764">
        <ele>86</ele>
        <time>2025-02-11T12:47:51Z</time>
      </trkpt>
      <trkpt lat="47.80852" lon="-2.47638">
        <ele>86</ele>
        <time>2025-02-11T12:47:52Z</time>
      </trkpt>
      <trkpt lat="47.80852" lon="-2.47636">
        <ele>85.9</ele>
        <time>2025-02-11T12:47:53Z</time>
      </trkpt>
      <trkpt lat="47.80852" lon="-2.47635">
        <ele>85.8</ele>
        <time>2025-02-11T12:47:54Z</time>
      </trkpt>
      <trkpt lat="47.80853" lon="-2.47633">
        <ele>85.8</ele>
        <time>2025-02-11T12:47:55Z</time>
      </trkpt>
      <trkpt lat="47.80853" lon="-2.47632">
        <ele>85.7</ele>
        <time>2025-02-11T12:47:56Z</time>
      </trkpt>
      <trkpt lat="47.80853" lon="-2.4763">
        <ele>85.7</ele>
        <time>2025-02-11T12:47:57Z</time>
      </trkpt>
      <trkpt lat="47.80854" lon="-2.47629">
        <ele>85.6</ele>
        <time>2025-02-11T12:47:58Z</time>
      </trkpt>
      <trkpt lat="47.80855" lon="-2.47627">
        <ele>85.6</ele>
        <time>2025-02-11T12:47:59Z</time>
      </trkpt>
      <trkpt lat="47.80855" lon="-2.47625">
        <ele>85.5</ele>
        <time>2025-02-11T12:48:00Z</time>
      </trkpt>
      <trkpt lat="47.80855" lon="-2.47623">
        <ele>85.4</ele>
        <time>2025-02-11T12:48:01Z</time>
      </trkpt>
      <trkpt lat="47.80856" lon="-2.47621">
        <ele>85.4</ele>
        <time>2025-02-11T12:48:02Z</time>
      </trkpt>
      <trkpt lat="47.80856" lon="-2.4762">
        <ele>85.3</ele>
        <time>2025-02-11T12:48:03Z</time>
      </trkpt>
      <trkpt lat="47.80856" lon="-2.47618">
        <ele>85.2</ele>
        <time>2025-02-11T12:48:04Z</time>
      </trkpt>
      <trkpt lat="47.80857" lon="-2.47616">
        <ele>85.2</ele>
        <time>2025-02-11T12:48:05Z</time>
      </trkpt>
      <trkpt lat="47.80857" lon="-2.47615">
        <ele>85.1</ele>
        <time>2025-02-11T12:48:06Z</time>
      </trkpt>
      <trkpt lat="47.80857" lon="-2.47613">
        <ele>85.1</ele>
        <time>2025-02-11T12:48:07Z</time>
      </trkpt>
      <trkpt lat="47.80858" lon="-2.47612">
        <ele>85</ele>
        <time>2025-02-11T12:48:08Z</time>
      </trkpt>
      <trkpt lat="47.80858" lon="-2.4761">
        <ele>85</ele>
        <time>2025-02-11T12:48:09Z</time>
      </trkpt>
      <trkpt lat="47.80859" lon="-2.47609">
        <ele>85</ele>
        <time>2025-02-11T12:48:10Z</time>
      </trkpt>
      <trkpt lat="47.8086" lon="-2.47607">
        <ele>85</ele>
        <time>2025-02-11T12:48:11Z</time>
      </trkpt>
      <trkpt lat="47.8086" lon="-2.47606">
        <ele>85</ele>
        <time>2025-02-11T12:48:12Z</time>
      </trkpt>
      <trkpt lat="47.80861" lon="-2.47604">
        <ele>85</ele>
        <time>2025-02-11T12:48:13Z</time>
      </trkpt>
      <trkpt lat="47.80862" lon="-2.47603">
        <ele>85</ele>
        <time>2025-02-11T12:48:14Z</time>
      </trkpt>
      <trkpt lat="47.80864" lon="-2.47604">
        <ele>85</ele>
        <time>2025-02-11T12:48:15Z</time>
      </trkpt>
      <trkpt lat="47.80865" lon="-2.47603">
        <ele>85</ele>
        <time>2025-02-11T12:48:16Z</time>
      </trkpt>
      <trkpt lat="47.80866" lon="-2.47604">
        <ele>85</ele>
        <time>2025-02-11T12:48:17Z</time>
      </trkpt>
      <trkpt lat="47.80868" lon="-2.47605">
        <ele>85</ele>
        <time>2025-02-11T12:48:18Z</time>
      </trkpt>
      <trkpt lat="47.80869" lon="-2.47605">
        <ele>85</ele>
        <time>2025-02-11T12:48:19Z</time>
      </trkpt>
      <trkpt lat="47.8087" lon="-2.47606">
        <ele>85</ele>
        <time>2025-02-11T12:48:20Z</time>
      </trkpt>
      <trkpt lat="47.80871" lon="-2.47606">
        <ele>85</ele>
        <time>2025-02-11T12:48:21Z</time>
      </trkpt>
      <trkpt lat="47.80873" lon="-2.47606">
        <ele>85</ele>
        <time>2025-02-11T12:48:22Z</time>
      </trkpt>
      <trkpt lat="47.80874" lon="-2.47606">
        <ele>85</ele>
        <time>2025-02-11T12:48:23Z</time>
      </trkpt>
      <trkpt lat="47.80875" lon="-2.47605">
        <ele>85</ele>
        <time>2025-02-11T12:48:24Z</time>
      </trkpt>
      <trkpt lat="47.80876" lon="-2.47603">
        <ele>85</ele>
        <time>2025-02-11T12:48:25Z</time>
      </trkpt>
      <trkpt lat="47.80876" lon="-2.47602">
        <ele>85</ele>
        <time>2025-02-11T12:48:26Z</time>
      </trkpt>
      <trkpt lat="47.80877" lon="-2.476">
        <ele>85</ele>
        <time>2025-02-11T12:48:27Z</time>
      </trkpt>
      <trkpt lat="47.80878" lon="-2.47599">
        <ele>85</ele>
        <time>2025-02-11T12:48:28Z</time>
      </trkpt>
      <trkpt lat="47.80879" lon="-2.47599">
        <ele>85</ele>
        <time>2025-02-11T12:48:29Z</time>
      </trkpt>
      <trkpt lat="47.8088" lon="-2.47598">
        <ele>85</ele>
        <time>2025-02-11T12:48:30Z</time>
      </trkpt>
      <trkpt lat="47.80881" lon="-2.47597">
        <ele>85</ele>
        <time>2025-02-11T12:48:31Z</time>
      </trkpt>
      <trkpt lat="47.80882" lon="-2.47597">
        <ele>85</ele>
        <time>2025-02-11T12:48:32Z</time>
      </trkpt>
      <trkpt lat="47.80883" lon="-2.47596">
        <ele>85</ele>
        <time>2025-02-11T12:48:33Z</time>
      </trkpt>
      <trkpt lat="47.80884" lon="-2.47595">
        <ele>85</ele>
        <time>2025-02-11T12:48:34Z</time>
      </trkpt>
      <trkpt lat="47.80885" lon="-2.47594">
        <ele>85</ele>
        <time>2025-02-11T12:48:35Z</time>
      </trkpt>
      <trkpt lat="47.80886" lon="-2.47592">
        <ele>85</ele>
        <time>2025-02-11T12:48:36Z</time>
      </trkpt>
      <trkpt lat="47.80887" lon="-2.47591">
        <ele>85</ele>
        <time>2025-02-11T12:48:37Z</time>
      </trkpt>
      <trkpt lat="47.80888" lon="-2.4759">
        <ele>85</ele>
        <time>2025-02-11T12:48:38Z</time>
      </trkpt>
      <trkpt lat="47.80889" lon="-2.47589">
        <ele>85</ele>
        <time>2025-02-11T12:48:39Z</time>
      </trkpt>
      <trkpt lat="47.8089" lon="-2.47587">
        <ele>85</ele>
        <time>2025-02-11T12:48:40Z</time>
      </trkpt>
      <trkpt lat="47.80891" lon="-2.47586">
        <ele>85</ele>
        <time>2025-02-11T12:48:41Z</time>
      </trkpt>
      <trkpt lat="47.80891" lon="-2.47585">
        <ele>85</ele>
        <time>2025-02-11T12:48:42Z</time>
      </trkpt>
      <trkpt lat="47.80892" lon="-2.47583">
        <ele>85</ele>
        <time>2025-02-11T12:48:43Z</time>
      </trkpt>
      <trkpt lat="47.80893" lon="-2.47582">
        <ele>85</ele>
        <time>2025-02-11T12:48:44Z</time>
      </trkpt>
      <trkpt lat="47.80893" lon="-2.47582">
        <ele>84.9</ele>
        <time>2025-02-11T12:48:45Z</time>
      </trkpt>
      <trkpt lat="47.80894" lon="-2.47581">
        <ele>84.9</ele>
        <time>2025-02-11T12:48:46Z</time>
      </trkpt>
      <trkpt lat="47.80895" lon="-2.4758">
        <ele>84.9</ele>
        <time>2025-02-11T12:48:47Z</time>
      </trkpt>
      <trkpt lat="47.80896" lon="-2.47578">
        <ele>84.9</ele>
        <time>2025-02-11T12:48:48Z</time>
      </trkpt>
      <trkpt lat="47.80897" lon="-2.47577">
        <ele>84.8</ele>
        <time>2025-02-11T12:48:49Z</time>
      </trkpt>
      <trkpt lat="47.80898" lon="-2.47576">
        <ele>84.8</ele>
        <time>2025-02-11T12:48:50Z</time>
      </trkpt>
      <trkpt lat="47.80899" lon="-2.47575">
        <ele>84.8</ele>
        <time>2025-02-11T12:48:51Z</time>
      </trkpt>
      <trkpt lat="47.809" lon="-2.47574">
        <ele>84.8</ele>
        <time>2025-02-11T12:48:52Z</time>
      </trkpt>
      <trkpt lat="47.80901" lon="-2.47573">
        <ele>84.8</ele>
        <time>2025-02-11T12:48:53Z</time>
      </trkpt>
      <trkpt lat="47.80901" lon="-2.47573">
        <ele>84.8</ele>
        <time>2025-02-11T12:48:54Z</time>
      </trkpt>
      <trkpt lat="47.80902" lon="-2.47571">
        <ele>84.8</ele>
        <time>2025-02-11T12:48:55Z</time>
      </trkpt>
      <trkpt lat="47.80903" lon="-2.4757">
        <ele>84.8</ele>
        <time>2025-02-11T12:48:56Z</time>
      </trkpt>
      <trkpt lat="47.80904" lon="-2.47569">
        <ele>84.8</ele>
        <time>2025-02-11T12:48:57Z</time>
      </trkpt>
      <trkpt lat="47.80904" lon="-2.47568">
        <ele>84.7</ele>
        <time>2025-02-11T12:48:58Z</time>
      </trkpt>
      <trkpt lat="47.80905" lon="-2.47567">
        <ele>84.7</ele>
        <time>2025-02-11T12:48:59Z</time>
      </trkpt>
      <trkpt lat="47.80906" lon="-2.47567">
        <ele>84.8</ele>
        <time>2025-02-11T12:49:00Z</time>
      </trkpt>
      <trkpt lat="47.80906" lon="-2.47568">
        <ele>84.8</ele>
        <time>2025-02-11T12:49:01Z</time>
      </trkpt>
      <trkpt lat="47.80907" lon="-2.47568">
        <ele>84.8</ele>
        <time>2025-02-11T12:49:02Z</time>
      </trkpt>
      <trkpt lat="47.80907" lon="-2.47569">
        <ele>84.8</ele>
        <time>2025-02-11T12:49:03Z</time>
      </trkpt>
      <trkpt lat="47.80907" lon="-2.47569">
        <ele>84.8</ele>
        <time>2025-02-11T12:49:04Z</time>
      </trkpt>
      <trkpt lat="47.80907" lon="-2.47569">
        <ele>84.8</ele>
        <time>2025-02-11T12:49:05Z</time>
      </trkpt>
      <trkpt lat="47.80907" lon="-2.47569">
        <ele>84.8</ele>
        <time>2025-02-11T12:49:06Z</time>
      </trkpt>
      <trkpt lat="47.80907" lon="-2.47569">
        <ele>84.8</ele>
        <time>2025-02-11T12:49:07Z</time>
      </trkpt>
      <trkpt lat="47.80907" lon="-2.47568">
        <ele>84.8</ele>
        <time>2025-02-11T12:49:08Z</time>
      </trkpt>
      <trkpt lat="47.80908" lon="-2.47568">
        <ele>84.8</ele>
        <time>2025-02-11T12:49:09Z</time>
      </trkpt>
      <trkpt lat="47.80909" lon="-2.47567">
        <ele>84.8</ele>
        <time>2025-02-11T12:49:10Z</time>
      </trkpt>
      <trkpt lat="47.8091" lon="-2.47567">
        <ele>84.8</ele>
        <time>2025-02-11T12:49:11Z</time>
      </trkpt>
      <trkpt lat="47.80911" lon="-2.47567">
        <ele>84.9</ele>
        <time>2025-02-11T12:49:12Z</time>
      </trkpt>
      <trkpt lat="47.80912" lon="-2.47567">
        <ele>84.9</ele>
        <time>2025-02-11T12:49:13Z</time>
      </trkpt>
      <trkpt lat="47.80913" lon="-2.47566">
        <ele>84.9</ele>
        <time>2025-02-11T12:49:14Z</time>
      </trkpt>
      <trkpt lat="47.80914" lon="-2.47565">
        <ele>84.9</ele>
        <time>2025-02-11T12:49:15Z</time>
      </trkpt>
      <trkpt lat="47.80915" lon="-2.47565">
        <ele>85</ele>
        <time>2025-02-11T12:49:16Z</time>
      </trkpt>
      <trkpt lat="47.80916" lon="-2.47565">
        <ele>85</ele>
        <time>2025-02-11T12:49:17Z</time>
      </trkpt>
      <trkpt lat="47.80917" lon="-2.47564">
        <ele>85</ele>
        <time>2025-02-11T12:49:18Z</time>
      </trkpt>
      <trkpt lat="47.80918" lon="-2.47564">
        <ele>85.1</ele>
        <time>2025-02-11T12:49:19Z</time>
      </trkpt>
      <trkpt lat="47.80919" lon="-2.47563">
        <ele>85.2</ele>
        <time>2025-02-11T12:49:20Z</time>
      </trkpt>
      <trkpt lat="47.80919" lon="-2.47562">
        <ele>85.2</ele>
        <time>2025-02-11T12:49:21Z</time>
      </trkpt>
      <trkpt lat="47.8092" lon="-2.47562">
        <ele>85.3</ele>
        <time>2025-02-11T12:49:22Z</time>
      </trkpt>
      <trkpt lat="47.80921" lon="-2.47561">
        <ele>85.3</ele>
        <time>2025-02-11T12:49:23Z</time>
      </trkpt>
      <trkpt lat="47.80922" lon="-2.4756">
        <ele>85.4</ele>
        <time>2025-02-11T12:49:24Z</time>
      </trkpt>
      <trkpt lat="47.80923" lon="-2.4756">
        <ele>85.5</ele>
        <time>2025-02-11T12:49:25Z</time>
      </trkpt>
      <trkpt lat="47.80925" lon="-2.47559">
        <ele>85.6</ele>
        <time>2025-02-11T12:49:26Z</time>
      </trkpt>
      <trkpt lat="47.80926" lon="-2.4756">
        <ele>85.7</ele>
        <time>2025-02-11T12:49:27Z</time>
      </trkpt>
      <trkpt lat="47.80927" lon="-2.4756">
        <ele>85.7</ele>
        <time>2025-02-11T12:49:28Z</time>
      </trkpt>
      <trkpt lat="47.80928" lon="-2.4756">
        <ele>85.8</ele>
        <time>2025-02-11T12:49:29Z</time>
      </trkpt>
      <trkpt lat="47.80929" lon="-2.47559">
        <ele>85.9</ele>
        <time>2025-02-11T12:49:30Z</time>
      </trkpt>
      <trkpt lat="47.8093" lon="-2.47558">
        <ele>85.9</ele>
        <time>2025-02-11T12:49:31Z</time>
      </trkpt>
      <trkpt lat="47.8093" lon="-2.47558">
        <ele>86</ele>
        <time>2025-02-11T12:49:32Z</time>
      </trkpt>
      <trkpt lat="47.80932" lon="-2.47558">
        <ele>86.1</ele>
        <time>2025-02-11T12:49:33Z</time>
      </trkpt>
      <trkpt lat="47.80932" lon="-2.47556">
        <ele>86.1</ele>
        <time>2025-02-11T12:49:34Z</time>
      </trkpt>
      <trkpt lat="47.80933" lon="-2.47555">
        <ele>86.1</ele>
        <time>2025-02-11T12:49:35Z</time>
      </trkpt>
      <trkpt lat="47.80933" lon="-2.47553">
        <ele>86.1</ele>
        <time>2025-02-11T12:49:36Z</time>
      </trkpt>
      <trkpt lat="47.80933" lon="-2.47551">
        <ele>86</ele>
        <time>2025-02-11T12:49:37Z</time>
      </trkpt>
      <trkpt lat="47.80934" lon="-2.47549">
        <ele>86</ele>
        <time>2025-02-11T12:49:38Z</time>
      </trkpt>
      <trkpt lat="47.80934" lon="-2.47548">
        <ele>86</ele>
        <time>2025-02-11T12:49:39Z</time>
      </trkpt>
      <trkpt lat="47.80935" lon="-2.47546">
        <ele>85.9</ele>
        <time>2025-02-11T12:49:40Z</time>
      </trkpt>
      <trkpt lat="47.80935" lon="-2.47544">
        <ele>85.9</ele>
        <time>2025-02-11T12:49:41Z</time>
      </trkpt>
      <trkpt lat="47.80936" lon="-2.47542">
        <ele>85.9</ele>
        <time>2025-02-11T12:49:42Z</time>
      </trkpt>
      <trkpt lat="47.80936" lon="-2.47541">
        <ele>85.9</ele>
        <time>2025-02-11T12:49:43Z</time>
      </trkpt>
      <trkpt lat="47.80936" lon="-2.47539">
        <ele>85.8</ele>
        <time>2025-02-11T12:49:44Z</time>
      </trkpt>
      <trkpt lat="47.80936" lon="-2.47537">
        <ele>85.8</ele>
        <time>2025-02-11T12:49:45Z</time>
      </trkpt>
      <trkpt lat="47.80936" lon="-2.47536">
        <ele>85.7</ele>
        <time>2025-02-11T12:49:46Z</time>
      </trkpt>
      <trkpt lat="47.80936" lon="-2.47534">
        <ele>85.6</ele>
        <time>2025-02-11T12:49:47Z</time>
      </trkpt>
      <trkpt lat="47.80936" lon="-2.47532">
        <ele>85.5</ele>
        <time>2025-02-11T12:49:48Z</time>
      </trkpt>
      <trkpt lat="47.80936" lon="-2.4753">
        <ele>85.5</ele>
        <time>2025-02-11T12:49:49Z</time>
      </trkpt>
      <trkpt lat="47.80937" lon="-2.47528">
        <ele>85.4</ele>
        <time>2025-02-11T12:49:50Z</time>
      </trkpt>
      <trkpt lat="47.80937" lon="-2.47526">
        <ele>85.4</ele>
        <time>2025-02-11T12:49:51Z</time>
      </trkpt>
      <trkpt lat="47.80937" lon="-2.47524">
        <ele>85.4</ele>
        <time>2025-02-11T12:49:52Z</time>
      </trkpt>
      <trkpt lat="47.80938" lon="-2.47523">
        <ele>85.3</ele>
        <time>2025-02-11T12:49:53Z</time>
      </trkpt>
      <trkpt lat="47.80938" lon="-2.47521">
        <ele>85.3</ele>
        <time>2025-02-11T12:49:54Z</time>
      </trkpt>
      <trkpt lat="47.80938" lon="-2.47519">
        <ele>85.2</ele>
        <time>2025-02-11T12:49:55Z</time>
      </trkpt>
      <trkpt lat="47.80938" lon="-2.47517">
        <ele>85.2</ele>
        <time>2025-02-11T12:49:56Z</time>
      </trkpt>
      <trkpt lat="47.80938" lon="-2.47515">
        <ele>85.1</ele>
        <time>2025-02-11T12:49:57Z</time>
      </trkpt>
      <trkpt lat="47.80938" lon="-2.47513">
        <ele>85</ele>
        <time>2025-02-11T12:49:58Z</time>
      </trkpt>
      <trkpt lat="47.80937" lon="-2.47511">
        <ele>84.9</ele>
        <time>2025-02-11T12:49:59Z</time>
      </trkpt>
      <trkpt lat="47.80937" lon="-2.47509">
        <ele>84.8</ele>
        <time>2025-02-11T12:50:00Z</time>
      </trkpt>
      <trkpt lat="47.80937" lon="-2.47508">
        <ele>84.7</ele>
        <time>2025-02-11T12:50:01Z</time>
      </trkpt>
      <trkpt lat="47.80938" lon="-2.47506">
        <ele>84.7</ele>
        <time>2025-02-11T12:50:02Z</time>
      </trkpt>
      <trkpt lat="47.80938" lon="-2.47504">
        <ele>84.7</ele>
        <time>2025-02-11T12:50:03Z</time>
      </trkpt>
      <trkpt lat="47.80938" lon="-2.47502">
        <ele>84.6</ele>
        <time>2025-02-11T12:50:04Z</time>
      </trkpt>
      <trkpt lat="47.80938" lon="-2.475">
        <ele>84.6</ele>
        <time>2025-02-11T12:50:05Z</time>
      </trkpt>
      <trkpt lat="47.80938" lon="-2.47498">
        <ele>84.5</ele>
        <time>2025-02-11T12:50:06Z</time>
      </trkpt>
      <trkpt lat="47.80938" lon="-2.47496">
        <ele>84.6</ele>
        <time>2025-02-11T12:50:07Z</time>
      </trkpt>
      <trkpt lat="47.80939" lon="-2.47494">
        <ele>84.6</ele>
        <time>2025-02-11T12:50:08Z</time>
      </trkpt>
      <trkpt lat="47.80939" lon="-2.47492">
        <ele>84.6</ele>
        <time>2025-02-11T12:50:09Z</time>
      </trkpt>
      <trkpt lat="47.80939" lon="-2.4749">
        <ele>84.6</ele>
        <time>2025-02-11T12:50:10Z</time>
      </trkpt>
      <trkpt lat="47.80939" lon="-2.47487">
        <ele>84.6</ele>
        <time>2025-02-11T12:50:11Z</time>
      </trkpt>
      <trkpt lat="47.80939" lon="-2.47485">
        <ele>84.6</ele>
        <time>2025-02-11T12:50:12Z</time>
      </trkpt>
      <trkpt lat="47.80939" lon="-2.47483">
        <ele>84.6</ele>
        <time>2025-02-11T12:50:13Z</time>
      </trkpt>
      <trkpt lat="47.8094" lon="-2.47481">
        <ele>84.7</ele>
        <time>2025-02-11T12:50:14Z</time>
      </trkpt>
      <trkpt lat="47.80941" lon="-2.47479">
        <ele>84.7</ele>
        <time>2025-02-11T12:50:15Z</time>
      </trkpt>
      <trkpt lat="47.80941" lon="-2.47477">
        <ele>84.8</ele>
        <time>2025-02-11T12:50:16Z</time>
      </trkpt>
      <trkpt lat="47.80942" lon="-2.47475">
        <ele>84.8</ele>
        <time>2025-02-11T12:50:17Z</time>
      </trkpt>
      <trkpt lat="47.80942" lon="-2.47474">
        <ele>84.8</ele>
        <time>2025-02-11T12:50:18Z</time>
      </trkpt>
      <trkpt lat="47.80942" lon="-2.47472">
        <ele>84.8</ele>
        <time>2025-02-11T12:50:19Z</time>
      </trkpt>
      <trkpt lat="47.80942" lon="-2.4747">
        <ele>84.8</ele>
        <time>2025-02-11T12:50:20Z</time>
      </trkpt>
      <trkpt lat="47.80942" lon="-2.47468">
        <ele>84.7</ele>
        <time>2025-02-11T12:50:21Z</time>
      </trkpt>
      <trkpt lat="47.80943" lon="-2.47467">
        <ele>84.7</ele>
        <time>2025-02-11T12:50:22Z</time>
      </trkpt>
      <trkpt lat="47.80943" lon="-2.47465">
        <ele>84.6</ele>
        <time>2025-02-11T12:50:23Z</time>
      </trkpt>
      <trkpt lat="47.80943" lon="-2.47463">
        <ele>84.6</ele>
        <time>2025-02-11T12:50:24Z</time>
      </trkpt>
      <trkpt lat="47.80943" lon="-2.47461">
        <ele>84.5</ele>
        <time>2025-02-11T12:50:25Z</time>
      </trkpt>
      <trkpt lat="47.80944" lon="-2.47459">
        <ele>84.5</ele>
        <time>2025-02-11T12:50:26Z</time>
      </trkpt>
      <trkpt lat="47.80944" lon="-2.47457">
        <ele>84.4</ele>
        <time>2025-02-11T12:50:27Z</time>
      </trkpt>
      <trkpt lat="47.80944" lon="-2.47456">
        <ele>84.4</ele>
        <time>2025-02-11T12:50:28Z</time>
      </trkpt>
      <trkpt lat="47.80945" lon="-2.47454">
        <ele>84.4</ele>
        <time>2025-02-11T12:50:29Z</time>
      </trkpt>
      <trkpt lat="47.80945" lon="-2.47453">
        <ele>84.3</ele>
        <time>2025-02-11T12:50:30Z</time>
      </trkpt>
      <trkpt lat="47.80945" lon="-2.47451">
        <ele>84.3</ele>
        <time>2025-02-11T12:50:31Z</time>
      </trkpt>
      <trkpt lat="47.80945" lon="-2.47449">
        <ele>84.2</ele>
        <time>2025-02-11T12:50:32Z</time>
      </trkpt>
      <trkpt lat="47.80946" lon="-2.47447">
        <ele>84.2</ele>
        <time>2025-02-11T12:50:33Z</time>
      </trkpt>
      <trkpt lat="47.80946" lon="-2.47445">
        <ele>84.1</ele>
        <time>2025-02-11T12:50:34Z</time>
      </trkpt>
      <trkpt lat="47.80946" lon="-2.47443">
        <ele>84.1</ele>
        <time>2025-02-11T12:50:35Z</time>
      </trkpt>
      <trkpt lat="47.80947" lon="-2.47441">
        <ele>84.2</ele>
        <time>2025-02-11T12:50:36Z</time>
      </trkpt>
      <trkpt lat="47.80947" lon="-2.47439">
        <ele>84.2</ele>
        <time>2025-02-11T12:50:37Z</time>
      </trkpt>
      <trkpt lat="47.80947" lon="-2.47437">
        <ele>84.2</ele>
        <time>2025-02-11T12:50:38Z</time>
      </trkpt>
      <trkpt lat="47.80948" lon="-2.47435">
        <ele>84.2</ele>
        <time>2025-02-11T12:50:39Z</time>
      </trkpt>
      <trkpt lat="47.80948" lon="-2.47433">
        <ele>84.2</ele>
        <time>2025-02-11T12:50:40Z</time>
      </trkpt>
      <trkpt lat="47.80948" lon="-2.47431">
        <ele>84.2</ele>
        <time>2025-02-11T12:50:41Z</time>
      </trkpt>
      <trkpt lat="47.80948" lon="-2.47429">
        <ele>84.2</ele>
        <time>2025-02-11T12:50:42Z</time>
      </trkpt>
      <trkpt lat="47.80948" lon="-2.47428">
        <ele>84.2</ele>
        <time>2025-02-11T12:50:43Z</time>
      </trkpt>
      <trkpt lat="47.80948" lon="-2.47426">
        <ele>84.3</ele>
        <time>2025-02-11T12:50:44Z</time>
      </trkpt>
      <trkpt lat="47.80948" lon="-2.47424">
        <ele>84.3</ele>
        <time>2025-02-11T12:50:45Z</time>
      </trkpt>
      <trkpt lat="47.80949" lon="-2.47422">
        <ele>84.3</ele>
        <time>2025-02-11T12:50:46Z</time>
      </trkpt>
      <trkpt lat="47.80949" lon="-2.4742">
        <ele>84.3</ele>
        <time>2025-02-11T12:50:47Z</time>
      </trkpt>
      <trkpt lat="47.80949" lon="-2.47418">
        <ele>84.3</ele>
        <time>2025-02-11T12:50:48Z</time>
      </trkpt>
      <trkpt lat="47.80949" lon="-2.47416">
        <ele>84.3</ele>
        <time>2025-02-11T12:50:49Z</time>
      </trkpt>
      <trkpt lat="47.80949" lon="-2.47414">
        <ele>84.3</ele>
        <time>2025-02-11T12:50:50Z</time>
      </trkpt>
      <trkpt lat="47.8095" lon="-2.47412">
        <ele>84.2</ele>
        <time>2025-02-11T12:50:51Z</time>
      </trkpt>
      <trkpt lat="47.8095" lon="-2.4741">
        <ele>84.2</ele>
        <time>2025-02-11T12:50:52Z</time>
      </trkpt>
      <trkpt lat="47.8095" lon="-2.47409">
        <ele>84.1</ele>
        <time>2025-02-11T12:50:53Z</time>
      </trkpt>
      <trkpt lat="47.80951" lon="-2.47407">
        <ele>84.1</ele>
        <time>2025-02-11T12:50:54Z</time>
      </trkpt>
      <trkpt lat="47.80951" lon="-2.47405">
        <ele>84.1</ele>
        <time>2025-02-11T12:50:55Z</time>
      </trkpt>
      <trkpt lat="47.80951" lon="-2.47404">
        <ele>84</ele>
        <time>2025-02-11T12:50:56Z</time>
      </trkpt>
      <trkpt lat="47.80952" lon="-2.47402">
        <ele>84</ele>
        <time>2025-02-11T12:50:57Z</time>
      </trkpt>
      <trkpt lat="47.80953" lon="-2.474">
        <ele>84</ele>
        <time>2025-02-11T12:50:58Z</time>
      </trkpt>
      <trkpt lat="47.80953" lon="-2.47399">
        <ele>84</ele>
        <time>2025-02-11T12:50:59Z</time>
      </trkpt>
      <trkpt lat="47.80953" lon="-2.47397">
        <ele>83.9</ele>
        <time>2025-02-11T12:51:00Z</time>
      </trkpt>
      <trkpt lat="47.80953" lon="-2.47396">
        <ele>83.9</ele>
        <time>2025-02-11T12:51:01Z</time>
      </trkpt>
      <trkpt lat="47.80953" lon="-2.47394">
        <ele>83.8</ele>
        <time>2025-02-11T12:51:02Z</time>
      </trkpt>
      <trkpt lat="47.80954" lon="-2.47393">
        <ele>83.8</ele>
        <time>2025-02-11T12:51:03Z</time>
      </trkpt>
      <trkpt lat="47.80954" lon="-2.47391">
        <ele>83.8</ele>
        <time>2025-02-11T12:51:04Z</time>
      </trkpt>
      <trkpt lat="47.80954" lon="-2.4739">
        <ele>83.7</ele>
        <time>2025-02-11T12:51:05Z</time>
      </trkpt>
      <trkpt lat="47.80955" lon="-2.47389">
        <ele>83.7</ele>
        <time>2025-02-11T12:51:06Z</time>
      </trkpt>
      <trkpt lat="47.80955" lon="-2.47387">
        <ele>83.8</ele>
        <time>2025-02-11T12:51:07Z</time>
      </trkpt>
      <trkpt lat="47.80956" lon="-2.47386">
        <ele>83.8</ele>
        <time>2025-02-11T12:51:08Z</time>
      </trkpt>
      <trkpt lat="47.80956" lon="-2.47385">
        <ele>83.8</ele>
        <time>2025-02-11T12:51:09Z</time>
      </trkpt>
      <trkpt lat="47.80956" lon="-2.47383">
        <ele>83.7</ele>
        <time>2025-02-11T12:51:10Z</time>
      </trkpt>
      <trkpt lat="47.80956" lon="-2.47382">
        <ele>83.7</ele>
        <time>2025-02-11T12:51:11Z</time>
      </trkpt>
      <trkpt lat="47.80957" lon="-2.4738">
        <ele>83.7</ele>
        <time>2025-02-11T12:51:12Z</time>
      </trkpt>
      <trkpt lat="47.80957" lon="-2.47378">
        <ele>83.7</ele>
        <time>2025-02-11T12:51:13Z</time>
      </trkpt>
      <trkpt lat="47.80957" lon="-2.47377">
        <ele>83.7</ele>
        <time>2025-02-11T12:51:14Z</time>
      </trkpt>
      <trkpt lat="47.80958" lon="-2.47375">
        <ele>83.7</ele>
        <time>2025-02-11T12:51:15Z</time>
      </trkpt>
      <trkpt lat="47.80958" lon="-2.47373">
        <ele>83.7</ele>
        <time>2025-02-11T12:51:16Z</time>
      </trkpt>
      <trkpt lat="47.80958" lon="-2.47371">
        <ele>83.7</ele>
        <time>2025-02-11T12:51:17Z</time>
      </trkpt>
      <trkpt lat="47.80959" lon="-2.4737">
        <ele>83.7</ele>
        <time>2025-02-11T12:51:18Z</time>
      </trkpt>
      <trkpt lat="47.80959" lon="-2.47368">
        <ele>83.6</ele>
        <time>2025-02-11T12:51:19Z</time>
      </trkpt>
      <trkpt lat="47.80959" lon="-2.47366">
        <ele>83.6</ele>
        <time>2025-02-11T12:51:20Z</time>
      </trkpt>
      <trkpt lat="47.80959" lon="-2.47364">
        <ele>83.6</ele>
        <time>2025-02-11T12:51:21Z</time>
      </trkpt>
      <trkpt lat="47.80959" lon="-2.47362">
        <ele>83.6</ele>
        <time>2025-02-11T12:51:22Z</time>
      </trkpt>
      <trkpt lat="47.8096" lon="-2.47361">
        <ele>83.6</ele>
        <time>2025-02-11T12:51:23Z</time>
      </trkpt>
      <trkpt lat="47.8096" lon="-2.47359">
        <ele>83.6</ele>
        <time>2025-02-11T12:51:24Z</time>
      </trkpt>
      <trkpt lat="47.80961" lon="-2.47357">
        <ele>83.6</ele>
        <time>2025-02-11T12:51:25Z</time>
      </trkpt>
      <trkpt lat="47.80961" lon="-2.47355">
        <ele>83.6</ele>
        <time>2025-02-11T12:51:26Z</time>
      </trkpt>
      <trkpt lat="47.80962" lon="-2.47353">
        <ele>83.6</ele>
        <time>2025-02-11T12:51:27Z</time>
      </trkpt>
      <trkpt lat="47.80962" lon="-2.47351">
        <ele>83.6</ele>
        <time>2025-02-11T12:51:28Z</time>
      </trkpt>
      <trkpt lat="47.80962" lon="-2.4735">
        <ele>83.6</ele>
        <time>2025-02-11T12:51:29Z</time>
      </trkpt>
      <trkpt lat="47.80962" lon="-2.47348">
        <ele>83.6</ele>
        <time>2025-02-11T12:51:30Z</time>
      </trkpt>
      <trkpt lat="47.80962" lon="-2.47346">
        <ele>83.6</ele>
        <time>2025-02-11T12:51:31Z</time>
      </trkpt>
      <trkpt lat="47.80962" lon="-2.47344">
        <ele>83.6</ele>
        <time>2025-02-11T12:51:32Z</time>
      </trkpt>
      <trkpt lat="47.80963" lon="-2.47342">
        <ele>83.7</ele>
        <time>2025-02-11T12:51:33Z</time>
      </trkpt>
      <trkpt lat="47.80963" lon="-2.4734">
        <ele>83.7</ele>
        <time>2025-02-11T12:51:34Z</time>
      </trkpt>
      <trkpt lat="47.80963" lon="-2.47338">
        <ele>83.7</ele>
        <time>2025-02-11T12:51:35Z</time>
      </trkpt>
      <trkpt lat="47.80964" lon="-2.47336">
        <ele>83.7</ele>
        <time>2025-02-11T12:51:36Z</time>
      </trkpt>
      <trkpt lat="47.80964" lon="-2.47335">
        <ele>83.7</ele>
        <time>2025-02-11T12:51:37Z</time>
      </trkpt>
      <trkpt lat="47.80965" lon="-2.47333">
        <ele>83.7</ele>
        <time>2025-02-11T12:51:38Z</time>
      </trkpt>
      <trkpt lat="47.80965" lon="-2.47331">
        <ele>83.7</ele>
        <time>2025-02-11T12:51:39Z</time>
      </trkpt>
      <trkpt lat="47.80965" lon="-2.47329">
        <ele>83.7</ele>
        <time>2025-02-11T12:51:40Z</time>
      </trkpt>
      <trkpt lat="47.80965" lon="-2.47327">
        <ele>83.7</ele>
        <time>2025-02-11T12:51:41Z</time>
      </trkpt>
      <trkpt lat="47.80965" lon="-2.47325">
        <ele>83.8</ele>
        <time>2025-02-11T12:51:42Z</time>
      </trkpt>
      <trkpt lat="47.80966" lon="-2.47323">
        <ele>83.8</ele>
        <time>2025-02-11T12:51:43Z</time>
      </trkpt>
      <trkpt lat="47.80966" lon="-2.47321">
        <ele>83.8</ele>
        <time>2025-02-11T12:51:44Z</time>
      </trkpt>
      <trkpt lat="47.80966" lon="-2.4732">
        <ele>83.8</ele>
        <time>2025-02-11T12:51:45Z</time>
      </trkpt>
      <trkpt lat="47.80967" lon="-2.47318">
        <ele>83.8</ele>
        <time>2025-02-11T12:51:46Z</time>
      </trkpt>
      <trkpt lat="47.80967" lon="-2.47317">
        <ele>83.8</ele>
        <time>2025-02-11T12:51:47Z</time>
      </trkpt>
      <trkpt lat="47.80967" lon="-2.47315">
        <ele>83.8</ele>
        <time>2025-02-11T12:51:48Z</time>
      </trkpt>
      <trkpt lat="47.80968" lon="-2.47314">
        <ele>83.8</ele>
        <time>2025-02-11T12:51:49Z</time>
      </trkpt>
      <trkpt lat="47.80968" lon="-2.47312">
        <ele>83.8</ele>
        <time>2025-02-11T12:51:50Z</time>
      </trkpt>
      <trkpt lat="47.80968" lon="-2.47311">
        <ele>83.9</ele>
        <time>2025-02-11T12:51:51Z</time>
      </trkpt>
      <trkpt lat="47.80968" lon="-2.47309">
        <ele>83.9</ele>
        <time>2025-02-11T12:51:52Z</time>
      </trkpt>
      <trkpt lat="47.80969" lon="-2.47308">
        <ele>83.9</ele>
        <time>2025-02-11T12:51:53Z</time>
      </trkpt>
      <trkpt lat="47.80969" lon="-2.47306">
        <ele>83.9</ele>
        <time>2025-02-11T12:51:54Z</time>
      </trkpt>
      <trkpt lat="47.8097" lon="-2.47305">
        <ele>83.9</ele>
        <time>2025-02-11T12:51:55Z</time>
      </trkpt>
      <trkpt lat="47.8097" lon="-2.47303">
        <ele>83.9</ele>
        <time>2025-02-11T12:51:56Z</time>
      </trkpt>
      <trkpt lat="47.8097" lon="-2.47301">
        <ele>83.9</ele>
        <time>2025-02-11T12:51:57Z</time>
      </trkpt>
      <trkpt lat="47.8097" lon="-2.473">
        <ele>83.9</ele>
        <time>2025-02-11T12:51:58Z</time>
      </trkpt>
      <trkpt lat="47.8097" lon="-2.47298">
        <ele>83.9</ele>
        <time>2025-02-11T12:51:59Z</time>
      </trkpt>
      <trkpt lat="47.80971" lon="-2.47297">
        <ele>83.9</ele>
        <time>2025-02-11T12:52:00Z</time>
      </trkpt>
      <trkpt lat="47.80971" lon="-2.47295">
        <ele>83.9</ele>
        <time>2025-02-11T12:52:01Z</time>
      </trkpt>
      <trkpt lat="47.80971" lon="-2.47293">
        <ele>83.9</ele>
        <time>2025-02-11T12:52:02Z</time>
      </trkpt>
      <trkpt lat="47.80972" lon="-2.47292">
        <ele>84</ele>
        <time>2025-02-11T12:52:03Z</time>
      </trkpt>
      <trkpt lat="47.80972" lon="-2.4729">
        <ele>84</ele>
        <time>2025-02-11T12:52:04Z</time>
      </trkpt>
      <trkpt lat="47.80972" lon="-2.47289">
        <ele>84</ele>
        <time>2025-02-11T12:52:05Z</time>
      </trkpt>
      <trkpt lat="47.80972" lon="-2.47287">
        <ele>84</ele>
        <time>2025-02-11T12:52:06Z</time>
      </trkpt>
      <trkpt lat="47.80972" lon="-2.47285">
        <ele>84</ele>
        <time>2025-02-11T12:52:07Z</time>
      </trkpt>
      <trkpt lat="47.80972" lon="-2.47283">
        <ele>84</ele>
        <time>2025-02-11T12:52:08Z</time>
      </trkpt>
      <trkpt lat="47.80973" lon="-2.47281">
        <ele>84</ele>
        <time>2025-02-11T12:52:09Z</time>
      </trkpt>
      <trkpt lat="47.80973" lon="-2.47279">
        <ele>84</ele>
        <time>2025-02-11T12:52:10Z</time>
      </trkpt>
      <trkpt lat="47.80973" lon="-2.47278">
        <ele>84.1</ele>
        <time>2025-02-11T12:52:11Z</time>
      </trkpt>
      <trkpt lat="47.80973" lon="-2.47276">
        <ele>84.1</ele>
        <time>2025-02-11T12:52:12Z</time>
      </trkpt>
      <trkpt lat="47.80973" lon="-2.47274">
        <ele>84.1</ele>
        <time>2025-02-11T12:52:13Z</time>
      </trkpt>
      <trkpt lat="47.80974" lon="-2.47273">
        <ele>84.1</ele>
        <time>2025-02-11T12:52:14Z</time>
      </trkpt>
      <trkpt lat="47.80974" lon="-2.47271">
        <ele>84.1</ele>
        <time>2025-02-11T12:52:15Z</time>
      </trkpt>
      <trkpt lat="47.80974" lon="-2.47269">
        <ele>84.1</ele>
        <time>2025-02-11T12:52:16Z</time>
      </trkpt>
      <trkpt lat="47.80974" lon="-2.47267">
        <ele>84.1</ele>
        <time>2025-02-11T12:52:17Z</time>
      </trkpt>
      <trkpt lat="47.80975" lon="-2.47265">
        <ele>84.1</ele>
        <time>2025-02-11T12:52:18Z</time>
      </trkpt>
      <trkpt lat="47.80975" lon="-2.47263">
        <ele>84.2</ele>
        <time>2025-02-11T12:52:19Z</time>
      </trkpt>
      <trkpt lat="47.80976" lon="-2.47262">
        <ele>84.2</ele>
        <time>2025-02-11T12:52:20Z</time>
      </trkpt>
      <trkpt lat="47.80976" lon="-2.4726">
        <ele>84.2</ele>
        <time>2025-02-11T12:52:21Z</time>
      </trkpt>
      <trkpt lat="47.80976" lon="-2.47258">
        <ele>84.2</ele>
        <time>2025-02-11T12:52:22Z</time>
      </trkpt>
      <trkpt lat="47.80976" lon="-2.47257">
        <ele>84.2</ele>
        <time>2025-02-11T12:52:23Z</time>
      </trkpt>
      <trkpt lat="47.80977" lon="-2.47255">
        <ele>84.2</ele>
        <time>2025-02-11T12:52:24Z</time>
      </trkpt>
      <trkpt lat="47.80977" lon="-2.47253">
        <ele>84.2</ele>
        <time>2025-02-11T12:52:25Z</time>
      </trkpt>
      <trkpt lat="47.80977" lon="-2.47252">
        <ele>84.2</ele>
        <time>2025-02-11T12:52:26Z</time>
      </trkpt>
      <trkpt lat="47.80978" lon="-2.4725">
        <ele>84.2</ele>
        <time>2025-02-11T12:52:27Z</time>
      </trkpt>
      <trkpt lat="47.80978" lon="-2.47249">
        <ele>84.2</ele>
        <time>2025-02-11T12:52:28Z</time>
      </trkpt>
      <trkpt lat="47.80978" lon="-2.47247">
        <ele>84.1</ele>
        <time>2025-02-11T12:52:29Z</time>
      </trkpt>
      <trkpt lat="47.80979" lon="-2.47246">
        <ele>84.1</ele>
        <time>2025-02-11T12:52:30Z</time>
      </trkpt>
      <trkpt lat="47.80979" lon="-2.47244">
        <ele>84.1</ele>
        <time>2025-02-11T12:52:31Z</time>
      </trkpt>
      <trkpt lat="47.8098" lon="-2.47243">
        <ele>84.1</ele>
        <time>2025-02-11T12:52:32Z</time>
      </trkpt>
      <trkpt lat="47.80981" lon="-2.47241">
        <ele>84.1</ele>
        <time>2025-02-11T12:52:33Z</time>
      </trkpt>
      <trkpt lat="47.80981" lon="-2.4724">
        <ele>84.1</ele>
        <time>2025-02-11T12:52:34Z</time>
      </trkpt>
      <trkpt lat="47.80981" lon="-2.47238">
        <ele>84</ele>
        <time>2025-02-11T12:52:35Z</time>
      </trkpt>
      <trkpt lat="47.80981" lon="-2.47235">
        <ele>83.9</ele>
        <time>2025-02-11T12:52:36Z</time>
      </trkpt>
      <trkpt lat="47.80981" lon="-2.47234">
        <ele>83.9</ele>
        <time>2025-02-11T12:52:37Z</time>
      </trkpt>
      <trkpt lat="47.80981" lon="-2.47232">
        <ele>83.8</ele>
        <time>2025-02-11T12:52:38Z</time>
      </trkpt>
      <trkpt lat="47.80981" lon="-2.4723">
        <ele>83.8</ele>
        <time>2025-02-11T12:52:39Z</time>
      </trkpt>
      <trkpt lat="47.80982" lon="-2.47228">
        <ele>83.8</ele>
        <time>2025-02-11T12:52:40Z</time>
      </trkpt>
      <trkpt lat="47.80983" lon="-2.47227">
        <ele>83.9</ele>
        <time>2025-02-11T12:52:41Z</time>
      </trkpt>
      <trkpt lat="47.80984" lon="-2.47226">
        <ele>83.9</ele>
        <time>2025-02-11T12:52:42Z</time>
      </trkpt>
      <trkpt lat="47.80985" lon="-2.47225">
        <ele>83.9</ele>
        <time>2025-02-11T12:52:43Z</time>
      </trkpt>
      <trkpt lat="47.80986" lon="-2.47224">
        <ele>84</ele>
        <time>2025-02-11T12:52:44Z</time>
      </trkpt>
      <trkpt lat="47.80987" lon="-2.47223">
        <ele>84.1</ele>
        <time>2025-02-11T12:52:45Z</time>
      </trkpt>
      <trkpt lat="47.80987" lon="-2.47222">
        <ele>84.1</ele>
        <time>2025-02-11T12:52:46Z</time>
      </trkpt>
      <trkpt lat="47.80988" lon="-2.4722">
        <ele>84.1</ele>
        <time>2025-02-11T12:52:47Z</time>
      </trkpt>
      <trkpt lat="47.80987" lon="-2.47219">
        <ele>84.2</ele>
        <time>2025-02-11T12:52:48Z</time>
      </trkpt>
      <trkpt lat="47.80987" lon="-2.47217">
        <ele>84.2</ele>
        <time>2025-02-11T12:52:49Z</time>
      </trkpt>
      <trkpt lat="47.80987" lon="-2.47216">
        <ele>84.2</ele>
        <time>2025-02-11T12:52:50Z</time>
      </trkpt>
      <trkpt lat="47.80987" lon="-2.47214">
        <ele>84.2</ele>
        <time>2025-02-11T12:52:51Z</time>
      </trkpt>
      <trkpt lat="47.80987" lon="-2.47212">
        <ele>84.2</ele>
        <time>2025-02-11T12:52:52Z</time>
      </trkpt>
      <trkpt lat="47.80987" lon="-2.47211">
        <ele>84.2</ele>
        <time>2025-02-11T12:52:53Z</time>
      </trkpt>
      <trkpt lat="47.80986" lon="-2.47209">
        <ele>84.3</ele>
        <time>2025-02-11T12:52:54Z</time>
      </trkpt>
      <trkpt lat="47.80987" lon="-2.47207">
        <ele>84.3</ele>
        <time>2025-02-11T12:52:55Z</time>
      </trkpt>
      <trkpt lat="47.80987" lon="-2.47206">
        <ele>84.3</ele>
        <time>2025-02-11T12:52:56Z</time>
      </trkpt>
      <trkpt lat="47.80987" lon="-2.47204">
        <ele>84.4</ele>
        <time>2025-02-11T12:52:57Z</time>
      </trkpt>
      <trkpt lat="47.80988" lon="-2.47203">
        <ele>84.4</ele>
        <time>2025-02-11T12:52:58Z</time>
      </trkpt>
      <trkpt lat="47.80989" lon="-2.47202">
        <ele>84.5</ele>
        <time>2025-02-11T12:52:59Z</time>
      </trkpt>
      <trkpt lat="47.80989" lon="-2.472">
        <ele>84.5</ele>
        <time>2025-02-11T12:53:00Z</time>
      </trkpt>
      <trkpt lat="47.8099" lon="-2.47199">
        <ele>84.6</ele>
        <time>2025-02-11T12:53:01Z</time>
      </trkpt>
      <trkpt lat="47.80991" lon="-2.47198">
        <ele>84.6</ele>
        <time>2025-02-11T12:53:02Z</time>
      </trkpt>
      <trkpt lat="47.80992" lon="-2.47196">
        <ele>84.7</ele>
        <time>2025-02-11T12:53:03Z</time>
      </trkpt>
      <trkpt lat="47.80992" lon="-2.47195">
        <ele>84.7</ele>
        <time>2025-02-11T12:53:04Z</time>
      </trkpt>
      <trkpt lat="47.80993" lon="-2.47194">
        <ele>84.7</ele>
        <time>2025-02-11T12:53:05Z</time>
      </trkpt>
      <trkpt lat="47.80994" lon="-2.47192">
        <ele>84.7</ele>
        <time>2025-02-11T12:53:06Z</time>
      </trkpt>
      <trkpt lat="47.80994" lon="-2.47191">
        <ele>84.8</ele>
        <time>2025-02-11T12:53:07Z</time>
      </trkpt>
      <trkpt lat="47.80995" lon="-2.4719">
        <ele>84.8</ele>
        <time>2025-02-11T12:53:08Z</time>
      </trkpt>
      <trkpt lat="47.80996" lon="-2.47188">
        <ele>84.8</ele>
        <time>2025-02-11T12:53:09Z</time>
      </trkpt>
      <trkpt lat="47.80996" lon="-2.47187">
        <ele>84.8</ele>
        <time>2025-02-11T12:53:10Z</time>
      </trkpt>
      <trkpt lat="47.80996" lon="-2.47185">
        <ele>84.8</ele>
        <time>2025-02-11T12:53:11Z</time>
      </trkpt>
      <trkpt lat="47.80997" lon="-2.47183">
        <ele>84.8</ele>
        <time>2025-02-11T12:53:12Z</time>
      </trkpt>
      <trkpt lat="47.80998" lon="-2.47182">
        <ele>84.9</ele>
        <time>2025-02-11T12:53:13Z</time>
      </trkpt>
      <trkpt lat="47.80998" lon="-2.4718">
        <ele>84.9</ele>
        <time>2025-02-11T12:53:14Z</time>
      </trkpt>
      <trkpt lat="47.80999" lon="-2.47179">
        <ele>84.9</ele>
        <time>2025-02-11T12:53:15Z</time>
      </trkpt>
      <trkpt lat="47.80999" lon="-2.47177">
        <ele>84.9</ele>
        <time>2025-02-11T12:53:16Z</time>
      </trkpt>
      <trkpt lat="47.80999" lon="-2.47175">
        <ele>84.9</ele>
        <time>2025-02-11T12:53:17Z</time>
      </trkpt>
      <trkpt lat="47.81" lon="-2.47174">
        <ele>85</ele>
        <time>2025-02-11T12:53:18Z</time>
      </trkpt>
      <trkpt lat="47.81" lon="-2.47172">
        <ele>85</ele>
        <time>2025-02-11T12:53:19Z</time>
      </trkpt>
      <trkpt lat="47.81001" lon="-2.47171">
        <ele>85.1</ele>
        <time>2025-02-11T12:53:20Z</time>
      </trkpt>
      <trkpt lat="47.81001" lon="-2.4717">
        <ele>85.1</ele>
        <time>2025-02-11T12:53:21Z</time>
      </trkpt>
      <trkpt lat="47.81001" lon="-2.47168">
        <ele>85.2</ele>
        <time>2025-02-11T12:53:22Z</time>
      </trkpt>
      <trkpt lat="47.81002" lon="-2.47167">
        <ele>85.2</ele>
        <time>2025-02-11T12:53:23Z</time>
      </trkpt>
      <trkpt lat="47.81002" lon="-2.47166">
        <ele>85.3</ele>
        <time>2025-02-11T12:53:24Z</time>
      </trkpt>
      <trkpt lat="47.81003" lon="-2.47164">
        <ele>85.3</ele>
        <time>2025-02-11T12:53:25Z</time>
      </trkpt>
      <trkpt lat="47.81003" lon="-2.47163">
        <ele>85.4</ele>
        <time>2025-02-11T12:53:26Z</time>
      </trkpt>
      <trkpt lat="47.81004" lon="-2.47162">
        <ele>85.4</ele>
        <time>2025-02-11T12:53:27Z</time>
      </trkpt>
      <trkpt lat="47.81004" lon="-2.4716">
        <ele>85.5</ele>
        <time>2025-02-11T12:53:28Z</time>
      </trkpt>
      <trkpt lat="47.81005" lon="-2.47159">
        <ele>85.5</ele>
        <time>2025-02-11T12:53:29Z</time>
      </trkpt>
      <trkpt lat="47.81005" lon="-2.47157">
        <ele>85.5</ele>
        <time>2025-02-11T12:53:30Z</time>
      </trkpt>
      <trkpt lat="47.81005" lon="-2.47156">
        <ele>85.6</ele>
        <time>2025-02-11T12:53:31Z</time>
      </trkpt>
      <trkpt lat="47.81006" lon="-2.47155">
        <ele>85.6</ele>
        <time>2025-02-11T12:53:32Z</time>
      </trkpt>
      <trkpt lat="47.81007" lon="-2.47153">
        <ele>85.7</ele>
        <time>2025-02-11T12:53:33Z</time>
      </trkpt>
      <trkpt lat="47.81007" lon="-2.47152">
        <ele>85.8</ele>
        <time>2025-02-11T12:53:34Z</time>
      </trkpt>
      <trkpt lat="47.81008" lon="-2.47151">
        <ele>85.8</ele>
        <time>2025-02-11T12:53:35Z</time>
      </trkpt>
      <trkpt lat="47.81008" lon="-2.47149">
        <ele>85.8</ele>
        <time>2025-02-11T12:53:36Z</time>
      </trkpt>
      <trkpt lat="47.81008" lon="-2.47147">
        <ele>85.9</ele>
        <time>2025-02-11T12:53:37Z</time>
      </trkpt>
      <trkpt lat="47.81009" lon="-2.47146">
        <ele>85.9</ele>
        <time>2025-02-11T12:53:38Z</time>
      </trkpt>
      <trkpt lat="47.81009" lon="-2.47145">
        <ele>86</ele>
        <time>2025-02-11T12:53:39Z</time>
      </trkpt>
      <trkpt lat="47.81009" lon="-2.47143">
        <ele>86</ele>
        <time>2025-02-11T12:53:40Z</time>
      </trkpt>
      <trkpt lat="47.8101" lon="-2.47142">
        <ele>86</ele>
        <time>2025-02-11T12:53:41Z</time>
      </trkpt>
      <trkpt lat="47.8101" lon="-2.4714">
        <ele>86</ele>
        <time>2025-02-11T12:53:42Z</time>
      </trkpt>
      <trkpt lat="47.8101" lon="-2.47139">
        <ele>86</ele>
        <time>2025-02-11T12:53:43Z</time>
      </trkpt>
      <trkpt lat="47.8101" lon="-2.47137">
        <ele>86.1</ele>
        <time>2025-02-11T12:53:44Z</time>
      </trkpt>
      <trkpt lat="47.8101" lon="-2.47136">
        <ele>86.1</ele>
        <time>2025-02-11T12:53:45Z</time>
      </trkpt>
      <trkpt lat="47.8101" lon="-2.47134">
        <ele>86.1</ele>
        <time>2025-02-11T12:53:46Z</time>
      </trkpt>
      <trkpt lat="47.8101" lon="-2.47133">
        <ele>86.1</ele>
        <time>2025-02-11T12:53:47Z</time>
      </trkpt>
      <trkpt lat="47.8101" lon="-2.47131">
        <ele>86.1</ele>
        <time>2025-02-11T12:53:48Z</time>
      </trkpt>
      <trkpt lat="47.8101" lon="-2.47129">
        <ele>86.1</ele>
        <time>2025-02-11T12:53:49Z</time>
      </trkpt>
      <trkpt lat="47.8101" lon="-2.47127">
        <ele>86</ele>
        <time>2025-02-11T12:53:50Z</time>
      </trkpt>
      <trkpt lat="47.81009" lon="-2.47125">
        <ele>86</ele>
        <time>2025-02-11T12:53:51Z</time>
      </trkpt>
      <trkpt lat="47.81009" lon="-2.47124">
        <ele>86</ele>
        <time>2025-02-11T12:53:52Z</time>
      </trkpt>
      <trkpt lat="47.81009" lon="-2.47122">
        <ele>86</ele>
        <time>2025-02-11T12:53:53Z</time>
      </trkpt>
      <trkpt lat="47.81009" lon="-2.4712">
        <ele>86</ele>
        <time>2025-02-11T12:53:54Z</time>
      </trkpt>
      <trkpt lat="47.81009" lon="-2.47119">
        <ele>86</ele>
        <time>2025-02-11T12:53:55Z</time>
      </trkpt>
      <trkpt lat="47.81009" lon="-2.47117">
        <ele>86</ele>
        <time>2025-02-11T12:53:56Z</time>
      </trkpt>
      <trkpt lat="47.81009" lon="-2.47115">
        <ele>86</ele>
        <time>2025-02-11T12:53:57Z</time>
      </trkpt>
      <trkpt lat="47.81009" lon="-2.47113">
        <ele>85.9</ele>
        <time>2025-02-11T12:53:58Z</time>
      </trkpt>
      <trkpt lat="47.81008" lon="-2.47112">
        <ele>85.9</ele>
        <time>2025-02-11T12:53:59Z</time>
      </trkpt>
      <trkpt lat="47.81008" lon="-2.4711">
        <ele>85.9</ele>
        <time>2025-02-11T12:54:00Z</time>
      </trkpt>
      <trkpt lat="47.81009" lon="-2.47108">
        <ele>85.9</ele>
        <time>2025-02-11T12:54:01Z</time>
      </trkpt>
      <trkpt lat="47.81008" lon="-2.47107">
        <ele>86</ele>
        <time>2025-02-11T12:54:02Z</time>
      </trkpt>
      <trkpt lat="47.81008" lon="-2.47105">
        <ele>85.9</ele>
        <time>2025-02-11T12:54:03Z</time>
      </trkpt>
      <trkpt lat="47.81008" lon="-2.47103">
        <ele>86</ele>
        <time>2025-02-11T12:54:04Z</time>
      </trkpt>
      <trkpt lat="47.81009" lon="-2.47102">
        <ele>86</ele>
        <time>2025-02-11T12:54:05Z</time>
      </trkpt>
      <trkpt lat="47.81009" lon="-2.471">
        <ele>86.1</ele>
        <time>2025-02-11T12:54:06Z</time>
      </trkpt>
      <trkpt lat="47.81009" lon="-2.47098">
        <ele>86.1</ele>
        <time>2025-02-11T12:54:07Z</time>
      </trkpt>
      <trkpt lat="47.81009" lon="-2.47097">
        <ele>86.1</ele>
        <time>2025-02-11T12:54:08Z</time>
      </trkpt>
      <trkpt lat="47.81009" lon="-2.47095">
        <ele>86.2</ele>
        <time>2025-02-11T12:54:09Z</time>
      </trkpt>
      <trkpt lat="47.81009" lon="-2.47093">
        <ele>86.2</ele>
        <time>2025-02-11T12:54:10Z</time>
      </trkpt>
      <trkpt lat="47.8101" lon="-2.47091">
        <ele>86.3</ele>
        <time>2025-02-11T12:54:11Z</time>
      </trkpt>
      <trkpt lat="47.8101" lon="-2.4709">
        <ele>86.3</ele>
        <time>2025-02-11T12:54:12Z</time>
      </trkpt>
      <trkpt lat="47.8101" lon="-2.47088">
        <ele>86.3</ele>
        <time>2025-02-11T12:54:13Z</time>
      </trkpt>
      <trkpt lat="47.8101" lon="-2.47086">
        <ele>86.4</ele>
        <time>2025-02-11T12:54:14Z</time>
      </trkpt>
      <trkpt lat="47.8101" lon="-2.47085">
        <ele>86.4</ele>
        <time>2025-02-11T12:54:15Z</time>
      </trkpt>
      <trkpt lat="47.8101" lon="-2.47083">
        <ele>86.5</ele>
        <time>2025-02-11T12:54:16Z</time>
      </trkpt>
      <trkpt lat="47.8101" lon="-2.47081">
        <ele>86.5</ele>
        <time>2025-02-11T12:54:17Z</time>
      </trkpt>
      <trkpt lat="47.81011" lon="-2.4708">
        <ele>86.5</ele>
        <time>2025-02-11T12:54:18Z</time>
      </trkpt>
      <trkpt lat="47.81011" lon="-2.47078">
        <ele>86.6</ele>
        <time>2025-02-11T12:54:19Z</time>
      </trkpt>
      <trkpt lat="47.81011" lon="-2.47077">
        <ele>86.5</ele>
        <time>2025-02-11T12:54:20Z</time>
      </trkpt>
      <trkpt lat="47.8101" lon="-2.47075">
        <ele>86.5</ele>
        <time>2025-02-11T12:54:21Z</time>
      </trkpt>
      <trkpt lat="47.81011" lon="-2.47073">
        <ele>86.5</ele>
        <time>2025-02-11T12:54:22Z</time>
      </trkpt>
      <trkpt lat="47.81011" lon="-2.47071">
        <ele>86.5</ele>
        <time>2025-02-11T12:54:23Z</time>
      </trkpt>
      <trkpt lat="47.81011" lon="-2.47069">
        <ele>86.5</ele>
        <time>2025-02-11T12:54:24Z</time>
      </trkpt>
      <trkpt lat="47.81011" lon="-2.47067">
        <ele>86.6</ele>
        <time>2025-02-11T12:54:25Z</time>
      </trkpt>
      <trkpt lat="47.81011" lon="-2.47066">
        <ele>86.6</ele>
        <time>2025-02-11T12:54:26Z</time>
      </trkpt>
      <trkpt lat="47.81011" lon="-2.47064">
        <ele>86.6</ele>
        <time>2025-02-11T12:54:27Z</time>
      </trkpt>
      <trkpt lat="47.81011" lon="-2.47062">
        <ele>86.5</ele>
        <time>2025-02-11T12:54:28Z</time>
      </trkpt>
      <trkpt lat="47.81011" lon="-2.4706">
        <ele>86.5</ele>
        <time>2025-02-11T12:54:29Z</time>
      </trkpt>
      <trkpt lat="47.81011" lon="-2.47058">
        <ele>86.5</ele>
        <time>2025-02-11T12:54:30Z</time>
      </trkpt>
      <trkpt lat="47.81011" lon="-2.47057">
        <ele>86.6</ele>
        <time>2025-02-11T12:54:31Z</time>
      </trkpt>
      <trkpt lat="47.81011" lon="-2.47055">
        <ele>86.5</ele>
        <time>2025-02-11T12:54:32Z</time>
      </trkpt>
      <trkpt lat="47.81011" lon="-2.47053">
        <ele>86.5</ele>
        <time>2025-02-11T12:54:33Z</time>
      </trkpt>
      <trkpt lat="47.81011" lon="-2.47051">
        <ele>86.5</ele>
        <time>2025-02-11T12:54:34Z</time>
      </trkpt>
      <trkpt lat="47.8101" lon="-2.47049">
        <ele>86.4</ele>
        <time>2025-02-11T12:54:35Z</time>
      </trkpt>
      <trkpt lat="47.8101" lon="-2.47048">
        <ele>86.4</ele>
        <time>2025-02-11T12:54:36Z</time>
      </trkpt>
      <trkpt lat="47.8101" lon="-2.47046">
        <ele>86.4</ele>
        <time>2025-02-11T12:54:37Z</time>
      </trkpt>
      <trkpt lat="47.81011" lon="-2.47044">
        <ele>86.4</ele>
        <time>2025-02-11T12:54:38Z</time>
      </trkpt>
      <trkpt lat="47.81011" lon="-2.47042">
        <ele>86.3</ele>
        <time>2025-02-11T12:54:39Z</time>
      </trkpt>
      <trkpt lat="47.8101" lon="-2.4704">
        <ele>86.3</ele>
        <time>2025-02-11T12:54:40Z</time>
      </trkpt>
      <trkpt lat="47.8101" lon="-2.47039">
        <ele>86.3</ele>
        <time>2025-02-11T12:54:41Z</time>
      </trkpt>
      <trkpt lat="47.8101" lon="-2.47037">
        <ele>86.2</ele>
        <time>2025-02-11T12:54:42Z</time>
      </trkpt>
      <trkpt lat="47.8101" lon="-2.47035">
        <ele>86.2</ele>
        <time>2025-02-11T12:54:43Z</time>
      </trkpt>
      <trkpt lat="47.8101" lon="-2.47034">
        <ele>86.2</ele>
        <time>2025-02-11T12:54:44Z</time>
      </trkpt>
      <trkpt lat="47.81011" lon="-2.47032">
        <ele>86.2</ele>
        <time>2025-02-11T12:54:45Z</time>
      </trkpt>
      <trkpt lat="47.81011" lon="-2.4703">
        <ele>86.2</ele>
        <time>2025-02-11T12:54:46Z</time>
      </trkpt>
      <trkpt lat="47.81011" lon="-2.47028">
        <ele>86.2</ele>
        <time>2025-02-11T12:54:47Z</time>
      </trkpt>
      <trkpt lat="47.81011" lon="-2.47026">
        <ele>86.2</ele>
        <time>2025-02-11T12:54:48Z</time>
      </trkpt>
      <trkpt lat="47.81011" lon="-2.47024">
        <ele>86.2</ele>
        <time>2025-02-11T12:54:49Z</time>
      </trkpt>
      <trkpt lat="47.81011" lon="-2.47022">
        <ele>86.2</ele>
        <time>2025-02-11T12:54:50Z</time>
      </trkpt>
      <trkpt lat="47.81011" lon="-2.4702">
        <ele>86.2</ele>
        <time>2025-02-11T12:54:51Z</time>
      </trkpt>
      <trkpt lat="47.81011" lon="-2.47018">
        <ele>86.1</ele>
        <time>2025-02-11T12:54:52Z</time>
      </trkpt>
      <trkpt lat="47.8101" lon="-2.47017">
        <ele>86.1</ele>
        <time>2025-02-11T12:54:53Z</time>
      </trkpt>
      <trkpt lat="47.81011" lon="-2.47015">
        <ele>86.1</ele>
        <time>2025-02-11T12:54:54Z</time>
      </trkpt>
      <trkpt lat="47.81011" lon="-2.47013">
        <ele>86.2</ele>
        <time>2025-02-11T12:54:55Z</time>
      </trkpt>
      <trkpt lat="47.81011" lon="-2.47011">
        <ele>86.2</ele>
        <time>2025-02-11T12:54:56Z</time>
      </trkpt>
      <trkpt lat="47.81011" lon="-2.47009">
        <ele>86.2</ele>
        <time>2025-02-11T12:54:57Z</time>
      </trkpt>
      <trkpt lat="47.81012" lon="-2.47007">
        <ele>86.2</ele>
        <time>2025-02-11T12:54:58Z</time>
      </trkpt>
      <trkpt lat="47.81012" lon="-2.47006">
        <ele>86.3</ele>
        <time>2025-02-11T12:54:59Z</time>
      </trkpt>
      <trkpt lat="47.81011" lon="-2.47004">
        <ele>86.2</ele>
        <time>2025-02-11T12:55:00Z</time>
      </trkpt>
      <trkpt lat="47.81011" lon="-2.47002">
        <ele>86.2</ele>
        <time>2025-02-11T12:55:01Z</time>
      </trkpt>
      <trkpt lat="47.81011" lon="-2.47001">
        <ele>86.2</ele>
        <time>2025-02-11T12:55:02Z</time>
      </trkpt>
      <trkpt lat="47.81012" lon="-2.46999">
        <ele>86.3</ele>
        <time>2025-02-11T12:55:03Z</time>
      </trkpt>
      <trkpt lat="47.81012" lon="-2.46997">
        <ele>86.3</ele>
        <time>2025-02-11T12:55:04Z</time>
      </trkpt>
      <trkpt lat="47.81012" lon="-2.46996">
        <ele>86.3</ele>
        <time>2025-02-11T12:55:05Z</time>
      </trkpt>
      <trkpt lat="47.81012" lon="-2.46994">
        <ele>86.3</ele>
        <time>2025-02-11T12:55:06Z</time>
      </trkpt>
      <trkpt lat="47.81012" lon="-2.46992">
        <ele>86.3</ele>
        <time>2025-02-11T12:55:07Z</time>
      </trkpt>
      <trkpt lat="47.81012" lon="-2.4699">
        <ele>86.3</ele>
        <time>2025-02-11T12:55:08Z</time>
      </trkpt>
      <trkpt lat="47.81012" lon="-2.46988">
        <ele>86.3</ele>
        <time>2025-02-11T12:55:09Z</time>
      </trkpt>
      <trkpt lat="47.81012" lon="-2.46987">
        <ele>86.3</ele>
        <time>2025-02-11T12:55:10Z</time>
      </trkpt>
      <trkpt lat="47.81012" lon="-2.46985">
        <ele>86.3</ele>
        <time>2025-02-11T12:55:11Z</time>
      </trkpt>
      <trkpt lat="47.81012" lon="-2.46983">
        <ele>86.3</ele>
        <time>2025-02-11T12:55:12Z</time>
      </trkpt>
      <trkpt lat="47.81012" lon="-2.46981">
        <ele>86.3</ele>
        <time>2025-02-11T12:55:13Z</time>
      </trkpt>
      <trkpt lat="47.81013" lon="-2.4698">
        <ele>86.4</ele>
        <time>2025-02-11T12:55:14Z</time>
      </trkpt>
      <trkpt lat="47.81013" lon="-2.46978">
        <ele>86.4</ele>
        <time>2025-02-11T12:55:15Z</time>
      </trkpt>
      <trkpt lat="47.81013" lon="-2.46976">
        <ele>86.4</ele>
        <time>2025-02-11T12:55:16Z</time>
      </trkpt>
      <trkpt lat="47.81013" lon="-2.46974">
        <ele>86.4</ele>
        <time>2025-02-11T12:55:17Z</time>
      </trkpt>
      <trkpt lat="47.81013" lon="-2.46973">
        <ele>86.3</ele>
        <time>2025-02-11T12:55:18Z</time>
      </trkpt>
      <trkpt lat="47.81013" lon="-2.46971">
        <ele>86.4</ele>
        <time>2025-02-11T12:55:19Z</time>
      </trkpt>
      <trkpt lat="47.81013" lon="-2.46969">
        <ele>86.4</ele>
        <time>2025-02-11T12:55:20Z</time>
      </trkpt>
      <trkpt lat="47.81012" lon="-2.46967">
        <ele>86.4</ele>
        <time>2025-02-11T12:55:21Z</time>
      </trkpt>
      <trkpt lat="47.81012" lon="-2.46966">
        <ele>86.4</ele>
        <time>2025-02-11T12:55:22Z</time>
      </trkpt>
      <trkpt lat="47.81013" lon="-2.46964">
        <ele>86.5</ele>
        <time>2025-02-11T12:55:23Z</time>
      </trkpt>
      <trkpt lat="47.81013" lon="-2.46962">
        <ele>86.5</ele>
        <time>2025-02-11T12:55:24Z</time>
      </trkpt>
      <trkpt lat="47.81013" lon="-2.46961">
        <ele>86.5</ele>
        <time>2025-02-11T12:55:25Z</time>
      </trkpt>
      <trkpt lat="47.81013" lon="-2.46959">
        <ele>86.6</ele>
        <time>2025-02-11T12:55:26Z</time>
      </trkpt>
      <trkpt lat="47.81012" lon="-2.46958">
        <ele>86.6</ele>
        <time>2025-02-11T12:55:27Z</time>
      </trkpt>
      <trkpt lat="47.81012" lon="-2.46956">
        <ele>86.5</ele>
        <time>2025-02-11T12:55:28Z</time>
      </trkpt>
      <trkpt lat="47.81012" lon="-2.46955">
        <ele>86.6</ele>
        <time>2025-02-11T12:55:29Z</time>
      </trkpt>
      <trkpt lat="47.81012" lon="-2.46953">
        <ele>86.6</ele>
        <time>2025-02-11T12:55:30Z</time>
      </trkpt>
      <trkpt lat="47.81012" lon="-2.46952">
        <ele>86.6</ele>
        <time>2025-02-11T12:55:31Z</time>
      </trkpt>
      <trkpt lat="47.81012" lon="-2.4695">
        <ele>86.6</ele>
        <time>2025-02-11T12:55:32Z</time>
      </trkpt>
      <trkpt lat="47.81012" lon="-2.46949">
        <ele>86.6</ele>
        <time>2025-02-11T12:55:33Z</time>
      </trkpt>
      <trkpt lat="47.81012" lon="-2.46947">
        <ele>86.6</ele>
        <time>2025-02-11T12:55:34Z</time>
      </trkpt>
      <trkpt lat="47.81012" lon="-2.46946">
        <ele>86.7</ele>
        <time>2025-02-11T12:55:35Z</time>
      </trkpt>
      <trkpt lat="47.81012" lon="-2.46944">
        <ele>86.7</ele>
        <time>2025-02-11T12:55:36Z</time>
      </trkpt>
      <trkpt lat="47.81012" lon="-2.46943">
        <ele>86.8</ele>
        <time>2025-02-11T12:55:37Z</time>
      </trkpt>
      <trkpt lat="47.81012" lon="-2.46941">
        <ele>86.8</ele>
        <time>2025-02-11T12:55:38Z</time>
      </trkpt>
      <trkpt lat="47.81012" lon="-2.46939">
        <ele>86.7</ele>
        <time>2025-02-11T12:55:39Z</time>
      </trkpt>
      <trkpt lat="47.81012" lon="-2.46937">
        <ele>86.8</ele>
        <time>2025-02-11T12:55:40Z</time>
      </trkpt>
      <trkpt lat="47.81012" lon="-2.46935">
        <ele>86.8</ele>
        <time>2025-02-11T12:55:41Z</time>
      </trkpt>
      <trkpt lat="47.81013" lon="-2.46934">
        <ele>86.8</ele>
        <time>2025-02-11T12:55:42Z</time>
      </trkpt>
      <trkpt lat="47.81013" lon="-2.46932">
        <ele>86.8</ele>
        <time>2025-02-11T12:55:43Z</time>
      </trkpt>
      <trkpt lat="47.81013" lon="-2.4693">
        <ele>86.8</ele>
        <time>2025-02-11T12:55:44Z</time>
      </trkpt>
      <trkpt lat="47.81013" lon="-2.46929">
        <ele>86.8</ele>
        <time>2025-02-11T12:55:45Z</time>
      </trkpt>
      <trkpt lat="47.81012" lon="-2.46927">
        <ele>86.8</ele>
        <time>2025-02-11T12:55:46Z</time>
      </trkpt>
      <trkpt lat="47.81012" lon="-2.46925">
        <ele>86.7</ele>
        <time>2025-02-11T12:55:47Z</time>
      </trkpt>
      <trkpt lat="47.81012" lon="-2.46924">
        <ele>86.8</ele>
        <time>2025-02-11T12:55:48Z</time>
      </trkpt>
      <trkpt lat="47.81012" lon="-2.46922">
        <ele>86.8</ele>
        <time>2025-02-11T12:55:49Z</time>
      </trkpt>
      <trkpt lat="47.81012" lon="-2.4692">
        <ele>86.8</ele>
        <time>2025-02-11T12:55:50Z</time>
      </trkpt>
      <trkpt lat="47.81012" lon="-2.46918">
        <ele>86.8</ele>
        <time>2025-02-11T12:55:51Z</time>
      </trkpt>
      <trkpt lat="47.81012" lon="-2.46916">
        <ele>86.8</ele>
        <time>2025-02-11T12:55:52Z</time>
      </trkpt>
      <trkpt lat="47.81012" lon="-2.46915">
        <ele>86.8</ele>
        <time>2025-02-11T12:55:53Z</time>
      </trkpt>
      <trkpt lat="47.81012" lon="-2.46913">
        <ele>86.7</ele>
        <time>2025-02-11T12:55:54Z</time>
      </trkpt>
      <trkpt lat="47.81012" lon="-2.46911">
        <ele>86.8</ele>
        <time>2025-02-11T12:55:55Z</time>
      </trkpt>
      <trkpt lat="47.81012" lon="-2.4691">
        <ele>86.8</ele>
        <time>2025-02-11T12:55:56Z</time>
      </trkpt>
      <trkpt lat="47.81012" lon="-2.46908">
        <ele>86.8</ele>
        <time>2025-02-11T12:55:57Z</time>
      </trkpt>
      <trkpt lat="47.81012" lon="-2.46906">
        <ele>86.8</ele>
        <time>2025-02-11T12:55:58Z</time>
      </trkpt>
      <trkpt lat="47.81012" lon="-2.46904">
        <ele>86.7</ele>
        <time>2025-02-11T12:55:59Z</time>
      </trkpt>
      <trkpt lat="47.81011" lon="-2.46903">
        <ele>86.7</ele>
        <time>2025-02-11T12:56:00Z</time>
      </trkpt>
      <trkpt lat="47.81011" lon="-2.46901">
        <ele>86.7</ele>
        <time>2025-02-11T12:56:01Z</time>
      </trkpt>
      <trkpt lat="47.81011" lon="-2.46899">
        <ele>86.7</ele>
        <time>2025-02-11T12:56:02Z</time>
      </trkpt>
      <trkpt lat="47.81011" lon="-2.46898">
        <ele>86.7</ele>
        <time>2025-02-11T12:56:03Z</time>
      </trkpt>
      <trkpt lat="47.8101" lon="-2.46896">
        <ele>86.7</ele>
        <time>2025-02-11T12:56:04Z</time>
      </trkpt>
      <trkpt lat="47.8101" lon="-2.46894">
        <ele>86.7</ele>
        <time>2025-02-11T12:56:05Z</time>
      </trkpt>
      <trkpt lat="47.8101" lon="-2.46893">
        <ele>86.7</ele>
        <time>2025-02-11T12:56:06Z</time>
      </trkpt>
      <trkpt lat="47.81011" lon="-2.46892">
        <ele>86.7</ele>
        <time>2025-02-11T12:56:07Z</time>
      </trkpt>
      <trkpt lat="47.81011" lon="-2.4689">
        <ele>86.8</ele>
        <time>2025-02-11T12:56:08Z</time>
      </trkpt>
      <trkpt lat="47.81011" lon="-2.46889">
        <ele>86.8</ele>
        <time>2025-02-11T12:56:09Z</time>
      </trkpt>
      <trkpt lat="47.81011" lon="-2.46887">
        <ele>86.8</ele>
        <time>2025-02-11T12:56:10Z</time>
      </trkpt>
      <trkpt lat="47.81012" lon="-2.46886">
        <ele>86.8</ele>
        <time>2025-02-11T12:56:11Z</time>
      </trkpt>
      <trkpt lat="47.81012" lon="-2.46884">
        <ele>86.8</ele>
        <time>2025-02-11T12:56:12Z</time>
      </trkpt>
      <trkpt lat="47.81011" lon="-2.46883">
        <ele>86.8</ele>
        <time>2025-02-11T12:56:13Z</time>
      </trkpt>
      <trkpt lat="47.81011" lon="-2.46881">
        <ele>86.8</ele>
        <time>2025-02-11T12:56:14Z</time>
      </trkpt>
      <trkpt lat="47.81012" lon="-2.4688">
        <ele>86.8</ele>
        <time>2025-02-11T12:56:15Z</time>
      </trkpt>
      <trkpt lat="47.81012" lon="-2.46878">
        <ele>86.8</ele>
        <time>2025-02-11T12:56:16Z</time>
      </trkpt>
      <trkpt lat="47.81012" lon="-2.46876">
        <ele>86.8</ele>
        <time>2025-02-11T12:56:17Z</time>
      </trkpt>
      <trkpt lat="47.81011" lon="-2.46874">
        <ele>86.8</ele>
        <time>2025-02-11T12:56:18Z</time>
      </trkpt>
      <trkpt lat="47.81011" lon="-2.46873">
        <ele>86.8</ele>
        <time>2025-02-11T12:56:19Z</time>
      </trkpt>
      <trkpt lat="47.81011" lon="-2.46871">
        <ele>86.8</ele>
        <time>2025-02-11T12:56:20Z</time>
      </trkpt>
      <trkpt lat="47.81011" lon="-2.46869">
        <ele>86.8</ele>
        <time>2025-02-11T12:56:21Z</time>
      </trkpt>
      <trkpt lat="47.81012" lon="-2.46868">
        <ele>86.8</ele>
        <time>2025-02-11T12:56:22Z</time>
      </trkpt>
      <trkpt lat="47.81012" lon="-2.46866">
        <ele>86.8</ele>
        <time>2025-02-11T12:56:23Z</time>
      </trkpt>
      <trkpt lat="47.81012" lon="-2.46864">
        <ele>86.8</ele>
        <time>2025-02-11T12:56:24Z</time>
      </trkpt>
      <trkpt lat="47.81012" lon="-2.46863">
        <ele>86.9</ele>
        <time>2025-02-11T12:56:25Z</time>
      </trkpt>
      <trkpt lat="47.81012" lon="-2.46861">
        <ele>86.9</ele>
        <time>2025-02-11T12:56:26Z</time>
      </trkpt>
      <trkpt lat="47.81012" lon="-2.46859">
        <ele>86.9</ele>
        <time>2025-02-11T12:56:27Z</time>
      </trkpt>
      <trkpt lat="47.81012" lon="-2.46858">
        <ele>87</ele>
        <time>2025-02-11T12:56:28Z</time>
      </trkpt>
      <trkpt lat="47.81012" lon="-2.46857">
        <ele>87</ele>
        <time>2025-02-11T12:56:29Z</time>
      </trkpt>
      <trkpt lat="47.81013" lon="-2.46855">
        <ele>87.1</ele>
        <time>2025-02-11T12:56:30Z</time>
      </trkpt>
      <trkpt lat="47.81012" lon="-2.46853">
        <ele>87.2</ele>
        <time>2025-02-11T12:56:31Z</time>
      </trkpt>
      <trkpt lat="47.81012" lon="-2.46851">
        <ele>87.3</ele>
        <time>2025-02-11T12:56:32Z</time>
      </trkpt>
      <trkpt lat="47.81012" lon="-2.46849">
        <ele>87.3</ele>
        <time>2025-02-11T12:56:33Z</time>
      </trkpt>
      <trkpt lat="47.81012" lon="-2.46848">
        <ele>87.4</ele>
        <time>2025-02-11T12:56:34Z</time>
      </trkpt>
      <trkpt lat="47.81013" lon="-2.46846">
        <ele>87.4</ele>
        <time>2025-02-11T12:56:35Z</time>
      </trkpt>
      <trkpt lat="47.81013" lon="-2.46845">
        <ele>87.5</ele>
        <time>2025-02-11T12:56:36Z</time>
      </trkpt>
      <trkpt lat="47.81013" lon="-2.46843">
        <ele>87.6</ele>
        <time>2025-02-11T12:56:37Z</time>
      </trkpt>
      <trkpt lat="47.81013" lon="-2.46841">
        <ele>87.6</ele>
        <time>2025-02-11T12:56:38Z</time>
      </trkpt>
      <trkpt lat="47.81013" lon="-2.46839">
        <ele>87.7</ele>
        <time>2025-02-11T12:56:39Z</time>
      </trkpt>
      <trkpt lat="47.81013" lon="-2.46838">
        <ele>87.7</ele>
        <time>2025-02-11T12:56:40Z</time>
      </trkpt>
      <trkpt lat="47.81012" lon="-2.46836">
        <ele>87.8</ele>
        <time>2025-02-11T12:56:41Z</time>
      </trkpt>
      <trkpt lat="47.81013" lon="-2.46835">
        <ele>87.9</ele>
        <time>2025-02-11T12:56:42Z</time>
      </trkpt>
      <trkpt lat="47.81013" lon="-2.46833">
        <ele>87.9</ele>
        <time>2025-02-11T12:56:43Z</time>
      </trkpt>
      <trkpt lat="47.81012" lon="-2.46832">
        <ele>87.9</ele>
        <time>2025-02-11T12:56:44Z</time>
      </trkpt>
      <trkpt lat="47.81012" lon="-2.4683">
        <ele>87.9</ele>
        <time>2025-02-11T12:56:45Z</time>
      </trkpt>
      <trkpt lat="47.81012" lon="-2.46829">
        <ele>87.9</ele>
        <time>2025-02-11T12:56:46Z</time>
      </trkpt>
      <trkpt lat="47.81012" lon="-2.46827">
        <ele>87.9</ele>
        <time>2025-02-11T12:56:47Z</time>
      </trkpt>
      <trkpt lat="47.81012" lon="-2.46826">
        <ele>87.9</ele>
        <time>2025-02-11T12:56:48Z</time>
      </trkpt>
      <trkpt lat="47.81012" lon="-2.46824">
        <ele>87.9</ele>
        <time>2025-02-11T12:56:49Z</time>
      </trkpt>
      <trkpt lat="47.81012" lon="-2.46822">
        <ele>87.8</ele>
        <time>2025-02-11T12:56:50Z</time>
      </trkpt>
      <trkpt lat="47.81012" lon="-2.46821">
        <ele>87.9</ele>
        <time>2025-02-11T12:56:51Z</time>
      </trkpt>
      <trkpt lat="47.81012" lon="-2.46819">
        <ele>87.9</ele>
        <time>2025-02-11T12:56:52Z</time>
      </trkpt>
      <trkpt lat="47.81012" lon="-2.46817">
        <ele>87.9</ele>
        <time>2025-02-11T12:56:53Z</time>
      </trkpt>
      <trkpt lat="47.81012" lon="-2.46815">
        <ele>87.9</ele>
        <time>2025-02-11T12:56:54Z</time>
      </trkpt>
      <trkpt lat="47.81013" lon="-2.46814">
        <ele>87.9</ele>
        <time>2025-02-11T12:56:55Z</time>
      </trkpt>
      <trkpt lat="47.81013" lon="-2.46812">
        <ele>87.9</ele>
        <time>2025-02-11T12:56:56Z</time>
      </trkpt>
      <trkpt lat="47.81012" lon="-2.4681">
        <ele>87.9</ele>
        <time>2025-02-11T12:56:57Z</time>
      </trkpt>
      <trkpt lat="47.81013" lon="-2.46809">
        <ele>87.9</ele>
        <time>2025-02-11T12:56:58Z</time>
      </trkpt>
      <trkpt lat="47.81013" lon="-2.46807">
        <ele>87.9</ele>
        <time>2025-02-11T12:56:59Z</time>
      </trkpt>
      <trkpt lat="47.81013" lon="-2.46805">
        <ele>88</ele>
        <time>2025-02-11T12:57:00Z</time>
      </trkpt>
      <trkpt lat="47.81013" lon="-2.46804">
        <ele>88</ele>
        <time>2025-02-11T12:57:01Z</time>
      </trkpt>
      <trkpt lat="47.81013" lon="-2.46802">
        <ele>88</ele>
        <time>2025-02-11T12:57:02Z</time>
      </trkpt>
      <trkpt lat="47.81013" lon="-2.468">
        <ele>88.1</ele>
        <time>2025-02-11T12:57:03Z</time>
      </trkpt>
      <trkpt lat="47.81013" lon="-2.46799">
        <ele>88.1</ele>
        <time>2025-02-11T12:57:04Z</time>
      </trkpt>
      <trkpt lat="47.81013" lon="-2.46797">
        <ele>88.1</ele>
        <time>2025-02-11T12:57:05Z</time>
      </trkpt>
      <trkpt lat="47.81014" lon="-2.46796">
        <ele>88.2</ele>
        <time>2025-02-11T12:57:06Z</time>
      </trkpt>
      <trkpt lat="47.81014" lon="-2.46794">
        <ele>88.2</ele>
        <time>2025-02-11T12:57:07Z</time>
      </trkpt>
      <trkpt lat="47.81015" lon="-2.46793">
        <ele>88.3</ele>
        <time>2025-02-11T12:57:08Z</time>
      </trkpt>
      <trkpt lat="47.81015" lon="-2.46791">
        <ele>88.3</ele>
        <time>2025-02-11T12:57:09Z</time>
      </trkpt>
      <trkpt lat="47.81015" lon="-2.4679">
        <ele>88.3</ele>
        <time>2025-02-11T12:57:10Z</time>
      </trkpt>
      <trkpt lat="47.81014" lon="-2.46788">
        <ele>88.3</ele>
        <time>2025-02-11T12:57:11Z</time>
      </trkpt>
      <trkpt lat="47.81014" lon="-2.46787">
        <ele>88.4</ele>
        <time>2025-02-11T12:57:12Z</time>
      </trkpt>
      <trkpt lat="47.81014" lon="-2.46785">
        <ele>88.4</ele>
        <time>2025-02-11T12:57:13Z</time>
      </trkpt>
      <trkpt lat="47.81015" lon="-2.46784">
        <ele>88.4</ele>
        <time>2025-02-11T12:57:14Z</time>
      </trkpt>
      <trkpt lat="47.81015" lon="-2.46782">
        <ele>88.5</ele>
        <time>2025-02-11T12:57:15Z</time>
      </trkpt>
      <trkpt lat="47.81015" lon="-2.4678">
        <ele>88.5</ele>
        <time>2025-02-11T12:57:16Z</time>
      </trkpt>
      <trkpt lat="47.81015" lon="-2.46778">
        <ele>88.5</ele>
        <time>2025-02-11T12:57:17Z</time>
      </trkpt>
      <trkpt lat="47.81015" lon="-2.46777">
        <ele>88.6</ele>
        <time>2025-02-11T12:57:18Z</time>
      </trkpt>
      <trkpt lat="47.81015" lon="-2.46775">
        <ele>88.6</ele>
        <time>2025-02-11T12:57:19Z</time>
      </trkpt>
      <trkpt lat="47.81015" lon="-2.46774">
        <ele>88.6</ele>
        <time>2025-02-11T12:57:20Z</time>
      </trkpt>
      <trkpt lat="47.81015" lon="-2.46772">
        <ele>88.6</ele>
        <time>2025-02-11T12:57:21Z</time>
      </trkpt>
      <trkpt lat="47.81015" lon="-2.46771">
        <ele>88.7</ele>
        <time>2025-02-11T12:57:22Z</time>
      </trkpt>
      <trkpt lat="47.81015" lon="-2.46769">
        <ele>88.7</ele>
        <time>2025-02-11T12:57:23Z</time>
      </trkpt>
      <trkpt lat="47.81015" lon="-2.46767">
        <ele>88.7</ele>
        <time>2025-02-11T12:57:24Z</time>
      </trkpt>
      <trkpt lat="47.81015" lon="-2.46765">
        <ele>88.8</ele>
        <time>2025-02-11T12:57:25Z</time>
      </trkpt>
      <trkpt lat="47.81015" lon="-2.46764">
        <ele>88.8</ele>
        <time>2025-02-11T12:57:26Z</time>
      </trkpt>
      <trkpt lat="47.81015" lon="-2.46762">
        <ele>88.8</ele>
        <time>2025-02-11T12:57:27Z</time>
      </trkpt>
      <trkpt lat="47.81015" lon="-2.46761">
        <ele>88.8</ele>
        <time>2025-02-11T12:57:28Z</time>
      </trkpt>
      <trkpt lat="47.81015" lon="-2.46759">
        <ele>88.9</ele>
        <time>2025-02-11T12:57:29Z</time>
      </trkpt>
      <trkpt lat="47.81015" lon="-2.46758">
        <ele>88.9</ele>
        <time>2025-02-11T12:57:30Z</time>
      </trkpt>
      <trkpt lat="47.81015" lon="-2.46756">
        <ele>89</ele>
        <time>2025-02-11T12:57:31Z</time>
      </trkpt>
      <trkpt lat="47.81014" lon="-2.46755">
        <ele>89</ele>
        <time>2025-02-11T12:57:32Z</time>
      </trkpt>
      <trkpt lat="47.81014" lon="-2.46753">
        <ele>89</ele>
        <time>2025-02-11T12:57:33Z</time>
      </trkpt>
      <trkpt lat="47.81014" lon="-2.46751">
        <ele>89</ele>
        <time>2025-02-11T12:57:34Z</time>
      </trkpt>
      <trkpt lat="47.81014" lon="-2.4675">
        <ele>89</ele>
        <time>2025-02-11T12:57:35Z</time>
      </trkpt>
      <trkpt lat="47.81015" lon="-2.46748">
        <ele>89.1</ele>
        <time>2025-02-11T12:57:36Z</time>
      </trkpt>
      <trkpt lat="47.81015" lon="-2.46747">
        <ele>89.1</ele>
        <time>2025-02-11T12:57:37Z</time>
      </trkpt>
      <trkpt lat="47.81015" lon="-2.46745">
        <ele>89.1</ele>
        <time>2025-02-11T12:57:38Z</time>
      </trkpt>
      <trkpt lat="47.81014" lon="-2.46743">
        <ele>89.1</ele>
        <time>2025-02-11T12:57:39Z</time>
      </trkpt>
      <trkpt lat="47.81014" lon="-2.46742">
        <ele>89.2</ele>
        <time>2025-02-11T12:57:40Z</time>
      </trkpt>
      <trkpt lat="47.81014" lon="-2.4674">
        <ele>89.2</ele>
        <time>2025-02-11T12:57:41Z</time>
      </trkpt>
      <trkpt lat="47.81014" lon="-2.46738">
        <ele>89.2</ele>
        <time>2025-02-11T12:57:42Z</time>
      </trkpt>
      <trkpt lat="47.81014" lon="-2.46737">
        <ele>89.3</ele>
        <time>2025-02-11T12:57:43Z</time>
      </trkpt>
      <trkpt lat="47.81015" lon="-2.46735">
        <ele>89.3</ele>
        <time>2025-02-11T12:57:44Z</time>
      </trkpt>
      <trkpt lat="47.81015" lon="-2.46733">
        <ele>89.3</ele>
        <time>2025-02-11T12:57:45Z</time>
      </trkpt>
      <trkpt lat="47.81015" lon="-2.46732">
        <ele>89.4</ele>
        <time>2025-02-11T12:57:46Z</time>
      </trkpt>
      <trkpt lat="47.81015" lon="-2.4673">
        <ele>89.4</ele>
        <time>2025-02-11T12:57:47Z</time>
      </trkpt>
      <trkpt lat="47.81015" lon="-2.46728">
        <ele>89.4</ele>
        <time>2025-02-11T12:57:48Z</time>
      </trkpt>
      <trkpt lat="47.81015" lon="-2.46727">
        <ele>89.4</ele>
        <time>2025-02-11T12:57:49Z</time>
      </trkpt>
      <trkpt lat="47.81014" lon="-2.46725">
        <ele>89.5</ele>
        <time>2025-02-11T12:57:50Z</time>
      </trkpt>
      <trkpt lat="47.81014" lon="-2.46723">
        <ele>89.5</ele>
        <time>2025-02-11T12:57:51Z</time>
      </trkpt>
      <trkpt lat="47.81014" lon="-2.46722">
        <ele>89.5</ele>
        <time>2025-02-11T12:57:52Z</time>
      </trkpt>
      <trkpt lat="47.81014" lon="-2.4672">
        <ele>89.5</ele>
        <time>2025-02-11T12:57:53Z</time>
      </trkpt>
      <trkpt lat="47.81014" lon="-2.46719">
        <ele>89.6</ele>
        <time>2025-02-11T12:57:54Z</time>
      </trkpt>
      <trkpt lat="47.81014" lon="-2.46717">
        <ele>89.6</ele>
        <time>2025-02-11T12:57:55Z</time>
      </trkpt>
      <trkpt lat="47.81014" lon="-2.46715">
        <ele>89.6</ele>
        <time>2025-02-11T12:57:56Z</time>
      </trkpt>
      <trkpt lat="47.81014" lon="-2.46714">
        <ele>89.6</ele>
        <time>2025-02-11T12:57:57Z</time>
      </trkpt>
      <trkpt lat="47.81013" lon="-2.46712">
        <ele>89.7</ele>
        <time>2025-02-11T12:57:58Z</time>
      </trkpt>
      <trkpt lat="47.81013" lon="-2.46711">
        <ele>89.7</ele>
        <time>2025-02-11T12:57:59Z</time>
      </trkpt>
      <trkpt lat="47.81013" lon="-2.46709">
        <ele>89.7</ele>
        <time>2025-02-11T12:58:00Z</time>
      </trkpt>
      <trkpt lat="47.81013" lon="-2.46708">
        <ele>89.7</ele>
        <time>2025-02-11T12:58:01Z</time>
      </trkpt>
      <trkpt lat="47.81014" lon="-2.46706">
        <ele>89.8</ele>
        <time>2025-02-11T12:58:02Z</time>
      </trkpt>
      <trkpt lat="47.81014" lon="-2.46704">
        <ele>89.8</ele>
        <time>2025-02-11T12:58:03Z</time>
      </trkpt>
      <trkpt lat="47.81014" lon="-2.46703">
        <ele>89.8</ele>
        <time>2025-02-11T12:58:04Z</time>
      </trkpt>
      <trkpt lat="47.81014" lon="-2.46701">
        <ele>89.9</ele>
        <time>2025-02-11T12:58:05Z</time>
      </trkpt>
      <trkpt lat="47.81014" lon="-2.467">
        <ele>89.9</ele>
        <time>2025-02-11T12:58:06Z</time>
      </trkpt>
      <trkpt lat="47.81014" lon="-2.46698">
        <ele>89.9</ele>
        <time>2025-02-11T12:58:07Z</time>
      </trkpt>
      <trkpt lat="47.81014" lon="-2.46696">
        <ele>90</ele>
        <time>2025-02-11T12:58:08Z</time>
      </trkpt>
      <trkpt lat="47.81014" lon="-2.46695">
        <ele>90</ele>
        <time>2025-02-11T12:58:09Z</time>
      </trkpt>
      <trkpt lat="47.81014" lon="-2.46693">
        <ele>90</ele>
        <time>2025-02-11T12:58:10Z</time>
      </trkpt>
      <trkpt lat="47.81014" lon="-2.46691">
        <ele>90</ele>
        <time>2025-02-11T12:58:11Z</time>
      </trkpt>
      <trkpt lat="47.81014" lon="-2.46689">
        <ele>90.1</ele>
        <time>2025-02-11T12:58:12Z</time>
      </trkpt>
      <trkpt lat="47.81014" lon="-2.46688">
        <ele>90.1</ele>
        <time>2025-02-11T12:58:13Z</time>
      </trkpt>
      <trkpt lat="47.81014" lon="-2.46686">
        <ele>90.2</ele>
        <time>2025-02-11T12:58:14Z</time>
      </trkpt>
      <trkpt lat="47.81014" lon="-2.46684">
        <ele>90.2</ele>
        <time>2025-02-11T12:58:15Z</time>
      </trkpt>
      <trkpt lat="47.81014" lon="-2.46682">
        <ele>90.2</ele>
        <time>2025-02-11T12:58:16Z</time>
      </trkpt>
      <trkpt lat="47.81014" lon="-2.46681">
        <ele>90.2</ele>
        <time>2025-02-11T12:58:17Z</time>
      </trkpt>
      <trkpt lat="47.81013" lon="-2.46679">
        <ele>90.3</ele>
        <time>2025-02-11T12:58:18Z</time>
      </trkpt>
      <trkpt lat="47.81013" lon="-2.46677">
        <ele>90.3</ele>
        <time>2025-02-11T12:58:19Z</time>
      </trkpt>
      <trkpt lat="47.81014" lon="-2.46675">
        <ele>90.3</ele>
        <time>2025-02-11T12:58:20Z</time>
      </trkpt>
      <trkpt lat="47.81014" lon="-2.46673">
        <ele>90.4</ele>
        <time>2025-02-11T12:58:21Z</time>
      </trkpt>
      <trkpt lat="47.81014" lon="-2.46671">
        <ele>90.4</ele>
        <time>2025-02-11T12:58:22Z</time>
      </trkpt>
      <trkpt lat="47.81014" lon="-2.46669">
        <ele>90.4</ele>
        <time>2025-02-11T12:58:23Z</time>
      </trkpt>
      <trkpt lat="47.81013" lon="-2.46668">
        <ele>90.5</ele>
        <time>2025-02-11T12:58:24Z</time>
      </trkpt>
      <trkpt lat="47.81013" lon="-2.46666">
        <ele>90.5</ele>
        <time>2025-02-11T12:58:25Z</time>
      </trkpt>
      <trkpt lat="47.81013" lon="-2.46664">
        <ele>90.6</ele>
        <time>2025-02-11T12:58:26Z</time>
      </trkpt>
      <trkpt lat="47.81013" lon="-2.46662">
        <ele>90.6</ele>
        <time>2025-02-11T12:58:27Z</time>
      </trkpt>
      <trkpt lat="47.81013" lon="-2.4666">
        <ele>90.7</ele>
        <time>2025-02-11T12:58:28Z</time>
      </trkpt>
      <trkpt lat="47.81013" lon="-2.46658">
        <ele>90.8</ele>
        <time>2025-02-11T12:58:29Z</time>
      </trkpt>
      <trkpt lat="47.81013" lon="-2.46657">
        <ele>90.8</ele>
        <time>2025-02-11T12:58:30Z</time>
      </trkpt>
      <trkpt lat="47.81013" lon="-2.46655">
        <ele>90.9</ele>
        <time>2025-02-11T12:58:31Z</time>
      </trkpt>
      <trkpt lat="47.81013" lon="-2.46653">
        <ele>90.9</ele>
        <time>2025-02-11T12:58:32Z</time>
      </trkpt>
      <trkpt lat="47.81012" lon="-2.46651">
        <ele>91</ele>
        <time>2025-02-11T12:58:33Z</time>
      </trkpt>
      <trkpt lat="47.81012" lon="-2.4665">
        <ele>91.1</ele>
        <time>2025-02-11T12:58:34Z</time>
      </trkpt>
      <trkpt lat="47.81012" lon="-2.46648">
        <ele>91.1</ele>
        <time>2025-02-11T12:58:35Z</time>
      </trkpt>
      <trkpt lat="47.81012" lon="-2.46646">
        <ele>91.2</ele>
        <time>2025-02-11T12:58:36Z</time>
      </trkpt>
      <trkpt lat="47.81013" lon="-2.46645">
        <ele>91.2</ele>
        <time>2025-02-11T12:58:37Z</time>
      </trkpt>
      <trkpt lat="47.81012" lon="-2.46643">
        <ele>91.3</ele>
        <time>2025-02-11T12:58:38Z</time>
      </trkpt>
      <trkpt lat="47.81012" lon="-2.46642">
        <ele>91.3</ele>
        <time>2025-02-11T12:58:39Z</time>
      </trkpt>
      <trkpt lat="47.81013" lon="-2.46641">
        <ele>91.4</ele>
        <time>2025-02-11T12:58:40Z</time>
      </trkpt>
      <trkpt lat="47.81013" lon="-2.46639">
        <ele>91.4</ele>
        <time>2025-02-11T12:58:41Z</time>
      </trkpt>
      <trkpt lat="47.81013" lon="-2.46638">
        <ele>91.5</ele>
        <time>2025-02-11T12:58:42Z</time>
      </trkpt>
      <trkpt lat="47.81013" lon="-2.46636">
        <ele>91.5</ele>
        <time>2025-02-11T12:58:43Z</time>
      </trkpt>
      <trkpt lat="47.81013" lon="-2.46635">
        <ele>91.5</ele>
        <time>2025-02-11T12:58:44Z</time>
      </trkpt>
      <trkpt lat="47.81013" lon="-2.46633">
        <ele>91.5</ele>
        <time>2025-02-11T12:58:45Z</time>
      </trkpt>
      <trkpt lat="47.81012" lon="-2.46632">
        <ele>91.4</ele>
        <time>2025-02-11T12:58:46Z</time>
      </trkpt>
      <trkpt lat="47.81012" lon="-2.4663">
        <ele>91.4</ele>
        <time>2025-02-11T12:58:47Z</time>
      </trkpt>
      <trkpt lat="47.81012" lon="-2.46628">
        <ele>91.4</ele>
        <time>2025-02-11T12:58:48Z</time>
      </trkpt>
      <trkpt lat="47.81012" lon="-2.46627">
        <ele>91.4</ele>
        <time>2025-02-11T12:58:49Z</time>
      </trkpt>
      <trkpt lat="47.81012" lon="-2.46625">
        <ele>91.4</ele>
        <time>2025-02-11T12:58:50Z</time>
      </trkpt>
      <trkpt lat="47.81012" lon="-2.46624">
        <ele>91.4</ele>
        <time>2025-02-11T12:58:51Z</time>
      </trkpt>
      <trkpt lat="47.81012" lon="-2.46622">
        <ele>91.4</ele>
        <time>2025-02-11T12:58:52Z</time>
      </trkpt>
      <trkpt lat="47.81012" lon="-2.4662">
        <ele>91.4</ele>
        <time>2025-02-11T12:58:53Z</time>
      </trkpt>
      <trkpt lat="47.81012" lon="-2.46618">
        <ele>91.4</ele>
        <time>2025-02-11T12:58:54Z</time>
      </trkpt>
      <trkpt lat="47.81012" lon="-2.46616">
        <ele>91.4</ele>
        <time>2025-02-11T12:58:55Z</time>
      </trkpt>
      <trkpt lat="47.81012" lon="-2.46614">
        <ele>91.4</ele>
        <time>2025-02-11T12:58:56Z</time>
      </trkpt>
      <trkpt lat="47.81012" lon="-2.46613">
        <ele>91.4</ele>
        <time>2025-02-11T12:58:57Z</time>
      </trkpt>
      <trkpt lat="47.81012" lon="-2.46611">
        <ele>91.5</ele>
        <time>2025-02-11T12:58:58Z</time>
      </trkpt>
      <trkpt lat="47.81012" lon="-2.46608">
        <ele>91.5</ele>
        <time>2025-02-11T12:58:59Z</time>
      </trkpt>
      <trkpt lat="47.81012" lon="-2.46607">
        <ele>91.6</ele>
        <time>2025-02-11T12:59:00Z</time>
      </trkpt>
      <trkpt lat="47.81012" lon="-2.46604">
        <ele>91.7</ele>
        <time>2025-02-11T12:59:01Z</time>
      </trkpt>
      <trkpt lat="47.81011" lon="-2.46602">
        <ele>91.7</ele>
        <time>2025-02-11T12:59:02Z</time>
      </trkpt>
      <trkpt lat="47.8101" lon="-2.466">
        <ele>91.7</ele>
        <time>2025-02-11T12:59:03Z</time>
      </trkpt>
      <trkpt lat="47.81009" lon="-2.466">
        <ele>91.7</ele>
        <time>2025-02-11T12:59:04Z</time>
      </trkpt>
      <trkpt lat="47.81009" lon="-2.46598">
        <ele>91.8</ele>
        <time>2025-02-11T12:59:05Z</time>
      </trkpt>
      <trkpt lat="47.81009" lon="-2.46597">
        <ele>91.9</ele>
        <time>2025-02-11T12:59:06Z</time>
      </trkpt>
      <trkpt lat="47.81008" lon="-2.46595">
        <ele>91.9</ele>
        <time>2025-02-11T12:59:07Z</time>
      </trkpt>
      <trkpt lat="47.81008" lon="-2.46593">
        <ele>91.9</ele>
        <time>2025-02-11T12:59:08Z</time>
      </trkpt>
      <trkpt lat="47.81007" lon="-2.46591">
        <ele>92</ele>
        <time>2025-02-11T12:59:09Z</time>
      </trkpt>
      <trkpt lat="47.81007" lon="-2.4659">
        <ele>92</ele>
        <time>2025-02-11T12:59:10Z</time>
      </trkpt>
      <trkpt lat="47.81006" lon="-2.46588">
        <ele>92.1</ele>
        <time>2025-02-11T12:59:11Z</time>
      </trkpt>
      <trkpt lat="47.81007" lon="-2.46586">
        <ele>92.1</ele>
        <time>2025-02-11T12:59:12Z</time>
      </trkpt>
      <trkpt lat="47.81007" lon="-2.46585">
        <ele>92.2</ele>
        <time>2025-02-11T12:59:13Z</time>
      </trkpt>
      <trkpt lat="47.81007" lon="-2.46583">
        <ele>92.3</ele>
        <time>2025-02-11T12:59:14Z</time>
      </trkpt>
      <trkpt lat="47.81007" lon="-2.46582">
        <ele>92.3</ele>
        <time>2025-02-11T12:59:15Z</time>
      </trkpt>
      <trkpt lat="47.81006" lon="-2.4658">
        <ele>92.3</ele>
        <time>2025-02-11T12:59:16Z</time>
      </trkpt>
      <trkpt lat="47.81006" lon="-2.46579">
        <ele>92.4</ele>
        <time>2025-02-11T12:59:17Z</time>
      </trkpt>
      <trkpt lat="47.81005" lon="-2.46578">
        <ele>92.4</ele>
        <time>2025-02-11T12:59:18Z</time>
      </trkpt>
      <trkpt lat="47.81005" lon="-2.46577">
        <ele>92.4</ele>
        <time>2025-02-11T12:59:19Z</time>
      </trkpt>
      <trkpt lat="47.81004" lon="-2.46575">
        <ele>92.4</ele>
        <time>2025-02-11T12:59:20Z</time>
      </trkpt>
      <trkpt lat="47.81004" lon="-2.46574">
        <ele>92.5</ele>
        <time>2025-02-11T12:59:21Z</time>
      </trkpt>
      <trkpt lat="47.81003" lon="-2.46573">
        <ele>92.5</ele>
        <time>2025-02-11T12:59:22Z</time>
      </trkpt>
      <trkpt lat="47.81003" lon="-2.46571">
        <ele>92.6</ele>
        <time>2025-02-11T12:59:23Z</time>
      </trkpt>
      <trkpt lat="47.81002" lon="-2.4657">
        <ele>92.6</ele>
        <time>2025-02-11T12:59:24Z</time>
      </trkpt>
      <trkpt lat="47.81002" lon="-2.46568">
        <ele>92.6</ele>
        <time>2025-02-11T12:59:25Z</time>
      </trkpt>
      <trkpt lat="47.81002" lon="-2.46566">
        <ele>92.7</ele>
        <time>2025-02-11T12:59:26Z</time>
      </trkpt>
      <trkpt lat="47.81001" lon="-2.46564">
        <ele>92.7</ele>
        <time>2025-02-11T12:59:27Z</time>
      </trkpt>
      <trkpt lat="47.81" lon="-2.46562">
        <ele>92.8</ele>
        <time>2025-02-11T12:59:28Z</time>
      </trkpt>
      <trkpt lat="47.80999" lon="-2.4656">
        <ele>92.8</ele>
        <time>2025-02-11T12:59:29Z</time>
      </trkpt>
      <trkpt lat="47.80998" lon="-2.46559">
        <ele>92.9</ele>
        <time>2025-02-11T12:59:30Z</time>
      </trkpt>
      <trkpt lat="47.80998" lon="-2.46558">
        <ele>92.9</ele>
        <time>2025-02-11T12:59:31Z</time>
      </trkpt>
      <trkpt lat="47.80997" lon="-2.46556">
        <ele>93</ele>
        <time>2025-02-11T12:59:32Z</time>
      </trkpt>
      <trkpt lat="47.80996" lon="-2.46555">
        <ele>93</ele>
        <time>2025-02-11T12:59:33Z</time>
      </trkpt>
      <trkpt lat="47.80995" lon="-2.46554">
        <ele>93</ele>
        <time>2025-02-11T12:59:34Z</time>
      </trkpt>
      <trkpt lat="47.80995" lon="-2.46552">
        <ele>93</ele>
        <time>2025-02-11T12:59:35Z</time>
      </trkpt>
      <trkpt lat="47.80994" lon="-2.46551">
        <ele>93</ele>
        <time>2025-02-11T12:59:36Z</time>
      </trkpt>
      <trkpt lat="47.80994" lon="-2.46549">
        <ele>93.1</ele>
        <time>2025-02-11T12:59:37Z</time>
      </trkpt>
      <trkpt lat="47.80994" lon="-2.46547">
        <ele>93.1</ele>
        <time>2025-02-11T12:59:38Z</time>
      </trkpt>
      <trkpt lat="47.80994" lon="-2.46546">
        <ele>93.1</ele>
        <time>2025-02-11T12:59:39Z</time>
      </trkpt>
      <trkpt lat="47.80993" lon="-2.46545">
        <ele>93.1</ele>
        <time>2025-02-11T12:59:40Z</time>
      </trkpt>
      <trkpt lat="47.80992" lon="-2.46543">
        <ele>93.1</ele>
        <time>2025-02-11T12:59:41Z</time>
      </trkpt>
      <trkpt lat="47.80992" lon="-2.46542">
        <ele>93.1</ele>
        <time>2025-02-11T12:59:42Z</time>
      </trkpt>
      <trkpt lat="47.80991" lon="-2.4654">
        <ele>93.2</ele>
        <time>2025-02-11T12:59:43Z</time>
      </trkpt>
      <trkpt lat="47.80991" lon="-2.46539">
        <ele>93.2</ele>
        <time>2025-02-11T12:59:44Z</time>
      </trkpt>
      <trkpt lat="47.8099" lon="-2.46537">
        <ele>93.2</ele>
        <time>2025-02-11T12:59:45Z</time>
      </trkpt>
      <trkpt lat="47.8099" lon="-2.46536">
        <ele>93.3</ele>
        <time>2025-02-11T12:59:46Z</time>
      </trkpt>
      <trkpt lat="47.80989" lon="-2.46534">
        <ele>93.3</ele>
        <time>2025-02-11T12:59:47Z</time>
      </trkpt>
      <trkpt lat="47.80989" lon="-2.46533">
        <ele>93.3</ele>
        <time>2025-02-11T12:59:48Z</time>
      </trkpt>
      <trkpt lat="47.80988" lon="-2.46531">
        <ele>93.4</ele>
        <time>2025-02-11T12:59:49Z</time>
      </trkpt>
      <trkpt lat="47.80988" lon="-2.46529">
        <ele>93.4</ele>
        <time>2025-02-11T12:59:50Z</time>
      </trkpt>
      <trkpt lat="47.80987" lon="-2.46528">
        <ele>93.5</ele>
        <time>2025-02-11T12:59:51Z</time>
      </trkpt>
      <trkpt lat="47.80987" lon="-2.46526">
        <ele>93.5</ele>
        <time>2025-02-11T12:59:52Z</time>
      </trkpt>
      <trkpt lat="47.80986" lon="-2.46524">
        <ele>93.6</ele>
        <time>2025-02-11T12:59:53Z</time>
      </trkpt>
      <trkpt lat="47.80985" lon="-2.46522">
        <ele>93.6</ele>
        <time>2025-02-11T12:59:54Z</time>
      </trkpt>
      <trkpt lat="47.80985" lon="-2.4652">
        <ele>93.7</ele>
        <time>2025-02-11T12:59:55Z</time>
      </trkpt>
      <trkpt lat="47.80984" lon="-2.46519">
        <ele>93.7</ele>
        <time>2025-02-11T12:59:56Z</time>
      </trkpt>
      <trkpt lat="47.80984" lon="-2.46517">
        <ele>93.7</ele>
        <time>2025-02-11T12:59:57Z</time>
      </trkpt>
      <trkpt lat="47.80984" lon="-2.46515">
        <ele>93.8</ele>
        <time>2025-02-11T12:59:58Z</time>
      </trkpt>
      <trkpt lat="47.80983" lon="-2.46514">
        <ele>93.8</ele>
        <time>2025-02-11T12:59:59Z</time>
      </trkpt>
      <trkpt lat="47.80983" lon="-2.46512">
        <ele>93.8</ele>
        <time>2025-02-11T13:00:00Z</time>
      </trkpt>
      <trkpt lat="47.80983" lon="-2.4651">
        <ele>93.9</ele>
        <time>2025-02-11T13:00:01Z</time>
      </trkpt>
      <trkpt lat="47.80982" lon="-2.46509">
        <ele>93.9</ele>
        <time>2025-02-11T13:00:02Z</time>
      </trkpt>
      <trkpt lat="47.80982" lon="-2.46507">
        <ele>93.9</ele>
        <time>2025-02-11T13:00:03Z</time>
      </trkpt>
      <trkpt lat="47.80981" lon="-2.46505">
        <ele>93.9</ele>
        <time>2025-02-11T13:00:04Z</time>
      </trkpt>
      <trkpt lat="47.80981" lon="-2.46504">
        <ele>94</ele>
        <time>2025-02-11T13:00:05Z</time>
      </trkpt>
      <trkpt lat="47.80981" lon="-2.46502">
        <ele>94</ele>
        <time>2025-02-11T13:00:06Z</time>
      </trkpt>
      <trkpt lat="47.8098" lon="-2.46501">
        <ele>94</ele>
        <time>2025-02-11T13:00:07Z</time>
      </trkpt>
      <trkpt lat="47.8098" lon="-2.46499">
        <ele>94</ele>
        <time>2025-02-11T13:00:08Z</time>
      </trkpt>
      <trkpt lat="47.8098" lon="-2.46497">
        <ele>94</ele>
        <time>2025-02-11T13:00:09Z</time>
      </trkpt>
      <trkpt lat="47.8098" lon="-2.46496">
        <ele>94</ele>
        <time>2025-02-11T13:00:10Z</time>
      </trkpt>
      <trkpt lat="47.80979" lon="-2.46494">
        <ele>94.1</ele>
        <time>2025-02-11T13:00:11Z</time>
      </trkpt>
      <trkpt lat="47.80979" lon="-2.46492">
        <ele>94.1</ele>
        <time>2025-02-11T13:00:12Z</time>
      </trkpt>
      <trkpt lat="47.80978" lon="-2.4649">
        <ele>94.1</ele>
        <time>2025-02-11T13:00:13Z</time>
      </trkpt>
      <trkpt lat="47.80977" lon="-2.46488">
        <ele>94.1</ele>
        <time>2025-02-11T13:00:14Z</time>
      </trkpt>
      <trkpt lat="47.80977" lon="-2.46486">
        <ele>94.1</ele>
        <time>2025-02-11T13:00:15Z</time>
      </trkpt>
      <trkpt lat="47.80977" lon="-2.46484">
        <ele>94.1</ele>
        <time>2025-02-11T13:00:16Z</time>
      </trkpt>
      <trkpt lat="47.80977" lon="-2.46482">
        <ele>94.1</ele>
        <time>2025-02-11T13:00:17Z</time>
      </trkpt>
      <trkpt lat="47.80977" lon="-2.4648">
        <ele>94.1</ele>
        <time>2025-02-11T13:00:18Z</time>
      </trkpt>
      <trkpt lat="47.80977" lon="-2.46478">
        <ele>94.1</ele>
        <time>2025-02-11T13:00:19Z</time>
      </trkpt>
      <trkpt lat="47.80976" lon="-2.46476">
        <ele>94.1</ele>
        <time>2025-02-11T13:00:20Z</time>
      </trkpt>
      <trkpt lat="47.80976" lon="-2.46475">
        <ele>94.1</ele>
        <time>2025-02-11T13:00:21Z</time>
      </trkpt>
      <trkpt lat="47.80975" lon="-2.46473">
        <ele>94.1</ele>
        <time>2025-02-11T13:00:22Z</time>
      </trkpt>
      <trkpt lat="47.80975" lon="-2.46471">
        <ele>94.1</ele>
        <time>2025-02-11T13:00:23Z</time>
      </trkpt>
      <trkpt lat="47.80975" lon="-2.46469">
        <ele>94.2</ele>
        <time>2025-02-11T13:00:24Z</time>
      </trkpt>
      <trkpt lat="47.80975" lon="-2.46467">
        <ele>94.3</ele>
        <time>2025-02-11T13:00:25Z</time>
      </trkpt>
      <trkpt lat="47.80974" lon="-2.46466">
        <ele>94.3</ele>
        <time>2025-02-11T13:00:26Z</time>
      </trkpt>
      <trkpt lat="47.80974" lon="-2.46464">
        <ele>94.4</ele>
        <time>2025-02-11T13:00:27Z</time>
      </trkpt>
      <trkpt lat="47.80974" lon="-2.46462">
        <ele>94.4</ele>
        <time>2025-02-11T13:00:28Z</time>
      </trkpt>
      <trkpt lat="47.80973" lon="-2.46461">
        <ele>94.5</ele>
        <time>2025-02-11T13:00:29Z</time>
      </trkpt>
      <trkpt lat="47.80973" lon="-2.46459">
        <ele>94.5</ele>
        <time>2025-02-11T13:00:30Z</time>
      </trkpt>
      <trkpt lat="47.80973" lon="-2.46457">
        <ele>94.6</ele>
        <time>2025-02-11T13:00:31Z</time>
      </trkpt>
      <trkpt lat="47.80973" lon="-2.46456">
        <ele>94.6</ele>
        <time>2025-02-11T13:00:32Z</time>
      </trkpt>
      <trkpt lat="47.80973" lon="-2.46454">
        <ele>94.7</ele>
        <time>2025-02-11T13:00:33Z</time>
      </trkpt>
      <trkpt lat="47.80973" lon="-2.46452">
        <ele>94.7</ele>
        <time>2025-02-11T13:00:34Z</time>
      </trkpt>
      <trkpt lat="47.80973" lon="-2.4645">
        <ele>94.8</ele>
        <time>2025-02-11T13:00:35Z</time>
      </trkpt>
      <trkpt lat="47.80973" lon="-2.46448">
        <ele>94.9</ele>
        <time>2025-02-11T13:00:36Z</time>
      </trkpt>
      <trkpt lat="47.80973" lon="-2.46446">
        <ele>94.9</ele>
        <time>2025-02-11T13:00:37Z</time>
      </trkpt>
      <trkpt lat="47.80972" lon="-2.46444">
        <ele>95</ele>
        <time>2025-02-11T13:00:38Z</time>
      </trkpt>
      <trkpt lat="47.80972" lon="-2.46443">
        <ele>95.1</ele>
        <time>2025-02-11T13:00:39Z</time>
      </trkpt>
      <trkpt lat="47.80972" lon="-2.46441">
        <ele>95.1</ele>
        <time>2025-02-11T13:00:40Z</time>
      </trkpt>
      <trkpt lat="47.80972" lon="-2.46439">
        <ele>95.2</ele>
        <time>2025-02-11T13:00:41Z</time>
      </trkpt>
      <trkpt lat="47.80972" lon="-2.46438">
        <ele>95.2</ele>
        <time>2025-02-11T13:00:42Z</time>
      </trkpt>
      <trkpt lat="47.80972" lon="-2.46436">
        <ele>95.3</ele>
        <time>2025-02-11T13:00:43Z</time>
      </trkpt>
      <trkpt lat="47.80972" lon="-2.46434">
        <ele>95.4</ele>
        <time>2025-02-11T13:00:44Z</time>
      </trkpt>
      <trkpt lat="47.80972" lon="-2.46432">
        <ele>95.5</ele>
        <time>2025-02-11T13:00:45Z</time>
      </trkpt>
      <trkpt lat="47.80973" lon="-2.4643">
        <ele>95.5</ele>
        <time>2025-02-11T13:00:46Z</time>
      </trkpt>
      <trkpt lat="47.80973" lon="-2.46428">
        <ele>95.6</ele>
        <time>2025-02-11T13:00:47Z</time>
      </trkpt>
      <trkpt lat="47.80973" lon="-2.46426">
        <ele>95.7</ele>
        <time>2025-02-11T13:00:48Z</time>
      </trkpt>
      <trkpt lat="47.80973" lon="-2.46424">
        <ele>95.8</ele>
        <time>2025-02-11T13:00:49Z</time>
      </trkpt>
      <trkpt lat="47.80973" lon="-2.46422">
        <ele>95.8</ele>
        <time>2025-02-11T13:00:50Z</time>
      </trkpt>
      <trkpt lat="47.80974" lon="-2.46421">
        <ele>95.9</ele>
        <time>2025-02-11T13:00:51Z</time>
      </trkpt>
      <trkpt lat="47.80973" lon="-2.46419">
        <ele>96</ele>
        <time>2025-02-11T13:00:52Z</time>
      </trkpt>
      <trkpt lat="47.80974" lon="-2.46417">
        <ele>96</ele>
        <time>2025-02-11T13:00:53Z</time>
      </trkpt>
      <trkpt lat="47.80974" lon="-2.46415">
        <ele>96</ele>
        <time>2025-02-11T13:00:54Z</time>
      </trkpt>
      <trkpt lat="47.80974" lon="-2.46414">
        <ele>96.1</ele>
        <time>2025-02-11T13:00:55Z</time>
      </trkpt>
      <trkpt lat="47.80974" lon="-2.46412">
        <ele>96.1</ele>
        <time>2025-02-11T13:00:56Z</time>
      </trkpt>
      <trkpt lat="47.80974" lon="-2.46411">
        <ele>96.1</ele>
        <time>2025-02-11T13:00:57Z</time>
      </trkpt>
      <trkpt lat="47.80974" lon="-2.46409">
        <ele>96</ele>
        <time>2025-02-11T13:00:58Z</time>
      </trkpt>
      <trkpt lat="47.80973" lon="-2.46408">
        <ele>96</ele>
        <time>2025-02-11T13:00:59Z</time>
      </trkpt>
      <trkpt lat="47.80973" lon="-2.46407">
        <ele>96</ele>
        <time>2025-02-11T13:01:00Z</time>
      </trkpt>
      <trkpt lat="47.80972" lon="-2.46405">
        <ele>96</ele>
        <time>2025-02-11T13:01:01Z</time>
      </trkpt>
      <trkpt lat="47.80972" lon="-2.46404">
        <ele>96</ele>
        <time>2025-02-11T13:01:02Z</time>
      </trkpt>
      <trkpt lat="47.80972" lon="-2.46403">
        <ele>96</ele>
        <time>2025-02-11T13:01:03Z</time>
      </trkpt>
      <trkpt lat="47.80971" lon="-2.46403">
        <ele>96</ele>
        <time>2025-02-11T13:01:04Z</time>
      </trkpt>
      <trkpt lat="47.8097" lon="-2.46403">
        <ele>96</ele>
        <time>2025-02-11T13:01:05Z</time>
      </trkpt>
      <trkpt lat="47.8097" lon="-2.46403">
        <ele>96</ele>
        <time>2025-02-11T13:01:06Z</time>
      </trkpt>
      <trkpt lat="47.80969" lon="-2.46403">
        <ele>95.9</ele>
        <time>2025-02-11T13:01:07Z</time>
      </trkpt>
      <trkpt lat="47.80969" lon="-2.46403">
        <ele>95.9</ele>
        <time>2025-02-11T13:01:08Z</time>
      </trkpt>
      <trkpt lat="47.80969" lon="-2.46403">
        <ele>95.9</ele>
        <time>2025-02-11T13:01:09Z</time>
      </trkpt>
      <trkpt lat="47.80969" lon="-2.46403">
        <ele>95.9</ele>
        <time>2025-02-11T13:01:10Z</time>
      </trkpt>
      <trkpt lat="47.80969" lon="-2.46404">
        <ele>95.9</ele>
        <time>2025-02-11T13:01:11Z</time>
      </trkpt>
      <trkpt lat="47.80969" lon="-2.46404">
        <ele>95.9</ele>
        <time>2025-02-11T13:01:12Z</time>
      </trkpt>
      <trkpt lat="47.80969" lon="-2.46405">
        <ele>95.9</ele>
        <time>2025-02-11T13:01:13Z</time>
      </trkpt>
      <trkpt lat="47.80969" lon="-2.46405">
        <ele>95.9</ele>
        <time>2025-02-11T13:01:14Z</time>
      </trkpt>
      <trkpt lat="47.80969" lon="-2.46405">
        <ele>95.9</ele>
        <time>2025-02-11T13:01:15Z</time>
      </trkpt>
      <trkpt lat="47.80969" lon="-2.46405">
        <ele>95.9</ele>
        <time>2025-02-11T13:01:16Z</time>
      </trkpt>
      <trkpt lat="47.80969" lon="-2.46405">
        <ele>95.9</ele>
        <time>2025-02-11T13:01:17Z</time>
      </trkpt>
      <trkpt lat="47.80969" lon="-2.46405">
        <ele>95.9</ele>
        <time>2025-02-11T13:01:18Z</time>
      </trkpt>
      <trkpt lat="47.80969" lon="-2.46405">
        <ele>95.9</ele>
        <time>2025-02-11T13:01:19Z</time>
      </trkpt>
      <trkpt lat="47.80969" lon="-2.46405">
        <ele>95.9</ele>
        <time>2025-02-11T13:01:20Z</time>
      </trkpt>
      <trkpt lat="47.80969" lon="-2.46405">
        <ele>95.9</ele>
        <time>2025-02-11T13:01:21Z</time>
      </trkpt>
      <trkpt lat="47.80969" lon="-2.46405">
        <ele>95.9</ele>
        <time>2025-02-11T13:01:22Z</time>
      </trkpt>
      <trkpt lat="47.80969" lon="-2.46405">
        <ele>95.9</ele>
        <time>2025-02-11T13:01:23Z</time>
      </trkpt>
      <trkpt lat="47.80969" lon="-2.46405">
        <ele>95.9</ele>
        <time>2025-02-11T13:01:24Z</time>
      </trkpt>
      <trkpt lat="47.80969" lon="-2.46404">
        <ele>95.9</ele>
        <time>2025-02-11T13:01:25Z</time>
      </trkpt>
      <trkpt lat="47.80969" lon="-2.46404">
        <ele>95.9</ele>
        <time>2025-02-11T13:01:26Z</time>
      </trkpt>
      <trkpt lat="47.80969" lon="-2.46405">
        <ele>95.9</ele>
        <time>2025-02-11T13:01:27Z</time>
      </trkpt>
      <trkpt lat="47.80968" lon="-2.46405">
        <ele>95.9</ele>
        <time>2025-02-11T13:01:28Z</time>
      </trkpt>
      <trkpt lat="47.80968" lon="-2.46405">
        <ele>95.9</ele>
        <time>2025-02-11T13:01:29Z</time>
      </trkpt>
      <trkpt lat="47.80968" lon="-2.46405">
        <ele>95.9</ele>
        <time>2025-02-11T13:01:30Z</time>
      </trkpt>
      <trkpt lat="47.80967" lon="-2.46406">
        <ele>95.9</ele>
        <time>2025-02-11T13:01:31Z</time>
      </trkpt>
      <trkpt lat="47.80966" lon="-2.46407">
        <ele>95.9</ele>
        <time>2025-02-11T13:01:32Z</time>
      </trkpt>
      <trkpt lat="47.80967" lon="-2.46408">
        <ele>95.9</ele>
        <time>2025-02-11T13:01:33Z</time>
      </trkpt>
      <trkpt lat="47.80967" lon="-2.46409">
        <ele>95.9</ele>
        <time>2025-02-11T13:01:34Z</time>
      </trkpt>
      <trkpt lat="47.80966" lon="-2.46411">
        <ele>95.8</ele>
        <time>2025-02-11T13:01:35Z</time>
      </trkpt>
      <trkpt lat="47.80966" lon="-2.46412">
        <ele>95.8</ele>
        <time>2025-02-11T13:01:36Z</time>
      </trkpt>
      <trkpt lat="47.80966" lon="-2.46413">
        <ele>95.8</ele>
        <time>2025-02-11T13:01:37Z</time>
      </trkpt>
      <trkpt lat="47.80965" lon="-2.46414">
        <ele>95.8</ele>
        <time>2025-02-11T13:01:38Z</time>
      </trkpt>
      <trkpt lat="47.80964" lon="-2.46414">
        <ele>95.7</ele>
        <time>2025-02-11T13:01:39Z</time>
      </trkpt>
      <trkpt lat="47.80963" lon="-2.46415">
        <ele>95.7</ele>
        <time>2025-02-11T13:01:40Z</time>
      </trkpt>
      <trkpt lat="47.80962" lon="-2.46415">
        <ele>95.6</ele>
        <time>2025-02-11T13:01:41Z</time>
      </trkpt>
      <trkpt lat="47.80961" lon="-2.46416">
        <ele>95.6</ele>
        <time>2025-02-11T13:01:42Z</time>
      </trkpt>
      <trkpt lat="47.8096" lon="-2.46415">
        <ele>95.6</ele>
        <time>2025-02-11T13:01:43Z</time>
      </trkpt>
      <trkpt lat="47.80959" lon="-2.46415">
        <ele>95.6</ele>
        <time>2025-02-11T13:01:44Z</time>
      </trkpt>
      <trkpt lat="47.80958" lon="-2.46415">
        <ele>95.5</ele>
        <time>2025-02-11T13:01:45Z</time>
      </trkpt>
      <trkpt lat="47.80957" lon="-2.46416">
        <ele>95.4</ele>
        <time>2025-02-11T13:01:46Z</time>
      </trkpt>
      <trkpt lat="47.80956" lon="-2.46419">
        <ele>95.4</ele>
        <time>2025-02-11T13:01:47Z</time>
      </trkpt>
      <trkpt lat="47.80954" lon="-2.46421">
        <ele>95.3</ele>
        <time>2025-02-11T13:01:48Z</time>
      </trkpt>
      <trkpt lat="47.80953" lon="-2.46422">
        <ele>95.2</ele>
        <time>2025-02-11T13:01:49Z</time>
      </trkpt>
      <trkpt lat="47.80951" lon="-2.46423">
        <ele>95.2</ele>
        <time>2025-02-11T13:01:50Z</time>
      </trkpt>
      <trkpt lat="47.8095" lon="-2.46423">
        <ele>95.2</ele>
        <time>2025-02-11T13:01:51Z</time>
      </trkpt>
      <trkpt lat="47.80949" lon="-2.46423">
        <ele>95.1</ele>
        <time>2025-02-11T13:01:52Z</time>
      </trkpt>
      <trkpt lat="47.80948" lon="-2.46425">
        <ele>95.1</ele>
        <time>2025-02-11T13:01:53Z</time>
      </trkpt>
      <trkpt lat="47.80948" lon="-2.46426">
        <ele>95.1</ele>
        <time>2025-02-11T13:01:54Z</time>
      </trkpt>
      <trkpt lat="47.80947" lon="-2.46427">
        <ele>95</ele>
        <time>2025-02-11T13:01:55Z</time>
      </trkpt>
      <trkpt lat="47.80946" lon="-2.46428">
        <ele>95</ele>
        <time>2025-02-11T13:01:56Z</time>
      </trkpt>
      <trkpt lat="47.80947" lon="-2.46425">
        <ele>95.1</ele>
        <time>2025-02-11T13:01:57Z</time>
      </trkpt>
      <trkpt lat="47.80945" lon="-2.46425">
        <ele>95</ele>
        <time>2025-02-11T13:01:58Z</time>
      </trkpt>
      <trkpt lat="47.80944" lon="-2.46425">
        <ele>95</ele>
        <time>2025-02-11T13:01:59Z</time>
      </trkpt>
      <trkpt lat="47.80946" lon="-2.46423">
        <ele>95</ele>
        <time>2025-02-11T13:02:00Z</time>
      </trkpt>
      <trkpt lat="47.80946" lon="-2.46422">
        <ele>95.1</ele>
        <time>2025-02-11T13:02:01Z</time>
      </trkpt>
      <trkpt lat="47.80947" lon="-2.46422">
        <ele>95.1</ele>
        <time>2025-02-11T13:02:02Z</time>
      </trkpt>
      <trkpt lat="47.80947" lon="-2.46422">
        <ele>95.1</ele>
        <time>2025-02-11T13:02:03Z</time>
      </trkpt>
      <trkpt lat="47.80947" lon="-2.46422">
        <ele>95.1</ele>
        <time>2025-02-11T13:02:04Z</time>
      </trkpt>
      <trkpt lat="47.80947" lon="-2.46422">
        <ele>95.1</ele>
        <time>2025-02-11T13:02:05Z</time>
      </trkpt>
      <trkpt lat="47.80947" lon="-2.46422">
        <ele>95.1</ele>
        <time>2025-02-11T13:02:06Z</time>
      </trkpt>
      <trkpt lat="47.80947" lon="-2.46422">
        <ele>95.1</ele>
        <time>2025-02-11T13:02:07Z</time>
      </trkpt>
      <trkpt lat="47.80948" lon="-2.46422">
        <ele>95.1</ele>
        <time>2025-02-11T13:02:08Z</time>
      </trkpt>
      <trkpt lat="47.80949" lon="-2.46422">
        <ele>95.1</ele>
        <time>2025-02-11T13:02:09Z</time>
      </trkpt>
      <trkpt lat="47.80951" lon="-2.4642">
        <ele>95.2</ele>
        <time>2025-02-11T13:02:10Z</time>
      </trkpt>
      <trkpt lat="47.80952" lon="-2.46419">
        <ele>95.3</ele>
        <time>2025-02-11T13:02:11Z</time>
      </trkpt>
      <trkpt lat="47.80953" lon="-2.46417">
        <ele>95.3</ele>
        <time>2025-02-11T13:02:12Z</time>
      </trkpt>
      <trkpt lat="47.80954" lon="-2.46416">
        <ele>95.3</ele>
        <time>2025-02-11T13:02:13Z</time>
      </trkpt>
      <trkpt lat="47.80953" lon="-2.46415">
        <ele>95.4</ele>
        <time>2025-02-11T13:02:14Z</time>
      </trkpt>
      <trkpt lat="47.80952" lon="-2.46413">
        <ele>95.4</ele>
        <time>2025-02-11T13:02:15Z</time>
      </trkpt>
      <trkpt lat="47.80951" lon="-2.46411">
        <ele>95.4</ele>
        <time>2025-02-11T13:02:16Z</time>
      </trkpt>
      <trkpt lat="47.8095" lon="-2.46409">
        <ele>95.4</ele>
        <time>2025-02-11T13:02:17Z</time>
      </trkpt>
      <trkpt lat="47.8095" lon="-2.46408">
        <ele>95.4</ele>
        <time>2025-02-11T13:02:18Z</time>
      </trkpt>
      <trkpt lat="47.80948" lon="-2.46406">
        <ele>95.5</ele>
        <time>2025-02-11T13:02:19Z</time>
      </trkpt>
      <trkpt lat="47.80948" lon="-2.46405">
        <ele>95.5</ele>
        <time>2025-02-11T13:02:20Z</time>
      </trkpt>
      <trkpt lat="47.80947" lon="-2.46403">
        <ele>95.5</ele>
        <time>2025-02-11T13:02:21Z</time>
      </trkpt>
      <trkpt lat="47.80947" lon="-2.46402">
        <ele>95.6</ele>
        <time>2025-02-11T13:02:22Z</time>
      </trkpt>
      <trkpt lat="47.80947" lon="-2.464">
        <ele>95.6</ele>
        <time>2025-02-11T13:02:23Z</time>
      </trkpt>
      <trkpt lat="47.80947" lon="-2.46399">
        <ele>95.7</ele>
        <time>2025-02-11T13:02:24Z</time>
      </trkpt>
      <trkpt lat="47.80946" lon="-2.46397">
        <ele>95.7</ele>
        <time>2025-02-11T13:02:25Z</time>
      </trkpt>
      <trkpt lat="47.80946" lon="-2.46396">
        <ele>95.8</ele>
        <time>2025-02-11T13:02:26Z</time>
      </trkpt>
      <trkpt lat="47.80947" lon="-2.46394">
        <ele>95.8</ele>
        <time>2025-02-11T13:02:27Z</time>
      </trkpt>
      <trkpt lat="47.80947" lon="-2.46393">
        <ele>95.9</ele>
        <time>2025-02-11T13:02:28Z</time>
      </trkpt>
      <trkpt lat="47.80947" lon="-2.46391">
        <ele>95.9</ele>
        <time>2025-02-11T13:02:29Z</time>
      </trkpt>
      <trkpt lat="47.80946" lon="-2.46391">
        <ele>95.9</ele>
        <time>2025-02-11T13:02:30Z</time>
      </trkpt>
      <trkpt lat="47.80945" lon="-2.46391">
        <ele>95.9</ele>
        <time>2025-02-11T13:02:31Z</time>
      </trkpt>
      <trkpt lat="47.80943" lon="-2.46389">
        <ele>96</ele>
        <time>2025-02-11T13:02:32Z</time>
      </trkpt>
      <trkpt lat="47.80943" lon="-2.46387">
        <ele>96.1</ele>
        <time>2025-02-11T13:02:33Z</time>
      </trkpt>
      <trkpt lat="47.80944" lon="-2.46386">
        <ele>96.1</ele>
        <time>2025-02-11T13:02:34Z</time>
      </trkpt>
      <trkpt lat="47.80944" lon="-2.46384">
        <ele>96.2</ele>
        <time>2025-02-11T13:02:35Z</time>
      </trkpt>
      <trkpt lat="47.80944" lon="-2.46383">
        <ele>96.2</ele>
        <time>2025-02-11T13:02:36Z</time>
      </trkpt>
      <trkpt lat="47.80944" lon="-2.46382">
        <ele>96.3</ele>
        <time>2025-02-11T13:02:37Z</time>
      </trkpt>
      <trkpt lat="47.80944" lon="-2.46381">
        <ele>96.3</ele>
        <time>2025-02-11T13:02:38Z</time>
      </trkpt>
      <trkpt lat="47.80944" lon="-2.46379">
        <ele>96.3</ele>
        <time>2025-02-11T13:02:39Z</time>
      </trkpt>
      <trkpt lat="47.80943" lon="-2.46378">
        <ele>96.4</ele>
        <time>2025-02-11T13:02:40Z</time>
      </trkpt>
      <trkpt lat="47.80942" lon="-2.46378">
        <ele>96.4</ele>
        <time>2025-02-11T13:02:41Z</time>
      </trkpt>
      <trkpt lat="47.80942" lon="-2.46378">
        <ele>96.3</ele>
        <time>2025-02-11T13:02:42Z</time>
      </trkpt>
      <trkpt lat="47.80941" lon="-2.46378">
        <ele>96.3</ele>
        <time>2025-02-11T13:02:43Z</time>
      </trkpt>
      <trkpt lat="47.8094" lon="-2.46378">
        <ele>96.3</ele>
        <time>2025-02-11T13:02:44Z</time>
      </trkpt>
      <trkpt lat="47.80939" lon="-2.46378">
        <ele>96.3</ele>
        <time>2025-02-11T13:02:45Z</time>
      </trkpt>
      <trkpt lat="47.80938" lon="-2.46378">
        <ele>96.3</ele>
        <time>2025-02-11T13:02:46Z</time>
      </trkpt>
      <trkpt lat="47.80938" lon="-2.46377">
        <ele>96.3</ele>
        <time>2025-02-11T13:02:47Z</time>
      </trkpt>
      <trkpt lat="47.80937" lon="-2.46376">
        <ele>96.3</ele>
        <time>2025-02-11T13:02:48Z</time>
      </trkpt>
      <trkpt lat="47.80936" lon="-2.46376">
        <ele>96.3</ele>
        <time>2025-02-11T13:02:49Z</time>
      </trkpt>
      <trkpt lat="47.80936" lon="-2.46375">
        <ele>96.3</ele>
        <time>2025-02-11T13:02:50Z</time>
      </trkpt>
      <trkpt lat="47.80935" lon="-2.46374">
        <ele>96.4</ele>
        <time>2025-02-11T13:02:51Z</time>
      </trkpt>
      <trkpt lat="47.80935" lon="-2.46373">
        <ele>96.4</ele>
        <time>2025-02-11T13:02:52Z</time>
      </trkpt>
      <trkpt lat="47.80934" lon="-2.46372">
        <ele>96.4</ele>
        <time>2025-02-11T13:02:53Z</time>
      </trkpt>
      <trkpt lat="47.80933" lon="-2.46371">
        <ele>96.4</ele>
        <time>2025-02-11T13:02:54Z</time>
      </trkpt>
      <trkpt lat="47.80933" lon="-2.46371">
        <ele>96.4</ele>
        <time>2025-02-11T13:02:55Z</time>
      </trkpt>
      <trkpt lat="47.80932" lon="-2.4637">
        <ele>96.4</ele>
        <time>2025-02-11T13:02:56Z</time>
      </trkpt>
      <trkpt lat="47.80932" lon="-2.46368">
        <ele>96.4</ele>
        <time>2025-02-11T13:02:57Z</time>
      </trkpt>
      <trkpt lat="47.80931" lon="-2.46367">
        <ele>96.4</ele>
        <time>2025-02-11T13:02:58Z</time>
      </trkpt>
      <trkpt lat="47.80929" lon="-2.46367">
        <ele>96.4</ele>
        <time>2025-02-11T13:02:59Z</time>
      </trkpt>
      <trkpt lat="47.80929" lon="-2.46367">
        <ele>96.3</ele>
        <time>2025-02-11T13:03:00Z</time>
      </trkpt>
      <trkpt lat="47.80927" lon="-2.46368">
        <ele>96.3</ele>
        <time>2025-02-11T13:03:01Z</time>
      </trkpt>
      <trkpt lat="47.80926" lon="-2.46368">
        <ele>96.3</ele>
        <time>2025-02-11T13:03:02Z</time>
      </trkpt>
      <trkpt lat="47.80926" lon="-2.46369">
        <ele>96.2</ele>
        <time>2025-02-11T13:03:03Z</time>
      </trkpt>
      <trkpt lat="47.80925" lon="-2.4637">
        <ele>96.2</ele>
        <time>2025-02-11T13:03:04Z</time>
      </trkpt>
      <trkpt lat="47.80924" lon="-2.46371">
        <ele>96.2</ele>
        <time>2025-02-11T13:03:05Z</time>
      </trkpt>
      <trkpt lat="47.80923" lon="-2.46372">
        <ele>96.1</ele>
        <time>2025-02-11T13:03:06Z</time>
      </trkpt>
      <trkpt lat="47.80923" lon="-2.46372">
        <ele>96.1</ele>
        <time>2025-02-11T13:03:07Z</time>
      </trkpt>
      <trkpt lat="47.80921" lon="-2.46371">
        <ele>96.1</ele>
        <time>2025-02-11T13:03:08Z</time>
      </trkpt>
      <trkpt lat="47.8092" lon="-2.46372">
        <ele>96.1</ele>
        <time>2025-02-11T13:03:09Z</time>
      </trkpt>
      <trkpt lat="47.80919" lon="-2.46373">
        <ele>96.1</ele>
        <time>2025-02-11T13:03:10Z</time>
      </trkpt>
      <trkpt lat="47.80918" lon="-2.46374">
        <ele>96</ele>
        <time>2025-02-11T13:03:11Z</time>
      </trkpt>
      <trkpt lat="47.80917" lon="-2.46374">
        <ele>96</ele>
        <time>2025-02-11T13:03:12Z</time>
      </trkpt>
      <trkpt lat="47.80917" lon="-2.46375">
        <ele>96</ele>
        <time>2025-02-11T13:03:13Z</time>
      </trkpt>
      <trkpt lat="47.80915" lon="-2.46375">
        <ele>95.9</ele>
        <time>2025-02-11T13:03:14Z</time>
      </trkpt>
      <trkpt lat="47.80914" lon="-2.46375">
        <ele>95.9</ele>
        <time>2025-02-11T13:03:15Z</time>
      </trkpt>
      <trkpt lat="47.80913" lon="-2.46376">
        <ele>95.9</ele>
        <time>2025-02-11T13:03:16Z</time>
      </trkpt>
      <trkpt lat="47.80912" lon="-2.46375">
        <ele>95.8</ele>
        <time>2025-02-11T13:03:17Z</time>
      </trkpt>
      <trkpt lat="47.80911" lon="-2.46374">
        <ele>95.8</ele>
        <time>2025-02-11T13:03:18Z</time>
      </trkpt>
      <trkpt lat="47.80909" lon="-2.46375">
        <ele>95.7</ele>
        <time>2025-02-11T13:03:19Z</time>
      </trkpt>
      <trkpt lat="47.80909" lon="-2.46376">
        <ele>95.7</ele>
        <time>2025-02-11T13:03:20Z</time>
      </trkpt>
      <trkpt lat="47.80908" lon="-2.46377">
        <ele>95.7</ele>
        <time>2025-02-11T13:03:21Z</time>
      </trkpt>
      <trkpt lat="47.80907" lon="-2.46377">
        <ele>95.6</ele>
        <time>2025-02-11T13:03:22Z</time>
      </trkpt>
      <trkpt lat="47.80905" lon="-2.46377">
        <ele>95.6</ele>
        <time>2025-02-11T13:03:23Z</time>
      </trkpt>
      <trkpt lat="47.80905" lon="-2.46378">
        <ele>95.6</ele>
        <time>2025-02-11T13:03:24Z</time>
      </trkpt>
      <trkpt lat="47.80904" lon="-2.46379">
        <ele>95.5</ele>
        <time>2025-02-11T13:03:25Z</time>
      </trkpt>
      <trkpt lat="47.80903" lon="-2.4638">
        <ele>95.5</ele>
        <time>2025-02-11T13:03:26Z</time>
      </trkpt>
      <trkpt lat="47.80903" lon="-2.46381">
        <ele>95.5</ele>
        <time>2025-02-11T13:03:27Z</time>
      </trkpt>
      <trkpt lat="47.80902" lon="-2.46383">
        <ele>95.5</ele>
        <time>2025-02-11T13:03:28Z</time>
      </trkpt>
      <trkpt lat="47.80902" lon="-2.46385">
        <ele>95.5</ele>
        <time>2025-02-11T13:03:29Z</time>
      </trkpt>
      <trkpt lat="47.80902" lon="-2.46387">
        <ele>95.5</ele>
        <time>2025-02-11T13:03:30Z</time>
      </trkpt>
      <trkpt lat="47.80901" lon="-2.46388">
        <ele>95.4</ele>
        <time>2025-02-11T13:03:31Z</time>
      </trkpt>
      <trkpt lat="47.809" lon="-2.4639">
        <ele>95.4</ele>
        <time>2025-02-11T13:03:32Z</time>
      </trkpt>
      <trkpt lat="47.80899" lon="-2.46391">
        <ele>95.3</ele>
        <time>2025-02-11T13:03:33Z</time>
      </trkpt>
      <trkpt lat="47.80898" lon="-2.46392">
        <ele>95.3</ele>
        <time>2025-02-11T13:03:34Z</time>
      </trkpt>
      <trkpt lat="47.80897" lon="-2.46393">
        <ele>95.3</ele>
        <time>2025-02-11T13:03:35Z</time>
      </trkpt>
      <trkpt lat="47.80897" lon="-2.46393">
        <ele>95.2</ele>
        <time>2025-02-11T13:03:36Z</time>
      </trkpt>
      <trkpt lat="47.80896" lon="-2.46394">
        <ele>95.2</ele>
        <time>2025-02-11T13:03:37Z</time>
      </trkpt>
      <trkpt lat="47.80895" lon="-2.46395">
        <ele>95.2</ele>
        <time>2025-02-11T13:03:38Z</time>
      </trkpt>
      <trkpt lat="47.80893" lon="-2.46395">
        <ele>95.1</ele>
        <time>2025-02-11T13:03:39Z</time>
      </trkpt>
      <trkpt lat="47.80893" lon="-2.46395">
        <ele>95.1</ele>
        <time>2025-02-11T13:03:40Z</time>
      </trkpt>
      <trkpt lat="47.80891" lon="-2.46395">
        <ele>95.1</ele>
        <time>2025-02-11T13:03:41Z</time>
      </trkpt>
      <trkpt lat="47.8089" lon="-2.46396">
        <ele>95</ele>
        <time>2025-02-11T13:03:42Z</time>
      </trkpt>
      <trkpt lat="47.80889" lon="-2.46396">
        <ele>95</ele>
        <time>2025-02-11T13:03:43Z</time>
      </trkpt>
      <trkpt lat="47.80888" lon="-2.46396">
        <ele>95</ele>
        <time>2025-02-11T13:03:44Z</time>
      </trkpt>
      <trkpt lat="47.80887" lon="-2.46397">
        <ele>95</ele>
        <time>2025-02-11T13:03:45Z</time>
      </trkpt>
      <trkpt lat="47.80886" lon="-2.46397">
        <ele>95</ele>
        <time>2025-02-11T13:03:46Z</time>
      </trkpt>
      <trkpt lat="47.80885" lon="-2.46398">
        <ele>95</ele>
        <time>2025-02-11T13:03:47Z</time>
      </trkpt>
      <trkpt lat="47.80884" lon="-2.46398">
        <ele>94.9</ele>
        <time>2025-02-11T13:03:48Z</time>
      </trkpt>
      <trkpt lat="47.80883" lon="-2.46399">
        <ele>94.9</ele>
        <time>2025-02-11T13:03:49Z</time>
      </trkpt>
      <trkpt lat="47.80882" lon="-2.46401">
        <ele>94.9</ele>
        <time>2025-02-11T13:03:50Z</time>
      </trkpt>
      <trkpt lat="47.80882" lon="-2.46402">
        <ele>94.9</ele>
        <time>2025-02-11T13:03:51Z</time>
      </trkpt>
      <trkpt lat="47.80881" lon="-2.46403">
        <ele>94.9</ele>
        <time>2025-02-11T13:03:52Z</time>
      </trkpt>
      <trkpt lat="47.8088" lon="-2.46404">
        <ele>94.8</ele>
        <time>2025-02-11T13:03:53Z</time>
      </trkpt>
      <trkpt lat="47.80879" lon="-2.46406">
        <ele>94.8</ele>
        <time>2025-02-11T13:03:54Z</time>
      </trkpt>
      <trkpt lat="47.80878" lon="-2.46407">
        <ele>94.8</ele>
        <time>2025-02-11T13:03:55Z</time>
      </trkpt>
      <trkpt lat="47.80877" lon="-2.46408">
        <ele>94.7</ele>
        <time>2025-02-11T13:03:56Z</time>
      </trkpt>
      <trkpt lat="47.80876" lon="-2.46409">
        <ele>94.7</ele>
        <time>2025-02-11T13:03:57Z</time>
      </trkpt>
      <trkpt lat="47.80875" lon="-2.4641">
        <ele>94.6</ele>
        <time>2025-02-11T13:03:58Z</time>
      </trkpt>
      <trkpt lat="47.80874" lon="-2.46411">
        <ele>94.6</ele>
        <time>2025-02-11T13:03:59Z</time>
      </trkpt>
      <trkpt lat="47.80873" lon="-2.46411">
        <ele>94.5</ele>
        <time>2025-02-11T13:04:00Z</time>
      </trkpt>
      <trkpt lat="47.80871" lon="-2.46412">
        <ele>94.5</ele>
        <time>2025-02-11T13:04:01Z</time>
      </trkpt>
      <trkpt lat="47.80871" lon="-2.46412">
        <ele>94.4</ele>
        <time>2025-02-11T13:04:02Z</time>
      </trkpt>
      <trkpt lat="47.8087" lon="-2.46413">
        <ele>94.4</ele>
        <time>2025-02-11T13:04:03Z</time>
      </trkpt>
      <trkpt lat="47.80869" lon="-2.46413">
        <ele>94.4</ele>
        <time>2025-02-11T13:04:04Z</time>
      </trkpt>
      <trkpt lat="47.80868" lon="-2.46413">
        <ele>94.3</ele>
        <time>2025-02-11T13:04:05Z</time>
      </trkpt>
      <trkpt lat="47.80866" lon="-2.46413">
        <ele>94.3</ele>
        <time>2025-02-11T13:04:06Z</time>
      </trkpt>
      <trkpt lat="47.80865" lon="-2.46413">
        <ele>94.3</ele>
        <time>2025-02-11T13:04:07Z</time>
      </trkpt>
      <trkpt lat="47.80864" lon="-2.46412">
        <ele>94.3</ele>
        <time>2025-02-11T13:04:08Z</time>
      </trkpt>
      <trkpt lat="47.80863" lon="-2.46413">
        <ele>94.2</ele>
        <time>2025-02-11T13:04:09Z</time>
      </trkpt>
      <trkpt lat="47.80862" lon="-2.46413">
        <ele>94.1</ele>
        <time>2025-02-11T13:04:10Z</time>
      </trkpt>
      <trkpt lat="47.80861" lon="-2.46414">
        <ele>94.1</ele>
        <time>2025-02-11T13:04:11Z</time>
      </trkpt>
      <trkpt lat="47.8086" lon="-2.46415">
        <ele>94.1</ele>
        <time>2025-02-11T13:04:12Z</time>
      </trkpt>
      <trkpt lat="47.80859" lon="-2.46416">
        <ele>94</ele>
        <time>2025-02-11T13:04:13Z</time>
      </trkpt>
      <trkpt lat="47.80859" lon="-2.46416">
        <ele>94</ele>
        <time>2025-02-11T13:04:14Z</time>
      </trkpt>
      <trkpt lat="47.80858" lon="-2.46418">
        <ele>94</ele>
        <time>2025-02-11T13:04:15Z</time>
      </trkpt>
      <trkpt lat="47.80857" lon="-2.46419">
        <ele>94</ele>
        <time>2025-02-11T13:04:16Z</time>
      </trkpt>
      <trkpt lat="47.80857" lon="-2.46421">
        <ele>94</ele>
        <time>2025-02-11T13:04:17Z</time>
      </trkpt>
      <trkpt lat="47.80856" lon="-2.46422">
        <ele>94</ele>
        <time>2025-02-11T13:04:18Z</time>
      </trkpt>
      <trkpt lat="47.80856" lon="-2.46424">
        <ele>94</ele>
        <time>2025-02-11T13:04:19Z</time>
      </trkpt>
      <trkpt lat="47.80856" lon="-2.46425">
        <ele>94</ele>
        <time>2025-02-11T13:04:20Z</time>
      </trkpt>
      <trkpt lat="47.80855" lon="-2.46425">
        <ele>94</ele>
        <time>2025-02-11T13:04:21Z</time>
      </trkpt>
      <trkpt lat="47.80854" lon="-2.46426">
        <ele>94</ele>
        <time>2025-02-11T13:04:22Z</time>
      </trkpt>
      <trkpt lat="47.80853" lon="-2.46427">
        <ele>94</ele>
        <time>2025-02-11T13:04:23Z</time>
      </trkpt>
      <trkpt lat="47.80852" lon="-2.46428">
        <ele>94</ele>
        <time>2025-02-11T13:04:24Z</time>
      </trkpt>
      <trkpt lat="47.80851" lon="-2.46428">
        <ele>94</ele>
        <time>2025-02-11T13:04:25Z</time>
      </trkpt>
      <trkpt lat="47.80849" lon="-2.46428">
        <ele>94</ele>
        <time>2025-02-11T13:04:26Z</time>
      </trkpt>
      <trkpt lat="47.80848" lon="-2.46429">
        <ele>94</ele>
        <time>2025-02-11T13:04:27Z</time>
      </trkpt>
      <trkpt lat="47.80847" lon="-2.46429">
        <ele>94</ele>
        <time>2025-02-11T13:04:28Z</time>
      </trkpt>
      <trkpt lat="47.80846" lon="-2.46429">
        <ele>94</ele>
        <time>2025-02-11T13:04:29Z</time>
      </trkpt>
      <trkpt lat="47.80844" lon="-2.46429">
        <ele>94</ele>
        <time>2025-02-11T13:04:30Z</time>
      </trkpt>
      <trkpt lat="47.80843" lon="-2.46429">
        <ele>94</ele>
        <time>2025-02-11T13:04:31Z</time>
      </trkpt>
      <trkpt lat="47.80842" lon="-2.46429">
        <ele>94</ele>
        <time>2025-02-11T13:04:32Z</time>
      </trkpt>
      <trkpt lat="47.80841" lon="-2.46429">
        <ele>94</ele>
        <time>2025-02-11T13:04:33Z</time>
      </trkpt>
      <trkpt lat="47.8084" lon="-2.46429">
        <ele>94</ele>
        <time>2025-02-11T13:04:34Z</time>
      </trkpt>
      <trkpt lat="47.80839" lon="-2.46429">
        <ele>94</ele>
        <time>2025-02-11T13:04:35Z</time>
      </trkpt>
      <trkpt lat="47.80837" lon="-2.46429">
        <ele>94</ele>
        <time>2025-02-11T13:04:36Z</time>
      </trkpt>
      <trkpt lat="47.80836" lon="-2.4643">
        <ele>94</ele>
        <time>2025-02-11T13:04:37Z</time>
      </trkpt>
      <trkpt lat="47.80835" lon="-2.46431">
        <ele>94</ele>
        <time>2025-02-11T13:04:38Z</time>
      </trkpt>
      <trkpt lat="47.80834" lon="-2.46431">
        <ele>94</ele>
        <time>2025-02-11T13:04:39Z</time>
      </trkpt>
      <trkpt lat="47.80833" lon="-2.46432">
        <ele>94</ele>
        <time>2025-02-11T13:04:40Z</time>
      </trkpt>
      <trkpt lat="47.80832" lon="-2.46432">
        <ele>94</ele>
        <time>2025-02-11T13:04:41Z</time>
      </trkpt>
      <trkpt lat="47.80831" lon="-2.46433">
        <ele>94</ele>
        <time>2025-02-11T13:04:42Z</time>
      </trkpt>
      <trkpt lat="47.8083" lon="-2.46433">
        <ele>94</ele>
        <time>2025-02-11T13:04:43Z</time>
      </trkpt>
      <trkpt lat="47.80829" lon="-2.46433">
        <ele>94</ele>
        <time>2025-02-11T13:04:44Z</time>
      </trkpt>
      <trkpt lat="47.80828" lon="-2.46433">
        <ele>94</ele>
        <time>2025-02-11T13:04:45Z</time>
      </trkpt>
      <trkpt lat="47.80827" lon="-2.46434">
        <ele>94</ele>
        <time>2025-02-11T13:04:46Z</time>
      </trkpt>
      <trkpt lat="47.80826" lon="-2.46434">
        <ele>94</ele>
        <time>2025-02-11T13:04:47Z</time>
      </trkpt>
      <trkpt lat="47.80825" lon="-2.46435">
        <ele>94</ele>
        <time>2025-02-11T13:04:48Z</time>
      </trkpt>
      <trkpt lat="47.80824" lon="-2.46434">
        <ele>94</ele>
        <time>2025-02-11T13:04:49Z</time>
      </trkpt>
      <trkpt lat="47.80823" lon="-2.46434">
        <ele>94</ele>
        <time>2025-02-11T13:04:50Z</time>
      </trkpt>
      <trkpt lat="47.80822" lon="-2.46435">
        <ele>94</ele>
        <time>2025-02-11T13:04:51Z</time>
      </trkpt>
      <trkpt lat="47.8082" lon="-2.46435">
        <ele>94</ele>
        <time>2025-02-11T13:04:52Z</time>
      </trkpt>
      <trkpt lat="47.80819" lon="-2.46435">
        <ele>94</ele>
        <time>2025-02-11T13:04:53Z</time>
      </trkpt>
      <trkpt lat="47.80818" lon="-2.46435">
        <ele>94</ele>
        <time>2025-02-11T13:04:54Z</time>
      </trkpt>
      <trkpt lat="47.80817" lon="-2.46435">
        <ele>94</ele>
        <time>2025-02-11T13:04:55Z</time>
      </trkpt>
      <trkpt lat="47.80816" lon="-2.46435">
        <ele>94</ele>
        <time>2025-02-11T13:04:56Z</time>
      </trkpt>
      <trkpt lat="47.80815" lon="-2.46435">
        <ele>94</ele>
        <time>2025-02-11T13:04:57Z</time>
      </trkpt>
      <trkpt lat="47.80814" lon="-2.46435">
        <ele>94</ele>
        <time>2025-02-11T13:04:58Z</time>
      </trkpt>
      <trkpt lat="47.80813" lon="-2.46436">
        <ele>94</ele>
        <time>2025-02-11T13:04:59Z</time>
      </trkpt>
      <trkpt lat="47.80812" lon="-2.46436">
        <ele>94</ele>
        <time>2025-02-11T13:05:00Z</time>
      </trkpt>
      <trkpt lat="47.8081" lon="-2.46436">
        <ele>94</ele>
        <time>2025-02-11T13:05:01Z</time>
      </trkpt>
      <trkpt lat="47.80809" lon="-2.46436">
        <ele>94</ele>
        <time>2025-02-11T13:05:02Z</time>
      </trkpt>
      <trkpt lat="47.80808" lon="-2.46436">
        <ele>94</ele>
        <time>2025-02-11T13:05:03Z</time>
      </trkpt>
      <trkpt lat="47.80807" lon="-2.46436">
        <ele>94</ele>
        <time>2025-02-11T13:05:04Z</time>
      </trkpt>
      <trkpt lat="47.80805" lon="-2.46436">
        <ele>94</ele>
        <time>2025-02-11T13:05:05Z</time>
      </trkpt>
      <trkpt lat="47.80804" lon="-2.46436">
        <ele>94</ele>
        <time>2025-02-11T13:05:06Z</time>
      </trkpt>
      <trkpt lat="47.80803" lon="-2.46436">
        <ele>94.1</ele>
        <time>2025-02-11T13:05:07Z</time>
      </trkpt>
      <trkpt lat="47.80802" lon="-2.46437">
        <ele>94.1</ele>
        <time>2025-02-11T13:05:08Z</time>
      </trkpt>
      <trkpt lat="47.80801" lon="-2.46437">
        <ele>94.2</ele>
        <time>2025-02-11T13:05:09Z</time>
      </trkpt>
      <trkpt lat="47.808" lon="-2.46437">
        <ele>94.2</ele>
        <time>2025-02-11T13:05:10Z</time>
      </trkpt>
      <trkpt lat="47.80799" lon="-2.46438">
        <ele>94.2</ele>
        <time>2025-02-11T13:05:11Z</time>
      </trkpt>
      <trkpt lat="47.80798" lon="-2.46438">
        <ele>94.3</ele>
        <time>2025-02-11T13:05:12Z</time>
      </trkpt>
      <trkpt lat="47.80797" lon="-2.46438">
        <ele>94.3</ele>
        <time>2025-02-11T13:05:13Z</time>
      </trkpt>
      <trkpt lat="47.80795" lon="-2.46438">
        <ele>94.4</ele>
        <time>2025-02-11T13:05:14Z</time>
      </trkpt>
      <trkpt lat="47.80794" lon="-2.46438">
        <ele>94.4</ele>
        <time>2025-02-11T13:05:15Z</time>
      </trkpt>
      <trkpt lat="47.80793" lon="-2.46439">
        <ele>94.5</ele>
        <time>2025-02-11T13:05:16Z</time>
      </trkpt>
      <trkpt lat="47.80792" lon="-2.46439">
        <ele>94.5</ele>
        <time>2025-02-11T13:05:17Z</time>
      </trkpt>
      <trkpt lat="47.80791" lon="-2.4644">
        <ele>94.5</ele>
        <time>2025-02-11T13:05:18Z</time>
      </trkpt>
      <trkpt lat="47.8079" lon="-2.4644">
        <ele>94.6</ele>
        <time>2025-02-11T13:05:19Z</time>
      </trkpt>
      <trkpt lat="47.80789" lon="-2.46439">
        <ele>94.6</ele>
        <time>2025-02-11T13:05:20Z</time>
      </trkpt>
      <trkpt lat="47.80788" lon="-2.4644">
        <ele>94.6</ele>
        <time>2025-02-11T13:05:21Z</time>
      </trkpt>
      <trkpt lat="47.80786" lon="-2.4644">
        <ele>94.7</ele>
        <time>2025-02-11T13:05:22Z</time>
      </trkpt>
      <trkpt lat="47.80785" lon="-2.46441">
        <ele>94.7</ele>
        <time>2025-02-11T13:05:23Z</time>
      </trkpt>
      <trkpt lat="47.80784" lon="-2.46443">
        <ele>94.8</ele>
        <time>2025-02-11T13:05:24Z</time>
      </trkpt>
      <trkpt lat="47.80783" lon="-2.46444">
        <ele>94.8</ele>
        <time>2025-02-11T13:05:25Z</time>
      </trkpt>
      <trkpt lat="47.80782" lon="-2.46445">
        <ele>94.8</ele>
        <time>2025-02-11T13:05:26Z</time>
      </trkpt>
      <trkpt lat="47.80782" lon="-2.46446">
        <ele>94.8</ele>
        <time>2025-02-11T13:05:27Z</time>
      </trkpt>
      <trkpt lat="47.80781" lon="-2.46448">
        <ele>94.8</ele>
        <time>2025-02-11T13:05:28Z</time>
      </trkpt>
      <trkpt lat="47.8078" lon="-2.46449">
        <ele>94.8</ele>
        <time>2025-02-11T13:05:29Z</time>
      </trkpt>
      <trkpt lat="47.80779" lon="-2.46449">
        <ele>94.8</ele>
        <time>2025-02-11T13:05:30Z</time>
      </trkpt>
      <trkpt lat="47.80778" lon="-2.4645">
        <ele>94.8</ele>
        <time>2025-02-11T13:05:31Z</time>
      </trkpt>
      <trkpt lat="47.80778" lon="-2.46451">
        <ele>94.8</ele>
        <time>2025-02-11T13:05:32Z</time>
      </trkpt>
      <trkpt lat="47.80777" lon="-2.46452">
        <ele>94.8</ele>
        <time>2025-02-11T13:05:33Z</time>
      </trkpt>
      <trkpt lat="47.80776" lon="-2.46452">
        <ele>94.8</ele>
        <time>2025-02-11T13:05:34Z</time>
      </trkpt>
      <trkpt lat="47.80775" lon="-2.46453">
        <ele>94.7</ele>
        <time>2025-02-11T13:05:35Z</time>
      </trkpt>
      <trkpt lat="47.80774" lon="-2.46453">
        <ele>94.7</ele>
        <time>2025-02-11T13:05:36Z</time>
      </trkpt>
      <trkpt lat="47.80773" lon="-2.46454">
        <ele>94.7</ele>
        <time>2025-02-11T13:05:37Z</time>
      </trkpt>
      <trkpt lat="47.80772" lon="-2.46455">
        <ele>94.7</ele>
        <time>2025-02-11T13:05:38Z</time>
      </trkpt>
      <trkpt lat="47.80771" lon="-2.46456">
        <ele>94.7</ele>
        <time>2025-02-11T13:05:39Z</time>
      </trkpt>
      <trkpt lat="47.8077" lon="-2.46456">
        <ele>94.7</ele>
        <time>2025-02-11T13:05:40Z</time>
      </trkpt>
      <trkpt lat="47.80769" lon="-2.46457">
        <ele>94.7</ele>
        <time>2025-02-11T13:05:41Z</time>
      </trkpt>
      <trkpt lat="47.80768" lon="-2.46457">
        <ele>94.7</ele>
        <time>2025-02-11T13:05:42Z</time>
      </trkpt>
      <trkpt lat="47.80767" lon="-2.46458">
        <ele>94.7</ele>
        <time>2025-02-11T13:05:43Z</time>
      </trkpt>
      <trkpt lat="47.80766" lon="-2.46458">
        <ele>94.7</ele>
        <time>2025-02-11T13:05:44Z</time>
      </trkpt>
      <trkpt lat="47.80765" lon="-2.46458">
        <ele>94.7</ele>
        <time>2025-02-11T13:05:45Z</time>
      </trkpt>
      <trkpt lat="47.80766" lon="-2.46458">
        <ele>94.7</ele>
        <time>2025-02-11T13:05:46Z</time>
      </trkpt>
      <trkpt lat="47.80766" lon="-2.46459">
        <ele>94.7</ele>
        <time>2025-02-11T13:05:47Z</time>
      </trkpt>
      <trkpt lat="47.80766" lon="-2.46459">
        <ele>94.7</ele>
        <time>2025-02-11T13:05:48Z</time>
      </trkpt>
      <trkpt lat="47.80766" lon="-2.46459">
        <ele>94.7</ele>
        <time>2025-02-11T13:05:49Z</time>
      </trkpt>
      <trkpt lat="47.80766" lon="-2.46459">
        <ele>94.7</ele>
        <time>2025-02-11T13:05:50Z</time>
      </trkpt>
      <trkpt lat="47.80766" lon="-2.46459">
        <ele>94.7</ele>
        <time>2025-02-11T13:05:51Z</time>
      </trkpt>
      <trkpt lat="47.80766" lon="-2.46459">
        <ele>94.7</ele>
        <time>2025-02-11T13:05:52Z</time>
      </trkpt>
      <trkpt lat="47.80766" lon="-2.46459">
        <ele>94.7</ele>
        <time>2025-02-11T13:05:53Z</time>
      </trkpt>
      <trkpt lat="47.80766" lon="-2.46459">
        <ele>94.7</ele>
        <time>2025-02-11T13:05:54Z</time>
      </trkpt>
      <trkpt lat="47.80766" lon="-2.46459">
        <ele>94.7</ele>
        <time>2025-02-11T13:05:55Z</time>
      </trkpt>
      <trkpt lat="47.80766" lon="-2.46459">
        <ele>94.7</ele>
        <time>2025-02-11T13:05:56Z</time>
      </trkpt>
      <trkpt lat="47.80766" lon="-2.46459">
        <ele>94.7</ele>
        <time>2025-02-11T13:05:57Z</time>
      </trkpt>
      <trkpt lat="47.80766" lon="-2.46459">
        <ele>94.7</ele>
        <time>2025-02-11T13:05:58Z</time>
      </trkpt>
      <trkpt lat="47.80766" lon="-2.46459">
        <ele>94.7</ele>
        <time>2025-02-11T13:05:59Z</time>
      </trkpt>
      <trkpt lat="47.80766" lon="-2.46459">
        <ele>94.7</ele>
        <time>2025-02-11T13:06:00Z</time>
      </trkpt>
      <trkpt lat="47.80766" lon="-2.46459">
        <ele>94.7</ele>
        <time>2025-02-11T13:06:01Z</time>
      </trkpt>
      <trkpt lat="47.80766" lon="-2.46459">
        <ele>94.7</ele>
        <time>2025-02-11T13:06:02Z</time>
      </trkpt>
      <trkpt lat="47.80766" lon="-2.46459">
        <ele>94.7</ele>
        <time>2025-02-11T13:06:03Z</time>
      </trkpt>
      <trkpt lat="47.80766" lon="-2.46459">
        <ele>94.7</ele>
        <time>2025-02-11T13:06:04Z</time>
      </trkpt>
      <trkpt lat="47.80766" lon="-2.46459">
        <ele>94.7</ele>
        <time>2025-02-11T13:06:05Z</time>
      </trkpt>
      <trkpt lat="47.80766" lon="-2.46459">
        <ele>94.7</ele>
        <time>2025-02-11T13:06:06Z</time>
      </trkpt>
      <trkpt lat="47.80766" lon="-2.46459">
        <ele>94.7</ele>
        <time>2025-02-11T13:06:07Z</time>
      </trkpt>
      <trkpt lat="47.80766" lon="-2.46459">
        <ele>94.7</ele>
        <time>2025-02-11T13:06:08Z</time>
      </trkpt>
      <trkpt lat="47.80766" lon="-2.46459">
        <ele>94.7</ele>
        <time>2025-02-11T13:06:09Z</time>
      </trkpt>
      <trkpt lat="47.80766" lon="-2.46459">
        <ele>94.7</ele>
        <time>2025-02-11T13:06:10Z</time>
      </trkpt>
      <trkpt lat="47.80766" lon="-2.46459">
        <ele>94.7</ele>
        <time>2025-02-11T13:06:11Z</time>
      </trkpt>
      <trkpt lat="47.80766" lon="-2.46459">
        <ele>94.7</ele>
        <time>2025-02-11T13:06:12Z</time>
      </trkpt>
      <trkpt lat="47.80766" lon="-2.46459">
        <ele>94.7</ele>
        <time>2025-02-11T13:06:13Z</time>
      </trkpt>
      <trkpt lat="47.80766" lon="-2.46459">
        <ele>94.7</ele>
        <time>2025-02-11T13:06:14Z</time>
      </trkpt>
      <trkpt lat="47.80766" lon="-2.46459">
        <ele>94.7</ele>
        <time>2025-02-11T13:06:15Z</time>
      </trkpt>
      <trkpt lat="47.80766" lon="-2.46459">
        <ele>94.7</ele>
        <time>2025-02-11T13:06:16Z</time>
      </trkpt>
      <trkpt lat="47.80766" lon="-2.46459">
        <ele>94.7</ele>
        <time>2025-02-11T13:06:17Z</time>
      </trkpt>
      <trkpt lat="47.80766" lon="-2.46459">
        <ele>94.7</ele>
        <time>2025-02-11T13:06:18Z</time>
      </trkpt>
      <trkpt lat="47.80766" lon="-2.46459">
        <ele>94.7</ele>
        <time>2025-02-11T13:06:19Z</time>
      </trkpt>
      <trkpt lat="47.80766" lon="-2.46459">
        <ele>94.7</ele>
        <time>2025-02-11T13:06:20Z</time>
      </trkpt>
      <trkpt lat="47.80766" lon="-2.46459">
        <ele>94.7</ele>
        <time>2025-02-11T13:06:21Z</time>
      </trkpt>
      <trkpt lat="47.80766" lon="-2.46459">
        <ele>94.7</ele>
        <time>2025-02-11T13:06:22Z</time>
      </trkpt>
      <trkpt lat="47.80766" lon="-2.46459">
        <ele>94.7</ele>
        <time>2025-02-11T13:06:23Z</time>
      </trkpt>
      <trkpt lat="47.80766" lon="-2.46459">
        <ele>94.7</ele>
        <time>2025-02-11T13:06:24Z</time>
      </trkpt>
      <trkpt lat="47.80766" lon="-2.46459">
        <ele>94.7</ele>
        <time>2025-02-11T13:06:25Z</time>
      </trkpt>
      <trkpt lat="47.80766" lon="-2.46459">
        <ele>94.7</ele>
        <time>2025-02-11T13:06:26Z</time>
      </trkpt>
      <trkpt lat="47.80766" lon="-2.46459">
        <ele>94.7</ele>
        <time>2025-02-11T13:06:27Z</time>
      </trkpt>
      <trkpt lat="47.80766" lon="-2.46459">
        <ele>94.7</ele>
        <time>2025-02-11T13:06:28Z</time>
      </trkpt>
      <trkpt lat="47.80766" lon="-2.46459">
        <ele>94.7</ele>
        <time>2025-02-11T13:06:29Z</time>
      </trkpt>
      <trkpt lat="47.80766" lon="-2.46459">
        <ele>94.7</ele>
        <time>2025-02-11T13:06:30Z</time>
      </trkpt>
      <trkpt lat="47.80766" lon="-2.46459">
        <ele>94.7</ele>
        <time>2025-02-11T13:06:31Z</time>
      </trkpt>
      <trkpt lat="47.80767" lon="-2.46459">
        <ele>94.7</ele>
        <time>2025-02-11T13:06:32Z</time>
      </trkpt>
      <trkpt lat="47.80767" lon="-2.46459">
        <ele>94.7</ele>
        <time>2025-02-11T13:06:33Z</time>
      </trkpt>
      <trkpt lat="47.80767" lon="-2.46458">
        <ele>94.7</ele>
        <time>2025-02-11T13:06:34Z</time>
      </trkpt>
      <trkpt lat="47.80767" lon="-2.46458">
        <ele>94.7</ele>
        <time>2025-02-11T13:06:35Z</time>
      </trkpt>
      <trkpt lat="47.80767" lon="-2.46458">
        <ele>94.7</ele>
        <time>2025-02-11T13:06:36Z</time>
      </trkpt>
      <trkpt lat="47.80767" lon="-2.46458">
        <ele>94.7</ele>
        <time>2025-02-11T13:06:37Z</time>
      </trkpt>
      <trkpt lat="47.80767" lon="-2.46458">
        <ele>94.7</ele>
        <time>2025-02-11T13:06:38Z</time>
      </trkpt>
      <trkpt lat="47.80767" lon="-2.46458">
        <ele>94.7</ele>
        <time>2025-02-11T13:06:39Z</time>
      </trkpt>
      <trkpt lat="47.80767" lon="-2.46458">
        <ele>94.7</ele>
        <time>2025-02-11T13:06:40Z</time>
      </trkpt>
      <trkpt lat="47.80767" lon="-2.46458">
        <ele>94.7</ele>
        <time>2025-02-11T13:06:41Z</time>
      </trkpt>
      <trkpt lat="47.80767" lon="-2.46458">
        <ele>94.7</ele>
        <time>2025-02-11T13:06:42Z</time>
      </trkpt>
      <trkpt lat="47.80767" lon="-2.46458">
        <ele>94.7</ele>
        <time>2025-02-11T13:06:43Z</time>
      </trkpt>
      <trkpt lat="47.80767" lon="-2.46457">
        <ele>94.7</ele>
        <time>2025-02-11T13:06:44Z</time>
      </trkpt>
      <trkpt lat="47.80767" lon="-2.46457">
        <ele>94.7</ele>
        <time>2025-02-11T13:06:45Z</time>
      </trkpt>
      <trkpt lat="47.80768" lon="-2.46457">
        <ele>94.7</ele>
        <time>2025-02-11T13:06:46Z</time>
      </trkpt>
      <trkpt lat="47.80768" lon="-2.46457">
        <ele>94.7</ele>
        <time>2025-02-11T13:06:47Z</time>
      </trkpt>
      <trkpt lat="47.80769" lon="-2.46456">
        <ele>94.7</ele>
        <time>2025-02-11T13:06:48Z</time>
      </trkpt>
      <trkpt lat="47.8077" lon="-2.46455">
        <ele>94.7</ele>
        <time>2025-02-11T13:06:49Z</time>
      </trkpt>
      <trkpt lat="47.80771" lon="-2.46455">
        <ele>94.7</ele>
        <time>2025-02-11T13:06:50Z</time>
      </trkpt>
      <trkpt lat="47.80773" lon="-2.46459">
        <ele>94.6</ele>
        <time>2025-02-11T13:06:51Z</time>
      </trkpt>
      <trkpt lat="47.80772" lon="-2.4646">
        <ele>94.5</ele>
        <time>2025-02-11T13:06:52Z</time>
      </trkpt>
      <trkpt lat="47.80771" lon="-2.4646">
        <ele>94.6</ele>
        <time>2025-02-11T13:06:53Z</time>
      </trkpt>
      <trkpt lat="47.80771" lon="-2.46459">
        <ele>94.6</ele>
        <time>2025-02-11T13:06:54Z</time>
      </trkpt>
      <trkpt lat="47.80771" lon="-2.46458">
        <ele>94.6</ele>
        <time>2025-02-11T13:06:55Z</time>
      </trkpt>
      <trkpt lat="47.80772" lon="-2.46458">
        <ele>94.6</ele>
        <time>2025-02-11T13:06:56Z</time>
      </trkpt>
      <trkpt lat="47.80772" lon="-2.46458">
        <ele>94.6</ele>
        <time>2025-02-11T13:06:57Z</time>
      </trkpt>
      <trkpt lat="47.80772" lon="-2.46458">
        <ele>94.6</ele>
        <time>2025-02-11T13:06:58Z</time>
      </trkpt>
      <trkpt lat="47.80772" lon="-2.46458">
        <ele>94.6</ele>
        <time>2025-02-11T13:06:59Z</time>
      </trkpt>
      <trkpt lat="47.80772" lon="-2.46458">
        <ele>94.6</ele>
        <time>2025-02-11T13:07:00Z</time>
      </trkpt>
      <trkpt lat="47.80772" lon="-2.46458">
        <ele>94.6</ele>
        <time>2025-02-11T13:07:01Z</time>
      </trkpt>
      <trkpt lat="47.80772" lon="-2.46458">
        <ele>94.6</ele>
        <time>2025-02-11T13:07:02Z</time>
      </trkpt>
      <trkpt lat="47.80772" lon="-2.46458">
        <ele>94.6</ele>
        <time>2025-02-11T13:07:03Z</time>
      </trkpt>
      <trkpt lat="47.80771" lon="-2.46459">
        <ele>94.6</ele>
        <time>2025-02-11T13:07:04Z</time>
      </trkpt>
      <trkpt lat="47.80771" lon="-2.46459">
        <ele>94.6</ele>
        <time>2025-02-11T13:07:05Z</time>
      </trkpt>
      <trkpt lat="47.80771" lon="-2.4646">
        <ele>94.6</ele>
        <time>2025-02-11T13:07:06Z</time>
      </trkpt>
      <trkpt lat="47.8077" lon="-2.46461">
        <ele>94.6</ele>
        <time>2025-02-11T13:07:07Z</time>
      </trkpt>
      <trkpt lat="47.80769" lon="-2.46462">
        <ele>94.6</ele>
        <time>2025-02-11T13:07:08Z</time>
      </trkpt>
      <trkpt lat="47.80768" lon="-2.46463">
        <ele>94.6</ele>
        <time>2025-02-11T13:07:09Z</time>
      </trkpt>
      <trkpt lat="47.80767" lon="-2.46463">
        <ele>94.6</ele>
        <time>2025-02-11T13:07:10Z</time>
      </trkpt>
      <trkpt lat="47.80767" lon="-2.46464">
        <ele>94.6</ele>
        <time>2025-02-11T13:07:11Z</time>
      </trkpt>
      <trkpt lat="47.80766" lon="-2.46465">
        <ele>94.6</ele>
        <time>2025-02-11T13:07:12Z</time>
      </trkpt>
      <trkpt lat="47.80767" lon="-2.46467">
        <ele>94.5</ele>
        <time>2025-02-11T13:07:13Z</time>
      </trkpt>
      <trkpt lat="47.80766" lon="-2.46467">
        <ele>94.5</ele>
        <time>2025-02-11T13:07:14Z</time>
      </trkpt>
      <trkpt lat="47.80765" lon="-2.46468">
        <ele>94.5</ele>
        <time>2025-02-11T13:07:15Z</time>
      </trkpt>
      <trkpt lat="47.80765" lon="-2.46468">
        <ele>94.5</ele>
        <time>2025-02-11T13:07:16Z</time>
      </trkpt>
      <trkpt lat="47.80765" lon="-2.46467">
        <ele>94.5</ele>
        <time>2025-02-11T13:07:17Z</time>
      </trkpt>
      <trkpt lat="47.80765" lon="-2.46467">
        <ele>94.5</ele>
        <time>2025-02-11T13:07:18Z</time>
      </trkpt>
      <trkpt lat="47.80765" lon="-2.46467">
        <ele>94.5</ele>
        <time>2025-02-11T13:07:19Z</time>
      </trkpt>
      <trkpt lat="47.80765" lon="-2.46467">
        <ele>94.5</ele>
        <time>2025-02-11T13:07:20Z</time>
      </trkpt>
      <trkpt lat="47.80765" lon="-2.46467">
        <ele>94.5</ele>
        <time>2025-02-11T13:07:21Z</time>
      </trkpt>
      <trkpt lat="47.80765" lon="-2.46468">
        <ele>94.6</ele>
        <time>2025-02-11T13:07:22Z</time>
      </trkpt>
      <trkpt lat="47.80764" lon="-2.46468">
        <ele>94.6</ele>
        <time>2025-02-11T13:07:23Z</time>
      </trkpt>
      <trkpt lat="47.80764" lon="-2.4647">
        <ele>94.5</ele>
        <time>2025-02-11T13:07:24Z</time>
      </trkpt>
      <trkpt lat="47.80764" lon="-2.46471">
        <ele>94.5</ele>
        <time>2025-02-11T13:07:25Z</time>
      </trkpt>
      <trkpt lat="47.80764" lon="-2.46472">
        <ele>94.5</ele>
        <time>2025-02-11T13:07:26Z</time>
      </trkpt>
      <trkpt lat="47.80764" lon="-2.46474">
        <ele>94.5</ele>
        <time>2025-02-11T13:07:27Z</time>
      </trkpt>
      <trkpt lat="47.80765" lon="-2.46474">
        <ele>94.4</ele>
        <time>2025-02-11T13:07:28Z</time>
      </trkpt>
      <trkpt lat="47.80765" lon="-2.46475">
        <ele>94.4</ele>
        <time>2025-02-11T13:07:29Z</time>
      </trkpt>
      <trkpt lat="47.80766" lon="-2.46476">
        <ele>94.4</ele>
        <time>2025-02-11T13:07:30Z</time>
      </trkpt>
      <trkpt lat="47.80767" lon="-2.46476">
        <ele>94.3</ele>
        <time>2025-02-11T13:07:31Z</time>
      </trkpt>
      <trkpt lat="47.80768" lon="-2.46477">
        <ele>94.3</ele>
        <time>2025-02-11T13:07:32Z</time>
      </trkpt>
      <trkpt lat="47.80769" lon="-2.46477">
        <ele>94.3</ele>
        <time>2025-02-11T13:07:33Z</time>
      </trkpt>
      <trkpt lat="47.80769" lon="-2.46479">
        <ele>94.2</ele>
        <time>2025-02-11T13:07:34Z</time>
      </trkpt>
      <trkpt lat="47.80769" lon="-2.4648">
        <ele>94.2</ele>
        <time>2025-02-11T13:07:35Z</time>
      </trkpt>
      <trkpt lat="47.8077" lon="-2.4648">
        <ele>94.2</ele>
        <time>2025-02-11T13:07:36Z</time>
      </trkpt>
      <trkpt lat="47.80771" lon="-2.46482">
        <ele>94.2</ele>
        <time>2025-02-11T13:07:37Z</time>
      </trkpt>
      <trkpt lat="47.80771" lon="-2.46483">
        <ele>94.1</ele>
        <time>2025-02-11T13:07:38Z</time>
      </trkpt>
      <trkpt lat="47.80771" lon="-2.46485">
        <ele>94.1</ele>
        <time>2025-02-11T13:07:39Z</time>
      </trkpt>
      <trkpt lat="47.80772" lon="-2.46486">
        <ele>94.1</ele>
        <time>2025-02-11T13:07:40Z</time>
      </trkpt>
      <trkpt lat="47.80772" lon="-2.46488">
        <ele>94.1</ele>
        <time>2025-02-11T13:07:41Z</time>
      </trkpt>
      <trkpt lat="47.80772" lon="-2.46489">
        <ele>94.1</ele>
        <time>2025-02-11T13:07:42Z</time>
      </trkpt>
      <trkpt lat="47.80772" lon="-2.46491">
        <ele>94.1</ele>
        <time>2025-02-11T13:07:43Z</time>
      </trkpt>
      <trkpt lat="47.80772" lon="-2.46493">
        <ele>94.1</ele>
        <time>2025-02-11T13:07:44Z</time>
      </trkpt>
      <trkpt lat="47.80771" lon="-2.46495">
        <ele>94</ele>
        <time>2025-02-11T13:07:45Z</time>
      </trkpt>
      <trkpt lat="47.80771" lon="-2.46498">
        <ele>94</ele>
        <time>2025-02-11T13:07:46Z</time>
      </trkpt>
      <trkpt lat="47.80771" lon="-2.46499">
        <ele>94</ele>
        <time>2025-02-11T13:07:47Z</time>
      </trkpt>
      <trkpt lat="47.80771" lon="-2.46501">
        <ele>94</ele>
        <time>2025-02-11T13:07:48Z</time>
      </trkpt>
      <trkpt lat="47.80771" lon="-2.46502">
        <ele>94</ele>
        <time>2025-02-11T13:07:49Z</time>
      </trkpt>
      <trkpt lat="47.80771" lon="-2.46504">
        <ele>94</ele>
        <time>2025-02-11T13:07:50Z</time>
      </trkpt>
      <trkpt lat="47.80772" lon="-2.46506">
        <ele>94</ele>
        <time>2025-02-11T13:07:51Z</time>
      </trkpt>
      <trkpt lat="47.80772" lon="-2.46507">
        <ele>94</ele>
        <time>2025-02-11T13:07:52Z</time>
      </trkpt>
      <trkpt lat="47.80772" lon="-2.46509">
        <ele>94</ele>
        <time>2025-02-11T13:07:53Z</time>
      </trkpt>
      <trkpt lat="47.80772" lon="-2.4651">
        <ele>94</ele>
        <time>2025-02-11T13:07:54Z</time>
      </trkpt>
      <trkpt lat="47.80773" lon="-2.46512">
        <ele>94</ele>
        <time>2025-02-11T13:07:55Z</time>
      </trkpt>
      <trkpt lat="47.80773" lon="-2.46514">
        <ele>94</ele>
        <time>2025-02-11T13:07:56Z</time>
      </trkpt>
      <trkpt lat="47.80774" lon="-2.46515">
        <ele>94</ele>
        <time>2025-02-11T13:07:57Z</time>
      </trkpt>
      <trkpt lat="47.80774" lon="-2.46517">
        <ele>94</ele>
        <time>2025-02-11T13:07:58Z</time>
      </trkpt>
      <trkpt lat="47.80775" lon="-2.46518">
        <ele>94</ele>
        <time>2025-02-11T13:07:59Z</time>
      </trkpt>
      <trkpt lat="47.80776" lon="-2.46519">
        <ele>94</ele>
        <time>2025-02-11T13:08:00Z</time>
      </trkpt>
      <trkpt lat="47.80777" lon="-2.4652">
        <ele>94</ele>
        <time>2025-02-11T13:08:01Z</time>
      </trkpt>
      <trkpt lat="47.80778" lon="-2.46522">
        <ele>94</ele>
        <time>2025-02-11T13:08:02Z</time>
      </trkpt>
      <trkpt lat="47.80778" lon="-2.46523">
        <ele>94</ele>
        <time>2025-02-11T13:08:03Z</time>
      </trkpt>
      <trkpt lat="47.80778" lon="-2.46525">
        <ele>94</ele>
        <time>2025-02-11T13:08:04Z</time>
      </trkpt>
      <trkpt lat="47.80778" lon="-2.46527">
        <ele>94</ele>
        <time>2025-02-11T13:08:05Z</time>
      </trkpt>
      <trkpt lat="47.80778" lon="-2.46528">
        <ele>94</ele>
        <time>2025-02-11T13:08:06Z</time>
      </trkpt>
      <trkpt lat="47.80777" lon="-2.46531">
        <ele>94</ele>
        <time>2025-02-11T13:08:07Z</time>
      </trkpt>
      <trkpt lat="47.80776" lon="-2.46532">
        <ele>94</ele>
        <time>2025-02-11T13:08:08Z</time>
      </trkpt>
      <trkpt lat="47.80775" lon="-2.46534">
        <ele>94</ele>
        <time>2025-02-11T13:08:09Z</time>
      </trkpt>
      <trkpt lat="47.80775" lon="-2.46535">
        <ele>94</ele>
        <time>2025-02-11T13:08:10Z</time>
      </trkpt>
      <trkpt lat="47.80774" lon="-2.46536">
        <ele>94</ele>
        <time>2025-02-11T13:08:11Z</time>
      </trkpt>
      <trkpt lat="47.80774" lon="-2.46538">
        <ele>94</ele>
        <time>2025-02-11T13:08:12Z</time>
      </trkpt>
      <trkpt lat="47.80773" lon="-2.4654">
        <ele>94</ele>
        <time>2025-02-11T13:08:13Z</time>
      </trkpt>
      <trkpt lat="47.80773" lon="-2.46541">
        <ele>94</ele>
        <time>2025-02-11T13:08:14Z</time>
      </trkpt>
      <trkpt lat="47.80773" lon="-2.46542">
        <ele>94</ele>
        <time>2025-02-11T13:08:15Z</time>
      </trkpt>
      <trkpt lat="47.80773" lon="-2.46541">
        <ele>94</ele>
        <time>2025-02-11T13:08:16Z</time>
      </trkpt>
      <trkpt lat="47.80772" lon="-2.46542">
        <ele>94</ele>
        <time>2025-02-11T13:08:17Z</time>
      </trkpt>
      <trkpt lat="47.80772" lon="-2.46545">
        <ele>94</ele>
        <time>2025-02-11T13:08:18Z</time>
      </trkpt>
      <trkpt lat="47.80773" lon="-2.46546">
        <ele>94</ele>
        <time>2025-02-11T13:08:19Z</time>
      </trkpt>
      <trkpt lat="47.80773" lon="-2.46547">
        <ele>94</ele>
        <time>2025-02-11T13:08:20Z</time>
      </trkpt>
      <trkpt lat="47.80773" lon="-2.46548">
        <ele>94</ele>
        <time>2025-02-11T13:08:21Z</time>
      </trkpt>
      <trkpt lat="47.80773" lon="-2.4655">
        <ele>94</ele>
        <time>2025-02-11T13:08:22Z</time>
      </trkpt>
      <trkpt lat="47.80773" lon="-2.46551">
        <ele>94</ele>
        <time>2025-02-11T13:08:23Z</time>
      </trkpt>
      <trkpt lat="47.80773" lon="-2.46552">
        <ele>94</ele>
        <time>2025-02-11T13:08:24Z</time>
      </trkpt>
      <trkpt lat="47.80773" lon="-2.46554">
        <ele>94</ele>
        <time>2025-02-11T13:08:25Z</time>
      </trkpt>
      <trkpt lat="47.80772" lon="-2.46556">
        <ele>94</ele>
        <time>2025-02-11T13:08:26Z</time>
      </trkpt>
      <trkpt lat="47.80772" lon="-2.46558">
        <ele>94</ele>
        <time>2025-02-11T13:08:27Z</time>
      </trkpt>
      <trkpt lat="47.80772" lon="-2.4656">
        <ele>94</ele>
        <time>2025-02-11T13:08:28Z</time>
      </trkpt>
      <trkpt lat="47.80773" lon="-2.46561">
        <ele>94</ele>
        <time>2025-02-11T13:08:29Z</time>
      </trkpt>
      <trkpt lat="47.80775" lon="-2.46562">
        <ele>94</ele>
        <time>2025-02-11T13:08:30Z</time>
      </trkpt>
      <trkpt lat="47.80775" lon="-2.46564">
        <ele>94</ele>
        <time>2025-02-11T13:08:31Z</time>
      </trkpt>
      <trkpt lat="47.80775" lon="-2.46566">
        <ele>94</ele>
        <time>2025-02-11T13:08:32Z</time>
      </trkpt>
      <trkpt lat="47.80775" lon="-2.46567">
        <ele>94</ele>
        <time>2025-02-11T13:08:33Z</time>
      </trkpt>
      <trkpt lat="47.80776" lon="-2.46569">
        <ele>94</ele>
        <time>2025-02-11T13:08:34Z</time>
      </trkpt>
      <trkpt lat="47.80776" lon="-2.4657">
        <ele>94</ele>
        <time>2025-02-11T13:08:35Z</time>
      </trkpt>
      <trkpt lat="47.80776" lon="-2.46571">
        <ele>94</ele>
        <time>2025-02-11T13:08:36Z</time>
      </trkpt>
      <trkpt lat="47.80775" lon="-2.46572">
        <ele>94</ele>
        <time>2025-02-11T13:08:37Z</time>
      </trkpt>
      <trkpt lat="47.80776" lon="-2.46574">
        <ele>94</ele>
        <time>2025-02-11T13:08:38Z</time>
      </trkpt>
      <trkpt lat="47.80776" lon="-2.46576">
        <ele>94</ele>
        <time>2025-02-11T13:08:39Z</time>
      </trkpt>
      <trkpt lat="47.80776" lon="-2.46577">
        <ele>94</ele>
        <time>2025-02-11T13:08:40Z</time>
      </trkpt>
      <trkpt lat="47.80777" lon="-2.46578">
        <ele>94</ele>
        <time>2025-02-11T13:08:41Z</time>
      </trkpt>
      <trkpt lat="47.80777" lon="-2.4658">
        <ele>94</ele>
        <time>2025-02-11T13:08:42Z</time>
      </trkpt>
      <trkpt lat="47.80777" lon="-2.46582">
        <ele>94</ele>
        <time>2025-02-11T13:08:43Z</time>
      </trkpt>
      <trkpt lat="47.80777" lon="-2.46585">
        <ele>94</ele>
        <time>2025-02-11T13:08:44Z</time>
      </trkpt>
      <trkpt lat="47.80777" lon="-2.46587">
        <ele>93.9</ele>
        <time>2025-02-11T13:08:45Z</time>
      </trkpt>
      <trkpt lat="47.80777" lon="-2.46588">
        <ele>93.8</ele>
        <time>2025-02-11T13:08:46Z</time>
      </trkpt>
      <trkpt lat="47.80778" lon="-2.4659">
        <ele>93.8</ele>
        <time>2025-02-11T13:08:47Z</time>
      </trkpt>
      <trkpt lat="47.80778" lon="-2.46591">
        <ele>93.7</ele>
        <time>2025-02-11T13:08:48Z</time>
      </trkpt>
      <trkpt lat="47.80779" lon="-2.46592">
        <ele>93.7</ele>
        <time>2025-02-11T13:08:49Z</time>
      </trkpt>
      <trkpt lat="47.80779" lon="-2.46593">
        <ele>93.6</ele>
        <time>2025-02-11T13:08:50Z</time>
      </trkpt>
      <trkpt lat="47.8078" lon="-2.46595">
        <ele>93.6</ele>
        <time>2025-02-11T13:08:51Z</time>
      </trkpt>
      <trkpt lat="47.8078" lon="-2.46596">
        <ele>93.5</ele>
        <time>2025-02-11T13:08:52Z</time>
      </trkpt>
      <trkpt lat="47.80781" lon="-2.46597">
        <ele>93.5</ele>
        <time>2025-02-11T13:08:53Z</time>
      </trkpt>
      <trkpt lat="47.80781" lon="-2.46598">
        <ele>93.4</ele>
        <time>2025-02-11T13:08:54Z</time>
      </trkpt>
      <trkpt lat="47.80781" lon="-2.46599">
        <ele>93.4</ele>
        <time>2025-02-11T13:08:55Z</time>
      </trkpt>
      <trkpt lat="47.80781" lon="-2.46601">
        <ele>93.3</ele>
        <time>2025-02-11T13:08:56Z</time>
      </trkpt>
      <trkpt lat="47.80781" lon="-2.46602">
        <ele>93.3</ele>
        <time>2025-02-11T13:08:57Z</time>
      </trkpt>
      <trkpt lat="47.80781" lon="-2.46603">
        <ele>93.2</ele>
        <time>2025-02-11T13:08:58Z</time>
      </trkpt>
      <trkpt lat="47.80781" lon="-2.46605">
        <ele>93.2</ele>
        <time>2025-02-11T13:08:59Z</time>
      </trkpt>
      <trkpt lat="47.80781" lon="-2.46606">
        <ele>93.2</ele>
        <time>2025-02-11T13:09:00Z</time>
      </trkpt>
      <trkpt lat="47.80781" lon="-2.46608">
        <ele>93.1</ele>
        <time>2025-02-11T13:09:01Z</time>
      </trkpt>
      <trkpt lat="47.80781" lon="-2.46609">
        <ele>93.1</ele>
        <time>2025-02-11T13:09:02Z</time>
      </trkpt>
      <trkpt lat="47.8078" lon="-2.4661">
        <ele>93</ele>
        <time>2025-02-11T13:09:03Z</time>
      </trkpt>
      <trkpt lat="47.8078" lon="-2.46611">
        <ele>93</ele>
        <time>2025-02-11T13:09:04Z</time>
      </trkpt>
      <trkpt lat="47.8078" lon="-2.46612">
        <ele>93</ele>
        <time>2025-02-11T13:09:05Z</time>
      </trkpt>
      <trkpt lat="47.80779" lon="-2.46613">
        <ele>92.9</ele>
        <time>2025-02-11T13:09:06Z</time>
      </trkpt>
      <trkpt lat="47.80778" lon="-2.46613">
        <ele>92.9</ele>
        <time>2025-02-11T13:09:07Z</time>
      </trkpt>
      <trkpt lat="47.80777" lon="-2.46614">
        <ele>92.9</ele>
        <time>2025-02-11T13:09:08Z</time>
      </trkpt>
      <trkpt lat="47.80777" lon="-2.46615">
        <ele>92.9</ele>
        <time>2025-02-11T13:09:09Z</time>
      </trkpt>
      <trkpt lat="47.80776" lon="-2.46615">
        <ele>92.8</ele>
        <time>2025-02-11T13:09:10Z</time>
      </trkpt>
      <trkpt lat="47.80775" lon="-2.46616">
        <ele>92.8</ele>
        <time>2025-02-11T13:09:11Z</time>
      </trkpt>
      <trkpt lat="47.80774" lon="-2.46616">
        <ele>92.8</ele>
        <time>2025-02-11T13:09:12Z</time>
      </trkpt>
      <trkpt lat="47.80773" lon="-2.46616">
        <ele>92.8</ele>
        <time>2025-02-11T13:09:13Z</time>
      </trkpt>
      <trkpt lat="47.80772" lon="-2.46616">
        <ele>92.8</ele>
        <time>2025-02-11T13:09:14Z</time>
      </trkpt>
      <trkpt lat="47.80771" lon="-2.46616">
        <ele>92.8</ele>
        <time>2025-02-11T13:09:15Z</time>
      </trkpt>
      <trkpt lat="47.8077" lon="-2.46617">
        <ele>92.8</ele>
        <time>2025-02-11T13:09:16Z</time>
      </trkpt>
      <trkpt lat="47.80769" lon="-2.46617">
        <ele>92.8</ele>
        <time>2025-02-11T13:09:17Z</time>
      </trkpt>
      <trkpt lat="47.80768" lon="-2.46617">
        <ele>92.8</ele>
        <time>2025-02-11T13:09:18Z</time>
      </trkpt>
      <trkpt lat="47.80767" lon="-2.46618">
        <ele>92.8</ele>
        <time>2025-02-11T13:09:19Z</time>
      </trkpt>
      <trkpt lat="47.80766" lon="-2.46618">
        <ele>92.7</ele>
        <time>2025-02-11T13:09:20Z</time>
      </trkpt>
      <trkpt lat="47.80766" lon="-2.46619">
        <ele>92.7</ele>
        <time>2025-02-11T13:09:21Z</time>
      </trkpt>
      <trkpt lat="47.80765" lon="-2.46619">
        <ele>92.7</ele>
        <time>2025-02-11T13:09:22Z</time>
      </trkpt>
      <trkpt lat="47.80764" lon="-2.46619">
        <ele>92.7</ele>
        <time>2025-02-11T13:09:23Z</time>
      </trkpt>
      <trkpt lat="47.80763" lon="-2.46618">
        <ele>92.7</ele>
        <time>2025-02-11T13:09:24Z</time>
      </trkpt>
      <trkpt lat="47.80762" lon="-2.46618">
        <ele>92.7</ele>
        <time>2025-02-11T13:09:25Z</time>
      </trkpt>
      <trkpt lat="47.80761" lon="-2.46618">
        <ele>92.7</ele>
        <time>2025-02-11T13:09:26Z</time>
      </trkpt>
      <trkpt lat="47.80759" lon="-2.46619">
        <ele>92.7</ele>
        <time>2025-02-11T13:09:27Z</time>
      </trkpt>
      <trkpt lat="47.80758" lon="-2.4662">
        <ele>92.7</ele>
        <time>2025-02-11T13:09:28Z</time>
      </trkpt>
      <trkpt lat="47.80758" lon="-2.46621">
        <ele>92.7</ele>
        <time>2025-02-11T13:09:29Z</time>
      </trkpt>
      <trkpt lat="47.80756" lon="-2.46621">
        <ele>92.6</ele>
        <time>2025-02-11T13:09:30Z</time>
      </trkpt>
      <trkpt lat="47.80755" lon="-2.46621">
        <ele>92.6</ele>
        <time>2025-02-11T13:09:31Z</time>
      </trkpt>
      <trkpt lat="47.80754" lon="-2.46621">
        <ele>92.6</ele>
        <time>2025-02-11T13:09:32Z</time>
      </trkpt>
      <trkpt lat="47.80753" lon="-2.46621">
        <ele>92.6</ele>
        <time>2025-02-11T13:09:33Z</time>
      </trkpt>
      <trkpt lat="47.80752" lon="-2.46621">
        <ele>92.6</ele>
        <time>2025-02-11T13:09:34Z</time>
      </trkpt>
      <trkpt lat="47.80751" lon="-2.46622">
        <ele>92.6</ele>
        <time>2025-02-11T13:09:35Z</time>
      </trkpt>
      <trkpt lat="47.8075" lon="-2.46622">
        <ele>92.6</ele>
        <time>2025-02-11T13:09:36Z</time>
      </trkpt>
      <trkpt lat="47.80749" lon="-2.46622">
        <ele>92.6</ele>
        <time>2025-02-11T13:09:37Z</time>
      </trkpt>
      <trkpt lat="47.80748" lon="-2.46623">
        <ele>92.5</ele>
        <time>2025-02-11T13:09:38Z</time>
      </trkpt>
      <trkpt lat="47.80746" lon="-2.46623">
        <ele>92.5</ele>
        <time>2025-02-11T13:09:39Z</time>
      </trkpt>
      <trkpt lat="47.80745" lon="-2.46623">
        <ele>92.5</ele>
        <time>2025-02-11T13:09:40Z</time>
      </trkpt>
      <trkpt lat="47.80744" lon="-2.46623">
        <ele>92.4</ele>
        <time>2025-02-11T13:09:41Z</time>
      </trkpt>
      <trkpt lat="47.80743" lon="-2.46623">
        <ele>92.4</ele>
        <time>2025-02-11T13:09:42Z</time>
      </trkpt>
      <trkpt lat="47.80741" lon="-2.46624">
        <ele>92.4</ele>
        <time>2025-02-11T13:09:43Z</time>
      </trkpt>
      <trkpt lat="47.8074" lon="-2.46623">
        <ele>92.4</ele>
        <time>2025-02-11T13:09:44Z</time>
      </trkpt>
      <trkpt lat="47.80739" lon="-2.46623">
        <ele>92.3</ele>
        <time>2025-02-11T13:09:45Z</time>
      </trkpt>
      <trkpt lat="47.80738" lon="-2.46623">
        <ele>92.3</ele>
        <time>2025-02-11T13:09:46Z</time>
      </trkpt>
      <trkpt lat="47.80736" lon="-2.46624">
        <ele>92.3</ele>
        <time>2025-02-11T13:09:47Z</time>
      </trkpt>
      <trkpt lat="47.80735" lon="-2.46625">
        <ele>92.2</ele>
        <time>2025-02-11T13:09:48Z</time>
      </trkpt>
      <trkpt lat="47.80734" lon="-2.46626">
        <ele>92.2</ele>
        <time>2025-02-11T13:09:49Z</time>
      </trkpt>
      <trkpt lat="47.80733" lon="-2.46626">
        <ele>92.2</ele>
        <time>2025-02-11T13:09:50Z</time>
      </trkpt>
      <trkpt lat="47.80732" lon="-2.46626">
        <ele>92.2</ele>
        <time>2025-02-11T13:09:51Z</time>
      </trkpt>
      <trkpt lat="47.80731" lon="-2.46626">
        <ele>92.1</ele>
        <time>2025-02-11T13:09:52Z</time>
      </trkpt>
      <trkpt lat="47.80729" lon="-2.46626">
        <ele>92.1</ele>
        <time>2025-02-11T13:09:53Z</time>
      </trkpt>
      <trkpt lat="47.80728" lon="-2.46627">
        <ele>92.1</ele>
        <time>2025-02-11T13:09:54Z</time>
      </trkpt>
      <trkpt lat="47.80727" lon="-2.46626">
        <ele>92.1</ele>
        <time>2025-02-11T13:09:55Z</time>
      </trkpt>
      <trkpt lat="47.80726" lon="-2.46626">
        <ele>92.1</ele>
        <time>2025-02-11T13:09:56Z</time>
      </trkpt>
      <trkpt lat="47.80724" lon="-2.46626">
        <ele>92</ele>
        <time>2025-02-11T13:09:57Z</time>
      </trkpt>
      <trkpt lat="47.80723" lon="-2.46626">
        <ele>92</ele>
        <time>2025-02-11T13:09:58Z</time>
      </trkpt>
      <trkpt lat="47.80722" lon="-2.46627">
        <ele>92</ele>
        <time>2025-02-11T13:09:59Z</time>
      </trkpt>
      <trkpt lat="47.80721" lon="-2.46627">
        <ele>92</ele>
        <time>2025-02-11T13:10:00Z</time>
      </trkpt>
      <trkpt lat="47.8072" lon="-2.46628">
        <ele>92</ele>
        <time>2025-02-11T13:10:01Z</time>
      </trkpt>
      <trkpt lat="47.80718" lon="-2.46628">
        <ele>92</ele>
        <time>2025-02-11T13:10:02Z</time>
      </trkpt>
      <trkpt lat="47.80717" lon="-2.46629">
        <ele>92</ele>
        <time>2025-02-11T13:10:03Z</time>
      </trkpt>
      <trkpt lat="47.80716" lon="-2.46629">
        <ele>92</ele>
        <time>2025-02-11T13:10:04Z</time>
      </trkpt>
      <trkpt lat="47.80715" lon="-2.4663">
        <ele>92</ele>
        <time>2025-02-11T13:10:05Z</time>
      </trkpt>
      <trkpt lat="47.80714" lon="-2.46631">
        <ele>92</ele>
        <time>2025-02-11T13:10:06Z</time>
      </trkpt>
      <trkpt lat="47.80713" lon="-2.46632">
        <ele>92</ele>
        <time>2025-02-11T13:10:07Z</time>
      </trkpt>
      <trkpt lat="47.80712" lon="-2.46633">
        <ele>92</ele>
        <time>2025-02-11T13:10:08Z</time>
      </trkpt>
      <trkpt lat="47.80712" lon="-2.46634">
        <ele>92</ele>
        <time>2025-02-11T13:10:09Z</time>
      </trkpt>
      <trkpt lat="47.8071" lon="-2.46634">
        <ele>92</ele>
        <time>2025-02-11T13:10:10Z</time>
      </trkpt>
      <trkpt lat="47.80709" lon="-2.46635">
        <ele>92</ele>
        <time>2025-02-11T13:10:11Z</time>
      </trkpt>
      <trkpt lat="47.80708" lon="-2.46634">
        <ele>92</ele>
        <time>2025-02-11T13:10:12Z</time>
      </trkpt>
      <trkpt lat="47.80706" lon="-2.46634">
        <ele>92</ele>
        <time>2025-02-11T13:10:13Z</time>
      </trkpt>
      <trkpt lat="47.80705" lon="-2.46635">
        <ele>92</ele>
        <time>2025-02-11T13:10:14Z</time>
      </trkpt>
      <trkpt lat="47.80704" lon="-2.46635">
        <ele>92</ele>
        <time>2025-02-11T13:10:15Z</time>
      </trkpt>
      <trkpt lat="47.80703" lon="-2.46636">
        <ele>92</ele>
        <time>2025-02-11T13:10:16Z</time>
      </trkpt>
      <trkpt lat="47.80702" lon="-2.46637">
        <ele>92</ele>
        <time>2025-02-11T13:10:17Z</time>
      </trkpt>
      <trkpt lat="47.80701" lon="-2.46636">
        <ele>92</ele>
        <time>2025-02-11T13:10:18Z</time>
      </trkpt>
      <trkpt lat="47.807" lon="-2.46637">
        <ele>92</ele>
        <time>2025-02-11T13:10:19Z</time>
      </trkpt>
      <trkpt lat="47.80699" lon="-2.46636">
        <ele>92</ele>
        <time>2025-02-11T13:10:20Z</time>
      </trkpt>
      <trkpt lat="47.80698" lon="-2.46635">
        <ele>92</ele>
        <time>2025-02-11T13:10:21Z</time>
      </trkpt>
      <trkpt lat="47.80697" lon="-2.46634">
        <ele>92</ele>
        <time>2025-02-11T13:10:22Z</time>
      </trkpt>
      <trkpt lat="47.80696" lon="-2.46632">
        <ele>92</ele>
        <time>2025-02-11T13:10:23Z</time>
      </trkpt>
      <trkpt lat="47.80696" lon="-2.4663">
        <ele>92</ele>
        <time>2025-02-11T13:10:24Z</time>
      </trkpt>
      <trkpt lat="47.80696" lon="-2.46628">
        <ele>92</ele>
        <time>2025-02-11T13:10:25Z</time>
      </trkpt>
      <trkpt lat="47.80695" lon="-2.46627">
        <ele>92</ele>
        <time>2025-02-11T13:10:26Z</time>
      </trkpt>
      <trkpt lat="47.80695" lon="-2.46626">
        <ele>92</ele>
        <time>2025-02-11T13:10:27Z</time>
      </trkpt>
      <trkpt lat="47.80694" lon="-2.46624">
        <ele>92</ele>
        <time>2025-02-11T13:10:28Z</time>
      </trkpt>
      <trkpt lat="47.80693" lon="-2.46623">
        <ele>92</ele>
        <time>2025-02-11T13:10:29Z</time>
      </trkpt>
      <trkpt lat="47.80692" lon="-2.46622">
        <ele>92</ele>
        <time>2025-02-11T13:10:30Z</time>
      </trkpt>
      <trkpt lat="47.80691" lon="-2.46622">
        <ele>91.9</ele>
        <time>2025-02-11T13:10:31Z</time>
      </trkpt>
      <trkpt lat="47.8069" lon="-2.46622">
        <ele>91.9</ele>
        <time>2025-02-11T13:10:32Z</time>
      </trkpt>
      <trkpt lat="47.80688" lon="-2.46622">
        <ele>91.9</ele>
        <time>2025-02-11T13:10:33Z</time>
      </trkpt>
      <trkpt lat="47.80688" lon="-2.4662">
        <ele>91.9</ele>
        <time>2025-02-11T13:10:34Z</time>
      </trkpt>
      <trkpt lat="47.80687" lon="-2.46619">
        <ele>91.9</ele>
        <time>2025-02-11T13:10:35Z</time>
      </trkpt>
      <trkpt lat="47.80686" lon="-2.46619">
        <ele>91.9</ele>
        <time>2025-02-11T13:10:36Z</time>
      </trkpt>
      <trkpt lat="47.80684" lon="-2.46619">
        <ele>91.9</ele>
        <time>2025-02-11T13:10:37Z</time>
      </trkpt>
      <trkpt lat="47.80684" lon="-2.46617">
        <ele>91.9</ele>
        <time>2025-02-11T13:10:38Z</time>
      </trkpt>
      <trkpt lat="47.80682" lon="-2.46616">
        <ele>91.9</ele>
        <time>2025-02-11T13:10:39Z</time>
      </trkpt>
      <trkpt lat="47.80681" lon="-2.46615">
        <ele>91.9</ele>
        <time>2025-02-11T13:10:40Z</time>
      </trkpt>
      <trkpt lat="47.8068" lon="-2.46614">
        <ele>91.9</ele>
        <time>2025-02-11T13:10:41Z</time>
      </trkpt>
      <trkpt lat="47.8068" lon="-2.46613">
        <ele>92</ele>
        <time>2025-02-11T13:10:42Z</time>
      </trkpt>
      <trkpt lat="47.80679" lon="-2.46612">
        <ele>92</ele>
        <time>2025-02-11T13:10:43Z</time>
      </trkpt>
      <trkpt lat="47.80678" lon="-2.46611">
        <ele>92</ele>
        <time>2025-02-11T13:10:44Z</time>
      </trkpt>
      <trkpt lat="47.80677" lon="-2.46611">
        <ele>92</ele>
        <time>2025-02-11T13:10:45Z</time>
      </trkpt>
      <trkpt lat="47.80675" lon="-2.46611">
        <ele>92</ele>
        <time>2025-02-11T13:10:46Z</time>
      </trkpt>
      <trkpt lat="47.80674" lon="-2.46611">
        <ele>92</ele>
        <time>2025-02-11T13:10:47Z</time>
      </trkpt>
      <trkpt lat="47.80673" lon="-2.46611">
        <ele>92</ele>
        <time>2025-02-11T13:10:48Z</time>
      </trkpt>
      <trkpt lat="47.80672" lon="-2.4661">
        <ele>92</ele>
        <time>2025-02-11T13:10:49Z</time>
      </trkpt>
      <trkpt lat="47.80671" lon="-2.4661">
        <ele>92</ele>
        <time>2025-02-11T13:10:50Z</time>
      </trkpt>
      <trkpt lat="47.8067" lon="-2.46609">
        <ele>92</ele>
        <time>2025-02-11T13:10:51Z</time>
      </trkpt>
      <trkpt lat="47.80669" lon="-2.46608">
        <ele>92</ele>
        <time>2025-02-11T13:10:52Z</time>
      </trkpt>
      <trkpt lat="47.80668" lon="-2.46607">
        <ele>92</ele>
        <time>2025-02-11T13:10:53Z</time>
      </trkpt>
      <trkpt lat="47.80667" lon="-2.46606">
        <ele>92</ele>
        <time>2025-02-11T13:10:54Z</time>
      </trkpt>
      <trkpt lat="47.80667" lon="-2.46605">
        <ele>92</ele>
        <time>2025-02-11T13:10:55Z</time>
      </trkpt>
      <trkpt lat="47.80666" lon="-2.46603">
        <ele>92</ele>
        <time>2025-02-11T13:10:56Z</time>
      </trkpt>
      <trkpt lat="47.80665" lon="-2.46602">
        <ele>92</ele>
        <time>2025-02-11T13:10:57Z</time>
      </trkpt>
      <trkpt lat="47.80664" lon="-2.46601">
        <ele>91.9</ele>
        <time>2025-02-11T13:10:58Z</time>
      </trkpt>
      <trkpt lat="47.80663" lon="-2.466">
        <ele>91.9</ele>
        <time>2025-02-11T13:10:59Z</time>
      </trkpt>
      <trkpt lat="47.80663" lon="-2.46598">
        <ele>91.9</ele>
        <time>2025-02-11T13:11:00Z</time>
      </trkpt>
      <trkpt lat="47.80662" lon="-2.46597">
        <ele>91.9</ele>
        <time>2025-02-11T13:11:01Z</time>
      </trkpt>
      <trkpt lat="47.80661" lon="-2.46595">
        <ele>91.9</ele>
        <time>2025-02-11T13:11:02Z</time>
      </trkpt>
      <trkpt lat="47.8066" lon="-2.46594">
        <ele>91.9</ele>
        <time>2025-02-11T13:11:03Z</time>
      </trkpt>
      <trkpt lat="47.80659" lon="-2.46594">
        <ele>91.9</ele>
        <time>2025-02-11T13:11:04Z</time>
      </trkpt>
      <trkpt lat="47.80658" lon="-2.46593">
        <ele>91.9</ele>
        <time>2025-02-11T13:11:05Z</time>
      </trkpt>
      <trkpt lat="47.80657" lon="-2.46592">
        <ele>91.9</ele>
        <time>2025-02-11T13:11:06Z</time>
      </trkpt>
      <trkpt lat="47.80656" lon="-2.4659">
        <ele>91.9</ele>
        <time>2025-02-11T13:11:07Z</time>
      </trkpt>
      <trkpt lat="47.80655" lon="-2.46589">
        <ele>91.9</ele>
        <time>2025-02-11T13:11:08Z</time>
      </trkpt>
      <trkpt lat="47.80654" lon="-2.46588">
        <ele>91.9</ele>
        <time>2025-02-11T13:11:09Z</time>
      </trkpt>
      <trkpt lat="47.80653" lon="-2.46587">
        <ele>91.9</ele>
        <time>2025-02-11T13:11:10Z</time>
      </trkpt>
      <trkpt lat="47.80652" lon="-2.46586">
        <ele>91.9</ele>
        <time>2025-02-11T13:11:11Z</time>
      </trkpt>
      <trkpt lat="47.80651" lon="-2.46585">
        <ele>92</ele>
        <time>2025-02-11T13:11:12Z</time>
      </trkpt>
      <trkpt lat="47.80649" lon="-2.46584">
        <ele>92</ele>
        <time>2025-02-11T13:11:13Z</time>
      </trkpt>
      <trkpt lat="47.80648" lon="-2.46584">
        <ele>92</ele>
        <time>2025-02-11T13:11:14Z</time>
      </trkpt>
      <trkpt lat="47.80647" lon="-2.46584">
        <ele>92</ele>
        <time>2025-02-11T13:11:15Z</time>
      </trkpt>
      <trkpt lat="47.80646" lon="-2.46583">
        <ele>92</ele>
        <time>2025-02-11T13:11:16Z</time>
      </trkpt>
      <trkpt lat="47.80645" lon="-2.46583">
        <ele>92</ele>
        <time>2025-02-11T13:11:17Z</time>
      </trkpt>
      <trkpt lat="47.80644" lon="-2.46583">
        <ele>92</ele>
        <time>2025-02-11T13:11:18Z</time>
      </trkpt>
      <trkpt lat="47.80643" lon="-2.46582">
        <ele>92</ele>
        <time>2025-02-11T13:11:19Z</time>
      </trkpt>
      <trkpt lat="47.80642" lon="-2.46581">
        <ele>92</ele>
        <time>2025-02-11T13:11:20Z</time>
      </trkpt>
      <trkpt lat="47.80641" lon="-2.46579">
        <ele>92</ele>
        <time>2025-02-11T13:11:21Z</time>
      </trkpt>
      <trkpt lat="47.8064" lon="-2.46578">
        <ele>92</ele>
        <time>2025-02-11T13:11:22Z</time>
      </trkpt>
      <trkpt lat="47.80639" lon="-2.46577">
        <ele>92</ele>
        <time>2025-02-11T13:11:23Z</time>
      </trkpt>
      <trkpt lat="47.80638" lon="-2.46576">
        <ele>91.9</ele>
        <time>2025-02-11T13:11:24Z</time>
      </trkpt>
      <trkpt lat="47.80637" lon="-2.46575">
        <ele>91.9</ele>
        <time>2025-02-11T13:11:25Z</time>
      </trkpt>
      <trkpt lat="47.80636" lon="-2.46573">
        <ele>91.8</ele>
        <time>2025-02-11T13:11:26Z</time>
      </trkpt>
      <trkpt lat="47.80636" lon="-2.46572">
        <ele>91.8</ele>
        <time>2025-02-11T13:11:27Z</time>
      </trkpt>
      <trkpt lat="47.80635" lon="-2.4657">
        <ele>91.8</ele>
        <time>2025-02-11T13:11:28Z</time>
      </trkpt>
      <trkpt lat="47.80634" lon="-2.46569">
        <ele>91.7</ele>
        <time>2025-02-11T13:11:29Z</time>
      </trkpt>
      <trkpt lat="47.80634" lon="-2.46567">
        <ele>91.7</ele>
        <time>2025-02-11T13:11:30Z</time>
      </trkpt>
      <trkpt lat="47.80633" lon="-2.46566">
        <ele>91.7</ele>
        <time>2025-02-11T13:11:31Z</time>
      </trkpt>
      <trkpt lat="47.80632" lon="-2.46564">
        <ele>91.7</ele>
        <time>2025-02-11T13:11:32Z</time>
      </trkpt>
      <trkpt lat="47.80632" lon="-2.46563">
        <ele>91.7</ele>
        <time>2025-02-11T13:11:33Z</time>
      </trkpt>
      <trkpt lat="47.80631" lon="-2.46562">
        <ele>91.6</ele>
        <time>2025-02-11T13:11:34Z</time>
      </trkpt>
      <trkpt lat="47.8063" lon="-2.4656">
        <ele>91.6</ele>
        <time>2025-02-11T13:11:35Z</time>
      </trkpt>
      <trkpt lat="47.80629" lon="-2.46559">
        <ele>91.6</ele>
        <time>2025-02-11T13:11:36Z</time>
      </trkpt>
      <trkpt lat="47.80628" lon="-2.46559">
        <ele>91.5</ele>
        <time>2025-02-11T13:11:37Z</time>
      </trkpt>
      <trkpt lat="47.80626" lon="-2.46559">
        <ele>91.5</ele>
        <time>2025-02-11T13:11:38Z</time>
      </trkpt>
      <trkpt lat="47.80625" lon="-2.46559">
        <ele>91.4</ele>
        <time>2025-02-11T13:11:39Z</time>
      </trkpt>
      <trkpt lat="47.80624" lon="-2.46558">
        <ele>91.4</ele>
        <time>2025-02-11T13:11:40Z</time>
      </trkpt>
      <trkpt lat="47.80622" lon="-2.46558">
        <ele>91.4</ele>
        <time>2025-02-11T13:11:41Z</time>
      </trkpt>
      <trkpt lat="47.80621" lon="-2.46558">
        <ele>91.3</ele>
        <time>2025-02-11T13:11:42Z</time>
      </trkpt>
      <trkpt lat="47.8062" lon="-2.46558">
        <ele>91.3</ele>
        <time>2025-02-11T13:11:43Z</time>
      </trkpt>
      <trkpt lat="47.80619" lon="-2.46558">
        <ele>91.2</ele>
        <time>2025-02-11T13:11:44Z</time>
      </trkpt>
      <trkpt lat="47.80618" lon="-2.46558">
        <ele>91.2</ele>
        <time>2025-02-11T13:11:45Z</time>
      </trkpt>
      <trkpt lat="47.80617" lon="-2.46557">
        <ele>91.2</ele>
        <time>2025-02-11T13:11:46Z</time>
      </trkpt>
      <trkpt lat="47.80616" lon="-2.46555">
        <ele>91.2</ele>
        <time>2025-02-11T13:11:47Z</time>
      </trkpt>
      <trkpt lat="47.80615" lon="-2.46554">
        <ele>91.1</ele>
        <time>2025-02-11T13:11:48Z</time>
      </trkpt>
      <trkpt lat="47.80614" lon="-2.46553">
        <ele>91.1</ele>
        <time>2025-02-11T13:11:49Z</time>
      </trkpt>
      <trkpt lat="47.80614" lon="-2.46551">
        <ele>91.1</ele>
        <time>2025-02-11T13:11:50Z</time>
      </trkpt>
      <trkpt lat="47.80613" lon="-2.4655">
        <ele>91.1</ele>
        <time>2025-02-11T13:11:51Z</time>
      </trkpt>
      <trkpt lat="47.80612" lon="-2.46549">
        <ele>91</ele>
        <time>2025-02-11T13:11:52Z</time>
      </trkpt>
      <trkpt lat="47.80611" lon="-2.46548">
        <ele>91</ele>
        <time>2025-02-11T13:11:53Z</time>
      </trkpt>
      <trkpt lat="47.8061" lon="-2.46547">
        <ele>90.9</ele>
        <time>2025-02-11T13:11:54Z</time>
      </trkpt>
      <trkpt lat="47.80609" lon="-2.46546">
        <ele>90.9</ele>
        <time>2025-02-11T13:11:55Z</time>
      </trkpt>
      <trkpt lat="47.80608" lon="-2.46544">
        <ele>90.8</ele>
        <time>2025-02-11T13:11:56Z</time>
      </trkpt>
      <trkpt lat="47.80608" lon="-2.46542">
        <ele>90.8</ele>
        <time>2025-02-11T13:11:57Z</time>
      </trkpt>
      <trkpt lat="47.80607" lon="-2.46541">
        <ele>90.8</ele>
        <time>2025-02-11T13:11:58Z</time>
      </trkpt>
      <trkpt lat="47.80607" lon="-2.46539">
        <ele>90.8</ele>
        <time>2025-02-11T13:11:59Z</time>
      </trkpt>
      <trkpt lat="47.80607" lon="-2.46537">
        <ele>90.8</ele>
        <time>2025-02-11T13:12:00Z</time>
      </trkpt>
      <trkpt lat="47.80606" lon="-2.46535">
        <ele>90.8</ele>
        <time>2025-02-11T13:12:01Z</time>
      </trkpt>
      <trkpt lat="47.80607" lon="-2.46533">
        <ele>90.8</ele>
        <time>2025-02-11T13:12:02Z</time>
      </trkpt>
      <trkpt lat="47.80607" lon="-2.46532">
        <ele>90.8</ele>
        <time>2025-02-11T13:12:03Z</time>
      </trkpt>
      <trkpt lat="47.80608" lon="-2.4653">
        <ele>90.9</ele>
        <time>2025-02-11T13:12:04Z</time>
      </trkpt>
      <trkpt lat="47.80608" lon="-2.46528">
        <ele>90.9</ele>
        <time>2025-02-11T13:12:05Z</time>
      </trkpt>
      <trkpt lat="47.80608" lon="-2.46526">
        <ele>90.9</ele>
        <time>2025-02-11T13:12:06Z</time>
      </trkpt>
      <trkpt lat="47.80609" lon="-2.46524">
        <ele>90.9</ele>
        <time>2025-02-11T13:12:07Z</time>
      </trkpt>
      <trkpt lat="47.80609" lon="-2.46522">
        <ele>90.9</ele>
        <time>2025-02-11T13:12:08Z</time>
      </trkpt>
      <trkpt lat="47.80609" lon="-2.4652">
        <ele>90.9</ele>
        <time>2025-02-11T13:12:09Z</time>
      </trkpt>
      <trkpt lat="47.80609" lon="-2.46519">
        <ele>90.9</ele>
        <time>2025-02-11T13:12:10Z</time>
      </trkpt>
      <trkpt lat="47.80609" lon="-2.46517">
        <ele>90.9</ele>
        <time>2025-02-11T13:12:11Z</time>
      </trkpt>
      <trkpt lat="47.80608" lon="-2.46515">
        <ele>90.9</ele>
        <time>2025-02-11T13:12:12Z</time>
      </trkpt>
      <trkpt lat="47.80607" lon="-2.46513">
        <ele>90.9</ele>
        <time>2025-02-11T13:12:13Z</time>
      </trkpt>
      <trkpt lat="47.80607" lon="-2.46511">
        <ele>90.9</ele>
        <time>2025-02-11T13:12:14Z</time>
      </trkpt>
      <trkpt lat="47.80607" lon="-2.4651">
        <ele>90.8</ele>
        <time>2025-02-11T13:12:15Z</time>
      </trkpt>
      <trkpt lat="47.80607" lon="-2.46508">
        <ele>90.8</ele>
        <time>2025-02-11T13:12:16Z</time>
      </trkpt>
      <trkpt lat="47.80606" lon="-2.46506">
        <ele>90.8</ele>
        <time>2025-02-11T13:12:17Z</time>
      </trkpt>
      <trkpt lat="47.80606" lon="-2.46504">
        <ele>90.8</ele>
        <time>2025-02-11T13:12:18Z</time>
      </trkpt>
      <trkpt lat="47.80605" lon="-2.46503">
        <ele>90.8</ele>
        <time>2025-02-11T13:12:19Z</time>
      </trkpt>
      <trkpt lat="47.80605" lon="-2.46501">
        <ele>90.8</ele>
        <time>2025-02-11T13:12:20Z</time>
      </trkpt>
      <trkpt lat="47.80604" lon="-2.465">
        <ele>90.8</ele>
        <time>2025-02-11T13:12:21Z</time>
      </trkpt>
      <trkpt lat="47.80603" lon="-2.46498">
        <ele>90.7</ele>
        <time>2025-02-11T13:12:22Z</time>
      </trkpt>
      <trkpt lat="47.80602" lon="-2.46497">
        <ele>90.7</ele>
        <time>2025-02-11T13:12:23Z</time>
      </trkpt>
      <trkpt lat="47.80601" lon="-2.46496">
        <ele>90.7</ele>
        <time>2025-02-11T13:12:24Z</time>
      </trkpt>
      <trkpt lat="47.80601" lon="-2.46495">
        <ele>90.7</ele>
        <time>2025-02-11T13:12:25Z</time>
      </trkpt>
      <trkpt lat="47.806" lon="-2.46493">
        <ele>90.7</ele>
        <time>2025-02-11T13:12:26Z</time>
      </trkpt>
      <trkpt lat="47.806" lon="-2.46491">
        <ele>90.7</ele>
        <time>2025-02-11T13:12:27Z</time>
      </trkpt>
      <trkpt lat="47.80599" lon="-2.4649">
        <ele>90.7</ele>
        <time>2025-02-11T13:12:28Z</time>
      </trkpt>
      <trkpt lat="47.80599" lon="-2.46488">
        <ele>90.7</ele>
        <time>2025-02-11T13:12:29Z</time>
      </trkpt>
      <trkpt lat="47.80599" lon="-2.46486">
        <ele>90.8</ele>
        <time>2025-02-11T13:12:30Z</time>
      </trkpt>
      <trkpt lat="47.806" lon="-2.46484">
        <ele>90.8</ele>
        <time>2025-02-11T13:12:31Z</time>
      </trkpt>
      <trkpt lat="47.806" lon="-2.46483">
        <ele>90.9</ele>
        <time>2025-02-11T13:12:32Z</time>
      </trkpt>
      <trkpt lat="47.80601" lon="-2.46481">
        <ele>90.9</ele>
        <time>2025-02-11T13:12:33Z</time>
      </trkpt>
      <trkpt lat="47.80602" lon="-2.4648">
        <ele>90.9</ele>
        <time>2025-02-11T13:12:34Z</time>
      </trkpt>
      <trkpt lat="47.80603" lon="-2.4648">
        <ele>90.9</ele>
        <time>2025-02-11T13:12:35Z</time>
      </trkpt>
      <trkpt lat="47.80605" lon="-2.46479">
        <ele>90.9</ele>
        <time>2025-02-11T13:12:36Z</time>
      </trkpt>
      <trkpt lat="47.80606" lon="-2.46479">
        <ele>91</ele>
        <time>2025-02-11T13:12:37Z</time>
      </trkpt>
      <trkpt lat="47.80608" lon="-2.46479">
        <ele>91</ele>
        <time>2025-02-11T13:12:38Z</time>
      </trkpt>
      <trkpt lat="47.80609" lon="-2.46479">
        <ele>91</ele>
        <time>2025-02-11T13:12:39Z</time>
      </trkpt>
      <trkpt lat="47.8061" lon="-2.46479">
        <ele>91</ele>
        <time>2025-02-11T13:12:40Z</time>
      </trkpt>
      <trkpt lat="47.80611" lon="-2.46478">
        <ele>91</ele>
        <time>2025-02-11T13:12:41Z</time>
      </trkpt>
      <trkpt lat="47.80612" lon="-2.46476">
        <ele>91</ele>
        <time>2025-02-11T13:12:42Z</time>
      </trkpt>
      <trkpt lat="47.80612" lon="-2.46475">
        <ele>91.1</ele>
        <time>2025-02-11T13:12:43Z</time>
      </trkpt>
      <trkpt lat="47.80612" lon="-2.46475">
        <ele>91.1</ele>
        <time>2025-02-11T13:12:44Z</time>
      </trkpt>
      <trkpt lat="47.80612" lon="-2.46473">
        <ele>91.1</ele>
        <time>2025-02-11T13:12:45Z</time>
      </trkpt>
      <trkpt lat="47.80612" lon="-2.46472">
        <ele>91.1</ele>
        <time>2025-02-11T13:12:46Z</time>
      </trkpt>
      <trkpt lat="47.80614" lon="-2.46471">
        <ele>91.2</ele>
        <time>2025-02-11T13:12:47Z</time>
      </trkpt>
      <trkpt lat="47.80614" lon="-2.46471">
        <ele>91.3</ele>
        <time>2025-02-11T13:12:48Z</time>
      </trkpt>
      <trkpt lat="47.80615" lon="-2.4647">
        <ele>91.4</ele>
        <time>2025-02-11T13:12:49Z</time>
      </trkpt>
      <trkpt lat="47.80616" lon="-2.4647">
        <ele>91.4</ele>
        <time>2025-02-11T13:12:50Z</time>
      </trkpt>
      <trkpt lat="47.80617" lon="-2.4647">
        <ele>91.5</ele>
        <time>2025-02-11T13:12:51Z</time>
      </trkpt>
      <trkpt lat="47.80618" lon="-2.46469">
        <ele>91.6</ele>
        <time>2025-02-11T13:12:52Z</time>
      </trkpt>
      <trkpt lat="47.80619" lon="-2.46469">
        <ele>91.6</ele>
        <time>2025-02-11T13:12:53Z</time>
      </trkpt>
      <trkpt lat="47.8062" lon="-2.4647">
        <ele>91.7</ele>
        <time>2025-02-11T13:12:54Z</time>
      </trkpt>
      <trkpt lat="47.80621" lon="-2.4647">
        <ele>91.8</ele>
        <time>2025-02-11T13:12:55Z</time>
      </trkpt>
      <trkpt lat="47.80622" lon="-2.4647">
        <ele>91.8</ele>
        <time>2025-02-11T13:12:56Z</time>
      </trkpt>
      <trkpt lat="47.80623" lon="-2.46471">
        <ele>91.9</ele>
        <time>2025-02-11T13:12:57Z</time>
      </trkpt>
      <trkpt lat="47.80624" lon="-2.46471">
        <ele>92</ele>
        <time>2025-02-11T13:12:58Z</time>
      </trkpt>
      <trkpt lat="47.80625" lon="-2.46471">
        <ele>92</ele>
        <time>2025-02-11T13:12:59Z</time>
      </trkpt>
      <trkpt lat="47.80625" lon="-2.46472">
        <ele>92</ele>
        <time>2025-02-11T13:13:00Z</time>
      </trkpt>
      <trkpt lat="47.80626" lon="-2.46473">
        <ele>92.1</ele>
        <time>2025-02-11T13:13:01Z</time>
      </trkpt>
      <trkpt lat="47.80627" lon="-2.46473">
        <ele>92.1</ele>
        <time>2025-02-11T13:13:02Z</time>
      </trkpt>
      <trkpt lat="47.80627" lon="-2.46474">
        <ele>92.2</ele>
        <time>2025-02-11T13:13:03Z</time>
      </trkpt>
      <trkpt lat="47.80628" lon="-2.46474">
        <ele>92.2</ele>
        <time>2025-02-11T13:13:04Z</time>
      </trkpt>
      <trkpt lat="47.80629" lon="-2.46475">
        <ele>92.3</ele>
        <time>2025-02-11T13:13:05Z</time>
      </trkpt>
      <trkpt lat="47.8063" lon="-2.46475">
        <ele>92.4</ele>
        <time>2025-02-11T13:13:06Z</time>
      </trkpt>
      <trkpt lat="47.80631" lon="-2.46475">
        <ele>92.4</ele>
        <time>2025-02-11T13:13:07Z</time>
      </trkpt>
      <trkpt lat="47.80632" lon="-2.46475">
        <ele>92.5</ele>
        <time>2025-02-11T13:13:08Z</time>
      </trkpt>
      <trkpt lat="47.80633" lon="-2.46475">
        <ele>92.6</ele>
        <time>2025-02-11T13:13:09Z</time>
      </trkpt>
      <trkpt lat="47.80633" lon="-2.46476">
        <ele>92.6</ele>
        <time>2025-02-11T13:13:10Z</time>
      </trkpt>
      <trkpt lat="47.80634" lon="-2.46476">
        <ele>92.7</ele>
        <time>2025-02-11T13:13:11Z</time>
      </trkpt>
      <trkpt lat="47.80635" lon="-2.46475">
        <ele>92.7</ele>
        <time>2025-02-11T13:13:12Z</time>
      </trkpt>
      <trkpt lat="47.80636" lon="-2.46475">
        <ele>92.8</ele>
        <time>2025-02-11T13:13:13Z</time>
      </trkpt>
      <trkpt lat="47.80637" lon="-2.46475">
        <ele>92.8</ele>
        <time>2025-02-11T13:13:14Z</time>
      </trkpt>
      <trkpt lat="47.80637" lon="-2.46475">
        <ele>92.9</ele>
        <time>2025-02-11T13:13:15Z</time>
      </trkpt>
      <trkpt lat="47.80639" lon="-2.46475">
        <ele>93</ele>
        <time>2025-02-11T13:13:16Z</time>
      </trkpt>
      <trkpt lat="47.8064" lon="-2.46475">
        <ele>93</ele>
        <time>2025-02-11T13:13:17Z</time>
      </trkpt>
      <trkpt lat="47.8064" lon="-2.46474">
        <ele>93</ele>
        <time>2025-02-11T13:13:18Z</time>
      </trkpt>
      <trkpt lat="47.80641" lon="-2.46474">
        <ele>93</ele>
        <time>2025-02-11T13:13:19Z</time>
      </trkpt>
      <trkpt lat="47.80642" lon="-2.46474">
        <ele>93</ele>
        <time>2025-02-11T13:13:20Z</time>
      </trkpt>
      <trkpt lat="47.80643" lon="-2.46475">
        <ele>93</ele>
        <time>2025-02-11T13:13:21Z</time>
      </trkpt>
      <trkpt lat="47.80644" lon="-2.46475">
        <ele>93</ele>
        <time>2025-02-11T13:13:22Z</time>
      </trkpt>
      <trkpt lat="47.80645" lon="-2.46474">
        <ele>93</ele>
        <time>2025-02-11T13:13:23Z</time>
      </trkpt>
      <trkpt lat="47.80646" lon="-2.46474">
        <ele>93</ele>
        <time>2025-02-11T13:13:24Z</time>
      </trkpt>
      <trkpt lat="47.80647" lon="-2.46474">
        <ele>93</ele>
        <time>2025-02-11T13:13:25Z</time>
      </trkpt>
      <trkpt lat="47.80648" lon="-2.46473">
        <ele>93</ele>
        <time>2025-02-11T13:13:26Z</time>
      </trkpt>
      <trkpt lat="47.80649" lon="-2.46472">
        <ele>93</ele>
        <time>2025-02-11T13:13:27Z</time>
      </trkpt>
      <trkpt lat="47.80649" lon="-2.46472">
        <ele>93</ele>
        <time>2025-02-11T13:13:28Z</time>
      </trkpt>
      <trkpt lat="47.8065" lon="-2.46472">
        <ele>93</ele>
        <time>2025-02-11T13:13:29Z</time>
      </trkpt>
      <trkpt lat="47.80652" lon="-2.46473">
        <ele>93</ele>
        <time>2025-02-11T13:13:30Z</time>
      </trkpt>
      <trkpt lat="47.80653" lon="-2.46473">
        <ele>93</ele>
        <time>2025-02-11T13:13:31Z</time>
      </trkpt>
      <trkpt lat="47.80654" lon="-2.46472">
        <ele>93</ele>
        <time>2025-02-11T13:13:32Z</time>
      </trkpt>
      <trkpt lat="47.80655" lon="-2.46473">
        <ele>93</ele>
        <time>2025-02-11T13:13:33Z</time>
      </trkpt>
      <trkpt lat="47.80656" lon="-2.46472">
        <ele>93</ele>
        <time>2025-02-11T13:13:34Z</time>
      </trkpt>
      <trkpt lat="47.80657" lon="-2.46472">
        <ele>93</ele>
        <time>2025-02-11T13:13:35Z</time>
      </trkpt>
      <trkpt lat="47.80658" lon="-2.46473">
        <ele>93</ele>
        <time>2025-02-11T13:13:36Z</time>
      </trkpt>
      <trkpt lat="47.80658" lon="-2.46473">
        <ele>93</ele>
        <time>2025-02-11T13:13:37Z</time>
      </trkpt>
      <trkpt lat="47.80659" lon="-2.46473">
        <ele>93</ele>
        <time>2025-02-11T13:13:38Z</time>
      </trkpt>
      <trkpt lat="47.80661" lon="-2.46473">
        <ele>93</ele>
        <time>2025-02-11T13:13:39Z</time>
      </trkpt>
      <trkpt lat="47.80661" lon="-2.46473">
        <ele>93</ele>
        <time>2025-02-11T13:13:40Z</time>
      </trkpt>
      <trkpt lat="47.80661" lon="-2.46473">
        <ele>93</ele>
        <time>2025-02-11T13:13:41Z</time>
      </trkpt>
      <trkpt lat="47.80662" lon="-2.46473">
        <ele>93</ele>
        <time>2025-02-11T13:13:42Z</time>
      </trkpt>
      <trkpt lat="47.80662" lon="-2.46473">
        <ele>93</ele>
        <time>2025-02-11T13:13:43Z</time>
      </trkpt>
      <trkpt lat="47.80663" lon="-2.46472">
        <ele>93</ele>
        <time>2025-02-11T13:13:44Z</time>
      </trkpt>
      <trkpt lat="47.80664" lon="-2.46471">
        <ele>93.1</ele>
        <time>2025-02-11T13:13:45Z</time>
      </trkpt>
      <trkpt lat="47.80665" lon="-2.4647">
        <ele>93.1</ele>
        <time>2025-02-11T13:13:46Z</time>
      </trkpt>
      <trkpt lat="47.80667" lon="-2.4647">
        <ele>93.1</ele>
        <time>2025-02-11T13:13:47Z</time>
      </trkpt>
      <trkpt lat="47.80668" lon="-2.46469">
        <ele>93.2</ele>
        <time>2025-02-11T13:13:48Z</time>
      </trkpt>
      <trkpt lat="47.80669" lon="-2.46469">
        <ele>93.2</ele>
        <time>2025-02-11T13:13:49Z</time>
      </trkpt>
      <trkpt lat="47.8067" lon="-2.46469">
        <ele>93.2</ele>
        <time>2025-02-11T13:13:50Z</time>
      </trkpt>
      <trkpt lat="47.80672" lon="-2.46468">
        <ele>93.3</ele>
        <time>2025-02-11T13:13:51Z</time>
      </trkpt>
      <trkpt lat="47.80674" lon="-2.46467">
        <ele>93.4</ele>
        <time>2025-02-11T13:13:52Z</time>
      </trkpt>
      <trkpt lat="47.80674" lon="-2.46467">
        <ele>93.4</ele>
        <time>2025-02-11T13:13:53Z</time>
      </trkpt>
      <trkpt lat="47.80675" lon="-2.46467">
        <ele>93.4</ele>
        <time>2025-02-11T13:13:54Z</time>
      </trkpt>
      <trkpt lat="47.80677" lon="-2.46467">
        <ele>93.5</ele>
        <time>2025-02-11T13:13:55Z</time>
      </trkpt>
      <trkpt lat="47.80678" lon="-2.46467">
        <ele>93.5</ele>
        <time>2025-02-11T13:13:56Z</time>
      </trkpt>
      <trkpt lat="47.80679" lon="-2.46466">
        <ele>93.6</ele>
        <time>2025-02-11T13:13:57Z</time>
      </trkpt>
      <trkpt lat="47.80681" lon="-2.46466">
        <ele>93.6</ele>
        <time>2025-02-11T13:13:58Z</time>
      </trkpt>
      <trkpt lat="47.80682" lon="-2.46466">
        <ele>93.7</ele>
        <time>2025-02-11T13:13:59Z</time>
      </trkpt>
      <trkpt lat="47.80683" lon="-2.46465">
        <ele>93.7</ele>
        <time>2025-02-11T13:14:00Z</time>
      </trkpt>
      <trkpt lat="47.80684" lon="-2.46465">
        <ele>93.7</ele>
        <time>2025-02-11T13:14:01Z</time>
      </trkpt>
      <trkpt lat="47.80686" lon="-2.46466">
        <ele>93.8</ele>
        <time>2025-02-11T13:14:02Z</time>
      </trkpt>
      <trkpt lat="47.80687" lon="-2.46466">
        <ele>93.8</ele>
        <time>2025-02-11T13:14:03Z</time>
      </trkpt>
      <trkpt lat="47.80688" lon="-2.46466">
        <ele>93.8</ele>
        <time>2025-02-11T13:14:04Z</time>
      </trkpt>
      <trkpt lat="47.80689" lon="-2.46465">
        <ele>93.9</ele>
        <time>2025-02-11T13:14:05Z</time>
      </trkpt>
      <trkpt lat="47.8069" lon="-2.46464">
        <ele>93.9</ele>
        <time>2025-02-11T13:14:06Z</time>
      </trkpt>
      <trkpt lat="47.80691" lon="-2.46463">
        <ele>93.9</ele>
        <time>2025-02-11T13:14:07Z</time>
      </trkpt>
      <trkpt lat="47.80692" lon="-2.46463">
        <ele>93.9</ele>
        <time>2025-02-11T13:14:08Z</time>
      </trkpt>
      <trkpt lat="47.80693" lon="-2.46463">
        <ele>94</ele>
        <time>2025-02-11T13:14:09Z</time>
      </trkpt>
      <trkpt lat="47.80694" lon="-2.46463">
        <ele>94</ele>
        <time>2025-02-11T13:14:10Z</time>
      </trkpt>
      <trkpt lat="47.80695" lon="-2.46463">
        <ele>94</ele>
        <time>2025-02-11T13:14:11Z</time>
      </trkpt>
      <trkpt lat="47.80696" lon="-2.46462">
        <ele>94</ele>
        <time>2025-02-11T13:14:12Z</time>
      </trkpt>
      <trkpt lat="47.80697" lon="-2.46462">
        <ele>94</ele>
        <time>2025-02-11T13:14:13Z</time>
      </trkpt>
      <trkpt lat="47.80698" lon="-2.46462">
        <ele>94</ele>
        <time>2025-02-11T13:14:14Z</time>
      </trkpt>
      <trkpt lat="47.80699" lon="-2.46461">
        <ele>94</ele>
        <time>2025-02-11T13:14:15Z</time>
      </trkpt>
      <trkpt lat="47.807" lon="-2.46459">
        <ele>94</ele>
        <time>2025-02-11T13:14:16Z</time>
      </trkpt>
      <trkpt lat="47.80701" lon="-2.46459">
        <ele>94</ele>
        <time>2025-02-11T13:14:17Z</time>
      </trkpt>
      <trkpt lat="47.80701" lon="-2.46458">
        <ele>94</ele>
        <time>2025-02-11T13:14:18Z</time>
      </trkpt>
      <trkpt lat="47.80702" lon="-2.46457">
        <ele>94</ele>
        <time>2025-02-11T13:14:19Z</time>
      </trkpt>
      <trkpt lat="47.80702" lon="-2.46455">
        <ele>94</ele>
        <time>2025-02-11T13:14:20Z</time>
      </trkpt>
      <trkpt lat="47.80702" lon="-2.46453">
        <ele>94</ele>
        <time>2025-02-11T13:14:21Z</time>
      </trkpt>
      <trkpt lat="47.80702" lon="-2.46451">
        <ele>94</ele>
        <time>2025-02-11T13:14:22Z</time>
      </trkpt>
      <trkpt lat="47.80701" lon="-2.4645">
        <ele>94</ele>
        <time>2025-02-11T13:14:23Z</time>
      </trkpt>
      <trkpt lat="47.80701" lon="-2.46448">
        <ele>94</ele>
        <time>2025-02-11T13:14:24Z</time>
      </trkpt>
      <trkpt lat="47.807" lon="-2.46447">
        <ele>94</ele>
        <time>2025-02-11T13:14:25Z</time>
      </trkpt>
      <trkpt lat="47.807" lon="-2.46445">
        <ele>94</ele>
        <time>2025-02-11T13:14:26Z</time>
      </trkpt>
      <trkpt lat="47.80699" lon="-2.46443">
        <ele>94</ele>
        <time>2025-02-11T13:14:27Z</time>
      </trkpt>
      <trkpt lat="47.80699" lon="-2.46442">
        <ele>94</ele>
        <time>2025-02-11T13:14:28Z</time>
      </trkpt>
      <trkpt lat="47.80698" lon="-2.4644">
        <ele>94</ele>
        <time>2025-02-11T13:14:29Z</time>
      </trkpt>
      <trkpt lat="47.80698" lon="-2.46438">
        <ele>94</ele>
        <time>2025-02-11T13:14:30Z</time>
      </trkpt>
      <trkpt lat="47.80698" lon="-2.46437">
        <ele>94</ele>
        <time>2025-02-11T13:14:31Z</time>
      </trkpt>
      <trkpt lat="47.80698" lon="-2.46435">
        <ele>94</ele>
        <time>2025-02-11T13:14:32Z</time>
      </trkpt>
      <trkpt lat="47.80699" lon="-2.46433">
        <ele>94</ele>
        <time>2025-02-11T13:14:33Z</time>
      </trkpt>
      <trkpt lat="47.807" lon="-2.46432">
        <ele>94</ele>
        <time>2025-02-11T13:14:34Z</time>
      </trkpt>
      <trkpt lat="47.807" lon="-2.4643">
        <ele>94</ele>
        <time>2025-02-11T13:14:35Z</time>
      </trkpt>
      <trkpt lat="47.80701" lon="-2.46429">
        <ele>94</ele>
        <time>2025-02-11T13:14:36Z</time>
      </trkpt>
      <trkpt lat="47.80701" lon="-2.46427">
        <ele>94</ele>
        <time>2025-02-11T13:14:37Z</time>
      </trkpt>
      <trkpt lat="47.80701" lon="-2.46424">
        <ele>94</ele>
        <time>2025-02-11T13:14:38Z</time>
      </trkpt>
      <trkpt lat="47.80702" lon="-2.46422">
        <ele>94</ele>
        <time>2025-02-11T13:14:39Z</time>
      </trkpt>
      <trkpt lat="47.80702" lon="-2.4642">
        <ele>94</ele>
        <time>2025-02-11T13:14:40Z</time>
      </trkpt>
      <trkpt lat="47.80703" lon="-2.46419">
        <ele>94</ele>
        <time>2025-02-11T13:14:41Z</time>
      </trkpt>
      <trkpt lat="47.80703" lon="-2.46417">
        <ele>94</ele>
        <time>2025-02-11T13:14:42Z</time>
      </trkpt>
      <trkpt lat="47.80704" lon="-2.46416">
        <ele>94</ele>
        <time>2025-02-11T13:14:43Z</time>
      </trkpt>
      <trkpt lat="47.80704" lon="-2.46415">
        <ele>94</ele>
        <time>2025-02-11T13:14:44Z</time>
      </trkpt>
      <trkpt lat="47.80705" lon="-2.46413">
        <ele>94</ele>
        <time>2025-02-11T13:14:45Z</time>
      </trkpt>
      <trkpt lat="47.80706" lon="-2.46412">
        <ele>94.1</ele>
        <time>2025-02-11T13:14:46Z</time>
      </trkpt>
      <trkpt lat="47.80706" lon="-2.4641">
        <ele>94.1</ele>
        <time>2025-02-11T13:14:47Z</time>
      </trkpt>
      <trkpt lat="47.80706" lon="-2.46408">
        <ele>94.1</ele>
        <time>2025-02-11T13:14:48Z</time>
      </trkpt>
      <trkpt lat="47.80707" lon="-2.46406">
        <ele>94.2</ele>
        <time>2025-02-11T13:14:49Z</time>
      </trkpt>
      <trkpt lat="47.80707" lon="-2.46405">
        <ele>94.2</ele>
        <time>2025-02-11T13:14:50Z</time>
      </trkpt>
      <trkpt lat="47.80708" lon="-2.46404">
        <ele>94.2</ele>
        <time>2025-02-11T13:14:51Z</time>
      </trkpt>
      <trkpt lat="47.80709" lon="-2.46402">
        <ele>94.3</ele>
        <time>2025-02-11T13:14:52Z</time>
      </trkpt>
      <trkpt lat="47.80709" lon="-2.46401">
        <ele>94.3</ele>
        <time>2025-02-11T13:14:53Z</time>
      </trkpt>
      <trkpt lat="47.8071" lon="-2.464">
        <ele>94.3</ele>
        <time>2025-02-11T13:14:54Z</time>
      </trkpt>
      <trkpt lat="47.80711" lon="-2.46398">
        <ele>94.4</ele>
        <time>2025-02-11T13:14:55Z</time>
      </trkpt>
      <trkpt lat="47.80711" lon="-2.46396">
        <ele>94.5</ele>
        <time>2025-02-11T13:14:56Z</time>
      </trkpt>
      <trkpt lat="47.80712" lon="-2.46394">
        <ele>94.5</ele>
        <time>2025-02-11T13:14:57Z</time>
      </trkpt>
      <trkpt lat="47.80712" lon="-2.46393">
        <ele>94.5</ele>
        <time>2025-02-11T13:14:58Z</time>
      </trkpt>
      <trkpt lat="47.80713" lon="-2.46392">
        <ele>94.6</ele>
        <time>2025-02-11T13:14:59Z</time>
      </trkpt>
      <trkpt lat="47.80713" lon="-2.4639">
        <ele>94.6</ele>
        <time>2025-02-11T13:15:00Z</time>
      </trkpt>
      <trkpt lat="47.80713" lon="-2.46388">
        <ele>94.7</ele>
        <time>2025-02-11T13:15:01Z</time>
      </trkpt>
      <trkpt lat="47.80714" lon="-2.46387">
        <ele>94.6</ele>
        <time>2025-02-11T13:15:02Z</time>
      </trkpt>
      <trkpt lat="47.80715" lon="-2.46385">
        <ele>94.6</ele>
        <time>2025-02-11T13:15:03Z</time>
      </trkpt>
      <trkpt lat="47.80715" lon="-2.46384">
        <ele>94.6</ele>
        <time>2025-02-11T13:15:04Z</time>
      </trkpt>
      <trkpt lat="47.80716" lon="-2.46383">
        <ele>94.6</ele>
        <time>2025-02-11T13:15:05Z</time>
      </trkpt>
      <trkpt lat="47.80716" lon="-2.46381">
        <ele>94.6</ele>
        <time>2025-02-11T13:15:06Z</time>
      </trkpt>
      <trkpt lat="47.80716" lon="-2.46379">
        <ele>94.5</ele>
        <time>2025-02-11T13:15:07Z</time>
      </trkpt>
      <trkpt lat="47.80717" lon="-2.46378">
        <ele>94.5</ele>
        <time>2025-02-11T13:15:08Z</time>
      </trkpt>
      <trkpt lat="47.80717" lon="-2.46376">
        <ele>94.4</ele>
        <time>2025-02-11T13:15:09Z</time>
      </trkpt>
      <trkpt lat="47.80718" lon="-2.46375">
        <ele>94.4</ele>
        <time>2025-02-11T13:15:10Z</time>
      </trkpt>
      <trkpt lat="47.80719" lon="-2.46374">
        <ele>94.4</ele>
        <time>2025-02-11T13:15:11Z</time>
      </trkpt>
      <trkpt lat="47.80719" lon="-2.46372">
        <ele>94.3</ele>
        <time>2025-02-11T13:15:12Z</time>
      </trkpt>
      <trkpt lat="47.80719" lon="-2.4637">
        <ele>94.3</ele>
        <time>2025-02-11T13:15:13Z</time>
      </trkpt>
      <trkpt lat="47.8072" lon="-2.46369">
        <ele>94.3</ele>
        <time>2025-02-11T13:15:14Z</time>
      </trkpt>
      <trkpt lat="47.8072" lon="-2.46367">
        <ele>94.2</ele>
        <time>2025-02-11T13:15:15Z</time>
      </trkpt>
      <trkpt lat="47.8072" lon="-2.46366">
        <ele>94.1</ele>
        <time>2025-02-11T13:15:16Z</time>
      </trkpt>
      <trkpt lat="47.8072" lon="-2.46364">
        <ele>94.1</ele>
        <time>2025-02-11T13:15:17Z</time>
      </trkpt>
      <trkpt lat="47.8072" lon="-2.46362">
        <ele>94</ele>
        <time>2025-02-11T13:15:18Z</time>
      </trkpt>
      <trkpt lat="47.8072" lon="-2.4636">
        <ele>94</ele>
        <time>2025-02-11T13:15:19Z</time>
      </trkpt>
      <trkpt lat="47.8072" lon="-2.46359">
        <ele>94</ele>
        <time>2025-02-11T13:15:20Z</time>
      </trkpt>
      <trkpt lat="47.8072" lon="-2.46357">
        <ele>94</ele>
        <time>2025-02-11T13:15:21Z</time>
      </trkpt>
      <trkpt lat="47.8072" lon="-2.46355">
        <ele>94</ele>
        <time>2025-02-11T13:15:22Z</time>
      </trkpt>
      <trkpt lat="47.8072" lon="-2.46353">
        <ele>94</ele>
        <time>2025-02-11T13:15:23Z</time>
      </trkpt>
      <trkpt lat="47.80721" lon="-2.46351">
        <ele>94</ele>
        <time>2025-02-11T13:15:24Z</time>
      </trkpt>
      <trkpt lat="47.80721" lon="-2.4635">
        <ele>94</ele>
        <time>2025-02-11T13:15:25Z</time>
      </trkpt>
      <trkpt lat="47.80722" lon="-2.46349">
        <ele>94</ele>
        <time>2025-02-11T13:15:26Z</time>
      </trkpt>
      <trkpt lat="47.80724" lon="-2.46348">
        <ele>94.1</ele>
        <time>2025-02-11T13:15:27Z</time>
      </trkpt>
      <trkpt lat="47.80725" lon="-2.46348">
        <ele>94.1</ele>
        <time>2025-02-11T13:15:28Z</time>
      </trkpt>
      <trkpt lat="47.80726" lon="-2.46347">
        <ele>94.1</ele>
        <time>2025-02-11T13:15:29Z</time>
      </trkpt>
      <trkpt lat="47.80727" lon="-2.46346">
        <ele>94.2</ele>
        <time>2025-02-11T13:15:30Z</time>
      </trkpt>
      <trkpt lat="47.80729" lon="-2.46347">
        <ele>94.2</ele>
        <time>2025-02-11T13:15:31Z</time>
      </trkpt>
      <trkpt lat="47.8073" lon="-2.46346">
        <ele>94.3</ele>
        <time>2025-02-11T13:15:32Z</time>
      </trkpt>
      <trkpt lat="47.80731" lon="-2.46344">
        <ele>94.3</ele>
        <time>2025-02-11T13:15:33Z</time>
      </trkpt>
      <trkpt lat="47.80731" lon="-2.46343">
        <ele>94.3</ele>
        <time>2025-02-11T13:15:34Z</time>
      </trkpt>
      <trkpt lat="47.80732" lon="-2.46341">
        <ele>94.4</ele>
        <time>2025-02-11T13:15:35Z</time>
      </trkpt>
      <trkpt lat="47.80733" lon="-2.4634">
        <ele>94.4</ele>
        <time>2025-02-11T13:15:36Z</time>
      </trkpt>
      <trkpt lat="47.80734" lon="-2.46338">
        <ele>94.4</ele>
        <time>2025-02-11T13:15:37Z</time>
      </trkpt>
      <trkpt lat="47.80734" lon="-2.46336">
        <ele>94.4</ele>
        <time>2025-02-11T13:15:38Z</time>
      </trkpt>
      <trkpt lat="47.80735" lon="-2.46335">
        <ele>94.4</ele>
        <time>2025-02-11T13:15:39Z</time>
      </trkpt>
      <trkpt lat="47.80735" lon="-2.46333">
        <ele>94.5</ele>
        <time>2025-02-11T13:15:40Z</time>
      </trkpt>
      <trkpt lat="47.80736" lon="-2.46332">
        <ele>94.5</ele>
        <time>2025-02-11T13:15:41Z</time>
      </trkpt>
      <trkpt lat="47.80737" lon="-2.4633">
        <ele>94.5</ele>
        <time>2025-02-11T13:15:42Z</time>
      </trkpt>
      <trkpt lat="47.80738" lon="-2.46329">
        <ele>94.5</ele>
        <time>2025-02-11T13:15:43Z</time>
      </trkpt>
      <trkpt lat="47.80739" lon="-2.46328">
        <ele>94.5</ele>
        <time>2025-02-11T13:15:44Z</time>
      </trkpt>
      <trkpt lat="47.80739" lon="-2.46327">
        <ele>94.5</ele>
        <time>2025-02-11T13:15:45Z</time>
      </trkpt>
      <trkpt lat="47.8074" lon="-2.46326">
        <ele>94.5</ele>
        <time>2025-02-11T13:15:46Z</time>
      </trkpt>
      <trkpt lat="47.80741" lon="-2.46325">
        <ele>94.5</ele>
        <time>2025-02-11T13:15:47Z</time>
      </trkpt>
      <trkpt lat="47.80742" lon="-2.46324">
        <ele>94.5</ele>
        <time>2025-02-11T13:15:48Z</time>
      </trkpt>
      <trkpt lat="47.80743" lon="-2.46323">
        <ele>94.5</ele>
        <time>2025-02-11T13:15:49Z</time>
      </trkpt>
      <trkpt lat="47.80744" lon="-2.46322">
        <ele>94.5</ele>
        <time>2025-02-11T13:15:50Z</time>
      </trkpt>
      <trkpt lat="47.80745" lon="-2.46322">
        <ele>94.5</ele>
        <time>2025-02-11T13:15:51Z</time>
      </trkpt>
      <trkpt lat="47.80747" lon="-2.46321">
        <ele>94.5</ele>
        <time>2025-02-11T13:15:52Z</time>
      </trkpt>
      <trkpt lat="47.80748" lon="-2.46321">
        <ele>94.5</ele>
        <time>2025-02-11T13:15:53Z</time>
      </trkpt>
      <trkpt lat="47.80749" lon="-2.4632">
        <ele>94.5</ele>
        <time>2025-02-11T13:15:54Z</time>
      </trkpt>
      <trkpt lat="47.8075" lon="-2.46318">
        <ele>94.4</ele>
        <time>2025-02-11T13:15:55Z</time>
      </trkpt>
      <trkpt lat="47.8075" lon="-2.46317">
        <ele>94.4</ele>
        <time>2025-02-11T13:15:56Z</time>
      </trkpt>
      <trkpt lat="47.80751" lon="-2.46315">
        <ele>94.4</ele>
        <time>2025-02-11T13:15:57Z</time>
      </trkpt>
      <trkpt lat="47.80751" lon="-2.46313">
        <ele>94.3</ele>
        <time>2025-02-11T13:15:58Z</time>
      </trkpt>
      <trkpt lat="47.80752" lon="-2.46312">
        <ele>94.3</ele>
        <time>2025-02-11T13:15:59Z</time>
      </trkpt>
      <trkpt lat="47.80752" lon="-2.4631">
        <ele>94.2</ele>
        <time>2025-02-11T13:16:00Z</time>
      </trkpt>
      <trkpt lat="47.80751" lon="-2.46308">
        <ele>94.1</ele>
        <time>2025-02-11T13:16:01Z</time>
      </trkpt>
      <trkpt lat="47.8075" lon="-2.46307">
        <ele>94</ele>
        <time>2025-02-11T13:16:02Z</time>
      </trkpt>
      <trkpt lat="47.8075" lon="-2.46305">
        <ele>94</ele>
        <time>2025-02-11T13:16:03Z</time>
      </trkpt>
      <trkpt lat="47.80749" lon="-2.46303">
        <ele>94</ele>
        <time>2025-02-11T13:16:04Z</time>
      </trkpt>
      <trkpt lat="47.80749" lon="-2.46302">
        <ele>94</ele>
        <time>2025-02-11T13:16:05Z</time>
      </trkpt>
      <trkpt lat="47.80749" lon="-2.463">
        <ele>94</ele>
        <time>2025-02-11T13:16:06Z</time>
      </trkpt>
      <trkpt lat="47.80749" lon="-2.46298">
        <ele>94</ele>
        <time>2025-02-11T13:16:07Z</time>
      </trkpt>
      <trkpt lat="47.80748" lon="-2.46297">
        <ele>94</ele>
        <time>2025-02-11T13:16:08Z</time>
      </trkpt>
      <trkpt lat="47.80748" lon="-2.46295">
        <ele>94</ele>
        <time>2025-02-11T13:16:09Z</time>
      </trkpt>
      <trkpt lat="47.80748" lon="-2.46293">
        <ele>94</ele>
        <time>2025-02-11T13:16:10Z</time>
      </trkpt>
      <trkpt lat="47.80748" lon="-2.46291">
        <ele>94</ele>
        <time>2025-02-11T13:16:11Z</time>
      </trkpt>
      <trkpt lat="47.80748" lon="-2.4629">
        <ele>94</ele>
        <time>2025-02-11T13:16:12Z</time>
      </trkpt>
      <trkpt lat="47.80747" lon="-2.46288">
        <ele>94</ele>
        <time>2025-02-11T13:16:13Z</time>
      </trkpt>
      <trkpt lat="47.80747" lon="-2.46287">
        <ele>94</ele>
        <time>2025-02-11T13:16:14Z</time>
      </trkpt>
      <trkpt lat="47.80747" lon="-2.46285">
        <ele>94</ele>
        <time>2025-02-11T13:16:15Z</time>
      </trkpt>
      <trkpt lat="47.80747" lon="-2.46283">
        <ele>94</ele>
        <time>2025-02-11T13:16:16Z</time>
      </trkpt>
      <trkpt lat="47.80746" lon="-2.46281">
        <ele>94</ele>
        <time>2025-02-11T13:16:17Z</time>
      </trkpt>
      <trkpt lat="47.80746" lon="-2.4628">
        <ele>94</ele>
        <time>2025-02-11T13:16:18Z</time>
      </trkpt>
      <trkpt lat="47.80746" lon="-2.46278">
        <ele>94</ele>
        <time>2025-02-11T13:16:19Z</time>
      </trkpt>
      <trkpt lat="47.80747" lon="-2.46276">
        <ele>94</ele>
        <time>2025-02-11T13:16:20Z</time>
      </trkpt>
      <trkpt lat="47.80747" lon="-2.46275">
        <ele>94</ele>
        <time>2025-02-11T13:16:21Z</time>
      </trkpt>
      <trkpt lat="47.80747" lon="-2.46273">
        <ele>94</ele>
        <time>2025-02-11T13:16:22Z</time>
      </trkpt>
      <trkpt lat="47.80747" lon="-2.46271">
        <ele>94</ele>
        <time>2025-02-11T13:16:23Z</time>
      </trkpt>
      <trkpt lat="47.80747" lon="-2.46269">
        <ele>94</ele>
        <time>2025-02-11T13:16:24Z</time>
      </trkpt>
      <trkpt lat="47.80746" lon="-2.46268">
        <ele>94</ele>
        <time>2025-02-11T13:16:25Z</time>
      </trkpt>
      <trkpt lat="47.80746" lon="-2.46266">
        <ele>94</ele>
        <time>2025-02-11T13:16:26Z</time>
      </trkpt>
      <trkpt lat="47.80746" lon="-2.46265">
        <ele>94</ele>
        <time>2025-02-11T13:16:27Z</time>
      </trkpt>
      <trkpt lat="47.80745" lon="-2.46263">
        <ele>94</ele>
        <time>2025-02-11T13:16:28Z</time>
      </trkpt>
      <trkpt lat="47.80745" lon="-2.46262">
        <ele>94</ele>
        <time>2025-02-11T13:16:29Z</time>
      </trkpt>
      <trkpt lat="47.80745" lon="-2.4626">
        <ele>94</ele>
        <time>2025-02-11T13:16:30Z</time>
      </trkpt>
      <trkpt lat="47.80745" lon="-2.46258">
        <ele>94</ele>
        <time>2025-02-11T13:16:31Z</time>
      </trkpt>
      <trkpt lat="47.80745" lon="-2.46257">
        <ele>94</ele>
        <time>2025-02-11T13:16:32Z</time>
      </trkpt>
      <trkpt lat="47.80745" lon="-2.46255">
        <ele>94</ele>
        <time>2025-02-11T13:16:33Z</time>
      </trkpt>
      <trkpt lat="47.80746" lon="-2.46253">
        <ele>94</ele>
        <time>2025-02-11T13:16:34Z</time>
      </trkpt>
      <trkpt lat="47.80746" lon="-2.46251">
        <ele>94</ele>
        <time>2025-02-11T13:16:35Z</time>
      </trkpt>
      <trkpt lat="47.80746" lon="-2.4625">
        <ele>94</ele>
        <time>2025-02-11T13:16:36Z</time>
      </trkpt>
      <trkpt lat="47.80747" lon="-2.46248">
        <ele>94</ele>
        <time>2025-02-11T13:16:37Z</time>
      </trkpt>
      <trkpt lat="47.80747" lon="-2.46247">
        <ele>94</ele>
        <time>2025-02-11T13:16:38Z</time>
      </trkpt>
      <trkpt lat="47.80748" lon="-2.46245">
        <ele>94</ele>
        <time>2025-02-11T13:16:39Z</time>
      </trkpt>
      <trkpt lat="47.80749" lon="-2.46244">
        <ele>94</ele>
        <time>2025-02-11T13:16:40Z</time>
      </trkpt>
      <trkpt lat="47.80749" lon="-2.46242">
        <ele>94</ele>
        <time>2025-02-11T13:16:41Z</time>
      </trkpt>
      <trkpt lat="47.80749" lon="-2.4624">
        <ele>94</ele>
        <time>2025-02-11T13:16:42Z</time>
      </trkpt>
      <trkpt lat="47.80749" lon="-2.46238">
        <ele>94</ele>
        <time>2025-02-11T13:16:43Z</time>
      </trkpt>
      <trkpt lat="47.80749" lon="-2.46237">
        <ele>94</ele>
        <time>2025-02-11T13:16:44Z</time>
      </trkpt>
      <trkpt lat="47.80749" lon="-2.46235">
        <ele>94</ele>
        <time>2025-02-11T13:16:45Z</time>
      </trkpt>
      <trkpt lat="47.80749" lon="-2.46233">
        <ele>94</ele>
        <time>2025-02-11T13:16:46Z</time>
      </trkpt>
      <trkpt lat="47.80748" lon="-2.46232">
        <ele>94</ele>
        <time>2025-02-11T13:16:47Z</time>
      </trkpt>
      <trkpt lat="47.80748" lon="-2.4623">
        <ele>93.9</ele>
        <time>2025-02-11T13:16:48Z</time>
      </trkpt>
      <trkpt lat="47.80748" lon="-2.46228">
        <ele>93.9</ele>
        <time>2025-02-11T13:16:49Z</time>
      </trkpt>
      <trkpt lat="47.80748" lon="-2.46227">
        <ele>93.9</ele>
        <time>2025-02-11T13:16:50Z</time>
      </trkpt>
      <trkpt lat="47.80747" lon="-2.46225">
        <ele>93.9</ele>
        <time>2025-02-11T13:16:51Z</time>
      </trkpt>
      <trkpt lat="47.80747" lon="-2.46223">
        <ele>93.9</ele>
        <time>2025-02-11T13:16:52Z</time>
      </trkpt>
      <trkpt lat="47.80747" lon="-2.46221">
        <ele>93.9</ele>
        <time>2025-02-11T13:16:53Z</time>
      </trkpt>
      <trkpt lat="47.80747" lon="-2.46219">
        <ele>93.9</ele>
        <time>2025-02-11T13:16:54Z</time>
      </trkpt>
      <trkpt lat="47.80747" lon="-2.46218">
        <ele>93.9</ele>
        <time>2025-02-11T13:16:55Z</time>
      </trkpt>
      <trkpt lat="47.80747" lon="-2.46216">
        <ele>93.9</ele>
        <time>2025-02-11T13:16:56Z</time>
      </trkpt>
      <trkpt lat="47.80747" lon="-2.46214">
        <ele>93.9</ele>
        <time>2025-02-11T13:16:57Z</time>
      </trkpt>
      <trkpt lat="47.80747" lon="-2.46212">
        <ele>93.9</ele>
        <time>2025-02-11T13:16:58Z</time>
      </trkpt>
      <trkpt lat="47.80747" lon="-2.4621">
        <ele>93.9</ele>
        <time>2025-02-11T13:16:59Z</time>
      </trkpt>
      <trkpt lat="47.80748" lon="-2.46208">
        <ele>93.9</ele>
        <time>2025-02-11T13:17:00Z</time>
      </trkpt>
      <trkpt lat="47.80747" lon="-2.46207">
        <ele>93.9</ele>
        <time>2025-02-11T13:17:01Z</time>
      </trkpt>
      <trkpt lat="47.80747" lon="-2.46205">
        <ele>93.9</ele>
        <time>2025-02-11T13:17:02Z</time>
      </trkpt>
      <trkpt lat="47.80746" lon="-2.46204">
        <ele>93.9</ele>
        <time>2025-02-11T13:17:03Z</time>
      </trkpt>
      <trkpt lat="47.80746" lon="-2.46202">
        <ele>93.9</ele>
        <time>2025-02-11T13:17:04Z</time>
      </trkpt>
      <trkpt lat="47.80746" lon="-2.46201">
        <ele>93.8</ele>
        <time>2025-02-11T13:17:05Z</time>
      </trkpt>
      <trkpt lat="47.80745" lon="-2.46199">
        <ele>93.8</ele>
        <time>2025-02-11T13:17:06Z</time>
      </trkpt>
      <trkpt lat="47.80745" lon="-2.46197">
        <ele>93.8</ele>
        <time>2025-02-11T13:17:07Z</time>
      </trkpt>
      <trkpt lat="47.80745" lon="-2.46196">
        <ele>93.8</ele>
        <time>2025-02-11T13:17:08Z</time>
      </trkpt>
      <trkpt lat="47.80745" lon="-2.46194">
        <ele>93.8</ele>
        <time>2025-02-11T13:17:09Z</time>
      </trkpt>
      <trkpt lat="47.80745" lon="-2.46192">
        <ele>93.8</ele>
        <time>2025-02-11T13:17:10Z</time>
      </trkpt>
      <trkpt lat="47.80745" lon="-2.46191">
        <ele>93.8</ele>
        <time>2025-02-11T13:17:11Z</time>
      </trkpt>
      <trkpt lat="47.80744" lon="-2.46189">
        <ele>93.8</ele>
        <time>2025-02-11T13:17:12Z</time>
      </trkpt>
      <trkpt lat="47.80744" lon="-2.46187">
        <ele>93.8</ele>
        <time>2025-02-11T13:17:13Z</time>
      </trkpt>
      <trkpt lat="47.80744" lon="-2.46186">
        <ele>93.8</ele>
        <time>2025-02-11T13:17:14Z</time>
      </trkpt>
      <trkpt lat="47.80744" lon="-2.46184">
        <ele>93.8</ele>
        <time>2025-02-11T13:17:15Z</time>
      </trkpt>
      <trkpt lat="47.80744" lon="-2.46182">
        <ele>93.8</ele>
        <time>2025-02-11T13:17:16Z</time>
      </trkpt>
      <trkpt lat="47.80743" lon="-2.46181">
        <ele>93.8</ele>
        <time>2025-02-11T13:17:17Z</time>
      </trkpt>
      <trkpt lat="47.80743" lon="-2.46179">
        <ele>93.7</ele>
        <time>2025-02-11T13:17:18Z</time>
      </trkpt>
      <trkpt lat="47.80742" lon="-2.46177">
        <ele>93.7</ele>
        <time>2025-02-11T13:17:19Z</time>
      </trkpt>
      <trkpt lat="47.80742" lon="-2.46175">
        <ele>93.7</ele>
        <time>2025-02-11T13:17:20Z</time>
      </trkpt>
      <trkpt lat="47.80742" lon="-2.46174">
        <ele>93.7</ele>
        <time>2025-02-11T13:17:21Z</time>
      </trkpt>
      <trkpt lat="47.80742" lon="-2.46172">
        <ele>93.7</ele>
        <time>2025-02-11T13:17:22Z</time>
      </trkpt>
      <trkpt lat="47.80742" lon="-2.4617">
        <ele>93.7</ele>
        <time>2025-02-11T13:17:23Z</time>
      </trkpt>
      <trkpt lat="47.80742" lon="-2.46169">
        <ele>93.7</ele>
        <time>2025-02-11T13:17:24Z</time>
      </trkpt>
      <trkpt lat="47.80742" lon="-2.46167">
        <ele>93.7</ele>
        <time>2025-02-11T13:17:25Z</time>
      </trkpt>
      <trkpt lat="47.80742" lon="-2.46166">
        <ele>93.7</ele>
        <time>2025-02-11T13:17:26Z</time>
      </trkpt>
      <trkpt lat="47.80742" lon="-2.46164">
        <ele>93.7</ele>
        <time>2025-02-11T13:17:27Z</time>
      </trkpt>
      <trkpt lat="47.80743" lon="-2.46162">
        <ele>93.6</ele>
        <time>2025-02-11T13:17:28Z</time>
      </trkpt>
      <trkpt lat="47.80743" lon="-2.4616">
        <ele>93.6</ele>
        <time>2025-02-11T13:17:29Z</time>
      </trkpt>
      <trkpt lat="47.80743" lon="-2.46159">
        <ele>93.5</ele>
        <time>2025-02-11T13:17:30Z</time>
      </trkpt>
      <trkpt lat="47.80743" lon="-2.46157">
        <ele>93.5</ele>
        <time>2025-02-11T13:17:31Z</time>
      </trkpt>
      <trkpt lat="47.80743" lon="-2.46155">
        <ele>93.4</ele>
        <time>2025-02-11T13:17:32Z</time>
      </trkpt>
      <trkpt lat="47.80742" lon="-2.46154">
        <ele>93.4</ele>
        <time>2025-02-11T13:17:33Z</time>
      </trkpt>
      <trkpt lat="47.80742" lon="-2.46152">
        <ele>93.3</ele>
        <time>2025-02-11T13:17:34Z</time>
      </trkpt>
      <trkpt lat="47.80743" lon="-2.4615">
        <ele>93.3</ele>
        <time>2025-02-11T13:17:35Z</time>
      </trkpt>
      <trkpt lat="47.80743" lon="-2.46148">
        <ele>93.3</ele>
        <time>2025-02-11T13:17:36Z</time>
      </trkpt>
      <trkpt lat="47.80743" lon="-2.46147">
        <ele>93.2</ele>
        <time>2025-02-11T13:17:37Z</time>
      </trkpt>
      <trkpt lat="47.80744" lon="-2.46145">
        <ele>93.2</ele>
        <time>2025-02-11T13:17:38Z</time>
      </trkpt>
      <trkpt lat="47.80743" lon="-2.46143">
        <ele>93.1</ele>
        <time>2025-02-11T13:17:39Z</time>
      </trkpt>
      <trkpt lat="47.80744" lon="-2.46141">
        <ele>93.1</ele>
        <time>2025-02-11T13:17:40Z</time>
      </trkpt>
      <trkpt lat="47.80744" lon="-2.46139">
        <ele>93</ele>
        <time>2025-02-11T13:17:41Z</time>
      </trkpt>
      <trkpt lat="47.80744" lon="-2.46138">
        <ele>92.9</ele>
        <time>2025-02-11T13:17:42Z</time>
      </trkpt>
      <trkpt lat="47.80744" lon="-2.46136">
        <ele>92.9</ele>
        <time>2025-02-11T13:17:43Z</time>
      </trkpt>
      <trkpt lat="47.80743" lon="-2.46134">
        <ele>92.8</ele>
        <time>2025-02-11T13:17:44Z</time>
      </trkpt>
      <trkpt lat="47.80743" lon="-2.46132">
        <ele>92.7</ele>
        <time>2025-02-11T13:17:45Z</time>
      </trkpt>
      <trkpt lat="47.80743" lon="-2.46131">
        <ele>92.6</ele>
        <time>2025-02-11T13:17:46Z</time>
      </trkpt>
      <trkpt lat="47.80742" lon="-2.46129">
        <ele>92.5</ele>
        <time>2025-02-11T13:17:47Z</time>
      </trkpt>
      <trkpt lat="47.80742" lon="-2.46127">
        <ele>92.5</ele>
        <time>2025-02-11T13:17:48Z</time>
      </trkpt>
      <trkpt lat="47.80742" lon="-2.46126">
        <ele>92.4</ele>
        <time>2025-02-11T13:17:49Z</time>
      </trkpt>
      <trkpt lat="47.80743" lon="-2.46124">
        <ele>92.3</ele>
        <time>2025-02-11T13:17:50Z</time>
      </trkpt>
      <trkpt lat="47.80743" lon="-2.46122">
        <ele>92.2</ele>
        <time>2025-02-11T13:17:51Z</time>
      </trkpt>
      <trkpt lat="47.80743" lon="-2.46121">
        <ele>92.2</ele>
        <time>2025-02-11T13:17:52Z</time>
      </trkpt>
      <trkpt lat="47.80742" lon="-2.46119">
        <ele>92.1</ele>
        <time>2025-02-11T13:17:53Z</time>
      </trkpt>
      <trkpt lat="47.80742" lon="-2.46118">
        <ele>92</ele>
        <time>2025-02-11T13:17:54Z</time>
      </trkpt>
      <trkpt lat="47.80742" lon="-2.46116">
        <ele>91.9</ele>
        <time>2025-02-11T13:17:55Z</time>
      </trkpt>
      <trkpt lat="47.80741" lon="-2.46115">
        <ele>91.9</ele>
        <time>2025-02-11T13:17:56Z</time>
      </trkpt>
      <trkpt lat="47.8074" lon="-2.46115">
        <ele>91.8</ele>
        <time>2025-02-11T13:17:57Z</time>
      </trkpt>
      <trkpt lat="47.80738" lon="-2.46114">
        <ele>91.7</ele>
        <time>2025-02-11T13:17:58Z</time>
      </trkpt>
      <trkpt lat="47.80737" lon="-2.46114">
        <ele>91.7</ele>
        <time>2025-02-11T13:17:59Z</time>
      </trkpt>
      <trkpt lat="47.80736" lon="-2.46113">
        <ele>91.6</ele>
        <time>2025-02-11T13:18:00Z</time>
      </trkpt>
      <trkpt lat="47.80734" lon="-2.46113">
        <ele>91.6</ele>
        <time>2025-02-11T13:18:01Z</time>
      </trkpt>
      <trkpt lat="47.80733" lon="-2.46114">
        <ele>91.5</ele>
        <time>2025-02-11T13:18:02Z</time>
      </trkpt>
      <trkpt lat="47.80732" lon="-2.46114">
        <ele>91.5</ele>
        <time>2025-02-11T13:18:03Z</time>
      </trkpt>
      <trkpt lat="47.8073" lon="-2.46115">
        <ele>91.5</ele>
        <time>2025-02-11T13:18:04Z</time>
      </trkpt>
      <trkpt lat="47.80729" lon="-2.46115">
        <ele>91.5</ele>
        <time>2025-02-11T13:18:05Z</time>
      </trkpt>
      <trkpt lat="47.80728" lon="-2.46116">
        <ele>91.5</ele>
        <time>2025-02-11T13:18:06Z</time>
      </trkpt>
      <trkpt lat="47.80727" lon="-2.46116">
        <ele>91.5</ele>
        <time>2025-02-11T13:18:07Z</time>
      </trkpt>
      <trkpt lat="47.80725" lon="-2.46116">
        <ele>91.4</ele>
        <time>2025-02-11T13:18:08Z</time>
      </trkpt>
      <trkpt lat="47.80724" lon="-2.46115">
        <ele>91.3</ele>
        <time>2025-02-11T13:18:09Z</time>
      </trkpt>
      <trkpt lat="47.80723" lon="-2.46115">
        <ele>91.3</ele>
        <time>2025-02-11T13:18:10Z</time>
      </trkpt>
      <trkpt lat="47.80722" lon="-2.46114">
        <ele>91.2</ele>
        <time>2025-02-11T13:18:11Z</time>
      </trkpt>
      <trkpt lat="47.80721" lon="-2.46114">
        <ele>91.2</ele>
        <time>2025-02-11T13:18:12Z</time>
      </trkpt>
      <trkpt lat="47.80719" lon="-2.46116">
        <ele>91.2</ele>
        <time>2025-02-11T13:18:13Z</time>
      </trkpt>
      <trkpt lat="47.80718" lon="-2.46116">
        <ele>91.2</ele>
        <time>2025-02-11T13:18:14Z</time>
      </trkpt>
      <trkpt lat="47.80717" lon="-2.46116">
        <ele>91.1</ele>
        <time>2025-02-11T13:18:15Z</time>
      </trkpt>
      <trkpt lat="47.80716" lon="-2.46116">
        <ele>91.1</ele>
        <time>2025-02-11T13:18:16Z</time>
      </trkpt>
      <trkpt lat="47.80715" lon="-2.46116">
        <ele>91.1</ele>
        <time>2025-02-11T13:18:17Z</time>
      </trkpt>
      <trkpt lat="47.80715" lon="-2.46116">
        <ele>91.1</ele>
        <time>2025-02-11T13:18:18Z</time>
      </trkpt>
      <trkpt lat="47.80714" lon="-2.46116">
        <ele>91</ele>
        <time>2025-02-11T13:18:19Z</time>
      </trkpt>
      <trkpt lat="47.80714" lon="-2.46116">
        <ele>91</ele>
        <time>2025-02-11T13:18:20Z</time>
      </trkpt>
      <trkpt lat="47.80714" lon="-2.46116">
        <ele>91</ele>
        <time>2025-02-11T13:18:21Z</time>
      </trkpt>
      <trkpt lat="47.80714" lon="-2.46116">
        <ele>91</ele>
        <time>2025-02-11T13:18:22Z</time>
      </trkpt>
      <trkpt lat="47.80713" lon="-2.46115">
        <ele>90.9</ele>
        <time>2025-02-11T13:18:23Z</time>
      </trkpt>
      <trkpt lat="47.80713" lon="-2.46115">
        <ele>90.9</ele>
        <time>2025-02-11T13:18:24Z</time>
      </trkpt>
      <trkpt lat="47.80713" lon="-2.46115">
        <ele>90.9</ele>
        <time>2025-02-11T13:18:25Z</time>
      </trkpt>
      <trkpt lat="47.80713" lon="-2.46115">
        <ele>90.9</ele>
        <time>2025-02-11T13:18:26Z</time>
      </trkpt>
      <trkpt lat="47.80713" lon="-2.46115">
        <ele>90.9</ele>
        <time>2025-02-11T13:18:27Z</time>
      </trkpt>
      <trkpt lat="47.80713" lon="-2.46115">
        <ele>90.9</ele>
        <time>2025-02-11T13:18:28Z</time>
      </trkpt>
      <trkpt lat="47.80713" lon="-2.46115">
        <ele>90.9</ele>
        <time>2025-02-11T13:18:29Z</time>
      </trkpt>
      <trkpt lat="47.80713" lon="-2.46115">
        <ele>90.9</ele>
        <time>2025-02-11T13:18:30Z</time>
      </trkpt>
      <trkpt lat="47.80713" lon="-2.46115">
        <ele>90.9</ele>
        <time>2025-02-11T13:18:31Z</time>
      </trkpt>
      <trkpt lat="47.80713" lon="-2.46115">
        <ele>90.9</ele>
        <time>2025-02-11T13:18:32Z</time>
      </trkpt>
      <trkpt lat="47.80713" lon="-2.46115">
        <ele>90.9</ele>
        <time>2025-02-11T13:18:33Z</time>
      </trkpt>
      <trkpt lat="47.80713" lon="-2.46115">
        <ele>90.9</ele>
        <time>2025-02-11T13:18:34Z</time>
      </trkpt>
      <trkpt lat="47.80713" lon="-2.46115">
        <ele>90.9</ele>
        <time>2025-02-11T13:18:35Z</time>
      </trkpt>
      <trkpt lat="47.80713" lon="-2.46115">
        <ele>90.9</ele>
        <time>2025-02-11T13:18:36Z</time>
      </trkpt>
      <trkpt lat="47.80713" lon="-2.46114">
        <ele>90.9</ele>
        <time>2025-02-11T13:18:37Z</time>
      </trkpt>
      <trkpt lat="47.80713" lon="-2.46114">
        <ele>90.8</ele>
        <time>2025-02-11T13:18:38Z</time>
      </trkpt>
      <trkpt lat="47.80712" lon="-2.46113">
        <ele>90.8</ele>
        <time>2025-02-11T13:18:39Z</time>
      </trkpt>
      <trkpt lat="47.80712" lon="-2.46113">
        <ele>90.8</ele>
        <time>2025-02-11T13:18:40Z</time>
      </trkpt>
      <trkpt lat="47.80712" lon="-2.46112">
        <ele>90.7</ele>
        <time>2025-02-11T13:18:41Z</time>
      </trkpt>
      <trkpt lat="47.80713" lon="-2.46112">
        <ele>90.7</ele>
        <time>2025-02-11T13:18:42Z</time>
      </trkpt>
      <trkpt lat="47.80712" lon="-2.46111">
        <ele>90.7</ele>
        <time>2025-02-11T13:18:43Z</time>
      </trkpt>
      <trkpt lat="47.80713" lon="-2.4611">
        <ele>90.7</ele>
        <time>2025-02-11T13:18:44Z</time>
      </trkpt>
      <trkpt lat="47.80713" lon="-2.46109">
        <ele>90.8</ele>
        <time>2025-02-11T13:18:45Z</time>
      </trkpt>
      <trkpt lat="47.80714" lon="-2.46108">
        <ele>90.9</ele>
        <time>2025-02-11T13:18:46Z</time>
      </trkpt>
      <trkpt lat="47.80714" lon="-2.46107">
        <ele>91</ele>
        <time>2025-02-11T13:18:47Z</time>
      </trkpt>
      <trkpt lat="47.80714" lon="-2.46106">
        <ele>91.1</ele>
        <time>2025-02-11T13:18:48Z</time>
      </trkpt>
      <trkpt lat="47.80714" lon="-2.46106">
        <ele>91.1</ele>
        <time>2025-02-11T13:18:49Z</time>
      </trkpt>
      <trkpt lat="47.80714" lon="-2.46106">
        <ele>91.1</ele>
        <time>2025-02-11T13:18:50Z</time>
      </trkpt>
      <trkpt lat="47.80713" lon="-2.46105">
        <ele>91.1</ele>
        <time>2025-02-11T13:18:51Z</time>
      </trkpt>
      <trkpt lat="47.80712" lon="-2.46105">
        <ele>91.1</ele>
        <time>2025-02-11T13:18:52Z</time>
      </trkpt>
      <trkpt lat="47.80711" lon="-2.46105">
        <ele>91.1</ele>
        <time>2025-02-11T13:18:53Z</time>
      </trkpt>
      <trkpt lat="47.8071" lon="-2.46105">
        <ele>91</ele>
        <time>2025-02-11T13:18:54Z</time>
      </trkpt>
      <trkpt lat="47.80709" lon="-2.46105">
        <ele>91</ele>
        <time>2025-02-11T13:18:55Z</time>
      </trkpt>
      <trkpt lat="47.80708" lon="-2.46105">
        <ele>90.9</ele>
        <time>2025-02-11T13:18:56Z</time>
      </trkpt>
      <trkpt lat="47.80707" lon="-2.46105">
        <ele>90.9</ele>
        <time>2025-02-11T13:18:57Z</time>
      </trkpt>
      <trkpt lat="47.80705" lon="-2.46106">
        <ele>90.8</ele>
        <time>2025-02-11T13:18:58Z</time>
      </trkpt>
      <trkpt lat="47.80704" lon="-2.46106">
        <ele>90.7</ele>
        <time>2025-02-11T13:18:59Z</time>
      </trkpt>
      <trkpt lat="47.80702" lon="-2.46106">
        <ele>90.7</ele>
        <time>2025-02-11T13:19:00Z</time>
      </trkpt>
      <trkpt lat="47.80701" lon="-2.46106">
        <ele>90.6</ele>
        <time>2025-02-11T13:19:01Z</time>
      </trkpt>
      <trkpt lat="47.80699" lon="-2.46106">
        <ele>90.5</ele>
        <time>2025-02-11T13:19:02Z</time>
      </trkpt>
      <trkpt lat="47.80698" lon="-2.46107">
        <ele>90.4</ele>
        <time>2025-02-11T13:19:03Z</time>
      </trkpt>
      <trkpt lat="47.80696" lon="-2.46108">
        <ele>90.3</ele>
        <time>2025-02-11T13:19:04Z</time>
      </trkpt>
      <trkpt lat="47.80694" lon="-2.46108">
        <ele>90.2</ele>
        <time>2025-02-11T13:19:05Z</time>
      </trkpt>
      <trkpt lat="47.80693" lon="-2.46107">
        <ele>90.3</ele>
        <time>2025-02-11T13:19:06Z</time>
      </trkpt>
      <trkpt lat="47.80692" lon="-2.46107">
        <ele>90.3</ele>
        <time>2025-02-11T13:19:07Z</time>
      </trkpt>
      <trkpt lat="47.80691" lon="-2.46106">
        <ele>90.3</ele>
        <time>2025-02-11T13:19:08Z</time>
      </trkpt>
      <trkpt lat="47.8069" lon="-2.46106">
        <ele>90.3</ele>
        <time>2025-02-11T13:19:09Z</time>
      </trkpt>
      <trkpt lat="47.80689" lon="-2.46106">
        <ele>90.3</ele>
        <time>2025-02-11T13:19:10Z</time>
      </trkpt>
      <trkpt lat="47.80688" lon="-2.46105">
        <ele>90.3</ele>
        <time>2025-02-11T13:19:11Z</time>
      </trkpt>
      <trkpt lat="47.80687" lon="-2.46105">
        <ele>90.3</ele>
        <time>2025-02-11T13:19:12Z</time>
      </trkpt>
      <trkpt lat="47.80686" lon="-2.46104">
        <ele>90.3</ele>
        <time>2025-02-11T13:19:13Z</time>
      </trkpt>
      <trkpt lat="47.80685" lon="-2.46104">
        <ele>90.3</ele>
        <time>2025-02-11T13:19:14Z</time>
      </trkpt>
      <trkpt lat="47.80684" lon="-2.46105">
        <ele>90.3</ele>
        <time>2025-02-11T13:19:15Z</time>
      </trkpt>
      <trkpt lat="47.80682" lon="-2.46105">
        <ele>90.3</ele>
        <time>2025-02-11T13:19:16Z</time>
      </trkpt>
      <trkpt lat="47.80681" lon="-2.46105">
        <ele>90.2</ele>
        <time>2025-02-11T13:19:17Z</time>
      </trkpt>
      <trkpt lat="47.8068" lon="-2.46104">
        <ele>90.2</ele>
        <time>2025-02-11T13:19:18Z</time>
      </trkpt>
      <trkpt lat="47.80678" lon="-2.46104">
        <ele>90.2</ele>
        <time>2025-02-11T13:19:19Z</time>
      </trkpt>
      <trkpt lat="47.80677" lon="-2.46104">
        <ele>90.2</ele>
        <time>2025-02-11T13:19:20Z</time>
      </trkpt>
      <trkpt lat="47.80676" lon="-2.46104">
        <ele>90.2</ele>
        <time>2025-02-11T13:19:21Z</time>
      </trkpt>
      <trkpt lat="47.80675" lon="-2.46104">
        <ele>90.2</ele>
        <time>2025-02-11T13:19:22Z</time>
      </trkpt>
      <trkpt lat="47.80673" lon="-2.46104">
        <ele>90.1</ele>
        <time>2025-02-11T13:19:23Z</time>
      </trkpt>
      <trkpt lat="47.80672" lon="-2.46104">
        <ele>90.1</ele>
        <time>2025-02-11T13:19:24Z</time>
      </trkpt>
      <trkpt lat="47.80671" lon="-2.46103">
        <ele>90.1</ele>
        <time>2025-02-11T13:19:25Z</time>
      </trkpt>
      <trkpt lat="47.8067" lon="-2.46103">
        <ele>90.1</ele>
        <time>2025-02-11T13:19:26Z</time>
      </trkpt>
      <trkpt lat="47.80669" lon="-2.46103">
        <ele>90</ele>
        <time>2025-02-11T13:19:27Z</time>
      </trkpt>
      <trkpt lat="47.80668" lon="-2.46104">
        <ele>90</ele>
        <time>2025-02-11T13:19:28Z</time>
      </trkpt>
      <trkpt lat="47.80667" lon="-2.46103">
        <ele>90</ele>
        <time>2025-02-11T13:19:29Z</time>
      </trkpt>
      <trkpt lat="47.80666" lon="-2.46103">
        <ele>90</ele>
        <time>2025-02-11T13:19:30Z</time>
      </trkpt>
      <trkpt lat="47.80665" lon="-2.46102">
        <ele>89.9</ele>
        <time>2025-02-11T13:19:31Z</time>
      </trkpt>
      <trkpt lat="47.80664" lon="-2.46102">
        <ele>89.9</ele>
        <time>2025-02-11T13:19:32Z</time>
      </trkpt>
      <trkpt lat="47.80663" lon="-2.46101">
        <ele>89.8</ele>
        <time>2025-02-11T13:19:33Z</time>
      </trkpt>
      <trkpt lat="47.80662" lon="-2.461">
        <ele>89.7</ele>
        <time>2025-02-11T13:19:34Z</time>
      </trkpt>
      <trkpt lat="47.80661" lon="-2.46099">
        <ele>89.7</ele>
        <time>2025-02-11T13:19:35Z</time>
      </trkpt>
      <trkpt lat="47.8066" lon="-2.46098">
        <ele>89.6</ele>
        <time>2025-02-11T13:19:36Z</time>
      </trkpt>
      <trkpt lat="47.80659" lon="-2.46096">
        <ele>89.6</ele>
        <time>2025-02-11T13:19:37Z</time>
      </trkpt>
      <trkpt lat="47.80658" lon="-2.46094">
        <ele>89.5</ele>
        <time>2025-02-11T13:19:38Z</time>
      </trkpt>
      <trkpt lat="47.80658" lon="-2.46093">
        <ele>89.5</ele>
        <time>2025-02-11T13:19:39Z</time>
      </trkpt>
      <trkpt lat="47.80658" lon="-2.46091">
        <ele>89.4</ele>
        <time>2025-02-11T13:19:40Z</time>
      </trkpt>
      <trkpt lat="47.80658" lon="-2.46089">
        <ele>89.4</ele>
        <time>2025-02-11T13:19:41Z</time>
      </trkpt>
      <trkpt lat="47.80658" lon="-2.46087">
        <ele>89.4</ele>
        <time>2025-02-11T13:19:42Z</time>
      </trkpt>
      <trkpt lat="47.80658" lon="-2.46086">
        <ele>89.4</ele>
        <time>2025-02-11T13:19:43Z</time>
      </trkpt>
      <trkpt lat="47.80658" lon="-2.46084">
        <ele>89.4</ele>
        <time>2025-02-11T13:19:44Z</time>
      </trkpt>
      <trkpt lat="47.80658" lon="-2.46082">
        <ele>89.3</ele>
        <time>2025-02-11T13:19:45Z</time>
      </trkpt>
      <trkpt lat="47.80658" lon="-2.4608">
        <ele>89.2</ele>
        <time>2025-02-11T13:19:46Z</time>
      </trkpt>
      <trkpt lat="47.80658" lon="-2.46078">
        <ele>89.2</ele>
        <time>2025-02-11T13:19:47Z</time>
      </trkpt>
      <trkpt lat="47.80658" lon="-2.46077">
        <ele>89.1</ele>
        <time>2025-02-11T13:19:48Z</time>
      </trkpt>
      <trkpt lat="47.80658" lon="-2.46075">
        <ele>89</ele>
        <time>2025-02-11T13:19:49Z</time>
      </trkpt>
      <trkpt lat="47.80658" lon="-2.46073">
        <ele>89</ele>
        <time>2025-02-11T13:19:50Z</time>
      </trkpt>
      <trkpt lat="47.80658" lon="-2.46072">
        <ele>88.9</ele>
        <time>2025-02-11T13:19:51Z</time>
      </trkpt>
      <trkpt lat="47.80658" lon="-2.4607">
        <ele>88.9</ele>
        <time>2025-02-11T13:19:52Z</time>
      </trkpt>
      <trkpt lat="47.80658" lon="-2.46068">
        <ele>88.8</ele>
        <time>2025-02-11T13:19:53Z</time>
      </trkpt>
      <trkpt lat="47.80658" lon="-2.46066">
        <ele>88.8</ele>
        <time>2025-02-11T13:19:54Z</time>
      </trkpt>
      <trkpt lat="47.80658" lon="-2.46065">
        <ele>88.7</ele>
        <time>2025-02-11T13:19:55Z</time>
      </trkpt>
      <trkpt lat="47.80658" lon="-2.46063">
        <ele>88.7</ele>
        <time>2025-02-11T13:19:56Z</time>
      </trkpt>
      <trkpt lat="47.80658" lon="-2.46061">
        <ele>88.6</ele>
        <time>2025-02-11T13:19:57Z</time>
      </trkpt>
      <trkpt lat="47.80658" lon="-2.4606">
        <ele>88.5</ele>
        <time>2025-02-11T13:19:58Z</time>
      </trkpt>
      <trkpt lat="47.80659" lon="-2.46058">
        <ele>88.5</ele>
        <time>2025-02-11T13:19:59Z</time>
      </trkpt>
      <trkpt lat="47.80659" lon="-2.46056">
        <ele>88.4</ele>
        <time>2025-02-11T13:20:00Z</time>
      </trkpt>
      <trkpt lat="47.80658" lon="-2.46055">
        <ele>88.4</ele>
        <time>2025-02-11T13:20:01Z</time>
      </trkpt>
      <trkpt lat="47.80659" lon="-2.46053">
        <ele>88.3</ele>
        <time>2025-02-11T13:20:02Z</time>
      </trkpt>
      <trkpt lat="47.80659" lon="-2.46051">
        <ele>88.3</ele>
        <time>2025-02-11T13:20:03Z</time>
      </trkpt>
      <trkpt lat="47.80659" lon="-2.46049">
        <ele>88.2</ele>
        <time>2025-02-11T13:20:04Z</time>
      </trkpt>
      <trkpt lat="47.80659" lon="-2.46048">
        <ele>88.2</ele>
        <time>2025-02-11T13:20:05Z</time>
      </trkpt>
      <trkpt lat="47.80659" lon="-2.46046">
        <ele>88.1</ele>
        <time>2025-02-11T13:20:06Z</time>
      </trkpt>
      <trkpt lat="47.80659" lon="-2.46044">
        <ele>88</ele>
        <time>2025-02-11T13:20:07Z</time>
      </trkpt>
      <trkpt lat="47.80658" lon="-2.46043">
        <ele>87.9</ele>
        <time>2025-02-11T13:20:08Z</time>
      </trkpt>
      <trkpt lat="47.80658" lon="-2.46041">
        <ele>87.9</ele>
        <time>2025-02-11T13:20:09Z</time>
      </trkpt>
      <trkpt lat="47.80658" lon="-2.46039">
        <ele>87.8</ele>
        <time>2025-02-11T13:20:10Z</time>
      </trkpt>
      <trkpt lat="47.80658" lon="-2.46038">
        <ele>87.7</ele>
        <time>2025-02-11T13:20:11Z</time>
      </trkpt>
      <trkpt lat="47.80658" lon="-2.46036">
        <ele>87.7</ele>
        <time>2025-02-11T13:20:12Z</time>
      </trkpt>
      <trkpt lat="47.80658" lon="-2.46034">
        <ele>87.6</ele>
        <time>2025-02-11T13:20:13Z</time>
      </trkpt>
      <trkpt lat="47.80658" lon="-2.46032">
        <ele>87.6</ele>
        <time>2025-02-11T13:20:14Z</time>
      </trkpt>
      <trkpt lat="47.80658" lon="-2.46031">
        <ele>87.5</ele>
        <time>2025-02-11T13:20:15Z</time>
      </trkpt>
      <trkpt lat="47.80658" lon="-2.46029">
        <ele>87.4</ele>
        <time>2025-02-11T13:20:16Z</time>
      </trkpt>
      <trkpt lat="47.80658" lon="-2.46027">
        <ele>87.4</ele>
        <time>2025-02-11T13:20:17Z</time>
      </trkpt>
      <trkpt lat="47.80658" lon="-2.46025">
        <ele>87.3</ele>
        <time>2025-02-11T13:20:18Z</time>
      </trkpt>
      <trkpt lat="47.80657" lon="-2.46024">
        <ele>87.2</ele>
        <time>2025-02-11T13:20:19Z</time>
      </trkpt>
      <trkpt lat="47.80657" lon="-2.46021">
        <ele>87.1</ele>
        <time>2025-02-11T13:20:20Z</time>
      </trkpt>
      <trkpt lat="47.80657" lon="-2.46019">
        <ele>87</ele>
        <time>2025-02-11T13:20:21Z</time>
      </trkpt>
      <trkpt lat="47.80657" lon="-2.46016">
        <ele>86.9</ele>
        <time>2025-02-11T13:20:22Z</time>
      </trkpt>
      <trkpt lat="47.80656" lon="-2.46013">
        <ele>86.7</ele>
        <time>2025-02-11T13:20:23Z</time>
      </trkpt>
      <trkpt lat="47.80656" lon="-2.4601">
        <ele>86.6</ele>
        <time>2025-02-11T13:20:24Z</time>
      </trkpt>
      <trkpt lat="47.80656" lon="-2.46008">
        <ele>86.5</ele>
        <time>2025-02-11T13:20:25Z</time>
      </trkpt>
      <trkpt lat="47.80656" lon="-2.46006">
        <ele>86.4</ele>
        <time>2025-02-11T13:20:26Z</time>
      </trkpt>
      <trkpt lat="47.80656" lon="-2.46004">
        <ele>86.3</ele>
        <time>2025-02-11T13:20:27Z</time>
      </trkpt>
      <trkpt lat="47.80656" lon="-2.46002">
        <ele>86.3</ele>
        <time>2025-02-11T13:20:28Z</time>
      </trkpt>
      <trkpt lat="47.80656" lon="-2.46">
        <ele>86.3</ele>
        <time>2025-02-11T13:20:29Z</time>
      </trkpt>
      <trkpt lat="47.80657" lon="-2.45998">
        <ele>86.3</ele>
        <time>2025-02-11T13:20:30Z</time>
      </trkpt>
      <trkpt lat="47.80657" lon="-2.45997">
        <ele>86.2</ele>
        <time>2025-02-11T13:20:31Z</time>
      </trkpt>
      <trkpt lat="47.80657" lon="-2.45995">
        <ele>86.2</ele>
        <time>2025-02-11T13:20:32Z</time>
      </trkpt>
      <trkpt lat="47.80657" lon="-2.45993">
        <ele>86.2</ele>
        <time>2025-02-11T13:20:33Z</time>
      </trkpt>
      <trkpt lat="47.80657" lon="-2.45991">
        <ele>86.2</ele>
        <time>2025-02-11T13:20:34Z</time>
      </trkpt>
      <trkpt lat="47.80657" lon="-2.45989">
        <ele>86.1</ele>
        <time>2025-02-11T13:20:35Z</time>
      </trkpt>
      <trkpt lat="47.80657" lon="-2.45987">
        <ele>86.1</ele>
        <time>2025-02-11T13:20:36Z</time>
      </trkpt>
      <trkpt lat="47.80657" lon="-2.45985">
        <ele>86.1</ele>
        <time>2025-02-11T13:20:37Z</time>
      </trkpt>
      <trkpt lat="47.80657" lon="-2.45983">
        <ele>86.1</ele>
        <time>2025-02-11T13:20:38Z</time>
      </trkpt>
      <trkpt lat="47.80657" lon="-2.45982">
        <ele>86</ele>
        <time>2025-02-11T13:20:39Z</time>
      </trkpt>
      <trkpt lat="47.80656" lon="-2.4598">
        <ele>86</ele>
        <time>2025-02-11T13:20:40Z</time>
      </trkpt>
      <trkpt lat="47.80657" lon="-2.45978">
        <ele>86</ele>
        <time>2025-02-11T13:20:41Z</time>
      </trkpt>
      <trkpt lat="47.80657" lon="-2.45976">
        <ele>86</ele>
        <time>2025-02-11T13:20:42Z</time>
      </trkpt>
      <trkpt lat="47.80656" lon="-2.45975">
        <ele>85.9</ele>
        <time>2025-02-11T13:20:43Z</time>
      </trkpt>
      <trkpt lat="47.80656" lon="-2.45973">
        <ele>85.8</ele>
        <time>2025-02-11T13:20:44Z</time>
      </trkpt>
      <trkpt lat="47.80656" lon="-2.45971">
        <ele>85.8</ele>
        <time>2025-02-11T13:20:45Z</time>
      </trkpt>
      <trkpt lat="47.80656" lon="-2.45969">
        <ele>85.7</ele>
        <time>2025-02-11T13:20:46Z</time>
      </trkpt>
      <trkpt lat="47.80655" lon="-2.45968">
        <ele>85.7</ele>
        <time>2025-02-11T13:20:47Z</time>
      </trkpt>
      <trkpt lat="47.80655" lon="-2.45966">
        <ele>85.6</ele>
        <time>2025-02-11T13:20:48Z</time>
      </trkpt>
      <trkpt lat="47.80654" lon="-2.45964">
        <ele>85.5</ele>
        <time>2025-02-11T13:20:49Z</time>
      </trkpt>
      <trkpt lat="47.80654" lon="-2.45962">
        <ele>85.4</ele>
        <time>2025-02-11T13:20:50Z</time>
      </trkpt>
      <trkpt lat="47.80654" lon="-2.4596">
        <ele>85.4</ele>
        <time>2025-02-11T13:20:51Z</time>
      </trkpt>
      <trkpt lat="47.80655" lon="-2.45958">
        <ele>85.4</ele>
        <time>2025-02-11T13:20:52Z</time>
      </trkpt>
      <trkpt lat="47.80654" lon="-2.45956">
        <ele>85.3</ele>
        <time>2025-02-11T13:20:53Z</time>
      </trkpt>
      <trkpt lat="47.80654" lon="-2.45954">
        <ele>85.3</ele>
        <time>2025-02-11T13:20:54Z</time>
      </trkpt>
      <trkpt lat="47.80655" lon="-2.45952">
        <ele>85.3</ele>
        <time>2025-02-11T13:20:55Z</time>
      </trkpt>
      <trkpt lat="47.80655" lon="-2.45949">
        <ele>85.2</ele>
        <time>2025-02-11T13:20:56Z</time>
      </trkpt>
      <trkpt lat="47.80654" lon="-2.45947">
        <ele>85.2</ele>
        <time>2025-02-11T13:20:57Z</time>
      </trkpt>
      <trkpt lat="47.80654" lon="-2.45945">
        <ele>85.1</ele>
        <time>2025-02-11T13:20:58Z</time>
      </trkpt>
      <trkpt lat="47.80653" lon="-2.45944">
        <ele>85</ele>
        <time>2025-02-11T13:20:59Z</time>
      </trkpt>
      <trkpt lat="47.80653" lon="-2.45942">
        <ele>84.9</ele>
        <time>2025-02-11T13:21:00Z</time>
      </trkpt>
      <trkpt lat="47.80653" lon="-2.4594">
        <ele>84.8</ele>
        <time>2025-02-11T13:21:01Z</time>
      </trkpt>
      <trkpt lat="47.80653" lon="-2.45939">
        <ele>84.7</ele>
        <time>2025-02-11T13:21:02Z</time>
      </trkpt>
      <trkpt lat="47.80653" lon="-2.45937">
        <ele>84.6</ele>
        <time>2025-02-11T13:21:03Z</time>
      </trkpt>
      <trkpt lat="47.80653" lon="-2.45936">
        <ele>84.6</ele>
        <time>2025-02-11T13:21:04Z</time>
      </trkpt>
      <trkpt lat="47.80654" lon="-2.45934">
        <ele>84.5</ele>
        <time>2025-02-11T13:21:05Z</time>
      </trkpt>
      <trkpt lat="47.80654" lon="-2.45932">
        <ele>84.4</ele>
        <time>2025-02-11T13:21:06Z</time>
      </trkpt>
      <trkpt lat="47.80654" lon="-2.45931">
        <ele>84.3</ele>
        <time>2025-02-11T13:21:07Z</time>
      </trkpt>
      <trkpt lat="47.80653" lon="-2.45929">
        <ele>84.2</ele>
        <time>2025-02-11T13:21:08Z</time>
      </trkpt>
      <trkpt lat="47.80653" lon="-2.45927">
        <ele>84.1</ele>
        <time>2025-02-11T13:21:09Z</time>
      </trkpt>
      <trkpt lat="47.80653" lon="-2.45926">
        <ele>84</ele>
        <time>2025-02-11T13:21:10Z</time>
      </trkpt>
      <trkpt lat="47.80653" lon="-2.45924">
        <ele>83.9</ele>
        <time>2025-02-11T13:21:11Z</time>
      </trkpt>
      <trkpt lat="47.80653" lon="-2.45922">
        <ele>83.8</ele>
        <time>2025-02-11T13:21:12Z</time>
      </trkpt>
      <trkpt lat="47.80653" lon="-2.45921">
        <ele>83.7</ele>
        <time>2025-02-11T13:21:13Z</time>
      </trkpt>
      <trkpt lat="47.80653" lon="-2.45919">
        <ele>83.6</ele>
        <time>2025-02-11T13:21:14Z</time>
      </trkpt>
      <trkpt lat="47.80653" lon="-2.45917">
        <ele>83.5</ele>
        <time>2025-02-11T13:21:15Z</time>
      </trkpt>
      <trkpt lat="47.80653" lon="-2.45916">
        <ele>83.4</ele>
        <time>2025-02-11T13:21:16Z</time>
      </trkpt>
      <trkpt lat="47.80652" lon="-2.45914">
        <ele>83.3</ele>
        <time>2025-02-11T13:21:17Z</time>
      </trkpt>
      <trkpt lat="47.80652" lon="-2.45912">
        <ele>83.2</ele>
        <time>2025-02-11T13:21:18Z</time>
      </trkpt>
      <trkpt lat="47.80652" lon="-2.4591">
        <ele>83.1</ele>
        <time>2025-02-11T13:21:19Z</time>
      </trkpt>
      <trkpt lat="47.80652" lon="-2.45909">
        <ele>83</ele>
        <time>2025-02-11T13:21:20Z</time>
      </trkpt>
      <trkpt lat="47.80652" lon="-2.45907">
        <ele>82.9</ele>
        <time>2025-02-11T13:21:21Z</time>
      </trkpt>
      <trkpt lat="47.80652" lon="-2.45905">
        <ele>82.8</ele>
        <time>2025-02-11T13:21:22Z</time>
      </trkpt>
      <trkpt lat="47.80652" lon="-2.45903">
        <ele>82.7</ele>
        <time>2025-02-11T13:21:23Z</time>
      </trkpt>
      <trkpt lat="47.80652" lon="-2.45901">
        <ele>82.6</ele>
        <time>2025-02-11T13:21:24Z</time>
      </trkpt>
      <trkpt lat="47.80652" lon="-2.45899">
        <ele>82.5</ele>
        <time>2025-02-11T13:21:25Z</time>
      </trkpt>
      <trkpt lat="47.80652" lon="-2.45897">
        <ele>82.4</ele>
        <time>2025-02-11T13:21:26Z</time>
      </trkpt>
      <trkpt lat="47.80652" lon="-2.45895">
        <ele>82.3</ele>
        <time>2025-02-11T13:21:27Z</time>
      </trkpt>
      <trkpt lat="47.80651" lon="-2.45894">
        <ele>82.2</ele>
        <time>2025-02-11T13:21:28Z</time>
      </trkpt>
      <trkpt lat="47.80651" lon="-2.45892">
        <ele>82.1</ele>
        <time>2025-02-11T13:21:29Z</time>
      </trkpt>
      <trkpt lat="47.80652" lon="-2.4589">
        <ele>82</ele>
        <time>2025-02-11T13:21:30Z</time>
      </trkpt>
      <trkpt lat="47.80652" lon="-2.45888">
        <ele>81.9</ele>
        <time>2025-02-11T13:21:31Z</time>
      </trkpt>
      <trkpt lat="47.80651" lon="-2.45887">
        <ele>81.9</ele>
        <time>2025-02-11T13:21:32Z</time>
      </trkpt>
      <trkpt lat="47.80651" lon="-2.45885">
        <ele>81.8</ele>
        <time>2025-02-11T13:21:33Z</time>
      </trkpt>
      <trkpt lat="47.80651" lon="-2.45883">
        <ele>81.7</ele>
        <time>2025-02-11T13:21:34Z</time>
      </trkpt>
      <trkpt lat="47.80651" lon="-2.45881">
        <ele>81.7</ele>
        <time>2025-02-11T13:21:35Z</time>
      </trkpt>
      <trkpt lat="47.80651" lon="-2.45879">
        <ele>81.6</ele>
        <time>2025-02-11T13:21:36Z</time>
      </trkpt>
      <trkpt lat="47.80651" lon="-2.45877">
        <ele>81.6</ele>
        <time>2025-02-11T13:21:37Z</time>
      </trkpt>
      <trkpt lat="47.80651" lon="-2.45875">
        <ele>81.6</ele>
        <time>2025-02-11T13:21:38Z</time>
      </trkpt>
      <trkpt lat="47.80651" lon="-2.45873">
        <ele>81.5</ele>
        <time>2025-02-11T13:21:39Z</time>
      </trkpt>
      <trkpt lat="47.80651" lon="-2.45871">
        <ele>81.5</ele>
        <time>2025-02-11T13:21:40Z</time>
      </trkpt>
      <trkpt lat="47.80651" lon="-2.4587">
        <ele>81.4</ele>
        <time>2025-02-11T13:21:41Z</time>
      </trkpt>
      <trkpt lat="47.80651" lon="-2.45868">
        <ele>81.4</ele>
        <time>2025-02-11T13:21:42Z</time>
      </trkpt>
      <trkpt lat="47.80651" lon="-2.45866">
        <ele>81.4</ele>
        <time>2025-02-11T13:21:43Z</time>
      </trkpt>
      <trkpt lat="47.80651" lon="-2.45864">
        <ele>81.3</ele>
        <time>2025-02-11T13:21:44Z</time>
      </trkpt>
      <trkpt lat="47.80651" lon="-2.45862">
        <ele>81.3</ele>
        <time>2025-02-11T13:21:45Z</time>
      </trkpt>
      <trkpt lat="47.80651" lon="-2.4586">
        <ele>81.2</ele>
        <time>2025-02-11T13:21:46Z</time>
      </trkpt>
      <trkpt lat="47.8065" lon="-2.45859">
        <ele>81.1</ele>
        <time>2025-02-11T13:21:47Z</time>
      </trkpt>
      <trkpt lat="47.8065" lon="-2.45857">
        <ele>81</ele>
        <time>2025-02-11T13:21:48Z</time>
      </trkpt>
      <trkpt lat="47.8065" lon="-2.45855">
        <ele>80.9</ele>
        <time>2025-02-11T13:21:49Z</time>
      </trkpt>
      <trkpt lat="47.8065" lon="-2.45854">
        <ele>80.8</ele>
        <time>2025-02-11T13:21:50Z</time>
      </trkpt>
      <trkpt lat="47.8065" lon="-2.45852">
        <ele>80.7</ele>
        <time>2025-02-11T13:21:51Z</time>
      </trkpt>
      <trkpt lat="47.8065" lon="-2.45849">
        <ele>80.6</ele>
        <time>2025-02-11T13:21:52Z</time>
      </trkpt>
      <trkpt lat="47.8065" lon="-2.45847">
        <ele>80.5</ele>
        <time>2025-02-11T13:21:53Z</time>
      </trkpt>
      <trkpt lat="47.8065" lon="-2.45846">
        <ele>80.4</ele>
        <time>2025-02-11T13:21:54Z</time>
      </trkpt>
      <trkpt lat="47.8065" lon="-2.45844">
        <ele>80.3</ele>
        <time>2025-02-11T13:21:55Z</time>
      </trkpt>
      <trkpt lat="47.8065" lon="-2.45842">
        <ele>80.2</ele>
        <time>2025-02-11T13:21:56Z</time>
      </trkpt>
      <trkpt lat="47.8065" lon="-2.4584">
        <ele>80.1</ele>
        <time>2025-02-11T13:21:57Z</time>
      </trkpt>
      <trkpt lat="47.8065" lon="-2.45838">
        <ele>80</ele>
        <time>2025-02-11T13:21:58Z</time>
      </trkpt>
      <trkpt lat="47.8065" lon="-2.45836">
        <ele>80</ele>
        <time>2025-02-11T13:21:59Z</time>
      </trkpt>
      <trkpt lat="47.8065" lon="-2.45834">
        <ele>79.9</ele>
        <time>2025-02-11T13:22:00Z</time>
      </trkpt>
      <trkpt lat="47.80651" lon="-2.45832">
        <ele>79.8</ele>
        <time>2025-02-11T13:22:01Z</time>
      </trkpt>
      <trkpt lat="47.80651" lon="-2.45831">
        <ele>79.7</ele>
        <time>2025-02-11T13:22:02Z</time>
      </trkpt>
      <trkpt lat="47.80652" lon="-2.45829">
        <ele>79.7</ele>
        <time>2025-02-11T13:22:03Z</time>
      </trkpt>
      <trkpt lat="47.80652" lon="-2.45828">
        <ele>79.7</ele>
        <time>2025-02-11T13:22:04Z</time>
      </trkpt>
      <trkpt lat="47.80653" lon="-2.45826">
        <ele>79.6</ele>
        <time>2025-02-11T13:22:05Z</time>
      </trkpt>
      <trkpt lat="47.80654" lon="-2.45825">
        <ele>79.6</ele>
        <time>2025-02-11T13:22:06Z</time>
      </trkpt>
      <trkpt lat="47.80654" lon="-2.45823">
        <ele>79.5</ele>
        <time>2025-02-11T13:22:07Z</time>
      </trkpt>
      <trkpt lat="47.80655" lon="-2.45822">
        <ele>79.5</ele>
        <time>2025-02-11T13:22:08Z</time>
      </trkpt>
      <trkpt lat="47.80656" lon="-2.4582">
        <ele>79.4</ele>
        <time>2025-02-11T13:22:09Z</time>
      </trkpt>
      <trkpt lat="47.80656" lon="-2.45818">
        <ele>79.4</ele>
        <time>2025-02-11T13:22:10Z</time>
      </trkpt>
      <trkpt lat="47.80657" lon="-2.45817">
        <ele>79.3</ele>
        <time>2025-02-11T13:22:11Z</time>
      </trkpt>
      <trkpt lat="47.80658" lon="-2.45816">
        <ele>79.3</ele>
        <time>2025-02-11T13:22:12Z</time>
      </trkpt>
      <trkpt lat="47.80658" lon="-2.45814">
        <ele>79.2</ele>
        <time>2025-02-11T13:22:13Z</time>
      </trkpt>
      <trkpt lat="47.80659" lon="-2.45813">
        <ele>79.1</ele>
        <time>2025-02-11T13:22:14Z</time>
      </trkpt>
      <trkpt lat="47.80659" lon="-2.45811">
        <ele>79.1</ele>
        <time>2025-02-11T13:22:15Z</time>
      </trkpt>
      <trkpt lat="47.80659" lon="-2.4581">
        <ele>79</ele>
        <time>2025-02-11T13:22:16Z</time>
      </trkpt>
      <trkpt lat="47.8066" lon="-2.45809">
        <ele>79</ele>
        <time>2025-02-11T13:22:17Z</time>
      </trkpt>
      <trkpt lat="47.80661" lon="-2.45809">
        <ele>79</ele>
        <time>2025-02-11T13:22:18Z</time>
      </trkpt>
      <trkpt lat="47.80661" lon="-2.45808">
        <ele>78.9</ele>
        <time>2025-02-11T13:22:19Z</time>
      </trkpt>
      <trkpt lat="47.80662" lon="-2.45807">
        <ele>78.9</ele>
        <time>2025-02-11T13:22:20Z</time>
      </trkpt>
      <trkpt lat="47.80664" lon="-2.45807">
        <ele>79</ele>
        <time>2025-02-11T13:22:21Z</time>
      </trkpt>
      <trkpt lat="47.80665" lon="-2.45809">
        <ele>79.1</ele>
        <time>2025-02-11T13:22:22Z</time>
      </trkpt>
      <trkpt lat="47.80666" lon="-2.4581">
        <ele>79.3</ele>
        <time>2025-02-11T13:22:23Z</time>
      </trkpt>
      <trkpt lat="47.80667" lon="-2.4581">
        <ele>79.3</ele>
        <time>2025-02-11T13:22:24Z</time>
      </trkpt>
      <trkpt lat="47.80668" lon="-2.4581">
        <ele>79.4</ele>
        <time>2025-02-11T13:22:25Z</time>
      </trkpt>
      <trkpt lat="47.80668" lon="-2.45809">
        <ele>79.3</ele>
        <time>2025-02-11T13:22:26Z</time>
      </trkpt>
      <trkpt lat="47.80667" lon="-2.45807">
        <ele>79.2</ele>
        <time>2025-02-11T13:22:27Z</time>
      </trkpt>
      <trkpt lat="47.80666" lon="-2.45807">
        <ele>79.1</ele>
        <time>2025-02-11T13:22:28Z</time>
      </trkpt>
      <trkpt lat="47.80664" lon="-2.45808">
        <ele>79.1</ele>
        <time>2025-02-11T13:22:29Z</time>
      </trkpt>
      <trkpt lat="47.80663" lon="-2.45809">
        <ele>79.1</ele>
        <time>2025-02-11T13:22:30Z</time>
      </trkpt>
      <trkpt lat="47.80662" lon="-2.4581">
        <ele>79.1</ele>
        <time>2025-02-11T13:22:31Z</time>
      </trkpt>
      <trkpt lat="47.80661" lon="-2.45809">
        <ele>79</ele>
        <time>2025-02-11T13:22:32Z</time>
      </trkpt>
      <trkpt lat="47.8066" lon="-2.45808">
        <ele>78.9</ele>
        <time>2025-02-11T13:22:33Z</time>
      </trkpt>
      <trkpt lat="47.80659" lon="-2.45807">
        <ele>78.8</ele>
        <time>2025-02-11T13:22:34Z</time>
      </trkpt>
      <trkpt lat="47.80658" lon="-2.45806">
        <ele>78.7</ele>
        <time>2025-02-11T13:22:35Z</time>
      </trkpt>
      <trkpt lat="47.80658" lon="-2.45805">
        <ele>78.7</ele>
        <time>2025-02-11T13:22:36Z</time>
      </trkpt>
      <trkpt lat="47.80657" lon="-2.45803">
        <ele>78.6</ele>
        <time>2025-02-11T13:22:37Z</time>
      </trkpt>
      <trkpt lat="47.80657" lon="-2.45802">
        <ele>78.6</ele>
        <time>2025-02-11T13:22:38Z</time>
      </trkpt>
      <trkpt lat="47.80657" lon="-2.458">
        <ele>78.6</ele>
        <time>2025-02-11T13:22:39Z</time>
      </trkpt>
      <trkpt lat="47.80657" lon="-2.45797">
        <ele>78.5</ele>
        <time>2025-02-11T13:22:40Z</time>
      </trkpt>
      <trkpt lat="47.80657" lon="-2.45795">
        <ele>78.5</ele>
        <time>2025-02-11T13:22:41Z</time>
      </trkpt>
      <trkpt lat="47.80656" lon="-2.45793">
        <ele>78.5</ele>
        <time>2025-02-11T13:22:42Z</time>
      </trkpt>
      <trkpt lat="47.80656" lon="-2.45792">
        <ele>78.4</ele>
        <time>2025-02-11T13:22:43Z</time>
      </trkpt>
      <trkpt lat="47.80656" lon="-2.4579">
        <ele>78.4</ele>
        <time>2025-02-11T13:22:44Z</time>
      </trkpt>
      <trkpt lat="47.80656" lon="-2.45789">
        <ele>78.4</ele>
        <time>2025-02-11T13:22:45Z</time>
      </trkpt>
      <trkpt lat="47.80656" lon="-2.45787">
        <ele>78.3</ele>
        <time>2025-02-11T13:22:46Z</time>
      </trkpt>
      <trkpt lat="47.80656" lon="-2.45785">
        <ele>78.3</ele>
        <time>2025-02-11T13:22:47Z</time>
      </trkpt>
      <trkpt lat="47.80655" lon="-2.45784">
        <ele>78.3</ele>
        <time>2025-02-11T13:22:48Z</time>
      </trkpt>
      <trkpt lat="47.80655" lon="-2.45782">
        <ele>78.2</ele>
        <time>2025-02-11T13:22:49Z</time>
      </trkpt>
      <trkpt lat="47.80655" lon="-2.45781">
        <ele>78.2</ele>
        <time>2025-02-11T13:22:50Z</time>
      </trkpt>
      <trkpt lat="47.80655" lon="-2.45779">
        <ele>78.2</ele>
        <time>2025-02-11T13:22:51Z</time>
      </trkpt>
      <trkpt lat="47.80655" lon="-2.45777">
        <ele>78.2</ele>
        <time>2025-02-11T13:22:52Z</time>
      </trkpt>
      <trkpt lat="47.80655" lon="-2.45776">
        <ele>78.2</ele>
        <time>2025-02-11T13:22:53Z</time>
      </trkpt>
      <trkpt lat="47.80655" lon="-2.45774">
        <ele>78.2</ele>
        <time>2025-02-11T13:22:54Z</time>
      </trkpt>
      <trkpt lat="47.80655" lon="-2.45772">
        <ele>78.2</ele>
        <time>2025-02-11T13:22:55Z</time>
      </trkpt>
      <trkpt lat="47.80655" lon="-2.45771">
        <ele>78.3</ele>
        <time>2025-02-11T13:22:56Z</time>
      </trkpt>
      <trkpt lat="47.80655" lon="-2.45769">
        <ele>78.3</ele>
        <time>2025-02-11T13:22:57Z</time>
      </trkpt>
      <trkpt lat="47.80655" lon="-2.45767">
        <ele>78.4</ele>
        <time>2025-02-11T13:22:58Z</time>
      </trkpt>
      <trkpt lat="47.80655" lon="-2.45766">
        <ele>78.4</ele>
        <time>2025-02-11T13:22:59Z</time>
      </trkpt>
      <trkpt lat="47.80656" lon="-2.45764">
        <ele>78.5</ele>
        <time>2025-02-11T13:23:00Z</time>
      </trkpt>
      <trkpt lat="47.80656" lon="-2.45762">
        <ele>78.5</ele>
        <time>2025-02-11T13:23:01Z</time>
      </trkpt>
      <trkpt lat="47.80656" lon="-2.4576">
        <ele>78.6</ele>
        <time>2025-02-11T13:23:02Z</time>
      </trkpt>
      <trkpt lat="47.80656" lon="-2.45759">
        <ele>78.6</ele>
        <time>2025-02-11T13:23:03Z</time>
      </trkpt>
      <trkpt lat="47.80656" lon="-2.45757">
        <ele>78.7</ele>
        <time>2025-02-11T13:23:04Z</time>
      </trkpt>
      <trkpt lat="47.80657" lon="-2.45755">
        <ele>78.8</ele>
        <time>2025-02-11T13:23:05Z</time>
      </trkpt>
      <trkpt lat="47.80657" lon="-2.45753">
        <ele>78.9</ele>
        <time>2025-02-11T13:23:06Z</time>
      </trkpt>
      <trkpt lat="47.80657" lon="-2.45752">
        <ele>78.9</ele>
        <time>2025-02-11T13:23:07Z</time>
      </trkpt>
      <trkpt lat="47.80658" lon="-2.4575">
        <ele>79</ele>
        <time>2025-02-11T13:23:08Z</time>
      </trkpt>
      <trkpt lat="47.80658" lon="-2.45749">
        <ele>79.1</ele>
        <time>2025-02-11T13:23:09Z</time>
      </trkpt>
      <trkpt lat="47.80658" lon="-2.45747">
        <ele>79.2</ele>
        <time>2025-02-11T13:23:10Z</time>
      </trkpt>
      <trkpt lat="47.80658" lon="-2.45746">
        <ele>79.2</ele>
        <time>2025-02-11T13:23:11Z</time>
      </trkpt>
      <trkpt lat="47.80658" lon="-2.45745">
        <ele>79.3</ele>
        <time>2025-02-11T13:23:12Z</time>
      </trkpt>
      <trkpt lat="47.80658" lon="-2.45743">
        <ele>79.3</ele>
        <time>2025-02-11T13:23:13Z</time>
      </trkpt>
      <trkpt lat="47.80658" lon="-2.45742">
        <ele>79.4</ele>
        <time>2025-02-11T13:23:14Z</time>
      </trkpt>
      <trkpt lat="47.80658" lon="-2.4574">
        <ele>79.4</ele>
        <time>2025-02-11T13:23:15Z</time>
      </trkpt>
      <trkpt lat="47.80657" lon="-2.45738">
        <ele>79.4</ele>
        <time>2025-02-11T13:23:16Z</time>
      </trkpt>
      <trkpt lat="47.80657" lon="-2.45736">
        <ele>79.4</ele>
        <time>2025-02-11T13:23:17Z</time>
      </trkpt>
      <trkpt lat="47.80657" lon="-2.45734">
        <ele>79.5</ele>
        <time>2025-02-11T13:23:18Z</time>
      </trkpt>
      <trkpt lat="47.80657" lon="-2.45732">
        <ele>79.6</ele>
        <time>2025-02-11T13:23:19Z</time>
      </trkpt>
      <trkpt lat="47.80657" lon="-2.4573">
        <ele>79.7</ele>
        <time>2025-02-11T13:23:20Z</time>
      </trkpt>
      <trkpt lat="47.80657" lon="-2.45729">
        <ele>79.7</ele>
        <time>2025-02-11T13:23:21Z</time>
      </trkpt>
      <trkpt lat="47.80657" lon="-2.45727">
        <ele>79.8</ele>
        <time>2025-02-11T13:23:22Z</time>
      </trkpt>
      <trkpt lat="47.80657" lon="-2.45725">
        <ele>79.9</ele>
        <time>2025-02-11T13:23:23Z</time>
      </trkpt>
      <trkpt lat="47.80657" lon="-2.45724">
        <ele>79.9</ele>
        <time>2025-02-11T13:23:24Z</time>
      </trkpt>
      <trkpt lat="47.80657" lon="-2.45723">
        <ele>79.9</ele>
        <time>2025-02-11T13:23:25Z</time>
      </trkpt>
      <trkpt lat="47.80656" lon="-2.45721">
        <ele>79.9</ele>
        <time>2025-02-11T13:23:26Z</time>
      </trkpt>
      <trkpt lat="47.80655" lon="-2.45721">
        <ele>79.8</ele>
        <time>2025-02-11T13:23:27Z</time>
      </trkpt>
      <trkpt lat="47.80654" lon="-2.4572">
        <ele>79.7</ele>
        <time>2025-02-11T13:23:28Z</time>
      </trkpt>
      <trkpt lat="47.80653" lon="-2.45719">
        <ele>79.6</ele>
        <time>2025-02-11T13:23:29Z</time>
      </trkpt>
      <trkpt lat="47.80652" lon="-2.45718">
        <ele>79.5</ele>
        <time>2025-02-11T13:23:30Z</time>
      </trkpt>
      <trkpt lat="47.80651" lon="-2.45718">
        <ele>79.4</ele>
        <time>2025-02-11T13:23:31Z</time>
      </trkpt>
      <trkpt lat="47.8065" lon="-2.45716">
        <ele>79.3</ele>
        <time>2025-02-11T13:23:32Z</time>
      </trkpt>
      <trkpt lat="47.8065" lon="-2.45715">
        <ele>79.2</ele>
        <time>2025-02-11T13:23:33Z</time>
      </trkpt>
      <trkpt lat="47.80649" lon="-2.45714">
        <ele>79.2</ele>
        <time>2025-02-11T13:23:34Z</time>
      </trkpt>
      <trkpt lat="47.80649" lon="-2.45712">
        <ele>79.2</ele>
        <time>2025-02-11T13:23:35Z</time>
      </trkpt>
      <trkpt lat="47.8065" lon="-2.4571">
        <ele>79.3</ele>
        <time>2025-02-11T13:23:36Z</time>
      </trkpt>
      <trkpt lat="47.8065" lon="-2.45709">
        <ele>79.4</ele>
        <time>2025-02-11T13:23:37Z</time>
      </trkpt>
      <trkpt lat="47.80651" lon="-2.45707">
        <ele>79.5</ele>
        <time>2025-02-11T13:23:38Z</time>
      </trkpt>
      <trkpt lat="47.8065" lon="-2.45705">
        <ele>79.5</ele>
        <time>2025-02-11T13:23:39Z</time>
      </trkpt>
      <trkpt lat="47.80651" lon="-2.45704">
        <ele>79.6</ele>
        <time>2025-02-11T13:23:40Z</time>
      </trkpt>
      <trkpt lat="47.80652" lon="-2.45702">
        <ele>79.7</ele>
        <time>2025-02-11T13:23:41Z</time>
      </trkpt>
      <trkpt lat="47.80652" lon="-2.45701">
        <ele>79.8</ele>
        <time>2025-02-11T13:23:42Z</time>
      </trkpt>
      <trkpt lat="47.80653" lon="-2.457">
        <ele>80</ele>
        <time>2025-02-11T13:23:43Z</time>
      </trkpt>
      <trkpt lat="47.80654" lon="-2.45698">
        <ele>80.1</ele>
        <time>2025-02-11T13:23:44Z</time>
      </trkpt>
      <trkpt lat="47.80655" lon="-2.45698">
        <ele>80.3</ele>
        <time>2025-02-11T13:23:45Z</time>
      </trkpt>
      <trkpt lat="47.80656" lon="-2.45697">
        <ele>80.4</ele>
        <time>2025-02-11T13:23:46Z</time>
      </trkpt>
      <trkpt lat="47.80657" lon="-2.45696">
        <ele>80.5</ele>
        <time>2025-02-11T13:23:47Z</time>
      </trkpt>
      <trkpt lat="47.80658" lon="-2.45695">
        <ele>80.7</ele>
        <time>2025-02-11T13:23:48Z</time>
      </trkpt>
      <trkpt lat="47.80659" lon="-2.45694">
        <ele>80.8</ele>
        <time>2025-02-11T13:23:49Z</time>
      </trkpt>
      <trkpt lat="47.80659" lon="-2.45693">
        <ele>80.9</ele>
        <time>2025-02-11T13:23:50Z</time>
      </trkpt>
      <trkpt lat="47.8066" lon="-2.45692">
        <ele>81.1</ele>
        <time>2025-02-11T13:23:51Z</time>
      </trkpt>
      <trkpt lat="47.80661" lon="-2.45691">
        <ele>81.2</ele>
        <time>2025-02-11T13:23:52Z</time>
      </trkpt>
      <trkpt lat="47.80661" lon="-2.4569">
        <ele>81.2</ele>
        <time>2025-02-11T13:23:53Z</time>
      </trkpt>
      <trkpt lat="47.80661" lon="-2.45689">
        <ele>81.2</ele>
        <time>2025-02-11T13:23:54Z</time>
      </trkpt>
      <trkpt lat="47.80662" lon="-2.45688">
        <ele>81.3</ele>
        <time>2025-02-11T13:23:55Z</time>
      </trkpt>
      <trkpt lat="47.80662" lon="-2.45687">
        <ele>81.3</ele>
        <time>2025-02-11T13:23:56Z</time>
      </trkpt>
      <trkpt lat="47.80661" lon="-2.45686">
        <ele>81.2</ele>
        <time>2025-02-11T13:23:57Z</time>
      </trkpt>
      <trkpt lat="47.80661" lon="-2.45685">
        <ele>81.1</ele>
        <time>2025-02-11T13:23:58Z</time>
      </trkpt>
      <trkpt lat="47.8066" lon="-2.45685">
        <ele>81</ele>
        <time>2025-02-11T13:23:59Z</time>
      </trkpt>
      <trkpt lat="47.80659" lon="-2.45684">
        <ele>80.9</ele>
        <time>2025-02-11T13:24:00Z</time>
      </trkpt>
      <trkpt lat="47.80659" lon="-2.45684">
        <ele>80.9</ele>
        <time>2025-02-11T13:24:01Z</time>
      </trkpt>
      <trkpt lat="47.80659" lon="-2.45685">
        <ele>80.9</ele>
        <time>2025-02-11T13:24:02Z</time>
      </trkpt>
      <trkpt lat="47.80659" lon="-2.45685">
        <ele>80.9</ele>
        <time>2025-02-11T13:24:03Z</time>
      </trkpt>
      <trkpt lat="47.80659" lon="-2.45685">
        <ele>80.9</ele>
        <time>2025-02-11T13:24:04Z</time>
      </trkpt>
      <trkpt lat="47.80659" lon="-2.45685">
        <ele>80.9</ele>
        <time>2025-02-11T13:24:05Z</time>
      </trkpt>
      <trkpt lat="47.80658" lon="-2.45685">
        <ele>80.8</ele>
        <time>2025-02-11T13:24:06Z</time>
      </trkpt>
      <trkpt lat="47.80658" lon="-2.45686">
        <ele>80.8</ele>
        <time>2025-02-11T13:24:07Z</time>
      </trkpt>
      <trkpt lat="47.80658" lon="-2.45686">
        <ele>80.7</ele>
        <time>2025-02-11T13:24:08Z</time>
      </trkpt>
      <trkpt lat="47.80658" lon="-2.45686">
        <ele>80.7</ele>
        <time>2025-02-11T13:24:09Z</time>
      </trkpt>
      <trkpt lat="47.80658" lon="-2.45686">
        <ele>80.7</ele>
        <time>2025-02-11T13:24:10Z</time>
      </trkpt>
      <trkpt lat="47.80658" lon="-2.45686">
        <ele>80.7</ele>
        <time>2025-02-11T13:24:11Z</time>
      </trkpt>
      <trkpt lat="47.80658" lon="-2.45685">
        <ele>80.7</ele>
        <time>2025-02-11T13:24:12Z</time>
      </trkpt>
      <trkpt lat="47.80658" lon="-2.45684">
        <ele>80.8</ele>
        <time>2025-02-11T13:24:13Z</time>
      </trkpt>
      <trkpt lat="47.80659" lon="-2.45684">
        <ele>80.8</ele>
        <time>2025-02-11T13:24:14Z</time>
      </trkpt>
      <trkpt lat="47.8066" lon="-2.45682">
        <ele>81</ele>
        <time>2025-02-11T13:24:15Z</time>
      </trkpt>
      <trkpt lat="47.8066" lon="-2.45681">
        <ele>81.1</ele>
        <time>2025-02-11T13:24:16Z</time>
      </trkpt>
      <trkpt lat="47.80662" lon="-2.45681">
        <ele>81.3</ele>
        <time>2025-02-11T13:24:17Z</time>
      </trkpt>
      <trkpt lat="47.80662" lon="-2.45681">
        <ele>81.3</ele>
        <time>2025-02-11T13:24:18Z</time>
      </trkpt>
      <trkpt lat="47.80662" lon="-2.45681">
        <ele>81.3</ele>
        <time>2025-02-11T13:24:19Z</time>
      </trkpt>
      <trkpt lat="47.80662" lon="-2.45681">
        <ele>81.3</ele>
        <time>2025-02-11T13:24:20Z</time>
      </trkpt>
      <trkpt lat="47.80662" lon="-2.45681">
        <ele>81.3</ele>
        <time>2025-02-11T13:24:21Z</time>
      </trkpt>
      <trkpt lat="47.80662" lon="-2.45681">
        <ele>81.3</ele>
        <time>2025-02-11T13:24:22Z</time>
      </trkpt>
      <trkpt lat="47.80662" lon="-2.45681">
        <ele>81.3</ele>
        <time>2025-02-11T13:24:23Z</time>
      </trkpt>
      <trkpt lat="47.80662" lon="-2.45681">
        <ele>81.3</ele>
        <time>2025-02-11T13:24:24Z</time>
      </trkpt>
      <trkpt lat="47.80662" lon="-2.45681">
        <ele>81.3</ele>
        <time>2025-02-11T13:24:25Z</time>
      </trkpt>
      <trkpt lat="47.80662" lon="-2.45681">
        <ele>81.3</ele>
        <time>2025-02-11T13:24:26Z</time>
      </trkpt>
      <trkpt lat="47.80662" lon="-2.45681">
        <ele>81.3</ele>
        <time>2025-02-11T13:24:27Z</time>
      </trkpt>
      <trkpt lat="47.80662" lon="-2.45681">
        <ele>81.3</ele>
        <time>2025-02-11T13:24:28Z</time>
      </trkpt>
      <trkpt lat="47.80662" lon="-2.45681">
        <ele>81.3</ele>
        <time>2025-02-11T13:24:29Z</time>
      </trkpt>
      <trkpt lat="47.80662" lon="-2.45681">
        <ele>81.3</ele>
        <time>2025-02-11T13:24:30Z</time>
      </trkpt>
      <trkpt lat="47.80662" lon="-2.45681">
        <ele>81.3</ele>
        <time>2025-02-11T13:24:31Z</time>
      </trkpt>
      <trkpt lat="47.80662" lon="-2.45681">
        <ele>81.3</ele>
        <time>2025-02-11T13:24:32Z</time>
      </trkpt>
      <trkpt lat="47.80662" lon="-2.45681">
        <ele>81.3</ele>
        <time>2025-02-11T13:24:33Z</time>
      </trkpt>
      <trkpt lat="47.80662" lon="-2.45681">
        <ele>81.3</ele>
        <time>2025-02-11T13:24:34Z</time>
      </trkpt>
      <trkpt lat="47.80662" lon="-2.45681">
        <ele>81.3</ele>
        <time>2025-02-11T13:24:35Z</time>
      </trkpt>
      <trkpt lat="47.80662" lon="-2.45681">
        <ele>81.3</ele>
        <time>2025-02-11T13:24:36Z</time>
      </trkpt>
      <trkpt lat="47.80662" lon="-2.45681">
        <ele>81.3</ele>
        <time>2025-02-11T13:24:37Z</time>
      </trkpt>
      <trkpt lat="47.80662" lon="-2.45681">
        <ele>81.3</ele>
        <time>2025-02-11T13:24:38Z</time>
      </trkpt>
      <trkpt lat="47.80662" lon="-2.45681">
        <ele>81.3</ele>
        <time>2025-02-11T13:24:39Z</time>
      </trkpt>
      <trkpt lat="47.80662" lon="-2.45681">
        <ele>81.3</ele>
        <time>2025-02-11T13:24:40Z</time>
      </trkpt>
      <trkpt lat="47.80662" lon="-2.45681">
        <ele>81.3</ele>
        <time>2025-02-11T13:24:41Z</time>
      </trkpt>
      <trkpt lat="47.80661" lon="-2.45681">
        <ele>81.2</ele>
        <time>2025-02-11T13:24:42Z</time>
      </trkpt>
      <trkpt lat="47.80661" lon="-2.45681">
        <ele>81.2</ele>
        <time>2025-02-11T13:24:43Z</time>
      </trkpt>
      <trkpt lat="47.80661" lon="-2.45681">
        <ele>81.2</ele>
        <time>2025-02-11T13:24:44Z</time>
      </trkpt>
      <trkpt lat="47.80661" lon="-2.45682">
        <ele>81.2</ele>
        <time>2025-02-11T13:24:45Z</time>
      </trkpt>
      <trkpt lat="47.80661" lon="-2.45682">
        <ele>81.2</ele>
        <time>2025-02-11T13:24:46Z</time>
      </trkpt>
      <trkpt lat="47.80661" lon="-2.45682">
        <ele>81.2</ele>
        <time>2025-02-11T13:24:47Z</time>
      </trkpt>
      <trkpt lat="47.80661" lon="-2.45682">
        <ele>81.2</ele>
        <time>2025-02-11T13:24:48Z</time>
      </trkpt>
      <trkpt lat="47.80661" lon="-2.45682">
        <ele>81.2</ele>
        <time>2025-02-11T13:24:49Z</time>
      </trkpt>
      <trkpt lat="47.80661" lon="-2.45682">
        <ele>81.2</ele>
        <time>2025-02-11T13:24:50Z</time>
      </trkpt>
      <trkpt lat="47.80661" lon="-2.45682">
        <ele>81.2</ele>
        <time>2025-02-11T13:24:51Z</time>
      </trkpt>
      <trkpt lat="47.80662" lon="-2.45682">
        <ele>81.3</ele>
        <time>2025-02-11T13:24:52Z</time>
      </trkpt>
      <trkpt lat="47.80662" lon="-2.45681">
        <ele>81.4</ele>
        <time>2025-02-11T13:24:53Z</time>
      </trkpt>
      <trkpt lat="47.80663" lon="-2.45679">
        <ele>81.5</ele>
        <time>2025-02-11T13:24:54Z</time>
      </trkpt>
      <trkpt lat="47.80663" lon="-2.45679">
        <ele>81.5</ele>
        <time>2025-02-11T13:24:55Z</time>
      </trkpt>
      <trkpt lat="47.80664" lon="-2.45677">
        <ele>81.6</ele>
        <time>2025-02-11T13:24:56Z</time>
      </trkpt>
      <trkpt lat="47.80664" lon="-2.45675">
        <ele>81.6</ele>
        <time>2025-02-11T13:24:57Z</time>
      </trkpt>
      <trkpt lat="47.80664" lon="-2.45675">
        <ele>81.6</ele>
        <time>2025-02-11T13:24:58Z</time>
      </trkpt>
      <trkpt lat="47.80664" lon="-2.45674">
        <ele>81.6</ele>
        <time>2025-02-11T13:24:59Z</time>
      </trkpt>
      <trkpt lat="47.80664" lon="-2.45672">
        <ele>81.6</ele>
        <time>2025-02-11T13:25:00Z</time>
      </trkpt>
      <trkpt lat="47.80664" lon="-2.4567">
        <ele>81.6</ele>
        <time>2025-02-11T13:25:01Z</time>
      </trkpt>
      <trkpt lat="47.80664" lon="-2.45667">
        <ele>81.5</ele>
        <time>2025-02-11T13:25:02Z</time>
      </trkpt>
      <trkpt lat="47.80663" lon="-2.45664">
        <ele>81.5</ele>
        <time>2025-02-11T13:25:03Z</time>
      </trkpt>
      <trkpt lat="47.80662" lon="-2.45662">
        <ele>81.4</ele>
        <time>2025-02-11T13:25:04Z</time>
      </trkpt>
      <trkpt lat="47.80662" lon="-2.4566">
        <ele>81.4</ele>
        <time>2025-02-11T13:25:05Z</time>
      </trkpt>
      <trkpt lat="47.80663" lon="-2.45658">
        <ele>81.5</ele>
        <time>2025-02-11T13:25:06Z</time>
      </trkpt>
      <trkpt lat="47.80664" lon="-2.45656">
        <ele>81.6</ele>
        <time>2025-02-11T13:25:07Z</time>
      </trkpt>
      <trkpt lat="47.80665" lon="-2.45656">
        <ele>81.8</ele>
        <time>2025-02-11T13:25:08Z</time>
      </trkpt>
      <trkpt lat="47.80666" lon="-2.45655">
        <ele>81.9</ele>
        <time>2025-02-11T13:25:09Z</time>
      </trkpt>
      <trkpt lat="47.80666" lon="-2.45653">
        <ele>82</ele>
        <time>2025-02-11T13:25:10Z</time>
      </trkpt>
      <trkpt lat="47.80667" lon="-2.45651">
        <ele>82.1</ele>
        <time>2025-02-11T13:25:11Z</time>
      </trkpt>
      <trkpt lat="47.80668" lon="-2.45649">
        <ele>82.1</ele>
        <time>2025-02-11T13:25:12Z</time>
      </trkpt>
      <trkpt lat="47.80668" lon="-2.45647">
        <ele>82.1</ele>
        <time>2025-02-11T13:25:13Z</time>
      </trkpt>
      <trkpt lat="47.80668" lon="-2.45645">
        <ele>82.1</ele>
        <time>2025-02-11T13:25:14Z</time>
      </trkpt>
      <trkpt lat="47.80668" lon="-2.45643">
        <ele>82.1</ele>
        <time>2025-02-11T13:25:15Z</time>
      </trkpt>
      <trkpt lat="47.80668" lon="-2.45641">
        <ele>82.2</ele>
        <time>2025-02-11T13:25:16Z</time>
      </trkpt>
      <trkpt lat="47.80669" lon="-2.4564">
        <ele>82.2</ele>
        <time>2025-02-11T13:25:17Z</time>
      </trkpt>
      <trkpt lat="47.80669" lon="-2.45638">
        <ele>82.3</ele>
        <time>2025-02-11T13:25:18Z</time>
      </trkpt>
      <trkpt lat="47.8067" lon="-2.45636">
        <ele>82.3</ele>
        <time>2025-02-11T13:25:19Z</time>
      </trkpt>
      <trkpt lat="47.8067" lon="-2.45634">
        <ele>82.3</ele>
        <time>2025-02-11T13:25:20Z</time>
      </trkpt>
      <trkpt lat="47.8067" lon="-2.45632">
        <ele>82.4</ele>
        <time>2025-02-11T13:25:21Z</time>
      </trkpt>
      <trkpt lat="47.80671" lon="-2.4563">
        <ele>82.5</ele>
        <time>2025-02-11T13:25:22Z</time>
      </trkpt>
      <trkpt lat="47.80672" lon="-2.45629">
        <ele>82.5</ele>
        <time>2025-02-11T13:25:23Z</time>
      </trkpt>
      <trkpt lat="47.80672" lon="-2.45627">
        <ele>82.6</ele>
        <time>2025-02-11T13:25:24Z</time>
      </trkpt>
      <trkpt lat="47.80673" lon="-2.45625">
        <ele>82.7</ele>
        <time>2025-02-11T13:25:25Z</time>
      </trkpt>
      <trkpt lat="47.80673" lon="-2.45623">
        <ele>82.7</ele>
        <time>2025-02-11T13:25:26Z</time>
      </trkpt>
      <trkpt lat="47.80674" lon="-2.45621">
        <ele>82.7</ele>
        <time>2025-02-11T13:25:27Z</time>
      </trkpt>
      <trkpt lat="47.80674" lon="-2.45619">
        <ele>82.8</ele>
        <time>2025-02-11T13:25:28Z</time>
      </trkpt>
      <trkpt lat="47.80674" lon="-2.45618">
        <ele>82.8</ele>
        <time>2025-02-11T13:25:29Z</time>
      </trkpt>
      <trkpt lat="47.80675" lon="-2.45617">
        <ele>82.9</ele>
        <time>2025-02-11T13:25:30Z</time>
      </trkpt>
      <trkpt lat="47.80675" lon="-2.45616">
        <ele>82.9</ele>
        <time>2025-02-11T13:25:31Z</time>
      </trkpt>
      <trkpt lat="47.80675" lon="-2.45614">
        <ele>82.9</ele>
        <time>2025-02-11T13:25:32Z</time>
      </trkpt>
      <trkpt lat="47.80676" lon="-2.45613">
        <ele>83</ele>
        <time>2025-02-11T13:25:33Z</time>
      </trkpt>
      <trkpt lat="47.80676" lon="-2.45612">
        <ele>83</ele>
        <time>2025-02-11T13:25:34Z</time>
      </trkpt>
      <trkpt lat="47.80677" lon="-2.45611">
        <ele>83.1</ele>
        <time>2025-02-11T13:25:35Z</time>
      </trkpt>
      <trkpt lat="47.80677" lon="-2.45609">
        <ele>83.1</ele>
        <time>2025-02-11T13:25:36Z</time>
      </trkpt>
      <trkpt lat="47.80678" lon="-2.45608">
        <ele>83.2</ele>
        <time>2025-02-11T13:25:37Z</time>
      </trkpt>
      <trkpt lat="47.80678" lon="-2.45607">
        <ele>83.3</ele>
        <time>2025-02-11T13:25:38Z</time>
      </trkpt>
      <trkpt lat="47.80679" lon="-2.45605">
        <ele>83.3</ele>
        <time>2025-02-11T13:25:39Z</time>
      </trkpt>
      <trkpt lat="47.8068" lon="-2.45604">
        <ele>83.4</ele>
        <time>2025-02-11T13:25:40Z</time>
      </trkpt>
      <trkpt lat="47.8068" lon="-2.45602">
        <ele>83.4</ele>
        <time>2025-02-11T13:25:41Z</time>
      </trkpt>
      <trkpt lat="47.80681" lon="-2.45601">
        <ele>83.5</ele>
        <time>2025-02-11T13:25:42Z</time>
      </trkpt>
      <trkpt lat="47.80681" lon="-2.45599">
        <ele>83.6</ele>
        <time>2025-02-11T13:25:43Z</time>
      </trkpt>
      <trkpt lat="47.80682" lon="-2.45597">
        <ele>83.6</ele>
        <time>2025-02-11T13:25:44Z</time>
      </trkpt>
      <trkpt lat="47.80682" lon="-2.45595">
        <ele>83.7</ele>
        <time>2025-02-11T13:25:45Z</time>
      </trkpt>
      <trkpt lat="47.80683" lon="-2.45594">
        <ele>83.7</ele>
        <time>2025-02-11T13:25:46Z</time>
      </trkpt>
      <trkpt lat="47.80683" lon="-2.45593">
        <ele>83.8</ele>
        <time>2025-02-11T13:25:47Z</time>
      </trkpt>
      <trkpt lat="47.80683" lon="-2.45591">
        <ele>83.8</ele>
        <time>2025-02-11T13:25:48Z</time>
      </trkpt>
      <trkpt lat="47.80684" lon="-2.4559">
        <ele>83.9</ele>
        <time>2025-02-11T13:25:49Z</time>
      </trkpt>
      <trkpt lat="47.80684" lon="-2.45588">
        <ele>83.9</ele>
        <time>2025-02-11T13:25:50Z</time>
      </trkpt>
      <trkpt lat="47.80684" lon="-2.45586">
        <ele>83.9</ele>
        <time>2025-02-11T13:25:51Z</time>
      </trkpt>
      <trkpt lat="47.80685" lon="-2.45585">
        <ele>83.9</ele>
        <time>2025-02-11T13:25:52Z</time>
      </trkpt>
      <trkpt lat="47.80685" lon="-2.45583">
        <ele>83.9</ele>
        <time>2025-02-11T13:25:53Z</time>
      </trkpt>
      <trkpt lat="47.80685" lon="-2.45582">
        <ele>83.9</ele>
        <time>2025-02-11T13:25:54Z</time>
      </trkpt>
      <trkpt lat="47.80685" lon="-2.4558">
        <ele>84</ele>
        <time>2025-02-11T13:25:55Z</time>
      </trkpt>
      <trkpt lat="47.80685" lon="-2.45578">
        <ele>84</ele>
        <time>2025-02-11T13:25:56Z</time>
      </trkpt>
      <trkpt lat="47.80686" lon="-2.45577">
        <ele>84</ele>
        <time>2025-02-11T13:25:57Z</time>
      </trkpt>
      <trkpt lat="47.80687" lon="-2.45576">
        <ele>84.1</ele>
        <time>2025-02-11T13:25:58Z</time>
      </trkpt>
      <trkpt lat="47.80688" lon="-2.45575">
        <ele>84.2</ele>
        <time>2025-02-11T13:25:59Z</time>
      </trkpt>
      <trkpt lat="47.80689" lon="-2.45573">
        <ele>84.4</ele>
        <time>2025-02-11T13:26:00Z</time>
      </trkpt>
      <trkpt lat="47.80689" lon="-2.45571">
        <ele>84.4</ele>
        <time>2025-02-11T13:26:01Z</time>
      </trkpt>
      <trkpt lat="47.8069" lon="-2.4557">
        <ele>84.6</ele>
        <time>2025-02-11T13:26:02Z</time>
      </trkpt>
      <trkpt lat="47.80691" lon="-2.45569">
        <ele>84.6</ele>
        <time>2025-02-11T13:26:03Z</time>
      </trkpt>
      <trkpt lat="47.80692" lon="-2.45568">
        <ele>84.7</ele>
        <time>2025-02-11T13:26:04Z</time>
      </trkpt>
      <trkpt lat="47.80693" lon="-2.45567">
        <ele>84.9</ele>
        <time>2025-02-11T13:26:05Z</time>
      </trkpt>
      <trkpt lat="47.80694" lon="-2.45567">
        <ele>85</ele>
        <time>2025-02-11T13:26:06Z</time>
      </trkpt>
      <trkpt lat="47.80695" lon="-2.45566">
        <ele>85.1</ele>
        <time>2025-02-11T13:26:07Z</time>
      </trkpt>
      <trkpt lat="47.80696" lon="-2.45566">
        <ele>85.2</ele>
        <time>2025-02-11T13:26:08Z</time>
      </trkpt>
      <trkpt lat="47.80697" lon="-2.45565">
        <ele>85.3</ele>
        <time>2025-02-11T13:26:09Z</time>
      </trkpt>
      <trkpt lat="47.80699" lon="-2.45565">
        <ele>85.4</ele>
        <time>2025-02-11T13:26:10Z</time>
      </trkpt>
      <trkpt lat="47.807" lon="-2.45564">
        <ele>85.5</ele>
        <time>2025-02-11T13:26:11Z</time>
      </trkpt>
      <trkpt lat="47.80701" lon="-2.45564">
        <ele>85.7</ele>
        <time>2025-02-11T13:26:12Z</time>
      </trkpt>
      <trkpt lat="47.80702" lon="-2.45563">
        <ele>85.8</ele>
        <time>2025-02-11T13:26:13Z</time>
      </trkpt>
      <trkpt lat="47.80703" lon="-2.45562">
        <ele>85.9</ele>
        <time>2025-02-11T13:26:14Z</time>
      </trkpt>
      <trkpt lat="47.80704" lon="-2.45562">
        <ele>86</ele>
        <time>2025-02-11T13:26:15Z</time>
      </trkpt>
      <trkpt lat="47.80705" lon="-2.45562">
        <ele>86.1</ele>
        <time>2025-02-11T13:26:16Z</time>
      </trkpt>
      <trkpt lat="47.80706" lon="-2.45562">
        <ele>86.2</ele>
        <time>2025-02-11T13:26:17Z</time>
      </trkpt>
      <trkpt lat="47.80707" lon="-2.45562">
        <ele>86.4</ele>
        <time>2025-02-11T13:26:18Z</time>
      </trkpt>
      <trkpt lat="47.80708" lon="-2.45564">
        <ele>86.5</ele>
        <time>2025-02-11T13:26:19Z</time>
      </trkpt>
      <trkpt lat="47.80709" lon="-2.45565">
        <ele>86.6</ele>
        <time>2025-02-11T13:26:20Z</time>
      </trkpt>
      <trkpt lat="47.8071" lon="-2.45566">
        <ele>86.6</ele>
        <time>2025-02-11T13:26:21Z</time>
      </trkpt>
      <trkpt lat="47.80711" lon="-2.45567">
        <ele>86.7</ele>
        <time>2025-02-11T13:26:22Z</time>
      </trkpt>
      <trkpt lat="47.80712" lon="-2.45569">
        <ele>86.8</ele>
        <time>2025-02-11T13:26:23Z</time>
      </trkpt>
      <trkpt lat="47.80713" lon="-2.45569">
        <ele>87</ele>
        <time>2025-02-11T13:26:24Z</time>
      </trkpt>
      <trkpt lat="47.80714" lon="-2.4557">
        <ele>87.1</ele>
        <time>2025-02-11T13:26:25Z</time>
      </trkpt>
      <trkpt lat="47.80715" lon="-2.45571">
        <ele>87.2</ele>
        <time>2025-02-11T13:26:26Z</time>
      </trkpt>
      <trkpt lat="47.80716" lon="-2.45572">
        <ele>87.3</ele>
        <time>2025-02-11T13:26:27Z</time>
      </trkpt>
      <trkpt lat="47.80717" lon="-2.45573">
        <ele>87.4</ele>
        <time>2025-02-11T13:26:28Z</time>
      </trkpt>
      <trkpt lat="47.80717" lon="-2.45575">
        <ele>87.5</ele>
        <time>2025-02-11T13:26:29Z</time>
      </trkpt>
      <trkpt lat="47.80718" lon="-2.45576">
        <ele>87.6</ele>
        <time>2025-02-11T13:26:30Z</time>
      </trkpt>
      <trkpt lat="47.80719" lon="-2.45577">
        <ele>87.6</ele>
        <time>2025-02-11T13:26:31Z</time>
      </trkpt>
      <trkpt lat="47.8072" lon="-2.45578">
        <ele>87.7</ele>
        <time>2025-02-11T13:26:32Z</time>
      </trkpt>
      <trkpt lat="47.8072" lon="-2.4558">
        <ele>87.8</ele>
        <time>2025-02-11T13:26:33Z</time>
      </trkpt>
      <trkpt lat="47.80722" lon="-2.4558">
        <ele>88</ele>
        <time>2025-02-11T13:26:34Z</time>
      </trkpt>
      <trkpt lat="47.80723" lon="-2.4558">
        <ele>88</ele>
        <time>2025-02-11T13:26:35Z</time>
      </trkpt>
      <trkpt lat="47.80722" lon="-2.4558">
        <ele>88</ele>
        <time>2025-02-11T13:26:36Z</time>
      </trkpt>
      <trkpt lat="47.80723" lon="-2.4558">
        <ele>88</ele>
        <time>2025-02-11T13:26:37Z</time>
      </trkpt>
      <trkpt lat="47.80724" lon="-2.45581">
        <ele>88.1</ele>
        <time>2025-02-11T13:26:38Z</time>
      </trkpt>
      <trkpt lat="47.80724" lon="-2.45582">
        <ele>88.1</ele>
        <time>2025-02-11T13:26:39Z</time>
      </trkpt>
      <trkpt lat="47.80725" lon="-2.45584">
        <ele>88.1</ele>
        <time>2025-02-11T13:26:40Z</time>
      </trkpt>
      <trkpt lat="47.80726" lon="-2.45585">
        <ele>88.1</ele>
        <time>2025-02-11T13:26:41Z</time>
      </trkpt>
      <trkpt lat="47.80727" lon="-2.45586">
        <ele>88.1</ele>
        <time>2025-02-11T13:26:42Z</time>
      </trkpt>
      <trkpt lat="47.80727" lon="-2.45586">
        <ele>88.1</ele>
        <time>2025-02-11T13:26:43Z</time>
      </trkpt>
      <trkpt lat="47.80727" lon="-2.45586">
        <ele>88.1</ele>
        <time>2025-02-11T13:26:44Z</time>
      </trkpt>
      <trkpt lat="47.80727" lon="-2.45585">
        <ele>88.1</ele>
        <time>2025-02-11T13:26:45Z</time>
      </trkpt>
      <trkpt lat="47.80727" lon="-2.45585">
        <ele>88.1</ele>
        <time>2025-02-11T13:26:46Z</time>
      </trkpt>
      <trkpt lat="47.80727" lon="-2.45585">
        <ele>88.1</ele>
        <time>2025-02-11T13:26:47Z</time>
      </trkpt>
      <trkpt lat="47.80727" lon="-2.45585">
        <ele>88.1</ele>
        <time>2025-02-11T13:26:48Z</time>
      </trkpt>
      <trkpt lat="47.80727" lon="-2.45585">
        <ele>88.1</ele>
        <time>2025-02-11T13:26:49Z</time>
      </trkpt>
      <trkpt lat="47.80727" lon="-2.45585">
        <ele>88.1</ele>
        <time>2025-02-11T13:26:50Z</time>
      </trkpt>
      <trkpt lat="47.80727" lon="-2.45585">
        <ele>88.1</ele>
        <time>2025-02-11T13:26:51Z</time>
      </trkpt>
      <trkpt lat="47.80727" lon="-2.45585">
        <ele>88.1</ele>
        <time>2025-02-11T13:26:52Z</time>
      </trkpt>
      <trkpt lat="47.80727" lon="-2.45585">
        <ele>88.1</ele>
        <time>2025-02-11T13:26:53Z</time>
      </trkpt>
      <trkpt lat="47.80727" lon="-2.45585">
        <ele>88.1</ele>
        <time>2025-02-11T13:26:54Z</time>
      </trkpt>
      <trkpt lat="47.80727" lon="-2.45585">
        <ele>88.1</ele>
        <time>2025-02-11T13:26:55Z</time>
      </trkpt>
      <trkpt lat="47.80727" lon="-2.45585">
        <ele>88.1</ele>
        <time>2025-02-11T13:26:56Z</time>
      </trkpt>
      <trkpt lat="47.80727" lon="-2.45585">
        <ele>88.1</ele>
        <time>2025-02-11T13:26:57Z</time>
      </trkpt>
      <trkpt lat="47.80727" lon="-2.45585">
        <ele>88.1</ele>
        <time>2025-02-11T13:26:58Z</time>
      </trkpt>
      <trkpt lat="47.80727" lon="-2.45585">
        <ele>88.1</ele>
        <time>2025-02-11T13:26:59Z</time>
      </trkpt>
      <trkpt lat="47.80727" lon="-2.45585">
        <ele>88.1</ele>
        <time>2025-02-11T13:27:00Z</time>
      </trkpt>
      <trkpt lat="47.80727" lon="-2.45585">
        <ele>88.1</ele>
        <time>2025-02-11T13:27:01Z</time>
      </trkpt>
      <trkpt lat="47.80727" lon="-2.45585">
        <ele>88.1</ele>
        <time>2025-02-11T13:27:02Z</time>
      </trkpt>
      <trkpt lat="47.80727" lon="-2.45585">
        <ele>88.1</ele>
        <time>2025-02-11T13:27:03Z</time>
      </trkpt>
      <trkpt lat="47.80727" lon="-2.45585">
        <ele>88.1</ele>
        <time>2025-02-11T13:27:04Z</time>
      </trkpt>
      <trkpt lat="47.80727" lon="-2.45585">
        <ele>88.1</ele>
        <time>2025-02-11T13:27:05Z</time>
      </trkpt>
      <trkpt lat="47.80727" lon="-2.45585">
        <ele>88.1</ele>
        <time>2025-02-11T13:27:06Z</time>
      </trkpt>
      <trkpt lat="47.80727" lon="-2.45585">
        <ele>88.1</ele>
        <time>2025-02-11T13:27:07Z</time>
      </trkpt>
      <trkpt lat="47.80727" lon="-2.45585">
        <ele>88.1</ele>
        <time>2025-02-11T13:27:08Z</time>
      </trkpt>
      <trkpt lat="47.80727" lon="-2.45585">
        <ele>88.1</ele>
        <time>2025-02-11T13:27:09Z</time>
      </trkpt>
      <trkpt lat="47.80726" lon="-2.45585">
        <ele>88.1</ele>
        <time>2025-02-11T13:27:10Z</time>
      </trkpt>
      <trkpt lat="47.80726" lon="-2.45585">
        <ele>88.1</ele>
        <time>2025-02-11T13:27:11Z</time>
      </trkpt>
      <trkpt lat="47.80725" lon="-2.45585">
        <ele>88.1</ele>
        <time>2025-02-11T13:27:12Z</time>
      </trkpt>
      <trkpt lat="47.80726" lon="-2.45589">
        <ele>87.9</ele>
        <time>2025-02-11T13:27:13Z</time>
      </trkpt>
      <trkpt lat="47.80727" lon="-2.45589">
        <ele>88</ele>
        <time>2025-02-11T13:27:14Z</time>
      </trkpt>
      <trkpt lat="47.80728" lon="-2.45588">
        <ele>88</ele>
        <time>2025-02-11T13:27:15Z</time>
      </trkpt>
      <trkpt lat="47.80728" lon="-2.45587">
        <ele>88.1</ele>
        <time>2025-02-11T13:27:16Z</time>
      </trkpt>
      <trkpt lat="47.80728" lon="-2.45586">
        <ele>88.1</ele>
        <time>2025-02-11T13:27:17Z</time>
      </trkpt>
      <trkpt lat="47.80728" lon="-2.45586">
        <ele>88.1</ele>
        <time>2025-02-11T13:27:18Z</time>
      </trkpt>
      <trkpt lat="47.80729" lon="-2.45586">
        <ele>88.2</ele>
        <time>2025-02-11T13:27:19Z</time>
      </trkpt>
      <trkpt lat="47.80729" lon="-2.45585">
        <ele>88.2</ele>
        <time>2025-02-11T13:27:20Z</time>
      </trkpt>
      <trkpt lat="47.80729" lon="-2.45585">
        <ele>88.2</ele>
        <time>2025-02-11T13:27:21Z</time>
      </trkpt>
      <trkpt lat="47.80728" lon="-2.45585">
        <ele>88.2</ele>
        <time>2025-02-11T13:27:22Z</time>
      </trkpt>
      <trkpt lat="47.80728" lon="-2.45585">
        <ele>88.2</ele>
        <time>2025-02-11T13:27:23Z</time>
      </trkpt>
      <trkpt lat="47.80728" lon="-2.45585">
        <ele>88.2</ele>
        <time>2025-02-11T13:27:24Z</time>
      </trkpt>
      <trkpt lat="47.80728" lon="-2.45585">
        <ele>88.2</ele>
        <time>2025-02-11T13:27:25Z</time>
      </trkpt>
      <trkpt lat="47.80728" lon="-2.45585">
        <ele>88.2</ele>
        <time>2025-02-11T13:27:26Z</time>
      </trkpt>
      <trkpt lat="47.80728" lon="-2.45585">
        <ele>88.2</ele>
        <time>2025-02-11T13:27:27Z</time>
      </trkpt>
      <trkpt lat="47.80728" lon="-2.45585">
        <ele>88.2</ele>
        <time>2025-02-11T13:27:28Z</time>
      </trkpt>
      <trkpt lat="47.80728" lon="-2.45585">
        <ele>88.2</ele>
        <time>2025-02-11T13:27:29Z</time>
      </trkpt>
      <trkpt lat="47.80728" lon="-2.45585">
        <ele>88.2</ele>
        <time>2025-02-11T13:27:30Z</time>
      </trkpt>
      <trkpt lat="47.80728" lon="-2.45585">
        <ele>88.2</ele>
        <time>2025-02-11T13:27:31Z</time>
      </trkpt>
      <trkpt lat="47.80728" lon="-2.45585">
        <ele>88.2</ele>
        <time>2025-02-11T13:27:32Z</time>
      </trkpt>
      <trkpt lat="47.80728" lon="-2.45585">
        <ele>88.1</ele>
        <time>2025-02-11T13:27:33Z</time>
      </trkpt>
      <trkpt lat="47.80728" lon="-2.45586">
        <ele>88.1</ele>
        <time>2025-02-11T13:27:34Z</time>
      </trkpt>
      <trkpt lat="47.80727" lon="-2.45586">
        <ele>88.1</ele>
        <time>2025-02-11T13:27:35Z</time>
      </trkpt>
      <trkpt lat="47.80728" lon="-2.45586">
        <ele>88.1</ele>
        <time>2025-02-11T13:27:36Z</time>
      </trkpt>
      <trkpt lat="47.80728" lon="-2.45586">
        <ele>88.1</ele>
        <time>2025-02-11T13:27:37Z</time>
      </trkpt>
      <trkpt lat="47.80728" lon="-2.45586">
        <ele>88.1</ele>
        <time>2025-02-11T13:27:38Z</time>
      </trkpt>
      <trkpt lat="47.80728" lon="-2.45585">
        <ele>88.1</ele>
        <time>2025-02-11T13:27:39Z</time>
      </trkpt>
      <trkpt lat="47.80728" lon="-2.45584">
        <ele>88.2</ele>
        <time>2025-02-11T13:27:40Z</time>
      </trkpt>
      <trkpt lat="47.80729" lon="-2.45583">
        <ele>88.2</ele>
        <time>2025-02-11T13:27:41Z</time>
      </trkpt>
      <trkpt lat="47.80729" lon="-2.45581">
        <ele>88.2</ele>
        <time>2025-02-11T13:27:42Z</time>
      </trkpt>
      <trkpt lat="47.80729" lon="-2.45581">
        <ele>88.2</ele>
        <time>2025-02-11T13:27:43Z</time>
      </trkpt>
      <trkpt lat="47.80729" lon="-2.4558">
        <ele>88.2</ele>
        <time>2025-02-11T13:27:44Z</time>
      </trkpt>
      <trkpt lat="47.80729" lon="-2.4558">
        <ele>88.2</ele>
        <time>2025-02-11T13:27:45Z</time>
      </trkpt>
      <trkpt lat="47.80728" lon="-2.45578">
        <ele>88.2</ele>
        <time>2025-02-11T13:27:46Z</time>
      </trkpt>
      <trkpt lat="47.80728" lon="-2.45576">
        <ele>88.2</ele>
        <time>2025-02-11T13:27:47Z</time>
      </trkpt>
      <trkpt lat="47.80727" lon="-2.45575">
        <ele>88.2</ele>
        <time>2025-02-11T13:27:48Z</time>
      </trkpt>
      <trkpt lat="47.80727" lon="-2.45573">
        <ele>88.2</ele>
        <time>2025-02-11T13:27:49Z</time>
      </trkpt>
      <trkpt lat="47.80727" lon="-2.45572">
        <ele>88.2</ele>
        <time>2025-02-11T13:27:50Z</time>
      </trkpt>
      <trkpt lat="47.80727" lon="-2.45571">
        <ele>88.2</ele>
        <time>2025-02-11T13:27:51Z</time>
      </trkpt>
      <trkpt lat="47.80727" lon="-2.45569">
        <ele>88.2</ele>
        <time>2025-02-11T13:27:52Z</time>
      </trkpt>
      <trkpt lat="47.80728" lon="-2.45568">
        <ele>88.2</ele>
        <time>2025-02-11T13:27:53Z</time>
      </trkpt>
      <trkpt lat="47.80729" lon="-2.45567">
        <ele>88.2</ele>
        <time>2025-02-11T13:27:54Z</time>
      </trkpt>
      <trkpt lat="47.80729" lon="-2.45565">
        <ele>88.3</ele>
        <time>2025-02-11T13:27:55Z</time>
      </trkpt>
      <trkpt lat="47.8073" lon="-2.45565">
        <ele>88.3</ele>
        <time>2025-02-11T13:27:56Z</time>
      </trkpt>
      <trkpt lat="47.8073" lon="-2.45565">
        <ele>88.3</ele>
        <time>2025-02-11T13:27:57Z</time>
      </trkpt>
      <trkpt lat="47.80731" lon="-2.45563">
        <ele>88.3</ele>
        <time>2025-02-11T13:27:58Z</time>
      </trkpt>
      <trkpt lat="47.80732" lon="-2.45562">
        <ele>88.3</ele>
        <time>2025-02-11T13:27:59Z</time>
      </trkpt>
      <trkpt lat="47.80732" lon="-2.45561">
        <ele>88.4</ele>
        <time>2025-02-11T13:28:00Z</time>
      </trkpt>
      <trkpt lat="47.80733" lon="-2.4556">
        <ele>88.4</ele>
        <time>2025-02-11T13:28:01Z</time>
      </trkpt>
      <trkpt lat="47.80733" lon="-2.45559">
        <ele>88.4</ele>
        <time>2025-02-11T13:28:02Z</time>
      </trkpt>
      <trkpt lat="47.80733" lon="-2.45558">
        <ele>88.4</ele>
        <time>2025-02-11T13:28:03Z</time>
      </trkpt>
      <trkpt lat="47.80733" lon="-2.45558">
        <ele>88.4</ele>
        <time>2025-02-11T13:28:04Z</time>
      </trkpt>
      <trkpt lat="47.80734" lon="-2.45557">
        <ele>88.4</ele>
        <time>2025-02-11T13:28:05Z</time>
      </trkpt>
      <trkpt lat="47.80735" lon="-2.45556">
        <ele>88.5</ele>
        <time>2025-02-11T13:28:06Z</time>
      </trkpt>
      <trkpt lat="47.80736" lon="-2.45556">
        <ele>88.5</ele>
        <time>2025-02-11T13:28:07Z</time>
      </trkpt>
      <trkpt lat="47.80736" lon="-2.45555">
        <ele>88.5</ele>
        <time>2025-02-11T13:28:08Z</time>
      </trkpt>
      <trkpt lat="47.80737" lon="-2.45553">
        <ele>88.5</ele>
        <time>2025-02-11T13:28:09Z</time>
      </trkpt>
      <trkpt lat="47.80738" lon="-2.45553">
        <ele>88.5</ele>
        <time>2025-02-11T13:28:10Z</time>
      </trkpt>
      <trkpt lat="47.80738" lon="-2.45553">
        <ele>88.5</ele>
        <time>2025-02-11T13:28:11Z</time>
      </trkpt>
      <trkpt lat="47.80739" lon="-2.45552">
        <ele>88.5</ele>
        <time>2025-02-11T13:28:12Z</time>
      </trkpt>
      <trkpt lat="47.80739" lon="-2.45551">
        <ele>88.6</ele>
        <time>2025-02-11T13:28:13Z</time>
      </trkpt>
      <trkpt lat="47.8074" lon="-2.4555">
        <ele>88.6</ele>
        <time>2025-02-11T13:28:14Z</time>
      </trkpt>
      <trkpt lat="47.80741" lon="-2.4555">
        <ele>88.6</ele>
        <time>2025-02-11T13:28:15Z</time>
      </trkpt>
      <trkpt lat="47.80741" lon="-2.45549">
        <ele>88.6</ele>
        <time>2025-02-11T13:28:16Z</time>
      </trkpt>
      <trkpt lat="47.80742" lon="-2.45549">
        <ele>88.6</ele>
        <time>2025-02-11T13:28:17Z</time>
      </trkpt>
      <trkpt lat="47.80742" lon="-2.45549">
        <ele>88.6</ele>
        <time>2025-02-11T13:28:18Z</time>
      </trkpt>
      <trkpt lat="47.80743" lon="-2.45549">
        <ele>88.7</ele>
        <time>2025-02-11T13:28:19Z</time>
      </trkpt>
      <trkpt lat="47.80744" lon="-2.45548">
        <ele>88.7</ele>
        <time>2025-02-11T13:28:20Z</time>
      </trkpt>
      <trkpt lat="47.80744" lon="-2.45547">
        <ele>88.7</ele>
        <time>2025-02-11T13:28:21Z</time>
      </trkpt>
      <trkpt lat="47.80745" lon="-2.45546">
        <ele>88.8</ele>
        <time>2025-02-11T13:28:22Z</time>
      </trkpt>
      <trkpt lat="47.80744" lon="-2.45546">
        <ele>88.7</ele>
        <time>2025-02-11T13:28:23Z</time>
      </trkpt>
      <trkpt lat="47.80744" lon="-2.45546">
        <ele>88.7</ele>
        <time>2025-02-11T13:28:24Z</time>
      </trkpt>
      <trkpt lat="47.80744" lon="-2.45545">
        <ele>88.7</ele>
        <time>2025-02-11T13:28:25Z</time>
      </trkpt>
      <trkpt lat="47.80744" lon="-2.45544">
        <ele>88.7</ele>
        <time>2025-02-11T13:28:26Z</time>
      </trkpt>
      <trkpt lat="47.80744" lon="-2.45545">
        <ele>88.7</ele>
        <time>2025-02-11T13:28:27Z</time>
      </trkpt>
      <trkpt lat="47.80743" lon="-2.45543">
        <ele>88.7</ele>
        <time>2025-02-11T13:28:28Z</time>
      </trkpt>
      <trkpt lat="47.80742" lon="-2.45542">
        <ele>88.6</ele>
        <time>2025-02-11T13:28:29Z</time>
      </trkpt>
      <trkpt lat="47.80741" lon="-2.45541">
        <ele>88.5</ele>
        <time>2025-02-11T13:28:30Z</time>
      </trkpt>
      <trkpt lat="47.8074" lon="-2.4554">
        <ele>88.4</ele>
        <time>2025-02-11T13:28:31Z</time>
      </trkpt>
      <trkpt lat="47.80739" lon="-2.45539">
        <ele>88.3</ele>
        <time>2025-02-11T13:28:32Z</time>
      </trkpt>
      <trkpt lat="47.80738" lon="-2.45539">
        <ele>88.3</ele>
        <time>2025-02-11T13:28:33Z</time>
      </trkpt>
      <trkpt lat="47.80738" lon="-2.45538">
        <ele>88.3</ele>
        <time>2025-02-11T13:28:34Z</time>
      </trkpt>
      <trkpt lat="47.8074" lon="-2.4554">
        <ele>88.5</ele>
        <time>2025-02-11T13:28:35Z</time>
      </trkpt>
      <trkpt lat="47.80741" lon="-2.45541">
        <ele>88.5</ele>
        <time>2025-02-11T13:28:36Z</time>
      </trkpt>
      <trkpt lat="47.80741" lon="-2.45541">
        <ele>88.5</ele>
        <time>2025-02-11T13:28:37Z</time>
      </trkpt>
      <trkpt lat="47.80741" lon="-2.45542">
        <ele>88.5</ele>
        <time>2025-02-11T13:28:38Z</time>
      </trkpt>
      <trkpt lat="47.80741" lon="-2.45542">
        <ele>88.5</ele>
        <time>2025-02-11T13:28:39Z</time>
      </trkpt>
      <trkpt lat="47.80741" lon="-2.45541">
        <ele>88.5</ele>
        <time>2025-02-11T13:28:40Z</time>
      </trkpt>
      <trkpt lat="47.80741" lon="-2.45541">
        <ele>88.5</ele>
        <time>2025-02-11T13:28:41Z</time>
      </trkpt>
      <trkpt lat="47.8074" lon="-2.4554">
        <ele>88.4</ele>
        <time>2025-02-11T13:28:42Z</time>
      </trkpt>
      <trkpt lat="47.8074" lon="-2.4554">
        <ele>88.4</ele>
        <time>2025-02-11T13:28:43Z</time>
      </trkpt>
      <trkpt lat="47.80739" lon="-2.45539">
        <ele>88.4</ele>
        <time>2025-02-11T13:28:44Z</time>
      </trkpt>
      <trkpt lat="47.80739" lon="-2.45538">
        <ele>88.4</ele>
        <time>2025-02-11T13:28:45Z</time>
      </trkpt>
      <trkpt lat="47.80739" lon="-2.45538">
        <ele>88.3</ele>
        <time>2025-02-11T13:28:46Z</time>
      </trkpt>
      <trkpt lat="47.80739" lon="-2.45538">
        <ele>88.3</ele>
        <time>2025-02-11T13:28:47Z</time>
      </trkpt>
      <trkpt lat="47.80738" lon="-2.45538">
        <ele>88.3</ele>
        <time>2025-02-11T13:28:48Z</time>
      </trkpt>
      <trkpt lat="47.80738" lon="-2.45537">
        <ele>88.3</ele>
        <time>2025-02-11T13:28:49Z</time>
      </trkpt>
      <trkpt lat="47.80738" lon="-2.45536">
        <ele>88.3</ele>
        <time>2025-02-11T13:28:50Z</time>
      </trkpt>
      <trkpt lat="47.80737" lon="-2.45536">
        <ele>88.2</ele>
        <time>2025-02-11T13:28:51Z</time>
      </trkpt>
      <trkpt lat="47.80737" lon="-2.45536">
        <ele>88.2</ele>
        <time>2025-02-11T13:28:52Z</time>
      </trkpt>
      <trkpt lat="47.80737" lon="-2.45536">
        <ele>88.2</ele>
        <time>2025-02-11T13:28:53Z</time>
      </trkpt>
      <trkpt lat="47.80736" lon="-2.45536">
        <ele>88.2</ele>
        <time>2025-02-11T13:28:54Z</time>
      </trkpt>
      <trkpt lat="47.80736" lon="-2.45536">
        <ele>88.2</ele>
        <time>2025-02-11T13:28:55Z</time>
      </trkpt>
      <trkpt lat="47.80736" lon="-2.45536">
        <ele>88.1</ele>
        <time>2025-02-11T13:28:56Z</time>
      </trkpt>
      <trkpt lat="47.80735" lon="-2.45535">
        <ele>88.1</ele>
        <time>2025-02-11T13:28:57Z</time>
      </trkpt>
      <trkpt lat="47.80735" lon="-2.45535">
        <ele>88.1</ele>
        <time>2025-02-11T13:28:58Z</time>
      </trkpt>
      <trkpt lat="47.80735" lon="-2.45534">
        <ele>88</ele>
        <time>2025-02-11T13:28:59Z</time>
      </trkpt>
      <trkpt lat="47.80735" lon="-2.45534">
        <ele>88</ele>
        <time>2025-02-11T13:29:00Z</time>
      </trkpt>
      <trkpt lat="47.80734" lon="-2.45533">
        <ele>88</ele>
        <time>2025-02-11T13:29:01Z</time>
      </trkpt>
      <trkpt lat="47.80734" lon="-2.45533">
        <ele>88</ele>
        <time>2025-02-11T13:29:02Z</time>
      </trkpt>
      <trkpt lat="47.80735" lon="-2.45532">
        <ele>88</ele>
        <time>2025-02-11T13:29:03Z</time>
      </trkpt>
      <trkpt lat="47.80735" lon="-2.45531">
        <ele>88</ele>
        <time>2025-02-11T13:29:04Z</time>
      </trkpt>
      <trkpt lat="47.80735" lon="-2.45531">
        <ele>88</ele>
        <time>2025-02-11T13:29:05Z</time>
      </trkpt>
      <trkpt lat="47.80734" lon="-2.4553">
        <ele>87.9</ele>
        <time>2025-02-11T13:29:06Z</time>
      </trkpt>
      <trkpt lat="47.80733" lon="-2.45529">
        <ele>87.8</ele>
        <time>2025-02-11T13:29:07Z</time>
      </trkpt>
      <trkpt lat="47.80734" lon="-2.45529">
        <ele>87.8</ele>
        <time>2025-02-11T13:29:08Z</time>
      </trkpt>
      <trkpt lat="47.80735" lon="-2.45528">
        <ele>87.9</ele>
        <time>2025-02-11T13:29:09Z</time>
      </trkpt>
      <trkpt lat="47.80735" lon="-2.45529">
        <ele>87.9</ele>
        <time>2025-02-11T13:29:10Z</time>
      </trkpt>
      <trkpt lat="47.80734" lon="-2.45528">
        <ele>87.9</ele>
        <time>2025-02-11T13:29:11Z</time>
      </trkpt>
      <trkpt lat="47.80734" lon="-2.45528">
        <ele>87.9</ele>
        <time>2025-02-11T13:29:12Z</time>
      </trkpt>
      <trkpt lat="47.80734" lon="-2.45527">
        <ele>87.8</ele>
        <time>2025-02-11T13:29:13Z</time>
      </trkpt>
      <trkpt lat="47.80734" lon="-2.45527">
        <ele>87.8</ele>
        <time>2025-02-11T13:29:14Z</time>
      </trkpt>
      <trkpt lat="47.80733" lon="-2.45525">
        <ele>87.7</ele>
        <time>2025-02-11T13:29:15Z</time>
      </trkpt>
      <trkpt lat="47.80733" lon="-2.45524">
        <ele>87.6</ele>
        <time>2025-02-11T13:29:16Z</time>
      </trkpt>
      <trkpt lat="47.80731" lon="-2.45523">
        <ele>87.5</ele>
        <time>2025-02-11T13:29:17Z</time>
      </trkpt>
      <trkpt lat="47.80731" lon="-2.45523">
        <ele>87.4</ele>
        <time>2025-02-11T13:29:18Z</time>
      </trkpt>
      <trkpt lat="47.80731" lon="-2.45522">
        <ele>87.4</ele>
        <time>2025-02-11T13:29:19Z</time>
      </trkpt>
      <trkpt lat="47.80731" lon="-2.45521">
        <ele>87.4</ele>
        <time>2025-02-11T13:29:20Z</time>
      </trkpt>
      <trkpt lat="47.80731" lon="-2.4552">
        <ele>87.4</ele>
        <time>2025-02-11T13:29:21Z</time>
      </trkpt>
      <trkpt lat="47.80731" lon="-2.4552">
        <ele>87.3</ele>
        <time>2025-02-11T13:29:22Z</time>
      </trkpt>
      <trkpt lat="47.80731" lon="-2.45519">
        <ele>87.3</ele>
        <time>2025-02-11T13:29:23Z</time>
      </trkpt>
      <trkpt lat="47.80731" lon="-2.45518">
        <ele>87.3</ele>
        <time>2025-02-11T13:29:24Z</time>
      </trkpt>
      <trkpt lat="47.8073" lon="-2.45518">
        <ele>87.2</ele>
        <time>2025-02-11T13:29:25Z</time>
      </trkpt>
      <trkpt lat="47.8073" lon="-2.45517">
        <ele>87.2</ele>
        <time>2025-02-11T13:29:26Z</time>
      </trkpt>
      <trkpt lat="47.80729" lon="-2.45516">
        <ele>87.1</ele>
        <time>2025-02-11T13:29:27Z</time>
      </trkpt>
      <trkpt lat="47.80729" lon="-2.45515">
        <ele>87</ele>
        <time>2025-02-11T13:29:28Z</time>
      </trkpt>
      <trkpt lat="47.80729" lon="-2.45516">
        <ele>87.1</ele>
        <time>2025-02-11T13:29:29Z</time>
      </trkpt>
      <trkpt lat="47.80729" lon="-2.45516">
        <ele>87.1</ele>
        <time>2025-02-11T13:29:30Z</time>
      </trkpt>
      <trkpt lat="47.80729" lon="-2.45515">
        <ele>87.1</ele>
        <time>2025-02-11T13:29:31Z</time>
      </trkpt>
      <trkpt lat="47.8073" lon="-2.45514">
        <ele>87</ele>
        <time>2025-02-11T13:29:32Z</time>
      </trkpt>
      <trkpt lat="47.8073" lon="-2.45514">
        <ele>87</ele>
        <time>2025-02-11T13:29:33Z</time>
      </trkpt>
      <trkpt lat="47.80729" lon="-2.45514">
        <ele>87</ele>
        <time>2025-02-11T13:29:34Z</time>
      </trkpt>
      <trkpt lat="47.80729" lon="-2.45513">
        <ele>87</ele>
        <time>2025-02-11T13:29:35Z</time>
      </trkpt>
      <trkpt lat="47.80729" lon="-2.45512">
        <ele>86.9</ele>
        <time>2025-02-11T13:29:36Z</time>
      </trkpt>
      <trkpt lat="47.80729" lon="-2.45512">
        <ele>86.9</ele>
        <time>2025-02-11T13:29:37Z</time>
      </trkpt>
      <trkpt lat="47.80728" lon="-2.4551">
        <ele>86.8</ele>
        <time>2025-02-11T13:29:38Z</time>
      </trkpt>
      <trkpt lat="47.80728" lon="-2.4551">
        <ele>86.8</ele>
        <time>2025-02-11T13:29:39Z</time>
      </trkpt>
      <trkpt lat="47.80728" lon="-2.45508">
        <ele>86.7</ele>
        <time>2025-02-11T13:29:40Z</time>
      </trkpt>
      <trkpt lat="47.80728" lon="-2.45508">
        <ele>86.7</ele>
        <time>2025-02-11T13:29:41Z</time>
      </trkpt>
      <trkpt lat="47.80728" lon="-2.45508">
        <ele>86.7</ele>
        <time>2025-02-11T13:29:42Z</time>
      </trkpt>
      <trkpt lat="47.80728" lon="-2.45507">
        <ele>86.7</ele>
        <time>2025-02-11T13:29:43Z</time>
      </trkpt>
      <trkpt lat="47.80728" lon="-2.45507">
        <ele>86.7</ele>
        <time>2025-02-11T13:29:44Z</time>
      </trkpt>
      <trkpt lat="47.80728" lon="-2.45506">
        <ele>86.7</ele>
        <time>2025-02-11T13:29:45Z</time>
      </trkpt>
      <trkpt lat="47.80728" lon="-2.45506">
        <ele>86.6</ele>
        <time>2025-02-11T13:29:46Z</time>
      </trkpt>
      <trkpt lat="47.80728" lon="-2.45505">
        <ele>86.6</ele>
        <time>2025-02-11T13:29:47Z</time>
      </trkpt>
      <trkpt lat="47.80728" lon="-2.45505">
        <ele>86.6</ele>
        <time>2025-02-11T13:29:48Z</time>
      </trkpt>
      <trkpt lat="47.80728" lon="-2.45505">
        <ele>86.6</ele>
        <time>2025-02-11T13:29:49Z</time>
      </trkpt>
      <trkpt lat="47.80727" lon="-2.45505">
        <ele>86.5</ele>
        <time>2025-02-11T13:29:50Z</time>
      </trkpt>
      <trkpt lat="47.80726" lon="-2.45506">
        <ele>86.5</ele>
        <time>2025-02-11T13:29:51Z</time>
      </trkpt>
      <trkpt lat="47.80725" lon="-2.45506">
        <ele>86.4</ele>
        <time>2025-02-11T13:29:52Z</time>
      </trkpt>
      <trkpt lat="47.80725" lon="-2.45507">
        <ele>86.4</ele>
        <time>2025-02-11T13:29:53Z</time>
      </trkpt>
      <trkpt lat="47.80723" lon="-2.45507">
        <ele>86.3</ele>
        <time>2025-02-11T13:29:54Z</time>
      </trkpt>
      <trkpt lat="47.80722" lon="-2.45506">
        <ele>86.2</ele>
        <time>2025-02-11T13:29:55Z</time>
      </trkpt>
      <trkpt lat="47.80721" lon="-2.45506">
        <ele>86.1</ele>
        <time>2025-02-11T13:29:56Z</time>
      </trkpt>
      <trkpt lat="47.8072" lon="-2.45506">
        <ele>86</ele>
        <time>2025-02-11T13:29:57Z</time>
      </trkpt>
      <trkpt lat="47.80718" lon="-2.45506">
        <ele>85.9</ele>
        <time>2025-02-11T13:29:58Z</time>
      </trkpt>
      <trkpt lat="47.80717" lon="-2.45506">
        <ele>85.8</ele>
        <time>2025-02-11T13:29:59Z</time>
      </trkpt>
      <trkpt lat="47.80716" lon="-2.45506">
        <ele>85.7</ele>
        <time>2025-02-11T13:30:00Z</time>
      </trkpt>
      <trkpt lat="47.80715" lon="-2.45506">
        <ele>85.6</ele>
        <time>2025-02-11T13:30:01Z</time>
      </trkpt>
      <trkpt lat="47.80714" lon="-2.45506">
        <ele>85.6</ele>
        <time>2025-02-11T13:30:02Z</time>
      </trkpt>
      <trkpt lat="47.80713" lon="-2.45506">
        <ele>85.5</ele>
        <time>2025-02-11T13:30:03Z</time>
      </trkpt>
      <trkpt lat="47.80712" lon="-2.45506">
        <ele>85.4</ele>
        <time>2025-02-11T13:30:04Z</time>
      </trkpt>
      <trkpt lat="47.80711" lon="-2.45505">
        <ele>85.3</ele>
        <time>2025-02-11T13:30:05Z</time>
      </trkpt>
      <trkpt lat="47.8071" lon="-2.45505">
        <ele>85.2</ele>
        <time>2025-02-11T13:30:06Z</time>
      </trkpt>
      <trkpt lat="47.80709" lon="-2.45504">
        <ele>85.1</ele>
        <time>2025-02-11T13:30:07Z</time>
      </trkpt>
      <trkpt lat="47.80708" lon="-2.45503">
        <ele>85</ele>
        <time>2025-02-11T13:30:08Z</time>
      </trkpt>
      <trkpt lat="47.80707" lon="-2.45503">
        <ele>84.9</ele>
        <time>2025-02-11T13:30:09Z</time>
      </trkpt>
      <trkpt lat="47.80706" lon="-2.45503">
        <ele>84.8</ele>
        <time>2025-02-11T13:30:10Z</time>
      </trkpt>
      <trkpt lat="47.80705" lon="-2.45502">
        <ele>84.8</ele>
        <time>2025-02-11T13:30:11Z</time>
      </trkpt>
      <trkpt lat="47.80704" lon="-2.45502">
        <ele>84.7</ele>
        <time>2025-02-11T13:30:12Z</time>
      </trkpt>
      <trkpt lat="47.80703" lon="-2.45502">
        <ele>84.6</ele>
        <time>2025-02-11T13:30:13Z</time>
      </trkpt>
      <trkpt lat="47.80702" lon="-2.45502">
        <ele>84.6</ele>
        <time>2025-02-11T13:30:14Z</time>
      </trkpt>
      <trkpt lat="47.80702" lon="-2.455">
        <ele>84.5</ele>
        <time>2025-02-11T13:30:15Z</time>
      </trkpt>
      <trkpt lat="47.80701" lon="-2.45499">
        <ele>84.5</ele>
        <time>2025-02-11T13:30:16Z</time>
      </trkpt>
      <trkpt lat="47.80702" lon="-2.45497">
        <ele>84.5</ele>
        <time>2025-02-11T13:30:17Z</time>
      </trkpt>
      <trkpt lat="47.80701" lon="-2.45496">
        <ele>84.5</ele>
        <time>2025-02-11T13:30:18Z</time>
      </trkpt>
      <trkpt lat="47.80701" lon="-2.45494">
        <ele>84.4</ele>
        <time>2025-02-11T13:30:19Z</time>
      </trkpt>
      <trkpt lat="47.80701" lon="-2.45493">
        <ele>84.5</ele>
        <time>2025-02-11T13:30:20Z</time>
      </trkpt>
      <trkpt lat="47.80701" lon="-2.45491">
        <ele>84.5</ele>
        <time>2025-02-11T13:30:21Z</time>
      </trkpt>
      <trkpt lat="47.80702" lon="-2.4549">
        <ele>84.5</ele>
        <time>2025-02-11T13:30:22Z</time>
      </trkpt>
      <trkpt lat="47.80702" lon="-2.45489">
        <ele>84.5</ele>
        <time>2025-02-11T13:30:23Z</time>
      </trkpt>
      <trkpt lat="47.80702" lon="-2.45488">
        <ele>84.5</ele>
        <time>2025-02-11T13:30:24Z</time>
      </trkpt>
      <trkpt lat="47.80702" lon="-2.45487">
        <ele>84.6</ele>
        <time>2025-02-11T13:30:25Z</time>
      </trkpt>
      <trkpt lat="47.80703" lon="-2.45485">
        <ele>84.6</ele>
        <time>2025-02-11T13:30:26Z</time>
      </trkpt>
      <trkpt lat="47.80703" lon="-2.45484">
        <ele>84.6</ele>
        <time>2025-02-11T13:30:27Z</time>
      </trkpt>
      <trkpt lat="47.80704" lon="-2.45483">
        <ele>84.7</ele>
        <time>2025-02-11T13:30:28Z</time>
      </trkpt>
      <trkpt lat="47.80704" lon="-2.45481">
        <ele>84.7</ele>
        <time>2025-02-11T13:30:29Z</time>
      </trkpt>
      <trkpt lat="47.80704" lon="-2.4548">
        <ele>84.7</ele>
        <time>2025-02-11T13:30:30Z</time>
      </trkpt>
      <trkpt lat="47.80704" lon="-2.45478">
        <ele>84.7</ele>
        <time>2025-02-11T13:30:31Z</time>
      </trkpt>
      <trkpt lat="47.80704" lon="-2.45476">
        <ele>84.7</ele>
        <time>2025-02-11T13:30:32Z</time>
      </trkpt>
      <trkpt lat="47.80705" lon="-2.45474">
        <ele>84.7</ele>
        <time>2025-02-11T13:30:33Z</time>
      </trkpt>
      <trkpt lat="47.80704" lon="-2.45472">
        <ele>84.7</ele>
        <time>2025-02-11T13:30:34Z</time>
      </trkpt>
      <trkpt lat="47.80705" lon="-2.4547">
        <ele>84.7</ele>
        <time>2025-02-11T13:30:35Z</time>
      </trkpt>
      <trkpt lat="47.80705" lon="-2.45468">
        <ele>84.8</ele>
        <time>2025-02-11T13:30:36Z</time>
      </trkpt>
      <trkpt lat="47.80706" lon="-2.45466">
        <ele>84.8</ele>
        <time>2025-02-11T13:30:37Z</time>
      </trkpt>
      <trkpt lat="47.80706" lon="-2.45464">
        <ele>84.8</ele>
        <time>2025-02-11T13:30:38Z</time>
      </trkpt>
      <trkpt lat="47.80707" lon="-2.45463">
        <ele>84.9</ele>
        <time>2025-02-11T13:30:39Z</time>
      </trkpt>
      <trkpt lat="47.80707" lon="-2.45462">
        <ele>84.9</ele>
        <time>2025-02-11T13:30:40Z</time>
      </trkpt>
      <trkpt lat="47.80707" lon="-2.45461">
        <ele>84.9</ele>
        <time>2025-02-11T13:30:41Z</time>
      </trkpt>
      <trkpt lat="47.80707" lon="-2.4546">
        <ele>84.9</ele>
        <time>2025-02-11T13:30:42Z</time>
      </trkpt>
      <trkpt lat="47.80707" lon="-2.45459">
        <ele>84.9</ele>
        <time>2025-02-11T13:30:43Z</time>
      </trkpt>
      <trkpt lat="47.80707" lon="-2.45457">
        <ele>84.9</ele>
        <time>2025-02-11T13:30:44Z</time>
      </trkpt>
      <trkpt lat="47.80706" lon="-2.45456">
        <ele>84.9</ele>
        <time>2025-02-11T13:30:45Z</time>
      </trkpt>
      <trkpt lat="47.80706" lon="-2.45455">
        <ele>84.8</ele>
        <time>2025-02-11T13:30:46Z</time>
      </trkpt>
      <trkpt lat="47.80705" lon="-2.45454">
        <ele>84.8</ele>
        <time>2025-02-11T13:30:47Z</time>
      </trkpt>
      <trkpt lat="47.80704" lon="-2.45453">
        <ele>84.7</ele>
        <time>2025-02-11T13:30:48Z</time>
      </trkpt>
      <trkpt lat="47.80703" lon="-2.45452">
        <ele>84.6</ele>
        <time>2025-02-11T13:30:49Z</time>
      </trkpt>
      <trkpt lat="47.80703" lon="-2.45451">
        <ele>84.6</ele>
        <time>2025-02-11T13:30:50Z</time>
      </trkpt>
      <trkpt lat="47.80702" lon="-2.4545">
        <ele>84.6</ele>
        <time>2025-02-11T13:30:51Z</time>
      </trkpt>
      <trkpt lat="47.80702" lon="-2.45449">
        <ele>84.5</ele>
        <time>2025-02-11T13:30:52Z</time>
      </trkpt>
      <trkpt lat="47.80701" lon="-2.45447">
        <ele>84.5</ele>
        <time>2025-02-11T13:30:53Z</time>
      </trkpt>
      <trkpt lat="47.807" lon="-2.45446">
        <ele>84.4</ele>
        <time>2025-02-11T13:30:54Z</time>
      </trkpt>
      <trkpt lat="47.807" lon="-2.45445">
        <ele>84.4</ele>
        <time>2025-02-11T13:30:55Z</time>
      </trkpt>
      <trkpt lat="47.80699" lon="-2.45444">
        <ele>84.3</ele>
        <time>2025-02-11T13:30:56Z</time>
      </trkpt>
      <trkpt lat="47.80698" lon="-2.45444">
        <ele>84.3</ele>
        <time>2025-02-11T13:30:57Z</time>
      </trkpt>
      <trkpt lat="47.80697" lon="-2.45445">
        <ele>84.2</ele>
        <time>2025-02-11T13:30:58Z</time>
      </trkpt>
      <trkpt lat="47.80696" lon="-2.45445">
        <ele>84.1</ele>
        <time>2025-02-11T13:30:59Z</time>
      </trkpt>
      <trkpt lat="47.80695" lon="-2.45444">
        <ele>84</ele>
        <time>2025-02-11T13:31:00Z</time>
      </trkpt>
      <trkpt lat="47.80694" lon="-2.45444">
        <ele>84</ele>
        <time>2025-02-11T13:31:01Z</time>
      </trkpt>
      <trkpt lat="47.80693" lon="-2.45443">
        <ele>83.9</ele>
        <time>2025-02-11T13:31:02Z</time>
      </trkpt>
      <trkpt lat="47.80692" lon="-2.45443">
        <ele>83.8</ele>
        <time>2025-02-11T13:31:03Z</time>
      </trkpt>
      <trkpt lat="47.80691" lon="-2.45442">
        <ele>83.8</ele>
        <time>2025-02-11T13:31:04Z</time>
      </trkpt>
      <trkpt lat="47.8069" lon="-2.45442">
        <ele>83.7</ele>
        <time>2025-02-11T13:31:05Z</time>
      </trkpt>
      <trkpt lat="47.80689" lon="-2.45441">
        <ele>83.6</ele>
        <time>2025-02-11T13:31:06Z</time>
      </trkpt>
      <trkpt lat="47.80688" lon="-2.4544">
        <ele>83.5</ele>
        <time>2025-02-11T13:31:07Z</time>
      </trkpt>
      <trkpt lat="47.80687" lon="-2.45439">
        <ele>83.5</ele>
        <time>2025-02-11T13:31:08Z</time>
      </trkpt>
      <trkpt lat="47.80686" lon="-2.45438">
        <ele>83.4</ele>
        <time>2025-02-11T13:31:09Z</time>
      </trkpt>
      <trkpt lat="47.80685" lon="-2.45437">
        <ele>83.3</ele>
        <time>2025-02-11T13:31:10Z</time>
      </trkpt>
      <trkpt lat="47.80684" lon="-2.45436">
        <ele>83.2</ele>
        <time>2025-02-11T13:31:11Z</time>
      </trkpt>
      <trkpt lat="47.80683" lon="-2.45435">
        <ele>83.2</ele>
        <time>2025-02-11T13:31:12Z</time>
      </trkpt>
      <trkpt lat="47.80682" lon="-2.45435">
        <ele>83.1</ele>
        <time>2025-02-11T13:31:13Z</time>
      </trkpt>
      <trkpt lat="47.80681" lon="-2.45434">
        <ele>83</ele>
        <time>2025-02-11T13:31:14Z</time>
      </trkpt>
      <trkpt lat="47.8068" lon="-2.45433">
        <ele>82.9</ele>
        <time>2025-02-11T13:31:15Z</time>
      </trkpt>
      <trkpt lat="47.80679" lon="-2.45432">
        <ele>82.9</ele>
        <time>2025-02-11T13:31:16Z</time>
      </trkpt>
      <trkpt lat="47.80678" lon="-2.45432">
        <ele>82.8</ele>
        <time>2025-02-11T13:31:17Z</time>
      </trkpt>
      <trkpt lat="47.80677" lon="-2.45431">
        <ele>82.7</ele>
        <time>2025-02-11T13:31:18Z</time>
      </trkpt>
      <trkpt lat="47.80676" lon="-2.45431">
        <ele>82.6</ele>
        <time>2025-02-11T13:31:19Z</time>
      </trkpt>
      <trkpt lat="47.80675" lon="-2.4543">
        <ele>82.6</ele>
        <time>2025-02-11T13:31:20Z</time>
      </trkpt>
      <trkpt lat="47.80674" lon="-2.45429">
        <ele>82.5</ele>
        <time>2025-02-11T13:31:21Z</time>
      </trkpt>
      <trkpt lat="47.80673" lon="-2.45428">
        <ele>82.4</ele>
        <time>2025-02-11T13:31:22Z</time>
      </trkpt>
      <trkpt lat="47.80672" lon="-2.45428">
        <ele>82.4</ele>
        <time>2025-02-11T13:31:23Z</time>
      </trkpt>
      <trkpt lat="47.80671" lon="-2.45427">
        <ele>82.3</ele>
        <time>2025-02-11T13:31:24Z</time>
      </trkpt>
      <trkpt lat="47.8067" lon="-2.45427">
        <ele>82.2</ele>
        <time>2025-02-11T13:31:25Z</time>
      </trkpt>
      <trkpt lat="47.80669" lon="-2.45426">
        <ele>82.2</ele>
        <time>2025-02-11T13:31:26Z</time>
      </trkpt>
      <trkpt lat="47.80668" lon="-2.45426">
        <ele>82.1</ele>
        <time>2025-02-11T13:31:27Z</time>
      </trkpt>
      <trkpt lat="47.80667" lon="-2.45425">
        <ele>82</ele>
        <time>2025-02-11T13:31:28Z</time>
      </trkpt>
      <trkpt lat="47.80667" lon="-2.45424">
        <ele>82</ele>
        <time>2025-02-11T13:31:29Z</time>
      </trkpt>
      <trkpt lat="47.80666" lon="-2.45423">
        <ele>81.9</ele>
        <time>2025-02-11T13:31:30Z</time>
      </trkpt>
      <trkpt lat="47.80665" lon="-2.45421">
        <ele>81.9</ele>
        <time>2025-02-11T13:31:31Z</time>
      </trkpt>
      <trkpt lat="47.80664" lon="-2.45421">
        <ele>81.8</ele>
        <time>2025-02-11T13:31:32Z</time>
      </trkpt>
      <trkpt lat="47.80663" lon="-2.4542">
        <ele>81.7</ele>
        <time>2025-02-11T13:31:33Z</time>
      </trkpt>
      <trkpt lat="47.80662" lon="-2.4542">
        <ele>81.6</ele>
        <time>2025-02-11T13:31:34Z</time>
      </trkpt>
      <trkpt lat="47.80661" lon="-2.45419">
        <ele>81.6</ele>
        <time>2025-02-11T13:31:35Z</time>
      </trkpt>
      <trkpt lat="47.8066" lon="-2.45419">
        <ele>81.5</ele>
        <time>2025-02-11T13:31:36Z</time>
      </trkpt>
      <trkpt lat="47.80659" lon="-2.45418">
        <ele>81.4</ele>
        <time>2025-02-11T13:31:37Z</time>
      </trkpt>
      <trkpt lat="47.80658" lon="-2.45418">
        <ele>81.4</ele>
        <time>2025-02-11T13:31:38Z</time>
      </trkpt>
      <trkpt lat="47.80657" lon="-2.45417">
        <ele>81.3</ele>
        <time>2025-02-11T13:31:39Z</time>
      </trkpt>
      <trkpt lat="47.80656" lon="-2.45417">
        <ele>81.2</ele>
        <time>2025-02-11T13:31:40Z</time>
      </trkpt>
      <trkpt lat="47.80655" lon="-2.45417">
        <ele>81.2</ele>
        <time>2025-02-11T13:31:41Z</time>
      </trkpt>
      <trkpt lat="47.80654" lon="-2.45416">
        <ele>81.1</ele>
        <time>2025-02-11T13:31:42Z</time>
      </trkpt>
      <trkpt lat="47.80653" lon="-2.45416">
        <ele>81</ele>
        <time>2025-02-11T13:31:43Z</time>
      </trkpt>
      <trkpt lat="47.80652" lon="-2.45415">
        <ele>80.9</ele>
        <time>2025-02-11T13:31:44Z</time>
      </trkpt>
      <trkpt lat="47.80651" lon="-2.45415">
        <ele>80.8</ele>
        <time>2025-02-11T13:31:45Z</time>
      </trkpt>
      <trkpt lat="47.8065" lon="-2.45414">
        <ele>80.8</ele>
        <time>2025-02-11T13:31:46Z</time>
      </trkpt>
      <trkpt lat="47.80649" lon="-2.45414">
        <ele>80.7</ele>
        <time>2025-02-11T13:31:47Z</time>
      </trkpt>
      <trkpt lat="47.80647" lon="-2.45414">
        <ele>80.6</ele>
        <time>2025-02-11T13:31:48Z</time>
      </trkpt>
      <trkpt lat="47.80646" lon="-2.45413">
        <ele>80.5</ele>
        <time>2025-02-11T13:31:49Z</time>
      </trkpt>
      <trkpt lat="47.80645" lon="-2.45413">
        <ele>80.5</ele>
        <time>2025-02-11T13:31:50Z</time>
      </trkpt>
      <trkpt lat="47.80644" lon="-2.45412">
        <ele>80.4</ele>
        <time>2025-02-11T13:31:51Z</time>
      </trkpt>
      <trkpt lat="47.80643" lon="-2.45412">
        <ele>80.3</ele>
        <time>2025-02-11T13:31:52Z</time>
      </trkpt>
      <trkpt lat="47.80642" lon="-2.45411">
        <ele>80.2</ele>
        <time>2025-02-11T13:31:53Z</time>
      </trkpt>
      <trkpt lat="47.80641" lon="-2.45411">
        <ele>80.1</ele>
        <time>2025-02-11T13:31:54Z</time>
      </trkpt>
      <trkpt lat="47.80639" lon="-2.4541">
        <ele>80</ele>
        <time>2025-02-11T13:31:55Z</time>
      </trkpt>
      <trkpt lat="47.80638" lon="-2.4541">
        <ele>79.9</ele>
        <time>2025-02-11T13:31:56Z</time>
      </trkpt>
      <trkpt lat="47.80637" lon="-2.45409">
        <ele>79.8</ele>
        <time>2025-02-11T13:31:57Z</time>
      </trkpt>
      <trkpt lat="47.80636" lon="-2.45409">
        <ele>79.7</ele>
        <time>2025-02-11T13:31:58Z</time>
      </trkpt>
      <trkpt lat="47.80635" lon="-2.45408">
        <ele>79.6</ele>
        <time>2025-02-11T13:31:59Z</time>
      </trkpt>
      <trkpt lat="47.80634" lon="-2.45408">
        <ele>79.5</ele>
        <time>2025-02-11T13:32:00Z</time>
      </trkpt>
      <trkpt lat="47.80633" lon="-2.45408">
        <ele>79.4</ele>
        <time>2025-02-11T13:32:01Z</time>
      </trkpt>
      <trkpt lat="47.80632" lon="-2.45407">
        <ele>79.3</ele>
        <time>2025-02-11T13:32:02Z</time>
      </trkpt>
      <trkpt lat="47.80631" lon="-2.45407">
        <ele>79.2</ele>
        <time>2025-02-11T13:32:03Z</time>
      </trkpt>
      <trkpt lat="47.8063" lon="-2.45406">
        <ele>79.1</ele>
        <time>2025-02-11T13:32:04Z</time>
      </trkpt>
      <trkpt lat="47.80629" lon="-2.45406">
        <ele>79</ele>
        <time>2025-02-11T13:32:05Z</time>
      </trkpt>
      <trkpt lat="47.80628" lon="-2.45405">
        <ele>78.9</ele>
        <time>2025-02-11T13:32:06Z</time>
      </trkpt>
      <trkpt lat="47.80626" lon="-2.45405">
        <ele>78.8</ele>
        <time>2025-02-11T13:32:07Z</time>
      </trkpt>
      <trkpt lat="47.80625" lon="-2.45405">
        <ele>78.7</ele>
        <time>2025-02-11T13:32:08Z</time>
      </trkpt>
      <trkpt lat="47.80624" lon="-2.45404">
        <ele>78.6</ele>
        <time>2025-02-11T13:32:09Z</time>
      </trkpt>
      <trkpt lat="47.80623" lon="-2.45404">
        <ele>78.5</ele>
        <time>2025-02-11T13:32:10Z</time>
      </trkpt>
      <trkpt lat="47.80622" lon="-2.45404">
        <ele>78.4</ele>
        <time>2025-02-11T13:32:11Z</time>
      </trkpt>
      <trkpt lat="47.8062" lon="-2.45404">
        <ele>78.3</ele>
        <time>2025-02-11T13:32:12Z</time>
      </trkpt>
      <trkpt lat="47.80619" lon="-2.45403">
        <ele>78.2</ele>
        <time>2025-02-11T13:32:13Z</time>
      </trkpt>
      <trkpt lat="47.80618" lon="-2.45402">
        <ele>78.1</ele>
        <time>2025-02-11T13:32:14Z</time>
      </trkpt>
      <trkpt lat="47.80617" lon="-2.45401">
        <ele>78.1</ele>
        <time>2025-02-11T13:32:15Z</time>
      </trkpt>
      <trkpt lat="47.80616" lon="-2.45401">
        <ele>78</ele>
        <time>2025-02-11T13:32:16Z</time>
      </trkpt>
      <trkpt lat="47.80615" lon="-2.45401">
        <ele>77.9</ele>
        <time>2025-02-11T13:32:17Z</time>
      </trkpt>
      <trkpt lat="47.80614" lon="-2.45401">
        <ele>77.8</ele>
        <time>2025-02-11T13:32:18Z</time>
      </trkpt>
      <trkpt lat="47.80613" lon="-2.454">
        <ele>77.7</ele>
        <time>2025-02-11T13:32:19Z</time>
      </trkpt>
      <trkpt lat="47.80611" lon="-2.45399">
        <ele>77.6</ele>
        <time>2025-02-11T13:32:20Z</time>
      </trkpt>
      <trkpt lat="47.8061" lon="-2.45398">
        <ele>77.6</ele>
        <time>2025-02-11T13:32:21Z</time>
      </trkpt>
      <trkpt lat="47.8061" lon="-2.45396">
        <ele>77.6</ele>
        <time>2025-02-11T13:32:22Z</time>
      </trkpt>
      <trkpt lat="47.80609" lon="-2.45394">
        <ele>77.7</ele>
        <time>2025-02-11T13:32:23Z</time>
      </trkpt>
      <trkpt lat="47.80609" lon="-2.45392">
        <ele>77.7</ele>
        <time>2025-02-11T13:32:24Z</time>
      </trkpt>
      <trkpt lat="47.80609" lon="-2.45391">
        <ele>77.8</ele>
        <time>2025-02-11T13:32:25Z</time>
      </trkpt>
      <trkpt lat="47.80609" lon="-2.45389">
        <ele>77.8</ele>
        <time>2025-02-11T13:32:26Z</time>
      </trkpt>
      <trkpt lat="47.80609" lon="-2.45387">
        <ele>77.8</ele>
        <time>2025-02-11T13:32:27Z</time>
      </trkpt>
      <trkpt lat="47.80609" lon="-2.45386">
        <ele>77.7</ele>
        <time>2025-02-11T13:32:28Z</time>
      </trkpt>
      <trkpt lat="47.80609" lon="-2.45384">
        <ele>77.7</ele>
        <time>2025-02-11T13:32:29Z</time>
      </trkpt>
      <trkpt lat="47.80609" lon="-2.45382">
        <ele>77.6</ele>
        <time>2025-02-11T13:32:30Z</time>
      </trkpt>
      <trkpt lat="47.80609" lon="-2.4538">
        <ele>77.6</ele>
        <time>2025-02-11T13:32:31Z</time>
      </trkpt>
      <trkpt lat="47.80609" lon="-2.45379">
        <ele>77.5</ele>
        <time>2025-02-11T13:32:32Z</time>
      </trkpt>
      <trkpt lat="47.8061" lon="-2.45377">
        <ele>77.5</ele>
        <time>2025-02-11T13:32:33Z</time>
      </trkpt>
      <trkpt lat="47.8061" lon="-2.45376">
        <ele>77.4</ele>
        <time>2025-02-11T13:32:34Z</time>
      </trkpt>
      <trkpt lat="47.80609" lon="-2.45375">
        <ele>77.4</ele>
        <time>2025-02-11T13:32:35Z</time>
      </trkpt>
      <trkpt lat="47.80608" lon="-2.45374">
        <ele>77.3</ele>
        <time>2025-02-11T13:32:36Z</time>
      </trkpt>
      <trkpt lat="47.80608" lon="-2.45373">
        <ele>77.3</ele>
        <time>2025-02-11T13:32:37Z</time>
      </trkpt>
      <trkpt lat="47.80608" lon="-2.45374">
        <ele>77.3</ele>
        <time>2025-02-11T13:32:38Z</time>
      </trkpt>
      <trkpt lat="47.80608" lon="-2.45374">
        <ele>77.3</ele>
        <time>2025-02-11T13:32:39Z</time>
      </trkpt>
      <trkpt lat="47.80609" lon="-2.45374">
        <ele>77.3</ele>
        <time>2025-02-11T13:32:40Z</time>
      </trkpt>
      <trkpt lat="47.80609" lon="-2.45374">
        <ele>77.3</ele>
        <time>2025-02-11T13:32:41Z</time>
      </trkpt>
      <trkpt lat="47.80609" lon="-2.45374">
        <ele>77.3</ele>
        <time>2025-02-11T13:32:42Z</time>
      </trkpt>
      <trkpt lat="47.80609" lon="-2.45374">
        <ele>77.3</ele>
        <time>2025-02-11T13:32:43Z</time>
      </trkpt>
      <trkpt lat="47.80609" lon="-2.45374">
        <ele>77.3</ele>
        <time>2025-02-11T13:32:44Z</time>
      </trkpt>
      <trkpt lat="47.80609" lon="-2.45373">
        <ele>77.3</ele>
        <time>2025-02-11T13:32:45Z</time>
      </trkpt>
      <trkpt lat="47.80608" lon="-2.45372">
        <ele>77.3</ele>
        <time>2025-02-11T13:32:46Z</time>
      </trkpt>
      <trkpt lat="47.80608" lon="-2.45371">
        <ele>77.2</ele>
        <time>2025-02-11T13:32:47Z</time>
      </trkpt>
      <trkpt lat="47.80607" lon="-2.4537">
        <ele>77.1</ele>
        <time>2025-02-11T13:32:48Z</time>
      </trkpt>
      <trkpt lat="47.80607" lon="-2.4537">
        <ele>77.1</ele>
        <time>2025-02-11T13:32:49Z</time>
      </trkpt>
      <trkpt lat="47.80606" lon="-2.4537">
        <ele>77.1</ele>
        <time>2025-02-11T13:32:50Z</time>
      </trkpt>
      <trkpt lat="47.80605" lon="-2.4537">
        <ele>77</ele>
        <time>2025-02-11T13:32:51Z</time>
      </trkpt>
      <trkpt lat="47.80604" lon="-2.45371">
        <ele>77</ele>
        <time>2025-02-11T13:32:52Z</time>
      </trkpt>
      <trkpt lat="47.80603" lon="-2.45372">
        <ele>77</ele>
        <time>2025-02-11T13:32:53Z</time>
      </trkpt>
      <trkpt lat="47.80602" lon="-2.45373">
        <ele>77</ele>
        <time>2025-02-11T13:32:54Z</time>
      </trkpt>
      <trkpt lat="47.80601" lon="-2.45374">
        <ele>76.9</ele>
        <time>2025-02-11T13:32:55Z</time>
      </trkpt>
      <trkpt lat="47.806" lon="-2.45375">
        <ele>76.9</ele>
        <time>2025-02-11T13:32:56Z</time>
      </trkpt>
      <trkpt lat="47.80599" lon="-2.45374">
        <ele>76.8</ele>
        <time>2025-02-11T13:32:57Z</time>
      </trkpt>
      <trkpt lat="47.80598" lon="-2.45374">
        <ele>76.8</ele>
        <time>2025-02-11T13:32:58Z</time>
      </trkpt>
      <trkpt lat="47.80597" lon="-2.45374">
        <ele>76.7</ele>
        <time>2025-02-11T13:32:59Z</time>
      </trkpt>
      <trkpt lat="47.80596" lon="-2.45374">
        <ele>76.6</ele>
        <time>2025-02-11T13:33:00Z</time>
      </trkpt>
      <trkpt lat="47.80595" lon="-2.45373">
        <ele>76.6</ele>
        <time>2025-02-11T13:33:01Z</time>
      </trkpt>
      <trkpt lat="47.80594" lon="-2.45373">
        <ele>76.5</ele>
        <time>2025-02-11T13:33:02Z</time>
      </trkpt>
      <trkpt lat="47.80593" lon="-2.45373">
        <ele>76.5</ele>
        <time>2025-02-11T13:33:03Z</time>
      </trkpt>
      <trkpt lat="47.80592" lon="-2.45372">
        <ele>76.4</ele>
        <time>2025-02-11T13:33:04Z</time>
      </trkpt>
      <trkpt lat="47.80591" lon="-2.45371">
        <ele>76.4</ele>
        <time>2025-02-11T13:33:05Z</time>
      </trkpt>
      <trkpt lat="47.80591" lon="-2.45369">
        <ele>76.3</ele>
        <time>2025-02-11T13:33:06Z</time>
      </trkpt>
      <trkpt lat="47.8059" lon="-2.45368">
        <ele>76.3</ele>
        <time>2025-02-11T13:33:07Z</time>
      </trkpt>
      <trkpt lat="47.80589" lon="-2.45366">
        <ele>76.2</ele>
        <time>2025-02-11T13:33:08Z</time>
      </trkpt>
      <trkpt lat="47.80588" lon="-2.45365">
        <ele>76.2</ele>
        <time>2025-02-11T13:33:09Z</time>
      </trkpt>
      <trkpt lat="47.80587" lon="-2.45365">
        <ele>76.1</ele>
        <time>2025-02-11T13:33:10Z</time>
      </trkpt>
      <trkpt lat="47.80586" lon="-2.45364">
        <ele>76.1</ele>
        <time>2025-02-11T13:33:11Z</time>
      </trkpt>
      <trkpt lat="47.80585" lon="-2.45364">
        <ele>76.1</ele>
        <time>2025-02-11T13:33:12Z</time>
      </trkpt>
      <trkpt lat="47.80584" lon="-2.45366">
        <ele>76</ele>
        <time>2025-02-11T13:33:13Z</time>
      </trkpt>
      <trkpt lat="47.80583" lon="-2.45367">
        <ele>75.9</ele>
        <time>2025-02-11T13:33:14Z</time>
      </trkpt>
      <trkpt lat="47.80582" lon="-2.45369">
        <ele>75.8</ele>
        <time>2025-02-11T13:33:15Z</time>
      </trkpt>
      <trkpt lat="47.80581" lon="-2.45369">
        <ele>75.7</ele>
        <time>2025-02-11T13:33:16Z</time>
      </trkpt>
      <trkpt lat="47.80579" lon="-2.45369">
        <ele>75.6</ele>
        <time>2025-02-11T13:33:17Z</time>
      </trkpt>
      <trkpt lat="47.80578" lon="-2.45369">
        <ele>75.4</ele>
        <time>2025-02-11T13:33:18Z</time>
      </trkpt>
      <trkpt lat="47.80577" lon="-2.45369">
        <ele>75.3</ele>
        <time>2025-02-11T13:33:19Z</time>
      </trkpt>
      <trkpt lat="47.80577" lon="-2.4537">
        <ele>75.3</ele>
        <time>2025-02-11T13:33:20Z</time>
      </trkpt>
      <trkpt lat="47.80576" lon="-2.45371">
        <ele>75.2</ele>
        <time>2025-02-11T13:33:21Z</time>
      </trkpt>
      <trkpt lat="47.80575" lon="-2.45372">
        <ele>75.1</ele>
        <time>2025-02-11T13:33:22Z</time>
      </trkpt>
      <trkpt lat="47.80574" lon="-2.45373">
        <ele>75</ele>
        <time>2025-02-11T13:33:23Z</time>
      </trkpt>
      <trkpt lat="47.80573" lon="-2.45373">
        <ele>74.9</ele>
        <time>2025-02-11T13:33:24Z</time>
      </trkpt>
      <trkpt lat="47.80572" lon="-2.45372">
        <ele>74.7</ele>
        <time>2025-02-11T13:33:25Z</time>
      </trkpt>
      <trkpt lat="47.80571" lon="-2.45371">
        <ele>74.6</ele>
        <time>2025-02-11T13:33:26Z</time>
      </trkpt>
      <trkpt lat="47.8057" lon="-2.45371">
        <ele>74.5</ele>
        <time>2025-02-11T13:33:27Z</time>
      </trkpt>
      <trkpt lat="47.80569" lon="-2.4537">
        <ele>74.4</ele>
        <time>2025-02-11T13:33:28Z</time>
      </trkpt>
      <trkpt lat="47.80567" lon="-2.4537">
        <ele>74.3</ele>
        <time>2025-02-11T13:33:29Z</time>
      </trkpt>
      <trkpt lat="47.80566" lon="-2.45369">
        <ele>74.2</ele>
        <time>2025-02-11T13:33:30Z</time>
      </trkpt>
      <trkpt lat="47.80565" lon="-2.45368">
        <ele>74.1</ele>
        <time>2025-02-11T13:33:31Z</time>
      </trkpt>
      <trkpt lat="47.80565" lon="-2.45367">
        <ele>74</ele>
        <time>2025-02-11T13:33:32Z</time>
      </trkpt>
      <trkpt lat="47.80564" lon="-2.45365">
        <ele>73.9</ele>
        <time>2025-02-11T13:33:33Z</time>
      </trkpt>
      <trkpt lat="47.80563" lon="-2.45364">
        <ele>73.8</ele>
        <time>2025-02-11T13:33:34Z</time>
      </trkpt>
      <trkpt lat="47.80563" lon="-2.45362">
        <ele>73.8</ele>
        <time>2025-02-11T13:33:35Z</time>
      </trkpt>
      <trkpt lat="47.80563" lon="-2.4536">
        <ele>73.8</ele>
        <time>2025-02-11T13:33:36Z</time>
      </trkpt>
      <trkpt lat="47.80562" lon="-2.45358">
        <ele>73.7</ele>
        <time>2025-02-11T13:33:37Z</time>
      </trkpt>
      <trkpt lat="47.80562" lon="-2.45357">
        <ele>73.7</ele>
        <time>2025-02-11T13:33:38Z</time>
      </trkpt>
      <trkpt lat="47.80561" lon="-2.45355">
        <ele>73.6</ele>
        <time>2025-02-11T13:33:39Z</time>
      </trkpt>
      <trkpt lat="47.80561" lon="-2.45354">
        <ele>73.5</ele>
        <time>2025-02-11T13:33:40Z</time>
      </trkpt>
      <trkpt lat="47.8056" lon="-2.45353">
        <ele>73.4</ele>
        <time>2025-02-11T13:33:41Z</time>
      </trkpt>
      <trkpt lat="47.80559" lon="-2.45351">
        <ele>73.3</ele>
        <time>2025-02-11T13:33:42Z</time>
      </trkpt>
      <trkpt lat="47.80558" lon="-2.4535">
        <ele>73.2</ele>
        <time>2025-02-11T13:33:43Z</time>
      </trkpt>
      <trkpt lat="47.80557" lon="-2.45349">
        <ele>73.1</ele>
        <time>2025-02-11T13:33:44Z</time>
      </trkpt>
      <trkpt lat="47.80556" lon="-2.45348">
        <ele>73</ele>
        <time>2025-02-11T13:33:45Z</time>
      </trkpt>
      <trkpt lat="47.80555" lon="-2.45348">
        <ele>72.9</ele>
        <time>2025-02-11T13:33:46Z</time>
      </trkpt>
      <trkpt lat="47.80554" lon="-2.45347">
        <ele>72.8</ele>
        <time>2025-02-11T13:33:47Z</time>
      </trkpt>
      <trkpt lat="47.80553" lon="-2.45346">
        <ele>72.7</ele>
        <time>2025-02-11T13:33:48Z</time>
      </trkpt>
      <trkpt lat="47.80552" lon="-2.45345">
        <ele>72.6</ele>
        <time>2025-02-11T13:33:49Z</time>
      </trkpt>
      <trkpt lat="47.80551" lon="-2.45345">
        <ele>72.5</ele>
        <time>2025-02-11T13:33:50Z</time>
      </trkpt>
      <trkpt lat="47.8055" lon="-2.45344">
        <ele>72.4</ele>
        <time>2025-02-11T13:33:51Z</time>
      </trkpt>
      <trkpt lat="47.80549" lon="-2.45343">
        <ele>72.2</ele>
        <time>2025-02-11T13:33:52Z</time>
      </trkpt>
      <trkpt lat="47.80547" lon="-2.45343">
        <ele>72.1</ele>
        <time>2025-02-11T13:33:53Z</time>
      </trkpt>
      <trkpt lat="47.80546" lon="-2.45344">
        <ele>72</ele>
        <time>2025-02-11T13:33:54Z</time>
      </trkpt>
      <trkpt lat="47.80545" lon="-2.45344">
        <ele>71.8</ele>
        <time>2025-02-11T13:33:55Z</time>
      </trkpt>
      <trkpt lat="47.80544" lon="-2.45345">
        <ele>71.7</ele>
        <time>2025-02-11T13:33:56Z</time>
      </trkpt>
      <trkpt lat="47.80543" lon="-2.45345">
        <ele>71.6</ele>
        <time>2025-02-11T13:33:57Z</time>
      </trkpt>
      <trkpt lat="47.80542" lon="-2.45346">
        <ele>71.5</ele>
        <time>2025-02-11T13:33:58Z</time>
      </trkpt>
      <trkpt lat="47.8054" lon="-2.45347">
        <ele>71.4</ele>
        <time>2025-02-11T13:33:59Z</time>
      </trkpt>
      <trkpt lat="47.80539" lon="-2.45347">
        <ele>71.2</ele>
        <time>2025-02-11T13:34:00Z</time>
      </trkpt>
      <trkpt lat="47.80538" lon="-2.45348">
        <ele>71.1</ele>
        <time>2025-02-11T13:34:01Z</time>
      </trkpt>
      <trkpt lat="47.80537" lon="-2.45348">
        <ele>70.9</ele>
        <time>2025-02-11T13:34:02Z</time>
      </trkpt>
      <trkpt lat="47.80535" lon="-2.45348">
        <ele>70.8</ele>
        <time>2025-02-11T13:34:03Z</time>
      </trkpt>
      <trkpt lat="47.80534" lon="-2.45347">
        <ele>70.7</ele>
        <time>2025-02-11T13:34:04Z</time>
      </trkpt>
      <trkpt lat="47.80534" lon="-2.45346">
        <ele>70.6</ele>
        <time>2025-02-11T13:34:05Z</time>
      </trkpt>
      <trkpt lat="47.80533" lon="-2.45345">
        <ele>70.5</ele>
        <time>2025-02-11T13:34:06Z</time>
      </trkpt>
      <trkpt lat="47.80532" lon="-2.45343">
        <ele>70.5</ele>
        <time>2025-02-11T13:34:07Z</time>
      </trkpt>
      <trkpt lat="47.80532" lon="-2.45341">
        <ele>70.4</ele>
        <time>2025-02-11T13:34:08Z</time>
      </trkpt>
      <trkpt lat="47.8053" lon="-2.45341">
        <ele>70.3</ele>
        <time>2025-02-11T13:34:09Z</time>
      </trkpt>
      <trkpt lat="47.8053" lon="-2.4534">
        <ele>70.2</ele>
        <time>2025-02-11T13:34:10Z</time>
      </trkpt>
      <trkpt lat="47.80529" lon="-2.4534">
        <ele>70.1</ele>
        <time>2025-02-11T13:34:11Z</time>
      </trkpt>
      <trkpt lat="47.80527" lon="-2.4534">
        <ele>70</ele>
        <time>2025-02-11T13:34:12Z</time>
      </trkpt>
      <trkpt lat="47.80526" lon="-2.45339">
        <ele>69.9</ele>
        <time>2025-02-11T13:34:13Z</time>
      </trkpt>
      <trkpt lat="47.80525" lon="-2.45339">
        <ele>69.7</ele>
        <time>2025-02-11T13:34:14Z</time>
      </trkpt>
      <trkpt lat="47.80524" lon="-2.45339">
        <ele>69.6</ele>
        <time>2025-02-11T13:34:15Z</time>
      </trkpt>
      <trkpt lat="47.80523" lon="-2.45338">
        <ele>69.5</ele>
        <time>2025-02-11T13:34:16Z</time>
      </trkpt>
      <trkpt lat="47.80522" lon="-2.45337">
        <ele>69.4</ele>
        <time>2025-02-11T13:34:17Z</time>
      </trkpt>
      <trkpt lat="47.80522" lon="-2.45336">
        <ele>69.3</ele>
        <time>2025-02-11T13:34:18Z</time>
      </trkpt>
      <trkpt lat="47.80521" lon="-2.45335">
        <ele>69.2</ele>
        <time>2025-02-11T13:34:19Z</time>
      </trkpt>
      <trkpt lat="47.8052" lon="-2.45334">
        <ele>69.1</ele>
        <time>2025-02-11T13:34:20Z</time>
      </trkpt>
      <trkpt lat="47.80519" lon="-2.45334">
        <ele>69</ele>
        <time>2025-02-11T13:34:21Z</time>
      </trkpt>
      <trkpt lat="47.80518" lon="-2.45333">
        <ele>68.9</ele>
        <time>2025-02-11T13:34:22Z</time>
      </trkpt>
      <trkpt lat="47.80516" lon="-2.45333">
        <ele>68.8</ele>
        <time>2025-02-11T13:34:23Z</time>
      </trkpt>
      <trkpt lat="47.80515" lon="-2.45333">
        <ele>68.6</ele>
        <time>2025-02-11T13:34:24Z</time>
      </trkpt>
      <trkpt lat="47.80514" lon="-2.45332">
        <ele>68.6</ele>
        <time>2025-02-11T13:34:25Z</time>
      </trkpt>
      <trkpt lat="47.80513" lon="-2.45332">
        <ele>68.4</ele>
        <time>2025-02-11T13:34:26Z</time>
      </trkpt>
      <trkpt lat="47.80512" lon="-2.45333">
        <ele>68.3</ele>
        <time>2025-02-11T13:34:27Z</time>
      </trkpt>
      <trkpt lat="47.80511" lon="-2.45335">
        <ele>68.2</ele>
        <time>2025-02-11T13:34:28Z</time>
      </trkpt>
      <trkpt lat="47.8051" lon="-2.45335">
        <ele>68.1</ele>
        <time>2025-02-11T13:34:29Z</time>
      </trkpt>
      <trkpt lat="47.80509" lon="-2.45336">
        <ele>68</ele>
        <time>2025-02-11T13:34:30Z</time>
      </trkpt>
      <trkpt lat="47.80508" lon="-2.45337">
        <ele>67.9</ele>
        <time>2025-02-11T13:34:31Z</time>
      </trkpt>
      <trkpt lat="47.80508" lon="-2.45339">
        <ele>67.8</ele>
        <time>2025-02-11T13:34:32Z</time>
      </trkpt>
      <trkpt lat="47.80507" lon="-2.45339">
        <ele>67.7</ele>
        <time>2025-02-11T13:34:33Z</time>
      </trkpt>
      <trkpt lat="47.80506" lon="-2.4534">
        <ele>67.6</ele>
        <time>2025-02-11T13:34:34Z</time>
      </trkpt>
      <trkpt lat="47.80505" lon="-2.4534">
        <ele>67.5</ele>
        <time>2025-02-11T13:34:35Z</time>
      </trkpt>
      <trkpt lat="47.80504" lon="-2.4534">
        <ele>67.4</ele>
        <time>2025-02-11T13:34:36Z</time>
      </trkpt>
      <trkpt lat="47.80503" lon="-2.45339">
        <ele>67.3</ele>
        <time>2025-02-11T13:34:37Z</time>
      </trkpt>
      <trkpt lat="47.80502" lon="-2.45339">
        <ele>67.2</ele>
        <time>2025-02-11T13:34:38Z</time>
      </trkpt>
      <trkpt lat="47.805" lon="-2.45338">
        <ele>67</ele>
        <time>2025-02-11T13:34:39Z</time>
      </trkpt>
      <trkpt lat="47.80499" lon="-2.45337">
        <ele>66.9</ele>
        <time>2025-02-11T13:34:40Z</time>
      </trkpt>
      <trkpt lat="47.80498" lon="-2.45337">
        <ele>66.9</ele>
        <time>2025-02-11T13:34:41Z</time>
      </trkpt>
      <trkpt lat="47.80497" lon="-2.45337">
        <ele>66.8</ele>
        <time>2025-02-11T13:34:42Z</time>
      </trkpt>
      <trkpt lat="47.80496" lon="-2.45337">
        <ele>66.7</ele>
        <time>2025-02-11T13:34:43Z</time>
      </trkpt>
      <trkpt lat="47.80495" lon="-2.45336">
        <ele>66.6</ele>
        <time>2025-02-11T13:34:44Z</time>
      </trkpt>
      <trkpt lat="47.80494" lon="-2.45335">
        <ele>66.6</ele>
        <time>2025-02-11T13:34:45Z</time>
      </trkpt>
      <trkpt lat="47.80493" lon="-2.45335">
        <ele>66.5</ele>
        <time>2025-02-11T13:34:46Z</time>
      </trkpt>
      <trkpt lat="47.80492" lon="-2.45335">
        <ele>66.4</ele>
        <time>2025-02-11T13:34:47Z</time>
      </trkpt>
      <trkpt lat="47.80491" lon="-2.45336">
        <ele>66.4</ele>
        <time>2025-02-11T13:34:48Z</time>
      </trkpt>
      <trkpt lat="47.80491" lon="-2.45337">
        <ele>66.4</ele>
        <time>2025-02-11T13:34:49Z</time>
      </trkpt>
      <trkpt lat="47.80491" lon="-2.45338">
        <ele>66.4</ele>
        <time>2025-02-11T13:34:50Z</time>
      </trkpt>
      <trkpt lat="47.8049" lon="-2.45339">
        <ele>66.4</ele>
        <time>2025-02-11T13:34:51Z</time>
      </trkpt>
      <trkpt lat="47.80489" lon="-2.45339">
        <ele>66.3</ele>
        <time>2025-02-11T13:34:52Z</time>
      </trkpt>
      <trkpt lat="47.80489" lon="-2.4534">
        <ele>66.3</ele>
        <time>2025-02-11T13:34:53Z</time>
      </trkpt>
      <trkpt lat="47.80488" lon="-2.45339">
        <ele>66.3</ele>
        <time>2025-02-11T13:34:54Z</time>
      </trkpt>
      <trkpt lat="47.80488" lon="-2.45339">
        <ele>66.2</ele>
        <time>2025-02-11T13:34:55Z</time>
      </trkpt>
      <trkpt lat="47.80487" lon="-2.45339">
        <ele>66.2</ele>
        <time>2025-02-11T13:34:56Z</time>
      </trkpt>
      <trkpt lat="47.80487" lon="-2.45339">
        <ele>66.2</ele>
        <time>2025-02-11T13:34:57Z</time>
      </trkpt>
      <trkpt lat="47.80486" lon="-2.45339">
        <ele>66.1</ele>
        <time>2025-02-11T13:34:58Z</time>
      </trkpt>
      <trkpt lat="47.80485" lon="-2.45339">
        <ele>66</ele>
        <time>2025-02-11T13:34:59Z</time>
      </trkpt>
      <trkpt lat="47.80484" lon="-2.45339">
        <ele>66</ele>
        <time>2025-02-11T13:35:00Z</time>
      </trkpt>
      <trkpt lat="47.80483" lon="-2.4534">
        <ele>65.9</ele>
        <time>2025-02-11T13:35:01Z</time>
      </trkpt>
      <trkpt lat="47.80483" lon="-2.45341">
        <ele>65.9</ele>
        <time>2025-02-11T13:35:02Z</time>
      </trkpt>
      <trkpt lat="47.80483" lon="-2.45342">
        <ele>66</ele>
        <time>2025-02-11T13:35:03Z</time>
      </trkpt>
      <trkpt lat="47.80483" lon="-2.45343">
        <ele>66</ele>
        <time>2025-02-11T13:35:04Z</time>
      </trkpt>
      <trkpt lat="47.80483" lon="-2.45344">
        <ele>66</ele>
        <time>2025-02-11T13:35:05Z</time>
      </trkpt>
      <trkpt lat="47.80483" lon="-2.45344">
        <ele>66</ele>
        <time>2025-02-11T13:35:06Z</time>
      </trkpt>
      <trkpt lat="47.80483" lon="-2.45344">
        <ele>66</ele>
        <time>2025-02-11T13:35:07Z</time>
      </trkpt>
      <trkpt lat="47.80483" lon="-2.45344">
        <ele>66</ele>
        <time>2025-02-11T13:35:08Z</time>
      </trkpt>
      <trkpt lat="47.80483" lon="-2.45344">
        <ele>66</ele>
        <time>2025-02-11T13:35:09Z</time>
      </trkpt>
      <trkpt lat="47.80483" lon="-2.45344">
        <ele>66</ele>
        <time>2025-02-11T13:35:10Z</time>
      </trkpt>
      <trkpt lat="47.80483" lon="-2.45344">
        <ele>66</ele>
        <time>2025-02-11T13:35:11Z</time>
      </trkpt>
      <trkpt lat="47.80483" lon="-2.45344">
        <ele>66</ele>
        <time>2025-02-11T13:35:12Z</time>
      </trkpt>
      <trkpt lat="47.80483" lon="-2.45344">
        <ele>66</ele>
        <time>2025-02-11T13:35:13Z</time>
      </trkpt>
      <trkpt lat="47.80483" lon="-2.45344">
        <ele>66</ele>
        <time>2025-02-11T13:35:14Z</time>
      </trkpt>
      <trkpt lat="47.80483" lon="-2.45344">
        <ele>66</ele>
        <time>2025-02-11T13:35:15Z</time>
      </trkpt>
      <trkpt lat="47.80483" lon="-2.45344">
        <ele>66</ele>
        <time>2025-02-11T13:35:16Z</time>
      </trkpt>
      <trkpt lat="47.80483" lon="-2.45344">
        <ele>66</ele>
        <time>2025-02-11T13:35:17Z</time>
      </trkpt>
      <trkpt lat="47.80483" lon="-2.45344">
        <ele>66</ele>
        <time>2025-02-11T13:35:18Z</time>
      </trkpt>
      <trkpt lat="47.80483" lon="-2.45344">
        <ele>66</ele>
        <time>2025-02-11T13:35:19Z</time>
      </trkpt>
      <trkpt lat="47.80483" lon="-2.45344">
        <ele>66</ele>
        <time>2025-02-11T13:35:20Z</time>
      </trkpt>
      <trkpt lat="47.80483" lon="-2.45344">
        <ele>66</ele>
        <time>2025-02-11T13:35:21Z</time>
      </trkpt>
      <trkpt lat="47.80483" lon="-2.45344">
        <ele>66</ele>
        <time>2025-02-11T13:35:22Z</time>
      </trkpt>
      <trkpt lat="47.80483" lon="-2.45344">
        <ele>66</ele>
        <time>2025-02-11T13:35:23Z</time>
      </trkpt>
      <trkpt lat="47.80483" lon="-2.45344">
        <ele>66</ele>
        <time>2025-02-11T13:35:24Z</time>
      </trkpt>
      <trkpt lat="47.80483" lon="-2.45344">
        <ele>66</ele>
        <time>2025-02-11T13:35:25Z</time>
      </trkpt>
      <trkpt lat="47.80483" lon="-2.45344">
        <ele>66</ele>
        <time>2025-02-11T13:35:26Z</time>
      </trkpt>
      <trkpt lat="47.80483" lon="-2.45344">
        <ele>66</ele>
        <time>2025-02-11T13:35:27Z</time>
      </trkpt>
      <trkpt lat="47.80483" lon="-2.45343">
        <ele>66</ele>
        <time>2025-02-11T13:35:28Z</time>
      </trkpt>
      <trkpt lat="47.80483" lon="-2.45343">
        <ele>66</ele>
        <time>2025-02-11T13:35:29Z</time>
      </trkpt>
      <trkpt lat="47.80483" lon="-2.45343">
        <ele>66</ele>
        <time>2025-02-11T13:35:30Z</time>
      </trkpt>
      <trkpt lat="47.80483" lon="-2.45343">
        <ele>66</ele>
        <time>2025-02-11T13:35:31Z</time>
      </trkpt>
      <trkpt lat="47.80483" lon="-2.45343">
        <ele>66</ele>
        <time>2025-02-11T13:35:32Z</time>
      </trkpt>
      <trkpt lat="47.80483" lon="-2.45342">
        <ele>65.9</ele>
        <time>2025-02-11T13:35:33Z</time>
      </trkpt>
      <trkpt lat="47.80483" lon="-2.45342">
        <ele>65.9</ele>
        <time>2025-02-11T13:35:34Z</time>
      </trkpt>
      <trkpt lat="47.80483" lon="-2.45342">
        <ele>65.9</ele>
        <time>2025-02-11T13:35:35Z</time>
      </trkpt>
      <trkpt lat="47.80483" lon="-2.45342">
        <ele>65.9</ele>
        <time>2025-02-11T13:35:36Z</time>
      </trkpt>
      <trkpt lat="47.80483" lon="-2.45341">
        <ele>65.9</ele>
        <time>2025-02-11T13:35:37Z</time>
      </trkpt>
      <trkpt lat="47.80483" lon="-2.45341">
        <ele>65.9</ele>
        <time>2025-02-11T13:35:38Z</time>
      </trkpt>
      <trkpt lat="47.80483" lon="-2.45341">
        <ele>65.9</ele>
        <time>2025-02-11T13:35:39Z</time>
      </trkpt>
      <trkpt lat="47.80483" lon="-2.45341">
        <ele>65.9</ele>
        <time>2025-02-11T13:35:40Z</time>
      </trkpt>
      <trkpt lat="47.80483" lon="-2.4534">
        <ele>65.9</ele>
        <time>2025-02-11T13:35:41Z</time>
      </trkpt>
      <trkpt lat="47.80483" lon="-2.45338">
        <ele>65.9</ele>
        <time>2025-02-11T13:35:42Z</time>
      </trkpt>
      <trkpt lat="47.80483" lon="-2.45335">
        <ele>65.8</ele>
        <time>2025-02-11T13:35:43Z</time>
      </trkpt>
      <trkpt lat="47.80482" lon="-2.45333">
        <ele>65.7</ele>
        <time>2025-02-11T13:35:44Z</time>
      </trkpt>
      <trkpt lat="47.80482" lon="-2.45331">
        <ele>65.7</ele>
        <time>2025-02-11T13:35:45Z</time>
      </trkpt>
      <trkpt lat="47.80481" lon="-2.45329">
        <ele>65.7</ele>
        <time>2025-02-11T13:35:46Z</time>
      </trkpt>
      <trkpt lat="47.80481" lon="-2.45327">
        <ele>65.6</ele>
        <time>2025-02-11T13:35:47Z</time>
      </trkpt>
      <trkpt lat="47.80481" lon="-2.45321">
        <ele>65.6</ele>
        <time>2025-02-11T13:35:48Z</time>
      </trkpt>
      <trkpt lat="47.8048" lon="-2.45319">
        <ele>65.6</ele>
        <time>2025-02-11T13:35:49Z</time>
      </trkpt>
      <trkpt lat="47.8048" lon="-2.45318">
        <ele>65.6</ele>
        <time>2025-02-11T13:35:50Z</time>
      </trkpt>
      <trkpt lat="47.8048" lon="-2.45317">
        <ele>65.6</ele>
        <time>2025-02-11T13:35:51Z</time>
      </trkpt>
      <trkpt lat="47.80479" lon="-2.45314">
        <ele>65.5</ele>
        <time>2025-02-11T13:35:52Z</time>
      </trkpt>
      <trkpt lat="47.80479" lon="-2.45314">
        <ele>65.5</ele>
        <time>2025-02-11T13:35:53Z</time>
      </trkpt>
      <trkpt lat="47.80479" lon="-2.45312">
        <ele>65.5</ele>
        <time>2025-02-11T13:35:54Z</time>
      </trkpt>
      <trkpt lat="47.80479" lon="-2.45311">
        <ele>65.5</ele>
        <time>2025-02-11T13:35:55Z</time>
      </trkpt>
      <trkpt lat="47.80479" lon="-2.4531">
        <ele>65.5</ele>
        <time>2025-02-11T13:35:56Z</time>
      </trkpt>
      <trkpt lat="47.80479" lon="-2.45308">
        <ele>65.5</ele>
        <time>2025-02-11T13:35:57Z</time>
      </trkpt>
      <trkpt lat="47.80478" lon="-2.45307">
        <ele>65.4</ele>
        <time>2025-02-11T13:35:58Z</time>
      </trkpt>
      <trkpt lat="47.80478" lon="-2.45305">
        <ele>65.4</ele>
        <time>2025-02-11T13:35:59Z</time>
      </trkpt>
      <trkpt lat="47.80478" lon="-2.45304">
        <ele>65.4</ele>
        <time>2025-02-11T13:36:00Z</time>
      </trkpt>
      <trkpt lat="47.80478" lon="-2.45303">
        <ele>65.4</ele>
        <time>2025-02-11T13:36:01Z</time>
      </trkpt>
      <trkpt lat="47.80478" lon="-2.45301">
        <ele>65.4</ele>
        <time>2025-02-11T13:36:02Z</time>
      </trkpt>
      <trkpt lat="47.80478" lon="-2.45299">
        <ele>65.4</ele>
        <time>2025-02-11T13:36:03Z</time>
      </trkpt>
      <trkpt lat="47.80477" lon="-2.45298">
        <ele>65.4</ele>
        <time>2025-02-11T13:36:04Z</time>
      </trkpt>
      <trkpt lat="47.80477" lon="-2.45296">
        <ele>65.3</ele>
        <time>2025-02-11T13:36:05Z</time>
      </trkpt>
      <trkpt lat="47.80476" lon="-2.45295">
        <ele>65.3</ele>
        <time>2025-02-11T13:36:06Z</time>
      </trkpt>
      <trkpt lat="47.80476" lon="-2.45293">
        <ele>65.3</ele>
        <time>2025-02-11T13:36:07Z</time>
      </trkpt>
      <trkpt lat="47.80476" lon="-2.45291">
        <ele>65.3</ele>
        <time>2025-02-11T13:36:08Z</time>
      </trkpt>
      <trkpt lat="47.80476" lon="-2.4529">
        <ele>65.3</ele>
        <time>2025-02-11T13:36:09Z</time>
      </trkpt>
      <trkpt lat="47.80476" lon="-2.45289">
        <ele>65.3</ele>
        <time>2025-02-11T13:36:10Z</time>
      </trkpt>
      <trkpt lat="47.80476" lon="-2.45288">
        <ele>65.3</ele>
        <time>2025-02-11T13:36:11Z</time>
      </trkpt>
      <trkpt lat="47.80476" lon="-2.45287">
        <ele>65.3</ele>
        <time>2025-02-11T13:36:12Z</time>
      </trkpt>
      <trkpt lat="47.80476" lon="-2.45285">
        <ele>65.3</ele>
        <time>2025-02-11T13:36:13Z</time>
      </trkpt>
      <trkpt lat="47.80476" lon="-2.45284">
        <ele>65.3</ele>
        <time>2025-02-11T13:36:14Z</time>
      </trkpt>
      <trkpt lat="47.80475" lon="-2.45282">
        <ele>65.2</ele>
        <time>2025-02-11T13:36:15Z</time>
      </trkpt>
      <trkpt lat="47.80475" lon="-2.45281">
        <ele>65.2</ele>
        <time>2025-02-11T13:36:16Z</time>
      </trkpt>
      <trkpt lat="47.80474" lon="-2.4528">
        <ele>65.1</ele>
        <time>2025-02-11T13:36:17Z</time>
      </trkpt>
      <trkpt lat="47.80474" lon="-2.45278">
        <ele>65.1</ele>
        <time>2025-02-11T13:36:18Z</time>
      </trkpt>
      <trkpt lat="47.80474" lon="-2.45277">
        <ele>65.1</ele>
        <time>2025-02-11T13:36:19Z</time>
      </trkpt>
      <trkpt lat="47.80473" lon="-2.45275">
        <ele>65.1</ele>
        <time>2025-02-11T13:36:20Z</time>
      </trkpt>
      <trkpt lat="47.80473" lon="-2.45274">
        <ele>65.1</ele>
        <time>2025-02-11T13:36:21Z</time>
      </trkpt>
      <trkpt lat="47.80473" lon="-2.45273">
        <ele>65</ele>
        <time>2025-02-11T13:36:22Z</time>
      </trkpt>
      <trkpt lat="47.80472" lon="-2.45271">
        <ele>65</ele>
        <time>2025-02-11T13:36:23Z</time>
      </trkpt>
      <trkpt lat="47.80472" lon="-2.4527">
        <ele>65</ele>
        <time>2025-02-11T13:36:24Z</time>
      </trkpt>
      <trkpt lat="47.80471" lon="-2.45268">
        <ele>65</ele>
        <time>2025-02-11T13:36:25Z</time>
      </trkpt>
      <trkpt lat="47.80471" lon="-2.45267">
        <ele>65.1</ele>
        <time>2025-02-11T13:36:26Z</time>
      </trkpt>
      <trkpt lat="47.80471" lon="-2.45265">
        <ele>65.1</ele>
        <time>2025-02-11T13:36:27Z</time>
      </trkpt>
      <trkpt lat="47.8047" lon="-2.45264">
        <ele>65.1</ele>
        <time>2025-02-11T13:36:28Z</time>
      </trkpt>
      <trkpt lat="47.8047" lon="-2.45262">
        <ele>65.1</ele>
        <time>2025-02-11T13:36:29Z</time>
      </trkpt>
      <trkpt lat="47.8047" lon="-2.4526">
        <ele>65.1</ele>
        <time>2025-02-11T13:36:30Z</time>
      </trkpt>
      <trkpt lat="47.8047" lon="-2.45259">
        <ele>65.1</ele>
        <time>2025-02-11T13:36:31Z</time>
      </trkpt>
      <trkpt lat="47.8047" lon="-2.45257">
        <ele>65.1</ele>
        <time>2025-02-11T13:36:32Z</time>
      </trkpt>
      <trkpt lat="47.80469" lon="-2.45255">
        <ele>65.1</ele>
        <time>2025-02-11T13:36:33Z</time>
      </trkpt>
      <trkpt lat="47.80469" lon="-2.45254">
        <ele>65.1</ele>
        <time>2025-02-11T13:36:34Z</time>
      </trkpt>
      <trkpt lat="47.80468" lon="-2.45252">
        <ele>65.2</ele>
        <time>2025-02-11T13:36:35Z</time>
      </trkpt>
      <trkpt lat="47.80468" lon="-2.45251">
        <ele>65.2</ele>
        <time>2025-02-11T13:36:36Z</time>
      </trkpt>
      <trkpt lat="47.80467" lon="-2.45249">
        <ele>65.1</ele>
        <time>2025-02-11T13:36:37Z</time>
      </trkpt>
      <trkpt lat="47.80467" lon="-2.45247">
        <ele>65.1</ele>
        <time>2025-02-11T13:36:38Z</time>
      </trkpt>
      <trkpt lat="47.80467" lon="-2.45245">
        <ele>65</ele>
        <time>2025-02-11T13:36:39Z</time>
      </trkpt>
      <trkpt lat="47.80467" lon="-2.45244">
        <ele>65</ele>
        <time>2025-02-11T13:36:40Z</time>
      </trkpt>
      <trkpt lat="47.80468" lon="-2.45245">
        <ele>65</ele>
        <time>2025-02-11T13:36:41Z</time>
      </trkpt>
      <trkpt lat="47.80468" lon="-2.45245">
        <ele>65</ele>
        <time>2025-02-11T13:36:42Z</time>
      </trkpt>
      <trkpt lat="47.80468" lon="-2.45245">
        <ele>65</ele>
        <time>2025-02-11T13:36:43Z</time>
      </trkpt>
      <trkpt lat="47.80468" lon="-2.45245">
        <ele>65</ele>
        <time>2025-02-11T13:36:44Z</time>
      </trkpt>
      <trkpt lat="47.80468" lon="-2.45245">
        <ele>65</ele>
        <time>2025-02-11T13:36:45Z</time>
      </trkpt>
      <trkpt lat="47.80468" lon="-2.45246">
        <ele>65</ele>
        <time>2025-02-11T13:36:46Z</time>
      </trkpt>
      <trkpt lat="47.80468" lon="-2.45246">
        <ele>65</ele>
        <time>2025-02-11T13:36:47Z</time>
      </trkpt>
      <trkpt lat="47.80468" lon="-2.45246">
        <ele>65</ele>
        <time>2025-02-11T13:36:48Z</time>
      </trkpt>
      <trkpt lat="47.80468" lon="-2.45246">
        <ele>65</ele>
        <time>2025-02-11T13:36:49Z</time>
      </trkpt>
      <trkpt lat="47.80468" lon="-2.45247">
        <ele>65</ele>
        <time>2025-02-11T13:36:50Z</time>
      </trkpt>
      <trkpt lat="47.80469" lon="-2.45247">
        <ele>65</ele>
        <time>2025-02-11T13:36:51Z</time>
      </trkpt>
      <trkpt lat="47.80469" lon="-2.45247">
        <ele>65</ele>
        <time>2025-02-11T13:36:52Z</time>
      </trkpt>
      <trkpt lat="47.80469" lon="-2.45247">
        <ele>65</ele>
        <time>2025-02-11T13:36:53Z</time>
      </trkpt>
      <trkpt lat="47.80469" lon="-2.45247">
        <ele>65</ele>
        <time>2025-02-11T13:36:54Z</time>
      </trkpt>
      <trkpt lat="47.80469" lon="-2.45247">
        <ele>65</ele>
        <time>2025-02-11T13:36:55Z</time>
      </trkpt>
      <trkpt lat="47.80469" lon="-2.45247">
        <ele>65</ele>
        <time>2025-02-11T13:36:56Z</time>
      </trkpt>
      <trkpt lat="47.80469" lon="-2.45247">
        <ele>65</ele>
        <time>2025-02-11T13:36:57Z</time>
      </trkpt>
      <trkpt lat="47.80469" lon="-2.45247">
        <ele>65</ele>
        <time>2025-02-11T13:36:58Z</time>
      </trkpt>
      <trkpt lat="47.80469" lon="-2.45247">
        <ele>65</ele>
        <time>2025-02-11T13:36:59Z</time>
      </trkpt>
      <trkpt lat="47.80469" lon="-2.45247">
        <ele>65</ele>
        <time>2025-02-11T13:37:00Z</time>
      </trkpt>
      <trkpt lat="47.80469" lon="-2.45247">
        <ele>65</ele>
        <time>2025-02-11T13:37:01Z</time>
      </trkpt>
      <trkpt lat="47.80469" lon="-2.45247">
        <ele>65</ele>
        <time>2025-02-11T13:37:02Z</time>
      </trkpt>
      <trkpt lat="47.80469" lon="-2.45249">
        <ele>65.1</ele>
        <time>2025-02-11T13:37:03Z</time>
      </trkpt>
      <trkpt lat="47.80469" lon="-2.4525">
        <ele>65.1</ele>
        <time>2025-02-11T13:37:04Z</time>
      </trkpt>
      <trkpt lat="47.80471" lon="-2.45249">
        <ele>65</ele>
        <time>2025-02-11T13:37:05Z</time>
      </trkpt>
      <trkpt lat="47.80472" lon="-2.45249">
        <ele>65</ele>
        <time>2025-02-11T13:37:06Z</time>
      </trkpt>
      <trkpt lat="47.80472" lon="-2.45251">
        <ele>65</ele>
        <time>2025-02-11T13:37:07Z</time>
      </trkpt>
      <trkpt lat="47.80472" lon="-2.45253">
        <ele>65</ele>
        <time>2025-02-11T13:37:08Z</time>
      </trkpt>
      <trkpt lat="47.80472" lon="-2.45255">
        <ele>65</ele>
        <time>2025-02-11T13:37:09Z</time>
      </trkpt>
      <trkpt lat="47.80471" lon="-2.45256">
        <ele>65.1</ele>
        <time>2025-02-11T13:37:10Z</time>
      </trkpt>
      <trkpt lat="47.8047" lon="-2.45257">
        <ele>65.1</ele>
        <time>2025-02-11T13:37:11Z</time>
      </trkpt>
      <trkpt lat="47.80469" lon="-2.45258">
        <ele>65.1</ele>
        <time>2025-02-11T13:37:12Z</time>
      </trkpt>
      <trkpt lat="47.80469" lon="-2.45258">
        <ele>65.1</ele>
        <time>2025-02-11T13:37:13Z</time>
      </trkpt>
      <trkpt lat="47.80469" lon="-2.45258">
        <ele>65.1</ele>
        <time>2025-02-11T13:37:14Z</time>
      </trkpt>
      <trkpt lat="47.80469" lon="-2.45258">
        <ele>65.2</ele>
        <time>2025-02-11T13:37:15Z</time>
      </trkpt>
      <trkpt lat="47.80469" lon="-2.45258">
        <ele>65.1</ele>
        <time>2025-02-11T13:37:16Z</time>
      </trkpt>
      <trkpt lat="47.80469" lon="-2.4526">
        <ele>65.2</ele>
        <time>2025-02-11T13:37:17Z</time>
      </trkpt>
      <trkpt lat="47.80469" lon="-2.45261">
        <ele>65.2</ele>
        <time>2025-02-11T13:37:18Z</time>
      </trkpt>
      <trkpt lat="47.80469" lon="-2.45262">
        <ele>65.2</ele>
        <time>2025-02-11T13:37:19Z</time>
      </trkpt>
      <trkpt lat="47.80469" lon="-2.45263">
        <ele>65.2</ele>
        <time>2025-02-11T13:37:20Z</time>
      </trkpt>
      <trkpt lat="47.80469" lon="-2.45263">
        <ele>65.2</ele>
        <time>2025-02-11T13:37:21Z</time>
      </trkpt>
      <trkpt lat="47.80468" lon="-2.45263">
        <ele>65.2</ele>
        <time>2025-02-11T13:37:22Z</time>
      </trkpt>
      <trkpt lat="47.80468" lon="-2.45263">
        <ele>65.2</ele>
        <time>2025-02-11T13:37:23Z</time>
      </trkpt>
      <trkpt lat="47.80468" lon="-2.45264">
        <ele>65.2</ele>
        <time>2025-02-11T13:37:24Z</time>
      </trkpt>
      <trkpt lat="47.80468" lon="-2.45266">
        <ele>65.2</ele>
        <time>2025-02-11T13:37:25Z</time>
      </trkpt>
      <trkpt lat="47.80468" lon="-2.45267">
        <ele>65.2</ele>
        <time>2025-02-11T13:37:26Z</time>
      </trkpt>
      <trkpt lat="47.80468" lon="-2.45269">
        <ele>65.2</ele>
        <time>2025-02-11T13:37:27Z</time>
      </trkpt>
      <trkpt lat="47.80469" lon="-2.45271">
        <ele>65.2</ele>
        <time>2025-02-11T13:37:28Z</time>
      </trkpt>
      <trkpt lat="47.80469" lon="-2.45272">
        <ele>65.2</ele>
        <time>2025-02-11T13:37:29Z</time>
      </trkpt>
      <trkpt lat="47.8047" lon="-2.45273">
        <ele>65.2</ele>
        <time>2025-02-11T13:37:30Z</time>
      </trkpt>
      <trkpt lat="47.8047" lon="-2.45274">
        <ele>65.2</ele>
        <time>2025-02-11T13:37:31Z</time>
      </trkpt>
      <trkpt lat="47.8047" lon="-2.45276">
        <ele>65.2</ele>
        <time>2025-02-11T13:37:32Z</time>
      </trkpt>
      <trkpt lat="47.80469" lon="-2.45278">
        <ele>65.2</ele>
        <time>2025-02-11T13:37:33Z</time>
      </trkpt>
      <trkpt lat="47.80469" lon="-2.45278">
        <ele>65.2</ele>
        <time>2025-02-11T13:37:34Z</time>
      </trkpt>
      <trkpt lat="47.80468" lon="-2.45278">
        <ele>65.3</ele>
        <time>2025-02-11T13:37:35Z</time>
      </trkpt>
      <trkpt lat="47.80468" lon="-2.45278">
        <ele>65.3</ele>
        <time>2025-02-11T13:37:36Z</time>
      </trkpt>
      <trkpt lat="47.80467" lon="-2.45277">
        <ele>65.4</ele>
        <time>2025-02-11T13:37:37Z</time>
      </trkpt>
      <trkpt lat="47.80466" lon="-2.45276">
        <ele>65.5</ele>
        <time>2025-02-11T13:37:38Z</time>
      </trkpt>
      <trkpt lat="47.80465" lon="-2.45276">
        <ele>65.5</ele>
        <time>2025-02-11T13:37:39Z</time>
      </trkpt>
      <trkpt lat="47.80463" lon="-2.45276">
        <ele>65.6</ele>
        <time>2025-02-11T13:37:40Z</time>
      </trkpt>
      <trkpt lat="47.80462" lon="-2.45276">
        <ele>65.7</ele>
        <time>2025-02-11T13:37:41Z</time>
      </trkpt>
      <trkpt lat="47.80461" lon="-2.45276">
        <ele>65.8</ele>
        <time>2025-02-11T13:37:42Z</time>
      </trkpt>
      <trkpt lat="47.80461" lon="-2.45277">
        <ele>65.8</ele>
        <time>2025-02-11T13:37:43Z</time>
      </trkpt>
      <trkpt lat="47.8046" lon="-2.45278">
        <ele>65.9</ele>
        <time>2025-02-11T13:37:44Z</time>
      </trkpt>
      <trkpt lat="47.80459" lon="-2.45278">
        <ele>66</ele>
        <time>2025-02-11T13:37:45Z</time>
      </trkpt>
      <trkpt lat="47.80458" lon="-2.45278">
        <ele>66</ele>
        <time>2025-02-11T13:37:46Z</time>
      </trkpt>
      <trkpt lat="47.80457" lon="-2.45279">
        <ele>66.1</ele>
        <time>2025-02-11T13:37:47Z</time>
      </trkpt>
      <trkpt lat="47.80457" lon="-2.4528">
        <ele>66.2</ele>
        <time>2025-02-11T13:37:48Z</time>
      </trkpt>
      <trkpt lat="47.80456" lon="-2.45281">
        <ele>66.2</ele>
        <time>2025-02-11T13:37:49Z</time>
      </trkpt>
      <trkpt lat="47.80456" lon="-2.45282">
        <ele>66.2</ele>
        <time>2025-02-11T13:37:50Z</time>
      </trkpt>
      <trkpt lat="47.80456" lon="-2.45284">
        <ele>66.3</ele>
        <time>2025-02-11T13:37:51Z</time>
      </trkpt>
      <trkpt lat="47.80455" lon="-2.45284">
        <ele>66.4</ele>
        <time>2025-02-11T13:37:52Z</time>
      </trkpt>
      <trkpt lat="47.80455" lon="-2.45285">
        <ele>66.4</ele>
        <time>2025-02-11T13:37:53Z</time>
      </trkpt>
      <trkpt lat="47.80454" lon="-2.45285">
        <ele>66.5</ele>
        <time>2025-02-11T13:37:54Z</time>
      </trkpt>
      <trkpt lat="47.80454" lon="-2.45286">
        <ele>66.6</ele>
        <time>2025-02-11T13:37:55Z</time>
      </trkpt>
      <trkpt lat="47.80453" lon="-2.45287">
        <ele>66.6</ele>
        <time>2025-02-11T13:37:56Z</time>
      </trkpt>
      <trkpt lat="47.80452" lon="-2.45288">
        <ele>66.7</ele>
        <time>2025-02-11T13:37:57Z</time>
      </trkpt>
      <trkpt lat="47.80451" lon="-2.45289">
        <ele>66.8</ele>
        <time>2025-02-11T13:37:58Z</time>
      </trkpt>
      <trkpt lat="47.80451" lon="-2.45289">
        <ele>66.9</ele>
        <time>2025-02-11T13:37:59Z</time>
      </trkpt>
      <trkpt lat="47.8045" lon="-2.4529">
        <ele>66.9</ele>
        <time>2025-02-11T13:38:00Z</time>
      </trkpt>
      <trkpt lat="47.8045" lon="-2.45291">
        <ele>67</ele>
        <time>2025-02-11T13:38:01Z</time>
      </trkpt>
      <trkpt lat="47.8045" lon="-2.45291">
        <ele>67</ele>
        <time>2025-02-11T13:38:02Z</time>
      </trkpt>
      <trkpt lat="47.8045" lon="-2.45292">
        <ele>67</ele>
        <time>2025-02-11T13:38:03Z</time>
      </trkpt>
      <trkpt lat="47.80449" lon="-2.45293">
        <ele>67.1</ele>
        <time>2025-02-11T13:38:04Z</time>
      </trkpt>
      <trkpt lat="47.80449" lon="-2.45295">
        <ele>67.2</ele>
        <time>2025-02-11T13:38:05Z</time>
      </trkpt>
      <trkpt lat="47.80448" lon="-2.45296">
        <ele>67.3</ele>
        <time>2025-02-11T13:38:06Z</time>
      </trkpt>
      <trkpt lat="47.80447" lon="-2.45297">
        <ele>67.4</ele>
        <time>2025-02-11T13:38:07Z</time>
      </trkpt>
      <trkpt lat="47.80447" lon="-2.45298">
        <ele>67.5</ele>
        <time>2025-02-11T13:38:08Z</time>
      </trkpt>
      <trkpt lat="47.80446" lon="-2.45298">
        <ele>67.5</ele>
        <time>2025-02-11T13:38:09Z</time>
      </trkpt>
      <trkpt lat="47.80446" lon="-2.45299">
        <ele>67.6</ele>
        <time>2025-02-11T13:38:10Z</time>
      </trkpt>
      <trkpt lat="47.80446" lon="-2.453">
        <ele>67.7</ele>
        <time>2025-02-11T13:38:11Z</time>
      </trkpt>
      <trkpt lat="47.80445" lon="-2.45301">
        <ele>67.7</ele>
        <time>2025-02-11T13:38:12Z</time>
      </trkpt>
      <trkpt lat="47.80445" lon="-2.45302">
        <ele>67.8</ele>
        <time>2025-02-11T13:38:13Z</time>
      </trkpt>
      <trkpt lat="47.80444" lon="-2.45303">
        <ele>67.9</ele>
        <time>2025-02-11T13:38:14Z</time>
      </trkpt>
      <trkpt lat="47.80444" lon="-2.45304">
        <ele>68</ele>
        <time>2025-02-11T13:38:15Z</time>
      </trkpt>
      <trkpt lat="47.80443" lon="-2.45304">
        <ele>68.1</ele>
        <time>2025-02-11T13:38:16Z</time>
      </trkpt>
      <trkpt lat="47.80442" lon="-2.45305">
        <ele>68.2</ele>
        <time>2025-02-11T13:38:17Z</time>
      </trkpt>
      <trkpt lat="47.80441" lon="-2.45305">
        <ele>68.3</ele>
        <time>2025-02-11T13:38:18Z</time>
      </trkpt>
      <trkpt lat="47.8044" lon="-2.45305">
        <ele>68.4</ele>
        <time>2025-02-11T13:38:19Z</time>
      </trkpt>
      <trkpt lat="47.80442" lon="-2.45303">
        <ele>68.2</ele>
        <time>2025-02-11T13:38:20Z</time>
      </trkpt>
      <trkpt lat="47.80442" lon="-2.45303">
        <ele>68.2</ele>
        <time>2025-02-11T13:38:21Z</time>
      </trkpt>
      <trkpt lat="47.80442" lon="-2.45303">
        <ele>68.1</ele>
        <time>2025-02-11T13:38:22Z</time>
      </trkpt>
      <trkpt lat="47.80441" lon="-2.45302">
        <ele>68.3</ele>
        <time>2025-02-11T13:38:23Z</time>
      </trkpt>
      <trkpt lat="47.8044" lon="-2.45302">
        <ele>68.4</ele>
        <time>2025-02-11T13:38:24Z</time>
      </trkpt>
      <trkpt lat="47.80439" lon="-2.45302">
        <ele>68.5</ele>
        <time>2025-02-11T13:38:25Z</time>
      </trkpt>
      <trkpt lat="47.80437" lon="-2.45301">
        <ele>68.6</ele>
        <time>2025-02-11T13:38:26Z</time>
      </trkpt>
      <trkpt lat="47.80436" lon="-2.45302">
        <ele>68.7</ele>
        <time>2025-02-11T13:38:27Z</time>
      </trkpt>
      <trkpt lat="47.80435" lon="-2.45302">
        <ele>68.9</ele>
        <time>2025-02-11T13:38:28Z</time>
      </trkpt>
      <trkpt lat="47.80434" lon="-2.45302">
        <ele>69</ele>
        <time>2025-02-11T13:38:29Z</time>
      </trkpt>
      <trkpt lat="47.80434" lon="-2.45302">
        <ele>69</ele>
        <time>2025-02-11T13:38:30Z</time>
      </trkpt>
      <trkpt lat="47.80433" lon="-2.45301">
        <ele>69.1</ele>
        <time>2025-02-11T13:38:31Z</time>
      </trkpt>
      <trkpt lat="47.80432" lon="-2.45301">
        <ele>69.2</ele>
        <time>2025-02-11T13:38:32Z</time>
      </trkpt>
      <trkpt lat="47.80431" lon="-2.453">
        <ele>69.2</ele>
        <time>2025-02-11T13:38:33Z</time>
      </trkpt>
      <trkpt lat="47.8043" lon="-2.453">
        <ele>69.3</ele>
        <time>2025-02-11T13:38:34Z</time>
      </trkpt>
      <trkpt lat="47.8043" lon="-2.45299">
        <ele>69.4</ele>
        <time>2025-02-11T13:38:35Z</time>
      </trkpt>
      <trkpt lat="47.80429" lon="-2.45299">
        <ele>69.4</ele>
        <time>2025-02-11T13:38:36Z</time>
      </trkpt>
      <trkpt lat="47.80428" lon="-2.45298">
        <ele>69.5</ele>
        <time>2025-02-11T13:38:37Z</time>
      </trkpt>
      <trkpt lat="47.80427" lon="-2.45298">
        <ele>69.6</ele>
        <time>2025-02-11T13:38:38Z</time>
      </trkpt>
      <trkpt lat="47.80426" lon="-2.45298">
        <ele>69.7</ele>
        <time>2025-02-11T13:38:39Z</time>
      </trkpt>
      <trkpt lat="47.80425" lon="-2.45298">
        <ele>69.9</ele>
        <time>2025-02-11T13:38:40Z</time>
      </trkpt>
      <trkpt lat="47.80424" lon="-2.45298">
        <ele>70</ele>
        <time>2025-02-11T13:38:41Z</time>
      </trkpt>
      <trkpt lat="47.80423" lon="-2.45297">
        <ele>70</ele>
        <time>2025-02-11T13:38:42Z</time>
      </trkpt>
      <trkpt lat="47.80422" lon="-2.45297">
        <ele>70.1</ele>
        <time>2025-02-11T13:38:43Z</time>
      </trkpt>
      <trkpt lat="47.80421" lon="-2.45297">
        <ele>70.2</ele>
        <time>2025-02-11T13:38:44Z</time>
      </trkpt>
      <trkpt lat="47.8042" lon="-2.45296">
        <ele>70.3</ele>
        <time>2025-02-11T13:38:45Z</time>
      </trkpt>
      <trkpt lat="47.80419" lon="-2.45296">
        <ele>70.4</ele>
        <time>2025-02-11T13:38:46Z</time>
      </trkpt>
      <trkpt lat="47.80418" lon="-2.45296">
        <ele>70.5</ele>
        <time>2025-02-11T13:38:47Z</time>
      </trkpt>
      <trkpt lat="47.80416" lon="-2.45295">
        <ele>70.6</ele>
        <time>2025-02-11T13:38:48Z</time>
      </trkpt>
      <trkpt lat="47.80415" lon="-2.45294">
        <ele>70.6</ele>
        <time>2025-02-11T13:38:49Z</time>
      </trkpt>
      <trkpt lat="47.80414" lon="-2.45293">
        <ele>70.6</ele>
        <time>2025-02-11T13:38:50Z</time>
      </trkpt>
      <trkpt lat="47.80413" lon="-2.45293">
        <ele>70.6</ele>
        <time>2025-02-11T13:38:51Z</time>
      </trkpt>
      <trkpt lat="47.80412" lon="-2.45293">
        <ele>70.6</ele>
        <time>2025-02-11T13:38:52Z</time>
      </trkpt>
      <trkpt lat="47.80411" lon="-2.45292">
        <ele>70.6</ele>
        <time>2025-02-11T13:38:53Z</time>
      </trkpt>
      <trkpt lat="47.8041" lon="-2.45292">
        <ele>70.6</ele>
        <time>2025-02-11T13:38:54Z</time>
      </trkpt>
      <trkpt lat="47.80409" lon="-2.45292">
        <ele>70.6</ele>
        <time>2025-02-11T13:38:55Z</time>
      </trkpt>
      <trkpt lat="47.80408" lon="-2.45291">
        <ele>70.6</ele>
        <time>2025-02-11T13:38:56Z</time>
      </trkpt>
      <trkpt lat="47.80407" lon="-2.45291">
        <ele>70.6</ele>
        <time>2025-02-11T13:38:57Z</time>
      </trkpt>
      <trkpt lat="47.80406" lon="-2.4529">
        <ele>70.6</ele>
        <time>2025-02-11T13:38:58Z</time>
      </trkpt>
      <trkpt lat="47.80405" lon="-2.4529">
        <ele>70.6</ele>
        <time>2025-02-11T13:38:59Z</time>
      </trkpt>
      <trkpt lat="47.80404" lon="-2.45289">
        <ele>70.6</ele>
        <time>2025-02-11T13:39:00Z</time>
      </trkpt>
      <trkpt lat="47.80403" lon="-2.45289">
        <ele>70.6</ele>
        <time>2025-02-11T13:39:01Z</time>
      </trkpt>
      <trkpt lat="47.80402" lon="-2.45289">
        <ele>70.6</ele>
        <time>2025-02-11T13:39:02Z</time>
      </trkpt>
      <trkpt lat="47.80401" lon="-2.45288">
        <ele>70.6</ele>
        <time>2025-02-11T13:39:03Z</time>
      </trkpt>
      <trkpt lat="47.80401" lon="-2.45288">
        <ele>70.6</ele>
        <time>2025-02-11T13:39:04Z</time>
      </trkpt>
      <trkpt lat="47.80399" lon="-2.45288">
        <ele>70.6</ele>
        <time>2025-02-11T13:39:05Z</time>
      </trkpt>
      <trkpt lat="47.80398" lon="-2.45287">
        <ele>70.6</ele>
        <time>2025-02-11T13:39:06Z</time>
      </trkpt>
      <trkpt lat="47.80397" lon="-2.45286">
        <ele>70.5</ele>
        <time>2025-02-11T13:39:07Z</time>
      </trkpt>
      <trkpt lat="47.80396" lon="-2.45286">
        <ele>70.5</ele>
        <time>2025-02-11T13:39:08Z</time>
      </trkpt>
      <trkpt lat="47.80395" lon="-2.45286">
        <ele>70.5</ele>
        <time>2025-02-11T13:39:09Z</time>
      </trkpt>
      <trkpt lat="47.80394" lon="-2.45285">
        <ele>70.5</ele>
        <time>2025-02-11T13:39:10Z</time>
      </trkpt>
      <trkpt lat="47.80393" lon="-2.45285">
        <ele>70.5</ele>
        <time>2025-02-11T13:39:11Z</time>
      </trkpt>
      <trkpt lat="47.80393" lon="-2.45285">
        <ele>70.5</ele>
        <time>2025-02-11T13:39:12Z</time>
      </trkpt>
      <trkpt lat="47.80392" lon="-2.45285">
        <ele>70.5</ele>
        <time>2025-02-11T13:39:13Z</time>
      </trkpt>
      <trkpt lat="47.80392" lon="-2.45285">
        <ele>70.5</ele>
        <time>2025-02-11T13:39:14Z</time>
      </trkpt>
      <trkpt lat="47.80391" lon="-2.45285">
        <ele>70.5</ele>
        <time>2025-02-11T13:39:15Z</time>
      </trkpt>
      <trkpt lat="47.80389" lon="-2.45284">
        <ele>70.4</ele>
        <time>2025-02-11T13:39:16Z</time>
      </trkpt>
      <trkpt lat="47.80388" lon="-2.45283">
        <ele>70.4</ele>
        <time>2025-02-11T13:39:17Z</time>
      </trkpt>
      <trkpt lat="47.80387" lon="-2.45283">
        <ele>70.4</ele>
        <time>2025-02-11T13:39:18Z</time>
      </trkpt>
      <trkpt lat="47.80386" lon="-2.45283">
        <ele>70.5</ele>
        <time>2025-02-11T13:39:19Z</time>
      </trkpt>
      <trkpt lat="47.80384" lon="-2.45282">
        <ele>70.4</ele>
        <time>2025-02-11T13:39:20Z</time>
      </trkpt>
      <trkpt lat="47.80383" lon="-2.45282">
        <ele>70.4</ele>
        <time>2025-02-11T13:39:21Z</time>
      </trkpt>
      <trkpt lat="47.80382" lon="-2.45281">
        <ele>70.5</ele>
        <time>2025-02-11T13:39:22Z</time>
      </trkpt>
      <trkpt lat="47.80381" lon="-2.45281">
        <ele>70.5</ele>
        <time>2025-02-11T13:39:23Z</time>
      </trkpt>
      <trkpt lat="47.8038" lon="-2.45281">
        <ele>70.5</ele>
        <time>2025-02-11T13:39:24Z</time>
      </trkpt>
      <trkpt lat="47.80379" lon="-2.4528">
        <ele>70.5</ele>
        <time>2025-02-11T13:39:25Z</time>
      </trkpt>
      <trkpt lat="47.80379" lon="-2.45279">
        <ele>70.4</ele>
        <time>2025-02-11T13:39:26Z</time>
      </trkpt>
      <trkpt lat="47.80378" lon="-2.45279">
        <ele>70.5</ele>
        <time>2025-02-11T13:39:27Z</time>
      </trkpt>
      <trkpt lat="47.80376" lon="-2.45279">
        <ele>70.5</ele>
        <time>2025-02-11T13:39:28Z</time>
      </trkpt>
      <trkpt lat="47.80376" lon="-2.45278">
        <ele>70.5</ele>
        <time>2025-02-11T13:39:29Z</time>
      </trkpt>
      <trkpt lat="47.80374" lon="-2.45278">
        <ele>70.5</ele>
        <time>2025-02-11T13:39:30Z</time>
      </trkpt>
      <trkpt lat="47.80373" lon="-2.45278">
        <ele>70.6</ele>
        <time>2025-02-11T13:39:31Z</time>
      </trkpt>
      <trkpt lat="47.80372" lon="-2.45278">
        <ele>70.6</ele>
        <time>2025-02-11T13:39:32Z</time>
      </trkpt>
      <trkpt lat="47.80372" lon="-2.45277">
        <ele>70.6</ele>
        <time>2025-02-11T13:39:33Z</time>
      </trkpt>
      <trkpt lat="47.80371" lon="-2.45277">
        <ele>70.6</ele>
        <time>2025-02-11T13:39:34Z</time>
      </trkpt>
      <trkpt lat="47.8037" lon="-2.45277">
        <ele>70.6</ele>
        <time>2025-02-11T13:39:35Z</time>
      </trkpt>
      <trkpt lat="47.80369" lon="-2.45277">
        <ele>70.7</ele>
        <time>2025-02-11T13:39:36Z</time>
      </trkpt>
      <trkpt lat="47.80368" lon="-2.45277">
        <ele>70.7</ele>
        <time>2025-02-11T13:39:37Z</time>
      </trkpt>
      <trkpt lat="47.80367" lon="-2.45276">
        <ele>70.7</ele>
        <time>2025-02-11T13:39:38Z</time>
      </trkpt>
      <trkpt lat="47.80366" lon="-2.45276">
        <ele>70.7</ele>
        <time>2025-02-11T13:39:39Z</time>
      </trkpt>
      <trkpt lat="47.80365" lon="-2.45275">
        <ele>70.7</ele>
        <time>2025-02-11T13:39:40Z</time>
      </trkpt>
      <trkpt lat="47.80364" lon="-2.45275">
        <ele>70.7</ele>
        <time>2025-02-11T13:39:41Z</time>
      </trkpt>
      <trkpt lat="47.80363" lon="-2.45274">
        <ele>70.7</ele>
        <time>2025-02-11T13:39:42Z</time>
      </trkpt>
      <trkpt lat="47.80362" lon="-2.45274">
        <ele>70.7</ele>
        <time>2025-02-11T13:39:43Z</time>
      </trkpt>
      <trkpt lat="47.80361" lon="-2.45273">
        <ele>70.6</ele>
        <time>2025-02-11T13:39:44Z</time>
      </trkpt>
      <trkpt lat="47.80361" lon="-2.45272">
        <ele>70.6</ele>
        <time>2025-02-11T13:39:45Z</time>
      </trkpt>
      <trkpt lat="47.8036" lon="-2.45272">
        <ele>70.6</ele>
        <time>2025-02-11T13:39:46Z</time>
      </trkpt>
      <trkpt lat="47.80358" lon="-2.45272">
        <ele>70.6</ele>
        <time>2025-02-11T13:39:47Z</time>
      </trkpt>
      <trkpt lat="47.80357" lon="-2.45272">
        <ele>70.6</ele>
        <time>2025-02-11T13:39:48Z</time>
      </trkpt>
      <trkpt lat="47.80356" lon="-2.45271">
        <ele>70.6</ele>
        <time>2025-02-11T13:39:49Z</time>
      </trkpt>
      <trkpt lat="47.80355" lon="-2.45271">
        <ele>70.5</ele>
        <time>2025-02-11T13:39:50Z</time>
      </trkpt>
      <trkpt lat="47.80354" lon="-2.4527">
        <ele>70.5</ele>
        <time>2025-02-11T13:39:51Z</time>
      </trkpt>
      <trkpt lat="47.80353" lon="-2.4527">
        <ele>70.5</ele>
        <time>2025-02-11T13:39:52Z</time>
      </trkpt>
      <trkpt lat="47.80352" lon="-2.45269">
        <ele>70.4</ele>
        <time>2025-02-11T13:39:53Z</time>
      </trkpt>
      <trkpt lat="47.80351" lon="-2.45268">
        <ele>70.4</ele>
        <time>2025-02-11T13:39:54Z</time>
      </trkpt>
      <trkpt lat="47.8035" lon="-2.45268">
        <ele>70.5</ele>
        <time>2025-02-11T13:39:55Z</time>
      </trkpt>
      <trkpt lat="47.80349" lon="-2.45268">
        <ele>70.4</ele>
        <time>2025-02-11T13:39:56Z</time>
      </trkpt>
      <trkpt lat="47.80348" lon="-2.45267">
        <ele>70.4</ele>
        <time>2025-02-11T13:39:57Z</time>
      </trkpt>
      <trkpt lat="47.80347" lon="-2.45267">
        <ele>70.4</ele>
        <time>2025-02-11T13:39:58Z</time>
      </trkpt>
      <trkpt lat="47.80346" lon="-2.45267">
        <ele>70.4</ele>
        <time>2025-02-11T13:39:59Z</time>
      </trkpt>
      <trkpt lat="47.80345" lon="-2.45266">
        <ele>70.4</ele>
        <time>2025-02-11T13:40:00Z</time>
      </trkpt>
      <trkpt lat="47.80344" lon="-2.45266">
        <ele>70.4</ele>
        <time>2025-02-11T13:40:01Z</time>
      </trkpt>
      <trkpt lat="47.80343" lon="-2.45266">
        <ele>70.4</ele>
        <time>2025-02-11T13:40:02Z</time>
      </trkpt>
      <trkpt lat="47.80342" lon="-2.45265">
        <ele>70.4</ele>
        <time>2025-02-11T13:40:03Z</time>
      </trkpt>
      <trkpt lat="47.80341" lon="-2.45265">
        <ele>70.4</ele>
        <time>2025-02-11T13:40:04Z</time>
      </trkpt>
      <trkpt lat="47.8034" lon="-2.45264">
        <ele>70.4</ele>
        <time>2025-02-11T13:40:05Z</time>
      </trkpt>
      <trkpt lat="47.80339" lon="-2.45265">
        <ele>70.4</ele>
        <time>2025-02-11T13:40:06Z</time>
      </trkpt>
      <trkpt lat="47.80338" lon="-2.45264">
        <ele>70.4</ele>
        <time>2025-02-11T13:40:07Z</time>
      </trkpt>
      <trkpt lat="47.80337" lon="-2.45264">
        <ele>70.4</ele>
        <time>2025-02-11T13:40:08Z</time>
      </trkpt>
      <trkpt lat="47.80336" lon="-2.45264">
        <ele>70.4</ele>
        <time>2025-02-11T13:40:09Z</time>
      </trkpt>
      <trkpt lat="47.80334" lon="-2.45264">
        <ele>70.5</ele>
        <time>2025-02-11T13:40:10Z</time>
      </trkpt>
      <trkpt lat="47.80333" lon="-2.45263">
        <ele>70.5</ele>
        <time>2025-02-11T13:40:11Z</time>
      </trkpt>
      <trkpt lat="47.80332" lon="-2.45263">
        <ele>70.5</ele>
        <time>2025-02-11T13:40:12Z</time>
      </trkpt>
      <trkpt lat="47.80331" lon="-2.45263">
        <ele>70.5</ele>
        <time>2025-02-11T13:40:13Z</time>
      </trkpt>
      <trkpt lat="47.8033" lon="-2.45263">
        <ele>70.5</ele>
        <time>2025-02-11T13:40:14Z</time>
      </trkpt>
      <trkpt lat="47.8033" lon="-2.45263">
        <ele>70.5</ele>
        <time>2025-02-11T13:40:15Z</time>
      </trkpt>
      <trkpt lat="47.80329" lon="-2.45262">
        <ele>70.4</ele>
        <time>2025-02-11T13:40:16Z</time>
      </trkpt>
      <trkpt lat="47.80328" lon="-2.45262">
        <ele>70.4</ele>
        <time>2025-02-11T13:40:17Z</time>
      </trkpt>
      <trkpt lat="47.80327" lon="-2.45262">
        <ele>70.4</ele>
        <time>2025-02-11T13:40:18Z</time>
      </trkpt>
      <trkpt lat="47.80326" lon="-2.45262">
        <ele>70.4</ele>
        <time>2025-02-11T13:40:19Z</time>
      </trkpt>
      <trkpt lat="47.80325" lon="-2.45261">
        <ele>70.4</ele>
        <time>2025-02-11T13:40:20Z</time>
      </trkpt>
      <trkpt lat="47.80323" lon="-2.45262">
        <ele>70.4</ele>
        <time>2025-02-11T13:40:21Z</time>
      </trkpt>
      <trkpt lat="47.80322" lon="-2.45262">
        <ele>70.4</ele>
        <time>2025-02-11T13:40:22Z</time>
      </trkpt>
      <trkpt lat="47.80322" lon="-2.45262">
        <ele>70.4</ele>
        <time>2025-02-11T13:40:23Z</time>
      </trkpt>
      <trkpt lat="47.8032" lon="-2.45261">
        <ele>70.4</ele>
        <time>2025-02-11T13:40:24Z</time>
      </trkpt>
      <trkpt lat="47.80319" lon="-2.45261">
        <ele>70.4</ele>
        <time>2025-02-11T13:40:25Z</time>
      </trkpt>
      <trkpt lat="47.80318" lon="-2.4526">
        <ele>70.4</ele>
        <time>2025-02-11T13:40:26Z</time>
      </trkpt>
      <trkpt lat="47.80317" lon="-2.4526">
        <ele>70.4</ele>
        <time>2025-02-11T13:40:27Z</time>
      </trkpt>
      <trkpt lat="47.80316" lon="-2.4526">
        <ele>70.3</ele>
        <time>2025-02-11T13:40:28Z</time>
      </trkpt>
      <trkpt lat="47.80315" lon="-2.4526">
        <ele>70.3</ele>
        <time>2025-02-11T13:40:29Z</time>
      </trkpt>
      <trkpt lat="47.80314" lon="-2.45259">
        <ele>70.3</ele>
        <time>2025-02-11T13:40:30Z</time>
      </trkpt>
      <trkpt lat="47.80314" lon="-2.4526">
        <ele>70.3</ele>
        <time>2025-02-11T13:40:31Z</time>
      </trkpt>
      <trkpt lat="47.80312" lon="-2.4526">
        <ele>70.3</ele>
        <time>2025-02-11T13:40:32Z</time>
      </trkpt>
      <trkpt lat="47.80311" lon="-2.4526">
        <ele>70.4</ele>
        <time>2025-02-11T13:40:33Z</time>
      </trkpt>
      <trkpt lat="47.8031" lon="-2.4526">
        <ele>70.4</ele>
        <time>2025-02-11T13:40:34Z</time>
      </trkpt>
      <trkpt lat="47.80309" lon="-2.45259">
        <ele>70.3</ele>
        <time>2025-02-11T13:40:35Z</time>
      </trkpt>
      <trkpt lat="47.80308" lon="-2.45259">
        <ele>70.3</ele>
        <time>2025-02-11T13:40:36Z</time>
      </trkpt>
      <trkpt lat="47.80306" lon="-2.45259">
        <ele>70.3</ele>
        <time>2025-02-11T13:40:37Z</time>
      </trkpt>
      <trkpt lat="47.80305" lon="-2.45259">
        <ele>70.3</ele>
        <time>2025-02-11T13:40:38Z</time>
      </trkpt>
      <trkpt lat="47.80304" lon="-2.45258">
        <ele>70.3</ele>
        <time>2025-02-11T13:40:39Z</time>
      </trkpt>
      <trkpt lat="47.80303" lon="-2.45258">
        <ele>70.3</ele>
        <time>2025-02-11T13:40:40Z</time>
      </trkpt>
      <trkpt lat="47.80302" lon="-2.45257">
        <ele>70.3</ele>
        <time>2025-02-11T13:40:41Z</time>
      </trkpt>
      <trkpt lat="47.80301" lon="-2.45258">
        <ele>70.3</ele>
        <time>2025-02-11T13:40:42Z</time>
      </trkpt>
      <trkpt lat="47.803" lon="-2.45258">
        <ele>70.3</ele>
        <time>2025-02-11T13:40:43Z</time>
      </trkpt>
      <trkpt lat="47.80298" lon="-2.45258">
        <ele>70.3</ele>
        <time>2025-02-11T13:40:44Z</time>
      </trkpt>
      <trkpt lat="47.80297" lon="-2.45258">
        <ele>70.3</ele>
        <time>2025-02-11T13:40:45Z</time>
      </trkpt>
      <trkpt lat="47.80296" lon="-2.45258">
        <ele>70.3</ele>
        <time>2025-02-11T13:40:46Z</time>
      </trkpt>
      <trkpt lat="47.80295" lon="-2.45257">
        <ele>70.3</ele>
        <time>2025-02-11T13:40:47Z</time>
      </trkpt>
      <trkpt lat="47.80294" lon="-2.45257">
        <ele>70.2</ele>
        <time>2025-02-11T13:40:48Z</time>
      </trkpt>
      <trkpt lat="47.80293" lon="-2.45256">
        <ele>70.2</ele>
        <time>2025-02-11T13:40:49Z</time>
      </trkpt>
      <trkpt lat="47.80291" lon="-2.45256">
        <ele>70.2</ele>
        <time>2025-02-11T13:40:50Z</time>
      </trkpt>
      <trkpt lat="47.8029" lon="-2.45256">
        <ele>70.2</ele>
        <time>2025-02-11T13:40:51Z</time>
      </trkpt>
      <trkpt lat="47.80289" lon="-2.45257">
        <ele>70.2</ele>
        <time>2025-02-11T13:40:52Z</time>
      </trkpt>
      <trkpt lat="47.80288" lon="-2.45256">
        <ele>70.2</ele>
        <time>2025-02-11T13:40:53Z</time>
      </trkpt>
      <trkpt lat="47.80287" lon="-2.45256">
        <ele>70.2</ele>
        <time>2025-02-11T13:40:54Z</time>
      </trkpt>
      <trkpt lat="47.80286" lon="-2.45256">
        <ele>70.2</ele>
        <time>2025-02-11T13:40:55Z</time>
      </trkpt>
      <trkpt lat="47.80286" lon="-2.45256">
        <ele>70.2</ele>
        <time>2025-02-11T13:40:56Z</time>
      </trkpt>
      <trkpt lat="47.80285" lon="-2.45256">
        <ele>70.2</ele>
        <time>2025-02-11T13:40:57Z</time>
      </trkpt>
      <trkpt lat="47.80284" lon="-2.45256">
        <ele>70.2</ele>
        <time>2025-02-11T13:40:58Z</time>
      </trkpt>
      <trkpt lat="47.80283" lon="-2.45255">
        <ele>70.2</ele>
        <time>2025-02-11T13:40:59Z</time>
      </trkpt>
      <trkpt lat="47.80282" lon="-2.45255">
        <ele>70.2</ele>
        <time>2025-02-11T13:41:00Z</time>
      </trkpt>
      <trkpt lat="47.80281" lon="-2.45254">
        <ele>70.2</ele>
        <time>2025-02-11T13:41:01Z</time>
      </trkpt>
      <trkpt lat="47.8028" lon="-2.45254">
        <ele>70.1</ele>
        <time>2025-02-11T13:41:02Z</time>
      </trkpt>
      <trkpt lat="47.80279" lon="-2.45254">
        <ele>70.1</ele>
        <time>2025-02-11T13:41:03Z</time>
      </trkpt>
      <trkpt lat="47.80278" lon="-2.45254">
        <ele>70.1</ele>
        <time>2025-02-11T13:41:04Z</time>
      </trkpt>
      <trkpt lat="47.80277" lon="-2.45254">
        <ele>70.1</ele>
        <time>2025-02-11T13:41:05Z</time>
      </trkpt>
      <trkpt lat="47.80276" lon="-2.45254">
        <ele>70.1</ele>
        <time>2025-02-11T13:41:06Z</time>
      </trkpt>
      <trkpt lat="47.80275" lon="-2.45253">
        <ele>70.1</ele>
        <time>2025-02-11T13:41:07Z</time>
      </trkpt>
      <trkpt lat="47.80274" lon="-2.45252">
        <ele>70.1</ele>
        <time>2025-02-11T13:41:08Z</time>
      </trkpt>
      <trkpt lat="47.80273" lon="-2.45252">
        <ele>70.1</ele>
        <time>2025-02-11T13:41:09Z</time>
      </trkpt>
      <trkpt lat="47.80272" lon="-2.45252">
        <ele>70</ele>
        <time>2025-02-11T13:41:10Z</time>
      </trkpt>
      <trkpt lat="47.80271" lon="-2.45252">
        <ele>70</ele>
        <time>2025-02-11T13:41:11Z</time>
      </trkpt>
      <trkpt lat="47.8027" lon="-2.45252">
        <ele>70</ele>
        <time>2025-02-11T13:41:12Z</time>
      </trkpt>
      <trkpt lat="47.80268" lon="-2.45252">
        <ele>70</ele>
        <time>2025-02-11T13:41:13Z</time>
      </trkpt>
      <trkpt lat="47.80267" lon="-2.45252">
        <ele>70</ele>
        <time>2025-02-11T13:41:14Z</time>
      </trkpt>
      <trkpt lat="47.80266" lon="-2.45251">
        <ele>70</ele>
        <time>2025-02-11T13:41:15Z</time>
      </trkpt>
      <trkpt lat="47.80265" lon="-2.45251">
        <ele>70</ele>
        <time>2025-02-11T13:41:16Z</time>
      </trkpt>
      <trkpt lat="47.80264" lon="-2.45251">
        <ele>70</ele>
        <time>2025-02-11T13:41:17Z</time>
      </trkpt>
      <trkpt lat="47.80263" lon="-2.45251">
        <ele>70</ele>
        <time>2025-02-11T13:41:18Z</time>
      </trkpt>
      <trkpt lat="47.80262" lon="-2.45251">
        <ele>70</ele>
        <time>2025-02-11T13:41:19Z</time>
      </trkpt>
      <trkpt lat="47.80261" lon="-2.45251">
        <ele>70</ele>
        <time>2025-02-11T13:41:20Z</time>
      </trkpt>
      <trkpt lat="47.8026" lon="-2.45251">
        <ele>70</ele>
        <time>2025-02-11T13:41:21Z</time>
      </trkpt>
      <trkpt lat="47.80259" lon="-2.45251">
        <ele>70</ele>
        <time>2025-02-11T13:41:22Z</time>
      </trkpt>
      <trkpt lat="47.80258" lon="-2.45252">
        <ele>70</ele>
        <time>2025-02-11T13:41:23Z</time>
      </trkpt>
      <trkpt lat="47.80258" lon="-2.45251">
        <ele>70</ele>
        <time>2025-02-11T13:41:24Z</time>
      </trkpt>
      <trkpt lat="47.80256" lon="-2.45251">
        <ele>70</ele>
        <time>2025-02-11T13:41:25Z</time>
      </trkpt>
      <trkpt lat="47.80255" lon="-2.45251">
        <ele>70</ele>
        <time>2025-02-11T13:41:26Z</time>
      </trkpt>
      <trkpt lat="47.80254" lon="-2.45251">
        <ele>70</ele>
        <time>2025-02-11T13:41:27Z</time>
      </trkpt>
      <trkpt lat="47.80254" lon="-2.45251">
        <ele>70</ele>
        <time>2025-02-11T13:41:28Z</time>
      </trkpt>
      <trkpt lat="47.80253" lon="-2.45251">
        <ele>70</ele>
        <time>2025-02-11T13:41:29Z</time>
      </trkpt>
      <trkpt lat="47.80252" lon="-2.45251">
        <ele>70</ele>
        <time>2025-02-11T13:41:30Z</time>
      </trkpt>
      <trkpt lat="47.80251" lon="-2.45251">
        <ele>70</ele>
        <time>2025-02-11T13:41:31Z</time>
      </trkpt>
      <trkpt lat="47.8025" lon="-2.4525">
        <ele>70</ele>
        <time>2025-02-11T13:41:32Z</time>
      </trkpt>
      <trkpt lat="47.80249" lon="-2.4525">
        <ele>70</ele>
        <time>2025-02-11T13:41:33Z</time>
      </trkpt>
      <trkpt lat="47.80248" lon="-2.45249">
        <ele>69.9</ele>
        <time>2025-02-11T13:41:34Z</time>
      </trkpt>
      <trkpt lat="47.80248" lon="-2.45249">
        <ele>69.8</ele>
        <time>2025-02-11T13:41:35Z</time>
      </trkpt>
      <trkpt lat="47.80247" lon="-2.45249">
        <ele>69.8</ele>
        <time>2025-02-11T13:41:36Z</time>
      </trkpt>
      <trkpt lat="47.80247" lon="-2.45249">
        <ele>69.8</ele>
        <time>2025-02-11T13:41:37Z</time>
      </trkpt>
      <trkpt lat="47.80247" lon="-2.45249">
        <ele>69.8</ele>
        <time>2025-02-11T13:41:38Z</time>
      </trkpt>
      <trkpt lat="47.80248" lon="-2.45249">
        <ele>69.8</ele>
        <time>2025-02-11T13:41:39Z</time>
      </trkpt>
      <trkpt lat="47.80248" lon="-2.45249">
        <ele>69.9</ele>
        <time>2025-02-11T13:41:40Z</time>
      </trkpt>
      <trkpt lat="47.80248" lon="-2.45249">
        <ele>69.9</ele>
        <time>2025-02-11T13:41:41Z</time>
      </trkpt>
      <trkpt lat="47.80248" lon="-2.45249">
        <ele>69.9</ele>
        <time>2025-02-11T13:41:42Z</time>
      </trkpt>
      <trkpt lat="47.80248" lon="-2.45249">
        <ele>69.9</ele>
        <time>2025-02-11T13:41:43Z</time>
      </trkpt>
      <trkpt lat="47.80248" lon="-2.45249">
        <ele>69.9</ele>
        <time>2025-02-11T13:41:44Z</time>
      </trkpt>
      <trkpt lat="47.80247" lon="-2.45249">
        <ele>69.9</ele>
        <time>2025-02-11T13:41:45Z</time>
      </trkpt>
      <trkpt lat="47.80247" lon="-2.45249">
        <ele>69.9</ele>
        <time>2025-02-11T13:41:46Z</time>
      </trkpt>
      <trkpt lat="47.80247" lon="-2.45249">
        <ele>69.9</ele>
        <time>2025-02-11T13:41:47Z</time>
      </trkpt>
      <trkpt lat="47.80247" lon="-2.4525">
        <ele>69.9</ele>
        <time>2025-02-11T13:41:48Z</time>
      </trkpt>
      <trkpt lat="47.80247" lon="-2.4525">
        <ele>69.9</ele>
        <time>2025-02-11T13:41:49Z</time>
      </trkpt>
      <trkpt lat="47.80247" lon="-2.4525">
        <ele>69.9</ele>
        <time>2025-02-11T13:41:50Z</time>
      </trkpt>
      <trkpt lat="47.80247" lon="-2.4525">
        <ele>69.9</ele>
        <time>2025-02-11T13:41:51Z</time>
      </trkpt>
      <trkpt lat="47.80247" lon="-2.4525">
        <ele>69.9</ele>
        <time>2025-02-11T13:41:52Z</time>
      </trkpt>
      <trkpt lat="47.80247" lon="-2.4525">
        <ele>69.9</ele>
        <time>2025-02-11T13:41:53Z</time>
      </trkpt>
      <trkpt lat="47.80247" lon="-2.4525">
        <ele>69.9</ele>
        <time>2025-02-11T13:41:54Z</time>
      </trkpt>
      <trkpt lat="47.80247" lon="-2.4525">
        <ele>69.9</ele>
        <time>2025-02-11T13:41:55Z</time>
      </trkpt>
      <trkpt lat="47.80247" lon="-2.4525">
        <ele>69.9</ele>
        <time>2025-02-11T13:41:56Z</time>
      </trkpt>
      <trkpt lat="47.80247" lon="-2.4525">
        <ele>69.9</ele>
        <time>2025-02-11T13:41:57Z</time>
      </trkpt>
      <trkpt lat="47.80247" lon="-2.4525">
        <ele>69.9</ele>
        <time>2025-02-11T13:41:58Z</time>
      </trkpt>
      <trkpt lat="47.80248" lon="-2.4525">
        <ele>69.9</ele>
        <time>2025-02-11T13:41:59Z</time>
      </trkpt>
      <trkpt lat="47.80248" lon="-2.4525">
        <ele>69.9</ele>
        <time>2025-02-11T13:42:00Z</time>
      </trkpt>
      <trkpt lat="47.80248" lon="-2.4525">
        <ele>69.9</ele>
        <time>2025-02-11T13:42:01Z</time>
      </trkpt>
      <trkpt lat="47.80248" lon="-2.45251">
        <ele>69.9</ele>
        <time>2025-02-11T13:42:02Z</time>
      </trkpt>
      <trkpt lat="47.80247" lon="-2.45253">
        <ele>69.9</ele>
        <time>2025-02-11T13:42:03Z</time>
      </trkpt>
      <trkpt lat="47.80248" lon="-2.45253">
        <ele>69.9</ele>
        <time>2025-02-11T13:42:04Z</time>
      </trkpt>
      <trkpt lat="47.80248" lon="-2.45253">
        <ele>69.9</ele>
        <time>2025-02-11T13:42:05Z</time>
      </trkpt>
      <trkpt lat="47.80248" lon="-2.45253">
        <ele>69.9</ele>
        <time>2025-02-11T13:42:06Z</time>
      </trkpt>
      <trkpt lat="47.80248" lon="-2.45253">
        <ele>69.9</ele>
        <time>2025-02-11T13:42:07Z</time>
      </trkpt>
      <trkpt lat="47.80248" lon="-2.45253">
        <ele>69.9</ele>
        <time>2025-02-11T13:42:08Z</time>
      </trkpt>
      <trkpt lat="47.80248" lon="-2.45254">
        <ele>69.9</ele>
        <time>2025-02-11T13:42:09Z</time>
      </trkpt>
      <trkpt lat="47.80245" lon="-2.45254">
        <ele>69.9</ele>
        <time>2025-02-11T13:42:10Z</time>
      </trkpt>
      <trkpt lat="47.80244" lon="-2.45255">
        <ele>69.9</ele>
        <time>2025-02-11T13:42:11Z</time>
      </trkpt>
      <trkpt lat="47.80244" lon="-2.45255">
        <ele>69.9</ele>
        <time>2025-02-11T13:42:12Z</time>
      </trkpt>
      <trkpt lat="47.80244" lon="-2.45255">
        <ele>69.9</ele>
        <time>2025-02-11T13:42:13Z</time>
      </trkpt>
      <trkpt lat="47.80244" lon="-2.45255">
        <ele>69.9</ele>
        <time>2025-02-11T13:42:14Z</time>
      </trkpt>
      <trkpt lat="47.80244" lon="-2.45255">
        <ele>69.9</ele>
        <time>2025-02-11T13:42:15Z</time>
      </trkpt>
      <trkpt lat="47.80245" lon="-2.45255">
        <ele>69.9</ele>
        <time>2025-02-11T13:42:16Z</time>
      </trkpt>
      <trkpt lat="47.80245" lon="-2.45255">
        <ele>69.9</ele>
        <time>2025-02-11T13:42:17Z</time>
      </trkpt>
      <trkpt lat="47.80245" lon="-2.45255">
        <ele>69.9</ele>
        <time>2025-02-11T13:42:18Z</time>
      </trkpt>
      <trkpt lat="47.80245" lon="-2.45255">
        <ele>69.9</ele>
        <time>2025-02-11T13:42:19Z</time>
      </trkpt>
      <trkpt lat="47.80245" lon="-2.45255">
        <ele>69.9</ele>
        <time>2025-02-11T13:42:20Z</time>
      </trkpt>
      <trkpt lat="47.80245" lon="-2.45255">
        <ele>69.9</ele>
        <time>2025-02-11T13:42:21Z</time>
      </trkpt>
      <trkpt lat="47.80245" lon="-2.45255">
        <ele>69.9</ele>
        <time>2025-02-11T13:42:22Z</time>
      </trkpt>
      <trkpt lat="47.80245" lon="-2.45255">
        <ele>69.9</ele>
        <time>2025-02-11T13:42:23Z</time>
      </trkpt>
      <trkpt lat="47.80246" lon="-2.45256">
        <ele>69.9</ele>
        <time>2025-02-11T13:42:24Z</time>
      </trkpt>
      <trkpt lat="47.80246" lon="-2.45257">
        <ele>69.9</ele>
        <time>2025-02-11T13:42:25Z</time>
      </trkpt>
      <trkpt lat="47.80246" lon="-2.45259">
        <ele>69.9</ele>
        <time>2025-02-11T13:42:26Z</time>
      </trkpt>
      <trkpt lat="47.80245" lon="-2.4526">
        <ele>69.9</ele>
        <time>2025-02-11T13:42:27Z</time>
      </trkpt>
      <trkpt lat="47.80244" lon="-2.45261">
        <ele>69.9</ele>
        <time>2025-02-11T13:42:28Z</time>
      </trkpt>
      <trkpt lat="47.80243" lon="-2.45261">
        <ele>70</ele>
        <time>2025-02-11T13:42:29Z</time>
      </trkpt>
      <trkpt lat="47.80242" lon="-2.45262">
        <ele>70</ele>
        <time>2025-02-11T13:42:30Z</time>
      </trkpt>
      <trkpt lat="47.80241" lon="-2.45262">
        <ele>69.9</ele>
        <time>2025-02-11T13:42:31Z</time>
      </trkpt>
      <trkpt lat="47.80239" lon="-2.45261">
        <ele>69.9</ele>
        <time>2025-02-11T13:42:32Z</time>
      </trkpt>
      <trkpt lat="47.80238" lon="-2.4526">
        <ele>69.9</ele>
        <time>2025-02-11T13:42:33Z</time>
      </trkpt>
      <trkpt lat="47.80238" lon="-2.45259">
        <ele>69.8</ele>
        <time>2025-02-11T13:42:34Z</time>
      </trkpt>
      <trkpt lat="47.80237" lon="-2.45259">
        <ele>69.8</ele>
        <time>2025-02-11T13:42:35Z</time>
      </trkpt>
      <trkpt lat="47.80236" lon="-2.45259">
        <ele>69.8</ele>
        <time>2025-02-11T13:42:36Z</time>
      </trkpt>
      <trkpt lat="47.80235" lon="-2.45259">
        <ele>69.8</ele>
        <time>2025-02-11T13:42:37Z</time>
      </trkpt>
      <trkpt lat="47.80234" lon="-2.45259">
        <ele>69.8</ele>
        <time>2025-02-11T13:42:38Z</time>
      </trkpt>
      <trkpt lat="47.80233" lon="-2.4526">
        <ele>69.8</ele>
        <time>2025-02-11T13:42:39Z</time>
      </trkpt>
      <trkpt lat="47.80232" lon="-2.4526">
        <ele>69.8</ele>
        <time>2025-02-11T13:42:40Z</time>
      </trkpt>
      <trkpt lat="47.80231" lon="-2.4526">
        <ele>69.8</ele>
        <time>2025-02-11T13:42:41Z</time>
      </trkpt>
      <trkpt lat="47.8023" lon="-2.4526">
        <ele>69.8</ele>
        <time>2025-02-11T13:42:42Z</time>
      </trkpt>
      <trkpt lat="47.8023" lon="-2.4526">
        <ele>69.8</ele>
        <time>2025-02-11T13:42:43Z</time>
      </trkpt>
      <trkpt lat="47.80229" lon="-2.4526">
        <ele>69.8</ele>
        <time>2025-02-11T13:42:44Z</time>
      </trkpt>
      <trkpt lat="47.80228" lon="-2.45259">
        <ele>69.7</ele>
        <time>2025-02-11T13:42:45Z</time>
      </trkpt>
      <trkpt lat="47.80227" lon="-2.45259">
        <ele>69.7</ele>
        <time>2025-02-11T13:42:46Z</time>
      </trkpt>
      <trkpt lat="47.80226" lon="-2.45259">
        <ele>69.7</ele>
        <time>2025-02-11T13:42:47Z</time>
      </trkpt>
      <trkpt lat="47.80225" lon="-2.45259">
        <ele>69.7</ele>
        <time>2025-02-11T13:42:48Z</time>
      </trkpt>
      <trkpt lat="47.80224" lon="-2.45259">
        <ele>69.7</ele>
        <time>2025-02-11T13:42:49Z</time>
      </trkpt>
      <trkpt lat="47.80223" lon="-2.45258">
        <ele>69.6</ele>
        <time>2025-02-11T13:42:50Z</time>
      </trkpt>
      <trkpt lat="47.80222" lon="-2.45258">
        <ele>69.6</ele>
        <time>2025-02-11T13:42:51Z</time>
      </trkpt>
      <trkpt lat="47.80221" lon="-2.45258">
        <ele>69.6</ele>
        <time>2025-02-11T13:42:52Z</time>
      </trkpt>
      <trkpt lat="47.8022" lon="-2.45257">
        <ele>69.6</ele>
        <time>2025-02-11T13:42:53Z</time>
      </trkpt>
      <trkpt lat="47.80219" lon="-2.45257">
        <ele>69.6</ele>
        <time>2025-02-11T13:42:54Z</time>
      </trkpt>
      <trkpt lat="47.80218" lon="-2.45258">
        <ele>69.7</ele>
        <time>2025-02-11T13:42:55Z</time>
      </trkpt>
      <trkpt lat="47.80217" lon="-2.45257">
        <ele>69.7</ele>
        <time>2025-02-11T13:42:56Z</time>
      </trkpt>
      <trkpt lat="47.80217" lon="-2.45257">
        <ele>69.7</ele>
        <time>2025-02-11T13:42:57Z</time>
      </trkpt>
      <trkpt lat="47.80216" lon="-2.45256">
        <ele>69.7</ele>
        <time>2025-02-11T13:42:58Z</time>
      </trkpt>
      <trkpt lat="47.80215" lon="-2.45256">
        <ele>69.7</ele>
        <time>2025-02-11T13:42:59Z</time>
      </trkpt>
      <trkpt lat="47.80214" lon="-2.45257">
        <ele>69.8</ele>
        <time>2025-02-11T13:43:00Z</time>
      </trkpt>
      <trkpt lat="47.80213" lon="-2.45257">
        <ele>69.8</ele>
        <time>2025-02-11T13:43:01Z</time>
      </trkpt>
      <trkpt lat="47.80212" lon="-2.45256">
        <ele>69.8</ele>
        <time>2025-02-11T13:43:02Z</time>
      </trkpt>
      <trkpt lat="47.80211" lon="-2.45255">
        <ele>69.8</ele>
        <time>2025-02-11T13:43:03Z</time>
      </trkpt>
      <trkpt lat="47.8021" lon="-2.45255">
        <ele>69.8</ele>
        <time>2025-02-11T13:43:04Z</time>
      </trkpt>
      <trkpt lat="47.80209" lon="-2.45255">
        <ele>69.8</ele>
        <time>2025-02-11T13:43:05Z</time>
      </trkpt>
      <trkpt lat="47.80208" lon="-2.45255">
        <ele>69.8</ele>
        <time>2025-02-11T13:43:06Z</time>
      </trkpt>
      <trkpt lat="47.80208" lon="-2.45255">
        <ele>69.9</ele>
        <time>2025-02-11T13:43:07Z</time>
      </trkpt>
      <trkpt lat="47.80207" lon="-2.45255">
        <ele>69.9</ele>
        <time>2025-02-11T13:43:08Z</time>
      </trkpt>
      <trkpt lat="47.80206" lon="-2.45254">
        <ele>69.9</ele>
        <time>2025-02-11T13:43:09Z</time>
      </trkpt>
      <trkpt lat="47.80205" lon="-2.45254">
        <ele>69.9</ele>
        <time>2025-02-11T13:43:10Z</time>
      </trkpt>
      <trkpt lat="47.80204" lon="-2.45254">
        <ele>69.9</ele>
        <time>2025-02-11T13:43:11Z</time>
      </trkpt>
      <trkpt lat="47.80203" lon="-2.45253">
        <ele>69.9</ele>
        <time>2025-02-11T13:43:12Z</time>
      </trkpt>
      <trkpt lat="47.80201" lon="-2.45253">
        <ele>70</ele>
        <time>2025-02-11T13:43:13Z</time>
      </trkpt>
      <trkpt lat="47.802" lon="-2.45253">
        <ele>70</ele>
        <time>2025-02-11T13:43:14Z</time>
      </trkpt>
      <trkpt lat="47.80199" lon="-2.45251">
        <ele>69.9</ele>
        <time>2025-02-11T13:43:15Z</time>
      </trkpt>
      <trkpt lat="47.80198" lon="-2.45251">
        <ele>69.9</ele>
        <time>2025-02-11T13:43:16Z</time>
      </trkpt>
      <trkpt lat="47.80197" lon="-2.45251">
        <ele>70</ele>
        <time>2025-02-11T13:43:17Z</time>
      </trkpt>
      <trkpt lat="47.80196" lon="-2.4525">
        <ele>69.9</ele>
        <time>2025-02-11T13:43:18Z</time>
      </trkpt>
      <trkpt lat="47.80195" lon="-2.4525">
        <ele>70</ele>
        <time>2025-02-11T13:43:19Z</time>
      </trkpt>
      <trkpt lat="47.80194" lon="-2.4525">
        <ele>70</ele>
        <time>2025-02-11T13:43:20Z</time>
      </trkpt>
      <trkpt lat="47.80193" lon="-2.4525">
        <ele>70</ele>
        <time>2025-02-11T13:43:21Z</time>
      </trkpt>
      <trkpt lat="47.80192" lon="-2.4525">
        <ele>70.1</ele>
        <time>2025-02-11T13:43:22Z</time>
      </trkpt>
      <trkpt lat="47.80191" lon="-2.4525">
        <ele>70.1</ele>
        <time>2025-02-11T13:43:23Z</time>
      </trkpt>
      <trkpt lat="47.80189" lon="-2.4525">
        <ele>70.2</ele>
        <time>2025-02-11T13:43:24Z</time>
      </trkpt>
      <trkpt lat="47.80188" lon="-2.45249">
        <ele>70.2</ele>
        <time>2025-02-11T13:43:25Z</time>
      </trkpt>
      <trkpt lat="47.80187" lon="-2.45249">
        <ele>70.2</ele>
        <time>2025-02-11T13:43:26Z</time>
      </trkpt>
      <trkpt lat="47.80186" lon="-2.45249">
        <ele>70.3</ele>
        <time>2025-02-11T13:43:27Z</time>
      </trkpt>
      <trkpt lat="47.80185" lon="-2.45248">
        <ele>70.3</ele>
        <time>2025-02-11T13:43:28Z</time>
      </trkpt>
      <trkpt lat="47.80184" lon="-2.45248">
        <ele>70.3</ele>
        <time>2025-02-11T13:43:29Z</time>
      </trkpt>
      <trkpt lat="47.80183" lon="-2.45248">
        <ele>70.3</ele>
        <time>2025-02-11T13:43:30Z</time>
      </trkpt>
      <trkpt lat="47.80182" lon="-2.45248">
        <ele>70.4</ele>
        <time>2025-02-11T13:43:31Z</time>
      </trkpt>
      <trkpt lat="47.80181" lon="-2.45249">
        <ele>70.4</ele>
        <time>2025-02-11T13:43:32Z</time>
      </trkpt>
      <trkpt lat="47.8018" lon="-2.45248">
        <ele>70.5</ele>
        <time>2025-02-11T13:43:33Z</time>
      </trkpt>
      <trkpt lat="47.80179" lon="-2.45248">
        <ele>70.5</ele>
        <time>2025-02-11T13:43:34Z</time>
      </trkpt>
      <trkpt lat="47.80178" lon="-2.45248">
        <ele>70.5</ele>
        <time>2025-02-11T13:43:35Z</time>
      </trkpt>
      <trkpt lat="47.80177" lon="-2.45248">
        <ele>70.6</ele>
        <time>2025-02-11T13:43:36Z</time>
      </trkpt>
      <trkpt lat="47.80175" lon="-2.45247">
        <ele>70.6</ele>
        <time>2025-02-11T13:43:37Z</time>
      </trkpt>
      <trkpt lat="47.80174" lon="-2.45247">
        <ele>70.6</ele>
        <time>2025-02-11T13:43:38Z</time>
      </trkpt>
      <trkpt lat="47.80173" lon="-2.45247">
        <ele>70.7</ele>
        <time>2025-02-11T13:43:39Z</time>
      </trkpt>
      <trkpt lat="47.80172" lon="-2.45247">
        <ele>70.7</ele>
        <time>2025-02-11T13:43:40Z</time>
      </trkpt>
      <trkpt lat="47.80171" lon="-2.45247">
        <ele>70.7</ele>
        <time>2025-02-11T13:43:41Z</time>
      </trkpt>
      <trkpt lat="47.8017" lon="-2.45246">
        <ele>70.7</ele>
        <time>2025-02-11T13:43:42Z</time>
      </trkpt>
      <trkpt lat="47.80168" lon="-2.45245">
        <ele>70.8</ele>
        <time>2025-02-11T13:43:43Z</time>
      </trkpt>
      <trkpt lat="47.80167" lon="-2.45245">
        <ele>70.8</ele>
        <time>2025-02-11T13:43:44Z</time>
      </trkpt>
      <trkpt lat="47.80166" lon="-2.45244">
        <ele>70.8</ele>
        <time>2025-02-11T13:43:45Z</time>
      </trkpt>
      <trkpt lat="47.80165" lon="-2.45244">
        <ele>70.9</ele>
        <time>2025-02-11T13:43:46Z</time>
      </trkpt>
      <trkpt lat="47.80164" lon="-2.45244">
        <ele>71</ele>
        <time>2025-02-11T13:43:47Z</time>
      </trkpt>
      <trkpt lat="47.80162" lon="-2.45244">
        <ele>71.1</ele>
        <time>2025-02-11T13:43:48Z</time>
      </trkpt>
      <trkpt lat="47.80161" lon="-2.45244">
        <ele>71.1</ele>
        <time>2025-02-11T13:43:49Z</time>
      </trkpt>
      <trkpt lat="47.8016" lon="-2.45244">
        <ele>71.2</ele>
        <time>2025-02-11T13:43:50Z</time>
      </trkpt>
      <trkpt lat="47.80158" lon="-2.45244">
        <ele>71.3</ele>
        <time>2025-02-11T13:43:51Z</time>
      </trkpt>
      <trkpt lat="47.80157" lon="-2.45243">
        <ele>71.4</ele>
        <time>2025-02-11T13:43:52Z</time>
      </trkpt>
      <trkpt lat="47.80156" lon="-2.45243">
        <ele>71.4</ele>
        <time>2025-02-11T13:43:53Z</time>
      </trkpt>
      <trkpt lat="47.80155" lon="-2.45243">
        <ele>71.5</ele>
        <time>2025-02-11T13:43:54Z</time>
      </trkpt>
      <trkpt lat="47.80154" lon="-2.45243">
        <ele>71.5</ele>
        <time>2025-02-11T13:43:55Z</time>
      </trkpt>
      <trkpt lat="47.80153" lon="-2.45243">
        <ele>71.6</ele>
        <time>2025-02-11T13:43:56Z</time>
      </trkpt>
      <trkpt lat="47.80152" lon="-2.45243">
        <ele>71.7</ele>
        <time>2025-02-11T13:43:57Z</time>
      </trkpt>
      <trkpt lat="47.8015" lon="-2.45242">
        <ele>71.7</ele>
        <time>2025-02-11T13:43:58Z</time>
      </trkpt>
      <trkpt lat="47.80149" lon="-2.45242">
        <ele>71.8</ele>
        <time>2025-02-11T13:43:59Z</time>
      </trkpt>
      <trkpt lat="47.80148" lon="-2.45243">
        <ele>71.9</ele>
        <time>2025-02-11T13:44:00Z</time>
      </trkpt>
      <trkpt lat="47.80147" lon="-2.45241">
        <ele>71.8</ele>
        <time>2025-02-11T13:44:01Z</time>
      </trkpt>
      <trkpt lat="47.80146" lon="-2.4524">
        <ele>71.9</ele>
        <time>2025-02-11T13:44:02Z</time>
      </trkpt>
      <trkpt lat="47.80145" lon="-2.45241">
        <ele>72</ele>
        <time>2025-02-11T13:44:03Z</time>
      </trkpt>
      <trkpt lat="47.80144" lon="-2.45241">
        <ele>72.1</ele>
        <time>2025-02-11T13:44:04Z</time>
      </trkpt>
      <trkpt lat="47.80143" lon="-2.45241">
        <ele>72.1</ele>
        <time>2025-02-11T13:44:05Z</time>
      </trkpt>
      <trkpt lat="47.80142" lon="-2.4524">
        <ele>72.1</ele>
        <time>2025-02-11T13:44:06Z</time>
      </trkpt>
      <trkpt lat="47.80141" lon="-2.4524">
        <ele>72.2</ele>
        <time>2025-02-11T13:44:07Z</time>
      </trkpt>
      <trkpt lat="47.8014" lon="-2.4524">
        <ele>72.2</ele>
        <time>2025-02-11T13:44:08Z</time>
      </trkpt>
      <trkpt lat="47.80139" lon="-2.4524">
        <ele>72.3</ele>
        <time>2025-02-11T13:44:09Z</time>
      </trkpt>
      <trkpt lat="47.80138" lon="-2.4524">
        <ele>72.3</ele>
        <time>2025-02-11T13:44:10Z</time>
      </trkpt>
      <trkpt lat="47.80137" lon="-2.4524">
        <ele>72.3</ele>
        <time>2025-02-11T13:44:11Z</time>
      </trkpt>
      <trkpt lat="47.80136" lon="-2.45241">
        <ele>72.3</ele>
        <time>2025-02-11T13:44:12Z</time>
      </trkpt>
      <trkpt lat="47.80134" lon="-2.45241">
        <ele>72.3</ele>
        <time>2025-02-11T13:44:13Z</time>
      </trkpt>
      <trkpt lat="47.80133" lon="-2.4524">
        <ele>72.3</ele>
        <time>2025-02-11T13:44:14Z</time>
      </trkpt>
      <trkpt lat="47.80132" lon="-2.4524">
        <ele>72.3</ele>
        <time>2025-02-11T13:44:15Z</time>
      </trkpt>
      <trkpt lat="47.80131" lon="-2.4524">
        <ele>72.3</ele>
        <time>2025-02-11T13:44:16Z</time>
      </trkpt>
      <trkpt lat="47.8013" lon="-2.45239">
        <ele>72.2</ele>
        <time>2025-02-11T13:44:17Z</time>
      </trkpt>
      <trkpt lat="47.80129" lon="-2.45239">
        <ele>72.2</ele>
        <time>2025-02-11T13:44:18Z</time>
      </trkpt>
      <trkpt lat="47.80128" lon="-2.45239">
        <ele>72.2</ele>
        <time>2025-02-11T13:44:19Z</time>
      </trkpt>
      <trkpt lat="47.80126" lon="-2.45239">
        <ele>72.2</ele>
        <time>2025-02-11T13:44:20Z</time>
      </trkpt>
      <trkpt lat="47.80126" lon="-2.45238">
        <ele>72.2</ele>
        <time>2025-02-11T13:44:21Z</time>
      </trkpt>
      <trkpt lat="47.80125" lon="-2.45238">
        <ele>72.1</ele>
        <time>2025-02-11T13:44:22Z</time>
      </trkpt>
      <trkpt lat="47.80124" lon="-2.45238">
        <ele>72.1</ele>
        <time>2025-02-11T13:44:23Z</time>
      </trkpt>
      <trkpt lat="47.80123" lon="-2.45238">
        <ele>72.1</ele>
        <time>2025-02-11T13:44:24Z</time>
      </trkpt>
      <trkpt lat="47.80121" lon="-2.45238">
        <ele>72.1</ele>
        <time>2025-02-11T13:44:25Z</time>
      </trkpt>
      <trkpt lat="47.8012" lon="-2.45238">
        <ele>72.1</ele>
        <time>2025-02-11T13:44:26Z</time>
      </trkpt>
      <trkpt lat="47.80119" lon="-2.45238">
        <ele>72.2</ele>
        <time>2025-02-11T13:44:27Z</time>
      </trkpt>
      <trkpt lat="47.80118" lon="-2.45238">
        <ele>72.2</ele>
        <time>2025-02-11T13:44:28Z</time>
      </trkpt>
      <trkpt lat="47.80117" lon="-2.45238">
        <ele>72.2</ele>
        <time>2025-02-11T13:44:29Z</time>
      </trkpt>
      <trkpt lat="47.80116" lon="-2.45239">
        <ele>72.2</ele>
        <time>2025-02-11T13:44:30Z</time>
      </trkpt>
      <trkpt lat="47.80114" lon="-2.45238">
        <ele>72.1</ele>
        <time>2025-02-11T13:44:31Z</time>
      </trkpt>
      <trkpt lat="47.80113" lon="-2.45238">
        <ele>72.1</ele>
        <time>2025-02-11T13:44:32Z</time>
      </trkpt>
      <trkpt lat="47.80112" lon="-2.45238">
        <ele>72.1</ele>
        <time>2025-02-11T13:44:33Z</time>
      </trkpt>
      <trkpt lat="47.80111" lon="-2.45237">
        <ele>72.1</ele>
        <time>2025-02-11T13:44:34Z</time>
      </trkpt>
      <trkpt lat="47.8011" lon="-2.45236">
        <ele>72</ele>
        <time>2025-02-11T13:44:35Z</time>
      </trkpt>
      <trkpt lat="47.80109" lon="-2.45236">
        <ele>72</ele>
        <time>2025-02-11T13:44:36Z</time>
      </trkpt>
      <trkpt lat="47.80108" lon="-2.45235">
        <ele>72</ele>
        <time>2025-02-11T13:44:37Z</time>
      </trkpt>
      <trkpt lat="47.80107" lon="-2.45234">
        <ele>72</ele>
        <time>2025-02-11T13:44:38Z</time>
      </trkpt>
      <trkpt lat="47.80106" lon="-2.45234">
        <ele>72.1</ele>
        <time>2025-02-11T13:44:39Z</time>
      </trkpt>
      <trkpt lat="47.80104" lon="-2.45234">
        <ele>72.1</ele>
        <time>2025-02-11T13:44:40Z</time>
      </trkpt>
      <trkpt lat="47.80103" lon="-2.45233">
        <ele>72.1</ele>
        <time>2025-02-11T13:44:41Z</time>
      </trkpt>
      <trkpt lat="47.80102" lon="-2.45233">
        <ele>72.1</ele>
        <time>2025-02-11T13:44:42Z</time>
      </trkpt>
      <trkpt lat="47.80101" lon="-2.45231">
        <ele>72</ele>
        <time>2025-02-11T13:44:43Z</time>
      </trkpt>
      <trkpt lat="47.801" lon="-2.4523">
        <ele>72</ele>
        <time>2025-02-11T13:44:44Z</time>
      </trkpt>
      <trkpt lat="47.80099" lon="-2.4523">
        <ele>72</ele>
        <time>2025-02-11T13:44:45Z</time>
      </trkpt>
      <trkpt lat="47.80098" lon="-2.45228">
        <ele>71.9</ele>
        <time>2025-02-11T13:44:46Z</time>
      </trkpt>
      <trkpt lat="47.80097" lon="-2.45228">
        <ele>71.9</ele>
        <time>2025-02-11T13:44:47Z</time>
      </trkpt>
      <trkpt lat="47.80096" lon="-2.45227">
        <ele>71.9</ele>
        <time>2025-02-11T13:44:48Z</time>
      </trkpt>
      <trkpt lat="47.80095" lon="-2.45226">
        <ele>71.9</ele>
        <time>2025-02-11T13:44:49Z</time>
      </trkpt>
      <trkpt lat="47.80094" lon="-2.45225">
        <ele>71.8</ele>
        <time>2025-02-11T13:44:50Z</time>
      </trkpt>
      <trkpt lat="47.80093" lon="-2.45225">
        <ele>71.8</ele>
        <time>2025-02-11T13:44:51Z</time>
      </trkpt>
      <trkpt lat="47.80092" lon="-2.45224">
        <ele>71.8</ele>
        <time>2025-02-11T13:44:52Z</time>
      </trkpt>
      <trkpt lat="47.80091" lon="-2.45222">
        <ele>71.7</ele>
        <time>2025-02-11T13:44:53Z</time>
      </trkpt>
      <trkpt lat="47.8009" lon="-2.45221">
        <ele>71.7</ele>
        <time>2025-02-11T13:44:54Z</time>
      </trkpt>
      <trkpt lat="47.80089" lon="-2.4522">
        <ele>71.7</ele>
        <time>2025-02-11T13:44:55Z</time>
      </trkpt>
      <trkpt lat="47.80089" lon="-2.45219">
        <ele>71.7</ele>
        <time>2025-02-11T13:44:56Z</time>
      </trkpt>
      <trkpt lat="47.80088" lon="-2.45218">
        <ele>71.7</ele>
        <time>2025-02-11T13:44:57Z</time>
      </trkpt>
      <trkpt lat="47.80087" lon="-2.45217">
        <ele>71.7</ele>
        <time>2025-02-11T13:44:58Z</time>
      </trkpt>
      <trkpt lat="47.80085" lon="-2.45216">
        <ele>71.7</ele>
        <time>2025-02-11T13:44:59Z</time>
      </trkpt>
      <trkpt lat="47.80085" lon="-2.45215">
        <ele>71.7</ele>
        <time>2025-02-11T13:45:00Z</time>
      </trkpt>
      <trkpt lat="47.80084" lon="-2.45214">
        <ele>71.7</ele>
        <time>2025-02-11T13:45:01Z</time>
      </trkpt>
      <trkpt lat="47.80083" lon="-2.45213">
        <ele>71.7</ele>
        <time>2025-02-11T13:45:02Z</time>
      </trkpt>
      <trkpt lat="47.80082" lon="-2.45212">
        <ele>71.8</ele>
        <time>2025-02-11T13:45:03Z</time>
      </trkpt>
      <trkpt lat="47.80081" lon="-2.4521">
        <ele>71.8</ele>
        <time>2025-02-11T13:45:04Z</time>
      </trkpt>
      <trkpt lat="47.80081" lon="-2.45209">
        <ele>71.8</ele>
        <time>2025-02-11T13:45:05Z</time>
      </trkpt>
      <trkpt lat="47.8008" lon="-2.45207">
        <ele>71.8</ele>
        <time>2025-02-11T13:45:06Z</time>
      </trkpt>
      <trkpt lat="47.80079" lon="-2.45206">
        <ele>71.8</ele>
        <time>2025-02-11T13:45:07Z</time>
      </trkpt>
      <trkpt lat="47.80078" lon="-2.45205">
        <ele>71.8</ele>
        <time>2025-02-11T13:45:08Z</time>
      </trkpt>
      <trkpt lat="47.80077" lon="-2.45203">
        <ele>71.8</ele>
        <time>2025-02-11T13:45:09Z</time>
      </trkpt>
      <trkpt lat="47.80076" lon="-2.45202">
        <ele>71.9</ele>
        <time>2025-02-11T13:45:10Z</time>
      </trkpt>
      <trkpt lat="47.80076" lon="-2.45201">
        <ele>71.8</ele>
        <time>2025-02-11T13:45:11Z</time>
      </trkpt>
      <trkpt lat="47.80076" lon="-2.45199">
        <ele>71.8</ele>
        <time>2025-02-11T13:45:12Z</time>
      </trkpt>
      <trkpt lat="47.80075" lon="-2.45198">
        <ele>71.7</ele>
        <time>2025-02-11T13:45:13Z</time>
      </trkpt>
      <trkpt lat="47.80074" lon="-2.45196">
        <ele>71.7</ele>
        <time>2025-02-11T13:45:14Z</time>
      </trkpt>
      <trkpt lat="47.80074" lon="-2.45194">
        <ele>71.7</ele>
        <time>2025-02-11T13:45:15Z</time>
      </trkpt>
      <trkpt lat="47.80073" lon="-2.45193">
        <ele>71.6</ele>
        <time>2025-02-11T13:45:16Z</time>
      </trkpt>
      <trkpt lat="47.80073" lon="-2.45191">
        <ele>71.5</ele>
        <time>2025-02-11T13:45:17Z</time>
      </trkpt>
      <trkpt lat="47.80072" lon="-2.4519">
        <ele>71.4</ele>
        <time>2025-02-11T13:45:18Z</time>
      </trkpt>
      <trkpt lat="47.80072" lon="-2.45188">
        <ele>71.2</ele>
        <time>2025-02-11T13:45:19Z</time>
      </trkpt>
      <trkpt lat="47.80071" lon="-2.45186">
        <ele>71.1</ele>
        <time>2025-02-11T13:45:20Z</time>
      </trkpt>
      <trkpt lat="47.8007" lon="-2.45185">
        <ele>71.1</ele>
        <time>2025-02-11T13:45:21Z</time>
      </trkpt>
      <trkpt lat="47.8007" lon="-2.45183">
        <ele>71</ele>
        <time>2025-02-11T13:45:22Z</time>
      </trkpt>
      <trkpt lat="47.8007" lon="-2.45182">
        <ele>70.8</ele>
        <time>2025-02-11T13:45:23Z</time>
      </trkpt>
      <trkpt lat="47.8007" lon="-2.4518">
        <ele>70.7</ele>
        <time>2025-02-11T13:45:24Z</time>
      </trkpt>
      <trkpt lat="47.80069" lon="-2.45178">
        <ele>70.5</ele>
        <time>2025-02-11T13:45:25Z</time>
      </trkpt>
      <trkpt lat="47.80069" lon="-2.45177">
        <ele>70.4</ele>
        <time>2025-02-11T13:45:26Z</time>
      </trkpt>
      <trkpt lat="47.80069" lon="-2.45175">
        <ele>70.3</ele>
        <time>2025-02-11T13:45:27Z</time>
      </trkpt>
      <trkpt lat="47.80069" lon="-2.45173">
        <ele>70.2</ele>
        <time>2025-02-11T13:45:28Z</time>
      </trkpt>
      <trkpt lat="47.80069" lon="-2.45172">
        <ele>70</ele>
        <time>2025-02-11T13:45:29Z</time>
      </trkpt>
      <trkpt lat="47.80069" lon="-2.4517">
        <ele>69.9</ele>
        <time>2025-02-11T13:45:30Z</time>
      </trkpt>
      <trkpt lat="47.80068" lon="-2.45169">
        <ele>69.8</ele>
        <time>2025-02-11T13:45:31Z</time>
      </trkpt>
      <trkpt lat="47.80068" lon="-2.45167">
        <ele>69.7</ele>
        <time>2025-02-11T13:45:32Z</time>
      </trkpt>
      <trkpt lat="47.80067" lon="-2.45165">
        <ele>69.6</ele>
        <time>2025-02-11T13:45:33Z</time>
      </trkpt>
      <trkpt lat="47.80067" lon="-2.45163">
        <ele>69.5</ele>
        <time>2025-02-11T13:45:34Z</time>
      </trkpt>
      <trkpt lat="47.80067" lon="-2.45161">
        <ele>69.3</ele>
        <time>2025-02-11T13:45:35Z</time>
      </trkpt>
      <trkpt lat="47.80067" lon="-2.4516">
        <ele>69.2</ele>
        <time>2025-02-11T13:45:36Z</time>
      </trkpt>
      <trkpt lat="47.80067" lon="-2.45158">
        <ele>69.1</ele>
        <time>2025-02-11T13:45:37Z</time>
      </trkpt>
      <trkpt lat="47.80067" lon="-2.45157">
        <ele>69.1</ele>
        <time>2025-02-11T13:45:38Z</time>
      </trkpt>
      <trkpt lat="47.80067" lon="-2.45155">
        <ele>69</ele>
        <time>2025-02-11T13:45:39Z</time>
      </trkpt>
      <trkpt lat="47.80066" lon="-2.45153">
        <ele>68.9</ele>
        <time>2025-02-11T13:45:40Z</time>
      </trkpt>
      <trkpt lat="47.80066" lon="-2.45152">
        <ele>68.9</ele>
        <time>2025-02-11T13:45:41Z</time>
      </trkpt>
      <trkpt lat="47.80065" lon="-2.4515">
        <ele>68.8</ele>
        <time>2025-02-11T13:45:42Z</time>
      </trkpt>
      <trkpt lat="47.80065" lon="-2.45148">
        <ele>68.6</ele>
        <time>2025-02-11T13:45:43Z</time>
      </trkpt>
      <trkpt lat="47.80065" lon="-2.45147">
        <ele>68.5</ele>
        <time>2025-02-11T13:45:44Z</time>
      </trkpt>
      <trkpt lat="47.80065" lon="-2.45145">
        <ele>68.4</ele>
        <time>2025-02-11T13:45:45Z</time>
      </trkpt>
      <trkpt lat="47.80065" lon="-2.45143">
        <ele>68.3</ele>
        <time>2025-02-11T13:45:46Z</time>
      </trkpt>
      <trkpt lat="47.80064" lon="-2.45141">
        <ele>68.2</ele>
        <time>2025-02-11T13:45:47Z</time>
      </trkpt>
      <trkpt lat="47.80064" lon="-2.45139">
        <ele>68.1</ele>
        <time>2025-02-11T13:45:48Z</time>
      </trkpt>
      <trkpt lat="47.80064" lon="-2.45137">
        <ele>67.9</ele>
        <time>2025-02-11T13:45:49Z</time>
      </trkpt>
      <trkpt lat="47.80064" lon="-2.45136">
        <ele>67.9</ele>
        <time>2025-02-11T13:45:50Z</time>
      </trkpt>
      <trkpt lat="47.80063" lon="-2.45134">
        <ele>67.8</ele>
        <time>2025-02-11T13:45:51Z</time>
      </trkpt>
      <trkpt lat="47.80064" lon="-2.45131">
        <ele>67.6</ele>
        <time>2025-02-11T13:45:52Z</time>
      </trkpt>
      <trkpt lat="47.80064" lon="-2.45129">
        <ele>67.4</ele>
        <time>2025-02-11T13:45:53Z</time>
      </trkpt>
      <trkpt lat="47.80064" lon="-2.45128">
        <ele>67.3</ele>
        <time>2025-02-11T13:45:54Z</time>
      </trkpt>
      <trkpt lat="47.80064" lon="-2.45126">
        <ele>67.2</ele>
        <time>2025-02-11T13:45:55Z</time>
      </trkpt>
      <trkpt lat="47.80063" lon="-2.45124">
        <ele>67.1</ele>
        <time>2025-02-11T13:45:56Z</time>
      </trkpt>
      <trkpt lat="47.80063" lon="-2.45122">
        <ele>67</ele>
        <time>2025-02-11T13:45:57Z</time>
      </trkpt>
      <trkpt lat="47.80063" lon="-2.4512">
        <ele>66.8</ele>
        <time>2025-02-11T13:45:58Z</time>
      </trkpt>
      <trkpt lat="47.80063" lon="-2.45118">
        <ele>66.7</ele>
        <time>2025-02-11T13:45:59Z</time>
      </trkpt>
      <trkpt lat="47.80063" lon="-2.45116">
        <ele>66.5</ele>
        <time>2025-02-11T13:46:00Z</time>
      </trkpt>
      <trkpt lat="47.80064" lon="-2.45114">
        <ele>66.4</ele>
        <time>2025-02-11T13:46:01Z</time>
      </trkpt>
      <trkpt lat="47.80063" lon="-2.45113">
        <ele>66.3</ele>
        <time>2025-02-11T13:46:02Z</time>
      </trkpt>
      <trkpt lat="47.80063" lon="-2.45111">
        <ele>66.2</ele>
        <time>2025-02-11T13:46:03Z</time>
      </trkpt>
      <trkpt lat="47.80062" lon="-2.45109">
        <ele>66.1</ele>
        <time>2025-02-11T13:46:04Z</time>
      </trkpt>
      <trkpt lat="47.80062" lon="-2.45108">
        <ele>66.1</ele>
        <time>2025-02-11T13:46:05Z</time>
      </trkpt>
      <trkpt lat="47.80063" lon="-2.45106">
        <ele>65.9</ele>
        <time>2025-02-11T13:46:06Z</time>
      </trkpt>
      <trkpt lat="47.80063" lon="-2.45104">
        <ele>65.8</ele>
        <time>2025-02-11T13:46:07Z</time>
      </trkpt>
      <trkpt lat="47.80063" lon="-2.45102">
        <ele>65.7</ele>
        <time>2025-02-11T13:46:08Z</time>
      </trkpt>
      <trkpt lat="47.80063" lon="-2.45101">
        <ele>65.6</ele>
        <time>2025-02-11T13:46:09Z</time>
      </trkpt>
      <trkpt lat="47.80063" lon="-2.45099">
        <ele>65.5</ele>
        <time>2025-02-11T13:46:10Z</time>
      </trkpt>
      <trkpt lat="47.80063" lon="-2.45098">
        <ele>65.4</ele>
        <time>2025-02-11T13:46:11Z</time>
      </trkpt>
      <trkpt lat="47.80063" lon="-2.45096">
        <ele>65.3</ele>
        <time>2025-02-11T13:46:12Z</time>
      </trkpt>
      <trkpt lat="47.80063" lon="-2.45094">
        <ele>65.1</ele>
        <time>2025-02-11T13:46:13Z</time>
      </trkpt>
      <trkpt lat="47.80063" lon="-2.45092">
        <ele>65</ele>
        <time>2025-02-11T13:46:14Z</time>
      </trkpt>
      <trkpt lat="47.80063" lon="-2.45091">
        <ele>64.9</ele>
        <time>2025-02-11T13:46:15Z</time>
      </trkpt>
      <trkpt lat="47.80063" lon="-2.45089">
        <ele>64.8</ele>
        <time>2025-02-11T13:46:16Z</time>
      </trkpt>
      <trkpt lat="47.80063" lon="-2.45087">
        <ele>64.7</ele>
        <time>2025-02-11T13:46:17Z</time>
      </trkpt>
      <trkpt lat="47.80063" lon="-2.45085">
        <ele>64.6</ele>
        <time>2025-02-11T13:46:18Z</time>
      </trkpt>
      <trkpt lat="47.80063" lon="-2.45084">
        <ele>64.5</ele>
        <time>2025-02-11T13:46:19Z</time>
      </trkpt>
      <trkpt lat="47.80063" lon="-2.45082">
        <ele>64.4</ele>
        <time>2025-02-11T13:46:20Z</time>
      </trkpt>
      <trkpt lat="47.80063" lon="-2.4508">
        <ele>64.3</ele>
        <time>2025-02-11T13:46:21Z</time>
      </trkpt>
      <trkpt lat="47.80063" lon="-2.45078">
        <ele>64.1</ele>
        <time>2025-02-11T13:46:22Z</time>
      </trkpt>
      <trkpt lat="47.80063" lon="-2.45077">
        <ele>64</ele>
        <time>2025-02-11T13:46:23Z</time>
      </trkpt>
      <trkpt lat="47.80063" lon="-2.45075">
        <ele>63.9</ele>
        <time>2025-02-11T13:46:24Z</time>
      </trkpt>
      <trkpt lat="47.80063" lon="-2.45073">
        <ele>63.7</ele>
        <time>2025-02-11T13:46:25Z</time>
      </trkpt>
      <trkpt lat="47.80063" lon="-2.45072">
        <ele>63.6</ele>
        <time>2025-02-11T13:46:26Z</time>
      </trkpt>
      <trkpt lat="47.80063" lon="-2.4507">
        <ele>63.5</ele>
        <time>2025-02-11T13:46:27Z</time>
      </trkpt>
      <trkpt lat="47.80063" lon="-2.45068">
        <ele>63.4</ele>
        <time>2025-02-11T13:46:28Z</time>
      </trkpt>
      <trkpt lat="47.80063" lon="-2.45066">
        <ele>63.2</ele>
        <time>2025-02-11T13:46:29Z</time>
      </trkpt>
      <trkpt lat="47.80063" lon="-2.45065">
        <ele>63.1</ele>
        <time>2025-02-11T13:46:30Z</time>
      </trkpt>
      <trkpt lat="47.80063" lon="-2.45063">
        <ele>63</ele>
        <time>2025-02-11T13:46:31Z</time>
      </trkpt>
      <trkpt lat="47.80063" lon="-2.45061">
        <ele>62.9</ele>
        <time>2025-02-11T13:46:32Z</time>
      </trkpt>
      <trkpt lat="47.80063" lon="-2.45059">
        <ele>62.7</ele>
        <time>2025-02-11T13:46:33Z</time>
      </trkpt>
      <trkpt lat="47.80064" lon="-2.45058">
        <ele>62.5</ele>
        <time>2025-02-11T13:46:34Z</time>
      </trkpt>
      <trkpt lat="47.80065" lon="-2.45056">
        <ele>62.3</ele>
        <time>2025-02-11T13:46:35Z</time>
      </trkpt>
      <trkpt lat="47.80065" lon="-2.45054">
        <ele>62.2</ele>
        <time>2025-02-11T13:46:36Z</time>
      </trkpt>
      <trkpt lat="47.80065" lon="-2.45052">
        <ele>62</ele>
        <time>2025-02-11T13:46:37Z</time>
      </trkpt>
      <trkpt lat="47.80064" lon="-2.45051">
        <ele>61.9</ele>
        <time>2025-02-11T13:46:38Z</time>
      </trkpt>
      <trkpt lat="47.80064" lon="-2.45049">
        <ele>61.7</ele>
        <time>2025-02-11T13:46:39Z</time>
      </trkpt>
      <trkpt lat="47.80064" lon="-2.45048">
        <ele>61.6</ele>
        <time>2025-02-11T13:46:40Z</time>
      </trkpt>
      <trkpt lat="47.80064" lon="-2.45046">
        <ele>61.5</ele>
        <time>2025-02-11T13:46:41Z</time>
      </trkpt>
      <trkpt lat="47.80064" lon="-2.45044">
        <ele>61.3</ele>
        <time>2025-02-11T13:46:42Z</time>
      </trkpt>
      <trkpt lat="47.80064" lon="-2.45043">
        <ele>61.1</ele>
        <time>2025-02-11T13:46:43Z</time>
      </trkpt>
      <trkpt lat="47.80064" lon="-2.45041">
        <ele>61</ele>
        <time>2025-02-11T13:46:44Z</time>
      </trkpt>
      <trkpt lat="47.80064" lon="-2.45039">
        <ele>60.8</ele>
        <time>2025-02-11T13:46:45Z</time>
      </trkpt>
      <trkpt lat="47.80064" lon="-2.45038">
        <ele>60.6</ele>
        <time>2025-02-11T13:46:46Z</time>
      </trkpt>
      <trkpt lat="47.80064" lon="-2.45036">
        <ele>60.5</ele>
        <time>2025-02-11T13:46:47Z</time>
      </trkpt>
      <trkpt lat="47.80064" lon="-2.45034">
        <ele>60.3</ele>
        <time>2025-02-11T13:46:48Z</time>
      </trkpt>
      <trkpt lat="47.80064" lon="-2.45033">
        <ele>60.1</ele>
        <time>2025-02-11T13:46:49Z</time>
      </trkpt>
      <trkpt lat="47.80065" lon="-2.45031">
        <ele>60</ele>
        <time>2025-02-11T13:46:50Z</time>
      </trkpt>
      <trkpt lat="47.80065" lon="-2.45029">
        <ele>59.8</ele>
        <time>2025-02-11T13:46:51Z</time>
      </trkpt>
      <trkpt lat="47.80065" lon="-2.45028">
        <ele>59.6</ele>
        <time>2025-02-11T13:46:52Z</time>
      </trkpt>
      <trkpt lat="47.80066" lon="-2.45026">
        <ele>59.5</ele>
        <time>2025-02-11T13:46:53Z</time>
      </trkpt>
      <trkpt lat="47.80066" lon="-2.45024">
        <ele>59.4</ele>
        <time>2025-02-11T13:46:54Z</time>
      </trkpt>
      <trkpt lat="47.80066" lon="-2.45022">
        <ele>59.3</ele>
        <time>2025-02-11T13:46:55Z</time>
      </trkpt>
      <trkpt lat="47.80066" lon="-2.4502">
        <ele>59.2</ele>
        <time>2025-02-11T13:46:56Z</time>
      </trkpt>
      <trkpt lat="47.80066" lon="-2.45018">
        <ele>59.1</ele>
        <time>2025-02-11T13:46:57Z</time>
      </trkpt>
      <trkpt lat="47.80066" lon="-2.45017">
        <ele>59</ele>
        <time>2025-02-11T13:46:58Z</time>
      </trkpt>
      <trkpt lat="47.80066" lon="-2.45015">
        <ele>58.9</ele>
        <time>2025-02-11T13:46:59Z</time>
      </trkpt>
      <trkpt lat="47.80067" lon="-2.45013">
        <ele>58.8</ele>
        <time>2025-02-11T13:47:00Z</time>
      </trkpt>
      <trkpt lat="47.80067" lon="-2.45012">
        <ele>58.7</ele>
        <time>2025-02-11T13:47:01Z</time>
      </trkpt>
      <trkpt lat="47.80067" lon="-2.4501">
        <ele>58.6</ele>
        <time>2025-02-11T13:47:02Z</time>
      </trkpt>
      <trkpt lat="47.80067" lon="-2.45008">
        <ele>58.5</ele>
        <time>2025-02-11T13:47:03Z</time>
      </trkpt>
      <trkpt lat="47.80067" lon="-2.45007">
        <ele>58.4</ele>
        <time>2025-02-11T13:47:04Z</time>
      </trkpt>
      <trkpt lat="47.80067" lon="-2.45005">
        <ele>58.3</ele>
        <time>2025-02-11T13:47:05Z</time>
      </trkpt>
      <trkpt lat="47.80066" lon="-2.45004">
        <ele>58.2</ele>
        <time>2025-02-11T13:47:06Z</time>
      </trkpt>
      <trkpt lat="47.80067" lon="-2.45002">
        <ele>58.1</ele>
        <time>2025-02-11T13:47:07Z</time>
      </trkpt>
      <trkpt lat="47.80067" lon="-2.45">
        <ele>58</ele>
        <time>2025-02-11T13:47:08Z</time>
      </trkpt>
      <trkpt lat="47.80067" lon="-2.44999">
        <ele>57.9</ele>
        <time>2025-02-11T13:47:09Z</time>
      </trkpt>
      <trkpt lat="47.80067" lon="-2.44997">
        <ele>57.8</ele>
        <time>2025-02-11T13:47:10Z</time>
      </trkpt>
      <trkpt lat="47.80067" lon="-2.44996">
        <ele>57.7</ele>
        <time>2025-02-11T13:47:11Z</time>
      </trkpt>
      <trkpt lat="47.80067" lon="-2.44994">
        <ele>57.7</ele>
        <time>2025-02-11T13:47:12Z</time>
      </trkpt>
      <trkpt lat="47.80067" lon="-2.44992">
        <ele>57.6</ele>
        <time>2025-02-11T13:47:13Z</time>
      </trkpt>
      <trkpt lat="47.80067" lon="-2.44991">
        <ele>57.5</ele>
        <time>2025-02-11T13:47:14Z</time>
      </trkpt>
      <trkpt lat="47.80067" lon="-2.44989">
        <ele>57.4</ele>
        <time>2025-02-11T13:47:15Z</time>
      </trkpt>
      <trkpt lat="47.80067" lon="-2.44987">
        <ele>57.3</ele>
        <time>2025-02-11T13:47:16Z</time>
      </trkpt>
      <trkpt lat="47.80068" lon="-2.44985">
        <ele>57.2</ele>
        <time>2025-02-11T13:47:17Z</time>
      </trkpt>
      <trkpt lat="47.80068" lon="-2.44983">
        <ele>57</ele>
        <time>2025-02-11T13:47:18Z</time>
      </trkpt>
      <trkpt lat="47.80068" lon="-2.44981">
        <ele>57</ele>
        <time>2025-02-11T13:47:19Z</time>
      </trkpt>
      <trkpt lat="47.80069" lon="-2.44979">
        <ele>56.8</ele>
        <time>2025-02-11T13:47:20Z</time>
      </trkpt>
      <trkpt lat="47.80069" lon="-2.44977">
        <ele>56.8</ele>
        <time>2025-02-11T13:47:21Z</time>
      </trkpt>
      <trkpt lat="47.80069" lon="-2.44976">
        <ele>56.7</ele>
        <time>2025-02-11T13:47:22Z</time>
      </trkpt>
      <trkpt lat="47.80069" lon="-2.44974">
        <ele>56.6</ele>
        <time>2025-02-11T13:47:23Z</time>
      </trkpt>
      <trkpt lat="47.80069" lon="-2.44972">
        <ele>56.5</ele>
        <time>2025-02-11T13:47:24Z</time>
      </trkpt>
      <trkpt lat="47.80069" lon="-2.4497">
        <ele>56.4</ele>
        <time>2025-02-11T13:47:25Z</time>
      </trkpt>
      <trkpt lat="47.80069" lon="-2.44968">
        <ele>56.3</ele>
        <time>2025-02-11T13:47:26Z</time>
      </trkpt>
      <trkpt lat="47.80069" lon="-2.44967">
        <ele>56.3</ele>
        <time>2025-02-11T13:47:27Z</time>
      </trkpt>
      <trkpt lat="47.80069" lon="-2.44965">
        <ele>56.2</ele>
        <time>2025-02-11T13:47:28Z</time>
      </trkpt>
      <trkpt lat="47.80069" lon="-2.44964">
        <ele>56.2</ele>
        <time>2025-02-11T13:47:29Z</time>
      </trkpt>
      <trkpt lat="47.80069" lon="-2.44962">
        <ele>56.1</ele>
        <time>2025-02-11T13:47:30Z</time>
      </trkpt>
      <trkpt lat="47.80069" lon="-2.4496">
        <ele>56.1</ele>
        <time>2025-02-11T13:47:31Z</time>
      </trkpt>
      <trkpt lat="47.80069" lon="-2.44959">
        <ele>56</ele>
        <time>2025-02-11T13:47:32Z</time>
      </trkpt>
      <trkpt lat="47.80069" lon="-2.44957">
        <ele>56</ele>
        <time>2025-02-11T13:47:33Z</time>
      </trkpt>
      <trkpt lat="47.80069" lon="-2.44955">
        <ele>55.9</ele>
        <time>2025-02-11T13:47:34Z</time>
      </trkpt>
      <trkpt lat="47.80069" lon="-2.44954">
        <ele>55.8</ele>
        <time>2025-02-11T13:47:35Z</time>
      </trkpt>
      <trkpt lat="47.8007" lon="-2.44952">
        <ele>55.8</ele>
        <time>2025-02-11T13:47:36Z</time>
      </trkpt>
      <trkpt lat="47.8007" lon="-2.44951">
        <ele>55.7</ele>
        <time>2025-02-11T13:47:37Z</time>
      </trkpt>
      <trkpt lat="47.8007" lon="-2.44949">
        <ele>55.7</ele>
        <time>2025-02-11T13:47:38Z</time>
      </trkpt>
      <trkpt lat="47.8007" lon="-2.44947">
        <ele>55.6</ele>
        <time>2025-02-11T13:47:39Z</time>
      </trkpt>
      <trkpt lat="47.80071" lon="-2.44946">
        <ele>55.6</ele>
        <time>2025-02-11T13:47:40Z</time>
      </trkpt>
      <trkpt lat="47.80071" lon="-2.44944">
        <ele>55.5</ele>
        <time>2025-02-11T13:47:41Z</time>
      </trkpt>
      <trkpt lat="47.8007" lon="-2.44942">
        <ele>55.4</ele>
        <time>2025-02-11T13:47:42Z</time>
      </trkpt>
      <trkpt lat="47.80071" lon="-2.4494">
        <ele>55.3</ele>
        <time>2025-02-11T13:47:43Z</time>
      </trkpt>
      <trkpt lat="47.80071" lon="-2.44939">
        <ele>55.2</ele>
        <time>2025-02-11T13:47:44Z</time>
      </trkpt>
      <trkpt lat="47.80071" lon="-2.44937">
        <ele>55.1</ele>
        <time>2025-02-11T13:47:45Z</time>
      </trkpt>
      <trkpt lat="47.80071" lon="-2.44935">
        <ele>55</ele>
        <time>2025-02-11T13:47:46Z</time>
      </trkpt>
      <trkpt lat="47.80071" lon="-2.44934">
        <ele>54.9</ele>
        <time>2025-02-11T13:47:47Z</time>
      </trkpt>
      <trkpt lat="47.80071" lon="-2.44932">
        <ele>54.9</ele>
        <time>2025-02-11T13:47:48Z</time>
      </trkpt>
      <trkpt lat="47.80071" lon="-2.44931">
        <ele>54.8</ele>
        <time>2025-02-11T13:47:49Z</time>
      </trkpt>
      <trkpt lat="47.80071" lon="-2.44929">
        <ele>54.7</ele>
        <time>2025-02-11T13:47:50Z</time>
      </trkpt>
      <trkpt lat="47.80072" lon="-2.44927">
        <ele>54.6</ele>
        <time>2025-02-11T13:47:51Z</time>
      </trkpt>
      <trkpt lat="47.80072" lon="-2.44926">
        <ele>54.5</ele>
        <time>2025-02-11T13:47:52Z</time>
      </trkpt>
      <trkpt lat="47.80072" lon="-2.44924">
        <ele>54.4</ele>
        <time>2025-02-11T13:47:53Z</time>
      </trkpt>
      <trkpt lat="47.80072" lon="-2.44923">
        <ele>54.3</ele>
        <time>2025-02-11T13:47:54Z</time>
      </trkpt>
      <trkpt lat="47.80072" lon="-2.44921">
        <ele>54.2</ele>
        <time>2025-02-11T13:47:55Z</time>
      </trkpt>
      <trkpt lat="47.80072" lon="-2.4492">
        <ele>54.2</ele>
        <time>2025-02-11T13:47:56Z</time>
      </trkpt>
      <trkpt lat="47.80072" lon="-2.44918">
        <ele>54.1</ele>
        <time>2025-02-11T13:47:57Z</time>
      </trkpt>
      <trkpt lat="47.80073" lon="-2.44916">
        <ele>54</ele>
        <time>2025-02-11T13:47:58Z</time>
      </trkpt>
      <trkpt lat="47.80073" lon="-2.44915">
        <ele>54</ele>
        <time>2025-02-11T13:47:59Z</time>
      </trkpt>
      <trkpt lat="47.80073" lon="-2.44913">
        <ele>54</ele>
        <time>2025-02-11T13:48:00Z</time>
      </trkpt>
      <trkpt lat="47.80073" lon="-2.44912">
        <ele>54</ele>
        <time>2025-02-11T13:48:01Z</time>
      </trkpt>
      <trkpt lat="47.80073" lon="-2.4491">
        <ele>54</ele>
        <time>2025-02-11T13:48:02Z</time>
      </trkpt>
      <trkpt lat="47.80073" lon="-2.44908">
        <ele>54</ele>
        <time>2025-02-11T13:48:03Z</time>
      </trkpt>
      <trkpt lat="47.80073" lon="-2.44906">
        <ele>54</ele>
        <time>2025-02-11T13:48:04Z</time>
      </trkpt>
      <trkpt lat="47.80073" lon="-2.44905">
        <ele>54</ele>
        <time>2025-02-11T13:48:05Z</time>
      </trkpt>
      <trkpt lat="47.80073" lon="-2.44903">
        <ele>54</ele>
        <time>2025-02-11T13:48:06Z</time>
      </trkpt>
      <trkpt lat="47.80073" lon="-2.44902">
        <ele>54</ele>
        <time>2025-02-11T13:48:07Z</time>
      </trkpt>
      <trkpt lat="47.80073" lon="-2.449">
        <ele>54</ele>
        <time>2025-02-11T13:48:08Z</time>
      </trkpt>
      <trkpt lat="47.80074" lon="-2.44898">
        <ele>54</ele>
        <time>2025-02-11T13:48:09Z</time>
      </trkpt>
      <trkpt lat="47.80073" lon="-2.44897">
        <ele>54</ele>
        <time>2025-02-11T13:48:10Z</time>
      </trkpt>
      <trkpt lat="47.80074" lon="-2.44895">
        <ele>54</ele>
        <time>2025-02-11T13:48:11Z</time>
      </trkpt>
      <trkpt lat="47.80074" lon="-2.44894">
        <ele>54</ele>
        <time>2025-02-11T13:48:12Z</time>
      </trkpt>
      <trkpt lat="47.80074" lon="-2.44892">
        <ele>54</ele>
        <time>2025-02-11T13:48:13Z</time>
      </trkpt>
      <trkpt lat="47.80074" lon="-2.4489">
        <ele>54</ele>
        <time>2025-02-11T13:48:14Z</time>
      </trkpt>
      <trkpt lat="47.80074" lon="-2.44889">
        <ele>54</ele>
        <time>2025-02-11T13:48:15Z</time>
      </trkpt>
      <trkpt lat="47.80074" lon="-2.44887">
        <ele>54</ele>
        <time>2025-02-11T13:48:16Z</time>
      </trkpt>
      <trkpt lat="47.80074" lon="-2.44886">
        <ele>54.1</ele>
        <time>2025-02-11T13:48:17Z</time>
      </trkpt>
      <trkpt lat="47.80074" lon="-2.44884">
        <ele>54.1</ele>
        <time>2025-02-11T13:48:18Z</time>
      </trkpt>
      <trkpt lat="47.80074" lon="-2.44882">
        <ele>54.2</ele>
        <time>2025-02-11T13:48:19Z</time>
      </trkpt>
      <trkpt lat="47.80074" lon="-2.44881">
        <ele>54.2</ele>
        <time>2025-02-11T13:48:20Z</time>
      </trkpt>
      <trkpt lat="47.80074" lon="-2.44879">
        <ele>54.2</ele>
        <time>2025-02-11T13:48:21Z</time>
      </trkpt>
      <trkpt lat="47.80075" lon="-2.44878">
        <ele>54.3</ele>
        <time>2025-02-11T13:48:22Z</time>
      </trkpt>
      <trkpt lat="47.80075" lon="-2.44876">
        <ele>54.3</ele>
        <time>2025-02-11T13:48:23Z</time>
      </trkpt>
      <trkpt lat="47.80075" lon="-2.44874">
        <ele>54.4</ele>
        <time>2025-02-11T13:48:24Z</time>
      </trkpt>
      <trkpt lat="47.80075" lon="-2.44873">
        <ele>54.4</ele>
        <time>2025-02-11T13:48:25Z</time>
      </trkpt>
      <trkpt lat="47.80076" lon="-2.44871">
        <ele>54.5</ele>
        <time>2025-02-11T13:48:26Z</time>
      </trkpt>
      <trkpt lat="47.80076" lon="-2.44869">
        <ele>54.5</ele>
        <time>2025-02-11T13:48:27Z</time>
      </trkpt>
      <trkpt lat="47.80076" lon="-2.44868">
        <ele>54.6</ele>
        <time>2025-02-11T13:48:28Z</time>
      </trkpt>
      <trkpt lat="47.80076" lon="-2.44866">
        <ele>54.6</ele>
        <time>2025-02-11T13:48:29Z</time>
      </trkpt>
      <trkpt lat="47.80076" lon="-2.44864">
        <ele>54.7</ele>
        <time>2025-02-11T13:48:30Z</time>
      </trkpt>
      <trkpt lat="47.80077" lon="-2.44863">
        <ele>54.7</ele>
        <time>2025-02-11T13:48:31Z</time>
      </trkpt>
      <trkpt lat="47.80077" lon="-2.44861">
        <ele>54.8</ele>
        <time>2025-02-11T13:48:32Z</time>
      </trkpt>
      <trkpt lat="47.80077" lon="-2.44859">
        <ele>54.8</ele>
        <time>2025-02-11T13:48:33Z</time>
      </trkpt>
      <trkpt lat="47.80077" lon="-2.44857">
        <ele>54.8</ele>
        <time>2025-02-11T13:48:34Z</time>
      </trkpt>
      <trkpt lat="47.80077" lon="-2.44855">
        <ele>54.8</ele>
        <time>2025-02-11T13:48:35Z</time>
      </trkpt>
      <trkpt lat="47.80076" lon="-2.44854">
        <ele>54.8</ele>
        <time>2025-02-11T13:48:36Z</time>
      </trkpt>
      <trkpt lat="47.80076" lon="-2.44852">
        <ele>54.8</ele>
        <time>2025-02-11T13:48:37Z</time>
      </trkpt>
      <trkpt lat="47.80077" lon="-2.4485">
        <ele>54.9</ele>
        <time>2025-02-11T13:48:38Z</time>
      </trkpt>
      <trkpt lat="47.80077" lon="-2.44849">
        <ele>54.9</ele>
        <time>2025-02-11T13:48:39Z</time>
      </trkpt>
      <trkpt lat="47.80077" lon="-2.44847">
        <ele>54.9</ele>
        <time>2025-02-11T13:48:40Z</time>
      </trkpt>
      <trkpt lat="47.80077" lon="-2.44845">
        <ele>54.9</ele>
        <time>2025-02-11T13:48:41Z</time>
      </trkpt>
      <trkpt lat="47.80077" lon="-2.44844">
        <ele>54.9</ele>
        <time>2025-02-11T13:48:42Z</time>
      </trkpt>
      <trkpt lat="47.80076" lon="-2.44842">
        <ele>54.9</ele>
        <time>2025-02-11T13:48:43Z</time>
      </trkpt>
      <trkpt lat="47.80077" lon="-2.4484">
        <ele>54.9</ele>
        <time>2025-02-11T13:48:44Z</time>
      </trkpt>
      <trkpt lat="47.80077" lon="-2.44838">
        <ele>55</ele>
        <time>2025-02-11T13:48:45Z</time>
      </trkpt>
      <trkpt lat="47.80077" lon="-2.44837">
        <ele>55</ele>
        <time>2025-02-11T13:48:46Z</time>
      </trkpt>
      <trkpt lat="47.80078" lon="-2.44835">
        <ele>55</ele>
        <time>2025-02-11T13:48:47Z</time>
      </trkpt>
      <trkpt lat="47.80078" lon="-2.44833">
        <ele>55</ele>
        <time>2025-02-11T13:48:48Z</time>
      </trkpt>
      <trkpt lat="47.80078" lon="-2.44831">
        <ele>55.1</ele>
        <time>2025-02-11T13:48:49Z</time>
      </trkpt>
      <trkpt lat="47.80078" lon="-2.4483">
        <ele>55.1</ele>
        <time>2025-02-11T13:48:50Z</time>
      </trkpt>
      <trkpt lat="47.80078" lon="-2.44828">
        <ele>55.2</ele>
        <time>2025-02-11T13:48:51Z</time>
      </trkpt>
      <trkpt lat="47.80078" lon="-2.44827">
        <ele>55.2</ele>
        <time>2025-02-11T13:48:52Z</time>
      </trkpt>
      <trkpt lat="47.80078" lon="-2.44825">
        <ele>55.3</ele>
        <time>2025-02-11T13:48:53Z</time>
      </trkpt>
      <trkpt lat="47.80079" lon="-2.44823">
        <ele>55.4</ele>
        <time>2025-02-11T13:48:54Z</time>
      </trkpt>
      <trkpt lat="47.80079" lon="-2.44821">
        <ele>55.4</ele>
        <time>2025-02-11T13:48:55Z</time>
      </trkpt>
      <trkpt lat="47.80078" lon="-2.4482">
        <ele>55.5</ele>
        <time>2025-02-11T13:48:56Z</time>
      </trkpt>
      <trkpt lat="47.80078" lon="-2.44818">
        <ele>55.6</ele>
        <time>2025-02-11T13:48:57Z</time>
      </trkpt>
      <trkpt lat="47.80078" lon="-2.44816">
        <ele>55.6</ele>
        <time>2025-02-11T13:48:58Z</time>
      </trkpt>
      <trkpt lat="47.80078" lon="-2.44814">
        <ele>55.7</ele>
        <time>2025-02-11T13:48:59Z</time>
      </trkpt>
      <trkpt lat="47.80078" lon="-2.44812">
        <ele>55.8</ele>
        <time>2025-02-11T13:49:00Z</time>
      </trkpt>
      <trkpt lat="47.80078" lon="-2.44811">
        <ele>55.8</ele>
        <time>2025-02-11T13:49:01Z</time>
      </trkpt>
      <trkpt lat="47.80078" lon="-2.44809">
        <ele>55.9</ele>
        <time>2025-02-11T13:49:02Z</time>
      </trkpt>
      <trkpt lat="47.80078" lon="-2.44807">
        <ele>55.9</ele>
        <time>2025-02-11T13:49:03Z</time>
      </trkpt>
      <trkpt lat="47.80078" lon="-2.44806">
        <ele>56</ele>
        <time>2025-02-11T13:49:04Z</time>
      </trkpt>
      <trkpt lat="47.80078" lon="-2.44804">
        <ele>56.1</ele>
        <time>2025-02-11T13:49:05Z</time>
      </trkpt>
      <trkpt lat="47.80078" lon="-2.44802">
        <ele>56.1</ele>
        <time>2025-02-11T13:49:06Z</time>
      </trkpt>
      <trkpt lat="47.80078" lon="-2.44801">
        <ele>56.2</ele>
        <time>2025-02-11T13:49:07Z</time>
      </trkpt>
      <trkpt lat="47.80079" lon="-2.44799">
        <ele>56.3</ele>
        <time>2025-02-11T13:49:08Z</time>
      </trkpt>
      <trkpt lat="47.80079" lon="-2.44797">
        <ele>56.3</ele>
        <time>2025-02-11T13:49:09Z</time>
      </trkpt>
      <trkpt lat="47.80079" lon="-2.44796">
        <ele>56.4</ele>
        <time>2025-02-11T13:49:10Z</time>
      </trkpt>
      <trkpt lat="47.80079" lon="-2.44794">
        <ele>56.5</ele>
        <time>2025-02-11T13:49:11Z</time>
      </trkpt>
      <trkpt lat="47.80079" lon="-2.44792">
        <ele>56.6</ele>
        <time>2025-02-11T13:49:12Z</time>
      </trkpt>
      <trkpt lat="47.80079" lon="-2.44791">
        <ele>56.6</ele>
        <time>2025-02-11T13:49:13Z</time>
      </trkpt>
      <trkpt lat="47.80079" lon="-2.44789">
        <ele>56.7</ele>
        <time>2025-02-11T13:49:14Z</time>
      </trkpt>
      <trkpt lat="47.80078" lon="-2.44787">
        <ele>56.8</ele>
        <time>2025-02-11T13:49:15Z</time>
      </trkpt>
      <trkpt lat="47.80078" lon="-2.44785">
        <ele>56.9</ele>
        <time>2025-02-11T13:49:16Z</time>
      </trkpt>
      <trkpt lat="47.80078" lon="-2.44784">
        <ele>56.9</ele>
        <time>2025-02-11T13:49:17Z</time>
      </trkpt>
      <trkpt lat="47.80078" lon="-2.44782">
        <ele>57</ele>
        <time>2025-02-11T13:49:18Z</time>
      </trkpt>
      <trkpt lat="47.80078" lon="-2.44781">
        <ele>57.1</ele>
        <time>2025-02-11T13:49:19Z</time>
      </trkpt>
      <trkpt lat="47.80078" lon="-2.44779">
        <ele>57.2</ele>
        <time>2025-02-11T13:49:20Z</time>
      </trkpt>
      <trkpt lat="47.80078" lon="-2.44778">
        <ele>57.2</ele>
        <time>2025-02-11T13:49:21Z</time>
      </trkpt>
      <trkpt lat="47.80078" lon="-2.44776">
        <ele>57.3</ele>
        <time>2025-02-11T13:49:22Z</time>
      </trkpt>
      <trkpt lat="47.80077" lon="-2.44775">
        <ele>57.4</ele>
        <time>2025-02-11T13:49:23Z</time>
      </trkpt>
      <trkpt lat="47.80077" lon="-2.44773">
        <ele>57.6</ele>
        <time>2025-02-11T13:49:24Z</time>
      </trkpt>
      <trkpt lat="47.80077" lon="-2.44772">
        <ele>57.6</ele>
        <time>2025-02-11T13:49:25Z</time>
      </trkpt>
      <trkpt lat="47.80077" lon="-2.44771">
        <ele>57.7</ele>
        <time>2025-02-11T13:49:26Z</time>
      </trkpt>
      <trkpt lat="47.80077" lon="-2.4477">
        <ele>57.8</ele>
        <time>2025-02-11T13:49:27Z</time>
      </trkpt>
      <trkpt lat="47.80077" lon="-2.44769">
        <ele>57.9</ele>
        <time>2025-02-11T13:49:28Z</time>
      </trkpt>
      <trkpt lat="47.80077" lon="-2.44769">
        <ele>57.8</ele>
        <time>2025-02-11T13:49:29Z</time>
      </trkpt>
      <trkpt lat="47.80077" lon="-2.4477">
        <ele>57.8</ele>
        <time>2025-02-11T13:49:30Z</time>
      </trkpt>
      <trkpt lat="47.80076" lon="-2.44769">
        <ele>57.9</ele>
        <time>2025-02-11T13:49:31Z</time>
      </trkpt>
      <trkpt lat="47.80075" lon="-2.44769">
        <ele>57.9</ele>
        <time>2025-02-11T13:49:32Z</time>
      </trkpt>
      <trkpt lat="47.80074" lon="-2.44769">
        <ele>58</ele>
        <time>2025-02-11T13:49:33Z</time>
      </trkpt>
      <trkpt lat="47.80074" lon="-2.44768">
        <ele>58</ele>
        <time>2025-02-11T13:49:34Z</time>
      </trkpt>
      <trkpt lat="47.80073" lon="-2.44768">
        <ele>58.1</ele>
        <time>2025-02-11T13:49:35Z</time>
      </trkpt>
      <trkpt lat="47.80073" lon="-2.44768">
        <ele>58.1</ele>
        <time>2025-02-11T13:49:36Z</time>
      </trkpt>
      <trkpt lat="47.80073" lon="-2.44767">
        <ele>58.1</ele>
        <time>2025-02-11T13:49:37Z</time>
      </trkpt>
      <trkpt lat="47.80073" lon="-2.44767">
        <ele>58.2</ele>
        <time>2025-02-11T13:49:38Z</time>
      </trkpt>
      <trkpt lat="47.80072" lon="-2.44767">
        <ele>58.2</ele>
        <time>2025-02-11T13:49:39Z</time>
      </trkpt>
      <trkpt lat="47.80071" lon="-2.44768">
        <ele>58.2</ele>
        <time>2025-02-11T13:49:40Z</time>
      </trkpt>
      <trkpt lat="47.8007" lon="-2.44769">
        <ele>58.2</ele>
        <time>2025-02-11T13:49:41Z</time>
      </trkpt>
      <trkpt lat="47.80069" lon="-2.44769">
        <ele>58.2</ele>
        <time>2025-02-11T13:49:42Z</time>
      </trkpt>
      <trkpt lat="47.80067" lon="-2.44769">
        <ele>58.2</ele>
        <time>2025-02-11T13:49:43Z</time>
      </trkpt>
      <trkpt lat="47.80066" lon="-2.44769">
        <ele>58.2</ele>
        <time>2025-02-11T13:49:44Z</time>
      </trkpt>
      <trkpt lat="47.80065" lon="-2.4477">
        <ele>58.2</ele>
        <time>2025-02-11T13:49:45Z</time>
      </trkpt>
      <trkpt lat="47.80064" lon="-2.44771">
        <ele>58.2</ele>
        <time>2025-02-11T13:49:46Z</time>
      </trkpt>
      <trkpt lat="47.80063" lon="-2.44772">
        <ele>58.2</ele>
        <time>2025-02-11T13:49:47Z</time>
      </trkpt>
      <trkpt lat="47.80062" lon="-2.44773">
        <ele>58.2</ele>
        <time>2025-02-11T13:49:48Z</time>
      </trkpt>
      <trkpt lat="47.80061" lon="-2.44773">
        <ele>58.1</ele>
        <time>2025-02-11T13:49:49Z</time>
      </trkpt>
      <trkpt lat="47.8006" lon="-2.44774">
        <ele>58.1</ele>
        <time>2025-02-11T13:49:50Z</time>
      </trkpt>
      <trkpt lat="47.80059" lon="-2.44775">
        <ele>58.1</ele>
        <time>2025-02-11T13:49:51Z</time>
      </trkpt>
      <trkpt lat="47.80058" lon="-2.44775">
        <ele>58.1</ele>
        <time>2025-02-11T13:49:52Z</time>
      </trkpt>
      <trkpt lat="47.80057" lon="-2.44777">
        <ele>58</ele>
        <time>2025-02-11T13:49:53Z</time>
      </trkpt>
      <trkpt lat="47.80056" lon="-2.44778">
        <ele>58</ele>
        <time>2025-02-11T13:49:54Z</time>
      </trkpt>
      <trkpt lat="47.80056" lon="-2.44778">
        <ele>58</ele>
        <time>2025-02-11T13:49:55Z</time>
      </trkpt>
      <trkpt lat="47.80055" lon="-2.44778">
        <ele>58</ele>
        <time>2025-02-11T13:49:56Z</time>
      </trkpt>
      <trkpt lat="47.80054" lon="-2.44778">
        <ele>58.1</ele>
        <time>2025-02-11T13:49:57Z</time>
      </trkpt>
      <trkpt lat="47.80054" lon="-2.44778">
        <ele>58.1</ele>
        <time>2025-02-11T13:49:58Z</time>
      </trkpt>
      <trkpt lat="47.80053" lon="-2.44779">
        <ele>58.1</ele>
        <time>2025-02-11T13:49:59Z</time>
      </trkpt>
      <trkpt lat="47.80053" lon="-2.4478">
        <ele>58.1</ele>
        <time>2025-02-11T13:50:00Z</time>
      </trkpt>
      <trkpt lat="47.80052" lon="-2.44781">
        <ele>58</ele>
        <time>2025-02-11T13:50:01Z</time>
      </trkpt>
      <trkpt lat="47.80052" lon="-2.44782">
        <ele>58</ele>
        <time>2025-02-11T13:50:02Z</time>
      </trkpt>
      <trkpt lat="47.80051" lon="-2.44782">
        <ele>57.9</ele>
        <time>2025-02-11T13:50:03Z</time>
      </trkpt>
      <trkpt lat="47.80051" lon="-2.44783">
        <ele>57.9</ele>
        <time>2025-02-11T13:50:04Z</time>
      </trkpt>
      <trkpt lat="47.8005" lon="-2.44784">
        <ele>57.9</ele>
        <time>2025-02-11T13:50:05Z</time>
      </trkpt>
      <trkpt lat="47.80049" lon="-2.44784">
        <ele>57.9</ele>
        <time>2025-02-11T13:50:06Z</time>
      </trkpt>
      <trkpt lat="47.80048" lon="-2.44785">
        <ele>57.9</ele>
        <time>2025-02-11T13:50:07Z</time>
      </trkpt>
      <trkpt lat="47.80047" lon="-2.44785">
        <ele>57.9</ele>
        <time>2025-02-11T13:50:08Z</time>
      </trkpt>
      <trkpt lat="47.80046" lon="-2.44786">
        <ele>57.9</ele>
        <time>2025-02-11T13:50:09Z</time>
      </trkpt>
      <trkpt lat="47.80045" lon="-2.44786">
        <ele>57.9</ele>
        <time>2025-02-11T13:50:10Z</time>
      </trkpt>
      <trkpt lat="47.80044" lon="-2.44787">
        <ele>57.9</ele>
        <time>2025-02-11T13:50:11Z</time>
      </trkpt>
      <trkpt lat="47.80043" lon="-2.44788">
        <ele>57.9</ele>
        <time>2025-02-11T13:50:12Z</time>
      </trkpt>
      <trkpt lat="47.80042" lon="-2.44788">
        <ele>57.9</ele>
        <time>2025-02-11T13:50:13Z</time>
      </trkpt>
      <trkpt lat="47.80042" lon="-2.44789">
        <ele>57.8</ele>
        <time>2025-02-11T13:50:14Z</time>
      </trkpt>
      <trkpt lat="47.8004" lon="-2.44789">
        <ele>57.8</ele>
        <time>2025-02-11T13:50:15Z</time>
      </trkpt>
      <trkpt lat="47.8004" lon="-2.4479">
        <ele>57.7</ele>
        <time>2025-02-11T13:50:16Z</time>
      </trkpt>
      <trkpt lat="47.80039" lon="-2.44791">
        <ele>57.6</ele>
        <time>2025-02-11T13:50:17Z</time>
      </trkpt>
      <trkpt lat="47.80038" lon="-2.44792">
        <ele>57.6</ele>
        <time>2025-02-11T13:50:18Z</time>
      </trkpt>
      <trkpt lat="47.80037" lon="-2.44793">
        <ele>57.5</ele>
        <time>2025-02-11T13:50:19Z</time>
      </trkpt>
      <trkpt lat="47.80036" lon="-2.44794">
        <ele>57.4</ele>
        <time>2025-02-11T13:50:20Z</time>
      </trkpt>
      <trkpt lat="47.80035" lon="-2.44795">
        <ele>57.3</ele>
        <time>2025-02-11T13:50:21Z</time>
      </trkpt>
      <trkpt lat="47.80034" lon="-2.44796">
        <ele>57.2</ele>
        <time>2025-02-11T13:50:22Z</time>
      </trkpt>
      <trkpt lat="47.80033" lon="-2.44798">
        <ele>57.1</ele>
        <time>2025-02-11T13:50:23Z</time>
      </trkpt>
      <trkpt lat="47.80032" lon="-2.44798">
        <ele>57</ele>
        <time>2025-02-11T13:50:24Z</time>
      </trkpt>
      <trkpt lat="47.80031" lon="-2.448">
        <ele>56.8</ele>
        <time>2025-02-11T13:50:25Z</time>
      </trkpt>
      <trkpt lat="47.8003" lon="-2.44801">
        <ele>56.7</ele>
        <time>2025-02-11T13:50:26Z</time>
      </trkpt>
      <trkpt lat="47.80028" lon="-2.44801">
        <ele>56.7</ele>
        <time>2025-02-11T13:50:27Z</time>
      </trkpt>
      <trkpt lat="47.80027" lon="-2.44802">
        <ele>56.6</ele>
        <time>2025-02-11T13:50:28Z</time>
      </trkpt>
      <trkpt lat="47.80026" lon="-2.44803">
        <ele>56.6</ele>
        <time>2025-02-11T13:50:29Z</time>
      </trkpt>
      <trkpt lat="47.80025" lon="-2.44804">
        <ele>56.5</ele>
        <time>2025-02-11T13:50:30Z</time>
      </trkpt>
      <trkpt lat="47.80024" lon="-2.44805">
        <ele>56.5</ele>
        <time>2025-02-11T13:50:31Z</time>
      </trkpt>
      <trkpt lat="47.80023" lon="-2.44806">
        <ele>56.5</ele>
        <time>2025-02-11T13:50:32Z</time>
      </trkpt>
      <trkpt lat="47.80022" lon="-2.44806">
        <ele>56.6</ele>
        <time>2025-02-11T13:50:33Z</time>
      </trkpt>
      <trkpt lat="47.80021" lon="-2.44808">
        <ele>56.6</ele>
        <time>2025-02-11T13:50:34Z</time>
      </trkpt>
      <trkpt lat="47.8002" lon="-2.44808">
        <ele>56.7</ele>
        <time>2025-02-11T13:50:35Z</time>
      </trkpt>
      <trkpt lat="47.80019" lon="-2.4481">
        <ele>56.7</ele>
        <time>2025-02-11T13:50:36Z</time>
      </trkpt>
      <trkpt lat="47.80018" lon="-2.44811">
        <ele>56.7</ele>
        <time>2025-02-11T13:50:37Z</time>
      </trkpt>
      <trkpt lat="47.80017" lon="-2.44811">
        <ele>56.7</ele>
        <time>2025-02-11T13:50:38Z</time>
      </trkpt>
      <trkpt lat="47.80016" lon="-2.44812">
        <ele>56.8</ele>
        <time>2025-02-11T13:50:39Z</time>
      </trkpt>
      <trkpt lat="47.80015" lon="-2.44813">
        <ele>56.8</ele>
        <time>2025-02-11T13:50:40Z</time>
      </trkpt>
      <trkpt lat="47.80014" lon="-2.44814">
        <ele>56.7</ele>
        <time>2025-02-11T13:50:41Z</time>
      </trkpt>
      <trkpt lat="47.80013" lon="-2.44815">
        <ele>56.8</ele>
        <time>2025-02-11T13:50:42Z</time>
      </trkpt>
      <trkpt lat="47.80012" lon="-2.44815">
        <ele>56.8</ele>
        <time>2025-02-11T13:50:43Z</time>
      </trkpt>
      <trkpt lat="47.80011" lon="-2.44817">
        <ele>56.7</ele>
        <time>2025-02-11T13:50:44Z</time>
      </trkpt>
      <trkpt lat="47.8001" lon="-2.44818">
        <ele>56.7</ele>
        <time>2025-02-11T13:50:45Z</time>
      </trkpt>
      <trkpt lat="47.80009" lon="-2.44818">
        <ele>56.7</ele>
        <time>2025-02-11T13:50:46Z</time>
      </trkpt>
      <trkpt lat="47.80008" lon="-2.44819">
        <ele>56.6</ele>
        <time>2025-02-11T13:50:47Z</time>
      </trkpt>
      <trkpt lat="47.80006" lon="-2.4482">
        <ele>56.6</ele>
        <time>2025-02-11T13:50:48Z</time>
      </trkpt>
      <trkpt lat="47.80005" lon="-2.44821">
        <ele>56.5</ele>
        <time>2025-02-11T13:50:49Z</time>
      </trkpt>
      <trkpt lat="47.80004" lon="-2.44822">
        <ele>56.4</ele>
        <time>2025-02-11T13:50:50Z</time>
      </trkpt>
      <trkpt lat="47.80003" lon="-2.44823">
        <ele>56.3</ele>
        <time>2025-02-11T13:50:51Z</time>
      </trkpt>
      <trkpt lat="47.80002" lon="-2.44824">
        <ele>56.3</ele>
        <time>2025-02-11T13:50:52Z</time>
      </trkpt>
      <trkpt lat="47.80001" lon="-2.44825">
        <ele>56.2</ele>
        <time>2025-02-11T13:50:53Z</time>
      </trkpt>
      <trkpt lat="47.8" lon="-2.44826">
        <ele>56</ele>
        <time>2025-02-11T13:50:54Z</time>
      </trkpt>
      <trkpt lat="47.79999" lon="-2.44827">
        <ele>55.9</ele>
        <time>2025-02-11T13:50:55Z</time>
      </trkpt>
      <trkpt lat="47.79998" lon="-2.44829">
        <ele>55.8</ele>
        <time>2025-02-11T13:50:56Z</time>
      </trkpt>
      <trkpt lat="47.79997" lon="-2.4483">
        <ele>55.7</ele>
        <time>2025-02-11T13:50:57Z</time>
      </trkpt>
      <trkpt lat="47.79996" lon="-2.44831">
        <ele>55.7</ele>
        <time>2025-02-11T13:50:58Z</time>
      </trkpt>
      <trkpt lat="47.79995" lon="-2.44831">
        <ele>55.7</ele>
        <time>2025-02-11T13:50:59Z</time>
      </trkpt>
      <trkpt lat="47.79994" lon="-2.44832">
        <ele>55.6</ele>
        <time>2025-02-11T13:51:00Z</time>
      </trkpt>
      <trkpt lat="47.79993" lon="-2.44833">
        <ele>55.6</ele>
        <time>2025-02-11T13:51:01Z</time>
      </trkpt>
      <trkpt lat="47.79992" lon="-2.44834">
        <ele>55.6</ele>
        <time>2025-02-11T13:51:02Z</time>
      </trkpt>
      <trkpt lat="47.79991" lon="-2.44834">
        <ele>55.6</ele>
        <time>2025-02-11T13:51:03Z</time>
      </trkpt>
      <trkpt lat="47.79989" lon="-2.44836">
        <ele>55.5</ele>
        <time>2025-02-11T13:51:04Z</time>
      </trkpt>
      <trkpt lat="47.79988" lon="-2.44837">
        <ele>55.4</ele>
        <time>2025-02-11T13:51:05Z</time>
      </trkpt>
      <trkpt lat="47.79987" lon="-2.44839">
        <ele>55.4</ele>
        <time>2025-02-11T13:51:06Z</time>
      </trkpt>
      <trkpt lat="47.79986" lon="-2.4484">
        <ele>55.3</ele>
        <time>2025-02-11T13:51:07Z</time>
      </trkpt>
      <trkpt lat="47.79985" lon="-2.4484">
        <ele>55.3</ele>
        <time>2025-02-11T13:51:08Z</time>
      </trkpt>
      <trkpt lat="47.79984" lon="-2.44841">
        <ele>55.3</ele>
        <time>2025-02-11T13:51:09Z</time>
      </trkpt>
      <trkpt lat="47.79983" lon="-2.44841">
        <ele>55.3</ele>
        <time>2025-02-11T13:51:10Z</time>
      </trkpt>
      <trkpt lat="47.79982" lon="-2.44842">
        <ele>55.3</ele>
        <time>2025-02-11T13:51:11Z</time>
      </trkpt>
      <trkpt lat="47.79981" lon="-2.44843">
        <ele>55.2</ele>
        <time>2025-02-11T13:51:12Z</time>
      </trkpt>
      <trkpt lat="47.7998" lon="-2.44843">
        <ele>55.3</ele>
        <time>2025-02-11T13:51:13Z</time>
      </trkpt>
      <trkpt lat="47.79979" lon="-2.44844">
        <ele>55.2</ele>
        <time>2025-02-11T13:51:14Z</time>
      </trkpt>
      <trkpt lat="47.79978" lon="-2.44845">
        <ele>55.1</ele>
        <time>2025-02-11T13:51:15Z</time>
      </trkpt>
      <trkpt lat="47.79976" lon="-2.44846">
        <ele>55</ele>
        <time>2025-02-11T13:51:16Z</time>
      </trkpt>
      <trkpt lat="47.79975" lon="-2.44847">
        <ele>54.9</ele>
        <time>2025-02-11T13:51:17Z</time>
      </trkpt>
      <trkpt lat="47.79974" lon="-2.44848">
        <ele>54.8</ele>
        <time>2025-02-11T13:51:18Z</time>
      </trkpt>
      <trkpt lat="47.79973" lon="-2.44848">
        <ele>54.8</ele>
        <time>2025-02-11T13:51:19Z</time>
      </trkpt>
      <trkpt lat="47.79972" lon="-2.44849">
        <ele>54.7</ele>
        <time>2025-02-11T13:51:20Z</time>
      </trkpt>
      <trkpt lat="47.79971" lon="-2.4485">
        <ele>54.7</ele>
        <time>2025-02-11T13:51:21Z</time>
      </trkpt>
      <trkpt lat="47.7997" lon="-2.44851">
        <ele>54.6</ele>
        <time>2025-02-11T13:51:22Z</time>
      </trkpt>
      <trkpt lat="47.79969" lon="-2.44852">
        <ele>54.6</ele>
        <time>2025-02-11T13:51:23Z</time>
      </trkpt>
      <trkpt lat="47.79969" lon="-2.44853">
        <ele>54.5</ele>
        <time>2025-02-11T13:51:24Z</time>
      </trkpt>
      <trkpt lat="47.79968" lon="-2.44854">
        <ele>54.4</ele>
        <time>2025-02-11T13:51:25Z</time>
      </trkpt>
      <trkpt lat="47.79967" lon="-2.44855">
        <ele>54.3</ele>
        <time>2025-02-11T13:51:26Z</time>
      </trkpt>
      <trkpt lat="47.79966" lon="-2.44856">
        <ele>54.2</ele>
        <time>2025-02-11T13:51:27Z</time>
      </trkpt>
      <trkpt lat="47.79964" lon="-2.44857">
        <ele>54.3</ele>
        <time>2025-02-11T13:51:28Z</time>
      </trkpt>
      <trkpt lat="47.79963" lon="-2.44857">
        <ele>54.3</ele>
        <time>2025-02-11T13:51:29Z</time>
      </trkpt>
      <trkpt lat="47.79962" lon="-2.44858">
        <ele>54.2</ele>
        <time>2025-02-11T13:51:30Z</time>
      </trkpt>
      <trkpt lat="47.79961" lon="-2.44859">
        <ele>54.2</ele>
        <time>2025-02-11T13:51:31Z</time>
      </trkpt>
      <trkpt lat="47.79959" lon="-2.4486">
        <ele>54.2</ele>
        <time>2025-02-11T13:51:32Z</time>
      </trkpt>
      <trkpt lat="47.79958" lon="-2.4486">
        <ele>54.2</ele>
        <time>2025-02-11T13:51:33Z</time>
      </trkpt>
      <trkpt lat="47.79957" lon="-2.44861">
        <ele>54.1</ele>
        <time>2025-02-11T13:51:34Z</time>
      </trkpt>
      <trkpt lat="47.79956" lon="-2.44863">
        <ele>53.9</ele>
        <time>2025-02-11T13:51:35Z</time>
      </trkpt>
      <trkpt lat="47.79955" lon="-2.44864">
        <ele>53.8</ele>
        <time>2025-02-11T13:51:36Z</time>
      </trkpt>
      <trkpt lat="47.79954" lon="-2.44865">
        <ele>53.7</ele>
        <time>2025-02-11T13:51:37Z</time>
      </trkpt>
      <trkpt lat="47.79953" lon="-2.44866">
        <ele>53.6</ele>
        <time>2025-02-11T13:51:38Z</time>
      </trkpt>
      <trkpt lat="47.79952" lon="-2.44867">
        <ele>53.5</ele>
        <time>2025-02-11T13:51:39Z</time>
      </trkpt>
      <trkpt lat="47.79951" lon="-2.44868">
        <ele>53.4</ele>
        <time>2025-02-11T13:51:40Z</time>
      </trkpt>
      <trkpt lat="47.7995" lon="-2.44869">
        <ele>53.3</ele>
        <time>2025-02-11T13:51:41Z</time>
      </trkpt>
      <trkpt lat="47.79949" lon="-2.4487">
        <ele>53.2</ele>
        <time>2025-02-11T13:51:42Z</time>
      </trkpt>
      <trkpt lat="47.79948" lon="-2.44871">
        <ele>53</ele>
        <time>2025-02-11T13:51:43Z</time>
      </trkpt>
      <trkpt lat="47.79947" lon="-2.44872">
        <ele>53</ele>
        <time>2025-02-11T13:51:44Z</time>
      </trkpt>
      <trkpt lat="47.79946" lon="-2.44873">
        <ele>52.8</ele>
        <time>2025-02-11T13:51:45Z</time>
      </trkpt>
      <trkpt lat="47.79945" lon="-2.44873">
        <ele>52.8</ele>
        <time>2025-02-11T13:51:46Z</time>
      </trkpt>
      <trkpt lat="47.79944" lon="-2.44874">
        <ele>52.8</ele>
        <time>2025-02-11T13:51:47Z</time>
      </trkpt>
      <trkpt lat="47.79942" lon="-2.44875">
        <ele>52.8</ele>
        <time>2025-02-11T13:51:48Z</time>
      </trkpt>
      <trkpt lat="47.79941" lon="-2.44875">
        <ele>52.9</ele>
        <time>2025-02-11T13:51:49Z</time>
      </trkpt>
      <trkpt lat="47.7994" lon="-2.44875">
        <ele>53.1</ele>
        <time>2025-02-11T13:51:50Z</time>
      </trkpt>
      <trkpt lat="47.79939" lon="-2.44876">
        <ele>53.1</ele>
        <time>2025-02-11T13:51:51Z</time>
      </trkpt>
      <trkpt lat="47.79938" lon="-2.44877">
        <ele>53.2</ele>
        <time>2025-02-11T13:51:52Z</time>
      </trkpt>
      <trkpt lat="47.79937" lon="-2.44877">
        <ele>53.2</ele>
        <time>2025-02-11T13:51:53Z</time>
      </trkpt>
      <trkpt lat="47.79936" lon="-2.44879">
        <ele>53.1</ele>
        <time>2025-02-11T13:51:54Z</time>
      </trkpt>
      <trkpt lat="47.79935" lon="-2.4488">
        <ele>53</ele>
        <time>2025-02-11T13:51:55Z</time>
      </trkpt>
      <trkpt lat="47.79934" lon="-2.44881">
        <ele>53</ele>
        <time>2025-02-11T13:51:56Z</time>
      </trkpt>
      <trkpt lat="47.79933" lon="-2.44882">
        <ele>52.9</ele>
        <time>2025-02-11T13:51:57Z</time>
      </trkpt>
      <trkpt lat="47.79932" lon="-2.44883">
        <ele>52.8</ele>
        <time>2025-02-11T13:51:58Z</time>
      </trkpt>
      <trkpt lat="47.79931" lon="-2.44883">
        <ele>52.9</ele>
        <time>2025-02-11T13:51:59Z</time>
      </trkpt>
      <trkpt lat="47.7993" lon="-2.44884">
        <ele>53</ele>
        <time>2025-02-11T13:52:00Z</time>
      </trkpt>
      <trkpt lat="47.79929" lon="-2.44885">
        <ele>53</ele>
        <time>2025-02-11T13:52:01Z</time>
      </trkpt>
      <trkpt lat="47.79928" lon="-2.44885">
        <ele>53.1</ele>
        <time>2025-02-11T13:52:02Z</time>
      </trkpt>
      <trkpt lat="47.79927" lon="-2.44886">
        <ele>53</ele>
        <time>2025-02-11T13:52:03Z</time>
      </trkpt>
      <trkpt lat="47.79926" lon="-2.44888">
        <ele>53</ele>
        <time>2025-02-11T13:52:04Z</time>
      </trkpt>
      <trkpt lat="47.79925" lon="-2.44888">
        <ele>52.9</ele>
        <time>2025-02-11T13:52:05Z</time>
      </trkpt>
      <trkpt lat="47.79924" lon="-2.4489">
        <ele>52.9</ele>
        <time>2025-02-11T13:52:06Z</time>
      </trkpt>
      <trkpt lat="47.79923" lon="-2.44891">
        <ele>52.8</ele>
        <time>2025-02-11T13:52:07Z</time>
      </trkpt>
      <trkpt lat="47.79922" lon="-2.44892">
        <ele>52.8</ele>
        <time>2025-02-11T13:52:08Z</time>
      </trkpt>
      <trkpt lat="47.7992" lon="-2.44893">
        <ele>52.9</ele>
        <time>2025-02-11T13:52:09Z</time>
      </trkpt>
      <trkpt lat="47.79919" lon="-2.44893">
        <ele>52.9</ele>
        <time>2025-02-11T13:52:10Z</time>
      </trkpt>
      <trkpt lat="47.79918" lon="-2.44894">
        <ele>53</ele>
        <time>2025-02-11T13:52:11Z</time>
      </trkpt>
      <trkpt lat="47.79917" lon="-2.44895">
        <ele>52.9</ele>
        <time>2025-02-11T13:52:12Z</time>
      </trkpt>
      <trkpt lat="47.79916" lon="-2.44896">
        <ele>52.9</ele>
        <time>2025-02-11T13:52:13Z</time>
      </trkpt>
      <trkpt lat="47.79914" lon="-2.44896">
        <ele>52.9</ele>
        <time>2025-02-11T13:52:14Z</time>
      </trkpt>
      <trkpt lat="47.79913" lon="-2.44897">
        <ele>52.9</ele>
        <time>2025-02-11T13:52:15Z</time>
      </trkpt>
      <trkpt lat="47.79912" lon="-2.44898">
        <ele>52.8</ele>
        <time>2025-02-11T13:52:16Z</time>
      </trkpt>
      <trkpt lat="47.79911" lon="-2.44899">
        <ele>52.8</ele>
        <time>2025-02-11T13:52:17Z</time>
      </trkpt>
      <trkpt lat="47.7991" lon="-2.449">
        <ele>52.7</ele>
        <time>2025-02-11T13:52:18Z</time>
      </trkpt>
      <trkpt lat="47.79909" lon="-2.44901">
        <ele>52.7</ele>
        <time>2025-02-11T13:52:19Z</time>
      </trkpt>
      <trkpt lat="47.79907" lon="-2.44902">
        <ele>52.7</ele>
        <time>2025-02-11T13:52:20Z</time>
      </trkpt>
      <trkpt lat="47.79906" lon="-2.44902">
        <ele>52.8</ele>
        <time>2025-02-11T13:52:21Z</time>
      </trkpt>
      <trkpt lat="47.79905" lon="-2.44903">
        <ele>52.8</ele>
        <time>2025-02-11T13:52:22Z</time>
      </trkpt>
      <trkpt lat="47.79903" lon="-2.44903">
        <ele>52.8</ele>
        <time>2025-02-11T13:52:23Z</time>
      </trkpt>
      <trkpt lat="47.79902" lon="-2.44904">
        <ele>52.8</ele>
        <time>2025-02-11T13:52:24Z</time>
      </trkpt>
      <trkpt lat="47.79901" lon="-2.44905">
        <ele>52.7</ele>
        <time>2025-02-11T13:52:25Z</time>
      </trkpt>
      <trkpt lat="47.799" lon="-2.44906">
        <ele>52.8</ele>
        <time>2025-02-11T13:52:26Z</time>
      </trkpt>
      <trkpt lat="47.79899" lon="-2.44906">
        <ele>52.8</ele>
        <time>2025-02-11T13:52:27Z</time>
      </trkpt>
      <trkpt lat="47.79898" lon="-2.44907">
        <ele>52.7</ele>
        <time>2025-02-11T13:52:28Z</time>
      </trkpt>
      <trkpt lat="47.79897" lon="-2.44908">
        <ele>52.7</ele>
        <time>2025-02-11T13:52:29Z</time>
      </trkpt>
      <trkpt lat="47.79896" lon="-2.44909">
        <ele>52.7</ele>
        <time>2025-02-11T13:52:30Z</time>
      </trkpt>
      <trkpt lat="47.79895" lon="-2.44909">
        <ele>52.7</ele>
        <time>2025-02-11T13:52:31Z</time>
      </trkpt>
      <trkpt lat="47.79894" lon="-2.4491">
        <ele>52.7</ele>
        <time>2025-02-11T13:52:32Z</time>
      </trkpt>
      <trkpt lat="47.79893" lon="-2.44911">
        <ele>52.7</ele>
        <time>2025-02-11T13:52:33Z</time>
      </trkpt>
      <trkpt lat="47.79892" lon="-2.44912">
        <ele>52.6</ele>
        <time>2025-02-11T13:52:34Z</time>
      </trkpt>
      <trkpt lat="47.79891" lon="-2.44913">
        <ele>52.5</ele>
        <time>2025-02-11T13:52:35Z</time>
      </trkpt>
      <trkpt lat="47.7989" lon="-2.44914">
        <ele>52.3</ele>
        <time>2025-02-11T13:52:36Z</time>
      </trkpt>
      <trkpt lat="47.79888" lon="-2.44916">
        <ele>52.2</ele>
        <time>2025-02-11T13:52:37Z</time>
      </trkpt>
      <trkpt lat="47.79887" lon="-2.44917">
        <ele>52.2</ele>
        <time>2025-02-11T13:52:38Z</time>
      </trkpt>
      <trkpt lat="47.79886" lon="-2.44918">
        <ele>52.1</ele>
        <time>2025-02-11T13:52:39Z</time>
      </trkpt>
      <trkpt lat="47.79885" lon="-2.44919">
        <ele>52</ele>
        <time>2025-02-11T13:52:40Z</time>
      </trkpt>
      <trkpt lat="47.79883" lon="-2.4492">
        <ele>52.1</ele>
        <time>2025-02-11T13:52:41Z</time>
      </trkpt>
      <trkpt lat="47.79882" lon="-2.4492">
        <ele>52.2</ele>
        <time>2025-02-11T13:52:42Z</time>
      </trkpt>
      <trkpt lat="47.79881" lon="-2.44921">
        <ele>52.2</ele>
        <time>2025-02-11T13:52:43Z</time>
      </trkpt>
      <trkpt lat="47.7988" lon="-2.44922">
        <ele>52.1</ele>
        <time>2025-02-11T13:52:44Z</time>
      </trkpt>
      <trkpt lat="47.79879" lon="-2.44923">
        <ele>52.1</ele>
        <time>2025-02-11T13:52:45Z</time>
      </trkpt>
      <trkpt lat="47.79878" lon="-2.44923">
        <ele>52.1</ele>
        <time>2025-02-11T13:52:46Z</time>
      </trkpt>
      <trkpt lat="47.79877" lon="-2.44924">
        <ele>52.1</ele>
        <time>2025-02-11T13:52:47Z</time>
      </trkpt>
      <trkpt lat="47.79876" lon="-2.44925">
        <ele>52.1</ele>
        <time>2025-02-11T13:52:48Z</time>
      </trkpt>
      <trkpt lat="47.79875" lon="-2.44925">
        <ele>52.1</ele>
        <time>2025-02-11T13:52:49Z</time>
      </trkpt>
      <trkpt lat="47.79874" lon="-2.44926">
        <ele>52.1</ele>
        <time>2025-02-11T13:52:50Z</time>
      </trkpt>
      <trkpt lat="47.79873" lon="-2.44927">
        <ele>52.1</ele>
        <time>2025-02-11T13:52:51Z</time>
      </trkpt>
      <trkpt lat="47.79872" lon="-2.44927">
        <ele>52.1</ele>
        <time>2025-02-11T13:52:52Z</time>
      </trkpt>
      <trkpt lat="47.79871" lon="-2.44928">
        <ele>52</ele>
        <time>2025-02-11T13:52:53Z</time>
      </trkpt>
      <trkpt lat="47.7987" lon="-2.44929">
        <ele>52</ele>
        <time>2025-02-11T13:52:54Z</time>
      </trkpt>
      <trkpt lat="47.79869" lon="-2.4493">
        <ele>51.9</ele>
        <time>2025-02-11T13:52:55Z</time>
      </trkpt>
      <trkpt lat="47.79868" lon="-2.4493">
        <ele>51.9</ele>
        <time>2025-02-11T13:52:56Z</time>
      </trkpt>
      <trkpt lat="47.79867" lon="-2.44931">
        <ele>52</ele>
        <time>2025-02-11T13:52:57Z</time>
      </trkpt>
      <trkpt lat="47.79866" lon="-2.44931">
        <ele>52</ele>
        <time>2025-02-11T13:52:58Z</time>
      </trkpt>
      <trkpt lat="47.79865" lon="-2.44932">
        <ele>51.9</ele>
        <time>2025-02-11T13:52:59Z</time>
      </trkpt>
      <trkpt lat="47.79864" lon="-2.44932">
        <ele>52</ele>
        <time>2025-02-11T13:53:00Z</time>
      </trkpt>
      <trkpt lat="47.79863" lon="-2.44933">
        <ele>52</ele>
        <time>2025-02-11T13:53:01Z</time>
      </trkpt>
      <trkpt lat="47.79862" lon="-2.44933">
        <ele>51.9</ele>
        <time>2025-02-11T13:53:02Z</time>
      </trkpt>
      <trkpt lat="47.79861" lon="-2.44934">
        <ele>51.9</ele>
        <time>2025-02-11T13:53:03Z</time>
      </trkpt>
      <trkpt lat="47.7986" lon="-2.44935">
        <ele>51.9</ele>
        <time>2025-02-11T13:53:04Z</time>
      </trkpt>
      <trkpt lat="47.79859" lon="-2.44935">
        <ele>52</ele>
        <time>2025-02-11T13:53:05Z</time>
      </trkpt>
      <trkpt lat="47.79858" lon="-2.44935">
        <ele>52</ele>
        <time>2025-02-11T13:53:06Z</time>
      </trkpt>
      <trkpt lat="47.79856" lon="-2.44936">
        <ele>52</ele>
        <time>2025-02-11T13:53:07Z</time>
      </trkpt>
      <trkpt lat="47.79855" lon="-2.44937">
        <ele>51.9</ele>
        <time>2025-02-11T13:53:08Z</time>
      </trkpt>
      <trkpt lat="47.79854" lon="-2.44938">
        <ele>51.9</ele>
        <time>2025-02-11T13:53:09Z</time>
      </trkpt>
      <trkpt lat="47.79853" lon="-2.44939">
        <ele>51.8</ele>
        <time>2025-02-11T13:53:10Z</time>
      </trkpt>
      <trkpt lat="47.79852" lon="-2.4494">
        <ele>51.7</ele>
        <time>2025-02-11T13:53:11Z</time>
      </trkpt>
      <trkpt lat="47.79851" lon="-2.44941">
        <ele>51.6</ele>
        <time>2025-02-11T13:53:12Z</time>
      </trkpt>
      <trkpt lat="47.7985" lon="-2.44942">
        <ele>51.6</ele>
        <time>2025-02-11T13:53:13Z</time>
      </trkpt>
      <trkpt lat="47.79849" lon="-2.44942">
        <ele>51.6</ele>
        <time>2025-02-11T13:53:14Z</time>
      </trkpt>
      <trkpt lat="47.79848" lon="-2.44944">
        <ele>51.4</ele>
        <time>2025-02-11T13:53:15Z</time>
      </trkpt>
      <trkpt lat="47.79847" lon="-2.44945">
        <ele>51.4</ele>
        <time>2025-02-11T13:53:16Z</time>
      </trkpt>
      <trkpt lat="47.79847" lon="-2.44946">
        <ele>51.5</ele>
        <time>2025-02-11T13:53:17Z</time>
      </trkpt>
      <trkpt lat="47.79846" lon="-2.44948">
        <ele>51.5</ele>
        <time>2025-02-11T13:53:18Z</time>
      </trkpt>
      <trkpt lat="47.79845" lon="-2.44948">
        <ele>51.5</ele>
        <time>2025-02-11T13:53:19Z</time>
      </trkpt>
      <trkpt lat="47.79843" lon="-2.44949">
        <ele>51.6</ele>
        <time>2025-02-11T13:53:20Z</time>
      </trkpt>
      <trkpt lat="47.79842" lon="-2.44949">
        <ele>51.7</ele>
        <time>2025-02-11T13:53:21Z</time>
      </trkpt>
      <trkpt lat="47.79841" lon="-2.4495">
        <ele>51.7</ele>
        <time>2025-02-11T13:53:22Z</time>
      </trkpt>
      <trkpt lat="47.7984" lon="-2.44952">
        <ele>51.7</ele>
        <time>2025-02-11T13:53:23Z</time>
      </trkpt>
      <trkpt lat="47.79839" lon="-2.44952">
        <ele>51.7</ele>
        <time>2025-02-11T13:53:24Z</time>
      </trkpt>
      <trkpt lat="47.79838" lon="-2.44954">
        <ele>51.6</ele>
        <time>2025-02-11T13:53:25Z</time>
      </trkpt>
      <trkpt lat="47.79837" lon="-2.44955">
        <ele>51.6</ele>
        <time>2025-02-11T13:53:26Z</time>
      </trkpt>
      <trkpt lat="47.79836" lon="-2.44956">
        <ele>51.6</ele>
        <time>2025-02-11T13:53:27Z</time>
      </trkpt>
      <trkpt lat="47.79835" lon="-2.44956">
        <ele>51.7</ele>
        <time>2025-02-11T13:53:28Z</time>
      </trkpt>
      <trkpt lat="47.79834" lon="-2.44957">
        <ele>51.7</ele>
        <time>2025-02-11T13:53:29Z</time>
      </trkpt>
      <trkpt lat="47.79833" lon="-2.44958">
        <ele>51.6</ele>
        <time>2025-02-11T13:53:30Z</time>
      </trkpt>
      <trkpt lat="47.79832" lon="-2.44958">
        <ele>51.7</ele>
        <time>2025-02-11T13:53:31Z</time>
      </trkpt>
      <trkpt lat="47.79831" lon="-2.44959">
        <ele>51.7</ele>
        <time>2025-02-11T13:53:32Z</time>
      </trkpt>
      <trkpt lat="47.7983" lon="-2.44959">
        <ele>51.7</ele>
        <time>2025-02-11T13:53:33Z</time>
      </trkpt>
      <trkpt lat="47.79829" lon="-2.4496">
        <ele>51.7</ele>
        <time>2025-02-11T13:53:34Z</time>
      </trkpt>
      <trkpt lat="47.79828" lon="-2.4496">
        <ele>51.8</ele>
        <time>2025-02-11T13:53:35Z</time>
      </trkpt>
      <trkpt lat="47.79827" lon="-2.44961">
        <ele>51.7</ele>
        <time>2025-02-11T13:53:36Z</time>
      </trkpt>
      <trkpt lat="47.79826" lon="-2.44962">
        <ele>51.8</ele>
        <time>2025-02-11T13:53:37Z</time>
      </trkpt>
      <trkpt lat="47.79825" lon="-2.44963">
        <ele>51.8</ele>
        <time>2025-02-11T13:53:38Z</time>
      </trkpt>
      <trkpt lat="47.79824" lon="-2.44964">
        <ele>51.6</ele>
        <time>2025-02-11T13:53:39Z</time>
      </trkpt>
      <trkpt lat="47.79823" lon="-2.44965">
        <ele>51.6</ele>
        <time>2025-02-11T13:53:40Z</time>
      </trkpt>
      <trkpt lat="47.79822" lon="-2.44966">
        <ele>51.5</ele>
        <time>2025-02-11T13:53:41Z</time>
      </trkpt>
      <trkpt lat="47.79821" lon="-2.44967">
        <ele>51.5</ele>
        <time>2025-02-11T13:53:42Z</time>
      </trkpt>
      <trkpt lat="47.7982" lon="-2.44967">
        <ele>51.6</ele>
        <time>2025-02-11T13:53:43Z</time>
      </trkpt>
      <trkpt lat="47.79819" lon="-2.44968">
        <ele>51.6</ele>
        <time>2025-02-11T13:53:44Z</time>
      </trkpt>
      <trkpt lat="47.79818" lon="-2.44969">
        <ele>51.5</ele>
        <time>2025-02-11T13:53:45Z</time>
      </trkpt>
      <trkpt lat="47.79817" lon="-2.4497">
        <ele>51.5</ele>
        <time>2025-02-11T13:53:46Z</time>
      </trkpt>
      <trkpt lat="47.79816" lon="-2.44971">
        <ele>51.4</ele>
        <time>2025-02-11T13:53:47Z</time>
      </trkpt>
      <trkpt lat="47.79815" lon="-2.44972">
        <ele>51.4</ele>
        <time>2025-02-11T13:53:48Z</time>
      </trkpt>
      <trkpt lat="47.79814" lon="-2.44973">
        <ele>51.4</ele>
        <time>2025-02-11T13:53:49Z</time>
      </trkpt>
      <trkpt lat="47.79813" lon="-2.44974">
        <ele>51.4</ele>
        <time>2025-02-11T13:53:50Z</time>
      </trkpt>
      <trkpt lat="47.79812" lon="-2.44975">
        <ele>51.3</ele>
        <time>2025-02-11T13:53:51Z</time>
      </trkpt>
      <trkpt lat="47.79811" lon="-2.44976">
        <ele>51.4</ele>
        <time>2025-02-11T13:53:52Z</time>
      </trkpt>
      <trkpt lat="47.7981" lon="-2.44977">
        <ele>51.4</ele>
        <time>2025-02-11T13:53:53Z</time>
      </trkpt>
      <trkpt lat="47.79809" lon="-2.44978">
        <ele>51.3</ele>
        <time>2025-02-11T13:53:54Z</time>
      </trkpt>
      <trkpt lat="47.79808" lon="-2.44979">
        <ele>51.4</ele>
        <time>2025-02-11T13:53:55Z</time>
      </trkpt>
      <trkpt lat="47.79807" lon="-2.44979">
        <ele>51.4</ele>
        <time>2025-02-11T13:53:56Z</time>
      </trkpt>
      <trkpt lat="47.79806" lon="-2.4498">
        <ele>51.4</ele>
        <time>2025-02-11T13:53:57Z</time>
      </trkpt>
      <trkpt lat="47.79805" lon="-2.44981">
        <ele>51.5</ele>
        <time>2025-02-11T13:53:58Z</time>
      </trkpt>
      <trkpt lat="47.79804" lon="-2.44981">
        <ele>51.5</ele>
        <time>2025-02-11T13:53:59Z</time>
      </trkpt>
      <trkpt lat="47.79803" lon="-2.44982">
        <ele>51.6</ele>
        <time>2025-02-11T13:54:00Z</time>
      </trkpt>
      <trkpt lat="47.79802" lon="-2.44983">
        <ele>51.5</ele>
        <time>2025-02-11T13:54:01Z</time>
      </trkpt>
      <trkpt lat="47.79801" lon="-2.44984">
        <ele>51.5</ele>
        <time>2025-02-11T13:54:02Z</time>
      </trkpt>
      <trkpt lat="47.798" lon="-2.44985">
        <ele>51.6</ele>
        <time>2025-02-11T13:54:03Z</time>
      </trkpt>
      <trkpt lat="47.798" lon="-2.44987">
        <ele>51.5</ele>
        <time>2025-02-11T13:54:04Z</time>
      </trkpt>
      <trkpt lat="47.79799" lon="-2.44988">
        <ele>51.5</ele>
        <time>2025-02-11T13:54:05Z</time>
      </trkpt>
      <trkpt lat="47.79797" lon="-2.44988">
        <ele>51.5</ele>
        <time>2025-02-11T13:54:06Z</time>
      </trkpt>
      <trkpt lat="47.79796" lon="-2.44989">
        <ele>51.5</ele>
        <time>2025-02-11T13:54:07Z</time>
      </trkpt>
      <trkpt lat="47.79796" lon="-2.4499">
        <ele>51.5</ele>
        <time>2025-02-11T13:54:08Z</time>
      </trkpt>
      <trkpt lat="47.79795" lon="-2.44991">
        <ele>51.4</ele>
        <time>2025-02-11T13:54:09Z</time>
      </trkpt>
      <trkpt lat="47.79794" lon="-2.44993">
        <ele>51.3</ele>
        <time>2025-02-11T13:54:10Z</time>
      </trkpt>
      <trkpt lat="47.79793" lon="-2.44994">
        <ele>51.2</ele>
        <time>2025-02-11T13:54:11Z</time>
      </trkpt>
      <trkpt lat="47.79792" lon="-2.44994">
        <ele>51.2</ele>
        <time>2025-02-11T13:54:12Z</time>
      </trkpt>
      <trkpt lat="47.79791" lon="-2.44995">
        <ele>51.1</ele>
        <time>2025-02-11T13:54:13Z</time>
      </trkpt>
      <trkpt lat="47.7979" lon="-2.44997">
        <ele>51</ele>
        <time>2025-02-11T13:54:14Z</time>
      </trkpt>
      <trkpt lat="47.7979" lon="-2.44998">
        <ele>50.9</ele>
        <time>2025-02-11T13:54:15Z</time>
      </trkpt>
      <trkpt lat="47.79789" lon="-2.44999">
        <ele>50.7</ele>
        <time>2025-02-11T13:54:16Z</time>
      </trkpt>
      <trkpt lat="47.79788" lon="-2.45">
        <ele>50.6</ele>
        <time>2025-02-11T13:54:17Z</time>
      </trkpt>
      <trkpt lat="47.79787" lon="-2.45002">
        <ele>50.6</ele>
        <time>2025-02-11T13:54:18Z</time>
      </trkpt>
      <trkpt lat="47.79786" lon="-2.45002">
        <ele>50.6</ele>
        <time>2025-02-11T13:54:19Z</time>
      </trkpt>
      <trkpt lat="47.79785" lon="-2.45004">
        <ele>50.5</ele>
        <time>2025-02-11T13:54:20Z</time>
      </trkpt>
      <trkpt lat="47.79784" lon="-2.45005">
        <ele>50.5</ele>
        <time>2025-02-11T13:54:21Z</time>
      </trkpt>
      <trkpt lat="47.79783" lon="-2.45006">
        <ele>50.4</ele>
        <time>2025-02-11T13:54:22Z</time>
      </trkpt>
      <trkpt lat="47.79782" lon="-2.45008">
        <ele>50.3</ele>
        <time>2025-02-11T13:54:23Z</time>
      </trkpt>
      <trkpt lat="47.79782" lon="-2.45009">
        <ele>50.3</ele>
        <time>2025-02-11T13:54:24Z</time>
      </trkpt>
      <trkpt lat="47.79781" lon="-2.4501">
        <ele>50.2</ele>
        <time>2025-02-11T13:54:25Z</time>
      </trkpt>
      <trkpt lat="47.7978" lon="-2.45011">
        <ele>50.1</ele>
        <time>2025-02-11T13:54:26Z</time>
      </trkpt>
      <trkpt lat="47.79779" lon="-2.45013">
        <ele>50.1</ele>
        <time>2025-02-11T13:54:27Z</time>
      </trkpt>
      <trkpt lat="47.79778" lon="-2.45014">
        <ele>50</ele>
        <time>2025-02-11T13:54:28Z</time>
      </trkpt>
      <trkpt lat="47.79778" lon="-2.45015">
        <ele>49.9</ele>
        <time>2025-02-11T13:54:29Z</time>
      </trkpt>
      <trkpt lat="47.79777" lon="-2.45016">
        <ele>50</ele>
        <time>2025-02-11T13:54:30Z</time>
      </trkpt>
      <trkpt lat="47.79776" lon="-2.45018">
        <ele>50.1</ele>
        <time>2025-02-11T13:54:31Z</time>
      </trkpt>
      <trkpt lat="47.79775" lon="-2.4502">
        <ele>50.1</ele>
        <time>2025-02-11T13:54:32Z</time>
      </trkpt>
      <trkpt lat="47.79775" lon="-2.45022">
        <ele>50.1</ele>
        <time>2025-02-11T13:54:33Z</time>
      </trkpt>
      <trkpt lat="47.79774" lon="-2.45024">
        <ele>50</ele>
        <time>2025-02-11T13:54:34Z</time>
      </trkpt>
      <trkpt lat="47.79774" lon="-2.45026">
        <ele>50</ele>
        <time>2025-02-11T13:54:35Z</time>
      </trkpt>
      <trkpt lat="47.79773" lon="-2.45027">
        <ele>50</ele>
        <time>2025-02-11T13:54:36Z</time>
      </trkpt>
      <trkpt lat="47.79772" lon="-2.45029">
        <ele>49.9</ele>
        <time>2025-02-11T13:54:37Z</time>
      </trkpt>
      <trkpt lat="47.79772" lon="-2.4503">
        <ele>50</ele>
        <time>2025-02-11T13:54:38Z</time>
      </trkpt>
      <trkpt lat="47.79771" lon="-2.45032">
        <ele>49.8</ele>
        <time>2025-02-11T13:54:39Z</time>
      </trkpt>
      <trkpt lat="47.79771" lon="-2.45033">
        <ele>49.8</ele>
        <time>2025-02-11T13:54:40Z</time>
      </trkpt>
      <trkpt lat="47.7977" lon="-2.45034">
        <ele>49.9</ele>
        <time>2025-02-11T13:54:41Z</time>
      </trkpt>
      <trkpt lat="47.79769" lon="-2.45035">
        <ele>49.9</ele>
        <time>2025-02-11T13:54:42Z</time>
      </trkpt>
      <trkpt lat="47.79768" lon="-2.45037">
        <ele>49.8</ele>
        <time>2025-02-11T13:54:43Z</time>
      </trkpt>
      <trkpt lat="47.79768" lon="-2.45039">
        <ele>49.7</ele>
        <time>2025-02-11T13:54:44Z</time>
      </trkpt>
      <trkpt lat="47.79767" lon="-2.4504">
        <ele>49.6</ele>
        <time>2025-02-11T13:54:45Z</time>
      </trkpt>
      <trkpt lat="47.79767" lon="-2.45042">
        <ele>49.6</ele>
        <time>2025-02-11T13:54:46Z</time>
      </trkpt>
      <trkpt lat="47.79766" lon="-2.45043">
        <ele>49.6</ele>
        <time>2025-02-11T13:54:47Z</time>
      </trkpt>
      <trkpt lat="47.79765" lon="-2.45045">
        <ele>49.5</ele>
        <time>2025-02-11T13:54:48Z</time>
      </trkpt>
      <trkpt lat="47.79765" lon="-2.45046">
        <ele>49.4</ele>
        <time>2025-02-11T13:54:49Z</time>
      </trkpt>
      <trkpt lat="47.79765" lon="-2.45048">
        <ele>49.2</ele>
        <time>2025-02-11T13:54:50Z</time>
      </trkpt>
      <trkpt lat="47.79765" lon="-2.45051">
        <ele>48.9</ele>
        <time>2025-02-11T13:54:51Z</time>
      </trkpt>
      <trkpt lat="47.79765" lon="-2.45053">
        <ele>48.7</ele>
        <time>2025-02-11T13:54:52Z</time>
      </trkpt>
      <trkpt lat="47.79764" lon="-2.45054">
        <ele>48.6</ele>
        <time>2025-02-11T13:54:53Z</time>
      </trkpt>
      <trkpt lat="47.79764" lon="-2.45056">
        <ele>48.5</ele>
        <time>2025-02-11T13:54:54Z</time>
      </trkpt>
      <trkpt lat="47.79763" lon="-2.45057">
        <ele>48.4</ele>
        <time>2025-02-11T13:54:55Z</time>
      </trkpt>
      <trkpt lat="47.79763" lon="-2.45059">
        <ele>48.4</ele>
        <time>2025-02-11T13:54:56Z</time>
      </trkpt>
      <trkpt lat="47.79762" lon="-2.4506">
        <ele>48.3</ele>
        <time>2025-02-11T13:54:57Z</time>
      </trkpt>
      <trkpt lat="47.79762" lon="-2.45061">
        <ele>48.3</ele>
        <time>2025-02-11T13:54:58Z</time>
      </trkpt>
      <trkpt lat="47.79762" lon="-2.45063">
        <ele>48.2</ele>
        <time>2025-02-11T13:54:59Z</time>
      </trkpt>
      <trkpt lat="47.79761" lon="-2.45065">
        <ele>48.1</ele>
        <time>2025-02-11T13:55:00Z</time>
      </trkpt>
      <trkpt lat="47.79761" lon="-2.45067">
        <ele>47.9</ele>
        <time>2025-02-11T13:55:01Z</time>
      </trkpt>
      <trkpt lat="47.7976" lon="-2.45069">
        <ele>47.8</ele>
        <time>2025-02-11T13:55:02Z</time>
      </trkpt>
      <trkpt lat="47.7976" lon="-2.45071">
        <ele>47.7</ele>
        <time>2025-02-11T13:55:03Z</time>
      </trkpt>
      <trkpt lat="47.79759" lon="-2.45072">
        <ele>47.6</ele>
        <time>2025-02-11T13:55:04Z</time>
      </trkpt>
      <trkpt lat="47.79759" lon="-2.45074">
        <ele>47.5</ele>
        <time>2025-02-11T13:55:05Z</time>
      </trkpt>
      <trkpt lat="47.79759" lon="-2.45076">
        <ele>47.3</ele>
        <time>2025-02-11T13:55:06Z</time>
      </trkpt>
      <trkpt lat="47.79759" lon="-2.45078">
        <ele>47.1</ele>
        <time>2025-02-11T13:55:07Z</time>
      </trkpt>
      <trkpt lat="47.79759" lon="-2.4508">
        <ele>47</ele>
        <time>2025-02-11T13:55:08Z</time>
      </trkpt>
      <trkpt lat="47.79758" lon="-2.45082">
        <ele>46.9</ele>
        <time>2025-02-11T13:55:09Z</time>
      </trkpt>
      <trkpt lat="47.79757" lon="-2.45083">
        <ele>46.8</ele>
        <time>2025-02-11T13:55:10Z</time>
      </trkpt>
      <trkpt lat="47.79757" lon="-2.45085">
        <ele>46.7</ele>
        <time>2025-02-11T13:55:11Z</time>
      </trkpt>
      <trkpt lat="47.79756" lon="-2.45087">
        <ele>46.7</ele>
        <time>2025-02-11T13:55:12Z</time>
      </trkpt>
      <trkpt lat="47.79755" lon="-2.45088">
        <ele>46.7</ele>
        <time>2025-02-11T13:55:13Z</time>
      </trkpt>
      <trkpt lat="47.79755" lon="-2.4509">
        <ele>46.6</ele>
        <time>2025-02-11T13:55:14Z</time>
      </trkpt>
      <trkpt lat="47.79755" lon="-2.45092">
        <ele>46.6</ele>
        <time>2025-02-11T13:55:15Z</time>
      </trkpt>
      <trkpt lat="47.79754" lon="-2.45093">
        <ele>46.5</ele>
        <time>2025-02-11T13:55:16Z</time>
      </trkpt>
      <trkpt lat="47.79753" lon="-2.45095">
        <ele>46.5</ele>
        <time>2025-02-11T13:55:17Z</time>
      </trkpt>
      <trkpt lat="47.79753" lon="-2.45097">
        <ele>46.4</ele>
        <time>2025-02-11T13:55:18Z</time>
      </trkpt>
      <trkpt lat="47.79753" lon="-2.45099">
        <ele>46.4</ele>
        <time>2025-02-11T13:55:19Z</time>
      </trkpt>
      <trkpt lat="47.79753" lon="-2.451">
        <ele>46.4</ele>
        <time>2025-02-11T13:55:20Z</time>
      </trkpt>
      <trkpt lat="47.79752" lon="-2.45102">
        <ele>46.3</ele>
        <time>2025-02-11T13:55:21Z</time>
      </trkpt>
      <trkpt lat="47.79752" lon="-2.45103">
        <ele>46.3</ele>
        <time>2025-02-11T13:55:22Z</time>
      </trkpt>
      <trkpt lat="47.79751" lon="-2.45105">
        <ele>46.2</ele>
        <time>2025-02-11T13:55:23Z</time>
      </trkpt>
      <trkpt lat="47.79751" lon="-2.45107">
        <ele>46.2</ele>
        <time>2025-02-11T13:55:24Z</time>
      </trkpt>
      <trkpt lat="47.7975" lon="-2.45108">
        <ele>46.1</ele>
        <time>2025-02-11T13:55:25Z</time>
      </trkpt>
      <trkpt lat="47.7975" lon="-2.4511">
        <ele>46.1</ele>
        <time>2025-02-11T13:55:26Z</time>
      </trkpt>
      <trkpt lat="47.79749" lon="-2.45111">
        <ele>46.1</ele>
        <time>2025-02-11T13:55:27Z</time>
      </trkpt>
      <trkpt lat="47.79749" lon="-2.45113">
        <ele>46</ele>
        <time>2025-02-11T13:55:28Z</time>
      </trkpt>
      <trkpt lat="47.79748" lon="-2.45115">
        <ele>46</ele>
        <time>2025-02-11T13:55:29Z</time>
      </trkpt>
      <trkpt lat="47.79748" lon="-2.45117">
        <ele>45.9</ele>
        <time>2025-02-11T13:55:30Z</time>
      </trkpt>
      <trkpt lat="47.79748" lon="-2.45118">
        <ele>45.8</ele>
        <time>2025-02-11T13:55:31Z</time>
      </trkpt>
      <trkpt lat="47.79747" lon="-2.4512">
        <ele>45.7</ele>
        <time>2025-02-11T13:55:32Z</time>
      </trkpt>
      <trkpt lat="47.79747" lon="-2.45122">
        <ele>45.7</ele>
        <time>2025-02-11T13:55:33Z</time>
      </trkpt>
      <trkpt lat="47.79746" lon="-2.45123">
        <ele>45.6</ele>
        <time>2025-02-11T13:55:34Z</time>
      </trkpt>
      <trkpt lat="47.79746" lon="-2.45125">
        <ele>45.5</ele>
        <time>2025-02-11T13:55:35Z</time>
      </trkpt>
      <trkpt lat="47.79746" lon="-2.45127">
        <ele>45.4</ele>
        <time>2025-02-11T13:55:36Z</time>
      </trkpt>
      <trkpt lat="47.79746" lon="-2.45129">
        <ele>45.3</ele>
        <time>2025-02-11T13:55:37Z</time>
      </trkpt>
      <trkpt lat="47.79746" lon="-2.45131">
        <ele>45.1</ele>
        <time>2025-02-11T13:55:38Z</time>
      </trkpt>
      <trkpt lat="47.79745" lon="-2.45133">
        <ele>44.9</ele>
        <time>2025-02-11T13:55:39Z</time>
      </trkpt>
      <trkpt lat="47.79745" lon="-2.45135">
        <ele>44.9</ele>
        <time>2025-02-11T13:55:40Z</time>
      </trkpt>
      <trkpt lat="47.79744" lon="-2.45137">
        <ele>44.8</ele>
        <time>2025-02-11T13:55:41Z</time>
      </trkpt>
      <trkpt lat="47.79744" lon="-2.45139">
        <ele>44.7</ele>
        <time>2025-02-11T13:55:42Z</time>
      </trkpt>
      <trkpt lat="47.79743" lon="-2.4514">
        <ele>44.7</ele>
        <time>2025-02-11T13:55:43Z</time>
      </trkpt>
      <trkpt lat="47.79742" lon="-2.45142">
        <ele>44.8</ele>
        <time>2025-02-11T13:55:44Z</time>
      </trkpt>
      <trkpt lat="47.79742" lon="-2.45143">
        <ele>44.8</ele>
        <time>2025-02-11T13:55:45Z</time>
      </trkpt>
      <trkpt lat="47.79741" lon="-2.45145">
        <ele>44.8</ele>
        <time>2025-02-11T13:55:46Z</time>
      </trkpt>
      <trkpt lat="47.7974" lon="-2.45145">
        <ele>44.9</ele>
        <time>2025-02-11T13:55:47Z</time>
      </trkpt>
      <trkpt lat="47.79739" lon="-2.45146">
        <ele>45</ele>
        <time>2025-02-11T13:55:48Z</time>
      </trkpt>
      <trkpt lat="47.79738" lon="-2.45148">
        <ele>45</ele>
        <time>2025-02-11T13:55:49Z</time>
      </trkpt>
      <trkpt lat="47.79738" lon="-2.45149">
        <ele>45</ele>
        <time>2025-02-11T13:55:50Z</time>
      </trkpt>
      <trkpt lat="47.79738" lon="-2.45151">
        <ele>44.9</ele>
        <time>2025-02-11T13:55:51Z</time>
      </trkpt>
      <trkpt lat="47.79737" lon="-2.45153">
        <ele>44.9</ele>
        <time>2025-02-11T13:55:52Z</time>
      </trkpt>
      <trkpt lat="47.79737" lon="-2.45154">
        <ele>44.9</ele>
        <time>2025-02-11T13:55:53Z</time>
      </trkpt>
      <trkpt lat="47.79737" lon="-2.45156">
        <ele>44.9</ele>
        <time>2025-02-11T13:55:54Z</time>
      </trkpt>
      <trkpt lat="47.79736" lon="-2.45158">
        <ele>44.8</ele>
        <time>2025-02-11T13:55:55Z</time>
      </trkpt>
      <trkpt lat="47.79736" lon="-2.4516">
        <ele>44.8</ele>
        <time>2025-02-11T13:55:56Z</time>
      </trkpt>
      <trkpt lat="47.79736" lon="-2.45161">
        <ele>44.7</ele>
        <time>2025-02-11T13:55:57Z</time>
      </trkpt>
      <trkpt lat="47.79735" lon="-2.45163">
        <ele>44.7</ele>
        <time>2025-02-11T13:55:58Z</time>
      </trkpt>
      <trkpt lat="47.79735" lon="-2.45165">
        <ele>44.6</ele>
        <time>2025-02-11T13:55:59Z</time>
      </trkpt>
      <trkpt lat="47.79734" lon="-2.45166">
        <ele>44.6</ele>
        <time>2025-02-11T13:56:00Z</time>
      </trkpt>
      <trkpt lat="47.79733" lon="-2.45167">
        <ele>44.6</ele>
        <time>2025-02-11T13:56:01Z</time>
      </trkpt>
      <trkpt lat="47.79733" lon="-2.45169">
        <ele>44.5</ele>
        <time>2025-02-11T13:56:02Z</time>
      </trkpt>
      <trkpt lat="47.79732" lon="-2.4517">
        <ele>44.4</ele>
        <time>2025-02-11T13:56:03Z</time>
      </trkpt>
      <trkpt lat="47.79732" lon="-2.45172">
        <ele>44.4</ele>
        <time>2025-02-11T13:56:04Z</time>
      </trkpt>
      <trkpt lat="47.79731" lon="-2.45174">
        <ele>44.3</ele>
        <time>2025-02-11T13:56:05Z</time>
      </trkpt>
      <trkpt lat="47.79731" lon="-2.45175">
        <ele>44.2</ele>
        <time>2025-02-11T13:56:06Z</time>
      </trkpt>
      <trkpt lat="47.79731" lon="-2.45177">
        <ele>44</ele>
        <time>2025-02-11T13:56:07Z</time>
      </trkpt>
      <trkpt lat="47.7973" lon="-2.45179">
        <ele>43.9</ele>
        <time>2025-02-11T13:56:08Z</time>
      </trkpt>
      <trkpt lat="47.7973" lon="-2.45181">
        <ele>43.8</ele>
        <time>2025-02-11T13:56:09Z</time>
      </trkpt>
      <trkpt lat="47.79729" lon="-2.45183">
        <ele>43.7</ele>
        <time>2025-02-11T13:56:10Z</time>
      </trkpt>
      <trkpt lat="47.79729" lon="-2.45184">
        <ele>43.7</ele>
        <time>2025-02-11T13:56:11Z</time>
      </trkpt>
      <trkpt lat="47.79728" lon="-2.45186">
        <ele>43.5</ele>
        <time>2025-02-11T13:56:12Z</time>
      </trkpt>
      <trkpt lat="47.79727" lon="-2.45187">
        <ele>43.5</ele>
        <time>2025-02-11T13:56:13Z</time>
      </trkpt>
      <trkpt lat="47.79726" lon="-2.45189">
        <ele>43.4</ele>
        <time>2025-02-11T13:56:14Z</time>
      </trkpt>
      <trkpt lat="47.79726" lon="-2.4519">
        <ele>43.3</ele>
        <time>2025-02-11T13:56:15Z</time>
      </trkpt>
      <trkpt lat="47.79725" lon="-2.45192">
        <ele>43.2</ele>
        <time>2025-02-11T13:56:16Z</time>
      </trkpt>
      <trkpt lat="47.79725" lon="-2.45193">
        <ele>43.1</ele>
        <time>2025-02-11T13:56:17Z</time>
      </trkpt>
      <trkpt lat="47.79724" lon="-2.45195">
        <ele>43</ele>
        <time>2025-02-11T13:56:18Z</time>
      </trkpt>
      <trkpt lat="47.79724" lon="-2.45197">
        <ele>42.9</ele>
        <time>2025-02-11T13:56:19Z</time>
      </trkpt>
      <trkpt lat="47.79723" lon="-2.45199">
        <ele>42.8</ele>
        <time>2025-02-11T13:56:20Z</time>
      </trkpt>
      <trkpt lat="47.79723" lon="-2.45201">
        <ele>42.8</ele>
        <time>2025-02-11T13:56:21Z</time>
      </trkpt>
      <trkpt lat="47.79723" lon="-2.45203">
        <ele>42.7</ele>
        <time>2025-02-11T13:56:22Z</time>
      </trkpt>
      <trkpt lat="47.79722" lon="-2.45205">
        <ele>42.7</ele>
        <time>2025-02-11T13:56:23Z</time>
      </trkpt>
      <trkpt lat="47.79721" lon="-2.45206">
        <ele>43.1</ele>
        <time>2025-02-11T13:56:24Z</time>
      </trkpt>
      <trkpt lat="47.7972" lon="-2.45208">
        <ele>43.2</ele>
        <time>2025-02-11T13:56:25Z</time>
      </trkpt>
      <trkpt lat="47.7972" lon="-2.4521">
        <ele>43.4</ele>
        <time>2025-02-11T13:56:26Z</time>
      </trkpt>
      <trkpt lat="47.79719" lon="-2.45211">
        <ele>43.5</ele>
        <time>2025-02-11T13:56:27Z</time>
      </trkpt>
      <trkpt lat="47.79718" lon="-2.45212">
        <ele>43.8</ele>
        <time>2025-02-11T13:56:28Z</time>
      </trkpt>
      <trkpt lat="47.79718" lon="-2.45214">
        <ele>44</ele>
        <time>2025-02-11T13:56:29Z</time>
      </trkpt>
      <trkpt lat="47.79717" lon="-2.45215">
        <ele>44.2</ele>
        <time>2025-02-11T13:56:30Z</time>
      </trkpt>
      <trkpt lat="47.79716" lon="-2.45217">
        <ele>44.2</ele>
        <time>2025-02-11T13:56:31Z</time>
      </trkpt>
      <trkpt lat="47.79716" lon="-2.45219">
        <ele>44.2</ele>
        <time>2025-02-11T13:56:32Z</time>
      </trkpt>
      <trkpt lat="47.79716" lon="-2.4522">
        <ele>44.2</ele>
        <time>2025-02-11T13:56:33Z</time>
      </trkpt>
      <trkpt lat="47.79715" lon="-2.45222">
        <ele>44.2</ele>
        <time>2025-02-11T13:56:34Z</time>
      </trkpt>
      <trkpt lat="47.79715" lon="-2.45224">
        <ele>44.3</ele>
        <time>2025-02-11T13:56:35Z</time>
      </trkpt>
      <trkpt lat="47.79714" lon="-2.45226">
        <ele>44.5</ele>
        <time>2025-02-11T13:56:36Z</time>
      </trkpt>
      <trkpt lat="47.79713" lon="-2.45227">
        <ele>44.5</ele>
        <time>2025-02-11T13:56:37Z</time>
      </trkpt>
      <trkpt lat="47.79713" lon="-2.4523">
        <ele>44.5</ele>
        <time>2025-02-11T13:56:38Z</time>
      </trkpt>
      <trkpt lat="47.79712" lon="-2.45232">
        <ele>44.5</ele>
        <time>2025-02-11T13:56:39Z</time>
      </trkpt>
      <trkpt lat="47.79712" lon="-2.45234">
        <ele>44.5</ele>
        <time>2025-02-11T13:56:40Z</time>
      </trkpt>
      <trkpt lat="47.79711" lon="-2.45236">
        <ele>44.5</ele>
        <time>2025-02-11T13:56:41Z</time>
      </trkpt>
      <trkpt lat="47.7971" lon="-2.45237">
        <ele>44.5</ele>
        <time>2025-02-11T13:56:42Z</time>
      </trkpt>
      <trkpt lat="47.7971" lon="-2.45239">
        <ele>44.4</ele>
        <time>2025-02-11T13:56:43Z</time>
      </trkpt>
      <trkpt lat="47.79709" lon="-2.45241">
        <ele>44.4</ele>
        <time>2025-02-11T13:56:44Z</time>
      </trkpt>
      <trkpt lat="47.79708" lon="-2.45243">
        <ele>44.3</ele>
        <time>2025-02-11T13:56:45Z</time>
      </trkpt>
      <trkpt lat="47.79708" lon="-2.45245">
        <ele>44.2</ele>
        <time>2025-02-11T13:56:46Z</time>
      </trkpt>
      <trkpt lat="47.79707" lon="-2.45247">
        <ele>44</ele>
        <time>2025-02-11T13:56:47Z</time>
      </trkpt>
      <trkpt lat="47.79707" lon="-2.45248">
        <ele>43.8</ele>
        <time>2025-02-11T13:56:48Z</time>
      </trkpt>
      <trkpt lat="47.79706" lon="-2.45251">
        <ele>43.7</ele>
        <time>2025-02-11T13:56:49Z</time>
      </trkpt>
      <trkpt lat="47.79706" lon="-2.45252">
        <ele>43.7</ele>
        <time>2025-02-11T13:56:50Z</time>
      </trkpt>
      <trkpt lat="47.79705" lon="-2.45254">
        <ele>43.7</ele>
        <time>2025-02-11T13:56:51Z</time>
      </trkpt>
      <trkpt lat="47.79704" lon="-2.45256">
        <ele>43.8</ele>
        <time>2025-02-11T13:56:52Z</time>
      </trkpt>
      <trkpt lat="47.79703" lon="-2.45257">
        <ele>43.8</ele>
        <time>2025-02-11T13:56:53Z</time>
      </trkpt>
      <trkpt lat="47.79702" lon="-2.45259">
        <ele>43.8</ele>
        <time>2025-02-11T13:56:54Z</time>
      </trkpt>
      <trkpt lat="47.79701" lon="-2.45261">
        <ele>43.9</ele>
        <time>2025-02-11T13:56:55Z</time>
      </trkpt>
      <trkpt lat="47.79701" lon="-2.45262">
        <ele>43.9</ele>
        <time>2025-02-11T13:56:56Z</time>
      </trkpt>
      <trkpt lat="47.797" lon="-2.45264">
        <ele>43.9</ele>
        <time>2025-02-11T13:56:57Z</time>
      </trkpt>
      <trkpt lat="47.79699" lon="-2.45265">
        <ele>44</ele>
        <time>2025-02-11T13:56:58Z</time>
      </trkpt>
      <trkpt lat="47.79699" lon="-2.45266">
        <ele>44</ele>
        <time>2025-02-11T13:56:59Z</time>
      </trkpt>
      <trkpt lat="47.79698" lon="-2.45268">
        <ele>43.9</ele>
        <time>2025-02-11T13:57:00Z</time>
      </trkpt>
      <trkpt lat="47.79697" lon="-2.4527">
        <ele>44</ele>
        <time>2025-02-11T13:57:01Z</time>
      </trkpt>
      <trkpt lat="47.79696" lon="-2.45271">
        <ele>44</ele>
        <time>2025-02-11T13:57:02Z</time>
      </trkpt>
      <trkpt lat="47.79696" lon="-2.45273">
        <ele>44</ele>
        <time>2025-02-11T13:57:03Z</time>
      </trkpt>
      <trkpt lat="47.79695" lon="-2.45275">
        <ele>44</ele>
        <time>2025-02-11T13:57:04Z</time>
      </trkpt>
      <trkpt lat="47.79694" lon="-2.45276">
        <ele>44.1</ele>
        <time>2025-02-11T13:57:05Z</time>
      </trkpt>
      <trkpt lat="47.79693" lon="-2.45277">
        <ele>44</ele>
        <time>2025-02-11T13:57:06Z</time>
      </trkpt>
      <trkpt lat="47.79692" lon="-2.45278">
        <ele>44</ele>
        <time>2025-02-11T13:57:07Z</time>
      </trkpt>
      <trkpt lat="47.79692" lon="-2.45279">
        <ele>44</ele>
        <time>2025-02-11T13:57:08Z</time>
      </trkpt>
      <trkpt lat="47.79692" lon="-2.4528">
        <ele>44</ele>
        <time>2025-02-11T13:57:09Z</time>
      </trkpt>
      <trkpt lat="47.79692" lon="-2.4528">
        <ele>44</ele>
        <time>2025-02-11T13:57:10Z</time>
      </trkpt>
      <trkpt lat="47.79692" lon="-2.4528">
        <ele>44</ele>
        <time>2025-02-11T13:57:11Z</time>
      </trkpt>
      <trkpt lat="47.79692" lon="-2.4528">
        <ele>44</ele>
        <time>2025-02-11T13:57:12Z</time>
      </trkpt>
      <trkpt lat="47.7969" lon="-2.4528">
        <ele>44</ele>
        <time>2025-02-11T13:57:13Z</time>
      </trkpt>
      <trkpt lat="47.79689" lon="-2.45282">
        <ele>43.9</ele>
        <time>2025-02-11T13:57:14Z</time>
      </trkpt>
      <trkpt lat="47.79688" lon="-2.45282">
        <ele>43.9</ele>
        <time>2025-02-11T13:57:15Z</time>
      </trkpt>
      <trkpt lat="47.79687" lon="-2.45282">
        <ele>43.9</ele>
        <time>2025-02-11T13:57:16Z</time>
      </trkpt>
      <trkpt lat="47.79686" lon="-2.45282">
        <ele>43.8</ele>
        <time>2025-02-11T13:57:17Z</time>
      </trkpt>
      <trkpt lat="47.79685" lon="-2.45282">
        <ele>43.8</ele>
        <time>2025-02-11T13:57:18Z</time>
      </trkpt>
      <trkpt lat="47.79684" lon="-2.45282">
        <ele>43.8</ele>
        <time>2025-02-11T13:57:19Z</time>
      </trkpt>
      <trkpt lat="47.79684" lon="-2.45282">
        <ele>43.7</ele>
        <time>2025-02-11T13:57:20Z</time>
      </trkpt>
      <trkpt lat="47.79683" lon="-2.45282">
        <ele>43.7</ele>
        <time>2025-02-11T13:57:21Z</time>
      </trkpt>
      <trkpt lat="47.79683" lon="-2.45283">
        <ele>43.7</ele>
        <time>2025-02-11T13:57:22Z</time>
      </trkpt>
      <trkpt lat="47.79682" lon="-2.45282">
        <ele>43.7</ele>
        <time>2025-02-11T13:57:23Z</time>
      </trkpt>
      <trkpt lat="47.79681" lon="-2.45283">
        <ele>43.6</ele>
        <time>2025-02-11T13:57:24Z</time>
      </trkpt>
      <trkpt lat="47.79681" lon="-2.45283">
        <ele>43.6</ele>
        <time>2025-02-11T13:57:25Z</time>
      </trkpt>
      <trkpt lat="47.7968" lon="-2.45283">
        <ele>43.5</ele>
        <time>2025-02-11T13:57:26Z</time>
      </trkpt>
      <trkpt lat="47.7968" lon="-2.45282">
        <ele>43.6</ele>
        <time>2025-02-11T13:57:27Z</time>
      </trkpt>
      <trkpt lat="47.79681" lon="-2.45282">
        <ele>43.6</ele>
        <time>2025-02-11T13:57:28Z</time>
      </trkpt>
      <trkpt lat="47.79681" lon="-2.45282">
        <ele>43.6</ele>
        <time>2025-02-11T13:57:29Z</time>
      </trkpt>
      <trkpt lat="47.79681" lon="-2.45282">
        <ele>43.6</ele>
        <time>2025-02-11T13:57:30Z</time>
      </trkpt>
      <trkpt lat="47.79682" lon="-2.45282">
        <ele>43.7</ele>
        <time>2025-02-11T13:57:31Z</time>
      </trkpt>
      <trkpt lat="47.79682" lon="-2.45282">
        <ele>43.7</ele>
        <time>2025-02-11T13:57:32Z</time>
      </trkpt>
      <trkpt lat="47.79682" lon="-2.45282">
        <ele>43.7</ele>
        <time>2025-02-11T13:57:33Z</time>
      </trkpt>
      <trkpt lat="47.79682" lon="-2.45282">
        <ele>43.7</ele>
        <time>2025-02-11T13:57:34Z</time>
      </trkpt>
      <trkpt lat="47.79682" lon="-2.45282">
        <ele>43.7</ele>
        <time>2025-02-11T13:57:35Z</time>
      </trkpt>
      <trkpt lat="47.79682" lon="-2.45282">
        <ele>43.7</ele>
        <time>2025-02-11T13:57:36Z</time>
      </trkpt>
      <trkpt lat="47.79682" lon="-2.45282">
        <ele>43.7</ele>
        <time>2025-02-11T13:57:37Z</time>
      </trkpt>
      <trkpt lat="47.79683" lon="-2.45281">
        <ele>43.8</ele>
        <time>2025-02-11T13:57:38Z</time>
      </trkpt>
      <trkpt lat="47.79683" lon="-2.4528">
        <ele>43.9</ele>
        <time>2025-02-11T13:57:39Z</time>
      </trkpt>
      <trkpt lat="47.79682" lon="-2.45275">
        <ele>44.3</ele>
        <time>2025-02-11T13:57:40Z</time>
      </trkpt>
      <trkpt lat="47.7968" lon="-2.45274">
        <ele>44.4</ele>
        <time>2025-02-11T13:57:41Z</time>
      </trkpt>
      <trkpt lat="47.79681" lon="-2.45273">
        <ele>44.5</ele>
        <time>2025-02-11T13:57:42Z</time>
      </trkpt>
      <trkpt lat="47.79682" lon="-2.45272">
        <ele>44.6</ele>
        <time>2025-02-11T13:57:43Z</time>
      </trkpt>
      <trkpt lat="47.79682" lon="-2.45271">
        <ele>44.6</ele>
        <time>2025-02-11T13:57:44Z</time>
      </trkpt>
      <trkpt lat="47.79682" lon="-2.45271">
        <ele>44.7</ele>
        <time>2025-02-11T13:57:45Z</time>
      </trkpt>
      <trkpt lat="47.79682" lon="-2.4527">
        <ele>44.7</ele>
        <time>2025-02-11T13:57:46Z</time>
      </trkpt>
      <trkpt lat="47.79683" lon="-2.4527">
        <ele>44.8</ele>
        <time>2025-02-11T13:57:47Z</time>
      </trkpt>
      <trkpt lat="47.79683" lon="-2.45269">
        <ele>44.8</ele>
        <time>2025-02-11T13:57:48Z</time>
      </trkpt>
      <trkpt lat="47.79683" lon="-2.45269">
        <ele>44.8</ele>
        <time>2025-02-11T13:57:49Z</time>
      </trkpt>
      <trkpt lat="47.79683" lon="-2.4527">
        <ele>44.8</ele>
        <time>2025-02-11T13:57:50Z</time>
      </trkpt>
      <trkpt lat="47.79684" lon="-2.4527">
        <ele>44.7</ele>
        <time>2025-02-11T13:57:51Z</time>
      </trkpt>
      <trkpt lat="47.79684" lon="-2.4527">
        <ele>44.7</ele>
        <time>2025-02-11T13:57:52Z</time>
      </trkpt>
      <trkpt lat="47.79684" lon="-2.4527">
        <ele>44.7</ele>
        <time>2025-02-11T13:57:53Z</time>
      </trkpt>
      <trkpt lat="47.79684" lon="-2.4527">
        <ele>44.7</ele>
        <time>2025-02-11T13:57:54Z</time>
      </trkpt>
      <trkpt lat="47.79684" lon="-2.4527">
        <ele>44.7</ele>
        <time>2025-02-11T13:57:55Z</time>
      </trkpt>
      <trkpt lat="47.79684" lon="-2.4527">
        <ele>44.7</ele>
        <time>2025-02-11T13:57:56Z</time>
      </trkpt>
      <trkpt lat="47.79684" lon="-2.4527">
        <ele>44.7</ele>
        <time>2025-02-11T13:57:57Z</time>
      </trkpt>
      <trkpt lat="47.79684" lon="-2.45269">
        <ele>44.8</ele>
        <time>2025-02-11T13:57:58Z</time>
      </trkpt>
      <trkpt lat="47.79684" lon="-2.45268">
        <ele>44.9</ele>
        <time>2025-02-11T13:57:59Z</time>
      </trkpt>
      <trkpt lat="47.79683" lon="-2.45266">
        <ele>45.1</ele>
        <time>2025-02-11T13:58:00Z</time>
      </trkpt>
      <trkpt lat="47.79683" lon="-2.45264">
        <ele>45.2</ele>
        <time>2025-02-11T13:58:01Z</time>
      </trkpt>
      <trkpt lat="47.79683" lon="-2.45264">
        <ele>45.3</ele>
        <time>2025-02-11T13:58:02Z</time>
      </trkpt>
      <trkpt lat="47.79683" lon="-2.45264">
        <ele>45.3</ele>
        <time>2025-02-11T13:58:03Z</time>
      </trkpt>
      <trkpt lat="47.79683" lon="-2.45264">
        <ele>45.3</ele>
        <time>2025-02-11T13:58:04Z</time>
      </trkpt>
      <trkpt lat="47.79683" lon="-2.45264">
        <ele>45.3</ele>
        <time>2025-02-11T13:58:05Z</time>
      </trkpt>
      <trkpt lat="47.79684" lon="-2.45264">
        <ele>45.3</ele>
        <time>2025-02-11T13:58:06Z</time>
      </trkpt>
      <trkpt lat="47.79683" lon="-2.45264">
        <ele>45.3</ele>
        <time>2025-02-11T13:58:07Z</time>
      </trkpt>
      <trkpt lat="47.79683" lon="-2.45263">
        <ele>45.4</ele>
        <time>2025-02-11T13:58:08Z</time>
      </trkpt>
      <trkpt lat="47.79683" lon="-2.45262">
        <ele>45.5</ele>
        <time>2025-02-11T13:58:09Z</time>
      </trkpt>
      <trkpt lat="47.79683" lon="-2.45261">
        <ele>45.6</ele>
        <time>2025-02-11T13:58:10Z</time>
      </trkpt>
      <trkpt lat="47.79684" lon="-2.4526">
        <ele>45.6</ele>
        <time>2025-02-11T13:58:11Z</time>
      </trkpt>
      <trkpt lat="47.79685" lon="-2.45261">
        <ele>45.4</ele>
        <time>2025-02-11T13:58:12Z</time>
      </trkpt>
      <trkpt lat="47.79686" lon="-2.45262">
        <ele>45.3</ele>
        <time>2025-02-11T13:58:13Z</time>
      </trkpt>
      <trkpt lat="47.79686" lon="-2.45263">
        <ele>45.2</ele>
        <time>2025-02-11T13:58:14Z</time>
      </trkpt>
      <trkpt lat="47.79686" lon="-2.45263">
        <ele>45.2</ele>
        <time>2025-02-11T13:58:15Z</time>
      </trkpt>
      <trkpt lat="47.79687" lon="-2.45263">
        <ele>45.1</ele>
        <time>2025-02-11T13:58:16Z</time>
      </trkpt>
      <trkpt lat="47.79688" lon="-2.45262">
        <ele>45.1</ele>
        <time>2025-02-11T13:58:17Z</time>
      </trkpt>
      <trkpt lat="47.79688" lon="-2.45263">
        <ele>45</ele>
        <time>2025-02-11T13:58:18Z</time>
      </trkpt>
      <trkpt lat="47.79688" lon="-2.45262">
        <ele>45</ele>
        <time>2025-02-11T13:58:19Z</time>
      </trkpt>
      <trkpt lat="47.79688" lon="-2.45263">
        <ele>45</ele>
        <time>2025-02-11T13:58:20Z</time>
      </trkpt>
      <trkpt lat="47.79689" lon="-2.45264">
        <ele>44.9</ele>
        <time>2025-02-11T13:58:21Z</time>
      </trkpt>
      <trkpt lat="47.7969" lon="-2.45264">
        <ele>44.8</ele>
        <time>2025-02-11T13:58:22Z</time>
      </trkpt>
      <trkpt lat="47.79691" lon="-2.45264">
        <ele>44.7</ele>
        <time>2025-02-11T13:58:23Z</time>
      </trkpt>
      <trkpt lat="47.79692" lon="-2.45263">
        <ele>44.7</ele>
        <time>2025-02-11T13:58:24Z</time>
      </trkpt>
      <trkpt lat="47.79692" lon="-2.45261">
        <ele>44.8</ele>
        <time>2025-02-11T13:58:25Z</time>
      </trkpt>
      <trkpt lat="47.79693" lon="-2.4526">
        <ele>44.8</ele>
        <time>2025-02-11T13:58:26Z</time>
      </trkpt>
      <trkpt lat="47.79693" lon="-2.45258">
        <ele>44.8</ele>
        <time>2025-02-11T13:58:27Z</time>
      </trkpt>
      <trkpt lat="47.79694" lon="-2.45255">
        <ele>44.9</ele>
        <time>2025-02-11T13:58:28Z</time>
      </trkpt>
      <trkpt lat="47.79695" lon="-2.45254">
        <ele>44.8</ele>
        <time>2025-02-11T13:58:29Z</time>
      </trkpt>
      <trkpt lat="47.79695" lon="-2.45252">
        <ele>44.9</ele>
        <time>2025-02-11T13:58:30Z</time>
      </trkpt>
      <trkpt lat="47.79695" lon="-2.45251">
        <ele>45</ele>
        <time>2025-02-11T13:58:31Z</time>
      </trkpt>
      <trkpt lat="47.79695" lon="-2.4525">
        <ele>45</ele>
        <time>2025-02-11T13:58:32Z</time>
      </trkpt>
      <trkpt lat="47.79695" lon="-2.45249">
        <ele>45.1</ele>
        <time>2025-02-11T13:58:33Z</time>
      </trkpt>
      <trkpt lat="47.79695" lon="-2.45248">
        <ele>45.3</ele>
        <time>2025-02-11T13:58:34Z</time>
      </trkpt>
      <trkpt lat="47.79695" lon="-2.45248">
        <ele>45.4</ele>
        <time>2025-02-11T13:58:35Z</time>
      </trkpt>
      <trkpt lat="47.79696" lon="-2.45248">
        <ele>45.4</ele>
        <time>2025-02-11T13:58:36Z</time>
      </trkpt>
      <trkpt lat="47.79696" lon="-2.45247">
        <ele>45.5</ele>
        <time>2025-02-11T13:58:37Z</time>
      </trkpt>
      <trkpt lat="47.79696" lon="-2.45246">
        <ele>45.7</ele>
        <time>2025-02-11T13:58:38Z</time>
      </trkpt>
      <trkpt lat="47.79696" lon="-2.45245">
        <ele>45.8</ele>
        <time>2025-02-11T13:58:39Z</time>
      </trkpt>
      <trkpt lat="47.79697" lon="-2.45244">
        <ele>45.9</ele>
        <time>2025-02-11T13:58:40Z</time>
      </trkpt>
      <trkpt lat="47.79697" lon="-2.45243">
        <ele>46.1</ele>
        <time>2025-02-11T13:58:41Z</time>
      </trkpt>
      <trkpt lat="47.79697" lon="-2.45239">
        <ele>46.9</ele>
        <time>2025-02-11T13:58:42Z</time>
      </trkpt>
      <trkpt lat="47.79697" lon="-2.45238">
        <ele>47.1</ele>
        <time>2025-02-11T13:58:43Z</time>
      </trkpt>
      <trkpt lat="47.79697" lon="-2.45236">
        <ele>47.4</ele>
        <time>2025-02-11T13:58:44Z</time>
      </trkpt>
      <trkpt lat="47.79697" lon="-2.45234">
        <ele>47.9</ele>
        <time>2025-02-11T13:58:45Z</time>
      </trkpt>
      <trkpt lat="47.79697" lon="-2.45232">
        <ele>48.5</ele>
        <time>2025-02-11T13:58:46Z</time>
      </trkpt>
      <trkpt lat="47.79696" lon="-2.4523">
        <ele>49</ele>
        <time>2025-02-11T13:58:47Z</time>
      </trkpt>
      <trkpt lat="47.79695" lon="-2.45227">
        <ele>49.8</ele>
        <time>2025-02-11T13:58:48Z</time>
      </trkpt>
      <trkpt lat="47.79694" lon="-2.45226">
        <ele>50.2</ele>
        <time>2025-02-11T13:58:49Z</time>
      </trkpt>
      <trkpt lat="47.79693" lon="-2.45226">
        <ele>50.4</ele>
        <time>2025-02-11T13:58:50Z</time>
      </trkpt>
      <trkpt lat="47.79692" lon="-2.45225">
        <ele>50.5</ele>
        <time>2025-02-11T13:58:51Z</time>
      </trkpt>
      <trkpt lat="47.79691" lon="-2.45223">
        <ele>50.9</ele>
        <time>2025-02-11T13:58:52Z</time>
      </trkpt>
      <trkpt lat="47.79691" lon="-2.45222">
        <ele>51.1</ele>
        <time>2025-02-11T13:58:53Z</time>
      </trkpt>
      <trkpt lat="47.79691" lon="-2.45223">
        <ele>51</ele>
        <time>2025-02-11T13:58:54Z</time>
      </trkpt>
      <trkpt lat="47.79691" lon="-2.45223">
        <ele>50.9</ele>
        <time>2025-02-11T13:58:55Z</time>
      </trkpt>
      <trkpt lat="47.79691" lon="-2.45223">
        <ele>50.9</ele>
        <time>2025-02-11T13:58:56Z</time>
      </trkpt>
      <trkpt lat="47.79691" lon="-2.45223">
        <ele>51</ele>
        <time>2025-02-11T13:58:57Z</time>
      </trkpt>
      <trkpt lat="47.79691" lon="-2.45223">
        <ele>51</ele>
        <time>2025-02-11T13:58:58Z</time>
      </trkpt>
      <trkpt lat="47.79691" lon="-2.45222">
        <ele>51.2</ele>
        <time>2025-02-11T13:58:59Z</time>
      </trkpt>
      <trkpt lat="47.79692" lon="-2.45221">
        <ele>51.3</ele>
        <time>2025-02-11T13:59:00Z</time>
      </trkpt>
      <trkpt lat="47.79693" lon="-2.4522">
        <ele>51.3</ele>
        <time>2025-02-11T13:59:01Z</time>
      </trkpt>
      <trkpt lat="47.79694" lon="-2.45219">
        <ele>51.4</ele>
        <time>2025-02-11T13:59:02Z</time>
      </trkpt>
      <trkpt lat="47.79695" lon="-2.45218">
        <ele>51.5</ele>
        <time>2025-02-11T13:59:03Z</time>
      </trkpt>
      <trkpt lat="47.79695" lon="-2.45218">
        <ele>51.4</ele>
        <time>2025-02-11T13:59:04Z</time>
      </trkpt>
      <trkpt lat="47.79696" lon="-2.45217">
        <ele>51.2</ele>
        <time>2025-02-11T13:59:05Z</time>
      </trkpt>
      <trkpt lat="47.79697" lon="-2.45216">
        <ele>51</ele>
        <time>2025-02-11T13:59:06Z</time>
      </trkpt>
      <trkpt lat="47.79698" lon="-2.45215">
        <ele>50.9</ele>
        <time>2025-02-11T13:59:07Z</time>
      </trkpt>
      <trkpt lat="47.79698" lon="-2.45214">
        <ele>50.8</ele>
        <time>2025-02-11T13:59:08Z</time>
      </trkpt>
      <trkpt lat="47.79699" lon="-2.45213">
        <ele>50.8</ele>
        <time>2025-02-11T13:59:09Z</time>
      </trkpt>
      <trkpt lat="47.79699" lon="-2.45213">
        <ele>50.6</ele>
        <time>2025-02-11T13:59:10Z</time>
      </trkpt>
      <trkpt lat="47.797" lon="-2.45213">
        <ele>50.5</ele>
        <time>2025-02-11T13:59:11Z</time>
      </trkpt>
      <trkpt lat="47.797" lon="-2.45213">
        <ele>50.4</ele>
        <time>2025-02-11T13:59:12Z</time>
      </trkpt>
      <trkpt lat="47.797" lon="-2.45214">
        <ele>50.2</ele>
        <time>2025-02-11T13:59:13Z</time>
      </trkpt>
      <trkpt lat="47.797" lon="-2.45214">
        <ele>50.3</ele>
        <time>2025-02-11T13:59:14Z</time>
      </trkpt>
      <trkpt lat="47.797" lon="-2.45215">
        <ele>50.2</ele>
        <time>2025-02-11T13:59:15Z</time>
      </trkpt>
      <trkpt lat="47.79699" lon="-2.45215">
        <ele>50.4</ele>
        <time>2025-02-11T13:59:16Z</time>
      </trkpt>
      <trkpt lat="47.79698" lon="-2.45215">
        <ele>50.8</ele>
        <time>2025-02-11T13:59:17Z</time>
      </trkpt>
      <trkpt lat="47.79696" lon="-2.45216">
        <ele>51.3</ele>
        <time>2025-02-11T13:59:18Z</time>
      </trkpt>
      <trkpt lat="47.79695" lon="-2.45215">
        <ele>51.9</ele>
        <time>2025-02-11T13:59:19Z</time>
      </trkpt>
      <trkpt lat="47.79695" lon="-2.45214">
        <ele>52.2</ele>
        <time>2025-02-11T13:59:20Z</time>
      </trkpt>
      <trkpt lat="47.79693" lon="-2.45213">
        <ele>52.4</ele>
        <time>2025-02-11T13:59:21Z</time>
      </trkpt>
      <trkpt lat="47.79693" lon="-2.45213">
        <ele>52.4</ele>
        <time>2025-02-11T13:59:22Z</time>
      </trkpt>
      <trkpt lat="47.79692" lon="-2.45213">
        <ele>52.4</ele>
        <time>2025-02-11T13:59:23Z</time>
      </trkpt>
      <trkpt lat="47.7969" lon="-2.45213">
        <ele>52.5</ele>
        <time>2025-02-11T13:59:24Z</time>
      </trkpt>
      <trkpt lat="47.79689" lon="-2.45212">
        <ele>52.7</ele>
        <time>2025-02-11T13:59:25Z</time>
      </trkpt>
      <trkpt lat="47.79689" lon="-2.4521">
        <ele>52.9</ele>
        <time>2025-02-11T13:59:26Z</time>
      </trkpt>
      <trkpt lat="47.79688" lon="-2.4521">
        <ele>53</ele>
        <time>2025-02-11T13:59:27Z</time>
      </trkpt>
      <trkpt lat="47.79687" lon="-2.4521">
        <ele>53</ele>
        <time>2025-02-11T13:59:28Z</time>
      </trkpt>
      <trkpt lat="47.79686" lon="-2.45211">
        <ele>53</ele>
        <time>2025-02-11T13:59:29Z</time>
      </trkpt>
      <trkpt lat="47.79685" lon="-2.45211">
        <ele>53</ele>
        <time>2025-02-11T13:59:30Z</time>
      </trkpt>
      <trkpt lat="47.79684" lon="-2.45212">
        <ele>52.9</ele>
        <time>2025-02-11T13:59:31Z</time>
      </trkpt>
      <trkpt lat="47.79683" lon="-2.45213">
        <ele>52.8</ele>
        <time>2025-02-11T13:59:32Z</time>
      </trkpt>
      <trkpt lat="47.79683" lon="-2.45214">
        <ele>52.6</ele>
        <time>2025-02-11T13:59:33Z</time>
      </trkpt>
      <trkpt lat="47.79683" lon="-2.45213">
        <ele>52.7</ele>
        <time>2025-02-11T13:59:34Z</time>
      </trkpt>
      <trkpt lat="47.79682" lon="-2.45213">
        <ele>52.8</ele>
        <time>2025-02-11T13:59:35Z</time>
      </trkpt>
      <trkpt lat="47.79682" lon="-2.45213">
        <ele>52.8</ele>
        <time>2025-02-11T13:59:36Z</time>
      </trkpt>
      <trkpt lat="47.79682" lon="-2.45214">
        <ele>52.6</ele>
        <time>2025-02-11T13:59:37Z</time>
      </trkpt>
      <trkpt lat="47.79681" lon="-2.45216">
        <ele>52.5</ele>
        <time>2025-02-11T13:59:38Z</time>
      </trkpt>
      <trkpt lat="47.7968" lon="-2.45217">
        <ele>52.4</ele>
        <time>2025-02-11T13:59:39Z</time>
      </trkpt>
      <trkpt lat="47.79679" lon="-2.45217">
        <ele>52.3</ele>
        <time>2025-02-11T13:59:40Z</time>
      </trkpt>
      <trkpt lat="47.79678" lon="-2.45217">
        <ele>52.3</ele>
        <time>2025-02-11T13:59:41Z</time>
      </trkpt>
      <trkpt lat="47.79677" lon="-2.45218">
        <ele>52.3</ele>
        <time>2025-02-11T13:59:42Z</time>
      </trkpt>
      <trkpt lat="47.79677" lon="-2.45217">
        <ele>52.4</ele>
        <time>2025-02-11T13:59:43Z</time>
      </trkpt>
      <trkpt lat="47.79675" lon="-2.45215">
        <ele>52.8</ele>
        <time>2025-02-11T13:59:44Z</time>
      </trkpt>
      <trkpt lat="47.79674" lon="-2.45213">
        <ele>53.1</ele>
        <time>2025-02-11T13:59:45Z</time>
      </trkpt>
      <trkpt lat="47.79675" lon="-2.45209">
        <ele>53.6</ele>
        <time>2025-02-11T13:59:46Z</time>
      </trkpt>
      <trkpt lat="47.79676" lon="-2.45208">
        <ele>53.8</ele>
        <time>2025-02-11T13:59:47Z</time>
      </trkpt>
      <trkpt lat="47.79677" lon="-2.45206">
        <ele>54</ele>
        <time>2025-02-11T13:59:48Z</time>
      </trkpt>
      <trkpt lat="47.79678" lon="-2.45205">
        <ele>54</ele>
        <time>2025-02-11T13:59:49Z</time>
      </trkpt>
      <trkpt lat="47.79678" lon="-2.45204">
        <ele>54.2</ele>
        <time>2025-02-11T13:59:50Z</time>
      </trkpt>
      <trkpt lat="47.79679" lon="-2.45203">
        <ele>54.4</ele>
        <time>2025-02-11T13:59:51Z</time>
      </trkpt>
      <trkpt lat="47.7968" lon="-2.45202">
        <ele>54.4</ele>
        <time>2025-02-11T13:59:52Z</time>
      </trkpt>
      <trkpt lat="47.79679" lon="-2.45201">
        <ele>54.6</ele>
        <time>2025-02-11T13:59:53Z</time>
      </trkpt>
      <trkpt lat="47.7968" lon="-2.452">
        <ele>54.7</ele>
        <time>2025-02-11T13:59:54Z</time>
      </trkpt>
      <trkpt lat="47.7968" lon="-2.452">
        <ele>54.8</ele>
        <time>2025-02-11T13:59:55Z</time>
      </trkpt>
      <trkpt lat="47.7968" lon="-2.45199">
        <ele>54.9</ele>
        <time>2025-02-11T13:59:56Z</time>
      </trkpt>
      <trkpt lat="47.7968" lon="-2.45198">
        <ele>55</ele>
        <time>2025-02-11T13:59:57Z</time>
      </trkpt>
      <trkpt lat="47.7968" lon="-2.45196">
        <ele>55.3</ele>
        <time>2025-02-11T13:59:58Z</time>
      </trkpt>
      <trkpt lat="47.7968" lon="-2.45196">
        <ele>55.3</ele>
        <time>2025-02-11T13:59:59Z</time>
      </trkpt>
      <trkpt lat="47.7968" lon="-2.45195">
        <ele>55.5</ele>
        <time>2025-02-11T14:00:00Z</time>
      </trkpt>
      <trkpt lat="47.7968" lon="-2.45194">
        <ele>55.6</ele>
        <time>2025-02-11T14:00:01Z</time>
      </trkpt>
      <trkpt lat="47.79679" lon="-2.45194">
        <ele>55.6</ele>
        <time>2025-02-11T14:00:02Z</time>
      </trkpt>
      <trkpt lat="47.79679" lon="-2.45193">
        <ele>55.7</ele>
        <time>2025-02-11T14:00:03Z</time>
      </trkpt>
      <trkpt lat="47.79678" lon="-2.45192">
        <ele>55.8</ele>
        <time>2025-02-11T14:00:04Z</time>
      </trkpt>
      <trkpt lat="47.79678" lon="-2.45191">
        <ele>55.8</ele>
        <time>2025-02-11T14:00:05Z</time>
      </trkpt>
      <trkpt lat="47.79677" lon="-2.4519">
        <ele>55.9</ele>
        <time>2025-02-11T14:00:06Z</time>
      </trkpt>
      <trkpt lat="47.79676" lon="-2.4519">
        <ele>56</ele>
        <time>2025-02-11T14:00:07Z</time>
      </trkpt>
      <trkpt lat="47.79676" lon="-2.45188">
        <ele>56.1</ele>
        <time>2025-02-11T14:00:08Z</time>
      </trkpt>
      <trkpt lat="47.79676" lon="-2.45187">
        <ele>56.2</ele>
        <time>2025-02-11T14:00:09Z</time>
      </trkpt>
      <trkpt lat="47.79677" lon="-2.45186">
        <ele>56.3</ele>
        <time>2025-02-11T14:00:10Z</time>
      </trkpt>
      <trkpt lat="47.79677" lon="-2.45184">
        <ele>56.4</ele>
        <time>2025-02-11T14:00:11Z</time>
      </trkpt>
      <trkpt lat="47.79677" lon="-2.45183">
        <ele>56.4</ele>
        <time>2025-02-11T14:00:12Z</time>
      </trkpt>
      <trkpt lat="47.79677" lon="-2.45183">
        <ele>56.5</ele>
        <time>2025-02-11T14:00:13Z</time>
      </trkpt>
      <trkpt lat="47.79677" lon="-2.45182">
        <ele>56.5</ele>
        <time>2025-02-11T14:00:14Z</time>
      </trkpt>
      <trkpt lat="47.79678" lon="-2.45181">
        <ele>56.6</ele>
        <time>2025-02-11T14:00:15Z</time>
      </trkpt>
      <trkpt lat="47.79678" lon="-2.45181">
        <ele>56.6</ele>
        <time>2025-02-11T14:00:16Z</time>
      </trkpt>
      <trkpt lat="47.79679" lon="-2.45179">
        <ele>56.7</ele>
        <time>2025-02-11T14:00:17Z</time>
      </trkpt>
      <trkpt lat="47.79679" lon="-2.45179">
        <ele>56.7</ele>
        <time>2025-02-11T14:00:18Z</time>
      </trkpt>
      <trkpt lat="47.79679" lon="-2.45178">
        <ele>56.8</ele>
        <time>2025-02-11T14:00:19Z</time>
      </trkpt>
      <trkpt lat="47.79679" lon="-2.45176">
        <ele>56.9</ele>
        <time>2025-02-11T14:00:20Z</time>
      </trkpt>
      <trkpt lat="47.79679" lon="-2.45175">
        <ele>57</ele>
        <time>2025-02-11T14:00:21Z</time>
      </trkpt>
      <trkpt lat="47.79679" lon="-2.45174">
        <ele>57</ele>
        <time>2025-02-11T14:00:22Z</time>
      </trkpt>
      <trkpt lat="47.79678" lon="-2.45173">
        <ele>57.1</ele>
        <time>2025-02-11T14:00:23Z</time>
      </trkpt>
      <trkpt lat="47.79678" lon="-2.45172">
        <ele>57.2</ele>
        <time>2025-02-11T14:00:24Z</time>
      </trkpt>
      <trkpt lat="47.79678" lon="-2.45171">
        <ele>57.3</ele>
        <time>2025-02-11T14:00:25Z</time>
      </trkpt>
      <trkpt lat="47.79677" lon="-2.45171">
        <ele>57.3</ele>
        <time>2025-02-11T14:00:26Z</time>
      </trkpt>
      <trkpt lat="47.79678" lon="-2.4517">
        <ele>57.4</ele>
        <time>2025-02-11T14:00:27Z</time>
      </trkpt>
      <trkpt lat="47.79678" lon="-2.45169">
        <ele>57.5</ele>
        <time>2025-02-11T14:00:28Z</time>
      </trkpt>
      <trkpt lat="47.79679" lon="-2.45168">
        <ele>57.5</ele>
        <time>2025-02-11T14:00:29Z</time>
      </trkpt>
      <trkpt lat="47.79679" lon="-2.45167">
        <ele>57.5</ele>
        <time>2025-02-11T14:00:30Z</time>
      </trkpt>
      <trkpt lat="47.7968" lon="-2.45167">
        <ele>57.5</ele>
        <time>2025-02-11T14:00:31Z</time>
      </trkpt>
      <trkpt lat="47.7968" lon="-2.45167">
        <ele>57.5</ele>
        <time>2025-02-11T14:00:32Z</time>
      </trkpt>
      <trkpt lat="47.79681" lon="-2.45165">
        <ele>57.6</ele>
        <time>2025-02-11T14:00:33Z</time>
      </trkpt>
      <trkpt lat="47.79682" lon="-2.45164">
        <ele>57.6</ele>
        <time>2025-02-11T14:00:34Z</time>
      </trkpt>
      <trkpt lat="47.79683" lon="-2.45163">
        <ele>57.6</ele>
        <time>2025-02-11T14:00:35Z</time>
      </trkpt>
      <trkpt lat="47.79684" lon="-2.45162">
        <ele>57.7</ele>
        <time>2025-02-11T14:00:36Z</time>
      </trkpt>
      <trkpt lat="47.79685" lon="-2.45162">
        <ele>57.7</ele>
        <time>2025-02-11T14:00:37Z</time>
      </trkpt>
      <trkpt lat="47.79686" lon="-2.45162">
        <ele>57.7</ele>
        <time>2025-02-11T14:00:38Z</time>
      </trkpt>
      <trkpt lat="47.79687" lon="-2.45162">
        <ele>57.7</ele>
        <time>2025-02-11T14:00:39Z</time>
      </trkpt>
      <trkpt lat="47.79688" lon="-2.45162">
        <ele>57.6</ele>
        <time>2025-02-11T14:00:40Z</time>
      </trkpt>
      <trkpt lat="47.79688" lon="-2.45162">
        <ele>57.6</ele>
        <time>2025-02-11T14:00:41Z</time>
      </trkpt>
      <trkpt lat="47.79689" lon="-2.45162">
        <ele>57.6</ele>
        <time>2025-02-11T14:00:42Z</time>
      </trkpt>
      <trkpt lat="47.7969" lon="-2.45161">
        <ele>57.7</ele>
        <time>2025-02-11T14:00:43Z</time>
      </trkpt>
      <trkpt lat="47.7969" lon="-2.4516">
        <ele>57.7</ele>
        <time>2025-02-11T14:00:44Z</time>
      </trkpt>
      <trkpt lat="47.79691" lon="-2.45159">
        <ele>57.8</ele>
        <time>2025-02-11T14:00:45Z</time>
      </trkpt>
      <trkpt lat="47.79692" lon="-2.45158">
        <ele>57.9</ele>
        <time>2025-02-11T14:00:46Z</time>
      </trkpt>
      <trkpt lat="47.79692" lon="-2.45157">
        <ele>58.1</ele>
        <time>2025-02-11T14:00:47Z</time>
      </trkpt>
      <trkpt lat="47.79692" lon="-2.45156">
        <ele>58.2</ele>
        <time>2025-02-11T14:00:48Z</time>
      </trkpt>
      <trkpt lat="47.79692" lon="-2.45154">
        <ele>58.3</ele>
        <time>2025-02-11T14:00:49Z</time>
      </trkpt>
      <trkpt lat="47.79692" lon="-2.45153">
        <ele>58.4</ele>
        <time>2025-02-11T14:00:50Z</time>
      </trkpt>
      <trkpt lat="47.79693" lon="-2.45152">
        <ele>58.6</ele>
        <time>2025-02-11T14:00:51Z</time>
      </trkpt>
      <trkpt lat="47.79693" lon="-2.4515">
        <ele>58.7</ele>
        <time>2025-02-11T14:00:52Z</time>
      </trkpt>
      <trkpt lat="47.79693" lon="-2.45149">
        <ele>58.8</ele>
        <time>2025-02-11T14:00:53Z</time>
      </trkpt>
      <trkpt lat="47.79693" lon="-2.45148">
        <ele>59</ele>
        <time>2025-02-11T14:00:54Z</time>
      </trkpt>
      <trkpt lat="47.79694" lon="-2.45147">
        <ele>59.1</ele>
        <time>2025-02-11T14:00:55Z</time>
      </trkpt>
      <trkpt lat="47.79694" lon="-2.45145">
        <ele>59.3</ele>
        <time>2025-02-11T14:00:56Z</time>
      </trkpt>
      <trkpt lat="47.79694" lon="-2.45143">
        <ele>59.5</ele>
        <time>2025-02-11T14:00:57Z</time>
      </trkpt>
      <trkpt lat="47.79694" lon="-2.45142">
        <ele>59.6</ele>
        <time>2025-02-11T14:00:58Z</time>
      </trkpt>
      <trkpt lat="47.79694" lon="-2.45141">
        <ele>59.8</ele>
        <time>2025-02-11T14:00:59Z</time>
      </trkpt>
      <trkpt lat="47.79694" lon="-2.45139">
        <ele>59.9</ele>
        <time>2025-02-11T14:01:00Z</time>
      </trkpt>
      <trkpt lat="47.79694" lon="-2.45138">
        <ele>60</ele>
        <time>2025-02-11T14:01:01Z</time>
      </trkpt>
      <trkpt lat="47.79694" lon="-2.45136">
        <ele>60</ele>
        <time>2025-02-11T14:01:02Z</time>
      </trkpt>
      <trkpt lat="47.79694" lon="-2.45135">
        <ele>60</ele>
        <time>2025-02-11T14:01:03Z</time>
      </trkpt>
      <trkpt lat="47.79695" lon="-2.45133">
        <ele>60</ele>
        <time>2025-02-11T14:01:04Z</time>
      </trkpt>
      <trkpt lat="47.79695" lon="-2.45132">
        <ele>59.9</ele>
        <time>2025-02-11T14:01:05Z</time>
      </trkpt>
      <trkpt lat="47.79695" lon="-2.4513">
        <ele>59.9</ele>
        <time>2025-02-11T14:01:06Z</time>
      </trkpt>
      <trkpt lat="47.79695" lon="-2.45129">
        <ele>59.8</ele>
        <time>2025-02-11T14:01:07Z</time>
      </trkpt>
      <trkpt lat="47.79694" lon="-2.45127">
        <ele>60</ele>
        <time>2025-02-11T14:01:08Z</time>
      </trkpt>
      <trkpt lat="47.79695" lon="-2.45125">
        <ele>59.9</ele>
        <time>2025-02-11T14:01:09Z</time>
      </trkpt>
      <trkpt lat="47.79695" lon="-2.45124">
        <ele>59.9</ele>
        <time>2025-02-11T14:01:10Z</time>
      </trkpt>
      <trkpt lat="47.79695" lon="-2.45122">
        <ele>59.7</ele>
        <time>2025-02-11T14:01:11Z</time>
      </trkpt>
      <trkpt lat="47.79695" lon="-2.45121">
        <ele>59.8</ele>
        <time>2025-02-11T14:01:12Z</time>
      </trkpt>
      <trkpt lat="47.79695" lon="-2.45119">
        <ele>59.7</ele>
        <time>2025-02-11T14:01:13Z</time>
      </trkpt>
      <trkpt lat="47.79695" lon="-2.45118">
        <ele>59.7</ele>
        <time>2025-02-11T14:01:14Z</time>
      </trkpt>
      <trkpt lat="47.79695" lon="-2.45117">
        <ele>59.7</ele>
        <time>2025-02-11T14:01:15Z</time>
      </trkpt>
      <trkpt lat="47.79696" lon="-2.45115">
        <ele>59.5</ele>
        <time>2025-02-11T14:01:16Z</time>
      </trkpt>
      <trkpt lat="47.79696" lon="-2.45114">
        <ele>59.3</ele>
        <time>2025-02-11T14:01:17Z</time>
      </trkpt>
      <trkpt lat="47.79697" lon="-2.45113">
        <ele>59.1</ele>
        <time>2025-02-11T14:01:18Z</time>
      </trkpt>
      <trkpt lat="47.79697" lon="-2.45111">
        <ele>59</ele>
        <time>2025-02-11T14:01:19Z</time>
      </trkpt>
      <trkpt lat="47.79698" lon="-2.4511">
        <ele>58.8</ele>
        <time>2025-02-11T14:01:20Z</time>
      </trkpt>
      <trkpt lat="47.79698" lon="-2.45108">
        <ele>58.7</ele>
        <time>2025-02-11T14:01:21Z</time>
      </trkpt>
      <trkpt lat="47.79698" lon="-2.45108">
        <ele>58.8</ele>
        <time>2025-02-11T14:01:22Z</time>
      </trkpt>
      <trkpt lat="47.79698" lon="-2.45106">
        <ele>59</ele>
        <time>2025-02-11T14:01:23Z</time>
      </trkpt>
      <trkpt lat="47.79698" lon="-2.45104">
        <ele>59.1</ele>
        <time>2025-02-11T14:01:24Z</time>
      </trkpt>
      <trkpt lat="47.79698" lon="-2.45101">
        <ele>59.4</ele>
        <time>2025-02-11T14:01:25Z</time>
      </trkpt>
      <trkpt lat="47.79698" lon="-2.45099">
        <ele>59.4</ele>
        <time>2025-02-11T14:01:26Z</time>
      </trkpt>
      <trkpt lat="47.79698" lon="-2.45098">
        <ele>59.6</ele>
        <time>2025-02-11T14:01:27Z</time>
      </trkpt>
      <trkpt lat="47.79698" lon="-2.45097">
        <ele>59.6</ele>
        <time>2025-02-11T14:01:28Z</time>
      </trkpt>
      <trkpt lat="47.79698" lon="-2.45096">
        <ele>59.7</ele>
        <time>2025-02-11T14:01:29Z</time>
      </trkpt>
      <trkpt lat="47.79698" lon="-2.45095">
        <ele>59.6</ele>
        <time>2025-02-11T14:01:30Z</time>
      </trkpt>
      <trkpt lat="47.79698" lon="-2.45093">
        <ele>59.7</ele>
        <time>2025-02-11T14:01:31Z</time>
      </trkpt>
      <trkpt lat="47.79698" lon="-2.45091">
        <ele>59.8</ele>
        <time>2025-02-11T14:01:32Z</time>
      </trkpt>
      <trkpt lat="47.79699" lon="-2.45089">
        <ele>59.8</ele>
        <time>2025-02-11T14:01:33Z</time>
      </trkpt>
      <trkpt lat="47.79698" lon="-2.45088">
        <ele>59.9</ele>
        <time>2025-02-11T14:01:34Z</time>
      </trkpt>
      <trkpt lat="47.79698" lon="-2.45087">
        <ele>60</ele>
        <time>2025-02-11T14:01:35Z</time>
      </trkpt>
      <trkpt lat="47.79697" lon="-2.4509">
        <ele>60</ele>
        <time>2025-02-11T14:01:36Z</time>
      </trkpt>
      <trkpt lat="47.79697" lon="-2.45091">
        <ele>60.1</ele>
        <time>2025-02-11T14:01:37Z</time>
      </trkpt>
      <trkpt lat="47.79697" lon="-2.4509">
        <ele>60.1</ele>
        <time>2025-02-11T14:01:38Z</time>
      </trkpt>
      <trkpt lat="47.79696" lon="-2.45089">
        <ele>60.3</ele>
        <time>2025-02-11T14:01:39Z</time>
      </trkpt>
      <trkpt lat="47.79696" lon="-2.45087">
        <ele>60.4</ele>
        <time>2025-02-11T14:01:40Z</time>
      </trkpt>
      <trkpt lat="47.79697" lon="-2.45086">
        <ele>60.3</ele>
        <time>2025-02-11T14:01:41Z</time>
      </trkpt>
      <trkpt lat="47.79697" lon="-2.45087">
        <ele>60.2</ele>
        <time>2025-02-11T14:01:42Z</time>
      </trkpt>
      <trkpt lat="47.79697" lon="-2.45087">
        <ele>60.2</ele>
        <time>2025-02-11T14:01:43Z</time>
      </trkpt>
      <trkpt lat="47.79697" lon="-2.45087">
        <ele>60.2</ele>
        <time>2025-02-11T14:01:44Z</time>
      </trkpt>
      <trkpt lat="47.79697" lon="-2.45087">
        <ele>60.2</ele>
        <time>2025-02-11T14:01:45Z</time>
      </trkpt>
      <trkpt lat="47.79697" lon="-2.45087">
        <ele>60.2</ele>
        <time>2025-02-11T14:01:46Z</time>
      </trkpt>
      <trkpt lat="47.79697" lon="-2.45087">
        <ele>60.2</ele>
        <time>2025-02-11T14:01:47Z</time>
      </trkpt>
      <trkpt lat="47.79697" lon="-2.45087">
        <ele>60.2</ele>
        <time>2025-02-11T14:01:48Z</time>
      </trkpt>
      <trkpt lat="47.79697" lon="-2.45087">
        <ele>60.2</ele>
        <time>2025-02-11T14:01:49Z</time>
      </trkpt>
      <trkpt lat="47.79697" lon="-2.45087">
        <ele>60.2</ele>
        <time>2025-02-11T14:01:50Z</time>
      </trkpt>
      <trkpt lat="47.79697" lon="-2.45087">
        <ele>60.2</ele>
        <time>2025-02-11T14:01:51Z</time>
      </trkpt>
      <trkpt lat="47.79697" lon="-2.45087">
        <ele>60.2</ele>
        <time>2025-02-11T14:01:52Z</time>
      </trkpt>
      <trkpt lat="47.79697" lon="-2.45087">
        <ele>60.2</ele>
        <time>2025-02-11T14:01:53Z</time>
      </trkpt>
      <trkpt lat="47.79697" lon="-2.45087">
        <ele>60.2</ele>
        <time>2025-02-11T14:01:54Z</time>
      </trkpt>
      <trkpt lat="47.79697" lon="-2.45087">
        <ele>60.3</ele>
        <time>2025-02-11T14:01:55Z</time>
      </trkpt>
      <trkpt lat="47.79696" lon="-2.45087">
        <ele>60.4</ele>
        <time>2025-02-11T14:01:56Z</time>
      </trkpt>
      <trkpt lat="47.79696" lon="-2.45088">
        <ele>60.4</ele>
        <time>2025-02-11T14:01:57Z</time>
      </trkpt>
      <trkpt lat="47.79696" lon="-2.45089">
        <ele>60.4</ele>
        <time>2025-02-11T14:01:58Z</time>
      </trkpt>
      <trkpt lat="47.79696" lon="-2.45089">
        <ele>60.3</ele>
        <time>2025-02-11T14:01:59Z</time>
      </trkpt>
      <trkpt lat="47.79697" lon="-2.45089">
        <ele>60.2</ele>
        <time>2025-02-11T14:02:00Z</time>
      </trkpt>
      <trkpt lat="47.79697" lon="-2.45089">
        <ele>60.2</ele>
        <time>2025-02-11T14:02:01Z</time>
      </trkpt>
      <trkpt lat="47.79697" lon="-2.45089">
        <ele>60.2</ele>
        <time>2025-02-11T14:02:02Z</time>
      </trkpt>
      <trkpt lat="47.79697" lon="-2.45089">
        <ele>60.2</ele>
        <time>2025-02-11T14:02:03Z</time>
      </trkpt>
      <trkpt lat="47.79697" lon="-2.45089">
        <ele>60.2</ele>
        <time>2025-02-11T14:02:04Z</time>
      </trkpt>
      <trkpt lat="47.79697" lon="-2.45088">
        <ele>60.3</ele>
        <time>2025-02-11T14:02:05Z</time>
      </trkpt>
      <trkpt lat="47.79695" lon="-2.45085">
        <ele>60.7</ele>
        <time>2025-02-11T14:02:06Z</time>
      </trkpt>
      <trkpt lat="47.79695" lon="-2.45085">
        <ele>60.8</ele>
        <time>2025-02-11T14:02:07Z</time>
      </trkpt>
      <trkpt lat="47.79695" lon="-2.45085">
        <ele>60.8</ele>
        <time>2025-02-11T14:02:08Z</time>
      </trkpt>
      <trkpt lat="47.79695" lon="-2.45085">
        <ele>60.7</ele>
        <time>2025-02-11T14:02:09Z</time>
      </trkpt>
      <trkpt lat="47.79696" lon="-2.45084">
        <ele>60.6</ele>
        <time>2025-02-11T14:02:10Z</time>
      </trkpt>
      <trkpt lat="47.79697" lon="-2.45083">
        <ele>60.5</ele>
        <time>2025-02-11T14:02:11Z</time>
      </trkpt>
      <trkpt lat="47.79697" lon="-2.45082">
        <ele>60.5</ele>
        <time>2025-02-11T14:02:12Z</time>
      </trkpt>
      <trkpt lat="47.79697" lon="-2.45081">
        <ele>60.6</ele>
        <time>2025-02-11T14:02:13Z</time>
      </trkpt>
      <trkpt lat="47.79698" lon="-2.45079">
        <ele>60.6</ele>
        <time>2025-02-11T14:02:14Z</time>
      </trkpt>
      <trkpt lat="47.79698" lon="-2.45078">
        <ele>60.8</ele>
        <time>2025-02-11T14:02:15Z</time>
      </trkpt>
      <trkpt lat="47.79697" lon="-2.45077">
        <ele>60.9</ele>
        <time>2025-02-11T14:02:16Z</time>
      </trkpt>
      <trkpt lat="47.79697" lon="-2.45076">
        <ele>61</ele>
        <time>2025-02-11T14:02:17Z</time>
      </trkpt>
      <trkpt lat="47.79696" lon="-2.45075">
        <ele>61.3</ele>
        <time>2025-02-11T14:02:18Z</time>
      </trkpt>
      <trkpt lat="47.79696" lon="-2.45074">
        <ele>61.4</ele>
        <time>2025-02-11T14:02:19Z</time>
      </trkpt>
      <trkpt lat="47.79696" lon="-2.45074">
        <ele>61.4</ele>
        <time>2025-02-11T14:02:20Z</time>
      </trkpt>
      <trkpt lat="47.79696" lon="-2.45075">
        <ele>61.4</ele>
        <time>2025-02-11T14:02:21Z</time>
      </trkpt>
      <trkpt lat="47.79696" lon="-2.45075">
        <ele>61.4</ele>
        <time>2025-02-11T14:02:22Z</time>
      </trkpt>
      <trkpt lat="47.79694" lon="-2.45074">
        <ele>61.7</ele>
        <time>2025-02-11T14:02:23Z</time>
      </trkpt>
      <trkpt lat="47.79693" lon="-2.45073">
        <ele>61.7</ele>
        <time>2025-02-11T14:02:24Z</time>
      </trkpt>
      <trkpt lat="47.79691" lon="-2.45072">
        <ele>61.7</ele>
        <time>2025-02-11T14:02:25Z</time>
      </trkpt>
      <trkpt lat="47.7969" lon="-2.4507">
        <ele>61.8</ele>
        <time>2025-02-11T14:02:26Z</time>
      </trkpt>
      <trkpt lat="47.79689" lon="-2.4507">
        <ele>61.8</ele>
        <time>2025-02-11T14:02:27Z</time>
      </trkpt>
      <trkpt lat="47.79687" lon="-2.4507">
        <ele>61.7</ele>
        <time>2025-02-11T14:02:28Z</time>
      </trkpt>
      <trkpt lat="47.79686" lon="-2.45071">
        <ele>61.6</ele>
        <time>2025-02-11T14:02:29Z</time>
      </trkpt>
      <trkpt lat="47.79685" lon="-2.45071">
        <ele>61.6</ele>
        <time>2025-02-11T14:02:30Z</time>
      </trkpt>
      <trkpt lat="47.79684" lon="-2.45071">
        <ele>61.6</ele>
        <time>2025-02-11T14:02:31Z</time>
      </trkpt>
      <trkpt lat="47.79684" lon="-2.45072">
        <ele>61.5</ele>
        <time>2025-02-11T14:02:32Z</time>
      </trkpt>
      <trkpt lat="47.79683" lon="-2.45071">
        <ele>61.5</ele>
        <time>2025-02-11T14:02:33Z</time>
      </trkpt>
      <trkpt lat="47.79683" lon="-2.4507">
        <ele>61.6</ele>
        <time>2025-02-11T14:02:34Z</time>
      </trkpt>
      <trkpt lat="47.79683" lon="-2.45068">
        <ele>61.6</ele>
        <time>2025-02-11T14:02:35Z</time>
      </trkpt>
      <trkpt lat="47.79683" lon="-2.45068">
        <ele>61.6</ele>
        <time>2025-02-11T14:02:36Z</time>
      </trkpt>
      <trkpt lat="47.79684" lon="-2.45068">
        <ele>61.7</ele>
        <time>2025-02-11T14:02:37Z</time>
      </trkpt>
      <trkpt lat="47.79684" lon="-2.45068">
        <ele>61.7</ele>
        <time>2025-02-11T14:02:38Z</time>
      </trkpt>
      <trkpt lat="47.79685" lon="-2.45069">
        <ele>61.7</ele>
        <time>2025-02-11T14:02:39Z</time>
      </trkpt>
      <trkpt lat="47.79685" lon="-2.45069">
        <ele>61.7</ele>
        <time>2025-02-11T14:02:40Z</time>
      </trkpt>
      <trkpt lat="47.79685" lon="-2.45069">
        <ele>61.7</ele>
        <time>2025-02-11T14:02:41Z</time>
      </trkpt>
      <trkpt lat="47.79685" lon="-2.4507">
        <ele>61.6</ele>
        <time>2025-02-11T14:02:42Z</time>
      </trkpt>
      <trkpt lat="47.79684" lon="-2.45071">
        <ele>61.6</ele>
        <time>2025-02-11T14:02:43Z</time>
      </trkpt>
      <trkpt lat="47.79684" lon="-2.45071">
        <ele>61.5</ele>
        <time>2025-02-11T14:02:44Z</time>
      </trkpt>
      <trkpt lat="47.79683" lon="-2.45072">
        <ele>61.5</ele>
        <time>2025-02-11T14:02:45Z</time>
      </trkpt>
      <trkpt lat="47.79682" lon="-2.45072">
        <ele>61.4</ele>
        <time>2025-02-11T14:02:46Z</time>
      </trkpt>
      <trkpt lat="47.79681" lon="-2.45072">
        <ele>61.4</ele>
        <time>2025-02-11T14:02:47Z</time>
      </trkpt>
      <trkpt lat="47.7968" lon="-2.45073">
        <ele>61.4</ele>
        <time>2025-02-11T14:02:48Z</time>
      </trkpt>
      <trkpt lat="47.79679" lon="-2.45072">
        <ele>61.3</ele>
        <time>2025-02-11T14:02:49Z</time>
      </trkpt>
      <trkpt lat="47.79678" lon="-2.45072">
        <ele>61.3</ele>
        <time>2025-02-11T14:02:50Z</time>
      </trkpt>
      <trkpt lat="47.79678" lon="-2.45072">
        <ele>61.3</ele>
        <time>2025-02-11T14:02:51Z</time>
      </trkpt>
      <trkpt lat="47.79678" lon="-2.45072">
        <ele>61.3</ele>
        <time>2025-02-11T14:02:52Z</time>
      </trkpt>
      <trkpt lat="47.79679" lon="-2.45071">
        <ele>61.4</ele>
        <time>2025-02-11T14:02:53Z</time>
      </trkpt>
      <trkpt lat="47.79679" lon="-2.4507">
        <ele>61.4</ele>
        <time>2025-02-11T14:02:54Z</time>
      </trkpt>
      <trkpt lat="47.79679" lon="-2.45069">
        <ele>61.5</ele>
        <time>2025-02-11T14:02:55Z</time>
      </trkpt>
      <trkpt lat="47.79679" lon="-2.45068">
        <ele>61.5</ele>
        <time>2025-02-11T14:02:56Z</time>
      </trkpt>
      <trkpt lat="47.7968" lon="-2.45067">
        <ele>61.5</ele>
        <time>2025-02-11T14:02:57Z</time>
      </trkpt>
      <trkpt lat="47.7968" lon="-2.45067">
        <ele>61.6</ele>
        <time>2025-02-11T14:02:58Z</time>
      </trkpt>
      <trkpt lat="47.7968" lon="-2.45067">
        <ele>61.6</ele>
        <time>2025-02-11T14:02:59Z</time>
      </trkpt>
      <trkpt lat="47.7968" lon="-2.45067">
        <ele>61.6</ele>
        <time>2025-02-11T14:03:00Z</time>
      </trkpt>
      <trkpt lat="47.7968" lon="-2.45067">
        <ele>61.6</ele>
        <time>2025-02-11T14:03:01Z</time>
      </trkpt>
      <trkpt lat="47.7968" lon="-2.45067">
        <ele>61.6</ele>
        <time>2025-02-11T14:03:02Z</time>
      </trkpt>
      <trkpt lat="47.7968" lon="-2.45067">
        <ele>61.6</ele>
        <time>2025-02-11T14:03:03Z</time>
      </trkpt>
      <trkpt lat="47.79681" lon="-2.45067">
        <ele>61.6</ele>
        <time>2025-02-11T14:03:04Z</time>
      </trkpt>
      <trkpt lat="47.79681" lon="-2.45068">
        <ele>61.6</ele>
        <time>2025-02-11T14:03:05Z</time>
      </trkpt>
      <trkpt lat="47.79681" lon="-2.45068">
        <ele>61.6</ele>
        <time>2025-02-11T14:03:06Z</time>
      </trkpt>
      <trkpt lat="47.79681" lon="-2.45068">
        <ele>61.6</ele>
        <time>2025-02-11T14:03:07Z</time>
      </trkpt>
      <trkpt lat="47.79681" lon="-2.45068">
        <ele>61.6</ele>
        <time>2025-02-11T14:03:08Z</time>
      </trkpt>
      <trkpt lat="47.79681" lon="-2.45068">
        <ele>61.6</ele>
        <time>2025-02-11T14:03:09Z</time>
      </trkpt>
      <trkpt lat="47.79681" lon="-2.45068">
        <ele>61.6</ele>
        <time>2025-02-11T14:03:10Z</time>
      </trkpt>
      <trkpt lat="47.79682" lon="-2.45068">
        <ele>61.6</ele>
        <time>2025-02-11T14:03:11Z</time>
      </trkpt>
      <trkpt lat="47.79682" lon="-2.45068">
        <ele>61.6</ele>
        <time>2025-02-11T14:03:12Z</time>
      </trkpt>
      <trkpt lat="47.79682" lon="-2.45067">
        <ele>61.6</ele>
        <time>2025-02-11T14:03:13Z</time>
      </trkpt>
      <trkpt lat="47.79682" lon="-2.45067">
        <ele>61.7</ele>
        <time>2025-02-11T14:03:14Z</time>
      </trkpt>
      <trkpt lat="47.79682" lon="-2.45067">
        <ele>61.7</ele>
        <time>2025-02-11T14:03:15Z</time>
      </trkpt>
      <trkpt lat="47.79682" lon="-2.45067">
        <ele>61.7</ele>
        <time>2025-02-11T14:03:16Z</time>
      </trkpt>
      <trkpt lat="47.79683" lon="-2.45067">
        <ele>61.7</ele>
        <time>2025-02-11T14:03:17Z</time>
      </trkpt>
      <trkpt lat="47.79683" lon="-2.45067">
        <ele>61.7</ele>
        <time>2025-02-11T14:03:18Z</time>
      </trkpt>
      <trkpt lat="47.79683" lon="-2.45067">
        <ele>61.7</ele>
        <time>2025-02-11T14:03:19Z</time>
      </trkpt>
      <trkpt lat="47.79683" lon="-2.45067">
        <ele>61.7</ele>
        <time>2025-02-11T14:03:20Z</time>
      </trkpt>
      <trkpt lat="47.79683" lon="-2.45067">
        <ele>61.7</ele>
        <time>2025-02-11T14:03:21Z</time>
      </trkpt>
      <trkpt lat="47.79683" lon="-2.45067">
        <ele>61.7</ele>
        <time>2025-02-11T14:03:22Z</time>
      </trkpt>
      <trkpt lat="47.79683" lon="-2.45067">
        <ele>61.7</ele>
        <time>2025-02-11T14:03:23Z</time>
      </trkpt>
      <trkpt lat="47.79683" lon="-2.45067">
        <ele>61.7</ele>
        <time>2025-02-11T14:03:24Z</time>
      </trkpt>
      <trkpt lat="47.79683" lon="-2.45068">
        <ele>61.6</ele>
        <time>2025-02-11T14:03:25Z</time>
      </trkpt>
      <trkpt lat="47.79683" lon="-2.45069">
        <ele>61.6</ele>
        <time>2025-02-11T14:03:26Z</time>
      </trkpt>
      <trkpt lat="47.79682" lon="-2.45069">
        <ele>61.6</ele>
        <time>2025-02-11T14:03:27Z</time>
      </trkpt>
      <trkpt lat="47.79682" lon="-2.4507">
        <ele>61.5</ele>
        <time>2025-02-11T14:03:28Z</time>
      </trkpt>
      <trkpt lat="47.79681" lon="-2.45073">
        <ele>61.4</ele>
        <time>2025-02-11T14:03:29Z</time>
      </trkpt>
      <trkpt lat="47.79682" lon="-2.45074">
        <ele>61.4</ele>
        <time>2025-02-11T14:03:30Z</time>
      </trkpt>
      <trkpt lat="47.79682" lon="-2.45075">
        <ele>61.3</ele>
        <time>2025-02-11T14:03:31Z</time>
      </trkpt>
      <trkpt lat="47.79681" lon="-2.45076">
        <ele>61.3</ele>
        <time>2025-02-11T14:03:32Z</time>
      </trkpt>
      <trkpt lat="47.7968" lon="-2.45076">
        <ele>61.2</ele>
        <time>2025-02-11T14:03:33Z</time>
      </trkpt>
      <trkpt lat="47.79679" lon="-2.45077">
        <ele>61.2</ele>
        <time>2025-02-11T14:03:34Z</time>
      </trkpt>
      <trkpt lat="47.79678" lon="-2.45077">
        <ele>61.2</ele>
        <time>2025-02-11T14:03:35Z</time>
      </trkpt>
      <trkpt lat="47.79677" lon="-2.45078">
        <ele>61.1</ele>
        <time>2025-02-11T14:03:36Z</time>
      </trkpt>
      <trkpt lat="47.79676" lon="-2.45079">
        <ele>61.1</ele>
        <time>2025-02-11T14:03:37Z</time>
      </trkpt>
      <trkpt lat="47.79676" lon="-2.45079">
        <ele>61.1</ele>
        <time>2025-02-11T14:03:38Z</time>
      </trkpt>
      <trkpt lat="47.79675" lon="-2.45079">
        <ele>61.1</ele>
        <time>2025-02-11T14:03:39Z</time>
      </trkpt>
      <trkpt lat="47.79674" lon="-2.4508">
        <ele>61.1</ele>
        <time>2025-02-11T14:03:40Z</time>
      </trkpt>
      <trkpt lat="47.79673" lon="-2.4508">
        <ele>61.1</ele>
        <time>2025-02-11T14:03:41Z</time>
      </trkpt>
      <trkpt lat="47.79672" lon="-2.45081">
        <ele>61</ele>
        <time>2025-02-11T14:03:42Z</time>
      </trkpt>
      <trkpt lat="47.79671" lon="-2.4508">
        <ele>61</ele>
        <time>2025-02-11T14:03:43Z</time>
      </trkpt>
      <trkpt lat="47.7967" lon="-2.4508">
        <ele>61</ele>
        <time>2025-02-11T14:03:44Z</time>
      </trkpt>
      <trkpt lat="47.79669" lon="-2.45079">
        <ele>61</ele>
        <time>2025-02-11T14:03:45Z</time>
      </trkpt>
      <trkpt lat="47.79668" lon="-2.4508">
        <ele>61</ele>
        <time>2025-02-11T14:03:46Z</time>
      </trkpt>
      <trkpt lat="47.79666" lon="-2.4508">
        <ele>60.8</ele>
        <time>2025-02-11T14:03:47Z</time>
      </trkpt>
      <trkpt lat="47.79665" lon="-2.45081">
        <ele>60.5</ele>
        <time>2025-02-11T14:03:48Z</time>
      </trkpt>
      <trkpt lat="47.79664" lon="-2.45081">
        <ele>60.3</ele>
        <time>2025-02-11T14:03:49Z</time>
      </trkpt>
      <trkpt lat="47.79663" lon="-2.45083">
        <ele>60.1</ele>
        <time>2025-02-11T14:03:50Z</time>
      </trkpt>
      <trkpt lat="47.79662" lon="-2.45084">
        <ele>59.9</ele>
        <time>2025-02-11T14:03:51Z</time>
      </trkpt>
      <trkpt lat="47.7966" lon="-2.45084">
        <ele>59.6</ele>
        <time>2025-02-11T14:03:52Z</time>
      </trkpt>
      <trkpt lat="47.79659" lon="-2.45085">
        <ele>59.3</ele>
        <time>2025-02-11T14:03:53Z</time>
      </trkpt>
      <trkpt lat="47.79658" lon="-2.45087">
        <ele>58.9</ele>
        <time>2025-02-11T14:03:54Z</time>
      </trkpt>
      <trkpt lat="47.79657" lon="-2.45088">
        <ele>58.7</ele>
        <time>2025-02-11T14:03:55Z</time>
      </trkpt>
      <trkpt lat="47.79656" lon="-2.4509">
        <ele>58.4</ele>
        <time>2025-02-11T14:03:56Z</time>
      </trkpt>
      <trkpt lat="47.79656" lon="-2.45091">
        <ele>58.2</ele>
        <time>2025-02-11T14:03:57Z</time>
      </trkpt>
      <trkpt lat="47.79655" lon="-2.45092">
        <ele>57.9</ele>
        <time>2025-02-11T14:03:58Z</time>
      </trkpt>
      <trkpt lat="47.79654" lon="-2.45092">
        <ele>57.8</ele>
        <time>2025-02-11T14:03:59Z</time>
      </trkpt>
      <trkpt lat="47.79653" lon="-2.45093">
        <ele>57.6</ele>
        <time>2025-02-11T14:04:00Z</time>
      </trkpt>
      <trkpt lat="47.79652" lon="-2.45095">
        <ele>57.3</ele>
        <time>2025-02-11T14:04:01Z</time>
      </trkpt>
      <trkpt lat="47.79651" lon="-2.45096">
        <ele>57</ele>
        <time>2025-02-11T14:04:02Z</time>
      </trkpt>
      <trkpt lat="47.79651" lon="-2.45098">
        <ele>56.8</ele>
        <time>2025-02-11T14:04:03Z</time>
      </trkpt>
      <trkpt lat="47.7965" lon="-2.45099">
        <ele>56.6</ele>
        <time>2025-02-11T14:04:04Z</time>
      </trkpt>
      <trkpt lat="47.79649" lon="-2.451">
        <ele>56.4</ele>
        <time>2025-02-11T14:04:05Z</time>
      </trkpt>
      <trkpt lat="47.79649" lon="-2.45102">
        <ele>56.3</ele>
        <time>2025-02-11T14:04:06Z</time>
      </trkpt>
      <trkpt lat="47.79649" lon="-2.45104">
        <ele>56.1</ele>
        <time>2025-02-11T14:04:07Z</time>
      </trkpt>
      <trkpt lat="47.79648" lon="-2.45105">
        <ele>55.9</ele>
        <time>2025-02-11T14:04:08Z</time>
      </trkpt>
      <trkpt lat="47.79647" lon="-2.45106">
        <ele>55.8</ele>
        <time>2025-02-11T14:04:09Z</time>
      </trkpt>
      <trkpt lat="47.79647" lon="-2.45107">
        <ele>55.6</ele>
        <time>2025-02-11T14:04:10Z</time>
      </trkpt>
      <trkpt lat="47.79647" lon="-2.45109">
        <ele>55.5</ele>
        <time>2025-02-11T14:04:11Z</time>
      </trkpt>
      <trkpt lat="47.79646" lon="-2.45111">
        <ele>55.4</ele>
        <time>2025-02-11T14:04:12Z</time>
      </trkpt>
      <trkpt lat="47.79646" lon="-2.45111">
        <ele>55.2</ele>
        <time>2025-02-11T14:04:13Z</time>
      </trkpt>
      <trkpt lat="47.79645" lon="-2.45112">
        <ele>55</ele>
        <time>2025-02-11T14:04:14Z</time>
      </trkpt>
      <trkpt lat="47.79644" lon="-2.45113">
        <ele>54.8</ele>
        <time>2025-02-11T14:04:15Z</time>
      </trkpt>
      <trkpt lat="47.79643" lon="-2.45113">
        <ele>54.7</ele>
        <time>2025-02-11T14:04:16Z</time>
      </trkpt>
      <trkpt lat="47.79642" lon="-2.45114">
        <ele>54.4</ele>
        <time>2025-02-11T14:04:17Z</time>
      </trkpt>
      <trkpt lat="47.79641" lon="-2.45115">
        <ele>54.1</ele>
        <time>2025-02-11T14:04:18Z</time>
      </trkpt>
      <trkpt lat="47.79639" lon="-2.45115">
        <ele>53.9</ele>
        <time>2025-02-11T14:04:19Z</time>
      </trkpt>
      <trkpt lat="47.79638" lon="-2.45115">
        <ele>53.8</ele>
        <time>2025-02-11T14:04:20Z</time>
      </trkpt>
      <trkpt lat="47.79637" lon="-2.45115">
        <ele>53.7</ele>
        <time>2025-02-11T14:04:21Z</time>
      </trkpt>
      <trkpt lat="47.79636" lon="-2.45114">
        <ele>53.6</ele>
        <time>2025-02-11T14:04:22Z</time>
      </trkpt>
      <trkpt lat="47.79635" lon="-2.45114">
        <ele>53.4</ele>
        <time>2025-02-11T14:04:23Z</time>
      </trkpt>
      <trkpt lat="47.79633" lon="-2.45113">
        <ele>53.3</ele>
        <time>2025-02-11T14:04:24Z</time>
      </trkpt>
      <trkpt lat="47.79632" lon="-2.45113">
        <ele>53.2</ele>
        <time>2025-02-11T14:04:25Z</time>
      </trkpt>
      <trkpt lat="47.79631" lon="-2.45113">
        <ele>53.1</ele>
        <time>2025-02-11T14:04:26Z</time>
      </trkpt>
      <trkpt lat="47.7963" lon="-2.45114">
        <ele>52.9</ele>
        <time>2025-02-11T14:04:27Z</time>
      </trkpt>
      <trkpt lat="47.79629" lon="-2.45114">
        <ele>52.8</ele>
        <time>2025-02-11T14:04:28Z</time>
      </trkpt>
      <trkpt lat="47.79628" lon="-2.45115">
        <ele>52.7</ele>
        <time>2025-02-11T14:04:29Z</time>
      </trkpt>
      <trkpt lat="47.79627" lon="-2.45116">
        <ele>52.5</ele>
        <time>2025-02-11T14:04:30Z</time>
      </trkpt>
      <trkpt lat="47.79627" lon="-2.45118">
        <ele>52.4</ele>
        <time>2025-02-11T14:04:31Z</time>
      </trkpt>
      <trkpt lat="47.79626" lon="-2.45119">
        <ele>52.3</ele>
        <time>2025-02-11T14:04:32Z</time>
      </trkpt>
      <trkpt lat="47.79626" lon="-2.45121">
        <ele>52.2</ele>
        <time>2025-02-11T14:04:33Z</time>
      </trkpt>
      <trkpt lat="47.79625" lon="-2.45123">
        <ele>52.1</ele>
        <time>2025-02-11T14:04:34Z</time>
      </trkpt>
      <trkpt lat="47.79624" lon="-2.45124">
        <ele>51.9</ele>
        <time>2025-02-11T14:04:35Z</time>
      </trkpt>
      <trkpt lat="47.79624" lon="-2.45126">
        <ele>51.8</ele>
        <time>2025-02-11T14:04:36Z</time>
      </trkpt>
      <trkpt lat="47.79623" lon="-2.45127">
        <ele>51.7</ele>
        <time>2025-02-11T14:04:37Z</time>
      </trkpt>
      <trkpt lat="47.79622" lon="-2.45128">
        <ele>51.6</ele>
        <time>2025-02-11T14:04:38Z</time>
      </trkpt>
      <trkpt lat="47.79622" lon="-2.45129">
        <ele>51.5</ele>
        <time>2025-02-11T14:04:39Z</time>
      </trkpt>
      <trkpt lat="47.79621" lon="-2.4513">
        <ele>51.4</ele>
        <time>2025-02-11T14:04:40Z</time>
      </trkpt>
      <trkpt lat="47.7962" lon="-2.45132">
        <ele>51.2</ele>
        <time>2025-02-11T14:04:41Z</time>
      </trkpt>
      <trkpt lat="47.79619" lon="-2.45133">
        <ele>51.1</ele>
        <time>2025-02-11T14:04:42Z</time>
      </trkpt>
      <trkpt lat="47.79618" lon="-2.45133">
        <ele>51</ele>
        <time>2025-02-11T14:04:43Z</time>
      </trkpt>
      <trkpt lat="47.79617" lon="-2.45133">
        <ele>50.9</ele>
        <time>2025-02-11T14:04:44Z</time>
      </trkpt>
      <trkpt lat="47.79617" lon="-2.45134">
        <ele>50.8</ele>
        <time>2025-02-11T14:04:45Z</time>
      </trkpt>
      <trkpt lat="47.79616" lon="-2.45134">
        <ele>50.7</ele>
        <time>2025-02-11T14:04:46Z</time>
      </trkpt>
      <trkpt lat="47.79615" lon="-2.45133">
        <ele>50.6</ele>
        <time>2025-02-11T14:04:47Z</time>
      </trkpt>
      <trkpt lat="47.79616" lon="-2.45132">
        <ele>50.8</ele>
        <time>2025-02-11T14:04:48Z</time>
      </trkpt>
      <trkpt lat="47.79616" lon="-2.45131">
        <ele>50.8</ele>
        <time>2025-02-11T14:04:49Z</time>
      </trkpt>
      <trkpt lat="47.79616" lon="-2.45131">
        <ele>50.8</ele>
        <time>2025-02-11T14:04:50Z</time>
      </trkpt>
      <trkpt lat="47.79616" lon="-2.45131">
        <ele>50.8</ele>
        <time>2025-02-11T14:04:51Z</time>
      </trkpt>
      <trkpt lat="47.79616" lon="-2.45131">
        <ele>50.8</ele>
        <time>2025-02-11T14:04:52Z</time>
      </trkpt>
      <trkpt lat="47.79616" lon="-2.45131">
        <ele>50.8</ele>
        <time>2025-02-11T14:04:53Z</time>
      </trkpt>
      <trkpt lat="47.79616" lon="-2.45131">
        <ele>50.8</ele>
        <time>2025-02-11T14:04:54Z</time>
      </trkpt>
      <trkpt lat="47.79616" lon="-2.45131">
        <ele>50.8</ele>
        <time>2025-02-11T14:04:55Z</time>
      </trkpt>
      <trkpt lat="47.79616" lon="-2.45131">
        <ele>50.8</ele>
        <time>2025-02-11T14:04:56Z</time>
      </trkpt>
      <trkpt lat="47.79616" lon="-2.45131">
        <ele>50.8</ele>
        <time>2025-02-11T14:04:57Z</time>
      </trkpt>
      <trkpt lat="47.79616" lon="-2.45131">
        <ele>50.8</ele>
        <time>2025-02-11T14:04:58Z</time>
      </trkpt>
      <trkpt lat="47.79616" lon="-2.45131">
        <ele>50.8</ele>
        <time>2025-02-11T14:04:59Z</time>
      </trkpt>
      <trkpt lat="47.79616" lon="-2.45131">
        <ele>50.8</ele>
        <time>2025-02-11T14:05:00Z</time>
      </trkpt>
      <trkpt lat="47.79616" lon="-2.45131">
        <ele>50.8</ele>
        <time>2025-02-11T14:05:01Z</time>
      </trkpt>
      <trkpt lat="47.79616" lon="-2.45131">
        <ele>50.8</ele>
        <time>2025-02-11T14:05:02Z</time>
      </trkpt>
      <trkpt lat="47.79616" lon="-2.45131">
        <ele>50.8</ele>
        <time>2025-02-11T14:05:03Z</time>
      </trkpt>
      <trkpt lat="47.79615" lon="-2.4513">
        <ele>50.8</ele>
        <time>2025-02-11T14:05:04Z</time>
      </trkpt>
      <trkpt lat="47.79615" lon="-2.45129">
        <ele>50.8</ele>
        <time>2025-02-11T14:05:05Z</time>
      </trkpt>
      <trkpt lat="47.79614" lon="-2.45127">
        <ele>50.7</ele>
        <time>2025-02-11T14:05:06Z</time>
      </trkpt>
      <trkpt lat="47.79613" lon="-2.45126">
        <ele>50.7</ele>
        <time>2025-02-11T14:05:07Z</time>
      </trkpt>
      <trkpt lat="47.79613" lon="-2.45125">
        <ele>50.7</ele>
        <time>2025-02-11T14:05:08Z</time>
      </trkpt>
      <trkpt lat="47.79613" lon="-2.45123">
        <ele>50.7</ele>
        <time>2025-02-11T14:05:09Z</time>
      </trkpt>
      <trkpt lat="47.79612" lon="-2.45122">
        <ele>50.8</ele>
        <time>2025-02-11T14:05:10Z</time>
      </trkpt>
      <trkpt lat="47.79612" lon="-2.4512">
        <ele>50.8</ele>
        <time>2025-02-11T14:05:11Z</time>
      </trkpt>
      <trkpt lat="47.79612" lon="-2.45119">
        <ele>50.8</ele>
        <time>2025-02-11T14:05:12Z</time>
      </trkpt>
      <trkpt lat="47.79612" lon="-2.45118">
        <ele>50.8</ele>
        <time>2025-02-11T14:05:13Z</time>
      </trkpt>
      <trkpt lat="47.79611" lon="-2.45116">
        <ele>50.8</ele>
        <time>2025-02-11T14:05:14Z</time>
      </trkpt>
      <trkpt lat="47.79611" lon="-2.45115">
        <ele>50.8</ele>
        <time>2025-02-11T14:05:15Z</time>
      </trkpt>
      <trkpt lat="47.7961" lon="-2.45113">
        <ele>50.8</ele>
        <time>2025-02-11T14:05:16Z</time>
      </trkpt>
      <trkpt lat="47.7961" lon="-2.45112">
        <ele>50.8</ele>
        <time>2025-02-11T14:05:17Z</time>
      </trkpt>
      <trkpt lat="47.79609" lon="-2.4511">
        <ele>50.8</ele>
        <time>2025-02-11T14:05:18Z</time>
      </trkpt>
      <trkpt lat="47.79609" lon="-2.45109">
        <ele>50.8</ele>
        <time>2025-02-11T14:05:19Z</time>
      </trkpt>
      <trkpt lat="47.79608" lon="-2.45108">
        <ele>50.8</ele>
        <time>2025-02-11T14:05:20Z</time>
      </trkpt>
      <trkpt lat="47.79608" lon="-2.45106">
        <ele>50.8</ele>
        <time>2025-02-11T14:05:21Z</time>
      </trkpt>
      <trkpt lat="47.79608" lon="-2.45104">
        <ele>50.7</ele>
        <time>2025-02-11T14:05:22Z</time>
      </trkpt>
      <trkpt lat="47.79607" lon="-2.45103">
        <ele>50.6</ele>
        <time>2025-02-11T14:05:23Z</time>
      </trkpt>
      <trkpt lat="47.79606" lon="-2.45101">
        <ele>50.5</ele>
        <time>2025-02-11T14:05:24Z</time>
      </trkpt>
      <trkpt lat="47.79605" lon="-2.45099">
        <ele>50.5</ele>
        <time>2025-02-11T14:05:25Z</time>
      </trkpt>
      <trkpt lat="47.79605" lon="-2.45098">
        <ele>50.4</ele>
        <time>2025-02-11T14:05:26Z</time>
      </trkpt>
      <trkpt lat="47.79605" lon="-2.45097">
        <ele>50.3</ele>
        <time>2025-02-11T14:05:27Z</time>
      </trkpt>
      <trkpt lat="47.79604" lon="-2.45095">
        <ele>50.3</ele>
        <time>2025-02-11T14:05:28Z</time>
      </trkpt>
      <trkpt lat="47.79604" lon="-2.45094">
        <ele>50.1</ele>
        <time>2025-02-11T14:05:29Z</time>
      </trkpt>
      <trkpt lat="47.79603" lon="-2.45092">
        <ele>50</ele>
        <time>2025-02-11T14:05:30Z</time>
      </trkpt>
      <trkpt lat="47.79603" lon="-2.45091">
        <ele>49.9</ele>
        <time>2025-02-11T14:05:31Z</time>
      </trkpt>
      <trkpt lat="47.79602" lon="-2.45089">
        <ele>49.8</ele>
        <time>2025-02-11T14:05:32Z</time>
      </trkpt>
      <trkpt lat="47.79601" lon="-2.45088">
        <ele>49.6</ele>
        <time>2025-02-11T14:05:33Z</time>
      </trkpt>
      <trkpt lat="47.79601" lon="-2.45086">
        <ele>49.5</ele>
        <time>2025-02-11T14:05:34Z</time>
      </trkpt>
      <trkpt lat="47.796" lon="-2.45085">
        <ele>49.3</ele>
        <time>2025-02-11T14:05:35Z</time>
      </trkpt>
      <trkpt lat="47.796" lon="-2.45083">
        <ele>49.1</ele>
        <time>2025-02-11T14:05:36Z</time>
      </trkpt>
      <trkpt lat="47.796" lon="-2.45082">
        <ele>48.9</ele>
        <time>2025-02-11T14:05:37Z</time>
      </trkpt>
      <trkpt lat="47.79599" lon="-2.4508">
        <ele>48.7</ele>
        <time>2025-02-11T14:05:38Z</time>
      </trkpt>
      <trkpt lat="47.79599" lon="-2.45078">
        <ele>48.4</ele>
        <time>2025-02-11T14:05:39Z</time>
      </trkpt>
      <trkpt lat="47.79598" lon="-2.45077">
        <ele>48.2</ele>
        <time>2025-02-11T14:05:40Z</time>
      </trkpt>
      <trkpt lat="47.79597" lon="-2.45075">
        <ele>48</ele>
        <time>2025-02-11T14:05:41Z</time>
      </trkpt>
      <trkpt lat="47.79597" lon="-2.45074">
        <ele>47.8</ele>
        <time>2025-02-11T14:05:42Z</time>
      </trkpt>
      <trkpt lat="47.79596" lon="-2.45073">
        <ele>47.6</ele>
        <time>2025-02-11T14:05:43Z</time>
      </trkpt>
      <trkpt lat="47.79595" lon="-2.45071">
        <ele>47.3</ele>
        <time>2025-02-11T14:05:44Z</time>
      </trkpt>
      <trkpt lat="47.79595" lon="-2.4507">
        <ele>47.2</ele>
        <time>2025-02-11T14:05:45Z</time>
      </trkpt>
      <trkpt lat="47.79594" lon="-2.45068">
        <ele>47</ele>
        <time>2025-02-11T14:05:46Z</time>
      </trkpt>
      <trkpt lat="47.79594" lon="-2.45067">
        <ele>46.9</ele>
        <time>2025-02-11T14:05:47Z</time>
      </trkpt>
      <trkpt lat="47.79593" lon="-2.45065">
        <ele>46.7</ele>
        <time>2025-02-11T14:05:48Z</time>
      </trkpt>
      <trkpt lat="47.79592" lon="-2.45064">
        <ele>46.6</ele>
        <time>2025-02-11T14:05:49Z</time>
      </trkpt>
      <trkpt lat="47.79592" lon="-2.45062">
        <ele>46.5</ele>
        <time>2025-02-11T14:05:50Z</time>
      </trkpt>
      <trkpt lat="47.79591" lon="-2.4506">
        <ele>46.4</ele>
        <time>2025-02-11T14:05:51Z</time>
      </trkpt>
      <trkpt lat="47.79591" lon="-2.45058">
        <ele>46.3</ele>
        <time>2025-02-11T14:05:52Z</time>
      </trkpt>
      <trkpt lat="47.7959" lon="-2.45057">
        <ele>46.3</ele>
        <time>2025-02-11T14:05:53Z</time>
      </trkpt>
      <trkpt lat="47.79589" lon="-2.45056">
        <ele>46.2</ele>
        <time>2025-02-11T14:05:54Z</time>
      </trkpt>
      <trkpt lat="47.79589" lon="-2.45056">
        <ele>46.2</ele>
        <time>2025-02-11T14:05:55Z</time>
      </trkpt>
      <trkpt lat="47.7959" lon="-2.45056">
        <ele>46.2</ele>
        <time>2025-02-11T14:05:56Z</time>
      </trkpt>
      <trkpt lat="47.7959" lon="-2.45056">
        <ele>46.2</ele>
        <time>2025-02-11T14:05:57Z</time>
      </trkpt>
      <trkpt lat="47.7959" lon="-2.45056">
        <ele>46.2</ele>
        <time>2025-02-11T14:05:58Z</time>
      </trkpt>
      <trkpt lat="47.7959" lon="-2.45056">
        <ele>46.2</ele>
        <time>2025-02-11T14:05:59Z</time>
      </trkpt>
      <trkpt lat="47.7959" lon="-2.45056">
        <ele>46.2</ele>
        <time>2025-02-11T14:06:00Z</time>
      </trkpt>
      <trkpt lat="47.7959" lon="-2.45056">
        <ele>46.2</ele>
        <time>2025-02-11T14:06:01Z</time>
      </trkpt>
      <trkpt lat="47.7959" lon="-2.45056">
        <ele>46.2</ele>
        <time>2025-02-11T14:06:02Z</time>
      </trkpt>
      <trkpt lat="47.7959" lon="-2.45056">
        <ele>46.2</ele>
        <time>2025-02-11T14:06:03Z</time>
      </trkpt>
      <trkpt lat="47.7959" lon="-2.45056">
        <ele>46.2</ele>
        <time>2025-02-11T14:06:04Z</time>
      </trkpt>
      <trkpt lat="47.7959" lon="-2.45056">
        <ele>46.2</ele>
        <time>2025-02-11T14:06:05Z</time>
      </trkpt>
      <trkpt lat="47.7959" lon="-2.45056">
        <ele>46.2</ele>
        <time>2025-02-11T14:06:06Z</time>
      </trkpt>
      <trkpt lat="47.7959" lon="-2.45056">
        <ele>46.2</ele>
        <time>2025-02-11T14:06:07Z</time>
      </trkpt>
      <trkpt lat="47.7959" lon="-2.45056">
        <ele>46.2</ele>
        <time>2025-02-11T14:06:08Z</time>
      </trkpt>
      <trkpt lat="47.79589" lon="-2.45055">
        <ele>46.3</ele>
        <time>2025-02-11T14:06:09Z</time>
      </trkpt>
      <trkpt lat="47.79588" lon="-2.45053">
        <ele>46.6</ele>
        <time>2025-02-11T14:06:10Z</time>
      </trkpt>
      <trkpt lat="47.79587" lon="-2.45052">
        <ele>46.8</ele>
        <time>2025-02-11T14:06:11Z</time>
      </trkpt>
      <trkpt lat="47.79587" lon="-2.45051">
        <ele>47</ele>
        <time>2025-02-11T14:06:12Z</time>
      </trkpt>
      <trkpt lat="47.79586" lon="-2.4505">
        <ele>47.2</ele>
        <time>2025-02-11T14:06:13Z</time>
      </trkpt>
      <trkpt lat="47.79585" lon="-2.45048">
        <ele>47.5</ele>
        <time>2025-02-11T14:06:14Z</time>
      </trkpt>
      <trkpt lat="47.79585" lon="-2.45047">
        <ele>47.8</ele>
        <time>2025-02-11T14:06:15Z</time>
      </trkpt>
      <trkpt lat="47.79584" lon="-2.45045">
        <ele>48.2</ele>
        <time>2025-02-11T14:06:16Z</time>
      </trkpt>
      <trkpt lat="47.79584" lon="-2.45044">
        <ele>48.5</ele>
        <time>2025-02-11T14:06:17Z</time>
      </trkpt>
      <trkpt lat="47.79583" lon="-2.45042">
        <ele>48.9</ele>
        <time>2025-02-11T14:06:18Z</time>
      </trkpt>
      <trkpt lat="47.79583" lon="-2.45041">
        <ele>49.2</ele>
        <time>2025-02-11T14:06:19Z</time>
      </trkpt>
      <trkpt lat="47.79582" lon="-2.45039">
        <ele>49.4</ele>
        <time>2025-02-11T14:06:20Z</time>
      </trkpt>
      <trkpt lat="47.79582" lon="-2.45038">
        <ele>49.7</ele>
        <time>2025-02-11T14:06:21Z</time>
      </trkpt>
      <trkpt lat="47.79581" lon="-2.45037">
        <ele>50</ele>
        <time>2025-02-11T14:06:22Z</time>
      </trkpt>
      <trkpt lat="47.7958" lon="-2.45035">
        <ele>50.2</ele>
        <time>2025-02-11T14:06:23Z</time>
      </trkpt>
      <trkpt lat="47.7958" lon="-2.45034">
        <ele>50.4</ele>
        <time>2025-02-11T14:06:24Z</time>
      </trkpt>
      <trkpt lat="47.79579" lon="-2.45033">
        <ele>50.5</ele>
        <time>2025-02-11T14:06:25Z</time>
      </trkpt>
      <trkpt lat="47.79578" lon="-2.45032">
        <ele>50.7</ele>
        <time>2025-02-11T14:06:26Z</time>
      </trkpt>
      <trkpt lat="47.79578" lon="-2.4503">
        <ele>51</ele>
        <time>2025-02-11T14:06:27Z</time>
      </trkpt>
      <trkpt lat="47.79578" lon="-2.45029">
        <ele>51.2</ele>
        <time>2025-02-11T14:06:28Z</time>
      </trkpt>
      <trkpt lat="47.79577" lon="-2.45027">
        <ele>51.3</ele>
        <time>2025-02-11T14:06:29Z</time>
      </trkpt>
      <trkpt lat="47.79577" lon="-2.45026">
        <ele>51.3</ele>
        <time>2025-02-11T14:06:30Z</time>
      </trkpt>
      <trkpt lat="47.79576" lon="-2.45024">
        <ele>51.3</ele>
        <time>2025-02-11T14:06:31Z</time>
      </trkpt>
      <trkpt lat="47.79575" lon="-2.45023">
        <ele>51.2</ele>
        <time>2025-02-11T14:06:32Z</time>
      </trkpt>
      <trkpt lat="47.79575" lon="-2.45022">
        <ele>51.2</ele>
        <time>2025-02-11T14:06:33Z</time>
      </trkpt>
      <trkpt lat="47.79574" lon="-2.45021">
        <ele>51.2</ele>
        <time>2025-02-11T14:06:34Z</time>
      </trkpt>
      <trkpt lat="47.79573" lon="-2.45019">
        <ele>51.1</ele>
        <time>2025-02-11T14:06:35Z</time>
      </trkpt>
      <trkpt lat="47.79572" lon="-2.45018">
        <ele>51.1</ele>
        <time>2025-02-11T14:06:36Z</time>
      </trkpt>
      <trkpt lat="47.79572" lon="-2.45016">
        <ele>51.1</ele>
        <time>2025-02-11T14:06:37Z</time>
      </trkpt>
      <trkpt lat="47.79571" lon="-2.45015">
        <ele>51.1</ele>
        <time>2025-02-11T14:06:38Z</time>
      </trkpt>
      <trkpt lat="47.7957" lon="-2.45013">
        <ele>51.1</ele>
        <time>2025-02-11T14:06:39Z</time>
      </trkpt>
      <trkpt lat="47.79569" lon="-2.45012">
        <ele>51.1</ele>
        <time>2025-02-11T14:06:40Z</time>
      </trkpt>
      <trkpt lat="47.79569" lon="-2.45011">
        <ele>51.1</ele>
        <time>2025-02-11T14:06:41Z</time>
      </trkpt>
      <trkpt lat="47.79568" lon="-2.45009">
        <ele>51.1</ele>
        <time>2025-02-11T14:06:42Z</time>
      </trkpt>
      <trkpt lat="47.79567" lon="-2.45008">
        <ele>51.1</ele>
        <time>2025-02-11T14:06:43Z</time>
      </trkpt>
      <trkpt lat="47.79566" lon="-2.45007">
        <ele>51.1</ele>
        <time>2025-02-11T14:06:44Z</time>
      </trkpt>
      <trkpt lat="47.79566" lon="-2.45005">
        <ele>51.1</ele>
        <time>2025-02-11T14:06:45Z</time>
      </trkpt>
      <trkpt lat="47.79566" lon="-2.45003">
        <ele>51.2</ele>
        <time>2025-02-11T14:06:46Z</time>
      </trkpt>
      <trkpt lat="47.79566" lon="-2.45001">
        <ele>51.3</ele>
        <time>2025-02-11T14:06:47Z</time>
      </trkpt>
      <trkpt lat="47.79567" lon="-2.45">
        <ele>51.4</ele>
        <time>2025-02-11T14:06:48Z</time>
      </trkpt>
      <trkpt lat="47.79568" lon="-2.44998">
        <ele>51.5</ele>
        <time>2025-02-11T14:06:49Z</time>
      </trkpt>
      <trkpt lat="47.79569" lon="-2.44997">
        <ele>51.6</ele>
        <time>2025-02-11T14:06:50Z</time>
      </trkpt>
      <trkpt lat="47.7957" lon="-2.44997">
        <ele>51.7</ele>
        <time>2025-02-11T14:06:51Z</time>
      </trkpt>
      <trkpt lat="47.79571" lon="-2.44996">
        <ele>51.8</ele>
        <time>2025-02-11T14:06:52Z</time>
      </trkpt>
      <trkpt lat="47.79572" lon="-2.44996">
        <ele>51.8</ele>
        <time>2025-02-11T14:06:53Z</time>
      </trkpt>
      <trkpt lat="47.79573" lon="-2.44995">
        <ele>51.9</ele>
        <time>2025-02-11T14:06:54Z</time>
      </trkpt>
      <trkpt lat="47.79574" lon="-2.44995">
        <ele>52</ele>
        <time>2025-02-11T14:06:55Z</time>
      </trkpt>
      <trkpt lat="47.79575" lon="-2.44994">
        <ele>52</ele>
        <time>2025-02-11T14:06:56Z</time>
      </trkpt>
      <trkpt lat="47.79576" lon="-2.44994">
        <ele>52.1</ele>
        <time>2025-02-11T14:06:57Z</time>
      </trkpt>
      <trkpt lat="47.79577" lon="-2.44995">
        <ele>52.1</ele>
        <time>2025-02-11T14:06:58Z</time>
      </trkpt>
      <trkpt lat="47.79578" lon="-2.44995">
        <ele>52.2</ele>
        <time>2025-02-11T14:06:59Z</time>
      </trkpt>
      <trkpt lat="47.79579" lon="-2.44994">
        <ele>52.2</ele>
        <time>2025-02-11T14:07:00Z</time>
      </trkpt>
      <trkpt lat="47.79581" lon="-2.44994">
        <ele>52.3</ele>
        <time>2025-02-11T14:07:01Z</time>
      </trkpt>
      <trkpt lat="47.79582" lon="-2.44994">
        <ele>52.4</ele>
        <time>2025-02-11T14:07:02Z</time>
      </trkpt>
      <trkpt lat="47.79583" lon="-2.44994">
        <ele>52.4</ele>
        <time>2025-02-11T14:07:03Z</time>
      </trkpt>
      <trkpt lat="47.79584" lon="-2.44994">
        <ele>52.5</ele>
        <time>2025-02-11T14:07:04Z</time>
      </trkpt>
      <trkpt lat="47.79584" lon="-2.44993">
        <ele>52.6</ele>
        <time>2025-02-11T14:07:05Z</time>
      </trkpt>
      <trkpt lat="47.79585" lon="-2.44993">
        <ele>52.7</ele>
        <time>2025-02-11T14:07:06Z</time>
      </trkpt>
      <trkpt lat="47.79586" lon="-2.44993">
        <ele>52.8</ele>
        <time>2025-02-11T14:07:07Z</time>
      </trkpt>
      <trkpt lat="47.79587" lon="-2.44993">
        <ele>52.9</ele>
        <time>2025-02-11T14:07:08Z</time>
      </trkpt>
      <trkpt lat="47.79589" lon="-2.44993">
        <ele>53</ele>
        <time>2025-02-11T14:07:09Z</time>
      </trkpt>
      <trkpt lat="47.7959" lon="-2.44994">
        <ele>53.1</ele>
        <time>2025-02-11T14:07:10Z</time>
      </trkpt>
      <trkpt lat="47.79591" lon="-2.44994">
        <ele>53.2</ele>
        <time>2025-02-11T14:07:11Z</time>
      </trkpt>
      <trkpt lat="47.79591" lon="-2.44994">
        <ele>53.3</ele>
        <time>2025-02-11T14:07:12Z</time>
      </trkpt>
      <trkpt lat="47.79592" lon="-2.44994">
        <ele>53.3</ele>
        <time>2025-02-11T14:07:13Z</time>
      </trkpt>
      <trkpt lat="47.79594" lon="-2.44994">
        <ele>53.4</ele>
        <time>2025-02-11T14:07:14Z</time>
      </trkpt>
      <trkpt lat="47.79595" lon="-2.44995">
        <ele>53.5</ele>
        <time>2025-02-11T14:07:15Z</time>
      </trkpt>
      <trkpt lat="47.79596" lon="-2.44995">
        <ele>53.6</ele>
        <time>2025-02-11T14:07:16Z</time>
      </trkpt>
      <trkpt lat="47.79597" lon="-2.44995">
        <ele>53.7</ele>
        <time>2025-02-11T14:07:17Z</time>
      </trkpt>
      <trkpt lat="47.79598" lon="-2.44995">
        <ele>53.8</ele>
        <time>2025-02-11T14:07:18Z</time>
      </trkpt>
      <trkpt lat="47.79599" lon="-2.44995">
        <ele>54</ele>
        <time>2025-02-11T14:07:19Z</time>
      </trkpt>
      <trkpt lat="47.796" lon="-2.44995">
        <ele>54.1</ele>
        <time>2025-02-11T14:07:20Z</time>
      </trkpt>
      <trkpt lat="47.79601" lon="-2.44995">
        <ele>54.1</ele>
        <time>2025-02-11T14:07:21Z</time>
      </trkpt>
      <trkpt lat="47.79602" lon="-2.44995">
        <ele>54.2</ele>
        <time>2025-02-11T14:07:22Z</time>
      </trkpt>
      <trkpt lat="47.79603" lon="-2.44995">
        <ele>54.3</ele>
        <time>2025-02-11T14:07:23Z</time>
      </trkpt>
      <trkpt lat="47.79604" lon="-2.44995">
        <ele>54.5</ele>
        <time>2025-02-11T14:07:24Z</time>
      </trkpt>
      <trkpt lat="47.79605" lon="-2.44994">
        <ele>54.6</ele>
        <time>2025-02-11T14:07:25Z</time>
      </trkpt>
      <trkpt lat="47.79606" lon="-2.44994">
        <ele>54.7</ele>
        <time>2025-02-11T14:07:26Z</time>
      </trkpt>
      <trkpt lat="47.79607" lon="-2.44994">
        <ele>54.8</ele>
        <time>2025-02-11T14:07:27Z</time>
      </trkpt>
      <trkpt lat="47.79608" lon="-2.44993">
        <ele>54.9</ele>
        <time>2025-02-11T14:07:28Z</time>
      </trkpt>
      <trkpt lat="47.79608" lon="-2.44993">
        <ele>55</ele>
        <time>2025-02-11T14:07:29Z</time>
      </trkpt>
      <trkpt lat="47.79609" lon="-2.44992">
        <ele>55.1</ele>
        <time>2025-02-11T14:07:30Z</time>
      </trkpt>
      <trkpt lat="47.7961" lon="-2.44992">
        <ele>55.2</ele>
        <time>2025-02-11T14:07:31Z</time>
      </trkpt>
      <trkpt lat="47.79611" lon="-2.44992">
        <ele>55.3</ele>
        <time>2025-02-11T14:07:32Z</time>
      </trkpt>
      <trkpt lat="47.79612" lon="-2.44992">
        <ele>55.2</ele>
        <time>2025-02-11T14:07:33Z</time>
      </trkpt>
      <trkpt lat="47.79613" lon="-2.44992">
        <ele>55.1</ele>
        <time>2025-02-11T14:07:34Z</time>
      </trkpt>
      <trkpt lat="47.79615" lon="-2.44992">
        <ele>55.1</ele>
        <time>2025-02-11T14:07:35Z</time>
      </trkpt>
      <trkpt lat="47.79616" lon="-2.44992">
        <ele>55</ele>
        <time>2025-02-11T14:07:36Z</time>
      </trkpt>
      <trkpt lat="47.79617" lon="-2.44992">
        <ele>54.9</ele>
        <time>2025-02-11T14:07:37Z</time>
      </trkpt>
      <trkpt lat="47.79618" lon="-2.44992">
        <ele>54.8</ele>
        <time>2025-02-11T14:07:38Z</time>
      </trkpt>
      <trkpt lat="47.79619" lon="-2.44992">
        <ele>54.8</ele>
        <time>2025-02-11T14:07:39Z</time>
      </trkpt>
      <trkpt lat="47.7962" lon="-2.44991">
        <ele>54.7</ele>
        <time>2025-02-11T14:07:40Z</time>
      </trkpt>
      <trkpt lat="47.79621" lon="-2.44991">
        <ele>54.8</ele>
        <time>2025-02-11T14:07:41Z</time>
      </trkpt>
      <trkpt lat="47.79622" lon="-2.4499">
        <ele>54.7</ele>
        <time>2025-02-11T14:07:42Z</time>
      </trkpt>
      <trkpt lat="47.79623" lon="-2.4499">
        <ele>54.7</ele>
        <time>2025-02-11T14:07:43Z</time>
      </trkpt>
      <trkpt lat="47.79624" lon="-2.4499">
        <ele>54.7</ele>
        <time>2025-02-11T14:07:44Z</time>
      </trkpt>
      <trkpt lat="47.79625" lon="-2.44989">
        <ele>54.7</ele>
        <time>2025-02-11T14:07:45Z</time>
      </trkpt>
      <trkpt lat="47.79626" lon="-2.44989">
        <ele>54.8</ele>
        <time>2025-02-11T14:07:46Z</time>
      </trkpt>
      <trkpt lat="47.79627" lon="-2.44988">
        <ele>55</ele>
        <time>2025-02-11T14:07:47Z</time>
      </trkpt>
      <trkpt lat="47.79627" lon="-2.44987">
        <ele>55.1</ele>
        <time>2025-02-11T14:07:48Z</time>
      </trkpt>
      <trkpt lat="47.79628" lon="-2.44986">
        <ele>55.3</ele>
        <time>2025-02-11T14:07:49Z</time>
      </trkpt>
      <trkpt lat="47.79629" lon="-2.44984">
        <ele>55.6</ele>
        <time>2025-02-11T14:07:50Z</time>
      </trkpt>
      <trkpt lat="47.7963" lon="-2.44983">
        <ele>55.8</ele>
        <time>2025-02-11T14:07:51Z</time>
      </trkpt>
      <trkpt lat="47.79631" lon="-2.44983">
        <ele>55.9</ele>
        <time>2025-02-11T14:07:52Z</time>
      </trkpt>
      <trkpt lat="47.79632" lon="-2.44982">
        <ele>56</ele>
        <time>2025-02-11T14:07:53Z</time>
      </trkpt>
      <trkpt lat="47.79632" lon="-2.44981">
        <ele>56.2</ele>
        <time>2025-02-11T14:07:54Z</time>
      </trkpt>
      <trkpt lat="47.79633" lon="-2.4498">
        <ele>56.6</ele>
        <time>2025-02-11T14:07:55Z</time>
      </trkpt>
      <trkpt lat="47.79634" lon="-2.44979">
        <ele>56.9</ele>
        <time>2025-02-11T14:07:56Z</time>
      </trkpt>
      <trkpt lat="47.79634" lon="-2.44978">
        <ele>57</ele>
        <time>2025-02-11T14:07:57Z</time>
      </trkpt>
      <trkpt lat="47.79635" lon="-2.44978">
        <ele>57.3</ele>
        <time>2025-02-11T14:07:58Z</time>
      </trkpt>
      <trkpt lat="47.79636" lon="-2.44977">
        <ele>57.6</ele>
        <time>2025-02-11T14:07:59Z</time>
      </trkpt>
      <trkpt lat="47.79637" lon="-2.44975">
        <ele>57.9</ele>
        <time>2025-02-11T14:08:00Z</time>
      </trkpt>
      <trkpt lat="47.79638" lon="-2.44975">
        <ele>58.1</ele>
        <time>2025-02-11T14:08:01Z</time>
      </trkpt>
      <trkpt lat="47.79638" lon="-2.44974">
        <ele>58.4</ele>
        <time>2025-02-11T14:08:02Z</time>
      </trkpt>
      <trkpt lat="47.79639" lon="-2.44974">
        <ele>58.4</ele>
        <time>2025-02-11T14:08:03Z</time>
      </trkpt>
      <trkpt lat="47.7964" lon="-2.44973">
        <ele>58.6</ele>
        <time>2025-02-11T14:08:04Z</time>
      </trkpt>
      <trkpt lat="47.79641" lon="-2.44972">
        <ele>58.6</ele>
        <time>2025-02-11T14:08:05Z</time>
      </trkpt>
      <trkpt lat="47.79642" lon="-2.44972">
        <ele>58.4</ele>
        <time>2025-02-11T14:08:06Z</time>
      </trkpt>
      <trkpt lat="47.79643" lon="-2.44972">
        <ele>58.3</ele>
        <time>2025-02-11T14:08:07Z</time>
      </trkpt>
      <trkpt lat="47.79644" lon="-2.4497">
        <ele>58.3</ele>
        <time>2025-02-11T14:08:08Z</time>
      </trkpt>
      <trkpt lat="47.79644" lon="-2.4497">
        <ele>58.3</ele>
        <time>2025-02-11T14:08:09Z</time>
      </trkpt>
      <trkpt lat="47.79645" lon="-2.44969">
        <ele>58.2</ele>
        <time>2025-02-11T14:08:10Z</time>
      </trkpt>
      <trkpt lat="47.79646" lon="-2.44968">
        <ele>58.2</ele>
        <time>2025-02-11T14:08:11Z</time>
      </trkpt>
      <trkpt lat="47.79647" lon="-2.44968">
        <ele>58.1</ele>
        <time>2025-02-11T14:08:12Z</time>
      </trkpt>
      <trkpt lat="47.79648" lon="-2.44967">
        <ele>58.1</ele>
        <time>2025-02-11T14:08:13Z</time>
      </trkpt>
      <trkpt lat="47.79648" lon="-2.44967">
        <ele>58.1</ele>
        <time>2025-02-11T14:08:14Z</time>
      </trkpt>
      <trkpt lat="47.79649" lon="-2.44966">
        <ele>58.1</ele>
        <time>2025-02-11T14:08:15Z</time>
      </trkpt>
      <trkpt lat="47.7965" lon="-2.44965">
        <ele>58.2</ele>
        <time>2025-02-11T14:08:16Z</time>
      </trkpt>
      <trkpt lat="47.79651" lon="-2.44964">
        <ele>58.2</ele>
        <time>2025-02-11T14:08:17Z</time>
      </trkpt>
      <trkpt lat="47.79652" lon="-2.44963">
        <ele>58.3</ele>
        <time>2025-02-11T14:08:18Z</time>
      </trkpt>
      <trkpt lat="47.79652" lon="-2.44963">
        <ele>58.3</ele>
        <time>2025-02-11T14:08:19Z</time>
      </trkpt>
      <trkpt lat="47.79653" lon="-2.44962">
        <ele>58.3</ele>
        <time>2025-02-11T14:08:20Z</time>
      </trkpt>
      <trkpt lat="47.79654" lon="-2.44961">
        <ele>58.5</ele>
        <time>2025-02-11T14:08:21Z</time>
      </trkpt>
      <trkpt lat="47.79655" lon="-2.4496">
        <ele>58.6</ele>
        <time>2025-02-11T14:08:22Z</time>
      </trkpt>
      <trkpt lat="47.79655" lon="-2.4496">
        <ele>58.6</ele>
        <time>2025-02-11T14:08:23Z</time>
      </trkpt>
      <trkpt lat="47.79656" lon="-2.44959">
        <ele>58.8</ele>
        <time>2025-02-11T14:08:24Z</time>
      </trkpt>
      <trkpt lat="47.79657" lon="-2.44958">
        <ele>59</ele>
        <time>2025-02-11T14:08:25Z</time>
      </trkpt>
      <trkpt lat="47.79658" lon="-2.44957">
        <ele>59.1</ele>
        <time>2025-02-11T14:08:26Z</time>
      </trkpt>
      <trkpt lat="47.79658" lon="-2.44956">
        <ele>59.3</ele>
        <time>2025-02-11T14:08:27Z</time>
      </trkpt>
      <trkpt lat="47.79659" lon="-2.44956">
        <ele>59.5</ele>
        <time>2025-02-11T14:08:28Z</time>
      </trkpt>
      <trkpt lat="47.7966" lon="-2.44955">
        <ele>59.6</ele>
        <time>2025-02-11T14:08:29Z</time>
      </trkpt>
      <trkpt lat="47.79661" lon="-2.44954">
        <ele>59.9</ele>
        <time>2025-02-11T14:08:30Z</time>
      </trkpt>
      <trkpt lat="47.79662" lon="-2.44954">
        <ele>60</ele>
        <time>2025-02-11T14:08:31Z</time>
      </trkpt>
      <trkpt lat="47.79663" lon="-2.44953">
        <ele>60.2</ele>
        <time>2025-02-11T14:08:32Z</time>
      </trkpt>
      <trkpt lat="47.79664" lon="-2.44952">
        <ele>60.5</ele>
        <time>2025-02-11T14:08:33Z</time>
      </trkpt>
      <trkpt lat="47.79665" lon="-2.44951">
        <ele>60.7</ele>
        <time>2025-02-11T14:08:34Z</time>
      </trkpt>
      <trkpt lat="47.79666" lon="-2.44951">
        <ele>61</ele>
        <time>2025-02-11T14:08:35Z</time>
      </trkpt>
      <trkpt lat="47.79666" lon="-2.4495">
        <ele>61.3</ele>
        <time>2025-02-11T14:08:36Z</time>
      </trkpt>
      <trkpt lat="47.79667" lon="-2.44949">
        <ele>61.6</ele>
        <time>2025-02-11T14:08:37Z</time>
      </trkpt>
      <trkpt lat="47.79668" lon="-2.44948">
        <ele>61.8</ele>
        <time>2025-02-11T14:08:38Z</time>
      </trkpt>
      <trkpt lat="47.79669" lon="-2.44947">
        <ele>61.9</ele>
        <time>2025-02-11T14:08:39Z</time>
      </trkpt>
      <trkpt lat="47.7967" lon="-2.44946">
        <ele>62</ele>
        <time>2025-02-11T14:08:40Z</time>
      </trkpt>
      <trkpt lat="47.7967" lon="-2.44945">
        <ele>62.1</ele>
        <time>2025-02-11T14:08:41Z</time>
      </trkpt>
      <trkpt lat="47.79671" lon="-2.44944">
        <ele>62.1</ele>
        <time>2025-02-11T14:08:42Z</time>
      </trkpt>
      <trkpt lat="47.79672" lon="-2.44943">
        <ele>62</ele>
        <time>2025-02-11T14:08:43Z</time>
      </trkpt>
      <trkpt lat="47.79673" lon="-2.44942">
        <ele>62</ele>
        <time>2025-02-11T14:08:44Z</time>
      </trkpt>
      <trkpt lat="47.79673" lon="-2.44941">
        <ele>61.9</ele>
        <time>2025-02-11T14:08:45Z</time>
      </trkpt>
      <trkpt lat="47.79674" lon="-2.4494">
        <ele>61.9</ele>
        <time>2025-02-11T14:08:46Z</time>
      </trkpt>
      <trkpt lat="47.79675" lon="-2.44939">
        <ele>61.9</ele>
        <time>2025-02-11T14:08:47Z</time>
      </trkpt>
      <trkpt lat="47.79676" lon="-2.44938">
        <ele>61.9</ele>
        <time>2025-02-11T14:08:48Z</time>
      </trkpt>
      <trkpt lat="47.79676" lon="-2.44937">
        <ele>62</ele>
        <time>2025-02-11T14:08:49Z</time>
      </trkpt>
      <trkpt lat="47.79677" lon="-2.44936">
        <ele>62</ele>
        <time>2025-02-11T14:08:50Z</time>
      </trkpt>
      <trkpt lat="47.79678" lon="-2.44936">
        <ele>62</ele>
        <time>2025-02-11T14:08:51Z</time>
      </trkpt>
      <trkpt lat="47.79679" lon="-2.44935">
        <ele>62.1</ele>
        <time>2025-02-11T14:08:52Z</time>
      </trkpt>
      <trkpt lat="47.7968" lon="-2.44934">
        <ele>62.2</ele>
        <time>2025-02-11T14:08:53Z</time>
      </trkpt>
      <trkpt lat="47.79681" lon="-2.44933">
        <ele>62.3</ele>
        <time>2025-02-11T14:08:54Z</time>
      </trkpt>
      <trkpt lat="47.79682" lon="-2.44932">
        <ele>62.3</ele>
        <time>2025-02-11T14:08:55Z</time>
      </trkpt>
      <trkpt lat="47.79682" lon="-2.44931">
        <ele>62.5</ele>
        <time>2025-02-11T14:08:56Z</time>
      </trkpt>
      <trkpt lat="47.79683" lon="-2.4493">
        <ele>62.7</ele>
        <time>2025-02-11T14:08:57Z</time>
      </trkpt>
      <trkpt lat="47.79684" lon="-2.44929">
        <ele>62.9</ele>
        <time>2025-02-11T14:08:58Z</time>
      </trkpt>
      <trkpt lat="47.79684" lon="-2.44928">
        <ele>63.1</ele>
        <time>2025-02-11T14:08:59Z</time>
      </trkpt>
      <trkpt lat="47.79685" lon="-2.44927">
        <ele>63.3</ele>
        <time>2025-02-11T14:09:00Z</time>
      </trkpt>
      <trkpt lat="47.79686" lon="-2.44926">
        <ele>63.6</ele>
        <time>2025-02-11T14:09:01Z</time>
      </trkpt>
      <trkpt lat="47.79687" lon="-2.44925">
        <ele>63.9</ele>
        <time>2025-02-11T14:09:02Z</time>
      </trkpt>
      <trkpt lat="47.79688" lon="-2.44925">
        <ele>64</ele>
        <time>2025-02-11T14:09:03Z</time>
      </trkpt>
      <trkpt lat="47.79689" lon="-2.44924">
        <ele>64.2</ele>
        <time>2025-02-11T14:09:04Z</time>
      </trkpt>
      <trkpt lat="47.7969" lon="-2.44924">
        <ele>64.3</ele>
        <time>2025-02-11T14:09:05Z</time>
      </trkpt>
      <trkpt lat="47.7969" lon="-2.44923">
        <ele>64.7</ele>
        <time>2025-02-11T14:09:06Z</time>
      </trkpt>
      <trkpt lat="47.79691" lon="-2.44922">
        <ele>64.9</ele>
        <time>2025-02-11T14:09:07Z</time>
      </trkpt>
      <trkpt lat="47.79692" lon="-2.44921">
        <ele>65.3</ele>
        <time>2025-02-11T14:09:08Z</time>
      </trkpt>
      <trkpt lat="47.79693" lon="-2.4492">
        <ele>65.7</ele>
        <time>2025-02-11T14:09:09Z</time>
      </trkpt>
      <trkpt lat="47.79694" lon="-2.44919">
        <ele>66.1</ele>
        <time>2025-02-11T14:09:10Z</time>
      </trkpt>
      <trkpt lat="47.79695" lon="-2.44919">
        <ele>66.2</ele>
        <time>2025-02-11T14:09:11Z</time>
      </trkpt>
      <trkpt lat="47.79696" lon="-2.44918">
        <ele>66.2</ele>
        <time>2025-02-11T14:09:12Z</time>
      </trkpt>
      <trkpt lat="47.79697" lon="-2.44917">
        <ele>66.2</ele>
        <time>2025-02-11T14:09:13Z</time>
      </trkpt>
      <trkpt lat="47.79698" lon="-2.44916">
        <ele>66.1</ele>
        <time>2025-02-11T14:09:14Z</time>
      </trkpt>
      <trkpt lat="47.79699" lon="-2.44915">
        <ele>66</ele>
        <time>2025-02-11T14:09:15Z</time>
      </trkpt>
      <trkpt lat="47.797" lon="-2.44914">
        <ele>65.8</ele>
        <time>2025-02-11T14:09:16Z</time>
      </trkpt>
      <trkpt lat="47.79701" lon="-2.44914">
        <ele>65.6</ele>
        <time>2025-02-11T14:09:17Z</time>
      </trkpt>
      <trkpt lat="47.79702" lon="-2.44913">
        <ele>65.5</ele>
        <time>2025-02-11T14:09:18Z</time>
      </trkpt>
      <trkpt lat="47.79703" lon="-2.44912">
        <ele>65.3</ele>
        <time>2025-02-11T14:09:19Z</time>
      </trkpt>
      <trkpt lat="47.79704" lon="-2.44911">
        <ele>65.2</ele>
        <time>2025-02-11T14:09:20Z</time>
      </trkpt>
      <trkpt lat="47.79705" lon="-2.4491">
        <ele>65.3</ele>
        <time>2025-02-11T14:09:21Z</time>
      </trkpt>
      <trkpt lat="47.79706" lon="-2.44909">
        <ele>65.2</ele>
        <time>2025-02-11T14:09:22Z</time>
      </trkpt>
      <trkpt lat="47.79707" lon="-2.44908">
        <ele>65.1</ele>
        <time>2025-02-11T14:09:23Z</time>
      </trkpt>
      <trkpt lat="47.79708" lon="-2.44907">
        <ele>65.1</ele>
        <time>2025-02-11T14:09:24Z</time>
      </trkpt>
      <trkpt lat="47.7971" lon="-2.44906">
        <ele>65</ele>
        <time>2025-02-11T14:09:25Z</time>
      </trkpt>
      <trkpt lat="47.79711" lon="-2.44906">
        <ele>64.9</ele>
        <time>2025-02-11T14:09:26Z</time>
      </trkpt>
      <trkpt lat="47.79712" lon="-2.44905">
        <ele>64.9</ele>
        <time>2025-02-11T14:09:27Z</time>
      </trkpt>
      <trkpt lat="47.79713" lon="-2.44905">
        <ele>64.8</ele>
        <time>2025-02-11T14:09:28Z</time>
      </trkpt>
      <trkpt lat="47.79714" lon="-2.44904">
        <ele>64.8</ele>
        <time>2025-02-11T14:09:29Z</time>
      </trkpt>
      <trkpt lat="47.79715" lon="-2.44904">
        <ele>64.7</ele>
        <time>2025-02-11T14:09:30Z</time>
      </trkpt>
      <trkpt lat="47.79716" lon="-2.44903">
        <ele>64.8</ele>
        <time>2025-02-11T14:09:31Z</time>
      </trkpt>
      <trkpt lat="47.79717" lon="-2.44902">
        <ele>64.9</ele>
        <time>2025-02-11T14:09:32Z</time>
      </trkpt>
      <trkpt lat="47.79718" lon="-2.44901">
        <ele>64.9</ele>
        <time>2025-02-11T14:09:33Z</time>
      </trkpt>
      <trkpt lat="47.79719" lon="-2.449">
        <ele>65.1</ele>
        <time>2025-02-11T14:09:34Z</time>
      </trkpt>
      <trkpt lat="47.79721" lon="-2.449">
        <ele>65.1</ele>
        <time>2025-02-11T14:09:35Z</time>
      </trkpt>
      <trkpt lat="47.79722" lon="-2.44899">
        <ele>65.3</ele>
        <time>2025-02-11T14:09:36Z</time>
      </trkpt>
      <trkpt lat="47.79723" lon="-2.44898">
        <ele>65.4</ele>
        <time>2025-02-11T14:09:37Z</time>
      </trkpt>
      <trkpt lat="47.79724" lon="-2.44897">
        <ele>65.4</ele>
        <time>2025-02-11T14:09:38Z</time>
      </trkpt>
      <trkpt lat="47.79725" lon="-2.44896">
        <ele>65.5</ele>
        <time>2025-02-11T14:09:39Z</time>
      </trkpt>
      <trkpt lat="47.79726" lon="-2.44895">
        <ele>65.6</ele>
        <time>2025-02-11T14:09:40Z</time>
      </trkpt>
      <trkpt lat="47.79727" lon="-2.44895">
        <ele>65.3</ele>
        <time>2025-02-11T14:09:41Z</time>
      </trkpt>
      <trkpt lat="47.79728" lon="-2.44895">
        <ele>65.1</ele>
        <time>2025-02-11T14:09:42Z</time>
      </trkpt>
      <trkpt lat="47.79729" lon="-2.44894">
        <ele>65.2</ele>
        <time>2025-02-11T14:09:43Z</time>
      </trkpt>
      <trkpt lat="47.7973" lon="-2.44893">
        <ele>65.3</ele>
        <time>2025-02-11T14:09:44Z</time>
      </trkpt>
      <trkpt lat="47.79731" lon="-2.44892">
        <ele>65.5</ele>
        <time>2025-02-11T14:09:45Z</time>
      </trkpt>
      <trkpt lat="47.79732" lon="-2.44891">
        <ele>65.7</ele>
        <time>2025-02-11T14:09:46Z</time>
      </trkpt>
      <trkpt lat="47.79733" lon="-2.4489">
        <ele>65.9</ele>
        <time>2025-02-11T14:09:47Z</time>
      </trkpt>
      <trkpt lat="47.79734" lon="-2.44889">
        <ele>65.9</ele>
        <time>2025-02-11T14:09:48Z</time>
      </trkpt>
      <trkpt lat="47.79735" lon="-2.44888">
        <ele>65.9</ele>
        <time>2025-02-11T14:09:49Z</time>
      </trkpt>
      <trkpt lat="47.79736" lon="-2.44887">
        <ele>65.8</ele>
        <time>2025-02-11T14:09:50Z</time>
      </trkpt>
      <trkpt lat="47.79737" lon="-2.44886">
        <ele>65.8</ele>
        <time>2025-02-11T14:09:51Z</time>
      </trkpt>
      <trkpt lat="47.79737" lon="-2.44885">
        <ele>65.8</ele>
        <time>2025-02-11T14:09:52Z</time>
      </trkpt>
      <trkpt lat="47.79738" lon="-2.44884">
        <ele>65.8</ele>
        <time>2025-02-11T14:09:53Z</time>
      </trkpt>
      <trkpt lat="47.79739" lon="-2.44883">
        <ele>65.9</ele>
        <time>2025-02-11T14:09:54Z</time>
      </trkpt>
      <trkpt lat="47.7974" lon="-2.44881">
        <ele>66</ele>
        <time>2025-02-11T14:09:55Z</time>
      </trkpt>
      <trkpt lat="47.7974" lon="-2.44879">
        <ele>66.3</ele>
        <time>2025-02-11T14:09:56Z</time>
      </trkpt>
      <trkpt lat="47.79741" lon="-2.44878">
        <ele>66.4</ele>
        <time>2025-02-11T14:09:57Z</time>
      </trkpt>
      <trkpt lat="47.79741" lon="-2.44877">
        <ele>66.5</ele>
        <time>2025-02-11T14:09:58Z</time>
      </trkpt>
      <trkpt lat="47.79742" lon="-2.44876">
        <ele>66.6</ele>
        <time>2025-02-11T14:09:59Z</time>
      </trkpt>
      <trkpt lat="47.79743" lon="-2.44874">
        <ele>66.7</ele>
        <time>2025-02-11T14:10:00Z</time>
      </trkpt>
      <trkpt lat="47.79744" lon="-2.44873">
        <ele>66.8</ele>
        <time>2025-02-11T14:10:01Z</time>
      </trkpt>
      <trkpt lat="47.79745" lon="-2.44873">
        <ele>66.9</ele>
        <time>2025-02-11T14:10:02Z</time>
      </trkpt>
      <trkpt lat="47.79746" lon="-2.44872">
        <ele>66.9</ele>
        <time>2025-02-11T14:10:03Z</time>
      </trkpt>
      <trkpt lat="47.79747" lon="-2.44872">
        <ele>66.9</ele>
        <time>2025-02-11T14:10:04Z</time>
      </trkpt>
      <trkpt lat="47.79748" lon="-2.44872">
        <ele>66.8</ele>
        <time>2025-02-11T14:10:05Z</time>
      </trkpt>
      <trkpt lat="47.79749" lon="-2.44871">
        <ele>67</ele>
        <time>2025-02-11T14:10:06Z</time>
      </trkpt>
      <trkpt lat="47.7975" lon="-2.4487">
        <ele>67.2</ele>
        <time>2025-02-11T14:10:07Z</time>
      </trkpt>
      <trkpt lat="47.79751" lon="-2.44868">
        <ele>67.4</ele>
        <time>2025-02-11T14:10:08Z</time>
      </trkpt>
      <trkpt lat="47.79751" lon="-2.44867">
        <ele>67.5</ele>
        <time>2025-02-11T14:10:09Z</time>
      </trkpt>
      <trkpt lat="47.79752" lon="-2.44866">
        <ele>67.6</ele>
        <time>2025-02-11T14:10:10Z</time>
      </trkpt>
      <trkpt lat="47.79754" lon="-2.44866">
        <ele>67.6</ele>
        <time>2025-02-11T14:10:11Z</time>
      </trkpt>
      <trkpt lat="47.79755" lon="-2.44865">
        <ele>67.6</ele>
        <time>2025-02-11T14:10:12Z</time>
      </trkpt>
      <trkpt lat="47.79755" lon="-2.44864">
        <ele>67.7</ele>
        <time>2025-02-11T14:10:13Z</time>
      </trkpt>
      <trkpt lat="47.79756" lon="-2.44864">
        <ele>67.6</ele>
        <time>2025-02-11T14:10:14Z</time>
      </trkpt>
      <trkpt lat="47.79757" lon="-2.44863">
        <ele>67.7</ele>
        <time>2025-02-11T14:10:15Z</time>
      </trkpt>
      <trkpt lat="47.79759" lon="-2.44863">
        <ele>67.6</ele>
        <time>2025-02-11T14:10:16Z</time>
      </trkpt>
      <trkpt lat="47.79759" lon="-2.44863">
        <ele>67.5</ele>
        <time>2025-02-11T14:10:17Z</time>
      </trkpt>
      <trkpt lat="47.79761" lon="-2.44862">
        <ele>67.7</ele>
        <time>2025-02-11T14:10:18Z</time>
      </trkpt>
      <trkpt lat="47.79762" lon="-2.44861">
        <ele>67.8</ele>
        <time>2025-02-11T14:10:19Z</time>
      </trkpt>
      <trkpt lat="47.79762" lon="-2.44859">
        <ele>67.9</ele>
        <time>2025-02-11T14:10:20Z</time>
      </trkpt>
      <trkpt lat="47.79763" lon="-2.44858">
        <ele>67.9</ele>
        <time>2025-02-11T14:10:21Z</time>
      </trkpt>
      <trkpt lat="47.79763" lon="-2.44857">
        <ele>68</ele>
        <time>2025-02-11T14:10:22Z</time>
      </trkpt>
      <trkpt lat="47.79764" lon="-2.44857">
        <ele>67.9</ele>
        <time>2025-02-11T14:10:23Z</time>
      </trkpt>
      <trkpt lat="47.79765" lon="-2.44856">
        <ele>67.9</ele>
        <time>2025-02-11T14:10:24Z</time>
      </trkpt>
      <trkpt lat="47.79766" lon="-2.44855">
        <ele>67.9</ele>
        <time>2025-02-11T14:10:25Z</time>
      </trkpt>
      <trkpt lat="47.79767" lon="-2.44855">
        <ele>67.8</ele>
        <time>2025-02-11T14:10:26Z</time>
      </trkpt>
      <trkpt lat="47.79768" lon="-2.44854">
        <ele>67.9</ele>
        <time>2025-02-11T14:10:27Z</time>
      </trkpt>
      <trkpt lat="47.79769" lon="-2.44853">
        <ele>67.9</ele>
        <time>2025-02-11T14:10:28Z</time>
      </trkpt>
      <trkpt lat="47.7977" lon="-2.44853">
        <ele>67.9</ele>
        <time>2025-02-11T14:10:29Z</time>
      </trkpt>
      <trkpt lat="47.79771" lon="-2.44852">
        <ele>67.9</ele>
        <time>2025-02-11T14:10:30Z</time>
      </trkpt>
      <trkpt lat="47.79772" lon="-2.44851">
        <ele>67.9</ele>
        <time>2025-02-11T14:10:31Z</time>
      </trkpt>
      <trkpt lat="47.79773" lon="-2.44851">
        <ele>67.8</ele>
        <time>2025-02-11T14:10:32Z</time>
      </trkpt>
      <trkpt lat="47.79774" lon="-2.44852">
        <ele>67.7</ele>
        <time>2025-02-11T14:10:33Z</time>
      </trkpt>
      <trkpt lat="47.79775" lon="-2.44852">
        <ele>67.6</ele>
        <time>2025-02-11T14:10:34Z</time>
      </trkpt>
      <trkpt lat="47.79776" lon="-2.44852">
        <ele>67.5</ele>
        <time>2025-02-11T14:10:35Z</time>
      </trkpt>
      <trkpt lat="47.79777" lon="-2.44852">
        <ele>67.3</ele>
        <time>2025-02-11T14:10:36Z</time>
      </trkpt>
      <trkpt lat="47.79778" lon="-2.44852">
        <ele>67.2</ele>
        <time>2025-02-11T14:10:37Z</time>
      </trkpt>
      <trkpt lat="47.79779" lon="-2.44851">
        <ele>67.1</ele>
        <time>2025-02-11T14:10:38Z</time>
      </trkpt>
      <trkpt lat="47.7978" lon="-2.44849">
        <ele>67.2</ele>
        <time>2025-02-11T14:10:39Z</time>
      </trkpt>
      <trkpt lat="47.79781" lon="-2.44848">
        <ele>67.3</ele>
        <time>2025-02-11T14:10:40Z</time>
      </trkpt>
      <trkpt lat="47.79781" lon="-2.44846">
        <ele>67.6</ele>
        <time>2025-02-11T14:10:41Z</time>
      </trkpt>
      <trkpt lat="47.79781" lon="-2.44844">
        <ele>67.9</ele>
        <time>2025-02-11T14:10:42Z</time>
      </trkpt>
      <trkpt lat="47.79781" lon="-2.44842">
        <ele>68.2</ele>
        <time>2025-02-11T14:10:43Z</time>
      </trkpt>
      <trkpt lat="47.79782" lon="-2.4484">
        <ele>68.3</ele>
        <time>2025-02-11T14:10:44Z</time>
      </trkpt>
      <trkpt lat="47.79782" lon="-2.44839">
        <ele>68.6</ele>
        <time>2025-02-11T14:10:45Z</time>
      </trkpt>
      <trkpt lat="47.79782" lon="-2.44838">
        <ele>68.9</ele>
        <time>2025-02-11T14:10:46Z</time>
      </trkpt>
      <trkpt lat="47.79782" lon="-2.44836">
        <ele>69</ele>
        <time>2025-02-11T14:10:47Z</time>
      </trkpt>
      <trkpt lat="47.79782" lon="-2.44835">
        <ele>69.2</ele>
        <time>2025-02-11T14:10:48Z</time>
      </trkpt>
      <trkpt lat="47.79782" lon="-2.44834">
        <ele>69.3</ele>
        <time>2025-02-11T14:10:49Z</time>
      </trkpt>
      <trkpt lat="47.79783" lon="-2.44833">
        <ele>69.5</ele>
        <time>2025-02-11T14:10:50Z</time>
      </trkpt>
      <trkpt lat="47.79783" lon="-2.44832">
        <ele>69.6</ele>
        <time>2025-02-11T14:10:51Z</time>
      </trkpt>
      <trkpt lat="47.79783" lon="-2.44831">
        <ele>69.6</ele>
        <time>2025-02-11T14:10:52Z</time>
      </trkpt>
      <trkpt lat="47.79783" lon="-2.4483">
        <ele>69.7</ele>
        <time>2025-02-11T14:10:53Z</time>
      </trkpt>
      <trkpt lat="47.79783" lon="-2.44828">
        <ele>69.9</ele>
        <time>2025-02-11T14:10:54Z</time>
      </trkpt>
      <trkpt lat="47.79784" lon="-2.44827">
        <ele>69.9</ele>
        <time>2025-02-11T14:10:55Z</time>
      </trkpt>
      <trkpt lat="47.79785" lon="-2.44826">
        <ele>69.9</ele>
        <time>2025-02-11T14:10:56Z</time>
      </trkpt>
      <trkpt lat="47.79785" lon="-2.44826">
        <ele>69.9</ele>
        <time>2025-02-11T14:10:57Z</time>
      </trkpt>
      <trkpt lat="47.79786" lon="-2.44825">
        <ele>69.9</ele>
        <time>2025-02-11T14:10:58Z</time>
      </trkpt>
      <trkpt lat="47.79787" lon="-2.44823">
        <ele>70</ele>
        <time>2025-02-11T14:10:59Z</time>
      </trkpt>
      <trkpt lat="47.79788" lon="-2.44823">
        <ele>69.9</ele>
        <time>2025-02-11T14:11:00Z</time>
      </trkpt>
      <trkpt lat="47.79789" lon="-2.44822">
        <ele>70</ele>
        <time>2025-02-11T14:11:01Z</time>
      </trkpt>
      <trkpt lat="47.7979" lon="-2.44821">
        <ele>70</ele>
        <time>2025-02-11T14:11:02Z</time>
      </trkpt>
      <trkpt lat="47.79791" lon="-2.4482">
        <ele>70</ele>
        <time>2025-02-11T14:11:03Z</time>
      </trkpt>
      <trkpt lat="47.79792" lon="-2.4482">
        <ele>70</ele>
        <time>2025-02-11T14:11:04Z</time>
      </trkpt>
      <trkpt lat="47.79793" lon="-2.44818">
        <ele>70</ele>
        <time>2025-02-11T14:11:05Z</time>
      </trkpt>
      <trkpt lat="47.79793" lon="-2.44817">
        <ele>70.1</ele>
        <time>2025-02-11T14:11:06Z</time>
      </trkpt>
      <trkpt lat="47.79794" lon="-2.44817">
        <ele>70.1</ele>
        <time>2025-02-11T14:11:07Z</time>
      </trkpt>
      <trkpt lat="47.79795" lon="-2.44816">
        <ele>70.2</ele>
        <time>2025-02-11T14:11:08Z</time>
      </trkpt>
      <trkpt lat="47.79795" lon="-2.44815">
        <ele>70.2</ele>
        <time>2025-02-11T14:11:09Z</time>
      </trkpt>
      <trkpt lat="47.79796" lon="-2.44813">
        <ele>70.5</ele>
        <time>2025-02-11T14:11:10Z</time>
      </trkpt>
      <trkpt lat="47.79796" lon="-2.44811">
        <ele>70.7</ele>
        <time>2025-02-11T14:11:11Z</time>
      </trkpt>
      <trkpt lat="47.79796" lon="-2.4481">
        <ele>70.8</ele>
        <time>2025-02-11T14:11:12Z</time>
      </trkpt>
      <trkpt lat="47.79797" lon="-2.44808">
        <ele>71</ele>
        <time>2025-02-11T14:11:13Z</time>
      </trkpt>
      <trkpt lat="47.79796" lon="-2.44807">
        <ele>71.2</ele>
        <time>2025-02-11T14:11:14Z</time>
      </trkpt>
      <trkpt lat="47.79796" lon="-2.44805">
        <ele>71.4</ele>
        <time>2025-02-11T14:11:15Z</time>
      </trkpt>
      <trkpt lat="47.79796" lon="-2.44803">
        <ele>71.6</ele>
        <time>2025-02-11T14:11:16Z</time>
      </trkpt>
      <trkpt lat="47.79796" lon="-2.44802">
        <ele>71.7</ele>
        <time>2025-02-11T14:11:17Z</time>
      </trkpt>
      <trkpt lat="47.79797" lon="-2.448">
        <ele>71.9</ele>
        <time>2025-02-11T14:11:18Z</time>
      </trkpt>
      <trkpt lat="47.79797" lon="-2.44799">
        <ele>72</ele>
        <time>2025-02-11T14:11:19Z</time>
      </trkpt>
      <trkpt lat="47.79798" lon="-2.44798">
        <ele>72</ele>
        <time>2025-02-11T14:11:20Z</time>
      </trkpt>
      <trkpt lat="47.79799" lon="-2.44798">
        <ele>72</ele>
        <time>2025-02-11T14:11:21Z</time>
      </trkpt>
      <trkpt lat="47.798" lon="-2.44797">
        <ele>72.1</ele>
        <time>2025-02-11T14:11:22Z</time>
      </trkpt>
      <trkpt lat="47.79801" lon="-2.44796">
        <ele>72.1</ele>
        <time>2025-02-11T14:11:23Z</time>
      </trkpt>
      <trkpt lat="47.79802" lon="-2.44796">
        <ele>72.1</ele>
        <time>2025-02-11T14:11:24Z</time>
      </trkpt>
      <trkpt lat="47.79803" lon="-2.44796">
        <ele>72.1</ele>
        <time>2025-02-11T14:11:25Z</time>
      </trkpt>
      <trkpt lat="47.79804" lon="-2.44795">
        <ele>72.2</ele>
        <time>2025-02-11T14:11:26Z</time>
      </trkpt>
      <trkpt lat="47.79805" lon="-2.44795">
        <ele>72.2</ele>
        <time>2025-02-11T14:11:27Z</time>
      </trkpt>
      <trkpt lat="47.79806" lon="-2.44795">
        <ele>72.1</ele>
        <time>2025-02-11T14:11:28Z</time>
      </trkpt>
      <trkpt lat="47.79807" lon="-2.44794">
        <ele>72.1</ele>
        <time>2025-02-11T14:11:29Z</time>
      </trkpt>
      <trkpt lat="47.79808" lon="-2.44793">
        <ele>72.1</ele>
        <time>2025-02-11T14:11:30Z</time>
      </trkpt>
      <trkpt lat="47.7981" lon="-2.44792">
        <ele>72.1</ele>
        <time>2025-02-11T14:11:31Z</time>
      </trkpt>
      <trkpt lat="47.79811" lon="-2.44791">
        <ele>72.2</ele>
        <time>2025-02-11T14:11:32Z</time>
      </trkpt>
      <trkpt lat="47.79812" lon="-2.44791">
        <ele>72</ele>
        <time>2025-02-11T14:11:33Z</time>
      </trkpt>
      <trkpt lat="47.79813" lon="-2.44792">
        <ele>71.8</ele>
        <time>2025-02-11T14:11:34Z</time>
      </trkpt>
      <trkpt lat="47.79814" lon="-2.44793">
        <ele>71.6</ele>
        <time>2025-02-11T14:11:35Z</time>
      </trkpt>
      <trkpt lat="47.79815" lon="-2.44793">
        <ele>71.5</ele>
        <time>2025-02-11T14:11:36Z</time>
      </trkpt>
      <trkpt lat="47.79817" lon="-2.44793">
        <ele>71.4</ele>
        <time>2025-02-11T14:11:37Z</time>
      </trkpt>
      <trkpt lat="47.79818" lon="-2.44792">
        <ele>71.4</ele>
        <time>2025-02-11T14:11:38Z</time>
      </trkpt>
      <trkpt lat="47.79819" lon="-2.44791">
        <ele>71.4</ele>
        <time>2025-02-11T14:11:39Z</time>
      </trkpt>
      <trkpt lat="47.79821" lon="-2.44791">
        <ele>71.3</ele>
        <time>2025-02-11T14:11:40Z</time>
      </trkpt>
      <trkpt lat="47.79822" lon="-2.4479">
        <ele>71.2</ele>
        <time>2025-02-11T14:11:41Z</time>
      </trkpt>
      <trkpt lat="47.79823" lon="-2.4479">
        <ele>71.2</ele>
        <time>2025-02-11T14:11:42Z</time>
      </trkpt>
      <trkpt lat="47.79824" lon="-2.44789">
        <ele>71.2</ele>
        <time>2025-02-11T14:11:43Z</time>
      </trkpt>
      <trkpt lat="47.79825" lon="-2.44789">
        <ele>71.2</ele>
        <time>2025-02-11T14:11:44Z</time>
      </trkpt>
      <trkpt lat="47.79826" lon="-2.44788">
        <ele>71.1</ele>
        <time>2025-02-11T14:11:45Z</time>
      </trkpt>
      <trkpt lat="47.79827" lon="-2.44788">
        <ele>71.1</ele>
        <time>2025-02-11T14:11:46Z</time>
      </trkpt>
      <trkpt lat="47.79828" lon="-2.44788">
        <ele>71</ele>
        <time>2025-02-11T14:11:47Z</time>
      </trkpt>
      <trkpt lat="47.79829" lon="-2.44789">
        <ele>70.8</ele>
        <time>2025-02-11T14:11:48Z</time>
      </trkpt>
      <trkpt lat="47.7983" lon="-2.44788">
        <ele>70.8</ele>
        <time>2025-02-11T14:11:49Z</time>
      </trkpt>
      <trkpt lat="47.79831" lon="-2.44788">
        <ele>70.8</ele>
        <time>2025-02-11T14:11:50Z</time>
      </trkpt>
      <trkpt lat="47.79832" lon="-2.44787">
        <ele>70.7</ele>
        <time>2025-02-11T14:11:51Z</time>
      </trkpt>
      <trkpt lat="47.79833" lon="-2.44786">
        <ele>70.9</ele>
        <time>2025-02-11T14:11:52Z</time>
      </trkpt>
      <trkpt lat="47.79833" lon="-2.44784">
        <ele>71.1</ele>
        <time>2025-02-11T14:11:53Z</time>
      </trkpt>
      <trkpt lat="47.79833" lon="-2.44782">
        <ele>71.4</ele>
        <time>2025-02-11T14:11:54Z</time>
      </trkpt>
      <trkpt lat="47.79833" lon="-2.44781">
        <ele>71.6</ele>
        <time>2025-02-11T14:11:55Z</time>
      </trkpt>
      <trkpt lat="47.79833" lon="-2.44779">
        <ele>71.8</ele>
        <time>2025-02-11T14:11:56Z</time>
      </trkpt>
      <trkpt lat="47.79833" lon="-2.44777">
        <ele>72.1</ele>
        <time>2025-02-11T14:11:57Z</time>
      </trkpt>
      <trkpt lat="47.79834" lon="-2.44775">
        <ele>72.3</ele>
        <time>2025-02-11T14:11:58Z</time>
      </trkpt>
      <trkpt lat="47.79834" lon="-2.44774">
        <ele>72.4</ele>
        <time>2025-02-11T14:11:59Z</time>
      </trkpt>
      <trkpt lat="47.79835" lon="-2.44773">
        <ele>72.5</ele>
        <time>2025-02-11T14:12:00Z</time>
      </trkpt>
      <trkpt lat="47.79835" lon="-2.44772">
        <ele>72.5</ele>
        <time>2025-02-11T14:12:01Z</time>
      </trkpt>
      <trkpt lat="47.79836" lon="-2.44771">
        <ele>72.6</ele>
        <time>2025-02-11T14:12:02Z</time>
      </trkpt>
      <trkpt lat="47.79837" lon="-2.4477">
        <ele>72.7</ele>
        <time>2025-02-11T14:12:03Z</time>
      </trkpt>
      <trkpt lat="47.79837" lon="-2.44769">
        <ele>72.8</ele>
        <time>2025-02-11T14:12:04Z</time>
      </trkpt>
      <trkpt lat="47.79838" lon="-2.44769">
        <ele>72.8</ele>
        <time>2025-02-11T14:12:05Z</time>
      </trkpt>
      <trkpt lat="47.79839" lon="-2.44768">
        <ele>72.8</ele>
        <time>2025-02-11T14:12:06Z</time>
      </trkpt>
      <trkpt lat="47.7984" lon="-2.44768">
        <ele>72.9</ele>
        <time>2025-02-11T14:12:07Z</time>
      </trkpt>
      <trkpt lat="47.7984" lon="-2.44767">
        <ele>72.9</ele>
        <time>2025-02-11T14:12:08Z</time>
      </trkpt>
      <trkpt lat="47.79841" lon="-2.44765">
        <ele>73.1</ele>
        <time>2025-02-11T14:12:09Z</time>
      </trkpt>
      <trkpt lat="47.79841" lon="-2.44764">
        <ele>73.2</ele>
        <time>2025-02-11T14:12:10Z</time>
      </trkpt>
      <trkpt lat="47.79842" lon="-2.44763">
        <ele>73.3</ele>
        <time>2025-02-11T14:12:11Z</time>
      </trkpt>
      <trkpt lat="47.79843" lon="-2.44762">
        <ele>73.3</ele>
        <time>2025-02-11T14:12:12Z</time>
      </trkpt>
      <trkpt lat="47.79843" lon="-2.44761">
        <ele>73.5</ele>
        <time>2025-02-11T14:12:13Z</time>
      </trkpt>
      <trkpt lat="47.79843" lon="-2.44759">
        <ele>73.7</ele>
        <time>2025-02-11T14:12:14Z</time>
      </trkpt>
      <trkpt lat="47.79843" lon="-2.44758">
        <ele>73.8</ele>
        <time>2025-02-11T14:12:15Z</time>
      </trkpt>
      <trkpt lat="47.79842" lon="-2.44756">
        <ele>74</ele>
        <time>2025-02-11T14:12:16Z</time>
      </trkpt>
      <trkpt lat="47.79843" lon="-2.44755">
        <ele>74.1</ele>
        <time>2025-02-11T14:12:17Z</time>
      </trkpt>
      <trkpt lat="47.79843" lon="-2.44754">
        <ele>74.2</ele>
        <time>2025-02-11T14:12:18Z</time>
      </trkpt>
      <trkpt lat="47.79843" lon="-2.44752">
        <ele>74.4</ele>
        <time>2025-02-11T14:12:19Z</time>
      </trkpt>
      <trkpt lat="47.79843" lon="-2.44751">
        <ele>74.5</ele>
        <time>2025-02-11T14:12:20Z</time>
      </trkpt>
      <trkpt lat="47.79843" lon="-2.4475">
        <ele>74.7</ele>
        <time>2025-02-11T14:12:21Z</time>
      </trkpt>
      <trkpt lat="47.79843" lon="-2.44749">
        <ele>74.8</ele>
        <time>2025-02-11T14:12:22Z</time>
      </trkpt>
      <trkpt lat="47.79844" lon="-2.44748">
        <ele>74.8</ele>
        <time>2025-02-11T14:12:23Z</time>
      </trkpt>
      <trkpt lat="47.79844" lon="-2.44747">
        <ele>74.9</ele>
        <time>2025-02-11T14:12:24Z</time>
      </trkpt>
      <trkpt lat="47.79845" lon="-2.44746">
        <ele>75</ele>
        <time>2025-02-11T14:12:25Z</time>
      </trkpt>
      <trkpt lat="47.79846" lon="-2.44745">
        <ele>75</ele>
        <time>2025-02-11T14:12:26Z</time>
      </trkpt>
      <trkpt lat="47.79846" lon="-2.44743">
        <ele>75.1</ele>
        <time>2025-02-11T14:12:27Z</time>
      </trkpt>
      <trkpt lat="47.79847" lon="-2.44743">
        <ele>75.2</ele>
        <time>2025-02-11T14:12:28Z</time>
      </trkpt>
      <trkpt lat="47.79847" lon="-2.44741">
        <ele>75.3</ele>
        <time>2025-02-11T14:12:29Z</time>
      </trkpt>
      <trkpt lat="47.79847" lon="-2.4474">
        <ele>75.4</ele>
        <time>2025-02-11T14:12:30Z</time>
      </trkpt>
      <trkpt lat="47.79848" lon="-2.4474">
        <ele>75.4</ele>
        <time>2025-02-11T14:12:31Z</time>
      </trkpt>
      <trkpt lat="47.79848" lon="-2.44738">
        <ele>75.6</ele>
        <time>2025-02-11T14:12:32Z</time>
      </trkpt>
      <trkpt lat="47.79848" lon="-2.44737">
        <ele>75.7</ele>
        <time>2025-02-11T14:12:33Z</time>
      </trkpt>
      <trkpt lat="47.79848" lon="-2.44736">
        <ele>75.8</ele>
        <time>2025-02-11T14:12:34Z</time>
      </trkpt>
      <trkpt lat="47.79849" lon="-2.44736">
        <ele>75.8</ele>
        <time>2025-02-11T14:12:35Z</time>
      </trkpt>
      <trkpt lat="47.79849" lon="-2.44733">
        <ele>76</ele>
        <time>2025-02-11T14:12:36Z</time>
      </trkpt>
      <trkpt lat="47.79849" lon="-2.44732">
        <ele>76.1</ele>
        <time>2025-02-11T14:12:37Z</time>
      </trkpt>
      <trkpt lat="47.7985" lon="-2.44731">
        <ele>76.2</ele>
        <time>2025-02-11T14:12:38Z</time>
      </trkpt>
      <trkpt lat="47.7985" lon="-2.44729">
        <ele>76.3</ele>
        <time>2025-02-11T14:12:39Z</time>
      </trkpt>
      <trkpt lat="47.79851" lon="-2.44728">
        <ele>76.4</ele>
        <time>2025-02-11T14:12:40Z</time>
      </trkpt>
      <trkpt lat="47.79851" lon="-2.44727">
        <ele>76.5</ele>
        <time>2025-02-11T14:12:41Z</time>
      </trkpt>
      <trkpt lat="47.79851" lon="-2.44727">
        <ele>76.6</ele>
        <time>2025-02-11T14:12:42Z</time>
      </trkpt>
      <trkpt lat="47.79852" lon="-2.44725">
        <ele>76.7</ele>
        <time>2025-02-11T14:12:43Z</time>
      </trkpt>
      <trkpt lat="47.79852" lon="-2.44724">
        <ele>76.8</ele>
        <time>2025-02-11T14:12:44Z</time>
      </trkpt>
      <trkpt lat="47.79853" lon="-2.44723">
        <ele>76.9</ele>
        <time>2025-02-11T14:12:45Z</time>
      </trkpt>
      <trkpt lat="47.79853" lon="-2.44722">
        <ele>77</ele>
        <time>2025-02-11T14:12:46Z</time>
      </trkpt>
      <trkpt lat="47.79853" lon="-2.44721">
        <ele>77.1</ele>
        <time>2025-02-11T14:12:47Z</time>
      </trkpt>
      <trkpt lat="47.79854" lon="-2.4472">
        <ele>77.1</ele>
        <time>2025-02-11T14:12:48Z</time>
      </trkpt>
      <trkpt lat="47.79854" lon="-2.44719">
        <ele>77.2</ele>
        <time>2025-02-11T14:12:49Z</time>
      </trkpt>
      <trkpt lat="47.79856" lon="-2.44719">
        <ele>77.3</ele>
        <time>2025-02-11T14:12:50Z</time>
      </trkpt>
      <trkpt lat="47.79857" lon="-2.44718">
        <ele>77.3</ele>
        <time>2025-02-11T14:12:51Z</time>
      </trkpt>
      <trkpt lat="47.79857" lon="-2.44717">
        <ele>77.4</ele>
        <time>2025-02-11T14:12:52Z</time>
      </trkpt>
      <trkpt lat="47.79858" lon="-2.44715">
        <ele>77.5</ele>
        <time>2025-02-11T14:12:53Z</time>
      </trkpt>
      <trkpt lat="47.79858" lon="-2.44713">
        <ele>77.7</ele>
        <time>2025-02-11T14:12:54Z</time>
      </trkpt>
      <trkpt lat="47.79859" lon="-2.44712">
        <ele>77.8</ele>
        <time>2025-02-11T14:12:55Z</time>
      </trkpt>
      <trkpt lat="47.79859" lon="-2.44711">
        <ele>77.8</ele>
        <time>2025-02-11T14:12:56Z</time>
      </trkpt>
      <trkpt lat="47.7986" lon="-2.4471">
        <ele>77.9</ele>
        <time>2025-02-11T14:12:57Z</time>
      </trkpt>
      <trkpt lat="47.79861" lon="-2.44709">
        <ele>77.9</ele>
        <time>2025-02-11T14:12:58Z</time>
      </trkpt>
      <trkpt lat="47.79862" lon="-2.44708">
        <ele>78</ele>
        <time>2025-02-11T14:12:59Z</time>
      </trkpt>
      <trkpt lat="47.79863" lon="-2.44707">
        <ele>78</ele>
        <time>2025-02-11T14:13:00Z</time>
      </trkpt>
      <trkpt lat="47.79863" lon="-2.44707">
        <ele>78</ele>
        <time>2025-02-11T14:13:01Z</time>
      </trkpt>
      <trkpt lat="47.79864" lon="-2.44706">
        <ele>78.1</ele>
        <time>2025-02-11T14:13:02Z</time>
      </trkpt>
      <trkpt lat="47.79864" lon="-2.44704">
        <ele>78.2</ele>
        <time>2025-02-11T14:13:03Z</time>
      </trkpt>
      <trkpt lat="47.79864" lon="-2.44703">
        <ele>78.3</ele>
        <time>2025-02-11T14:13:04Z</time>
      </trkpt>
      <trkpt lat="47.79865" lon="-2.44702">
        <ele>78.3</ele>
        <time>2025-02-11T14:13:05Z</time>
      </trkpt>
      <trkpt lat="47.79866" lon="-2.44701">
        <ele>78.3</ele>
        <time>2025-02-11T14:13:06Z</time>
      </trkpt>
      <trkpt lat="47.79868" lon="-2.44701">
        <ele>78.3</ele>
        <time>2025-02-11T14:13:07Z</time>
      </trkpt>
      <trkpt lat="47.79869" lon="-2.447">
        <ele>78.3</ele>
        <time>2025-02-11T14:13:08Z</time>
      </trkpt>
      <trkpt lat="47.7987" lon="-2.447">
        <ele>78.3</ele>
        <time>2025-02-11T14:13:09Z</time>
      </trkpt>
      <trkpt lat="47.79871" lon="-2.44701">
        <ele>78.1</ele>
        <time>2025-02-11T14:13:10Z</time>
      </trkpt>
      <trkpt lat="47.79873" lon="-2.447">
        <ele>78.2</ele>
        <time>2025-02-11T14:13:11Z</time>
      </trkpt>
      <trkpt lat="47.79874" lon="-2.44699">
        <ele>78.2</ele>
        <time>2025-02-11T14:13:12Z</time>
      </trkpt>
      <trkpt lat="47.79875" lon="-2.44698">
        <ele>78.3</ele>
        <time>2025-02-11T14:13:13Z</time>
      </trkpt>
      <trkpt lat="47.79876" lon="-2.44697">
        <ele>78.3</ele>
        <time>2025-02-11T14:13:14Z</time>
      </trkpt>
      <trkpt lat="47.79877" lon="-2.44697">
        <ele>78.3</ele>
        <time>2025-02-11T14:13:15Z</time>
      </trkpt>
      <trkpt lat="47.79878" lon="-2.44696">
        <ele>78.3</ele>
        <time>2025-02-11T14:13:16Z</time>
      </trkpt>
      <trkpt lat="47.79879" lon="-2.44694">
        <ele>78.4</ele>
        <time>2025-02-11T14:13:17Z</time>
      </trkpt>
      <trkpt lat="47.7988" lon="-2.44693">
        <ele>78.4</ele>
        <time>2025-02-11T14:13:18Z</time>
      </trkpt>
      <trkpt lat="47.79881" lon="-2.44692">
        <ele>78.4</ele>
        <time>2025-02-11T14:13:19Z</time>
      </trkpt>
      <trkpt lat="47.79882" lon="-2.44692">
        <ele>78.5</ele>
        <time>2025-02-11T14:13:20Z</time>
      </trkpt>
      <trkpt lat="47.79883" lon="-2.44691">
        <ele>78.5</ele>
        <time>2025-02-11T14:13:21Z</time>
      </trkpt>
      <trkpt lat="47.79884" lon="-2.4469">
        <ele>78.5</ele>
        <time>2025-02-11T14:13:22Z</time>
      </trkpt>
      <trkpt lat="47.79885" lon="-2.44689">
        <ele>78.5</ele>
        <time>2025-02-11T14:13:23Z</time>
      </trkpt>
      <trkpt lat="47.79886" lon="-2.44689">
        <ele>78.5</ele>
        <time>2025-02-11T14:13:24Z</time>
      </trkpt>
      <trkpt lat="47.79887" lon="-2.44688">
        <ele>78.5</ele>
        <time>2025-02-11T14:13:25Z</time>
      </trkpt>
      <trkpt lat="47.79888" lon="-2.44688">
        <ele>78.5</ele>
        <time>2025-02-11T14:13:26Z</time>
      </trkpt>
      <trkpt lat="47.79889" lon="-2.44687">
        <ele>78.6</ele>
        <time>2025-02-11T14:13:27Z</time>
      </trkpt>
      <trkpt lat="47.7989" lon="-2.44686">
        <ele>78.5</ele>
        <time>2025-02-11T14:13:28Z</time>
      </trkpt>
      <trkpt lat="47.79892" lon="-2.44686">
        <ele>78.5</ele>
        <time>2025-02-11T14:13:29Z</time>
      </trkpt>
      <trkpt lat="47.79893" lon="-2.44686">
        <ele>78.5</ele>
        <time>2025-02-11T14:13:30Z</time>
      </trkpt>
      <trkpt lat="47.79894" lon="-2.44685">
        <ele>78.5</ele>
        <time>2025-02-11T14:13:31Z</time>
      </trkpt>
      <trkpt lat="47.79895" lon="-2.44684">
        <ele>78.6</ele>
        <time>2025-02-11T14:13:32Z</time>
      </trkpt>
      <trkpt lat="47.79895" lon="-2.44683">
        <ele>78.6</ele>
        <time>2025-02-11T14:13:33Z</time>
      </trkpt>
      <trkpt lat="47.79896" lon="-2.44682">
        <ele>78.6</ele>
        <time>2025-02-11T14:13:34Z</time>
      </trkpt>
      <trkpt lat="47.79898" lon="-2.44682">
        <ele>78.6</ele>
        <time>2025-02-11T14:13:35Z</time>
      </trkpt>
      <trkpt lat="47.79899" lon="-2.44682">
        <ele>78.5</ele>
        <time>2025-02-11T14:13:36Z</time>
      </trkpt>
      <trkpt lat="47.799" lon="-2.44683">
        <ele>78.4</ele>
        <time>2025-02-11T14:13:37Z</time>
      </trkpt>
      <trkpt lat="47.79901" lon="-2.44683">
        <ele>78.4</ele>
        <time>2025-02-11T14:13:38Z</time>
      </trkpt>
      <trkpt lat="47.79901" lon="-2.44683">
        <ele>78.4</ele>
        <time>2025-02-11T14:13:39Z</time>
      </trkpt>
      <trkpt lat="47.79902" lon="-2.44682">
        <ele>78.4</ele>
        <time>2025-02-11T14:13:40Z</time>
      </trkpt>
      <trkpt lat="47.79904" lon="-2.44682">
        <ele>78.4</ele>
        <time>2025-02-11T14:13:41Z</time>
      </trkpt>
      <trkpt lat="47.79905" lon="-2.44682">
        <ele>78.3</ele>
        <time>2025-02-11T14:13:42Z</time>
      </trkpt>
      <trkpt lat="47.79906" lon="-2.44682">
        <ele>78.3</ele>
        <time>2025-02-11T14:13:43Z</time>
      </trkpt>
      <trkpt lat="47.79906" lon="-2.44681">
        <ele>78.4</ele>
        <time>2025-02-11T14:13:44Z</time>
      </trkpt>
      <trkpt lat="47.79907" lon="-2.44679">
        <ele>78.5</ele>
        <time>2025-02-11T14:13:45Z</time>
      </trkpt>
      <trkpt lat="47.79908" lon="-2.44678">
        <ele>78.5</ele>
        <time>2025-02-11T14:13:46Z</time>
      </trkpt>
      <trkpt lat="47.79909" lon="-2.44677">
        <ele>78.5</ele>
        <time>2025-02-11T14:13:47Z</time>
      </trkpt>
      <trkpt lat="47.7991" lon="-2.44676">
        <ele>78.6</ele>
        <time>2025-02-11T14:13:48Z</time>
      </trkpt>
      <trkpt lat="47.7991" lon="-2.44674">
        <ele>78.7</ele>
        <time>2025-02-11T14:13:49Z</time>
      </trkpt>
      <trkpt lat="47.79911" lon="-2.44673">
        <ele>78.8</ele>
        <time>2025-02-11T14:13:50Z</time>
      </trkpt>
      <trkpt lat="47.79911" lon="-2.44672">
        <ele>78.8</ele>
        <time>2025-02-11T14:13:51Z</time>
      </trkpt>
      <trkpt lat="47.79912" lon="-2.4467">
        <ele>78.9</ele>
        <time>2025-02-11T14:13:52Z</time>
      </trkpt>
      <trkpt lat="47.79913" lon="-2.4467">
        <ele>78.9</ele>
        <time>2025-02-11T14:13:53Z</time>
      </trkpt>
      <trkpt lat="47.79914" lon="-2.44669">
        <ele>78.9</ele>
        <time>2025-02-11T14:13:54Z</time>
      </trkpt>
      <trkpt lat="47.79915" lon="-2.44668">
        <ele>79</ele>
        <time>2025-02-11T14:13:55Z</time>
      </trkpt>
      <trkpt lat="47.79916" lon="-2.44667">
        <ele>79</ele>
        <time>2025-02-11T14:13:56Z</time>
      </trkpt>
      <trkpt lat="47.79917" lon="-2.44666">
        <ele>79</ele>
        <time>2025-02-11T14:13:57Z</time>
      </trkpt>
      <trkpt lat="47.79919" lon="-2.44668">
        <ele>78.9</ele>
        <time>2025-02-11T14:13:58Z</time>
      </trkpt>
      <trkpt lat="47.7992" lon="-2.44668">
        <ele>78.8</ele>
        <time>2025-02-11T14:13:59Z</time>
      </trkpt>
      <trkpt lat="47.79921" lon="-2.44667">
        <ele>78.8</ele>
        <time>2025-02-11T14:14:00Z</time>
      </trkpt>
      <trkpt lat="47.79922" lon="-2.44667">
        <ele>78.8</ele>
        <time>2025-02-11T14:14:01Z</time>
      </trkpt>
      <trkpt lat="47.79922" lon="-2.44666">
        <ele>78.9</ele>
        <time>2025-02-11T14:14:02Z</time>
      </trkpt>
      <trkpt lat="47.79922" lon="-2.44666">
        <ele>78.9</ele>
        <time>2025-02-11T14:14:03Z</time>
      </trkpt>
      <trkpt lat="47.79922" lon="-2.44666">
        <ele>78.9</ele>
        <time>2025-02-11T14:14:04Z</time>
      </trkpt>
      <trkpt lat="47.79922" lon="-2.44666">
        <ele>78.9</ele>
        <time>2025-02-11T14:14:05Z</time>
      </trkpt>
      <trkpt lat="47.79922" lon="-2.44666">
        <ele>78.9</ele>
        <time>2025-02-11T14:14:06Z</time>
      </trkpt>
      <trkpt lat="47.79922" lon="-2.44666">
        <ele>78.9</ele>
        <time>2025-02-11T14:14:07Z</time>
      </trkpt>
      <trkpt lat="47.79923" lon="-2.44665">
        <ele>78.9</ele>
        <time>2025-02-11T14:14:08Z</time>
      </trkpt>
      <trkpt lat="47.79923" lon="-2.44666">
        <ele>78.8</ele>
        <time>2025-02-11T14:14:09Z</time>
      </trkpt>
      <trkpt lat="47.79922" lon="-2.44666">
        <ele>78.8</ele>
        <time>2025-02-11T14:14:10Z</time>
      </trkpt>
      <trkpt lat="47.79922" lon="-2.44666">
        <ele>78.9</ele>
        <time>2025-02-11T14:14:11Z</time>
      </trkpt>
      <trkpt lat="47.79922" lon="-2.44666">
        <ele>78.8</ele>
        <time>2025-02-11T14:14:12Z</time>
      </trkpt>
      <trkpt lat="47.79922" lon="-2.44666">
        <ele>78.8</ele>
        <time>2025-02-11T14:14:13Z</time>
      </trkpt>
      <trkpt lat="47.79922" lon="-2.44666">
        <ele>78.8</ele>
        <time>2025-02-11T14:14:14Z</time>
      </trkpt>
      <trkpt lat="47.79922" lon="-2.44666">
        <ele>78.8</ele>
        <time>2025-02-11T14:14:15Z</time>
      </trkpt>
      <trkpt lat="47.79922" lon="-2.44666">
        <ele>78.8</ele>
        <time>2025-02-11T14:14:16Z</time>
      </trkpt>
      <trkpt lat="47.79922" lon="-2.44666">
        <ele>78.8</ele>
        <time>2025-02-11T14:14:17Z</time>
      </trkpt>
      <trkpt lat="47.79922" lon="-2.44666">
        <ele>78.9</ele>
        <time>2025-02-11T14:14:18Z</time>
      </trkpt>
      <trkpt lat="47.79922" lon="-2.44666">
        <ele>78.9</ele>
        <time>2025-02-11T14:14:19Z</time>
      </trkpt>
      <trkpt lat="47.79922" lon="-2.44666">
        <ele>78.9</ele>
        <time>2025-02-11T14:14:20Z</time>
      </trkpt>
      <trkpt lat="47.79921" lon="-2.44667">
        <ele>78.8</ele>
        <time>2025-02-11T14:14:21Z</time>
      </trkpt>
      <trkpt lat="47.79921" lon="-2.44667">
        <ele>78.8</ele>
        <time>2025-02-11T14:14:22Z</time>
      </trkpt>
      <trkpt lat="47.79921" lon="-2.44667">
        <ele>78.8</ele>
        <time>2025-02-11T14:14:23Z</time>
      </trkpt>
      <trkpt lat="47.79921" lon="-2.44667">
        <ele>78.8</ele>
        <time>2025-02-11T14:14:24Z</time>
      </trkpt>
      <trkpt lat="47.79922" lon="-2.44667">
        <ele>78.8</ele>
        <time>2025-02-11T14:14:25Z</time>
      </trkpt>
      <trkpt lat="47.79922" lon="-2.44667">
        <ele>78.8</ele>
        <time>2025-02-11T14:14:26Z</time>
      </trkpt>
      <trkpt lat="47.79922" lon="-2.44667">
        <ele>78.8</ele>
        <time>2025-02-11T14:14:27Z</time>
      </trkpt>
      <trkpt lat="47.79922" lon="-2.44667">
        <ele>78.8</ele>
        <time>2025-02-11T14:14:28Z</time>
      </trkpt>
      <trkpt lat="47.79922" lon="-2.44667">
        <ele>78.8</ele>
        <time>2025-02-11T14:14:29Z</time>
      </trkpt>
      <trkpt lat="47.79923" lon="-2.44666">
        <ele>78.8</ele>
        <time>2025-02-11T14:14:30Z</time>
      </trkpt>
      <trkpt lat="47.79923" lon="-2.44666">
        <ele>78.8</ele>
        <time>2025-02-11T14:14:31Z</time>
      </trkpt>
      <trkpt lat="47.79924" lon="-2.44666">
        <ele>78.8</ele>
        <time>2025-02-11T14:14:32Z</time>
      </trkpt>
      <trkpt lat="47.79924" lon="-2.44666">
        <ele>78.8</ele>
        <time>2025-02-11T14:14:33Z</time>
      </trkpt>
      <trkpt lat="47.79925" lon="-2.44666">
        <ele>78.8</ele>
        <time>2025-02-11T14:14:34Z</time>
      </trkpt>
      <trkpt lat="47.79926" lon="-2.44665">
        <ele>78.8</ele>
        <time>2025-02-11T14:14:35Z</time>
      </trkpt>
      <trkpt lat="47.79926" lon="-2.44665">
        <ele>78.7</ele>
        <time>2025-02-11T14:14:36Z</time>
      </trkpt>
      <trkpt lat="47.79927" lon="-2.44666">
        <ele>78.7</ele>
        <time>2025-02-11T14:14:37Z</time>
      </trkpt>
      <trkpt lat="47.79927" lon="-2.44666">
        <ele>78.6</ele>
        <time>2025-02-11T14:14:38Z</time>
      </trkpt>
      <trkpt lat="47.79927" lon="-2.44667">
        <ele>78.6</ele>
        <time>2025-02-11T14:14:39Z</time>
      </trkpt>
      <trkpt lat="47.79927" lon="-2.44667">
        <ele>78.6</ele>
        <time>2025-02-11T14:14:40Z</time>
      </trkpt>
      <trkpt lat="47.79927" lon="-2.44667">
        <ele>78.6</ele>
        <time>2025-02-11T14:14:41Z</time>
      </trkpt>
      <trkpt lat="47.79928" lon="-2.44665">
        <ele>78.7</ele>
        <time>2025-02-11T14:14:42Z</time>
      </trkpt>
      <trkpt lat="47.79928" lon="-2.44663">
        <ele>78.8</ele>
        <time>2025-02-11T14:14:43Z</time>
      </trkpt>
      <trkpt lat="47.79927" lon="-2.44661">
        <ele>79</ele>
        <time>2025-02-11T14:14:44Z</time>
      </trkpt>
      <trkpt lat="47.79927" lon="-2.44659">
        <ele>79.1</ele>
        <time>2025-02-11T14:14:45Z</time>
      </trkpt>
      <trkpt lat="47.79927" lon="-2.44657">
        <ele>79.2</ele>
        <time>2025-02-11T14:14:46Z</time>
      </trkpt>
      <trkpt lat="47.79926" lon="-2.44656">
        <ele>79.3</ele>
        <time>2025-02-11T14:14:47Z</time>
      </trkpt>
      <trkpt lat="47.79926" lon="-2.44655">
        <ele>79.4</ele>
        <time>2025-02-11T14:14:48Z</time>
      </trkpt>
      <trkpt lat="47.79925" lon="-2.44654">
        <ele>79.5</ele>
        <time>2025-02-11T14:14:49Z</time>
      </trkpt>
      <trkpt lat="47.79925" lon="-2.44653">
        <ele>79.6</ele>
        <time>2025-02-11T14:14:50Z</time>
      </trkpt>
      <trkpt lat="47.79924" lon="-2.44651">
        <ele>79.7</ele>
        <time>2025-02-11T14:14:51Z</time>
      </trkpt>
      <trkpt lat="47.79924" lon="-2.44651">
        <ele>79.8</ele>
        <time>2025-02-11T14:14:52Z</time>
      </trkpt>
      <trkpt lat="47.79923" lon="-2.4465">
        <ele>79.8</ele>
        <time>2025-02-11T14:14:53Z</time>
      </trkpt>
      <trkpt lat="47.79923" lon="-2.44649">
        <ele>79.9</ele>
        <time>2025-02-11T14:14:54Z</time>
      </trkpt>
      <trkpt lat="47.79923" lon="-2.44648">
        <ele>80</ele>
        <time>2025-02-11T14:14:55Z</time>
      </trkpt>
      <trkpt lat="47.79923" lon="-2.44647">
        <ele>80.1</ele>
        <time>2025-02-11T14:14:56Z</time>
      </trkpt>
      <trkpt lat="47.79922" lon="-2.44646">
        <ele>80.1</ele>
        <time>2025-02-11T14:14:57Z</time>
      </trkpt>
      <trkpt lat="47.79922" lon="-2.44645">
        <ele>80.2</ele>
        <time>2025-02-11T14:14:58Z</time>
      </trkpt>
      <trkpt lat="47.79922" lon="-2.44644">
        <ele>80.3</ele>
        <time>2025-02-11T14:14:59Z</time>
      </trkpt>
      <trkpt lat="47.79923" lon="-2.44643">
        <ele>80.3</ele>
        <time>2025-02-11T14:15:00Z</time>
      </trkpt>
      <trkpt lat="47.79922" lon="-2.44642">
        <ele>80.4</ele>
        <time>2025-02-11T14:15:01Z</time>
      </trkpt>
      <trkpt lat="47.79922" lon="-2.44641">
        <ele>80.5</ele>
        <time>2025-02-11T14:15:02Z</time>
      </trkpt>
      <trkpt lat="47.79921" lon="-2.4464">
        <ele>80.6</ele>
        <time>2025-02-11T14:15:03Z</time>
      </trkpt>
      <trkpt lat="47.79921" lon="-2.44639">
        <ele>80.7</ele>
        <time>2025-02-11T14:15:04Z</time>
      </trkpt>
      <trkpt lat="47.79921" lon="-2.44637">
        <ele>80.8</ele>
        <time>2025-02-11T14:15:05Z</time>
      </trkpt>
      <trkpt lat="47.79922" lon="-2.44636">
        <ele>80.8</ele>
        <time>2025-02-11T14:15:06Z</time>
      </trkpt>
      <trkpt lat="47.79923" lon="-2.44635">
        <ele>80.8</ele>
        <time>2025-02-11T14:15:07Z</time>
      </trkpt>
      <trkpt lat="47.79923" lon="-2.44635">
        <ele>80.8</ele>
        <time>2025-02-11T14:15:08Z</time>
      </trkpt>
      <trkpt lat="47.79924" lon="-2.44634">
        <ele>80.8</ele>
        <time>2025-02-11T14:15:09Z</time>
      </trkpt>
      <trkpt lat="47.79924" lon="-2.44634">
        <ele>80.8</ele>
        <time>2025-02-11T14:15:10Z</time>
      </trkpt>
      <trkpt lat="47.79924" lon="-2.44632">
        <ele>81</ele>
        <time>2025-02-11T14:15:11Z</time>
      </trkpt>
      <trkpt lat="47.79924" lon="-2.44631">
        <ele>81</ele>
        <time>2025-02-11T14:15:12Z</time>
      </trkpt>
      <trkpt lat="47.79924" lon="-2.4463">
        <ele>81.1</ele>
        <time>2025-02-11T14:15:13Z</time>
      </trkpt>
      <trkpt lat="47.79924" lon="-2.44629">
        <ele>81.2</ele>
        <time>2025-02-11T14:15:14Z</time>
      </trkpt>
      <trkpt lat="47.79924" lon="-2.44628">
        <ele>81.3</ele>
        <time>2025-02-11T14:15:15Z</time>
      </trkpt>
      <trkpt lat="47.79923" lon="-2.44627">
        <ele>81.4</ele>
        <time>2025-02-11T14:15:16Z</time>
      </trkpt>
      <trkpt lat="47.79923" lon="-2.44626">
        <ele>81.4</ele>
        <time>2025-02-11T14:15:17Z</time>
      </trkpt>
      <trkpt lat="47.79923" lon="-2.44625">
        <ele>81.5</ele>
        <time>2025-02-11T14:15:18Z</time>
      </trkpt>
      <trkpt lat="47.79923" lon="-2.44623">
        <ele>81.7</ele>
        <time>2025-02-11T14:15:19Z</time>
      </trkpt>
      <trkpt lat="47.79923" lon="-2.44621">
        <ele>81.8</ele>
        <time>2025-02-11T14:15:20Z</time>
      </trkpt>
      <trkpt lat="47.79923" lon="-2.4462">
        <ele>81.9</ele>
        <time>2025-02-11T14:15:21Z</time>
      </trkpt>
      <trkpt lat="47.79922" lon="-2.44618">
        <ele>82.1</ele>
        <time>2025-02-11T14:15:22Z</time>
      </trkpt>
      <trkpt lat="47.79922" lon="-2.44617">
        <ele>82.2</ele>
        <time>2025-02-11T14:15:23Z</time>
      </trkpt>
      <trkpt lat="47.79922" lon="-2.44615">
        <ele>82.3</ele>
        <time>2025-02-11T14:15:24Z</time>
      </trkpt>
      <trkpt lat="47.79922" lon="-2.44614">
        <ele>82.5</ele>
        <time>2025-02-11T14:15:25Z</time>
      </trkpt>
      <trkpt lat="47.79922" lon="-2.44612">
        <ele>82.5</ele>
        <time>2025-02-11T14:15:26Z</time>
      </trkpt>
      <trkpt lat="47.79922" lon="-2.44611">
        <ele>82.6</ele>
        <time>2025-02-11T14:15:27Z</time>
      </trkpt>
      <trkpt lat="47.79922" lon="-2.4461">
        <ele>82.7</ele>
        <time>2025-02-11T14:15:28Z</time>
      </trkpt>
      <trkpt lat="47.79922" lon="-2.44607">
        <ele>82.7</ele>
        <time>2025-02-11T14:15:29Z</time>
      </trkpt>
      <trkpt lat="47.79922" lon="-2.44606">
        <ele>82.8</ele>
        <time>2025-02-11T14:15:30Z</time>
      </trkpt>
      <trkpt lat="47.79922" lon="-2.44605">
        <ele>82.8</ele>
        <time>2025-02-11T14:15:31Z</time>
      </trkpt>
      <trkpt lat="47.79922" lon="-2.44603">
        <ele>82.9</ele>
        <time>2025-02-11T14:15:32Z</time>
      </trkpt>
      <trkpt lat="47.79922" lon="-2.44602">
        <ele>83</ele>
        <time>2025-02-11T14:15:33Z</time>
      </trkpt>
      <trkpt lat="47.79922" lon="-2.446">
        <ele>83</ele>
        <time>2025-02-11T14:15:34Z</time>
      </trkpt>
      <trkpt lat="47.79922" lon="-2.44599">
        <ele>83.1</ele>
        <time>2025-02-11T14:15:35Z</time>
      </trkpt>
      <trkpt lat="47.79922" lon="-2.44597">
        <ele>83.1</ele>
        <time>2025-02-11T14:15:36Z</time>
      </trkpt>
      <trkpt lat="47.79923" lon="-2.44597">
        <ele>83.1</ele>
        <time>2025-02-11T14:15:37Z</time>
      </trkpt>
      <trkpt lat="47.79923" lon="-2.44595">
        <ele>83.1</ele>
        <time>2025-02-11T14:15:38Z</time>
      </trkpt>
      <trkpt lat="47.79922" lon="-2.44594">
        <ele>83.2</ele>
        <time>2025-02-11T14:15:39Z</time>
      </trkpt>
      <trkpt lat="47.79922" lon="-2.44592">
        <ele>83.3</ele>
        <time>2025-02-11T14:15:40Z</time>
      </trkpt>
      <trkpt lat="47.79922" lon="-2.4459">
        <ele>83.3</ele>
        <time>2025-02-11T14:15:41Z</time>
      </trkpt>
      <trkpt lat="47.79922" lon="-2.44589">
        <ele>83.4</ele>
        <time>2025-02-11T14:15:42Z</time>
      </trkpt>
      <trkpt lat="47.79922" lon="-2.44587">
        <ele>83.5</ele>
        <time>2025-02-11T14:15:43Z</time>
      </trkpt>
      <trkpt lat="47.79922" lon="-2.44586">
        <ele>83.5</ele>
        <time>2025-02-11T14:15:44Z</time>
      </trkpt>
      <trkpt lat="47.79922" lon="-2.44584">
        <ele>83.6</ele>
        <time>2025-02-11T14:15:45Z</time>
      </trkpt>
      <trkpt lat="47.79921" lon="-2.44583">
        <ele>83.7</ele>
        <time>2025-02-11T14:15:46Z</time>
      </trkpt>
      <trkpt lat="47.79921" lon="-2.44581">
        <ele>83.7</ele>
        <time>2025-02-11T14:15:47Z</time>
      </trkpt>
      <trkpt lat="47.79921" lon="-2.4458">
        <ele>83.7</ele>
        <time>2025-02-11T14:15:48Z</time>
      </trkpt>
      <trkpt lat="47.79921" lon="-2.44578">
        <ele>83.7</ele>
        <time>2025-02-11T14:15:49Z</time>
      </trkpt>
      <trkpt lat="47.79921" lon="-2.44576">
        <ele>83.8</ele>
        <time>2025-02-11T14:15:50Z</time>
      </trkpt>
      <trkpt lat="47.79921" lon="-2.44575">
        <ele>83.8</ele>
        <time>2025-02-11T14:15:51Z</time>
      </trkpt>
      <trkpt lat="47.7992" lon="-2.44573">
        <ele>83.8</ele>
        <time>2025-02-11T14:15:52Z</time>
      </trkpt>
      <trkpt lat="47.7992" lon="-2.44571">
        <ele>83.8</ele>
        <time>2025-02-11T14:15:53Z</time>
      </trkpt>
      <trkpt lat="47.7992" lon="-2.44569">
        <ele>83.8</ele>
        <time>2025-02-11T14:15:54Z</time>
      </trkpt>
      <trkpt lat="47.7992" lon="-2.44568">
        <ele>83.8</ele>
        <time>2025-02-11T14:15:55Z</time>
      </trkpt>
      <trkpt lat="47.7992" lon="-2.44566">
        <ele>83.9</ele>
        <time>2025-02-11T14:15:56Z</time>
      </trkpt>
      <trkpt lat="47.7992" lon="-2.44564">
        <ele>83.9</ele>
        <time>2025-02-11T14:15:57Z</time>
      </trkpt>
      <trkpt lat="47.79919" lon="-2.44563">
        <ele>83.9</ele>
        <time>2025-02-11T14:15:58Z</time>
      </trkpt>
      <trkpt lat="47.7992" lon="-2.44561">
        <ele>83.9</ele>
        <time>2025-02-11T14:15:59Z</time>
      </trkpt>
      <trkpt lat="47.79919" lon="-2.4456">
        <ele>83.9</ele>
        <time>2025-02-11T14:16:00Z</time>
      </trkpt>
      <trkpt lat="47.79919" lon="-2.44558">
        <ele>83.9</ele>
        <time>2025-02-11T14:16:01Z</time>
      </trkpt>
      <trkpt lat="47.79919" lon="-2.44556">
        <ele>83.9</ele>
        <time>2025-02-11T14:16:02Z</time>
      </trkpt>
      <trkpt lat="47.79919" lon="-2.44555">
        <ele>84</ele>
        <time>2025-02-11T14:16:03Z</time>
      </trkpt>
      <trkpt lat="47.79919" lon="-2.44553">
        <ele>84</ele>
        <time>2025-02-11T14:16:04Z</time>
      </trkpt>
      <trkpt lat="47.79918" lon="-2.44551">
        <ele>84.1</ele>
        <time>2025-02-11T14:16:05Z</time>
      </trkpt>
      <trkpt lat="47.79918" lon="-2.4455">
        <ele>84.2</ele>
        <time>2025-02-11T14:16:06Z</time>
      </trkpt>
      <trkpt lat="47.79918" lon="-2.44548">
        <ele>84.2</ele>
        <time>2025-02-11T14:16:07Z</time>
      </trkpt>
      <trkpt lat="47.79918" lon="-2.44547">
        <ele>84.3</ele>
        <time>2025-02-11T14:16:08Z</time>
      </trkpt>
      <trkpt lat="47.79918" lon="-2.44545">
        <ele>84.3</ele>
        <time>2025-02-11T14:16:09Z</time>
      </trkpt>
      <trkpt lat="47.79918" lon="-2.44543">
        <ele>84.4</ele>
        <time>2025-02-11T14:16:10Z</time>
      </trkpt>
      <trkpt lat="47.79917" lon="-2.44542">
        <ele>84.5</ele>
        <time>2025-02-11T14:16:11Z</time>
      </trkpt>
      <trkpt lat="47.79917" lon="-2.4454">
        <ele>84.5</ele>
        <time>2025-02-11T14:16:12Z</time>
      </trkpt>
      <trkpt lat="47.79917" lon="-2.44539">
        <ele>84.6</ele>
        <time>2025-02-11T14:16:13Z</time>
      </trkpt>
      <trkpt lat="47.79916" lon="-2.44537">
        <ele>84.7</ele>
        <time>2025-02-11T14:16:14Z</time>
      </trkpt>
      <trkpt lat="47.79917" lon="-2.44535">
        <ele>84.7</ele>
        <time>2025-02-11T14:16:15Z</time>
      </trkpt>
      <trkpt lat="47.79916" lon="-2.44534">
        <ele>84.8</ele>
        <time>2025-02-11T14:16:16Z</time>
      </trkpt>
      <trkpt lat="47.79916" lon="-2.44532">
        <ele>84.8</ele>
        <time>2025-02-11T14:16:17Z</time>
      </trkpt>
      <trkpt lat="47.79916" lon="-2.44531">
        <ele>84.9</ele>
        <time>2025-02-11T14:16:18Z</time>
      </trkpt>
      <trkpt lat="47.79916" lon="-2.44529">
        <ele>85</ele>
        <time>2025-02-11T14:16:19Z</time>
      </trkpt>
      <trkpt lat="47.79915" lon="-2.44527">
        <ele>85</ele>
        <time>2025-02-11T14:16:20Z</time>
      </trkpt>
      <trkpt lat="47.79915" lon="-2.44526">
        <ele>85</ele>
        <time>2025-02-11T14:16:21Z</time>
      </trkpt>
      <trkpt lat="47.79915" lon="-2.44524">
        <ele>85</ele>
        <time>2025-02-11T14:16:22Z</time>
      </trkpt>
      <trkpt lat="47.79915" lon="-2.44523">
        <ele>85</ele>
        <time>2025-02-11T14:16:23Z</time>
      </trkpt>
      <trkpt lat="47.79916" lon="-2.44521">
        <ele>85</ele>
        <time>2025-02-11T14:16:24Z</time>
      </trkpt>
      <trkpt lat="47.79915" lon="-2.4452">
        <ele>85</ele>
        <time>2025-02-11T14:16:25Z</time>
      </trkpt>
      <trkpt lat="47.79915" lon="-2.44518">
        <ele>85</ele>
        <time>2025-02-11T14:16:26Z</time>
      </trkpt>
      <trkpt lat="47.79915" lon="-2.44517">
        <ele>85</ele>
        <time>2025-02-11T14:16:27Z</time>
      </trkpt>
      <trkpt lat="47.79915" lon="-2.44515">
        <ele>85</ele>
        <time>2025-02-11T14:16:28Z</time>
      </trkpt>
      <trkpt lat="47.79915" lon="-2.44513">
        <ele>85</ele>
        <time>2025-02-11T14:16:29Z</time>
      </trkpt>
      <trkpt lat="47.79915" lon="-2.44512">
        <ele>85</ele>
        <time>2025-02-11T14:16:30Z</time>
      </trkpt>
      <trkpt lat="47.79915" lon="-2.4451">
        <ele>85</ele>
        <time>2025-02-11T14:16:31Z</time>
      </trkpt>
      <trkpt lat="47.79914" lon="-2.44509">
        <ele>85</ele>
        <time>2025-02-11T14:16:32Z</time>
      </trkpt>
      <trkpt lat="47.79914" lon="-2.44507">
        <ele>85</ele>
        <time>2025-02-11T14:16:33Z</time>
      </trkpt>
      <trkpt lat="47.79914" lon="-2.44506">
        <ele>85</ele>
        <time>2025-02-11T14:16:34Z</time>
      </trkpt>
      <trkpt lat="47.79913" lon="-2.44504">
        <ele>85</ele>
        <time>2025-02-11T14:16:35Z</time>
      </trkpt>
      <trkpt lat="47.79913" lon="-2.44502">
        <ele>85</ele>
        <time>2025-02-11T14:16:36Z</time>
      </trkpt>
      <trkpt lat="47.79913" lon="-2.44501">
        <ele>85</ele>
        <time>2025-02-11T14:16:37Z</time>
      </trkpt>
      <trkpt lat="47.79913" lon="-2.44499">
        <ele>85</ele>
        <time>2025-02-11T14:16:38Z</time>
      </trkpt>
      <trkpt lat="47.79912" lon="-2.44498">
        <ele>85.1</ele>
        <time>2025-02-11T14:16:39Z</time>
      </trkpt>
      <trkpt lat="47.79912" lon="-2.44496">
        <ele>85.1</ele>
        <time>2025-02-11T14:16:40Z</time>
      </trkpt>
      <trkpt lat="47.79912" lon="-2.44494">
        <ele>85.2</ele>
        <time>2025-02-11T14:16:41Z</time>
      </trkpt>
      <trkpt lat="47.79911" lon="-2.44493">
        <ele>85.3</ele>
        <time>2025-02-11T14:16:42Z</time>
      </trkpt>
      <trkpt lat="47.79911" lon="-2.44491">
        <ele>85.3</ele>
        <time>2025-02-11T14:16:43Z</time>
      </trkpt>
      <trkpt lat="47.79911" lon="-2.4449">
        <ele>85.4</ele>
        <time>2025-02-11T14:16:44Z</time>
      </trkpt>
      <trkpt lat="47.79911" lon="-2.44488">
        <ele>85.4</ele>
        <time>2025-02-11T14:16:45Z</time>
      </trkpt>
      <trkpt lat="47.79911" lon="-2.44486">
        <ele>85.5</ele>
        <time>2025-02-11T14:16:46Z</time>
      </trkpt>
      <trkpt lat="47.7991" lon="-2.44484">
        <ele>85.6</ele>
        <time>2025-02-11T14:16:47Z</time>
      </trkpt>
      <trkpt lat="47.7991" lon="-2.44483">
        <ele>85.6</ele>
        <time>2025-02-11T14:16:48Z</time>
      </trkpt>
      <trkpt lat="47.7991" lon="-2.44481">
        <ele>85.7</ele>
        <time>2025-02-11T14:16:49Z</time>
      </trkpt>
      <trkpt lat="47.7991" lon="-2.4448">
        <ele>85.7</ele>
        <time>2025-02-11T14:16:50Z</time>
      </trkpt>
      <trkpt lat="47.7991" lon="-2.44478">
        <ele>85.8</ele>
        <time>2025-02-11T14:16:51Z</time>
      </trkpt>
      <trkpt lat="47.7991" lon="-2.44477">
        <ele>85.8</ele>
        <time>2025-02-11T14:16:52Z</time>
      </trkpt>
      <trkpt lat="47.79909" lon="-2.44475">
        <ele>85.9</ele>
        <time>2025-02-11T14:16:53Z</time>
      </trkpt>
      <trkpt lat="47.79909" lon="-2.44474">
        <ele>85.9</ele>
        <time>2025-02-11T14:16:54Z</time>
      </trkpt>
      <trkpt lat="47.79909" lon="-2.44473">
        <ele>86</ele>
        <time>2025-02-11T14:16:55Z</time>
      </trkpt>
      <trkpt lat="47.79908" lon="-2.44471">
        <ele>86</ele>
        <time>2025-02-11T14:16:56Z</time>
      </trkpt>
      <trkpt lat="47.79908" lon="-2.4447">
        <ele>86</ele>
        <time>2025-02-11T14:16:57Z</time>
      </trkpt>
      <trkpt lat="47.79907" lon="-2.44469">
        <ele>86</ele>
        <time>2025-02-11T14:16:58Z</time>
      </trkpt>
      <trkpt lat="47.79907" lon="-2.44468">
        <ele>86</ele>
        <time>2025-02-11T14:16:59Z</time>
      </trkpt>
      <trkpt lat="47.79907" lon="-2.44466">
        <ele>86</ele>
        <time>2025-02-11T14:17:00Z</time>
      </trkpt>
      <trkpt lat="47.79907" lon="-2.44464">
        <ele>86</ele>
        <time>2025-02-11T14:17:01Z</time>
      </trkpt>
      <trkpt lat="47.79907" lon="-2.44463">
        <ele>86</ele>
        <time>2025-02-11T14:17:02Z</time>
      </trkpt>
      <trkpt lat="47.79907" lon="-2.44461">
        <ele>86</ele>
        <time>2025-02-11T14:17:03Z</time>
      </trkpt>
      <trkpt lat="47.79907" lon="-2.4446">
        <ele>86</ele>
        <time>2025-02-11T14:17:04Z</time>
      </trkpt>
      <trkpt lat="47.79907" lon="-2.44459">
        <ele>86</ele>
        <time>2025-02-11T14:17:05Z</time>
      </trkpt>
      <trkpt lat="47.79906" lon="-2.44457">
        <ele>86</ele>
        <time>2025-02-11T14:17:06Z</time>
      </trkpt>
      <trkpt lat="47.79906" lon="-2.44456">
        <ele>86</ele>
        <time>2025-02-11T14:17:07Z</time>
      </trkpt>
      <trkpt lat="47.79906" lon="-2.44454">
        <ele>86</ele>
        <time>2025-02-11T14:17:08Z</time>
      </trkpt>
      <trkpt lat="47.79906" lon="-2.44453">
        <ele>86</ele>
        <time>2025-02-11T14:17:09Z</time>
      </trkpt>
      <trkpt lat="47.79906" lon="-2.44451">
        <ele>86</ele>
        <time>2025-02-11T14:17:10Z</time>
      </trkpt>
      <trkpt lat="47.79905" lon="-2.4445">
        <ele>86</ele>
        <time>2025-02-11T14:17:11Z</time>
      </trkpt>
      <trkpt lat="47.79904" lon="-2.44449">
        <ele>86</ele>
        <time>2025-02-11T14:17:12Z</time>
      </trkpt>
      <trkpt lat="47.79904" lon="-2.44447">
        <ele>86</ele>
        <time>2025-02-11T14:17:13Z</time>
      </trkpt>
      <trkpt lat="47.79904" lon="-2.44446">
        <ele>86</ele>
        <time>2025-02-11T14:17:14Z</time>
      </trkpt>
      <trkpt lat="47.79904" lon="-2.44444">
        <ele>86</ele>
        <time>2025-02-11T14:17:15Z</time>
      </trkpt>
      <trkpt lat="47.79903" lon="-2.44442">
        <ele>86</ele>
        <time>2025-02-11T14:17:16Z</time>
      </trkpt>
      <trkpt lat="47.79903" lon="-2.4444">
        <ele>86</ele>
        <time>2025-02-11T14:17:17Z</time>
      </trkpt>
      <trkpt lat="47.79903" lon="-2.44438">
        <ele>86</ele>
        <time>2025-02-11T14:17:18Z</time>
      </trkpt>
      <trkpt lat="47.79902" lon="-2.44436">
        <ele>86</ele>
        <time>2025-02-11T14:17:19Z</time>
      </trkpt>
      <trkpt lat="47.79902" lon="-2.44434">
        <ele>86</ele>
        <time>2025-02-11T14:17:20Z</time>
      </trkpt>
      <trkpt lat="47.79901" lon="-2.44433">
        <ele>86</ele>
        <time>2025-02-11T14:17:21Z</time>
      </trkpt>
      <trkpt lat="47.79901" lon="-2.44432">
        <ele>86</ele>
        <time>2025-02-11T14:17:22Z</time>
      </trkpt>
      <trkpt lat="47.79901" lon="-2.44431">
        <ele>86</ele>
        <time>2025-02-11T14:17:23Z</time>
      </trkpt>
      <trkpt lat="47.79901" lon="-2.4443">
        <ele>86</ele>
        <time>2025-02-11T14:17:24Z</time>
      </trkpt>
      <trkpt lat="47.799" lon="-2.44429">
        <ele>86</ele>
        <time>2025-02-11T14:17:25Z</time>
      </trkpt>
      <trkpt lat="47.79899" lon="-2.44428">
        <ele>86</ele>
        <time>2025-02-11T14:17:26Z</time>
      </trkpt>
      <trkpt lat="47.79898" lon="-2.44428">
        <ele>86</ele>
        <time>2025-02-11T14:17:27Z</time>
      </trkpt>
      <trkpt lat="47.79897" lon="-2.44427">
        <ele>86</ele>
        <time>2025-02-11T14:17:28Z</time>
      </trkpt>
      <trkpt lat="47.79897" lon="-2.44427">
        <ele>86</ele>
        <time>2025-02-11T14:17:29Z</time>
      </trkpt>
      <trkpt lat="47.79897" lon="-2.44427">
        <ele>86</ele>
        <time>2025-02-11T14:17:30Z</time>
      </trkpt>
      <trkpt lat="47.79897" lon="-2.44427">
        <ele>86</ele>
        <time>2025-02-11T14:17:31Z</time>
      </trkpt>
      <trkpt lat="47.79897" lon="-2.44427">
        <ele>86</ele>
        <time>2025-02-11T14:17:32Z</time>
      </trkpt>
      <trkpt lat="47.79897" lon="-2.44427">
        <ele>86</ele>
        <time>2025-02-11T14:17:33Z</time>
      </trkpt>
      <trkpt lat="47.79898" lon="-2.44427">
        <ele>86</ele>
        <time>2025-02-11T14:17:34Z</time>
      </trkpt>
      <trkpt lat="47.79898" lon="-2.44425">
        <ele>86</ele>
        <time>2025-02-11T14:17:35Z</time>
      </trkpt>
      <trkpt lat="47.79898" lon="-2.44424">
        <ele>86</ele>
        <time>2025-02-11T14:17:36Z</time>
      </trkpt>
      <trkpt lat="47.79897" lon="-2.44424">
        <ele>86</ele>
        <time>2025-02-11T14:17:37Z</time>
      </trkpt>
      <trkpt lat="47.79896" lon="-2.44425">
        <ele>86</ele>
        <time>2025-02-11T14:17:38Z</time>
      </trkpt>
      <trkpt lat="47.79895" lon="-2.44426">
        <ele>86</ele>
        <time>2025-02-11T14:17:39Z</time>
      </trkpt>
      <trkpt lat="47.79894" lon="-2.44427">
        <ele>86</ele>
        <time>2025-02-11T14:17:40Z</time>
      </trkpt>
      <trkpt lat="47.79893" lon="-2.44428">
        <ele>86</ele>
        <time>2025-02-11T14:17:41Z</time>
      </trkpt>
      <trkpt lat="47.79892" lon="-2.44429">
        <ele>86</ele>
        <time>2025-02-11T14:17:42Z</time>
      </trkpt>
      <trkpt lat="47.79891" lon="-2.4443">
        <ele>86</ele>
        <time>2025-02-11T14:17:43Z</time>
      </trkpt>
      <trkpt lat="47.7989" lon="-2.4443">
        <ele>86</ele>
        <time>2025-02-11T14:17:44Z</time>
      </trkpt>
      <trkpt lat="47.79889" lon="-2.4443">
        <ele>86</ele>
        <time>2025-02-11T14:17:45Z</time>
      </trkpt>
      <trkpt lat="47.79888" lon="-2.4443">
        <ele>86</ele>
        <time>2025-02-11T14:17:46Z</time>
      </trkpt>
      <trkpt lat="47.79887" lon="-2.44431">
        <ele>85.9</ele>
        <time>2025-02-11T14:17:47Z</time>
      </trkpt>
      <trkpt lat="47.79886" lon="-2.44431">
        <ele>85.9</ele>
        <time>2025-02-11T14:17:48Z</time>
      </trkpt>
      <trkpt lat="47.79885" lon="-2.44431">
        <ele>85.8</ele>
        <time>2025-02-11T14:17:49Z</time>
      </trkpt>
      <trkpt lat="47.79884" lon="-2.44432">
        <ele>85.8</ele>
        <time>2025-02-11T14:17:50Z</time>
      </trkpt>
      <trkpt lat="47.79883" lon="-2.44432">
        <ele>85.8</ele>
        <time>2025-02-11T14:17:51Z</time>
      </trkpt>
      <trkpt lat="47.79882" lon="-2.44432">
        <ele>85.7</ele>
        <time>2025-02-11T14:17:52Z</time>
      </trkpt>
      <trkpt lat="47.79881" lon="-2.44433">
        <ele>85.7</ele>
        <time>2025-02-11T14:17:53Z</time>
      </trkpt>
      <trkpt lat="47.79879" lon="-2.44433">
        <ele>85.7</ele>
        <time>2025-02-11T14:17:54Z</time>
      </trkpt>
      <trkpt lat="47.79878" lon="-2.44433">
        <ele>85.6</ele>
        <time>2025-02-11T14:17:55Z</time>
      </trkpt>
      <trkpt lat="47.79877" lon="-2.44433">
        <ele>85.6</ele>
        <time>2025-02-11T14:17:56Z</time>
      </trkpt>
      <trkpt lat="47.79876" lon="-2.44434">
        <ele>85.5</ele>
        <time>2025-02-11T14:17:57Z</time>
      </trkpt>
      <trkpt lat="47.79875" lon="-2.44435">
        <ele>85.5</ele>
        <time>2025-02-11T14:17:58Z</time>
      </trkpt>
      <trkpt lat="47.79874" lon="-2.44435">
        <ele>85.5</ele>
        <time>2025-02-11T14:17:59Z</time>
      </trkpt>
      <trkpt lat="47.79872" lon="-2.44435">
        <ele>85.4</ele>
        <time>2025-02-11T14:18:00Z</time>
      </trkpt>
      <trkpt lat="47.79871" lon="-2.44435">
        <ele>85.4</ele>
        <time>2025-02-11T14:18:01Z</time>
      </trkpt>
      <trkpt lat="47.7987" lon="-2.44436">
        <ele>85.3</ele>
        <time>2025-02-11T14:18:02Z</time>
      </trkpt>
      <trkpt lat="47.79869" lon="-2.44436">
        <ele>85.3</ele>
        <time>2025-02-11T14:18:03Z</time>
      </trkpt>
      <trkpt lat="47.79867" lon="-2.44437">
        <ele>85.2</ele>
        <time>2025-02-11T14:18:04Z</time>
      </trkpt>
      <trkpt lat="47.79866" lon="-2.44437">
        <ele>85.2</ele>
        <time>2025-02-11T14:18:05Z</time>
      </trkpt>
      <trkpt lat="47.79865" lon="-2.44438">
        <ele>85.1</ele>
        <time>2025-02-11T14:18:06Z</time>
      </trkpt>
      <trkpt lat="47.79864" lon="-2.44438">
        <ele>85.1</ele>
        <time>2025-02-11T14:18:07Z</time>
      </trkpt>
      <trkpt lat="47.79862" lon="-2.44438">
        <ele>85</ele>
        <time>2025-02-11T14:18:08Z</time>
      </trkpt>
      <trkpt lat="47.79861" lon="-2.44438">
        <ele>85</ele>
        <time>2025-02-11T14:18:09Z</time>
      </trkpt>
      <trkpt lat="47.7986" lon="-2.44438">
        <ele>84.9</ele>
        <time>2025-02-11T14:18:10Z</time>
      </trkpt>
      <trkpt lat="47.79859" lon="-2.44438">
        <ele>84.9</ele>
        <time>2025-02-11T14:18:11Z</time>
      </trkpt>
      <trkpt lat="47.79857" lon="-2.44439">
        <ele>84.9</ele>
        <time>2025-02-11T14:18:12Z</time>
      </trkpt>
      <trkpt lat="47.79856" lon="-2.44439">
        <ele>84.8</ele>
        <time>2025-02-11T14:18:13Z</time>
      </trkpt>
      <trkpt lat="47.79855" lon="-2.4444">
        <ele>84.8</ele>
        <time>2025-02-11T14:18:14Z</time>
      </trkpt>
      <trkpt lat="47.79854" lon="-2.4444">
        <ele>84.8</ele>
        <time>2025-02-11T14:18:15Z</time>
      </trkpt>
      <trkpt lat="47.79853" lon="-2.4444">
        <ele>84.7</ele>
        <time>2025-02-11T14:18:16Z</time>
      </trkpt>
      <trkpt lat="47.79852" lon="-2.4444">
        <ele>84.7</ele>
        <time>2025-02-11T14:18:17Z</time>
      </trkpt>
      <trkpt lat="47.79851" lon="-2.44441">
        <ele>84.6</ele>
        <time>2025-02-11T14:18:18Z</time>
      </trkpt>
      <trkpt lat="47.79849" lon="-2.44441">
        <ele>84.6</ele>
        <time>2025-02-11T14:18:19Z</time>
      </trkpt>
      <trkpt lat="47.79848" lon="-2.44441">
        <ele>84.5</ele>
        <time>2025-02-11T14:18:20Z</time>
      </trkpt>
      <trkpt lat="47.79847" lon="-2.44442">
        <ele>84.5</ele>
        <time>2025-02-11T14:18:21Z</time>
      </trkpt>
      <trkpt lat="47.79846" lon="-2.44443">
        <ele>84.5</ele>
        <time>2025-02-11T14:18:22Z</time>
      </trkpt>
      <trkpt lat="47.79845" lon="-2.44444">
        <ele>84.4</ele>
        <time>2025-02-11T14:18:23Z</time>
      </trkpt>
      <trkpt lat="47.79844" lon="-2.44444">
        <ele>84.4</ele>
        <time>2025-02-11T14:18:24Z</time>
      </trkpt>
      <trkpt lat="47.79843" lon="-2.44444">
        <ele>84.3</ele>
        <time>2025-02-11T14:18:25Z</time>
      </trkpt>
      <trkpt lat="47.79842" lon="-2.44445">
        <ele>84.3</ele>
        <time>2025-02-11T14:18:26Z</time>
      </trkpt>
      <trkpt lat="47.79841" lon="-2.44445">
        <ele>84.3</ele>
        <time>2025-02-11T14:18:27Z</time>
      </trkpt>
      <trkpt lat="47.7984" lon="-2.44445">
        <ele>84.2</ele>
        <time>2025-02-11T14:18:28Z</time>
      </trkpt>
      <trkpt lat="47.79838" lon="-2.44445">
        <ele>84.2</ele>
        <time>2025-02-11T14:18:29Z</time>
      </trkpt>
      <trkpt lat="47.79837" lon="-2.44445">
        <ele>84.1</ele>
        <time>2025-02-11T14:18:30Z</time>
      </trkpt>
      <trkpt lat="47.79836" lon="-2.44445">
        <ele>84.1</ele>
        <time>2025-02-11T14:18:31Z</time>
      </trkpt>
      <trkpt lat="47.79835" lon="-2.44445">
        <ele>84.1</ele>
        <time>2025-02-11T14:18:32Z</time>
      </trkpt>
      <trkpt lat="47.79834" lon="-2.44445">
        <ele>84</ele>
        <time>2025-02-11T14:18:33Z</time>
      </trkpt>
      <trkpt lat="47.79833" lon="-2.44445">
        <ele>84</ele>
        <time>2025-02-11T14:18:34Z</time>
      </trkpt>
      <trkpt lat="47.79832" lon="-2.44445">
        <ele>83.9</ele>
        <time>2025-02-11T14:18:35Z</time>
      </trkpt>
      <trkpt lat="47.79831" lon="-2.44446">
        <ele>83.8</ele>
        <time>2025-02-11T14:18:36Z</time>
      </trkpt>
      <trkpt lat="47.79829" lon="-2.44446">
        <ele>83.7</ele>
        <time>2025-02-11T14:18:37Z</time>
      </trkpt>
      <trkpt lat="47.79828" lon="-2.44446">
        <ele>83.6</ele>
        <time>2025-02-11T14:18:38Z</time>
      </trkpt>
      <trkpt lat="47.79827" lon="-2.44447">
        <ele>83.5</ele>
        <time>2025-02-11T14:18:39Z</time>
      </trkpt>
      <trkpt lat="47.79826" lon="-2.44447">
        <ele>83.5</ele>
        <time>2025-02-11T14:18:40Z</time>
      </trkpt>
      <trkpt lat="47.79825" lon="-2.44448">
        <ele>83.4</ele>
        <time>2025-02-11T14:18:41Z</time>
      </trkpt>
      <trkpt lat="47.79823" lon="-2.44448">
        <ele>83.3</ele>
        <time>2025-02-11T14:18:42Z</time>
      </trkpt>
      <trkpt lat="47.79822" lon="-2.44448">
        <ele>83.2</ele>
        <time>2025-02-11T14:18:43Z</time>
      </trkpt>
      <trkpt lat="47.79821" lon="-2.44449">
        <ele>83.1</ele>
        <time>2025-02-11T14:18:44Z</time>
      </trkpt>
      <trkpt lat="47.7982" lon="-2.4445">
        <ele>83</ele>
        <time>2025-02-11T14:18:45Z</time>
      </trkpt>
      <trkpt lat="47.79819" lon="-2.44451">
        <ele>83</ele>
        <time>2025-02-11T14:18:46Z</time>
      </trkpt>
      <trkpt lat="47.79818" lon="-2.44451">
        <ele>82.9</ele>
        <time>2025-02-11T14:18:47Z</time>
      </trkpt>
      <trkpt lat="47.79817" lon="-2.44451">
        <ele>82.8</ele>
        <time>2025-02-11T14:18:48Z</time>
      </trkpt>
      <trkpt lat="47.79816" lon="-2.44452">
        <ele>82.7</ele>
        <time>2025-02-11T14:18:49Z</time>
      </trkpt>
      <trkpt lat="47.79814" lon="-2.44452">
        <ele>82.6</ele>
        <time>2025-02-11T14:18:50Z</time>
      </trkpt>
      <trkpt lat="47.79813" lon="-2.44453">
        <ele>82.6</ele>
        <time>2025-02-11T14:18:51Z</time>
      </trkpt>
      <trkpt lat="47.79812" lon="-2.44453">
        <ele>82.5</ele>
        <time>2025-02-11T14:18:52Z</time>
      </trkpt>
      <trkpt lat="47.79811" lon="-2.44453">
        <ele>82.4</ele>
        <time>2025-02-11T14:18:53Z</time>
      </trkpt>
      <trkpt lat="47.7981" lon="-2.44453">
        <ele>82.3</ele>
        <time>2025-02-11T14:18:54Z</time>
      </trkpt>
      <trkpt lat="47.79809" lon="-2.44453">
        <ele>82.2</ele>
        <time>2025-02-11T14:18:55Z</time>
      </trkpt>
      <trkpt lat="47.79808" lon="-2.44454">
        <ele>82.1</ele>
        <time>2025-02-11T14:18:56Z</time>
      </trkpt>
      <trkpt lat="47.79806" lon="-2.44454">
        <ele>82.1</ele>
        <time>2025-02-11T14:18:57Z</time>
      </trkpt>
      <trkpt lat="47.79805" lon="-2.44455">
        <ele>82</ele>
        <time>2025-02-11T14:18:58Z</time>
      </trkpt>
      <trkpt lat="47.79804" lon="-2.44455">
        <ele>81.9</ele>
        <time>2025-02-11T14:18:59Z</time>
      </trkpt>
      <trkpt lat="47.79803" lon="-2.44455">
        <ele>81.8</ele>
        <time>2025-02-11T14:19:00Z</time>
      </trkpt>
      <trkpt lat="47.79802" lon="-2.44455">
        <ele>81.7</ele>
        <time>2025-02-11T14:19:01Z</time>
      </trkpt>
      <trkpt lat="47.79801" lon="-2.44456">
        <ele>81.7</ele>
        <time>2025-02-11T14:19:02Z</time>
      </trkpt>
      <trkpt lat="47.798" lon="-2.44456">
        <ele>81.6</ele>
        <time>2025-02-11T14:19:03Z</time>
      </trkpt>
      <trkpt lat="47.79799" lon="-2.44457">
        <ele>81.5</ele>
        <time>2025-02-11T14:19:04Z</time>
      </trkpt>
      <trkpt lat="47.79797" lon="-2.44457">
        <ele>81.4</ele>
        <time>2025-02-11T14:19:05Z</time>
      </trkpt>
      <trkpt lat="47.79796" lon="-2.44457">
        <ele>81.3</ele>
        <time>2025-02-11T14:19:06Z</time>
      </trkpt>
      <trkpt lat="47.79795" lon="-2.44458">
        <ele>81.2</ele>
        <time>2025-02-11T14:19:07Z</time>
      </trkpt>
      <trkpt lat="47.79794" lon="-2.44458">
        <ele>81.2</ele>
        <time>2025-02-11T14:19:08Z</time>
      </trkpt>
      <trkpt lat="47.79793" lon="-2.44458">
        <ele>81.1</ele>
        <time>2025-02-11T14:19:09Z</time>
      </trkpt>
      <trkpt lat="47.79792" lon="-2.44459">
        <ele>81</ele>
        <time>2025-02-11T14:19:10Z</time>
      </trkpt>
      <trkpt lat="47.79791" lon="-2.44459">
        <ele>80.9</ele>
        <time>2025-02-11T14:19:11Z</time>
      </trkpt>
      <trkpt lat="47.79789" lon="-2.44459">
        <ele>80.8</ele>
        <time>2025-02-11T14:19:12Z</time>
      </trkpt>
      <trkpt lat="47.79788" lon="-2.44459">
        <ele>80.8</ele>
        <time>2025-02-11T14:19:13Z</time>
      </trkpt>
      <trkpt lat="47.79787" lon="-2.4446">
        <ele>80.7</ele>
        <time>2025-02-11T14:19:14Z</time>
      </trkpt>
      <trkpt lat="47.79786" lon="-2.4446">
        <ele>80.6</ele>
        <time>2025-02-11T14:19:15Z</time>
      </trkpt>
      <trkpt lat="47.79785" lon="-2.4446">
        <ele>80.5</ele>
        <time>2025-02-11T14:19:16Z</time>
      </trkpt>
      <trkpt lat="47.79783" lon="-2.4446">
        <ele>80.4</ele>
        <time>2025-02-11T14:19:17Z</time>
      </trkpt>
      <trkpt lat="47.79782" lon="-2.4446">
        <ele>80.3</ele>
        <time>2025-02-11T14:19:18Z</time>
      </trkpt>
      <trkpt lat="47.79781" lon="-2.44461">
        <ele>80.2</ele>
        <time>2025-02-11T14:19:19Z</time>
      </trkpt>
      <trkpt lat="47.7978" lon="-2.44462">
        <ele>80.1</ele>
        <time>2025-02-11T14:19:20Z</time>
      </trkpt>
      <trkpt lat="47.79779" lon="-2.44462">
        <ele>80.1</ele>
        <time>2025-02-11T14:19:21Z</time>
      </trkpt>
      <trkpt lat="47.79778" lon="-2.44463">
        <ele>80</ele>
        <time>2025-02-11T14:19:22Z</time>
      </trkpt>
      <trkpt lat="47.79776" lon="-2.44463">
        <ele>79.9</ele>
        <time>2025-02-11T14:19:23Z</time>
      </trkpt>
      <trkpt lat="47.79775" lon="-2.44463">
        <ele>79.8</ele>
        <time>2025-02-11T14:19:24Z</time>
      </trkpt>
      <trkpt lat="47.79774" lon="-2.44463">
        <ele>79.7</ele>
        <time>2025-02-11T14:19:25Z</time>
      </trkpt>
      <trkpt lat="47.79773" lon="-2.44463">
        <ele>79.6</ele>
        <time>2025-02-11T14:19:26Z</time>
      </trkpt>
      <trkpt lat="47.79771" lon="-2.44463">
        <ele>79.5</ele>
        <time>2025-02-11T14:19:27Z</time>
      </trkpt>
      <trkpt lat="47.7977" lon="-2.44464">
        <ele>79.4</ele>
        <time>2025-02-11T14:19:28Z</time>
      </trkpt>
      <trkpt lat="47.79769" lon="-2.44464">
        <ele>79.3</ele>
        <time>2025-02-11T14:19:29Z</time>
      </trkpt>
      <trkpt lat="47.79767" lon="-2.44464">
        <ele>79.2</ele>
        <time>2025-02-11T14:19:30Z</time>
      </trkpt>
      <trkpt lat="47.79766" lon="-2.44464">
        <ele>79.2</ele>
        <time>2025-02-11T14:19:31Z</time>
      </trkpt>
      <trkpt lat="47.79765" lon="-2.44464">
        <ele>79.1</ele>
        <time>2025-02-11T14:19:32Z</time>
      </trkpt>
      <trkpt lat="47.79763" lon="-2.44465">
        <ele>79</ele>
        <time>2025-02-11T14:19:33Z</time>
      </trkpt>
      <trkpt lat="47.79762" lon="-2.44465">
        <ele>78.9</ele>
        <time>2025-02-11T14:19:34Z</time>
      </trkpt>
      <trkpt lat="47.79761" lon="-2.44466">
        <ele>78.8</ele>
        <time>2025-02-11T14:19:35Z</time>
      </trkpt>
      <trkpt lat="47.7976" lon="-2.44466">
        <ele>78.7</ele>
        <time>2025-02-11T14:19:36Z</time>
      </trkpt>
      <trkpt lat="47.79759" lon="-2.44467">
        <ele>78.6</ele>
        <time>2025-02-11T14:19:37Z</time>
      </trkpt>
      <trkpt lat="47.79758" lon="-2.44467">
        <ele>78.6</ele>
        <time>2025-02-11T14:19:38Z</time>
      </trkpt>
      <trkpt lat="47.79756" lon="-2.44467">
        <ele>78.5</ele>
        <time>2025-02-11T14:19:39Z</time>
      </trkpt>
      <trkpt lat="47.79755" lon="-2.44466">
        <ele>78.4</ele>
        <time>2025-02-11T14:19:40Z</time>
      </trkpt>
      <trkpt lat="47.79754" lon="-2.44466">
        <ele>78.3</ele>
        <time>2025-02-11T14:19:41Z</time>
      </trkpt>
      <trkpt lat="47.79753" lon="-2.44466">
        <ele>78.2</ele>
        <time>2025-02-11T14:19:42Z</time>
      </trkpt>
      <trkpt lat="47.79752" lon="-2.44466">
        <ele>78.1</ele>
        <time>2025-02-11T14:19:43Z</time>
      </trkpt>
      <trkpt lat="47.7975" lon="-2.44466">
        <ele>78</ele>
        <time>2025-02-11T14:19:44Z</time>
      </trkpt>
      <trkpt lat="47.79749" lon="-2.44466">
        <ele>77.9</ele>
        <time>2025-02-11T14:19:45Z</time>
      </trkpt>
      <trkpt lat="47.79748" lon="-2.44466">
        <ele>77.8</ele>
        <time>2025-02-11T14:19:46Z</time>
      </trkpt>
      <trkpt lat="47.79747" lon="-2.44466">
        <ele>77.7</ele>
        <time>2025-02-11T14:19:47Z</time>
      </trkpt>
      <trkpt lat="47.79746" lon="-2.44466">
        <ele>77.5</ele>
        <time>2025-02-11T14:19:48Z</time>
      </trkpt>
      <trkpt lat="47.79744" lon="-2.44466">
        <ele>77.4</ele>
        <time>2025-02-11T14:19:49Z</time>
      </trkpt>
      <trkpt lat="47.79743" lon="-2.44466">
        <ele>77.3</ele>
        <time>2025-02-11T14:19:50Z</time>
      </trkpt>
      <trkpt lat="47.79742" lon="-2.44465">
        <ele>77.1</ele>
        <time>2025-02-11T14:19:51Z</time>
      </trkpt>
      <trkpt lat="47.79741" lon="-2.44465">
        <ele>77</ele>
        <time>2025-02-11T14:19:52Z</time>
      </trkpt>
      <trkpt lat="47.7974" lon="-2.44465">
        <ele>76.9</ele>
        <time>2025-02-11T14:19:53Z</time>
      </trkpt>
      <trkpt lat="47.79738" lon="-2.44464">
        <ele>76.7</ele>
        <time>2025-02-11T14:19:54Z</time>
      </trkpt>
      <trkpt lat="47.79737" lon="-2.44464">
        <ele>76.6</ele>
        <time>2025-02-11T14:19:55Z</time>
      </trkpt>
      <trkpt lat="47.79736" lon="-2.44464">
        <ele>76.5</ele>
        <time>2025-02-11T14:19:56Z</time>
      </trkpt>
      <trkpt lat="47.79735" lon="-2.44464">
        <ele>76.3</ele>
        <time>2025-02-11T14:19:57Z</time>
      </trkpt>
      <trkpt lat="47.79733" lon="-2.44464">
        <ele>76.2</ele>
        <time>2025-02-11T14:19:58Z</time>
      </trkpt>
      <trkpt lat="47.79732" lon="-2.44464">
        <ele>76.1</ele>
        <time>2025-02-11T14:19:59Z</time>
      </trkpt>
      <trkpt lat="47.79731" lon="-2.44464">
        <ele>76</ele>
        <time>2025-02-11T14:20:00Z</time>
      </trkpt>
      <trkpt lat="47.7973" lon="-2.44464">
        <ele>75.8</ele>
        <time>2025-02-11T14:20:01Z</time>
      </trkpt>
      <trkpt lat="47.79729" lon="-2.44463">
        <ele>75.7</ele>
        <time>2025-02-11T14:20:02Z</time>
      </trkpt>
      <trkpt lat="47.79728" lon="-2.44464">
        <ele>75.6</ele>
        <time>2025-02-11T14:20:03Z</time>
      </trkpt>
      <trkpt lat="47.79727" lon="-2.44464">
        <ele>75.5</ele>
        <time>2025-02-11T14:20:04Z</time>
      </trkpt>
      <trkpt lat="47.79726" lon="-2.44464">
        <ele>75.4</ele>
        <time>2025-02-11T14:20:05Z</time>
      </trkpt>
      <trkpt lat="47.79725" lon="-2.44464">
        <ele>75.2</ele>
        <time>2025-02-11T14:20:06Z</time>
      </trkpt>
      <trkpt lat="47.79723" lon="-2.44464">
        <ele>75.1</ele>
        <time>2025-02-11T14:20:07Z</time>
      </trkpt>
      <trkpt lat="47.79722" lon="-2.44465">
        <ele>75</ele>
        <time>2025-02-11T14:20:08Z</time>
      </trkpt>
      <trkpt lat="47.79721" lon="-2.44465">
        <ele>74.8</ele>
        <time>2025-02-11T14:20:09Z</time>
      </trkpt>
      <trkpt lat="47.7972" lon="-2.44464">
        <ele>74.7</ele>
        <time>2025-02-11T14:20:10Z</time>
      </trkpt>
      <trkpt lat="47.79719" lon="-2.44464">
        <ele>74.6</ele>
        <time>2025-02-11T14:20:11Z</time>
      </trkpt>
      <trkpt lat="47.79717" lon="-2.44464">
        <ele>74.5</ele>
        <time>2025-02-11T14:20:12Z</time>
      </trkpt>
      <trkpt lat="47.79716" lon="-2.44464">
        <ele>74.3</ele>
        <time>2025-02-11T14:20:13Z</time>
      </trkpt>
      <trkpt lat="47.79715" lon="-2.44464">
        <ele>74.2</ele>
        <time>2025-02-11T14:20:14Z</time>
      </trkpt>
      <trkpt lat="47.79714" lon="-2.44463">
        <ele>74.1</ele>
        <time>2025-02-11T14:20:15Z</time>
      </trkpt>
      <trkpt lat="47.79713" lon="-2.44461">
        <ele>74</ele>
        <time>2025-02-11T14:20:16Z</time>
      </trkpt>
      <trkpt lat="47.79712" lon="-2.4446">
        <ele>73.9</ele>
        <time>2025-02-11T14:20:17Z</time>
      </trkpt>
      <trkpt lat="47.79712" lon="-2.44459">
        <ele>73.8</ele>
        <time>2025-02-11T14:20:18Z</time>
      </trkpt>
      <trkpt lat="47.79711" lon="-2.44458">
        <ele>73.8</ele>
        <time>2025-02-11T14:20:19Z</time>
      </trkpt>
      <trkpt lat="47.79711" lon="-2.44456">
        <ele>73.8</ele>
        <time>2025-02-11T14:20:20Z</time>
      </trkpt>
      <trkpt lat="47.79711" lon="-2.44455">
        <ele>73.8</ele>
        <time>2025-02-11T14:20:21Z</time>
      </trkpt>
      <trkpt lat="47.79711" lon="-2.44454">
        <ele>73.8</ele>
        <time>2025-02-11T14:20:22Z</time>
      </trkpt>
      <trkpt lat="47.79711" lon="-2.44454">
        <ele>73.8</ele>
        <time>2025-02-11T14:20:23Z</time>
      </trkpt>
      <trkpt lat="47.79711" lon="-2.44454">
        <ele>73.8</ele>
        <time>2025-02-11T14:20:24Z</time>
      </trkpt>
      <trkpt lat="47.79711" lon="-2.44454">
        <ele>73.8</ele>
        <time>2025-02-11T14:20:25Z</time>
      </trkpt>
      <trkpt lat="47.79711" lon="-2.44454">
        <ele>73.8</ele>
        <time>2025-02-11T14:20:26Z</time>
      </trkpt>
      <trkpt lat="47.79711" lon="-2.44454">
        <ele>73.8</ele>
        <time>2025-02-11T14:20:27Z</time>
      </trkpt>
      <trkpt lat="47.79711" lon="-2.44454">
        <ele>73.8</ele>
        <time>2025-02-11T14:20:28Z</time>
      </trkpt>
      <trkpt lat="47.79711" lon="-2.44454">
        <ele>73.8</ele>
        <time>2025-02-11T14:20:29Z</time>
      </trkpt>
      <trkpt lat="47.79711" lon="-2.44454">
        <ele>73.8</ele>
        <time>2025-02-11T14:20:30Z</time>
      </trkpt>
      <trkpt lat="47.79711" lon="-2.44454">
        <ele>73.8</ele>
        <time>2025-02-11T14:20:31Z</time>
      </trkpt>
      <trkpt lat="47.79711" lon="-2.44454">
        <ele>73.8</ele>
        <time>2025-02-11T14:20:32Z</time>
      </trkpt>
      <trkpt lat="47.79711" lon="-2.44454">
        <ele>73.8</ele>
        <time>2025-02-11T14:20:33Z</time>
      </trkpt>
      <trkpt lat="47.79711" lon="-2.44454">
        <ele>73.8</ele>
        <time>2025-02-11T14:20:34Z</time>
      </trkpt>
      <trkpt lat="47.79711" lon="-2.44454">
        <ele>73.8</ele>
        <time>2025-02-11T14:20:35Z</time>
      </trkpt>
      <trkpt lat="47.79711" lon="-2.44454">
        <ele>73.8</ele>
        <time>2025-02-11T14:20:36Z</time>
      </trkpt>
      <trkpt lat="47.79711" lon="-2.44454">
        <ele>73.8</ele>
        <time>2025-02-11T14:20:37Z</time>
      </trkpt>
      <trkpt lat="47.79711" lon="-2.44454">
        <ele>73.8</ele>
        <time>2025-02-11T14:20:38Z</time>
      </trkpt>
      <trkpt lat="47.79711" lon="-2.44454">
        <ele>73.8</ele>
        <time>2025-02-11T14:20:39Z</time>
      </trkpt>
      <trkpt lat="47.79711" lon="-2.44454">
        <ele>73.8</ele>
        <time>2025-02-11T14:20:40Z</time>
      </trkpt>
      <trkpt lat="47.79711" lon="-2.44454">
        <ele>73.8</ele>
        <time>2025-02-11T14:20:41Z</time>
      </trkpt>
      <trkpt lat="47.79711" lon="-2.44454">
        <ele>73.8</ele>
        <time>2025-02-11T14:20:42Z</time>
      </trkpt>
      <trkpt lat="47.79711" lon="-2.44454">
        <ele>73.8</ele>
        <time>2025-02-11T14:20:43Z</time>
      </trkpt>
      <trkpt lat="47.79711" lon="-2.44454">
        <ele>73.8</ele>
        <time>2025-02-11T14:20:44Z</time>
      </trkpt>
      <trkpt lat="47.79711" lon="-2.44454">
        <ele>73.8</ele>
        <time>2025-02-11T14:20:45Z</time>
      </trkpt>
      <trkpt lat="47.79711" lon="-2.44454">
        <ele>73.8</ele>
        <time>2025-02-11T14:20:46Z</time>
      </trkpt>
      <trkpt lat="47.79711" lon="-2.44454">
        <ele>73.8</ele>
        <time>2025-02-11T14:20:47Z</time>
      </trkpt>
      <trkpt lat="47.79711" lon="-2.44454">
        <ele>73.8</ele>
        <time>2025-02-11T14:20:48Z</time>
      </trkpt>
      <trkpt lat="47.79711" lon="-2.44454">
        <ele>73.8</ele>
        <time>2025-02-11T14:20:49Z</time>
      </trkpt>
      <trkpt lat="47.79711" lon="-2.44454">
        <ele>73.8</ele>
        <time>2025-02-11T14:20:50Z</time>
      </trkpt>
      <trkpt lat="47.79711" lon="-2.44454">
        <ele>73.8</ele>
        <time>2025-02-11T14:20:51Z</time>
      </trkpt>
      <trkpt lat="47.79711" lon="-2.44454">
        <ele>73.8</ele>
        <time>2025-02-11T14:20:52Z</time>
      </trkpt>
      <trkpt lat="47.79711" lon="-2.44454">
        <ele>73.8</ele>
        <time>2025-02-11T14:20:53Z</time>
      </trkpt>
      <trkpt lat="47.79711" lon="-2.44454">
        <ele>73.8</ele>
        <time>2025-02-11T14:20:54Z</time>
      </trkpt>
      <trkpt lat="47.79711" lon="-2.44454">
        <ele>73.8</ele>
        <time>2025-02-11T14:20:55Z</time>
      </trkpt>
      <trkpt lat="47.79711" lon="-2.44454">
        <ele>73.8</ele>
        <time>2025-02-11T14:20:56Z</time>
      </trkpt>
      <trkpt lat="47.79711" lon="-2.44454">
        <ele>73.8</ele>
        <time>2025-02-11T14:20:57Z</time>
      </trkpt>
      <trkpt lat="47.79712" lon="-2.44455">
        <ele>73.9</ele>
        <time>2025-02-11T14:20:58Z</time>
      </trkpt>
      <trkpt lat="47.79712" lon="-2.44456">
        <ele>73.9</ele>
        <time>2025-02-11T14:20:59Z</time>
      </trkpt>
      <trkpt lat="47.79711" lon="-2.44457">
        <ele>73.8</ele>
        <time>2025-02-11T14:21:00Z</time>
      </trkpt>
      <trkpt lat="47.7971" lon="-2.44457">
        <ele>73.7</ele>
        <time>2025-02-11T14:21:01Z</time>
      </trkpt>
      <trkpt lat="47.79709" lon="-2.44458">
        <ele>73.6</ele>
        <time>2025-02-11T14:21:02Z</time>
      </trkpt>
      <trkpt lat="47.79709" lon="-2.4446">
        <ele>73.5</ele>
        <time>2025-02-11T14:21:03Z</time>
      </trkpt>
      <trkpt lat="47.79708" lon="-2.4446">
        <ele>73.4</ele>
        <time>2025-02-11T14:21:04Z</time>
      </trkpt>
      <trkpt lat="47.79707" lon="-2.44461">
        <ele>73.3</ele>
        <time>2025-02-11T14:21:05Z</time>
      </trkpt>
      <trkpt lat="47.79706" lon="-2.44461">
        <ele>73.2</ele>
        <time>2025-02-11T14:21:06Z</time>
      </trkpt>
      <trkpt lat="47.79705" lon="-2.44461">
        <ele>73.2</ele>
        <time>2025-02-11T14:21:07Z</time>
      </trkpt>
      <trkpt lat="47.79704" lon="-2.44462">
        <ele>73.1</ele>
        <time>2025-02-11T14:21:08Z</time>
      </trkpt>
      <trkpt lat="47.79704" lon="-2.44462">
        <ele>73</ele>
        <time>2025-02-11T14:21:09Z</time>
      </trkpt>
      <trkpt lat="47.79702" lon="-2.44463">
        <ele>72.9</ele>
        <time>2025-02-11T14:21:10Z</time>
      </trkpt>
      <trkpt lat="47.79701" lon="-2.44462">
        <ele>72.8</ele>
        <time>2025-02-11T14:21:11Z</time>
      </trkpt>
      <trkpt lat="47.797" lon="-2.44463">
        <ele>72.6</ele>
        <time>2025-02-11T14:21:12Z</time>
      </trkpt>
      <trkpt lat="47.79699" lon="-2.44462">
        <ele>72.5</ele>
        <time>2025-02-11T14:21:13Z</time>
      </trkpt>
      <trkpt lat="47.79698" lon="-2.44462">
        <ele>72.4</ele>
        <time>2025-02-11T14:21:14Z</time>
      </trkpt>
      <trkpt lat="47.79697" lon="-2.44461">
        <ele>72.3</ele>
        <time>2025-02-11T14:21:15Z</time>
      </trkpt>
      <trkpt lat="47.79696" lon="-2.44462">
        <ele>72.2</ele>
        <time>2025-02-11T14:21:16Z</time>
      </trkpt>
      <trkpt lat="47.79695" lon="-2.44462">
        <ele>72.1</ele>
        <time>2025-02-11T14:21:17Z</time>
      </trkpt>
      <trkpt lat="47.79694" lon="-2.44461">
        <ele>72</ele>
        <time>2025-02-11T14:21:18Z</time>
      </trkpt>
      <trkpt lat="47.79695" lon="-2.44459">
        <ele>72</ele>
        <time>2025-02-11T14:21:19Z</time>
      </trkpt>
      <trkpt lat="47.79695" lon="-2.44457">
        <ele>72</ele>
        <time>2025-02-11T14:21:20Z</time>
      </trkpt>
      <trkpt lat="47.79695" lon="-2.44456">
        <ele>72</ele>
        <time>2025-02-11T14:21:21Z</time>
      </trkpt>
      <trkpt lat="47.79693" lon="-2.44455">
        <ele>71.9</ele>
        <time>2025-02-11T14:21:22Z</time>
      </trkpt>
      <trkpt lat="47.79692" lon="-2.44456">
        <ele>71.8</ele>
        <time>2025-02-11T14:21:23Z</time>
      </trkpt>
      <trkpt lat="47.79691" lon="-2.44457">
        <ele>71.7</ele>
        <time>2025-02-11T14:21:24Z</time>
      </trkpt>
      <trkpt lat="47.7969" lon="-2.44458">
        <ele>71.6</ele>
        <time>2025-02-11T14:21:25Z</time>
      </trkpt>
      <trkpt lat="47.79689" lon="-2.44458">
        <ele>71.4</ele>
        <time>2025-02-11T14:21:26Z</time>
      </trkpt>
      <trkpt lat="47.79688" lon="-2.44458">
        <ele>71.3</ele>
        <time>2025-02-11T14:21:27Z</time>
      </trkpt>
      <trkpt lat="47.79687" lon="-2.44458">
        <ele>71.2</ele>
        <time>2025-02-11T14:21:28Z</time>
      </trkpt>
      <trkpt lat="47.79686" lon="-2.44459">
        <ele>71.1</ele>
        <time>2025-02-11T14:21:29Z</time>
      </trkpt>
      <trkpt lat="47.79685" lon="-2.44459">
        <ele>71</ele>
        <time>2025-02-11T14:21:30Z</time>
      </trkpt>
      <trkpt lat="47.79684" lon="-2.44459">
        <ele>70.9</ele>
        <time>2025-02-11T14:21:31Z</time>
      </trkpt>
      <trkpt lat="47.79683" lon="-2.4446">
        <ele>70.7</ele>
        <time>2025-02-11T14:21:32Z</time>
      </trkpt>
      <trkpt lat="47.79682" lon="-2.44462">
        <ele>70.6</ele>
        <time>2025-02-11T14:21:33Z</time>
      </trkpt>
      <trkpt lat="47.79681" lon="-2.44461">
        <ele>70.5</ele>
        <time>2025-02-11T14:21:34Z</time>
      </trkpt>
      <trkpt lat="47.7968" lon="-2.4446">
        <ele>70.4</ele>
        <time>2025-02-11T14:21:35Z</time>
      </trkpt>
      <trkpt lat="47.79679" lon="-2.4446">
        <ele>70.3</ele>
        <time>2025-02-11T14:21:36Z</time>
      </trkpt>
      <trkpt lat="47.79678" lon="-2.44459">
        <ele>70.2</ele>
        <time>2025-02-11T14:21:37Z</time>
      </trkpt>
      <trkpt lat="47.79677" lon="-2.44458">
        <ele>70.1</ele>
        <time>2025-02-11T14:21:38Z</time>
      </trkpt>
      <trkpt lat="47.79676" lon="-2.44458">
        <ele>70.1</ele>
        <time>2025-02-11T14:21:39Z</time>
      </trkpt>
      <trkpt lat="47.79675" lon="-2.44458">
        <ele>69.9</ele>
        <time>2025-02-11T14:21:40Z</time>
      </trkpt>
      <trkpt lat="47.79674" lon="-2.44459">
        <ele>69.8</ele>
        <time>2025-02-11T14:21:41Z</time>
      </trkpt>
      <trkpt lat="47.79673" lon="-2.44459">
        <ele>69.7</ele>
        <time>2025-02-11T14:21:42Z</time>
      </trkpt>
      <trkpt lat="47.79672" lon="-2.44459">
        <ele>69.6</ele>
        <time>2025-02-11T14:21:43Z</time>
      </trkpt>
      <trkpt lat="47.79671" lon="-2.44459">
        <ele>69.5</ele>
        <time>2025-02-11T14:21:44Z</time>
      </trkpt>
      <trkpt lat="47.7967" lon="-2.44459">
        <ele>69.4</ele>
        <time>2025-02-11T14:21:45Z</time>
      </trkpt>
      <trkpt lat="47.7967" lon="-2.44459">
        <ele>69.4</ele>
        <time>2025-02-11T14:21:46Z</time>
      </trkpt>
      <trkpt lat="47.7967" lon="-2.44459">
        <ele>69.4</ele>
        <time>2025-02-11T14:21:47Z</time>
      </trkpt>
      <trkpt lat="47.7967" lon="-2.44459">
        <ele>69.4</ele>
        <time>2025-02-11T14:21:48Z</time>
      </trkpt>
      <trkpt lat="47.7967" lon="-2.44459">
        <ele>69.4</ele>
        <time>2025-02-11T14:21:49Z</time>
      </trkpt>
      <trkpt lat="47.7967" lon="-2.44459">
        <ele>69.4</ele>
        <time>2025-02-11T14:21:50Z</time>
      </trkpt>
      <trkpt lat="47.7967" lon="-2.44459">
        <ele>69.4</ele>
        <time>2025-02-11T14:21:51Z</time>
      </trkpt>
      <trkpt lat="47.7967" lon="-2.44459">
        <ele>69.4</ele>
        <time>2025-02-11T14:21:52Z</time>
      </trkpt>
      <trkpt lat="47.7967" lon="-2.44459">
        <ele>69.4</ele>
        <time>2025-02-11T14:21:53Z</time>
      </trkpt>
      <trkpt lat="47.7967" lon="-2.44459">
        <ele>69.4</ele>
        <time>2025-02-11T14:21:54Z</time>
      </trkpt>
      <trkpt lat="47.7967" lon="-2.44459">
        <ele>69.4</ele>
        <time>2025-02-11T14:21:55Z</time>
      </trkpt>
      <trkpt lat="47.7967" lon="-2.44459">
        <ele>69.4</ele>
        <time>2025-02-11T14:21:56Z</time>
      </trkpt>
      <trkpt lat="47.7967" lon="-2.44459">
        <ele>69.4</ele>
        <time>2025-02-11T14:21:57Z</time>
      </trkpt>
      <trkpt lat="47.7967" lon="-2.44459">
        <ele>69.4</ele>
        <time>2025-02-11T14:21:58Z</time>
      </trkpt>
      <trkpt lat="47.7967" lon="-2.44459">
        <ele>69.4</ele>
        <time>2025-02-11T14:21:59Z</time>
      </trkpt>
      <trkpt lat="47.7967" lon="-2.44459">
        <ele>69.4</ele>
        <time>2025-02-11T14:22:00Z</time>
      </trkpt>
      <trkpt lat="47.7967" lon="-2.44459">
        <ele>69.4</ele>
        <time>2025-02-11T14:22:01Z</time>
      </trkpt>
      <trkpt lat="47.7967" lon="-2.4446">
        <ele>69.3</ele>
        <time>2025-02-11T14:22:02Z</time>
      </trkpt>
      <trkpt lat="47.79669" lon="-2.4446">
        <ele>69.3</ele>
        <time>2025-02-11T14:22:03Z</time>
      </trkpt>
      <trkpt lat="47.79668" lon="-2.4446">
        <ele>69.2</ele>
        <time>2025-02-11T14:22:04Z</time>
      </trkpt>
      <trkpt lat="47.79667" lon="-2.4446">
        <ele>69.1</ele>
        <time>2025-02-11T14:22:05Z</time>
      </trkpt>
      <trkpt lat="47.79666" lon="-2.44461">
        <ele>68.9</ele>
        <time>2025-02-11T14:22:06Z</time>
      </trkpt>
      <trkpt lat="47.79665" lon="-2.44461">
        <ele>68.8</ele>
        <time>2025-02-11T14:22:07Z</time>
      </trkpt>
      <trkpt lat="47.79664" lon="-2.44461">
        <ele>68.7</ele>
        <time>2025-02-11T14:22:08Z</time>
      </trkpt>
      <trkpt lat="47.79663" lon="-2.44461">
        <ele>68.6</ele>
        <time>2025-02-11T14:22:09Z</time>
      </trkpt>
      <trkpt lat="47.79662" lon="-2.44461">
        <ele>68.4</ele>
        <time>2025-02-11T14:22:10Z</time>
      </trkpt>
      <trkpt lat="47.79661" lon="-2.44461">
        <ele>68.3</ele>
        <time>2025-02-11T14:22:11Z</time>
      </trkpt>
      <trkpt lat="47.7966" lon="-2.4446">
        <ele>68.2</ele>
        <time>2025-02-11T14:22:12Z</time>
      </trkpt>
      <trkpt lat="47.79659" lon="-2.4446">
        <ele>68</ele>
        <time>2025-02-11T14:22:13Z</time>
      </trkpt>
      <trkpt lat="47.79658" lon="-2.4446">
        <ele>67.9</ele>
        <time>2025-02-11T14:22:14Z</time>
      </trkpt>
      <trkpt lat="47.79657" lon="-2.4446">
        <ele>67.8</ele>
        <time>2025-02-11T14:22:15Z</time>
      </trkpt>
      <trkpt lat="47.79657" lon="-2.4446">
        <ele>67.7</ele>
        <time>2025-02-11T14:22:16Z</time>
      </trkpt>
      <trkpt lat="47.79656" lon="-2.4446">
        <ele>67.6</ele>
        <time>2025-02-11T14:22:17Z</time>
      </trkpt>
      <trkpt lat="47.79655" lon="-2.44459">
        <ele>67.5</ele>
        <time>2025-02-11T14:22:18Z</time>
      </trkpt>
      <trkpt lat="47.79654" lon="-2.44459">
        <ele>67.4</ele>
        <time>2025-02-11T14:22:19Z</time>
      </trkpt>
      <trkpt lat="47.79653" lon="-2.44458">
        <ele>67.3</ele>
        <time>2025-02-11T14:22:20Z</time>
      </trkpt>
      <trkpt lat="47.79652" lon="-2.44458">
        <ele>67.2</ele>
        <time>2025-02-11T14:22:21Z</time>
      </trkpt>
      <trkpt lat="47.79651" lon="-2.44458">
        <ele>67.1</ele>
        <time>2025-02-11T14:22:22Z</time>
      </trkpt>
      <trkpt lat="47.79651" lon="-2.44461">
        <ele>66.9</ele>
        <time>2025-02-11T14:22:23Z</time>
      </trkpt>
      <trkpt lat="47.79651" lon="-2.44461">
        <ele>66.9</ele>
        <time>2025-02-11T14:22:24Z</time>
      </trkpt>
      <trkpt lat="47.79651" lon="-2.44461">
        <ele>67</ele>
        <time>2025-02-11T14:22:25Z</time>
      </trkpt>
      <trkpt lat="47.79651" lon="-2.44461">
        <ele>67</ele>
        <time>2025-02-11T14:22:26Z</time>
      </trkpt>
      <trkpt lat="47.79651" lon="-2.44461">
        <ele>67</ele>
        <time>2025-02-11T14:22:27Z</time>
      </trkpt>
      <trkpt lat="47.79651" lon="-2.44461">
        <ele>67</ele>
        <time>2025-02-11T14:22:28Z</time>
      </trkpt>
      <trkpt lat="47.79651" lon="-2.44461">
        <ele>67</ele>
        <time>2025-02-11T14:22:29Z</time>
      </trkpt>
      <trkpt lat="47.79651" lon="-2.44461">
        <ele>67</ele>
        <time>2025-02-11T14:22:30Z</time>
      </trkpt>
      <trkpt lat="47.79652" lon="-2.44461">
        <ele>67.1</ele>
        <time>2025-02-11T14:22:31Z</time>
      </trkpt>
      <trkpt lat="47.79652" lon="-2.4446">
        <ele>67.1</ele>
        <time>2025-02-11T14:22:32Z</time>
      </trkpt>
      <trkpt lat="47.79652" lon="-2.44461">
        <ele>67.1</ele>
        <time>2025-02-11T14:22:33Z</time>
      </trkpt>
      <trkpt lat="47.79652" lon="-2.44461">
        <ele>67.2</ele>
        <time>2025-02-11T14:22:34Z</time>
      </trkpt>
      <trkpt lat="47.79652" lon="-2.44461">
        <ele>67.2</ele>
        <time>2025-02-11T14:22:35Z</time>
      </trkpt>
      <trkpt lat="47.79652" lon="-2.44461">
        <ele>67.1</ele>
        <time>2025-02-11T14:22:36Z</time>
      </trkpt>
      <trkpt lat="47.79652" lon="-2.44462">
        <ele>67.1</ele>
        <time>2025-02-11T14:22:37Z</time>
      </trkpt>
      <trkpt lat="47.79651" lon="-2.44462">
        <ele>67</ele>
        <time>2025-02-11T14:22:38Z</time>
      </trkpt>
      <trkpt lat="47.79651" lon="-2.44462">
        <ele>66.9</ele>
        <time>2025-02-11T14:22:39Z</time>
      </trkpt>
      <trkpt lat="47.7965" lon="-2.44461">
        <ele>66.8</ele>
        <time>2025-02-11T14:22:40Z</time>
      </trkpt>
      <trkpt lat="47.79649" lon="-2.4446">
        <ele>66.7</ele>
        <time>2025-02-11T14:22:41Z</time>
      </trkpt>
      <trkpt lat="47.79648" lon="-2.4446">
        <ele>66.6</ele>
        <time>2025-02-11T14:22:42Z</time>
      </trkpt>
      <trkpt lat="47.79647" lon="-2.4446">
        <ele>66.5</ele>
        <time>2025-02-11T14:22:43Z</time>
      </trkpt>
      <trkpt lat="47.79646" lon="-2.44459">
        <ele>66.3</ele>
        <time>2025-02-11T14:22:44Z</time>
      </trkpt>
      <trkpt lat="47.79645" lon="-2.44459">
        <ele>66.2</ele>
        <time>2025-02-11T14:22:45Z</time>
      </trkpt>
      <trkpt lat="47.79644" lon="-2.44459">
        <ele>66.1</ele>
        <time>2025-02-11T14:22:46Z</time>
      </trkpt>
      <trkpt lat="47.79643" lon="-2.44459">
        <ele>66</ele>
        <time>2025-02-11T14:22:47Z</time>
      </trkpt>
      <trkpt lat="47.79642" lon="-2.44459">
        <ele>65.8</ele>
        <time>2025-02-11T14:22:48Z</time>
      </trkpt>
      <trkpt lat="47.79641" lon="-2.44458">
        <ele>65.7</ele>
        <time>2025-02-11T14:22:49Z</time>
      </trkpt>
      <trkpt lat="47.7964" lon="-2.44459">
        <ele>65.6</ele>
        <time>2025-02-11T14:22:50Z</time>
      </trkpt>
      <trkpt lat="47.79639" lon="-2.4446">
        <ele>65.4</ele>
        <time>2025-02-11T14:22:51Z</time>
      </trkpt>
      <trkpt lat="47.79638" lon="-2.44461">
        <ele>65.3</ele>
        <time>2025-02-11T14:22:52Z</time>
      </trkpt>
      <trkpt lat="47.79638" lon="-2.44462">
        <ele>65.2</ele>
        <time>2025-02-11T14:22:53Z</time>
      </trkpt>
      <trkpt lat="47.79637" lon="-2.44462">
        <ele>65</ele>
        <time>2025-02-11T14:22:54Z</time>
      </trkpt>
      <trkpt lat="47.79636" lon="-2.44462">
        <ele>64.8</ele>
        <time>2025-02-11T14:22:55Z</time>
      </trkpt>
      <trkpt lat="47.79635" lon="-2.44461">
        <ele>64.7</ele>
        <time>2025-02-11T14:22:56Z</time>
      </trkpt>
      <trkpt lat="47.79634" lon="-2.44461">
        <ele>64.6</ele>
        <time>2025-02-11T14:22:57Z</time>
      </trkpt>
      <trkpt lat="47.79632" lon="-2.4446">
        <ele>64.4</ele>
        <time>2025-02-11T14:22:58Z</time>
      </trkpt>
      <trkpt lat="47.79631" lon="-2.4446">
        <ele>64.2</ele>
        <time>2025-02-11T14:22:59Z</time>
      </trkpt>
      <trkpt lat="47.7963" lon="-2.4446">
        <ele>64.1</ele>
        <time>2025-02-11T14:23:00Z</time>
      </trkpt>
      <trkpt lat="47.79629" lon="-2.4446">
        <ele>63.9</ele>
        <time>2025-02-11T14:23:01Z</time>
      </trkpt>
      <trkpt lat="47.79628" lon="-2.4446">
        <ele>63.7</ele>
        <time>2025-02-11T14:23:02Z</time>
      </trkpt>
      <trkpt lat="47.79627" lon="-2.4446">
        <ele>63.5</ele>
        <time>2025-02-11T14:23:03Z</time>
      </trkpt>
      <trkpt lat="47.79626" lon="-2.4446">
        <ele>63.3</ele>
        <time>2025-02-11T14:23:04Z</time>
      </trkpt>
      <trkpt lat="47.79625" lon="-2.4446">
        <ele>63.2</ele>
        <time>2025-02-11T14:23:05Z</time>
      </trkpt>
      <trkpt lat="47.79624" lon="-2.4446">
        <ele>63</ele>
        <time>2025-02-11T14:23:06Z</time>
      </trkpt>
      <trkpt lat="47.79623" lon="-2.44459">
        <ele>62.9</ele>
        <time>2025-02-11T14:23:07Z</time>
      </trkpt>
      <trkpt lat="47.79623" lon="-2.44459">
        <ele>62.9</ele>
        <time>2025-02-11T14:23:08Z</time>
      </trkpt>
      <trkpt lat="47.79622" lon="-2.44459">
        <ele>62.7</ele>
        <time>2025-02-11T14:23:09Z</time>
      </trkpt>
      <trkpt lat="47.79622" lon="-2.44459">
        <ele>62.7</ele>
        <time>2025-02-11T14:23:10Z</time>
      </trkpt>
      <trkpt lat="47.79622" lon="-2.44459">
        <ele>62.7</ele>
        <time>2025-02-11T14:23:11Z</time>
      </trkpt>
      <trkpt lat="47.79622" lon="-2.44459">
        <ele>62.7</ele>
        <time>2025-02-11T14:23:12Z</time>
      </trkpt>
      <trkpt lat="47.79621" lon="-2.44459">
        <ele>62.7</ele>
        <time>2025-02-11T14:23:13Z</time>
      </trkpt>
      <trkpt lat="47.79622" lon="-2.44459">
        <ele>62.7</ele>
        <time>2025-02-11T14:23:14Z</time>
      </trkpt>
      <trkpt lat="47.79622" lon="-2.44459">
        <ele>62.7</ele>
        <time>2025-02-11T14:23:15Z</time>
      </trkpt>
      <trkpt lat="47.79622" lon="-2.44459">
        <ele>62.7</ele>
        <time>2025-02-11T14:23:16Z</time>
      </trkpt>
      <trkpt lat="47.79622" lon="-2.44459">
        <ele>62.7</ele>
        <time>2025-02-11T14:23:17Z</time>
      </trkpt>
      <trkpt lat="47.79622" lon="-2.44459">
        <ele>62.7</ele>
        <time>2025-02-11T14:23:18Z</time>
      </trkpt>
      <trkpt lat="47.79622" lon="-2.44459">
        <ele>62.7</ele>
        <time>2025-02-11T14:23:19Z</time>
      </trkpt>
      <trkpt lat="47.79622" lon="-2.44459">
        <ele>62.7</ele>
        <time>2025-02-11T14:23:20Z</time>
      </trkpt>
      <trkpt lat="47.79622" lon="-2.44459">
        <ele>62.7</ele>
        <time>2025-02-11T14:23:21Z</time>
      </trkpt>
      <trkpt lat="47.79622" lon="-2.44459">
        <ele>62.7</ele>
        <time>2025-02-11T14:23:22Z</time>
      </trkpt>
      <trkpt lat="47.79622" lon="-2.44459">
        <ele>62.7</ele>
        <time>2025-02-11T14:23:23Z</time>
      </trkpt>
      <trkpt lat="47.79622" lon="-2.44459">
        <ele>62.7</ele>
        <time>2025-02-11T14:23:24Z</time>
      </trkpt>
      <trkpt lat="47.79622" lon="-2.44459">
        <ele>62.7</ele>
        <time>2025-02-11T14:23:25Z</time>
      </trkpt>
      <trkpt lat="47.79622" lon="-2.44459">
        <ele>62.7</ele>
        <time>2025-02-11T14:23:26Z</time>
      </trkpt>
      <trkpt lat="47.79622" lon="-2.44459">
        <ele>62.7</ele>
        <time>2025-02-11T14:23:27Z</time>
      </trkpt>
      <trkpt lat="47.79621" lon="-2.44459">
        <ele>62.6</ele>
        <time>2025-02-11T14:23:28Z</time>
      </trkpt>
      <trkpt lat="47.79621" lon="-2.44459">
        <ele>62.5</ele>
        <time>2025-02-11T14:23:29Z</time>
      </trkpt>
      <trkpt lat="47.7962" lon="-2.44459">
        <ele>62.4</ele>
        <time>2025-02-11T14:23:30Z</time>
      </trkpt>
      <trkpt lat="47.79619" lon="-2.44459">
        <ele>62.2</ele>
        <time>2025-02-11T14:23:31Z</time>
      </trkpt>
      <trkpt lat="47.79618" lon="-2.4446">
        <ele>62</ele>
        <time>2025-02-11T14:23:32Z</time>
      </trkpt>
      <trkpt lat="47.79617" lon="-2.4446">
        <ele>61.9</ele>
        <time>2025-02-11T14:23:33Z</time>
      </trkpt>
      <trkpt lat="47.79616" lon="-2.44459">
        <ele>61.7</ele>
        <time>2025-02-11T14:23:34Z</time>
      </trkpt>
      <trkpt lat="47.79615" lon="-2.44458">
        <ele>61.6</ele>
        <time>2025-02-11T14:23:35Z</time>
      </trkpt>
      <trkpt lat="47.79614" lon="-2.44458">
        <ele>61.4</ele>
        <time>2025-02-11T14:23:36Z</time>
      </trkpt>
      <trkpt lat="47.79613" lon="-2.44458">
        <ele>61.3</ele>
        <time>2025-02-11T14:23:37Z</time>
      </trkpt>
      <trkpt lat="47.79612" lon="-2.44458">
        <ele>61.1</ele>
        <time>2025-02-11T14:23:38Z</time>
      </trkpt>
      <trkpt lat="47.7961" lon="-2.44458">
        <ele>60.9</ele>
        <time>2025-02-11T14:23:39Z</time>
      </trkpt>
      <trkpt lat="47.79609" lon="-2.44458">
        <ele>60.7</ele>
        <time>2025-02-11T14:23:40Z</time>
      </trkpt>
      <trkpt lat="47.79608" lon="-2.44458">
        <ele>60.6</ele>
        <time>2025-02-11T14:23:41Z</time>
      </trkpt>
      <trkpt lat="47.79607" lon="-2.44458">
        <ele>60.5</ele>
        <time>2025-02-11T14:23:42Z</time>
      </trkpt>
      <trkpt lat="47.79606" lon="-2.44458">
        <ele>60.3</ele>
        <time>2025-02-11T14:23:43Z</time>
      </trkpt>
      <trkpt lat="47.79605" lon="-2.44458">
        <ele>60.1</ele>
        <time>2025-02-11T14:23:44Z</time>
      </trkpt>
      <trkpt lat="47.79604" lon="-2.44458">
        <ele>60</ele>
        <time>2025-02-11T14:23:45Z</time>
      </trkpt>
      <trkpt lat="47.79603" lon="-2.44457">
        <ele>59.9</ele>
        <time>2025-02-11T14:23:46Z</time>
      </trkpt>
      <trkpt lat="47.79602" lon="-2.44457">
        <ele>59.7</ele>
        <time>2025-02-11T14:23:47Z</time>
      </trkpt>
      <trkpt lat="47.79601" lon="-2.44457">
        <ele>59.5</ele>
        <time>2025-02-11T14:23:48Z</time>
      </trkpt>
      <trkpt lat="47.796" lon="-2.44457">
        <ele>59.4</ele>
        <time>2025-02-11T14:23:49Z</time>
      </trkpt>
      <trkpt lat="47.79599" lon="-2.44457">
        <ele>59.2</ele>
        <time>2025-02-11T14:23:50Z</time>
      </trkpt>
      <trkpt lat="47.79598" lon="-2.44457">
        <ele>59</ele>
        <time>2025-02-11T14:23:51Z</time>
      </trkpt>
      <trkpt lat="47.79596" lon="-2.44457">
        <ele>58.9</ele>
        <time>2025-02-11T14:23:52Z</time>
      </trkpt>
      <trkpt lat="47.79595" lon="-2.44457">
        <ele>58.7</ele>
        <time>2025-02-11T14:23:53Z</time>
      </trkpt>
      <trkpt lat="47.79594" lon="-2.44457">
        <ele>58.6</ele>
        <time>2025-02-11T14:23:54Z</time>
      </trkpt>
      <trkpt lat="47.79593" lon="-2.44456">
        <ele>58.4</ele>
        <time>2025-02-11T14:23:55Z</time>
      </trkpt>
      <trkpt lat="47.79592" lon="-2.44456">
        <ele>58.3</ele>
        <time>2025-02-11T14:23:56Z</time>
      </trkpt>
      <trkpt lat="47.79591" lon="-2.44456">
        <ele>58.1</ele>
        <time>2025-02-11T14:23:57Z</time>
      </trkpt>
      <trkpt lat="47.7959" lon="-2.44455">
        <ele>58</ele>
        <time>2025-02-11T14:23:58Z</time>
      </trkpt>
      <trkpt lat="47.79589" lon="-2.44455">
        <ele>57.9</ele>
        <time>2025-02-11T14:23:59Z</time>
      </trkpt>
      <trkpt lat="47.79588" lon="-2.44455">
        <ele>57.6</ele>
        <time>2025-02-11T14:24:00Z</time>
      </trkpt>
      <trkpt lat="47.79587" lon="-2.44455">
        <ele>57.5</ele>
        <time>2025-02-11T14:24:01Z</time>
      </trkpt>
      <trkpt lat="47.79585" lon="-2.44456">
        <ele>57.3</ele>
        <time>2025-02-11T14:24:02Z</time>
      </trkpt>
      <trkpt lat="47.79584" lon="-2.44456">
        <ele>57.1</ele>
        <time>2025-02-11T14:24:03Z</time>
      </trkpt>
      <trkpt lat="47.79583" lon="-2.44456">
        <ele>56.9</ele>
        <time>2025-02-11T14:24:04Z</time>
      </trkpt>
      <trkpt lat="47.79581" lon="-2.44456">
        <ele>56.6</ele>
        <time>2025-02-11T14:24:05Z</time>
      </trkpt>
      <trkpt lat="47.7958" lon="-2.44455">
        <ele>56.4</ele>
        <time>2025-02-11T14:24:06Z</time>
      </trkpt>
      <trkpt lat="47.79579" lon="-2.44456">
        <ele>56.1</ele>
        <time>2025-02-11T14:24:07Z</time>
      </trkpt>
      <trkpt lat="47.79577" lon="-2.44456">
        <ele>55.9</ele>
        <time>2025-02-11T14:24:08Z</time>
      </trkpt>
      <trkpt lat="47.79576" lon="-2.44456">
        <ele>55.7</ele>
        <time>2025-02-11T14:24:09Z</time>
      </trkpt>
      <trkpt lat="47.79575" lon="-2.44456">
        <ele>55.5</ele>
        <time>2025-02-11T14:24:10Z</time>
      </trkpt>
      <trkpt lat="47.79574" lon="-2.44455">
        <ele>55.2</ele>
        <time>2025-02-11T14:24:11Z</time>
      </trkpt>
      <trkpt lat="47.79572" lon="-2.44455">
        <ele>55</ele>
        <time>2025-02-11T14:24:12Z</time>
      </trkpt>
      <trkpt lat="47.79571" lon="-2.44455">
        <ele>54.9</ele>
        <time>2025-02-11T14:24:13Z</time>
      </trkpt>
      <trkpt lat="47.7957" lon="-2.44455">
        <ele>54.7</ele>
        <time>2025-02-11T14:24:14Z</time>
      </trkpt>
      <trkpt lat="47.79569" lon="-2.44455">
        <ele>54.4</ele>
        <time>2025-02-11T14:24:15Z</time>
      </trkpt>
      <trkpt lat="47.79568" lon="-2.44455">
        <ele>54.2</ele>
        <time>2025-02-11T14:24:16Z</time>
      </trkpt>
      <trkpt lat="47.79567" lon="-2.44455">
        <ele>54</ele>
        <time>2025-02-11T14:24:17Z</time>
      </trkpt>
      <trkpt lat="47.79566" lon="-2.44455">
        <ele>53.8</ele>
        <time>2025-02-11T14:24:18Z</time>
      </trkpt>
      <trkpt lat="47.79565" lon="-2.44455">
        <ele>53.6</ele>
        <time>2025-02-11T14:24:19Z</time>
      </trkpt>
      <trkpt lat="47.79564" lon="-2.44455">
        <ele>53.4</ele>
        <time>2025-02-11T14:24:20Z</time>
      </trkpt>
      <trkpt lat="47.79562" lon="-2.44455">
        <ele>53.2</ele>
        <time>2025-02-11T14:24:21Z</time>
      </trkpt>
      <trkpt lat="47.79561" lon="-2.44454">
        <ele>53</ele>
        <time>2025-02-11T14:24:22Z</time>
      </trkpt>
      <trkpt lat="47.7956" lon="-2.44454">
        <ele>52.8</ele>
        <time>2025-02-11T14:24:23Z</time>
      </trkpt>
      <trkpt lat="47.79559" lon="-2.44454">
        <ele>52.6</ele>
        <time>2025-02-11T14:24:24Z</time>
      </trkpt>
      <trkpt lat="47.79558" lon="-2.44454">
        <ele>52.4</ele>
        <time>2025-02-11T14:24:25Z</time>
      </trkpt>
      <trkpt lat="47.79557" lon="-2.44455">
        <ele>52.2</ele>
        <time>2025-02-11T14:24:26Z</time>
      </trkpt>
      <trkpt lat="47.79556" lon="-2.44454">
        <ele>52.1</ele>
        <time>2025-02-11T14:24:27Z</time>
      </trkpt>
      <trkpt lat="47.79555" lon="-2.44454">
        <ele>51.9</ele>
        <time>2025-02-11T14:24:28Z</time>
      </trkpt>
      <trkpt lat="47.79554" lon="-2.44454">
        <ele>51.8</ele>
        <time>2025-02-11T14:24:29Z</time>
      </trkpt>
      <trkpt lat="47.79553" lon="-2.44454">
        <ele>51.7</ele>
        <time>2025-02-11T14:24:30Z</time>
      </trkpt>
      <trkpt lat="47.79551" lon="-2.44454">
        <ele>51.6</ele>
        <time>2025-02-11T14:24:31Z</time>
      </trkpt>
      <trkpt lat="47.7955" lon="-2.44454">
        <ele>51.4</ele>
        <time>2025-02-11T14:24:32Z</time>
      </trkpt>
      <trkpt lat="47.79549" lon="-2.44453">
        <ele>51.3</ele>
        <time>2025-02-11T14:24:33Z</time>
      </trkpt>
      <trkpt lat="47.79548" lon="-2.44453">
        <ele>51.2</ele>
        <time>2025-02-11T14:24:34Z</time>
      </trkpt>
      <trkpt lat="47.79547" lon="-2.44453">
        <ele>51</ele>
        <time>2025-02-11T14:24:35Z</time>
      </trkpt>
      <trkpt lat="47.79545" lon="-2.44452">
        <ele>50.9</ele>
        <time>2025-02-11T14:24:36Z</time>
      </trkpt>
      <trkpt lat="47.79544" lon="-2.44452">
        <ele>50.8</ele>
        <time>2025-02-11T14:24:37Z</time>
      </trkpt>
      <trkpt lat="47.79543" lon="-2.44452">
        <ele>50.6</ele>
        <time>2025-02-11T14:24:38Z</time>
      </trkpt>
      <trkpt lat="47.79542" lon="-2.44451">
        <ele>50.5</ele>
        <time>2025-02-11T14:24:39Z</time>
      </trkpt>
      <trkpt lat="47.79541" lon="-2.44451">
        <ele>50.4</ele>
        <time>2025-02-11T14:24:40Z</time>
      </trkpt>
      <trkpt lat="47.7954" lon="-2.44451">
        <ele>50.3</ele>
        <time>2025-02-11T14:24:41Z</time>
      </trkpt>
      <trkpt lat="47.79538" lon="-2.44451">
        <ele>50.1</ele>
        <time>2025-02-11T14:24:42Z</time>
      </trkpt>
      <trkpt lat="47.79537" lon="-2.44451">
        <ele>50</ele>
        <time>2025-02-11T14:24:43Z</time>
      </trkpt>
      <trkpt lat="47.79536" lon="-2.44451">
        <ele>49.9</ele>
        <time>2025-02-11T14:24:44Z</time>
      </trkpt>
      <trkpt lat="47.79535" lon="-2.4445">
        <ele>49.7</ele>
        <time>2025-02-11T14:24:45Z</time>
      </trkpt>
      <trkpt lat="47.79533" lon="-2.44451">
        <ele>49.6</ele>
        <time>2025-02-11T14:24:46Z</time>
      </trkpt>
      <trkpt lat="47.79532" lon="-2.4445">
        <ele>49.4</ele>
        <time>2025-02-11T14:24:47Z</time>
      </trkpt>
      <trkpt lat="47.79531" lon="-2.4445">
        <ele>49.3</ele>
        <time>2025-02-11T14:24:48Z</time>
      </trkpt>
      <trkpt lat="47.79529" lon="-2.4445">
        <ele>49.2</ele>
        <time>2025-02-11T14:24:49Z</time>
      </trkpt>
      <trkpt lat="47.79528" lon="-2.4445">
        <ele>49</ele>
        <time>2025-02-11T14:24:50Z</time>
      </trkpt>
      <trkpt lat="47.79527" lon="-2.4445">
        <ele>48.9</ele>
        <time>2025-02-11T14:24:51Z</time>
      </trkpt>
      <trkpt lat="47.79526" lon="-2.44449">
        <ele>48.7</ele>
        <time>2025-02-11T14:24:52Z</time>
      </trkpt>
      <trkpt lat="47.79525" lon="-2.44449">
        <ele>48.6</ele>
        <time>2025-02-11T14:24:53Z</time>
      </trkpt>
      <trkpt lat="47.79524" lon="-2.44449">
        <ele>48.4</ele>
        <time>2025-02-11T14:24:54Z</time>
      </trkpt>
      <trkpt lat="47.79522" lon="-2.44449">
        <ele>48.2</ele>
        <time>2025-02-11T14:24:55Z</time>
      </trkpt>
      <trkpt lat="47.79521" lon="-2.44449">
        <ele>48.1</ele>
        <time>2025-02-11T14:24:56Z</time>
      </trkpt>
      <trkpt lat="47.7952" lon="-2.44449">
        <ele>47.9</ele>
        <time>2025-02-11T14:24:57Z</time>
      </trkpt>
      <trkpt lat="47.79519" lon="-2.44448">
        <ele>47.8</ele>
        <time>2025-02-11T14:24:58Z</time>
      </trkpt>
      <trkpt lat="47.79518" lon="-2.44448">
        <ele>47.6</ele>
        <time>2025-02-11T14:24:59Z</time>
      </trkpt>
      <trkpt lat="47.79517" lon="-2.44448">
        <ele>47.5</ele>
        <time>2025-02-11T14:25:00Z</time>
      </trkpt>
      <trkpt lat="47.79516" lon="-2.44448">
        <ele>47.3</ele>
        <time>2025-02-11T14:25:01Z</time>
      </trkpt>
      <trkpt lat="47.79514" lon="-2.44448">
        <ele>47.1</ele>
        <time>2025-02-11T14:25:02Z</time>
      </trkpt>
      <trkpt lat="47.79513" lon="-2.44448">
        <ele>47</ele>
        <time>2025-02-11T14:25:03Z</time>
      </trkpt>
      <trkpt lat="47.79512" lon="-2.44448">
        <ele>46.8</ele>
        <time>2025-02-11T14:25:04Z</time>
      </trkpt>
      <trkpt lat="47.79511" lon="-2.44448">
        <ele>46.6</ele>
        <time>2025-02-11T14:25:05Z</time>
      </trkpt>
      <trkpt lat="47.79509" lon="-2.44448">
        <ele>46.4</ele>
        <time>2025-02-11T14:25:06Z</time>
      </trkpt>
      <trkpt lat="47.79508" lon="-2.44448">
        <ele>46.3</ele>
        <time>2025-02-11T14:25:07Z</time>
      </trkpt>
      <trkpt lat="47.79507" lon="-2.44448">
        <ele>46.1</ele>
        <time>2025-02-11T14:25:08Z</time>
      </trkpt>
      <trkpt lat="47.79506" lon="-2.44448">
        <ele>46</ele>
        <time>2025-02-11T14:25:09Z</time>
      </trkpt>
      <trkpt lat="47.79505" lon="-2.44448">
        <ele>45.8</ele>
        <time>2025-02-11T14:25:10Z</time>
      </trkpt>
      <trkpt lat="47.79503" lon="-2.44447">
        <ele>45.6</ele>
        <time>2025-02-11T14:25:11Z</time>
      </trkpt>
      <trkpt lat="47.79502" lon="-2.44447">
        <ele>45.4</ele>
        <time>2025-02-11T14:25:12Z</time>
      </trkpt>
      <trkpt lat="47.79501" lon="-2.44447">
        <ele>45.2</ele>
        <time>2025-02-11T14:25:13Z</time>
      </trkpt>
      <trkpt lat="47.795" lon="-2.44447">
        <ele>45.1</ele>
        <time>2025-02-11T14:25:14Z</time>
      </trkpt>
      <trkpt lat="47.79499" lon="-2.44446">
        <ele>45</ele>
        <time>2025-02-11T14:25:15Z</time>
      </trkpt>
      <trkpt lat="47.79498" lon="-2.44446">
        <ele>44.9</ele>
        <time>2025-02-11T14:25:16Z</time>
      </trkpt>
      <trkpt lat="47.79497" lon="-2.44446">
        <ele>44.8</ele>
        <time>2025-02-11T14:25:17Z</time>
      </trkpt>
      <trkpt lat="47.79495" lon="-2.44446">
        <ele>44.7</ele>
        <time>2025-02-11T14:25:18Z</time>
      </trkpt>
      <trkpt lat="47.79494" lon="-2.44446">
        <ele>44.6</ele>
        <time>2025-02-11T14:25:19Z</time>
      </trkpt>
      <trkpt lat="47.79493" lon="-2.44446">
        <ele>44.5</ele>
        <time>2025-02-11T14:25:20Z</time>
      </trkpt>
      <trkpt lat="47.79492" lon="-2.44446">
        <ele>44.4</ele>
        <time>2025-02-11T14:25:21Z</time>
      </trkpt>
      <trkpt lat="47.79491" lon="-2.44446">
        <ele>44.3</ele>
        <time>2025-02-11T14:25:22Z</time>
      </trkpt>
      <trkpt lat="47.79489" lon="-2.44446">
        <ele>44.3</ele>
        <time>2025-02-11T14:25:23Z</time>
      </trkpt>
      <trkpt lat="47.79488" lon="-2.44446">
        <ele>44.2</ele>
        <time>2025-02-11T14:25:24Z</time>
      </trkpt>
      <trkpt lat="47.79487" lon="-2.44445">
        <ele>44.1</ele>
        <time>2025-02-11T14:25:25Z</time>
      </trkpt>
      <trkpt lat="47.79486" lon="-2.44445">
        <ele>44</ele>
        <time>2025-02-11T14:25:26Z</time>
      </trkpt>
      <trkpt lat="47.79485" lon="-2.44445">
        <ele>43.9</ele>
        <time>2025-02-11T14:25:27Z</time>
      </trkpt>
      <trkpt lat="47.79483" lon="-2.44445">
        <ele>43.8</ele>
        <time>2025-02-11T14:25:28Z</time>
      </trkpt>
      <trkpt lat="47.79482" lon="-2.44444">
        <ele>43.7</ele>
        <time>2025-02-11T14:25:29Z</time>
      </trkpt>
      <trkpt lat="47.79481" lon="-2.44444">
        <ele>43.6</ele>
        <time>2025-02-11T14:25:30Z</time>
      </trkpt>
      <trkpt lat="47.7948" lon="-2.44444">
        <ele>43.5</ele>
        <time>2025-02-11T14:25:31Z</time>
      </trkpt>
      <trkpt lat="47.79479" lon="-2.44444">
        <ele>43.4</ele>
        <time>2025-02-11T14:25:32Z</time>
      </trkpt>
      <trkpt lat="47.79477" lon="-2.44445">
        <ele>43.4</ele>
        <time>2025-02-11T14:25:33Z</time>
      </trkpt>
      <trkpt lat="47.79476" lon="-2.44445">
        <ele>43.3</ele>
        <time>2025-02-11T14:25:34Z</time>
      </trkpt>
      <trkpt lat="47.79475" lon="-2.44445">
        <ele>43.2</ele>
        <time>2025-02-11T14:25:35Z</time>
      </trkpt>
      <trkpt lat="47.79474" lon="-2.44445">
        <ele>43.1</ele>
        <time>2025-02-11T14:25:36Z</time>
      </trkpt>
      <trkpt lat="47.79473" lon="-2.44445">
        <ele>43</ele>
        <time>2025-02-11T14:25:37Z</time>
      </trkpt>
      <trkpt lat="47.79471" lon="-2.44444">
        <ele>42.9</ele>
        <time>2025-02-11T14:25:38Z</time>
      </trkpt>
      <trkpt lat="47.7947" lon="-2.44445">
        <ele>42.9</ele>
        <time>2025-02-11T14:25:39Z</time>
      </trkpt>
      <trkpt lat="47.79469" lon="-2.44445">
        <ele>42.8</ele>
        <time>2025-02-11T14:25:40Z</time>
      </trkpt>
      <trkpt lat="47.79468" lon="-2.44444">
        <ele>42.7</ele>
        <time>2025-02-11T14:25:41Z</time>
      </trkpt>
      <trkpt lat="47.79467" lon="-2.44444">
        <ele>42.6</ele>
        <time>2025-02-11T14:25:42Z</time>
      </trkpt>
      <trkpt lat="47.79466" lon="-2.44444">
        <ele>42.5</ele>
        <time>2025-02-11T14:25:43Z</time>
      </trkpt>
      <trkpt lat="47.79465" lon="-2.44444">
        <ele>42.4</ele>
        <time>2025-02-11T14:25:44Z</time>
      </trkpt>
      <trkpt lat="47.79463" lon="-2.44444">
        <ele>42.3</ele>
        <time>2025-02-11T14:25:45Z</time>
      </trkpt>
      <trkpt lat="47.79462" lon="-2.44443">
        <ele>42.2</ele>
        <time>2025-02-11T14:25:46Z</time>
      </trkpt>
      <trkpt lat="47.79461" lon="-2.44443">
        <ele>42.2</ele>
        <time>2025-02-11T14:25:47Z</time>
      </trkpt>
      <trkpt lat="47.7946" lon="-2.44444">
        <ele>42.1</ele>
        <time>2025-02-11T14:25:48Z</time>
      </trkpt>
      <trkpt lat="47.79459" lon="-2.44443">
        <ele>42</ele>
        <time>2025-02-11T14:25:49Z</time>
      </trkpt>
      <trkpt lat="47.79457" lon="-2.44442">
        <ele>41.9</ele>
        <time>2025-02-11T14:25:50Z</time>
      </trkpt>
      <trkpt lat="47.79456" lon="-2.44442">
        <ele>41.8</ele>
        <time>2025-02-11T14:25:51Z</time>
      </trkpt>
      <trkpt lat="47.79455" lon="-2.44442">
        <ele>41.7</ele>
        <time>2025-02-11T14:25:52Z</time>
      </trkpt>
      <trkpt lat="47.79454" lon="-2.44442">
        <ele>41.6</ele>
        <time>2025-02-11T14:25:53Z</time>
      </trkpt>
      <trkpt lat="47.79452" lon="-2.44442">
        <ele>41.5</ele>
        <time>2025-02-11T14:25:54Z</time>
      </trkpt>
      <trkpt lat="47.79451" lon="-2.44442">
        <ele>41.5</ele>
        <time>2025-02-11T14:25:55Z</time>
      </trkpt>
      <trkpt lat="47.7945" lon="-2.44441">
        <ele>41.4</ele>
        <time>2025-02-11T14:25:56Z</time>
      </trkpt>
      <trkpt lat="47.79449" lon="-2.44441">
        <ele>41.3</ele>
        <time>2025-02-11T14:25:57Z</time>
      </trkpt>
      <trkpt lat="47.79447" lon="-2.44442">
        <ele>41.2</ele>
        <time>2025-02-11T14:25:58Z</time>
      </trkpt>
      <trkpt lat="47.79446" lon="-2.44442">
        <ele>41.1</ele>
        <time>2025-02-11T14:25:59Z</time>
      </trkpt>
      <trkpt lat="47.79445" lon="-2.44442">
        <ele>41</ele>
        <time>2025-02-11T14:26:00Z</time>
      </trkpt>
      <trkpt lat="47.79444" lon="-2.44442">
        <ele>40.9</ele>
        <time>2025-02-11T14:26:01Z</time>
      </trkpt>
      <trkpt lat="47.79442" lon="-2.44441">
        <ele>40.8</ele>
        <time>2025-02-11T14:26:02Z</time>
      </trkpt>
      <trkpt lat="47.79441" lon="-2.44441">
        <ele>40.8</ele>
        <time>2025-02-11T14:26:03Z</time>
      </trkpt>
      <trkpt lat="47.7944" lon="-2.44441">
        <ele>40.7</ele>
        <time>2025-02-11T14:26:04Z</time>
      </trkpt>
      <trkpt lat="47.79439" lon="-2.4444">
        <ele>40.6</ele>
        <time>2025-02-11T14:26:05Z</time>
      </trkpt>
      <trkpt lat="47.79437" lon="-2.4444">
        <ele>40.5</ele>
        <time>2025-02-11T14:26:06Z</time>
      </trkpt>
      <trkpt lat="47.79436" lon="-2.4444">
        <ele>40.4</ele>
        <time>2025-02-11T14:26:07Z</time>
      </trkpt>
      <trkpt lat="47.79435" lon="-2.4444">
        <ele>40.3</ele>
        <time>2025-02-11T14:26:08Z</time>
      </trkpt>
      <trkpt lat="47.79434" lon="-2.4444">
        <ele>40.2</ele>
        <time>2025-02-11T14:26:09Z</time>
      </trkpt>
      <trkpt lat="47.79432" lon="-2.4444">
        <ele>40.1</ele>
        <time>2025-02-11T14:26:10Z</time>
      </trkpt>
      <trkpt lat="47.79431" lon="-2.4444">
        <ele>40</ele>
        <time>2025-02-11T14:26:11Z</time>
      </trkpt>
      <trkpt lat="47.7943" lon="-2.44439">
        <ele>40</ele>
        <time>2025-02-11T14:26:12Z</time>
      </trkpt>
      <trkpt lat="47.79429" lon="-2.44439">
        <ele>39.9</ele>
        <time>2025-02-11T14:26:13Z</time>
      </trkpt>
      <trkpt lat="47.79427" lon="-2.44439">
        <ele>39.8</ele>
        <time>2025-02-11T14:26:14Z</time>
      </trkpt>
      <trkpt lat="47.79426" lon="-2.44439">
        <ele>39.7</ele>
        <time>2025-02-11T14:26:15Z</time>
      </trkpt>
      <trkpt lat="47.79425" lon="-2.44438">
        <ele>39.6</ele>
        <time>2025-02-11T14:26:16Z</time>
      </trkpt>
      <trkpt lat="47.79423" lon="-2.44438">
        <ele>39.5</ele>
        <time>2025-02-11T14:26:17Z</time>
      </trkpt>
      <trkpt lat="47.79422" lon="-2.44439">
        <ele>39.4</ele>
        <time>2025-02-11T14:26:18Z</time>
      </trkpt>
      <trkpt lat="47.79421" lon="-2.44439">
        <ele>39.3</ele>
        <time>2025-02-11T14:26:19Z</time>
      </trkpt>
      <trkpt lat="47.7942" lon="-2.44438">
        <ele>39.2</ele>
        <time>2025-02-11T14:26:20Z</time>
      </trkpt>
      <trkpt lat="47.79418" lon="-2.44439">
        <ele>39.1</ele>
        <time>2025-02-11T14:26:21Z</time>
      </trkpt>
      <trkpt lat="47.79417" lon="-2.44439">
        <ele>39</ele>
        <time>2025-02-11T14:26:22Z</time>
      </trkpt>
      <trkpt lat="47.79416" lon="-2.44439">
        <ele>38.9</ele>
        <time>2025-02-11T14:26:23Z</time>
      </trkpt>
      <trkpt lat="47.79414" lon="-2.44439">
        <ele>38.8</ele>
        <time>2025-02-11T14:26:24Z</time>
      </trkpt>
      <trkpt lat="47.79413" lon="-2.44439">
        <ele>38.7</ele>
        <time>2025-02-11T14:26:25Z</time>
      </trkpt>
      <trkpt lat="47.79412" lon="-2.44439">
        <ele>38.6</ele>
        <time>2025-02-11T14:26:26Z</time>
      </trkpt>
      <trkpt lat="47.79411" lon="-2.44439">
        <ele>38.6</ele>
        <time>2025-02-11T14:26:27Z</time>
      </trkpt>
      <trkpt lat="47.79409" lon="-2.44439">
        <ele>38.5</ele>
        <time>2025-02-11T14:26:28Z</time>
      </trkpt>
      <trkpt lat="47.79408" lon="-2.44439">
        <ele>38.4</ele>
        <time>2025-02-11T14:26:29Z</time>
      </trkpt>
      <trkpt lat="47.79407" lon="-2.44438">
        <ele>38.3</ele>
        <time>2025-02-11T14:26:30Z</time>
      </trkpt>
      <trkpt lat="47.79405" lon="-2.44438">
        <ele>38.2</ele>
        <time>2025-02-11T14:26:31Z</time>
      </trkpt>
      <trkpt lat="47.79404" lon="-2.44438">
        <ele>38.1</ele>
        <time>2025-02-11T14:26:32Z</time>
      </trkpt>
      <trkpt lat="47.79403" lon="-2.44437">
        <ele>38</ele>
        <time>2025-02-11T14:26:33Z</time>
      </trkpt>
      <trkpt lat="47.79401" lon="-2.44437">
        <ele>37.9</ele>
        <time>2025-02-11T14:26:34Z</time>
      </trkpt>
      <trkpt lat="47.794" lon="-2.44437">
        <ele>37.8</ele>
        <time>2025-02-11T14:26:35Z</time>
      </trkpt>
      <trkpt lat="47.79399" lon="-2.44437">
        <ele>37.7</ele>
        <time>2025-02-11T14:26:36Z</time>
      </trkpt>
      <trkpt lat="47.79397" lon="-2.44437">
        <ele>37.6</ele>
        <time>2025-02-11T14:26:37Z</time>
      </trkpt>
      <trkpt lat="47.79396" lon="-2.44437">
        <ele>37.5</ele>
        <time>2025-02-11T14:26:38Z</time>
      </trkpt>
      <trkpt lat="47.79395" lon="-2.44437">
        <ele>37.4</ele>
        <time>2025-02-11T14:26:39Z</time>
      </trkpt>
      <trkpt lat="47.79394" lon="-2.44437">
        <ele>37.3</ele>
        <time>2025-02-11T14:26:40Z</time>
      </trkpt>
      <trkpt lat="47.79392" lon="-2.44438">
        <ele>37.3</ele>
        <time>2025-02-11T14:26:41Z</time>
      </trkpt>
      <trkpt lat="47.79391" lon="-2.44438">
        <ele>37.2</ele>
        <time>2025-02-11T14:26:42Z</time>
      </trkpt>
      <trkpt lat="47.7939" lon="-2.44437">
        <ele>37</ele>
        <time>2025-02-11T14:26:43Z</time>
      </trkpt>
      <trkpt lat="47.79388" lon="-2.44437">
        <ele>37</ele>
        <time>2025-02-11T14:26:44Z</time>
      </trkpt>
      <trkpt lat="47.79387" lon="-2.44437">
        <ele>36.9</ele>
        <time>2025-02-11T14:26:45Z</time>
      </trkpt>
      <trkpt lat="47.79386" lon="-2.44437">
        <ele>36.9</ele>
        <time>2025-02-11T14:26:46Z</time>
      </trkpt>
      <trkpt lat="47.79385" lon="-2.44436">
        <ele>36.8</ele>
        <time>2025-02-11T14:26:47Z</time>
      </trkpt>
      <trkpt lat="47.79384" lon="-2.44436">
        <ele>36.8</ele>
        <time>2025-02-11T14:26:48Z</time>
      </trkpt>
      <trkpt lat="47.79382" lon="-2.44436">
        <ele>36.8</ele>
        <time>2025-02-11T14:26:49Z</time>
      </trkpt>
      <trkpt lat="47.79381" lon="-2.44436">
        <ele>36.7</ele>
        <time>2025-02-11T14:26:50Z</time>
      </trkpt>
      <trkpt lat="47.7938" lon="-2.44436">
        <ele>36.7</ele>
        <time>2025-02-11T14:26:51Z</time>
      </trkpt>
      <trkpt lat="47.79378" lon="-2.44436">
        <ele>36.6</ele>
        <time>2025-02-11T14:26:52Z</time>
      </trkpt>
      <trkpt lat="47.79377" lon="-2.44437">
        <ele>36.6</ele>
        <time>2025-02-11T14:26:53Z</time>
      </trkpt>
      <trkpt lat="47.79376" lon="-2.44437">
        <ele>36.5</ele>
        <time>2025-02-11T14:26:54Z</time>
      </trkpt>
      <trkpt lat="47.79374" lon="-2.44437">
        <ele>36.5</ele>
        <time>2025-02-11T14:26:55Z</time>
      </trkpt>
      <trkpt lat="47.79373" lon="-2.44436">
        <ele>36.4</ele>
        <time>2025-02-11T14:26:56Z</time>
      </trkpt>
      <trkpt lat="47.79372" lon="-2.44436">
        <ele>36.4</ele>
        <time>2025-02-11T14:26:57Z</time>
      </trkpt>
      <trkpt lat="47.79371" lon="-2.44435">
        <ele>36.3</ele>
        <time>2025-02-11T14:26:58Z</time>
      </trkpt>
      <trkpt lat="47.79369" lon="-2.44435">
        <ele>36.3</ele>
        <time>2025-02-11T14:26:59Z</time>
      </trkpt>
      <trkpt lat="47.79368" lon="-2.44435">
        <ele>36.3</ele>
        <time>2025-02-11T14:27:00Z</time>
      </trkpt>
      <trkpt lat="47.79367" lon="-2.44434">
        <ele>36.2</ele>
        <time>2025-02-11T14:27:01Z</time>
      </trkpt>
      <trkpt lat="47.79366" lon="-2.44435">
        <ele>36.2</ele>
        <time>2025-02-11T14:27:02Z</time>
      </trkpt>
      <trkpt lat="47.79365" lon="-2.44434">
        <ele>36.1</ele>
        <time>2025-02-11T14:27:03Z</time>
      </trkpt>
      <trkpt lat="47.79363" lon="-2.44434">
        <ele>36.1</ele>
        <time>2025-02-11T14:27:04Z</time>
      </trkpt>
      <trkpt lat="47.79362" lon="-2.44434">
        <ele>36</ele>
        <time>2025-02-11T14:27:05Z</time>
      </trkpt>
      <trkpt lat="47.79361" lon="-2.44434">
        <ele>36</ele>
        <time>2025-02-11T14:27:06Z</time>
      </trkpt>
      <trkpt lat="47.7936" lon="-2.44434">
        <ele>35.9</ele>
        <time>2025-02-11T14:27:07Z</time>
      </trkpt>
      <trkpt lat="47.79359" lon="-2.44434">
        <ele>35.8</ele>
        <time>2025-02-11T14:27:08Z</time>
      </trkpt>
      <trkpt lat="47.79357" lon="-2.44433">
        <ele>35.7</ele>
        <time>2025-02-11T14:27:09Z</time>
      </trkpt>
      <trkpt lat="47.79356" lon="-2.44433">
        <ele>35.6</ele>
        <time>2025-02-11T14:27:10Z</time>
      </trkpt>
      <trkpt lat="47.79355" lon="-2.44433">
        <ele>35.6</ele>
        <time>2025-02-11T14:27:11Z</time>
      </trkpt>
      <trkpt lat="47.79354" lon="-2.44433">
        <ele>35.5</ele>
        <time>2025-02-11T14:27:12Z</time>
      </trkpt>
      <trkpt lat="47.79352" lon="-2.44433">
        <ele>35.4</ele>
        <time>2025-02-11T14:27:13Z</time>
      </trkpt>
      <trkpt lat="47.79351" lon="-2.44432">
        <ele>35.3</ele>
        <time>2025-02-11T14:27:14Z</time>
      </trkpt>
      <trkpt lat="47.7935" lon="-2.44432">
        <ele>35.2</ele>
        <time>2025-02-11T14:27:15Z</time>
      </trkpt>
      <trkpt lat="47.79348" lon="-2.44433">
        <ele>35.1</ele>
        <time>2025-02-11T14:27:16Z</time>
      </trkpt>
      <trkpt lat="47.79347" lon="-2.44433">
        <ele>35</ele>
        <time>2025-02-11T14:27:17Z</time>
      </trkpt>
      <trkpt lat="47.79346" lon="-2.44433">
        <ele>34.9</ele>
        <time>2025-02-11T14:27:18Z</time>
      </trkpt>
      <trkpt lat="47.79345" lon="-2.44433">
        <ele>34.8</ele>
        <time>2025-02-11T14:27:19Z</time>
      </trkpt>
      <trkpt lat="47.79343" lon="-2.44432">
        <ele>34.7</ele>
        <time>2025-02-11T14:27:20Z</time>
      </trkpt>
      <trkpt lat="47.79342" lon="-2.44432">
        <ele>34.6</ele>
        <time>2025-02-11T14:27:21Z</time>
      </trkpt>
      <trkpt lat="47.7934" lon="-2.44432">
        <ele>34.5</ele>
        <time>2025-02-11T14:27:22Z</time>
      </trkpt>
      <trkpt lat="47.79339" lon="-2.44432">
        <ele>34.4</ele>
        <time>2025-02-11T14:27:23Z</time>
      </trkpt>
      <trkpt lat="47.79338" lon="-2.44432">
        <ele>34.3</ele>
        <time>2025-02-11T14:27:24Z</time>
      </trkpt>
      <trkpt lat="47.79336" lon="-2.44432">
        <ele>34.2</ele>
        <time>2025-02-11T14:27:25Z</time>
      </trkpt>
      <trkpt lat="47.79335" lon="-2.44431">
        <ele>34.1</ele>
        <time>2025-02-11T14:27:26Z</time>
      </trkpt>
      <trkpt lat="47.79334" lon="-2.44432">
        <ele>34</ele>
        <time>2025-02-11T14:27:27Z</time>
      </trkpt>
      <trkpt lat="47.79333" lon="-2.44432">
        <ele>33.9</ele>
        <time>2025-02-11T14:27:28Z</time>
      </trkpt>
      <trkpt lat="47.79331" lon="-2.44432">
        <ele>33.8</ele>
        <time>2025-02-11T14:27:29Z</time>
      </trkpt>
      <trkpt lat="47.7933" lon="-2.44432">
        <ele>33.8</ele>
        <time>2025-02-11T14:27:30Z</time>
      </trkpt>
      <trkpt lat="47.79329" lon="-2.44432">
        <ele>33.7</ele>
        <time>2025-02-11T14:27:31Z</time>
      </trkpt>
      <trkpt lat="47.79328" lon="-2.44432">
        <ele>33.6</ele>
        <time>2025-02-11T14:27:32Z</time>
      </trkpt>
      <trkpt lat="47.79326" lon="-2.44431">
        <ele>33.5</ele>
        <time>2025-02-11T14:27:33Z</time>
      </trkpt>
      <trkpt lat="47.79325" lon="-2.44431">
        <ele>33.4</ele>
        <time>2025-02-11T14:27:34Z</time>
      </trkpt>
      <trkpt lat="47.79324" lon="-2.44431">
        <ele>33.3</ele>
        <time>2025-02-11T14:27:35Z</time>
      </trkpt>
      <trkpt lat="47.79323" lon="-2.4443">
        <ele>33.2</ele>
        <time>2025-02-11T14:27:36Z</time>
      </trkpt>
      <trkpt lat="47.79322" lon="-2.4443">
        <ele>33.2</ele>
        <time>2025-02-11T14:27:37Z</time>
      </trkpt>
      <trkpt lat="47.79321" lon="-2.4443">
        <ele>33.1</ele>
        <time>2025-02-11T14:27:38Z</time>
      </trkpt>
      <trkpt lat="47.79319" lon="-2.4443">
        <ele>33</ele>
        <time>2025-02-11T14:27:39Z</time>
      </trkpt>
      <trkpt lat="47.79318" lon="-2.4443">
        <ele>32.9</ele>
        <time>2025-02-11T14:27:40Z</time>
      </trkpt>
      <trkpt lat="47.79317" lon="-2.4443">
        <ele>32.8</ele>
        <time>2025-02-11T14:27:41Z</time>
      </trkpt>
      <trkpt lat="47.79315" lon="-2.4443">
        <ele>32.7</ele>
        <time>2025-02-11T14:27:42Z</time>
      </trkpt>
      <trkpt lat="47.79314" lon="-2.4443">
        <ele>32.6</ele>
        <time>2025-02-11T14:27:43Z</time>
      </trkpt>
      <trkpt lat="47.79313" lon="-2.4443">
        <ele>32.5</ele>
        <time>2025-02-11T14:27:44Z</time>
      </trkpt>
      <trkpt lat="47.79312" lon="-2.4443">
        <ele>32.4</ele>
        <time>2025-02-11T14:27:45Z</time>
      </trkpt>
      <trkpt lat="47.7931" lon="-2.44429">
        <ele>32.3</ele>
        <time>2025-02-11T14:27:46Z</time>
      </trkpt>
      <trkpt lat="47.79309" lon="-2.44429">
        <ele>32.3</ele>
        <time>2025-02-11T14:27:47Z</time>
      </trkpt>
      <trkpt lat="47.79308" lon="-2.44429">
        <ele>32.2</ele>
        <time>2025-02-11T14:27:48Z</time>
      </trkpt>
      <trkpt lat="47.79307" lon="-2.44429">
        <ele>32.1</ele>
        <time>2025-02-11T14:27:49Z</time>
      </trkpt>
      <trkpt lat="47.79306" lon="-2.44428">
        <ele>32</ele>
        <time>2025-02-11T14:27:50Z</time>
      </trkpt>
      <trkpt lat="47.79305" lon="-2.44428">
        <ele>32</ele>
        <time>2025-02-11T14:27:51Z</time>
      </trkpt>
      <trkpt lat="47.79303" lon="-2.44429">
        <ele>31.9</ele>
        <time>2025-02-11T14:27:52Z</time>
      </trkpt>
      <trkpt lat="47.79302" lon="-2.44429">
        <ele>31.9</ele>
        <time>2025-02-11T14:27:53Z</time>
      </trkpt>
      <trkpt lat="47.79301" lon="-2.44428">
        <ele>31.8</ele>
        <time>2025-02-11T14:27:54Z</time>
      </trkpt>
      <trkpt lat="47.793" lon="-2.44428">
        <ele>31.8</ele>
        <time>2025-02-11T14:27:55Z</time>
      </trkpt>
      <trkpt lat="47.79299" lon="-2.44428">
        <ele>31.7</ele>
        <time>2025-02-11T14:27:56Z</time>
      </trkpt>
      <trkpt lat="47.79297" lon="-2.44428">
        <ele>31.7</ele>
        <time>2025-02-11T14:27:57Z</time>
      </trkpt>
      <trkpt lat="47.79296" lon="-2.44427">
        <ele>31.7</ele>
        <time>2025-02-11T14:27:58Z</time>
      </trkpt>
      <trkpt lat="47.79295" lon="-2.44427">
        <ele>31.6</ele>
        <time>2025-02-11T14:27:59Z</time>
      </trkpt>
      <trkpt lat="47.79294" lon="-2.44427">
        <ele>31.6</ele>
        <time>2025-02-11T14:28:00Z</time>
      </trkpt>
      <trkpt lat="47.79292" lon="-2.44427">
        <ele>31.5</ele>
        <time>2025-02-11T14:28:01Z</time>
      </trkpt>
      <trkpt lat="47.79291" lon="-2.44427">
        <ele>31.5</ele>
        <time>2025-02-11T14:28:02Z</time>
      </trkpt>
      <trkpt lat="47.7929" lon="-2.44428">
        <ele>31.4</ele>
        <time>2025-02-11T14:28:03Z</time>
      </trkpt>
      <trkpt lat="47.79288" lon="-2.44428">
        <ele>31.4</ele>
        <time>2025-02-11T14:28:04Z</time>
      </trkpt>
      <trkpt lat="47.79287" lon="-2.44428">
        <ele>31.3</ele>
        <time>2025-02-11T14:28:05Z</time>
      </trkpt>
      <trkpt lat="47.79286" lon="-2.44429">
        <ele>31.3</ele>
        <time>2025-02-11T14:28:06Z</time>
      </trkpt>
      <trkpt lat="47.79285" lon="-2.44429">
        <ele>31.2</ele>
        <time>2025-02-11T14:28:07Z</time>
      </trkpt>
      <trkpt lat="47.79283" lon="-2.44429">
        <ele>31.2</ele>
        <time>2025-02-11T14:28:08Z</time>
      </trkpt>
      <trkpt lat="47.79282" lon="-2.4443">
        <ele>31.2</ele>
        <time>2025-02-11T14:28:09Z</time>
      </trkpt>
      <trkpt lat="47.79281" lon="-2.4443">
        <ele>31.1</ele>
        <time>2025-02-11T14:28:10Z</time>
      </trkpt>
      <trkpt lat="47.7928" lon="-2.44431">
        <ele>31.1</ele>
        <time>2025-02-11T14:28:11Z</time>
      </trkpt>
      <trkpt lat="47.79279" lon="-2.44432">
        <ele>31</ele>
        <time>2025-02-11T14:28:12Z</time>
      </trkpt>
      <trkpt lat="47.79278" lon="-2.44434">
        <ele>31</ele>
        <time>2025-02-11T14:28:13Z</time>
      </trkpt>
      <trkpt lat="47.79278" lon="-2.44435">
        <ele>31</ele>
        <time>2025-02-11T14:28:14Z</time>
      </trkpt>
      <trkpt lat="47.79277" lon="-2.44436">
        <ele>31</ele>
        <time>2025-02-11T14:28:15Z</time>
      </trkpt>
      <trkpt lat="47.79276" lon="-2.44437">
        <ele>30.9</ele>
        <time>2025-02-11T14:28:16Z</time>
      </trkpt>
      <trkpt lat="47.79276" lon="-2.44439">
        <ele>30.9</ele>
        <time>2025-02-11T14:28:17Z</time>
      </trkpt>
      <trkpt lat="47.79276" lon="-2.4444">
        <ele>30.9</ele>
        <time>2025-02-11T14:28:18Z</time>
      </trkpt>
      <trkpt lat="47.79276" lon="-2.44442">
        <ele>30.9</ele>
        <time>2025-02-11T14:28:19Z</time>
      </trkpt>
      <trkpt lat="47.79277" lon="-2.44444">
        <ele>31</ele>
        <time>2025-02-11T14:28:20Z</time>
      </trkpt>
      <trkpt lat="47.79277" lon="-2.44445">
        <ele>31</ele>
        <time>2025-02-11T14:28:21Z</time>
      </trkpt>
      <trkpt lat="47.79276" lon="-2.44447">
        <ele>31</ele>
        <time>2025-02-11T14:28:22Z</time>
      </trkpt>
      <trkpt lat="47.79276" lon="-2.44449">
        <ele>31.1</ele>
        <time>2025-02-11T14:28:23Z</time>
      </trkpt>
      <trkpt lat="47.79276" lon="-2.4445">
        <ele>31.1</ele>
        <time>2025-02-11T14:28:24Z</time>
      </trkpt>
      <trkpt lat="47.79276" lon="-2.44452">
        <ele>31.2</ele>
        <time>2025-02-11T14:28:25Z</time>
      </trkpt>
      <trkpt lat="47.79276" lon="-2.44453">
        <ele>31.2</ele>
        <time>2025-02-11T14:28:26Z</time>
      </trkpt>
      <trkpt lat="47.79275" lon="-2.44455">
        <ele>31.3</ele>
        <time>2025-02-11T14:28:27Z</time>
      </trkpt>
      <trkpt lat="47.79276" lon="-2.44457">
        <ele>31.4</ele>
        <time>2025-02-11T14:28:28Z</time>
      </trkpt>
      <trkpt lat="47.79276" lon="-2.44459">
        <ele>31.4</ele>
        <time>2025-02-11T14:28:29Z</time>
      </trkpt>
      <trkpt lat="47.79276" lon="-2.44461">
        <ele>31.5</ele>
        <time>2025-02-11T14:28:30Z</time>
      </trkpt>
      <trkpt lat="47.79275" lon="-2.44462">
        <ele>31.6</ele>
        <time>2025-02-11T14:28:31Z</time>
      </trkpt>
      <trkpt lat="47.79275" lon="-2.44464">
        <ele>31.6</ele>
        <time>2025-02-11T14:28:32Z</time>
      </trkpt>
      <trkpt lat="47.79275" lon="-2.44465">
        <ele>31.6</ele>
        <time>2025-02-11T14:28:33Z</time>
      </trkpt>
      <trkpt lat="47.79275" lon="-2.44467">
        <ele>31.7</ele>
        <time>2025-02-11T14:28:34Z</time>
      </trkpt>
      <trkpt lat="47.79275" lon="-2.44469">
        <ele>31.8</ele>
        <time>2025-02-11T14:28:35Z</time>
      </trkpt>
      <trkpt lat="47.79274" lon="-2.44471">
        <ele>31.8</ele>
        <time>2025-02-11T14:28:36Z</time>
      </trkpt>
      <trkpt lat="47.79274" lon="-2.44472">
        <ele>31.9</ele>
        <time>2025-02-11T14:28:37Z</time>
      </trkpt>
      <trkpt lat="47.79274" lon="-2.44474">
        <ele>31.9</ele>
        <time>2025-02-11T14:28:38Z</time>
      </trkpt>
      <trkpt lat="47.79274" lon="-2.44476">
        <ele>31.9</ele>
        <time>2025-02-11T14:28:39Z</time>
      </trkpt>
      <trkpt lat="47.79274" lon="-2.44478">
        <ele>31.9</ele>
        <time>2025-02-11T14:28:40Z</time>
      </trkpt>
      <trkpt lat="47.79274" lon="-2.44479">
        <ele>31.8</ele>
        <time>2025-02-11T14:28:41Z</time>
      </trkpt>
      <trkpt lat="47.79274" lon="-2.44481">
        <ele>31.8</ele>
        <time>2025-02-11T14:28:42Z</time>
      </trkpt>
      <trkpt lat="47.79273" lon="-2.44483">
        <ele>31.8</ele>
        <time>2025-02-11T14:28:43Z</time>
      </trkpt>
      <trkpt lat="47.79273" lon="-2.44485">
        <ele>31.8</ele>
        <time>2025-02-11T14:28:44Z</time>
      </trkpt>
      <trkpt lat="47.79273" lon="-2.44487">
        <ele>31.8</ele>
        <time>2025-02-11T14:28:45Z</time>
      </trkpt>
      <trkpt lat="47.79273" lon="-2.44489">
        <ele>31.8</ele>
        <time>2025-02-11T14:28:46Z</time>
      </trkpt>
      <trkpt lat="47.79272" lon="-2.44491">
        <ele>31.8</ele>
        <time>2025-02-11T14:28:47Z</time>
      </trkpt>
      <trkpt lat="47.79272" lon="-2.44493">
        <ele>31.8</ele>
        <time>2025-02-11T14:28:48Z</time>
      </trkpt>
      <trkpt lat="47.79272" lon="-2.44494">
        <ele>31.8</ele>
        <time>2025-02-11T14:28:49Z</time>
      </trkpt>
      <trkpt lat="47.79272" lon="-2.44496">
        <ele>31.8</ele>
        <time>2025-02-11T14:28:50Z</time>
      </trkpt>
      <trkpt lat="47.79271" lon="-2.44498">
        <ele>31.8</ele>
        <time>2025-02-11T14:28:51Z</time>
      </trkpt>
      <trkpt lat="47.79271" lon="-2.44499">
        <ele>31.8</ele>
        <time>2025-02-11T14:28:52Z</time>
      </trkpt>
      <trkpt lat="47.79271" lon="-2.44501">
        <ele>31.8</ele>
        <time>2025-02-11T14:28:53Z</time>
      </trkpt>
      <trkpt lat="47.79271" lon="-2.44503">
        <ele>31.8</ele>
        <time>2025-02-11T14:28:54Z</time>
      </trkpt>
      <trkpt lat="47.79271" lon="-2.44504">
        <ele>31.9</ele>
        <time>2025-02-11T14:28:55Z</time>
      </trkpt>
      <trkpt lat="47.79271" lon="-2.44506">
        <ele>32</ele>
        <time>2025-02-11T14:28:56Z</time>
      </trkpt>
      <trkpt lat="47.7927" lon="-2.44508">
        <ele>32</ele>
        <time>2025-02-11T14:28:57Z</time>
      </trkpt>
      <trkpt lat="47.7927" lon="-2.44509">
        <ele>32.1</ele>
        <time>2025-02-11T14:28:58Z</time>
      </trkpt>
      <trkpt lat="47.7927" lon="-2.44511">
        <ele>32.1</ele>
        <time>2025-02-11T14:28:59Z</time>
      </trkpt>
      <trkpt lat="47.7927" lon="-2.44513">
        <ele>32.2</ele>
        <time>2025-02-11T14:29:00Z</time>
      </trkpt>
      <trkpt lat="47.79269" lon="-2.44514">
        <ele>32.2</ele>
        <time>2025-02-11T14:29:01Z</time>
      </trkpt>
      <trkpt lat="47.79269" lon="-2.44516">
        <ele>32.3</ele>
        <time>2025-02-11T14:29:02Z</time>
      </trkpt>
      <trkpt lat="47.79269" lon="-2.44518">
        <ele>32.3</ele>
        <time>2025-02-11T14:29:03Z</time>
      </trkpt>
      <trkpt lat="47.79269" lon="-2.4452">
        <ele>32.4</ele>
        <time>2025-02-11T14:29:04Z</time>
      </trkpt>
      <trkpt lat="47.79269" lon="-2.44522">
        <ele>32.4</ele>
        <time>2025-02-11T14:29:05Z</time>
      </trkpt>
      <trkpt lat="47.79268" lon="-2.44523">
        <ele>32.5</ele>
        <time>2025-02-11T14:29:06Z</time>
      </trkpt>
      <trkpt lat="47.79268" lon="-2.44525">
        <ele>32.5</ele>
        <time>2025-02-11T14:29:07Z</time>
      </trkpt>
      <trkpt lat="47.79268" lon="-2.44527">
        <ele>32.6</ele>
        <time>2025-02-11T14:29:08Z</time>
      </trkpt>
      <trkpt lat="47.79268" lon="-2.44529">
        <ele>32.7</ele>
        <time>2025-02-11T14:29:09Z</time>
      </trkpt>
      <trkpt lat="47.79268" lon="-2.4453">
        <ele>32.7</ele>
        <time>2025-02-11T14:29:10Z</time>
      </trkpt>
      <trkpt lat="47.79267" lon="-2.44532">
        <ele>32.8</ele>
        <time>2025-02-11T14:29:11Z</time>
      </trkpt>
      <trkpt lat="47.79267" lon="-2.44534">
        <ele>32.9</ele>
        <time>2025-02-11T14:29:12Z</time>
      </trkpt>
      <trkpt lat="47.79267" lon="-2.44536">
        <ele>32.9</ele>
        <time>2025-02-11T14:29:13Z</time>
      </trkpt>
      <trkpt lat="47.79267" lon="-2.44538">
        <ele>33</ele>
        <time>2025-02-11T14:29:14Z</time>
      </trkpt>
      <trkpt lat="47.79267" lon="-2.4454">
        <ele>33.1</ele>
        <time>2025-02-11T14:29:15Z</time>
      </trkpt>
      <trkpt lat="47.79267" lon="-2.44542">
        <ele>33.1</ele>
        <time>2025-02-11T14:29:16Z</time>
      </trkpt>
      <trkpt lat="47.79267" lon="-2.44543">
        <ele>33.2</ele>
        <time>2025-02-11T14:29:17Z</time>
      </trkpt>
      <trkpt lat="47.79267" lon="-2.44545">
        <ele>33.2</ele>
        <time>2025-02-11T14:29:18Z</time>
      </trkpt>
      <trkpt lat="47.79267" lon="-2.44547">
        <ele>33.3</ele>
        <time>2025-02-11T14:29:19Z</time>
      </trkpt>
      <trkpt lat="47.79267" lon="-2.44548">
        <ele>33.3</ele>
        <time>2025-02-11T14:29:20Z</time>
      </trkpt>
      <trkpt lat="47.79267" lon="-2.4455">
        <ele>33.4</ele>
        <time>2025-02-11T14:29:21Z</time>
      </trkpt>
      <trkpt lat="47.79267" lon="-2.44552">
        <ele>33.5</ele>
        <time>2025-02-11T14:29:22Z</time>
      </trkpt>
      <trkpt lat="47.79267" lon="-2.44554">
        <ele>33.5</ele>
        <time>2025-02-11T14:29:23Z</time>
      </trkpt>
      <trkpt lat="47.79267" lon="-2.44556">
        <ele>33.6</ele>
        <time>2025-02-11T14:29:24Z</time>
      </trkpt>
      <trkpt lat="47.79267" lon="-2.44557">
        <ele>33.6</ele>
        <time>2025-02-11T14:29:25Z</time>
      </trkpt>
      <trkpt lat="47.79267" lon="-2.44559">
        <ele>33.6</ele>
        <time>2025-02-11T14:29:26Z</time>
      </trkpt>
      <trkpt lat="47.79266" lon="-2.44561">
        <ele>33.6</ele>
        <time>2025-02-11T14:29:27Z</time>
      </trkpt>
      <trkpt lat="47.79266" lon="-2.44563">
        <ele>33.6</ele>
        <time>2025-02-11T14:29:28Z</time>
      </trkpt>
      <trkpt lat="47.79267" lon="-2.44564">
        <ele>33.6</ele>
        <time>2025-02-11T14:29:29Z</time>
      </trkpt>
      <trkpt lat="47.79267" lon="-2.44566">
        <ele>33.6</ele>
        <time>2025-02-11T14:29:30Z</time>
      </trkpt>
      <trkpt lat="47.79267" lon="-2.44568">
        <ele>33.6</ele>
        <time>2025-02-11T14:29:31Z</time>
      </trkpt>
      <trkpt lat="47.79266" lon="-2.4457">
        <ele>33.6</ele>
        <time>2025-02-11T14:29:32Z</time>
      </trkpt>
      <trkpt lat="47.79266" lon="-2.44571">
        <ele>33.6</ele>
        <time>2025-02-11T14:29:33Z</time>
      </trkpt>
      <trkpt lat="47.79266" lon="-2.44573">
        <ele>33.6</ele>
        <time>2025-02-11T14:29:34Z</time>
      </trkpt>
      <trkpt lat="47.79266" lon="-2.44575">
        <ele>33.6</ele>
        <time>2025-02-11T14:29:35Z</time>
      </trkpt>
      <trkpt lat="47.79266" lon="-2.44577">
        <ele>33.6</ele>
        <time>2025-02-11T14:29:36Z</time>
      </trkpt>
      <trkpt lat="47.79267" lon="-2.44578">
        <ele>33.6</ele>
        <time>2025-02-11T14:29:37Z</time>
      </trkpt>
      <trkpt lat="47.79267" lon="-2.4458">
        <ele>33.6</ele>
        <time>2025-02-11T14:29:38Z</time>
      </trkpt>
      <trkpt lat="47.79267" lon="-2.44582">
        <ele>33.6</ele>
        <time>2025-02-11T14:29:39Z</time>
      </trkpt>
      <trkpt lat="47.79266" lon="-2.44584">
        <ele>33.6</ele>
        <time>2025-02-11T14:29:40Z</time>
      </trkpt>
      <trkpt lat="47.79266" lon="-2.44586">
        <ele>33.6</ele>
        <time>2025-02-11T14:29:41Z</time>
      </trkpt>
      <trkpt lat="47.79266" lon="-2.44587">
        <ele>33.7</ele>
        <time>2025-02-11T14:29:42Z</time>
      </trkpt>
      <trkpt lat="47.79266" lon="-2.44589">
        <ele>33.7</ele>
        <time>2025-02-11T14:29:43Z</time>
      </trkpt>
      <trkpt lat="47.79266" lon="-2.44591">
        <ele>33.7</ele>
        <time>2025-02-11T14:29:44Z</time>
      </trkpt>
      <trkpt lat="47.79266" lon="-2.44593">
        <ele>33.8</ele>
        <time>2025-02-11T14:29:45Z</time>
      </trkpt>
      <trkpt lat="47.79266" lon="-2.44595">
        <ele>33.8</ele>
        <time>2025-02-11T14:29:46Z</time>
      </trkpt>
      <trkpt lat="47.79266" lon="-2.44597">
        <ele>33.9</ele>
        <time>2025-02-11T14:29:47Z</time>
      </trkpt>
      <trkpt lat="47.79266" lon="-2.44598">
        <ele>33.9</ele>
        <time>2025-02-11T14:29:48Z</time>
      </trkpt>
      <trkpt lat="47.79266" lon="-2.446">
        <ele>33.9</ele>
        <time>2025-02-11T14:29:49Z</time>
      </trkpt>
      <trkpt lat="47.79266" lon="-2.44602">
        <ele>33.9</ele>
        <time>2025-02-11T14:29:50Z</time>
      </trkpt>
      <trkpt lat="47.79266" lon="-2.44603">
        <ele>34</ele>
        <time>2025-02-11T14:29:51Z</time>
      </trkpt>
      <trkpt lat="47.79266" lon="-2.44605">
        <ele>34</ele>
        <time>2025-02-11T14:29:52Z</time>
      </trkpt>
      <trkpt lat="47.79266" lon="-2.44607">
        <ele>34.1</ele>
        <time>2025-02-11T14:29:53Z</time>
      </trkpt>
      <trkpt lat="47.79266" lon="-2.44608">
        <ele>34.1</ele>
        <time>2025-02-11T14:29:54Z</time>
      </trkpt>
      <trkpt lat="47.79266" lon="-2.4461">
        <ele>34.1</ele>
        <time>2025-02-11T14:29:55Z</time>
      </trkpt>
      <trkpt lat="47.79266" lon="-2.44612">
        <ele>34.2</ele>
        <time>2025-02-11T14:29:56Z</time>
      </trkpt>
      <trkpt lat="47.79267" lon="-2.44613">
        <ele>34.2</ele>
        <time>2025-02-11T14:29:57Z</time>
      </trkpt>
      <trkpt lat="47.79267" lon="-2.44615">
        <ele>34.3</ele>
        <time>2025-02-11T14:29:58Z</time>
      </trkpt>
      <trkpt lat="47.79267" lon="-2.44617">
        <ele>34.3</ele>
        <time>2025-02-11T14:29:59Z</time>
      </trkpt>
      <trkpt lat="47.79267" lon="-2.44619">
        <ele>34.4</ele>
        <time>2025-02-11T14:30:00Z</time>
      </trkpt>
      <trkpt lat="47.79268" lon="-2.44621">
        <ele>34.4</ele>
        <time>2025-02-11T14:30:01Z</time>
      </trkpt>
      <trkpt lat="47.79267" lon="-2.44622">
        <ele>34.4</ele>
        <time>2025-02-11T14:30:02Z</time>
      </trkpt>
      <trkpt lat="47.79267" lon="-2.44624">
        <ele>34.4</ele>
        <time>2025-02-11T14:30:03Z</time>
      </trkpt>
      <trkpt lat="47.79267" lon="-2.44626">
        <ele>34.4</ele>
        <time>2025-02-11T14:30:04Z</time>
      </trkpt>
      <trkpt lat="47.79267" lon="-2.44628">
        <ele>34.5</ele>
        <time>2025-02-11T14:30:05Z</time>
      </trkpt>
      <trkpt lat="47.79267" lon="-2.4463">
        <ele>34.5</ele>
        <time>2025-02-11T14:30:06Z</time>
      </trkpt>
      <trkpt lat="47.79267" lon="-2.44631">
        <ele>34.5</ele>
        <time>2025-02-11T14:30:07Z</time>
      </trkpt>
      <trkpt lat="47.79267" lon="-2.44633">
        <ele>34.5</ele>
        <time>2025-02-11T14:30:08Z</time>
      </trkpt>
      <trkpt lat="47.79267" lon="-2.44635">
        <ele>34.6</ele>
        <time>2025-02-11T14:30:09Z</time>
      </trkpt>
      <trkpt lat="47.79267" lon="-2.44637">
        <ele>34.6</ele>
        <time>2025-02-11T14:30:10Z</time>
      </trkpt>
      <trkpt lat="47.79267" lon="-2.44639">
        <ele>34.6</ele>
        <time>2025-02-11T14:30:11Z</time>
      </trkpt>
      <trkpt lat="47.79267" lon="-2.44641">
        <ele>34.7</ele>
        <time>2025-02-11T14:30:12Z</time>
      </trkpt>
      <trkpt lat="47.79267" lon="-2.44643">
        <ele>34.7</ele>
        <time>2025-02-11T14:30:13Z</time>
      </trkpt>
      <trkpt lat="47.79267" lon="-2.44644">
        <ele>34.7</ele>
        <time>2025-02-11T14:30:14Z</time>
      </trkpt>
      <trkpt lat="47.79267" lon="-2.44646">
        <ele>34.8</ele>
        <time>2025-02-11T14:30:15Z</time>
      </trkpt>
      <trkpt lat="47.79267" lon="-2.44648">
        <ele>34.8</ele>
        <time>2025-02-11T14:30:16Z</time>
      </trkpt>
      <trkpt lat="47.79267" lon="-2.4465">
        <ele>34.9</ele>
        <time>2025-02-11T14:30:17Z</time>
      </trkpt>
      <trkpt lat="47.79268" lon="-2.44652">
        <ele>34.9</ele>
        <time>2025-02-11T14:30:18Z</time>
      </trkpt>
      <trkpt lat="47.79268" lon="-2.44653">
        <ele>35</ele>
        <time>2025-02-11T14:30:19Z</time>
      </trkpt>
      <trkpt lat="47.79268" lon="-2.44655">
        <ele>35</ele>
        <time>2025-02-11T14:30:20Z</time>
      </trkpt>
      <trkpt lat="47.79268" lon="-2.44657">
        <ele>35</ele>
        <time>2025-02-11T14:30:21Z</time>
      </trkpt>
      <trkpt lat="47.79267" lon="-2.44659">
        <ele>35.1</ele>
        <time>2025-02-11T14:30:22Z</time>
      </trkpt>
      <trkpt lat="47.79267" lon="-2.4466">
        <ele>35.1</ele>
        <time>2025-02-11T14:30:23Z</time>
      </trkpt>
      <trkpt lat="47.79267" lon="-2.44662">
        <ele>35.1</ele>
        <time>2025-02-11T14:30:24Z</time>
      </trkpt>
      <trkpt lat="47.79267" lon="-2.44664">
        <ele>35.2</ele>
        <time>2025-02-11T14:30:25Z</time>
      </trkpt>
      <trkpt lat="47.79267" lon="-2.44666">
        <ele>35.2</ele>
        <time>2025-02-11T14:30:26Z</time>
      </trkpt>
      <trkpt lat="47.79267" lon="-2.44668">
        <ele>35.3</ele>
        <time>2025-02-11T14:30:27Z</time>
      </trkpt>
      <trkpt lat="47.79267" lon="-2.4467">
        <ele>35.3</ele>
        <time>2025-02-11T14:30:28Z</time>
      </trkpt>
      <trkpt lat="47.79267" lon="-2.44671">
        <ele>35.4</ele>
        <time>2025-02-11T14:30:29Z</time>
      </trkpt>
      <trkpt lat="47.79267" lon="-2.44673">
        <ele>35.5</ele>
        <time>2025-02-11T14:30:30Z</time>
      </trkpt>
      <trkpt lat="47.79267" lon="-2.44675">
        <ele>35.5</ele>
        <time>2025-02-11T14:30:31Z</time>
      </trkpt>
      <trkpt lat="47.79267" lon="-2.44677">
        <ele>35.6</ele>
        <time>2025-02-11T14:30:32Z</time>
      </trkpt>
      <trkpt lat="47.79267" lon="-2.44679">
        <ele>35.6</ele>
        <time>2025-02-11T14:30:33Z</time>
      </trkpt>
      <trkpt lat="47.79267" lon="-2.44681">
        <ele>35.7</ele>
        <time>2025-02-11T14:30:34Z</time>
      </trkpt>
      <trkpt lat="47.79267" lon="-2.44683">
        <ele>35.8</ele>
        <time>2025-02-11T14:30:35Z</time>
      </trkpt>
      <trkpt lat="47.79267" lon="-2.44684">
        <ele>35.9</ele>
        <time>2025-02-11T14:30:36Z</time>
      </trkpt>
      <trkpt lat="47.79268" lon="-2.44686">
        <ele>36</ele>
        <time>2025-02-11T14:30:37Z</time>
      </trkpt>
      <trkpt lat="47.79267" lon="-2.44688">
        <ele>36</ele>
        <time>2025-02-11T14:30:38Z</time>
      </trkpt>
      <trkpt lat="47.79267" lon="-2.4469">
        <ele>36.1</ele>
        <time>2025-02-11T14:30:39Z</time>
      </trkpt>
      <trkpt lat="47.79267" lon="-2.44692">
        <ele>36.1</ele>
        <time>2025-02-11T14:30:40Z</time>
      </trkpt>
      <trkpt lat="47.79267" lon="-2.44693">
        <ele>36.2</ele>
        <time>2025-02-11T14:30:41Z</time>
      </trkpt>
      <trkpt lat="47.79267" lon="-2.44695">
        <ele>36.2</ele>
        <time>2025-02-11T14:30:42Z</time>
      </trkpt>
      <trkpt lat="47.79267" lon="-2.44697">
        <ele>36.2</ele>
        <time>2025-02-11T14:30:43Z</time>
      </trkpt>
      <trkpt lat="47.79267" lon="-2.44699">
        <ele>36.2</ele>
        <time>2025-02-11T14:30:44Z</time>
      </trkpt>
      <trkpt lat="47.79267" lon="-2.44701">
        <ele>36.2</ele>
        <time>2025-02-11T14:30:45Z</time>
      </trkpt>
      <trkpt lat="47.79267" lon="-2.44703">
        <ele>36.2</ele>
        <time>2025-02-11T14:30:46Z</time>
      </trkpt>
      <trkpt lat="47.79267" lon="-2.44705">
        <ele>36.2</ele>
        <time>2025-02-11T14:30:47Z</time>
      </trkpt>
      <trkpt lat="47.79266" lon="-2.44707">
        <ele>36.2</ele>
        <time>2025-02-11T14:30:48Z</time>
      </trkpt>
      <trkpt lat="47.79266" lon="-2.44709">
        <ele>36.1</ele>
        <time>2025-02-11T14:30:49Z</time>
      </trkpt>
      <trkpt lat="47.79266" lon="-2.4471">
        <ele>36.1</ele>
        <time>2025-02-11T14:30:50Z</time>
      </trkpt>
      <trkpt lat="47.79266" lon="-2.44712">
        <ele>36.1</ele>
        <time>2025-02-11T14:30:51Z</time>
      </trkpt>
      <trkpt lat="47.79266" lon="-2.44714">
        <ele>36.1</ele>
        <time>2025-02-11T14:30:52Z</time>
      </trkpt>
      <trkpt lat="47.79265" lon="-2.44716">
        <ele>36.1</ele>
        <time>2025-02-11T14:30:53Z</time>
      </trkpt>
      <trkpt lat="47.79265" lon="-2.44717">
        <ele>36.1</ele>
        <time>2025-02-11T14:30:54Z</time>
      </trkpt>
      <trkpt lat="47.79266" lon="-2.44719">
        <ele>36.1</ele>
        <time>2025-02-11T14:30:55Z</time>
      </trkpt>
      <trkpt lat="47.79265" lon="-2.44721">
        <ele>36.1</ele>
        <time>2025-02-11T14:30:56Z</time>
      </trkpt>
      <trkpt lat="47.79265" lon="-2.44723">
        <ele>36.1</ele>
        <time>2025-02-11T14:30:57Z</time>
      </trkpt>
      <trkpt lat="47.79265" lon="-2.44724">
        <ele>36.1</ele>
        <time>2025-02-11T14:30:58Z</time>
      </trkpt>
      <trkpt lat="47.79265" lon="-2.44726">
        <ele>36.1</ele>
        <time>2025-02-11T14:30:59Z</time>
      </trkpt>
      <trkpt lat="47.79265" lon="-2.44728">
        <ele>36.1</ele>
        <time>2025-02-11T14:31:00Z</time>
      </trkpt>
      <trkpt lat="47.79265" lon="-2.44729">
        <ele>36.1</ele>
        <time>2025-02-11T14:31:01Z</time>
      </trkpt>
      <trkpt lat="47.79265" lon="-2.44731">
        <ele>36.1</ele>
        <time>2025-02-11T14:31:02Z</time>
      </trkpt>
      <trkpt lat="47.79265" lon="-2.44733">
        <ele>36</ele>
        <time>2025-02-11T14:31:03Z</time>
      </trkpt>
      <trkpt lat="47.79265" lon="-2.44735">
        <ele>36.1</ele>
        <time>2025-02-11T14:31:04Z</time>
      </trkpt>
      <trkpt lat="47.79264" lon="-2.44737">
        <ele>36</ele>
        <time>2025-02-11T14:31:05Z</time>
      </trkpt>
      <trkpt lat="47.79264" lon="-2.44738">
        <ele>36</ele>
        <time>2025-02-11T14:31:06Z</time>
      </trkpt>
      <trkpt lat="47.79264" lon="-2.4474">
        <ele>36</ele>
        <time>2025-02-11T14:31:07Z</time>
      </trkpt>
      <trkpt lat="47.79264" lon="-2.44742">
        <ele>36</ele>
        <time>2025-02-11T14:31:08Z</time>
      </trkpt>
      <trkpt lat="47.79264" lon="-2.44744">
        <ele>36</ele>
        <time>2025-02-11T14:31:09Z</time>
      </trkpt>
      <trkpt lat="47.79263" lon="-2.44746">
        <ele>36</ele>
        <time>2025-02-11T14:31:10Z</time>
      </trkpt>
      <trkpt lat="47.79263" lon="-2.44748">
        <ele>36</ele>
        <time>2025-02-11T14:31:11Z</time>
      </trkpt>
      <trkpt lat="47.79263" lon="-2.44749">
        <ele>36</ele>
        <time>2025-02-11T14:31:12Z</time>
      </trkpt>
      <trkpt lat="47.79263" lon="-2.44751">
        <ele>36</ele>
        <time>2025-02-11T14:31:13Z</time>
      </trkpt>
      <trkpt lat="47.79263" lon="-2.44753">
        <ele>36</ele>
        <time>2025-02-11T14:31:14Z</time>
      </trkpt>
      <trkpt lat="47.79263" lon="-2.44755">
        <ele>36</ele>
        <time>2025-02-11T14:31:15Z</time>
      </trkpt>
      <trkpt lat="47.79263" lon="-2.44757">
        <ele>36.1</ele>
        <time>2025-02-11T14:31:16Z</time>
      </trkpt>
      <trkpt lat="47.79263" lon="-2.44759">
        <ele>36.1</ele>
        <time>2025-02-11T14:31:17Z</time>
      </trkpt>
      <trkpt lat="47.79263" lon="-2.44761">
        <ele>36.1</ele>
        <time>2025-02-11T14:31:18Z</time>
      </trkpt>
      <trkpt lat="47.79263" lon="-2.44763">
        <ele>36.2</ele>
        <time>2025-02-11T14:31:19Z</time>
      </trkpt>
      <trkpt lat="47.79262" lon="-2.44764">
        <ele>36.2</ele>
        <time>2025-02-11T14:31:20Z</time>
      </trkpt>
      <trkpt lat="47.79263" lon="-2.44766">
        <ele>36.2</ele>
        <time>2025-02-11T14:31:21Z</time>
      </trkpt>
      <trkpt lat="47.79262" lon="-2.44768">
        <ele>36.2</ele>
        <time>2025-02-11T14:31:22Z</time>
      </trkpt>
      <trkpt lat="47.79262" lon="-2.4477">
        <ele>36.3</ele>
        <time>2025-02-11T14:31:23Z</time>
      </trkpt>
      <trkpt lat="47.79262" lon="-2.44772">
        <ele>36.3</ele>
        <time>2025-02-11T14:31:24Z</time>
      </trkpt>
      <trkpt lat="47.79262" lon="-2.44773">
        <ele>36.4</ele>
        <time>2025-02-11T14:31:25Z</time>
      </trkpt>
      <trkpt lat="47.79263" lon="-2.44775">
        <ele>36.4</ele>
        <time>2025-02-11T14:31:26Z</time>
      </trkpt>
      <trkpt lat="47.79263" lon="-2.44776">
        <ele>36.4</ele>
        <time>2025-02-11T14:31:27Z</time>
      </trkpt>
      <trkpt lat="47.79262" lon="-2.44778">
        <ele>36.5</ele>
        <time>2025-02-11T14:31:28Z</time>
      </trkpt>
      <trkpt lat="47.79262" lon="-2.4478">
        <ele>36.5</ele>
        <time>2025-02-11T14:31:29Z</time>
      </trkpt>
      <trkpt lat="47.79261" lon="-2.44781">
        <ele>36.5</ele>
        <time>2025-02-11T14:31:30Z</time>
      </trkpt>
      <trkpt lat="47.79261" lon="-2.44783">
        <ele>36.5</ele>
        <time>2025-02-11T14:31:31Z</time>
      </trkpt>
      <trkpt lat="47.7926" lon="-2.44785">
        <ele>36.5</ele>
        <time>2025-02-11T14:31:32Z</time>
      </trkpt>
      <trkpt lat="47.7926" lon="-2.44786">
        <ele>36.5</ele>
        <time>2025-02-11T14:31:33Z</time>
      </trkpt>
      <trkpt lat="47.7926" lon="-2.44788">
        <ele>36.5</ele>
        <time>2025-02-11T14:31:34Z</time>
      </trkpt>
      <trkpt lat="47.7926" lon="-2.4479">
        <ele>36.5</ele>
        <time>2025-02-11T14:31:35Z</time>
      </trkpt>
      <trkpt lat="47.79259" lon="-2.44791">
        <ele>36.5</ele>
        <time>2025-02-11T14:31:36Z</time>
      </trkpt>
      <trkpt lat="47.79259" lon="-2.44793">
        <ele>36.5</ele>
        <time>2025-02-11T14:31:37Z</time>
      </trkpt>
      <trkpt lat="47.79259" lon="-2.44794">
        <ele>36.5</ele>
        <time>2025-02-11T14:31:38Z</time>
      </trkpt>
      <trkpt lat="47.79259" lon="-2.44796">
        <ele>36.5</ele>
        <time>2025-02-11T14:31:39Z</time>
      </trkpt>
      <trkpt lat="47.79259" lon="-2.44797">
        <ele>36.5</ele>
        <time>2025-02-11T14:31:40Z</time>
      </trkpt>
      <trkpt lat="47.79259" lon="-2.44799">
        <ele>36.5</ele>
        <time>2025-02-11T14:31:41Z</time>
      </trkpt>
      <trkpt lat="47.79259" lon="-2.448">
        <ele>36.6</ele>
        <time>2025-02-11T14:31:42Z</time>
      </trkpt>
      <trkpt lat="47.79258" lon="-2.44802">
        <ele>36.6</ele>
        <time>2025-02-11T14:31:43Z</time>
      </trkpt>
      <trkpt lat="47.79258" lon="-2.44803">
        <ele>36.6</ele>
        <time>2025-02-11T14:31:44Z</time>
      </trkpt>
      <trkpt lat="47.79259" lon="-2.44805">
        <ele>36.6</ele>
        <time>2025-02-11T14:31:45Z</time>
      </trkpt>
      <trkpt lat="47.79258" lon="-2.44806">
        <ele>36.6</ele>
        <time>2025-02-11T14:31:46Z</time>
      </trkpt>
      <trkpt lat="47.79258" lon="-2.44808">
        <ele>36.6</ele>
        <time>2025-02-11T14:31:47Z</time>
      </trkpt>
      <trkpt lat="47.79258" lon="-2.44809">
        <ele>36.6</ele>
        <time>2025-02-11T14:31:48Z</time>
      </trkpt>
      <trkpt lat="47.79257" lon="-2.44811">
        <ele>36.7</ele>
        <time>2025-02-11T14:31:49Z</time>
      </trkpt>
      <trkpt lat="47.79257" lon="-2.44813">
        <ele>36.7</ele>
        <time>2025-02-11T14:31:50Z</time>
      </trkpt>
      <trkpt lat="47.79257" lon="-2.44814">
        <ele>36.7</ele>
        <time>2025-02-11T14:31:51Z</time>
      </trkpt>
      <trkpt lat="47.79256" lon="-2.44816">
        <ele>36.8</ele>
        <time>2025-02-11T14:31:52Z</time>
      </trkpt>
      <trkpt lat="47.79256" lon="-2.44818">
        <ele>36.8</ele>
        <time>2025-02-11T14:31:53Z</time>
      </trkpt>
      <trkpt lat="47.79256" lon="-2.4482">
        <ele>36.8</ele>
        <time>2025-02-11T14:31:54Z</time>
      </trkpt>
      <trkpt lat="47.79256" lon="-2.44822">
        <ele>36.9</ele>
        <time>2025-02-11T14:31:55Z</time>
      </trkpt>
      <trkpt lat="47.79256" lon="-2.44823">
        <ele>36.9</ele>
        <time>2025-02-11T14:31:56Z</time>
      </trkpt>
      <trkpt lat="47.79255" lon="-2.44825">
        <ele>36.9</ele>
        <time>2025-02-11T14:31:57Z</time>
      </trkpt>
      <trkpt lat="47.79255" lon="-2.44827">
        <ele>37</ele>
        <time>2025-02-11T14:31:58Z</time>
      </trkpt>
      <trkpt lat="47.79254" lon="-2.44828">
        <ele>37</ele>
        <time>2025-02-11T14:31:59Z</time>
      </trkpt>
      <trkpt lat="47.79253" lon="-2.4483">
        <ele>37</ele>
        <time>2025-02-11T14:32:00Z</time>
      </trkpt>
      <trkpt lat="47.79253" lon="-2.44832">
        <ele>37.1</ele>
        <time>2025-02-11T14:32:01Z</time>
      </trkpt>
      <trkpt lat="47.79253" lon="-2.44834">
        <ele>37.1</ele>
        <time>2025-02-11T14:32:02Z</time>
      </trkpt>
      <trkpt lat="47.79252" lon="-2.44835">
        <ele>37.1</ele>
        <time>2025-02-11T14:32:03Z</time>
      </trkpt>
      <trkpt lat="47.79252" lon="-2.44837">
        <ele>37.1</ele>
        <time>2025-02-11T14:32:04Z</time>
      </trkpt>
      <trkpt lat="47.79251" lon="-2.44838">
        <ele>37</ele>
        <time>2025-02-11T14:32:05Z</time>
      </trkpt>
      <trkpt lat="47.7925" lon="-2.4484">
        <ele>37</ele>
        <time>2025-02-11T14:32:06Z</time>
      </trkpt>
      <trkpt lat="47.79249" lon="-2.44841">
        <ele>37</ele>
        <time>2025-02-11T14:32:07Z</time>
      </trkpt>
      <trkpt lat="47.79248" lon="-2.44842">
        <ele>36.9</ele>
        <time>2025-02-11T14:32:08Z</time>
      </trkpt>
      <trkpt lat="47.79247" lon="-2.44843">
        <ele>36.9</ele>
        <time>2025-02-11T14:32:09Z</time>
      </trkpt>
      <trkpt lat="47.79246" lon="-2.44844">
        <ele>36.9</ele>
        <time>2025-02-11T14:32:10Z</time>
      </trkpt>
      <trkpt lat="47.79245" lon="-2.44844">
        <ele>36.8</ele>
        <time>2025-02-11T14:32:11Z</time>
      </trkpt>
      <trkpt lat="47.79245" lon="-2.44845">
        <ele>36.8</ele>
        <time>2025-02-11T14:32:12Z</time>
      </trkpt>
      <trkpt lat="47.79243" lon="-2.44846">
        <ele>36.8</ele>
        <time>2025-02-11T14:32:13Z</time>
      </trkpt>
      <trkpt lat="47.79242" lon="-2.44847">
        <ele>36.7</ele>
        <time>2025-02-11T14:32:14Z</time>
      </trkpt>
      <trkpt lat="47.79241" lon="-2.44848">
        <ele>36.7</ele>
        <time>2025-02-11T14:32:15Z</time>
      </trkpt>
      <trkpt lat="47.7924" lon="-2.44848">
        <ele>36.6</ele>
        <time>2025-02-11T14:32:16Z</time>
      </trkpt>
      <trkpt lat="47.79239" lon="-2.44849">
        <ele>36.6</ele>
        <time>2025-02-11T14:32:17Z</time>
      </trkpt>
      <trkpt lat="47.79238" lon="-2.44849">
        <ele>36.6</ele>
        <time>2025-02-11T14:32:18Z</time>
      </trkpt>
      <trkpt lat="47.79237" lon="-2.44849">
        <ele>36.5</ele>
        <time>2025-02-11T14:32:19Z</time>
      </trkpt>
      <trkpt lat="47.79235" lon="-2.44849">
        <ele>36.5</ele>
        <time>2025-02-11T14:32:20Z</time>
      </trkpt>
      <trkpt lat="47.79234" lon="-2.4485">
        <ele>36.4</ele>
        <time>2025-02-11T14:32:21Z</time>
      </trkpt>
      <trkpt lat="47.79233" lon="-2.4485">
        <ele>36.4</ele>
        <time>2025-02-11T14:32:22Z</time>
      </trkpt>
      <trkpt lat="47.79232" lon="-2.4485">
        <ele>36.3</ele>
        <time>2025-02-11T14:32:23Z</time>
      </trkpt>
      <trkpt lat="47.79231" lon="-2.4485">
        <ele>36.3</ele>
        <time>2025-02-11T14:32:24Z</time>
      </trkpt>
      <trkpt lat="47.79229" lon="-2.4485">
        <ele>36.3</ele>
        <time>2025-02-11T14:32:25Z</time>
      </trkpt>
      <trkpt lat="47.79228" lon="-2.44849">
        <ele>36.2</ele>
        <time>2025-02-11T14:32:26Z</time>
      </trkpt>
      <trkpt lat="47.79227" lon="-2.44849">
        <ele>36.2</ele>
        <time>2025-02-11T14:32:27Z</time>
      </trkpt>
      <trkpt lat="47.79226" lon="-2.44849">
        <ele>36.1</ele>
        <time>2025-02-11T14:32:28Z</time>
      </trkpt>
      <trkpt lat="47.79225" lon="-2.44848">
        <ele>36.1</ele>
        <time>2025-02-11T14:32:29Z</time>
      </trkpt>
      <trkpt lat="47.79223" lon="-2.44848">
        <ele>36</ele>
        <time>2025-02-11T14:32:30Z</time>
      </trkpt>
      <trkpt lat="47.79222" lon="-2.44848">
        <ele>36</ele>
        <time>2025-02-11T14:32:31Z</time>
      </trkpt>
      <trkpt lat="47.79221" lon="-2.44848">
        <ele>36</ele>
        <time>2025-02-11T14:32:32Z</time>
      </trkpt>
      <trkpt lat="47.7922" lon="-2.44848">
        <ele>35.9</ele>
        <time>2025-02-11T14:32:33Z</time>
      </trkpt>
      <trkpt lat="47.79219" lon="-2.44849">
        <ele>35.9</ele>
        <time>2025-02-11T14:32:34Z</time>
      </trkpt>
      <trkpt lat="47.79217" lon="-2.44849">
        <ele>35.8</ele>
        <time>2025-02-11T14:32:35Z</time>
      </trkpt>
      <trkpt lat="47.79216" lon="-2.44849">
        <ele>35.8</ele>
        <time>2025-02-11T14:32:36Z</time>
      </trkpt>
      <trkpt lat="47.79215" lon="-2.44849">
        <ele>35.7</ele>
        <time>2025-02-11T14:32:37Z</time>
      </trkpt>
      <trkpt lat="47.79214" lon="-2.44849">
        <ele>35.7</ele>
        <time>2025-02-11T14:32:38Z</time>
      </trkpt>
      <trkpt lat="47.79213" lon="-2.4485">
        <ele>35.7</ele>
        <time>2025-02-11T14:32:39Z</time>
      </trkpt>
      <trkpt lat="47.79212" lon="-2.4485">
        <ele>35.6</ele>
        <time>2025-02-11T14:32:40Z</time>
      </trkpt>
      <trkpt lat="47.79211" lon="-2.4485">
        <ele>35.6</ele>
        <time>2025-02-11T14:32:41Z</time>
      </trkpt>
      <trkpt lat="47.7921" lon="-2.4485">
        <ele>35.5</ele>
        <time>2025-02-11T14:32:42Z</time>
      </trkpt>
      <trkpt lat="47.79209" lon="-2.44851">
        <ele>35.5</ele>
        <time>2025-02-11T14:32:43Z</time>
      </trkpt>
      <trkpt lat="47.79207" lon="-2.44851">
        <ele>35.5</ele>
        <time>2025-02-11T14:32:44Z</time>
      </trkpt>
      <trkpt lat="47.79206" lon="-2.44851">
        <ele>35.4</ele>
        <time>2025-02-11T14:32:45Z</time>
      </trkpt>
      <trkpt lat="47.79205" lon="-2.44851">
        <ele>35.4</ele>
        <time>2025-02-11T14:32:46Z</time>
      </trkpt>
      <trkpt lat="47.79204" lon="-2.44852">
        <ele>35.3</ele>
        <time>2025-02-11T14:32:47Z</time>
      </trkpt>
      <trkpt lat="47.79203" lon="-2.44852">
        <ele>35.3</ele>
        <time>2025-02-11T14:32:48Z</time>
      </trkpt>
      <trkpt lat="47.79201" lon="-2.44853">
        <ele>35.3</ele>
        <time>2025-02-11T14:32:49Z</time>
      </trkpt>
      <trkpt lat="47.792" lon="-2.44853">
        <ele>35.2</ele>
        <time>2025-02-11T14:32:50Z</time>
      </trkpt>
      <trkpt lat="47.79199" lon="-2.44853">
        <ele>35.2</ele>
        <time>2025-02-11T14:32:51Z</time>
      </trkpt>
      <trkpt lat="47.79198" lon="-2.44854">
        <ele>35.1</ele>
        <time>2025-02-11T14:32:52Z</time>
      </trkpt>
      <trkpt lat="47.79197" lon="-2.44854">
        <ele>35.1</ele>
        <time>2025-02-11T14:32:53Z</time>
      </trkpt>
      <trkpt lat="47.79196" lon="-2.44855">
        <ele>35</ele>
        <time>2025-02-11T14:32:54Z</time>
      </trkpt>
      <trkpt lat="47.79194" lon="-2.44855">
        <ele>35</ele>
        <time>2025-02-11T14:32:55Z</time>
      </trkpt>
      <trkpt lat="47.79193" lon="-2.44856">
        <ele>35</ele>
        <time>2025-02-11T14:32:56Z</time>
      </trkpt>
      <trkpt lat="47.79192" lon="-2.44857">
        <ele>34.9</ele>
        <time>2025-02-11T14:32:57Z</time>
      </trkpt>
      <trkpt lat="47.79191" lon="-2.44857">
        <ele>34.9</ele>
        <time>2025-02-11T14:32:58Z</time>
      </trkpt>
      <trkpt lat="47.7919" lon="-2.44857">
        <ele>34.8</ele>
        <time>2025-02-11T14:32:59Z</time>
      </trkpt>
      <trkpt lat="47.79188" lon="-2.44857">
        <ele>34.8</ele>
        <time>2025-02-11T14:33:00Z</time>
      </trkpt>
      <trkpt lat="47.79187" lon="-2.44858">
        <ele>34.7</ele>
        <time>2025-02-11T14:33:01Z</time>
      </trkpt>
      <trkpt lat="47.79186" lon="-2.44858">
        <ele>34.7</ele>
        <time>2025-02-11T14:33:02Z</time>
      </trkpt>
      <trkpt lat="47.79185" lon="-2.44858">
        <ele>34.6</ele>
        <time>2025-02-11T14:33:03Z</time>
      </trkpt>
      <trkpt lat="47.79183" lon="-2.44859">
        <ele>34.6</ele>
        <time>2025-02-11T14:33:04Z</time>
      </trkpt>
      <trkpt lat="47.79182" lon="-2.44859">
        <ele>34.6</ele>
        <time>2025-02-11T14:33:05Z</time>
      </trkpt>
      <trkpt lat="47.79181" lon="-2.44859">
        <ele>34.5</ele>
        <time>2025-02-11T14:33:06Z</time>
      </trkpt>
      <trkpt lat="47.7918" lon="-2.4486">
        <ele>34.5</ele>
        <time>2025-02-11T14:33:07Z</time>
      </trkpt>
      <trkpt lat="47.79179" lon="-2.44861">
        <ele>34.4</ele>
        <time>2025-02-11T14:33:08Z</time>
      </trkpt>
      <trkpt lat="47.79178" lon="-2.44861">
        <ele>34.4</ele>
        <time>2025-02-11T14:33:09Z</time>
      </trkpt>
      <trkpt lat="47.79177" lon="-2.44862">
        <ele>34.4</ele>
        <time>2025-02-11T14:33:10Z</time>
      </trkpt>
      <trkpt lat="47.79176" lon="-2.44862">
        <ele>34.3</ele>
        <time>2025-02-11T14:33:11Z</time>
      </trkpt>
      <trkpt lat="47.79174" lon="-2.44862">
        <ele>34.3</ele>
        <time>2025-02-11T14:33:12Z</time>
      </trkpt>
      <trkpt lat="47.79173" lon="-2.44863">
        <ele>34.3</ele>
        <time>2025-02-11T14:33:13Z</time>
      </trkpt>
      <trkpt lat="47.79172" lon="-2.44863">
        <ele>34.3</ele>
        <time>2025-02-11T14:33:14Z</time>
      </trkpt>
      <trkpt lat="47.79171" lon="-2.44863">
        <ele>34.2</ele>
        <time>2025-02-11T14:33:15Z</time>
      </trkpt>
      <trkpt lat="47.7917" lon="-2.44864">
        <ele>34.2</ele>
        <time>2025-02-11T14:33:16Z</time>
      </trkpt>
      <trkpt lat="47.79169" lon="-2.44864">
        <ele>34.2</ele>
        <time>2025-02-11T14:33:17Z</time>
      </trkpt>
      <trkpt lat="47.79168" lon="-2.44865">
        <ele>34.2</ele>
        <time>2025-02-11T14:33:18Z</time>
      </trkpt>
      <trkpt lat="47.79166" lon="-2.44865">
        <ele>34.1</ele>
        <time>2025-02-11T14:33:19Z</time>
      </trkpt>
      <trkpt lat="47.79165" lon="-2.44865">
        <ele>34.1</ele>
        <time>2025-02-11T14:33:20Z</time>
      </trkpt>
      <trkpt lat="47.79164" lon="-2.44865">
        <ele>34.1</ele>
        <time>2025-02-11T14:33:21Z</time>
      </trkpt>
      <trkpt lat="47.79163" lon="-2.44866">
        <ele>34.1</ele>
        <time>2025-02-11T14:33:22Z</time>
      </trkpt>
      <trkpt lat="47.79161" lon="-2.44866">
        <ele>34.2</ele>
        <time>2025-02-11T14:33:23Z</time>
      </trkpt>
      <trkpt lat="47.7916" lon="-2.44867">
        <ele>34.2</ele>
        <time>2025-02-11T14:33:24Z</time>
      </trkpt>
      <trkpt lat="47.7916" lon="-2.44868">
        <ele>34.2</ele>
        <time>2025-02-11T14:33:25Z</time>
      </trkpt>
      <trkpt lat="47.79158" lon="-2.44868">
        <ele>34.2</ele>
        <time>2025-02-11T14:33:26Z</time>
      </trkpt>
      <trkpt lat="47.79157" lon="-2.44869">
        <ele>34.2</ele>
        <time>2025-02-11T14:33:27Z</time>
      </trkpt>
      <trkpt lat="47.79155" lon="-2.4487">
        <ele>34.2</ele>
        <time>2025-02-11T14:33:28Z</time>
      </trkpt>
      <trkpt lat="47.79155" lon="-2.4487">
        <ele>34.2</ele>
        <time>2025-02-11T14:33:29Z</time>
      </trkpt>
      <trkpt lat="47.79154" lon="-2.4487">
        <ele>34.2</ele>
        <time>2025-02-11T14:33:30Z</time>
      </trkpt>
      <trkpt lat="47.79152" lon="-2.4487">
        <ele>34.2</ele>
        <time>2025-02-11T14:33:31Z</time>
      </trkpt>
      <trkpt lat="47.79151" lon="-2.44871">
        <ele>34.1</ele>
        <time>2025-02-11T14:33:32Z</time>
      </trkpt>
      <trkpt lat="47.79149" lon="-2.44871">
        <ele>34.1</ele>
        <time>2025-02-11T14:33:33Z</time>
      </trkpt>
      <trkpt lat="47.79148" lon="-2.44871">
        <ele>34.1</ele>
        <time>2025-02-11T14:33:34Z</time>
      </trkpt>
      <trkpt lat="47.79147" lon="-2.44871">
        <ele>34.1</ele>
        <time>2025-02-11T14:33:35Z</time>
      </trkpt>
      <trkpt lat="47.79146" lon="-2.44871">
        <ele>34.1</ele>
        <time>2025-02-11T14:33:36Z</time>
      </trkpt>
      <trkpt lat="47.79144" lon="-2.44872">
        <ele>34.1</ele>
        <time>2025-02-11T14:33:37Z</time>
      </trkpt>
      <trkpt lat="47.79142" lon="-2.44872">
        <ele>34</ele>
        <time>2025-02-11T14:33:38Z</time>
      </trkpt>
      <trkpt lat="47.79141" lon="-2.44872">
        <ele>34</ele>
        <time>2025-02-11T14:33:39Z</time>
      </trkpt>
      <trkpt lat="47.7914" lon="-2.44872">
        <ele>34</ele>
        <time>2025-02-11T14:33:40Z</time>
      </trkpt>
      <trkpt lat="47.79139" lon="-2.44873">
        <ele>34</ele>
        <time>2025-02-11T14:33:41Z</time>
      </trkpt>
      <trkpt lat="47.79138" lon="-2.44873">
        <ele>34</ele>
        <time>2025-02-11T14:33:42Z</time>
      </trkpt>
      <trkpt lat="47.79137" lon="-2.44874">
        <ele>34</ele>
        <time>2025-02-11T14:33:43Z</time>
      </trkpt>
      <trkpt lat="47.79136" lon="-2.44875">
        <ele>33.9</ele>
        <time>2025-02-11T14:33:44Z</time>
      </trkpt>
      <trkpt lat="47.79135" lon="-2.44875">
        <ele>33.9</ele>
        <time>2025-02-11T14:33:45Z</time>
      </trkpt>
      <trkpt lat="47.79133" lon="-2.44875">
        <ele>33.9</ele>
        <time>2025-02-11T14:33:46Z</time>
      </trkpt>
      <trkpt lat="47.79132" lon="-2.44876">
        <ele>33.9</ele>
        <time>2025-02-11T14:33:47Z</time>
      </trkpt>
      <trkpt lat="47.79131" lon="-2.44876">
        <ele>33.9</ele>
        <time>2025-02-11T14:33:48Z</time>
      </trkpt>
      <trkpt lat="47.7913" lon="-2.44876">
        <ele>33.9</ele>
        <time>2025-02-11T14:33:49Z</time>
      </trkpt>
      <trkpt lat="47.79129" lon="-2.44877">
        <ele>33.8</ele>
        <time>2025-02-11T14:33:50Z</time>
      </trkpt>
      <trkpt lat="47.79128" lon="-2.44877">
        <ele>33.8</ele>
        <time>2025-02-11T14:33:51Z</time>
      </trkpt>
      <trkpt lat="47.79127" lon="-2.44878">
        <ele>33.8</ele>
        <time>2025-02-11T14:33:52Z</time>
      </trkpt>
      <trkpt lat="47.79126" lon="-2.44878">
        <ele>33.8</ele>
        <time>2025-02-11T14:33:53Z</time>
      </trkpt>
      <trkpt lat="47.79125" lon="-2.44878">
        <ele>33.8</ele>
        <time>2025-02-11T14:33:54Z</time>
      </trkpt>
      <trkpt lat="47.79124" lon="-2.44878">
        <ele>33.8</ele>
        <time>2025-02-11T14:33:55Z</time>
      </trkpt>
      <trkpt lat="47.79123" lon="-2.44879">
        <ele>33.8</ele>
        <time>2025-02-11T14:33:56Z</time>
      </trkpt>
      <trkpt lat="47.79121" lon="-2.44879">
        <ele>33.8</ele>
        <time>2025-02-11T14:33:57Z</time>
      </trkpt>
      <trkpt lat="47.7912" lon="-2.44879">
        <ele>33.8</ele>
        <time>2025-02-11T14:33:58Z</time>
      </trkpt>
      <trkpt lat="47.79119" lon="-2.44879">
        <ele>33.7</ele>
        <time>2025-02-11T14:33:59Z</time>
      </trkpt>
      <trkpt lat="47.79118" lon="-2.44879">
        <ele>33.7</ele>
        <time>2025-02-11T14:34:00Z</time>
      </trkpt>
      <trkpt lat="47.79116" lon="-2.4488">
        <ele>33.7</ele>
        <time>2025-02-11T14:34:01Z</time>
      </trkpt>
      <trkpt lat="47.79115" lon="-2.44881">
        <ele>33.8</ele>
        <time>2025-02-11T14:34:02Z</time>
      </trkpt>
      <trkpt lat="47.79114" lon="-2.44882">
        <ele>33.8</ele>
        <time>2025-02-11T14:34:03Z</time>
      </trkpt>
      <trkpt lat="47.79113" lon="-2.44883">
        <ele>33.8</ele>
        <time>2025-02-11T14:34:04Z</time>
      </trkpt>
      <trkpt lat="47.79112" lon="-2.44884">
        <ele>33.8</ele>
        <time>2025-02-11T14:34:05Z</time>
      </trkpt>
      <trkpt lat="47.79111" lon="-2.44884">
        <ele>33.8</ele>
        <time>2025-02-11T14:34:06Z</time>
      </trkpt>
      <trkpt lat="47.79109" lon="-2.44884">
        <ele>33.8</ele>
        <time>2025-02-11T14:34:07Z</time>
      </trkpt>
      <trkpt lat="47.79108" lon="-2.44885">
        <ele>33.8</ele>
        <time>2025-02-11T14:34:08Z</time>
      </trkpt>
      <trkpt lat="47.79107" lon="-2.44886">
        <ele>33.8</ele>
        <time>2025-02-11T14:34:09Z</time>
      </trkpt>
      <trkpt lat="47.79106" lon="-2.44887">
        <ele>33.7</ele>
        <time>2025-02-11T14:34:10Z</time>
      </trkpt>
      <trkpt lat="47.79105" lon="-2.44887">
        <ele>33.7</ele>
        <time>2025-02-11T14:34:11Z</time>
      </trkpt>
      <trkpt lat="47.79104" lon="-2.44887">
        <ele>33.7</ele>
        <time>2025-02-11T14:34:12Z</time>
      </trkpt>
      <trkpt lat="47.79102" lon="-2.44888">
        <ele>33.6</ele>
        <time>2025-02-11T14:34:13Z</time>
      </trkpt>
      <trkpt lat="47.79101" lon="-2.44888">
        <ele>33.6</ele>
        <time>2025-02-11T14:34:14Z</time>
      </trkpt>
      <trkpt lat="47.791" lon="-2.44888">
        <ele>33.6</ele>
        <time>2025-02-11T14:34:15Z</time>
      </trkpt>
      <trkpt lat="47.79099" lon="-2.44888">
        <ele>33.5</ele>
        <time>2025-02-11T14:34:16Z</time>
      </trkpt>
      <trkpt lat="47.79097" lon="-2.44888">
        <ele>33.5</ele>
        <time>2025-02-11T14:34:17Z</time>
      </trkpt>
      <trkpt lat="47.79096" lon="-2.44888">
        <ele>33.4</ele>
        <time>2025-02-11T14:34:18Z</time>
      </trkpt>
      <trkpt lat="47.79095" lon="-2.44888">
        <ele>33.4</ele>
        <time>2025-02-11T14:34:19Z</time>
      </trkpt>
      <trkpt lat="47.79094" lon="-2.44889">
        <ele>33.4</ele>
        <time>2025-02-11T14:34:20Z</time>
      </trkpt>
      <trkpt lat="47.79093" lon="-2.44888">
        <ele>33.3</ele>
        <time>2025-02-11T14:34:21Z</time>
      </trkpt>
      <trkpt lat="47.79092" lon="-2.44888">
        <ele>33.3</ele>
        <time>2025-02-11T14:34:22Z</time>
      </trkpt>
      <trkpt lat="47.7909" lon="-2.44889">
        <ele>33.3</ele>
        <time>2025-02-11T14:34:23Z</time>
      </trkpt>
      <trkpt lat="47.79089" lon="-2.4489">
        <ele>33.3</ele>
        <time>2025-02-11T14:34:24Z</time>
      </trkpt>
      <trkpt lat="47.79088" lon="-2.44891">
        <ele>33.2</ele>
        <time>2025-02-11T14:34:25Z</time>
      </trkpt>
      <trkpt lat="47.79087" lon="-2.44892">
        <ele>33.2</ele>
        <time>2025-02-11T14:34:26Z</time>
      </trkpt>
      <trkpt lat="47.79086" lon="-2.44892">
        <ele>33.2</ele>
        <time>2025-02-11T14:34:27Z</time>
      </trkpt>
      <trkpt lat="47.79085" lon="-2.44892">
        <ele>33.2</ele>
        <time>2025-02-11T14:34:28Z</time>
      </trkpt>
      <trkpt lat="47.79083" lon="-2.44892">
        <ele>33.1</ele>
        <time>2025-02-11T14:34:29Z</time>
      </trkpt>
      <trkpt lat="47.79082" lon="-2.44892">
        <ele>33.1</ele>
        <time>2025-02-11T14:34:30Z</time>
      </trkpt>
      <trkpt lat="47.79081" lon="-2.44892">
        <ele>33</ele>
        <time>2025-02-11T14:34:31Z</time>
      </trkpt>
      <trkpt lat="47.7908" lon="-2.44892">
        <ele>33</ele>
        <time>2025-02-11T14:34:32Z</time>
      </trkpt>
      <trkpt lat="47.79078" lon="-2.44892">
        <ele>32.9</ele>
        <time>2025-02-11T14:34:33Z</time>
      </trkpt>
      <trkpt lat="47.79077" lon="-2.44893">
        <ele>32.9</ele>
        <time>2025-02-11T14:34:34Z</time>
      </trkpt>
      <trkpt lat="47.79076" lon="-2.44893">
        <ele>32.9</ele>
        <time>2025-02-11T14:34:35Z</time>
      </trkpt>
      <trkpt lat="47.79075" lon="-2.44893">
        <ele>32.8</ele>
        <time>2025-02-11T14:34:36Z</time>
      </trkpt>
      <trkpt lat="47.79074" lon="-2.44894">
        <ele>32.8</ele>
        <time>2025-02-11T14:34:37Z</time>
      </trkpt>
      <trkpt lat="47.79072" lon="-2.44894">
        <ele>32.8</ele>
        <time>2025-02-11T14:34:38Z</time>
      </trkpt>
      <trkpt lat="47.79071" lon="-2.44894">
        <ele>32.7</ele>
        <time>2025-02-11T14:34:39Z</time>
      </trkpt>
      <trkpt lat="47.7907" lon="-2.44894">
        <ele>32.7</ele>
        <time>2025-02-11T14:34:40Z</time>
      </trkpt>
      <trkpt lat="47.79069" lon="-2.44893">
        <ele>32.6</ele>
        <time>2025-02-11T14:34:41Z</time>
      </trkpt>
      <trkpt lat="47.79068" lon="-2.44893">
        <ele>32.6</ele>
        <time>2025-02-11T14:34:42Z</time>
      </trkpt>
      <trkpt lat="47.79067" lon="-2.44893">
        <ele>32.6</ele>
        <time>2025-02-11T14:34:43Z</time>
      </trkpt>
      <trkpt lat="47.79066" lon="-2.44893">
        <ele>32.5</ele>
        <time>2025-02-11T14:34:44Z</time>
      </trkpt>
      <trkpt lat="47.79065" lon="-2.44892">
        <ele>32.5</ele>
        <time>2025-02-11T14:34:45Z</time>
      </trkpt>
      <trkpt lat="47.79064" lon="-2.44892">
        <ele>32.4</ele>
        <time>2025-02-11T14:34:46Z</time>
      </trkpt>
      <trkpt lat="47.79063" lon="-2.44891">
        <ele>32.4</ele>
        <time>2025-02-11T14:34:47Z</time>
      </trkpt>
      <trkpt lat="47.79062" lon="-2.44891">
        <ele>32.3</ele>
        <time>2025-02-11T14:34:48Z</time>
      </trkpt>
      <trkpt lat="47.79061" lon="-2.44891">
        <ele>32.3</ele>
        <time>2025-02-11T14:34:49Z</time>
      </trkpt>
      <trkpt lat="47.7906" lon="-2.4489">
        <ele>32.2</ele>
        <time>2025-02-11T14:34:50Z</time>
      </trkpt>
      <trkpt lat="47.79059" lon="-2.44891">
        <ele>32.2</ele>
        <time>2025-02-11T14:34:51Z</time>
      </trkpt>
      <trkpt lat="47.79058" lon="-2.4489">
        <ele>32.1</ele>
        <time>2025-02-11T14:34:52Z</time>
      </trkpt>
      <trkpt lat="47.79057" lon="-2.44889">
        <ele>32.1</ele>
        <time>2025-02-11T14:34:53Z</time>
      </trkpt>
      <trkpt lat="47.79056" lon="-2.44889">
        <ele>32</ele>
        <time>2025-02-11T14:34:54Z</time>
      </trkpt>
      <trkpt lat="47.79055" lon="-2.44888">
        <ele>31.9</ele>
        <time>2025-02-11T14:34:55Z</time>
      </trkpt>
      <trkpt lat="47.79054" lon="-2.44886">
        <ele>31.9</ele>
        <time>2025-02-11T14:34:56Z</time>
      </trkpt>
      <trkpt lat="47.79054" lon="-2.44885">
        <ele>31.9</ele>
        <time>2025-02-11T14:34:57Z</time>
      </trkpt>
      <trkpt lat="47.79053" lon="-2.44883">
        <ele>31.9</ele>
        <time>2025-02-11T14:34:58Z</time>
      </trkpt>
      <trkpt lat="47.79054" lon="-2.44881">
        <ele>31.9</ele>
        <time>2025-02-11T14:34:59Z</time>
      </trkpt>
      <trkpt lat="47.79054" lon="-2.44879">
        <ele>31.9</ele>
        <time>2025-02-11T14:35:00Z</time>
      </trkpt>
      <trkpt lat="47.79055" lon="-2.44878">
        <ele>32</ele>
        <time>2025-02-11T14:35:01Z</time>
      </trkpt>
      <trkpt lat="47.79055" lon="-2.44876">
        <ele>32</ele>
        <time>2025-02-11T14:35:02Z</time>
      </trkpt>
      <trkpt lat="47.79056" lon="-2.44875">
        <ele>32</ele>
        <time>2025-02-11T14:35:03Z</time>
      </trkpt>
      <trkpt lat="47.79056" lon="-2.44873">
        <ele>32</ele>
        <time>2025-02-11T14:35:04Z</time>
      </trkpt>
      <trkpt lat="47.79056" lon="-2.44871">
        <ele>32</ele>
        <time>2025-02-11T14:35:05Z</time>
      </trkpt>
      <trkpt lat="47.79057" lon="-2.4487">
        <ele>32</ele>
        <time>2025-02-11T14:35:06Z</time>
      </trkpt>
      <trkpt lat="47.79057" lon="-2.44868">
        <ele>32.1</ele>
        <time>2025-02-11T14:35:07Z</time>
      </trkpt>
      <trkpt lat="47.79057" lon="-2.44866">
        <ele>32.1</ele>
        <time>2025-02-11T14:35:08Z</time>
      </trkpt>
      <trkpt lat="47.79058" lon="-2.44864">
        <ele>32.1</ele>
        <time>2025-02-11T14:35:09Z</time>
      </trkpt>
      <trkpt lat="47.79058" lon="-2.44862">
        <ele>32.1</ele>
        <time>2025-02-11T14:35:10Z</time>
      </trkpt>
      <trkpt lat="47.79059" lon="-2.4486">
        <ele>32.1</ele>
        <time>2025-02-11T14:35:11Z</time>
      </trkpt>
      <trkpt lat="47.79059" lon="-2.44859">
        <ele>32.1</ele>
        <time>2025-02-11T14:35:12Z</time>
      </trkpt>
      <trkpt lat="47.79059" lon="-2.44857">
        <ele>32.1</ele>
        <time>2025-02-11T14:35:13Z</time>
      </trkpt>
      <trkpt lat="47.7906" lon="-2.44855">
        <ele>32.1</ele>
        <time>2025-02-11T14:35:14Z</time>
      </trkpt>
      <trkpt lat="47.7906" lon="-2.44853">
        <ele>32.1</ele>
        <time>2025-02-11T14:35:15Z</time>
      </trkpt>
      <trkpt lat="47.79061" lon="-2.44852">
        <ele>32.1</ele>
        <time>2025-02-11T14:35:16Z</time>
      </trkpt>
      <trkpt lat="47.79061" lon="-2.4485">
        <ele>32.1</ele>
        <time>2025-02-11T14:35:17Z</time>
      </trkpt>
      <trkpt lat="47.79061" lon="-2.44848">
        <ele>32.1</ele>
        <time>2025-02-11T14:35:18Z</time>
      </trkpt>
      <trkpt lat="47.79062" lon="-2.44846">
        <ele>32.1</ele>
        <time>2025-02-11T14:35:19Z</time>
      </trkpt>
      <trkpt lat="47.79063" lon="-2.44845">
        <ele>32.1</ele>
        <time>2025-02-11T14:35:20Z</time>
      </trkpt>
      <trkpt lat="47.79064" lon="-2.44847">
        <ele>32.2</ele>
        <time>2025-02-11T14:35:21Z</time>
      </trkpt>
      <trkpt lat="47.79065" lon="-2.44848">
        <ele>32.2</ele>
        <time>2025-02-11T14:35:22Z</time>
      </trkpt>
      <trkpt lat="47.79065" lon="-2.44848">
        <ele>32.2</ele>
        <time>2025-02-11T14:35:23Z</time>
      </trkpt>
      <trkpt lat="47.79065" lon="-2.44848">
        <ele>32.2</ele>
        <time>2025-02-11T14:35:24Z</time>
      </trkpt>
      <trkpt lat="47.79065" lon="-2.44847">
        <ele>32.2</ele>
        <time>2025-02-11T14:35:25Z</time>
      </trkpt>
      <trkpt lat="47.79065" lon="-2.44844">
        <ele>32.1</ele>
        <time>2025-02-11T14:35:26Z</time>
      </trkpt>
      <trkpt lat="47.79065" lon="-2.44842">
        <ele>32.1</ele>
        <time>2025-02-11T14:35:27Z</time>
      </trkpt>
      <trkpt lat="47.79065" lon="-2.4484">
        <ele>32.1</ele>
        <time>2025-02-11T14:35:28Z</time>
      </trkpt>
      <trkpt lat="47.79065" lon="-2.44838">
        <ele>32.1</ele>
        <time>2025-02-11T14:35:29Z</time>
      </trkpt>
      <trkpt lat="47.79065" lon="-2.44836">
        <ele>32</ele>
        <time>2025-02-11T14:35:30Z</time>
      </trkpt>
      <trkpt lat="47.79065" lon="-2.44834">
        <ele>32</ele>
        <time>2025-02-11T14:35:31Z</time>
      </trkpt>
      <trkpt lat="47.79065" lon="-2.44832">
        <ele>32</ele>
        <time>2025-02-11T14:35:32Z</time>
      </trkpt>
      <trkpt lat="47.79066" lon="-2.4483">
        <ele>31.9</ele>
        <time>2025-02-11T14:35:33Z</time>
      </trkpt>
      <trkpt lat="47.79066" lon="-2.44828">
        <ele>31.9</ele>
        <time>2025-02-11T14:35:34Z</time>
      </trkpt>
      <trkpt lat="47.79066" lon="-2.44827">
        <ele>31.9</ele>
        <time>2025-02-11T14:35:35Z</time>
      </trkpt>
      <trkpt lat="47.79067" lon="-2.44825">
        <ele>31.8</ele>
        <time>2025-02-11T14:35:36Z</time>
      </trkpt>
      <trkpt lat="47.79067" lon="-2.44824">
        <ele>31.8</ele>
        <time>2025-02-11T14:35:37Z</time>
      </trkpt>
      <trkpt lat="47.79067" lon="-2.44822">
        <ele>31.8</ele>
        <time>2025-02-11T14:35:38Z</time>
      </trkpt>
      <trkpt lat="47.79068" lon="-2.44821">
        <ele>31.7</ele>
        <time>2025-02-11T14:35:39Z</time>
      </trkpt>
      <trkpt lat="47.79068" lon="-2.4482">
        <ele>31.7</ele>
        <time>2025-02-11T14:35:40Z</time>
      </trkpt>
      <trkpt lat="47.79068" lon="-2.44819">
        <ele>31.7</ele>
        <time>2025-02-11T14:35:41Z</time>
      </trkpt>
      <trkpt lat="47.79068" lon="-2.44819">
        <ele>31.7</ele>
        <time>2025-02-11T14:35:42Z</time>
      </trkpt>
      <trkpt lat="47.79068" lon="-2.44819">
        <ele>31.7</ele>
        <time>2025-02-11T14:35:43Z</time>
      </trkpt>
      <trkpt lat="47.79068" lon="-2.44819">
        <ele>31.7</ele>
        <time>2025-02-11T14:35:44Z</time>
      </trkpt>
      <trkpt lat="47.79068" lon="-2.44819">
        <ele>31.7</ele>
        <time>2025-02-11T14:35:45Z</time>
      </trkpt>
      <trkpt lat="47.79068" lon="-2.44819">
        <ele>31.7</ele>
        <time>2025-02-11T14:35:46Z</time>
      </trkpt>
      <trkpt lat="47.79068" lon="-2.44819">
        <ele>31.7</ele>
        <time>2025-02-11T14:35:47Z</time>
      </trkpt>
      <trkpt lat="47.79068" lon="-2.44819">
        <ele>31.7</ele>
        <time>2025-02-11T14:35:48Z</time>
      </trkpt>
      <trkpt lat="47.79068" lon="-2.44819">
        <ele>31.7</ele>
        <time>2025-02-11T14:35:49Z</time>
      </trkpt>
      <trkpt lat="47.79068" lon="-2.4482">
        <ele>31.7</ele>
        <time>2025-02-11T14:35:50Z</time>
      </trkpt>
      <trkpt lat="47.79068" lon="-2.4482">
        <ele>31.7</ele>
        <time>2025-02-11T14:35:51Z</time>
      </trkpt>
      <trkpt lat="47.79068" lon="-2.44821">
        <ele>31.7</ele>
        <time>2025-02-11T14:35:52Z</time>
      </trkpt>
      <trkpt lat="47.79068" lon="-2.44821">
        <ele>31.8</ele>
        <time>2025-02-11T14:35:53Z</time>
      </trkpt>
      <trkpt lat="47.79068" lon="-2.44821">
        <ele>31.8</ele>
        <time>2025-02-11T14:35:54Z</time>
      </trkpt>
      <trkpt lat="47.79068" lon="-2.44822">
        <ele>31.8</ele>
        <time>2025-02-11T14:35:55Z</time>
      </trkpt>
      <trkpt lat="47.79068" lon="-2.44822">
        <ele>31.8</ele>
        <time>2025-02-11T14:35:56Z</time>
      </trkpt>
      <trkpt lat="47.79068" lon="-2.44823">
        <ele>31.8</ele>
        <time>2025-02-11T14:35:57Z</time>
      </trkpt>
      <trkpt lat="47.79068" lon="-2.44823">
        <ele>31.8</ele>
        <time>2025-02-11T14:35:58Z</time>
      </trkpt>
      <trkpt lat="47.79068" lon="-2.44823">
        <ele>31.8</ele>
        <time>2025-02-11T14:35:59Z</time>
      </trkpt>
      <trkpt lat="47.79068" lon="-2.44823">
        <ele>31.8</ele>
        <time>2025-02-11T14:36:00Z</time>
      </trkpt>
      <trkpt lat="47.79068" lon="-2.44823">
        <ele>31.8</ele>
        <time>2025-02-11T14:36:01Z</time>
      </trkpt>
      <trkpt lat="47.79068" lon="-2.44823">
        <ele>31.8</ele>
        <time>2025-02-11T14:36:02Z</time>
      </trkpt>
      <trkpt lat="47.79068" lon="-2.44824">
        <ele>31.8</ele>
        <time>2025-02-11T14:36:03Z</time>
      </trkpt>
      <trkpt lat="47.79068" lon="-2.44824">
        <ele>31.8</ele>
        <time>2025-02-11T14:36:04Z</time>
      </trkpt>
      <trkpt lat="47.79068" lon="-2.44824">
        <ele>31.8</ele>
        <time>2025-02-11T14:36:05Z</time>
      </trkpt>
      <trkpt lat="47.79068" lon="-2.44824">
        <ele>31.8</ele>
        <time>2025-02-11T14:36:06Z</time>
      </trkpt>
      <trkpt lat="47.79068" lon="-2.44824">
        <ele>31.8</ele>
        <time>2025-02-11T14:36:07Z</time>
      </trkpt>
      <trkpt lat="47.79068" lon="-2.44824">
        <ele>31.8</ele>
        <time>2025-02-11T14:36:08Z</time>
      </trkpt>
      <trkpt lat="47.79068" lon="-2.44824">
        <ele>31.8</ele>
        <time>2025-02-11T14:36:09Z</time>
      </trkpt>
      <trkpt lat="47.79068" lon="-2.44824">
        <ele>31.8</ele>
        <time>2025-02-11T14:36:10Z</time>
      </trkpt>
      <trkpt lat="47.79068" lon="-2.44824">
        <ele>31.8</ele>
        <time>2025-02-11T14:36:11Z</time>
      </trkpt>
      <trkpt lat="47.79068" lon="-2.44824">
        <ele>31.8</ele>
        <time>2025-02-11T14:36:12Z</time>
      </trkpt>
      <trkpt lat="47.79068" lon="-2.44824">
        <ele>31.8</ele>
        <time>2025-02-11T14:36:13Z</time>
      </trkpt>
      <trkpt lat="47.79068" lon="-2.44824">
        <ele>31.8</ele>
        <time>2025-02-11T14:36:14Z</time>
      </trkpt>
      <trkpt lat="47.79068" lon="-2.44824">
        <ele>31.8</ele>
        <time>2025-02-11T14:36:15Z</time>
      </trkpt>
      <trkpt lat="47.79068" lon="-2.44824">
        <ele>31.8</ele>
        <time>2025-02-11T14:36:16Z</time>
      </trkpt>
      <trkpt lat="47.79068" lon="-2.44824">
        <ele>31.8</ele>
        <time>2025-02-11T14:36:17Z</time>
      </trkpt>
      <trkpt lat="47.79068" lon="-2.44824">
        <ele>31.8</ele>
        <time>2025-02-11T14:36:18Z</time>
      </trkpt>
      <trkpt lat="47.79068" lon="-2.44824">
        <ele>31.8</ele>
        <time>2025-02-11T14:36:19Z</time>
      </trkpt>
      <trkpt lat="47.79069" lon="-2.44823">
        <ele>31.8</ele>
        <time>2025-02-11T14:36:20Z</time>
      </trkpt>
      <trkpt lat="47.79068" lon="-2.44823">
        <ele>31.8</ele>
        <time>2025-02-11T14:36:21Z</time>
      </trkpt>
      <trkpt lat="47.79068" lon="-2.44824">
        <ele>31.8</ele>
        <time>2025-02-11T14:36:22Z</time>
      </trkpt>
      <trkpt lat="47.79068" lon="-2.44824">
        <ele>31.8</ele>
        <time>2025-02-11T14:36:23Z</time>
      </trkpt>
      <trkpt lat="47.79068" lon="-2.44824">
        <ele>31.8</ele>
        <time>2025-02-11T14:36:24Z</time>
      </trkpt>
      <trkpt lat="47.79068" lon="-2.44824">
        <ele>31.8</ele>
        <time>2025-02-11T14:36:25Z</time>
      </trkpt>
      <trkpt lat="47.79068" lon="-2.44824">
        <ele>31.8</ele>
        <time>2025-02-11T14:36:26Z</time>
      </trkpt>
      <trkpt lat="47.79068" lon="-2.44824">
        <ele>31.8</ele>
        <time>2025-02-11T14:36:27Z</time>
      </trkpt>
      <trkpt lat="47.79068" lon="-2.44824">
        <ele>31.8</ele>
        <time>2025-02-11T14:36:28Z</time>
      </trkpt>
      <trkpt lat="47.79068" lon="-2.44824">
        <ele>31.8</ele>
        <time>2025-02-11T14:36:29Z</time>
      </trkpt>
      <trkpt lat="47.79068" lon="-2.44824">
        <ele>31.8</ele>
        <time>2025-02-11T14:36:30Z</time>
      </trkpt>
      <trkpt lat="47.79068" lon="-2.44824">
        <ele>31.8</ele>
        <time>2025-02-11T14:36:31Z</time>
      </trkpt>
      <trkpt lat="47.79068" lon="-2.44824">
        <ele>31.8</ele>
        <time>2025-02-11T14:36:32Z</time>
      </trkpt>
      <trkpt lat="47.79068" lon="-2.44824">
        <ele>31.8</ele>
        <time>2025-02-11T14:36:33Z</time>
      </trkpt>
      <trkpt lat="47.79068" lon="-2.44824">
        <ele>31.8</ele>
        <time>2025-02-11T14:36:34Z</time>
      </trkpt>
      <trkpt lat="47.79068" lon="-2.44824">
        <ele>31.8</ele>
        <time>2025-02-11T14:36:35Z</time>
      </trkpt>
      <trkpt lat="47.79068" lon="-2.44824">
        <ele>31.8</ele>
        <time>2025-02-11T14:36:36Z</time>
      </trkpt>
      <trkpt lat="47.79068" lon="-2.44824">
        <ele>31.8</ele>
        <time>2025-02-11T14:36:37Z</time>
      </trkpt>
      <trkpt lat="47.79068" lon="-2.44824">
        <ele>31.8</ele>
        <time>2025-02-11T14:36:38Z</time>
      </trkpt>
      <trkpt lat="47.79068" lon="-2.44824">
        <ele>31.8</ele>
        <time>2025-02-11T14:36:39Z</time>
      </trkpt>
      <trkpt lat="47.79068" lon="-2.44824">
        <ele>31.8</ele>
        <time>2025-02-11T14:36:40Z</time>
      </trkpt>
      <trkpt lat="47.79068" lon="-2.44824">
        <ele>31.8</ele>
        <time>2025-02-11T14:36:41Z</time>
      </trkpt>
      <trkpt lat="47.79069" lon="-2.44824">
        <ele>31.8</ele>
        <time>2025-02-11T14:36:42Z</time>
      </trkpt>
      <trkpt lat="47.79069" lon="-2.44824">
        <ele>31.8</ele>
        <time>2025-02-11T14:36:43Z</time>
      </trkpt>
      <trkpt lat="47.79069" lon="-2.44824">
        <ele>31.8</ele>
        <time>2025-02-11T14:36:44Z</time>
      </trkpt>
      <trkpt lat="47.79069" lon="-2.44825">
        <ele>31.8</ele>
        <time>2025-02-11T14:36:45Z</time>
      </trkpt>
      <trkpt lat="47.79069" lon="-2.44826">
        <ele>31.9</ele>
        <time>2025-02-11T14:36:46Z</time>
      </trkpt>
      <trkpt lat="47.79068" lon="-2.44827">
        <ele>31.9</ele>
        <time>2025-02-11T14:36:47Z</time>
      </trkpt>
      <trkpt lat="47.79068" lon="-2.44829">
        <ele>31.9</ele>
        <time>2025-02-11T14:36:48Z</time>
      </trkpt>
      <trkpt lat="47.79067" lon="-2.4483">
        <ele>31.9</ele>
        <time>2025-02-11T14:36:49Z</time>
      </trkpt>
      <trkpt lat="47.79067" lon="-2.44831">
        <ele>32</ele>
        <time>2025-02-11T14:36:50Z</time>
      </trkpt>
      <trkpt lat="47.79066" lon="-2.44833">
        <ele>32</ele>
        <time>2025-02-11T14:36:51Z</time>
      </trkpt>
      <trkpt lat="47.79066" lon="-2.44835">
        <ele>32</ele>
        <time>2025-02-11T14:36:52Z</time>
      </trkpt>
      <trkpt lat="47.79066" lon="-2.44836">
        <ele>32</ele>
        <time>2025-02-11T14:36:53Z</time>
      </trkpt>
      <trkpt lat="47.79065" lon="-2.44838">
        <ele>32.1</ele>
        <time>2025-02-11T14:36:54Z</time>
      </trkpt>
      <trkpt lat="47.79065" lon="-2.44839">
        <ele>32.1</ele>
        <time>2025-02-11T14:36:55Z</time>
      </trkpt>
      <trkpt lat="47.79064" lon="-2.44841">
        <ele>32.1</ele>
        <time>2025-02-11T14:36:56Z</time>
      </trkpt>
      <trkpt lat="47.79064" lon="-2.44842">
        <ele>32.1</ele>
        <time>2025-02-11T14:36:57Z</time>
      </trkpt>
      <trkpt lat="47.79064" lon="-2.44844">
        <ele>32.1</ele>
        <time>2025-02-11T14:36:58Z</time>
      </trkpt>
      <trkpt lat="47.79063" lon="-2.44846">
        <ele>32.1</ele>
        <time>2025-02-11T14:36:59Z</time>
      </trkpt>
      <trkpt lat="47.79063" lon="-2.44848">
        <ele>32.1</ele>
        <time>2025-02-11T14:37:00Z</time>
      </trkpt>
      <trkpt lat="47.79063" lon="-2.44849">
        <ele>32.1</ele>
        <time>2025-02-11T14:37:01Z</time>
      </trkpt>
      <trkpt lat="47.79062" lon="-2.4485">
        <ele>32.1</ele>
        <time>2025-02-11T14:37:02Z</time>
      </trkpt>
      <trkpt lat="47.79062" lon="-2.44852">
        <ele>32.2</ele>
        <time>2025-02-11T14:37:03Z</time>
      </trkpt>
      <trkpt lat="47.79062" lon="-2.44853">
        <ele>32.2</ele>
        <time>2025-02-11T14:37:04Z</time>
      </trkpt>
      <trkpt lat="47.79062" lon="-2.44855">
        <ele>32.2</ele>
        <time>2025-02-11T14:37:05Z</time>
      </trkpt>
      <trkpt lat="47.79061" lon="-2.44856">
        <ele>32.2</ele>
        <time>2025-02-11T14:37:06Z</time>
      </trkpt>
      <trkpt lat="47.79061" lon="-2.44858">
        <ele>32.2</ele>
        <time>2025-02-11T14:37:07Z</time>
      </trkpt>
      <trkpt lat="47.79061" lon="-2.44859">
        <ele>32.2</ele>
        <time>2025-02-11T14:37:08Z</time>
      </trkpt>
      <trkpt lat="47.7906" lon="-2.4486">
        <ele>32.2</ele>
        <time>2025-02-11T14:37:09Z</time>
      </trkpt>
      <trkpt lat="47.7906" lon="-2.44861">
        <ele>32.2</ele>
        <time>2025-02-11T14:37:10Z</time>
      </trkpt>
      <trkpt lat="47.7906" lon="-2.44863">
        <ele>32.1</ele>
        <time>2025-02-11T14:37:11Z</time>
      </trkpt>
      <trkpt lat="47.79059" lon="-2.44864">
        <ele>32.1</ele>
        <time>2025-02-11T14:37:12Z</time>
      </trkpt>
      <trkpt lat="47.7906" lon="-2.44865">
        <ele>32.2</ele>
        <time>2025-02-11T14:37:13Z</time>
      </trkpt>
      <trkpt lat="47.7906" lon="-2.44866">
        <ele>32.2</ele>
        <time>2025-02-11T14:37:14Z</time>
      </trkpt>
      <trkpt lat="47.7906" lon="-2.44868">
        <ele>32.1</ele>
        <time>2025-02-11T14:37:15Z</time>
      </trkpt>
      <trkpt lat="47.79059" lon="-2.4487">
        <ele>32.1</ele>
        <time>2025-02-11T14:37:16Z</time>
      </trkpt>
      <trkpt lat="47.79059" lon="-2.44871">
        <ele>32.1</ele>
        <time>2025-02-11T14:37:17Z</time>
      </trkpt>
      <trkpt lat="47.79059" lon="-2.44873">
        <ele>32.1</ele>
        <time>2025-02-11T14:37:18Z</time>
      </trkpt>
      <trkpt lat="47.79059" lon="-2.44875">
        <ele>32.1</ele>
        <time>2025-02-11T14:37:19Z</time>
      </trkpt>
      <trkpt lat="47.79059" lon="-2.44877">
        <ele>32.1</ele>
        <time>2025-02-11T14:37:20Z</time>
      </trkpt>
      <trkpt lat="47.79058" lon="-2.4488">
        <ele>32.1</ele>
        <time>2025-02-11T14:37:21Z</time>
      </trkpt>
      <trkpt lat="47.79056" lon="-2.44881">
        <ele>32</ele>
        <time>2025-02-11T14:37:22Z</time>
      </trkpt>
      <trkpt lat="47.79055" lon="-2.44883">
        <ele>32</ele>
        <time>2025-02-11T14:37:23Z</time>
      </trkpt>
      <trkpt lat="47.79053" lon="-2.44884">
        <ele>31.9</ele>
        <time>2025-02-11T14:37:24Z</time>
      </trkpt>
      <trkpt lat="47.79052" lon="-2.44885">
        <ele>31.8</ele>
        <time>2025-02-11T14:37:25Z</time>
      </trkpt>
      <trkpt lat="47.7905" lon="-2.44885">
        <ele>31.7</ele>
        <time>2025-02-11T14:37:26Z</time>
      </trkpt>
      <trkpt lat="47.79049" lon="-2.44887">
        <ele>31.5</ele>
        <time>2025-02-11T14:37:27Z</time>
      </trkpt>
      <trkpt lat="47.79048" lon="-2.44888">
        <ele>31.4</ele>
        <time>2025-02-11T14:37:28Z</time>
      </trkpt>
      <trkpt lat="47.79046" lon="-2.44888">
        <ele>31.3</ele>
        <time>2025-02-11T14:37:29Z</time>
      </trkpt>
      <trkpt lat="47.79045" lon="-2.44889">
        <ele>31.2</ele>
        <time>2025-02-11T14:37:30Z</time>
      </trkpt>
      <trkpt lat="47.79044" lon="-2.44889">
        <ele>31.1</ele>
        <time>2025-02-11T14:37:31Z</time>
      </trkpt>
      <trkpt lat="47.79043" lon="-2.44889">
        <ele>31.1</ele>
        <time>2025-02-11T14:37:32Z</time>
      </trkpt>
      <trkpt lat="47.79042" lon="-2.44888">
        <ele>31</ele>
        <time>2025-02-11T14:37:33Z</time>
      </trkpt>
      <trkpt lat="47.7904" lon="-2.44888">
        <ele>30.9</ele>
        <time>2025-02-11T14:37:34Z</time>
      </trkpt>
      <trkpt lat="47.79039" lon="-2.44888">
        <ele>30.8</ele>
        <time>2025-02-11T14:37:35Z</time>
      </trkpt>
      <trkpt lat="47.79038" lon="-2.44889">
        <ele>30.7</ele>
        <time>2025-02-11T14:37:36Z</time>
      </trkpt>
      <trkpt lat="47.79037" lon="-2.44889">
        <ele>30.6</ele>
        <time>2025-02-11T14:37:37Z</time>
      </trkpt>
      <trkpt lat="47.79035" lon="-2.44889">
        <ele>30.5</ele>
        <time>2025-02-11T14:37:38Z</time>
      </trkpt>
      <trkpt lat="47.79034" lon="-2.44889">
        <ele>30.5</ele>
        <time>2025-02-11T14:37:39Z</time>
      </trkpt>
      <trkpt lat="47.79033" lon="-2.44889">
        <ele>30.4</ele>
        <time>2025-02-11T14:37:40Z</time>
      </trkpt>
      <trkpt lat="47.79032" lon="-2.44889">
        <ele>30.3</ele>
        <time>2025-02-11T14:37:41Z</time>
      </trkpt>
      <trkpt lat="47.79031" lon="-2.4489">
        <ele>30.3</ele>
        <time>2025-02-11T14:37:42Z</time>
      </trkpt>
      <trkpt lat="47.79029" lon="-2.4489">
        <ele>30.2</ele>
        <time>2025-02-11T14:37:43Z</time>
      </trkpt>
      <trkpt lat="47.79028" lon="-2.4489">
        <ele>30.1</ele>
        <time>2025-02-11T14:37:44Z</time>
      </trkpt>
      <trkpt lat="47.79027" lon="-2.44889">
        <ele>30</ele>
        <time>2025-02-11T14:37:45Z</time>
      </trkpt>
      <trkpt lat="47.79026" lon="-2.44889">
        <ele>29.9</ele>
        <time>2025-02-11T14:37:46Z</time>
      </trkpt>
      <trkpt lat="47.79025" lon="-2.4489">
        <ele>29.9</ele>
        <time>2025-02-11T14:37:47Z</time>
      </trkpt>
      <trkpt lat="47.79023" lon="-2.4489">
        <ele>29.9</ele>
        <time>2025-02-11T14:37:48Z</time>
      </trkpt>
      <trkpt lat="47.79022" lon="-2.4489">
        <ele>29.8</ele>
        <time>2025-02-11T14:37:49Z</time>
      </trkpt>
      <trkpt lat="47.79021" lon="-2.4489">
        <ele>29.8</ele>
        <time>2025-02-11T14:37:50Z</time>
      </trkpt>
      <trkpt lat="47.7902" lon="-2.4489">
        <ele>29.8</ele>
        <time>2025-02-11T14:37:51Z</time>
      </trkpt>
      <trkpt lat="47.79019" lon="-2.4489">
        <ele>29.7</ele>
        <time>2025-02-11T14:37:52Z</time>
      </trkpt>
      <trkpt lat="47.79017" lon="-2.4489">
        <ele>29.7</ele>
        <time>2025-02-11T14:37:53Z</time>
      </trkpt>
      <trkpt lat="47.79016" lon="-2.4489">
        <ele>29.6</ele>
        <time>2025-02-11T14:37:54Z</time>
      </trkpt>
      <trkpt lat="47.79015" lon="-2.4489">
        <ele>29.6</ele>
        <time>2025-02-11T14:37:55Z</time>
      </trkpt>
      <trkpt lat="47.79014" lon="-2.44889">
        <ele>29.5</ele>
        <time>2025-02-11T14:37:56Z</time>
      </trkpt>
      <trkpt lat="47.79012" lon="-2.44888">
        <ele>29.5</ele>
        <time>2025-02-11T14:37:57Z</time>
      </trkpt>
      <trkpt lat="47.79011" lon="-2.44888">
        <ele>29.4</ele>
        <time>2025-02-11T14:37:58Z</time>
      </trkpt>
      <trkpt lat="47.7901" lon="-2.44887">
        <ele>29.4</ele>
        <time>2025-02-11T14:37:59Z</time>
      </trkpt>
      <trkpt lat="47.79009" lon="-2.44888">
        <ele>29.4</ele>
        <time>2025-02-11T14:38:00Z</time>
      </trkpt>
      <trkpt lat="47.79008" lon="-2.44888">
        <ele>29.3</ele>
        <time>2025-02-11T14:38:01Z</time>
      </trkpt>
      <trkpt lat="47.79007" lon="-2.44887">
        <ele>29.3</ele>
        <time>2025-02-11T14:38:02Z</time>
      </trkpt>
      <trkpt lat="47.79006" lon="-2.44887">
        <ele>29.3</ele>
        <time>2025-02-11T14:38:03Z</time>
      </trkpt>
      <trkpt lat="47.79005" lon="-2.44887">
        <ele>29.2</ele>
        <time>2025-02-11T14:38:04Z</time>
      </trkpt>
      <trkpt lat="47.79004" lon="-2.44888">
        <ele>29.2</ele>
        <time>2025-02-11T14:38:05Z</time>
      </trkpt>
      <trkpt lat="47.79003" lon="-2.44888">
        <ele>29.1</ele>
        <time>2025-02-11T14:38:06Z</time>
      </trkpt>
      <trkpt lat="47.79002" lon="-2.44889">
        <ele>29.1</ele>
        <time>2025-02-11T14:38:07Z</time>
      </trkpt>
      <trkpt lat="47.79001" lon="-2.44889">
        <ele>29</ele>
        <time>2025-02-11T14:38:08Z</time>
      </trkpt>
      <trkpt lat="47.78999" lon="-2.4489">
        <ele>29</ele>
        <time>2025-02-11T14:38:09Z</time>
      </trkpt>
      <trkpt lat="47.78998" lon="-2.44889">
        <ele>29</ele>
        <time>2025-02-11T14:38:10Z</time>
      </trkpt>
      <trkpt lat="47.78997" lon="-2.44889">
        <ele>29</ele>
        <time>2025-02-11T14:38:11Z</time>
      </trkpt>
      <trkpt lat="47.78996" lon="-2.44889">
        <ele>29</ele>
        <time>2025-02-11T14:38:12Z</time>
      </trkpt>
      <trkpt lat="47.78994" lon="-2.44889">
        <ele>29</ele>
        <time>2025-02-11T14:38:13Z</time>
      </trkpt>
      <trkpt lat="47.78993" lon="-2.44889">
        <ele>29</ele>
        <time>2025-02-11T14:38:14Z</time>
      </trkpt>
      <trkpt lat="47.78992" lon="-2.44888">
        <ele>29</ele>
        <time>2025-02-11T14:38:15Z</time>
      </trkpt>
      <trkpt lat="47.78991" lon="-2.44887">
        <ele>29</ele>
        <time>2025-02-11T14:38:16Z</time>
      </trkpt>
      <trkpt lat="47.7899" lon="-2.44887">
        <ele>29.1</ele>
        <time>2025-02-11T14:38:17Z</time>
      </trkpt>
      <trkpt lat="47.78989" lon="-2.44886">
        <ele>29.1</ele>
        <time>2025-02-11T14:38:18Z</time>
      </trkpt>
      <trkpt lat="47.78988" lon="-2.44885">
        <ele>29.1</ele>
        <time>2025-02-11T14:38:19Z</time>
      </trkpt>
      <trkpt lat="47.78986" lon="-2.44885">
        <ele>29.1</ele>
        <time>2025-02-11T14:38:20Z</time>
      </trkpt>
      <trkpt lat="47.78985" lon="-2.44884">
        <ele>29.1</ele>
        <time>2025-02-11T14:38:21Z</time>
      </trkpt>
      <trkpt lat="47.78984" lon="-2.44884">
        <ele>29.1</ele>
        <time>2025-02-11T14:38:22Z</time>
      </trkpt>
      <trkpt lat="47.78983" lon="-2.44884">
        <ele>29.1</ele>
        <time>2025-02-11T14:38:23Z</time>
      </trkpt>
      <trkpt lat="47.78982" lon="-2.44884">
        <ele>29.1</ele>
        <time>2025-02-11T14:38:24Z</time>
      </trkpt>
      <trkpt lat="47.78981" lon="-2.44884">
        <ele>29.1</ele>
        <time>2025-02-11T14:38:25Z</time>
      </trkpt>
      <trkpt lat="47.7898" lon="-2.44883">
        <ele>29.1</ele>
        <time>2025-02-11T14:38:26Z</time>
      </trkpt>
      <trkpt lat="47.78978" lon="-2.44882">
        <ele>29.1</ele>
        <time>2025-02-11T14:38:27Z</time>
      </trkpt>
      <trkpt lat="47.78977" lon="-2.44882">
        <ele>29</ele>
        <time>2025-02-11T14:38:28Z</time>
      </trkpt>
      <trkpt lat="47.78976" lon="-2.44882">
        <ele>29</ele>
        <time>2025-02-11T14:38:29Z</time>
      </trkpt>
      <trkpt lat="47.78975" lon="-2.44882">
        <ele>29</ele>
        <time>2025-02-11T14:38:30Z</time>
      </trkpt>
      <trkpt lat="47.78974" lon="-2.44882">
        <ele>29</ele>
        <time>2025-02-11T14:38:31Z</time>
      </trkpt>
      <trkpt lat="47.78973" lon="-2.44881">
        <ele>29</ele>
        <time>2025-02-11T14:38:32Z</time>
      </trkpt>
      <trkpt lat="47.78972" lon="-2.4488">
        <ele>29</ele>
        <time>2025-02-11T14:38:33Z</time>
      </trkpt>
      <trkpt lat="47.78971" lon="-2.4488">
        <ele>29</ele>
        <time>2025-02-11T14:38:34Z</time>
      </trkpt>
      <trkpt lat="47.7897" lon="-2.44879">
        <ele>28.9</ele>
        <time>2025-02-11T14:38:35Z</time>
      </trkpt>
      <trkpt lat="47.78969" lon="-2.44878">
        <ele>28.9</ele>
        <time>2025-02-11T14:38:36Z</time>
      </trkpt>
      <trkpt lat="47.78968" lon="-2.44878">
        <ele>28.9</ele>
        <time>2025-02-11T14:38:37Z</time>
      </trkpt>
      <trkpt lat="47.78966" lon="-2.44878">
        <ele>28.8</ele>
        <time>2025-02-11T14:38:38Z</time>
      </trkpt>
      <trkpt lat="47.78966" lon="-2.44876">
        <ele>28.8</ele>
        <time>2025-02-11T14:38:39Z</time>
      </trkpt>
      <trkpt lat="47.78965" lon="-2.44875">
        <ele>28.7</ele>
        <time>2025-02-11T14:38:40Z</time>
      </trkpt>
      <trkpt lat="47.78964" lon="-2.44875">
        <ele>28.7</ele>
        <time>2025-02-11T14:38:41Z</time>
      </trkpt>
      <trkpt lat="47.78963" lon="-2.44874">
        <ele>28.6</ele>
        <time>2025-02-11T14:38:42Z</time>
      </trkpt>
      <trkpt lat="47.78961" lon="-2.44873">
        <ele>28.6</ele>
        <time>2025-02-11T14:38:43Z</time>
      </trkpt>
      <trkpt lat="47.7896" lon="-2.44873">
        <ele>28.5</ele>
        <time>2025-02-11T14:38:44Z</time>
      </trkpt>
      <trkpt lat="47.78959" lon="-2.44873">
        <ele>28.4</ele>
        <time>2025-02-11T14:38:45Z</time>
      </trkpt>
      <trkpt lat="47.78958" lon="-2.44872">
        <ele>28.3</ele>
        <time>2025-02-11T14:38:46Z</time>
      </trkpt>
      <trkpt lat="47.78956" lon="-2.44871">
        <ele>28.3</ele>
        <time>2025-02-11T14:38:47Z</time>
      </trkpt>
      <trkpt lat="47.78955" lon="-2.44871">
        <ele>28.2</ele>
        <time>2025-02-11T14:38:48Z</time>
      </trkpt>
      <trkpt lat="47.78954" lon="-2.4487">
        <ele>28.1</ele>
        <time>2025-02-11T14:38:49Z</time>
      </trkpt>
      <trkpt lat="47.78953" lon="-2.44869">
        <ele>28</ele>
        <time>2025-02-11T14:38:50Z</time>
      </trkpt>
      <trkpt lat="47.78951" lon="-2.44868">
        <ele>27.9</ele>
        <time>2025-02-11T14:38:51Z</time>
      </trkpt>
      <trkpt lat="47.7895" lon="-2.44868">
        <ele>27.8</ele>
        <time>2025-02-11T14:38:52Z</time>
      </trkpt>
      <trkpt lat="47.78949" lon="-2.44866">
        <ele>27.7</ele>
        <time>2025-02-11T14:38:53Z</time>
      </trkpt>
      <trkpt lat="47.78948" lon="-2.44866">
        <ele>27.5</ele>
        <time>2025-02-11T14:38:54Z</time>
      </trkpt>
      <trkpt lat="47.78947" lon="-2.44865">
        <ele>27.4</ele>
        <time>2025-02-11T14:38:55Z</time>
      </trkpt>
      <trkpt lat="47.78946" lon="-2.44865">
        <ele>27.3</ele>
        <time>2025-02-11T14:38:56Z</time>
      </trkpt>
      <trkpt lat="47.78945" lon="-2.44864">
        <ele>27.2</ele>
        <time>2025-02-11T14:38:57Z</time>
      </trkpt>
      <trkpt lat="47.78943" lon="-2.44864">
        <ele>27.1</ele>
        <time>2025-02-11T14:38:58Z</time>
      </trkpt>
      <trkpt lat="47.78942" lon="-2.44863">
        <ele>27</ele>
        <time>2025-02-11T14:38:59Z</time>
      </trkpt>
      <trkpt lat="47.78941" lon="-2.44861">
        <ele>26.8</ele>
        <time>2025-02-11T14:39:00Z</time>
      </trkpt>
      <trkpt lat="47.7894" lon="-2.44861">
        <ele>26.7</ele>
        <time>2025-02-11T14:39:01Z</time>
      </trkpt>
      <trkpt lat="47.78939" lon="-2.4486">
        <ele>26.6</ele>
        <time>2025-02-11T14:39:02Z</time>
      </trkpt>
      <trkpt lat="47.78938" lon="-2.4486">
        <ele>26.6</ele>
        <time>2025-02-11T14:39:03Z</time>
      </trkpt>
      <trkpt lat="47.78937" lon="-2.4486">
        <ele>26.5</ele>
        <time>2025-02-11T14:39:04Z</time>
      </trkpt>
      <trkpt lat="47.78936" lon="-2.44859">
        <ele>26.4</ele>
        <time>2025-02-11T14:39:05Z</time>
      </trkpt>
      <trkpt lat="47.78935" lon="-2.44859">
        <ele>26.4</ele>
        <time>2025-02-11T14:39:06Z</time>
      </trkpt>
      <trkpt lat="47.78934" lon="-2.44858">
        <ele>26.3</ele>
        <time>2025-02-11T14:39:07Z</time>
      </trkpt>
      <trkpt lat="47.78933" lon="-2.44858">
        <ele>26.2</ele>
        <time>2025-02-11T14:39:08Z</time>
      </trkpt>
      <trkpt lat="47.78932" lon="-2.44857">
        <ele>26.1</ele>
        <time>2025-02-11T14:39:09Z</time>
      </trkpt>
      <trkpt lat="47.78931" lon="-2.44857">
        <ele>26</ele>
        <time>2025-02-11T14:39:10Z</time>
      </trkpt>
      <trkpt lat="47.7893" lon="-2.44857">
        <ele>25.9</ele>
        <time>2025-02-11T14:39:11Z</time>
      </trkpt>
      <trkpt lat="47.78929" lon="-2.44858">
        <ele>25.9</ele>
        <time>2025-02-11T14:39:12Z</time>
      </trkpt>
      <trkpt lat="47.78928" lon="-2.44858">
        <ele>25.8</ele>
        <time>2025-02-11T14:39:13Z</time>
      </trkpt>
      <trkpt lat="47.78927" lon="-2.44858">
        <ele>25.7</ele>
        <time>2025-02-11T14:39:14Z</time>
      </trkpt>
      <trkpt lat="47.78925" lon="-2.44857">
        <ele>25.6</ele>
        <time>2025-02-11T14:39:15Z</time>
      </trkpt>
      <trkpt lat="47.78924" lon="-2.44856">
        <ele>25.5</ele>
        <time>2025-02-11T14:39:16Z</time>
      </trkpt>
      <trkpt lat="47.78923" lon="-2.44855">
        <ele>25.4</ele>
        <time>2025-02-11T14:39:17Z</time>
      </trkpt>
      <trkpt lat="47.78922" lon="-2.44854">
        <ele>25.2</ele>
        <time>2025-02-11T14:39:18Z</time>
      </trkpt>
      <trkpt lat="47.78921" lon="-2.44852">
        <ele>25.1</ele>
        <time>2025-02-11T14:39:19Z</time>
      </trkpt>
      <trkpt lat="47.7892" lon="-2.44852">
        <ele>25</ele>
        <time>2025-02-11T14:39:20Z</time>
      </trkpt>
      <trkpt lat="47.78919" lon="-2.44851">
        <ele>24.9</ele>
        <time>2025-02-11T14:39:21Z</time>
      </trkpt>
      <trkpt lat="47.78918" lon="-2.4485">
        <ele>24.7</ele>
        <time>2025-02-11T14:39:22Z</time>
      </trkpt>
      <trkpt lat="47.78917" lon="-2.44849">
        <ele>24.6</ele>
        <time>2025-02-11T14:39:23Z</time>
      </trkpt>
      <trkpt lat="47.78916" lon="-2.44849">
        <ele>24.5</ele>
        <time>2025-02-11T14:39:24Z</time>
      </trkpt>
      <trkpt lat="47.78915" lon="-2.44848">
        <ele>24.4</ele>
        <time>2025-02-11T14:39:25Z</time>
      </trkpt>
      <trkpt lat="47.78914" lon="-2.44848">
        <ele>24.4</ele>
        <time>2025-02-11T14:39:26Z</time>
      </trkpt>
      <trkpt lat="47.78913" lon="-2.44847">
        <ele>24.3</ele>
        <time>2025-02-11T14:39:27Z</time>
      </trkpt>
      <trkpt lat="47.78912" lon="-2.44846">
        <ele>24.2</ele>
        <time>2025-02-11T14:39:28Z</time>
      </trkpt>
      <trkpt lat="47.78911" lon="-2.44845">
        <ele>24.1</ele>
        <time>2025-02-11T14:39:29Z</time>
      </trkpt>
      <trkpt lat="47.7891" lon="-2.44845">
        <ele>24</ele>
        <time>2025-02-11T14:39:30Z</time>
      </trkpt>
      <trkpt lat="47.78909" lon="-2.44844">
        <ele>23.9</ele>
        <time>2025-02-11T14:39:31Z</time>
      </trkpt>
      <trkpt lat="47.78908" lon="-2.44843">
        <ele>23.8</ele>
        <time>2025-02-11T14:39:32Z</time>
      </trkpt>
      <trkpt lat="47.78907" lon="-2.44843">
        <ele>23.8</ele>
        <time>2025-02-11T14:39:33Z</time>
      </trkpt>
      <trkpt lat="47.78906" lon="-2.44843">
        <ele>23.7</ele>
        <time>2025-02-11T14:39:34Z</time>
      </trkpt>
      <trkpt lat="47.78905" lon="-2.44842">
        <ele>23.6</ele>
        <time>2025-02-11T14:39:35Z</time>
      </trkpt>
      <trkpt lat="47.78904" lon="-2.44842">
        <ele>23.5</ele>
        <time>2025-02-11T14:39:36Z</time>
      </trkpt>
      <trkpt lat="47.78903" lon="-2.44841">
        <ele>23.4</ele>
        <time>2025-02-11T14:39:37Z</time>
      </trkpt>
      <trkpt lat="47.78901" lon="-2.44841">
        <ele>23.3</ele>
        <time>2025-02-11T14:39:38Z</time>
      </trkpt>
      <trkpt lat="47.789" lon="-2.4484">
        <ele>23.2</ele>
        <time>2025-02-11T14:39:39Z</time>
      </trkpt>
      <trkpt lat="47.78899" lon="-2.44839">
        <ele>23.1</ele>
        <time>2025-02-11T14:39:40Z</time>
      </trkpt>
      <trkpt lat="47.78898" lon="-2.44838">
        <ele>23</ele>
        <time>2025-02-11T14:39:41Z</time>
      </trkpt>
      <trkpt lat="47.78897" lon="-2.44838">
        <ele>22.8</ele>
        <time>2025-02-11T14:39:42Z</time>
      </trkpt>
      <trkpt lat="47.78896" lon="-2.44837">
        <ele>22.7</ele>
        <time>2025-02-11T14:39:43Z</time>
      </trkpt>
      <trkpt lat="47.78895" lon="-2.44836">
        <ele>22.6</ele>
        <time>2025-02-11T14:39:44Z</time>
      </trkpt>
      <trkpt lat="47.78894" lon="-2.44836">
        <ele>22.5</ele>
        <time>2025-02-11T14:39:45Z</time>
      </trkpt>
      <trkpt lat="47.78892" lon="-2.44836">
        <ele>22.4</ele>
        <time>2025-02-11T14:39:46Z</time>
      </trkpt>
      <trkpt lat="47.78891" lon="-2.44835">
        <ele>22.3</ele>
        <time>2025-02-11T14:39:47Z</time>
      </trkpt>
      <trkpt lat="47.7889" lon="-2.44834">
        <ele>22.2</ele>
        <time>2025-02-11T14:39:48Z</time>
      </trkpt>
      <trkpt lat="47.78889" lon="-2.44834">
        <ele>22</ele>
        <time>2025-02-11T14:39:49Z</time>
      </trkpt>
      <trkpt lat="47.78888" lon="-2.44833">
        <ele>22</ele>
        <time>2025-02-11T14:39:50Z</time>
      </trkpt>
      <trkpt lat="47.78887" lon="-2.44833">
        <ele>22</ele>
        <time>2025-02-11T14:39:51Z</time>
      </trkpt>
      <trkpt lat="47.78886" lon="-2.44832">
        <ele>22</ele>
        <time>2025-02-11T14:39:52Z</time>
      </trkpt>
      <trkpt lat="47.78884" lon="-2.44831">
        <ele>22.1</ele>
        <time>2025-02-11T14:39:53Z</time>
      </trkpt>
      <trkpt lat="47.78883" lon="-2.4483">
        <ele>22.1</ele>
        <time>2025-02-11T14:39:54Z</time>
      </trkpt>
      <trkpt lat="47.78882" lon="-2.4483">
        <ele>22.1</ele>
        <time>2025-02-11T14:39:55Z</time>
      </trkpt>
      <trkpt lat="47.78881" lon="-2.44829">
        <ele>22.1</ele>
        <time>2025-02-11T14:39:56Z</time>
      </trkpt>
      <trkpt lat="47.7888" lon="-2.44829">
        <ele>22.1</ele>
        <time>2025-02-11T14:39:57Z</time>
      </trkpt>
      <trkpt lat="47.78879" lon="-2.44829">
        <ele>22</ele>
        <time>2025-02-11T14:39:58Z</time>
      </trkpt>
      <trkpt lat="47.78877" lon="-2.44828">
        <ele>22</ele>
        <time>2025-02-11T14:39:59Z</time>
      </trkpt>
      <trkpt lat="47.78876" lon="-2.44828">
        <ele>22</ele>
        <time>2025-02-11T14:40:00Z</time>
      </trkpt>
      <trkpt lat="47.78875" lon="-2.44827">
        <ele>22</ele>
        <time>2025-02-11T14:40:01Z</time>
      </trkpt>
      <trkpt lat="47.78874" lon="-2.44825">
        <ele>22</ele>
        <time>2025-02-11T14:40:02Z</time>
      </trkpt>
      <trkpt lat="47.78873" lon="-2.44824">
        <ele>22</ele>
        <time>2025-02-11T14:40:03Z</time>
      </trkpt>
      <trkpt lat="47.78872" lon="-2.44824">
        <ele>21.9</ele>
        <time>2025-02-11T14:40:04Z</time>
      </trkpt>
      <trkpt lat="47.78871" lon="-2.44823">
        <ele>21.9</ele>
        <time>2025-02-11T14:40:05Z</time>
      </trkpt>
      <trkpt lat="47.7887" lon="-2.44822">
        <ele>21.8</ele>
        <time>2025-02-11T14:40:06Z</time>
      </trkpt>
      <trkpt lat="47.78869" lon="-2.44821">
        <ele>21.8</ele>
        <time>2025-02-11T14:40:07Z</time>
      </trkpt>
      <trkpt lat="47.78867" lon="-2.44821">
        <ele>21.7</ele>
        <time>2025-02-11T14:40:08Z</time>
      </trkpt>
      <trkpt lat="47.78866" lon="-2.4482">
        <ele>21.7</ele>
        <time>2025-02-11T14:40:09Z</time>
      </trkpt>
      <trkpt lat="47.78865" lon="-2.44819">
        <ele>21.6</ele>
        <time>2025-02-11T14:40:10Z</time>
      </trkpt>
      <trkpt lat="47.78864" lon="-2.44818">
        <ele>21.5</ele>
        <time>2025-02-11T14:40:11Z</time>
      </trkpt>
      <trkpt lat="47.78863" lon="-2.44816">
        <ele>21.5</ele>
        <time>2025-02-11T14:40:12Z</time>
      </trkpt>
      <trkpt lat="47.78862" lon="-2.44815">
        <ele>21.4</ele>
        <time>2025-02-11T14:40:13Z</time>
      </trkpt>
      <trkpt lat="47.78861" lon="-2.44814">
        <ele>21.3</ele>
        <time>2025-02-11T14:40:14Z</time>
      </trkpt>
      <trkpt lat="47.7886" lon="-2.44813">
        <ele>21.2</ele>
        <time>2025-02-11T14:40:15Z</time>
      </trkpt>
      <trkpt lat="47.78859" lon="-2.44812">
        <ele>21.1</ele>
        <time>2025-02-11T14:40:16Z</time>
      </trkpt>
      <trkpt lat="47.78858" lon="-2.44811">
        <ele>21</ele>
        <time>2025-02-11T14:40:17Z</time>
      </trkpt>
      <trkpt lat="47.78857" lon="-2.4481">
        <ele>21</ele>
        <time>2025-02-11T14:40:18Z</time>
      </trkpt>
      <trkpt lat="47.78856" lon="-2.44809">
        <ele>20.9</ele>
        <time>2025-02-11T14:40:19Z</time>
      </trkpt>
      <trkpt lat="47.78855" lon="-2.44808">
        <ele>20.8</ele>
        <time>2025-02-11T14:40:20Z</time>
      </trkpt>
      <trkpt lat="47.78854" lon="-2.44807">
        <ele>20.8</ele>
        <time>2025-02-11T14:40:21Z</time>
      </trkpt>
      <trkpt lat="47.78852" lon="-2.44807">
        <ele>20.7</ele>
        <time>2025-02-11T14:40:22Z</time>
      </trkpt>
      <trkpt lat="47.78851" lon="-2.44807">
        <ele>20.7</ele>
        <time>2025-02-11T14:40:23Z</time>
      </trkpt>
      <trkpt lat="47.7885" lon="-2.44806">
        <ele>20.6</ele>
        <time>2025-02-11T14:40:24Z</time>
      </trkpt>
      <trkpt lat="47.78849" lon="-2.44805">
        <ele>20.6</ele>
        <time>2025-02-11T14:40:25Z</time>
      </trkpt>
      <trkpt lat="47.78848" lon="-2.44804">
        <ele>20.6</ele>
        <time>2025-02-11T14:40:26Z</time>
      </trkpt>
      <trkpt lat="47.78847" lon="-2.44803">
        <ele>20.5</ele>
        <time>2025-02-11T14:40:27Z</time>
      </trkpt>
      <trkpt lat="47.78846" lon="-2.44803">
        <ele>20.5</ele>
        <time>2025-02-11T14:40:28Z</time>
      </trkpt>
      <trkpt lat="47.78845" lon="-2.44802">
        <ele>20.5</ele>
        <time>2025-02-11T14:40:29Z</time>
      </trkpt>
      <trkpt lat="47.78844" lon="-2.44801">
        <ele>20.5</ele>
        <time>2025-02-11T14:40:30Z</time>
      </trkpt>
      <trkpt lat="47.78843" lon="-2.448">
        <ele>20.4</ele>
        <time>2025-02-11T14:40:31Z</time>
      </trkpt>
      <trkpt lat="47.78842" lon="-2.44799">
        <ele>20.4</ele>
        <time>2025-02-11T14:40:32Z</time>
      </trkpt>
      <trkpt lat="47.78841" lon="-2.44798">
        <ele>20.3</ele>
        <time>2025-02-11T14:40:33Z</time>
      </trkpt>
      <trkpt lat="47.7884" lon="-2.44797">
        <ele>20.3</ele>
        <time>2025-02-11T14:40:34Z</time>
      </trkpt>
      <trkpt lat="47.78839" lon="-2.44797">
        <ele>20.3</ele>
        <time>2025-02-11T14:40:35Z</time>
      </trkpt>
      <trkpt lat="47.78838" lon="-2.44796">
        <ele>20.2</ele>
        <time>2025-02-11T14:40:36Z</time>
      </trkpt>
      <trkpt lat="47.78837" lon="-2.44796">
        <ele>20.2</ele>
        <time>2025-02-11T14:40:37Z</time>
      </trkpt>
      <trkpt lat="47.78836" lon="-2.44796">
        <ele>20.1</ele>
        <time>2025-02-11T14:40:38Z</time>
      </trkpt>
      <trkpt lat="47.78835" lon="-2.44795">
        <ele>20.1</ele>
        <time>2025-02-11T14:40:39Z</time>
      </trkpt>
      <trkpt lat="47.78834" lon="-2.44794">
        <ele>20</ele>
        <time>2025-02-11T14:40:40Z</time>
      </trkpt>
      <trkpt lat="47.78833" lon="-2.44793">
        <ele>20</ele>
        <time>2025-02-11T14:40:41Z</time>
      </trkpt>
      <trkpt lat="47.78832" lon="-2.44793">
        <ele>20</ele>
        <time>2025-02-11T14:40:42Z</time>
      </trkpt>
      <trkpt lat="47.78831" lon="-2.44791">
        <ele>20</ele>
        <time>2025-02-11T14:40:43Z</time>
      </trkpt>
      <trkpt lat="47.7883" lon="-2.4479">
        <ele>19.9</ele>
        <time>2025-02-11T14:40:44Z</time>
      </trkpt>
      <trkpt lat="47.78829" lon="-2.44789">
        <ele>19.9</ele>
        <time>2025-02-11T14:40:45Z</time>
      </trkpt>
      <trkpt lat="47.78828" lon="-2.44789">
        <ele>19.9</ele>
        <time>2025-02-11T14:40:46Z</time>
      </trkpt>
      <trkpt lat="47.78827" lon="-2.44788">
        <ele>19.9</ele>
        <time>2025-02-11T14:40:47Z</time>
      </trkpt>
      <trkpt lat="47.78826" lon="-2.44787">
        <ele>19.8</ele>
        <time>2025-02-11T14:40:48Z</time>
      </trkpt>
      <trkpt lat="47.78825" lon="-2.44787">
        <ele>19.8</ele>
        <time>2025-02-11T14:40:49Z</time>
      </trkpt>
      <trkpt lat="47.78824" lon="-2.44786">
        <ele>19.8</ele>
        <time>2025-02-11T14:40:50Z</time>
      </trkpt>
      <trkpt lat="47.78823" lon="-2.44785">
        <ele>19.7</ele>
        <time>2025-02-11T14:40:51Z</time>
      </trkpt>
      <trkpt lat="47.78822" lon="-2.44784">
        <ele>19.7</ele>
        <time>2025-02-11T14:40:52Z</time>
      </trkpt>
      <trkpt lat="47.7882" lon="-2.44784">
        <ele>19.6</ele>
        <time>2025-02-11T14:40:53Z</time>
      </trkpt>
      <trkpt lat="47.78819" lon="-2.44783">
        <ele>19.6</ele>
        <time>2025-02-11T14:40:54Z</time>
      </trkpt>
      <trkpt lat="47.78818" lon="-2.44782">
        <ele>19.5</ele>
        <time>2025-02-11T14:40:55Z</time>
      </trkpt>
      <trkpt lat="47.78817" lon="-2.44781">
        <ele>19.5</ele>
        <time>2025-02-11T14:40:56Z</time>
      </trkpt>
      <trkpt lat="47.78816" lon="-2.4478">
        <ele>19.4</ele>
        <time>2025-02-11T14:40:57Z</time>
      </trkpt>
      <trkpt lat="47.78815" lon="-2.4478">
        <ele>19.4</ele>
        <time>2025-02-11T14:40:58Z</time>
      </trkpt>
      <trkpt lat="47.78814" lon="-2.44779">
        <ele>19.3</ele>
        <time>2025-02-11T14:40:59Z</time>
      </trkpt>
      <trkpt lat="47.78813" lon="-2.44778">
        <ele>19.3</ele>
        <time>2025-02-11T14:41:00Z</time>
      </trkpt>
      <trkpt lat="47.78812" lon="-2.44777">
        <ele>19.2</ele>
        <time>2025-02-11T14:41:01Z</time>
      </trkpt>
      <trkpt lat="47.78811" lon="-2.44776">
        <ele>19.2</ele>
        <time>2025-02-11T14:41:02Z</time>
      </trkpt>
      <trkpt lat="47.7881" lon="-2.44775">
        <ele>19.2</ele>
        <time>2025-02-11T14:41:03Z</time>
      </trkpt>
      <trkpt lat="47.78809" lon="-2.44774">
        <ele>19.1</ele>
        <time>2025-02-11T14:41:04Z</time>
      </trkpt>
      <trkpt lat="47.78808" lon="-2.44774">
        <ele>19.1</ele>
        <time>2025-02-11T14:41:05Z</time>
      </trkpt>
      <trkpt lat="47.78807" lon="-2.44773">
        <ele>19</ele>
        <time>2025-02-11T14:41:06Z</time>
      </trkpt>
      <trkpt lat="47.78806" lon="-2.44772">
        <ele>19</ele>
        <time>2025-02-11T14:41:07Z</time>
      </trkpt>
      <trkpt lat="47.78805" lon="-2.44771">
        <ele>19</ele>
        <time>2025-02-11T14:41:08Z</time>
      </trkpt>
      <trkpt lat="47.78804" lon="-2.4477">
        <ele>19.1</ele>
        <time>2025-02-11T14:41:09Z</time>
      </trkpt>
      <trkpt lat="47.78803" lon="-2.44769">
        <ele>19.1</ele>
        <time>2025-02-11T14:41:10Z</time>
      </trkpt>
      <trkpt lat="47.78802" lon="-2.44768">
        <ele>19.1</ele>
        <time>2025-02-11T14:41:11Z</time>
      </trkpt>
      <trkpt lat="47.78801" lon="-2.44767">
        <ele>19.2</ele>
        <time>2025-02-11T14:41:12Z</time>
      </trkpt>
      <trkpt lat="47.788" lon="-2.44766">
        <ele>19.2</ele>
        <time>2025-02-11T14:41:13Z</time>
      </trkpt>
      <trkpt lat="47.78799" lon="-2.44765">
        <ele>19.2</ele>
        <time>2025-02-11T14:41:14Z</time>
      </trkpt>
      <trkpt lat="47.78798" lon="-2.44764">
        <ele>19.3</ele>
        <time>2025-02-11T14:41:15Z</time>
      </trkpt>
      <trkpt lat="47.78797" lon="-2.44763">
        <ele>19.3</ele>
        <time>2025-02-11T14:41:16Z</time>
      </trkpt>
      <trkpt lat="47.78796" lon="-2.44763">
        <ele>19.3</ele>
        <time>2025-02-11T14:41:17Z</time>
      </trkpt>
      <trkpt lat="47.78795" lon="-2.44762">
        <ele>19.4</ele>
        <time>2025-02-11T14:41:18Z</time>
      </trkpt>
      <trkpt lat="47.78794" lon="-2.44762">
        <ele>19.4</ele>
        <time>2025-02-11T14:41:19Z</time>
      </trkpt>
      <trkpt lat="47.78793" lon="-2.44761">
        <ele>19.5</ele>
        <time>2025-02-11T14:41:20Z</time>
      </trkpt>
      <trkpt lat="47.78792" lon="-2.4476">
        <ele>19.5</ele>
        <time>2025-02-11T14:41:21Z</time>
      </trkpt>
      <trkpt lat="47.7879" lon="-2.4476">
        <ele>19.5</ele>
        <time>2025-02-11T14:41:22Z</time>
      </trkpt>
      <trkpt lat="47.78789" lon="-2.44759">
        <ele>19.6</ele>
        <time>2025-02-11T14:41:23Z</time>
      </trkpt>
      <trkpt lat="47.78788" lon="-2.44759">
        <ele>19.6</ele>
        <time>2025-02-11T14:41:24Z</time>
      </trkpt>
      <trkpt lat="47.78787" lon="-2.44758">
        <ele>19.7</ele>
        <time>2025-02-11T14:41:25Z</time>
      </trkpt>
      <trkpt lat="47.78786" lon="-2.44757">
        <ele>19.7</ele>
        <time>2025-02-11T14:41:26Z</time>
      </trkpt>
      <trkpt lat="47.78785" lon="-2.44756">
        <ele>19.8</ele>
        <time>2025-02-11T14:41:27Z</time>
      </trkpt>
      <trkpt lat="47.78783" lon="-2.44755">
        <ele>19.8</ele>
        <time>2025-02-11T14:41:28Z</time>
      </trkpt>
      <trkpt lat="47.78782" lon="-2.44754">
        <ele>19.8</ele>
        <time>2025-02-11T14:41:29Z</time>
      </trkpt>
      <trkpt lat="47.78781" lon="-2.44753">
        <ele>19.9</ele>
        <time>2025-02-11T14:41:30Z</time>
      </trkpt>
      <trkpt lat="47.7878" lon="-2.44752">
        <ele>19.9</ele>
        <time>2025-02-11T14:41:31Z</time>
      </trkpt>
      <trkpt lat="47.78779" lon="-2.44752">
        <ele>20</ele>
        <time>2025-02-11T14:41:32Z</time>
      </trkpt>
      <trkpt lat="47.78778" lon="-2.44751">
        <ele>20</ele>
        <time>2025-02-11T14:41:33Z</time>
      </trkpt>
      <trkpt lat="47.78776" lon="-2.4475">
        <ele>20.1</ele>
        <time>2025-02-11T14:41:34Z</time>
      </trkpt>
      <trkpt lat="47.78775" lon="-2.4475">
        <ele>20.1</ele>
        <time>2025-02-11T14:41:35Z</time>
      </trkpt>
      <trkpt lat="47.78774" lon="-2.4475">
        <ele>20.1</ele>
        <time>2025-02-11T14:41:36Z</time>
      </trkpt>
      <trkpt lat="47.78773" lon="-2.44749">
        <ele>20.2</ele>
        <time>2025-02-11T14:41:37Z</time>
      </trkpt>
      <trkpt lat="47.78772" lon="-2.44748">
        <ele>20.2</ele>
        <time>2025-02-11T14:41:38Z</time>
      </trkpt>
      <trkpt lat="47.78771" lon="-2.44747">
        <ele>20.2</ele>
        <time>2025-02-11T14:41:39Z</time>
      </trkpt>
      <trkpt lat="47.7877" lon="-2.44746">
        <ele>20.3</ele>
        <time>2025-02-11T14:41:40Z</time>
      </trkpt>
      <trkpt lat="47.78769" lon="-2.44745">
        <ele>20.3</ele>
        <time>2025-02-11T14:41:41Z</time>
      </trkpt>
      <trkpt lat="47.78769" lon="-2.44744">
        <ele>20.3</ele>
        <time>2025-02-11T14:41:42Z</time>
      </trkpt>
      <trkpt lat="47.78768" lon="-2.44744">
        <ele>20.4</ele>
        <time>2025-02-11T14:41:43Z</time>
      </trkpt>
      <trkpt lat="47.78767" lon="-2.44743">
        <ele>20.4</ele>
        <time>2025-02-11T14:41:44Z</time>
      </trkpt>
      <trkpt lat="47.78766" lon="-2.44743">
        <ele>20.4</ele>
        <time>2025-02-11T14:41:45Z</time>
      </trkpt>
      <trkpt lat="47.78765" lon="-2.44743">
        <ele>20.5</ele>
        <time>2025-02-11T14:41:46Z</time>
      </trkpt>
      <trkpt lat="47.78764" lon="-2.44743">
        <ele>20.5</ele>
        <time>2025-02-11T14:41:47Z</time>
      </trkpt>
      <trkpt lat="47.78764" lon="-2.44743">
        <ele>20.5</ele>
        <time>2025-02-11T14:41:48Z</time>
      </trkpt>
      <trkpt lat="47.78763" lon="-2.44742">
        <ele>20.5</ele>
        <time>2025-02-11T14:41:49Z</time>
      </trkpt>
      <trkpt lat="47.78762" lon="-2.44742">
        <ele>20.6</ele>
        <time>2025-02-11T14:41:50Z</time>
      </trkpt>
      <trkpt lat="47.78762" lon="-2.44742">
        <ele>20.6</ele>
        <time>2025-02-11T14:41:51Z</time>
      </trkpt>
      <trkpt lat="47.78761" lon="-2.44742">
        <ele>20.6</ele>
        <time>2025-02-11T14:41:52Z</time>
      </trkpt>
      <trkpt lat="47.7876" lon="-2.44742">
        <ele>20.7</ele>
        <time>2025-02-11T14:41:53Z</time>
      </trkpt>
      <trkpt lat="47.78759" lon="-2.44742">
        <ele>20.7</ele>
        <time>2025-02-11T14:41:54Z</time>
      </trkpt>
      <trkpt lat="47.78758" lon="-2.44742">
        <ele>20.7</ele>
        <time>2025-02-11T14:41:55Z</time>
      </trkpt>
      <trkpt lat="47.78757" lon="-2.44742">
        <ele>20.8</ele>
        <time>2025-02-11T14:41:56Z</time>
      </trkpt>
      <trkpt lat="47.78755" lon="-2.44742">
        <ele>20.8</ele>
        <time>2025-02-11T14:41:57Z</time>
      </trkpt>
      <trkpt lat="47.78754" lon="-2.44742">
        <ele>20.8</ele>
        <time>2025-02-11T14:41:58Z</time>
      </trkpt>
      <trkpt lat="47.78753" lon="-2.44742">
        <ele>20.9</ele>
        <time>2025-02-11T14:41:59Z</time>
      </trkpt>
      <trkpt lat="47.78752" lon="-2.44742">
        <ele>20.9</ele>
        <time>2025-02-11T14:42:00Z</time>
      </trkpt>
      <trkpt lat="47.78751" lon="-2.44743">
        <ele>21</ele>
        <time>2025-02-11T14:42:01Z</time>
      </trkpt>
      <trkpt lat="47.7875" lon="-2.44743">
        <ele>21</ele>
        <time>2025-02-11T14:42:02Z</time>
      </trkpt>
      <trkpt lat="47.78749" lon="-2.44743">
        <ele>21.1</ele>
        <time>2025-02-11T14:42:03Z</time>
      </trkpt>
      <trkpt lat="47.78748" lon="-2.44744">
        <ele>21.2</ele>
        <time>2025-02-11T14:42:04Z</time>
      </trkpt>
      <trkpt lat="47.78747" lon="-2.44744">
        <ele>21.2</ele>
        <time>2025-02-11T14:42:05Z</time>
      </trkpt>
      <trkpt lat="47.78745" lon="-2.44744">
        <ele>21.3</ele>
        <time>2025-02-11T14:42:06Z</time>
      </trkpt>
      <trkpt lat="47.78744" lon="-2.44744">
        <ele>21.4</ele>
        <time>2025-02-11T14:42:07Z</time>
      </trkpt>
      <trkpt lat="47.78743" lon="-2.44744">
        <ele>21.5</ele>
        <time>2025-02-11T14:42:08Z</time>
      </trkpt>
      <trkpt lat="47.78742" lon="-2.44745">
        <ele>21.5</ele>
        <time>2025-02-11T14:42:09Z</time>
      </trkpt>
      <trkpt lat="47.78741" lon="-2.44745">
        <ele>21.6</ele>
        <time>2025-02-11T14:42:10Z</time>
      </trkpt>
      <trkpt lat="47.78739" lon="-2.44745">
        <ele>21.6</ele>
        <time>2025-02-11T14:42:11Z</time>
      </trkpt>
      <trkpt lat="47.78738" lon="-2.44746">
        <ele>21.7</ele>
        <time>2025-02-11T14:42:12Z</time>
      </trkpt>
      <trkpt lat="47.78737" lon="-2.44747">
        <ele>21.7</ele>
        <time>2025-02-11T14:42:13Z</time>
      </trkpt>
      <trkpt lat="47.78736" lon="-2.44747">
        <ele>21.7</ele>
        <time>2025-02-11T14:42:14Z</time>
      </trkpt>
      <trkpt lat="47.78735" lon="-2.44747">
        <ele>21.7</ele>
        <time>2025-02-11T14:42:15Z</time>
      </trkpt>
      <trkpt lat="47.78734" lon="-2.44748">
        <ele>21.8</ele>
        <time>2025-02-11T14:42:16Z</time>
      </trkpt>
      <trkpt lat="47.78733" lon="-2.44748">
        <ele>21.8</ele>
        <time>2025-02-11T14:42:17Z</time>
      </trkpt>
      <trkpt lat="47.78731" lon="-2.44749">
        <ele>21.8</ele>
        <time>2025-02-11T14:42:18Z</time>
      </trkpt>
      <trkpt lat="47.7873" lon="-2.44749">
        <ele>21.8</ele>
        <time>2025-02-11T14:42:19Z</time>
      </trkpt>
      <trkpt lat="47.78729" lon="-2.4475">
        <ele>21.8</ele>
        <time>2025-02-11T14:42:20Z</time>
      </trkpt>
      <trkpt lat="47.78728" lon="-2.4475">
        <ele>21.8</ele>
        <time>2025-02-11T14:42:21Z</time>
      </trkpt>
      <trkpt lat="47.78727" lon="-2.4475">
        <ele>21.8</ele>
        <time>2025-02-11T14:42:22Z</time>
      </trkpt>
      <trkpt lat="47.78726" lon="-2.44751">
        <ele>21.8</ele>
        <time>2025-02-11T14:42:23Z</time>
      </trkpt>
      <trkpt lat="47.78725" lon="-2.44751">
        <ele>21.9</ele>
        <time>2025-02-11T14:42:24Z</time>
      </trkpt>
      <trkpt lat="47.78724" lon="-2.44751">
        <ele>21.9</ele>
        <time>2025-02-11T14:42:25Z</time>
      </trkpt>
      <trkpt lat="47.78722" lon="-2.44752">
        <ele>21.9</ele>
        <time>2025-02-11T14:42:26Z</time>
      </trkpt>
      <trkpt lat="47.78721" lon="-2.44752">
        <ele>22.1</ele>
        <time>2025-02-11T14:42:27Z</time>
      </trkpt>
      <trkpt lat="47.7872" lon="-2.44752">
        <ele>22.3</ele>
        <time>2025-02-11T14:42:28Z</time>
      </trkpt>
      <trkpt lat="47.78718" lon="-2.44752">
        <ele>22.5</ele>
        <time>2025-02-11T14:42:29Z</time>
      </trkpt>
      <trkpt lat="47.78716" lon="-2.44752">
        <ele>22.8</ele>
        <time>2025-02-11T14:42:30Z</time>
      </trkpt>
      <trkpt lat="47.78715" lon="-2.44752">
        <ele>22.9</ele>
        <time>2025-02-11T14:42:31Z</time>
      </trkpt>
      <trkpt lat="47.78714" lon="-2.44753">
        <ele>23</ele>
        <time>2025-02-11T14:42:32Z</time>
      </trkpt>
      <trkpt lat="47.78713" lon="-2.44754">
        <ele>23.1</ele>
        <time>2025-02-11T14:42:33Z</time>
      </trkpt>
      <trkpt lat="47.78712" lon="-2.44755">
        <ele>23.2</ele>
        <time>2025-02-11T14:42:34Z</time>
      </trkpt>
      <trkpt lat="47.78711" lon="-2.44755">
        <ele>23.3</ele>
        <time>2025-02-11T14:42:35Z</time>
      </trkpt>
      <trkpt lat="47.7871" lon="-2.44755">
        <ele>23.4</ele>
        <time>2025-02-11T14:42:36Z</time>
      </trkpt>
      <trkpt lat="47.78709" lon="-2.44756">
        <ele>23.5</ele>
        <time>2025-02-11T14:42:37Z</time>
      </trkpt>
      <trkpt lat="47.78708" lon="-2.44757">
        <ele>23.6</ele>
        <time>2025-02-11T14:42:38Z</time>
      </trkpt>
      <trkpt lat="47.78707" lon="-2.44757">
        <ele>23.7</ele>
        <time>2025-02-11T14:42:39Z</time>
      </trkpt>
      <trkpt lat="47.78706" lon="-2.44758">
        <ele>23.8</ele>
        <time>2025-02-11T14:42:40Z</time>
      </trkpt>
      <trkpt lat="47.78705" lon="-2.44758">
        <ele>23.9</ele>
        <time>2025-02-11T14:42:41Z</time>
      </trkpt>
      <trkpt lat="47.78704" lon="-2.44759">
        <ele>24</ele>
        <time>2025-02-11T14:42:42Z</time>
      </trkpt>
      <trkpt lat="47.78703" lon="-2.44759">
        <ele>24.1</ele>
        <time>2025-02-11T14:42:43Z</time>
      </trkpt>
      <trkpt lat="47.78702" lon="-2.44759">
        <ele>24.2</ele>
        <time>2025-02-11T14:42:44Z</time>
      </trkpt>
      <trkpt lat="47.78701" lon="-2.44759">
        <ele>24.3</ele>
        <time>2025-02-11T14:42:45Z</time>
      </trkpt>
      <trkpt lat="47.787" lon="-2.4476">
        <ele>24.3</ele>
        <time>2025-02-11T14:42:46Z</time>
      </trkpt>
      <trkpt lat="47.78699" lon="-2.44761">
        <ele>24.3</ele>
        <time>2025-02-11T14:42:47Z</time>
      </trkpt>
      <trkpt lat="47.78698" lon="-2.44762">
        <ele>24.3</ele>
        <time>2025-02-11T14:42:48Z</time>
      </trkpt>
      <trkpt lat="47.78697" lon="-2.44763">
        <ele>24.3</ele>
        <time>2025-02-11T14:42:49Z</time>
      </trkpt>
      <trkpt lat="47.78696" lon="-2.44763">
        <ele>24.4</ele>
        <time>2025-02-11T14:42:50Z</time>
      </trkpt>
      <trkpt lat="47.78696" lon="-2.44764">
        <ele>24.4</ele>
        <time>2025-02-11T14:42:51Z</time>
      </trkpt>
      <trkpt lat="47.78694" lon="-2.44764">
        <ele>24.5</ele>
        <time>2025-02-11T14:42:52Z</time>
      </trkpt>
      <trkpt lat="47.78693" lon="-2.44765">
        <ele>24.6</ele>
        <time>2025-02-11T14:42:53Z</time>
      </trkpt>
      <trkpt lat="47.78693" lon="-2.44765">
        <ele>24.7</ele>
        <time>2025-02-11T14:42:54Z</time>
      </trkpt>
      <trkpt lat="47.78692" lon="-2.44764">
        <ele>24.8</ele>
        <time>2025-02-11T14:42:55Z</time>
      </trkpt>
      <trkpt lat="47.78691" lon="-2.44764">
        <ele>25</ele>
        <time>2025-02-11T14:42:56Z</time>
      </trkpt>
      <trkpt lat="47.7869" lon="-2.44765">
        <ele>25.1</ele>
        <time>2025-02-11T14:42:57Z</time>
      </trkpt>
      <trkpt lat="47.78689" lon="-2.44766">
        <ele>25.1</ele>
        <time>2025-02-11T14:42:58Z</time>
      </trkpt>
      <trkpt lat="47.78688" lon="-2.44767">
        <ele>25.1</ele>
        <time>2025-02-11T14:42:59Z</time>
      </trkpt>
      <trkpt lat="47.78686" lon="-2.44767">
        <ele>25.2</ele>
        <time>2025-02-11T14:43:00Z</time>
      </trkpt>
      <trkpt lat="47.78686" lon="-2.44767">
        <ele>25.3</ele>
        <time>2025-02-11T14:43:01Z</time>
      </trkpt>
      <trkpt lat="47.78685" lon="-2.44766">
        <ele>25.6</ele>
        <time>2025-02-11T14:43:02Z</time>
      </trkpt>
      <trkpt lat="47.78684" lon="-2.44766">
        <ele>25.7</ele>
        <time>2025-02-11T14:43:03Z</time>
      </trkpt>
      <trkpt lat="47.78682" lon="-2.44767">
        <ele>25.8</ele>
        <time>2025-02-11T14:43:04Z</time>
      </trkpt>
      <trkpt lat="47.78681" lon="-2.44768">
        <ele>25.8</ele>
        <time>2025-02-11T14:43:05Z</time>
      </trkpt>
      <trkpt lat="47.7868" lon="-2.44768">
        <ele>26</ele>
        <time>2025-02-11T14:43:06Z</time>
      </trkpt>
      <trkpt lat="47.78679" lon="-2.44768">
        <ele>26.1</ele>
        <time>2025-02-11T14:43:07Z</time>
      </trkpt>
      <trkpt lat="47.78678" lon="-2.44769">
        <ele>26.2</ele>
        <time>2025-02-11T14:43:08Z</time>
      </trkpt>
      <trkpt lat="47.78677" lon="-2.44769">
        <ele>26.2</ele>
        <time>2025-02-11T14:43:09Z</time>
      </trkpt>
      <trkpt lat="47.78676" lon="-2.4477">
        <ele>26.2</ele>
        <time>2025-02-11T14:43:10Z</time>
      </trkpt>
      <trkpt lat="47.78675" lon="-2.44771">
        <ele>26.2</ele>
        <time>2025-02-11T14:43:11Z</time>
      </trkpt>
      <trkpt lat="47.78674" lon="-2.44771">
        <ele>26.3</ele>
        <time>2025-02-11T14:43:12Z</time>
      </trkpt>
      <trkpt lat="47.78673" lon="-2.44771">
        <ele>26.4</ele>
        <time>2025-02-11T14:43:13Z</time>
      </trkpt>
      <trkpt lat="47.78672" lon="-2.44772">
        <ele>26.5</ele>
        <time>2025-02-11T14:43:14Z</time>
      </trkpt>
      <trkpt lat="47.78671" lon="-2.44772">
        <ele>26.6</ele>
        <time>2025-02-11T14:43:15Z</time>
      </trkpt>
      <trkpt lat="47.7867" lon="-2.44771">
        <ele>26.8</ele>
        <time>2025-02-11T14:43:16Z</time>
      </trkpt>
      <trkpt lat="47.7867" lon="-2.44771">
        <ele>26.8</ele>
        <time>2025-02-11T14:43:17Z</time>
      </trkpt>
      <trkpt lat="47.78669" lon="-2.44771">
        <ele>26.9</ele>
        <time>2025-02-11T14:43:18Z</time>
      </trkpt>
      <trkpt lat="47.78668" lon="-2.44772">
        <ele>26.9</ele>
        <time>2025-02-11T14:43:19Z</time>
      </trkpt>
      <trkpt lat="47.78667" lon="-2.44773">
        <ele>26.8</ele>
        <time>2025-02-11T14:43:20Z</time>
      </trkpt>
      <trkpt lat="47.78667" lon="-2.44774">
        <ele>26.7</ele>
        <time>2025-02-11T14:43:21Z</time>
      </trkpt>
      <trkpt lat="47.78666" lon="-2.44775">
        <ele>26.6</ele>
        <time>2025-02-11T14:43:22Z</time>
      </trkpt>
      <trkpt lat="47.78665" lon="-2.44777">
        <ele>26.6</ele>
        <time>2025-02-11T14:43:23Z</time>
      </trkpt>
      <trkpt lat="47.78664" lon="-2.44777">
        <ele>26.6</ele>
        <time>2025-02-11T14:43:24Z</time>
      </trkpt>
      <trkpt lat="47.78663" lon="-2.44778">
        <ele>26.7</ele>
        <time>2025-02-11T14:43:25Z</time>
      </trkpt>
      <trkpt lat="47.78662" lon="-2.44778">
        <ele>26.9</ele>
        <time>2025-02-11T14:43:26Z</time>
      </trkpt>
      <trkpt lat="47.78661" lon="-2.44779">
        <ele>27</ele>
        <time>2025-02-11T14:43:27Z</time>
      </trkpt>
      <trkpt lat="47.7866" lon="-2.44779">
        <ele>27.2</ele>
        <time>2025-02-11T14:43:28Z</time>
      </trkpt>
      <trkpt lat="47.78659" lon="-2.4478">
        <ele>27.4</ele>
        <time>2025-02-11T14:43:29Z</time>
      </trkpt>
      <trkpt lat="47.78658" lon="-2.4478">
        <ele>27.5</ele>
        <time>2025-02-11T14:43:30Z</time>
      </trkpt>
      <trkpt lat="47.78657" lon="-2.4478">
        <ele>27.7</ele>
        <time>2025-02-11T14:43:31Z</time>
      </trkpt>
      <trkpt lat="47.78656" lon="-2.4478">
        <ele>27.9</ele>
        <time>2025-02-11T14:43:32Z</time>
      </trkpt>
      <trkpt lat="47.78655" lon="-2.4478">
        <ele>28.1</ele>
        <time>2025-02-11T14:43:33Z</time>
      </trkpt>
      <trkpt lat="47.78654" lon="-2.44781">
        <ele>28.3</ele>
        <time>2025-02-11T14:43:34Z</time>
      </trkpt>
      <trkpt lat="47.78653" lon="-2.44781">
        <ele>28.4</ele>
        <time>2025-02-11T14:43:35Z</time>
      </trkpt>
      <trkpt lat="47.78652" lon="-2.44781">
        <ele>28.6</ele>
        <time>2025-02-11T14:43:36Z</time>
      </trkpt>
      <trkpt lat="47.78651" lon="-2.44782">
        <ele>28.7</ele>
        <time>2025-02-11T14:43:37Z</time>
      </trkpt>
      <trkpt lat="47.7865" lon="-2.44782">
        <ele>28.8</ele>
        <time>2025-02-11T14:43:38Z</time>
      </trkpt>
      <trkpt lat="47.78649" lon="-2.44783">
        <ele>29</ele>
        <time>2025-02-11T14:43:39Z</time>
      </trkpt>
      <trkpt lat="47.78648" lon="-2.44784">
        <ele>29.1</ele>
        <time>2025-02-11T14:43:40Z</time>
      </trkpt>
      <trkpt lat="47.78647" lon="-2.44784">
        <ele>29.2</ele>
        <time>2025-02-11T14:43:41Z</time>
      </trkpt>
      <trkpt lat="47.78646" lon="-2.44784">
        <ele>29.4</ele>
        <time>2025-02-11T14:43:42Z</time>
      </trkpt>
      <trkpt lat="47.78645" lon="-2.44784">
        <ele>29.5</ele>
        <time>2025-02-11T14:43:43Z</time>
      </trkpt>
      <trkpt lat="47.78644" lon="-2.44784">
        <ele>29.7</ele>
        <time>2025-02-11T14:43:44Z</time>
      </trkpt>
      <trkpt lat="47.78643" lon="-2.44784">
        <ele>29.9</ele>
        <time>2025-02-11T14:43:45Z</time>
      </trkpt>
      <trkpt lat="47.78642" lon="-2.44785">
        <ele>30</ele>
        <time>2025-02-11T14:43:46Z</time>
      </trkpt>
      <trkpt lat="47.78641" lon="-2.44786">
        <ele>30.1</ele>
        <time>2025-02-11T14:43:47Z</time>
      </trkpt>
      <trkpt lat="47.7864" lon="-2.44786">
        <ele>30.2</ele>
        <time>2025-02-11T14:43:48Z</time>
      </trkpt>
      <trkpt lat="47.78639" lon="-2.44787">
        <ele>30.3</ele>
        <time>2025-02-11T14:43:49Z</time>
      </trkpt>
      <trkpt lat="47.78638" lon="-2.44787">
        <ele>30.5</ele>
        <time>2025-02-11T14:43:50Z</time>
      </trkpt>
      <trkpt lat="47.78637" lon="-2.44788">
        <ele>30.7</ele>
        <time>2025-02-11T14:43:51Z</time>
      </trkpt>
      <trkpt lat="47.78635" lon="-2.44788">
        <ele>30.9</ele>
        <time>2025-02-11T14:43:52Z</time>
      </trkpt>
      <trkpt lat="47.78634" lon="-2.44789">
        <ele>31.1</ele>
        <time>2025-02-11T14:43:53Z</time>
      </trkpt>
      <trkpt lat="47.78633" lon="-2.4479">
        <ele>31.2</ele>
        <time>2025-02-11T14:43:54Z</time>
      </trkpt>
      <trkpt lat="47.78632" lon="-2.44791">
        <ele>31.4</ele>
        <time>2025-02-11T14:43:55Z</time>
      </trkpt>
      <trkpt lat="47.7863" lon="-2.44791">
        <ele>31.6</ele>
        <time>2025-02-11T14:43:56Z</time>
      </trkpt>
      <trkpt lat="47.78629" lon="-2.44792">
        <ele>31.8</ele>
        <time>2025-02-11T14:43:57Z</time>
      </trkpt>
      <trkpt lat="47.78628" lon="-2.44792">
        <ele>31.9</ele>
        <time>2025-02-11T14:43:58Z</time>
      </trkpt>
      <trkpt lat="47.78627" lon="-2.44792">
        <ele>32.1</ele>
        <time>2025-02-11T14:43:59Z</time>
      </trkpt>
      <trkpt lat="47.78626" lon="-2.44792">
        <ele>32.2</ele>
        <time>2025-02-11T14:44:00Z</time>
      </trkpt>
      <trkpt lat="47.78625" lon="-2.44792">
        <ele>32.4</ele>
        <time>2025-02-11T14:44:01Z</time>
      </trkpt>
      <trkpt lat="47.78624" lon="-2.44793">
        <ele>32.5</ele>
        <time>2025-02-11T14:44:02Z</time>
      </trkpt>
      <trkpt lat="47.78623" lon="-2.44794">
        <ele>32.6</ele>
        <time>2025-02-11T14:44:03Z</time>
      </trkpt>
      <trkpt lat="47.78622" lon="-2.44793">
        <ele>33</ele>
        <time>2025-02-11T14:44:04Z</time>
      </trkpt>
      <trkpt lat="47.78621" lon="-2.44793">
        <ele>33.1</ele>
        <time>2025-02-11T14:44:05Z</time>
      </trkpt>
      <trkpt lat="47.7862" lon="-2.44794">
        <ele>33.2</ele>
        <time>2025-02-11T14:44:06Z</time>
      </trkpt>
      <trkpt lat="47.78619" lon="-2.44794">
        <ele>33.4</ele>
        <time>2025-02-11T14:44:07Z</time>
      </trkpt>
      <trkpt lat="47.78617" lon="-2.44794">
        <ele>33.5</ele>
        <time>2025-02-11T14:44:08Z</time>
      </trkpt>
      <trkpt lat="47.78616" lon="-2.44795">
        <ele>33.7</ele>
        <time>2025-02-11T14:44:09Z</time>
      </trkpt>
      <trkpt lat="47.78615" lon="-2.44796">
        <ele>33.7</ele>
        <time>2025-02-11T14:44:10Z</time>
      </trkpt>
      <trkpt lat="47.78614" lon="-2.44797">
        <ele>33.8</ele>
        <time>2025-02-11T14:44:11Z</time>
      </trkpt>
      <trkpt lat="47.78613" lon="-2.44797">
        <ele>34</ele>
        <time>2025-02-11T14:44:12Z</time>
      </trkpt>
      <trkpt lat="47.78611" lon="-2.44797">
        <ele>34.2</ele>
        <time>2025-02-11T14:44:13Z</time>
      </trkpt>
      <trkpt lat="47.7861" lon="-2.44798">
        <ele>34.2</ele>
        <time>2025-02-11T14:44:14Z</time>
      </trkpt>
      <trkpt lat="47.78609" lon="-2.44798">
        <ele>34.3</ele>
        <time>2025-02-11T14:44:15Z</time>
      </trkpt>
      <trkpt lat="47.78608" lon="-2.44799">
        <ele>34.4</ele>
        <time>2025-02-11T14:44:16Z</time>
      </trkpt>
      <trkpt lat="47.78607" lon="-2.448">
        <ele>34.5</ele>
        <time>2025-02-11T14:44:17Z</time>
      </trkpt>
      <trkpt lat="47.78607" lon="-2.44801">
        <ele>34.4</ele>
        <time>2025-02-11T14:44:18Z</time>
      </trkpt>
      <trkpt lat="47.78605" lon="-2.44801">
        <ele>34.5</ele>
        <time>2025-02-11T14:44:19Z</time>
      </trkpt>
      <trkpt lat="47.78604" lon="-2.44802">
        <ele>34.6</ele>
        <time>2025-02-11T14:44:20Z</time>
      </trkpt>
      <trkpt lat="47.78603" lon="-2.44802">
        <ele>34.7</ele>
        <time>2025-02-11T14:44:21Z</time>
      </trkpt>
      <trkpt lat="47.78602" lon="-2.44803">
        <ele>34.8</ele>
        <time>2025-02-11T14:44:22Z</time>
      </trkpt>
      <trkpt lat="47.78601" lon="-2.44803">
        <ele>34.9</ele>
        <time>2025-02-11T14:44:23Z</time>
      </trkpt>
      <trkpt lat="47.786" lon="-2.44803">
        <ele>35.1</ele>
        <time>2025-02-11T14:44:24Z</time>
      </trkpt>
      <trkpt lat="47.78599" lon="-2.44802">
        <ele>35.3</ele>
        <time>2025-02-11T14:44:25Z</time>
      </trkpt>
      <trkpt lat="47.78598" lon="-2.44802">
        <ele>35.5</ele>
        <time>2025-02-11T14:44:26Z</time>
      </trkpt>
      <trkpt lat="47.78597" lon="-2.44803">
        <ele>35.6</ele>
        <time>2025-02-11T14:44:27Z</time>
      </trkpt>
      <trkpt lat="47.78596" lon="-2.44803">
        <ele>35.6</ele>
        <time>2025-02-11T14:44:28Z</time>
      </trkpt>
      <trkpt lat="47.78595" lon="-2.44804">
        <ele>35.7</ele>
        <time>2025-02-11T14:44:29Z</time>
      </trkpt>
      <trkpt lat="47.78594" lon="-2.44804">
        <ele>35.8</ele>
        <time>2025-02-11T14:44:30Z</time>
      </trkpt>
      <trkpt lat="47.78593" lon="-2.44804">
        <ele>36</ele>
        <time>2025-02-11T14:44:31Z</time>
      </trkpt>
      <trkpt lat="47.78592" lon="-2.44804">
        <ele>36.1</ele>
        <time>2025-02-11T14:44:32Z</time>
      </trkpt>
      <trkpt lat="47.78591" lon="-2.44804">
        <ele>36.2</ele>
        <time>2025-02-11T14:44:33Z</time>
      </trkpt>
      <trkpt lat="47.7859" lon="-2.44805">
        <ele>36.3</ele>
        <time>2025-02-11T14:44:34Z</time>
      </trkpt>
      <trkpt lat="47.78589" lon="-2.44805">
        <ele>36.4</ele>
        <time>2025-02-11T14:44:35Z</time>
      </trkpt>
      <trkpt lat="47.78588" lon="-2.44805">
        <ele>36.4</ele>
        <time>2025-02-11T14:44:36Z</time>
      </trkpt>
      <trkpt lat="47.78586" lon="-2.44805">
        <ele>36.7</ele>
        <time>2025-02-11T14:44:37Z</time>
      </trkpt>
      <trkpt lat="47.78585" lon="-2.44805">
        <ele>36.8</ele>
        <time>2025-02-11T14:44:38Z</time>
      </trkpt>
      <trkpt lat="47.78584" lon="-2.44806">
        <ele>36.9</ele>
        <time>2025-02-11T14:44:39Z</time>
      </trkpt>
      <trkpt lat="47.78583" lon="-2.44807">
        <ele>36.9</ele>
        <time>2025-02-11T14:44:40Z</time>
      </trkpt>
      <trkpt lat="47.78582" lon="-2.44808">
        <ele>37</ele>
        <time>2025-02-11T14:44:41Z</time>
      </trkpt>
      <trkpt lat="47.78582" lon="-2.44809">
        <ele>37.1</ele>
        <time>2025-02-11T14:44:42Z</time>
      </trkpt>
      <trkpt lat="47.78581" lon="-2.44809">
        <ele>37.2</ele>
        <time>2025-02-11T14:44:43Z</time>
      </trkpt>
      <trkpt lat="47.7858" lon="-2.44809">
        <ele>37.4</ele>
        <time>2025-02-11T14:44:44Z</time>
      </trkpt>
      <trkpt lat="47.78579" lon="-2.44809">
        <ele>37.6</ele>
        <time>2025-02-11T14:44:45Z</time>
      </trkpt>
      <trkpt lat="47.78578" lon="-2.4481">
        <ele>37.7</ele>
        <time>2025-02-11T14:44:46Z</time>
      </trkpt>
      <trkpt lat="47.78577" lon="-2.4481">
        <ele>37.8</ele>
        <time>2025-02-11T14:44:47Z</time>
      </trkpt>
      <trkpt lat="47.78576" lon="-2.4481">
        <ele>37.9</ele>
        <time>2025-02-11T14:44:48Z</time>
      </trkpt>
      <trkpt lat="47.78576" lon="-2.44811">
        <ele>38</ele>
        <time>2025-02-11T14:44:49Z</time>
      </trkpt>
      <trkpt lat="47.78574" lon="-2.44811">
        <ele>38.2</ele>
        <time>2025-02-11T14:44:50Z</time>
      </trkpt>
      <trkpt lat="47.78573" lon="-2.44811">
        <ele>38.4</ele>
        <time>2025-02-11T14:44:51Z</time>
      </trkpt>
      <trkpt lat="47.78572" lon="-2.44811">
        <ele>38.6</ele>
        <time>2025-02-11T14:44:52Z</time>
      </trkpt>
      <trkpt lat="47.78571" lon="-2.44811">
        <ele>38.8</ele>
        <time>2025-02-11T14:44:53Z</time>
      </trkpt>
      <trkpt lat="47.7857" lon="-2.44811">
        <ele>38.9</ele>
        <time>2025-02-11T14:44:54Z</time>
      </trkpt>
      <trkpt lat="47.78569" lon="-2.44811">
        <ele>39.1</ele>
        <time>2025-02-11T14:44:55Z</time>
      </trkpt>
      <trkpt lat="47.78568" lon="-2.44812">
        <ele>39.3</ele>
        <time>2025-02-11T14:44:56Z</time>
      </trkpt>
      <trkpt lat="47.78567" lon="-2.44813">
        <ele>39.4</ele>
        <time>2025-02-11T14:44:57Z</time>
      </trkpt>
      <trkpt lat="47.78567" lon="-2.44813">
        <ele>39.5</ele>
        <time>2025-02-11T14:44:58Z</time>
      </trkpt>
      <trkpt lat="47.78565" lon="-2.44813">
        <ele>39.7</ele>
        <time>2025-02-11T14:44:59Z</time>
      </trkpt>
      <trkpt lat="47.78564" lon="-2.44814">
        <ele>39.8</ele>
        <time>2025-02-11T14:45:00Z</time>
      </trkpt>
      <trkpt lat="47.78563" lon="-2.44814">
        <ele>40</ele>
        <time>2025-02-11T14:45:01Z</time>
      </trkpt>
      <trkpt lat="47.78562" lon="-2.44815">
        <ele>40.1</ele>
        <time>2025-02-11T14:45:02Z</time>
      </trkpt>
      <trkpt lat="47.78561" lon="-2.44815">
        <ele>40.3</ele>
        <time>2025-02-11T14:45:03Z</time>
      </trkpt>
      <trkpt lat="47.7856" lon="-2.44815">
        <ele>40.5</ele>
        <time>2025-02-11T14:45:04Z</time>
      </trkpt>
      <trkpt lat="47.78559" lon="-2.44815">
        <ele>40.6</ele>
        <time>2025-02-11T14:45:05Z</time>
      </trkpt>
      <trkpt lat="47.78559" lon="-2.44816">
        <ele>40.7</ele>
        <time>2025-02-11T14:45:06Z</time>
      </trkpt>
      <trkpt lat="47.78558" lon="-2.44817">
        <ele>40.8</ele>
        <time>2025-02-11T14:45:07Z</time>
      </trkpt>
      <trkpt lat="47.78557" lon="-2.44817">
        <ele>41</ele>
        <time>2025-02-11T14:45:08Z</time>
      </trkpt>
      <trkpt lat="47.78556" lon="-2.44817">
        <ele>41.1</ele>
        <time>2025-02-11T14:45:09Z</time>
      </trkpt>
      <trkpt lat="47.78555" lon="-2.44818">
        <ele>41.2</ele>
        <time>2025-02-11T14:45:10Z</time>
      </trkpt>
      <trkpt lat="47.78554" lon="-2.44819">
        <ele>41.3</ele>
        <time>2025-02-11T14:45:11Z</time>
      </trkpt>
      <trkpt lat="47.78553" lon="-2.44819">
        <ele>41.5</ele>
        <time>2025-02-11T14:45:12Z</time>
      </trkpt>
      <trkpt lat="47.78552" lon="-2.44819">
        <ele>41.6</ele>
        <time>2025-02-11T14:45:13Z</time>
      </trkpt>
      <trkpt lat="47.78551" lon="-2.44819">
        <ele>41.8</ele>
        <time>2025-02-11T14:45:14Z</time>
      </trkpt>
      <trkpt lat="47.7855" lon="-2.44819">
        <ele>42</ele>
        <time>2025-02-11T14:45:15Z</time>
      </trkpt>
      <trkpt lat="47.78549" lon="-2.44819">
        <ele>42.2</ele>
        <time>2025-02-11T14:45:16Z</time>
      </trkpt>
      <trkpt lat="47.78548" lon="-2.44819">
        <ele>42.5</ele>
        <time>2025-02-11T14:45:17Z</time>
      </trkpt>
      <trkpt lat="47.78547" lon="-2.44819">
        <ele>42.6</ele>
        <time>2025-02-11T14:45:18Z</time>
      </trkpt>
      <trkpt lat="47.78546" lon="-2.44821">
        <ele>42.6</ele>
        <time>2025-02-11T14:45:19Z</time>
      </trkpt>
      <trkpt lat="47.78544" lon="-2.44821">
        <ele>42.8</ele>
        <time>2025-02-11T14:45:20Z</time>
      </trkpt>
      <trkpt lat="47.78543" lon="-2.44821">
        <ele>42.9</ele>
        <time>2025-02-11T14:45:21Z</time>
      </trkpt>
      <trkpt lat="47.78542" lon="-2.44822">
        <ele>43.1</ele>
        <time>2025-02-11T14:45:22Z</time>
      </trkpt>
      <trkpt lat="47.78541" lon="-2.44822">
        <ele>43.3</ele>
        <time>2025-02-11T14:45:23Z</time>
      </trkpt>
      <trkpt lat="47.7854" lon="-2.44822">
        <ele>43.4</ele>
        <time>2025-02-11T14:45:24Z</time>
      </trkpt>
      <trkpt lat="47.78539" lon="-2.44823">
        <ele>43.4</ele>
        <time>2025-02-11T14:45:25Z</time>
      </trkpt>
      <trkpt lat="47.78538" lon="-2.44823">
        <ele>43.5</ele>
        <time>2025-02-11T14:45:26Z</time>
      </trkpt>
      <trkpt lat="47.78538" lon="-2.44824">
        <ele>43.6</ele>
        <time>2025-02-11T14:45:27Z</time>
      </trkpt>
      <trkpt lat="47.78537" lon="-2.44824">
        <ele>43.7</ele>
        <time>2025-02-11T14:45:28Z</time>
      </trkpt>
      <trkpt lat="47.78536" lon="-2.44824">
        <ele>43.8</ele>
        <time>2025-02-11T14:45:29Z</time>
      </trkpt>
      <trkpt lat="47.78535" lon="-2.44825">
        <ele>43.9</ele>
        <time>2025-02-11T14:45:30Z</time>
      </trkpt>
      <trkpt lat="47.78534" lon="-2.44825">
        <ele>43.9</ele>
        <time>2025-02-11T14:45:31Z</time>
      </trkpt>
      <trkpt lat="47.78533" lon="-2.44826">
        <ele>43.9</ele>
        <time>2025-02-11T14:45:32Z</time>
      </trkpt>
      <trkpt lat="47.78532" lon="-2.44827">
        <ele>43.9</ele>
        <time>2025-02-11T14:45:33Z</time>
      </trkpt>
      <trkpt lat="47.78531" lon="-2.44827">
        <ele>44</ele>
        <time>2025-02-11T14:45:34Z</time>
      </trkpt>
      <trkpt lat="47.7853" lon="-2.44828">
        <ele>44</ele>
        <time>2025-02-11T14:45:35Z</time>
      </trkpt>
      <trkpt lat="47.78529" lon="-2.44828">
        <ele>44</ele>
        <time>2025-02-11T14:45:36Z</time>
      </trkpt>
      <trkpt lat="47.78528" lon="-2.44829">
        <ele>44</ele>
        <time>2025-02-11T14:45:37Z</time>
      </trkpt>
      <trkpt lat="47.78527" lon="-2.44829">
        <ele>44.1</ele>
        <time>2025-02-11T14:45:38Z</time>
      </trkpt>
      <trkpt lat="47.78526" lon="-2.44829">
        <ele>44.2</ele>
        <time>2025-02-11T14:45:39Z</time>
      </trkpt>
      <trkpt lat="47.78525" lon="-2.44829">
        <ele>44.4</ele>
        <time>2025-02-11T14:45:40Z</time>
      </trkpt>
      <trkpt lat="47.78524" lon="-2.44829">
        <ele>44.5</ele>
        <time>2025-02-11T14:45:41Z</time>
      </trkpt>
      <trkpt lat="47.78522" lon="-2.44829">
        <ele>44.7</ele>
        <time>2025-02-11T14:45:42Z</time>
      </trkpt>
      <trkpt lat="47.78521" lon="-2.44829">
        <ele>45</ele>
        <time>2025-02-11T14:45:43Z</time>
      </trkpt>
      <trkpt lat="47.7852" lon="-2.44829">
        <ele>45.1</ele>
        <time>2025-02-11T14:45:44Z</time>
      </trkpt>
      <trkpt lat="47.78521" lon="-2.44829">
        <ele>45.1</ele>
        <time>2025-02-11T14:45:45Z</time>
      </trkpt>
      <trkpt lat="47.78522" lon="-2.44829">
        <ele>44.8</ele>
        <time>2025-02-11T14:45:46Z</time>
      </trkpt>
      <trkpt lat="47.78522" lon="-2.44829">
        <ele>44.8</ele>
        <time>2025-02-11T14:45:47Z</time>
      </trkpt>
      <trkpt lat="47.78522" lon="-2.44829">
        <ele>44.9</ele>
        <time>2025-02-11T14:45:48Z</time>
      </trkpt>
      <trkpt lat="47.78523" lon="-2.44828">
        <ele>44.8</ele>
        <time>2025-02-11T14:45:49Z</time>
      </trkpt>
      <trkpt lat="47.78526" lon="-2.44824">
        <ele>45.2</ele>
        <time>2025-02-11T14:45:50Z</time>
      </trkpt>
      <trkpt lat="47.78528" lon="-2.44822">
        <ele>45.5</ele>
        <time>2025-02-11T14:45:51Z</time>
      </trkpt>
      <trkpt lat="47.78529" lon="-2.44821">
        <ele>45.4</ele>
        <time>2025-02-11T14:45:52Z</time>
      </trkpt>
      <trkpt lat="47.7853" lon="-2.44821">
        <ele>45.2</ele>
        <time>2025-02-11T14:45:53Z</time>
      </trkpt>
      <trkpt lat="47.78532" lon="-2.44821">
        <ele>45</ele>
        <time>2025-02-11T14:45:54Z</time>
      </trkpt>
      <trkpt lat="47.78533" lon="-2.44823">
        <ele>44.3</ele>
        <time>2025-02-11T14:45:55Z</time>
      </trkpt>
      <trkpt lat="47.78534" lon="-2.44824">
        <ele>44.1</ele>
        <time>2025-02-11T14:45:56Z</time>
      </trkpt>
      <trkpt lat="47.78534" lon="-2.44825">
        <ele>43.9</ele>
        <time>2025-02-11T14:45:57Z</time>
      </trkpt>
      <trkpt lat="47.78534" lon="-2.44825">
        <ele>43.8</ele>
        <time>2025-02-11T14:45:58Z</time>
      </trkpt>
      <trkpt lat="47.78535" lon="-2.44825">
        <ele>43.8</ele>
        <time>2025-02-11T14:45:59Z</time>
      </trkpt>
      <trkpt lat="47.78535" lon="-2.44825">
        <ele>43.8</ele>
        <time>2025-02-11T14:46:00Z</time>
      </trkpt>
      <trkpt lat="47.78535" lon="-2.44825">
        <ele>43.8</ele>
        <time>2025-02-11T14:46:01Z</time>
      </trkpt>
      <trkpt lat="47.78535" lon="-2.44825">
        <ele>43.8</ele>
        <time>2025-02-11T14:46:02Z</time>
      </trkpt>
      <trkpt lat="47.78534" lon="-2.44825">
        <ele>43.8</ele>
        <time>2025-02-11T14:46:03Z</time>
      </trkpt>
      <trkpt lat="47.78534" lon="-2.44824">
        <ele>44</ele>
        <time>2025-02-11T14:46:04Z</time>
      </trkpt>
      <trkpt lat="47.78533" lon="-2.44824">
        <ele>44.2</ele>
        <time>2025-02-11T14:46:05Z</time>
      </trkpt>
      <trkpt lat="47.78532" lon="-2.44823">
        <ele>44.5</ele>
        <time>2025-02-11T14:46:06Z</time>
      </trkpt>
      <trkpt lat="47.78531" lon="-2.44823">
        <ele>44.8</ele>
        <time>2025-02-11T14:46:07Z</time>
      </trkpt>
      <trkpt lat="47.7853" lon="-2.44824">
        <ele>44.7</ele>
        <time>2025-02-11T14:46:08Z</time>
      </trkpt>
      <trkpt lat="47.78529" lon="-2.44825">
        <ele>44.6</ele>
        <time>2025-02-11T14:46:09Z</time>
      </trkpt>
      <trkpt lat="47.78528" lon="-2.44826">
        <ele>44.7</ele>
        <time>2025-02-11T14:46:10Z</time>
      </trkpt>
      <trkpt lat="47.78527" lon="-2.44826">
        <ele>44.8</ele>
        <time>2025-02-11T14:46:11Z</time>
      </trkpt>
      <trkpt lat="47.78526" lon="-2.44826">
        <ele>44.9</ele>
        <time>2025-02-11T14:46:12Z</time>
      </trkpt>
      <trkpt lat="47.78526" lon="-2.44825">
        <ele>45.1</ele>
        <time>2025-02-11T14:46:13Z</time>
      </trkpt>
      <trkpt lat="47.78525" lon="-2.44825">
        <ele>45.3</ele>
        <time>2025-02-11T14:46:14Z</time>
      </trkpt>
      <trkpt lat="47.78524" lon="-2.44826">
        <ele>45.3</ele>
        <time>2025-02-11T14:46:15Z</time>
      </trkpt>
      <trkpt lat="47.78523" lon="-2.44826">
        <ele>45.3</ele>
        <time>2025-02-11T14:46:16Z</time>
      </trkpt>
      <trkpt lat="47.78522" lon="-2.44827">
        <ele>45.3</ele>
        <time>2025-02-11T14:46:17Z</time>
      </trkpt>
      <trkpt lat="47.78521" lon="-2.44827">
        <ele>45.5</ele>
        <time>2025-02-11T14:46:18Z</time>
      </trkpt>
      <trkpt lat="47.7852" lon="-2.44827">
        <ele>45.8</ele>
        <time>2025-02-11T14:46:19Z</time>
      </trkpt>
      <trkpt lat="47.78519" lon="-2.44827">
        <ele>45.9</ele>
        <time>2025-02-11T14:46:20Z</time>
      </trkpt>
      <trkpt lat="47.78518" lon="-2.44826">
        <ele>46.1</ele>
        <time>2025-02-11T14:46:21Z</time>
      </trkpt>
      <trkpt lat="47.78517" lon="-2.44826">
        <ele>46.3</ele>
        <time>2025-02-11T14:46:22Z</time>
      </trkpt>
      <trkpt lat="47.78516" lon="-2.44826">
        <ele>46.4</ele>
        <time>2025-02-11T14:46:23Z</time>
      </trkpt>
      <trkpt lat="47.78515" lon="-2.44826">
        <ele>46.5</ele>
        <time>2025-02-11T14:46:24Z</time>
      </trkpt>
      <trkpt lat="47.78514" lon="-2.44827">
        <ele>46.6</ele>
        <time>2025-02-11T14:46:25Z</time>
      </trkpt>
      <trkpt lat="47.78513" lon="-2.44827">
        <ele>46.6</ele>
        <time>2025-02-11T14:46:26Z</time>
      </trkpt>
      <trkpt lat="47.78512" lon="-2.44827">
        <ele>46.8</ele>
        <time>2025-02-11T14:46:27Z</time>
      </trkpt>
      <trkpt lat="47.78512" lon="-2.44827">
        <ele>47.1</ele>
        <time>2025-02-11T14:46:28Z</time>
      </trkpt>
      <trkpt lat="47.78511" lon="-2.44827">
        <ele>47.2</ele>
        <time>2025-02-11T14:46:29Z</time>
      </trkpt>
      <trkpt lat="47.7851" lon="-2.44827">
        <ele>47.1</ele>
        <time>2025-02-11T14:46:30Z</time>
      </trkpt>
      <trkpt lat="47.78509" lon="-2.44829">
        <ele>46.9</ele>
        <time>2025-02-11T14:46:31Z</time>
      </trkpt>
      <trkpt lat="47.78508" lon="-2.4483">
        <ele>46.8</ele>
        <time>2025-02-11T14:46:32Z</time>
      </trkpt>
      <trkpt lat="47.78507" lon="-2.4483">
        <ele>46.8</ele>
        <time>2025-02-11T14:46:33Z</time>
      </trkpt>
      <trkpt lat="47.78506" lon="-2.44831">
        <ele>46.8</ele>
        <time>2025-02-11T14:46:34Z</time>
      </trkpt>
      <trkpt lat="47.78505" lon="-2.44831">
        <ele>47</ele>
        <time>2025-02-11T14:46:35Z</time>
      </trkpt>
      <trkpt lat="47.78504" lon="-2.4483">
        <ele>47.4</ele>
        <time>2025-02-11T14:46:36Z</time>
      </trkpt>
      <trkpt lat="47.78503" lon="-2.4483">
        <ele>47.7</ele>
        <time>2025-02-11T14:46:37Z</time>
      </trkpt>
      <trkpt lat="47.78502" lon="-2.44829">
        <ele>47.9</ele>
        <time>2025-02-11T14:46:38Z</time>
      </trkpt>
      <trkpt lat="47.78501" lon="-2.44829">
        <ele>48.1</ele>
        <time>2025-02-11T14:46:39Z</time>
      </trkpt>
      <trkpt lat="47.785" lon="-2.4483">
        <ele>48.1</ele>
        <time>2025-02-11T14:46:40Z</time>
      </trkpt>
      <trkpt lat="47.78499" lon="-2.44831">
        <ele>47.9</ele>
        <time>2025-02-11T14:46:41Z</time>
      </trkpt>
      <trkpt lat="47.78498" lon="-2.44831">
        <ele>47.9</ele>
        <time>2025-02-11T14:46:42Z</time>
      </trkpt>
      <trkpt lat="47.78496" lon="-2.44831">
        <ele>48</ele>
        <time>2025-02-11T14:46:43Z</time>
      </trkpt>
      <trkpt lat="47.78495" lon="-2.44831">
        <ele>48.3</ele>
        <time>2025-02-11T14:46:44Z</time>
      </trkpt>
      <trkpt lat="47.78494" lon="-2.44829">
        <ele>48.8</ele>
        <time>2025-02-11T14:46:45Z</time>
      </trkpt>
      <trkpt lat="47.78493" lon="-2.44828">
        <ele>49.3</ele>
        <time>2025-02-11T14:46:46Z</time>
      </trkpt>
      <trkpt lat="47.78491" lon="-2.44828">
        <ele>49.4</ele>
        <time>2025-02-11T14:46:47Z</time>
      </trkpt>
      <trkpt lat="47.7849" lon="-2.44828">
        <ele>49.7</ele>
        <time>2025-02-11T14:46:48Z</time>
      </trkpt>
      <trkpt lat="47.78489" lon="-2.44827">
        <ele>49.9</ele>
        <time>2025-02-11T14:46:49Z</time>
      </trkpt>
      <trkpt lat="47.78488" lon="-2.44827">
        <ele>50.1</ele>
        <time>2025-02-11T14:46:50Z</time>
      </trkpt>
      <trkpt lat="47.78487" lon="-2.44827">
        <ele>50.2</ele>
        <time>2025-02-11T14:46:51Z</time>
      </trkpt>
      <trkpt lat="47.78486" lon="-2.44828">
        <ele>50.1</ele>
        <time>2025-02-11T14:46:52Z</time>
      </trkpt>
      <trkpt lat="47.78484" lon="-2.44828">
        <ele>50.1</ele>
        <time>2025-02-11T14:46:53Z</time>
      </trkpt>
      <trkpt lat="47.78483" lon="-2.44828">
        <ele>50.2</ele>
        <time>2025-02-11T14:46:54Z</time>
      </trkpt>
      <trkpt lat="47.78482" lon="-2.44828">
        <ele>50.3</ele>
        <time>2025-02-11T14:46:55Z</time>
      </trkpt>
      <trkpt lat="47.7848" lon="-2.44828">
        <ele>50.5</ele>
        <time>2025-02-11T14:46:56Z</time>
      </trkpt>
      <trkpt lat="47.78479" lon="-2.44829">
        <ele>50.5</ele>
        <time>2025-02-11T14:46:57Z</time>
      </trkpt>
      <trkpt lat="47.78478" lon="-2.44828">
        <ele>50.7</ele>
        <time>2025-02-11T14:46:58Z</time>
      </trkpt>
      <trkpt lat="47.78477" lon="-2.44829">
        <ele>50.8</ele>
        <time>2025-02-11T14:46:59Z</time>
      </trkpt>
      <trkpt lat="47.78475" lon="-2.44829">
        <ele>50.7</ele>
        <time>2025-02-11T14:47:00Z</time>
      </trkpt>
      <trkpt lat="47.78474" lon="-2.44829">
        <ele>50.8</ele>
        <time>2025-02-11T14:47:01Z</time>
      </trkpt>
      <trkpt lat="47.78473" lon="-2.4483">
        <ele>50.8</ele>
        <time>2025-02-11T14:47:02Z</time>
      </trkpt>
      <trkpt lat="47.78472" lon="-2.4483">
        <ele>50.8</ele>
        <time>2025-02-11T14:47:03Z</time>
      </trkpt>
      <trkpt lat="47.78471" lon="-2.4483">
        <ele>51</ele>
        <time>2025-02-11T14:47:04Z</time>
      </trkpt>
      <trkpt lat="47.7847" lon="-2.4483">
        <ele>51.1</ele>
        <time>2025-02-11T14:47:05Z</time>
      </trkpt>
      <trkpt lat="47.78469" lon="-2.4483">
        <ele>51.3</ele>
        <time>2025-02-11T14:47:06Z</time>
      </trkpt>
      <trkpt lat="47.78468" lon="-2.44828">
        <ele>51.6</ele>
        <time>2025-02-11T14:47:07Z</time>
      </trkpt>
      <trkpt lat="47.78467" lon="-2.44828">
        <ele>51.8</ele>
        <time>2025-02-11T14:47:08Z</time>
      </trkpt>
      <trkpt lat="47.78466" lon="-2.44828">
        <ele>52</ele>
        <time>2025-02-11T14:47:09Z</time>
      </trkpt>
      <trkpt lat="47.78465" lon="-2.44828">
        <ele>52</ele>
        <time>2025-02-11T14:47:10Z</time>
      </trkpt>
      <trkpt lat="47.78464" lon="-2.44828">
        <ele>52.1</ele>
        <time>2025-02-11T14:47:11Z</time>
      </trkpt>
      <trkpt lat="47.78463" lon="-2.44828">
        <ele>52.1</ele>
        <time>2025-02-11T14:47:12Z</time>
      </trkpt>
      <trkpt lat="47.78463" lon="-2.44828">
        <ele>52.1</ele>
        <time>2025-02-11T14:47:13Z</time>
      </trkpt>
      <trkpt lat="47.78462" lon="-2.44828">
        <ele>52.2</ele>
        <time>2025-02-11T14:47:14Z</time>
      </trkpt>
      <trkpt lat="47.78461" lon="-2.44829">
        <ele>52.2</ele>
        <time>2025-02-11T14:47:15Z</time>
      </trkpt>
      <trkpt lat="47.7846" lon="-2.44829">
        <ele>52.3</ele>
        <time>2025-02-11T14:47:16Z</time>
      </trkpt>
      <trkpt lat="47.78459" lon="-2.44829">
        <ele>52.4</ele>
        <time>2025-02-11T14:47:17Z</time>
      </trkpt>
      <trkpt lat="47.78458" lon="-2.44828">
        <ele>52.6</ele>
        <time>2025-02-11T14:47:18Z</time>
      </trkpt>
      <trkpt lat="47.78458" lon="-2.44827">
        <ele>52.8</ele>
        <time>2025-02-11T14:47:19Z</time>
      </trkpt>
      <trkpt lat="47.78457" lon="-2.44828">
        <ele>52.8</ele>
        <time>2025-02-11T14:47:20Z</time>
      </trkpt>
      <trkpt lat="47.78456" lon="-2.44828">
        <ele>52.8</ele>
        <time>2025-02-11T14:47:21Z</time>
      </trkpt>
      <trkpt lat="47.78455" lon="-2.44828">
        <ele>52.8</ele>
        <time>2025-02-11T14:47:22Z</time>
      </trkpt>
      <trkpt lat="47.78454" lon="-2.44829">
        <ele>52.8</ele>
        <time>2025-02-11T14:47:23Z</time>
      </trkpt>
      <trkpt lat="47.78453" lon="-2.44829">
        <ele>52.8</ele>
        <time>2025-02-11T14:47:24Z</time>
      </trkpt>
      <trkpt lat="47.78452" lon="-2.4483">
        <ele>52.8</ele>
        <time>2025-02-11T14:47:25Z</time>
      </trkpt>
      <trkpt lat="47.78451" lon="-2.4483">
        <ele>52.9</ele>
        <time>2025-02-11T14:47:26Z</time>
      </trkpt>
      <trkpt lat="47.7845" lon="-2.4483">
        <ele>53</ele>
        <time>2025-02-11T14:47:27Z</time>
      </trkpt>
      <trkpt lat="47.78449" lon="-2.4483">
        <ele>53.1</ele>
        <time>2025-02-11T14:47:28Z</time>
      </trkpt>
      <trkpt lat="47.78448" lon="-2.44831">
        <ele>53</ele>
        <time>2025-02-11T14:47:29Z</time>
      </trkpt>
      <trkpt lat="47.78447" lon="-2.44831">
        <ele>53</ele>
        <time>2025-02-11T14:47:30Z</time>
      </trkpt>
      <trkpt lat="47.78446" lon="-2.44832">
        <ele>53.1</ele>
        <time>2025-02-11T14:47:31Z</time>
      </trkpt>
      <trkpt lat="47.78445" lon="-2.44832">
        <ele>53.1</ele>
        <time>2025-02-11T14:47:32Z</time>
      </trkpt>
      <trkpt lat="47.78444" lon="-2.44831">
        <ele>53.3</ele>
        <time>2025-02-11T14:47:33Z</time>
      </trkpt>
      <trkpt lat="47.78443" lon="-2.44832">
        <ele>53.4</ele>
        <time>2025-02-11T14:47:34Z</time>
      </trkpt>
      <trkpt lat="47.78442" lon="-2.44832">
        <ele>53.5</ele>
        <time>2025-02-11T14:47:35Z</time>
      </trkpt>
      <trkpt lat="47.78441" lon="-2.44832">
        <ele>53.5</ele>
        <time>2025-02-11T14:47:36Z</time>
      </trkpt>
      <trkpt lat="47.7844" lon="-2.44832">
        <ele>53.6</ele>
        <time>2025-02-11T14:47:37Z</time>
      </trkpt>
      <trkpt lat="47.78439" lon="-2.44831">
        <ele>53.9</ele>
        <time>2025-02-11T14:47:38Z</time>
      </trkpt>
      <trkpt lat="47.78439" lon="-2.44829">
        <ele>54.3</ele>
        <time>2025-02-11T14:47:39Z</time>
      </trkpt>
      <trkpt lat="47.7844" lon="-2.44826">
        <ele>54.5</ele>
        <time>2025-02-11T14:47:40Z</time>
      </trkpt>
      <trkpt lat="47.78441" lon="-2.44824">
        <ele>54.7</ele>
        <time>2025-02-11T14:47:41Z</time>
      </trkpt>
      <trkpt lat="47.78442" lon="-2.44823">
        <ele>54.8</ele>
        <time>2025-02-11T14:47:42Z</time>
      </trkpt>
      <trkpt lat="47.78443" lon="-2.44822">
        <ele>54.9</ele>
        <time>2025-02-11T14:47:43Z</time>
      </trkpt>
      <trkpt lat="47.78443" lon="-2.44821">
        <ele>54.9</ele>
        <time>2025-02-11T14:47:44Z</time>
      </trkpt>
      <trkpt lat="47.78444" lon="-2.44821">
        <ele>54.9</ele>
        <time>2025-02-11T14:47:45Z</time>
      </trkpt>
      <trkpt lat="47.78444" lon="-2.44819">
        <ele>55.1</ele>
        <time>2025-02-11T14:47:46Z</time>
      </trkpt>
      <trkpt lat="47.78444" lon="-2.44818">
        <ele>55.3</ele>
        <time>2025-02-11T14:47:47Z</time>
      </trkpt>
      <trkpt lat="47.78445" lon="-2.44816">
        <ele>55.5</ele>
        <time>2025-02-11T14:47:48Z</time>
      </trkpt>
      <trkpt lat="47.78445" lon="-2.44815">
        <ele>55.6</ele>
        <time>2025-02-11T14:47:49Z</time>
      </trkpt>
      <trkpt lat="47.78445" lon="-2.44813">
        <ele>56</ele>
        <time>2025-02-11T14:47:50Z</time>
      </trkpt>
      <trkpt lat="47.78444" lon="-2.44811">
        <ele>56.2</ele>
        <time>2025-02-11T14:47:51Z</time>
      </trkpt>
      <trkpt lat="47.78444" lon="-2.4481">
        <ele>56.4</ele>
        <time>2025-02-11T14:47:52Z</time>
      </trkpt>
      <trkpt lat="47.78444" lon="-2.44809">
        <ele>56.6</ele>
        <time>2025-02-11T14:47:53Z</time>
      </trkpt>
      <trkpt lat="47.78444" lon="-2.44808">
        <ele>56.8</ele>
        <time>2025-02-11T14:47:54Z</time>
      </trkpt>
      <trkpt lat="47.78444" lon="-2.44807">
        <ele>56.9</ele>
        <time>2025-02-11T14:47:55Z</time>
      </trkpt>
      <trkpt lat="47.78443" lon="-2.44806">
        <ele>57.1</ele>
        <time>2025-02-11T14:47:56Z</time>
      </trkpt>
      <trkpt lat="47.78444" lon="-2.44805">
        <ele>57.3</ele>
        <time>2025-02-11T14:47:57Z</time>
      </trkpt>
      <trkpt lat="47.78444" lon="-2.44803">
        <ele>57.4</ele>
        <time>2025-02-11T14:47:58Z</time>
      </trkpt>
      <trkpt lat="47.78444" lon="-2.44801">
        <ele>57.6</ele>
        <time>2025-02-11T14:47:59Z</time>
      </trkpt>
      <trkpt lat="47.78445" lon="-2.44801">
        <ele>57.7</ele>
        <time>2025-02-11T14:48:00Z</time>
      </trkpt>
      <trkpt lat="47.78445" lon="-2.44799">
        <ele>57.9</ele>
        <time>2025-02-11T14:48:01Z</time>
      </trkpt>
      <trkpt lat="47.78445" lon="-2.44798">
        <ele>58.1</ele>
        <time>2025-02-11T14:48:02Z</time>
      </trkpt>
      <trkpt lat="47.78445" lon="-2.44797">
        <ele>58.2</ele>
        <time>2025-02-11T14:48:03Z</time>
      </trkpt>
      <trkpt lat="47.78445" lon="-2.44796">
        <ele>58.4</ele>
        <time>2025-02-11T14:48:04Z</time>
      </trkpt>
      <trkpt lat="47.78444" lon="-2.44794">
        <ele>58.7</ele>
        <time>2025-02-11T14:48:05Z</time>
      </trkpt>
      <trkpt lat="47.78444" lon="-2.44793">
        <ele>58.9</ele>
        <time>2025-02-11T14:48:06Z</time>
      </trkpt>
      <trkpt lat="47.78444" lon="-2.44792">
        <ele>59</ele>
        <time>2025-02-11T14:48:07Z</time>
      </trkpt>
      <trkpt lat="47.78444" lon="-2.4479">
        <ele>59.2</ele>
        <time>2025-02-11T14:48:08Z</time>
      </trkpt>
      <trkpt lat="47.78444" lon="-2.44789">
        <ele>59.5</ele>
        <time>2025-02-11T14:48:09Z</time>
      </trkpt>
      <trkpt lat="47.78444" lon="-2.44787">
        <ele>59.6</ele>
        <time>2025-02-11T14:48:10Z</time>
      </trkpt>
      <trkpt lat="47.78444" lon="-2.44786">
        <ele>59.8</ele>
        <time>2025-02-11T14:48:11Z</time>
      </trkpt>
      <trkpt lat="47.78444" lon="-2.44785">
        <ele>60</ele>
        <time>2025-02-11T14:48:12Z</time>
      </trkpt>
      <trkpt lat="47.78445" lon="-2.44783">
        <ele>60.2</ele>
        <time>2025-02-11T14:48:13Z</time>
      </trkpt>
      <trkpt lat="47.78445" lon="-2.44782">
        <ele>60.3</ele>
        <time>2025-02-11T14:48:14Z</time>
      </trkpt>
      <trkpt lat="47.78446" lon="-2.44781">
        <ele>60.5</ele>
        <time>2025-02-11T14:48:15Z</time>
      </trkpt>
      <trkpt lat="47.78445" lon="-2.4478">
        <ele>60.7</ele>
        <time>2025-02-11T14:48:16Z</time>
      </trkpt>
      <trkpt lat="47.78445" lon="-2.44779">
        <ele>60.9</ele>
        <time>2025-02-11T14:48:17Z</time>
      </trkpt>
      <trkpt lat="47.78445" lon="-2.44777">
        <ele>61</ele>
        <time>2025-02-11T14:48:18Z</time>
      </trkpt>
      <trkpt lat="47.78445" lon="-2.44777">
        <ele>61.1</ele>
        <time>2025-02-11T14:48:19Z</time>
      </trkpt>
      <trkpt lat="47.78445" lon="-2.44776">
        <ele>61.1</ele>
        <time>2025-02-11T14:48:20Z</time>
      </trkpt>
      <trkpt lat="47.78445" lon="-2.44775">
        <ele>61.2</ele>
        <time>2025-02-11T14:48:21Z</time>
      </trkpt>
      <trkpt lat="47.78445" lon="-2.44775">
        <ele>61.2</ele>
        <time>2025-02-11T14:48:22Z</time>
      </trkpt>
      <trkpt lat="47.78445" lon="-2.44774">
        <ele>61.3</ele>
        <time>2025-02-11T14:48:23Z</time>
      </trkpt>
      <trkpt lat="47.78444" lon="-2.44774">
        <ele>61.3</ele>
        <time>2025-02-11T14:48:24Z</time>
      </trkpt>
      <trkpt lat="47.78444" lon="-2.44774">
        <ele>61.3</ele>
        <time>2025-02-11T14:48:25Z</time>
      </trkpt>
      <trkpt lat="47.78443" lon="-2.44775">
        <ele>61.3</ele>
        <time>2025-02-11T14:48:26Z</time>
      </trkpt>
      <trkpt lat="47.78443" lon="-2.44776">
        <ele>61.2</ele>
        <time>2025-02-11T14:48:27Z</time>
      </trkpt>
      <trkpt lat="47.78443" lon="-2.44777">
        <ele>61.1</ele>
        <time>2025-02-11T14:48:28Z</time>
      </trkpt>
      <trkpt lat="47.78443" lon="-2.44777">
        <ele>61.1</ele>
        <time>2025-02-11T14:48:29Z</time>
      </trkpt>
      <trkpt lat="47.78443" lon="-2.44777">
        <ele>61.1</ele>
        <time>2025-02-11T14:48:30Z</time>
      </trkpt>
      <trkpt lat="47.78443" lon="-2.44777">
        <ele>61.1</ele>
        <time>2025-02-11T14:48:31Z</time>
      </trkpt>
      <trkpt lat="47.78443" lon="-2.44777">
        <ele>61.1</ele>
        <time>2025-02-11T14:48:32Z</time>
      </trkpt>
      <trkpt lat="47.78442" lon="-2.44776">
        <ele>61.3</ele>
        <time>2025-02-11T14:48:33Z</time>
      </trkpt>
      <trkpt lat="47.7844" lon="-2.44775">
        <ele>61.3</ele>
        <time>2025-02-11T14:48:34Z</time>
      </trkpt>
      <trkpt lat="47.7844" lon="-2.44774">
        <ele>61.4</ele>
        <time>2025-02-11T14:48:35Z</time>
      </trkpt>
      <trkpt lat="47.78439" lon="-2.44773">
        <ele>61.5</ele>
        <time>2025-02-11T14:48:36Z</time>
      </trkpt>
      <trkpt lat="47.78438" lon="-2.44772">
        <ele>61.6</ele>
        <time>2025-02-11T14:48:37Z</time>
      </trkpt>
      <trkpt lat="47.78438" lon="-2.44771">
        <ele>61.7</ele>
        <time>2025-02-11T14:48:38Z</time>
      </trkpt>
      <trkpt lat="47.78438" lon="-2.44769">
        <ele>61.8</ele>
        <time>2025-02-11T14:48:39Z</time>
      </trkpt>
      <trkpt lat="47.78437" lon="-2.44768">
        <ele>61.8</ele>
        <time>2025-02-11T14:48:40Z</time>
      </trkpt>
      <trkpt lat="47.78437" lon="-2.44768">
        <ele>61.9</ele>
        <time>2025-02-11T14:48:41Z</time>
      </trkpt>
      <trkpt lat="47.78437" lon="-2.44767">
        <ele>62</ele>
        <time>2025-02-11T14:48:42Z</time>
      </trkpt>
      <trkpt lat="47.78437" lon="-2.44766">
        <ele>62</ele>
        <time>2025-02-11T14:48:43Z</time>
      </trkpt>
      <trkpt lat="47.78436" lon="-2.44765">
        <ele>62.1</ele>
        <time>2025-02-11T14:48:44Z</time>
      </trkpt>
      <trkpt lat="47.78436" lon="-2.44764">
        <ele>62.2</ele>
        <time>2025-02-11T14:48:45Z</time>
      </trkpt>
      <trkpt lat="47.78436" lon="-2.44763">
        <ele>62.2</ele>
        <time>2025-02-11T14:48:46Z</time>
      </trkpt>
      <trkpt lat="47.78436" lon="-2.44762">
        <ele>62.3</ele>
        <time>2025-02-11T14:48:47Z</time>
      </trkpt>
      <trkpt lat="47.78435" lon="-2.44761">
        <ele>62.4</ele>
        <time>2025-02-11T14:48:48Z</time>
      </trkpt>
      <trkpt lat="47.78435" lon="-2.4476">
        <ele>62.4</ele>
        <time>2025-02-11T14:48:49Z</time>
      </trkpt>
      <trkpt lat="47.78435" lon="-2.44759">
        <ele>62.5</ele>
        <time>2025-02-11T14:48:50Z</time>
      </trkpt>
      <trkpt lat="47.78435" lon="-2.44758">
        <ele>62.5</ele>
        <time>2025-02-11T14:48:51Z</time>
      </trkpt>
      <trkpt lat="47.78435" lon="-2.44757">
        <ele>62.6</ele>
        <time>2025-02-11T14:48:52Z</time>
      </trkpt>
      <trkpt lat="47.78435" lon="-2.44755">
        <ele>62.7</ele>
        <time>2025-02-11T14:48:53Z</time>
      </trkpt>
      <trkpt lat="47.78434" lon="-2.44754">
        <ele>62.8</ele>
        <time>2025-02-11T14:48:54Z</time>
      </trkpt>
      <trkpt lat="47.78434" lon="-2.44753">
        <ele>62.8</ele>
        <time>2025-02-11T14:48:55Z</time>
      </trkpt>
      <trkpt lat="47.78434" lon="-2.44752">
        <ele>62.9</ele>
        <time>2025-02-11T14:48:56Z</time>
      </trkpt>
      <trkpt lat="47.78433" lon="-2.44751">
        <ele>63</ele>
        <time>2025-02-11T14:48:57Z</time>
      </trkpt>
      <trkpt lat="47.78433" lon="-2.44749">
        <ele>63</ele>
        <time>2025-02-11T14:48:58Z</time>
      </trkpt>
      <trkpt lat="47.78434" lon="-2.44748">
        <ele>63</ele>
        <time>2025-02-11T14:48:59Z</time>
      </trkpt>
      <trkpt lat="47.78434" lon="-2.44746">
        <ele>63</ele>
        <time>2025-02-11T14:49:00Z</time>
      </trkpt>
      <trkpt lat="47.78434" lon="-2.44745">
        <ele>63.1</ele>
        <time>2025-02-11T14:49:01Z</time>
      </trkpt>
      <trkpt lat="47.78434" lon="-2.44744">
        <ele>63.1</ele>
        <time>2025-02-11T14:49:02Z</time>
      </trkpt>
      <trkpt lat="47.78434" lon="-2.44743">
        <ele>63.1</ele>
        <time>2025-02-11T14:49:03Z</time>
      </trkpt>
      <trkpt lat="47.78434" lon="-2.44741">
        <ele>63.1</ele>
        <time>2025-02-11T14:49:04Z</time>
      </trkpt>
      <trkpt lat="47.78435" lon="-2.4474">
        <ele>63.1</ele>
        <time>2025-02-11T14:49:05Z</time>
      </trkpt>
      <trkpt lat="47.78435" lon="-2.44739">
        <ele>63.1</ele>
        <time>2025-02-11T14:49:06Z</time>
      </trkpt>
      <trkpt lat="47.78436" lon="-2.44738">
        <ele>63.1</ele>
        <time>2025-02-11T14:49:07Z</time>
      </trkpt>
      <trkpt lat="47.78436" lon="-2.44737">
        <ele>63.1</ele>
        <time>2025-02-11T14:49:08Z</time>
      </trkpt>
      <trkpt lat="47.78437" lon="-2.44735">
        <ele>63.1</ele>
        <time>2025-02-11T14:49:09Z</time>
      </trkpt>
      <trkpt lat="47.78437" lon="-2.44734">
        <ele>63.2</ele>
        <time>2025-02-11T14:49:10Z</time>
      </trkpt>
      <trkpt lat="47.78437" lon="-2.44731">
        <ele>63.2</ele>
        <time>2025-02-11T14:49:11Z</time>
      </trkpt>
      <trkpt lat="47.78437" lon="-2.4473">
        <ele>63.2</ele>
        <time>2025-02-11T14:49:12Z</time>
      </trkpt>
      <trkpt lat="47.78437" lon="-2.44728">
        <ele>63.2</ele>
        <time>2025-02-11T14:49:13Z</time>
      </trkpt>
      <trkpt lat="47.78436" lon="-2.44728">
        <ele>63.2</ele>
        <time>2025-02-11T14:49:14Z</time>
      </trkpt>
      <trkpt lat="47.78436" lon="-2.44727">
        <ele>63.3</ele>
        <time>2025-02-11T14:49:15Z</time>
      </trkpt>
      <trkpt lat="47.78435" lon="-2.44726">
        <ele>63.3</ele>
        <time>2025-02-11T14:49:16Z</time>
      </trkpt>
      <trkpt lat="47.78435" lon="-2.44725">
        <ele>63.3</ele>
        <time>2025-02-11T14:49:17Z</time>
      </trkpt>
      <trkpt lat="47.78434" lon="-2.44724">
        <ele>63.4</ele>
        <time>2025-02-11T14:49:18Z</time>
      </trkpt>
      <trkpt lat="47.78433" lon="-2.44723">
        <ele>63.4</ele>
        <time>2025-02-11T14:49:19Z</time>
      </trkpt>
      <trkpt lat="47.78433" lon="-2.44722">
        <ele>63.4</ele>
        <time>2025-02-11T14:49:20Z</time>
      </trkpt>
      <trkpt lat="47.78432" lon="-2.44721">
        <ele>63.5</ele>
        <time>2025-02-11T14:49:21Z</time>
      </trkpt>
      <trkpt lat="47.78432" lon="-2.4472">
        <ele>63.5</ele>
        <time>2025-02-11T14:49:22Z</time>
      </trkpt>
      <trkpt lat="47.78431" lon="-2.44719">
        <ele>63.5</ele>
        <time>2025-02-11T14:49:23Z</time>
      </trkpt>
      <trkpt lat="47.78431" lon="-2.44718">
        <ele>63.6</ele>
        <time>2025-02-11T14:49:24Z</time>
      </trkpt>
      <trkpt lat="47.7843" lon="-2.44716">
        <ele>63.6</ele>
        <time>2025-02-11T14:49:25Z</time>
      </trkpt>
      <trkpt lat="47.78429" lon="-2.44715">
        <ele>63.7</ele>
        <time>2025-02-11T14:49:26Z</time>
      </trkpt>
      <trkpt lat="47.78428" lon="-2.44714">
        <ele>63.7</ele>
        <time>2025-02-11T14:49:27Z</time>
      </trkpt>
      <trkpt lat="47.78428" lon="-2.44712">
        <ele>63.7</ele>
        <time>2025-02-11T14:49:28Z</time>
      </trkpt>
      <trkpt lat="47.78428" lon="-2.4471">
        <ele>63.8</ele>
        <time>2025-02-11T14:49:29Z</time>
      </trkpt>
      <trkpt lat="47.78427" lon="-2.44709">
        <ele>63.8</ele>
        <time>2025-02-11T14:49:30Z</time>
      </trkpt>
      <trkpt lat="47.78426" lon="-2.44708">
        <ele>63.8</ele>
        <time>2025-02-11T14:49:31Z</time>
      </trkpt>
      <trkpt lat="47.78426" lon="-2.44706">
        <ele>63.9</ele>
        <time>2025-02-11T14:49:32Z</time>
      </trkpt>
      <trkpt lat="47.78426" lon="-2.44705">
        <ele>63.9</ele>
        <time>2025-02-11T14:49:33Z</time>
      </trkpt>
      <trkpt lat="47.78426" lon="-2.44703">
        <ele>63.9</ele>
        <time>2025-02-11T14:49:34Z</time>
      </trkpt>
      <trkpt lat="47.78426" lon="-2.44701">
        <ele>63.9</ele>
        <time>2025-02-11T14:49:35Z</time>
      </trkpt>
      <trkpt lat="47.78427" lon="-2.44699">
        <ele>63.9</ele>
        <time>2025-02-11T14:49:36Z</time>
      </trkpt>
      <trkpt lat="47.78427" lon="-2.44697">
        <ele>64</ele>
        <time>2025-02-11T14:49:37Z</time>
      </trkpt>
      <trkpt lat="47.78427" lon="-2.44695">
        <ele>64</ele>
        <time>2025-02-11T14:49:38Z</time>
      </trkpt>
      <trkpt lat="47.78427" lon="-2.44693">
        <ele>64</ele>
        <time>2025-02-11T14:49:39Z</time>
      </trkpt>
      <trkpt lat="47.78427" lon="-2.44691">
        <ele>63.9</ele>
        <time>2025-02-11T14:49:40Z</time>
      </trkpt>
      <trkpt lat="47.78427" lon="-2.4469">
        <ele>63.8</ele>
        <time>2025-02-11T14:49:41Z</time>
      </trkpt>
      <trkpt lat="47.78427" lon="-2.44688">
        <ele>63.8</ele>
        <time>2025-02-11T14:49:42Z</time>
      </trkpt>
      <trkpt lat="47.78427" lon="-2.44686">
        <ele>63.7</ele>
        <time>2025-02-11T14:49:43Z</time>
      </trkpt>
      <trkpt lat="47.78426" lon="-2.44685">
        <ele>63.7</ele>
        <time>2025-02-11T14:49:44Z</time>
      </trkpt>
      <trkpt lat="47.78426" lon="-2.44683">
        <ele>63.6</ele>
        <time>2025-02-11T14:49:45Z</time>
      </trkpt>
      <trkpt lat="47.78425" lon="-2.44682">
        <ele>63.6</ele>
        <time>2025-02-11T14:49:46Z</time>
      </trkpt>
      <trkpt lat="47.78424" lon="-2.44682">
        <ele>63.5</ele>
        <time>2025-02-11T14:49:47Z</time>
      </trkpt>
      <trkpt lat="47.78423" lon="-2.44681">
        <ele>63.5</ele>
        <time>2025-02-11T14:49:48Z</time>
      </trkpt>
      <trkpt lat="47.78422" lon="-2.44681">
        <ele>63.5</ele>
        <time>2025-02-11T14:49:49Z</time>
      </trkpt>
      <trkpt lat="47.7842" lon="-2.44681">
        <ele>63.5</ele>
        <time>2025-02-11T14:49:50Z</time>
      </trkpt>
      <trkpt lat="47.78419" lon="-2.44681">
        <ele>63.5</ele>
        <time>2025-02-11T14:49:51Z</time>
      </trkpt>
      <trkpt lat="47.78418" lon="-2.44681">
        <ele>63.5</ele>
        <time>2025-02-11T14:49:52Z</time>
      </trkpt>
      <trkpt lat="47.78417" lon="-2.44682">
        <ele>63.5</ele>
        <time>2025-02-11T14:49:53Z</time>
      </trkpt>
      <trkpt lat="47.78417" lon="-2.44681">
        <ele>63.5</ele>
        <time>2025-02-11T14:49:54Z</time>
      </trkpt>
      <trkpt lat="47.78416" lon="-2.44679">
        <ele>63.5</ele>
        <time>2025-02-11T14:49:55Z</time>
      </trkpt>
      <trkpt lat="47.78416" lon="-2.44678">
        <ele>63.4</ele>
        <time>2025-02-11T14:49:56Z</time>
      </trkpt>
      <trkpt lat="47.78416" lon="-2.44676">
        <ele>63.4</ele>
        <time>2025-02-11T14:49:57Z</time>
      </trkpt>
      <trkpt lat="47.78416" lon="-2.44675">
        <ele>63.3</ele>
        <time>2025-02-11T14:49:58Z</time>
      </trkpt>
      <trkpt lat="47.78416" lon="-2.44673">
        <ele>63.3</ele>
        <time>2025-02-11T14:49:59Z</time>
      </trkpt>
      <trkpt lat="47.78415" lon="-2.44671">
        <ele>63.2</ele>
        <time>2025-02-11T14:50:00Z</time>
      </trkpt>
      <trkpt lat="47.78415" lon="-2.44669">
        <ele>63.2</ele>
        <time>2025-02-11T14:50:01Z</time>
      </trkpt>
      <trkpt lat="47.78415" lon="-2.44668">
        <ele>63.1</ele>
        <time>2025-02-11T14:50:02Z</time>
      </trkpt>
      <trkpt lat="47.78416" lon="-2.44666">
        <ele>63</ele>
        <time>2025-02-11T14:50:03Z</time>
      </trkpt>
      <trkpt lat="47.78416" lon="-2.44665">
        <ele>63</ele>
        <time>2025-02-11T14:50:04Z</time>
      </trkpt>
      <trkpt lat="47.78417" lon="-2.44663">
        <ele>63</ele>
        <time>2025-02-11T14:50:05Z</time>
      </trkpt>
      <trkpt lat="47.78419" lon="-2.44662">
        <ele>63</ele>
        <time>2025-02-11T14:50:06Z</time>
      </trkpt>
      <trkpt lat="47.7842" lon="-2.44662">
        <ele>63</ele>
        <time>2025-02-11T14:50:07Z</time>
      </trkpt>
      <trkpt lat="47.78421" lon="-2.44662">
        <ele>63</ele>
        <time>2025-02-11T14:50:08Z</time>
      </trkpt>
      <trkpt lat="47.78422" lon="-2.44661">
        <ele>63</ele>
        <time>2025-02-11T14:50:09Z</time>
      </trkpt>
      <trkpt lat="47.78423" lon="-2.4466">
        <ele>63</ele>
        <time>2025-02-11T14:50:10Z</time>
      </trkpt>
      <trkpt lat="47.78423" lon="-2.44659">
        <ele>63</ele>
        <time>2025-02-11T14:50:11Z</time>
      </trkpt>
      <trkpt lat="47.78424" lon="-2.44658">
        <ele>63</ele>
        <time>2025-02-11T14:50:12Z</time>
      </trkpt>
      <trkpt lat="47.78425" lon="-2.44656">
        <ele>63</ele>
        <time>2025-02-11T14:50:13Z</time>
      </trkpt>
      <trkpt lat="47.78425" lon="-2.44655">
        <ele>63</ele>
        <time>2025-02-11T14:50:14Z</time>
      </trkpt>
      <trkpt lat="47.78425" lon="-2.44653">
        <ele>63</ele>
        <time>2025-02-11T14:50:15Z</time>
      </trkpt>
      <trkpt lat="47.78424" lon="-2.44651">
        <ele>63</ele>
        <time>2025-02-11T14:50:16Z</time>
      </trkpt>
      <trkpt lat="47.78424" lon="-2.4465">
        <ele>63</ele>
        <time>2025-02-11T14:50:17Z</time>
      </trkpt>
      <trkpt lat="47.78422" lon="-2.4465">
        <ele>63</ele>
        <time>2025-02-11T14:50:18Z</time>
      </trkpt>
      <trkpt lat="47.78421" lon="-2.4465">
        <ele>63</ele>
        <time>2025-02-11T14:50:19Z</time>
      </trkpt>
      <trkpt lat="47.78419" lon="-2.4465">
        <ele>63</ele>
        <time>2025-02-11T14:50:20Z</time>
      </trkpt>
      <trkpt lat="47.78418" lon="-2.44651">
        <ele>63</ele>
        <time>2025-02-11T14:50:21Z</time>
      </trkpt>
      <trkpt lat="47.78417" lon="-2.44651">
        <ele>63</ele>
        <time>2025-02-11T14:50:22Z</time>
      </trkpt>
      <trkpt lat="47.78416" lon="-2.44651">
        <ele>63</ele>
        <time>2025-02-11T14:50:23Z</time>
      </trkpt>
      <trkpt lat="47.78415" lon="-2.44651">
        <ele>63</ele>
        <time>2025-02-11T14:50:24Z</time>
      </trkpt>
      <trkpt lat="47.78414" lon="-2.4465">
        <ele>63</ele>
        <time>2025-02-11T14:50:25Z</time>
      </trkpt>
      <trkpt lat="47.78414" lon="-2.44649">
        <ele>63</ele>
        <time>2025-02-11T14:50:26Z</time>
      </trkpt>
      <trkpt lat="47.78413" lon="-2.44647">
        <ele>63</ele>
        <time>2025-02-11T14:50:27Z</time>
      </trkpt>
      <trkpt lat="47.78412" lon="-2.44646">
        <ele>63</ele>
        <time>2025-02-11T14:50:28Z</time>
      </trkpt>
      <trkpt lat="47.78412" lon="-2.44644">
        <ele>63</ele>
        <time>2025-02-11T14:50:29Z</time>
      </trkpt>
      <trkpt lat="47.78412" lon="-2.44642">
        <ele>63</ele>
        <time>2025-02-11T14:50:30Z</time>
      </trkpt>
      <trkpt lat="47.78412" lon="-2.4464">
        <ele>63</ele>
        <time>2025-02-11T14:50:31Z</time>
      </trkpt>
      <trkpt lat="47.78412" lon="-2.44638">
        <ele>63</ele>
        <time>2025-02-11T14:50:32Z</time>
      </trkpt>
      <trkpt lat="47.78412" lon="-2.44636">
        <ele>62.9</ele>
        <time>2025-02-11T14:50:33Z</time>
      </trkpt>
      <trkpt lat="47.78413" lon="-2.44635">
        <ele>62.9</ele>
        <time>2025-02-11T14:50:34Z</time>
      </trkpt>
      <trkpt lat="47.78414" lon="-2.44634">
        <ele>62.8</ele>
        <time>2025-02-11T14:50:35Z</time>
      </trkpt>
      <trkpt lat="47.78415" lon="-2.44634">
        <ele>62.8</ele>
        <time>2025-02-11T14:50:36Z</time>
      </trkpt>
      <trkpt lat="47.78416" lon="-2.44633">
        <ele>62.8</ele>
        <time>2025-02-11T14:50:37Z</time>
      </trkpt>
      <trkpt lat="47.78417" lon="-2.44632">
        <ele>62.8</ele>
        <time>2025-02-11T14:50:38Z</time>
      </trkpt>
      <trkpt lat="47.78418" lon="-2.44632">
        <ele>62.8</ele>
        <time>2025-02-11T14:50:39Z</time>
      </trkpt>
      <trkpt lat="47.78419" lon="-2.44631">
        <ele>62.8</ele>
        <time>2025-02-11T14:50:40Z</time>
      </trkpt>
      <trkpt lat="47.78421" lon="-2.44631">
        <ele>62.8</ele>
        <time>2025-02-11T14:50:41Z</time>
      </trkpt>
      <trkpt lat="47.78422" lon="-2.44631">
        <ele>62.8</ele>
        <time>2025-02-11T14:50:42Z</time>
      </trkpt>
      <trkpt lat="47.78423" lon="-2.44631">
        <ele>62.8</ele>
        <time>2025-02-11T14:50:43Z</time>
      </trkpt>
      <trkpt lat="47.78424" lon="-2.44632">
        <ele>62.8</ele>
        <time>2025-02-11T14:50:44Z</time>
      </trkpt>
      <trkpt lat="47.78425" lon="-2.44632">
        <ele>62.8</ele>
        <time>2025-02-11T14:50:45Z</time>
      </trkpt>
      <trkpt lat="47.78426" lon="-2.44632">
        <ele>62.8</ele>
        <time>2025-02-11T14:50:46Z</time>
      </trkpt>
      <trkpt lat="47.78427" lon="-2.44634">
        <ele>62.9</ele>
        <time>2025-02-11T14:50:47Z</time>
      </trkpt>
      <trkpt lat="47.78428" lon="-2.44635">
        <ele>62.9</ele>
        <time>2025-02-11T14:50:48Z</time>
      </trkpt>
      <trkpt lat="47.78429" lon="-2.44636">
        <ele>62.9</ele>
        <time>2025-02-11T14:50:49Z</time>
      </trkpt>
      <trkpt lat="47.78429" lon="-2.44638">
        <ele>63</ele>
        <time>2025-02-11T14:50:50Z</time>
      </trkpt>
      <trkpt lat="47.7843" lon="-2.44639">
        <ele>63</ele>
        <time>2025-02-11T14:50:51Z</time>
      </trkpt>
      <trkpt lat="47.7843" lon="-2.4464">
        <ele>63</ele>
        <time>2025-02-11T14:50:52Z</time>
      </trkpt>
      <trkpt lat="47.78431" lon="-2.44642">
        <ele>63</ele>
        <time>2025-02-11T14:50:53Z</time>
      </trkpt>
      <trkpt lat="47.78431" lon="-2.44643">
        <ele>63</ele>
        <time>2025-02-11T14:50:54Z</time>
      </trkpt>
      <trkpt lat="47.78431" lon="-2.44644">
        <ele>63</ele>
        <time>2025-02-11T14:50:55Z</time>
      </trkpt>
      <trkpt lat="47.78431" lon="-2.44645">
        <ele>63</ele>
        <time>2025-02-11T14:50:56Z</time>
      </trkpt>
      <trkpt lat="47.78432" lon="-2.44645">
        <ele>63</ele>
        <time>2025-02-11T14:50:57Z</time>
      </trkpt>
      <trkpt lat="47.78433" lon="-2.44647">
        <ele>63</ele>
        <time>2025-02-11T14:50:58Z</time>
      </trkpt>
      <trkpt lat="47.78434" lon="-2.44649">
        <ele>63</ele>
        <time>2025-02-11T14:50:59Z</time>
      </trkpt>
      <trkpt lat="47.78434" lon="-2.44651">
        <ele>63</ele>
        <time>2025-02-11T14:51:00Z</time>
      </trkpt>
      <trkpt lat="47.78434" lon="-2.44653">
        <ele>63</ele>
        <time>2025-02-11T14:51:01Z</time>
      </trkpt>
      <trkpt lat="47.78434" lon="-2.44654">
        <ele>63</ele>
        <time>2025-02-11T14:51:02Z</time>
      </trkpt>
      <trkpt lat="47.78434" lon="-2.44655">
        <ele>63</ele>
        <time>2025-02-11T14:51:03Z</time>
      </trkpt>
      <trkpt lat="47.78434" lon="-2.44656">
        <ele>63</ele>
        <time>2025-02-11T14:51:04Z</time>
      </trkpt>
      <trkpt lat="47.78435" lon="-2.44657">
        <ele>63</ele>
        <time>2025-02-11T14:51:05Z</time>
      </trkpt>
      <trkpt lat="47.78436" lon="-2.44658">
        <ele>63</ele>
        <time>2025-02-11T14:51:06Z</time>
      </trkpt>
      <trkpt lat="47.78436" lon="-2.44658">
        <ele>63</ele>
        <time>2025-02-11T14:51:07Z</time>
      </trkpt>
      <trkpt lat="47.78437" lon="-2.44658">
        <ele>63</ele>
        <time>2025-02-11T14:51:08Z</time>
      </trkpt>
      <trkpt lat="47.78437" lon="-2.44658">
        <ele>63</ele>
        <time>2025-02-11T14:51:09Z</time>
      </trkpt>
      <trkpt lat="47.78436" lon="-2.44656">
        <ele>63</ele>
        <time>2025-02-11T14:51:10Z</time>
      </trkpt>
      <trkpt lat="47.78436" lon="-2.44656">
        <ele>63</ele>
        <time>2025-02-11T14:51:11Z</time>
      </trkpt>
      <trkpt lat="47.78436" lon="-2.44657">
        <ele>63</ele>
        <time>2025-02-11T14:51:12Z</time>
      </trkpt>
      <trkpt lat="47.78437" lon="-2.44658">
        <ele>63</ele>
        <time>2025-02-11T14:51:13Z</time>
      </trkpt>
      <trkpt lat="47.78438" lon="-2.44658">
        <ele>63</ele>
        <time>2025-02-11T14:51:14Z</time>
      </trkpt>
      <trkpt lat="47.78439" lon="-2.44658">
        <ele>63</ele>
        <time>2025-02-11T14:51:15Z</time>
      </trkpt>
      <trkpt lat="47.78439" lon="-2.4466">
        <ele>63</ele>
        <time>2025-02-11T14:51:16Z</time>
      </trkpt>
      <trkpt lat="47.7844" lon="-2.44661">
        <ele>63</ele>
        <time>2025-02-11T14:51:17Z</time>
      </trkpt>
      <trkpt lat="47.7844" lon="-2.44663">
        <ele>63</ele>
        <time>2025-02-11T14:51:18Z</time>
      </trkpt>
      <trkpt lat="47.78441" lon="-2.44665">
        <ele>63</ele>
        <time>2025-02-11T14:51:19Z</time>
      </trkpt>
      <trkpt lat="47.78441" lon="-2.44667">
        <ele>63</ele>
        <time>2025-02-11T14:51:20Z</time>
      </trkpt>
      <trkpt lat="47.78441" lon="-2.44668">
        <ele>63.1</ele>
        <time>2025-02-11T14:51:21Z</time>
      </trkpt>
      <trkpt lat="47.78442" lon="-2.4467">
        <ele>63.1</ele>
        <time>2025-02-11T14:51:22Z</time>
      </trkpt>
      <trkpt lat="47.78443" lon="-2.44672">
        <ele>63.2</ele>
        <time>2025-02-11T14:51:23Z</time>
      </trkpt>
      <trkpt lat="47.78444" lon="-2.44674">
        <ele>63.2</ele>
        <time>2025-02-11T14:51:24Z</time>
      </trkpt>
      <trkpt lat="47.78444" lon="-2.44675">
        <ele>63.3</ele>
        <time>2025-02-11T14:51:25Z</time>
      </trkpt>
      <trkpt lat="47.78445" lon="-2.44676">
        <ele>63.3</ele>
        <time>2025-02-11T14:51:26Z</time>
      </trkpt>
      <trkpt lat="47.78445" lon="-2.44678">
        <ele>63.4</ele>
        <time>2025-02-11T14:51:27Z</time>
      </trkpt>
      <trkpt lat="47.78446" lon="-2.44679">
        <ele>63.5</ele>
        <time>2025-02-11T14:51:28Z</time>
      </trkpt>
      <trkpt lat="47.78447" lon="-2.44681">
        <ele>63.5</ele>
        <time>2025-02-11T14:51:29Z</time>
      </trkpt>
      <trkpt lat="47.78447" lon="-2.44682">
        <ele>63.6</ele>
        <time>2025-02-11T14:51:30Z</time>
      </trkpt>
      <trkpt lat="47.78448" lon="-2.44684">
        <ele>63.7</ele>
        <time>2025-02-11T14:51:31Z</time>
      </trkpt>
      <trkpt lat="47.78447" lon="-2.44686">
        <ele>63.7</ele>
        <time>2025-02-11T14:51:32Z</time>
      </trkpt>
      <trkpt lat="47.78447" lon="-2.44688">
        <ele>63.8</ele>
        <time>2025-02-11T14:51:33Z</time>
      </trkpt>
      <trkpt lat="47.78447" lon="-2.44689">
        <ele>63.8</ele>
        <time>2025-02-11T14:51:34Z</time>
      </trkpt>
      <trkpt lat="47.78448" lon="-2.44692">
        <ele>63.9</ele>
        <time>2025-02-11T14:51:35Z</time>
      </trkpt>
      <trkpt lat="47.78449" lon="-2.44694">
        <ele>64</ele>
        <time>2025-02-11T14:51:36Z</time>
      </trkpt>
      <trkpt lat="47.7845" lon="-2.44695">
        <ele>64</ele>
        <time>2025-02-11T14:51:37Z</time>
      </trkpt>
      <trkpt lat="47.7845" lon="-2.44697">
        <ele>63.9</ele>
        <time>2025-02-11T14:51:38Z</time>
      </trkpt>
      <trkpt lat="47.78451" lon="-2.44699">
        <ele>63.9</ele>
        <time>2025-02-11T14:51:39Z</time>
      </trkpt>
      <trkpt lat="47.78451" lon="-2.44701">
        <ele>63.8</ele>
        <time>2025-02-11T14:51:40Z</time>
      </trkpt>
      <trkpt lat="47.78451" lon="-2.44702">
        <ele>63.8</ele>
        <time>2025-02-11T14:51:41Z</time>
      </trkpt>
      <trkpt lat="47.78452" lon="-2.44704">
        <ele>63.7</ele>
        <time>2025-02-11T14:51:42Z</time>
      </trkpt>
      <trkpt lat="47.78453" lon="-2.44705">
        <ele>63.7</ele>
        <time>2025-02-11T14:51:43Z</time>
      </trkpt>
      <trkpt lat="47.78454" lon="-2.44707">
        <ele>63.7</ele>
        <time>2025-02-11T14:51:44Z</time>
      </trkpt>
      <trkpt lat="47.78454" lon="-2.44709">
        <ele>63.7</ele>
        <time>2025-02-11T14:51:45Z</time>
      </trkpt>
      <trkpt lat="47.78455" lon="-2.4471">
        <ele>63.6</ele>
        <time>2025-02-11T14:51:46Z</time>
      </trkpt>
      <trkpt lat="47.78456" lon="-2.44712">
        <ele>63.6</ele>
        <time>2025-02-11T14:51:47Z</time>
      </trkpt>
      <trkpt lat="47.78457" lon="-2.44713">
        <ele>63.6</ele>
        <time>2025-02-11T14:51:48Z</time>
      </trkpt>
      <trkpt lat="47.78458" lon="-2.44713">
        <ele>63.7</ele>
        <time>2025-02-11T14:51:49Z</time>
      </trkpt>
      <trkpt lat="47.78459" lon="-2.44713">
        <ele>63.7</ele>
        <time>2025-02-11T14:51:50Z</time>
      </trkpt>
      <trkpt lat="47.7846" lon="-2.44713">
        <ele>63.7</ele>
        <time>2025-02-11T14:51:51Z</time>
      </trkpt>
      <trkpt lat="47.78461" lon="-2.44712">
        <ele>63.8</ele>
        <time>2025-02-11T14:51:52Z</time>
      </trkpt>
      <trkpt lat="47.78463" lon="-2.44711">
        <ele>63.8</ele>
        <time>2025-02-11T14:51:53Z</time>
      </trkpt>
      <trkpt lat="47.78464" lon="-2.44712">
        <ele>63.8</ele>
        <time>2025-02-11T14:51:54Z</time>
      </trkpt>
      <trkpt lat="47.78465" lon="-2.44712">
        <ele>63.8</ele>
        <time>2025-02-11T14:51:55Z</time>
      </trkpt>
      <trkpt lat="47.78466" lon="-2.44711">
        <ele>63.9</ele>
        <time>2025-02-11T14:51:56Z</time>
      </trkpt>
      <trkpt lat="47.78466" lon="-2.44712">
        <ele>63.9</ele>
        <time>2025-02-11T14:51:57Z</time>
      </trkpt>
      <trkpt lat="47.78467" lon="-2.44712">
        <ele>63.9</ele>
        <time>2025-02-11T14:51:58Z</time>
      </trkpt>
      <trkpt lat="47.78468" lon="-2.44713">
        <ele>63.9</ele>
        <time>2025-02-11T14:51:59Z</time>
      </trkpt>
      <trkpt lat="47.78469" lon="-2.44714">
        <ele>63.9</ele>
        <time>2025-02-11T14:52:00Z</time>
      </trkpt>
      <trkpt lat="47.7847" lon="-2.44714">
        <ele>63.9</ele>
        <time>2025-02-11T14:52:01Z</time>
      </trkpt>
      <trkpt lat="47.78471" lon="-2.44716">
        <ele>64</ele>
        <time>2025-02-11T14:52:02Z</time>
      </trkpt>
      <trkpt lat="47.78471" lon="-2.44717">
        <ele>64</ele>
        <time>2025-02-11T14:52:03Z</time>
      </trkpt>
      <trkpt lat="47.78472" lon="-2.44717">
        <ele>64</ele>
        <time>2025-02-11T14:52:04Z</time>
      </trkpt>
      <trkpt lat="47.78473" lon="-2.44718">
        <ele>63.9</ele>
        <time>2025-02-11T14:52:05Z</time>
      </trkpt>
      <trkpt lat="47.78474" lon="-2.4472">
        <ele>63.9</ele>
        <time>2025-02-11T14:52:06Z</time>
      </trkpt>
      <trkpt lat="47.78475" lon="-2.44721">
        <ele>63.8</ele>
        <time>2025-02-11T14:52:07Z</time>
      </trkpt>
      <trkpt lat="47.78476" lon="-2.44721">
        <ele>63.7</ele>
        <time>2025-02-11T14:52:08Z</time>
      </trkpt>
      <trkpt lat="47.78477" lon="-2.44722">
        <ele>63.7</ele>
        <time>2025-02-11T14:52:09Z</time>
      </trkpt>
      <trkpt lat="47.78478" lon="-2.44722">
        <ele>63.6</ele>
        <time>2025-02-11T14:52:10Z</time>
      </trkpt>
      <trkpt lat="47.78479" lon="-2.44722">
        <ele>63.5</ele>
        <time>2025-02-11T14:52:11Z</time>
      </trkpt>
      <trkpt lat="47.7848" lon="-2.44723">
        <ele>63.4</ele>
        <time>2025-02-11T14:52:12Z</time>
      </trkpt>
      <trkpt lat="47.7848" lon="-2.44724">
        <ele>63.4</ele>
        <time>2025-02-11T14:52:13Z</time>
      </trkpt>
      <trkpt lat="47.78481" lon="-2.44724">
        <ele>63.3</ele>
        <time>2025-02-11T14:52:14Z</time>
      </trkpt>
      <trkpt lat="47.78482" lon="-2.44725">
        <ele>63.2</ele>
        <time>2025-02-11T14:52:15Z</time>
      </trkpt>
      <trkpt lat="47.78483" lon="-2.44725">
        <ele>63.1</ele>
        <time>2025-02-11T14:52:16Z</time>
      </trkpt>
      <trkpt lat="47.78484" lon="-2.44726">
        <ele>63</ele>
        <time>2025-02-11T14:52:17Z</time>
      </trkpt>
      <trkpt lat="47.78485" lon="-2.44727">
        <ele>62.9</ele>
        <time>2025-02-11T14:52:18Z</time>
      </trkpt>
      <trkpt lat="47.78486" lon="-2.44727">
        <ele>62.9</ele>
        <time>2025-02-11T14:52:19Z</time>
      </trkpt>
      <trkpt lat="47.78487" lon="-2.44727">
        <ele>62.8</ele>
        <time>2025-02-11T14:52:20Z</time>
      </trkpt>
      <trkpt lat="47.78488" lon="-2.44728">
        <ele>62.7</ele>
        <time>2025-02-11T14:52:21Z</time>
      </trkpt>
      <trkpt lat="47.78488" lon="-2.44728">
        <ele>62.6</ele>
        <time>2025-02-11T14:52:22Z</time>
      </trkpt>
      <trkpt lat="47.78489" lon="-2.44728">
        <ele>62.6</ele>
        <time>2025-02-11T14:52:23Z</time>
      </trkpt>
      <trkpt lat="47.7849" lon="-2.44728">
        <ele>62.5</ele>
        <time>2025-02-11T14:52:24Z</time>
      </trkpt>
      <trkpt lat="47.78491" lon="-2.44728">
        <ele>62.4</ele>
        <time>2025-02-11T14:52:25Z</time>
      </trkpt>
      <trkpt lat="47.78492" lon="-2.44728">
        <ele>62.4</ele>
        <time>2025-02-11T14:52:26Z</time>
      </trkpt>
      <trkpt lat="47.78493" lon="-2.44728">
        <ele>62.3</ele>
        <time>2025-02-11T14:52:27Z</time>
      </trkpt>
      <trkpt lat="47.78494" lon="-2.44727">
        <ele>62.2</ele>
        <time>2025-02-11T14:52:28Z</time>
      </trkpt>
      <trkpt lat="47.78495" lon="-2.44727">
        <ele>62.2</ele>
        <time>2025-02-11T14:52:29Z</time>
      </trkpt>
      <trkpt lat="47.78496" lon="-2.44727">
        <ele>62.1</ele>
        <time>2025-02-11T14:52:30Z</time>
      </trkpt>
      <trkpt lat="47.78497" lon="-2.44727">
        <ele>62.1</ele>
        <time>2025-02-11T14:52:31Z</time>
      </trkpt>
      <trkpt lat="47.78498" lon="-2.44727">
        <ele>62</ele>
        <time>2025-02-11T14:52:32Z</time>
      </trkpt>
      <trkpt lat="47.78499" lon="-2.44727">
        <ele>61.9</ele>
        <time>2025-02-11T14:52:33Z</time>
      </trkpt>
      <trkpt lat="47.785" lon="-2.44727">
        <ele>61.8</ele>
        <time>2025-02-11T14:52:34Z</time>
      </trkpt>
      <trkpt lat="47.78501" lon="-2.44728">
        <ele>61.7</ele>
        <time>2025-02-11T14:52:35Z</time>
      </trkpt>
      <trkpt lat="47.78501" lon="-2.4473">
        <ele>61.6</ele>
        <time>2025-02-11T14:52:36Z</time>
      </trkpt>
      <trkpt lat="47.78501" lon="-2.44732">
        <ele>61.5</ele>
        <time>2025-02-11T14:52:37Z</time>
      </trkpt>
      <trkpt lat="47.78502" lon="-2.44733">
        <ele>61.4</ele>
        <time>2025-02-11T14:52:38Z</time>
      </trkpt>
      <trkpt lat="47.78502" lon="-2.44734">
        <ele>61.3</ele>
        <time>2025-02-11T14:52:39Z</time>
      </trkpt>
      <trkpt lat="47.78503" lon="-2.44735">
        <ele>61.2</ele>
        <time>2025-02-11T14:52:40Z</time>
      </trkpt>
      <trkpt lat="47.78504" lon="-2.44736">
        <ele>61.1</ele>
        <time>2025-02-11T14:52:41Z</time>
      </trkpt>
      <trkpt lat="47.78505" lon="-2.44737">
        <ele>61</ele>
        <time>2025-02-11T14:52:42Z</time>
      </trkpt>
      <trkpt lat="47.78506" lon="-2.44738">
        <ele>60.8</ele>
        <time>2025-02-11T14:52:43Z</time>
      </trkpt>
      <trkpt lat="47.78507" lon="-2.44738">
        <ele>60.7</ele>
        <time>2025-02-11T14:52:44Z</time>
      </trkpt>
      <trkpt lat="47.78508" lon="-2.44738">
        <ele>60.6</ele>
        <time>2025-02-11T14:52:45Z</time>
      </trkpt>
      <trkpt lat="47.78509" lon="-2.44739">
        <ele>60.5</ele>
        <time>2025-02-11T14:52:46Z</time>
      </trkpt>
      <trkpt lat="47.7851" lon="-2.44738">
        <ele>60.4</ele>
        <time>2025-02-11T14:52:47Z</time>
      </trkpt>
      <trkpt lat="47.78511" lon="-2.44737">
        <ele>60.3</ele>
        <time>2025-02-11T14:52:48Z</time>
      </trkpt>
      <trkpt lat="47.78511" lon="-2.44736">
        <ele>60.3</ele>
        <time>2025-02-11T14:52:49Z</time>
      </trkpt>
      <trkpt lat="47.78511" lon="-2.44735">
        <ele>60.3</ele>
        <time>2025-02-11T14:52:50Z</time>
      </trkpt>
      <trkpt lat="47.78511" lon="-2.44734">
        <ele>60.4</ele>
        <time>2025-02-11T14:52:51Z</time>
      </trkpt>
      <trkpt lat="47.78511" lon="-2.44732">
        <ele>60.5</ele>
        <time>2025-02-11T14:52:52Z</time>
      </trkpt>
      <trkpt lat="47.78511" lon="-2.4473">
        <ele>60.6</ele>
        <time>2025-02-11T14:52:53Z</time>
      </trkpt>
      <trkpt lat="47.7851" lon="-2.44729">
        <ele>60.7</ele>
        <time>2025-02-11T14:52:54Z</time>
      </trkpt>
      <trkpt lat="47.7851" lon="-2.44727">
        <ele>60.7</ele>
        <time>2025-02-11T14:52:55Z</time>
      </trkpt>
      <trkpt lat="47.7851" lon="-2.44726">
        <ele>60.8</ele>
        <time>2025-02-11T14:52:56Z</time>
      </trkpt>
      <trkpt lat="47.78509" lon="-2.44726">
        <ele>60.9</ele>
        <time>2025-02-11T14:52:57Z</time>
      </trkpt>
      <trkpt lat="47.78509" lon="-2.44725">
        <ele>60.9</ele>
        <time>2025-02-11T14:52:58Z</time>
      </trkpt>
      <trkpt lat="47.78509" lon="-2.44724">
        <ele>61</ele>
        <time>2025-02-11T14:52:59Z</time>
      </trkpt>
      <trkpt lat="47.78509" lon="-2.44723">
        <ele>61</ele>
        <time>2025-02-11T14:53:00Z</time>
      </trkpt>
      <trkpt lat="47.78509" lon="-2.44721">
        <ele>61</ele>
        <time>2025-02-11T14:53:01Z</time>
      </trkpt>
      <trkpt lat="47.7851" lon="-2.44719">
        <ele>60.9</ele>
        <time>2025-02-11T14:53:02Z</time>
      </trkpt>
      <trkpt lat="47.78511" lon="-2.44718">
        <ele>60.8</ele>
        <time>2025-02-11T14:53:03Z</time>
      </trkpt>
      <trkpt lat="47.78512" lon="-2.44718">
        <ele>60.7</ele>
        <time>2025-02-11T14:53:04Z</time>
      </trkpt>
      <trkpt lat="47.78513" lon="-2.44717">
        <ele>60.6</ele>
        <time>2025-02-11T14:53:05Z</time>
      </trkpt>
      <trkpt lat="47.78514" lon="-2.44716">
        <ele>60.5</ele>
        <time>2025-02-11T14:53:06Z</time>
      </trkpt>
      <trkpt lat="47.78515" lon="-2.44715">
        <ele>60.4</ele>
        <time>2025-02-11T14:53:07Z</time>
      </trkpt>
      <trkpt lat="47.78515" lon="-2.44716">
        <ele>60.3</ele>
        <time>2025-02-11T14:53:08Z</time>
      </trkpt>
      <trkpt lat="47.78516" lon="-2.44716">
        <ele>60.3</ele>
        <time>2025-02-11T14:53:09Z</time>
      </trkpt>
      <trkpt lat="47.78516" lon="-2.44716">
        <ele>60.3</ele>
        <time>2025-02-11T14:53:10Z</time>
      </trkpt>
      <trkpt lat="47.78516" lon="-2.44716">
        <ele>60.3</ele>
        <time>2025-02-11T14:53:11Z</time>
      </trkpt>
      <trkpt lat="47.78516" lon="-2.44716">
        <ele>60.3</ele>
        <time>2025-02-11T14:53:12Z</time>
      </trkpt>
      <trkpt lat="47.78516" lon="-2.44716">
        <ele>60.3</ele>
        <time>2025-02-11T14:53:13Z</time>
      </trkpt>
      <trkpt lat="47.78516" lon="-2.44715">
        <ele>60.3</ele>
        <time>2025-02-11T14:53:14Z</time>
      </trkpt>
      <trkpt lat="47.78516" lon="-2.44714">
        <ele>60.3</ele>
        <time>2025-02-11T14:53:15Z</time>
      </trkpt>
      <trkpt lat="47.78517" lon="-2.44713">
        <ele>60.2</ele>
        <time>2025-02-11T14:53:16Z</time>
      </trkpt>
      <trkpt lat="47.78517" lon="-2.44712">
        <ele>60.1</ele>
        <time>2025-02-11T14:53:17Z</time>
      </trkpt>
      <trkpt lat="47.78518" lon="-2.4471">
        <ele>60.1</ele>
        <time>2025-02-11T14:53:18Z</time>
      </trkpt>
      <trkpt lat="47.78518" lon="-2.44709">
        <ele>60.1</ele>
        <time>2025-02-11T14:53:19Z</time>
      </trkpt>
      <trkpt lat="47.78518" lon="-2.44707">
        <ele>60</ele>
        <time>2025-02-11T14:53:20Z</time>
      </trkpt>
      <trkpt lat="47.78518" lon="-2.44706">
        <ele>60.1</ele>
        <time>2025-02-11T14:53:21Z</time>
      </trkpt>
      <trkpt lat="47.78517" lon="-2.44706">
        <ele>60.2</ele>
        <time>2025-02-11T14:53:22Z</time>
      </trkpt>
      <trkpt lat="47.78516" lon="-2.44705">
        <ele>60.3</ele>
        <time>2025-02-11T14:53:23Z</time>
      </trkpt>
      <trkpt lat="47.78515" lon="-2.44704">
        <ele>60.4</ele>
        <time>2025-02-11T14:53:24Z</time>
      </trkpt>
      <trkpt lat="47.78514" lon="-2.44703">
        <ele>60.5</ele>
        <time>2025-02-11T14:53:25Z</time>
      </trkpt>
      <trkpt lat="47.78513" lon="-2.44703">
        <ele>60.6</ele>
        <time>2025-02-11T14:53:26Z</time>
      </trkpt>
      <trkpt lat="47.78513" lon="-2.44704">
        <ele>60.6</ele>
        <time>2025-02-11T14:53:27Z</time>
      </trkpt>
      <trkpt lat="47.78513" lon="-2.44704">
        <ele>60.6</ele>
        <time>2025-02-11T14:53:28Z</time>
      </trkpt>
      <trkpt lat="47.78513" lon="-2.44704">
        <ele>60.6</ele>
        <time>2025-02-11T14:53:29Z</time>
      </trkpt>
      <trkpt lat="47.78513" lon="-2.44704">
        <ele>60.6</ele>
        <time>2025-02-11T14:53:30Z</time>
      </trkpt>
      <trkpt lat="47.78513" lon="-2.44704">
        <ele>60.6</ele>
        <time>2025-02-11T14:53:31Z</time>
      </trkpt>
      <trkpt lat="47.78512" lon="-2.44704">
        <ele>60.7</ele>
        <time>2025-02-11T14:53:32Z</time>
      </trkpt>
      <trkpt lat="47.78512" lon="-2.44703">
        <ele>60.7</ele>
        <time>2025-02-11T14:53:33Z</time>
      </trkpt>
      <trkpt lat="47.78512" lon="-2.44704">
        <ele>60.7</ele>
        <time>2025-02-11T14:53:34Z</time>
      </trkpt>
      <trkpt lat="47.78512" lon="-2.44704">
        <ele>60.7</ele>
        <time>2025-02-11T14:53:35Z</time>
      </trkpt>
      <trkpt lat="47.78511" lon="-2.44703">
        <ele>60.9</ele>
        <time>2025-02-11T14:53:36Z</time>
      </trkpt>
      <trkpt lat="47.7851" lon="-2.44701">
        <ele>61</ele>
        <time>2025-02-11T14:53:37Z</time>
      </trkpt>
      <trkpt lat="47.78509" lon="-2.447">
        <ele>61</ele>
        <time>2025-02-11T14:53:38Z</time>
      </trkpt>
      <trkpt lat="47.78508" lon="-2.44698">
        <ele>61.1</ele>
        <time>2025-02-11T14:53:39Z</time>
      </trkpt>
      <trkpt lat="47.78508" lon="-2.44697">
        <ele>61.1</ele>
        <time>2025-02-11T14:53:40Z</time>
      </trkpt>
      <trkpt lat="47.78508" lon="-2.44695">
        <ele>61.1</ele>
        <time>2025-02-11T14:53:41Z</time>
      </trkpt>
      <trkpt lat="47.78509" lon="-2.44693">
        <ele>61</ele>
        <time>2025-02-11T14:53:42Z</time>
      </trkpt>
      <trkpt lat="47.7851" lon="-2.44692">
        <ele>60.9</ele>
        <time>2025-02-11T14:53:43Z</time>
      </trkpt>
      <trkpt lat="47.78511" lon="-2.4469">
        <ele>60.8</ele>
        <time>2025-02-11T14:53:44Z</time>
      </trkpt>
      <trkpt lat="47.78512" lon="-2.4469">
        <ele>60.6</ele>
        <time>2025-02-11T14:53:45Z</time>
      </trkpt>
      <trkpt lat="47.78513" lon="-2.44689">
        <ele>60.5</ele>
        <time>2025-02-11T14:53:46Z</time>
      </trkpt>
      <trkpt lat="47.78514" lon="-2.44689">
        <ele>60.4</ele>
        <time>2025-02-11T14:53:47Z</time>
      </trkpt>
      <trkpt lat="47.78515" lon="-2.44689">
        <ele>60.3</ele>
        <time>2025-02-11T14:53:48Z</time>
      </trkpt>
      <trkpt lat="47.78515" lon="-2.44688">
        <ele>60.2</ele>
        <time>2025-02-11T14:53:49Z</time>
      </trkpt>
      <trkpt lat="47.78516" lon="-2.44687">
        <ele>60.1</ele>
        <time>2025-02-11T14:53:50Z</time>
      </trkpt>
      <trkpt lat="47.78517" lon="-2.44685">
        <ele>60</ele>
        <time>2025-02-11T14:53:51Z</time>
      </trkpt>
      <trkpt lat="47.78517" lon="-2.44683">
        <ele>59.9</ele>
        <time>2025-02-11T14:53:52Z</time>
      </trkpt>
      <trkpt lat="47.78517" lon="-2.44682">
        <ele>59.9</ele>
        <time>2025-02-11T14:53:53Z</time>
      </trkpt>
      <trkpt lat="47.78517" lon="-2.4468">
        <ele>59.9</ele>
        <time>2025-02-11T14:53:54Z</time>
      </trkpt>
      <trkpt lat="47.78517" lon="-2.44679">
        <ele>59.8</ele>
        <time>2025-02-11T14:53:55Z</time>
      </trkpt>
      <trkpt lat="47.78518" lon="-2.44677">
        <ele>59.7</ele>
        <time>2025-02-11T14:53:56Z</time>
      </trkpt>
      <trkpt lat="47.78518" lon="-2.44676">
        <ele>59.6</ele>
        <time>2025-02-11T14:53:57Z</time>
      </trkpt>
      <trkpt lat="47.78518" lon="-2.44675">
        <ele>59.5</ele>
        <time>2025-02-11T14:53:58Z</time>
      </trkpt>
      <trkpt lat="47.78519" lon="-2.44674">
        <ele>59.4</ele>
        <time>2025-02-11T14:53:59Z</time>
      </trkpt>
      <trkpt lat="47.7852" lon="-2.44673">
        <ele>59.3</ele>
        <time>2025-02-11T14:54:00Z</time>
      </trkpt>
      <trkpt lat="47.7852" lon="-2.44671">
        <ele>59.3</ele>
        <time>2025-02-11T14:54:01Z</time>
      </trkpt>
      <trkpt lat="47.7852" lon="-2.4467">
        <ele>59.2</ele>
        <time>2025-02-11T14:54:02Z</time>
      </trkpt>
      <trkpt lat="47.7852" lon="-2.44668">
        <ele>59.2</ele>
        <time>2025-02-11T14:54:03Z</time>
      </trkpt>
      <trkpt lat="47.7852" lon="-2.44667">
        <ele>59.1</ele>
        <time>2025-02-11T14:54:04Z</time>
      </trkpt>
      <trkpt lat="47.78521" lon="-2.44665">
        <ele>59</ele>
        <time>2025-02-11T14:54:05Z</time>
      </trkpt>
      <trkpt lat="47.78521" lon="-2.44664">
        <ele>58.8</ele>
        <time>2025-02-11T14:54:06Z</time>
      </trkpt>
      <trkpt lat="47.78522" lon="-2.44663">
        <ele>58.7</ele>
        <time>2025-02-11T14:54:07Z</time>
      </trkpt>
      <trkpt lat="47.78522" lon="-2.44662">
        <ele>58.6</ele>
        <time>2025-02-11T14:54:08Z</time>
      </trkpt>
      <trkpt lat="47.78523" lon="-2.44661">
        <ele>58.4</ele>
        <time>2025-02-11T14:54:09Z</time>
      </trkpt>
      <trkpt lat="47.78524" lon="-2.4466">
        <ele>58.2</ele>
        <time>2025-02-11T14:54:10Z</time>
      </trkpt>
      <trkpt lat="47.78525" lon="-2.44659">
        <ele>58.1</ele>
        <time>2025-02-11T14:54:11Z</time>
      </trkpt>
      <trkpt lat="47.78526" lon="-2.44658">
        <ele>57.9</ele>
        <time>2025-02-11T14:54:12Z</time>
      </trkpt>
      <trkpt lat="47.78527" lon="-2.44657">
        <ele>57.7</ele>
        <time>2025-02-11T14:54:13Z</time>
      </trkpt>
      <trkpt lat="47.78528" lon="-2.44656">
        <ele>57.6</ele>
        <time>2025-02-11T14:54:14Z</time>
      </trkpt>
      <trkpt lat="47.78529" lon="-2.44655">
        <ele>57.5</ele>
        <time>2025-02-11T14:54:15Z</time>
      </trkpt>
      <trkpt lat="47.7853" lon="-2.44656">
        <ele>57.4</ele>
        <time>2025-02-11T14:54:16Z</time>
      </trkpt>
      <trkpt lat="47.78531" lon="-2.44656">
        <ele>57.3</ele>
        <time>2025-02-11T14:54:17Z</time>
      </trkpt>
      <trkpt lat="47.78532" lon="-2.44655">
        <ele>57.2</ele>
        <time>2025-02-11T14:54:18Z</time>
      </trkpt>
      <trkpt lat="47.78532" lon="-2.44655">
        <ele>57.1</ele>
        <time>2025-02-11T14:54:19Z</time>
      </trkpt>
      <trkpt lat="47.78533" lon="-2.44653">
        <ele>57</ele>
        <time>2025-02-11T14:54:20Z</time>
      </trkpt>
      <trkpt lat="47.78533" lon="-2.44652">
        <ele>57</ele>
        <time>2025-02-11T14:54:21Z</time>
      </trkpt>
      <trkpt lat="47.78533" lon="-2.4465">
        <ele>56.9</ele>
        <time>2025-02-11T14:54:22Z</time>
      </trkpt>
      <trkpt lat="47.78533" lon="-2.44649">
        <ele>56.8</ele>
        <time>2025-02-11T14:54:23Z</time>
      </trkpt>
      <trkpt lat="47.78533" lon="-2.44648">
        <ele>56.8</ele>
        <time>2025-02-11T14:54:24Z</time>
      </trkpt>
      <trkpt lat="47.78533" lon="-2.44646">
        <ele>56.7</ele>
        <time>2025-02-11T14:54:25Z</time>
      </trkpt>
      <trkpt lat="47.78532" lon="-2.44644">
        <ele>56.7</ele>
        <time>2025-02-11T14:54:26Z</time>
      </trkpt>
      <trkpt lat="47.78532" lon="-2.44642">
        <ele>56.7</ele>
        <time>2025-02-11T14:54:27Z</time>
      </trkpt>
      <trkpt lat="47.78532" lon="-2.44641">
        <ele>56.6</ele>
        <time>2025-02-11T14:54:28Z</time>
      </trkpt>
      <trkpt lat="47.78532" lon="-2.44639">
        <ele>56.6</ele>
        <time>2025-02-11T14:54:29Z</time>
      </trkpt>
      <trkpt lat="47.78532" lon="-2.44638">
        <ele>56.6</ele>
        <time>2025-02-11T14:54:30Z</time>
      </trkpt>
      <trkpt lat="47.78532" lon="-2.44637">
        <ele>56.5</ele>
        <time>2025-02-11T14:54:31Z</time>
      </trkpt>
      <trkpt lat="47.78532" lon="-2.44635">
        <ele>56.4</ele>
        <time>2025-02-11T14:54:32Z</time>
      </trkpt>
      <trkpt lat="47.78532" lon="-2.44634">
        <ele>56.3</ele>
        <time>2025-02-11T14:54:33Z</time>
      </trkpt>
      <trkpt lat="47.78533" lon="-2.44632">
        <ele>56.2</ele>
        <time>2025-02-11T14:54:34Z</time>
      </trkpt>
      <trkpt lat="47.78533" lon="-2.4463">
        <ele>56.1</ele>
        <time>2025-02-11T14:54:35Z</time>
      </trkpt>
      <trkpt lat="47.78534" lon="-2.44629">
        <ele>56</ele>
        <time>2025-02-11T14:54:36Z</time>
      </trkpt>
      <trkpt lat="47.78534" lon="-2.44628">
        <ele>55.9</ele>
        <time>2025-02-11T14:54:37Z</time>
      </trkpt>
      <trkpt lat="47.78535" lon="-2.44627">
        <ele>55.7</ele>
        <time>2025-02-11T14:54:38Z</time>
      </trkpt>
      <trkpt lat="47.78536" lon="-2.44627">
        <ele>55.6</ele>
        <time>2025-02-11T14:54:39Z</time>
      </trkpt>
      <trkpt lat="47.78537" lon="-2.44627">
        <ele>55.5</ele>
        <time>2025-02-11T14:54:40Z</time>
      </trkpt>
      <trkpt lat="47.78538" lon="-2.44626">
        <ele>55.4</ele>
        <time>2025-02-11T14:54:41Z</time>
      </trkpt>
      <trkpt lat="47.7854" lon="-2.44627">
        <ele>55.3</ele>
        <time>2025-02-11T14:54:42Z</time>
      </trkpt>
      <trkpt lat="47.78541" lon="-2.44628">
        <ele>55.2</ele>
        <time>2025-02-11T14:54:43Z</time>
      </trkpt>
      <trkpt lat="47.78542" lon="-2.44628">
        <ele>55.1</ele>
        <time>2025-02-11T14:54:44Z</time>
      </trkpt>
      <trkpt lat="47.78543" lon="-2.44629">
        <ele>55</ele>
        <time>2025-02-11T14:54:45Z</time>
      </trkpt>
      <trkpt lat="47.78544" lon="-2.44629">
        <ele>54.9</ele>
        <time>2025-02-11T14:54:46Z</time>
      </trkpt>
      <trkpt lat="47.78545" lon="-2.44628">
        <ele>54.8</ele>
        <time>2025-02-11T14:54:47Z</time>
      </trkpt>
      <trkpt lat="47.78546" lon="-2.44628">
        <ele>54.7</ele>
        <time>2025-02-11T14:54:48Z</time>
      </trkpt>
      <trkpt lat="47.78546" lon="-2.44627">
        <ele>54.6</ele>
        <time>2025-02-11T14:54:49Z</time>
      </trkpt>
      <trkpt lat="47.78547" lon="-2.44627">
        <ele>54.5</ele>
        <time>2025-02-11T14:54:50Z</time>
      </trkpt>
      <trkpt lat="47.78548" lon="-2.44627">
        <ele>54.3</ele>
        <time>2025-02-11T14:54:51Z</time>
      </trkpt>
      <trkpt lat="47.78549" lon="-2.44626">
        <ele>54.2</ele>
        <time>2025-02-11T14:54:52Z</time>
      </trkpt>
      <trkpt lat="47.7855" lon="-2.44626">
        <ele>54.1</ele>
        <time>2025-02-11T14:54:53Z</time>
      </trkpt>
      <trkpt lat="47.78551" lon="-2.44625">
        <ele>54</ele>
        <time>2025-02-11T14:54:54Z</time>
      </trkpt>
      <trkpt lat="47.78552" lon="-2.44625">
        <ele>53.9</ele>
        <time>2025-02-11T14:54:55Z</time>
      </trkpt>
      <trkpt lat="47.78552" lon="-2.44624">
        <ele>53.8</ele>
        <time>2025-02-11T14:54:56Z</time>
      </trkpt>
      <trkpt lat="47.78553" lon="-2.44623">
        <ele>53.7</ele>
        <time>2025-02-11T14:54:57Z</time>
      </trkpt>
      <trkpt lat="47.78553" lon="-2.44621">
        <ele>53.7</ele>
        <time>2025-02-11T14:54:58Z</time>
      </trkpt>
      <trkpt lat="47.78553" lon="-2.4462">
        <ele>53.6</ele>
        <time>2025-02-11T14:54:59Z</time>
      </trkpt>
      <trkpt lat="47.78554" lon="-2.44619">
        <ele>53.5</ele>
        <time>2025-02-11T14:55:00Z</time>
      </trkpt>
      <trkpt lat="47.78554" lon="-2.44617">
        <ele>53.3</ele>
        <time>2025-02-11T14:55:01Z</time>
      </trkpt>
      <trkpt lat="47.78556" lon="-2.44616">
        <ele>53.2</ele>
        <time>2025-02-11T14:55:02Z</time>
      </trkpt>
      <trkpt lat="47.78556" lon="-2.44614">
        <ele>53.1</ele>
        <time>2025-02-11T14:55:03Z</time>
      </trkpt>
      <trkpt lat="47.78555" lon="-2.44612">
        <ele>53.1</ele>
        <time>2025-02-11T14:55:04Z</time>
      </trkpt>
      <trkpt lat="47.78554" lon="-2.4461">
        <ele>53.1</ele>
        <time>2025-02-11T14:55:05Z</time>
      </trkpt>
      <trkpt lat="47.78554" lon="-2.44608">
        <ele>53.1</ele>
        <time>2025-02-11T14:55:06Z</time>
      </trkpt>
      <trkpt lat="47.78553" lon="-2.44607">
        <ele>53.1</ele>
        <time>2025-02-11T14:55:07Z</time>
      </trkpt>
      <trkpt lat="47.78552" lon="-2.44606">
        <ele>53.1</ele>
        <time>2025-02-11T14:55:08Z</time>
      </trkpt>
      <trkpt lat="47.78554" lon="-2.44602">
        <ele>52.9</ele>
        <time>2025-02-11T14:55:09Z</time>
      </trkpt>
      <trkpt lat="47.78554" lon="-2.44601">
        <ele>52.8</ele>
        <time>2025-02-11T14:55:10Z</time>
      </trkpt>
      <trkpt lat="47.78555" lon="-2.44601">
        <ele>52.7</ele>
        <time>2025-02-11T14:55:11Z</time>
      </trkpt>
      <trkpt lat="47.78555" lon="-2.44599">
        <ele>52.7</ele>
        <time>2025-02-11T14:55:12Z</time>
      </trkpt>
      <trkpt lat="47.78555" lon="-2.44598">
        <ele>52.6</ele>
        <time>2025-02-11T14:55:13Z</time>
      </trkpt>
      <trkpt lat="47.78556" lon="-2.44597">
        <ele>52.5</ele>
        <time>2025-02-11T14:55:14Z</time>
      </trkpt>
      <trkpt lat="47.78557" lon="-2.44597">
        <ele>52.4</ele>
        <time>2025-02-11T14:55:15Z</time>
      </trkpt>
      <trkpt lat="47.78558" lon="-2.44596">
        <ele>52.3</ele>
        <time>2025-02-11T14:55:16Z</time>
      </trkpt>
      <trkpt lat="47.78559" lon="-2.44596">
        <ele>52.2</ele>
        <time>2025-02-11T14:55:17Z</time>
      </trkpt>
      <trkpt lat="47.7856" lon="-2.44595">
        <ele>52.1</ele>
        <time>2025-02-11T14:55:18Z</time>
      </trkpt>
      <trkpt lat="47.78561" lon="-2.44594">
        <ele>52</ele>
        <time>2025-02-11T14:55:19Z</time>
      </trkpt>
      <trkpt lat="47.78561" lon="-2.44593">
        <ele>51.9</ele>
        <time>2025-02-11T14:55:20Z</time>
      </trkpt>
      <trkpt lat="47.78562" lon="-2.44592">
        <ele>51.8</ele>
        <time>2025-02-11T14:55:21Z</time>
      </trkpt>
      <trkpt lat="47.78563" lon="-2.44592">
        <ele>51.8</ele>
        <time>2025-02-11T14:55:22Z</time>
      </trkpt>
      <trkpt lat="47.78564" lon="-2.44592">
        <ele>51.7</ele>
        <time>2025-02-11T14:55:23Z</time>
      </trkpt>
      <trkpt lat="47.78565" lon="-2.44592">
        <ele>51.6</ele>
        <time>2025-02-11T14:55:24Z</time>
      </trkpt>
      <trkpt lat="47.78566" lon="-2.44592">
        <ele>51.6</ele>
        <time>2025-02-11T14:55:25Z</time>
      </trkpt>
      <trkpt lat="47.78567" lon="-2.44593">
        <ele>51.5</ele>
        <time>2025-02-11T14:55:26Z</time>
      </trkpt>
      <trkpt lat="47.78568" lon="-2.44593">
        <ele>51.5</ele>
        <time>2025-02-11T14:55:27Z</time>
      </trkpt>
      <trkpt lat="47.78569" lon="-2.44594">
        <ele>51.4</ele>
        <time>2025-02-11T14:55:28Z</time>
      </trkpt>
      <trkpt lat="47.78569" lon="-2.44595">
        <ele>51.4</ele>
        <time>2025-02-11T14:55:29Z</time>
      </trkpt>
      <trkpt lat="47.7857" lon="-2.44596">
        <ele>51.4</ele>
        <time>2025-02-11T14:55:30Z</time>
      </trkpt>
      <trkpt lat="47.7857" lon="-2.44598">
        <ele>51.5</ele>
        <time>2025-02-11T14:55:31Z</time>
      </trkpt>
      <trkpt lat="47.7857" lon="-2.446">
        <ele>51.5</ele>
        <time>2025-02-11T14:55:32Z</time>
      </trkpt>
      <trkpt lat="47.78571" lon="-2.44601">
        <ele>51.5</ele>
        <time>2025-02-11T14:55:33Z</time>
      </trkpt>
      <trkpt lat="47.78571" lon="-2.44602">
        <ele>51.6</ele>
        <time>2025-02-11T14:55:34Z</time>
      </trkpt>
      <trkpt lat="47.78571" lon="-2.44604">
        <ele>51.7</ele>
        <time>2025-02-11T14:55:35Z</time>
      </trkpt>
      <trkpt lat="47.78571" lon="-2.44606">
        <ele>51.7</ele>
        <time>2025-02-11T14:55:36Z</time>
      </trkpt>
      <trkpt lat="47.78572" lon="-2.44606">
        <ele>51.7</ele>
        <time>2025-02-11T14:55:37Z</time>
      </trkpt>
      <trkpt lat="47.78573" lon="-2.44606">
        <ele>51.6</ele>
        <time>2025-02-11T14:55:38Z</time>
      </trkpt>
      <trkpt lat="47.78574" lon="-2.44605">
        <ele>51.4</ele>
        <time>2025-02-11T14:55:39Z</time>
      </trkpt>
      <trkpt lat="47.78575" lon="-2.44604">
        <ele>51.3</ele>
        <time>2025-02-11T14:55:40Z</time>
      </trkpt>
      <trkpt lat="47.78576" lon="-2.44603">
        <ele>51.2</ele>
        <time>2025-02-11T14:55:41Z</time>
      </trkpt>
      <trkpt lat="47.78578" lon="-2.44604">
        <ele>51.1</ele>
        <time>2025-02-11T14:55:42Z</time>
      </trkpt>
      <trkpt lat="47.78579" lon="-2.44603">
        <ele>51</ele>
        <time>2025-02-11T14:55:43Z</time>
      </trkpt>
      <trkpt lat="47.7858" lon="-2.44602">
        <ele>50.9</ele>
        <time>2025-02-11T14:55:44Z</time>
      </trkpt>
      <trkpt lat="47.78581" lon="-2.44601">
        <ele>50.8</ele>
        <time>2025-02-11T14:55:45Z</time>
      </trkpt>
      <trkpt lat="47.78582" lon="-2.44601">
        <ele>50.8</ele>
        <time>2025-02-11T14:55:46Z</time>
      </trkpt>
      <trkpt lat="47.78583" lon="-2.44601">
        <ele>50.7</ele>
        <time>2025-02-11T14:55:47Z</time>
      </trkpt>
      <trkpt lat="47.78583" lon="-2.446">
        <ele>50.6</ele>
        <time>2025-02-11T14:55:48Z</time>
      </trkpt>
      <trkpt lat="47.78584" lon="-2.44599">
        <ele>50.5</ele>
        <time>2025-02-11T14:55:49Z</time>
      </trkpt>
      <trkpt lat="47.78585" lon="-2.44598">
        <ele>50.4</ele>
        <time>2025-02-11T14:55:50Z</time>
      </trkpt>
      <trkpt lat="47.78586" lon="-2.44597">
        <ele>50.3</ele>
        <time>2025-02-11T14:55:51Z</time>
      </trkpt>
      <trkpt lat="47.78587" lon="-2.44596">
        <ele>50.2</ele>
        <time>2025-02-11T14:55:52Z</time>
      </trkpt>
      <trkpt lat="47.78587" lon="-2.44595">
        <ele>50.1</ele>
        <time>2025-02-11T14:55:53Z</time>
      </trkpt>
      <trkpt lat="47.78588" lon="-2.44593">
        <ele>50</ele>
        <time>2025-02-11T14:55:54Z</time>
      </trkpt>
      <trkpt lat="47.78588" lon="-2.44592">
        <ele>49.9</ele>
        <time>2025-02-11T14:55:55Z</time>
      </trkpt>
      <trkpt lat="47.78589" lon="-2.4459">
        <ele>49.8</ele>
        <time>2025-02-11T14:55:56Z</time>
      </trkpt>
      <trkpt lat="47.7859" lon="-2.44589">
        <ele>49.7</ele>
        <time>2025-02-11T14:55:57Z</time>
      </trkpt>
      <trkpt lat="47.7859" lon="-2.44588">
        <ele>49.7</ele>
        <time>2025-02-11T14:55:58Z</time>
      </trkpt>
      <trkpt lat="47.78589" lon="-2.44586">
        <ele>49.6</ele>
        <time>2025-02-11T14:55:59Z</time>
      </trkpt>
      <trkpt lat="47.78589" lon="-2.44584">
        <ele>49.6</ele>
        <time>2025-02-11T14:56:00Z</time>
      </trkpt>
      <trkpt lat="47.78589" lon="-2.44583">
        <ele>49.6</ele>
        <time>2025-02-11T14:56:01Z</time>
      </trkpt>
      <trkpt lat="47.78588" lon="-2.44582">
        <ele>49.6</ele>
        <time>2025-02-11T14:56:02Z</time>
      </trkpt>
      <trkpt lat="47.78588" lon="-2.44581">
        <ele>49.6</ele>
        <time>2025-02-11T14:56:03Z</time>
      </trkpt>
      <trkpt lat="47.78587" lon="-2.44579">
        <ele>49.6</ele>
        <time>2025-02-11T14:56:04Z</time>
      </trkpt>
      <trkpt lat="47.78586" lon="-2.44579">
        <ele>49.6</ele>
        <time>2025-02-11T14:56:05Z</time>
      </trkpt>
      <trkpt lat="47.78585" lon="-2.44578">
        <ele>49.6</ele>
        <time>2025-02-11T14:56:06Z</time>
      </trkpt>
      <trkpt lat="47.78585" lon="-2.44577">
        <ele>49.7</ele>
        <time>2025-02-11T14:56:07Z</time>
      </trkpt>
      <trkpt lat="47.78584" lon="-2.44575">
        <ele>49.7</ele>
        <time>2025-02-11T14:56:08Z</time>
      </trkpt>
      <trkpt lat="47.78583" lon="-2.44574">
        <ele>49.7</ele>
        <time>2025-02-11T14:56:09Z</time>
      </trkpt>
      <trkpt lat="47.78583" lon="-2.44572">
        <ele>49.7</ele>
        <time>2025-02-11T14:56:10Z</time>
      </trkpt>
      <trkpt lat="47.78582" lon="-2.44571">
        <ele>49.7</ele>
        <time>2025-02-11T14:56:11Z</time>
      </trkpt>
      <trkpt lat="47.78581" lon="-2.4457">
        <ele>49.7</ele>
        <time>2025-02-11T14:56:12Z</time>
      </trkpt>
      <trkpt lat="47.7858" lon="-2.44569">
        <ele>49.7</ele>
        <time>2025-02-11T14:56:13Z</time>
      </trkpt>
      <trkpt lat="47.7858" lon="-2.44567">
        <ele>49.7</ele>
        <time>2025-02-11T14:56:14Z</time>
      </trkpt>
      <trkpt lat="47.7858" lon="-2.44566">
        <ele>49.7</ele>
        <time>2025-02-11T14:56:15Z</time>
      </trkpt>
      <trkpt lat="47.7858" lon="-2.44565">
        <ele>49.7</ele>
        <time>2025-02-11T14:56:16Z</time>
      </trkpt>
      <trkpt lat="47.78579" lon="-2.44564">
        <ele>49.7</ele>
        <time>2025-02-11T14:56:17Z</time>
      </trkpt>
      <trkpt lat="47.78579" lon="-2.44563">
        <ele>49.7</ele>
        <time>2025-02-11T14:56:18Z</time>
      </trkpt>
      <trkpt lat="47.78578" lon="-2.44562">
        <ele>49.8</ele>
        <time>2025-02-11T14:56:19Z</time>
      </trkpt>
      <trkpt lat="47.78577" lon="-2.44561">
        <ele>49.9</ele>
        <time>2025-02-11T14:56:20Z</time>
      </trkpt>
      <trkpt lat="47.78576" lon="-2.44561">
        <ele>50</ele>
        <time>2025-02-11T14:56:21Z</time>
      </trkpt>
      <trkpt lat="47.78575" lon="-2.44561">
        <ele>50.1</ele>
        <time>2025-02-11T14:56:22Z</time>
      </trkpt>
      <trkpt lat="47.78574" lon="-2.44561">
        <ele>50.2</ele>
        <time>2025-02-11T14:56:23Z</time>
      </trkpt>
      <trkpt lat="47.78573" lon="-2.44561">
        <ele>50.3</ele>
        <time>2025-02-11T14:56:24Z</time>
      </trkpt>
      <trkpt lat="47.78572" lon="-2.44562">
        <ele>50.4</ele>
        <time>2025-02-11T14:56:25Z</time>
      </trkpt>
      <trkpt lat="47.78571" lon="-2.44561">
        <ele>50.5</ele>
        <time>2025-02-11T14:56:26Z</time>
      </trkpt>
      <trkpt lat="47.7857" lon="-2.4456">
        <ele>50.5</ele>
        <time>2025-02-11T14:56:27Z</time>
      </trkpt>
      <trkpt lat="47.78569" lon="-2.4456">
        <ele>50.6</ele>
        <time>2025-02-11T14:56:28Z</time>
      </trkpt>
      <trkpt lat="47.78568" lon="-2.4456">
        <ele>50.7</ele>
        <time>2025-02-11T14:56:29Z</time>
      </trkpt>
      <trkpt lat="47.78567" lon="-2.4456">
        <ele>50.8</ele>
        <time>2025-02-11T14:56:30Z</time>
      </trkpt>
      <trkpt lat="47.78566" lon="-2.4456">
        <ele>50.9</ele>
        <time>2025-02-11T14:56:31Z</time>
      </trkpt>
      <trkpt lat="47.78565" lon="-2.44561">
        <ele>51</ele>
        <time>2025-02-11T14:56:32Z</time>
      </trkpt>
      <trkpt lat="47.78564" lon="-2.4456">
        <ele>51.2</ele>
        <time>2025-02-11T14:56:33Z</time>
      </trkpt>
      <trkpt lat="47.78563" lon="-2.44559">
        <ele>51.2</ele>
        <time>2025-02-11T14:56:34Z</time>
      </trkpt>
      <trkpt lat="47.78562" lon="-2.44558">
        <ele>51.3</ele>
        <time>2025-02-11T14:56:35Z</time>
      </trkpt>
      <trkpt lat="47.78561" lon="-2.44557">
        <ele>51.4</ele>
        <time>2025-02-11T14:56:36Z</time>
      </trkpt>
      <trkpt lat="47.78561" lon="-2.44556">
        <ele>51.5</ele>
        <time>2025-02-11T14:56:37Z</time>
      </trkpt>
      <trkpt lat="47.7856" lon="-2.44556">
        <ele>51.5</ele>
        <time>2025-02-11T14:56:38Z</time>
      </trkpt>
      <trkpt lat="47.78559" lon="-2.44555">
        <ele>51.5</ele>
        <time>2025-02-11T14:56:39Z</time>
      </trkpt>
      <trkpt lat="47.78559" lon="-2.44554">
        <ele>51.5</ele>
        <time>2025-02-11T14:56:40Z</time>
      </trkpt>
      <trkpt lat="47.78559" lon="-2.44553">
        <ele>51.5</ele>
        <time>2025-02-11T14:56:41Z</time>
      </trkpt>
      <trkpt lat="47.78558" lon="-2.44551">
        <ele>51.4</ele>
        <time>2025-02-11T14:56:42Z</time>
      </trkpt>
      <trkpt lat="47.78558" lon="-2.4455">
        <ele>51.3</ele>
        <time>2025-02-11T14:56:43Z</time>
      </trkpt>
      <trkpt lat="47.78558" lon="-2.44548">
        <ele>51.3</ele>
        <time>2025-02-11T14:56:44Z</time>
      </trkpt>
      <trkpt lat="47.78557" lon="-2.44547">
        <ele>51.3</ele>
        <time>2025-02-11T14:56:45Z</time>
      </trkpt>
      <trkpt lat="47.78557" lon="-2.44546">
        <ele>51.2</ele>
        <time>2025-02-11T14:56:46Z</time>
      </trkpt>
      <trkpt lat="47.78556" lon="-2.44545">
        <ele>51.2</ele>
        <time>2025-02-11T14:56:47Z</time>
      </trkpt>
      <trkpt lat="47.78556" lon="-2.44543">
        <ele>51.1</ele>
        <time>2025-02-11T14:56:48Z</time>
      </trkpt>
      <trkpt lat="47.78555" lon="-2.44541">
        <ele>51</ele>
        <time>2025-02-11T14:56:49Z</time>
      </trkpt>
      <trkpt lat="47.78555" lon="-2.4454">
        <ele>50.9</ele>
        <time>2025-02-11T14:56:50Z</time>
      </trkpt>
      <trkpt lat="47.78555" lon="-2.44539">
        <ele>50.9</ele>
        <time>2025-02-11T14:56:51Z</time>
      </trkpt>
      <trkpt lat="47.78554" lon="-2.44537">
        <ele>50.8</ele>
        <time>2025-02-11T14:56:52Z</time>
      </trkpt>
      <trkpt lat="47.78554" lon="-2.44536">
        <ele>50.8</ele>
        <time>2025-02-11T14:56:53Z</time>
      </trkpt>
      <trkpt lat="47.78553" lon="-2.44535">
        <ele>50.8</ele>
        <time>2025-02-11T14:56:54Z</time>
      </trkpt>
      <trkpt lat="47.78553" lon="-2.44534">
        <ele>50.7</ele>
        <time>2025-02-11T14:56:55Z</time>
      </trkpt>
      <trkpt lat="47.78552" lon="-2.44532">
        <ele>50.7</ele>
        <time>2025-02-11T14:56:56Z</time>
      </trkpt>
      <trkpt lat="47.78552" lon="-2.44531">
        <ele>50.6</ele>
        <time>2025-02-11T14:56:57Z</time>
      </trkpt>
      <trkpt lat="47.78552" lon="-2.44529">
        <ele>50.5</ele>
        <time>2025-02-11T14:56:58Z</time>
      </trkpt>
      <trkpt lat="47.78551" lon="-2.44528">
        <ele>50.5</ele>
        <time>2025-02-11T14:56:59Z</time>
      </trkpt>
      <trkpt lat="47.78551" lon="-2.44527">
        <ele>50.5</ele>
        <time>2025-02-11T14:57:00Z</time>
      </trkpt>
      <trkpt lat="47.7855" lon="-2.44526">
        <ele>50.6</ele>
        <time>2025-02-11T14:57:01Z</time>
      </trkpt>
      <trkpt lat="47.78549" lon="-2.44526">
        <ele>50.7</ele>
        <time>2025-02-11T14:57:02Z</time>
      </trkpt>
      <trkpt lat="47.78548" lon="-2.44527">
        <ele>50.8</ele>
        <time>2025-02-11T14:57:03Z</time>
      </trkpt>
      <trkpt lat="47.78547" lon="-2.44527">
        <ele>50.9</ele>
        <time>2025-02-11T14:57:04Z</time>
      </trkpt>
      <trkpt lat="47.78546" lon="-2.44526">
        <ele>51.1</ele>
        <time>2025-02-11T14:57:05Z</time>
      </trkpt>
      <trkpt lat="47.78545" lon="-2.44525">
        <ele>51.1</ele>
        <time>2025-02-11T14:57:06Z</time>
      </trkpt>
      <trkpt lat="47.78544" lon="-2.44523">
        <ele>51.2</ele>
        <time>2025-02-11T14:57:07Z</time>
      </trkpt>
      <trkpt lat="47.78543" lon="-2.44522">
        <ele>51.3</ele>
        <time>2025-02-11T14:57:08Z</time>
      </trkpt>
      <trkpt lat="47.78542" lon="-2.44521">
        <ele>51.3</ele>
        <time>2025-02-11T14:57:09Z</time>
      </trkpt>
      <trkpt lat="47.78542" lon="-2.44519">
        <ele>51.3</ele>
        <time>2025-02-11T14:57:10Z</time>
      </trkpt>
      <trkpt lat="47.78543" lon="-2.4452">
        <ele>51.3</ele>
        <time>2025-02-11T14:57:11Z</time>
      </trkpt>
      <trkpt lat="47.78542" lon="-2.44519">
        <ele>51.3</ele>
        <time>2025-02-11T14:57:12Z</time>
      </trkpt>
      <trkpt lat="47.78541" lon="-2.44518">
        <ele>51.4</ele>
        <time>2025-02-11T14:57:13Z</time>
      </trkpt>
      <trkpt lat="47.78541" lon="-2.44518">
        <ele>51.3</ele>
        <time>2025-02-11T14:57:14Z</time>
      </trkpt>
      <trkpt lat="47.78541" lon="-2.44518">
        <ele>51.3</ele>
        <time>2025-02-11T14:57:15Z</time>
      </trkpt>
      <trkpt lat="47.78541" lon="-2.44518">
        <ele>51.3</ele>
        <time>2025-02-11T14:57:16Z</time>
      </trkpt>
      <trkpt lat="47.78541" lon="-2.44518">
        <ele>51.3</ele>
        <time>2025-02-11T14:57:17Z</time>
      </trkpt>
      <trkpt lat="47.78541" lon="-2.44518">
        <ele>51.4</ele>
        <time>2025-02-11T14:57:18Z</time>
      </trkpt>
      <trkpt lat="47.78541" lon="-2.44518">
        <ele>51.4</ele>
        <time>2025-02-11T14:57:19Z</time>
      </trkpt>
      <trkpt lat="47.78541" lon="-2.44518">
        <ele>51.4</ele>
        <time>2025-02-11T14:57:20Z</time>
      </trkpt>
      <trkpt lat="47.78541" lon="-2.44518">
        <ele>51.4</ele>
        <time>2025-02-11T14:57:21Z</time>
      </trkpt>
      <trkpt lat="47.78541" lon="-2.44518">
        <ele>51.4</ele>
        <time>2025-02-11T14:57:22Z</time>
      </trkpt>
      <trkpt lat="47.78541" lon="-2.44518">
        <ele>51.4</ele>
        <time>2025-02-11T14:57:23Z</time>
      </trkpt>
      <trkpt lat="47.78541" lon="-2.44518">
        <ele>51.4</ele>
        <time>2025-02-11T14:57:24Z</time>
      </trkpt>
      <trkpt lat="47.78541" lon="-2.44518">
        <ele>51.4</ele>
        <time>2025-02-11T14:57:25Z</time>
      </trkpt>
      <trkpt lat="47.78541" lon="-2.44518">
        <ele>51.4</ele>
        <time>2025-02-11T14:57:26Z</time>
      </trkpt>
      <trkpt lat="47.78541" lon="-2.44518">
        <ele>51.4</ele>
        <time>2025-02-11T14:57:27Z</time>
      </trkpt>
      <trkpt lat="47.78541" lon="-2.44518">
        <ele>51.4</ele>
        <time>2025-02-11T14:57:28Z</time>
      </trkpt>
      <trkpt lat="47.78541" lon="-2.44518">
        <ele>51.4</ele>
        <time>2025-02-11T14:57:29Z</time>
      </trkpt>
      <trkpt lat="47.78541" lon="-2.44518">
        <ele>51.4</ele>
        <time>2025-02-11T14:57:30Z</time>
      </trkpt>
      <trkpt lat="47.78541" lon="-2.44518">
        <ele>51.4</ele>
        <time>2025-02-11T14:57:31Z</time>
      </trkpt>
      <trkpt lat="47.78541" lon="-2.44518">
        <ele>51.4</ele>
        <time>2025-02-11T14:57:32Z</time>
      </trkpt>
      <trkpt lat="47.78541" lon="-2.44518">
        <ele>51.4</ele>
        <time>2025-02-11T14:57:33Z</time>
      </trkpt>
      <trkpt lat="47.78541" lon="-2.44518">
        <ele>51.4</ele>
        <time>2025-02-11T14:57:34Z</time>
      </trkpt>
      <trkpt lat="47.78541" lon="-2.44518">
        <ele>51.4</ele>
        <time>2025-02-11T14:57:35Z</time>
      </trkpt>
      <trkpt lat="47.78542" lon="-2.44518">
        <ele>51.3</ele>
        <time>2025-02-11T14:57:36Z</time>
      </trkpt>
      <trkpt lat="47.78542" lon="-2.44518">
        <ele>51.3</ele>
        <time>2025-02-11T14:57:37Z</time>
      </trkpt>
      <trkpt lat="47.78542" lon="-2.44519">
        <ele>51.3</ele>
        <time>2025-02-11T14:57:38Z</time>
      </trkpt>
      <trkpt lat="47.78542" lon="-2.4452">
        <ele>51.3</ele>
        <time>2025-02-11T14:57:39Z</time>
      </trkpt>
      <trkpt lat="47.78541" lon="-2.4452">
        <ele>51.4</ele>
        <time>2025-02-11T14:57:40Z</time>
      </trkpt>
      <trkpt lat="47.78541" lon="-2.4452">
        <ele>51.5</ele>
        <time>2025-02-11T14:57:41Z</time>
      </trkpt>
      <trkpt lat="47.7854" lon="-2.44519">
        <ele>51.5</ele>
        <time>2025-02-11T14:57:42Z</time>
      </trkpt>
      <trkpt lat="47.78539" lon="-2.44518">
        <ele>51.6</ele>
        <time>2025-02-11T14:57:43Z</time>
      </trkpt>
      <trkpt lat="47.78539" lon="-2.44518">
        <ele>51.6</ele>
        <time>2025-02-11T14:57:44Z</time>
      </trkpt>
      <trkpt lat="47.7854" lon="-2.44516">
        <ele>51.5</ele>
        <time>2025-02-11T14:57:45Z</time>
      </trkpt>
      <trkpt lat="47.7854" lon="-2.44515">
        <ele>51.4</ele>
        <time>2025-02-11T14:57:46Z</time>
      </trkpt>
      <trkpt lat="47.7854" lon="-2.44514">
        <ele>51.4</ele>
        <time>2025-02-11T14:57:47Z</time>
      </trkpt>
      <trkpt lat="47.7854" lon="-2.44514">
        <ele>51.4</ele>
        <time>2025-02-11T14:57:48Z</time>
      </trkpt>
      <trkpt lat="47.7854" lon="-2.44515">
        <ele>51.4</ele>
        <time>2025-02-11T14:57:49Z</time>
      </trkpt>
      <trkpt lat="47.78541" lon="-2.44516">
        <ele>51.4</ele>
        <time>2025-02-11T14:57:50Z</time>
      </trkpt>
      <trkpt lat="47.7854" lon="-2.44516">
        <ele>51.4</ele>
        <time>2025-02-11T14:57:51Z</time>
      </trkpt>
      <trkpt lat="47.7854" lon="-2.44515">
        <ele>51.4</ele>
        <time>2025-02-11T14:57:52Z</time>
      </trkpt>
      <trkpt lat="47.7854" lon="-2.44515">
        <ele>51.4</ele>
        <time>2025-02-11T14:57:53Z</time>
      </trkpt>
      <trkpt lat="47.7854" lon="-2.44514">
        <ele>51.4</ele>
        <time>2025-02-11T14:57:54Z</time>
      </trkpt>
      <trkpt lat="47.78544" lon="-2.44515">
        <ele>51.1</ele>
        <time>2025-02-11T14:57:55Z</time>
      </trkpt>
      <trkpt lat="47.78545" lon="-2.44516">
        <ele>51</ele>
        <time>2025-02-11T14:57:56Z</time>
      </trkpt>
      <trkpt lat="47.78543" lon="-2.44518">
        <ele>51.2</ele>
        <time>2025-02-11T14:57:57Z</time>
      </trkpt>
      <trkpt lat="47.78543" lon="-2.44519">
        <ele>51.2</ele>
        <time>2025-02-11T14:57:58Z</time>
      </trkpt>
      <trkpt lat="47.78542" lon="-2.44521">
        <ele>51.3</ele>
        <time>2025-02-11T14:57:59Z</time>
      </trkpt>
      <trkpt lat="47.78541" lon="-2.44522">
        <ele>51.4</ele>
        <time>2025-02-11T14:58:00Z</time>
      </trkpt>
      <trkpt lat="47.7854" lon="-2.44523">
        <ele>51.6</ele>
        <time>2025-02-11T14:58:01Z</time>
      </trkpt>
      <trkpt lat="47.78538" lon="-2.44523">
        <ele>51.8</ele>
        <time>2025-02-11T14:58:02Z</time>
      </trkpt>
      <trkpt lat="47.78536" lon="-2.44523">
        <ele>52</ele>
        <time>2025-02-11T14:58:03Z</time>
      </trkpt>
      <trkpt lat="47.78535" lon="-2.44522">
        <ele>52.1</ele>
        <time>2025-02-11T14:58:04Z</time>
      </trkpt>
      <trkpt lat="47.78533" lon="-2.4452">
        <ele>52.2</ele>
        <time>2025-02-11T14:58:05Z</time>
      </trkpt>
      <trkpt lat="47.78531" lon="-2.44519">
        <ele>52.3</ele>
        <time>2025-02-11T14:58:06Z</time>
      </trkpt>
      <trkpt lat="47.7853" lon="-2.44519">
        <ele>52.5</ele>
        <time>2025-02-11T14:58:07Z</time>
      </trkpt>
      <trkpt lat="47.78528" lon="-2.44518">
        <ele>52.6</ele>
        <time>2025-02-11T14:58:08Z</time>
      </trkpt>
      <trkpt lat="47.78527" lon="-2.44518">
        <ele>52.7</ele>
        <time>2025-02-11T14:58:09Z</time>
      </trkpt>
      <trkpt lat="47.78526" lon="-2.44518">
        <ele>52.8</ele>
        <time>2025-02-11T14:58:10Z</time>
      </trkpt>
      <trkpt lat="47.78525" lon="-2.44517">
        <ele>52.9</ele>
        <time>2025-02-11T14:58:11Z</time>
      </trkpt>
      <trkpt lat="47.78524" lon="-2.44518">
        <ele>53</ele>
        <time>2025-02-11T14:58:12Z</time>
      </trkpt>
      <trkpt lat="47.78523" lon="-2.44518">
        <ele>53.1</ele>
        <time>2025-02-11T14:58:13Z</time>
      </trkpt>
      <trkpt lat="47.78522" lon="-2.44518">
        <ele>53.2</ele>
        <time>2025-02-11T14:58:14Z</time>
      </trkpt>
      <trkpt lat="47.78521" lon="-2.44517">
        <ele>53.3</ele>
        <time>2025-02-11T14:58:15Z</time>
      </trkpt>
      <trkpt lat="47.78521" lon="-2.44516">
        <ele>53.4</ele>
        <time>2025-02-11T14:58:16Z</time>
      </trkpt>
      <trkpt lat="47.7852" lon="-2.44516">
        <ele>53.5</ele>
        <time>2025-02-11T14:58:17Z</time>
      </trkpt>
      <trkpt lat="47.78519" lon="-2.44516">
        <ele>53.6</ele>
        <time>2025-02-11T14:58:18Z</time>
      </trkpt>
      <trkpt lat="47.78518" lon="-2.44516">
        <ele>53.7</ele>
        <time>2025-02-11T14:58:19Z</time>
      </trkpt>
      <trkpt lat="47.78517" lon="-2.44515">
        <ele>53.7</ele>
        <time>2025-02-11T14:58:20Z</time>
      </trkpt>
      <trkpt lat="47.78516" lon="-2.44514">
        <ele>53.8</ele>
        <time>2025-02-11T14:58:21Z</time>
      </trkpt>
      <trkpt lat="47.78516" lon="-2.44514">
        <ele>53.8</ele>
        <time>2025-02-11T14:58:22Z</time>
      </trkpt>
      <trkpt lat="47.78515" lon="-2.44513">
        <ele>53.9</ele>
        <time>2025-02-11T14:58:23Z</time>
      </trkpt>
      <trkpt lat="47.78514" lon="-2.44513">
        <ele>54</ele>
        <time>2025-02-11T14:58:24Z</time>
      </trkpt>
      <trkpt lat="47.78513" lon="-2.44513">
        <ele>54.1</ele>
        <time>2025-02-11T14:58:25Z</time>
      </trkpt>
      <trkpt lat="47.78512" lon="-2.44513">
        <ele>54.2</ele>
        <time>2025-02-11T14:58:26Z</time>
      </trkpt>
      <trkpt lat="47.78511" lon="-2.44513">
        <ele>54.3</ele>
        <time>2025-02-11T14:58:27Z</time>
      </trkpt>
      <trkpt lat="47.7851" lon="-2.44513">
        <ele>54.4</ele>
        <time>2025-02-11T14:58:28Z</time>
      </trkpt>
      <trkpt lat="47.78509" lon="-2.44513">
        <ele>54.5</ele>
        <time>2025-02-11T14:58:29Z</time>
      </trkpt>
      <trkpt lat="47.78508" lon="-2.44513">
        <ele>54.6</ele>
        <time>2025-02-11T14:58:30Z</time>
      </trkpt>
      <trkpt lat="47.78508" lon="-2.44513">
        <ele>54.6</ele>
        <time>2025-02-11T14:58:31Z</time>
      </trkpt>
      <trkpt lat="47.78507" lon="-2.44514">
        <ele>54.8</ele>
        <time>2025-02-11T14:58:32Z</time>
      </trkpt>
      <trkpt lat="47.78506" lon="-2.44514">
        <ele>54.9</ele>
        <time>2025-02-11T14:58:33Z</time>
      </trkpt>
      <trkpt lat="47.78505" lon="-2.44513">
        <ele>55</ele>
        <time>2025-02-11T14:58:34Z</time>
      </trkpt>
      <trkpt lat="47.78504" lon="-2.44512">
        <ele>55.1</ele>
        <time>2025-02-11T14:58:35Z</time>
      </trkpt>
      <trkpt lat="47.78502" lon="-2.44512">
        <ele>55.2</ele>
        <time>2025-02-11T14:58:36Z</time>
      </trkpt>
      <trkpt lat="47.78501" lon="-2.44511">
        <ele>55.3</ele>
        <time>2025-02-11T14:58:37Z</time>
      </trkpt>
      <trkpt lat="47.785" lon="-2.44511">
        <ele>55.4</ele>
        <time>2025-02-11T14:58:38Z</time>
      </trkpt>
      <trkpt lat="47.78498" lon="-2.44511">
        <ele>55.5</ele>
        <time>2025-02-11T14:58:39Z</time>
      </trkpt>
      <trkpt lat="47.78498" lon="-2.44511">
        <ele>55.6</ele>
        <time>2025-02-11T14:58:40Z</time>
      </trkpt>
      <trkpt lat="47.78497" lon="-2.4451">
        <ele>55.6</ele>
        <time>2025-02-11T14:58:41Z</time>
      </trkpt>
      <trkpt lat="47.78496" lon="-2.44509">
        <ele>55.7</ele>
        <time>2025-02-11T14:58:42Z</time>
      </trkpt>
      <trkpt lat="47.78494" lon="-2.44508">
        <ele>55.7</ele>
        <time>2025-02-11T14:58:43Z</time>
      </trkpt>
      <trkpt lat="47.78493" lon="-2.44507">
        <ele>55.8</ele>
        <time>2025-02-11T14:58:44Z</time>
      </trkpt>
      <trkpt lat="47.78492" lon="-2.44506">
        <ele>55.8</ele>
        <time>2025-02-11T14:58:45Z</time>
      </trkpt>
      <trkpt lat="47.78491" lon="-2.44506">
        <ele>55.9</ele>
        <time>2025-02-11T14:58:46Z</time>
      </trkpt>
      <trkpt lat="47.7849" lon="-2.44505">
        <ele>56</ele>
        <time>2025-02-11T14:58:47Z</time>
      </trkpt>
      <trkpt lat="47.78489" lon="-2.44505">
        <ele>56</ele>
        <time>2025-02-11T14:58:48Z</time>
      </trkpt>
      <trkpt lat="47.78489" lon="-2.44504">
        <ele>56</ele>
        <time>2025-02-11T14:58:49Z</time>
      </trkpt>
      <trkpt lat="47.78488" lon="-2.44504">
        <ele>56</ele>
        <time>2025-02-11T14:58:50Z</time>
      </trkpt>
      <trkpt lat="47.78488" lon="-2.44504">
        <ele>56.1</ele>
        <time>2025-02-11T14:58:51Z</time>
      </trkpt>
      <trkpt lat="47.78487" lon="-2.44503">
        <ele>56.1</ele>
        <time>2025-02-11T14:58:52Z</time>
      </trkpt>
      <trkpt lat="47.78487" lon="-2.44503">
        <ele>56.1</ele>
        <time>2025-02-11T14:58:53Z</time>
      </trkpt>
      <trkpt lat="47.78486" lon="-2.44502">
        <ele>56.1</ele>
        <time>2025-02-11T14:58:54Z</time>
      </trkpt>
      <trkpt lat="47.78486" lon="-2.44501">
        <ele>56.1</ele>
        <time>2025-02-11T14:58:55Z</time>
      </trkpt>
      <trkpt lat="47.78485" lon="-2.44499">
        <ele>56.1</ele>
        <time>2025-02-11T14:58:56Z</time>
      </trkpt>
      <trkpt lat="47.78484" lon="-2.44499">
        <ele>56.1</ele>
        <time>2025-02-11T14:58:57Z</time>
      </trkpt>
      <trkpt lat="47.78484" lon="-2.44497">
        <ele>56</ele>
        <time>2025-02-11T14:58:58Z</time>
      </trkpt>
      <trkpt lat="47.78483" lon="-2.44496">
        <ele>56.1</ele>
        <time>2025-02-11T14:58:59Z</time>
      </trkpt>
      <trkpt lat="47.78483" lon="-2.44495">
        <ele>56.1</ele>
        <time>2025-02-11T14:59:00Z</time>
      </trkpt>
      <trkpt lat="47.78482" lon="-2.44494">
        <ele>56.1</ele>
        <time>2025-02-11T14:59:01Z</time>
      </trkpt>
      <trkpt lat="47.78481" lon="-2.44492">
        <ele>56.1</ele>
        <time>2025-02-11T14:59:02Z</time>
      </trkpt>
      <trkpt lat="47.7848" lon="-2.44491">
        <ele>56.1</ele>
        <time>2025-02-11T14:59:03Z</time>
      </trkpt>
      <trkpt lat="47.78479" lon="-2.4449">
        <ele>56.2</ele>
        <time>2025-02-11T14:59:04Z</time>
      </trkpt>
      <trkpt lat="47.78478" lon="-2.44489">
        <ele>56.2</ele>
        <time>2025-02-11T14:59:05Z</time>
      </trkpt>
      <trkpt lat="47.78477" lon="-2.44487">
        <ele>56.2</ele>
        <time>2025-02-11T14:59:06Z</time>
      </trkpt>
      <trkpt lat="47.78476" lon="-2.44486">
        <ele>56.2</ele>
        <time>2025-02-11T14:59:07Z</time>
      </trkpt>
      <trkpt lat="47.78475" lon="-2.44484">
        <ele>56.2</ele>
        <time>2025-02-11T14:59:08Z</time>
      </trkpt>
      <trkpt lat="47.78473" lon="-2.44483">
        <ele>56.3</ele>
        <time>2025-02-11T14:59:09Z</time>
      </trkpt>
      <trkpt lat="47.78472" lon="-2.44482">
        <ele>56.4</ele>
        <time>2025-02-11T14:59:10Z</time>
      </trkpt>
      <trkpt lat="47.78471" lon="-2.44481">
        <ele>56.3</ele>
        <time>2025-02-11T14:59:11Z</time>
      </trkpt>
      <trkpt lat="47.78469" lon="-2.4448">
        <ele>56.3</ele>
        <time>2025-02-11T14:59:12Z</time>
      </trkpt>
      <trkpt lat="47.78468" lon="-2.44478">
        <ele>56.2</ele>
        <time>2025-02-11T14:59:13Z</time>
      </trkpt>
      <trkpt lat="47.78466" lon="-2.44476">
        <ele>56.1</ele>
        <time>2025-02-11T14:59:14Z</time>
      </trkpt>
      <trkpt lat="47.78465" lon="-2.44474">
        <ele>56.1</ele>
        <time>2025-02-11T14:59:15Z</time>
      </trkpt>
      <trkpt lat="47.78463" lon="-2.44472">
        <ele>56</ele>
        <time>2025-02-11T14:59:16Z</time>
      </trkpt>
      <trkpt lat="47.78462" lon="-2.4447">
        <ele>55.7</ele>
        <time>2025-02-11T14:59:17Z</time>
      </trkpt>
      <trkpt lat="47.78462" lon="-2.44469">
        <ele>55.5</ele>
        <time>2025-02-11T14:59:18Z</time>
      </trkpt>
      <trkpt lat="47.78461" lon="-2.44468">
        <ele>55.4</ele>
        <time>2025-02-11T14:59:19Z</time>
      </trkpt>
      <trkpt lat="47.78461" lon="-2.44468">
        <ele>55.4</ele>
        <time>2025-02-11T14:59:20Z</time>
      </trkpt>
      <trkpt lat="47.7846" lon="-2.44466">
        <ele>55.2</ele>
        <time>2025-02-11T14:59:21Z</time>
      </trkpt>
      <trkpt lat="47.78458" lon="-2.44466">
        <ele>55.2</ele>
        <time>2025-02-11T14:59:22Z</time>
      </trkpt>
      <trkpt lat="47.78457" lon="-2.44465">
        <ele>55.1</ele>
        <time>2025-02-11T14:59:23Z</time>
      </trkpt>
      <trkpt lat="47.78457" lon="-2.44464">
        <ele>55</ele>
        <time>2025-02-11T14:59:24Z</time>
      </trkpt>
      <trkpt lat="47.78457" lon="-2.44464">
        <ele>55</ele>
        <time>2025-02-11T14:59:25Z</time>
      </trkpt>
      <trkpt lat="47.78456" lon="-2.44465">
        <ele>55.1</ele>
        <time>2025-02-11T14:59:26Z</time>
      </trkpt>
      <trkpt lat="47.78454" lon="-2.44464">
        <ele>55.1</ele>
        <time>2025-02-11T14:59:27Z</time>
      </trkpt>
      <trkpt lat="47.78453" lon="-2.44463">
        <ele>55.1</ele>
        <time>2025-02-11T14:59:28Z</time>
      </trkpt>
      <trkpt lat="47.78452" lon="-2.44463">
        <ele>55</ele>
        <time>2025-02-11T14:59:29Z</time>
      </trkpt>
      <trkpt lat="47.78451" lon="-2.44461">
        <ele>54.9</ele>
        <time>2025-02-11T14:59:30Z</time>
      </trkpt>
      <trkpt lat="47.78449" lon="-2.4446">
        <ele>54.9</ele>
        <time>2025-02-11T14:59:31Z</time>
      </trkpt>
      <trkpt lat="47.78448" lon="-2.44459">
        <ele>54.8</ele>
        <time>2025-02-11T14:59:32Z</time>
      </trkpt>
      <trkpt lat="47.78447" lon="-2.44458">
        <ele>54.8</ele>
        <time>2025-02-11T14:59:33Z</time>
      </trkpt>
      <trkpt lat="47.78446" lon="-2.44457">
        <ele>54.8</ele>
        <time>2025-02-11T14:59:34Z</time>
      </trkpt>
      <trkpt lat="47.78445" lon="-2.44457">
        <ele>54.9</ele>
        <time>2025-02-11T14:59:35Z</time>
      </trkpt>
      <trkpt lat="47.78444" lon="-2.44456">
        <ele>54.9</ele>
        <time>2025-02-11T14:59:36Z</time>
      </trkpt>
      <trkpt lat="47.78442" lon="-2.44456">
        <ele>54.9</ele>
        <time>2025-02-11T14:59:37Z</time>
      </trkpt>
      <trkpt lat="47.78441" lon="-2.44455">
        <ele>54.9</ele>
        <time>2025-02-11T14:59:38Z</time>
      </trkpt>
      <trkpt lat="47.78439" lon="-2.44455">
        <ele>55</ele>
        <time>2025-02-11T14:59:39Z</time>
      </trkpt>
      <trkpt lat="47.78438" lon="-2.44454">
        <ele>55</ele>
        <time>2025-02-11T14:59:40Z</time>
      </trkpt>
      <trkpt lat="47.78437" lon="-2.44454">
        <ele>55.1</ele>
        <time>2025-02-11T14:59:41Z</time>
      </trkpt>
      <trkpt lat="47.78436" lon="-2.44455">
        <ele>55.1</ele>
        <time>2025-02-11T14:59:42Z</time>
      </trkpt>
      <trkpt lat="47.78435" lon="-2.44456">
        <ele>55.2</ele>
        <time>2025-02-11T14:59:43Z</time>
      </trkpt>
      <trkpt lat="47.78434" lon="-2.44456">
        <ele>55.3</ele>
        <time>2025-02-11T14:59:44Z</time>
      </trkpt>
      <trkpt lat="47.78432" lon="-2.44455">
        <ele>55.3</ele>
        <time>2025-02-11T14:59:45Z</time>
      </trkpt>
      <trkpt lat="47.78431" lon="-2.44455">
        <ele>55.3</ele>
        <time>2025-02-11T14:59:46Z</time>
      </trkpt>
      <trkpt lat="47.7843" lon="-2.44455">
        <ele>55.4</ele>
        <time>2025-02-11T14:59:47Z</time>
      </trkpt>
      <trkpt lat="47.78429" lon="-2.44454">
        <ele>55.4</ele>
        <time>2025-02-11T14:59:48Z</time>
      </trkpt>
      <trkpt lat="47.78428" lon="-2.44451">
        <ele>55.4</ele>
        <time>2025-02-11T14:59:49Z</time>
      </trkpt>
      <trkpt lat="47.78427" lon="-2.4445">
        <ele>55.4</ele>
        <time>2025-02-11T14:59:50Z</time>
      </trkpt>
      <trkpt lat="47.78428" lon="-2.44448">
        <ele>55.3</ele>
        <time>2025-02-11T14:59:51Z</time>
      </trkpt>
      <trkpt lat="47.78428" lon="-2.44446">
        <ele>55.2</ele>
        <time>2025-02-11T14:59:52Z</time>
      </trkpt>
      <trkpt lat="47.78428" lon="-2.44444">
        <ele>55.3</ele>
        <time>2025-02-11T14:59:53Z</time>
      </trkpt>
      <trkpt lat="47.78427" lon="-2.44442">
        <ele>55.5</ele>
        <time>2025-02-11T14:59:54Z</time>
      </trkpt>
      <trkpt lat="47.78427" lon="-2.4444">
        <ele>55.6</ele>
        <time>2025-02-11T14:59:55Z</time>
      </trkpt>
      <trkpt lat="47.78428" lon="-2.44438">
        <ele>55.8</ele>
        <time>2025-02-11T14:59:56Z</time>
      </trkpt>
      <trkpt lat="47.78428" lon="-2.44435">
        <ele>55.9</ele>
        <time>2025-02-11T14:59:57Z</time>
      </trkpt>
      <trkpt lat="47.78428" lon="-2.44433">
        <ele>56.1</ele>
        <time>2025-02-11T14:59:58Z</time>
      </trkpt>
      <trkpt lat="47.78428" lon="-2.44431">
        <ele>56.2</ele>
        <time>2025-02-11T14:59:59Z</time>
      </trkpt>
      <trkpt lat="47.78428" lon="-2.44429">
        <ele>56.4</ele>
        <time>2025-02-11T15:00:00Z</time>
      </trkpt>
      <trkpt lat="47.78429" lon="-2.44428">
        <ele>56.4</ele>
        <time>2025-02-11T15:00:01Z</time>
      </trkpt>
      <trkpt lat="47.7843" lon="-2.44426">
        <ele>56.5</ele>
        <time>2025-02-11T15:00:02Z</time>
      </trkpt>
      <trkpt lat="47.7843" lon="-2.44424">
        <ele>56.5</ele>
        <time>2025-02-11T15:00:03Z</time>
      </trkpt>
      <trkpt lat="47.78431" lon="-2.44423">
        <ele>56.5</ele>
        <time>2025-02-11T15:00:04Z</time>
      </trkpt>
      <trkpt lat="47.78432" lon="-2.44421">
        <ele>56.5</ele>
        <time>2025-02-11T15:00:05Z</time>
      </trkpt>
      <trkpt lat="47.78432" lon="-2.4442">
        <ele>56.5</ele>
        <time>2025-02-11T15:00:06Z</time>
      </trkpt>
      <trkpt lat="47.78433" lon="-2.44419">
        <ele>56.5</ele>
        <time>2025-02-11T15:00:07Z</time>
      </trkpt>
      <trkpt lat="47.78433" lon="-2.44417">
        <ele>56.6</ele>
        <time>2025-02-11T15:00:08Z</time>
      </trkpt>
      <trkpt lat="47.78434" lon="-2.44416">
        <ele>56.6</ele>
        <time>2025-02-11T15:00:09Z</time>
      </trkpt>
      <trkpt lat="47.78434" lon="-2.44414">
        <ele>56.7</ele>
        <time>2025-02-11T15:00:10Z</time>
      </trkpt>
      <trkpt lat="47.78435" lon="-2.44413">
        <ele>56.7</ele>
        <time>2025-02-11T15:00:11Z</time>
      </trkpt>
      <trkpt lat="47.78436" lon="-2.44411">
        <ele>56.8</ele>
        <time>2025-02-11T15:00:12Z</time>
      </trkpt>
      <trkpt lat="47.78436" lon="-2.4441">
        <ele>56.9</ele>
        <time>2025-02-11T15:00:13Z</time>
      </trkpt>
      <trkpt lat="47.78437" lon="-2.44408">
        <ele>57</ele>
        <time>2025-02-11T15:00:14Z</time>
      </trkpt>
      <trkpt lat="47.78437" lon="-2.44406">
        <ele>57</ele>
        <time>2025-02-11T15:00:15Z</time>
      </trkpt>
      <trkpt lat="47.78438" lon="-2.44406">
        <ele>57</ele>
        <time>2025-02-11T15:00:16Z</time>
      </trkpt>
      <trkpt lat="47.78439" lon="-2.44405">
        <ele>56.9</ele>
        <time>2025-02-11T15:00:17Z</time>
      </trkpt>
      <trkpt lat="47.78441" lon="-2.44405">
        <ele>56.7</ele>
        <time>2025-02-11T15:00:18Z</time>
      </trkpt>
      <trkpt lat="47.78442" lon="-2.44405">
        <ele>56.5</ele>
        <time>2025-02-11T15:00:19Z</time>
      </trkpt>
      <trkpt lat="47.78444" lon="-2.44405">
        <ele>56.4</ele>
        <time>2025-02-11T15:00:20Z</time>
      </trkpt>
      <trkpt lat="47.78445" lon="-2.44405">
        <ele>56.1</ele>
        <time>2025-02-11T15:00:21Z</time>
      </trkpt>
      <trkpt lat="47.78447" lon="-2.44405">
        <ele>55.9</ele>
        <time>2025-02-11T15:00:22Z</time>
      </trkpt>
      <trkpt lat="47.78448" lon="-2.44405">
        <ele>55.7</ele>
        <time>2025-02-11T15:00:23Z</time>
      </trkpt>
      <trkpt lat="47.78449" lon="-2.44406">
        <ele>55.5</ele>
        <time>2025-02-11T15:00:24Z</time>
      </trkpt>
      <trkpt lat="47.7845" lon="-2.44406">
        <ele>55.3</ele>
        <time>2025-02-11T15:00:25Z</time>
      </trkpt>
      <trkpt lat="47.78452" lon="-2.44406">
        <ele>55.1</ele>
        <time>2025-02-11T15:00:26Z</time>
      </trkpt>
      <trkpt lat="47.78453" lon="-2.44406">
        <ele>54.9</ele>
        <time>2025-02-11T15:00:27Z</time>
      </trkpt>
      <trkpt lat="47.78454" lon="-2.44407">
        <ele>54.6</ele>
        <time>2025-02-11T15:00:28Z</time>
      </trkpt>
      <trkpt lat="47.78455" lon="-2.44408">
        <ele>54.4</ele>
        <time>2025-02-11T15:00:29Z</time>
      </trkpt>
      <trkpt lat="47.78456" lon="-2.4441">
        <ele>54.1</ele>
        <time>2025-02-11T15:00:30Z</time>
      </trkpt>
      <trkpt lat="47.78457" lon="-2.44412">
        <ele>53.7</ele>
        <time>2025-02-11T15:00:31Z</time>
      </trkpt>
      <trkpt lat="47.78459" lon="-2.44414">
        <ele>53.2</ele>
        <time>2025-02-11T15:00:32Z</time>
      </trkpt>
      <trkpt lat="47.7846" lon="-2.44417">
        <ele>52.8</ele>
        <time>2025-02-11T15:00:33Z</time>
      </trkpt>
      <trkpt lat="47.78462" lon="-2.44418">
        <ele>52.5</ele>
        <time>2025-02-11T15:00:34Z</time>
      </trkpt>
      <trkpt lat="47.78463" lon="-2.44419">
        <ele>52.3</ele>
        <time>2025-02-11T15:00:35Z</time>
      </trkpt>
      <trkpt lat="47.78464" lon="-2.4442">
        <ele>52.2</ele>
        <time>2025-02-11T15:00:36Z</time>
      </trkpt>
      <trkpt lat="47.78465" lon="-2.44421">
        <ele>51.9</ele>
        <time>2025-02-11T15:00:37Z</time>
      </trkpt>
      <trkpt lat="47.78467" lon="-2.4442">
        <ele>51.7</ele>
        <time>2025-02-11T15:00:38Z</time>
      </trkpt>
      <trkpt lat="47.78468" lon="-2.44418">
        <ele>51.5</ele>
        <time>2025-02-11T15:00:39Z</time>
      </trkpt>
      <trkpt lat="47.7847" lon="-2.44418">
        <ele>51.4</ele>
        <time>2025-02-11T15:00:40Z</time>
      </trkpt>
      <trkpt lat="47.78471" lon="-2.44417">
        <ele>51.2</ele>
        <time>2025-02-11T15:00:41Z</time>
      </trkpt>
      <trkpt lat="47.78472" lon="-2.44416">
        <ele>51.1</ele>
        <time>2025-02-11T15:00:42Z</time>
      </trkpt>
      <trkpt lat="47.78473" lon="-2.44416">
        <ele>51</ele>
        <time>2025-02-11T15:00:43Z</time>
      </trkpt>
      <trkpt lat="47.78474" lon="-2.44415">
        <ele>50.9</ele>
        <time>2025-02-11T15:00:44Z</time>
      </trkpt>
      <trkpt lat="47.78475" lon="-2.44414">
        <ele>50.8</ele>
        <time>2025-02-11T15:00:45Z</time>
      </trkpt>
      <trkpt lat="47.78476" lon="-2.44413">
        <ele>50.7</ele>
        <time>2025-02-11T15:00:46Z</time>
      </trkpt>
      <trkpt lat="47.78476" lon="-2.44413">
        <ele>50.7</ele>
        <time>2025-02-11T15:00:47Z</time>
      </trkpt>
      <trkpt lat="47.78476" lon="-2.44411">
        <ele>50.8</ele>
        <time>2025-02-11T15:00:48Z</time>
      </trkpt>
      <trkpt lat="47.78476" lon="-2.44409">
        <ele>51</ele>
        <time>2025-02-11T15:00:49Z</time>
      </trkpt>
      <trkpt lat="47.78477" lon="-2.44407">
        <ele>51.1</ele>
        <time>2025-02-11T15:00:50Z</time>
      </trkpt>
      <trkpt lat="47.78477" lon="-2.44405">
        <ele>51.2</ele>
        <time>2025-02-11T15:00:51Z</time>
      </trkpt>
      <trkpt lat="47.78477" lon="-2.44404">
        <ele>51.3</ele>
        <time>2025-02-11T15:00:52Z</time>
      </trkpt>
      <trkpt lat="47.78477" lon="-2.44402">
        <ele>51.4</ele>
        <time>2025-02-11T15:00:53Z</time>
      </trkpt>
      <trkpt lat="47.78478" lon="-2.44401">
        <ele>51.3</ele>
        <time>2025-02-11T15:00:54Z</time>
      </trkpt>
      <trkpt lat="47.78478" lon="-2.444">
        <ele>51.3</ele>
        <time>2025-02-11T15:00:55Z</time>
      </trkpt>
      <trkpt lat="47.78479" lon="-2.44399">
        <ele>51.2</ele>
        <time>2025-02-11T15:00:56Z</time>
      </trkpt>
      <trkpt lat="47.7848" lon="-2.44399">
        <ele>51</ele>
        <time>2025-02-11T15:00:57Z</time>
      </trkpt>
      <trkpt lat="47.78481" lon="-2.44399">
        <ele>50.9</ele>
        <time>2025-02-11T15:00:58Z</time>
      </trkpt>
      <trkpt lat="47.78482" lon="-2.44397">
        <ele>50.7</ele>
        <time>2025-02-11T15:00:59Z</time>
      </trkpt>
      <trkpt lat="47.78482" lon="-2.44395">
        <ele>50.6</ele>
        <time>2025-02-11T15:01:00Z</time>
      </trkpt>
      <trkpt lat="47.78483" lon="-2.44394">
        <ele>50.6</ele>
        <time>2025-02-11T15:01:01Z</time>
      </trkpt>
      <trkpt lat="47.78483" lon="-2.44392">
        <ele>50.7</ele>
        <time>2025-02-11T15:01:02Z</time>
      </trkpt>
      <trkpt lat="47.78484" lon="-2.44391">
        <ele>50.6</ele>
        <time>2025-02-11T15:01:03Z</time>
      </trkpt>
      <trkpt lat="47.78484" lon="-2.4439">
        <ele>50.5</ele>
        <time>2025-02-11T15:01:04Z</time>
      </trkpt>
      <trkpt lat="47.78485" lon="-2.44388">
        <ele>50.5</ele>
        <time>2025-02-11T15:01:05Z</time>
      </trkpt>
      <trkpt lat="47.78486" lon="-2.44386">
        <ele>50.5</ele>
        <time>2025-02-11T15:01:06Z</time>
      </trkpt>
      <trkpt lat="47.78486" lon="-2.44385">
        <ele>50.5</ele>
        <time>2025-02-11T15:01:07Z</time>
      </trkpt>
      <trkpt lat="47.78487" lon="-2.44383">
        <ele>50.6</ele>
        <time>2025-02-11T15:01:08Z</time>
      </trkpt>
      <trkpt lat="47.78487" lon="-2.44381">
        <ele>50.7</ele>
        <time>2025-02-11T15:01:09Z</time>
      </trkpt>
      <trkpt lat="47.78487" lon="-2.4438">
        <ele>50.8</ele>
        <time>2025-02-11T15:01:10Z</time>
      </trkpt>
      <trkpt lat="47.78488" lon="-2.44379">
        <ele>50.9</ele>
        <time>2025-02-11T15:01:11Z</time>
      </trkpt>
      <trkpt lat="47.78488" lon="-2.44377">
        <ele>51</ele>
        <time>2025-02-11T15:01:12Z</time>
      </trkpt>
      <trkpt lat="47.78488" lon="-2.44376">
        <ele>51.2</ele>
        <time>2025-02-11T15:01:13Z</time>
      </trkpt>
      <trkpt lat="47.78488" lon="-2.44374">
        <ele>51.5</ele>
        <time>2025-02-11T15:01:14Z</time>
      </trkpt>
      <trkpt lat="47.78488" lon="-2.44373">
        <ele>51.6</ele>
        <time>2025-02-11T15:01:15Z</time>
      </trkpt>
      <trkpt lat="47.78488" lon="-2.44372">
        <ele>51.8</ele>
        <time>2025-02-11T15:01:16Z</time>
      </trkpt>
      <trkpt lat="47.78487" lon="-2.4437">
        <ele>52.2</ele>
        <time>2025-02-11T15:01:17Z</time>
      </trkpt>
      <trkpt lat="47.78486" lon="-2.44369">
        <ele>52.5</ele>
        <time>2025-02-11T15:01:18Z</time>
      </trkpt>
      <trkpt lat="47.78486" lon="-2.44368">
        <ele>52.8</ele>
        <time>2025-02-11T15:01:19Z</time>
      </trkpt>
      <trkpt lat="47.78485" lon="-2.44367">
        <ele>53</ele>
        <time>2025-02-11T15:01:20Z</time>
      </trkpt>
      <trkpt lat="47.78486" lon="-2.44365">
        <ele>53.1</ele>
        <time>2025-02-11T15:01:21Z</time>
      </trkpt>
      <trkpt lat="47.78486" lon="-2.44364">
        <ele>53.2</ele>
        <time>2025-02-11T15:01:22Z</time>
      </trkpt>
      <trkpt lat="47.78485" lon="-2.44363">
        <ele>53.5</ele>
        <time>2025-02-11T15:01:23Z</time>
      </trkpt>
      <trkpt lat="47.78484" lon="-2.44361">
        <ele>53.8</ele>
        <time>2025-02-11T15:01:24Z</time>
      </trkpt>
      <trkpt lat="47.78484" lon="-2.4436">
        <ele>53.9</ele>
        <time>2025-02-11T15:01:25Z</time>
      </trkpt>
      <trkpt lat="47.78484" lon="-2.44358">
        <ele>54</ele>
        <time>2025-02-11T15:01:26Z</time>
      </trkpt>
      <trkpt lat="47.78484" lon="-2.44357">
        <ele>54</ele>
        <time>2025-02-11T15:01:27Z</time>
      </trkpt>
      <trkpt lat="47.78483" lon="-2.44355">
        <ele>54.1</ele>
        <time>2025-02-11T15:01:28Z</time>
      </trkpt>
      <trkpt lat="47.78483" lon="-2.44354">
        <ele>54.1</ele>
        <time>2025-02-11T15:01:29Z</time>
      </trkpt>
      <trkpt lat="47.78483" lon="-2.44352">
        <ele>54.2</ele>
        <time>2025-02-11T15:01:30Z</time>
      </trkpt>
      <trkpt lat="47.78483" lon="-2.44351">
        <ele>54.2</ele>
        <time>2025-02-11T15:01:31Z</time>
      </trkpt>
      <trkpt lat="47.78483" lon="-2.44349">
        <ele>54.2</ele>
        <time>2025-02-11T15:01:32Z</time>
      </trkpt>
      <trkpt lat="47.78483" lon="-2.44348">
        <ele>54.3</ele>
        <time>2025-02-11T15:01:33Z</time>
      </trkpt>
      <trkpt lat="47.78482" lon="-2.44346">
        <ele>54.4</ele>
        <time>2025-02-11T15:01:34Z</time>
      </trkpt>
      <trkpt lat="47.78482" lon="-2.44344">
        <ele>54.4</ele>
        <time>2025-02-11T15:01:35Z</time>
      </trkpt>
      <trkpt lat="47.78482" lon="-2.44345">
        <ele>54.5</ele>
        <time>2025-02-11T15:01:36Z</time>
      </trkpt>
      <trkpt lat="47.78481" lon="-2.44344">
        <ele>54.6</ele>
        <time>2025-02-11T15:01:37Z</time>
      </trkpt>
      <trkpt lat="47.78481" lon="-2.44341">
        <ele>54.6</ele>
        <time>2025-02-11T15:01:38Z</time>
      </trkpt>
      <trkpt lat="47.78481" lon="-2.44341">
        <ele>54.7</ele>
        <time>2025-02-11T15:01:39Z</time>
      </trkpt>
      <trkpt lat="47.78481" lon="-2.4434">
        <ele>54.7</ele>
        <time>2025-02-11T15:01:40Z</time>
      </trkpt>
      <trkpt lat="47.7848" lon="-2.44338">
        <ele>54.8</ele>
        <time>2025-02-11T15:01:41Z</time>
      </trkpt>
      <trkpt lat="47.78479" lon="-2.44336">
        <ele>54.9</ele>
        <time>2025-02-11T15:01:42Z</time>
      </trkpt>
      <trkpt lat="47.78479" lon="-2.44334">
        <ele>55.1</ele>
        <time>2025-02-11T15:01:43Z</time>
      </trkpt>
      <trkpt lat="47.78478" lon="-2.44333">
        <ele>55.2</ele>
        <time>2025-02-11T15:01:44Z</time>
      </trkpt>
      <trkpt lat="47.78477" lon="-2.44331">
        <ele>55.3</ele>
        <time>2025-02-11T15:01:45Z</time>
      </trkpt>
      <trkpt lat="47.78477" lon="-2.4433">
        <ele>55.3</ele>
        <time>2025-02-11T15:01:46Z</time>
      </trkpt>
      <trkpt lat="47.78476" lon="-2.44329">
        <ele>55.5</ele>
        <time>2025-02-11T15:01:47Z</time>
      </trkpt>
      <trkpt lat="47.78476" lon="-2.44327">
        <ele>55.5</ele>
        <time>2025-02-11T15:01:48Z</time>
      </trkpt>
      <trkpt lat="47.78475" lon="-2.44325">
        <ele>55.6</ele>
        <time>2025-02-11T15:01:49Z</time>
      </trkpt>
      <trkpt lat="47.78474" lon="-2.44324">
        <ele>55.8</ele>
        <time>2025-02-11T15:01:50Z</time>
      </trkpt>
      <trkpt lat="47.78474" lon="-2.44322">
        <ele>55.8</ele>
        <time>2025-02-11T15:01:51Z</time>
      </trkpt>
      <trkpt lat="47.78473" lon="-2.44321">
        <ele>55.8</ele>
        <time>2025-02-11T15:01:52Z</time>
      </trkpt>
      <trkpt lat="47.78473" lon="-2.44319">
        <ele>55.9</ele>
        <time>2025-02-11T15:01:53Z</time>
      </trkpt>
      <trkpt lat="47.78472" lon="-2.44318">
        <ele>56</ele>
        <time>2025-02-11T15:01:54Z</time>
      </trkpt>
      <trkpt lat="47.78472" lon="-2.44316">
        <ele>56</ele>
        <time>2025-02-11T15:01:55Z</time>
      </trkpt>
      <trkpt lat="47.78472" lon="-2.44315">
        <ele>56</ele>
        <time>2025-02-11T15:01:56Z</time>
      </trkpt>
      <trkpt lat="47.78472" lon="-2.44314">
        <ele>56</ele>
        <time>2025-02-11T15:01:57Z</time>
      </trkpt>
      <trkpt lat="47.78471" lon="-2.44312">
        <ele>56.1</ele>
        <time>2025-02-11T15:01:58Z</time>
      </trkpt>
      <trkpt lat="47.7847" lon="-2.44311">
        <ele>56.2</ele>
        <time>2025-02-11T15:01:59Z</time>
      </trkpt>
      <trkpt lat="47.7847" lon="-2.44309">
        <ele>56.3</ele>
        <time>2025-02-11T15:02:00Z</time>
      </trkpt>
      <trkpt lat="47.78469" lon="-2.44308">
        <ele>56.3</ele>
        <time>2025-02-11T15:02:01Z</time>
      </trkpt>
      <trkpt lat="47.78469" lon="-2.44306">
        <ele>56.4</ele>
        <time>2025-02-11T15:02:02Z</time>
      </trkpt>
      <trkpt lat="47.78468" lon="-2.44304">
        <ele>56.3</ele>
        <time>2025-02-11T15:02:03Z</time>
      </trkpt>
      <trkpt lat="47.78468" lon="-2.44302">
        <ele>56.3</ele>
        <time>2025-02-11T15:02:04Z</time>
      </trkpt>
      <trkpt lat="47.78467" lon="-2.443">
        <ele>56.2</ele>
        <time>2025-02-11T15:02:05Z</time>
      </trkpt>
      <trkpt lat="47.78466" lon="-2.44299">
        <ele>56.3</ele>
        <time>2025-02-11T15:02:06Z</time>
      </trkpt>
      <trkpt lat="47.78465" lon="-2.44299">
        <ele>56.4</ele>
        <time>2025-02-11T15:02:07Z</time>
      </trkpt>
      <trkpt lat="47.78464" lon="-2.44299">
        <ele>56.5</ele>
        <time>2025-02-11T15:02:08Z</time>
      </trkpt>
      <trkpt lat="47.78463" lon="-2.44301">
        <ele>56.8</ele>
        <time>2025-02-11T15:02:09Z</time>
      </trkpt>
      <trkpt lat="47.78462" lon="-2.44303">
        <ele>56.9</ele>
        <time>2025-02-11T15:02:10Z</time>
      </trkpt>
      <trkpt lat="47.78461" lon="-2.44302">
        <ele>57</ele>
        <time>2025-02-11T15:02:11Z</time>
      </trkpt>
      <trkpt lat="47.7846" lon="-2.44302">
        <ele>57.1</ele>
        <time>2025-02-11T15:02:12Z</time>
      </trkpt>
      <trkpt lat="47.7846" lon="-2.44301">
        <ele>57.1</ele>
        <time>2025-02-11T15:02:13Z</time>
      </trkpt>
      <trkpt lat="47.78459" lon="-2.44301">
        <ele>57.2</ele>
        <time>2025-02-11T15:02:14Z</time>
      </trkpt>
      <trkpt lat="47.78458" lon="-2.44302">
        <ele>57.3</ele>
        <time>2025-02-11T15:02:15Z</time>
      </trkpt>
      <trkpt lat="47.78457" lon="-2.44301">
        <ele>57.4</ele>
        <time>2025-02-11T15:02:16Z</time>
      </trkpt>
      <trkpt lat="47.78457" lon="-2.443">
        <ele>57.4</ele>
        <time>2025-02-11T15:02:17Z</time>
      </trkpt>
      <trkpt lat="47.78456" lon="-2.44301">
        <ele>57.5</ele>
        <time>2025-02-11T15:02:18Z</time>
      </trkpt>
      <trkpt lat="47.78455" lon="-2.44301">
        <ele>57.6</ele>
        <time>2025-02-11T15:02:19Z</time>
      </trkpt>
      <trkpt lat="47.78455" lon="-2.44301">
        <ele>57.7</ele>
        <time>2025-02-11T15:02:20Z</time>
      </trkpt>
      <trkpt lat="47.78454" lon="-2.443">
        <ele>57.8</ele>
        <time>2025-02-11T15:02:21Z</time>
      </trkpt>
      <trkpt lat="47.78453" lon="-2.443">
        <ele>57.8</ele>
        <time>2025-02-11T15:02:22Z</time>
      </trkpt>
      <trkpt lat="47.78452" lon="-2.44299">
        <ele>57.9</ele>
        <time>2025-02-11T15:02:23Z</time>
      </trkpt>
      <trkpt lat="47.78451" lon="-2.443">
        <ele>58.1</ele>
        <time>2025-02-11T15:02:24Z</time>
      </trkpt>
      <trkpt lat="47.7845" lon="-2.443">
        <ele>58.2</ele>
        <time>2025-02-11T15:02:25Z</time>
      </trkpt>
      <trkpt lat="47.78449" lon="-2.443">
        <ele>58.3</ele>
        <time>2025-02-11T15:02:26Z</time>
      </trkpt>
      <trkpt lat="47.78448" lon="-2.44301">
        <ele>58.5</ele>
        <time>2025-02-11T15:02:27Z</time>
      </trkpt>
      <trkpt lat="47.78447" lon="-2.44301">
        <ele>58.6</ele>
        <time>2025-02-11T15:02:28Z</time>
      </trkpt>
      <trkpt lat="47.78445" lon="-2.44301">
        <ele>58.7</ele>
        <time>2025-02-11T15:02:29Z</time>
      </trkpt>
      <trkpt lat="47.78445" lon="-2.44301">
        <ele>58.8</ele>
        <time>2025-02-11T15:02:30Z</time>
      </trkpt>
      <trkpt lat="47.78444" lon="-2.44302">
        <ele>59</ele>
        <time>2025-02-11T15:02:31Z</time>
      </trkpt>
      <trkpt lat="47.78443" lon="-2.44301">
        <ele>59</ele>
        <time>2025-02-11T15:02:32Z</time>
      </trkpt>
      <trkpt lat="47.78442" lon="-2.44301">
        <ele>59.1</ele>
        <time>2025-02-11T15:02:33Z</time>
      </trkpt>
      <trkpt lat="47.78441" lon="-2.443">
        <ele>59.2</ele>
        <time>2025-02-11T15:02:34Z</time>
      </trkpt>
      <trkpt lat="47.78441" lon="-2.443">
        <ele>59.2</ele>
        <time>2025-02-11T15:02:35Z</time>
      </trkpt>
      <trkpt lat="47.7844" lon="-2.44301">
        <ele>59.3</ele>
        <time>2025-02-11T15:02:36Z</time>
      </trkpt>
      <trkpt lat="47.78439" lon="-2.44301">
        <ele>59.4</ele>
        <time>2025-02-11T15:02:37Z</time>
      </trkpt>
      <trkpt lat="47.78439" lon="-2.44303">
        <ele>59.5</ele>
        <time>2025-02-11T15:02:38Z</time>
      </trkpt>
      <trkpt lat="47.78438" lon="-2.44303">
        <ele>59.6</ele>
        <time>2025-02-11T15:02:39Z</time>
      </trkpt>
      <trkpt lat="47.78437" lon="-2.44301">
        <ele>59.6</ele>
        <time>2025-02-11T15:02:40Z</time>
      </trkpt>
      <trkpt lat="47.78436" lon="-2.44301">
        <ele>59.7</ele>
        <time>2025-02-11T15:02:41Z</time>
      </trkpt>
      <trkpt lat="47.78436" lon="-2.44299">
        <ele>59.7</ele>
        <time>2025-02-11T15:02:42Z</time>
      </trkpt>
      <trkpt lat="47.78435" lon="-2.44298">
        <ele>59.8</ele>
        <time>2025-02-11T15:02:43Z</time>
      </trkpt>
      <trkpt lat="47.78434" lon="-2.44297">
        <ele>59.8</ele>
        <time>2025-02-11T15:02:44Z</time>
      </trkpt>
      <trkpt lat="47.78434" lon="-2.44295">
        <ele>59.8</ele>
        <time>2025-02-11T15:02:45Z</time>
      </trkpt>
      <trkpt lat="47.78434" lon="-2.44295">
        <ele>59.8</ele>
        <time>2025-02-11T15:02:46Z</time>
      </trkpt>
      <trkpt lat="47.78434" lon="-2.44294">
        <ele>59.8</ele>
        <time>2025-02-11T15:02:47Z</time>
      </trkpt>
      <trkpt lat="47.78433" lon="-2.44293">
        <ele>59.8</ele>
        <time>2025-02-11T15:02:48Z</time>
      </trkpt>
      <trkpt lat="47.78432" lon="-2.44292">
        <ele>59.9</ele>
        <time>2025-02-11T15:02:49Z</time>
      </trkpt>
      <trkpt lat="47.78431" lon="-2.44291">
        <ele>59.9</ele>
        <time>2025-02-11T15:02:50Z</time>
      </trkpt>
      <trkpt lat="47.7843" lon="-2.44289">
        <ele>59.9</ele>
        <time>2025-02-11T15:02:51Z</time>
      </trkpt>
      <trkpt lat="47.7843" lon="-2.44288">
        <ele>60</ele>
        <time>2025-02-11T15:02:52Z</time>
      </trkpt>
      <trkpt lat="47.78429" lon="-2.44287">
        <ele>60</ele>
        <time>2025-02-11T15:02:53Z</time>
      </trkpt>
      <trkpt lat="47.78428" lon="-2.44285">
        <ele>60</ele>
        <time>2025-02-11T15:02:54Z</time>
      </trkpt>
      <trkpt lat="47.78426" lon="-2.44284">
        <ele>60.2</ele>
        <time>2025-02-11T15:02:55Z</time>
      </trkpt>
      <trkpt lat="47.78425" lon="-2.44283">
        <ele>60.3</ele>
        <time>2025-02-11T15:02:56Z</time>
      </trkpt>
      <trkpt lat="47.78425" lon="-2.44282">
        <ele>60.3</ele>
        <time>2025-02-11T15:02:57Z</time>
      </trkpt>
      <trkpt lat="47.78424" lon="-2.44281">
        <ele>60.4</ele>
        <time>2025-02-11T15:02:58Z</time>
      </trkpt>
      <trkpt lat="47.78423" lon="-2.4428">
        <ele>60.4</ele>
        <time>2025-02-11T15:02:59Z</time>
      </trkpt>
      <trkpt lat="47.78422" lon="-2.44278">
        <ele>60.4</ele>
        <time>2025-02-11T15:03:00Z</time>
      </trkpt>
      <trkpt lat="47.78422" lon="-2.44276">
        <ele>60.4</ele>
        <time>2025-02-11T15:03:01Z</time>
      </trkpt>
      <trkpt lat="47.78422" lon="-2.44274">
        <ele>60.3</ele>
        <time>2025-02-11T15:03:02Z</time>
      </trkpt>
      <trkpt lat="47.78421" lon="-2.44271">
        <ele>60.2</ele>
        <time>2025-02-11T15:03:03Z</time>
      </trkpt>
      <trkpt lat="47.78421" lon="-2.4427">
        <ele>60.2</ele>
        <time>2025-02-11T15:03:04Z</time>
      </trkpt>
      <trkpt lat="47.78421" lon="-2.44267">
        <ele>60.1</ele>
        <time>2025-02-11T15:03:05Z</time>
      </trkpt>
      <trkpt lat="47.78422" lon="-2.44265">
        <ele>59.9</ele>
        <time>2025-02-11T15:03:06Z</time>
      </trkpt>
      <trkpt lat="47.78422" lon="-2.44262">
        <ele>59.7</ele>
        <time>2025-02-11T15:03:07Z</time>
      </trkpt>
      <trkpt lat="47.78423" lon="-2.44261">
        <ele>59.6</ele>
        <time>2025-02-11T15:03:08Z</time>
      </trkpt>
      <trkpt lat="47.78423" lon="-2.44259">
        <ele>59.4</ele>
        <time>2025-02-11T15:03:09Z</time>
      </trkpt>
      <trkpt lat="47.78424" lon="-2.44257">
        <ele>59.3</ele>
        <time>2025-02-11T15:03:10Z</time>
      </trkpt>
      <trkpt lat="47.78424" lon="-2.44255">
        <ele>59.1</ele>
        <time>2025-02-11T15:03:11Z</time>
      </trkpt>
      <trkpt lat="47.78424" lon="-2.44253">
        <ele>59</ele>
        <time>2025-02-11T15:03:12Z</time>
      </trkpt>
      <trkpt lat="47.78424" lon="-2.44251">
        <ele>59</ele>
        <time>2025-02-11T15:03:13Z</time>
      </trkpt>
      <trkpt lat="47.78423" lon="-2.4425">
        <ele>59</ele>
        <time>2025-02-11T15:03:14Z</time>
      </trkpt>
      <trkpt lat="47.78423" lon="-2.44249">
        <ele>59</ele>
        <time>2025-02-11T15:03:15Z</time>
      </trkpt>
      <trkpt lat="47.78423" lon="-2.44247">
        <ele>58.9</ele>
        <time>2025-02-11T15:03:16Z</time>
      </trkpt>
      <trkpt lat="47.78423" lon="-2.44246">
        <ele>58.8</ele>
        <time>2025-02-11T15:03:17Z</time>
      </trkpt>
      <trkpt lat="47.78425" lon="-2.44248">
        <ele>58.6</ele>
        <time>2025-02-11T15:03:18Z</time>
      </trkpt>
      <trkpt lat="47.78427" lon="-2.4425">
        <ele>58.6</ele>
        <time>2025-02-11T15:03:19Z</time>
      </trkpt>
      <trkpt lat="47.78427" lon="-2.44251">
        <ele>58.6</ele>
        <time>2025-02-11T15:03:20Z</time>
      </trkpt>
      <trkpt lat="47.78428" lon="-2.44251">
        <ele>58.4</ele>
        <time>2025-02-11T15:03:21Z</time>
      </trkpt>
      <trkpt lat="47.78429" lon="-2.4425">
        <ele>58.2</ele>
        <time>2025-02-11T15:03:22Z</time>
      </trkpt>
      <trkpt lat="47.7843" lon="-2.44249">
        <ele>58</ele>
        <time>2025-02-11T15:03:23Z</time>
      </trkpt>
      <trkpt lat="47.7843" lon="-2.44248">
        <ele>57.8</ele>
        <time>2025-02-11T15:03:24Z</time>
      </trkpt>
      <trkpt lat="47.7843" lon="-2.44246">
        <ele>57.7</ele>
        <time>2025-02-11T15:03:25Z</time>
      </trkpt>
      <trkpt lat="47.78431" lon="-2.44245">
        <ele>57.4</ele>
        <time>2025-02-11T15:03:26Z</time>
      </trkpt>
      <trkpt lat="47.78432" lon="-2.44243">
        <ele>57.1</ele>
        <time>2025-02-11T15:03:27Z</time>
      </trkpt>
      <trkpt lat="47.78432" lon="-2.44241">
        <ele>56.9</ele>
        <time>2025-02-11T15:03:28Z</time>
      </trkpt>
      <trkpt lat="47.78432" lon="-2.44239">
        <ele>56.8</ele>
        <time>2025-02-11T15:03:29Z</time>
      </trkpt>
      <trkpt lat="47.78432" lon="-2.44238">
        <ele>56.7</ele>
        <time>2025-02-11T15:03:30Z</time>
      </trkpt>
      <trkpt lat="47.78431" lon="-2.44236">
        <ele>56.6</ele>
        <time>2025-02-11T15:03:31Z</time>
      </trkpt>
      <trkpt lat="47.78431" lon="-2.44234">
        <ele>56.6</ele>
        <time>2025-02-11T15:03:32Z</time>
      </trkpt>
      <trkpt lat="47.78429" lon="-2.44233">
        <ele>56.8</ele>
        <time>2025-02-11T15:03:33Z</time>
      </trkpt>
      <trkpt lat="47.78427" lon="-2.44232">
        <ele>57</ele>
        <time>2025-02-11T15:03:34Z</time>
      </trkpt>
      <trkpt lat="47.78426" lon="-2.44232">
        <ele>57.2</ele>
        <time>2025-02-11T15:03:35Z</time>
      </trkpt>
      <trkpt lat="47.78425" lon="-2.44231">
        <ele>57.3</ele>
        <time>2025-02-11T15:03:36Z</time>
      </trkpt>
      <trkpt lat="47.78424" lon="-2.4423">
        <ele>57.4</ele>
        <time>2025-02-11T15:03:37Z</time>
      </trkpt>
      <trkpt lat="47.78423" lon="-2.44229">
        <ele>57.5</ele>
        <time>2025-02-11T15:03:38Z</time>
      </trkpt>
      <trkpt lat="47.78422" lon="-2.44228">
        <ele>57.6</ele>
        <time>2025-02-11T15:03:39Z</time>
      </trkpt>
      <trkpt lat="47.78421" lon="-2.44227">
        <ele>57.6</ele>
        <time>2025-02-11T15:03:40Z</time>
      </trkpt>
      <trkpt lat="47.7842" lon="-2.44226">
        <ele>57.7</ele>
        <time>2025-02-11T15:03:41Z</time>
      </trkpt>
      <trkpt lat="47.78419" lon="-2.44224">
        <ele>57.7</ele>
        <time>2025-02-11T15:03:42Z</time>
      </trkpt>
      <trkpt lat="47.78418" lon="-2.44223">
        <ele>57.8</ele>
        <time>2025-02-11T15:03:43Z</time>
      </trkpt>
      <trkpt lat="47.78416" lon="-2.44222">
        <ele>58</ele>
        <time>2025-02-11T15:03:44Z</time>
      </trkpt>
      <trkpt lat="47.78415" lon="-2.44221">
        <ele>58.1</ele>
        <time>2025-02-11T15:03:45Z</time>
      </trkpt>
      <trkpt lat="47.78413" lon="-2.44218">
        <ele>58.3</ele>
        <time>2025-02-11T15:03:46Z</time>
      </trkpt>
      <trkpt lat="47.78411" lon="-2.44217">
        <ele>58.4</ele>
        <time>2025-02-11T15:03:47Z</time>
      </trkpt>
      <trkpt lat="47.7841" lon="-2.44217">
        <ele>58.6</ele>
        <time>2025-02-11T15:03:48Z</time>
      </trkpt>
      <trkpt lat="47.78408" lon="-2.44217">
        <ele>58.8</ele>
        <time>2025-02-11T15:03:49Z</time>
      </trkpt>
      <trkpt lat="47.78407" lon="-2.44215">
        <ele>58.8</ele>
        <time>2025-02-11T15:03:50Z</time>
      </trkpt>
      <trkpt lat="47.78406" lon="-2.44214">
        <ele>58.8</ele>
        <time>2025-02-11T15:03:51Z</time>
      </trkpt>
      <trkpt lat="47.78405" lon="-2.44212">
        <ele>58.8</ele>
        <time>2025-02-11T15:03:52Z</time>
      </trkpt>
      <trkpt lat="47.78404" lon="-2.44211">
        <ele>58.8</ele>
        <time>2025-02-11T15:03:53Z</time>
      </trkpt>
      <trkpt lat="47.78403" lon="-2.4421">
        <ele>58.9</ele>
        <time>2025-02-11T15:03:54Z</time>
      </trkpt>
      <trkpt lat="47.78401" lon="-2.4421">
        <ele>59.1</ele>
        <time>2025-02-11T15:03:55Z</time>
      </trkpt>
      <trkpt lat="47.784" lon="-2.44209">
        <ele>59.2</ele>
        <time>2025-02-11T15:03:56Z</time>
      </trkpt>
      <trkpt lat="47.78399" lon="-2.44208">
        <ele>59.2</ele>
        <time>2025-02-11T15:03:57Z</time>
      </trkpt>
      <trkpt lat="47.78398" lon="-2.44209">
        <ele>59.4</ele>
        <time>2025-02-11T15:03:58Z</time>
      </trkpt>
      <trkpt lat="47.78397" lon="-2.44208">
        <ele>59.5</ele>
        <time>2025-02-11T15:03:59Z</time>
      </trkpt>
      <trkpt lat="47.78396" lon="-2.44208">
        <ele>59.6</ele>
        <time>2025-02-11T15:04:00Z</time>
      </trkpt>
      <trkpt lat="47.78395" lon="-2.44207">
        <ele>59.6</ele>
        <time>2025-02-11T15:04:01Z</time>
      </trkpt>
      <trkpt lat="47.78395" lon="-2.44205">
        <ele>59.5</ele>
        <time>2025-02-11T15:04:02Z</time>
      </trkpt>
      <trkpt lat="47.78393" lon="-2.44204">
        <ele>59.5</ele>
        <time>2025-02-11T15:04:03Z</time>
      </trkpt>
      <trkpt lat="47.78392" lon="-2.44204">
        <ele>59.6</ele>
        <time>2025-02-11T15:04:04Z</time>
      </trkpt>
      <trkpt lat="47.78391" lon="-2.44203">
        <ele>59.6</ele>
        <time>2025-02-11T15:04:05Z</time>
      </trkpt>
      <trkpt lat="47.7839" lon="-2.44202">
        <ele>59.6</ele>
        <time>2025-02-11T15:04:06Z</time>
      </trkpt>
      <trkpt lat="47.78389" lon="-2.44201">
        <ele>59.7</ele>
        <time>2025-02-11T15:04:07Z</time>
      </trkpt>
      <trkpt lat="47.78388" lon="-2.442">
        <ele>59.7</ele>
        <time>2025-02-11T15:04:08Z</time>
      </trkpt>
      <trkpt lat="47.78388" lon="-2.442">
        <ele>59.6</ele>
        <time>2025-02-11T15:04:09Z</time>
      </trkpt>
      <trkpt lat="47.78387" lon="-2.44199">
        <ele>59.6</ele>
        <time>2025-02-11T15:04:10Z</time>
      </trkpt>
      <trkpt lat="47.78386" lon="-2.44197">
        <ele>59.4</ele>
        <time>2025-02-11T15:04:11Z</time>
      </trkpt>
      <trkpt lat="47.78385" lon="-2.44196">
        <ele>59.3</ele>
        <time>2025-02-11T15:04:12Z</time>
      </trkpt>
      <trkpt lat="47.78384" lon="-2.44196">
        <ele>59.3</ele>
        <time>2025-02-11T15:04:13Z</time>
      </trkpt>
      <trkpt lat="47.78383" lon="-2.44197">
        <ele>59.4</ele>
        <time>2025-02-11T15:04:14Z</time>
      </trkpt>
      <trkpt lat="47.78382" lon="-2.44197">
        <ele>59.5</ele>
        <time>2025-02-11T15:04:15Z</time>
      </trkpt>
      <trkpt lat="47.78381" lon="-2.44197">
        <ele>59.5</ele>
        <time>2025-02-11T15:04:16Z</time>
      </trkpt>
      <trkpt lat="47.7838" lon="-2.44197">
        <ele>59.5</ele>
        <time>2025-02-11T15:04:17Z</time>
      </trkpt>
      <trkpt lat="47.78379" lon="-2.44197">
        <ele>59.6</ele>
        <time>2025-02-11T15:04:18Z</time>
      </trkpt>
      <trkpt lat="47.78378" lon="-2.44197">
        <ele>59.7</ele>
        <time>2025-02-11T15:04:19Z</time>
      </trkpt>
      <trkpt lat="47.78377" lon="-2.44198">
        <ele>59.8</ele>
        <time>2025-02-11T15:04:20Z</time>
      </trkpt>
      <trkpt lat="47.78376" lon="-2.44198">
        <ele>59.8</ele>
        <time>2025-02-11T15:04:21Z</time>
      </trkpt>
      <trkpt lat="47.78375" lon="-2.44198">
        <ele>59.9</ele>
        <time>2025-02-11T15:04:22Z</time>
      </trkpt>
      <trkpt lat="47.78373" lon="-2.44197">
        <ele>59.9</ele>
        <time>2025-02-11T15:04:23Z</time>
      </trkpt>
      <trkpt lat="47.78373" lon="-2.44196">
        <ele>59.7</ele>
        <time>2025-02-11T15:04:24Z</time>
      </trkpt>
      <trkpt lat="47.78371" lon="-2.44195">
        <ele>59.7</ele>
        <time>2025-02-11T15:04:25Z</time>
      </trkpt>
      <trkpt lat="47.7837" lon="-2.44196">
        <ele>59.9</ele>
        <time>2025-02-11T15:04:26Z</time>
      </trkpt>
      <trkpt lat="47.78369" lon="-2.44197">
        <ele>60</ele>
        <time>2025-02-11T15:04:27Z</time>
      </trkpt>
      <trkpt lat="47.78369" lon="-2.44198">
        <ele>60.1</ele>
        <time>2025-02-11T15:04:28Z</time>
      </trkpt>
      <trkpt lat="47.78367" lon="-2.44197">
        <ele>60</ele>
        <time>2025-02-11T15:04:29Z</time>
      </trkpt>
      <trkpt lat="47.78366" lon="-2.44197">
        <ele>60.1</ele>
        <time>2025-02-11T15:04:30Z</time>
      </trkpt>
      <trkpt lat="47.78365" lon="-2.44197">
        <ele>60.2</ele>
        <time>2025-02-11T15:04:31Z</time>
      </trkpt>
      <trkpt lat="47.78364" lon="-2.44198">
        <ele>60.3</ele>
        <time>2025-02-11T15:04:32Z</time>
      </trkpt>
      <trkpt lat="47.78363" lon="-2.44198">
        <ele>60.3</ele>
        <time>2025-02-11T15:04:33Z</time>
      </trkpt>
      <trkpt lat="47.78361" lon="-2.44197">
        <ele>60.3</ele>
        <time>2025-02-11T15:04:34Z</time>
      </trkpt>
      <trkpt lat="47.7836" lon="-2.44197">
        <ele>60.3</ele>
        <time>2025-02-11T15:04:35Z</time>
      </trkpt>
      <trkpt lat="47.78359" lon="-2.44197">
        <ele>60.3</ele>
        <time>2025-02-11T15:04:36Z</time>
      </trkpt>
      <trkpt lat="47.78358" lon="-2.44197">
        <ele>60.3</ele>
        <time>2025-02-11T15:04:37Z</time>
      </trkpt>
      <trkpt lat="47.78357" lon="-2.44197">
        <ele>60.3</ele>
        <time>2025-02-11T15:04:38Z</time>
      </trkpt>
      <trkpt lat="47.78356" lon="-2.44196">
        <ele>60.2</ele>
        <time>2025-02-11T15:04:39Z</time>
      </trkpt>
      <trkpt lat="47.78355" lon="-2.44196">
        <ele>60.2</ele>
        <time>2025-02-11T15:04:40Z</time>
      </trkpt>
      <trkpt lat="47.78354" lon="-2.44195">
        <ele>60.1</ele>
        <time>2025-02-11T15:04:41Z</time>
      </trkpt>
      <trkpt lat="47.78353" lon="-2.44195">
        <ele>60.1</ele>
        <time>2025-02-11T15:04:42Z</time>
      </trkpt>
      <trkpt lat="47.78352" lon="-2.44196">
        <ele>60.1</ele>
        <time>2025-02-11T15:04:43Z</time>
      </trkpt>
      <trkpt lat="47.7835" lon="-2.44195">
        <ele>60.1</ele>
        <time>2025-02-11T15:04:44Z</time>
      </trkpt>
      <trkpt lat="47.78349" lon="-2.44194">
        <ele>60</ele>
        <time>2025-02-11T15:04:45Z</time>
      </trkpt>
      <trkpt lat="47.78349" lon="-2.44193">
        <ele>59.9</ele>
        <time>2025-02-11T15:04:46Z</time>
      </trkpt>
      <trkpt lat="47.78348" lon="-2.44193">
        <ele>59.9</ele>
        <time>2025-02-11T15:04:47Z</time>
      </trkpt>
      <trkpt lat="47.78347" lon="-2.44192">
        <ele>59.8</ele>
        <time>2025-02-11T15:04:48Z</time>
      </trkpt>
      <trkpt lat="47.78346" lon="-2.44192">
        <ele>59.8</ele>
        <time>2025-02-11T15:04:49Z</time>
      </trkpt>
      <trkpt lat="47.78345" lon="-2.44192">
        <ele>59.8</ele>
        <time>2025-02-11T15:04:50Z</time>
      </trkpt>
      <trkpt lat="47.78344" lon="-2.44191">
        <ele>59.7</ele>
        <time>2025-02-11T15:04:51Z</time>
      </trkpt>
      <trkpt lat="47.78343" lon="-2.4419">
        <ele>59.6</ele>
        <time>2025-02-11T15:04:52Z</time>
      </trkpt>
      <trkpt lat="47.78342" lon="-2.44189">
        <ele>59.5</ele>
        <time>2025-02-11T15:04:53Z</time>
      </trkpt>
      <trkpt lat="47.78342" lon="-2.44187">
        <ele>59.4</ele>
        <time>2025-02-11T15:04:54Z</time>
      </trkpt>
      <trkpt lat="47.78342" lon="-2.44186">
        <ele>59.3</ele>
        <time>2025-02-11T15:04:55Z</time>
      </trkpt>
      <trkpt lat="47.78341" lon="-2.44185">
        <ele>59.2</ele>
        <time>2025-02-11T15:04:56Z</time>
      </trkpt>
      <trkpt lat="47.78342" lon="-2.44185">
        <ele>59.2</ele>
        <time>2025-02-11T15:04:57Z</time>
      </trkpt>
      <trkpt lat="47.78341" lon="-2.44185">
        <ele>59.3</ele>
        <time>2025-02-11T15:04:58Z</time>
      </trkpt>
      <trkpt lat="47.78341" lon="-2.44186">
        <ele>59.3</ele>
        <time>2025-02-11T15:04:59Z</time>
      </trkpt>
      <trkpt lat="47.7834" lon="-2.44187">
        <ele>59.4</ele>
        <time>2025-02-11T15:05:00Z</time>
      </trkpt>
      <trkpt lat="47.7834" lon="-2.44187">
        <ele>59.4</ele>
        <time>2025-02-11T15:05:01Z</time>
      </trkpt>
      <trkpt lat="47.78341" lon="-2.44188">
        <ele>59.5</ele>
        <time>2025-02-11T15:05:02Z</time>
      </trkpt>
      <trkpt lat="47.78341" lon="-2.44189">
        <ele>59.6</ele>
        <time>2025-02-11T15:05:03Z</time>
      </trkpt>
      <trkpt lat="47.78341" lon="-2.4419">
        <ele>59.6</ele>
        <time>2025-02-11T15:05:04Z</time>
      </trkpt>
      <trkpt lat="47.78341" lon="-2.4419">
        <ele>59.6</ele>
        <time>2025-02-11T15:05:05Z</time>
      </trkpt>
      <trkpt lat="47.78341" lon="-2.44191">
        <ele>59.7</ele>
        <time>2025-02-11T15:05:06Z</time>
      </trkpt>
      <trkpt lat="47.78341" lon="-2.44191">
        <ele>59.7</ele>
        <time>2025-02-11T15:05:07Z</time>
      </trkpt>
      <trkpt lat="47.78342" lon="-2.44192">
        <ele>59.8</ele>
        <time>2025-02-11T15:05:08Z</time>
      </trkpt>
      <trkpt lat="47.78343" lon="-2.44191">
        <ele>59.7</ele>
        <time>2025-02-11T15:05:09Z</time>
      </trkpt>
      <trkpt lat="47.78343" lon="-2.44191">
        <ele>59.7</ele>
        <time>2025-02-11T15:05:10Z</time>
      </trkpt>
      <trkpt lat="47.78342" lon="-2.44191">
        <ele>59.7</ele>
        <time>2025-02-11T15:05:11Z</time>
      </trkpt>
      <trkpt lat="47.7834" lon="-2.44191">
        <ele>59.7</ele>
        <time>2025-02-11T15:05:12Z</time>
      </trkpt>
      <trkpt lat="47.78339" lon="-2.4419">
        <ele>59.7</ele>
        <time>2025-02-11T15:05:13Z</time>
      </trkpt>
      <trkpt lat="47.78339" lon="-2.4419">
        <ele>59.7</ele>
        <time>2025-02-11T15:05:14Z</time>
      </trkpt>
      <trkpt lat="47.78339" lon="-2.4419">
        <ele>59.7</ele>
        <time>2025-02-11T15:05:15Z</time>
      </trkpt>
      <trkpt lat="47.78339" lon="-2.44191">
        <ele>59.7</ele>
        <time>2025-02-11T15:05:16Z</time>
      </trkpt>
      <trkpt lat="47.78339" lon="-2.44191">
        <ele>59.7</ele>
        <time>2025-02-11T15:05:17Z</time>
      </trkpt>
      <trkpt lat="47.78339" lon="-2.44191">
        <ele>59.7</ele>
        <time>2025-02-11T15:05:18Z</time>
      </trkpt>
      <trkpt lat="47.78339" lon="-2.4419">
        <ele>59.7</ele>
        <time>2025-02-11T15:05:19Z</time>
      </trkpt>
      <trkpt lat="47.78339" lon="-2.4419">
        <ele>59.7</ele>
        <time>2025-02-11T15:05:20Z</time>
      </trkpt>
      <trkpt lat="47.78339" lon="-2.4419">
        <ele>59.7</ele>
        <time>2025-02-11T15:05:21Z</time>
      </trkpt>
      <trkpt lat="47.78339" lon="-2.4419">
        <ele>59.7</ele>
        <time>2025-02-11T15:05:22Z</time>
      </trkpt>
      <trkpt lat="47.78339" lon="-2.4419">
        <ele>59.6</ele>
        <time>2025-02-11T15:05:23Z</time>
      </trkpt>
      <trkpt lat="47.78339" lon="-2.4419">
        <ele>59.7</ele>
        <time>2025-02-11T15:05:24Z</time>
      </trkpt>
      <trkpt lat="47.78337" lon="-2.4419">
        <ele>59.6</ele>
        <time>2025-02-11T15:05:25Z</time>
      </trkpt>
      <trkpt lat="47.78336" lon="-2.4419">
        <ele>59.7</ele>
        <time>2025-02-11T15:05:26Z</time>
      </trkpt>
      <trkpt lat="47.78335" lon="-2.4419">
        <ele>59.7</ele>
        <time>2025-02-11T15:05:27Z</time>
      </trkpt>
      <trkpt lat="47.78334" lon="-2.44189">
        <ele>59.6</ele>
        <time>2025-02-11T15:05:28Z</time>
      </trkpt>
      <trkpt lat="47.78333" lon="-2.44188">
        <ele>59.5</ele>
        <time>2025-02-11T15:05:29Z</time>
      </trkpt>
      <trkpt lat="47.78332" lon="-2.44187">
        <ele>59.5</ele>
        <time>2025-02-11T15:05:30Z</time>
      </trkpt>
      <trkpt lat="47.78331" lon="-2.44186">
        <ele>59.4</ele>
        <time>2025-02-11T15:05:31Z</time>
      </trkpt>
      <trkpt lat="47.7833" lon="-2.44186">
        <ele>59.4</ele>
        <time>2025-02-11T15:05:32Z</time>
      </trkpt>
      <trkpt lat="47.78329" lon="-2.44185">
        <ele>59.4</ele>
        <time>2025-02-11T15:05:33Z</time>
      </trkpt>
      <trkpt lat="47.78328" lon="-2.44185">
        <ele>59.4</ele>
        <time>2025-02-11T15:05:34Z</time>
      </trkpt>
      <trkpt lat="47.78327" lon="-2.44185">
        <ele>59.4</ele>
        <time>2025-02-11T15:05:35Z</time>
      </trkpt>
      <trkpt lat="47.78326" lon="-2.44184">
        <ele>59.3</ele>
        <time>2025-02-11T15:05:36Z</time>
      </trkpt>
      <trkpt lat="47.78325" lon="-2.44183">
        <ele>59.3</ele>
        <time>2025-02-11T15:05:37Z</time>
      </trkpt>
      <trkpt lat="47.78324" lon="-2.44184">
        <ele>59.3</ele>
        <time>2025-02-11T15:05:38Z</time>
      </trkpt>
      <trkpt lat="47.78324" lon="-2.44184">
        <ele>59.4</ele>
        <time>2025-02-11T15:05:39Z</time>
      </trkpt>
      <trkpt lat="47.78322" lon="-2.44183">
        <ele>59.3</ele>
        <time>2025-02-11T15:05:40Z</time>
      </trkpt>
      <trkpt lat="47.78322" lon="-2.44182">
        <ele>59.3</ele>
        <time>2025-02-11T15:05:41Z</time>
      </trkpt>
      <trkpt lat="47.78321" lon="-2.44182">
        <ele>59.3</ele>
        <time>2025-02-11T15:05:42Z</time>
      </trkpt>
      <trkpt lat="47.7832" lon="-2.44182">
        <ele>59.3</ele>
        <time>2025-02-11T15:05:43Z</time>
      </trkpt>
      <trkpt lat="47.78319" lon="-2.44181">
        <ele>59.3</ele>
        <time>2025-02-11T15:05:44Z</time>
      </trkpt>
      <trkpt lat="47.78318" lon="-2.4418">
        <ele>59.2</ele>
        <time>2025-02-11T15:05:45Z</time>
      </trkpt>
      <trkpt lat="47.78317" lon="-2.44179">
        <ele>59.2</ele>
        <time>2025-02-11T15:05:46Z</time>
      </trkpt>
      <trkpt lat="47.78316" lon="-2.44179">
        <ele>59.2</ele>
        <time>2025-02-11T15:05:47Z</time>
      </trkpt>
      <trkpt lat="47.78315" lon="-2.44179">
        <ele>59.3</ele>
        <time>2025-02-11T15:05:48Z</time>
      </trkpt>
      <trkpt lat="47.78314" lon="-2.44179">
        <ele>59.3</ele>
        <time>2025-02-11T15:05:49Z</time>
      </trkpt>
      <trkpt lat="47.78313" lon="-2.44178">
        <ele>59.3</ele>
        <time>2025-02-11T15:05:50Z</time>
      </trkpt>
      <trkpt lat="47.78312" lon="-2.44177">
        <ele>59.2</ele>
        <time>2025-02-11T15:05:51Z</time>
      </trkpt>
      <trkpt lat="47.78311" lon="-2.44176">
        <ele>59.2</ele>
        <time>2025-02-11T15:05:52Z</time>
      </trkpt>
      <trkpt lat="47.7831" lon="-2.44176">
        <ele>59.2</ele>
        <time>2025-02-11T15:05:53Z</time>
      </trkpt>
      <trkpt lat="47.78309" lon="-2.44174">
        <ele>59.2</ele>
        <time>2025-02-11T15:05:54Z</time>
      </trkpt>
      <trkpt lat="47.78309" lon="-2.44173">
        <ele>59.2</ele>
        <time>2025-02-11T15:05:55Z</time>
      </trkpt>
      <trkpt lat="47.78308" lon="-2.44172">
        <ele>59.1</ele>
        <time>2025-02-11T15:05:56Z</time>
      </trkpt>
      <trkpt lat="47.78307" lon="-2.44171">
        <ele>59.1</ele>
        <time>2025-02-11T15:05:57Z</time>
      </trkpt>
      <trkpt lat="47.78306" lon="-2.44171">
        <ele>59.1</ele>
        <time>2025-02-11T15:05:58Z</time>
      </trkpt>
      <trkpt lat="47.78305" lon="-2.4417">
        <ele>59.1</ele>
        <time>2025-02-11T15:05:59Z</time>
      </trkpt>
      <trkpt lat="47.78304" lon="-2.4417">
        <ele>59.1</ele>
        <time>2025-02-11T15:06:00Z</time>
      </trkpt>
      <trkpt lat="47.78303" lon="-2.44169">
        <ele>59</ele>
        <time>2025-02-11T15:06:01Z</time>
      </trkpt>
      <trkpt lat="47.78303" lon="-2.44168">
        <ele>58.9</ele>
        <time>2025-02-11T15:06:02Z</time>
      </trkpt>
      <trkpt lat="47.78302" lon="-2.44166">
        <ele>58.9</ele>
        <time>2025-02-11T15:06:03Z</time>
      </trkpt>
      <trkpt lat="47.78301" lon="-2.44166">
        <ele>58.8</ele>
        <time>2025-02-11T15:06:04Z</time>
      </trkpt>
      <trkpt lat="47.783" lon="-2.44165">
        <ele>58.7</ele>
        <time>2025-02-11T15:06:05Z</time>
      </trkpt>
      <trkpt lat="47.78299" lon="-2.44165">
        <ele>58.7</ele>
        <time>2025-02-11T15:06:06Z</time>
      </trkpt>
      <trkpt lat="47.78298" lon="-2.44164">
        <ele>58.6</ele>
        <time>2025-02-11T15:06:07Z</time>
      </trkpt>
      <trkpt lat="47.78297" lon="-2.44164">
        <ele>58.6</ele>
        <time>2025-02-11T15:06:08Z</time>
      </trkpt>
      <trkpt lat="47.78296" lon="-2.44163">
        <ele>58.5</ele>
        <time>2025-02-11T15:06:09Z</time>
      </trkpt>
      <trkpt lat="47.78296" lon="-2.44163">
        <ele>58.5</ele>
        <time>2025-02-11T15:06:10Z</time>
      </trkpt>
      <trkpt lat="47.78295" lon="-2.44162">
        <ele>58.4</ele>
        <time>2025-02-11T15:06:11Z</time>
      </trkpt>
      <trkpt lat="47.78294" lon="-2.44162">
        <ele>58.4</ele>
        <time>2025-02-11T15:06:12Z</time>
      </trkpt>
      <trkpt lat="47.78293" lon="-2.44162">
        <ele>58.4</ele>
        <time>2025-02-11T15:06:13Z</time>
      </trkpt>
      <trkpt lat="47.78292" lon="-2.44162">
        <ele>58.3</ele>
        <time>2025-02-11T15:06:14Z</time>
      </trkpt>
      <trkpt lat="47.78292" lon="-2.44162">
        <ele>58.3</ele>
        <time>2025-02-11T15:06:15Z</time>
      </trkpt>
      <trkpt lat="47.78291" lon="-2.44161">
        <ele>58.3</ele>
        <time>2025-02-11T15:06:16Z</time>
      </trkpt>
      <trkpt lat="47.7829" lon="-2.4416">
        <ele>58.2</ele>
        <time>2025-02-11T15:06:17Z</time>
      </trkpt>
      <trkpt lat="47.78289" lon="-2.4416">
        <ele>58.2</ele>
        <time>2025-02-11T15:06:18Z</time>
      </trkpt>
      <trkpt lat="47.78288" lon="-2.44159">
        <ele>58.1</ele>
        <time>2025-02-11T15:06:19Z</time>
      </trkpt>
      <trkpt lat="47.78287" lon="-2.44159">
        <ele>58.1</ele>
        <time>2025-02-11T15:06:20Z</time>
      </trkpt>
      <trkpt lat="47.78286" lon="-2.44158">
        <ele>58</ele>
        <time>2025-02-11T15:06:21Z</time>
      </trkpt>
      <trkpt lat="47.78285" lon="-2.44159">
        <ele>58</ele>
        <time>2025-02-11T15:06:22Z</time>
      </trkpt>
      <trkpt lat="47.78284" lon="-2.44159">
        <ele>57.9</ele>
        <time>2025-02-11T15:06:23Z</time>
      </trkpt>
      <trkpt lat="47.78283" lon="-2.44159">
        <ele>57.9</ele>
        <time>2025-02-11T15:06:24Z</time>
      </trkpt>
      <trkpt lat="47.78282" lon="-2.44159">
        <ele>57.9</ele>
        <time>2025-02-11T15:06:25Z</time>
      </trkpt>
      <trkpt lat="47.78281" lon="-2.44159">
        <ele>57.9</ele>
        <time>2025-02-11T15:06:26Z</time>
      </trkpt>
      <trkpt lat="47.7828" lon="-2.44159">
        <ele>57.8</ele>
        <time>2025-02-11T15:06:27Z</time>
      </trkpt>
      <trkpt lat="47.78279" lon="-2.44159">
        <ele>57.8</ele>
        <time>2025-02-11T15:06:28Z</time>
      </trkpt>
      <trkpt lat="47.78278" lon="-2.44159">
        <ele>57.7</ele>
        <time>2025-02-11T15:06:29Z</time>
      </trkpt>
      <trkpt lat="47.78278" lon="-2.44158">
        <ele>57.7</ele>
        <time>2025-02-11T15:06:30Z</time>
      </trkpt>
      <trkpt lat="47.78277" lon="-2.44156">
        <ele>57.6</ele>
        <time>2025-02-11T15:06:31Z</time>
      </trkpt>
      <trkpt lat="47.78276" lon="-2.44155">
        <ele>57.6</ele>
        <time>2025-02-11T15:06:32Z</time>
      </trkpt>
      <trkpt lat="47.78275" lon="-2.44154">
        <ele>57.6</ele>
        <time>2025-02-11T15:06:33Z</time>
      </trkpt>
      <trkpt lat="47.78275" lon="-2.44153">
        <ele>57.6</ele>
        <time>2025-02-11T15:06:34Z</time>
      </trkpt>
      <trkpt lat="47.78274" lon="-2.44153">
        <ele>57.6</ele>
        <time>2025-02-11T15:06:35Z</time>
      </trkpt>
      <trkpt lat="47.78273" lon="-2.44152">
        <ele>57.6</ele>
        <time>2025-02-11T15:06:36Z</time>
      </trkpt>
      <trkpt lat="47.78272" lon="-2.44152">
        <ele>57.6</ele>
        <time>2025-02-11T15:06:37Z</time>
      </trkpt>
      <trkpt lat="47.78271" lon="-2.44152">
        <ele>57.6</ele>
        <time>2025-02-11T15:06:38Z</time>
      </trkpt>
      <trkpt lat="47.7827" lon="-2.44151">
        <ele>57.6</ele>
        <time>2025-02-11T15:06:39Z</time>
      </trkpt>
      <trkpt lat="47.78269" lon="-2.44151">
        <ele>57.6</ele>
        <time>2025-02-11T15:06:40Z</time>
      </trkpt>
      <trkpt lat="47.78268" lon="-2.4415">
        <ele>57.6</ele>
        <time>2025-02-11T15:06:41Z</time>
      </trkpt>
      <trkpt lat="47.78267" lon="-2.44149">
        <ele>57.6</ele>
        <time>2025-02-11T15:06:42Z</time>
      </trkpt>
      <trkpt lat="47.78266" lon="-2.44149">
        <ele>57.6</ele>
        <time>2025-02-11T15:06:43Z</time>
      </trkpt>
      <trkpt lat="47.78265" lon="-2.44148">
        <ele>57.6</ele>
        <time>2025-02-11T15:06:44Z</time>
      </trkpt>
      <trkpt lat="47.78264" lon="-2.44147">
        <ele>57.6</ele>
        <time>2025-02-11T15:06:45Z</time>
      </trkpt>
      <trkpt lat="47.78264" lon="-2.44145">
        <ele>57.6</ele>
        <time>2025-02-11T15:06:46Z</time>
      </trkpt>
      <trkpt lat="47.78263" lon="-2.44144">
        <ele>57.6</ele>
        <time>2025-02-11T15:06:47Z</time>
      </trkpt>
      <trkpt lat="47.78262" lon="-2.44143">
        <ele>57.6</ele>
        <time>2025-02-11T15:06:48Z</time>
      </trkpt>
      <trkpt lat="47.78262" lon="-2.44142">
        <ele>57.6</ele>
        <time>2025-02-11T15:06:49Z</time>
      </trkpt>
      <trkpt lat="47.78261" lon="-2.4414">
        <ele>57.6</ele>
        <time>2025-02-11T15:06:50Z</time>
      </trkpt>
      <trkpt lat="47.7826" lon="-2.44139">
        <ele>57.6</ele>
        <time>2025-02-11T15:06:51Z</time>
      </trkpt>
      <trkpt lat="47.78259" lon="-2.44139">
        <ele>57.7</ele>
        <time>2025-02-11T15:06:52Z</time>
      </trkpt>
      <trkpt lat="47.78258" lon="-2.44137">
        <ele>57.6</ele>
        <time>2025-02-11T15:06:53Z</time>
      </trkpt>
      <trkpt lat="47.78258" lon="-2.44135">
        <ele>57.6</ele>
        <time>2025-02-11T15:06:54Z</time>
      </trkpt>
      <trkpt lat="47.78257" lon="-2.44134">
        <ele>57.5</ele>
        <time>2025-02-11T15:06:55Z</time>
      </trkpt>
      <trkpt lat="47.78256" lon="-2.44133">
        <ele>57.5</ele>
        <time>2025-02-11T15:06:56Z</time>
      </trkpt>
      <trkpt lat="47.78256" lon="-2.44132">
        <ele>57.5</ele>
        <time>2025-02-11T15:06:57Z</time>
      </trkpt>
      <trkpt lat="47.78255" lon="-2.4413">
        <ele>57.5</ele>
        <time>2025-02-11T15:06:58Z</time>
      </trkpt>
      <trkpt lat="47.78254" lon="-2.44129">
        <ele>57.5</ele>
        <time>2025-02-11T15:06:59Z</time>
      </trkpt>
      <trkpt lat="47.78253" lon="-2.44128">
        <ele>57.4</ele>
        <time>2025-02-11T15:07:00Z</time>
      </trkpt>
      <trkpt lat="47.78253" lon="-2.44127">
        <ele>57.4</ele>
        <time>2025-02-11T15:07:01Z</time>
      </trkpt>
      <trkpt lat="47.78252" lon="-2.44125">
        <ele>57.4</ele>
        <time>2025-02-11T15:07:02Z</time>
      </trkpt>
      <trkpt lat="47.78252" lon="-2.44124">
        <ele>57.4</ele>
        <time>2025-02-11T15:07:03Z</time>
      </trkpt>
      <trkpt lat="47.78251" lon="-2.44123">
        <ele>57.4</ele>
        <time>2025-02-11T15:07:04Z</time>
      </trkpt>
      <trkpt lat="47.7825" lon="-2.44122">
        <ele>57.4</ele>
        <time>2025-02-11T15:07:05Z</time>
      </trkpt>
      <trkpt lat="47.7825" lon="-2.44121">
        <ele>57.4</ele>
        <time>2025-02-11T15:07:06Z</time>
      </trkpt>
      <trkpt lat="47.78249" lon="-2.4412">
        <ele>57.4</ele>
        <time>2025-02-11T15:07:07Z</time>
      </trkpt>
      <trkpt lat="47.78248" lon="-2.44119">
        <ele>57.5</ele>
        <time>2025-02-11T15:07:08Z</time>
      </trkpt>
      <trkpt lat="47.78247" lon="-2.44118">
        <ele>57.5</ele>
        <time>2025-02-11T15:07:09Z</time>
      </trkpt>
      <trkpt lat="47.78247" lon="-2.44117">
        <ele>57.6</ele>
        <time>2025-02-11T15:07:10Z</time>
      </trkpt>
      <trkpt lat="47.78245" lon="-2.44116">
        <ele>57.6</ele>
        <time>2025-02-11T15:07:11Z</time>
      </trkpt>
      <trkpt lat="47.78245" lon="-2.44115">
        <ele>57.7</ele>
        <time>2025-02-11T15:07:12Z</time>
      </trkpt>
      <trkpt lat="47.78244" lon="-2.44114">
        <ele>57.8</ele>
        <time>2025-02-11T15:07:13Z</time>
      </trkpt>
      <trkpt lat="47.78243" lon="-2.44112">
        <ele>57.8</ele>
        <time>2025-02-11T15:07:14Z</time>
      </trkpt>
      <trkpt lat="47.78242" lon="-2.44111">
        <ele>57.8</ele>
        <time>2025-02-11T15:07:15Z</time>
      </trkpt>
      <trkpt lat="47.78242" lon="-2.44109">
        <ele>57.8</ele>
        <time>2025-02-11T15:07:16Z</time>
      </trkpt>
      <trkpt lat="47.78241" lon="-2.44108">
        <ele>57.9</ele>
        <time>2025-02-11T15:07:17Z</time>
      </trkpt>
      <trkpt lat="47.7824" lon="-2.44107">
        <ele>57.9</ele>
        <time>2025-02-11T15:07:18Z</time>
      </trkpt>
      <trkpt lat="47.7824" lon="-2.44105">
        <ele>57.9</ele>
        <time>2025-02-11T15:07:19Z</time>
      </trkpt>
      <trkpt lat="47.78239" lon="-2.44104">
        <ele>57.9</ele>
        <time>2025-02-11T15:07:20Z</time>
      </trkpt>
      <trkpt lat="47.78239" lon="-2.44102">
        <ele>57.9</ele>
        <time>2025-02-11T15:07:21Z</time>
      </trkpt>
      <trkpt lat="47.78238" lon="-2.44101">
        <ele>57.9</ele>
        <time>2025-02-11T15:07:22Z</time>
      </trkpt>
      <trkpt lat="47.78237" lon="-2.441">
        <ele>58</ele>
        <time>2025-02-11T15:07:23Z</time>
      </trkpt>
      <trkpt lat="47.78236" lon="-2.44099">
        <ele>58.1</ele>
        <time>2025-02-11T15:07:24Z</time>
      </trkpt>
      <trkpt lat="47.78235" lon="-2.44099">
        <ele>58.1</ele>
        <time>2025-02-11T15:07:25Z</time>
      </trkpt>
      <trkpt lat="47.78235" lon="-2.44098">
        <ele>58.2</ele>
        <time>2025-02-11T15:07:26Z</time>
      </trkpt>
      <trkpt lat="47.78234" lon="-2.44096">
        <ele>58.2</ele>
        <time>2025-02-11T15:07:27Z</time>
      </trkpt>
      <trkpt lat="47.78233" lon="-2.44095">
        <ele>58.2</ele>
        <time>2025-02-11T15:07:28Z</time>
      </trkpt>
      <trkpt lat="47.78233" lon="-2.44094">
        <ele>58.3</ele>
        <time>2025-02-11T15:07:29Z</time>
      </trkpt>
      <trkpt lat="47.78232" lon="-2.44093">
        <ele>58.3</ele>
        <time>2025-02-11T15:07:30Z</time>
      </trkpt>
      <trkpt lat="47.78232" lon="-2.44092">
        <ele>58.3</ele>
        <time>2025-02-11T15:07:31Z</time>
      </trkpt>
      <trkpt lat="47.78231" lon="-2.44091">
        <ele>58.3</ele>
        <time>2025-02-11T15:07:32Z</time>
      </trkpt>
      <trkpt lat="47.78231" lon="-2.44089">
        <ele>58.3</ele>
        <time>2025-02-11T15:07:33Z</time>
      </trkpt>
      <trkpt lat="47.7823" lon="-2.44088">
        <ele>58.4</ele>
        <time>2025-02-11T15:07:34Z</time>
      </trkpt>
      <trkpt lat="47.78229" lon="-2.44087">
        <ele>58.4</ele>
        <time>2025-02-11T15:07:35Z</time>
      </trkpt>
      <trkpt lat="47.78229" lon="-2.44085">
        <ele>58.4</ele>
        <time>2025-02-11T15:07:36Z</time>
      </trkpt>
      <trkpt lat="47.78228" lon="-2.44084">
        <ele>58.3</ele>
        <time>2025-02-11T15:07:37Z</time>
      </trkpt>
      <trkpt lat="47.78228" lon="-2.44082">
        <ele>58.4</ele>
        <time>2025-02-11T15:07:38Z</time>
      </trkpt>
      <trkpt lat="47.78227" lon="-2.44081">
        <ele>58.6</ele>
        <time>2025-02-11T15:07:39Z</time>
      </trkpt>
      <trkpt lat="47.78226" lon="-2.4408">
        <ele>58.7</ele>
        <time>2025-02-11T15:07:40Z</time>
      </trkpt>
      <trkpt lat="47.78226" lon="-2.44079">
        <ele>58.7</ele>
        <time>2025-02-11T15:07:41Z</time>
      </trkpt>
      <trkpt lat="47.78226" lon="-2.44077">
        <ele>58.8</ele>
        <time>2025-02-11T15:07:42Z</time>
      </trkpt>
      <trkpt lat="47.78225" lon="-2.44076">
        <ele>58.9</ele>
        <time>2025-02-11T15:07:43Z</time>
      </trkpt>
      <trkpt lat="47.78225" lon="-2.44075">
        <ele>59.1</ele>
        <time>2025-02-11T15:07:44Z</time>
      </trkpt>
      <trkpt lat="47.78224" lon="-2.44073">
        <ele>59.2</ele>
        <time>2025-02-11T15:07:45Z</time>
      </trkpt>
      <trkpt lat="47.78223" lon="-2.44072">
        <ele>59.3</ele>
        <time>2025-02-11T15:07:46Z</time>
      </trkpt>
      <trkpt lat="47.78223" lon="-2.44071">
        <ele>59.4</ele>
        <time>2025-02-11T15:07:47Z</time>
      </trkpt>
      <trkpt lat="47.78222" lon="-2.44069">
        <ele>59.5</ele>
        <time>2025-02-11T15:07:48Z</time>
      </trkpt>
      <trkpt lat="47.78222" lon="-2.44068">
        <ele>59.6</ele>
        <time>2025-02-11T15:07:49Z</time>
      </trkpt>
      <trkpt lat="47.78221" lon="-2.44067">
        <ele>59.7</ele>
        <time>2025-02-11T15:07:50Z</time>
      </trkpt>
      <trkpt lat="47.78221" lon="-2.44065">
        <ele>59.8</ele>
        <time>2025-02-11T15:07:51Z</time>
      </trkpt>
      <trkpt lat="47.78221" lon="-2.44064">
        <ele>59.9</ele>
        <time>2025-02-11T15:07:52Z</time>
      </trkpt>
      <trkpt lat="47.7822" lon="-2.44063">
        <ele>60</ele>
        <time>2025-02-11T15:07:53Z</time>
      </trkpt>
      <trkpt lat="47.7822" lon="-2.44061">
        <ele>60.1</ele>
        <time>2025-02-11T15:07:54Z</time>
      </trkpt>
      <trkpt lat="47.78219" lon="-2.4406">
        <ele>60.2</ele>
        <time>2025-02-11T15:07:55Z</time>
      </trkpt>
      <trkpt lat="47.78219" lon="-2.44058">
        <ele>60.3</ele>
        <time>2025-02-11T15:07:56Z</time>
      </trkpt>
      <trkpt lat="47.78219" lon="-2.44057">
        <ele>60.3</ele>
        <time>2025-02-11T15:07:57Z</time>
      </trkpt>
      <trkpt lat="47.78218" lon="-2.44055">
        <ele>60.4</ele>
        <time>2025-02-11T15:07:58Z</time>
      </trkpt>
      <trkpt lat="47.78218" lon="-2.44054">
        <ele>60.5</ele>
        <time>2025-02-11T15:07:59Z</time>
      </trkpt>
      <trkpt lat="47.78218" lon="-2.44052">
        <ele>60.7</ele>
        <time>2025-02-11T15:08:00Z</time>
      </trkpt>
      <trkpt lat="47.78218" lon="-2.44051">
        <ele>60.9</ele>
        <time>2025-02-11T15:08:01Z</time>
      </trkpt>
      <trkpt lat="47.78218" lon="-2.44049">
        <ele>61</ele>
        <time>2025-02-11T15:08:02Z</time>
      </trkpt>
      <trkpt lat="47.78217" lon="-2.44047">
        <ele>61.1</ele>
        <time>2025-02-11T15:08:03Z</time>
      </trkpt>
      <trkpt lat="47.78217" lon="-2.44046">
        <ele>61.2</ele>
        <time>2025-02-11T15:08:04Z</time>
      </trkpt>
      <trkpt lat="47.78217" lon="-2.44044">
        <ele>61.3</ele>
        <time>2025-02-11T15:08:05Z</time>
      </trkpt>
      <trkpt lat="47.78217" lon="-2.44043">
        <ele>61.4</ele>
        <time>2025-02-11T15:08:06Z</time>
      </trkpt>
      <trkpt lat="47.78217" lon="-2.44042">
        <ele>61.6</ele>
        <time>2025-02-11T15:08:07Z</time>
      </trkpt>
      <trkpt lat="47.78217" lon="-2.44041">
        <ele>61.7</ele>
        <time>2025-02-11T15:08:08Z</time>
      </trkpt>
      <trkpt lat="47.78217" lon="-2.44039">
        <ele>61.8</ele>
        <time>2025-02-11T15:08:09Z</time>
      </trkpt>
      <trkpt lat="47.78216" lon="-2.44038">
        <ele>61.9</ele>
        <time>2025-02-11T15:08:10Z</time>
      </trkpt>
      <trkpt lat="47.78216" lon="-2.44037">
        <ele>62</ele>
        <time>2025-02-11T15:08:11Z</time>
      </trkpt>
      <trkpt lat="47.78216" lon="-2.44035">
        <ele>62.1</ele>
        <time>2025-02-11T15:08:12Z</time>
      </trkpt>
      <trkpt lat="47.78216" lon="-2.44034">
        <ele>62.2</ele>
        <time>2025-02-11T15:08:13Z</time>
      </trkpt>
      <trkpt lat="47.78217" lon="-2.44033">
        <ele>62.3</ele>
        <time>2025-02-11T15:08:14Z</time>
      </trkpt>
      <trkpt lat="47.78216" lon="-2.44032">
        <ele>62.4</ele>
        <time>2025-02-11T15:08:15Z</time>
      </trkpt>
      <trkpt lat="47.78216" lon="-2.44031">
        <ele>62.5</ele>
        <time>2025-02-11T15:08:16Z</time>
      </trkpt>
      <trkpt lat="47.78215" lon="-2.4403">
        <ele>62.6</ele>
        <time>2025-02-11T15:08:17Z</time>
      </trkpt>
      <trkpt lat="47.78214" lon="-2.44029">
        <ele>62.8</ele>
        <time>2025-02-11T15:08:18Z</time>
      </trkpt>
      <trkpt lat="47.78214" lon="-2.44028">
        <ele>62.9</ele>
        <time>2025-02-11T15:08:19Z</time>
      </trkpt>
      <trkpt lat="47.78213" lon="-2.44027">
        <ele>63</ele>
        <time>2025-02-11T15:08:20Z</time>
      </trkpt>
      <trkpt lat="47.78213" lon="-2.44025">
        <ele>63.1</ele>
        <time>2025-02-11T15:08:21Z</time>
      </trkpt>
      <trkpt lat="47.78212" lon="-2.44024">
        <ele>63.3</ele>
        <time>2025-02-11T15:08:22Z</time>
      </trkpt>
      <trkpt lat="47.78212" lon="-2.44023">
        <ele>63.4</ele>
        <time>2025-02-11T15:08:23Z</time>
      </trkpt>
      <trkpt lat="47.78211" lon="-2.44022">
        <ele>63.5</ele>
        <time>2025-02-11T15:08:24Z</time>
      </trkpt>
      <trkpt lat="47.78211" lon="-2.4402">
        <ele>63.6</ele>
        <time>2025-02-11T15:08:25Z</time>
      </trkpt>
      <trkpt lat="47.7821" lon="-2.44019">
        <ele>63.7</ele>
        <time>2025-02-11T15:08:26Z</time>
      </trkpt>
      <trkpt lat="47.7821" lon="-2.44018">
        <ele>63.8</ele>
        <time>2025-02-11T15:08:27Z</time>
      </trkpt>
      <trkpt lat="47.7821" lon="-2.44017">
        <ele>63.9</ele>
        <time>2025-02-11T15:08:28Z</time>
      </trkpt>
      <trkpt lat="47.78209" lon="-2.44016">
        <ele>64</ele>
        <time>2025-02-11T15:08:29Z</time>
      </trkpt>
      <trkpt lat="47.78209" lon="-2.44014">
        <ele>64.1</ele>
        <time>2025-02-11T15:08:30Z</time>
      </trkpt>
      <trkpt lat="47.78208" lon="-2.44013">
        <ele>64.3</ele>
        <time>2025-02-11T15:08:31Z</time>
      </trkpt>
      <trkpt lat="47.78208" lon="-2.44012">
        <ele>64.4</ele>
        <time>2025-02-11T15:08:32Z</time>
      </trkpt>
      <trkpt lat="47.78207" lon="-2.44011">
        <ele>64.6</ele>
        <time>2025-02-11T15:08:33Z</time>
      </trkpt>
      <trkpt lat="47.78206" lon="-2.4401">
        <ele>64.7</ele>
        <time>2025-02-11T15:08:34Z</time>
      </trkpt>
      <trkpt lat="47.78206" lon="-2.44009">
        <ele>64.9</ele>
        <time>2025-02-11T15:08:35Z</time>
      </trkpt>
      <trkpt lat="47.78206" lon="-2.44007">
        <ele>65</ele>
        <time>2025-02-11T15:08:36Z</time>
      </trkpt>
      <trkpt lat="47.78205" lon="-2.44006">
        <ele>65.1</ele>
        <time>2025-02-11T15:08:37Z</time>
      </trkpt>
      <trkpt lat="47.78205" lon="-2.44005">
        <ele>65.2</ele>
        <time>2025-02-11T15:08:38Z</time>
      </trkpt>
      <trkpt lat="47.78204" lon="-2.44003">
        <ele>65.4</ele>
        <time>2025-02-11T15:08:39Z</time>
      </trkpt>
      <trkpt lat="47.78204" lon="-2.44002">
        <ele>65.5</ele>
        <time>2025-02-11T15:08:40Z</time>
      </trkpt>
      <trkpt lat="47.78203" lon="-2.44001">
        <ele>65.7</ele>
        <time>2025-02-11T15:08:41Z</time>
      </trkpt>
      <trkpt lat="47.78203" lon="-2.44">
        <ele>65.8</ele>
        <time>2025-02-11T15:08:42Z</time>
      </trkpt>
      <trkpt lat="47.78202" lon="-2.43999">
        <ele>66</ele>
        <time>2025-02-11T15:08:43Z</time>
      </trkpt>
      <trkpt lat="47.78202" lon="-2.43998">
        <ele>66.1</ele>
        <time>2025-02-11T15:08:44Z</time>
      </trkpt>
      <trkpt lat="47.78201" lon="-2.43997">
        <ele>66.3</ele>
        <time>2025-02-11T15:08:45Z</time>
      </trkpt>
      <trkpt lat="47.782" lon="-2.43997">
        <ele>66.5</ele>
        <time>2025-02-11T15:08:46Z</time>
      </trkpt>
      <trkpt lat="47.78199" lon="-2.43996">
        <ele>66.6</ele>
        <time>2025-02-11T15:08:47Z</time>
      </trkpt>
      <trkpt lat="47.78198" lon="-2.43996">
        <ele>66.8</ele>
        <time>2025-02-11T15:08:48Z</time>
      </trkpt>
      <trkpt lat="47.78197" lon="-2.43996">
        <ele>67</ele>
        <time>2025-02-11T15:08:49Z</time>
      </trkpt>
      <trkpt lat="47.78196" lon="-2.43995">
        <ele>67.1</ele>
        <time>2025-02-11T15:08:50Z</time>
      </trkpt>
      <trkpt lat="47.78195" lon="-2.43995">
        <ele>67.3</ele>
        <time>2025-02-11T15:08:51Z</time>
      </trkpt>
      <trkpt lat="47.78194" lon="-2.43995">
        <ele>67.4</ele>
        <time>2025-02-11T15:08:52Z</time>
      </trkpt>
      <trkpt lat="47.78193" lon="-2.43995">
        <ele>67.4</ele>
        <time>2025-02-11T15:08:53Z</time>
      </trkpt>
      <trkpt lat="47.78192" lon="-2.43995">
        <ele>67.5</ele>
        <time>2025-02-11T15:08:54Z</time>
      </trkpt>
      <trkpt lat="47.78192" lon="-2.43994">
        <ele>67.5</ele>
        <time>2025-02-11T15:08:55Z</time>
      </trkpt>
      <trkpt lat="47.78191" lon="-2.43994">
        <ele>67.5</ele>
        <time>2025-02-11T15:08:56Z</time>
      </trkpt>
      <trkpt lat="47.7819" lon="-2.43994">
        <ele>67.6</ele>
        <time>2025-02-11T15:08:57Z</time>
      </trkpt>
      <trkpt lat="47.78189" lon="-2.43994">
        <ele>67.6</ele>
        <time>2025-02-11T15:08:58Z</time>
      </trkpt>
      <trkpt lat="47.78188" lon="-2.43994">
        <ele>67.6</ele>
        <time>2025-02-11T15:08:59Z</time>
      </trkpt>
      <trkpt lat="47.78187" lon="-2.43994">
        <ele>67.7</ele>
        <time>2025-02-11T15:09:00Z</time>
      </trkpt>
      <trkpt lat="47.78186" lon="-2.43994">
        <ele>67.7</ele>
        <time>2025-02-11T15:09:01Z</time>
      </trkpt>
      <trkpt lat="47.78185" lon="-2.43993">
        <ele>67.8</ele>
        <time>2025-02-11T15:09:02Z</time>
      </trkpt>
      <trkpt lat="47.78184" lon="-2.43993">
        <ele>67.8</ele>
        <time>2025-02-11T15:09:03Z</time>
      </trkpt>
      <trkpt lat="47.78183" lon="-2.43992">
        <ele>67.9</ele>
        <time>2025-02-11T15:09:04Z</time>
      </trkpt>
      <trkpt lat="47.78182" lon="-2.43992">
        <ele>67.9</ele>
        <time>2025-02-11T15:09:05Z</time>
      </trkpt>
      <trkpt lat="47.78181" lon="-2.43992">
        <ele>67.9</ele>
        <time>2025-02-11T15:09:06Z</time>
      </trkpt>
      <trkpt lat="47.78179" lon="-2.43992">
        <ele>68</ele>
        <time>2025-02-11T15:09:07Z</time>
      </trkpt>
      <trkpt lat="47.78178" lon="-2.43992">
        <ele>68</ele>
        <time>2025-02-11T15:09:08Z</time>
      </trkpt>
      <trkpt lat="47.78177" lon="-2.43991">
        <ele>68.1</ele>
        <time>2025-02-11T15:09:09Z</time>
      </trkpt>
      <trkpt lat="47.78176" lon="-2.43991">
        <ele>68.1</ele>
        <time>2025-02-11T15:09:10Z</time>
      </trkpt>
      <trkpt lat="47.78175" lon="-2.4399">
        <ele>68.1</ele>
        <time>2025-02-11T15:09:11Z</time>
      </trkpt>
      <trkpt lat="47.78174" lon="-2.4399">
        <ele>68.2</ele>
        <time>2025-02-11T15:09:12Z</time>
      </trkpt>
      <trkpt lat="47.78174" lon="-2.43991">
        <ele>68.2</ele>
        <time>2025-02-11T15:09:13Z</time>
      </trkpt>
      <trkpt lat="47.78172" lon="-2.43991">
        <ele>68.2</ele>
        <time>2025-02-11T15:09:14Z</time>
      </trkpt>
      <trkpt lat="47.78171" lon="-2.43991">
        <ele>68.2</ele>
        <time>2025-02-11T15:09:15Z</time>
      </trkpt>
      <trkpt lat="47.78171" lon="-2.43991">
        <ele>68.2</ele>
        <time>2025-02-11T15:09:16Z</time>
      </trkpt>
      <trkpt lat="47.7817" lon="-2.4399">
        <ele>68.3</ele>
        <time>2025-02-11T15:09:17Z</time>
      </trkpt>
      <trkpt lat="47.78169" lon="-2.4399">
        <ele>68.3</ele>
        <time>2025-02-11T15:09:18Z</time>
      </trkpt>
      <trkpt lat="47.78168" lon="-2.43989">
        <ele>68.4</ele>
        <time>2025-02-11T15:09:19Z</time>
      </trkpt>
      <trkpt lat="47.78167" lon="-2.43988">
        <ele>68.4</ele>
        <time>2025-02-11T15:09:20Z</time>
      </trkpt>
      <trkpt lat="47.78166" lon="-2.43987">
        <ele>68.5</ele>
        <time>2025-02-11T15:09:21Z</time>
      </trkpt>
      <trkpt lat="47.78164" lon="-2.43987">
        <ele>68.6</ele>
        <time>2025-02-11T15:09:22Z</time>
      </trkpt>
      <trkpt lat="47.78163" lon="-2.43987">
        <ele>68.6</ele>
        <time>2025-02-11T15:09:23Z</time>
      </trkpt>
      <trkpt lat="47.78161" lon="-2.43987">
        <ele>68.7</ele>
        <time>2025-02-11T15:09:24Z</time>
      </trkpt>
      <trkpt lat="47.7816" lon="-2.43986">
        <ele>68.8</ele>
        <time>2025-02-11T15:09:25Z</time>
      </trkpt>
      <trkpt lat="47.78159" lon="-2.43985">
        <ele>68.8</ele>
        <time>2025-02-11T15:09:26Z</time>
      </trkpt>
      <trkpt lat="47.78157" lon="-2.43985">
        <ele>68.9</ele>
        <time>2025-02-11T15:09:27Z</time>
      </trkpt>
      <trkpt lat="47.78156" lon="-2.43985">
        <ele>68.9</ele>
        <time>2025-02-11T15:09:28Z</time>
      </trkpt>
      <trkpt lat="47.78155" lon="-2.43985">
        <ele>69</ele>
        <time>2025-02-11T15:09:29Z</time>
      </trkpt>
      <trkpt lat="47.78154" lon="-2.43985">
        <ele>69</ele>
        <time>2025-02-11T15:09:30Z</time>
      </trkpt>
      <trkpt lat="47.78153" lon="-2.43984">
        <ele>69.1</ele>
        <time>2025-02-11T15:09:31Z</time>
      </trkpt>
      <trkpt lat="47.78154" lon="-2.43984">
        <ele>69</ele>
        <time>2025-02-11T15:09:32Z</time>
      </trkpt>
      <trkpt lat="47.78155" lon="-2.43985">
        <ele>69</ele>
        <time>2025-02-11T15:09:33Z</time>
      </trkpt>
      <trkpt lat="47.78156" lon="-2.43985">
        <ele>69</ele>
        <time>2025-02-11T15:09:34Z</time>
      </trkpt>
      <trkpt lat="47.78155" lon="-2.43985">
        <ele>69</ele>
        <time>2025-02-11T15:09:35Z</time>
      </trkpt>
      <trkpt lat="47.78154" lon="-2.43985">
        <ele>69</ele>
        <time>2025-02-11T15:09:36Z</time>
      </trkpt>
      <trkpt lat="47.78152" lon="-2.43984">
        <ele>69.1</ele>
        <time>2025-02-11T15:09:37Z</time>
      </trkpt>
      <trkpt lat="47.78151" lon="-2.43984">
        <ele>69.1</ele>
        <time>2025-02-11T15:09:38Z</time>
      </trkpt>
      <trkpt lat="47.7815" lon="-2.43983">
        <ele>69.2</ele>
        <time>2025-02-11T15:09:39Z</time>
      </trkpt>
      <trkpt lat="47.78149" lon="-2.43983">
        <ele>69.2</ele>
        <time>2025-02-11T15:09:40Z</time>
      </trkpt>
      <trkpt lat="47.78148" lon="-2.43983">
        <ele>69.3</ele>
        <time>2025-02-11T15:09:41Z</time>
      </trkpt>
      <trkpt lat="47.78147" lon="-2.43983">
        <ele>69.3</ele>
        <time>2025-02-11T15:09:42Z</time>
      </trkpt>
      <trkpt lat="47.78146" lon="-2.43982">
        <ele>69.4</ele>
        <time>2025-02-11T15:09:43Z</time>
      </trkpt>
      <trkpt lat="47.78145" lon="-2.43982">
        <ele>69.4</ele>
        <time>2025-02-11T15:09:44Z</time>
      </trkpt>
      <trkpt lat="47.78144" lon="-2.43982">
        <ele>69.5</ele>
        <time>2025-02-11T15:09:45Z</time>
      </trkpt>
      <trkpt lat="47.78143" lon="-2.43982">
        <ele>69.5</ele>
        <time>2025-02-11T15:09:46Z</time>
      </trkpt>
      <trkpt lat="47.78142" lon="-2.43982">
        <ele>69.5</ele>
        <time>2025-02-11T15:09:47Z</time>
      </trkpt>
      <trkpt lat="47.78141" lon="-2.43982">
        <ele>69.6</ele>
        <time>2025-02-11T15:09:48Z</time>
      </trkpt>
      <trkpt lat="47.78139" lon="-2.43982">
        <ele>69.6</ele>
        <time>2025-02-11T15:09:49Z</time>
      </trkpt>
      <trkpt lat="47.78138" lon="-2.43982">
        <ele>69.7</ele>
        <time>2025-02-11T15:09:50Z</time>
      </trkpt>
      <trkpt lat="47.78139" lon="-2.43982">
        <ele>69.7</ele>
        <time>2025-02-11T15:09:51Z</time>
      </trkpt>
      <trkpt lat="47.78138" lon="-2.43981">
        <ele>69.8</ele>
        <time>2025-02-11T15:09:52Z</time>
      </trkpt>
      <trkpt lat="47.78137" lon="-2.4398">
        <ele>69.8</ele>
        <time>2025-02-11T15:09:53Z</time>
      </trkpt>
      <trkpt lat="47.78136" lon="-2.4398">
        <ele>69.8</ele>
        <time>2025-02-11T15:09:54Z</time>
      </trkpt>
      <trkpt lat="47.78135" lon="-2.43979">
        <ele>69.9</ele>
        <time>2025-02-11T15:09:55Z</time>
      </trkpt>
      <trkpt lat="47.78134" lon="-2.43977">
        <ele>70</ele>
        <time>2025-02-11T15:09:56Z</time>
      </trkpt>
      <trkpt lat="47.78133" lon="-2.43976">
        <ele>70.1</ele>
        <time>2025-02-11T15:09:57Z</time>
      </trkpt>
      <trkpt lat="47.78132" lon="-2.43975">
        <ele>70.2</ele>
        <time>2025-02-11T15:09:58Z</time>
      </trkpt>
      <trkpt lat="47.78131" lon="-2.43974">
        <ele>70.2</ele>
        <time>2025-02-11T15:09:59Z</time>
      </trkpt>
      <trkpt lat="47.78131" lon="-2.43973">
        <ele>70.3</ele>
        <time>2025-02-11T15:10:00Z</time>
      </trkpt>
      <trkpt lat="47.78131" lon="-2.43972">
        <ele>70.3</ele>
        <time>2025-02-11T15:10:01Z</time>
      </trkpt>
      <trkpt lat="47.7813" lon="-2.43972">
        <ele>70.3</ele>
        <time>2025-02-11T15:10:02Z</time>
      </trkpt>
      <trkpt lat="47.78129" lon="-2.43971">
        <ele>70.4</ele>
        <time>2025-02-11T15:10:03Z</time>
      </trkpt>
      <trkpt lat="47.78127" lon="-2.43971">
        <ele>70.5</ele>
        <time>2025-02-11T15:10:04Z</time>
      </trkpt>
      <trkpt lat="47.78126" lon="-2.43971">
        <ele>70.5</ele>
        <time>2025-02-11T15:10:05Z</time>
      </trkpt>
      <trkpt lat="47.78125" lon="-2.43972">
        <ele>70.5</ele>
        <time>2025-02-11T15:10:06Z</time>
      </trkpt>
      <trkpt lat="47.78124" lon="-2.43972">
        <ele>70.5</ele>
        <time>2025-02-11T15:10:07Z</time>
      </trkpt>
      <trkpt lat="47.78123" lon="-2.43972">
        <ele>70.6</ele>
        <time>2025-02-11T15:10:08Z</time>
      </trkpt>
      <trkpt lat="47.78123" lon="-2.4397">
        <ele>70.7</ele>
        <time>2025-02-11T15:10:09Z</time>
      </trkpt>
      <trkpt lat="47.78123" lon="-2.43968">
        <ele>70.7</ele>
        <time>2025-02-11T15:10:10Z</time>
      </trkpt>
      <trkpt lat="47.78123" lon="-2.43966">
        <ele>70.8</ele>
        <time>2025-02-11T15:10:11Z</time>
      </trkpt>
      <trkpt lat="47.78123" lon="-2.43964">
        <ele>70.9</ele>
        <time>2025-02-11T15:10:12Z</time>
      </trkpt>
      <trkpt lat="47.78123" lon="-2.43962">
        <ele>71</ele>
        <time>2025-02-11T15:10:13Z</time>
      </trkpt>
      <trkpt lat="47.78123" lon="-2.4396">
        <ele>71</ele>
        <time>2025-02-11T15:10:14Z</time>
      </trkpt>
      <trkpt lat="47.78123" lon="-2.43958">
        <ele>71.1</ele>
        <time>2025-02-11T15:10:15Z</time>
      </trkpt>
      <trkpt lat="47.78123" lon="-2.43956">
        <ele>71.2</ele>
        <time>2025-02-11T15:10:16Z</time>
      </trkpt>
      <trkpt lat="47.78123" lon="-2.43954">
        <ele>71.2</ele>
        <time>2025-02-11T15:10:17Z</time>
      </trkpt>
      <trkpt lat="47.78122" lon="-2.43953">
        <ele>71.3</ele>
        <time>2025-02-11T15:10:18Z</time>
      </trkpt>
      <trkpt lat="47.78122" lon="-2.43951">
        <ele>71.4</ele>
        <time>2025-02-11T15:10:19Z</time>
      </trkpt>
      <trkpt lat="47.78122" lon="-2.43949">
        <ele>71.5</ele>
        <time>2025-02-11T15:10:20Z</time>
      </trkpt>
      <trkpt lat="47.78122" lon="-2.43947">
        <ele>71.5</ele>
        <time>2025-02-11T15:10:21Z</time>
      </trkpt>
      <trkpt lat="47.78121" lon="-2.43945">
        <ele>71.6</ele>
        <time>2025-02-11T15:10:22Z</time>
      </trkpt>
      <trkpt lat="47.78122" lon="-2.43944">
        <ele>71.6</ele>
        <time>2025-02-11T15:10:23Z</time>
      </trkpt>
      <trkpt lat="47.78122" lon="-2.43942">
        <ele>71.6</ele>
        <time>2025-02-11T15:10:24Z</time>
      </trkpt>
      <trkpt lat="47.78122" lon="-2.43941">
        <ele>71.6</ele>
        <time>2025-02-11T15:10:25Z</time>
      </trkpt>
      <trkpt lat="47.78122" lon="-2.43939">
        <ele>71.6</ele>
        <time>2025-02-11T15:10:26Z</time>
      </trkpt>
      <trkpt lat="47.78122" lon="-2.43937">
        <ele>71.6</ele>
        <time>2025-02-11T15:10:27Z</time>
      </trkpt>
      <trkpt lat="47.78122" lon="-2.43936">
        <ele>71.6</ele>
        <time>2025-02-11T15:10:28Z</time>
      </trkpt>
      <trkpt lat="47.78122" lon="-2.43934">
        <ele>71.6</ele>
        <time>2025-02-11T15:10:29Z</time>
      </trkpt>
      <trkpt lat="47.78122" lon="-2.43933">
        <ele>71.6</ele>
        <time>2025-02-11T15:10:30Z</time>
      </trkpt>
      <trkpt lat="47.78122" lon="-2.43931">
        <ele>71.6</ele>
        <time>2025-02-11T15:10:31Z</time>
      </trkpt>
      <trkpt lat="47.78121" lon="-2.4393">
        <ele>71.6</ele>
        <time>2025-02-11T15:10:32Z</time>
      </trkpt>
      <trkpt lat="47.78121" lon="-2.43928">
        <ele>71.6</ele>
        <time>2025-02-11T15:10:33Z</time>
      </trkpt>
      <trkpt lat="47.78121" lon="-2.43927">
        <ele>71.6</ele>
        <time>2025-02-11T15:10:34Z</time>
      </trkpt>
      <trkpt lat="47.78121" lon="-2.43925">
        <ele>71.7</ele>
        <time>2025-02-11T15:10:35Z</time>
      </trkpt>
      <trkpt lat="47.7812" lon="-2.43924">
        <ele>71.7</ele>
        <time>2025-02-11T15:10:36Z</time>
      </trkpt>
      <trkpt lat="47.7812" lon="-2.43923">
        <ele>71.7</ele>
        <time>2025-02-11T15:10:37Z</time>
      </trkpt>
      <trkpt lat="47.7812" lon="-2.43921">
        <ele>71.7</ele>
        <time>2025-02-11T15:10:38Z</time>
      </trkpt>
      <trkpt lat="47.7812" lon="-2.4392">
        <ele>71.7</ele>
        <time>2025-02-11T15:10:39Z</time>
      </trkpt>
      <trkpt lat="47.78121" lon="-2.43919">
        <ele>71.7</ele>
        <time>2025-02-11T15:10:40Z</time>
      </trkpt>
      <trkpt lat="47.78121" lon="-2.43917">
        <ele>71.7</ele>
        <time>2025-02-11T15:10:41Z</time>
      </trkpt>
      <trkpt lat="47.7812" lon="-2.43915">
        <ele>71.7</ele>
        <time>2025-02-11T15:10:42Z</time>
      </trkpt>
      <trkpt lat="47.7812" lon="-2.43914">
        <ele>71.7</ele>
        <time>2025-02-11T15:10:43Z</time>
      </trkpt>
      <trkpt lat="47.78121" lon="-2.43912">
        <ele>71.7</ele>
        <time>2025-02-11T15:10:44Z</time>
      </trkpt>
      <trkpt lat="47.78121" lon="-2.43911">
        <ele>71.6</ele>
        <time>2025-02-11T15:10:45Z</time>
      </trkpt>
      <trkpt lat="47.78121" lon="-2.43909">
        <ele>71.7</ele>
        <time>2025-02-11T15:10:46Z</time>
      </trkpt>
      <trkpt lat="47.78121" lon="-2.43908">
        <ele>71.6</ele>
        <time>2025-02-11T15:10:47Z</time>
      </trkpt>
      <trkpt lat="47.78121" lon="-2.43906">
        <ele>71.6</ele>
        <time>2025-02-11T15:10:48Z</time>
      </trkpt>
      <trkpt lat="47.78122" lon="-2.43905">
        <ele>71.6</ele>
        <time>2025-02-11T15:10:49Z</time>
      </trkpt>
      <trkpt lat="47.78121" lon="-2.43904">
        <ele>71.6</ele>
        <time>2025-02-11T15:10:50Z</time>
      </trkpt>
      <trkpt lat="47.78121" lon="-2.43902">
        <ele>71.7</ele>
        <time>2025-02-11T15:10:51Z</time>
      </trkpt>
      <trkpt lat="47.7812" lon="-2.439">
        <ele>71.7</ele>
        <time>2025-02-11T15:10:52Z</time>
      </trkpt>
      <trkpt lat="47.7812" lon="-2.43898">
        <ele>71.7</ele>
        <time>2025-02-11T15:10:53Z</time>
      </trkpt>
      <trkpt lat="47.78121" lon="-2.43897">
        <ele>71.7</ele>
        <time>2025-02-11T15:10:54Z</time>
      </trkpt>
      <trkpt lat="47.78121" lon="-2.43895">
        <ele>71.6</ele>
        <time>2025-02-11T15:10:55Z</time>
      </trkpt>
      <trkpt lat="47.78121" lon="-2.43893">
        <ele>71.7</ele>
        <time>2025-02-11T15:10:56Z</time>
      </trkpt>
      <trkpt lat="47.78121" lon="-2.43892">
        <ele>71.7</ele>
        <time>2025-02-11T15:10:57Z</time>
      </trkpt>
      <trkpt lat="47.7812" lon="-2.4389">
        <ele>71.7</ele>
        <time>2025-02-11T15:10:58Z</time>
      </trkpt>
      <trkpt lat="47.78119" lon="-2.43889">
        <ele>71.7</ele>
        <time>2025-02-11T15:10:59Z</time>
      </trkpt>
      <trkpt lat="47.7812" lon="-2.43887">
        <ele>71.7</ele>
        <time>2025-02-11T15:11:00Z</time>
      </trkpt>
      <trkpt lat="47.7812" lon="-2.43885">
        <ele>71.7</ele>
        <time>2025-02-11T15:11:01Z</time>
      </trkpt>
      <trkpt lat="47.7812" lon="-2.43884">
        <ele>71.7</ele>
        <time>2025-02-11T15:11:02Z</time>
      </trkpt>
      <trkpt lat="47.78119" lon="-2.43883">
        <ele>71.7</ele>
        <time>2025-02-11T15:11:03Z</time>
      </trkpt>
      <trkpt lat="47.78119" lon="-2.43882">
        <ele>71.7</ele>
        <time>2025-02-11T15:11:04Z</time>
      </trkpt>
      <trkpt lat="47.78118" lon="-2.43881">
        <ele>71.7</ele>
        <time>2025-02-11T15:11:05Z</time>
      </trkpt>
      <trkpt lat="47.78118" lon="-2.43879">
        <ele>71.8</ele>
        <time>2025-02-11T15:11:06Z</time>
      </trkpt>
      <trkpt lat="47.78118" lon="-2.43878">
        <ele>71.8</ele>
        <time>2025-02-11T15:11:07Z</time>
      </trkpt>
      <trkpt lat="47.78118" lon="-2.43876">
        <ele>71.8</ele>
        <time>2025-02-11T15:11:08Z</time>
      </trkpt>
      <trkpt lat="47.78117" lon="-2.43875">
        <ele>71.8</ele>
        <time>2025-02-11T15:11:09Z</time>
      </trkpt>
      <trkpt lat="47.78117" lon="-2.43874">
        <ele>71.8</ele>
        <time>2025-02-11T15:11:10Z</time>
      </trkpt>
      <trkpt lat="47.78117" lon="-2.43872">
        <ele>71.8</ele>
        <time>2025-02-11T15:11:11Z</time>
      </trkpt>
      <trkpt lat="47.78117" lon="-2.4387">
        <ele>71.8</ele>
        <time>2025-02-11T15:11:12Z</time>
      </trkpt>
      <trkpt lat="47.78117" lon="-2.43869">
        <ele>71.8</ele>
        <time>2025-02-11T15:11:13Z</time>
      </trkpt>
      <trkpt lat="47.78118" lon="-2.43868">
        <ele>71.8</ele>
        <time>2025-02-11T15:11:14Z</time>
      </trkpt>
      <trkpt lat="47.78118" lon="-2.43867">
        <ele>71.7</ele>
        <time>2025-02-11T15:11:15Z</time>
      </trkpt>
      <trkpt lat="47.78119" lon="-2.43865">
        <ele>71.7</ele>
        <time>2025-02-11T15:11:16Z</time>
      </trkpt>
      <trkpt lat="47.7812" lon="-2.43864">
        <ele>71.7</ele>
        <time>2025-02-11T15:11:17Z</time>
      </trkpt>
      <trkpt lat="47.7812" lon="-2.43863">
        <ele>71.7</ele>
        <time>2025-02-11T15:11:18Z</time>
      </trkpt>
      <trkpt lat="47.78121" lon="-2.43863">
        <ele>71.6</ele>
        <time>2025-02-11T15:11:19Z</time>
      </trkpt>
      <trkpt lat="47.78121" lon="-2.43861">
        <ele>71.6</ele>
        <time>2025-02-11T15:11:20Z</time>
      </trkpt>
      <trkpt lat="47.78122" lon="-2.4386">
        <ele>71.6</ele>
        <time>2025-02-11T15:11:21Z</time>
      </trkpt>
      <trkpt lat="47.78122" lon="-2.43859">
        <ele>71.6</ele>
        <time>2025-02-11T15:11:22Z</time>
      </trkpt>
      <trkpt lat="47.78123" lon="-2.43858">
        <ele>71.6</ele>
        <time>2025-02-11T15:11:23Z</time>
      </trkpt>
      <trkpt lat="47.78124" lon="-2.43857">
        <ele>71.5</ele>
        <time>2025-02-11T15:11:24Z</time>
      </trkpt>
      <trkpt lat="47.78125" lon="-2.43856">
        <ele>71.5</ele>
        <time>2025-02-11T15:11:25Z</time>
      </trkpt>
      <trkpt lat="47.78126" lon="-2.43855">
        <ele>71.5</ele>
        <time>2025-02-11T15:11:26Z</time>
      </trkpt>
      <trkpt lat="47.78126" lon="-2.43854">
        <ele>71.5</ele>
        <time>2025-02-11T15:11:27Z</time>
      </trkpt>
      <trkpt lat="47.78127" lon="-2.43852">
        <ele>71.4</ele>
        <time>2025-02-11T15:11:28Z</time>
      </trkpt>
      <trkpt lat="47.78127" lon="-2.43851">
        <ele>71.4</ele>
        <time>2025-02-11T15:11:29Z</time>
      </trkpt>
      <trkpt lat="47.78128" lon="-2.43849">
        <ele>71.4</ele>
        <time>2025-02-11T15:11:30Z</time>
      </trkpt>
      <trkpt lat="47.78129" lon="-2.43848">
        <ele>71.4</ele>
        <time>2025-02-11T15:11:31Z</time>
      </trkpt>
      <trkpt lat="47.78129" lon="-2.43847">
        <ele>71.4</ele>
        <time>2025-02-11T15:11:32Z</time>
      </trkpt>
      <trkpt lat="47.78129" lon="-2.43845">
        <ele>71.3</ele>
        <time>2025-02-11T15:11:33Z</time>
      </trkpt>
      <trkpt lat="47.7813" lon="-2.43843">
        <ele>71.3</ele>
        <time>2025-02-11T15:11:34Z</time>
      </trkpt>
      <trkpt lat="47.7813" lon="-2.43842">
        <ele>71.3</ele>
        <time>2025-02-11T15:11:35Z</time>
      </trkpt>
      <trkpt lat="47.7813" lon="-2.4384">
        <ele>71.3</ele>
        <time>2025-02-11T15:11:36Z</time>
      </trkpt>
      <trkpt lat="47.7813" lon="-2.43839">
        <ele>71.3</ele>
        <time>2025-02-11T15:11:37Z</time>
      </trkpt>
      <trkpt lat="47.7813" lon="-2.43837">
        <ele>71.3</ele>
        <time>2025-02-11T15:11:38Z</time>
      </trkpt>
      <trkpt lat="47.7813" lon="-2.43835">
        <ele>71.3</ele>
        <time>2025-02-11T15:11:39Z</time>
      </trkpt>
      <trkpt lat="47.7813" lon="-2.43833">
        <ele>71.3</ele>
        <time>2025-02-11T15:11:40Z</time>
      </trkpt>
      <trkpt lat="47.78131" lon="-2.43832">
        <ele>71.2</ele>
        <time>2025-02-11T15:11:41Z</time>
      </trkpt>
      <trkpt lat="47.78131" lon="-2.4383">
        <ele>71.2</ele>
        <time>2025-02-11T15:11:42Z</time>
      </trkpt>
      <trkpt lat="47.78131" lon="-2.43828">
        <ele>71.1</ele>
        <time>2025-02-11T15:11:43Z</time>
      </trkpt>
      <trkpt lat="47.78131" lon="-2.43827">
        <ele>71</ele>
        <time>2025-02-11T15:11:44Z</time>
      </trkpt>
      <trkpt lat="47.78132" lon="-2.43826">
        <ele>71</ele>
        <time>2025-02-11T15:11:45Z</time>
      </trkpt>
      <trkpt lat="47.78132" lon="-2.43824">
        <ele>70.9</ele>
        <time>2025-02-11T15:11:46Z</time>
      </trkpt>
      <trkpt lat="47.78133" lon="-2.43823">
        <ele>70.8</ele>
        <time>2025-02-11T15:11:47Z</time>
      </trkpt>
      <trkpt lat="47.78133" lon="-2.43821">
        <ele>70.8</ele>
        <time>2025-02-11T15:11:48Z</time>
      </trkpt>
      <trkpt lat="47.78133" lon="-2.4382">
        <ele>70.7</ele>
        <time>2025-02-11T15:11:49Z</time>
      </trkpt>
      <trkpt lat="47.78133" lon="-2.43818">
        <ele>70.6</ele>
        <time>2025-02-11T15:11:50Z</time>
      </trkpt>
      <trkpt lat="47.78134" lon="-2.43817">
        <ele>70.6</ele>
        <time>2025-02-11T15:11:51Z</time>
      </trkpt>
      <trkpt lat="47.78134" lon="-2.43815">
        <ele>70.5</ele>
        <time>2025-02-11T15:11:52Z</time>
      </trkpt>
      <trkpt lat="47.78135" lon="-2.43814">
        <ele>70.4</ele>
        <time>2025-02-11T15:11:53Z</time>
      </trkpt>
      <trkpt lat="47.78135" lon="-2.43812">
        <ele>70.4</ele>
        <time>2025-02-11T15:11:54Z</time>
      </trkpt>
      <trkpt lat="47.78135" lon="-2.43811">
        <ele>70.3</ele>
        <time>2025-02-11T15:11:55Z</time>
      </trkpt>
      <trkpt lat="47.78136" lon="-2.4381">
        <ele>70.2</ele>
        <time>2025-02-11T15:11:56Z</time>
      </trkpt>
      <trkpt lat="47.78136" lon="-2.43808">
        <ele>70.2</ele>
        <time>2025-02-11T15:11:57Z</time>
      </trkpt>
      <trkpt lat="47.78136" lon="-2.43807">
        <ele>70.1</ele>
        <time>2025-02-11T15:11:58Z</time>
      </trkpt>
      <trkpt lat="47.78137" lon="-2.43806">
        <ele>70.1</ele>
        <time>2025-02-11T15:11:59Z</time>
      </trkpt>
      <trkpt lat="47.78137" lon="-2.43805">
        <ele>70</ele>
        <time>2025-02-11T15:12:00Z</time>
      </trkpt>
      <trkpt lat="47.78137" lon="-2.43804">
        <ele>70</ele>
        <time>2025-02-11T15:12:01Z</time>
      </trkpt>
      <trkpt lat="47.78138" lon="-2.43803">
        <ele>69.9</ele>
        <time>2025-02-11T15:12:02Z</time>
      </trkpt>
      <trkpt lat="47.78138" lon="-2.43802">
        <ele>69.9</ele>
        <time>2025-02-11T15:12:03Z</time>
      </trkpt>
      <trkpt lat="47.78138" lon="-2.438">
        <ele>69.8</ele>
        <time>2025-02-11T15:12:04Z</time>
      </trkpt>
      <trkpt lat="47.78138" lon="-2.43799">
        <ele>69.8</ele>
        <time>2025-02-11T15:12:05Z</time>
      </trkpt>
      <trkpt lat="47.78137" lon="-2.43798">
        <ele>69.8</ele>
        <time>2025-02-11T15:12:06Z</time>
      </trkpt>
      <trkpt lat="47.78137" lon="-2.43797">
        <ele>69.7</ele>
        <time>2025-02-11T15:12:07Z</time>
      </trkpt>
      <trkpt lat="47.78137" lon="-2.43795">
        <ele>69.7</ele>
        <time>2025-02-11T15:12:08Z</time>
      </trkpt>
      <trkpt lat="47.78136" lon="-2.43794">
        <ele>69.7</ele>
        <time>2025-02-11T15:12:09Z</time>
      </trkpt>
      <trkpt lat="47.78135" lon="-2.43793">
        <ele>69.6</ele>
        <time>2025-02-11T15:12:10Z</time>
      </trkpt>
      <trkpt lat="47.78135" lon="-2.43792">
        <ele>69.6</ele>
        <time>2025-02-11T15:12:11Z</time>
      </trkpt>
      <trkpt lat="47.78134" lon="-2.43792">
        <ele>69.6</ele>
        <time>2025-02-11T15:12:12Z</time>
      </trkpt>
      <trkpt lat="47.78133" lon="-2.43791">
        <ele>69.6</ele>
        <time>2025-02-11T15:12:13Z</time>
      </trkpt>
      <trkpt lat="47.78132" lon="-2.4379">
        <ele>69.6</ele>
        <time>2025-02-11T15:12:14Z</time>
      </trkpt>
      <trkpt lat="47.78131" lon="-2.4379">
        <ele>69.6</ele>
        <time>2025-02-11T15:12:15Z</time>
      </trkpt>
      <trkpt lat="47.7813" lon="-2.4379">
        <ele>69.6</ele>
        <time>2025-02-11T15:12:16Z</time>
      </trkpt>
      <trkpt lat="47.78129" lon="-2.4379">
        <ele>69.6</ele>
        <time>2025-02-11T15:12:17Z</time>
      </trkpt>
      <trkpt lat="47.78128" lon="-2.4379">
        <ele>69.6</ele>
        <time>2025-02-11T15:12:18Z</time>
      </trkpt>
      <trkpt lat="47.78127" lon="-2.4379">
        <ele>69.6</ele>
        <time>2025-02-11T15:12:19Z</time>
      </trkpt>
      <trkpt lat="47.78126" lon="-2.4379">
        <ele>69.6</ele>
        <time>2025-02-11T15:12:20Z</time>
      </trkpt>
      <trkpt lat="47.78125" lon="-2.43789">
        <ele>69.6</ele>
        <time>2025-02-11T15:12:21Z</time>
      </trkpt>
      <trkpt lat="47.78125" lon="-2.43789">
        <ele>69.6</ele>
        <time>2025-02-11T15:12:22Z</time>
      </trkpt>
      <trkpt lat="47.78125" lon="-2.43789">
        <ele>69.6</ele>
        <time>2025-02-11T15:12:23Z</time>
      </trkpt>
      <trkpt lat="47.78123" lon="-2.43789">
        <ele>69.6</ele>
        <time>2025-02-11T15:12:24Z</time>
      </trkpt>
      <trkpt lat="47.78122" lon="-2.43789">
        <ele>69.6</ele>
        <time>2025-02-11T15:12:25Z</time>
      </trkpt>
      <trkpt lat="47.78122" lon="-2.43787">
        <ele>69.6</ele>
        <time>2025-02-11T15:12:26Z</time>
      </trkpt>
      <trkpt lat="47.78121" lon="-2.43786">
        <ele>69.5</ele>
        <time>2025-02-11T15:12:27Z</time>
      </trkpt>
      <trkpt lat="47.7812" lon="-2.43786">
        <ele>69.5</ele>
        <time>2025-02-11T15:12:28Z</time>
      </trkpt>
      <trkpt lat="47.7812" lon="-2.43785">
        <ele>69.4</ele>
        <time>2025-02-11T15:12:29Z</time>
      </trkpt>
      <trkpt lat="47.78119" lon="-2.43784">
        <ele>69.4</ele>
        <time>2025-02-11T15:12:30Z</time>
      </trkpt>
      <trkpt lat="47.78119" lon="-2.43783">
        <ele>69.3</ele>
        <time>2025-02-11T15:12:31Z</time>
      </trkpt>
      <trkpt lat="47.78118" lon="-2.43783">
        <ele>69.3</ele>
        <time>2025-02-11T15:12:32Z</time>
      </trkpt>
      <trkpt lat="47.78118" lon="-2.43783">
        <ele>69.3</ele>
        <time>2025-02-11T15:12:33Z</time>
      </trkpt>
      <trkpt lat="47.78117" lon="-2.43783">
        <ele>69.3</ele>
        <time>2025-02-11T15:12:34Z</time>
      </trkpt>
      <trkpt lat="47.78116" lon="-2.43782">
        <ele>69.3</ele>
        <time>2025-02-11T15:12:35Z</time>
      </trkpt>
      <trkpt lat="47.78116" lon="-2.43781">
        <ele>69.2</ele>
        <time>2025-02-11T15:12:36Z</time>
      </trkpt>
      <trkpt lat="47.78116" lon="-2.43781">
        <ele>69.2</ele>
        <time>2025-02-11T15:12:37Z</time>
      </trkpt>
      <trkpt lat="47.78116" lon="-2.43781">
        <ele>69.2</ele>
        <time>2025-02-11T15:12:38Z</time>
      </trkpt>
      <trkpt lat="47.78116" lon="-2.43781">
        <ele>69.2</ele>
        <time>2025-02-11T15:12:39Z</time>
      </trkpt>
      <trkpt lat="47.78116" lon="-2.43781">
        <ele>69.2</ele>
        <time>2025-02-11T15:12:40Z</time>
      </trkpt>
      <trkpt lat="47.78116" lon="-2.43781">
        <ele>69.2</ele>
        <time>2025-02-11T15:12:41Z</time>
      </trkpt>
      <trkpt lat="47.78116" lon="-2.43781">
        <ele>69.2</ele>
        <time>2025-02-11T15:12:42Z</time>
      </trkpt>
      <trkpt lat="47.78117" lon="-2.43781">
        <ele>69.2</ele>
        <time>2025-02-11T15:12:43Z</time>
      </trkpt>
      <trkpt lat="47.78117" lon="-2.43781">
        <ele>69.2</ele>
        <time>2025-02-11T15:12:44Z</time>
      </trkpt>
      <trkpt lat="47.78117" lon="-2.43781">
        <ele>69.2</ele>
        <time>2025-02-11T15:12:45Z</time>
      </trkpt>
      <trkpt lat="47.78117" lon="-2.43781">
        <ele>69.2</ele>
        <time>2025-02-11T15:12:46Z</time>
      </trkpt>
      <trkpt lat="47.78117" lon="-2.43781">
        <ele>69.2</ele>
        <time>2025-02-11T15:12:47Z</time>
      </trkpt>
      <trkpt lat="47.78117" lon="-2.43781">
        <ele>69.2</ele>
        <time>2025-02-11T15:12:48Z</time>
      </trkpt>
      <trkpt lat="47.78117" lon="-2.43781">
        <ele>69.2</ele>
        <time>2025-02-11T15:12:49Z</time>
      </trkpt>
      <trkpt lat="47.78117" lon="-2.43781">
        <ele>69.2</ele>
        <time>2025-02-11T15:12:50Z</time>
      </trkpt>
      <trkpt lat="47.78117" lon="-2.43781">
        <ele>69.2</ele>
        <time>2025-02-11T15:12:51Z</time>
      </trkpt>
      <trkpt lat="47.78117" lon="-2.43781">
        <ele>69.2</ele>
        <time>2025-02-11T15:12:52Z</time>
      </trkpt>
      <trkpt lat="47.78117" lon="-2.43781">
        <ele>69.2</ele>
        <time>2025-02-11T15:12:53Z</time>
      </trkpt>
      <trkpt lat="47.78117" lon="-2.43781">
        <ele>69.2</ele>
        <time>2025-02-11T15:12:54Z</time>
      </trkpt>
      <trkpt lat="47.78117" lon="-2.43781">
        <ele>69.2</ele>
        <time>2025-02-11T15:12:55Z</time>
      </trkpt>
      <trkpt lat="47.78117" lon="-2.43781">
        <ele>69.2</ele>
        <time>2025-02-11T15:12:56Z</time>
      </trkpt>
      <trkpt lat="47.78117" lon="-2.43781">
        <ele>69.2</ele>
        <time>2025-02-11T15:12:57Z</time>
      </trkpt>
      <trkpt lat="47.78117" lon="-2.43781">
        <ele>69.2</ele>
        <time>2025-02-11T15:12:58Z</time>
      </trkpt>
      <trkpt lat="47.78117" lon="-2.43781">
        <ele>69.2</ele>
        <time>2025-02-11T15:12:59Z</time>
      </trkpt>
      <trkpt lat="47.78117" lon="-2.43781">
        <ele>69.2</ele>
        <time>2025-02-11T15:13:00Z</time>
      </trkpt>
      <trkpt lat="47.78117" lon="-2.43781">
        <ele>69.2</ele>
        <time>2025-02-11T15:13:01Z</time>
      </trkpt>
      <trkpt lat="47.78117" lon="-2.43781">
        <ele>69.2</ele>
        <time>2025-02-11T15:13:02Z</time>
      </trkpt>
      <trkpt lat="47.78117" lon="-2.43781">
        <ele>69.2</ele>
        <time>2025-02-11T15:13:03Z</time>
      </trkpt>
      <trkpt lat="47.78117" lon="-2.43781">
        <ele>69.2</ele>
        <time>2025-02-11T15:13:04Z</time>
      </trkpt>
      <trkpt lat="47.78117" lon="-2.43781">
        <ele>69.2</ele>
        <time>2025-02-11T15:13:05Z</time>
      </trkpt>
    </trkseg>
  </trk>
</gpx>